<?xml version="1.0" encoding="UTF-8"?>
<gpx version="1.1" creator="Apple Health Export" xmlns="http://www.topografix.com/GPX/1/1" xmlns:xsi="http://www.w3.org/2001/XMLSchema-instance" xsi:schemaLocation="http://www.topografix.com/GPX/1/1 http://www.topografix.com/GPX/1/1/gpx.xsd">
  <metadata>
    <time>2022-04-11T14:57:53Z</time>
  </metadata>
  <trk>
    <name>Route 2022-03-04 1:51pm</name>
    <trkseg>
      <trkpt lon="-2.253608" lat="53.126582"><ele>103.524361</ele><time>2022-03-04T09:22:32Z</time><extensions><speed>0.004944</speed><course>104.891014</course><hAcc>2.214920</hAcc><vAcc>1.830216</vAcc></extensions></trkpt>
      <trkpt lon="-2.253607" lat="53.126582"><ele>103.163185</ele><time>2022-03-04T09:22:33Z</time><extensions><speed>0.014388</speed><course>104.742828</course><hAcc>2.172012</hAcc><vAcc>1.710537</vAcc></extensions></trkpt>
      <trkpt lon="-2.253607" lat="53.126582"><ele>102.546600</ele><time>2022-03-04T09:22:34Z</time><extensions><speed>0.054363</speed><course>104.604805</course><hAcc>2.051984</hAcc><vAcc>1.509187</vAcc></extensions></trkpt>
      <trkpt lon="-2.253606" lat="53.126582"><ele>101.971161</ele><time>2022-03-04T09:22:35Z</time><extensions><speed>0.021685</speed><course>104.563789</course><hAcc>2.001576</hAcc><vAcc>1.342121</vAcc></extensions></trkpt>
      <trkpt lon="-2.253605" lat="53.126582"><ele>101.429146</ele><time>2022-03-04T09:22:36Z</time><extensions><speed>0.006429</speed><course>105.421516</course><hAcc>1.992164</hAcc><vAcc>1.205223</vAcc></extensions></trkpt>
      <trkpt lon="-2.253601" lat="53.126581"><ele>100.923988</ele><time>2022-03-04T09:22:37Z</time><extensions><speed>0.553975</speed><course>106.085411</course><hAcc>1.824293</hAcc><vAcc>1.096102</vAcc></extensions></trkpt>
      <trkpt lon="-2.253592" lat="53.126580"><ele>100.469093</ele><time>2022-03-04T09:22:38Z</time><extensions><speed>0.766257</speed><course>107.642593</course><hAcc>1.603445</hAcc><vAcc>1.013212</vAcc></extensions></trkpt>
      <trkpt lon="-2.253581" lat="53.126578"><ele>100.045273</ele><time>2022-03-04T09:22:39Z</time><extensions><speed>0.700458</speed><course>100.654343</course><hAcc>1.440006</hAcc><vAcc>0.949141</vAcc></extensions></trkpt>
      <trkpt lon="-2.253572" lat="53.126577"><ele>99.668411</ele><time>2022-03-04T09:22:40Z</time><extensions><speed>0.566569</speed><course>94.403297</course><hAcc>1.319874</hAcc><vAcc>0.902987</vAcc></extensions></trkpt>
      <trkpt lon="-2.253564" lat="53.126577"><ele>99.337997</ele><time>2022-03-04T09:22:41Z</time><extensions><speed>0.424805</speed><course>89.634949</course><hAcc>1.214716</hAcc><vAcc>0.871602</vAcc></extensions></trkpt>
      <trkpt lon="-2.253559" lat="53.126577"><ele>99.052139</ele><time>2022-03-04T09:22:42Z</time><extensions><speed>0.265346</speed><course>85.427086</course><hAcc>1.150970</hAcc><vAcc>0.851895</vAcc></extensions></trkpt>
      <trkpt lon="-2.253556" lat="53.126578"><ele>98.812035</ele><time>2022-03-04T09:22:43Z</time><extensions><speed>0.004878</speed><course>79.022507</course><hAcc>1.190860</hAcc><vAcc>0.841029</vAcc></extensions></trkpt>
      <trkpt lon="-2.253556" lat="53.126578"><ele>98.611610</ele><time>2022-03-04T09:22:44Z</time><extensions><speed>0.021236</speed><course>70.744858</course><hAcc>1.161294</hAcc><vAcc>0.836508</vAcc></extensions></trkpt>
      <trkpt lon="-2.253555" lat="53.126578"><ele>98.459564</ele><time>2022-03-04T09:22:45Z</time><extensions><speed>0.027129</speed><course>69.227524</course><hAcc>1.141854</hAcc><vAcc>0.836196</vAcc></extensions></trkpt>
      <trkpt lon="-2.253555" lat="53.126578"><ele>98.341866</ele><time>2022-03-04T09:22:46Z</time><extensions><speed>0.029806</speed><course>70.009705</course><hAcc>1.128901</hAcc><vAcc>0.838354</vAcc></extensions></trkpt>
      <trkpt lon="-2.253554" lat="53.126578"><ele>98.255875</ele><time>2022-03-04T09:22:47Z</time><extensions><speed>0.064234</speed><course>71.925774</course><hAcc>1.097547</hAcc><vAcc>0.841700</vAcc></extensions></trkpt>
      <trkpt lon="-2.253553" lat="53.126578"><ele>98.195892</ele><time>2022-03-04T09:22:48Z</time><extensions><speed>0.028043</speed><course>73.134140</course><hAcc>1.115052</hAcc><vAcc>0.845388</vAcc></extensions></trkpt>
      <trkpt lon="-2.253553" lat="53.126578"><ele>98.153938</ele><time>2022-03-04T09:22:49Z</time><extensions><speed>0.023076</speed><course>74.252159</course><hAcc>1.107131</hAcc><vAcc>0.848901</vAcc></extensions></trkpt>
      <trkpt lon="-2.253552" lat="53.126578"><ele>98.131287</ele><time>2022-03-04T09:22:50Z</time><extensions><speed>0.020382</speed><course>74.472153</course><hAcc>1.098706</hAcc><vAcc>0.851960</vAcc></extensions></trkpt>
      <trkpt lon="-2.253552" lat="53.126578"><ele>98.124847</ele><time>2022-03-04T09:22:51Z</time><extensions><speed>0.018134</speed><course>73.567833</course><hAcc>1.094839</hAcc><vAcc>0.854449</vAcc></extensions></trkpt>
      <trkpt lon="-2.253552" lat="53.126579"><ele>98.131737</ele><time>2022-03-04T09:22:52Z</time><extensions><speed>0.015993</speed><course>72.287643</course><hAcc>1.096292</hAcc><vAcc>0.856355</vAcc></extensions></trkpt>
      <trkpt lon="-2.253552" lat="53.126579"><ele>98.149208</ele><time>2022-03-04T09:22:53Z</time><extensions><speed>0.014296</speed><course>68.672554</course><hAcc>1.103008</hAcc><vAcc>0.857727</vAcc></extensions></trkpt>
      <trkpt lon="-2.253551" lat="53.126579"><ele>98.174660</ele><time>2022-03-04T09:22:54Z</time><extensions><speed>0.013144</speed><course>62.359211</course><hAcc>1.114755</hAcc><vAcc>0.858644</vAcc></extensions></trkpt>
      <trkpt lon="-2.253551" lat="53.126579"><ele>98.164978</ele><time>2022-03-04T09:22:55Z</time><extensions><speed>0.013964</speed><course>63.189812</course><hAcc>1.131450</hAcc><vAcc>0.858297</vAcc></extensions></trkpt>
      <trkpt lon="-2.253550" lat="53.126579"><ele>98.151085</ele><time>2022-03-04T09:22:56Z</time><extensions><speed>0.013964</speed><course>64.892723</course><hAcc>1.153100</hAcc><vAcc>0.857439</vAcc></extensions></trkpt>
      <trkpt lon="-2.253550" lat="53.126579"><ele>98.141808</ele><time>2022-03-04T09:22:57Z</time><extensions><speed>0.014179</speed><course>65.402573</course><hAcc>1.179417</hAcc><vAcc>0.856139</vAcc></extensions></trkpt>
      <trkpt lon="-2.253550" lat="53.126579"><ele>98.129005</ele><time>2022-03-04T09:22:58Z</time><extensions><speed>0.020978</speed><course>69.484451</course><hAcc>1.203800</hAcc><vAcc>0.854403</vAcc></extensions></trkpt>
      <trkpt lon="-2.253549" lat="53.126579"><ele>98.117020</ele><time>2022-03-04T09:22:59Z</time><extensions><speed>0.110177</speed><course>74.369423</course><hAcc>1.205559</hAcc><vAcc>0.852267</vAcc></extensions></trkpt>
      <trkpt lon="-2.253547" lat="53.126579"><ele>98.100761</ele><time>2022-03-04T09:23:00Z</time><extensions><speed>0.145630</speed><course>78.934715</course><hAcc>1.325413</hAcc><vAcc>0.849718</vAcc></extensions></trkpt>
      <trkpt lon="-2.253545" lat="53.126580"><ele>98.088356</ele><time>2022-03-04T09:23:01Z</time><extensions><speed>0.168012</speed><course>80.598564</course><hAcc>1.446815</hAcc><vAcc>0.846837</vAcc></extensions></trkpt>
      <trkpt lon="-2.253542" lat="53.126580"><ele>98.070045</ele><time>2022-03-04T09:23:02Z</time><extensions><speed>0.193679</speed><course>82.559258</course><hAcc>1.523091</hAcc><vAcc>0.843579</vAcc></extensions></trkpt>
      <trkpt lon="-2.253540" lat="53.126580"><ele>98.056114</ele><time>2022-03-04T09:23:03Z</time><extensions><speed>0.219837</speed><course>82.951668</course><hAcc>1.559580</hAcc><vAcc>0.840042</vAcc></extensions></trkpt>
      <trkpt lon="-2.253536" lat="53.126580"><ele>98.035873</ele><time>2022-03-04T09:23:04Z</time><extensions><speed>0.233443</speed><course>83.399864</course><hAcc>1.569698</hAcc><vAcc>0.836329</vAcc></extensions></trkpt>
      <trkpt lon="-2.253533" lat="53.126580"><ele>98.014427</ele><time>2022-03-04T09:23:05Z</time><extensions><speed>0.186094</speed><course>81.597305</course><hAcc>1.562046</hAcc><vAcc>0.832611</vAcc></extensions></trkpt>
      <trkpt lon="-2.253531" lat="53.126581"><ele>97.993637</ele><time>2022-03-04T09:23:06Z</time><extensions><speed>0.102760</speed><course>75.217331</course><hAcc>1.539252</hAcc><vAcc>0.829040</vAcc></extensions></trkpt>
      <trkpt lon="-2.253530" lat="53.126581"><ele>97.971214</ele><time>2022-03-04T09:23:07Z</time><extensions><speed>0.016364</speed><course>64.445259</course><hAcc>1.556677</hAcc><vAcc>0.825742</vAcc></extensions></trkpt>
      <trkpt lon="-2.253531" lat="53.126581"><ele>97.949173</ele><time>2022-03-04T09:23:08Z</time><extensions><speed>0.022521</speed><course>251.239655</course><hAcc>1.617988</hAcc><vAcc>0.822817</vAcc></extensions></trkpt>
      <trkpt lon="-2.253531" lat="53.126581"><ele>97.926575</ele><time>2022-03-04T09:23:09Z</time><extensions><speed>0.111773</speed><course>255.728516</course><hAcc>1.575719</hAcc><vAcc>0.820282</vAcc></extensions></trkpt>
      <trkpt lon="-2.253533" lat="53.126580"><ele>97.902344</ele><time>2022-03-04T09:23:10Z</time><extensions><speed>0.182079</speed><course>263.388489</course><hAcc>1.542939</hAcc><vAcc>0.818146</vAcc></extensions></trkpt>
      <trkpt lon="-2.253536" lat="53.126580"><ele>97.878166</ele><time>2022-03-04T09:23:11Z</time><extensions><speed>0.177043</speed><course>266.929962</course><hAcc>1.555370</hAcc><vAcc>0.816471</vAcc></extensions></trkpt>
      <trkpt lon="-2.253538" lat="53.126580"><ele>97.854752</ele><time>2022-03-04T09:23:12Z</time><extensions><speed>0.135973</speed><course>265.449371</course><hAcc>1.582201</hAcc><vAcc>0.815163</vAcc></extensions></trkpt>
      <trkpt lon="-2.253539" lat="53.126580"><ele>97.831139</ele><time>2022-03-04T09:23:13Z</time><extensions><speed>0.062195</speed><course>255.210327</course><hAcc>1.616936</hAcc><vAcc>0.814249</vAcc></extensions></trkpt>
      <trkpt lon="-2.253540" lat="53.126580"><ele>97.814651</ele><time>2022-03-04T09:23:14Z</time><extensions><speed>0.023659</speed><course>182.535889</course><hAcc>1.619245</hAcc><vAcc>0.813582</vAcc></extensions></trkpt>
      <trkpt lon="-2.253539" lat="53.126580"><ele>97.798820</ele><time>2022-03-04T09:23:15Z</time><extensions><speed>0.052374</speed><course>104.005386</course><hAcc>1.620895</hAcc><vAcc>0.813217</vAcc></extensions></trkpt>
      <trkpt lon="-2.253538" lat="53.126580"><ele>97.783081</ele><time>2022-03-04T09:23:16Z</time><extensions><speed>0.104158</speed><course>78.948189</course><hAcc>1.607375</hAcc><vAcc>0.813084</vAcc></extensions></trkpt>
      <trkpt lon="-2.253537" lat="53.126581"><ele>97.772728</ele><time>2022-03-04T09:23:17Z</time><extensions><speed>0.169741</speed><course>62.652203</course><hAcc>1.572970</hAcc><vAcc>0.813152</vAcc></extensions></trkpt>
      <trkpt lon="-2.253534" lat="53.126582"><ele>97.760094</ele><time>2022-03-04T09:23:18Z</time><extensions><speed>0.202915</speed><course>54.655823</course><hAcc>1.548889</hAcc><vAcc>0.813361</vAcc></extensions></trkpt>
      <trkpt lon="-2.253532" lat="53.126583"><ele>97.761597</ele><time>2022-03-04T09:23:19Z</time><extensions><speed>0.204672</speed><course>50.097012</course><hAcc>1.519182</hAcc><vAcc>0.813681</vAcc></extensions></trkpt>
      <trkpt lon="-2.253530" lat="53.126584"><ele>97.758560</ele><time>2022-03-04T09:23:20Z</time><extensions><speed>0.178241</speed><course>44.749676</course><hAcc>1.493889</hAcc><vAcc>0.814078</vAcc></extensions></trkpt>
      <trkpt lon="-2.253529" lat="53.126585"><ele>97.766434</ele><time>2022-03-04T09:23:21Z</time><extensions><speed>0.080262</speed><course>37.519909</course><hAcc>1.508849</hAcc><vAcc>0.814561</vAcc></extensions></trkpt>
      <trkpt lon="-2.253529" lat="53.126586"><ele>97.774216</ele><time>2022-03-04T09:23:22Z</time><extensions><speed>0.053025</speed><course>25.545574</course><hAcc>1.502989</hAcc><vAcc>0.815099</vAcc></extensions></trkpt>
      <trkpt lon="-2.253528" lat="53.126586"><ele>97.782974</ele><time>2022-03-04T09:23:23Z</time><extensions><speed>0.025083</speed><course>350.902435</course><hAcc>1.508686</hAcc><vAcc>0.815663</vAcc></extensions></trkpt>
      <trkpt lon="-2.253529" lat="53.126586"><ele>97.802231</ele><time>2022-03-04T09:23:24Z</time><extensions><speed>0.077238</speed><course>327.404266</course><hAcc>1.468618</hAcc><vAcc>0.816240</vAcc></extensions></trkpt>
      <trkpt lon="-2.253529" lat="53.126586"><ele>97.823471</ele><time>2022-03-04T09:23:25Z</time><extensions><speed>0.055331</speed><course>324.936890</course><hAcc>1.528331</hAcc><vAcc>0.816789</vAcc></extensions></trkpt>
      <trkpt lon="-2.253530" lat="53.126587"><ele>97.856697</ele><time>2022-03-04T09:23:25Z</time><extensions><speed>0.139275</speed><course>318.403656</course><hAcc>1.496130</hAcc><vAcc>0.817316</vAcc></extensions></trkpt>
      <trkpt lon="-2.253531" lat="53.126588"><ele>97.888092</ele><time>2022-03-04T09:23:26Z</time><extensions><speed>0.133511</speed><course>309.536163</course><hAcc>1.517602</hAcc><vAcc>0.817745</vAcc></extensions></trkpt>
      <trkpt lon="-2.253533" lat="53.126588"><ele>97.920464</ele><time>2022-03-04T09:23:27Z</time><extensions><speed>0.086411</speed><course>289.864410</course><hAcc>1.580025</hAcc><vAcc>0.818114</vAcc></extensions></trkpt>
      <trkpt lon="-2.253534" lat="53.126588"><ele>97.952667</ele><time>2022-03-04T09:23:28Z</time><extensions><speed>0.048780</speed><course>218.975937</course><hAcc>1.658272</hAcc><vAcc>0.818401</vAcc></extensions></trkpt>
      <trkpt lon="-2.253534" lat="53.126587"><ele>97.990036</ele><time>2022-03-04T09:23:29Z</time><extensions><speed>0.158346</speed><course>188.690521</course><hAcc>1.625232</hAcc><vAcc>0.818601</vAcc></extensions></trkpt>
      <trkpt lon="-2.253534" lat="53.126586"><ele>98.019859</ele><time>2022-03-04T09:23:30Z</time><extensions><speed>0.236503</speed><course>179.091370</course><hAcc>1.605432</hAcc><vAcc>0.818664</vAcc></extensions></trkpt>
      <trkpt lon="-2.253534" lat="53.126583"><ele>98.043587</ele><time>2022-03-04T09:23:31Z</time><extensions><speed>0.260396</speed><course>170.628174</course><hAcc>1.606981</hAcc><vAcc>0.818618</vAcc></extensions></trkpt>
      <trkpt lon="-2.253533" lat="53.126581"><ele>98.066589</ele><time>2022-03-04T09:23:32Z</time><extensions><speed>0.238878</speed><course>163.695160</course><hAcc>1.611793</hAcc><vAcc>0.818511</vAcc></extensions></trkpt>
      <trkpt lon="-2.253531" lat="53.126579"><ele>98.092438</ele><time>2022-03-04T09:23:33Z</time><extensions><speed>0.184004</speed><course>158.218414</course><hAcc>1.620497</hAcc><vAcc>0.818370</vAcc></extensions></trkpt>
      <trkpt lon="-2.253530" lat="53.126578"><ele>98.111191</ele><time>2022-03-04T09:23:34Z</time><extensions><speed>0.165253</speed><course>156.253510</course><hAcc>1.614871</hAcc><vAcc>0.818206</vAcc></extensions></trkpt>
      <trkpt lon="-2.253529" lat="53.126577"><ele>98.119041</ele><time>2022-03-04T09:23:35Z</time><extensions><speed>0.073933</speed><course>153.800217</course><hAcc>1.648369</hAcc><vAcc>0.817999</vAcc></extensions></trkpt>
      <trkpt lon="-2.253529" lat="53.126576"><ele>98.117874</ele><time>2022-03-04T09:23:36Z</time><extensions><speed>0.105386</speed><course>151.398392</course><hAcc>1.603996</hAcc><vAcc>0.817806</vAcc></extensions></trkpt>
      <trkpt lon="-2.253528" lat="53.126576"><ele>98.117546</ele><time>2022-03-04T09:23:37Z</time><extensions><speed>0.079406</speed><course>146.928940</course><hAcc>1.619214</hAcc><vAcc>0.817639</vAcc></extensions></trkpt>
      <trkpt lon="-2.253528" lat="53.126575"><ele>98.108292</ele><time>2022-03-04T09:23:38Z</time><extensions><speed>0.110629</speed><course>132.809479</course><hAcc>1.602728</hAcc><vAcc>0.817501</vAcc></extensions></trkpt>
      <trkpt lon="-2.253526" lat="53.126574"><ele>98.100090</ele><time>2022-03-04T09:23:39Z</time><extensions><speed>0.131328</speed><course>118.013016</course><hAcc>1.619547</hAcc><vAcc>0.817411</vAcc></extensions></trkpt>
      <trkpt lon="-2.253525" lat="53.126574"><ele>98.097343</ele><time>2022-03-04T09:23:40Z</time><extensions><speed>0.125643</speed><course>106.457207</course><hAcc>1.655417</hAcc><vAcc>0.817382</vAcc></extensions></trkpt>
      <trkpt lon="-2.253523" lat="53.126574"><ele>98.091049</ele><time>2022-03-04T09:23:41Z</time><extensions><speed>0.121013</speed><course>93.487740</course><hAcc>1.655748</hAcc><vAcc>0.817438</vAcc></extensions></trkpt>
      <trkpt lon="-2.253522" lat="53.126574"><ele>98.084183</ele><time>2022-03-04T09:23:42Z</time><extensions><speed>0.080442</speed><course>59.062492</course><hAcc>1.657929</hAcc><vAcc>0.817567</vAcc></extensions></trkpt>
      <trkpt lon="-2.253522" lat="53.126575"><ele>98.076462</ele><time>2022-03-04T09:23:43Z</time><extensions><speed>0.097526</speed><course>344.506744</course><hAcc>1.661676</hAcc><vAcc>0.817750</vAcc></extensions></trkpt>
      <trkpt lon="-2.253523" lat="53.126575"><ele>98.067322</ele><time>2022-03-04T09:23:44Z</time><extensions><speed>0.187764</speed><course>310.231812</course><hAcc>1.664960</hAcc><vAcc>0.818015</vAcc></extensions></trkpt>
      <trkpt lon="-2.253525" lat="53.126576"><ele>98.056595</ele><time>2022-03-04T09:23:45Z</time><extensions><speed>0.257575</speed><course>293.111542</course><hAcc>1.680134</hAcc><vAcc>0.818272</vAcc></extensions></trkpt>
      <trkpt lon="-2.253529" lat="53.126577"><ele>98.047073</ele><time>2022-03-04T09:23:46Z</time><extensions><speed>0.276166</speed><course>280.161194</course><hAcc>1.703997</hAcc><vAcc>0.818475</vAcc></extensions></trkpt>
      <trkpt lon="-2.253534" lat="53.126577"><ele>98.037674</ele><time>2022-03-04T09:23:47Z</time><extensions><speed>0.363288</speed><course>272.459686</course><hAcc>1.684613</hAcc><vAcc>0.818606</vAcc></extensions></trkpt>
      <trkpt lon="-2.253539" lat="53.126577"><ele>98.025726</ele><time>2022-03-04T09:23:48Z</time><extensions><speed>0.358542</speed><course>268.305481</course><hAcc>1.669290</hAcc><vAcc>0.818662</vAcc></extensions></trkpt>
      <trkpt lon="-2.253543" lat="53.126577"><ele>98.005859</ele><time>2022-03-04T09:23:49Z</time><extensions><speed>0.249517</speed><course>262.496796</course><hAcc>1.678990</hAcc><vAcc>0.818592</vAcc></extensions></trkpt>
      <trkpt lon="-2.253545" lat="53.126576"><ele>97.988350</ele><time>2022-03-04T09:23:50Z</time><extensions><speed>0.094648</speed><course>223.638702</course><hAcc>1.706324</hAcc><vAcc>0.818462</vAcc></extensions></trkpt>
      <trkpt lon="-2.253545" lat="53.126575"><ele>97.981339</ele><time>2022-03-04T09:23:51Z</time><extensions><speed>0.179296</speed><course>139.811569</course><hAcc>1.711452</hAcc><vAcc>0.818261</vAcc></extensions></trkpt>
      <trkpt lon="-2.253542" lat="53.126574"><ele>97.979721</ele><time>2022-03-04T09:23:52Z</time><extensions><speed>0.371563</speed><course>127.793617</course><hAcc>1.709302</hAcc><vAcc>0.818007</vAcc></extensions></trkpt>
      <trkpt lon="-2.253536" lat="53.126571"><ele>97.974136</ele><time>2022-03-04T09:23:53Z</time><extensions><speed>0.556010</speed><course>125.196678</course><hAcc>1.714214</hAcc><vAcc>0.817668</vAcc></extensions></trkpt>
      <trkpt lon="-2.253528" lat="53.126568"><ele>97.969131</ele><time>2022-03-04T09:23:54Z</time><extensions><speed>0.656351</speed><course>124.076309</course><hAcc>1.731025</hAcc><vAcc>0.817235</vAcc></extensions></trkpt>
      <trkpt lon="-2.253519" lat="53.126565"><ele>97.969055</ele><time>2022-03-04T09:23:55Z</time><extensions><speed>0.793167</speed><course>123.402733</course><hAcc>1.728655</hAcc><vAcc>0.816738</vAcc></extensions></trkpt>
      <trkpt lon="-2.253509" lat="53.126560"><ele>97.977760</ele><time>2022-03-04T09:23:56Z</time><extensions><speed>0.846249</speed><course>122.955849</course><hAcc>1.724760</hAcc><vAcc>0.816188</vAcc></extensions></trkpt>
      <trkpt lon="-2.253498" lat="53.126556"><ele>97.991257</ele><time>2022-03-04T09:23:57Z</time><extensions><speed>0.834155</speed><course>121.899040</course><hAcc>1.715777</hAcc><vAcc>0.815708</vAcc></extensions></trkpt>
      <trkpt lon="-2.253488" lat="53.126552"><ele>98.010933</ele><time>2022-03-04T09:23:58Z</time><extensions><speed>0.766816</speed><course>119.986382</course><hAcc>1.697336</hAcc><vAcc>0.815350</vAcc></extensions></trkpt>
      <trkpt lon="-2.253479" lat="53.126550"><ele>98.029762</ele><time>2022-03-04T09:23:59Z</time><extensions><speed>0.598088</speed><course>117.087723</course><hAcc>1.685518</hAcc><vAcc>0.815130</vAcc></extensions></trkpt>
      <trkpt lon="-2.253472" lat="53.126548"><ele>98.045326</ele><time>2022-03-04T09:24:00Z</time><extensions><speed>0.433707</speed><course>113.952011</course><hAcc>1.690123</hAcc><vAcc>0.815084</vAcc></extensions></trkpt>
      <trkpt lon="-2.253468" lat="53.126546"><ele>98.061279</ele><time>2022-03-04T09:24:01Z</time><extensions><speed>0.205918</speed><course>111.701912</course><hAcc>1.724132</hAcc><vAcc>0.815194</vAcc></extensions></trkpt>
      <trkpt lon="-2.253465" lat="53.126546"><ele>98.076721</ele><time>2022-03-04T09:24:02Z</time><extensions><speed>0.206790</speed><course>114.134117</course><hAcc>1.688959</hAcc><vAcc>0.815453</vAcc></extensions></trkpt>
      <trkpt lon="-2.253462" lat="53.126545"><ele>98.101677</ele><time>2022-03-04T09:24:03Z</time><extensions><speed>0.227118</speed><course>121.015961</course><hAcc>1.651765</hAcc><vAcc>0.815852</vAcc></extensions></trkpt>
      <trkpt lon="-2.253459" lat="53.126544"><ele>98.130966</ele><time>2022-03-04T09:24:04Z</time><extensions><speed>0.229447</speed><course>127.155937</course><hAcc>1.638861</hAcc><vAcc>0.816367</vAcc></extensions></trkpt>
      <trkpt lon="-2.253456" lat="53.126543"><ele>98.163589</ele><time>2022-03-04T09:24:05Z</time><extensions><speed>0.196540</speed><course>129.914795</course><hAcc>1.640512</hAcc><vAcc>0.816994</vAcc></extensions></trkpt>
      <trkpt lon="-2.253454" lat="53.126542"><ele>98.197655</ele><time>2022-03-04T09:24:06Z</time><extensions><speed>0.147202</speed><course>126.471252</course><hAcc>1.647525</hAcc><vAcc>0.817746</vAcc></extensions></trkpt>
      <trkpt lon="-2.253453" lat="53.126541"><ele>98.237076</ele><time>2022-03-04T09:24:07Z</time><extensions><speed>0.074492</speed><course>105.014664</course><hAcc>1.665583</hAcc><vAcc>0.818595</vAcc></extensions></trkpt>
      <trkpt lon="-2.253451" lat="53.126542"><ele>98.277359</ele><time>2022-03-04T09:24:08Z</time><extensions><speed>0.083606</speed><course>48.872276</course><hAcc>1.634375</hAcc><vAcc>0.819551</vAcc></extensions></trkpt>
      <trkpt lon="-2.253450" lat="53.126543"><ele>98.328842</ele><time>2022-03-04T09:24:09Z</time><extensions><speed>0.158746</speed><course>26.431070</course><hAcc>1.567142</hAcc><vAcc>0.820558</vAcc></extensions></trkpt>
      <trkpt lon="-2.253450" lat="53.126544"><ele>98.385445</ele><time>2022-03-04T09:24:10Z</time><extensions><speed>0.192356</speed><course>18.789705</course><hAcc>1.503699</hAcc><vAcc>0.821584</vAcc></extensions></trkpt>
      <trkpt lon="-2.253449" lat="53.126546"><ele>98.450195</ele><time>2022-03-04T09:24:11Z</time><extensions><speed>0.176057</speed><course>18.646709</course><hAcc>1.474287</hAcc><vAcc>0.822604</vAcc></extensions></trkpt>
      <trkpt lon="-2.253449" lat="53.126547"><ele>98.504570</ele><time>2022-03-04T09:24:12Z</time><extensions><speed>0.055096</speed><course>25.271223</course><hAcc>1.509887</hAcc><vAcc>0.823552</vAcc></extensions></trkpt>
      <trkpt lon="-2.253448" lat="53.126548"><ele>98.565277</ele><time>2022-03-04T09:24:13Z</time><extensions><speed>0.088561</speed><course>32.646515</course><hAcc>1.453166</hAcc><vAcc>0.824415</vAcc></extensions></trkpt>
      <trkpt lon="-2.253448" lat="53.126548"><ele>98.614082</ele><time>2022-03-04T09:24:14Z</time><extensions><speed>0.070490</speed><course>33.130035</course><hAcc>1.418905</hAcc><vAcc>0.825173</vAcc></extensions></trkpt>
      <trkpt lon="-2.253447" lat="53.126549"><ele>98.652214</ele><time>2022-03-04T09:24:15Z</time><extensions><speed>0.081001</speed><course>29.487209</course><hAcc>1.363244</hAcc><vAcc>0.825816</vAcc></extensions></trkpt>
      <trkpt lon="-2.253447" lat="53.126550"><ele>98.687889</ele><time>2022-03-04T09:24:16Z</time><extensions><speed>0.072517</speed><course>15.203697</course><hAcc>1.323965</hAcc><vAcc>0.826369</vAcc></extensions></trkpt>
      <trkpt lon="-2.253446" lat="53.126550"><ele>98.715752</ele><time>2022-03-04T09:24:17Z</time><extensions><speed>0.037054</speed><course>356.573883</course><hAcc>1.334909</hAcc><vAcc>0.826813</vAcc></extensions></trkpt>
      <trkpt lon="-2.253446" lat="53.126551"><ele>98.743027</ele><time>2022-03-04T09:24:18Z</time><extensions><speed>0.019181</speed><course>342.777588</course><hAcc>1.343846</hAcc><vAcc>0.827144</vAcc></extensions></trkpt>
      <trkpt lon="-2.253446" lat="53.126551"><ele>98.760178</ele><time>2022-03-04T09:24:19Z</time><extensions><speed>0.016947</speed><course>332.032623</course><hAcc>1.338424</hAcc><vAcc>0.827372</vAcc></extensions></trkpt>
      <trkpt lon="-2.253446" lat="53.126551"><ele>98.771706</ele><time>2022-03-04T09:24:20Z</time><extensions><speed>0.028456</speed><course>340.666687</course><hAcc>1.314003</hAcc><vAcc>0.827492</vAcc></extensions></trkpt>
      <trkpt lon="-2.253445" lat="53.126551"><ele>98.778908</ele><time>2022-03-04T09:24:21Z</time><extensions><speed>0.012072</speed><course>28.404610</course><hAcc>1.341021</hAcc><vAcc>0.827498</vAcc></extensions></trkpt>
      <trkpt lon="-2.253445" lat="53.126551"><ele>98.784584</ele><time>2022-03-04T09:24:22Z</time><extensions><speed>0.035874</speed><course>70.662018</course><hAcc>1.331092</hAcc><vAcc>0.827396</vAcc></extensions></trkpt>
      <trkpt lon="-2.253444" lat="53.126551"><ele>98.777863</ele><time>2022-03-04T09:24:23Z</time><extensions><speed>0.018431</speed><course>90.419472</course><hAcc>1.416462</hAcc><vAcc>0.827198</vAcc></extensions></trkpt>
      <trkpt lon="-2.253443" lat="53.126550"><ele>98.761581</ele><time>2022-03-04T09:24:24Z</time><extensions><speed>0.102041</speed><course>101.756996</course><hAcc>1.389045</hAcc><vAcc>0.826915</vAcc></extensions></trkpt>
      <trkpt lon="-2.253442" lat="53.126550"><ele>98.739601</ele><time>2022-03-04T09:24:25Z</time><extensions><speed>0.131683</speed><course>108.499031</course><hAcc>1.438575</hAcc><vAcc>0.826608</vAcc></extensions></trkpt>
      <trkpt lon="-2.253439" lat="53.126549"><ele>98.713402</ele><time>2022-03-04T09:24:26Z</time><extensions><speed>0.236823</speed><course>115.530769</course><hAcc>1.462366</hAcc><vAcc>0.826264</vAcc></extensions></trkpt>
      <trkpt lon="-2.253436" lat="53.126548"><ele>98.680321</ele><time>2022-03-04T09:24:27Z</time><extensions><speed>0.264060</speed><course>122.831345</course><hAcc>1.511933</hAcc><vAcc>0.825920</vAcc></extensions></trkpt>
      <trkpt lon="-2.253433" lat="53.126547"><ele>98.639580</ele><time>2022-03-04T09:24:28Z</time><extensions><speed>0.297108</speed><course>130.517578</course><hAcc>1.545736</hAcc><vAcc>0.825568</vAcc></extensions></trkpt>
      <trkpt lon="-2.253430" lat="53.126545"><ele>98.595055</ele><time>2022-03-04T09:24:29Z</time><extensions><speed>0.254890</speed><course>136.219803</course><hAcc>1.585742</hAcc><vAcc>0.825292</vAcc></extensions></trkpt>
      <trkpt lon="-2.253429" lat="53.126544"><ele>98.546364</ele><time>2022-03-04T09:24:30Z</time><extensions><speed>0.182224</speed><course>143.070190</course><hAcc>1.609774</hAcc><vAcc>0.825039</vAcc></extensions></trkpt>
      <trkpt lon="-2.253428" lat="53.126543"><ele>98.494705</ele><time>2022-03-04T09:24:31Z</time><extensions><speed>0.155778</speed><course>163.495071</course><hAcc>1.584975</hAcc><vAcc>0.824779</vAcc></extensions></trkpt>
      <trkpt lon="-2.253429" lat="53.126542"><ele>98.440544</ele><time>2022-03-04T09:24:32Z</time><extensions><speed>0.123182</speed><course>215.779968</course><hAcc>1.578873</hAcc><vAcc>0.824556</vAcc></extensions></trkpt>
      <trkpt lon="-2.253431" lat="53.126542"><ele>98.386879</ele><time>2022-03-04T09:24:33Z</time><extensions><speed>0.173478</speed><course>259.141541</course><hAcc>1.594899</hAcc><vAcc>0.824380</vAcc></extensions></trkpt>
      <trkpt lon="-2.253435" lat="53.126542"><ele>98.340424</ele><time>2022-03-04T09:24:34Z</time><extensions><speed>0.222268</speed><course>276.860962</course><hAcc>1.627837</hAcc><vAcc>0.824239</vAcc></extensions></trkpt>
      <trkpt lon="-2.253439" lat="53.126542"><ele>98.306351</ele><time>2022-03-04T09:24:35Z</time><extensions><speed>0.250479</speed><course>287.612030</course><hAcc>1.656867</hAcc><vAcc>0.824151</vAcc></extensions></trkpt>
      <trkpt lon="-2.253446" lat="53.126544"><ele>98.280136</ele><time>2022-03-04T09:24:36Z</time><extensions><speed>0.596996</speed><course>294.417145</course><hAcc>1.604188</hAcc><vAcc>0.824085</vAcc></extensions></trkpt>
      <trkpt lon="-2.253455" lat="53.126547"><ele>98.251671</ele><time>2022-03-04T09:24:37Z</time><extensions><speed>0.808977</speed><course>298.413635</course><hAcc>1.582304</hAcc><vAcc>0.824020</vAcc></extensions></trkpt>
      <trkpt lon="-2.253466" lat="53.126551"><ele>98.219086</ele><time>2022-03-04T09:24:38Z</time><extensions><speed>0.909432</speed><course>300.240509</course><hAcc>1.596501</hAcc><vAcc>0.823994</vAcc></extensions></trkpt>
      <trkpt lon="-2.253477" lat="53.126555"><ele>98.186729</ele><time>2022-03-04T09:24:39Z</time><extensions><speed>0.727519</speed><course>300.255035</course><hAcc>1.629961</hAcc><vAcc>0.823982</vAcc></extensions></trkpt>
      <trkpt lon="-2.253487" lat="53.126558"><ele>98.154602</ele><time>2022-03-04T09:24:40Z</time><extensions><speed>0.940811</speed><course>299.534576</course><hAcc>1.594555</hAcc><vAcc>0.823957</vAcc></extensions></trkpt>
      <trkpt lon="-2.253500" lat="53.126562"><ele>98.122574</ele><time>2022-03-04T09:24:41Z</time><extensions><speed>1.042875</speed><course>298.797821</course><hAcc>1.551462</hAcc><vAcc>0.823912</vAcc></extensions></trkpt>
      <trkpt lon="-2.253512" lat="53.126566"><ele>98.094978</ele><time>2022-03-04T09:24:42Z</time><extensions><speed>0.814555</speed><course>297.677460</course><hAcc>1.545379</hAcc><vAcc>0.823859</vAcc></extensions></trkpt>
      <trkpt lon="-2.253521" lat="53.126569"><ele>98.070152</ele><time>2022-03-04T09:24:43Z</time><extensions><speed>0.591692</speed><course>296.103546</course><hAcc>1.558516</hAcc><vAcc>0.823822</vAcc></extensions></trkpt>
      <trkpt lon="-2.253525" lat="53.126570"><ele>98.045845</ele><time>2022-03-04T09:24:44Z</time><extensions><speed>0.169317</speed><course>294.826813</course><hAcc>1.614972</hAcc><vAcc>0.823806</vAcc></extensions></trkpt>
      <trkpt lon="-2.253527" lat="53.126570"><ele>98.028709</ele><time>2022-03-04T09:24:45Z</time><extensions><speed>0.081995</speed><course>296.659973</course><hAcc>1.605125</hAcc><vAcc>0.823777</vAcc></extensions></trkpt>
      <trkpt lon="-2.253527" lat="53.126570"><ele>98.014854</ele><time>2022-03-04T09:24:46Z</time><extensions><speed>0.066002</speed><course>117.331078</course><hAcc>1.567740</hAcc><vAcc>0.823752</vAcc></extensions></trkpt>
      <trkpt lon="-2.253525" lat="53.126569"><ele>98.005142</ele><time>2022-03-04T09:24:47Z</time><extensions><speed>0.296424</speed><course>125.209908</course><hAcc>1.571642</hAcc><vAcc>0.823771</vAcc></extensions></trkpt>
      <trkpt lon="-2.253520" lat="53.126567"><ele>97.997017</ele><time>2022-03-04T09:24:48Z</time><extensions><speed>0.477402</speed><course>131.596558</course><hAcc>1.617568</hAcc><vAcc>0.823794</vAcc></extensions></trkpt>
      <trkpt lon="-2.253514" lat="53.126563"><ele>97.990486</ele><time>2022-03-04T09:24:49Z</time><extensions><speed>0.671576</speed><course>136.575531</course><hAcc>1.644273</hAcc><vAcc>0.823884</vAcc></extensions></trkpt>
      <trkpt lon="-2.253507" lat="53.126558"><ele>97.986015</ele><time>2022-03-04T09:24:50Z</time><extensions><speed>0.797904</speed><course>139.214981</course><hAcc>1.652375</hAcc><vAcc>0.824023</vAcc></extensions></trkpt>
      <trkpt lon="-2.253498" lat="53.126552"><ele>97.991386</ele><time>2022-03-04T09:24:51Z</time><extensions><speed>0.863958</speed><course>140.038208</course><hAcc>1.638255</hAcc><vAcc>0.824187</vAcc></extensions></trkpt>
      <trkpt lon="-2.253490" lat="53.126547"><ele>97.991859</ele><time>2022-03-04T09:24:52Z</time><extensions><speed>0.845527</speed><course>139.646545</course><hAcc>1.608889</hAcc><vAcc>0.824371</vAcc></extensions></trkpt>
      <trkpt lon="-2.253482" lat="53.126542"><ele>97.994583</ele><time>2022-03-04T09:24:53Z</time><extensions><speed>0.632893</speed><course>138.772720</course><hAcc>1.581185</hAcc><vAcc>0.824567</vAcc></extensions></trkpt>
      <trkpt lon="-2.253476" lat="53.126538"><ele>97.990486</ele><time>2022-03-04T09:24:54Z</time><extensions><speed>0.487899</speed><course>139.382843</course><hAcc>1.520479</hAcc><vAcc>0.824765</vAcc></extensions></trkpt>
      <trkpt lon="-2.253472" lat="53.126535"><ele>98.000832</ele><time>2022-03-04T09:24:55Z</time><extensions><speed>0.362701</speed><course>139.921387</course><hAcc>1.451016</hAcc><vAcc>0.824948</vAcc></extensions></trkpt>
      <trkpt lon="-2.253469" lat="53.126533"><ele>98.014839</ele><time>2022-03-04T09:24:56Z</time><extensions><speed>0.178275</speed><course>138.225891</course><hAcc>1.429541</hAcc><vAcc>0.825118</vAcc></extensions></trkpt>
      <trkpt lon="-2.253468" lat="53.126533"><ele>98.019234</ele><time>2022-03-04T09:24:57Z</time><extensions><speed>0.069392</speed><course>131.010178</course><hAcc>1.426126</hAcc><vAcc>0.825241</vAcc></extensions></trkpt>
      <trkpt lon="-2.253467" lat="53.126533"><ele>98.024490</ele><time>2022-03-04T09:24:58Z</time><extensions><speed>0.059869</speed><course>116.736221</course><hAcc>1.403252</hAcc><vAcc>0.825350</vAcc></extensions></trkpt>
      <trkpt lon="-2.253466" lat="53.126533"><ele>98.026848</ele><time>2022-03-04T09:24:59Z</time><extensions><speed>0.023837</speed><course>99.920403</course><hAcc>1.417575</hAcc><vAcc>0.825412</vAcc></extensions></trkpt>
      <trkpt lon="-2.253466" lat="53.126533"><ele>98.023132</ele><time>2022-03-04T09:25:00Z</time><extensions><speed>0.023949</speed><course>79.280029</course><hAcc>1.420827</hAcc><vAcc>0.825416</vAcc></extensions></trkpt>
      <trkpt lon="-2.253465" lat="53.126533"><ele>98.022827</ele><time>2022-03-04T09:25:01Z</time><extensions><speed>0.063350</speed><course>63.419132</course><hAcc>1.410823</hAcc><vAcc>0.825377</vAcc></extensions></trkpt>
      <trkpt lon="-2.253463" lat="53.126534"><ele>98.016663</ele><time>2022-03-04T09:25:02Z</time><extensions><speed>0.184798</speed><course>54.580559</course><hAcc>1.383522</hAcc><vAcc>0.825291</vAcc></extensions></trkpt>
      <trkpt lon="-2.253461" lat="53.126535"><ele>98.011230</ele><time>2022-03-04T09:25:03Z</time><extensions><speed>0.235410</speed><course>47.661930</course><hAcc>1.413295</hAcc><vAcc>0.825210</vAcc></extensions></trkpt>
      <trkpt lon="-2.253459" lat="53.126536"><ele>98.004387</ele><time>2022-03-04T09:25:04Z</time><extensions><speed>0.215237</speed><course>39.719864</course><hAcc>1.481817</hAcc><vAcc>0.825120</vAcc></extensions></trkpt>
      <trkpt lon="-2.253457" lat="53.126538"><ele>97.996162</ele><time>2022-03-04T09:25:05Z</time><extensions><speed>0.178866</speed><course>33.474979</course><hAcc>1.551966</hAcc><vAcc>0.825064</vAcc></extensions></trkpt>
      <trkpt lon="-2.253455" lat="53.126539"><ele>97.980827</ele><time>2022-03-04T09:25:06Z</time><extensions><speed>0.123855</speed><course>31.308073</course><hAcc>1.606755</hAcc><vAcc>0.825032</vAcc></extensions></trkpt>
      <trkpt lon="-2.253454" lat="53.126541"><ele>97.962814</ele><time>2022-03-04T09:25:07Z</time><extensions><speed>0.257432</speed><course>31.359257</course><hAcc>1.569613</hAcc><vAcc>0.825028</vAcc></extensions></trkpt>
      <trkpt lon="-2.253452" lat="53.126543"><ele>97.939796</ele><time>2022-03-04T09:25:08Z</time><extensions><speed>0.255273</speed><course>32.768330</course><hAcc>1.580451</hAcc><vAcc>0.825054</vAcc></extensions></trkpt>
      <trkpt lon="-2.253450" lat="53.126545"><ele>97.916611</ele><time>2022-03-04T09:25:09Z</time><extensions><speed>0.277790</speed><course>35.131729</course><hAcc>1.583435</hAcc><vAcc>0.825128</vAcc></extensions></trkpt>
      <trkpt lon="-2.253448" lat="53.126547"><ele>97.900558</ele><time>2022-03-04T09:25:10Z</time><extensions><speed>0.259275</speed><course>36.636524</course><hAcc>1.585376</hAcc><vAcc>0.825234</vAcc></extensions></trkpt>
      <trkpt lon="-2.253446" lat="53.126549"><ele>97.886108</ele><time>2022-03-04T09:25:11Z</time><extensions><speed>0.267088</speed><course>35.149792</course><hAcc>1.554218</hAcc><vAcc>0.825377</vAcc></extensions></trkpt>
      <trkpt lon="-2.253444" lat="53.126551"><ele>97.880371</ele><time>2022-03-04T09:25:12Z</time><extensions><speed>0.220201</speed><course>27.257870</course><hAcc>1.530004</hAcc><vAcc>0.825547</vAcc></extensions></trkpt>
      <trkpt lon="-2.253443" lat="53.126552"><ele>97.875244</ele><time>2022-03-04T09:25:13Z</time><extensions><speed>0.134661</speed><course>13.271673</course><hAcc>1.529029</hAcc><vAcc>0.825728</vAcc></extensions></trkpt>
      <trkpt lon="-2.253443" lat="53.126553"><ele>97.870102</ele><time>2022-03-04T09:25:14Z</time><extensions><speed>0.115975</speed><course>357.914368</course><hAcc>1.513550</hAcc><vAcc>0.825895</vAcc></extensions></trkpt>
      <trkpt lon="-2.253444" lat="53.126554"><ele>97.861679</ele><time>2022-03-04T09:25:15Z</time><extensions><speed>0.035468</speed><course>339.084961</course><hAcc>1.550527</hAcc><vAcc>0.826011</vAcc></extensions></trkpt>
      <trkpt lon="-2.253445" lat="53.126555"><ele>97.856026</ele><time>2022-03-04T09:25:16Z</time><extensions><speed>0.143892</speed><course>320.512848</course><hAcc>1.479230</hAcc><vAcc>0.826102</vAcc></extensions></trkpt>
      <trkpt lon="-2.253447" lat="53.126556"><ele>97.852188</ele><time>2022-03-04T09:25:17Z</time><extensions><speed>0.203304</speed><course>312.666168</course><hAcc>1.442203</hAcc><vAcc>0.826156</vAcc></extensions></trkpt>
      <trkpt lon="-2.253449" lat="53.126558"><ele>97.851181</ele><time>2022-03-04T09:25:18Z</time><extensions><speed>0.204139</speed><course>308.516266</course><hAcc>1.458933</hAcc><vAcc>0.826157</vAcc></extensions></trkpt>
      <trkpt lon="-2.253451" lat="53.126558"><ele>97.851433</ele><time>2022-03-04T09:25:19Z</time><extensions><speed>0.097301</speed><course>306.698547</course><hAcc>1.511365</hAcc><vAcc>0.826114</vAcc></extensions></trkpt>
      <trkpt lon="-2.253452" lat="53.126559"><ele>97.857994</ele><time>2022-03-04T09:25:20Z</time><extensions><speed>0.145741</speed><course>306.935944</course><hAcc>1.490059</hAcc><vAcc>0.826020</vAcc></extensions></trkpt>
      <trkpt lon="-2.253454" lat="53.126560"><ele>97.865700</ele><time>2022-03-04T09:25:21Z</time><extensions><speed>0.182695</speed><course>307.757812</course><hAcc>1.486387</hAcc><vAcc>0.825885</vAcc></extensions></trkpt>
      <trkpt lon="-2.253456" lat="53.126560"><ele>97.880173</ele><time>2022-03-04T09:25:22Z</time><extensions><speed>0.102460</speed><course>307.007141</course><hAcc>1.547399</hAcc><vAcc>0.825718</vAcc></extensions></trkpt>
      <trkpt lon="-2.253458" lat="53.126561"><ele>97.892342</ele><time>2022-03-04T09:25:23Z</time><extensions><speed>0.164901</speed><course>304.503113</course><hAcc>1.534019</hAcc><vAcc>0.825482</vAcc></extensions></trkpt>
      <trkpt lon="-2.253460" lat="53.126562"><ele>97.906242</ele><time>2022-03-04T09:25:24Z</time><extensions><speed>0.182652</speed><course>300.483337</course><hAcc>1.553528</hAcc><vAcc>0.825212</vAcc></extensions></trkpt>
      <trkpt lon="-2.253463" lat="53.126563"><ele>97.919434</ele><time>2022-03-04T09:25:25Z</time><extensions><speed>0.168229</speed><course>292.545959</course><hAcc>1.594843</hAcc><vAcc>0.824890</vAcc></extensions></trkpt>
      <trkpt lon="-2.253465" lat="53.126563"><ele>97.925644</ele><time>2022-03-04T09:25:26Z</time><extensions><speed>0.148774</speed><course>274.974152</course><hAcc>1.627353</hAcc><vAcc>0.824521</vAcc></extensions></trkpt>
      <trkpt lon="-2.253467" lat="53.126563"><ele>97.921303</ele><time>2022-03-04T09:25:27Z</time><extensions><speed>0.150071</speed><course>246.944916</course><hAcc>1.645630</hAcc><vAcc>0.824124</vAcc></extensions></trkpt>
      <trkpt lon="-2.253469" lat="53.126562"><ele>97.920967</ele><time>2022-03-04T09:25:28Z</time><extensions><speed>0.174858</speed><course>223.802032</course><hAcc>1.657500</hAcc><vAcc>0.823668</vAcc></extensions></trkpt>
      <trkpt lon="-2.253471" lat="53.126561"><ele>97.914314</ele><time>2022-03-04T09:25:29Z</time><extensions><speed>0.187060</speed><course>216.219955</course><hAcc>1.672328</hAcc><vAcc>0.823190</vAcc></extensions></trkpt>
      <trkpt lon="-2.253473" lat="53.126559"><ele>97.903877</ele><time>2022-03-04T09:25:30Z</time><extensions><speed>0.218325</speed><course>223.677322</course><hAcc>1.672674</hAcc><vAcc>0.822672</vAcc></extensions></trkpt>
      <trkpt lon="-2.253476" lat="53.126558"><ele>97.895721</ele><time>2022-03-04T09:25:31Z</time><extensions><speed>0.248659</speed><course>236.113739</course><hAcc>1.678005</hAcc><vAcc>0.822136</vAcc></extensions></trkpt>
      <trkpt lon="-2.253480" lat="53.126557"><ele>97.886269</ele><time>2022-03-04T09:25:32Z</time><extensions><speed>0.287719</speed><course>248.886032</course><hAcc>1.674804</hAcc><vAcc>0.821609</vAcc></extensions></trkpt>
      <trkpt lon="-2.253484" lat="53.126556"><ele>97.874680</ele><time>2022-03-04T09:25:33Z</time><extensions><speed>0.350870</speed><course>259.786469</course><hAcc>1.651034</hAcc><vAcc>0.821089</vAcc></extensions></trkpt>
      <trkpt lon="-2.253489" lat="53.126556"><ele>97.860733</ele><time>2022-03-04T09:25:34Z</time><extensions><speed>0.355236</speed><course>268.275909</course><hAcc>1.631291</hAcc><vAcc>0.820585</vAcc></extensions></trkpt>
      <trkpt lon="-2.253494" lat="53.126556"><ele>97.847557</ele><time>2022-03-04T09:25:35Z</time><extensions><speed>0.336132</speed><course>274.330933</course><hAcc>1.612002</hAcc><vAcc>0.820153</vAcc></extensions></trkpt>
      <trkpt lon="-2.253498" lat="53.126556"><ele>97.839943</ele><time>2022-03-04T09:25:36Z</time><extensions><speed>0.240113</speed><course>277.114624</course><hAcc>1.635663</hAcc><vAcc>0.819806</vAcc></extensions></trkpt>
      <trkpt lon="-2.253500" lat="53.126556"><ele>97.833374</ele><time>2022-03-04T09:25:37Z</time><extensions><speed>0.073235</speed><course>282.486359</course><hAcc>1.692092</hAcc><vAcc>0.819540</vAcc></extensions></trkpt>
      <trkpt lon="-2.253501" lat="53.126557"><ele>97.835182</ele><time>2022-03-04T09:25:38Z</time><extensions><speed>0.101833</speed><course>296.788422</course><hAcc>1.619785</hAcc><vAcc>0.819322</vAcc></extensions></trkpt>
      <trkpt lon="-2.253502" lat="53.126557"><ele>97.839432</ele><time>2022-03-04T09:25:39Z</time><extensions><speed>0.063102</speed><course>329.341766</course><hAcc>1.580246</hAcc><vAcc>0.819166</vAcc></extensions></trkpt>
      <trkpt lon="-2.253502" lat="53.126557"><ele>97.846519</ele><time>2022-03-04T09:25:40Z</time><extensions><speed>0.064392</speed><course>44.865437</course><hAcc>1.568300</hAcc><vAcc>0.819065</vAcc></extensions></trkpt>
      <trkpt lon="-2.253501" lat="53.126558"><ele>97.861275</ele><time>2022-03-04T09:25:41Z</time><extensions><speed>0.106575</speed><course>76.227097</course><hAcc>1.568446</hAcc><vAcc>0.819047</vAcc></extensions></trkpt>
      <trkpt lon="-2.253500" lat="53.126558"><ele>97.880127</ele><time>2022-03-04T09:25:42Z</time><extensions><speed>0.104328</speed><course>89.913765</course><hAcc>1.589997</hAcc><vAcc>0.819117</vAcc></extensions></trkpt>
      <trkpt lon="-2.253498" lat="53.126557"><ele>97.902832</ele><time>2022-03-04T09:25:43Z</time><extensions><speed>0.116931</speed><course>102.189438</course><hAcc>1.571767</hAcc><vAcc>0.819258</vAcc></extensions></trkpt>
      <trkpt lon="-2.253497" lat="53.126557"><ele>97.928986</ele><time>2022-03-04T09:25:44Z</time><extensions><speed>0.147717</speed><course>115.073219</course><hAcc>1.516599</hAcc><vAcc>0.819461</vAcc></extensions></trkpt>
      <trkpt lon="-2.253495" lat="53.126556"><ele>97.958031</ele><time>2022-03-04T09:25:45Z</time><extensions><speed>0.134984</speed><course>129.478073</course><hAcc>1.493107</hAcc><vAcc>0.819709</vAcc></extensions></trkpt>
      <trkpt lon="-2.253494" lat="53.126555"><ele>97.989258</ele><time>2022-03-04T09:25:46Z</time><extensions><speed>0.070644</speed><course>148.227737</course><hAcc>1.529404</hAcc><vAcc>0.819986</vAcc></extensions></trkpt>
      <trkpt lon="-2.253494" lat="53.126555"><ele>98.021843</ele><time>2022-03-04T09:25:47Z</time><extensions><speed>0.031172</speed><course>183.465973</course><hAcc>1.554390</hAcc><vAcc>0.820284</vAcc></extensions></trkpt>
      <trkpt lon="-2.253494" lat="53.126554"><ele>98.054955</ele><time>2022-03-04T09:25:48Z</time><extensions><speed>0.153215</speed><course>202.660812</course><hAcc>1.448478</hAcc><vAcc>0.820597</vAcc></extensions></trkpt>
      <trkpt lon="-2.253495" lat="53.126553"><ele>98.087822</ele><time>2022-03-04T09:25:49Z</time><extensions><speed>0.184325</speed><course>208.629211</course><hAcc>1.363249</hAcc><vAcc>0.820925</vAcc></extensions></trkpt>
      <trkpt lon="-2.253497" lat="53.126551"><ele>98.119774</ele><time>2022-03-04T09:25:50Z</time><extensions><speed>0.156581</speed><course>210.362564</course><hAcc>1.314618</hAcc><vAcc>0.821271</vAcc></extensions></trkpt>
      <trkpt lon="-2.253498" lat="53.126550"><ele>98.150269</ele><time>2022-03-04T09:25:51Z</time><extensions><speed>0.048460</speed><course>210.425903</course><hAcc>1.321336</hAcc><vAcc>0.821638</vAcc></extensions></trkpt>
      <trkpt lon="-2.253498" lat="53.126550"><ele>98.178879</ele><time>2022-03-04T09:25:52Z</time><extensions><speed>0.017163</speed><course>210.467514</course><hAcc>1.298631</hAcc><vAcc>0.822016</vAcc></extensions></trkpt>
      <trkpt lon="-2.253498" lat="53.126550"><ele>98.205269</ele><time>2022-03-04T09:25:53Z</time><extensions><speed>0.013341</speed><course>210.478485</course><hAcc>1.262884</hAcc><vAcc>0.822400</vAcc></extensions></trkpt>
      <trkpt lon="-2.253498" lat="53.126550"><ele>98.229271</ele><time>2022-03-04T09:25:54Z</time><extensions><speed>0.011897</speed><course>210.479630</course><hAcc>1.230640</hAcc><vAcc>0.822776</vAcc></extensions></trkpt>
      <trkpt lon="-2.253498" lat="53.126550"><ele>98.250786</ele><time>2022-03-04T09:25:55Z</time><extensions><speed>0.010767</speed><course>210.479736</course><hAcc>1.203368</hAcc><vAcc>0.823138</vAcc></extensions></trkpt>
      <trkpt lon="-2.253498" lat="53.126550"><ele>98.269836</ele><time>2022-03-04T09:25:56Z</time><extensions><speed>0.009768</speed><course>210.479752</course><hAcc>1.180459</hAcc><vAcc>0.823475</vAcc></extensions></trkpt>
      <trkpt lon="-2.253500" lat="53.126549"><ele>98.281128</ele><time>2022-03-04T09:25:57Z</time><extensions><speed>0.013891</speed><course>223.777512</course><hAcc>1.161433</hAcc><vAcc>0.823772</vAcc></extensions></trkpt>
      <trkpt lon="-2.253501" lat="53.126549"><ele>98.288322</ele><time>2022-03-04T09:25:58Z</time><extensions><speed>0.018750</speed><course>229.536957</course><hAcc>1.146999</hAcc><vAcc>0.823969</vAcc></extensions></trkpt>
      <trkpt lon="-2.253502" lat="53.126548"><ele>98.292450</ele><time>2022-03-04T09:25:59Z</time><extensions><speed>0.023750</speed><course>232.820404</course><hAcc>1.136552</hAcc><vAcc>0.824144</vAcc></extensions></trkpt>
      <trkpt lon="-2.253503" lat="53.126548"><ele>98.293678</ele><time>2022-03-04T09:26:00Z</time><extensions><speed>0.028591</speed><course>234.884949</course><hAcc>1.130648</hAcc><vAcc>0.824268</vAcc></extensions></trkpt>
      <trkpt lon="-2.253503" lat="53.126548"><ele>98.292198</ele><time>2022-03-04T09:26:01Z</time><extensions><speed>0.033516</speed><course>236.327301</course><hAcc>1.128433</hAcc><vAcc>0.824351</vAcc></extensions></trkpt>
      <trkpt lon="-2.253505" lat="53.126547"><ele>98.286186</ele><time>2022-03-04T09:26:02Z</time><extensions><speed>0.041348</speed><course>240.509949</course><hAcc>1.129674</hAcc><vAcc>0.824375</vAcc></extensions></trkpt>
      <trkpt lon="-2.253507" lat="53.126547"><ele>98.279976</ele><time>2022-03-04T09:26:03Z</time><extensions><speed>0.050225</speed><course>243.439529</course><hAcc>1.134453</hAcc><vAcc>0.824311</vAcc></extensions></trkpt>
      <trkpt lon="-2.253508" lat="53.126547"><ele>98.267357</ele><time>2022-03-04T09:26:04Z</time><extensions><speed>0.059050</speed><course>246.123505</course><hAcc>1.143366</hAcc><vAcc>0.824186</vAcc></extensions></trkpt>
      <trkpt lon="-2.253510" lat="53.126547"><ele>98.250015</ele><time>2022-03-04T09:26:05Z</time><extensions><speed>0.069933</speed><course>248.228638</course><hAcc>1.156668</hAcc><vAcc>0.823982</vAcc></extensions></trkpt>
      <trkpt lon="-2.253512" lat="53.126546"><ele>98.227379</ele><time>2022-03-04T09:26:06Z</time><extensions><speed>0.102516</speed><course>250.620880</course><hAcc>1.168036</hAcc><vAcc>0.823738</vAcc></extensions></trkpt>
      <trkpt lon="-2.253516" lat="53.126546"><ele>98.206207</ele><time>2022-03-04T09:26:07Z</time><extensions><speed>0.411324</speed><course>252.615173</course><hAcc>1.142301</hAcc><vAcc>0.823457</vAcc></extensions></trkpt>
      <trkpt lon="-2.253524" lat="53.126544"><ele>98.183777</ele><time>2022-03-04T09:26:08Z</time><extensions><speed>0.555891</speed><course>254.467758</course><hAcc>1.182536</hAcc><vAcc>0.823192</vAcc></extensions></trkpt>
      <trkpt lon="-2.253530" lat="53.126544"><ele>98.160538</ele><time>2022-03-04T09:26:09Z</time><extensions><speed>0.123731</speed><course>257.061249</course><hAcc>1.299245</hAcc><vAcc>0.822955</vAcc></extensions></trkpt>
      <trkpt lon="-2.253532" lat="53.126543"><ele>98.136887</ele><time>2022-03-04T09:26:10Z</time><extensions><speed>0.091895</speed><course>261.034332</course><hAcc>1.311997</hAcc><vAcc>0.822751</vAcc></extensions></trkpt>
      <trkpt lon="-2.253534" lat="53.126543"><ele>98.113182</ele><time>2022-03-04T09:26:11Z</time><extensions><speed>0.097691</speed><course>264.059326</course><hAcc>1.318159</hAcc><vAcc>0.822590</vAcc></extensions></trkpt>
      <trkpt lon="-2.253536" lat="53.126543"><ele>98.089760</ele><time>2022-03-04T09:26:12Z</time><extensions><speed>0.151198</speed><course>266.124115</course><hAcc>1.320402</hAcc><vAcc>0.822486</vAcc></extensions></trkpt>
      <trkpt lon="-2.253543" lat="53.126543"><ele>98.066971</ele><time>2022-03-04T09:26:13Z</time><extensions><speed>0.664747</speed><course>266.908295</course><hAcc>1.273106</hAcc><vAcc>0.822452</vAcc></extensions></trkpt>
      <trkpt lon="-2.253554" lat="53.126542"><ele>98.045158</ele><time>2022-03-04T09:26:14Z</time><extensions><speed>0.804959</speed><course>266.939758</course><hAcc>1.289582</hAcc><vAcc>0.822502</vAcc></extensions></trkpt>
      <trkpt lon="-2.253566" lat="53.126542"><ele>98.024651</ele><time>2022-03-04T09:26:15Z</time><extensions><speed>0.710755</speed><course>266.422546</course><hAcc>1.322549</hAcc><vAcc>0.822641</vAcc></extensions></trkpt>
      <trkpt lon="-2.253575" lat="53.126542"><ele>98.005775</ele><time>2022-03-04T09:26:16Z</time><extensions><speed>0.297056</speed><course>265.023773</course><hAcc>1.353742</hAcc><vAcc>0.822881</vAcc></extensions></trkpt>
      <trkpt lon="-2.253580" lat="53.126541"><ele>97.988716</ele><time>2022-03-04T09:26:17Z</time><extensions><speed>0.429564</speed><course>263.689453</course><hAcc>1.275355</hAcc><vAcc>0.823207</vAcc></extensions></trkpt>
      <trkpt lon="-2.253585" lat="53.126541"><ele>97.973534</ele><time>2022-03-04T09:26:18Z</time><extensions><speed>0.103870</speed><course>263.411438</course><hAcc>1.275405</hAcc><vAcc>0.823611</vAcc></extensions></trkpt>
      <trkpt lon="-2.253587" lat="53.126541"><ele>97.960182</ele><time>2022-03-04T09:26:19Z</time><extensions><speed>0.070669</speed><course>263.289246</course><hAcc>1.246976</hAcc><vAcc>0.824063</vAcc></extensions></trkpt>
      <trkpt lon="-2.253588" lat="53.126541"><ele>97.948608</ele><time>2022-03-04T09:26:20Z</time><extensions><speed>0.062095</speed><course>263.274353</course><hAcc>1.217307</hAcc><vAcc>0.824540</vAcc></extensions></trkpt>
      <trkpt lon="-2.253590" lat="53.126541"><ele>97.938698</ele><time>2022-03-04T09:26:21Z</time><extensions><speed>0.056141</speed><course>263.272980</course><hAcc>1.191927</hAcc><vAcc>0.825017</vAcc></extensions></trkpt>
      <trkpt lon="-2.253591" lat="53.126541"><ele>97.930328</ele><time>2022-03-04T09:26:22Z</time><extensions><speed>0.050935</speed><course>263.272858</course><hAcc>1.170591</hAcc><vAcc>0.825475</vAcc></extensions></trkpt>
      <trkpt lon="-2.253592" lat="53.126540"><ele>97.923370</ele><time>2022-03-04T09:26:23Z</time><extensions><speed>0.046260</speed><course>263.272858</course><hAcc>1.152699</hAcc><vAcc>0.825900</vAcc></extensions></trkpt>
      <trkpt lon="-2.253592" lat="53.126541"><ele>97.929588</ele><time>2022-03-04T09:26:24Z</time><extensions><speed>0.040567</speed><course>269.271454</course><hAcc>1.138021</hAcc><vAcc>0.826259</vAcc></extensions></trkpt>
      <trkpt lon="-2.253593" lat="53.126541"><ele>97.933762</ele><time>2022-03-04T09:26:25Z</time><extensions><speed>0.035427</speed><course>276.727875</course><hAcc>1.126699</hAcc><vAcc>0.826527</vAcc></extensions></trkpt>
      <trkpt lon="-2.253593" lat="53.126542"><ele>97.925911</ele><time>2022-03-04T09:26:26Z</time><extensions><speed>0.030500</speed><course>286.434113</course><hAcc>1.118834</hAcc><vAcc>0.826730</vAcc></extensions></trkpt>
      <trkpt lon="-2.253593" lat="53.126542"><ele>97.927696</ele><time>2022-03-04T09:26:27Z</time><extensions><speed>0.026058</speed><course>298.568939</course><hAcc>1.114169</hAcc><vAcc>0.826816</vAcc></extensions></trkpt>
      <trkpt lon="-2.253594" lat="53.126542"><ele>97.934105</ele><time>2022-03-04T09:26:28Z</time><extensions><speed>0.023787</speed><course>310.300171</course><hAcc>1.112431</hAcc><vAcc>0.826799</vAcc></extensions></trkpt>
      <trkpt lon="-2.253594" lat="53.126543"><ele>97.938583</ele><time>2022-03-04T09:26:29Z</time><extensions><speed>0.022904</speed><course>324.536987</course><hAcc>1.113901</hAcc><vAcc>0.826695</vAcc></extensions></trkpt>
      <trkpt lon="-2.253594" lat="53.126543"><ele>97.944939</ele><time>2022-03-04T09:26:30Z</time><extensions><speed>0.022478</speed><course>339.184967</course><hAcc>1.119414</hAcc><vAcc>0.826508</vAcc></extensions></trkpt>
      <trkpt lon="-2.253593" lat="53.126543"><ele>97.954308</ele><time>2022-03-04T09:26:31Z</time><extensions><speed>0.023394</speed><course>355.887512</course><hAcc>1.129110</hAcc><vAcc>0.826230</vAcc></extensions></trkpt>
      <trkpt lon="-2.253593" lat="53.126543"><ele>97.969574</ele><time>2022-03-04T09:26:32Z</time><extensions><speed>0.026786</speed><course>10.996160</course><hAcc>1.143135</hAcc><vAcc>0.825844</vAcc></extensions></trkpt>
      <trkpt lon="-2.253593" lat="53.126543"><ele>97.971634</ele><time>2022-03-04T09:26:33Z</time><extensions><speed>0.041088</speed><course>24.630568</course><hAcc>1.154645</hAcc><vAcc>0.825331</vAcc></extensions></trkpt>
      <trkpt lon="-2.253591" lat="53.126544"><ele>97.962646</ele><time>2022-03-04T09:26:34Z</time><extensions><speed>0.167464</speed><course>33.954903</course><hAcc>1.139789</hAcc><vAcc>0.824726</vAcc></extensions></trkpt>
      <trkpt lon="-2.253590" lat="53.126545"><ele>97.955414</ele><time>2022-03-04T09:26:35Z</time><extensions><speed>0.087533</speed><course>43.514442</course><hAcc>1.239538</hAcc><vAcc>0.824101</vAcc></extensions></trkpt>
      <trkpt lon="-2.253589" lat="53.126546"><ele>97.942245</ele><time>2022-03-04T09:26:36Z</time><extensions><speed>0.044055</speed><course>56.645279</course><hAcc>1.295939</hAcc><vAcc>0.823430</vAcc></extensions></trkpt>
      <trkpt lon="-2.253588" lat="53.126546"><ele>97.926582</ele><time>2022-03-04T09:26:37Z</time><extensions><speed>0.040405</speed><course>68.999084</course><hAcc>1.318709</hAcc><vAcc>0.822748</vAcc></extensions></trkpt>
      <trkpt lon="-2.253587" lat="53.126546"><ele>97.909676</ele><time>2022-03-04T09:26:38Z</time><extensions><speed>0.112702</speed><course>76.186249</course><hAcc>1.317925</hAcc><vAcc>0.822040</vAcc></extensions></trkpt>
      <trkpt lon="-2.253583" lat="53.126547"><ele>97.892693</ele><time>2022-03-04T09:26:39Z</time><extensions><speed>0.296074</speed><course>78.474747</course><hAcc>1.321272</hAcc><vAcc>0.821351</vAcc></extensions></trkpt>
      <trkpt lon="-2.253579" lat="53.126547"><ele>97.877884</ele><time>2022-03-04T09:26:40Z</time><extensions><speed>0.341983</speed><course>77.843597</course><hAcc>1.409755</hAcc><vAcc>0.820696</vAcc></extensions></trkpt>
      <trkpt lon="-2.253575" lat="53.126548"><ele>97.862816</ele><time>2022-03-04T09:26:41Z</time><extensions><speed>0.263701</speed><course>73.877686</course><hAcc>1.507430</hAcc><vAcc>0.820078</vAcc></extensions></trkpt>
      <trkpt lon="-2.253570" lat="53.126549"><ele>97.844948</ele><time>2022-03-04T09:26:42Z</time><extensions><speed>0.352620</speed><course>67.581078</course><hAcc>1.514568</hAcc><vAcc>0.819524</vAcc></extensions></trkpt>
      <trkpt lon="-2.253565" lat="53.126550"><ele>97.831642</ele><time>2022-03-04T09:26:43Z</time><extensions><speed>0.440850</speed><course>61.253574</course><hAcc>1.495926</hAcc><vAcc>0.819047</vAcc></extensions></trkpt>
      <trkpt lon="-2.253560" lat="53.126552"><ele>97.822052</ele><time>2022-03-04T09:26:44Z</time><extensions><speed>0.414448</speed><course>53.469982</course><hAcc>1.529551</hAcc><vAcc>0.818603</vAcc></extensions></trkpt>
      <trkpt lon="-2.253557" lat="53.126554"><ele>97.823013</ele><time>2022-03-04T09:26:45Z</time><extensions><speed>0.073859</speed><course>59.829105</course><hAcc>1.637326</hAcc><vAcc>0.818246</vAcc></extensions></trkpt>
      <trkpt lon="-2.253556" lat="53.126554"><ele>97.828117</ele><time>2022-03-04T09:26:46Z</time><extensions><speed>0.079841</speed><course>68.788307</course><hAcc>1.610307</hAcc><vAcc>0.818011</vAcc></extensions></trkpt>
      <trkpt lon="-2.253555" lat="53.126554"><ele>97.837860</ele><time>2022-03-04T09:26:47Z</time><extensions><speed>0.076729</speed><course>73.368530</course><hAcc>1.548770</hAcc><vAcc>0.817878</vAcc></extensions></trkpt>
      <trkpt lon="-2.253555" lat="53.126554"><ele>97.852402</ele><time>2022-03-04T09:26:48Z</time><extensions><speed>0.007014</speed><course>7.075067</course><hAcc>1.534727</hAcc><vAcc>0.817846</vAcc></extensions></trkpt>
      <trkpt lon="-2.253556" lat="53.126554"><ele>97.874977</ele><time>2022-03-04T09:26:49Z</time><extensions><speed>0.094265</speed><course>263.224854</course><hAcc>1.554258</hAcc><vAcc>0.817894</vAcc></extensions></trkpt>
      <trkpt lon="-2.253558" lat="53.126554"><ele>97.902298</ele><time>2022-03-04T09:26:50Z</time><extensions><speed>0.140148</speed><course>260.682678</course><hAcc>1.599648</hAcc><vAcc>0.818035</vAcc></extensions></trkpt>
      <trkpt lon="-2.253559" lat="53.126554"><ele>97.933807</ele><time>2022-03-04T09:26:51Z</time><extensions><speed>0.068854</speed><course>259.235443</course><hAcc>1.665567</hAcc><vAcc>0.818272</vAcc></extensions></trkpt>
      <trkpt lon="-2.253562" lat="53.126553"><ele>97.968803</ele><time>2022-03-04T09:26:52Z</time><extensions><speed>0.191760</speed><course>258.527405</course><hAcc>1.580056</hAcc><vAcc>0.818605</vAcc></extensions></trkpt>
      <trkpt lon="-2.253565" lat="53.126553"><ele>98.006477</ele><time>2022-03-04T09:26:53Z</time><extensions><speed>0.222409</speed><course>255.096054</course><hAcc>1.499831</hAcc><vAcc>0.819027</vAcc></extensions></trkpt>
      <trkpt lon="-2.253568" lat="53.126552"><ele>98.045914</ele><time>2022-03-04T09:26:54Z</time><extensions><speed>0.237241</speed><course>250.078339</course><hAcc>1.407725</hAcc><vAcc>0.819523</vAcc></extensions></trkpt>
      <trkpt lon="-2.253572" lat="53.126551"><ele>98.094856</ele><time>2022-03-04T09:26:55Z</time><extensions><speed>0.198387</speed><course>245.761688</course><hAcc>1.341158</hAcc><vAcc>0.820079</vAcc></extensions></trkpt>
      <trkpt lon="-2.253575" lat="53.126550"><ele>98.144913</ele><time>2022-03-04T09:26:56Z</time><extensions><speed>0.046659</speed><course>239.313248</course><hAcc>1.352236</hAcc><vAcc>0.820691</vAcc></extensions></trkpt>
      <trkpt lon="-2.253576" lat="53.126549"><ele>98.195282</ele><time>2022-03-04T09:26:57Z</time><extensions><speed>0.037666</speed><course>232.210022</course><hAcc>1.317806</hAcc><vAcc>0.821330</vAcc></extensions></trkpt>
      <trkpt lon="-2.253578" lat="53.126549"><ele>98.245300</ele><time>2022-03-04T09:26:58Z</time><extensions><speed>0.046556</speed><course>229.423004</course><hAcc>1.279164</hAcc><vAcc>0.821970</vAcc></extensions></trkpt>
      <trkpt lon="-2.253579" lat="53.126548"><ele>98.294441</ele><time>2022-03-04T09:26:59Z</time><extensions><speed>0.076240</speed><course>229.700241</course><hAcc>1.233871</hAcc><vAcc>0.822595</vAcc></extensions></trkpt>
      <trkpt lon="-2.253580" lat="53.126548"><ele>98.342255</ele><time>2022-03-04T09:27:00Z</time><extensions><speed>0.051092</speed><course>231.887405</course><hAcc>1.211273</hAcc><vAcc>0.823193</vAcc></extensions></trkpt>
      <trkpt lon="-2.253581" lat="53.126547"><ele>98.381454</ele><time>2022-03-04T09:27:01Z</time><extensions><speed>0.048710</speed><course>233.068298</course><hAcc>1.187322</hAcc><vAcc>0.823728</vAcc></extensions></trkpt>
      <trkpt lon="-2.253582" lat="53.126547"><ele>98.409851</ele><time>2022-03-04T09:27:02Z</time><extensions><speed>0.048743</speed><course>234.101120</course><hAcc>1.166594</hAcc><vAcc>0.824164</vAcc></extensions></trkpt>
      <trkpt lon="-2.253582" lat="53.126547"><ele>98.434120</ele><time>2022-03-04T09:27:03Z</time><extensions><speed>0.048217</speed><course>235.140549</course><hAcc>1.150878</hAcc><vAcc>0.824500</vAcc></extensions></trkpt>
      <trkpt lon="-2.253583" lat="53.126546"><ele>98.453827</ele><time>2022-03-04T09:27:04Z</time><extensions><speed>0.038176</speed><course>235.083237</course><hAcc>1.143397</hAcc><vAcc>0.824776</vAcc></extensions></trkpt>
      <trkpt lon="-2.253583" lat="53.126546"><ele>98.470177</ele><time>2022-03-04T09:27:05Z</time><extensions><speed>0.047672</speed><course>234.288864</course><hAcc>1.132708</hAcc><vAcc>0.824944</vAcc></extensions></trkpt>
      <trkpt lon="-2.253583" lat="53.126546"><ele>98.465416</ele><time>2022-03-04T09:27:06Z</time><extensions><speed>0.036668</speed><course>230.488007</course><hAcc>1.134184</hAcc><vAcc>0.825011</vAcc></extensions></trkpt>
      <trkpt lon="-2.253583" lat="53.126546"><ele>98.455811</ele><time>2022-03-04T09:27:07Z</time><extensions><speed>0.026260</speed><course>225.899582</course><hAcc>1.141574</hAcc><vAcc>0.824997</vAcc></extensions></trkpt>
      <trkpt lon="-2.253584" lat="53.126546"><ele>98.441696</ele><time>2022-03-04T09:27:08Z</time><extensions><speed>0.020971</speed><course>218.755325</course><hAcc>1.151614</hAcc><vAcc>0.824855</vAcc></extensions></trkpt>
      <trkpt lon="-2.253584" lat="53.126545"><ele>98.421509</ele><time>2022-03-04T09:27:09Z</time><extensions><speed>0.016820</speed><course>206.542526</course><hAcc>1.167158</hAcc><vAcc>0.824666</vAcc></extensions></trkpt>
      <trkpt lon="-2.253584" lat="53.126545"><ele>98.398964</ele><time>2022-03-04T09:27:10Z</time><extensions><speed>0.014773</speed><course>184.467545</course><hAcc>1.185585</hAcc><vAcc>0.824420</vAcc></extensions></trkpt>
      <trkpt lon="-2.253584" lat="53.126545"><ele>98.370766</ele><time>2022-03-04T09:27:11Z</time><extensions><speed>0.034835</speed><course>164.421585</course><hAcc>1.199884</hAcc><vAcc>0.824092</vAcc></extensions></trkpt>
      <trkpt lon="-2.253584" lat="53.126545"><ele>98.329803</ele><time>2022-03-04T09:27:12Z</time><extensions><speed>0.024675</speed><course>138.264465</course><hAcc>1.275076</hAcc><vAcc>0.823721</vAcc></extensions></trkpt>
      <trkpt lon="-2.253583" lat="53.126544"><ele>98.279167</ele><time>2022-03-04T09:27:13Z</time><extensions><speed>0.080698</speed><course>114.659668</course><hAcc>1.296390</hAcc><vAcc>0.823294</vAcc></extensions></trkpt>
      <trkpt lon="-2.253581" lat="53.126544"><ele>98.222359</ele><time>2022-03-04T09:27:14Z</time><extensions><speed>0.096348</speed><course>101.498543</course><hAcc>1.391747</hAcc><vAcc>0.822872</vAcc></extensions></trkpt>
      <trkpt lon="-2.253579" lat="53.126544"><ele>98.167786</ele><time>2022-03-04T09:27:15Z</time><extensions><speed>0.164582</speed><course>95.203941</course><hAcc>1.435685</hAcc><vAcc>0.822448</vAcc></extensions></trkpt>
      <trkpt lon="-2.253576" lat="53.126544"><ele>98.107681</ele><time>2022-03-04T09:27:16Z</time><extensions><speed>0.169253</speed><course>97.320625</course><hAcc>1.498973</hAcc><vAcc>0.822033</vAcc></extensions></trkpt>
      <trkpt lon="-2.253573" lat="53.126543"><ele>98.051994</ele><time>2022-03-04T09:27:17Z</time><extensions><speed>0.145710</speed><course>106.968376</course><hAcc>1.551204</hAcc><vAcc>0.821622</vAcc></extensions></trkpt>
      <trkpt lon="-2.253571" lat="53.126543"><ele>97.998032</ele><time>2022-03-04T09:27:18Z</time><extensions><speed>0.180740</speed><course>115.281181</course><hAcc>1.568362</hAcc><vAcc>0.821213</vAcc></extensions></trkpt>
      <trkpt lon="-2.253569" lat="53.126542"><ele>97.945557</ele><time>2022-03-04T09:27:19Z</time><extensions><speed>0.155559</speed><course>115.653633</course><hAcc>1.633018</hAcc><vAcc>0.820824</vAcc></extensions></trkpt>
      <trkpt lon="-2.253566" lat="53.126542"><ele>97.904411</ele><time>2022-03-04T09:27:20Z</time><extensions><speed>0.187136</speed><course>109.886864</course><hAcc>1.672699</hAcc><vAcc>0.820409</vAcc></extensions></trkpt>
      <trkpt lon="-2.253560" lat="53.126541"><ele>97.873146</ele><time>2022-03-04T09:27:21Z</time><extensions><speed>0.625083</speed><course>107.019699</course><hAcc>1.632397</hAcc><vAcc>0.820005</vAcc></extensions></trkpt>
      <trkpt lon="-2.253549" lat="53.126539"><ele>97.851593</ele><time>2022-03-04T09:27:22Z</time><extensions><speed>0.920583</speed><course>106.529984</course><hAcc>1.652916</hAcc><vAcc>0.819618</vAcc></extensions></trkpt>
      <trkpt lon="-2.253534" lat="53.126536"><ele>97.838203</ele><time>2022-03-04T09:27:23Z</time><extensions><speed>1.191844</speed><course>108.271317</course><hAcc>1.703981</hAcc><vAcc>0.819218</vAcc></extensions></trkpt>
      <trkpt lon="-2.253516" lat="53.126531"><ele>97.835922</ele><time>2022-03-04T09:27:24Z</time><extensions><speed>1.483586</speed><course>112.524506</course><hAcc>1.750780</hAcc><vAcc>0.818831</vAcc></extensions></trkpt>
      <trkpt lon="-2.253495" lat="53.126526"><ele>97.845757</ele><time>2022-03-04T09:27:25Z</time><extensions><speed>1.569000</speed><course>116.150589</course><hAcc>1.798439</hAcc><vAcc>0.818463</vAcc></extensions></trkpt>
      <trkpt lon="-2.253474" lat="53.126519"><ele>97.860138</ele><time>2022-03-04T09:27:26Z</time><extensions><speed>1.560356</speed><course>121.810539</course><hAcc>1.839303</hAcc><vAcc>0.818120</vAcc></extensions></trkpt>
      <trkpt lon="-2.253456" lat="53.126511"><ele>97.880272</ele><time>2022-03-04T09:27:27Z</time><extensions><speed>1.470409</speed><course>126.047112</course><hAcc>1.855062</hAcc><vAcc>0.817811</vAcc></extensions></trkpt>
      <trkpt lon="-2.253439" lat="53.126504"><ele>97.900253</ele><time>2022-03-04T09:27:28Z</time><extensions><speed>1.357482</speed><course>130.256744</course><hAcc>1.863900</hAcc><vAcc>0.817559</vAcc></extensions></trkpt>
      <trkpt lon="-2.253425" lat="53.126496"><ele>97.944405</ele><time>2022-03-04T09:27:29Z</time><extensions><speed>1.229989</speed><course>135.451828</course><hAcc>1.869023</hAcc><vAcc>0.817351</vAcc></extensions></trkpt>
      <trkpt lon="-2.253413" lat="53.126488"><ele>97.989571</ele><time>2022-03-04T09:27:30Z</time><extensions><speed>1.123402</speed><course>140.581833</course><hAcc>1.870888</hAcc><vAcc>0.817231</vAcc></extensions></trkpt>
      <trkpt lon="-2.253403" lat="53.126480"><ele>98.035599</ele><time>2022-03-04T09:27:31Z</time><extensions><speed>1.070174</speed><course>145.884048</course><hAcc>1.877474</hAcc><vAcc>0.817169</vAcc></extensions></trkpt>
      <trkpt lon="-2.253395" lat="53.126472"><ele>98.087372</ele><time>2022-03-04T09:27:32Z</time><extensions><speed>1.057771</speed><course>150.001816</course><hAcc>1.885492</hAcc><vAcc>0.817179</vAcc></extensions></trkpt>
      <trkpt lon="-2.253387" lat="53.126464"><ele>98.147011</ele><time>2022-03-04T09:27:33Z</time><extensions><speed>1.061664</speed><course>151.803345</course><hAcc>1.877791</hAcc><vAcc>0.817277</vAcc></extensions></trkpt>
      <trkpt lon="-2.253380" lat="53.126455"><ele>98.193748</ele><time>2022-03-04T09:27:34Z</time><extensions><speed>1.085569</speed><course>152.616180</course><hAcc>1.866165</hAcc><vAcc>0.817451</vAcc></extensions></trkpt>
      <trkpt lon="-2.253372" lat="53.126446"><ele>98.231842</ele><time>2022-03-04T09:27:35Z</time><extensions><speed>1.108356</speed><course>154.759796</course><hAcc>1.863953</hAcc><vAcc>0.817800</vAcc></extensions></trkpt>
      <trkpt lon="-2.253366" lat="53.126437"><ele>98.269524</ele><time>2022-03-04T09:27:36Z</time><extensions><speed>1.063719</speed><course>156.575287</course><hAcc>1.861004</hAcc><vAcc>0.818244</vAcc></extensions></trkpt>
      <trkpt lon="-2.253360" lat="53.126429"><ele>98.300392</ele><time>2022-03-04T09:27:37Z</time><extensions><speed>0.998702</speed><course>157.747818</course><hAcc>1.855163</hAcc><vAcc>0.818767</vAcc></extensions></trkpt>
      <trkpt lon="-2.253354" lat="53.126421"><ele>98.333023</ele><time>2022-03-04T09:27:38Z</time><extensions><speed>0.957328</speed><course>157.271545</course><hAcc>1.849757</hAcc><vAcc>0.819373</vAcc></extensions></trkpt>
      <trkpt lon="-2.253349" lat="53.126413"><ele>98.354141</ele><time>2022-03-04T09:27:39Z</time><extensions><speed>0.962494</speed><course>156.407684</course><hAcc>1.841513</hAcc><vAcc>0.820044</vAcc></extensions></trkpt>
      <trkpt lon="-2.253343" lat="53.126405"><ele>98.369934</ele><time>2022-03-04T09:27:40Z</time><extensions><speed>0.944388</speed><course>155.665329</course><hAcc>1.830412</hAcc><vAcc>0.820771</vAcc></extensions></trkpt>
      <trkpt lon="-2.253337" lat="53.126397"><ele>98.376801</ele><time>2022-03-04T09:27:41Z</time><extensions><speed>0.968552</speed><course>156.721100</course><hAcc>1.808363</hAcc><vAcc>0.821520</vAcc></extensions></trkpt>
      <trkpt lon="-2.253332" lat="53.126389"><ele>98.385918</ele><time>2022-03-04T09:27:42Z</time><extensions><speed>0.981308</speed><course>158.516251</course><hAcc>1.779042</hAcc><vAcc>0.822293</vAcc></extensions></trkpt>
      <trkpt lon="-2.253327" lat="53.126381"><ele>98.382957</ele><time>2022-03-04T09:27:43Z</time><extensions><speed>0.993501</speed><course>161.623184</course><hAcc>1.750805</hAcc><vAcc>0.823084</vAcc></extensions></trkpt>
      <trkpt lon="-2.253323" lat="53.126372"><ele>98.382256</ele><time>2022-03-04T09:27:44Z</time><extensions><speed>0.960612</speed><course>166.783890</course><hAcc>1.729513</hAcc><vAcc>0.823854</vAcc></extensions></trkpt>
      <trkpt lon="-2.253320" lat="53.126364"><ele>98.362862</ele><time>2022-03-04T09:27:45Z</time><extensions><speed>0.944413</speed><course>170.276672</course><hAcc>1.725536</hAcc><vAcc>0.824581</vAcc></extensions></trkpt>
      <trkpt lon="-2.253319" lat="53.126356"><ele>98.336174</ele><time>2022-03-04T09:27:46Z</time><extensions><speed>0.863625</speed><course>175.630295</course><hAcc>1.702093</hAcc><vAcc>0.825236</vAcc></extensions></trkpt>
      <trkpt lon="-2.253319" lat="53.126348"><ele>98.307968</ele><time>2022-03-04T09:27:47Z</time><extensions><speed>0.821872</speed><course>182.934937</course><hAcc>1.685190</hAcc><vAcc>0.825819</vAcc></extensions></trkpt>
      <trkpt lon="-2.253320" lat="53.126341"><ele>98.279686</ele><time>2022-03-04T09:27:48Z</time><extensions><speed>0.824785</speed><course>189.896362</course><hAcc>1.682467</hAcc><vAcc>0.826305</vAcc></extensions></trkpt>
      <trkpt lon="-2.253323" lat="53.126334"><ele>98.245674</ele><time>2022-03-04T09:27:49Z</time><extensions><speed>0.860417</speed><course>196.844360</course><hAcc>1.668756</hAcc><vAcc>0.826690</vAcc></extensions></trkpt>
      <trkpt lon="-2.253328" lat="53.126326"><ele>98.233131</ele><time>2022-03-04T09:27:50Z</time><extensions><speed>0.934249</speed><course>204.131439</course><hAcc>1.662260</hAcc><vAcc>0.826981</vAcc></extensions></trkpt>
      <trkpt lon="-2.253335" lat="53.126319"><ele>98.198189</ele><time>2022-03-04T09:27:51Z</time><extensions><speed>1.006486</speed><course>213.391495</course><hAcc>1.662421</hAcc><vAcc>0.827208</vAcc></extensions></trkpt>
      <trkpt lon="-2.253345" lat="53.126311"><ele>98.150032</ele><time>2022-03-04T09:27:52Z</time><extensions><speed>1.097537</speed><course>221.207260</course><hAcc>1.667852</hAcc><vAcc>0.827392</vAcc></extensions></trkpt>
      <trkpt lon="-2.253357" lat="53.126304"><ele>98.120811</ele><time>2022-03-04T09:27:53Z</time><extensions><speed>1.194752</speed><course>226.643295</course><hAcc>1.678406</hAcc><vAcc>0.827539</vAcc></extensions></trkpt>
      <trkpt lon="-2.253371" lat="53.126297"><ele>98.065971</ele><time>2022-03-04T09:27:54Z</time><extensions><speed>1.238741</speed><course>234.081192</course><hAcc>1.679885</hAcc><vAcc>0.827651</vAcc></extensions></trkpt>
      <trkpt lon="-2.253387" lat="53.126291"><ele>98.021362</ele><time>2022-03-04T09:27:55Z</time><extensions><speed>1.316152</speed><course>241.762009</course><hAcc>1.681719</hAcc><vAcc>0.827730</vAcc></extensions></trkpt>
      <trkpt lon="-2.253405" lat="53.126285"><ele>97.984497</ele><time>2022-03-04T09:27:56Z</time><extensions><speed>1.402590</speed><course>246.874496</course><hAcc>1.683706</hAcc><vAcc>0.827779</vAcc></extensions></trkpt>
      <trkpt lon="-2.253425" lat="53.126281"><ele>97.943321</ele><time>2022-03-04T09:27:57Z</time><extensions><speed>1.444153</speed><course>249.924210</course><hAcc>1.689619</hAcc><vAcc>0.827818</vAcc></extensions></trkpt>
      <trkpt lon="-2.253446" lat="53.126276"><ele>97.890282</ele><time>2022-03-04T09:27:58Z</time><extensions><speed>1.459786</speed><course>251.333786</course><hAcc>1.695915</hAcc><vAcc>0.827847</vAcc></extensions></trkpt>
      <trkpt lon="-2.253467" lat="53.126272"><ele>97.847717</ele><time>2022-03-04T09:27:59Z</time><extensions><speed>1.496057</speed><course>252.791367</course><hAcc>1.699024</hAcc><vAcc>0.827859</vAcc></extensions></trkpt>
      <trkpt lon="-2.253489" lat="53.126268"><ele>97.796257</ele><time>2022-03-04T09:28:00Z</time><extensions><speed>1.536889</speed><course>253.818024</course><hAcc>1.700210</hAcc><vAcc>0.827855</vAcc></extensions></trkpt>
      <trkpt lon="-2.253511" lat="53.126265"><ele>97.735100</ele><time>2022-03-04T09:28:01Z</time><extensions><speed>1.559226</speed><course>255.480087</course><hAcc>1.701475</hAcc><vAcc>0.827851</vAcc></extensions></trkpt>
      <trkpt lon="-2.253534" lat="53.126261"><ele>97.678001</ele><time>2022-03-04T09:28:02Z</time><extensions><speed>1.574696</speed><course>256.204498</course><hAcc>1.702907</hAcc><vAcc>0.827841</vAcc></extensions></trkpt>
      <trkpt lon="-2.253557" lat="53.126258"><ele>97.620720</ele><time>2022-03-04T09:28:03Z</time><extensions><speed>1.577532</speed><course>256.223602</course><hAcc>1.701601</hAcc><vAcc>0.827834</vAcc></extensions></trkpt>
      <trkpt lon="-2.253580" lat="53.126255"><ele>97.556839</ele><time>2022-03-04T09:28:04Z</time><extensions><speed>1.566378</speed><course>257.402771</course><hAcc>1.691573</hAcc><vAcc>0.827827</vAcc></extensions></trkpt>
      <trkpt lon="-2.253603" lat="53.126252"><ele>97.502510</ele><time>2022-03-04T09:28:05Z</time><extensions><speed>1.552595</speed><course>258.050720</course><hAcc>1.678975</hAcc><vAcc>0.827799</vAcc></extensions></trkpt>
      <trkpt lon="-2.253625" lat="53.126249"><ele>97.438515</ele><time>2022-03-04T09:28:06Z</time><extensions><speed>1.478526</speed><course>259.574615</course><hAcc>1.663812</hAcc><vAcc>0.827770</vAcc></extensions></trkpt>
      <trkpt lon="-2.253646" lat="53.126247"><ele>97.369865</ele><time>2022-03-04T09:28:07Z</time><extensions><speed>1.394560</speed><course>261.195496</course><hAcc>1.673348</hAcc><vAcc>0.827738</vAcc></extensions></trkpt>
      <trkpt lon="-2.253666" lat="53.126245"><ele>97.309227</ele><time>2022-03-04T09:28:08Z</time><extensions><speed>1.254061</speed><course>264.248810</course><hAcc>1.691292</hAcc><vAcc>0.827702</vAcc></extensions></trkpt>
      <trkpt lon="-2.253685" lat="53.126244"><ele>97.257378</ele><time>2022-03-04T09:28:09Z</time><extensions><speed>1.280809</speed><course>264.021515</course><hAcc>1.667806</hAcc><vAcc>0.827660</vAcc></extensions></trkpt>
      <trkpt lon="-2.253704" lat="53.126243"><ele>97.204155</ele><time>2022-03-04T09:28:10Z</time><extensions><speed>1.304750</speed><course>261.990204</course><hAcc>1.650439</hAcc><vAcc>0.827613</vAcc></extensions></trkpt>
      <trkpt lon="-2.253723" lat="53.126241"><ele>97.151665</ele><time>2022-03-04T09:28:11Z</time><extensions><speed>1.282405</speed><course>258.877655</course><hAcc>1.649823</hAcc><vAcc>0.827565</vAcc></extensions></trkpt>
      <trkpt lon="-2.253742" lat="53.126238"><ele>97.088493</ele><time>2022-03-04T09:28:12Z</time><extensions><speed>1.280799</speed><course>255.014969</course><hAcc>1.662384</hAcc><vAcc>0.827528</vAcc></extensions></trkpt>
      <trkpt lon="-2.253760" lat="53.126235"><ele>97.020271</ele><time>2022-03-04T09:28:13Z</time><extensions><speed>1.244349</speed><course>251.830032</course><hAcc>1.686451</hAcc><vAcc>0.827507</vAcc></extensions></trkpt>
      <trkpt lon="-2.253777" lat="53.126231"><ele>96.983025</ele><time>2022-03-04T09:28:14Z</time><extensions><speed>1.231601</speed><course>251.049042</course><hAcc>1.671585</hAcc><vAcc>0.827475</vAcc></extensions></trkpt>
      <trkpt lon="-2.253795" lat="53.126228"><ele>96.938782</ele><time>2022-03-04T09:28:15Z</time><extensions><speed>1.289361</speed><course>251.501678</course><hAcc>1.651283</hAcc><vAcc>0.827461</vAcc></extensions></trkpt>
      <trkpt lon="-2.253813" lat="53.126224"><ele>96.911888</ele><time>2022-03-04T09:28:16Z</time><extensions><speed>1.328104</speed><course>252.915283</course><hAcc>1.639873</hAcc><vAcc>0.827477</vAcc></extensions></trkpt>
      <trkpt lon="-2.253832" lat="53.126221"><ele>96.894867</ele><time>2022-03-04T09:28:17Z</time><extensions><speed>1.373253</speed><course>253.331467</course><hAcc>1.615136</hAcc><vAcc>0.827534</vAcc></extensions></trkpt>
      <trkpt lon="-2.253851" lat="53.126217"><ele>96.895798</ele><time>2022-03-04T09:28:18Z</time><extensions><speed>1.386752</speed><course>253.144058</course><hAcc>1.569218</hAcc><vAcc>0.827626</vAcc></extensions></trkpt>
      <trkpt lon="-2.253871" lat="53.126213"><ele>96.909203</ele><time>2022-03-04T09:28:19Z</time><extensions><speed>1.453855</speed><course>252.016571</course><hAcc>1.523382</hAcc><vAcc>0.827747</vAcc></extensions></trkpt>
      <trkpt lon="-2.253891" lat="53.126210"><ele>96.936989</ele><time>2022-03-04T09:28:20Z</time><extensions><speed>1.489786</speed><course>253.497116</course><hAcc>1.527801</hAcc><vAcc>0.827888</vAcc></extensions></trkpt>
      <trkpt lon="-2.253911" lat="53.126206"><ele>96.973358</ele><time>2022-03-04T09:28:21Z</time><extensions><speed>1.488791</speed><course>253.157272</course><hAcc>1.503559</hAcc><vAcc>0.828050</vAcc></extensions></trkpt>
      <trkpt lon="-2.253931" lat="53.126202"><ele>97.023766</ele><time>2022-03-04T09:28:22Z</time><extensions><speed>1.407301</speed><course>251.728165</course><hAcc>1.449813</hAcc><vAcc>0.828221</vAcc></extensions></trkpt>
      <trkpt lon="-2.253949" lat="53.126199"><ele>97.071434</ele><time>2022-03-04T09:28:23Z</time><extensions><speed>1.366423</speed><course>251.962860</course><hAcc>1.434619</hAcc><vAcc>0.828371</vAcc></extensions></trkpt>
      <trkpt lon="-2.253968" lat="53.126195"><ele>97.122787</ele><time>2022-03-04T09:28:24Z</time><extensions><speed>1.367628</speed><course>249.365143</course><hAcc>1.430558</hAcc><vAcc>0.828490</vAcc></extensions></trkpt>
      <trkpt lon="-2.253985" lat="53.126191"><ele>97.178810</ele><time>2022-03-04T09:28:25Z</time><extensions><speed>1.330910</speed><course>244.313156</course><hAcc>1.413586</hAcc><vAcc>0.828584</vAcc></extensions></trkpt>
      <trkpt lon="-2.254002" lat="53.126185"><ele>97.230049</ele><time>2022-03-04T09:28:26Z</time><extensions><speed>1.220350</speed><course>237.050385</course><hAcc>1.395564</hAcc><vAcc>0.828637</vAcc></extensions></trkpt>
      <trkpt lon="-2.254016" lat="53.126179"><ele>97.289154</ele><time>2022-03-04T09:28:27Z</time><extensions><speed>1.175919</speed><course>231.313141</course><hAcc>1.389216</hAcc><vAcc>0.828689</vAcc></extensions></trkpt>
      <trkpt lon="-2.254029" lat="53.126172"><ele>97.346779</ele><time>2022-03-04T09:28:28Z</time><extensions><speed>1.256888</speed><course>228.351044</course><hAcc>1.417328</hAcc><vAcc>0.828708</vAcc></extensions></trkpt>
      <trkpt lon="-2.254042" lat="53.126164"><ele>97.398895</ele><time>2022-03-04T09:28:29Z</time><extensions><speed>1.225059</speed><course>223.244202</course><hAcc>1.430250</hAcc><vAcc>0.828664</vAcc></extensions></trkpt>
      <trkpt lon="-2.254053" lat="53.126156"><ele>97.449013</ele><time>2022-03-04T09:28:30Z</time><extensions><speed>1.178036</speed><course>214.940536</course><hAcc>1.449517</hAcc><vAcc>0.828578</vAcc></extensions></trkpt>
      <trkpt lon="-2.254062" lat="53.126147"><ele>97.490295</ele><time>2022-03-04T09:28:31Z</time><extensions><speed>1.023370</speed><course>206.691895</course><hAcc>1.468028</hAcc><vAcc>0.828457</vAcc></extensions></trkpt>
      <trkpt lon="-2.254067" lat="53.126140"><ele>97.517776</ele><time>2022-03-04T09:28:32Z</time><extensions><speed>0.816304</speed><course>196.884720</course><hAcc>1.494607</hAcc><vAcc>0.828327</vAcc></extensions></trkpt>
      <trkpt lon="-2.254067" lat="53.126135"><ele>97.520729</ele><time>2022-03-04T09:28:33Z</time><extensions><speed>0.353361</speed><course>130.278580</course><hAcc>1.505470</hAcc><vAcc>0.828175</vAcc></extensions></trkpt>
      <trkpt lon="-2.254061" lat="53.126133"><ele>97.525116</ele><time>2022-03-04T09:28:34Z</time><extensions><speed>0.466520</speed><course>112.095528</course><hAcc>1.528186</hAcc><vAcc>0.828019</vAcc></extensions></trkpt>
      <trkpt lon="-2.254056" lat="53.126131"><ele>97.526070</ele><time>2022-03-04T09:28:35Z</time><extensions><speed>0.522059</speed><course>136.329285</course><hAcc>1.570507</hAcc><vAcc>0.827888</vAcc></extensions></trkpt>
      <trkpt lon="-2.254052" lat="53.126127"><ele>97.528282</ele><time>2022-03-04T09:28:36Z</time><extensions><speed>0.578727</speed><course>162.811371</course><hAcc>1.627559</hAcc><vAcc>0.827765</vAcc></extensions></trkpt>
      <trkpt lon="-2.254050" lat="53.126121"><ele>97.523659</ele><time>2022-03-04T09:28:37Z</time><extensions><speed>0.685640</speed><course>177.704605</course><hAcc>1.668991</hAcc><vAcc>0.827657</vAcc></extensions></trkpt>
      <trkpt lon="-2.254050" lat="53.126115"><ele>97.507561</ele><time>2022-03-04T09:28:38Z</time><extensions><speed>0.669164</speed><course>175.938126</course><hAcc>1.668879</hAcc><vAcc>0.827578</vAcc></extensions></trkpt>
      <trkpt lon="-2.254049" lat="53.126109"><ele>97.485771</ele><time>2022-03-04T09:28:39Z</time><extensions><speed>0.673536</speed><course>169.752991</course><hAcc>1.647348</hAcc><vAcc>0.827519</vAcc></extensions></trkpt>
      <trkpt lon="-2.254047" lat="53.126103"><ele>97.461243</ele><time>2022-03-04T09:28:40Z</time><extensions><speed>0.692962</speed><course>171.696045</course><hAcc>1.632869</hAcc><vAcc>0.827473</vAcc></extensions></trkpt>
      <trkpt lon="-2.254046" lat="53.126097"><ele>97.433472</ele><time>2022-03-04T09:28:41Z</time><extensions><speed>0.657212</speed><course>185.385834</course><hAcc>1.615703</hAcc><vAcc>0.827457</vAcc></extensions></trkpt>
      <trkpt lon="-2.254049" lat="53.126092"><ele>97.394821</ele><time>2022-03-04T09:28:42Z</time><extensions><speed>0.761709</speed><course>204.916092</course><hAcc>1.602882</hAcc><vAcc>0.827463</vAcc></extensions></trkpt>
      <trkpt lon="-2.254056" lat="53.126085"><ele>97.366478</ele><time>2022-03-04T09:28:43Z</time><extensions><speed>1.012519</speed><course>221.440018</course><hAcc>1.569126</hAcc><vAcc>0.827521</vAcc></extensions></trkpt>
      <trkpt lon="-2.254068" lat="53.126078"><ele>97.322227</ele><time>2022-03-04T09:28:44Z</time><extensions><speed>1.343345</speed><course>231.564545</course><hAcc>1.535424</hAcc><vAcc>0.827597</vAcc></extensions></trkpt>
      <trkpt lon="-2.254086" lat="53.126071"><ele>97.280777</ele><time>2022-03-04T09:28:45Z</time><extensions><speed>1.547751</speed><course>238.500778</course><hAcc>1.540942</hAcc><vAcc>0.827687</vAcc></extensions></trkpt>
      <trkpt lon="-2.254106" lat="53.126064"><ele>97.253548</ele><time>2022-03-04T09:28:46Z</time><extensions><speed>1.574461</speed><course>242.745270</course><hAcc>1.526822</hAcc><vAcc>0.827793</vAcc></extensions></trkpt>
      <trkpt lon="-2.254126" lat="53.126057"><ele>97.226791</ele><time>2022-03-04T09:28:47Z</time><extensions><speed>1.565113</speed><course>242.917358</course><hAcc>1.522779</hAcc><vAcc>0.827905</vAcc></extensions></trkpt>
      <trkpt lon="-2.254146" lat="53.126051"><ele>97.173981</ele><time>2022-03-04T09:28:48Z</time><extensions><speed>1.514284</speed><course>243.316895</course><hAcc>1.527028</hAcc><vAcc>0.828027</vAcc></extensions></trkpt>
      <trkpt lon="-2.254165" lat="53.126045"><ele>97.143517</ele><time>2022-03-04T09:28:49Z</time><extensions><speed>1.382785</speed><course>240.118088</course><hAcc>1.525513</hAcc><vAcc>0.828132</vAcc></extensions></trkpt>
      <trkpt lon="-2.254180" lat="53.126039"><ele>97.117180</ele><time>2022-03-04T09:28:50Z</time><extensions><speed>1.053402</speed><course>231.832825</course><hAcc>1.512867</hAcc><vAcc>0.828227</vAcc></extensions></trkpt>
      <trkpt lon="-2.254189" lat="53.126033"><ele>97.088409</ele><time>2022-03-04T09:28:51Z</time><extensions><speed>0.673335</speed><course>214.998199</course><hAcc>1.519152</hAcc><vAcc>0.828342</vAcc></extensions></trkpt>
      <trkpt lon="-2.254193" lat="53.126028"><ele>97.067375</ele><time>2022-03-04T09:28:52Z</time><extensions><speed>0.597496</speed><course>194.714859</course><hAcc>1.548951</hAcc><vAcc>0.828469</vAcc></extensions></trkpt>
      <trkpt lon="-2.254195" lat="53.126022"><ele>97.054108</ele><time>2022-03-04T09:28:53Z</time><extensions><speed>0.745597</speed><course>186.475830</course><hAcc>1.585027</hAcc><vAcc>0.828605</vAcc></extensions></trkpt>
      <trkpt lon="-2.254195" lat="53.126015"><ele>97.044250</ele><time>2022-03-04T09:28:54Z</time><extensions><speed>0.926406</speed><course>177.048523</course><hAcc>1.568281</hAcc><vAcc>0.828752</vAcc></extensions></trkpt>
      <trkpt lon="-2.254193" lat="53.126006"><ele>97.030052</ele><time>2022-03-04T09:28:55Z</time><extensions><speed>1.099506</speed><course>172.808975</course><hAcc>1.550579</hAcc><vAcc>0.828900</vAcc></extensions></trkpt>
      <trkpt lon="-2.254191" lat="53.125996"><ele>97.018692</ele><time>2022-03-04T09:28:56Z</time><extensions><speed>1.228876</speed><course>172.342743</course><hAcc>1.551755</hAcc><vAcc>0.829040</vAcc></extensions></trkpt>
      <trkpt lon="-2.254189" lat="53.125984"><ele>97.017761</ele><time>2022-03-04T09:28:57Z</time><extensions><speed>1.302691</speed><course>174.328766</course><hAcc>1.564143</hAcc><vAcc>0.829179</vAcc></extensions></trkpt>
      <trkpt lon="-2.254187" lat="53.125973"><ele>97.022881</ele><time>2022-03-04T09:28:58Z</time><extensions><speed>1.254133</speed><course>176.374329</course><hAcc>1.545097</hAcc><vAcc>0.829329</vAcc></extensions></trkpt>
      <trkpt lon="-2.254185" lat="53.125962"><ele>97.028099</ele><time>2022-03-04T09:28:59Z</time><extensions><speed>1.315499</speed><course>173.736710</course><hAcc>1.471694</hAcc><vAcc>0.829474</vAcc></extensions></trkpt>
      <trkpt lon="-2.254183" lat="53.125950"><ele>97.034843</ele><time>2022-03-04T09:29:00Z</time><extensions><speed>1.404630</speed><course>174.541092</course><hAcc>1.434941</hAcc><vAcc>0.829621</vAcc></extensions></trkpt>
      <trkpt lon="-2.254181" lat="53.125937"><ele>97.043289</ele><time>2022-03-04T09:29:01Z</time><extensions><speed>1.590043</speed><course>177.545074</course><hAcc>1.452340</hAcc><vAcc>0.829782</vAcc></extensions></trkpt>
      <trkpt lon="-2.254181" lat="53.125922"><ele>97.057953</ele><time>2022-03-04T09:29:02Z</time><extensions><speed>1.677033</speed><course>180.321060</course><hAcc>1.447110</hAcc><vAcc>0.829924</vAcc></extensions></trkpt>
      <trkpt lon="-2.254180" lat="53.125908"><ele>97.079742</ele><time>2022-03-04T09:29:03Z</time><extensions><speed>1.667605</speed><course>177.783463</course><hAcc>1.414191</hAcc><vAcc>0.830067</vAcc></extensions></trkpt>
      <trkpt lon="-2.254180" lat="53.125893"><ele>97.097702</ele><time>2022-03-04T09:29:04Z</time><extensions><speed>1.587231</speed><course>181.048492</course><hAcc>1.381539</hAcc><vAcc>0.830185</vAcc></extensions></trkpt>
      <trkpt lon="-2.254180" lat="53.125879"><ele>97.114281</ele><time>2022-03-04T09:29:05Z</time><extensions><speed>1.622347</speed><course>182.270538</course><hAcc>1.378985</hAcc><vAcc>0.830293</vAcc></extensions></trkpt>
      <trkpt lon="-2.254181" lat="53.125865"><ele>97.131157</ele><time>2022-03-04T09:29:06Z</time><extensions><speed>1.656330</speed><course>182.638702</course><hAcc>1.381307</hAcc><vAcc>0.830387</vAcc></extensions></trkpt>
      <trkpt lon="-2.254183" lat="53.125850"><ele>97.163742</ele><time>2022-03-04T09:29:07Z</time><extensions><speed>1.609042</speed><course>183.746292</course><hAcc>1.376362</hAcc><vAcc>0.830456</vAcc></extensions></trkpt>
      <trkpt lon="-2.254184" lat="53.125836"><ele>97.177071</ele><time>2022-03-04T09:29:08Z</time><extensions><speed>1.610074</speed><course>181.963989</course><hAcc>1.375174</hAcc><vAcc>0.830520</vAcc></extensions></trkpt>
      <trkpt lon="-2.254185" lat="53.125822"><ele>97.196411</ele><time>2022-03-04T09:29:09Z</time><extensions><speed>1.535313</speed><course>180.382202</course><hAcc>1.367944</hAcc><vAcc>0.830582</vAcc></extensions></trkpt>
      <trkpt lon="-2.254185" lat="53.125809"><ele>97.217834</ele><time>2022-03-04T09:29:10Z</time><extensions><speed>1.533624</speed><course>182.426392</course><hAcc>1.377735</hAcc><vAcc>0.830633</vAcc></extensions></trkpt>
      <trkpt lon="-2.254186" lat="53.125796"><ele>97.235252</ele><time>2022-03-04T09:29:11Z</time><extensions><speed>1.470734</speed><course>181.688950</course><hAcc>1.371968</hAcc><vAcc>0.830682</vAcc></extensions></trkpt>
      <trkpt lon="-2.254186" lat="53.125783"><ele>97.250397</ele><time>2022-03-04T09:29:12Z</time><extensions><speed>1.489919</speed><course>180.951645</course><hAcc>1.385393</hAcc><vAcc>0.830723</vAcc></extensions></trkpt>
      <trkpt lon="-2.254187" lat="53.125770"><ele>97.271095</ele><time>2022-03-04T09:29:13Z</time><extensions><speed>1.504051</speed><course>183.125473</course><hAcc>1.391599</hAcc><vAcc>0.830760</vAcc></extensions></trkpt>
      <trkpt lon="-2.254188" lat="53.125757"><ele>97.286430</ele><time>2022-03-04T09:29:14Z</time><extensions><speed>1.450546</speed><course>183.502045</course><hAcc>1.381062</hAcc><vAcc>0.830789</vAcc></extensions></trkpt>
      <trkpt lon="-2.254190" lat="53.125744"><ele>97.298668</ele><time>2022-03-04T09:29:15Z</time><extensions><speed>1.553433</speed><course>182.240448</course><hAcc>1.395025</hAcc><vAcc>0.830811</vAcc></extensions></trkpt>
      <trkpt lon="-2.254191" lat="53.125730"><ele>97.309692</ele><time>2022-03-04T09:29:16Z</time><extensions><speed>1.518928</speed><course>182.916183</course><hAcc>1.390380</hAcc><vAcc>0.830833</vAcc></extensions></trkpt>
      <trkpt lon="-2.254192" lat="53.125717"><ele>97.310677</ele><time>2022-03-04T09:29:17Z</time><extensions><speed>1.451739</speed><course>182.717422</course><hAcc>1.382034</hAcc><vAcc>0.830855</vAcc></extensions></trkpt>
      <trkpt lon="-2.254193" lat="53.125704"><ele>97.320961</ele><time>2022-03-04T09:29:18Z</time><extensions><speed>1.480425</speed><course>184.988251</course><hAcc>1.380837</hAcc><vAcc>0.830870</vAcc></extensions></trkpt>
      <trkpt lon="-2.254195" lat="53.125691"><ele>97.315826</ele><time>2022-03-04T09:29:19Z</time><extensions><speed>1.495898</speed><course>185.015961</course><hAcc>1.383768</hAcc><vAcc>0.830873</vAcc></extensions></trkpt>
      <trkpt lon="-2.254197" lat="53.125678"><ele>97.310677</ele><time>2022-03-04T09:29:20Z</time><extensions><speed>1.523139</speed><course>182.729889</course><hAcc>1.389908</hAcc><vAcc>0.830869</vAcc></extensions></trkpt>
      <trkpt lon="-2.254198" lat="53.125664"><ele>97.303085</ele><time>2022-03-04T09:29:21Z</time><extensions><speed>1.542010</speed><course>180.999451</course><hAcc>1.390182</hAcc><vAcc>0.830873</vAcc></extensions></trkpt>
      <trkpt lon="-2.254198" lat="53.125651"><ele>97.318520</ele><time>2022-03-04T09:29:22Z</time><extensions><speed>1.499512</speed><course>180.541168</course><hAcc>1.386543</hAcc><vAcc>0.830880</vAcc></extensions></trkpt>
      <trkpt lon="-2.254198" lat="53.125638"><ele>97.318222</ele><time>2022-03-04T09:29:23Z</time><extensions><speed>1.499885</speed><course>180.857208</course><hAcc>1.388368</hAcc><vAcc>0.830874</vAcc></extensions></trkpt>
      <trkpt lon="-2.254198" lat="53.125625"><ele>97.307671</ele><time>2022-03-04T09:29:24Z</time><extensions><speed>1.474822</speed><course>180.423981</course><hAcc>1.393851</hAcc><vAcc>0.830865</vAcc></extensions></trkpt>
      <trkpt lon="-2.254199" lat="53.125611"><ele>97.290222</ele><time>2022-03-04T09:29:25Z</time><extensions><speed>1.563342</speed><course>183.889847</course><hAcc>1.412580</hAcc><vAcc>0.830852</vAcc></extensions></trkpt>
      <trkpt lon="-2.254201" lat="53.125598"><ele>97.274544</ele><time>2022-03-04T09:29:26Z</time><extensions><speed>1.479879</speed><course>183.618713</course><hAcc>1.400222</hAcc><vAcc>0.830842</vAcc></extensions></trkpt>
      <trkpt lon="-2.254202" lat="53.125585"><ele>97.258553</ele><time>2022-03-04T09:29:27Z</time><extensions><speed>1.464555</speed><course>183.793793</course><hAcc>1.399284</hAcc><vAcc>0.830840</vAcc></extensions></trkpt>
      <trkpt lon="-2.254204" lat="53.125572"><ele>97.246506</ele><time>2022-03-04T09:29:28Z</time><extensions><speed>1.459094</speed><course>184.397690</course><hAcc>1.405418</hAcc><vAcc>0.830859</vAcc></extensions></trkpt>
      <trkpt lon="-2.254205" lat="53.125559"><ele>97.243889</ele><time>2022-03-04T09:29:29Z</time><extensions><speed>1.483504</speed><course>184.164459</course><hAcc>1.409393</hAcc><vAcc>0.830877</vAcc></extensions></trkpt>
      <trkpt lon="-2.254207" lat="53.125546"><ele>97.259430</ele><time>2022-03-04T09:29:30Z</time><extensions><speed>1.537480</speed><course>181.782150</course><hAcc>1.415370</hAcc><vAcc>0.830881</vAcc></extensions></trkpt>
      <trkpt lon="-2.254207" lat="53.125532"><ele>97.279922</ele><time>2022-03-04T09:29:31Z</time><extensions><speed>1.585374</speed><course>178.310532</course><hAcc>1.419271</hAcc><vAcc>0.830906</vAcc></extensions></trkpt>
      <trkpt lon="-2.254206" lat="53.125518"><ele>97.295418</ele><time>2022-03-04T09:29:32Z</time><extensions><speed>1.515643</speed><course>177.875412</course><hAcc>1.412285</hAcc><vAcc>0.830913</vAcc></extensions></trkpt>
      <trkpt lon="-2.254206" lat="53.125505"><ele>97.313744</ele><time>2022-03-04T09:29:33Z</time><extensions><speed>1.520433</speed><course>180.591217</course><hAcc>1.423710</hAcc><vAcc>0.830928</vAcc></extensions></trkpt>
      <trkpt lon="-2.254206" lat="53.125492"><ele>97.335548</ele><time>2022-03-04T09:29:34Z</time><extensions><speed>1.507435</speed><course>182.660233</course><hAcc>1.423713</hAcc><vAcc>0.830946</vAcc></extensions></trkpt>
      <trkpt lon="-2.254207" lat="53.125478"><ele>97.343811</ele><time>2022-03-04T09:29:35Z</time><extensions><speed>1.504762</speed><course>182.888000</course><hAcc>1.428641</hAcc><vAcc>0.830947</vAcc></extensions></trkpt>
      <trkpt lon="-2.254208" lat="53.125465"><ele>97.351746</ele><time>2022-03-04T09:29:36Z</time><extensions><speed>1.459427</speed><course>182.481079</course><hAcc>1.421749</hAcc><vAcc>0.830956</vAcc></extensions></trkpt>
      <trkpt lon="-2.254209" lat="53.125452"><ele>97.366882</ele><time>2022-03-04T09:29:37Z</time><extensions><speed>1.454969</speed><course>182.969040</course><hAcc>1.420814</hAcc><vAcc>0.830951</vAcc></extensions></trkpt>
      <trkpt lon="-2.254210" lat="53.125439"><ele>97.384590</ele><time>2022-03-04T09:29:38Z</time><extensions><speed>1.576380</speed><course>181.692520</course><hAcc>1.446684</hAcc><vAcc>0.830941</vAcc></extensions></trkpt>
      <trkpt lon="-2.254211" lat="53.125425"><ele>97.404076</ele><time>2022-03-04T09:29:39Z</time><extensions><speed>1.552003</speed><course>180.327759</course><hAcc>1.443919</hAcc><vAcc>0.830935</vAcc></extensions></trkpt>
      <trkpt lon="-2.254211" lat="53.125412"><ele>97.436119</ele><time>2022-03-04T09:29:40Z</time><extensions><speed>1.523670</speed><course>179.328156</course><hAcc>1.439877</hAcc><vAcc>0.830922</vAcc></extensions></trkpt>
      <trkpt lon="-2.254211" lat="53.125398"><ele>97.454147</ele><time>2022-03-04T09:29:41Z</time><extensions><speed>1.445739</speed><course>180.741837</course><hAcc>1.418721</hAcc><vAcc>0.830916</vAcc></extensions></trkpt>
      <trkpt lon="-2.254211" lat="53.125385"><ele>97.456802</ele><time>2022-03-04T09:29:42Z</time><extensions><speed>1.501639</speed><course>182.562943</course><hAcc>1.430509</hAcc><vAcc>0.830907</vAcc></extensions></trkpt>
      <trkpt lon="-2.254212" lat="53.125372"><ele>97.466293</ele><time>2022-03-04T09:29:43Z</time><extensions><speed>1.534385</speed><course>182.814850</course><hAcc>1.435401</hAcc><vAcc>0.830904</vAcc></extensions></trkpt>
      <trkpt lon="-2.254213" lat="53.125359"><ele>97.486794</ele><time>2022-03-04T09:29:44Z</time><extensions><speed>1.528676</speed><course>180.868317</course><hAcc>1.434826</hAcc><vAcc>0.830898</vAcc></extensions></trkpt>
      <trkpt lon="-2.254213" lat="53.125345"><ele>97.501793</ele><time>2022-03-04T09:29:45Z</time><extensions><speed>1.577918</speed><course>178.656891</course><hAcc>1.447051</hAcc><vAcc>0.830886</vAcc></extensions></trkpt>
      <trkpt lon="-2.254212" lat="53.125332"><ele>97.500732</ele><time>2022-03-04T09:29:46Z</time><extensions><speed>1.491265</speed><course>176.750061</course><hAcc>1.428897</hAcc><vAcc>0.830848</vAcc></extensions></trkpt>
      <trkpt lon="-2.254211" lat="53.125319"><ele>97.498291</ele><time>2022-03-04T09:29:47Z</time><extensions><speed>1.415215</speed><course>175.771805</course><hAcc>1.425896</hAcc><vAcc>0.830792</vAcc></extensions></trkpt>
      <trkpt lon="-2.254210" lat="53.125307"><ele>97.481033</ele><time>2022-03-04T09:29:48Z</time><extensions><speed>1.386199</speed><course>176.150208</course><hAcc>1.432639</hAcc><vAcc>0.830725</vAcc></extensions></trkpt>
      <trkpt lon="-2.254209" lat="53.125295"><ele>97.458618</ele><time>2022-03-04T09:29:49Z</time><extensions><speed>1.450322</speed><course>178.056992</course><hAcc>1.441817</hAcc><vAcc>0.830638</vAcc></extensions></trkpt>
      <trkpt lon="-2.254208" lat="53.125282"><ele>97.439034</ele><time>2022-03-04T09:29:50Z</time><extensions><speed>1.447282</speed><course>177.374237</course><hAcc>1.447150</hAcc><vAcc>0.830530</vAcc></extensions></trkpt>
      <trkpt lon="-2.254207" lat="53.125269"><ele>97.417503</ele><time>2022-03-04T09:29:51Z</time><extensions><speed>1.495619</speed><course>176.909393</course><hAcc>1.459493</hAcc><vAcc>0.830411</vAcc></extensions></trkpt>
      <trkpt lon="-2.254205" lat="53.125255"><ele>97.403580</ele><time>2022-03-04T09:29:52Z</time><extensions><speed>1.446250</speed><course>175.371002</course><hAcc>1.468871</hAcc><vAcc>0.830264</vAcc></extensions></trkpt>
      <trkpt lon="-2.254204" lat="53.125243"><ele>97.397629</ele><time>2022-03-04T09:29:53Z</time><extensions><speed>1.427047</speed><course>174.955505</course><hAcc>1.490518</hAcc><vAcc>0.830086</vAcc></extensions></trkpt>
      <trkpt lon="-2.254202" lat="53.125231"><ele>97.396263</ele><time>2022-03-04T09:29:54Z</time><extensions><speed>1.142127</speed><course>178.276871</course><hAcc>1.506378</hAcc><vAcc>0.829897</vAcc></extensions></trkpt>
      <trkpt lon="-2.254203" lat="53.125222"><ele>97.374229</ele><time>2022-03-04T09:29:55Z</time><extensions><speed>0.853354</speed><course>183.397934</course><hAcc>1.543547</hAcc><vAcc>0.829698</vAcc></extensions></trkpt>
      <trkpt lon="-2.254204" lat="53.125217"><ele>97.356560</ele><time>2022-03-04T09:29:56Z</time><extensions><speed>0.199022</speed><course>207.555847</course><hAcc>1.543091</hAcc><vAcc>0.829491</vAcc></extensions></trkpt>
      <trkpt lon="-2.254205" lat="53.125216"><ele>97.342819</ele><time>2022-03-04T09:29:57Z</time><extensions><speed>0.210897</speed><course>200.725922</course><hAcc>1.564975</hAcc><vAcc>0.829293</vAcc></extensions></trkpt>
      <trkpt lon="-2.254205" lat="53.125212"><ele>97.339584</ele><time>2022-03-04T09:29:58Z</time><extensions><speed>0.651556</speed><course>180.279327</course><hAcc>1.611330</hAcc><vAcc>0.829128</vAcc></extensions></trkpt>
      <trkpt lon="-2.254205" lat="53.125204"><ele>97.353264</ele><time>2022-03-04T09:29:59Z</time><extensions><speed>1.056944</speed><course>177.757172</course><hAcc>1.647651</hAcc><vAcc>0.829005</vAcc></extensions></trkpt>
      <trkpt lon="-2.254204" lat="53.125193"><ele>97.370186</ele><time>2022-03-04T09:30:00Z</time><extensions><speed>1.316349</speed><course>177.199356</course><hAcc>1.659761</hAcc><vAcc>0.828909</vAcc></extensions></trkpt>
      <trkpt lon="-2.254203" lat="53.125181"><ele>97.365799</ele><time>2022-03-04T09:30:01Z</time><extensions><speed>1.437934</speed><course>177.469757</course><hAcc>1.662418</hAcc><vAcc>0.828865</vAcc></extensions></trkpt>
      <trkpt lon="-2.254202" lat="53.125168"><ele>97.371498</ele><time>2022-03-04T09:30:02Z</time><extensions><speed>1.490641</speed><course>177.299088</course><hAcc>1.658674</hAcc><vAcc>0.828862</vAcc></extensions></trkpt>
      <trkpt lon="-2.254201" lat="53.125154"><ele>97.386719</ele><time>2022-03-04T09:30:03Z</time><extensions><speed>1.546092</speed><course>176.511673</course><hAcc>1.646093</hAcc><vAcc>0.828896</vAcc></extensions></trkpt>
      <trkpt lon="-2.254199" lat="53.125141"><ele>97.410561</ele><time>2022-03-04T09:30:04Z</time><extensions><speed>1.556134</speed><course>175.263702</course><hAcc>1.629596</hAcc><vAcc>0.828965</vAcc></extensions></trkpt>
      <trkpt lon="-2.254197" lat="53.125127"><ele>97.435860</ele><time>2022-03-04T09:30:05Z</time><extensions><speed>1.549940</speed><course>174.563828</course><hAcc>1.604048</hAcc><vAcc>0.829086</vAcc></extensions></trkpt>
      <trkpt lon="-2.254195" lat="53.125113"><ele>97.467163</ele><time>2022-03-04T09:30:06Z</time><extensions><speed>1.535643</speed><course>174.515900</course><hAcc>1.562556</hAcc><vAcc>0.829217</vAcc></extensions></trkpt>
      <trkpt lon="-2.254193" lat="53.125100"><ele>97.497902</ele><time>2022-03-04T09:30:07Z</time><extensions><speed>1.556638</speed><course>174.879410</course><hAcc>1.534760</hAcc><vAcc>0.829370</vAcc></extensions></trkpt>
      <trkpt lon="-2.254191" lat="53.125085"><ele>97.534401</ele><time>2022-03-04T09:30:08Z</time><extensions><speed>1.687906</speed><course>175.238083</course><hAcc>1.539726</hAcc><vAcc>0.829531</vAcc></extensions></trkpt>
      <trkpt lon="-2.254188" lat="53.125070"><ele>97.577011</ele><time>2022-03-04T09:30:09Z</time><extensions><speed>1.708604</speed><course>174.019165</course><hAcc>1.509311</hAcc><vAcc>0.829690</vAcc></extensions></trkpt>
      <trkpt lon="-2.254185" lat="53.125055"><ele>97.629036</ele><time>2022-03-04T09:30:10Z</time><extensions><speed>1.675476</speed><course>172.645828</course><hAcc>1.481367</hAcc><vAcc>0.829847</vAcc></extensions></trkpt>
      <trkpt lon="-2.254183" lat="53.125041"><ele>97.663322</ele><time>2022-03-04T09:30:11Z</time><extensions><speed>1.650508</speed><course>173.477524</course><hAcc>1.460865</hAcc><vAcc>0.829979</vAcc></extensions></trkpt>
      <trkpt lon="-2.254180" lat="53.125026"><ele>97.711075</ele><time>2022-03-04T09:30:12Z</time><extensions><speed>1.641647</speed><course>175.562988</course><hAcc>1.447406</hAcc><vAcc>0.830097</vAcc></extensions></trkpt>
      <trkpt lon="-2.254178" lat="53.125012"><ele>97.753166</ele><time>2022-03-04T09:30:13Z</time><extensions><speed>1.620668</speed><course>174.537201</course><hAcc>1.439037</hAcc><vAcc>0.830181</vAcc></extensions></trkpt>
      <trkpt lon="-2.254176" lat="53.124998"><ele>97.802330</ele><time>2022-03-04T09:30:14Z</time><extensions><speed>1.622845</speed><course>173.656281</course><hAcc>1.440314</hAcc><vAcc>0.830228</vAcc></extensions></trkpt>
      <trkpt lon="-2.254173" lat="53.124984"><ele>97.850014</ele><time>2022-03-04T09:30:15Z</time><extensions><speed>1.573004</speed><course>173.026489</course><hAcc>1.426372</hAcc><vAcc>0.830232</vAcc></extensions></trkpt>
      <trkpt lon="-2.254170" lat="53.124970"><ele>97.892357</ele><time>2022-03-04T09:30:16Z</time><extensions><speed>1.595690</speed><course>171.262283</course><hAcc>1.432158</hAcc><vAcc>0.830208</vAcc></extensions></trkpt>
      <trkpt lon="-2.254167" lat="53.124956"><ele>97.925598</ele><time>2022-03-04T09:30:17Z</time><extensions><speed>1.578027</speed><course>172.734512</course><hAcc>1.439216</hAcc><vAcc>0.830149</vAcc></extensions></trkpt>
      <trkpt lon="-2.254164" lat="53.124942"><ele>97.947899</ele><time>2022-03-04T09:30:18Z</time><extensions><speed>1.612150</speed><course>173.524811</course><hAcc>1.456458</hAcc><vAcc>0.830066</vAcc></extensions></trkpt>
      <trkpt lon="-2.254161" lat="53.124928"><ele>97.968475</ele><time>2022-03-04T09:30:19Z</time><extensions><speed>1.569178</speed><course>172.446594</course><hAcc>1.464704</hAcc><vAcc>0.829990</vAcc></extensions></trkpt>
      <trkpt lon="-2.254158" lat="53.124914"><ele>97.993073</ele><time>2022-03-04T09:30:20Z</time><extensions><speed>1.507985</speed><course>173.005219</course><hAcc>1.474133</hAcc><vAcc>0.829920</vAcc></extensions></trkpt>
      <trkpt lon="-2.254156" lat="53.124901"><ele>98.004318</ele><time>2022-03-04T09:30:21Z</time><extensions><speed>1.434989</speed><course>175.577545</course><hAcc>1.478243</hAcc><vAcc>0.829840</vAcc></extensions></trkpt>
      <trkpt lon="-2.254155" lat="53.124888"><ele>98.006653</ele><time>2022-03-04T09:30:22Z</time><extensions><speed>1.426891</speed><course>176.148560</course><hAcc>1.489290</hAcc><vAcc>0.829774</vAcc></extensions></trkpt>
      <trkpt lon="-2.254154" lat="53.124876"><ele>98.014259</ele><time>2022-03-04T09:30:23Z</time><extensions><speed>1.450285</speed><course>176.598907</course><hAcc>1.509905</hAcc><vAcc>0.829720</vAcc></extensions></trkpt>
      <trkpt lon="-2.254152" lat="53.124862"><ele>98.015007</ele><time>2022-03-04T09:30:24Z</time><extensions><speed>1.483946</speed><course>177.090271</course><hAcc>1.522013</hAcc><vAcc>0.829678</vAcc></extensions></trkpt>
      <trkpt lon="-2.254150" lat="53.124849"><ele>97.981735</ele><time>2022-03-04T09:30:25Z</time><extensions><speed>1.511510</speed><course>172.104904</course><hAcc>1.531520</hAcc><vAcc>0.829650</vAcc></extensions></trkpt>
      <trkpt lon="-2.254147" lat="53.124836"><ele>97.967705</ele><time>2022-03-04T09:30:26Z</time><extensions><speed>1.584106</speed><course>169.947006</course><hAcc>1.539411</hAcc><vAcc>0.829638</vAcc></extensions></trkpt>
      <trkpt lon="-2.254143" lat="53.124822"><ele>97.959999</ele><time>2022-03-04T09:30:27Z</time><extensions><speed>1.452493</speed><course>171.092941</course><hAcc>1.518925</hAcc><vAcc>0.829647</vAcc></extensions></trkpt>
      <trkpt lon="-2.254140" lat="53.124810"><ele>97.946693</ele><time>2022-03-04T09:30:28Z</time><extensions><speed>1.420491</speed><course>174.665527</course><hAcc>1.511823</hAcc><vAcc>0.829667</vAcc></extensions></trkpt>
      <trkpt lon="-2.254138" lat="53.124797"><ele>97.930222</ele><time>2022-03-04T09:30:29Z</time><extensions><speed>1.489719</speed><course>174.188293</course><hAcc>1.510425</hAcc><vAcc>0.829685</vAcc></extensions></trkpt>
      <trkpt lon="-2.254135" lat="53.124783"><ele>97.917313</ele><time>2022-03-04T09:30:30Z</time><extensions><speed>1.558874</speed><course>172.750473</course><hAcc>1.525087</hAcc><vAcc>0.829737</vAcc></extensions></trkpt>
      <trkpt lon="-2.254132" lat="53.124769"><ele>97.908043</ele><time>2022-03-04T09:30:31Z</time><extensions><speed>1.596566</speed><course>172.340530</course><hAcc>1.518481</hAcc><vAcc>0.829778</vAcc></extensions></trkpt>
      <trkpt lon="-2.254130" lat="53.124755"><ele>97.913254</ele><time>2022-03-04T09:30:32Z</time><extensions><speed>1.557924</speed><course>176.070511</course><hAcc>1.514634</hAcc><vAcc>0.829815</vAcc></extensions></trkpt>
      <trkpt lon="-2.254128" lat="53.124741"><ele>97.924324</ele><time>2022-03-04T09:30:33Z</time><extensions><speed>1.576036</speed><course>175.179794</course><hAcc>1.514468</hAcc><vAcc>0.829839</vAcc></extensions></trkpt>
      <trkpt lon="-2.254125" lat="53.124727"><ele>97.948456</ele><time>2022-03-04T09:30:34Z</time><extensions><speed>1.606304</speed><course>171.561539</course><hAcc>1.505556</hAcc><vAcc>0.829854</vAcc></extensions></trkpt>
      <trkpt lon="-2.254121" lat="53.124713"><ele>97.960190</ele><time>2022-03-04T09:30:35Z</time><extensions><speed>1.606914</speed><course>169.301483</course><hAcc>1.507778</hAcc><vAcc>0.829867</vAcc></extensions></trkpt>
      <trkpt lon="-2.254116" lat="53.124698"><ele>97.982437</ele><time>2022-03-04T09:30:36Z</time><extensions><speed>1.694754</speed><course>167.740860</course><hAcc>1.527800</hAcc><vAcc>0.829867</vAcc></extensions></trkpt>
      <trkpt lon="-2.254111" lat="53.124683"><ele>98.026138</ele><time>2022-03-04T09:30:37Z</time><extensions><speed>1.728441</speed><course>166.712845</course><hAcc>1.533471</hAcc><vAcc>0.829859</vAcc></extensions></trkpt>
      <trkpt lon="-2.254105" lat="53.124669"><ele>98.082253</ele><time>2022-03-04T09:30:38Z</time><extensions><speed>1.688042</speed><course>166.850067</course><hAcc>1.525458</hAcc><vAcc>0.829841</vAcc></extensions></trkpt>
      <trkpt lon="-2.254099" lat="53.124654"><ele>98.114571</ele><time>2022-03-04T09:30:39Z</time><extensions><speed>1.702119</speed><course>166.252106</course><hAcc>1.529224</hAcc><vAcc>0.829820</vAcc></extensions></trkpt>
      <trkpt lon="-2.254093" lat="53.124639"><ele>98.157593</ele><time>2022-03-04T09:30:40Z</time><extensions><speed>1.700301</speed><course>165.256531</course><hAcc>1.527045</hAcc><vAcc>0.829795</vAcc></extensions></trkpt>
      <trkpt lon="-2.254086" lat="53.124625"><ele>98.208153</ele><time>2022-03-04T09:30:41Z</time><extensions><speed>1.638208</speed><course>165.930176</course><hAcc>1.532460</hAcc><vAcc>0.829783</vAcc></extensions></trkpt>
      <trkpt lon="-2.254080" lat="53.124611"><ele>98.272980</ele><time>2022-03-04T09:30:42Z</time><extensions><speed>1.579653</speed><course>164.094574</course><hAcc>1.521106</hAcc><vAcc>0.829747</vAcc></extensions></trkpt>
      <trkpt lon="-2.254074" lat="53.124597"><ele>98.338974</ele><time>2022-03-04T09:30:43Z</time><extensions><speed>1.579786</speed><course>164.970337</course><hAcc>1.521088</hAcc><vAcc>0.829727</vAcc></extensions></trkpt>
      <trkpt lon="-2.254068" lat="53.124584"><ele>98.399948</ele><time>2022-03-04T09:30:44Z</time><extensions><speed>1.527011</speed><course>167.493713</course><hAcc>1.528059</hAcc><vAcc>0.829732</vAcc></extensions></trkpt>
      <trkpt lon="-2.254063" lat="53.124570"><ele>98.465752</ele><time>2022-03-04T09:30:45Z</time><extensions><speed>1.626570</speed><course>168.826431</course><hAcc>1.539339</hAcc><vAcc>0.829746</vAcc></extensions></trkpt>
      <trkpt lon="-2.254059" lat="53.124556"><ele>98.526993</ele><time>2022-03-04T09:30:46Z</time><extensions><speed>1.619255</speed><course>167.992310</course><hAcc>1.537088</hAcc><vAcc>0.829793</vAcc></extensions></trkpt>
      <trkpt lon="-2.254053" lat="53.124542"><ele>98.591774</ele><time>2022-03-04T09:30:47Z</time><extensions><speed>1.604973</speed><course>163.339615</course><hAcc>1.516996</hAcc><vAcc>0.829851</vAcc></extensions></trkpt>
      <trkpt lon="-2.254045" lat="53.124528"><ele>98.660088</ele><time>2022-03-04T09:30:48Z</time><extensions><speed>1.596521</speed><course>161.131561</course><hAcc>1.505817</hAcc><vAcc>0.829943</vAcc></extensions></trkpt>
      <trkpt lon="-2.254038" lat="53.124515"><ele>98.717491</ele><time>2022-03-04T09:30:49Z</time><extensions><speed>1.512164</speed><course>162.468552</course><hAcc>1.492581</hAcc><vAcc>0.830059</vAcc></extensions></trkpt>
      <trkpt lon="-2.254032" lat="53.124501"><ele>98.778282</ele><time>2022-03-04T09:30:50Z</time><extensions><speed>1.534795</speed><course>164.039917</course><hAcc>1.466992</hAcc><vAcc>0.830197</vAcc></extensions></trkpt>
      <trkpt lon="-2.254026" lat="53.124488"><ele>98.851166</ele><time>2022-03-04T09:30:51Z</time><extensions><speed>1.581092</speed><course>165.761581</course><hAcc>1.429997</hAcc><vAcc>0.830368</vAcc></extensions></trkpt>
      <trkpt lon="-2.254020" lat="53.124474"><ele>98.923279</ele><time>2022-03-04T09:30:52Z</time><extensions><speed>1.624246</speed><course>166.995911</course><hAcc>1.407381</hAcc><vAcc>0.830549</vAcc></extensions></trkpt>
      <trkpt lon="-2.254015" lat="53.124460"><ele>99.010078</ele><time>2022-03-04T09:30:53Z</time><extensions><speed>1.550164</speed><course>166.402344</course><hAcc>1.407839</hAcc><vAcc>0.830729</vAcc></extensions></trkpt>
      <trkpt lon="-2.254009" lat="53.124447"><ele>99.091362</ele><time>2022-03-04T09:30:54Z</time><extensions><speed>1.537600</speed><course>162.716675</course><hAcc>1.375754</hAcc><vAcc>0.830895</vAcc></extensions></trkpt>
      <trkpt lon="-2.254003" lat="53.124434"><ele>99.162354</ele><time>2022-03-04T09:30:55Z</time><extensions><speed>1.528494</speed><course>163.349609</course><hAcc>1.351408</hAcc><vAcc>0.831003</vAcc></extensions></trkpt>
      <trkpt lon="-2.253997" lat="53.124422"><ele>99.216782</ele><time>2022-03-04T09:30:56Z</time><extensions><speed>1.509318</speed><course>164.703995</course><hAcc>1.334775</hAcc><vAcc>0.831014</vAcc></extensions></trkpt>
      <trkpt lon="-2.253991" lat="53.124409"><ele>99.269043</ele><time>2022-03-04T09:30:57Z</time><extensions><speed>1.516078</speed><course>163.186600</course><hAcc>1.340992</hAcc><vAcc>0.830977</vAcc></extensions></trkpt>
      <trkpt lon="-2.253986" lat="53.124397"><ele>99.314034</ele><time>2022-03-04T09:30:58Z</time><extensions><speed>1.478560</speed><course>167.090118</course><hAcc>1.332206</hAcc><vAcc>0.830844</vAcc></extensions></trkpt>
      <trkpt lon="-2.253982" lat="53.124384"><ele>99.353928</ele><time>2022-03-04T09:30:59Z</time><extensions><speed>1.462029</speed><course>169.714645</course><hAcc>1.343838</hAcc><vAcc>0.830594</vAcc></extensions></trkpt>
      <trkpt lon="-2.253978" lat="53.124371"><ele>99.388397</ele><time>2022-03-04T09:31:00Z</time><extensions><speed>1.442477</speed><course>172.109009</course><hAcc>1.351135</hAcc><vAcc>0.830256</vAcc></extensions></trkpt>
      <trkpt lon="-2.253976" lat="53.124359"><ele>99.416878</ele><time>2022-03-04T09:31:01Z</time><extensions><speed>1.349258</speed><course>174.014648</course><hAcc>1.362100</hAcc><vAcc>0.829831</vAcc></extensions></trkpt>
      <trkpt lon="-2.253974" lat="53.124347"><ele>99.438652</ele><time>2022-03-04T09:31:02Z</time><extensions><speed>1.352334</speed><course>178.062195</course><hAcc>1.416445</hAcc><vAcc>0.829316</vAcc></extensions></trkpt>
      <trkpt lon="-2.253976" lat="53.124336"><ele>99.453323</ele><time>2022-03-04T09:31:03Z</time><extensions><speed>0.999468</speed><course>193.994492</course><hAcc>1.429746</hAcc><vAcc>0.828738</vAcc></extensions></trkpt>
      <trkpt lon="-2.253981" lat="53.124330"><ele>99.452377</ele><time>2022-03-04T09:31:04Z</time><extensions><speed>0.582856</speed><course>225.538193</course><hAcc>1.477162</hAcc><vAcc>0.828121</vAcc></extensions></trkpt>
      <trkpt lon="-2.253986" lat="53.124329"><ele>99.439728</ele><time>2022-03-04T09:31:05Z</time><extensions><speed>0.335217</speed><course>294.781921</course><hAcc>1.513203</hAcc><vAcc>0.827435</vAcc></extensions></trkpt>
      <trkpt lon="-2.253992" lat="53.124331"><ele>99.426430</ele><time>2022-03-04T09:31:06Z</time><extensions><speed>0.574436</speed><course>315.221313</course><hAcc>1.533834</hAcc><vAcc>0.826753</vAcc></extensions></trkpt>
      <trkpt lon="-2.253997" lat="53.124335"><ele>99.401131</ele><time>2022-03-04T09:31:07Z</time><extensions><speed>0.458887</speed><course>321.844147</course><hAcc>1.604967</hAcc><vAcc>0.826076</vAcc></extensions></trkpt>
      <trkpt lon="-2.254001" lat="53.124338"><ele>99.363297</ele><time>2022-03-04T09:31:08Z</time><extensions><speed>0.387198</speed><course>323.004486</course><hAcc>1.652326</hAcc><vAcc>0.825495</vAcc></extensions></trkpt>
      <trkpt lon="-2.254004" lat="53.124340"><ele>99.325775</ele><time>2022-03-04T09:31:09Z</time><extensions><speed>0.319136</speed><course>320.452576</course><hAcc>1.681803</hAcc><vAcc>0.824890</vAcc></extensions></trkpt>
      <trkpt lon="-2.254007" lat="53.124342"><ele>99.276619</ele><time>2022-03-04T09:31:10Z</time><extensions><speed>0.282293</speed><course>314.730774</course><hAcc>1.698324</hAcc><vAcc>0.824440</vAcc></extensions></trkpt>
      <trkpt lon="-2.254011" lat="53.124344"><ele>99.224701</ele><time>2022-03-04T09:31:11Z</time><extensions><speed>0.275782</speed><course>307.308319</course><hAcc>1.708692</hAcc><vAcc>0.824072</vAcc></extensions></trkpt>
      <trkpt lon="-2.254014" lat="53.124346"><ele>99.160988</ele><time>2022-03-04T09:31:12Z</time><extensions><speed>0.303761</speed><course>300.682678</course><hAcc>1.713610</hAcc><vAcc>0.823787</vAcc></extensions></trkpt>
      <trkpt lon="-2.254019" lat="53.124347"><ele>99.082405</ele><time>2022-03-04T09:31:13Z</time><extensions><speed>0.349433</speed><course>296.072876</course><hAcc>1.715716</hAcc><vAcc>0.823564</vAcc></extensions></trkpt>
      <trkpt lon="-2.254024" lat="53.124348"><ele>99.010147</ele><time>2022-03-04T09:31:14Z</time><extensions><speed>0.375134</speed><course>292.993317</course><hAcc>1.717505</hAcc><vAcc>0.823456</vAcc></extensions></trkpt>
      <trkpt lon="-2.254029" lat="53.124350"><ele>98.936310</ele><time>2022-03-04T09:31:15Z</time><extensions><speed>0.378215</speed><course>291.022705</course><hAcc>1.718241</hAcc><vAcc>0.823429</vAcc></extensions></trkpt>
      <trkpt lon="-2.254034" lat="53.124351"><ele>98.860039</ele><time>2022-03-04T09:31:16Z</time><extensions><speed>0.380821</speed><course>290.768188</course><hAcc>1.720513</hAcc><vAcc>0.823482</vAcc></extensions></trkpt>
      <trkpt lon="-2.254040" lat="53.124352"><ele>98.790306</ele><time>2022-03-04T09:31:17Z</time><extensions><speed>0.382257</speed><course>290.683014</course><hAcc>1.726684</hAcc><vAcc>0.823616</vAcc></extensions></trkpt>
      <trkpt lon="-2.254045" lat="53.124353"><ele>98.713951</ele><time>2022-03-04T09:31:18Z</time><extensions><speed>0.400358</speed><course>289.365784</course><hAcc>1.728505</hAcc><vAcc>0.823819</vAcc></extensions></trkpt>
      <trkpt lon="-2.254051" lat="53.124354"><ele>98.650124</ele><time>2022-03-04T09:31:19Z</time><extensions><speed>0.427739</speed><course>287.344147</course><hAcc>1.726962</hAcc><vAcc>0.824087</vAcc></extensions></trkpt>
      <trkpt lon="-2.254057" lat="53.124355"><ele>98.599388</ele><time>2022-03-04T09:31:20Z</time><extensions><speed>0.442767</speed><course>283.511322</course><hAcc>1.731432</hAcc><vAcc>0.824413</vAcc></extensions></trkpt>
      <trkpt lon="-2.254064" lat="53.124356"><ele>98.545364</ele><time>2022-03-04T09:31:21Z</time><extensions><speed>0.489748</speed><course>276.830750</course><hAcc>1.736854</hAcc><vAcc>0.824781</vAcc></extensions></trkpt>
      <trkpt lon="-2.254072" lat="53.124356"><ele>98.504211</ele><time>2022-03-04T09:31:22Z</time><extensions><speed>0.596782</speed><course>268.214294</course><hAcc>1.742418</hAcc><vAcc>0.825185</vAcc></extensions></trkpt>
      <trkpt lon="-2.254083" lat="53.124355"><ele>98.478577</ele><time>2022-03-04T09:31:23Z</time><extensions><speed>0.842330</speed><course>260.730591</course><hAcc>1.739638</hAcc><vAcc>0.825612</vAcc></extensions></trkpt>
      <trkpt lon="-2.254099" lat="53.124353"><ele>98.457779</ele><time>2022-03-04T09:31:24Z</time><extensions><speed>1.312747</speed><course>256.161346</course><hAcc>1.729446</hAcc><vAcc>0.826047</vAcc></extensions></trkpt>
      <trkpt lon="-2.254119" lat="53.124350"><ele>98.451660</ele><time>2022-03-04T09:31:25Z</time><extensions><speed>1.468679</speed><course>251.676895</course><hAcc>1.731858</hAcc><vAcc>0.826480</vAcc></extensions></trkpt>
      <trkpt lon="-2.254139" lat="53.124345"><ele>98.444611</ele><time>2022-03-04T09:31:26Z</time><extensions><speed>1.453643</speed><course>247.380630</course><hAcc>1.731837</hAcc><vAcc>0.826888</vAcc></extensions></trkpt>
      <trkpt lon="-2.254159" lat="53.124340"><ele>98.451996</ele><time>2022-03-04T09:31:27Z</time><extensions><speed>1.436170</speed><course>242.849228</course><hAcc>1.726996</hAcc><vAcc>0.827267</vAcc></extensions></trkpt>
      <trkpt lon="-2.254177" lat="53.124334"><ele>98.459061</ele><time>2022-03-04T09:31:28Z</time><extensions><speed>1.378581</speed><course>237.610626</course><hAcc>1.720876</hAcc><vAcc>0.827602</vAcc></extensions></trkpt>
      <trkpt lon="-2.254194" lat="53.124327"><ele>98.473694</ele><time>2022-03-04T09:31:29Z</time><extensions><speed>1.391027</speed><course>233.755157</course><hAcc>1.715836</hAcc><vAcc>0.827861</vAcc></extensions></trkpt>
      <trkpt lon="-2.254211" lat="53.124319"><ele>98.491661</ele><time>2022-03-04T09:31:30Z</time><extensions><speed>1.387973</speed><course>230.994919</course><hAcc>1.710753</hAcc><vAcc>0.828041</vAcc></extensions></trkpt>
      <trkpt lon="-2.254226" lat="53.124311"><ele>98.512543</ele><time>2022-03-04T09:31:31Z</time><extensions><speed>1.347703</speed><course>230.507416</course><hAcc>1.709705</hAcc><vAcc>0.828157</vAcc></extensions></trkpt>
      <trkpt lon="-2.254242" lat="53.124304"><ele>98.535187</ele><time>2022-03-04T09:31:32Z</time><extensions><speed>1.273868</speed><course>232.575745</course><hAcc>1.706678</hAcc><vAcc>0.828209</vAcc></extensions></trkpt>
      <trkpt lon="-2.254257" lat="53.124298"><ele>98.558456</ele><time>2022-03-04T09:31:33Z</time><extensions><speed>1.165026</speed><course>237.217712</course><hAcc>1.701236</hAcc><vAcc>0.828197</vAcc></extensions></trkpt>
      <trkpt lon="-2.254271" lat="53.124293"><ele>98.581360</ele><time>2022-03-04T09:31:34Z</time><extensions><speed>1.052900</speed><course>241.189163</course><hAcc>1.694557</hAcc><vAcc>0.828147</vAcc></extensions></trkpt>
      <trkpt lon="-2.254284" lat="53.124289"><ele>98.608986</ele><time>2022-03-04T09:31:35Z</time><extensions><speed>0.886375</speed><course>244.753311</course><hAcc>1.685807</hAcc><vAcc>0.828053</vAcc></extensions></trkpt>
      <trkpt lon="-2.254295" lat="53.124286"><ele>98.638412</ele><time>2022-03-04T09:31:36Z</time><extensions><speed>0.694799</speed><course>248.203491</course><hAcc>1.676146</hAcc><vAcc>0.827898</vAcc></extensions></trkpt>
      <trkpt lon="-2.254303" lat="53.124284"><ele>98.667160</ele><time>2022-03-04T09:31:37Z</time><extensions><speed>0.450773</speed><course>253.280426</course><hAcc>1.674932</hAcc><vAcc>0.827694</vAcc></extensions></trkpt>
      <trkpt lon="-2.254307" lat="53.124284"><ele>98.695107</ele><time>2022-03-04T09:31:38Z</time><extensions><speed>0.146185</speed><course>274.451019</course><hAcc>1.680452</hAcc><vAcc>0.827444</vAcc></extensions></trkpt>
      <trkpt lon="-2.254309" lat="53.124284"><ele>98.722260</ele><time>2022-03-04T09:31:39Z</time><extensions><speed>0.091969</speed><course>320.453339</course><hAcc>1.650802</hAcc><vAcc>0.827159</vAcc></extensions></trkpt>
      <trkpt lon="-2.254309" lat="53.124285"><ele>98.748001</ele><time>2022-03-04T09:31:40Z</time><extensions><speed>0.083191</speed><course>341.540222</course><hAcc>1.651262</hAcc><vAcc>0.826848</vAcc></extensions></trkpt>
      <trkpt lon="-2.254310" lat="53.124285"><ele>98.770508</ele><time>2022-03-04T09:31:41Z</time><extensions><speed>0.076920</speed><course>340.019135</course><hAcc>1.666927</hAcc><vAcc>0.826537</vAcc></extensions></trkpt>
      <trkpt lon="-2.254310" lat="53.124286"><ele>98.794693</ele><time>2022-03-04T09:31:42Z</time><extensions><speed>0.083855</speed><course>329.041992</course><hAcc>1.679398</hAcc><vAcc>0.826239</vAcc></extensions></trkpt>
      <trkpt lon="-2.254311" lat="53.124287"><ele>98.811996</ele><time>2022-03-04T09:31:43Z</time><extensions><speed>0.108346</speed><course>318.593536</course><hAcc>1.685814</hAcc><vAcc>0.825986</vAcc></extensions></trkpt>
      <trkpt lon="-2.254313" lat="53.124288"><ele>98.840500</ele><time>2022-03-04T09:31:44Z</time><extensions><speed>0.171099</speed><course>312.462097</course><hAcc>1.669829</hAcc><vAcc>0.825781</vAcc></extensions></trkpt>
      <trkpt lon="-2.254315" lat="53.124289"><ele>98.857178</ele><time>2022-03-04T09:31:45Z</time><extensions><speed>0.190667</speed><course>309.362274</course><hAcc>1.679823</hAcc><vAcc>0.825634</vAcc></extensions></trkpt>
      <trkpt lon="-2.254317" lat="53.124290"><ele>98.876671</ele><time>2022-03-04T09:31:46Z</time><extensions><speed>0.179513</speed><course>305.589478</course><hAcc>1.701128</hAcc><vAcc>0.825545</vAcc></extensions></trkpt>
      <trkpt lon="-2.254319" lat="53.124290"><ele>98.893677</ele><time>2022-03-04T09:31:47Z</time><extensions><speed>0.157775</speed><course>297.711151</course><hAcc>1.723583</hAcc><vAcc>0.825523</vAcc></extensions></trkpt>
      <trkpt lon="-2.254321" lat="53.124291"><ele>98.923813</ele><time>2022-03-04T09:31:48Z</time><extensions><speed>0.152797</speed><course>284.608887</course><hAcc>1.739584</hAcc><vAcc>0.825571</vAcc></extensions></trkpt>
      <trkpt lon="-2.254324" lat="53.124291"><ele>98.945137</ele><time>2022-03-04T09:31:49Z</time><extensions><speed>0.180977</speed><course>268.976837</course><hAcc>1.748550</hAcc><vAcc>0.825684</vAcc></extensions></trkpt>
      <trkpt lon="-2.254327" lat="53.124291"><ele>98.951088</ele><time>2022-03-04T09:31:50Z</time><extensions><speed>0.254153</speed><course>255.352966</course><hAcc>1.749397</hAcc><vAcc>0.825864</vAcc></extensions></trkpt>
      <trkpt lon="-2.254331" lat="53.124290"><ele>98.961380</ele><time>2022-03-04T09:31:51Z</time><extensions><speed>0.406613</speed><course>246.258759</course><hAcc>1.734782</hAcc><vAcc>0.826110</vAcc></extensions></trkpt>
      <trkpt lon="-2.254339" lat="53.124288"><ele>98.956177</ele><time>2022-03-04T09:31:52Z</time><extensions><speed>0.664832</speed><course>241.599930</course><hAcc>1.719098</hAcc><vAcc>0.826419</vAcc></extensions></trkpt>
      <trkpt lon="-2.254348" lat="53.124284"><ele>98.970276</ele><time>2022-03-04T09:31:53Z</time><extensions><speed>0.823485</speed><course>238.184128</course><hAcc>1.736899</hAcc><vAcc>0.826770</vAcc></extensions></trkpt>
      <trkpt lon="-2.254360" lat="53.124280"><ele>98.984894</ele><time>2022-03-04T09:31:54Z</time><extensions><speed>0.967126</speed><course>237.439713</course><hAcc>1.741258</hAcc><vAcc>0.827147</vAcc></extensions></trkpt>
      <trkpt lon="-2.254373" lat="53.124275"><ele>98.993813</ele><time>2022-03-04T09:31:55Z</time><extensions><speed>1.120622</speed><course>239.784653</course><hAcc>1.732281</hAcc><vAcc>0.827530</vAcc></extensions></trkpt>
      <trkpt lon="-2.254389" lat="53.124270"><ele>99.000847</ele><time>2022-03-04T09:31:56Z</time><extensions><speed>1.282775</speed><course>242.878922</course><hAcc>1.719336</hAcc><vAcc>0.827925</vAcc></extensions></trkpt>
      <trkpt lon="-2.254406" lat="53.124265"><ele>99.007645</ele><time>2022-03-04T09:31:57Z</time><extensions><speed>1.373581</speed><course>245.071030</course><hAcc>1.712816</hAcc><vAcc>0.828298</vAcc></extensions></trkpt>
      <trkpt lon="-2.254426" lat="53.124259"><ele>99.009468</ele><time>2022-03-04T09:31:58Z</time><extensions><speed>1.434157</speed><course>246.170578</course><hAcc>1.712409</hAcc><vAcc>0.828628</vAcc></extensions></trkpt>
      <trkpt lon="-2.254445" lat="53.124254"><ele>99.012138</ele><time>2022-03-04T09:31:59Z</time><extensions><speed>1.413197</speed><course>246.435242</course><hAcc>1.710954</hAcc><vAcc>0.828923</vAcc></extensions></trkpt>
      <trkpt lon="-2.254464" lat="53.124249"><ele>99.017227</ele><time>2022-03-04T09:32:00Z</time><extensions><speed>1.379723</speed><course>246.082138</course><hAcc>1.709031</hAcc><vAcc>0.829178</vAcc></extensions></trkpt>
      <trkpt lon="-2.254483" lat="53.124244"><ele>99.031174</ele><time>2022-03-04T09:32:01Z</time><extensions><speed>1.344859</speed><course>244.740417</course><hAcc>1.706422</hAcc><vAcc>0.829394</vAcc></extensions></trkpt>
      <trkpt lon="-2.254501" lat="53.124239"><ele>99.043762</ele><time>2022-03-04T09:32:02Z</time><extensions><speed>1.360928</speed><course>242.427734</course><hAcc>1.708006</hAcc><vAcc>0.829559</vAcc></extensions></trkpt>
      <trkpt lon="-2.254519" lat="53.124233"><ele>99.048225</ele><time>2022-03-04T09:32:03Z</time><extensions><speed>1.373579</speed><course>241.065018</course><hAcc>1.707395</hAcc><vAcc>0.829683</vAcc></extensions></trkpt>
      <trkpt lon="-2.254537" lat="53.124227"><ele>99.059944</ele><time>2022-03-04T09:32:04Z</time><extensions><speed>1.367485</speed><course>243.233994</course><hAcc>1.700619</hAcc><vAcc>0.829778</vAcc></extensions></trkpt>
      <trkpt lon="-2.254556" lat="53.124222"><ele>99.060593</ele><time>2022-03-04T09:32:05Z</time><extensions><speed>1.408762</speed><course>247.978058</course><hAcc>1.691899</hAcc><vAcc>0.829833</vAcc></extensions></trkpt>
      <trkpt lon="-2.254576" lat="53.124217"><ele>99.065041</ele><time>2022-03-04T09:32:06Z</time><extensions><speed>1.442403</speed><course>251.897873</course><hAcc>1.686397</hAcc><vAcc>0.829857</vAcc></extensions></trkpt>
      <trkpt lon="-2.254596" lat="53.124213"><ele>99.068390</ele><time>2022-03-04T09:32:07Z</time><extensions><speed>1.407459</speed><course>252.677567</course><hAcc>1.666152</hAcc><vAcc>0.829854</vAcc></extensions></trkpt>
      <trkpt lon="-2.254616" lat="53.124209"><ele>99.060936</ele><time>2022-03-04T09:32:08Z</time><extensions><speed>1.430692</speed><course>247.362381</course><hAcc>1.636462</hAcc><vAcc>0.829840</vAcc></extensions></trkpt>
      <trkpt lon="-2.254636" lat="53.124203"><ele>99.066589</ele><time>2022-03-04T09:32:09Z</time><extensions><speed>1.513574</speed><course>241.248657</course><hAcc>1.615842</hAcc><vAcc>0.829818</vAcc></extensions></trkpt>
      <trkpt lon="-2.254655" lat="53.124196"><ele>99.063248</ele><time>2022-03-04T09:32:10Z</time><extensions><speed>1.511951</speed><course>238.090714</course><hAcc>1.626214</hAcc><vAcc>0.829796</vAcc></extensions></trkpt>
      <trkpt lon="-2.254673" lat="53.124189"><ele>99.066132</ele><time>2022-03-04T09:32:11Z</time><extensions><speed>1.461322</speed><course>236.929886</course><hAcc>1.638209</hAcc><vAcc>0.829774</vAcc></extensions></trkpt>
      <trkpt lon="-2.254691" lat="53.124182"><ele>99.060417</ele><time>2022-03-04T09:32:12Z</time><extensions><speed>1.413660</speed><course>230.926865</course><hAcc>1.574396</hAcc><vAcc>0.829750</vAcc></extensions></trkpt>
      <trkpt lon="-2.254706" lat="53.124174"><ele>99.092560</ele><time>2022-03-04T09:32:13Z</time><extensions><speed>1.396229</speed><course>227.545303</course><hAcc>1.547842</hAcc><vAcc>0.829725</vAcc></extensions></trkpt>
      <trkpt lon="-2.254721" lat="53.124166"><ele>99.118141</ele><time>2022-03-04T09:32:14Z</time><extensions><speed>1.351438</speed><course>227.999466</course><hAcc>1.564683</hAcc><vAcc>0.829703</vAcc></extensions></trkpt>
      <trkpt lon="-2.254737" lat="53.124159"><ele>99.147102</ele><time>2022-03-04T09:32:15Z</time><extensions><speed>1.347660</speed><course>238.251297</course><hAcc>1.519471</hAcc><vAcc>0.829697</vAcc></extensions></trkpt>
      <trkpt lon="-2.254755" lat="53.124153"><ele>99.166161</ele><time>2022-03-04T09:32:16Z</time><extensions><speed>1.462370</speed><course>248.975510</course><hAcc>1.498538</hAcc><vAcc>0.829687</vAcc></extensions></trkpt>
      <trkpt lon="-2.254775" lat="53.124148"><ele>99.188789</ele><time>2022-03-04T09:32:17Z</time><extensions><speed>1.489901</speed><course>251.665283</course><hAcc>1.485454</hAcc><vAcc>0.829678</vAcc></extensions></trkpt>
      <trkpt lon="-2.254796" lat="53.124143"><ele>99.211967</ele><time>2022-03-04T09:32:18Z</time><extensions><speed>1.540478</speed><course>244.444290</course><hAcc>1.499539</hAcc><vAcc>0.829659</vAcc></extensions></trkpt>
      <trkpt lon="-2.254815" lat="53.124136"><ele>99.233635</ele><time>2022-03-04T09:32:19Z</time><extensions><speed>1.578648</speed><course>231.055466</course><hAcc>1.490837</hAcc><vAcc>0.829635</vAcc></extensions></trkpt>
      <trkpt lon="-2.254832" lat="53.124127"><ele>99.245232</ele><time>2022-03-04T09:32:20Z</time><extensions><speed>1.471457</speed><course>230.421906</course><hAcc>1.466035</hAcc><vAcc>0.829592</vAcc></extensions></trkpt>
      <trkpt lon="-2.254849" lat="53.124120"><ele>99.265282</ele><time>2022-03-04T09:32:21Z</time><extensions><speed>1.364588</speed><course>241.340820</course><hAcc>1.446368</hAcc><vAcc>0.829546</vAcc></extensions></trkpt>
      <trkpt lon="-2.254868" lat="53.124115"><ele>99.280960</ele><time>2022-03-04T09:32:22Z</time><extensions><speed>1.425227</speed><course>254.164261</course><hAcc>1.469889</hAcc><vAcc>0.829476</vAcc></extensions></trkpt>
      <trkpt lon="-2.254889" lat="53.124112"><ele>99.283821</ele><time>2022-03-04T09:32:23Z</time><extensions><speed>1.428170</speed><course>261.346771</course><hAcc>1.488041</hAcc><vAcc>0.829395</vAcc></extensions></trkpt>
      <trkpt lon="-2.254909" lat="53.124111"><ele>99.280823</ele><time>2022-03-04T09:32:24Z</time><extensions><speed>1.350992</speed><course>262.627075</course><hAcc>1.501612</hAcc><vAcc>0.829327</vAcc></extensions></trkpt>
      <trkpt lon="-2.254928" lat="53.124109"><ele>99.273659</ele><time>2022-03-04T09:32:25Z</time><extensions><speed>1.188104</speed><course>261.411285</course><hAcc>1.525046</hAcc><vAcc>0.829246</vAcc></extensions></trkpt>
      <trkpt lon="-2.254942" lat="53.124106"><ele>99.274734</ele><time>2022-03-04T09:32:26Z</time><extensions><speed>0.917464</speed><course>238.363205</course><hAcc>1.523058</hAcc><vAcc>0.829169</vAcc></extensions></trkpt>
      <trkpt lon="-2.254950" lat="53.124101"><ele>99.258972</ele><time>2022-03-04T09:32:27Z</time><extensions><speed>0.737395</speed><course>201.948242</course><hAcc>1.538664</hAcc><vAcc>0.829114</vAcc></extensions></trkpt>
      <trkpt lon="-2.254952" lat="53.124094"><ele>99.239883</ele><time>2022-03-04T09:32:28Z</time><extensions><speed>0.776833</speed><course>179.864349</course><hAcc>1.569023</hAcc><vAcc>0.829060</vAcc></extensions></trkpt>
      <trkpt lon="-2.254952" lat="53.124087"><ele>99.219589</ele><time>2022-03-04T09:32:29Z</time><extensions><speed>0.840302</speed><course>178.872604</course><hAcc>1.597991</hAcc><vAcc>0.829030</vAcc></extensions></trkpt>
      <trkpt lon="-2.254952" lat="53.124079"><ele>99.202454</ele><time>2022-03-04T09:32:30Z</time><extensions><speed>0.877530</speed><course>179.973053</course><hAcc>1.617171</hAcc><vAcc>0.829011</vAcc></extensions></trkpt>
      <trkpt lon="-2.254951" lat="53.124071"><ele>99.175148</ele><time>2022-03-04T09:32:31Z</time><extensions><speed>0.895251</speed><course>176.867889</course><hAcc>1.624905</hAcc><vAcc>0.829023</vAcc></extensions></trkpt>
      <trkpt lon="-2.254949" lat="53.124063"><ele>99.152161</ele><time>2022-03-04T09:32:32Z</time><extensions><speed>0.929558</speed><course>168.481873</course><hAcc>1.618498</hAcc><vAcc>0.829033</vAcc></extensions></trkpt>
      <trkpt lon="-2.254946" lat="53.124055"><ele>99.140778</ele><time>2022-03-04T09:32:33Z</time><extensions><speed>0.964980</speed><course>165.105286</course><hAcc>1.621202</hAcc><vAcc>0.829055</vAcc></extensions></trkpt>
      <trkpt lon="-2.254942" lat="53.124046"><ele>99.134911</ele><time>2022-03-04T09:32:34Z</time><extensions><speed>0.995504</speed><course>167.994553</course><hAcc>1.632771</hAcc><vAcc>0.829094</vAcc></extensions></trkpt>
      <trkpt lon="-2.254939" lat="53.124037"><ele>99.132744</ele><time>2022-03-04T09:32:35Z</time><extensions><speed>1.006032</speed><course>166.427017</course><hAcc>1.605918</hAcc><vAcc>0.829167</vAcc></extensions></trkpt>
      <trkpt lon="-2.254935" lat="53.124029"><ele>99.126968</ele><time>2022-03-04T09:32:36Z</time><extensions><speed>1.026885</speed><course>167.703033</course><hAcc>1.603909</hAcc><vAcc>0.829226</vAcc></extensions></trkpt>
      <trkpt lon="-2.254932" lat="53.124019"><ele>99.134445</ele><time>2022-03-04T09:32:37Z</time><extensions><speed>1.028975</speed><course>168.866760</course><hAcc>1.618720</hAcc><vAcc>0.829295</vAcc></extensions></trkpt>
      <trkpt lon="-2.254929" lat="53.124011"><ele>99.144295</ele><time>2022-03-04T09:32:38Z</time><extensions><speed>1.016274</speed><course>165.685059</course><hAcc>1.596240</hAcc><vAcc>0.829353</vAcc></extensions></trkpt>
      <trkpt lon="-2.254925" lat="53.124001"><ele>99.159233</ele><time>2022-03-04T09:32:39Z</time><extensions><speed>1.056909</speed><course>168.136169</course><hAcc>1.587749</hAcc><vAcc>0.829424</vAcc></extensions></trkpt>
      <trkpt lon="-2.254922" lat="53.123992"><ele>99.185547</ele><time>2022-03-04T09:32:40Z</time><extensions><speed>1.122867</speed><course>171.322128</course><hAcc>1.597826</hAcc><vAcc>0.829494</vAcc></extensions></trkpt>
      <trkpt lon="-2.254920" lat="53.123981"><ele>99.222824</ele><time>2022-03-04T09:32:41Z</time><extensions><speed>1.230168</speed><course>172.876175</course><hAcc>1.619675</hAcc><vAcc>0.829556</vAcc></extensions></trkpt>
      <trkpt lon="-2.254917" lat="53.123970"><ele>99.258415</ele><time>2022-03-04T09:32:42Z</time><extensions><speed>1.324429</speed><course>171.156601</course><hAcc>1.600432</hAcc><vAcc>0.829617</vAcc></extensions></trkpt>
      <trkpt lon="-2.254914" lat="53.123959"><ele>99.294556</ele><time>2022-03-04T09:32:43Z</time><extensions><speed>1.291803</speed><course>169.771317</course><hAcc>1.580062</hAcc><vAcc>0.829678</vAcc></extensions></trkpt>
      <trkpt lon="-2.254911" lat="53.123948"><ele>99.328911</ele><time>2022-03-04T09:32:44Z</time><extensions><speed>1.198006</speed><course>169.935883</course><hAcc>1.584833</hAcc><vAcc>0.829741</vAcc></extensions></trkpt>
      <trkpt lon="-2.254909" lat="53.123938"><ele>99.374779</ele><time>2022-03-04T09:32:45Z</time><extensions><speed>1.163202</speed><course>173.136566</course><hAcc>1.602117</hAcc><vAcc>0.829804</vAcc></extensions></trkpt>
      <trkpt lon="-2.254907" lat="53.123928"><ele>99.420074</ele><time>2022-03-04T09:32:46Z</time><extensions><speed>1.154091</speed><course>172.770676</course><hAcc>1.561805</hAcc><vAcc>0.829850</vAcc></extensions></trkpt>
      <trkpt lon="-2.254905" lat="53.123918"><ele>99.466560</ele><time>2022-03-04T09:32:47Z</time><extensions><speed>1.140453</speed><course>173.589188</course><hAcc>1.517492</hAcc><vAcc>0.829884</vAcc></extensions></trkpt>
      <trkpt lon="-2.254903" lat="53.123908"><ele>99.511353</ele><time>2022-03-04T09:32:48Z</time><extensions><speed>1.240982</speed><course>174.095490</course><hAcc>1.486940</hAcc><vAcc>0.829910</vAcc></extensions></trkpt>
      <trkpt lon="-2.254901" lat="53.123896"><ele>99.555344</ele><time>2022-03-04T09:32:49Z</time><extensions><speed>1.413978</speed><course>174.064621</course><hAcc>1.490841</hAcc><vAcc>0.829937</vAcc></extensions></trkpt>
      <trkpt lon="-2.254899" lat="53.123883"><ele>99.598564</ele><time>2022-03-04T09:32:50Z</time><extensions><speed>1.540715</speed><course>174.719330</course><hAcc>1.484240</hAcc><vAcc>0.829955</vAcc></extensions></trkpt>
      <trkpt lon="-2.254898" lat="53.123870"><ele>99.652069</ele><time>2022-03-04T09:32:51Z</time><extensions><speed>1.448595</speed><course>177.622192</course><hAcc>1.455753</hAcc><vAcc>0.829985</vAcc></extensions></trkpt>
      <trkpt lon="-2.254897" lat="53.123857"><ele>99.702469</ele><time>2022-03-04T09:32:52Z</time><extensions><speed>1.485839</speed><course>180.557205</course><hAcc>1.453879</hAcc><vAcc>0.829994</vAcc></extensions></trkpt>
      <trkpt lon="-2.254899" lat="53.123845"><ele>99.757095</ele><time>2022-03-04T09:32:53Z</time><extensions><speed>1.352402</speed><course>193.908325</course><hAcc>1.437626</hAcc><vAcc>0.829986</vAcc></extensions></trkpt>
      <trkpt lon="-2.254907" lat="53.123834"><ele>99.798347</ele><time>2022-03-04T09:32:54Z</time><extensions><speed>1.348042</speed><course>209.867340</course><hAcc>1.431448</hAcc><vAcc>0.829967</vAcc></extensions></trkpt>
      <trkpt lon="-2.254918" lat="53.123825"><ele>99.840996</ele><time>2022-03-04T09:32:55Z</time><extensions><speed>1.328155</speed><course>225.997482</course><hAcc>1.421329</hAcc><vAcc>0.829948</vAcc></extensions></trkpt>
      <trkpt lon="-2.254934" lat="53.123818"><ele>99.870369</ele><time>2022-03-04T09:32:56Z</time><extensions><speed>1.354072</speed><course>238.370819</course><hAcc>1.411427</hAcc><vAcc>0.829919</vAcc></extensions></trkpt>
      <trkpt lon="-2.254952" lat="53.123812"><ele>99.905350</ele><time>2022-03-04T09:32:57Z</time><extensions><speed>1.478131</speed><course>240.647797</course><hAcc>1.430228</hAcc><vAcc>0.829909</vAcc></extensions></trkpt>
      <trkpt lon="-2.254970" lat="53.123805"><ele>99.939545</ele><time>2022-03-04T09:32:58Z</time><extensions><speed>1.424940</speed><course>236.808273</course><hAcc>1.431878</hAcc><vAcc>0.829922</vAcc></extensions></trkpt>
      <trkpt lon="-2.254986" lat="53.123798"><ele>99.966698</ele><time>2022-03-04T09:32:59Z</time><extensions><speed>1.466213</speed><course>226.182007</course><hAcc>1.434427</hAcc><vAcc>0.829949</vAcc></extensions></trkpt>
      <trkpt lon="-2.255000" lat="53.123789"><ele>99.987488</ele><time>2022-03-04T09:33:00Z</time><extensions><speed>1.365330</speed><course>221.875671</course><hAcc>1.415187</hAcc><vAcc>0.829988</vAcc></extensions></trkpt>
      <trkpt lon="-2.255013" lat="53.123780"><ele>100.016228</ele><time>2022-03-04T09:33:01Z</time><extensions><speed>1.281897</speed><course>221.207199</course><hAcc>1.403967</hAcc><vAcc>0.830021</vAcc></extensions></trkpt>
      <trkpt lon="-2.255026" lat="53.123771"><ele>100.044785</ele><time>2022-03-04T09:33:02Z</time><extensions><speed>1.360878</speed><course>220.326904</course><hAcc>1.423098</hAcc><vAcc>0.830064</vAcc></extensions></trkpt>
      <trkpt lon="-2.255039" lat="53.123762"><ele>100.060173</ele><time>2022-03-04T09:33:03Z</time><extensions><speed>1.445630</speed><course>219.930496</course><hAcc>1.435610</hAcc><vAcc>0.830113</vAcc></extensions></trkpt>
      <trkpt lon="-2.255052" lat="53.123752"><ele>100.067780</ele><time>2022-03-04T09:33:04Z</time><extensions><speed>1.430297</speed><course>220.864075</course><hAcc>1.431435</hAcc><vAcc>0.830165</vAcc></extensions></trkpt>
      <trkpt lon="-2.255065" lat="53.123744"><ele>100.072807</ele><time>2022-03-04T09:33:05Z</time><extensions><speed>1.191627</speed><course>222.628891</course><hAcc>1.403951</hAcc><vAcc>0.830220</vAcc></extensions></trkpt>
      <trkpt lon="-2.255076" lat="53.123737"><ele>100.091156</ele><time>2022-03-04T09:33:06Z</time><extensions><speed>1.125643</speed><course>221.822372</course><hAcc>1.400236</hAcc><vAcc>0.830276</vAcc></extensions></trkpt>
      <trkpt lon="-2.255086" lat="53.123729"><ele>100.115707</ele><time>2022-03-04T09:33:07Z</time><extensions><speed>1.153614</speed><course>214.018921</course><hAcc>1.405933</hAcc><vAcc>0.830316</vAcc></extensions></trkpt>
      <trkpt lon="-2.255095" lat="53.123720"><ele>100.136795</ele><time>2022-03-04T09:33:08Z</time><extensions><speed>1.308545</speed><course>208.657181</course><hAcc>1.429359</hAcc><vAcc>0.830331</vAcc></extensions></trkpt>
      <trkpt lon="-2.255104" lat="53.123709"><ele>100.149361</ele><time>2022-03-04T09:33:09Z</time><extensions><speed>1.351831</speed><course>208.993896</course><hAcc>1.422610</hAcc><vAcc>0.830342</vAcc></extensions></trkpt>
      <trkpt lon="-2.255114" lat="53.123699"><ele>100.171097</ele><time>2022-03-04T09:33:10Z</time><extensions><speed>1.324992</speed><course>212.861038</course><hAcc>1.412861</hAcc><vAcc>0.830345</vAcc></extensions></trkpt>
      <trkpt lon="-2.255125" lat="53.123689"><ele>100.198929</ele><time>2022-03-04T09:33:12Z</time><extensions><speed>1.399408</speed><course>211.768219</course><hAcc>1.410437</hAcc><vAcc>0.830337</vAcc></extensions></trkpt>
      <trkpt lon="-2.255135" lat="53.123679"><ele>100.231346</ele><time>2022-03-04T09:33:13Z</time><extensions><speed>1.385702</speed><course>210.634598</course><hAcc>1.408550</hAcc><vAcc>0.830317</vAcc></extensions></trkpt>
      <trkpt lon="-2.255145" lat="53.123669"><ele>100.262566</ele><time>2022-03-04T09:33:14Z</time><extensions><speed>1.382050</speed><course>210.401855</course><hAcc>1.413802</hAcc><vAcc>0.830294</vAcc></extensions></trkpt>
      <trkpt lon="-2.255155" lat="53.123659"><ele>100.301437</ele><time>2022-03-04T09:33:15Z</time><extensions><speed>1.249950</speed><course>214.655487</course><hAcc>1.405173</hAcc><vAcc>0.830262</vAcc></extensions></trkpt>
      <trkpt lon="-2.255166" lat="53.123650"><ele>100.353600</ele><time>2022-03-04T09:33:16Z</time><extensions><speed>1.239449</speed><course>216.895721</course><hAcc>1.400458</hAcc><vAcc>0.830240</vAcc></extensions></trkpt>
      <trkpt lon="-2.255177" lat="53.123641"><ele>100.411736</ele><time>2022-03-04T09:33:17Z</time><extensions><speed>1.336867</speed><course>217.299042</course><hAcc>1.417088</hAcc><vAcc>0.830199</vAcc></extensions></trkpt>
      <trkpt lon="-2.255188" lat="53.123631"><ele>100.463333</ele><time>2022-03-04T09:33:18Z</time><extensions><speed>1.359620</speed><course>214.621338</course><hAcc>1.415100</hAcc><vAcc>0.830171</vAcc></extensions></trkpt>
      <trkpt lon="-2.255199" lat="53.123621"><ele>100.524323</ele><time>2022-03-04T09:33:19Z</time><extensions><speed>1.430492</speed><course>210.958191</course><hAcc>1.423997</hAcc><vAcc>0.830141</vAcc></extensions></trkpt>
      <trkpt lon="-2.255210" lat="53.123610"><ele>100.592415</ele><time>2022-03-04T09:33:20Z</time><extensions><speed>1.440574</speed><course>211.921082</course><hAcc>1.426792</hAcc><vAcc>0.830126</vAcc></extensions></trkpt>
      <trkpt lon="-2.255221" lat="53.123601"><ele>100.658073</ele><time>2022-03-04T09:33:21Z</time><extensions><speed>1.240671</speed><course>214.511978</course><hAcc>1.412268</hAcc><vAcc>0.830112</vAcc></extensions></trkpt>
      <trkpt lon="-2.255231" lat="53.123592"><ele>100.731544</ele><time>2022-03-04T09:33:22Z</time><extensions><speed>1.273812</speed><course>214.975845</course><hAcc>1.417334</hAcc><vAcc>0.830103</vAcc></extensions></trkpt>
      <trkpt lon="-2.255241" lat="53.123582"><ele>100.803169</ele><time>2022-03-04T09:33:23Z</time><extensions><speed>1.308260</speed><course>213.359940</course><hAcc>1.422167</hAcc><vAcc>0.830111</vAcc></extensions></trkpt>
      <trkpt lon="-2.255252" lat="53.123572"><ele>100.869583</ele><time>2022-03-04T09:33:24Z</time><extensions><speed>1.360001</speed><course>212.348267</course><hAcc>1.426822</hAcc><vAcc>0.830130</vAcc></extensions></trkpt>
      <trkpt lon="-2.255262" lat="53.123562"><ele>100.937912</ele><time>2022-03-04T09:33:25Z</time><extensions><speed>1.355047</speed><course>208.971695</course><hAcc>1.420183</hAcc><vAcc>0.830153</vAcc></extensions></trkpt>
      <trkpt lon="-2.255272" lat="53.123552"><ele>101.013954</ele><time>2022-03-04T09:33:26Z</time><extensions><speed>1.386436</speed><course>212.229492</course><hAcc>1.423560</hAcc><vAcc>0.830182</vAcc></extensions></trkpt>
      <trkpt lon="-2.255283" lat="53.123542"><ele>101.099930</ele><time>2022-03-04T09:33:27Z</time><extensions><speed>1.317550</speed><course>215.590027</course><hAcc>1.412292</hAcc><vAcc>0.830212</vAcc></extensions></trkpt>
      <trkpt lon="-2.255294" lat="53.123533"><ele>101.178368</ele><time>2022-03-04T09:33:28Z</time><extensions><speed>1.313705</speed><course>216.895615</course><hAcc>1.409277</hAcc><vAcc>0.830249</vAcc></extensions></trkpt>
      <trkpt lon="-2.255305" lat="53.123524"><ele>101.254272</ele><time>2022-03-04T09:33:29Z</time><extensions><speed>1.399289</speed><course>216.158279</course><hAcc>1.418036</hAcc><vAcc>0.830291</vAcc></extensions></trkpt>
      <trkpt lon="-2.255317" lat="53.123514"><ele>101.337158</ele><time>2022-03-04T09:33:30Z</time><extensions><speed>1.333991</speed><course>214.962418</course><hAcc>1.411702</hAcc><vAcc>0.830324</vAcc></extensions></trkpt>
      <trkpt lon="-2.255328" lat="53.123505"><ele>101.428101</ele><time>2022-03-04T09:33:31Z</time><extensions><speed>1.258897</speed><course>215.675552</course><hAcc>1.397647</hAcc><vAcc>0.830357</vAcc></extensions></trkpt>
      <trkpt lon="-2.255339" lat="53.123496"><ele>101.514519</ele><time>2022-03-04T09:33:32Z</time><extensions><speed>1.311152</speed><course>217.295334</course><hAcc>1.405109</hAcc><vAcc>0.830378</vAcc></extensions></trkpt>
      <trkpt lon="-2.255350" lat="53.123487"><ele>101.592720</ele><time>2022-03-04T09:33:33Z</time><extensions><speed>1.320850</speed><course>217.565155</course><hAcc>1.411838</hAcc><vAcc>0.830389</vAcc></extensions></trkpt>
      <trkpt lon="-2.255361" lat="53.123478"><ele>101.675102</ele><time>2022-03-04T09:33:34Z</time><extensions><speed>1.275616</speed><course>215.189087</course><hAcc>1.411031</hAcc><vAcc>0.830392</vAcc></extensions></trkpt>
      <trkpt lon="-2.255372" lat="53.123469"><ele>101.758995</ele><time>2022-03-04T09:33:35Z</time><extensions><speed>1.338290</speed><course>215.576080</course><hAcc>1.423892</hAcc><vAcc>0.830383</vAcc></extensions></trkpt>
      <trkpt lon="-2.255384" lat="53.123459"><ele>101.838768</ele><time>2022-03-04T09:33:36Z</time><extensions><speed>1.365689</speed><course>215.926956</course><hAcc>1.434026</hAcc><vAcc>0.830372</vAcc></extensions></trkpt>
      <trkpt lon="-2.255395" lat="53.123450"><ele>101.909805</ele><time>2022-03-04T09:33:37Z</time><extensions><speed>1.158315</speed><course>216.155411</course><hAcc>1.419261</hAcc><vAcc>0.830350</vAcc></extensions></trkpt>
      <trkpt lon="-2.255405" lat="53.123442"><ele>101.989761</ele><time>2022-03-04T09:33:38Z</time><extensions><speed>1.112987</speed><course>218.581314</course><hAcc>1.421155</hAcc><vAcc>0.830325</vAcc></extensions></trkpt>
      <trkpt lon="-2.255415" lat="53.123435"><ele>102.070312</ele><time>2022-03-04T09:33:39Z</time><extensions><speed>1.123072</speed><course>220.806625</course><hAcc>1.432400</hAcc><vAcc>0.830288</vAcc></extensions></trkpt>
      <trkpt lon="-2.255426" lat="53.123427"><ele>102.140823</ele><time>2022-03-04T09:33:40Z</time><extensions><speed>1.183075</speed><course>219.976166</course><hAcc>1.448014</hAcc><vAcc>0.830238</vAcc></extensions></trkpt>
      <trkpt lon="-2.255437" lat="53.123419"><ele>102.206444</ele><time>2022-03-04T09:33:41Z</time><extensions><speed>1.245600</speed><course>219.368698</course><hAcc>1.456518</hAcc><vAcc>0.830200</vAcc></extensions></trkpt>
      <trkpt lon="-2.255449" lat="53.123411"><ele>102.275543</ele><time>2022-03-04T09:33:42Z</time><extensions><speed>1.275297</speed><course>221.477448</course><hAcc>1.465097</hAcc><vAcc>0.830157</vAcc></extensions></trkpt>
      <trkpt lon="-2.255461" lat="53.123402"><ele>102.337585</ele><time>2022-03-04T09:33:43Z</time><extensions><speed>1.241651</speed><course>220.424225</course><hAcc>1.455647</hAcc><vAcc>0.830125</vAcc></extensions></trkpt>
      <trkpt lon="-2.255472" lat="53.123395"><ele>102.388458</ele><time>2022-03-04T09:33:44Z</time><extensions><speed>1.137841</speed><course>220.271927</course><hAcc>1.437750</hAcc><vAcc>0.830102</vAcc></extensions></trkpt>
      <trkpt lon="-2.255483" lat="53.123387"><ele>102.443230</ele><time>2022-03-04T09:33:45Z</time><extensions><speed>1.131257</speed><course>220.821838</course><hAcc>1.432859</hAcc><vAcc>0.830095</vAcc></extensions></trkpt>
      <trkpt lon="-2.255493" lat="53.123380"><ele>102.494507</ele><time>2022-03-04T09:33:46Z</time><extensions><speed>1.106823</speed><course>221.423645</course><hAcc>1.427950</hAcc><vAcc>0.830096</vAcc></extensions></trkpt>
      <trkpt lon="-2.255504" lat="53.123372"><ele>102.535255</ele><time>2022-03-04T09:33:47Z</time><extensions><speed>1.246826</speed><course>219.258255</course><hAcc>1.448302</hAcc><vAcc>0.830123</vAcc></extensions></trkpt>
      <trkpt lon="-2.255516" lat="53.123363"><ele>102.577744</ele><time>2022-03-04T09:33:48Z</time><extensions><speed>1.337211</speed><course>216.435486</course><hAcc>1.447158</hAcc><vAcc>0.830163</vAcc></extensions></trkpt>
      <trkpt lon="-2.255526" lat="53.123354"><ele>102.617859</ele><time>2022-03-04T09:33:49Z</time><extensions><speed>1.261972</speed><course>215.146896</course><hAcc>1.422969</hAcc><vAcc>0.830207</vAcc></extensions></trkpt>
      <trkpt lon="-2.255537" lat="53.123345"><ele>102.657196</ele><time>2022-03-04T09:33:50Z</time><extensions><speed>1.302393</speed><course>217.616348</course><hAcc>1.422417</hAcc><vAcc>0.830249</vAcc></extensions></trkpt>
      <trkpt lon="-2.255549" lat="53.123336"><ele>102.690887</ele><time>2022-03-04T09:33:51Z</time><extensions><speed>1.287394</speed><course>218.182693</course><hAcc>1.414572</hAcc><vAcc>0.830307</vAcc></extensions></trkpt>
      <trkpt lon="-2.255561" lat="53.123328"><ele>102.728638</ele><time>2022-03-04T09:33:52Z</time><extensions><speed>1.279886</speed><course>221.186920</course><hAcc>1.407703</hAcc><vAcc>0.830360</vAcc></extensions></trkpt>
      <trkpt lon="-2.255574" lat="53.123319"><ele>102.756332</ele><time>2022-03-04T09:33:53Z</time><extensions><speed>1.382618</speed><course>222.939011</course><hAcc>1.419355</hAcc><vAcc>0.830414</vAcc></extensions></trkpt>
      <trkpt lon="-2.255588" lat="53.123310"><ele>102.779938</ele><time>2022-03-04T09:33:54Z</time><extensions><speed>1.401864</speed><course>224.445557</course><hAcc>1.417957</hAcc><vAcc>0.830469</vAcc></extensions></trkpt>
      <trkpt lon="-2.255602" lat="53.123302"><ele>102.808533</ele><time>2022-03-04T09:33:55Z</time><extensions><speed>1.371186</speed><course>226.111130</course><hAcc>1.416939</hAcc><vAcc>0.830506</vAcc></extensions></trkpt>
      <trkpt lon="-2.255617" lat="53.123294"><ele>102.850952</ele><time>2022-03-04T09:33:56Z</time><extensions><speed>1.370672</speed><course>226.484161</course><hAcc>1.421763</hAcc><vAcc>0.830536</vAcc></extensions></trkpt>
      <trkpt lon="-2.255630" lat="53.123286"><ele>102.880798</ele><time>2022-03-04T09:33:56Z</time><extensions><speed>1.233407</speed><course>223.745224</course><hAcc>1.405227</hAcc><vAcc>0.830548</vAcc></extensions></trkpt>
      <trkpt lon="-2.255642" lat="53.123278"><ele>102.910492</ele><time>2022-03-04T09:33:57Z</time><extensions><speed>1.217318</speed><course>221.904953</course><hAcc>1.415990</hAcc><vAcc>0.830555</vAcc></extensions></trkpt>
      <trkpt lon="-2.255654" lat="53.123269"><ele>102.940819</ele><time>2022-03-04T09:33:58Z</time><extensions><speed>1.314639</speed><course>219.235870</course><hAcc>1.420675</hAcc><vAcc>0.830537</vAcc></extensions></trkpt>
      <trkpt lon="-2.255667" lat="53.123261"><ele>102.974129</ele><time>2022-03-04T09:33:59Z</time><extensions><speed>1.321957</speed><course>221.496979</course><hAcc>1.420763</hAcc><vAcc>0.830519</vAcc></extensions></trkpt>
      <trkpt lon="-2.255680" lat="53.123252"><ele>103.013664</ele><time>2022-03-04T09:34:00Z</time><extensions><speed>1.414937</speed><course>222.853149</course><hAcc>1.422602</hAcc><vAcc>0.830485</vAcc></extensions></trkpt>
      <trkpt lon="-2.255694" lat="53.123243"><ele>103.049408</ele><time>2022-03-04T09:34:01Z</time><extensions><speed>1.424614</speed><course>224.447495</course><hAcc>1.419484</hAcc><vAcc>0.830440</vAcc></extensions></trkpt>
      <trkpt lon="-2.255708" lat="53.123234"><ele>103.081085</ele><time>2022-03-04T09:34:02Z</time><extensions><speed>1.365000</speed><course>224.942413</course><hAcc>1.413355</hAcc><vAcc>0.830392</vAcc></extensions></trkpt>
      <trkpt lon="-2.255722" lat="53.123225"><ele>103.111847</ele><time>2022-03-04T09:34:03Z</time><extensions><speed>1.358103</speed><course>222.271118</course><hAcc>1.413758</hAcc><vAcc>0.830341</vAcc></extensions></trkpt>
      <trkpt lon="-2.255734" lat="53.123217"><ele>103.145950</ele><time>2022-03-04T09:34:04Z</time><extensions><speed>1.311266</speed><course>220.507004</course><hAcc>1.402852</hAcc><vAcc>0.830291</vAcc></extensions></trkpt>
      <trkpt lon="-2.255747" lat="53.123208"><ele>103.189171</ele><time>2022-03-04T09:34:05Z</time><extensions><speed>1.321841</speed><course>221.748352</course><hAcc>1.400791</hAcc><vAcc>0.830250</vAcc></extensions></trkpt>
      <trkpt lon="-2.255760" lat="53.123199"><ele>103.260147</ele><time>2022-03-04T09:34:06Z</time><extensions><speed>1.435022</speed><course>221.148285</course><hAcc>1.404464</hAcc><vAcc>0.830213</vAcc></extensions></trkpt>
      <trkpt lon="-2.255774" lat="53.123190"><ele>103.326935</ele><time>2022-03-04T09:34:07Z</time><extensions><speed>1.475365</speed><course>222.492889</course><hAcc>1.405298</hAcc><vAcc>0.830179</vAcc></extensions></trkpt>
      <trkpt lon="-2.255788" lat="53.123180"><ele>103.378860</ele><time>2022-03-04T09:34:08Z</time><extensions><speed>1.460446</speed><course>222.153809</course><hAcc>1.399082</hAcc><vAcc>0.830171</vAcc></extensions></trkpt>
      <trkpt lon="-2.255802" lat="53.123171"><ele>103.441254</ele><time>2022-03-04T09:34:09Z</time><extensions><speed>1.405709</speed><course>221.808929</course><hAcc>1.395557</hAcc><vAcc>0.830171</vAcc></extensions></trkpt>
      <trkpt lon="-2.255815" lat="53.123162"><ele>103.507149</ele><time>2022-03-04T09:34:10Z</time><extensions><speed>1.270593</speed><course>222.234634</course><hAcc>1.390473</hAcc><vAcc>0.830190</vAcc></extensions></trkpt>
      <trkpt lon="-2.255827" lat="53.123154"><ele>103.574463</ele><time>2022-03-04T09:34:11Z</time><extensions><speed>1.285759</speed><course>219.084991</course><hAcc>1.382519</hAcc><vAcc>0.830229</vAcc></extensions></trkpt>
      <trkpt lon="-2.255839" lat="53.123145"><ele>103.631935</ele><time>2022-03-04T09:34:12Z</time><extensions><speed>1.400750</speed><course>217.144775</course><hAcc>1.393896</hAcc><vAcc>0.830283</vAcc></extensions></trkpt>
      <trkpt lon="-2.255851" lat="53.123135"><ele>103.694527</ele><time>2022-03-04T09:34:13Z</time><extensions><speed>1.423991</speed><course>217.696426</course><hAcc>1.404134</hAcc><vAcc>0.830348</vAcc></extensions></trkpt>
      <trkpt lon="-2.255864" lat="53.123125"><ele>103.765633</ele><time>2022-03-04T09:34:14Z</time><extensions><speed>1.466063</speed><course>216.651459</course><hAcc>1.413999</hAcc><vAcc>0.830420</vAcc></extensions></trkpt>
      <trkpt lon="-2.255876" lat="53.123114"><ele>103.828125</ele><time>2022-03-04T09:34:15Z</time><extensions><speed>1.381490</speed><course>213.520660</course><hAcc>1.409907</hAcc><vAcc>0.830494</vAcc></extensions></trkpt>
      <trkpt lon="-2.255887" lat="53.123105"><ele>103.893753</ele><time>2022-03-04T09:34:16Z</time><extensions><speed>1.274101</speed><course>216.699356</course><hAcc>1.414383</hAcc><vAcc>0.830564</vAcc></extensions></trkpt>
      <trkpt lon="-2.255897" lat="53.123096"><ele>103.956978</ele><time>2022-03-04T09:34:17Z</time><extensions><speed>1.178356</speed><course>219.233521</course><hAcc>1.407467</hAcc><vAcc>0.830636</vAcc></extensions></trkpt>
      <trkpt lon="-2.255909" lat="53.123088"><ele>104.027130</ele><time>2022-03-04T09:34:18Z</time><extensions><speed>1.208952</speed><course>221.896271</course><hAcc>1.416955</hAcc><vAcc>0.830682</vAcc></extensions></trkpt>
      <trkpt lon="-2.255920" lat="53.123080"><ele>104.086647</ele><time>2022-03-04T09:34:19Z</time><extensions><speed>1.246641</speed><course>221.648849</course><hAcc>1.431898</hAcc><vAcc>0.830718</vAcc></extensions></trkpt>
      <trkpt lon="-2.255932" lat="53.123072"><ele>104.140175</ele><time>2022-03-04T09:34:20Z</time><extensions><speed>1.234857</speed><course>221.297379</course><hAcc>1.435234</hAcc><vAcc>0.830725</vAcc></extensions></trkpt>
      <trkpt lon="-2.255944" lat="53.123064"><ele>104.189659</ele><time>2022-03-04T09:34:21Z</time><extensions><speed>1.277679</speed><course>220.881424</course><hAcc>1.437437</hAcc><vAcc>0.830719</vAcc></extensions></trkpt>
      <trkpt lon="-2.255956" lat="53.123056"><ele>104.240372</ele><time>2022-03-04T09:34:22Z</time><extensions><speed>1.289110</speed><course>221.346512</course><hAcc>1.431375</hAcc><vAcc>0.830694</vAcc></extensions></trkpt>
      <trkpt lon="-2.255969" lat="53.123048"><ele>104.292404</ele><time>2022-03-04T09:34:23Z</time><extensions><speed>1.315427</speed><course>222.395142</course><hAcc>1.425249</hAcc><vAcc>0.830646</vAcc></extensions></trkpt>
      <trkpt lon="-2.255981" lat="53.123039"><ele>104.337845</ele><time>2022-03-04T09:34:24Z</time><extensions><speed>1.336387</speed><course>218.872391</course><hAcc>1.421727</hAcc><vAcc>0.830584</vAcc></extensions></trkpt>
      <trkpt lon="-2.255993" lat="53.123029"><ele>104.388023</ele><time>2022-03-04T09:34:25Z</time><extensions><speed>1.407469</speed><course>216.662582</course><hAcc>1.422472</hAcc><vAcc>0.830508</vAcc></extensions></trkpt>
      <trkpt lon="-2.256004" lat="53.123020"><ele>104.439484</ele><time>2022-03-04T09:34:26Z</time><extensions><speed>1.230120</speed><course>216.355911</course><hAcc>1.399076</hAcc><vAcc>0.830420</vAcc></extensions></trkpt>
      <trkpt lon="-2.256016" lat="53.123011"><ele>104.487053</ele><time>2022-03-04T09:34:27Z</time><extensions><speed>1.344681</speed><course>219.052963</course><hAcc>1.406630</hAcc><vAcc>0.830324</vAcc></extensions></trkpt>
      <trkpt lon="-2.256029" lat="53.123002"><ele>104.530998</ele><time>2022-03-04T09:34:28Z</time><extensions><speed>1.385675</speed><course>222.734985</course><hAcc>1.407785</hAcc><vAcc>0.830231</vAcc></extensions></trkpt>
      <trkpt lon="-2.256042" lat="53.122994"><ele>104.569153</ele><time>2022-03-04T09:34:29Z</time><extensions><speed>1.350337</speed><course>225.877335</course><hAcc>1.402439</hAcc><vAcc>0.830143</vAcc></extensions></trkpt>
      <trkpt lon="-2.256056" lat="53.122986"><ele>104.609283</ele><time>2022-03-04T09:34:30Z</time><extensions><speed>1.322018</speed><course>223.620667</course><hAcc>1.410481</hAcc><vAcc>0.830053</vAcc></extensions></trkpt>
      <trkpt lon="-2.256069" lat="53.122978"><ele>104.645676</ele><time>2022-03-04T09:34:31Z</time><extensions><speed>1.276880</speed><course>223.205429</course><hAcc>1.403044</hAcc><vAcc>0.829976</vAcc></extensions></trkpt>
      <trkpt lon="-2.256082" lat="53.122970"><ele>104.669739</ele><time>2022-03-04T09:34:32Z</time><extensions><speed>1.217598</speed><course>225.444031</course><hAcc>1.399272</hAcc><vAcc>0.829915</vAcc></extensions></trkpt>
      <trkpt lon="-2.256095" lat="53.122962"><ele>104.702614</ele><time>2022-03-04T09:34:33Z</time><extensions><speed>1.236163</speed><course>225.163147</course><hAcc>1.405895</hAcc><vAcc>0.829867</vAcc></extensions></trkpt>
      <trkpt lon="-2.256108" lat="53.122954"><ele>104.740120</ele><time>2022-03-04T09:34:34Z</time><extensions><speed>1.324412</speed><course>223.872375</course><hAcc>1.415562</hAcc><vAcc>0.829823</vAcc></extensions></trkpt>
      <trkpt lon="-2.256121" lat="53.122946"><ele>104.772766</ele><time>2022-03-04T09:34:35Z</time><extensions><speed>1.302148</speed><course>222.774048</course><hAcc>1.417541</hAcc><vAcc>0.829789</vAcc></extensions></trkpt>
      <trkpt lon="-2.256134" lat="53.122938"><ele>104.803474</ele><time>2022-03-04T09:34:36Z</time><extensions><speed>1.274650</speed><course>223.866867</course><hAcc>1.418170</hAcc><vAcc>0.829781</vAcc></extensions></trkpt>
      <trkpt lon="-2.256146" lat="53.122930"><ele>104.826073</ele><time>2022-03-04T09:34:37Z</time><extensions><speed>1.318612</speed><course>221.912216</course><hAcc>1.423691</hAcc><vAcc>0.829785</vAcc></extensions></trkpt>
      <trkpt lon="-2.256159" lat="53.122921"><ele>104.853233</ele><time>2022-03-04T09:34:38Z</time><extensions><speed>1.308869</speed><course>219.871216</course><hAcc>1.422162</hAcc><vAcc>0.829801</vAcc></extensions></trkpt>
      <trkpt lon="-2.256171" lat="53.122912"><ele>104.881958</ele><time>2022-03-04T09:34:39Z</time><extensions><speed>1.351527</speed><course>221.256348</course><hAcc>1.425949</hAcc><vAcc>0.829817</vAcc></extensions></trkpt>
      <trkpt lon="-2.256184" lat="53.122904"><ele>104.900581</ele><time>2022-03-04T09:34:40Z</time><extensions><speed>1.266821</speed><course>221.283813</course><hAcc>1.419556</hAcc><vAcc>0.829838</vAcc></extensions></trkpt>
      <trkpt lon="-2.256196" lat="53.122896"><ele>104.919731</ele><time>2022-03-04T09:34:41Z</time><extensions><speed>1.254834</speed><course>221.717560</course><hAcc>1.413637</hAcc><vAcc>0.829862</vAcc></extensions></trkpt>
      <trkpt lon="-2.256209" lat="53.122887"><ele>104.951294</ele><time>2022-03-04T09:34:42Z</time><extensions><speed>1.383152</speed><course>221.170441</course><hAcc>1.423450</hAcc><vAcc>0.829878</vAcc></extensions></trkpt>
      <trkpt lon="-2.256222" lat="53.122878"><ele>104.977074</ele><time>2022-03-04T09:34:43Z</time><extensions><speed>1.342224</speed><course>223.524994</course><hAcc>1.417365</hAcc><vAcc>0.829892</vAcc></extensions></trkpt>
      <trkpt lon="-2.256236" lat="53.122870"><ele>105.007370</ele><time>2022-03-04T09:34:44Z</time><extensions><speed>1.402893</speed><course>225.511719</course><hAcc>1.417242</hAcc><vAcc>0.829902</vAcc></extensions></trkpt>
      <trkpt lon="-2.256251" lat="53.122861"><ele>105.043716</ele><time>2022-03-04T09:34:45Z</time><extensions><speed>1.441987</speed><course>223.151199</course><hAcc>1.424492</hAcc><vAcc>0.829908</vAcc></extensions></trkpt>
      <trkpt lon="-2.256265" lat="53.122852"><ele>105.073723</ele><time>2022-03-04T09:34:46Z</time><extensions><speed>1.427851</speed><course>222.114609</course><hAcc>1.430161</hAcc><vAcc>0.829904</vAcc></extensions></trkpt>
      <trkpt lon="-2.256278" lat="53.122842"><ele>105.098915</ele><time>2022-03-04T09:34:47Z</time><extensions><speed>1.386676</speed><course>218.987045</course><hAcc>1.433774</hAcc><vAcc>0.829889</vAcc></extensions></trkpt>
      <trkpt lon="-2.256291" lat="53.122833"><ele>105.125687</ele><time>2022-03-04T09:34:48Z</time><extensions><speed>1.372587</speed><course>217.840424</course><hAcc>1.441701</hAcc><vAcc>0.829872</vAcc></extensions></trkpt>
      <trkpt lon="-2.256303" lat="53.122824"><ele>105.164772</ele><time>2022-03-04T09:34:49Z</time><extensions><speed>1.249824</speed><course>220.119308</course><hAcc>1.438813</hAcc><vAcc>0.829864</vAcc></extensions></trkpt>
      <trkpt lon="-2.256315" lat="53.122816"><ele>105.191895</ele><time>2022-03-04T09:34:50Z</time><extensions><speed>1.264104</speed><course>224.949326</course><hAcc>1.449893</hAcc><vAcc>0.829850</vAcc></extensions></trkpt>
      <trkpt lon="-2.256328" lat="53.122808"><ele>105.222961</ele><time>2022-03-04T09:34:51Z</time><extensions><speed>1.210126</speed><course>225.606186</course><hAcc>1.446535</hAcc><vAcc>0.829838</vAcc></extensions></trkpt>
      <trkpt lon="-2.256341" lat="53.122800"><ele>105.263252</ele><time>2022-03-04T09:34:52Z</time><extensions><speed>1.319228</speed><course>223.009674</course><hAcc>1.462948</hAcc><vAcc>0.829828</vAcc></extensions></trkpt>
      <trkpt lon="-2.256355" lat="53.122792"><ele>105.305092</ele><time>2022-03-04T09:34:53Z</time><extensions><speed>1.358534</speed><course>225.018219</course><hAcc>1.466258</hAcc><vAcc>0.829824</vAcc></extensions></trkpt>
      <trkpt lon="-2.256369" lat="53.122783"><ele>105.354675</ele><time>2022-03-04T09:34:54Z</time><extensions><speed>1.368280</speed><course>223.100464</course><hAcc>1.460574</hAcc><vAcc>0.829821</vAcc></extensions></trkpt>
      <trkpt lon="-2.256382" lat="53.122774"><ele>105.400131</ele><time>2022-03-04T09:34:55Z</time><extensions><speed>1.343714</speed><course>222.262253</course><hAcc>1.456817</hAcc><vAcc>0.829811</vAcc></extensions></trkpt>
      <trkpt lon="-2.256396" lat="53.122766"><ele>105.441849</ele><time>2022-03-04T09:34:56Z</time><extensions><speed>1.385155</speed><course>222.974899</course><hAcc>1.460044</hAcc><vAcc>0.829807</vAcc></extensions></trkpt>
      <trkpt lon="-2.256409" lat="53.122757"><ele>105.486534</ele><time>2022-03-04T09:34:57Z</time><extensions><speed>1.365778</speed><course>222.128876</course><hAcc>1.451285</hAcc><vAcc>0.829807</vAcc></extensions></trkpt>
      <trkpt lon="-2.256423" lat="53.122748"><ele>105.539749</ele><time>2022-03-04T09:34:58Z</time><extensions><speed>1.396191</speed><course>221.486389</course><hAcc>1.446691</hAcc><vAcc>0.829797</vAcc></extensions></trkpt>
      <trkpt lon="-2.256437" lat="53.122739"><ele>105.589996</ele><time>2022-03-04T09:34:59Z</time><extensions><speed>1.398435</speed><course>222.675339</course><hAcc>1.446837</hAcc><vAcc>0.829792</vAcc></extensions></trkpt>
      <trkpt lon="-2.256451" lat="53.122729"><ele>105.618446</ele><time>2022-03-04T09:35:00Z</time><extensions><speed>1.530769</speed><course>223.653885</course><hAcc>1.473608</hAcc><vAcc>0.829790</vAcc></extensions></trkpt>
      <trkpt lon="-2.256466" lat="53.122720"><ele>105.647423</ele><time>2022-03-04T09:35:01Z</time><extensions><speed>1.433391</speed><course>224.680573</course><hAcc>1.453578</hAcc><vAcc>0.829780</vAcc></extensions></trkpt>
      <trkpt lon="-2.256481" lat="53.122711"><ele>105.676125</ele><time>2022-03-04T09:35:02Z</time><extensions><speed>1.368621</speed><course>226.050781</course><hAcc>1.442525</hAcc><vAcc>0.829771</vAcc></extensions></trkpt>
      <trkpt lon="-2.256496" lat="53.122703"><ele>105.695114</ele><time>2022-03-04T09:35:03Z</time><extensions><speed>1.447378</speed><course>224.238785</course><hAcc>1.464872</hAcc><vAcc>0.829765</vAcc></extensions></trkpt>
      <trkpt lon="-2.256510" lat="53.122693"><ele>105.713188</ele><time>2022-03-04T09:35:04Z</time><extensions><speed>1.442595</speed><course>221.169708</course><hAcc>1.465676</hAcc><vAcc>0.829776</vAcc></extensions></trkpt>
      <trkpt lon="-2.256524" lat="53.122684"><ele>105.726982</ele><time>2022-03-04T09:35:05Z</time><extensions><speed>1.392230</speed><course>223.079010</course><hAcc>1.460779</hAcc><vAcc>0.829786</vAcc></extensions></trkpt>
      <trkpt lon="-2.256537" lat="53.122675"><ele>105.732208</ele><time>2022-03-04T09:35:06Z</time><extensions><speed>1.326570</speed><course>224.480743</course><hAcc>1.452100</hAcc><vAcc>0.829810</vAcc></extensions></trkpt>
      <trkpt lon="-2.256551" lat="53.122667"><ele>105.729568</ele><time>2022-03-04T09:35:07Z</time><extensions><speed>1.321616</speed><course>225.477051</course><hAcc>1.458954</hAcc><vAcc>0.829844</vAcc></extensions></trkpt>
      <trkpt lon="-2.256564" lat="53.122659"><ele>105.723793</ele><time>2022-03-04T09:35:08Z</time><extensions><speed>1.286948</speed><course>226.894653</course><hAcc>1.456296</hAcc><vAcc>0.829897</vAcc></extensions></trkpt>
      <trkpt lon="-2.256578" lat="53.122652"><ele>105.712883</ele><time>2022-03-04T09:35:09Z</time><extensions><speed>1.264117</speed><course>227.015228</course><hAcc>1.452846</hAcc><vAcc>0.829955</vAcc></extensions></trkpt>
      <trkpt lon="-2.256591" lat="53.122644"><ele>105.697350</ele><time>2022-03-04T09:35:10Z</time><extensions><speed>1.322591</speed><course>226.312622</course><hAcc>1.465409</hAcc><vAcc>0.830045</vAcc></extensions></trkpt>
      <trkpt lon="-2.256605" lat="53.122636"><ele>105.681534</ele><time>2022-03-04T09:35:11Z</time><extensions><speed>1.347360</speed><course>225.527695</course><hAcc>1.464472</hAcc><vAcc>0.830126</vAcc></extensions></trkpt>
      <trkpt lon="-2.256619" lat="53.122628"><ele>105.672272</ele><time>2022-03-04T09:35:12Z</time><extensions><speed>1.301759</speed><course>228.410797</course><hAcc>1.463875</hAcc><vAcc>0.830254</vAcc></extensions></trkpt>
      <trkpt lon="-2.256633" lat="53.122620"><ele>105.658752</ele><time>2022-03-04T09:35:14Z</time><extensions><speed>1.221576</speed><course>225.340836</course><hAcc>1.462165</hAcc><vAcc>0.830383</vAcc></extensions></trkpt>
      <trkpt lon="-2.256644" lat="53.122613"><ele>105.644554</ele><time>2022-03-04T09:35:15Z</time><extensions><speed>1.106017</speed><course>221.636154</course><hAcc>1.448628</hAcc><vAcc>0.830489</vAcc></extensions></trkpt>
      <trkpt lon="-2.256654" lat="53.122606"><ele>105.624428</ele><time>2022-03-04T09:35:16Z</time><extensions><speed>1.161154</speed><course>217.318680</course><hAcc>1.450763</hAcc><vAcc>0.830594</vAcc></extensions></trkpt>
      <trkpt lon="-2.256664" lat="53.122597"><ele>105.622749</ele><time>2022-03-04T09:35:17Z</time><extensions><speed>1.229060</speed><course>214.916733</course><hAcc>1.454287</hAcc><vAcc>0.830726</vAcc></extensions></trkpt>
      <trkpt lon="-2.256675" lat="53.122588"><ele>105.626007</ele><time>2022-03-04T09:35:18Z</time><extensions><speed>1.309436</speed><course>213.360367</course><hAcc>1.458627</hAcc><vAcc>0.830839</vAcc></extensions></trkpt>
      <trkpt lon="-2.256684" lat="53.122579"><ele>105.624733</ele><time>2022-03-04T09:35:19Z</time><extensions><speed>1.263038</speed><course>211.550522</course><hAcc>1.443286</hAcc><vAcc>0.830947</vAcc></extensions></trkpt>
      <trkpt lon="-2.256694" lat="53.122570"><ele>105.628128</ele><time>2022-03-04T09:35:20Z</time><extensions><speed>1.333352</speed><course>211.717789</course><hAcc>1.437480</hAcc><vAcc>0.831029</vAcc></extensions></trkpt>
      <trkpt lon="-2.256704" lat="53.122560"><ele>105.614197</ele><time>2022-03-04T09:35:21Z</time><extensions><speed>1.314312</speed><course>212.552872</course><hAcc>1.419492</hAcc><vAcc>0.831115</vAcc></extensions></trkpt>
      <trkpt lon="-2.256715" lat="53.122551"><ele>105.604324</ele><time>2022-03-04T09:35:22Z</time><extensions><speed>1.333291</speed><course>213.235458</course><hAcc>1.412288</hAcc><vAcc>0.831185</vAcc></extensions></trkpt>
      <trkpt lon="-2.256726" lat="53.122541"><ele>105.599434</ele><time>2022-03-04T09:35:23Z</time><extensions><speed>1.373487</speed><course>211.648392</course><hAcc>1.414249</hAcc><vAcc>0.831222</vAcc></extensions></trkpt>
      <trkpt lon="-2.256736" lat="53.122531"><ele>105.599449</ele><time>2022-03-04T09:35:24Z</time><extensions><speed>1.347613</speed><course>208.570328</course><hAcc>1.408722</hAcc><vAcc>0.831227</vAcc></extensions></trkpt>
      <trkpt lon="-2.256745" lat="53.122521"><ele>105.609550</ele><time>2022-03-04T09:35:25Z</time><extensions><speed>1.263184</speed><course>205.157547</course><hAcc>1.411838</hAcc><vAcc>0.831205</vAcc></extensions></trkpt>
      <trkpt lon="-2.256753" lat="53.122511"><ele>105.616783</ele><time>2022-03-04T09:35:26Z</time><extensions><speed>1.236637</speed><course>205.046997</course><hAcc>1.418867</hAcc><vAcc>0.831161</vAcc></extensions></trkpt>
      <trkpt lon="-2.256762" lat="53.122501"><ele>105.620445</ele><time>2022-03-04T09:35:27Z</time><extensions><speed>1.327121</speed><course>207.967575</course><hAcc>1.446487</hAcc><vAcc>0.831098</vAcc></extensions></trkpt>
      <trkpt lon="-2.256771" lat="53.122492"><ele>105.632523</ele><time>2022-03-04T09:35:28Z</time><extensions><speed>1.055322</speed><course>213.906647</course><hAcc>1.453274</hAcc><vAcc>0.831013</vAcc></extensions></trkpt>
      <trkpt lon="-2.256780" lat="53.122486"><ele>105.638199</ele><time>2022-03-04T09:35:29Z</time><extensions><speed>0.748191</speed><course>234.473892</course><hAcc>1.470393</hAcc><vAcc>0.830917</vAcc></extensions></trkpt>
      <trkpt lon="-2.256790" lat="53.122484"><ele>105.642738</ele><time>2022-03-04T09:35:30Z</time><extensions><speed>0.777017</speed><course>272.745300</course><hAcc>1.473339</hAcc><vAcc>0.830831</vAcc></extensions></trkpt>
      <trkpt lon="-2.256804" lat="53.122485"><ele>105.647240</ele><time>2022-03-04T09:35:31Z</time><extensions><speed>1.080931</speed><course>280.142029</course><hAcc>1.513757</hAcc><vAcc>0.830756</vAcc></extensions></trkpt>
      <trkpt lon="-2.256822" lat="53.122488"><ele>105.648338</ele><time>2022-03-04T09:35:32Z</time><extensions><speed>1.333815</speed><course>288.721863</course><hAcc>1.530947</hAcc><vAcc>0.830678</vAcc></extensions></trkpt>
      <trkpt lon="-2.256841" lat="53.122492"><ele>105.657051</ele><time>2022-03-04T09:35:33Z</time><extensions><speed>1.417773</speed><course>290.010223</course><hAcc>1.572480</hAcc><vAcc>0.830615</vAcc></extensions></trkpt>
      <trkpt lon="-2.256860" lat="53.122497"><ele>105.663750</ele><time>2022-03-04T09:35:34Z</time><extensions><speed>1.377897</speed><course>293.434875</course><hAcc>1.595086</hAcc><vAcc>0.830564</vAcc></extensions></trkpt>
      <trkpt lon="-2.256879" lat="53.122502"><ele>105.659019</ele><time>2022-03-04T09:35:35Z</time><extensions><speed>1.434851</speed><course>295.512573</course><hAcc>1.587882</hAcc><vAcc>0.830524</vAcc></extensions></trkpt>
      <trkpt lon="-2.256899" lat="53.122507"><ele>105.655312</ele><time>2022-03-04T09:35:36Z</time><extensions><speed>1.393433</speed><course>294.627319</course><hAcc>1.614828</hAcc><vAcc>0.830486</vAcc></extensions></trkpt>
      <trkpt lon="-2.256917" lat="53.122513"><ele>105.647949</ele><time>2022-03-04T09:35:37Z</time><extensions><speed>1.335936</speed><course>296.481537</course><hAcc>1.620849</hAcc><vAcc>0.830442</vAcc></extensions></trkpt>
      <trkpt lon="-2.256935" lat="53.122518"><ele>105.637939</ele><time>2022-03-04T09:35:38Z</time><extensions><speed>1.334055</speed><course>296.734497</course><hAcc>1.605729</hAcc><vAcc>0.830402</vAcc></extensions></trkpt>
      <trkpt lon="-2.256952" lat="53.122523"><ele>105.632072</ele><time>2022-03-04T09:35:39Z</time><extensions><speed>1.280606</speed><course>295.348938</course><hAcc>1.619932</hAcc><vAcc>0.830369</vAcc></extensions></trkpt>
      <trkpt lon="-2.256970" lat="53.122528"><ele>105.612846</ele><time>2022-03-04T09:35:40Z</time><extensions><speed>1.234006</speed><course>293.114227</course><hAcc>1.645411</hAcc><vAcc>0.830330</vAcc></extensions></trkpt>
      <trkpt lon="-2.256986" lat="53.122532"><ele>105.584488</ele><time>2022-03-04T09:35:41Z</time><extensions><speed>1.182078</speed><course>294.119324</course><hAcc>1.637944</hAcc><vAcc>0.830286</vAcc></extensions></trkpt>
      <trkpt lon="-2.257002" lat="53.122536"><ele>105.554039</ele><time>2022-03-04T09:35:42Z</time><extensions><speed>1.129379</speed><course>293.868958</course><hAcc>1.643667</hAcc><vAcc>0.830236</vAcc></extensions></trkpt>
      <trkpt lon="-2.257017" lat="53.122540"><ele>105.525154</ele><time>2022-03-04T09:35:43Z</time><extensions><speed>1.071012</speed><course>292.876984</course><hAcc>1.659093</hAcc><vAcc>0.830184</vAcc></extensions></trkpt>
      <trkpt lon="-2.257032" lat="53.122544"><ele>105.469872</ele><time>2022-03-04T09:35:44Z</time><extensions><speed>1.081749</speed><course>293.494995</course><hAcc>1.668042</hAcc><vAcc>0.830127</vAcc></extensions></trkpt>
      <trkpt lon="-2.257048" lat="53.122548"><ele>105.412498</ele><time>2022-03-04T09:35:45Z</time><extensions><speed>1.196254</speed><course>292.846497</course><hAcc>1.644629</hAcc><vAcc>0.830073</vAcc></extensions></trkpt>
      <trkpt lon="-2.257065" lat="53.122552"><ele>105.352592</ele><time>2022-03-04T09:35:46Z</time><extensions><speed>1.284258</speed><course>291.038574</course><hAcc>1.637032</hAcc><vAcc>0.830019</vAcc></extensions></trkpt>
      <trkpt lon="-2.257083" lat="53.122556"><ele>105.292915</ele><time>2022-03-04T09:35:47Z</time><extensions><speed>1.311238</speed><course>286.961243</course><hAcc>1.646894</hAcc><vAcc>0.829995</vAcc></extensions></trkpt>
      <trkpt lon="-2.257102" lat="53.122559"><ele>105.214783</ele><time>2022-03-04T09:35:48Z</time><extensions><speed>1.315582</speed><course>282.954071</course><hAcc>1.664107</hAcc><vAcc>0.829971</vAcc></extensions></trkpt>
      <trkpt lon="-2.257122" lat="53.122562"><ele>105.136627</ele><time>2022-03-04T09:35:49Z</time><extensions><speed>1.387176</speed><course>281.804810</course><hAcc>1.682982</hAcc><vAcc>0.829959</vAcc></extensions></trkpt>
      <trkpt lon="-2.257142" lat="53.122564"><ele>105.068718</ele><time>2022-03-04T09:35:50Z</time><extensions><speed>1.365718</speed><course>281.652893</course><hAcc>1.653296</hAcc><vAcc>0.829955</vAcc></extensions></trkpt>
      <trkpt lon="-2.257161" lat="53.122567"><ele>105.006111</ele><time>2022-03-04T09:35:51Z</time><extensions><speed>1.300813</speed><course>282.815002</course><hAcc>1.640969</hAcc><vAcc>0.829972</vAcc></extensions></trkpt>
      <trkpt lon="-2.257180" lat="53.122570"><ele>104.911873</ele><time>2022-03-04T09:35:52Z</time><extensions><speed>1.266352</speed><course>284.716949</course><hAcc>1.643861</hAcc><vAcc>0.829991</vAcc></extensions></trkpt>
      <trkpt lon="-2.257198" lat="53.122573"><ele>104.830399</ele><time>2022-03-04T09:35:53Z</time><extensions><speed>1.266646</speed><course>285.534729</course><hAcc>1.647206</hAcc><vAcc>0.830027</vAcc></extensions></trkpt>
      <trkpt lon="-2.257217" lat="53.122576"><ele>104.744301</ele><time>2022-03-04T09:35:54Z</time><extensions><speed>1.287931</speed><course>285.091583</course><hAcc>1.640572</hAcc><vAcc>0.830067</vAcc></extensions></trkpt>
      <trkpt lon="-2.257236" lat="53.122579"><ele>104.675133</ele><time>2022-03-04T09:35:55Z</time><extensions><speed>1.320077</speed><course>284.858246</course><hAcc>1.633062</hAcc><vAcc>0.830110</vAcc></extensions></trkpt>
      <trkpt lon="-2.257255" lat="53.122582"><ele>104.594925</ele><time>2022-03-04T09:35:56Z</time><extensions><speed>1.327782</speed><course>284.615936</course><hAcc>1.658413</hAcc><vAcc>0.830151</vAcc></extensions></trkpt>
      <trkpt lon="-2.257273" lat="53.122585"><ele>104.501923</ele><time>2022-03-04T09:35:57Z</time><extensions><speed>1.265493</speed><course>285.198669</course><hAcc>1.648827</hAcc><vAcc>0.830175</vAcc></extensions></trkpt>
      <trkpt lon="-2.257291" lat="53.122588"><ele>104.419273</ele><time>2022-03-04T09:35:58Z</time><extensions><speed>1.248946</speed><course>288.191589</course><hAcc>1.635482</hAcc><vAcc>0.830190</vAcc></extensions></trkpt>
      <trkpt lon="-2.257309" lat="53.122592"><ele>104.348473</ele><time>2022-03-04T09:35:59Z</time><extensions><speed>1.255043</speed><course>290.947632</course><hAcc>1.621826</hAcc><vAcc>0.830198</vAcc></extensions></trkpt>
      <trkpt lon="-2.257326" lat="53.122596"><ele>104.276947</ele><time>2022-03-04T09:36:00Z</time><extensions><speed>1.250313</speed><course>291.608734</course><hAcc>1.601684</hAcc><vAcc>0.830189</vAcc></extensions></trkpt>
      <trkpt lon="-2.257343" lat="53.122600"><ele>104.197670</ele><time>2022-03-04T09:36:01Z</time><extensions><speed>1.269418</speed><course>291.383972</course><hAcc>1.582349</hAcc><vAcc>0.830170</vAcc></extensions></trkpt>
      <trkpt lon="-2.257361" lat="53.122604"><ele>104.125381</ele><time>2022-03-04T09:36:02Z</time><extensions><speed>1.319085</speed><course>288.931519</course><hAcc>1.561101</hAcc><vAcc>0.830141</vAcc></extensions></trkpt>
      <trkpt lon="-2.257380" lat="53.122608"><ele>104.048676</ele><time>2022-03-04T09:36:03Z</time><extensions><speed>1.490339</speed><course>287.707825</course><hAcc>1.549068</hAcc><vAcc>0.830090</vAcc></extensions></trkpt>
      <trkpt lon="-2.257402" lat="53.122612"><ele>103.965553</ele><time>2022-03-04T09:36:04Z</time><extensions><speed>1.565094</speed><course>288.037933</course><hAcc>1.543479</hAcc><vAcc>0.830039</vAcc></extensions></trkpt>
      <trkpt lon="-2.257424" lat="53.122616"><ele>103.876518</ele><time>2022-03-04T09:36:05Z</time><extensions><speed>1.563566</speed><course>287.037262</course><hAcc>1.528065</hAcc><vAcc>0.829979</vAcc></extensions></trkpt>
      <trkpt lon="-2.257446" lat="53.122620"><ele>103.786369</ele><time>2022-03-04T09:36:06Z</time><extensions><speed>1.546041</speed><course>286.184082</course><hAcc>1.502004</hAcc><vAcc>0.829911</vAcc></extensions></trkpt>
      <trkpt lon="-2.257467" lat="53.122623"><ele>103.699493</ele><time>2022-03-04T09:36:07Z</time><extensions><speed>1.488260</speed><course>286.265808</course><hAcc>1.471465</hAcc><vAcc>0.829839</vAcc></extensions></trkpt>
      <trkpt lon="-2.257488" lat="53.122627"><ele>103.618599</ele><time>2022-03-04T09:36:08Z</time><extensions><speed>1.484407</speed><course>287.805969</course><hAcc>1.467418</hAcc><vAcc>0.829766</vAcc></extensions></trkpt>
      <trkpt lon="-2.257508" lat="53.122631"><ele>103.531830</ele><time>2022-03-04T09:36:09Z</time><extensions><speed>1.466000</speed><course>289.739960</course><hAcc>1.451357</hAcc><vAcc>0.829697</vAcc></extensions></trkpt>
      <trkpt lon="-2.257529" lat="53.122636"><ele>103.432701</ele><time>2022-03-04T09:36:10Z</time><extensions><speed>1.525922</speed><course>290.180786</course><hAcc>1.461346</hAcc><vAcc>0.829633</vAcc></extensions></trkpt>
      <trkpt lon="-2.257550" lat="53.122640"><ele>103.331039</ele><time>2022-03-04T09:36:11Z</time><extensions><speed>1.528680</speed><course>288.883667</course><hAcc>1.464203</hAcc><vAcc>0.829577</vAcc></extensions></trkpt>
      <trkpt lon="-2.257571" lat="53.122645"><ele>103.226913</ele><time>2022-03-04T09:36:12Z</time><extensions><speed>1.458705</speed><course>289.651093</course><hAcc>1.448063</hAcc><vAcc>0.829528</vAcc></extensions></trkpt>
      <trkpt lon="-2.257591" lat="53.122649"><ele>103.124275</ele><time>2022-03-04T09:36:13Z</time><extensions><speed>1.514804</speed><course>290.098480</course><hAcc>1.465278</hAcc><vAcc>0.829505</vAcc></extensions></trkpt>
      <trkpt lon="-2.257611" lat="53.122654"><ele>103.031311</ele><time>2022-03-04T09:36:14Z</time><extensions><speed>1.376945</speed><course>288.619171</course><hAcc>1.453919</hAcc><vAcc>0.829487</vAcc></extensions></trkpt>
      <trkpt lon="-2.257631" lat="53.122657"><ele>102.928925</ele><time>2022-03-04T09:36:15Z</time><extensions><speed>1.396829</speed><course>287.913666</course><hAcc>1.467887</hAcc><vAcc>0.829495</vAcc></extensions></trkpt>
      <trkpt lon="-2.257650" lat="53.122661"><ele>102.823555</ele><time>2022-03-04T09:36:16Z</time><extensions><speed>1.387376</speed><course>289.137726</course><hAcc>1.475359</hAcc><vAcc>0.829529</vAcc></extensions></trkpt>
      <trkpt lon="-2.257669" lat="53.122665"><ele>102.727051</ele><time>2022-03-04T09:36:17Z</time><extensions><speed>1.342426</speed><course>288.168793</course><hAcc>1.473853</hAcc><vAcc>0.829567</vAcc></extensions></trkpt>
      <trkpt lon="-2.257688" lat="53.122669"><ele>102.638832</ele><time>2022-03-04T09:36:18Z</time><extensions><speed>1.352569</speed><course>286.084808</course><hAcc>1.490705</hAcc><vAcc>0.829616</vAcc></extensions></trkpt>
      <trkpt lon="-2.257706" lat="53.122672"><ele>102.540031</ele><time>2022-03-04T09:36:19Z</time><extensions><speed>1.279826</speed><course>283.904358</course><hAcc>1.474471</hAcc><vAcc>0.829680</vAcc></extensions></trkpt>
      <trkpt lon="-2.257724" lat="53.122674"><ele>102.430809</ele><time>2022-03-04T09:36:20Z</time><extensions><speed>1.279142</speed><course>284.559906</course><hAcc>1.474068</hAcc><vAcc>0.829754</vAcc></extensions></trkpt>
      <trkpt lon="-2.257742" lat="53.122677"><ele>102.334511</ele><time>2022-03-04T09:36:21Z</time><extensions><speed>1.271535</speed><course>285.670807</course><hAcc>1.470685</hAcc><vAcc>0.829828</vAcc></extensions></trkpt>
      <trkpt lon="-2.257761" lat="53.122681"><ele>102.248657</ele><time>2022-03-04T09:36:22Z</time><extensions><speed>1.360188</speed><course>289.501801</course><hAcc>1.480076</hAcc><vAcc>0.829908</vAcc></extensions></trkpt>
      <trkpt lon="-2.257779" lat="53.122685"><ele>102.168587</ele><time>2022-03-04T09:36:23Z</time><extensions><speed>1.380500</speed><course>290.632874</course><hAcc>1.478248</hAcc><vAcc>0.829982</vAcc></extensions></trkpt>
      <trkpt lon="-2.257798" lat="53.122689"><ele>102.098938</ele><time>2022-03-04T09:36:24Z</time><extensions><speed>1.354662</speed><course>289.518799</course><hAcc>1.467963</hAcc><vAcc>0.830052</vAcc></extensions></trkpt>
      <trkpt lon="-2.257816" lat="53.122693"><ele>102.011246</ele><time>2022-03-04T09:36:25Z</time><extensions><speed>1.302342</speed><course>289.882904</course><hAcc>1.451295</hAcc><vAcc>0.830113</vAcc></extensions></trkpt>
      <trkpt lon="-2.257835" lat="53.122697"><ele>101.935951</ele><time>2022-03-04T09:36:26Z</time><extensions><speed>1.324309</speed><course>289.863770</course><hAcc>1.460190</hAcc><vAcc>0.830151</vAcc></extensions></trkpt>
      <trkpt lon="-2.257853" lat="53.122701"><ele>101.864471</ele><time>2022-03-04T09:36:27Z</time><extensions><speed>1.335528</speed><course>293.384644</course><hAcc>1.469437</hAcc><vAcc>0.830172</vAcc></extensions></trkpt>
      <trkpt lon="-2.257871" lat="53.122706"><ele>101.804092</ele><time>2022-03-04T09:36:28Z</time><extensions><speed>1.370217</speed><course>292.220947</course><hAcc>1.477632</hAcc><vAcc>0.830167</vAcc></extensions></trkpt>
      <trkpt lon="-2.257889" lat="53.122710"><ele>101.758102</ele><time>2022-03-04T09:36:29Z</time><extensions><speed>1.293422</speed><course>289.604553</course><hAcc>1.453368</hAcc><vAcc>0.830137</vAcc></extensions></trkpt>
      <trkpt lon="-2.257908" lat="53.122713"><ele>101.714622</ele><time>2022-03-04T09:36:30Z</time><extensions><speed>1.325650</speed><course>288.217163</course><hAcc>1.465713</hAcc><vAcc>0.830094</vAcc></extensions></trkpt>
      <trkpt lon="-2.257927" lat="53.122717"><ele>101.671265</ele><time>2022-03-04T09:36:31Z</time><extensions><speed>1.445839</speed><course>288.912842</course><hAcc>1.500246</hAcc><vAcc>0.830044</vAcc></extensions></trkpt>
      <trkpt lon="-2.257947" lat="53.122721"><ele>101.624130</ele><time>2022-03-04T09:36:32Z</time><extensions><speed>1.378893</speed><course>288.685150</course><hAcc>1.491213</hAcc><vAcc>0.829985</vAcc></extensions></trkpt>
      <trkpt lon="-2.257966" lat="53.122725"><ele>101.592575</ele><time>2022-03-04T09:36:32Z</time><extensions><speed>1.369590</speed><course>286.928619</course><hAcc>1.504489</hAcc><vAcc>0.829917</vAcc></extensions></trkpt>
      <trkpt lon="-2.257985" lat="53.122728"><ele>101.561485</ele><time>2022-03-04T09:36:33Z</time><extensions><speed>1.324463</speed><course>282.204071</course><hAcc>1.494308</hAcc><vAcc>0.829845</vAcc></extensions></trkpt>
      <trkpt lon="-2.258004" lat="53.122730"><ele>101.540749</ele><time>2022-03-04T09:36:34Z</time><extensions><speed>1.213701</speed><course>280.901733</course><hAcc>1.480676</hAcc><vAcc>0.829776</vAcc></extensions></trkpt>
      <trkpt lon="-2.258021" lat="53.122732"><ele>101.526993</ele><time>2022-03-04T09:36:35Z</time><extensions><speed>1.199787</speed><course>283.370758</course><hAcc>1.489902</hAcc><vAcc>0.829684</vAcc></extensions></trkpt>
      <trkpt lon="-2.258039" lat="53.122735"><ele>101.514526</ele><time>2022-03-04T09:36:36Z</time><extensions><speed>1.316452</speed><course>286.612793</course><hAcc>1.524005</hAcc><vAcc>0.829613</vAcc></extensions></trkpt>
      <trkpt lon="-2.258058" lat="53.122738"><ele>101.503822</ele><time>2022-03-04T09:36:37Z</time><extensions><speed>1.329486</speed><course>285.972229</course><hAcc>1.505515</hAcc><vAcc>0.829551</vAcc></extensions></trkpt>
      <trkpt lon="-2.258078" lat="53.122742"><ele>101.477119</ele><time>2022-03-04T09:36:38Z</time><extensions><speed>1.463979</speed><course>287.653564</course><hAcc>1.528261</hAcc><vAcc>0.829496</vAcc></extensions></trkpt>
      <trkpt lon="-2.258099" lat="53.122746"><ele>101.451782</ele><time>2022-03-04T09:36:39Z</time><extensions><speed>1.454757</speed><course>289.687408</course><hAcc>1.539240</hAcc><vAcc>0.829449</vAcc></extensions></trkpt>
      <trkpt lon="-2.258119" lat="53.122750"><ele>101.439713</ele><time>2022-03-04T09:36:40Z</time><extensions><speed>1.389188</speed><course>288.744843</course><hAcc>1.540753</hAcc><vAcc>0.829413</vAcc></extensions></trkpt>
      <trkpt lon="-2.258138" lat="53.122754"><ele>101.431007</ele><time>2022-03-04T09:36:41Z</time><extensions><speed>1.289005</speed><course>287.645538</course><hAcc>1.562783</hAcc><vAcc>0.829386</vAcc></extensions></trkpt>
      <trkpt lon="-2.258155" lat="53.122757"><ele>101.420891</ele><time>2022-03-04T09:36:42Z</time><extensions><speed>1.121073</speed><course>284.935822</course><hAcc>1.590234</hAcc><vAcc>0.829358</vAcc></extensions></trkpt>
      <trkpt lon="-2.258169" lat="53.122759"><ele>101.409813</ele><time>2022-03-04T09:36:43Z</time><extensions><speed>0.796272</speed><course>278.147675</course><hAcc>1.616211</hAcc><vAcc>0.829330</vAcc></extensions></trkpt>
      <trkpt lon="-2.258179" lat="53.122759"><ele>101.400017</ele><time>2022-03-04T09:36:44Z</time><extensions><speed>0.494800</speed><course>268.369476</course><hAcc>1.645431</hAcc><vAcc>0.829304</vAcc></extensions></trkpt>
      <trkpt lon="-2.258188" lat="53.122759"><ele>101.392342</ele><time>2022-03-04T09:36:45Z</time><extensions><speed>0.673228</speed><course>268.443726</course><hAcc>1.660232</hAcc><vAcc>0.829277</vAcc></extensions></trkpt>
      <trkpt lon="-2.258199" lat="53.122759"><ele>101.387314</ele><time>2022-03-04T09:36:46Z</time><extensions><speed>0.832697</speed><course>267.803711</course><hAcc>1.680345</hAcc><vAcc>0.829247</vAcc></extensions></trkpt>
      <trkpt lon="-2.258213" lat="53.122758"><ele>101.384224</ele><time>2022-03-04T09:36:47Z</time><extensions><speed>1.005323</speed><course>268.204224</course><hAcc>1.687875</hAcc><vAcc>0.829215</vAcc></extensions></trkpt>
      <trkpt lon="-2.258228" lat="53.122758"><ele>101.391602</ele><time>2022-03-04T09:36:48Z</time><extensions><speed>1.079565</speed><course>266.461914</course><hAcc>1.679397</hAcc><vAcc>0.829176</vAcc></extensions></trkpt>
      <trkpt lon="-2.258244" lat="53.122757"><ele>101.398354</ele><time>2022-03-04T09:36:49Z</time><extensions><speed>1.098142</speed><course>262.244049</course><hAcc>1.656878</hAcc><vAcc>0.829128</vAcc></extensions></trkpt>
      <trkpt lon="-2.258261" lat="53.122755"><ele>101.401237</ele><time>2022-03-04T09:36:50Z</time><extensions><speed>1.156735</speed><course>259.244476</course><hAcc>1.640343</hAcc><vAcc>0.829076</vAcc></extensions></trkpt>
      <trkpt lon="-2.258277" lat="53.122753"><ele>101.407257</ele><time>2022-03-04T09:36:51Z</time><extensions><speed>1.129316</speed><course>257.726654</course><hAcc>1.641407</hAcc><vAcc>0.829004</vAcc></extensions></trkpt>
      <trkpt lon="-2.258294" lat="53.122750"><ele>101.419846</ele><time>2022-03-04T09:36:52Z</time><extensions><speed>1.148663</speed><course>250.037369</course><hAcc>1.573103</hAcc><vAcc>0.828922</vAcc></extensions></trkpt>
      <trkpt lon="-2.258309" lat="53.122747"><ele>101.433975</ele><time>2022-03-04T09:36:53Z</time><extensions><speed>1.112470</speed><course>246.531738</course><hAcc>1.545629</hAcc><vAcc>0.828838</vAcc></extensions></trkpt>
      <trkpt lon="-2.258323" lat="53.122743"><ele>101.443260</ele><time>2022-03-04T09:36:54Z</time><extensions><speed>0.999316</speed><course>247.585083</course><hAcc>1.593809</hAcc><vAcc>0.828750</vAcc></extensions></trkpt>
      <trkpt lon="-2.258336" lat="53.122739"><ele>101.448601</ele><time>2022-03-04T09:36:55Z</time><extensions><speed>0.965312</speed><course>239.815445</course><hAcc>1.616600</hAcc><vAcc>0.828659</vAcc></extensions></trkpt>
      <trkpt lon="-2.258348" lat="53.122735"><ele>101.455078</ele><time>2022-03-04T09:36:56Z</time><extensions><speed>0.993891</speed><course>234.501205</course><hAcc>1.555482</hAcc><vAcc>0.828571</vAcc></extensions></trkpt>
      <trkpt lon="-2.258361" lat="53.122729"><ele>101.456757</ele><time>2022-03-04T09:36:57Z</time><extensions><speed>1.086282</speed><course>231.730377</course><hAcc>1.523828</hAcc><vAcc>0.828480</vAcc></extensions></trkpt>
      <trkpt lon="-2.258374" lat="53.122723"><ele>101.459412</ele><time>2022-03-04T09:36:58Z</time><extensions><speed>1.189195</speed><course>231.346085</course><hAcc>1.531740</hAcc><vAcc>0.828397</vAcc></extensions></trkpt>
      <trkpt lon="-2.258388" lat="53.122716"><ele>101.465988</ele><time>2022-03-04T09:36:59Z</time><extensions><speed>1.267272</speed><course>233.396011</course><hAcc>1.545516</hAcc><vAcc>0.828311</vAcc></extensions></trkpt>
      <trkpt lon="-2.258404" lat="53.122710"><ele>101.466095</ele><time>2022-03-04T09:37:00Z</time><extensions><speed>1.383428</speed><course>236.944565</course><hAcc>1.559567</hAcc><vAcc>0.828227</vAcc></extensions></trkpt>
      <trkpt lon="-2.258421" lat="53.122703"><ele>101.465500</ele><time>2022-03-04T09:37:01Z</time><extensions><speed>1.417165</speed><course>236.684723</course><hAcc>1.545537</hAcc><vAcc>0.828143</vAcc></extensions></trkpt>
      <trkpt lon="-2.258439" lat="53.122696"><ele>101.461479</ele><time>2022-03-04T09:37:02Z</time><extensions><speed>1.456810</speed><course>236.345352</course><hAcc>1.537789</hAcc><vAcc>0.828058</vAcc></extensions></trkpt>
      <trkpt lon="-2.258456" lat="53.122689"><ele>101.454018</ele><time>2022-03-04T09:37:03Z</time><extensions><speed>1.380350</speed><course>236.525192</course><hAcc>1.515145</hAcc><vAcc>0.827983</vAcc></extensions></trkpt>
      <trkpt lon="-2.258473" lat="53.122682"><ele>101.439346</ele><time>2022-03-04T09:37:04Z</time><extensions><speed>1.383203</speed><course>236.458664</course><hAcc>1.522203</hAcc><vAcc>0.827907</vAcc></extensions></trkpt>
      <trkpt lon="-2.258490" lat="53.122676"><ele>101.419121</ele><time>2022-03-04T09:37:05Z</time><extensions><speed>1.455751</speed><course>238.665680</course><hAcc>1.543040</hAcc><vAcc>0.827840</vAcc></extensions></trkpt>
      <trkpt lon="-2.258508" lat="53.122670"><ele>101.396622</ele><time>2022-03-04T09:37:06Z</time><extensions><speed>1.321648</speed><course>241.710770</course><hAcc>1.508485</hAcc><vAcc>0.827779</vAcc></extensions></trkpt>
      <trkpt lon="-2.258525" lat="53.122664"><ele>101.377029</ele><time>2022-03-04T09:37:07Z</time><extensions><speed>1.310246</speed><course>244.238510</course><hAcc>1.510402</hAcc><vAcc>0.827729</vAcc></extensions></trkpt>
      <trkpt lon="-2.258543" lat="53.122659"><ele>101.364922</ele><time>2022-03-04T09:37:08Z</time><extensions><speed>1.350594</speed><course>245.235580</course><hAcc>1.537324</hAcc><vAcc>0.827688</vAcc></extensions></trkpt>
      <trkpt lon="-2.258561" lat="53.122655"><ele>101.349403</ele><time>2022-03-04T09:37:09Z</time><extensions><speed>1.320916</speed><course>247.547897</course><hAcc>1.532971</hAcc><vAcc>0.827665</vAcc></extensions></trkpt>
      <trkpt lon="-2.258579" lat="53.122650"><ele>101.331322</ele><time>2022-03-04T09:37:10Z</time><extensions><speed>1.255456</speed><course>248.802841</course><hAcc>1.534179</hAcc><vAcc>0.827648</vAcc></extensions></trkpt>
      <trkpt lon="-2.258596" lat="53.122646"><ele>101.318832</ele><time>2022-03-04T09:37:11Z</time><extensions><speed>1.281783</speed><course>250.144913</course><hAcc>1.549314</hAcc><vAcc>0.827639</vAcc></extensions></trkpt>
      <trkpt lon="-2.258613" lat="53.122643"><ele>101.307793</ele><time>2022-03-04T09:37:12Z</time><extensions><speed>1.247096</speed><course>250.213303</course><hAcc>1.551356</hAcc><vAcc>0.827636</vAcc></extensions></trkpt>
      <trkpt lon="-2.258630" lat="53.122639"><ele>101.291191</ele><time>2022-03-04T09:37:13Z</time><extensions><speed>1.197435</speed><course>250.681549</course><hAcc>1.547620</hAcc><vAcc>0.827644</vAcc></extensions></trkpt>
      <trkpt lon="-2.258647" lat="53.122636"><ele>101.276291</ele><time>2022-03-04T09:37:14Z</time><extensions><speed>1.177827</speed><course>251.068222</course><hAcc>1.540036</hAcc><vAcc>0.827666</vAcc></extensions></trkpt>
      <trkpt lon="-2.258663" lat="53.122632"><ele>101.266785</ele><time>2022-03-04T09:37:15Z</time><extensions><speed>1.176547</speed><course>250.131958</course><hAcc>1.535127</hAcc><vAcc>0.827682</vAcc></extensions></trkpt>
      <trkpt lon="-2.258680" lat="53.122628"><ele>101.259010</ele><time>2022-03-04T09:37:16Z</time><extensions><speed>1.285936</speed><course>247.490662</course><hAcc>1.557293</hAcc><vAcc>0.827706</vAcc></extensions></trkpt>
      <trkpt lon="-2.258697" lat="53.122624"><ele>101.256355</ele><time>2022-03-04T09:37:17Z</time><extensions><speed>1.322433</speed><course>247.544785</course><hAcc>1.540028</hAcc><vAcc>0.827742</vAcc></extensions></trkpt>
      <trkpt lon="-2.258715" lat="53.122620"><ele>101.259453</ele><time>2022-03-04T09:37:18Z</time><extensions><speed>1.308357</speed><course>246.448410</course><hAcc>1.529208</hAcc><vAcc>0.827774</vAcc></extensions></trkpt>
      <trkpt lon="-2.258733" lat="53.122615"><ele>101.267097</ele><time>2022-03-04T09:37:20Z</time><extensions><speed>1.304537</speed><course>246.682510</course><hAcc>1.526991</hAcc><vAcc>0.827789</vAcc></extensions></trkpt>
      <trkpt lon="-2.258751" lat="53.122610"><ele>101.272537</ele><time>2022-03-04T09:37:21Z</time><extensions><speed>1.350512</speed><course>246.329239</course><hAcc>1.524774</hAcc><vAcc>0.827786</vAcc></extensions></trkpt>
      <trkpt lon="-2.258770" lat="53.122605"><ele>101.277390</ele><time>2022-03-04T09:37:22Z</time><extensions><speed>1.338923</speed><course>245.869507</course><hAcc>1.536839</hAcc><vAcc>0.827786</vAcc></extensions></trkpt>
      <trkpt lon="-2.258788" lat="53.122600"><ele>101.280716</ele><time>2022-03-04T09:37:23Z</time><extensions><speed>1.355006</speed><course>245.597366</course><hAcc>1.552117</hAcc><vAcc>0.827775</vAcc></extensions></trkpt>
      <trkpt lon="-2.258806" lat="53.122596"><ele>101.293823</ele><time>2022-03-04T09:37:24Z</time><extensions><speed>1.301430</speed><course>248.689194</course><hAcc>1.551190</hAcc><vAcc>0.827766</vAcc></extensions></trkpt>
      <trkpt lon="-2.258824" lat="53.122592"><ele>101.309090</ele><time>2022-03-04T09:37:25Z</time><extensions><speed>1.218675</speed><course>249.876587</course><hAcc>1.564363</hAcc><vAcc>0.827757</vAcc></extensions></trkpt>
      <trkpt lon="-2.258839" lat="53.122588"><ele>101.324181</ele><time>2022-03-04T09:37:26Z</time><extensions><speed>1.016178</speed><course>252.009155</course><hAcc>1.557533</hAcc><vAcc>0.827735</vAcc></extensions></trkpt>
      <trkpt lon="-2.258853" lat="53.122586"><ele>101.342735</ele><time>2022-03-04T09:37:27Z</time><extensions><speed>0.926939</speed><course>253.309540</course><hAcc>1.576002</hAcc><vAcc>0.827720</vAcc></extensions></trkpt>
      <trkpt lon="-2.258867" lat="53.122583"><ele>101.369499</ele><time>2022-03-04T09:37:28Z</time><extensions><speed>0.998897</speed><course>252.153564</course><hAcc>1.623141</hAcc><vAcc>0.827694</vAcc></extensions></trkpt>
      <trkpt lon="-2.258882" lat="53.122580"><ele>101.400719</ele><time>2022-03-04T09:37:29Z</time><extensions><speed>1.073597</speed><course>252.449432</course><hAcc>1.614034</hAcc><vAcc>0.827666</vAcc></extensions></trkpt>
      <trkpt lon="-2.258897" lat="53.122578"><ele>101.430275</ele><time>2022-03-04T09:37:30Z</time><extensions><speed>1.087089</speed><course>251.724152</course><hAcc>1.604044</hAcc><vAcc>0.827633</vAcc></extensions></trkpt>
      <trkpt lon="-2.258912" lat="53.122574"><ele>101.460999</ele><time>2022-03-04T09:37:31Z</time><extensions><speed>1.132496</speed><course>251.086884</course><hAcc>1.614631</hAcc><vAcc>0.827603</vAcc></extensions></trkpt>
      <trkpt lon="-2.258929" lat="53.122571"><ele>101.491478</ele><time>2022-03-04T09:37:32Z</time><extensions><speed>1.205717</speed><course>249.952576</course><hAcc>1.630337</hAcc><vAcc>0.827570</vAcc></extensions></trkpt>
      <trkpt lon="-2.258946" lat="53.122567"><ele>101.525375</ele><time>2022-03-04T09:37:33Z</time><extensions><speed>1.375538</speed><course>248.663940</course><hAcc>1.604647</hAcc><vAcc>0.827543</vAcc></extensions></trkpt>
      <trkpt lon="-2.258966" lat="53.122562"><ele>101.556023</ele><time>2022-03-04T09:37:34Z</time><extensions><speed>1.521355</speed><course>247.546555</course><hAcc>1.594439</hAcc><vAcc>0.827512</vAcc></extensions></trkpt>
      <trkpt lon="-2.258987" lat="53.122557"><ele>101.592346</ele><time>2022-03-04T09:37:35Z</time><extensions><speed>1.529244</speed><course>246.325195</course><hAcc>1.582924</hAcc><vAcc>0.827486</vAcc></extensions></trkpt>
      <trkpt lon="-2.259008" lat="53.122551"><ele>101.624313</ele><time>2022-03-04T09:37:36Z</time><extensions><speed>1.520388</speed><course>246.332626</course><hAcc>1.578987</hAcc><vAcc>0.827466</vAcc></extensions></trkpt>
      <trkpt lon="-2.259028" lat="53.122546"><ele>101.650146</ele><time>2022-03-04T09:37:37Z</time><extensions><speed>1.514662</speed><course>247.023438</course><hAcc>1.570850</hAcc><vAcc>0.827447</vAcc></extensions></trkpt>
      <trkpt lon="-2.259049" lat="53.122541"><ele>101.674286</ele><time>2022-03-04T09:37:38Z</time><extensions><speed>1.557702</speed><course>248.895401</course><hAcc>1.579929</hAcc><vAcc>0.827437</vAcc></extensions></trkpt>
      <trkpt lon="-2.259070" lat="53.122536"><ele>101.690140</ele><time>2022-03-04T09:37:39Z</time><extensions><speed>1.477552</speed><course>249.689865</course><hAcc>1.546571</hAcc><vAcc>0.827438</vAcc></extensions></trkpt>
      <trkpt lon="-2.259091" lat="53.122531"><ele>101.692467</ele><time>2022-03-04T09:37:40Z</time><extensions><speed>1.468305</speed><course>248.994125</course><hAcc>1.532084</hAcc><vAcc>0.827444</vAcc></extensions></trkpt>
      <trkpt lon="-2.259111" lat="53.122527"><ele>101.695305</ele><time>2022-03-04T09:37:41Z</time><extensions><speed>1.485771</speed><course>247.839813</course><hAcc>1.539730</hAcc><vAcc>0.827464</vAcc></extensions></trkpt>
      <trkpt lon="-2.259131" lat="53.122522"><ele>101.704712</ele><time>2022-03-04T09:37:42Z</time><extensions><speed>1.492969</speed><course>248.876450</course><hAcc>1.555953</hAcc><vAcc>0.827493</vAcc></extensions></trkpt>
      <trkpt lon="-2.259152" lat="53.122517"><ele>101.695061</ele><time>2022-03-04T09:37:43Z</time><extensions><speed>1.419866</speed><course>250.652466</course><hAcc>1.530423</hAcc><vAcc>0.827522</vAcc></extensions></trkpt>
      <trkpt lon="-2.259171" lat="53.122513"><ele>101.679878</ele><time>2022-03-04T09:37:44Z</time><extensions><speed>1.448429</speed><course>251.196121</course><hAcc>1.536880</hAcc><vAcc>0.827554</vAcc></extensions></trkpt>
      <trkpt lon="-2.259192" lat="53.122509"><ele>101.661797</ele><time>2022-03-04T09:37:45Z</time><extensions><speed>1.481428</speed><course>250.315216</course><hAcc>1.562682</hAcc><vAcc>0.827594</vAcc></extensions></trkpt>
      <trkpt lon="-2.259212" lat="53.122504"><ele>101.636856</ele><time>2022-03-04T09:37:46Z</time><extensions><speed>1.435625</speed><course>247.960999</course><hAcc>1.547901</hAcc><vAcc>0.827641</vAcc></extensions></trkpt>
      <trkpt lon="-2.259231" lat="53.122499"><ele>101.607140</ele><time>2022-03-04T09:37:47Z</time><extensions><speed>1.398831</speed><course>247.255753</course><hAcc>1.525598</hAcc><vAcc>0.827689</vAcc></extensions></trkpt>
      <trkpt lon="-2.259250" lat="53.122494"><ele>101.573311</ele><time>2022-03-04T09:37:48Z</time><extensions><speed>1.397450</speed><course>247.346466</course><hAcc>1.518433</hAcc><vAcc>0.827735</vAcc></extensions></trkpt>
      <trkpt lon="-2.259270" lat="53.122489"><ele>101.533005</ele><time>2022-03-04T09:37:49Z</time><extensions><speed>1.460067</speed><course>247.659897</course><hAcc>1.532030</hAcc><vAcc>0.827781</vAcc></extensions></trkpt>
      <trkpt lon="-2.259290" lat="53.122484"><ele>101.486755</ele><time>2022-03-04T09:37:50Z</time><extensions><speed>1.511214</speed><course>248.753967</course><hAcc>1.549725</hAcc><vAcc>0.827828</vAcc></extensions></trkpt>
      <trkpt lon="-2.259310" lat="53.122480"><ele>101.429863</ele><time>2022-03-04T09:37:51Z</time><extensions><speed>1.434961</speed><course>247.392166</course><hAcc>1.538825</hAcc><vAcc>0.827866</vAcc></extensions></trkpt>
      <trkpt lon="-2.259330" lat="53.122475"><ele>101.368935</ele><time>2022-03-04T09:37:52Z</time><extensions><speed>1.426552</speed><course>246.172241</course><hAcc>1.547522</hAcc><vAcc>0.827896</vAcc></extensions></trkpt>
      <trkpt lon="-2.259348" lat="53.122469"><ele>101.312447</ele><time>2022-03-04T09:37:53Z</time><extensions><speed>1.344383</speed><course>243.966736</course><hAcc>1.510785</hAcc><vAcc>0.827920</vAcc></extensions></trkpt>
      <trkpt lon="-2.259366" lat="53.122464"><ele>101.237656</ele><time>2022-03-04T09:37:54Z</time><extensions><speed>1.349608</speed><course>243.075531</course><hAcc>1.494604</hAcc><vAcc>0.827944</vAcc></extensions></trkpt>
      <trkpt lon="-2.259384" lat="53.122459"><ele>101.159210</ele><time>2022-03-04T09:37:55Z</time><extensions><speed>1.368799</speed><course>244.137253</course><hAcc>1.491939</hAcc><vAcc>0.827961</vAcc></extensions></trkpt>
      <trkpt lon="-2.259402" lat="53.122453"><ele>101.081940</ele><time>2022-03-04T09:37:56Z</time><extensions><speed>1.418625</speed><course>246.050568</course><hAcc>1.511181</hAcc><vAcc>0.827972</vAcc></extensions></trkpt>
      <trkpt lon="-2.259422" lat="53.122448"><ele>101.002220</ele><time>2022-03-04T09:37:57Z</time><extensions><speed>1.461497</speed><course>243.166336</course><hAcc>1.502161</hAcc><vAcc>0.827982</vAcc></extensions></trkpt>
      <trkpt lon="-2.259441" lat="53.122442"><ele>100.915283</ele><time>2022-03-04T09:37:58Z</time><extensions><speed>1.473439</speed><course>242.988281</course><hAcc>1.500899</hAcc><vAcc>0.827991</vAcc></extensions></trkpt>
      <trkpt lon="-2.259460" lat="53.122436"><ele>100.826614</ele><time>2022-03-04T09:37:59Z</time><extensions><speed>1.501206</speed><course>244.924820</course><hAcc>1.508268</hAcc><vAcc>0.827998</vAcc></extensions></trkpt>
      <trkpt lon="-2.259480" lat="53.122431"><ele>100.738266</ele><time>2022-03-04T09:38:00Z</time><extensions><speed>1.497853</speed><course>244.805084</course><hAcc>1.511477</hAcc><vAcc>0.827996</vAcc></extensions></trkpt>
      <trkpt lon="-2.259500" lat="53.122425"><ele>100.642990</ele><time>2022-03-04T09:38:01Z</time><extensions><speed>1.423338</speed><course>246.150513</course><hAcc>1.491017</hAcc><vAcc>0.827998</vAcc></extensions></trkpt>
      <trkpt lon="-2.259519" lat="53.122420"><ele>100.549561</ele><time>2022-03-04T09:38:02Z</time><extensions><speed>1.443434</speed><course>247.699081</course><hAcc>1.504209</hAcc><vAcc>0.828000</vAcc></extensions></trkpt>
      <trkpt lon="-2.259539" lat="53.122415"><ele>100.467773</ele><time>2022-03-04T09:38:03Z</time><extensions><speed>1.433618</speed><course>246.351761</course><hAcc>1.522394</hAcc><vAcc>0.828004</vAcc></extensions></trkpt>
      <trkpt lon="-2.259558" lat="53.122410"><ele>100.376648</ele><time>2022-03-04T09:38:04Z</time><extensions><speed>1.374454</speed><course>244.290848</course><hAcc>1.526009</hAcc><vAcc>0.828011</vAcc></extensions></trkpt>
      <trkpt lon="-2.259576" lat="53.122405"><ele>100.281364</ele><time>2022-03-04T09:38:05Z</time><extensions><speed>1.386336</speed><course>243.886978</course><hAcc>1.534066</hAcc><vAcc>0.828010</vAcc></extensions></trkpt>
      <trkpt lon="-2.259594" lat="53.122399"><ele>100.179131</ele><time>2022-03-04T09:38:06Z</time><extensions><speed>1.416501</speed><course>244.205368</course><hAcc>1.546452</hAcc><vAcc>0.828014</vAcc></extensions></trkpt>
      <trkpt lon="-2.259613" lat="53.122394"><ele>100.091270</ele><time>2022-03-04T09:38:07Z</time><extensions><speed>1.378891</speed><course>243.421524</course><hAcc>1.525857</hAcc><vAcc>0.828007</vAcc></extensions></trkpt>
      <trkpt lon="-2.259631" lat="53.122389"><ele>100.006783</ele><time>2022-03-04T09:38:08Z</time><extensions><speed>1.329380</speed><course>244.590668</course><hAcc>1.519778</hAcc><vAcc>0.828000</vAcc></extensions></trkpt>
      <trkpt lon="-2.259649" lat="53.122384"><ele>99.923882</ele><time>2022-03-04T09:38:09Z</time><extensions><speed>1.417461</speed><course>246.290314</course><hAcc>1.543424</hAcc><vAcc>0.827988</vAcc></extensions></trkpt>
      <trkpt lon="-2.259668" lat="53.122379"><ele>99.841965</ele><time>2022-03-04T09:38:10Z</time><extensions><speed>1.371344</speed><course>245.122421</course><hAcc>1.527519</hAcc><vAcc>0.827973</vAcc></extensions></trkpt>
      <trkpt lon="-2.259686" lat="53.122374"><ele>99.759857</ele><time>2022-03-04T09:38:11Z</time><extensions><speed>1.385361</speed><course>245.459076</course><hAcc>1.529452</hAcc><vAcc>0.827955</vAcc></extensions></trkpt>
      <trkpt lon="-2.259705" lat="53.122369"><ele>99.680977</ele><time>2022-03-04T09:38:12Z</time><extensions><speed>1.375843</speed><course>246.183304</course><hAcc>1.542105</hAcc><vAcc>0.827936</vAcc></extensions></trkpt>
      <trkpt lon="-2.259722" lat="53.122363"><ele>99.609383</ele><time>2022-03-04T09:38:13Z</time><extensions><speed>1.302639</speed><course>243.030548</course><hAcc>1.526644</hAcc><vAcc>0.827919</vAcc></extensions></trkpt>
      <trkpt lon="-2.259739" lat="53.122358"><ele>99.529823</ele><time>2022-03-04T09:38:14Z</time><extensions><speed>1.268483</speed><course>239.731964</course><hAcc>1.525561</hAcc><vAcc>0.827908</vAcc></extensions></trkpt>
      <trkpt lon="-2.259755" lat="53.122352"><ele>99.453873</ele><time>2022-03-04T09:38:15Z</time><extensions><speed>1.245792</speed><course>240.709991</course><hAcc>1.526740</hAcc><vAcc>0.827902</vAcc></extensions></trkpt>
      <trkpt lon="-2.259771" lat="53.122347"><ele>99.376686</ele><time>2022-03-04T09:38:16Z</time><extensions><speed>1.294778</speed><course>243.040222</course><hAcc>1.531215</hAcc><vAcc>0.827893</vAcc></extensions></trkpt>
      <trkpt lon="-2.259788" lat="53.122342"><ele>99.306763</ele><time>2022-03-04T09:38:17Z</time><extensions><speed>1.328102</speed><course>243.912552</course><hAcc>1.522167</hAcc><vAcc>0.827892</vAcc></extensions></trkpt>
      <trkpt lon="-2.259806" lat="53.122337"><ele>99.235291</ele><time>2022-03-04T09:38:18Z</time><extensions><speed>1.385557</speed><course>244.633804</course><hAcc>1.526744</hAcc><vAcc>0.827899</vAcc></extensions></trkpt>
      <trkpt lon="-2.259825" lat="53.122332"><ele>99.166626</ele><time>2022-03-04T09:38:19Z</time><extensions><speed>1.351753</speed><course>244.227432</course><hAcc>1.515215</hAcc><vAcc>0.827913</vAcc></extensions></trkpt>
      <trkpt lon="-2.259843" lat="53.122326"><ele>99.096283</ele><time>2022-03-04T09:38:20Z</time><extensions><speed>1.402829</speed><course>243.984482</course><hAcc>1.522927</hAcc><vAcc>0.827940</vAcc></extensions></trkpt>
      <trkpt lon="-2.259860" lat="53.122321"><ele>99.031395</ele><time>2022-03-04T09:38:21Z</time><extensions><speed>1.313437</speed><course>239.880219</course><hAcc>1.498593</hAcc><vAcc>0.827970</vAcc></extensions></trkpt>
      <trkpt lon="-2.259877" lat="53.122315"><ele>98.960281</ele><time>2022-03-04T09:38:22Z</time><extensions><speed>1.329471</speed><course>239.628891</course><hAcc>1.496880</hAcc><vAcc>0.828003</vAcc></extensions></trkpt>
      <trkpt lon="-2.259895" lat="53.122309"><ele>98.880562</ele><time>2022-03-04T09:38:23Z</time><extensions><speed>1.401131</speed><course>244.076736</course><hAcc>1.511474</hAcc><vAcc>0.828038</vAcc></extensions></trkpt>
      <trkpt lon="-2.259913" lat="53.122304"><ele>98.793671</ele><time>2022-03-04T09:38:24Z</time><extensions><speed>1.370488</speed><course>242.494766</course><hAcc>1.504044</hAcc><vAcc>0.828073</vAcc></extensions></trkpt>
      <trkpt lon="-2.259931" lat="53.122298"><ele>98.705498</ele><time>2022-03-04T09:38:25Z</time><extensions><speed>1.400034</speed><course>242.806732</course><hAcc>1.503248</hAcc><vAcc>0.828101</vAcc></extensions></trkpt>
      <trkpt lon="-2.259949" lat="53.122293"><ele>98.623947</ele><time>2022-03-04T09:38:26Z</time><extensions><speed>1.304775</speed><course>243.845398</course><hAcc>1.476322</hAcc><vAcc>0.828129</vAcc></extensions></trkpt>
      <trkpt lon="-2.259966" lat="53.122288"><ele>98.536705</ele><time>2022-03-04T09:38:27Z</time><extensions><speed>1.325476</speed><course>243.363419</course><hAcc>1.467113</hAcc><vAcc>0.828151</vAcc></extensions></trkpt>
      <trkpt lon="-2.259984" lat="53.122282"><ele>98.456528</ele><time>2022-03-04T09:38:28Z</time><extensions><speed>1.411174</speed><course>244.098877</course><hAcc>1.477858</hAcc><vAcc>0.828180</vAcc></extensions></trkpt>
      <trkpt lon="-2.260002" lat="53.122276"><ele>98.372673</ele><time>2022-03-04T09:38:29Z</time><extensions><speed>1.436226</speed><course>239.282761</course><hAcc>1.471248</hAcc><vAcc>0.828207</vAcc></extensions></trkpt>
      <trkpt lon="-2.260020" lat="53.122270"><ele>98.280296</ele><time>2022-03-04T09:38:30Z</time><extensions><speed>1.472645</speed><course>237.335693</course><hAcc>1.466474</hAcc><vAcc>0.828224</vAcc></extensions></trkpt>
      <trkpt lon="-2.260039" lat="53.122263"><ele>98.189674</ele><time>2022-03-04T09:38:31Z</time><extensions><speed>1.477763</speed><course>238.087204</course><hAcc>1.471084</hAcc><vAcc>0.828235</vAcc></extensions></trkpt>
      <trkpt lon="-2.260057" lat="53.122256"><ele>98.109612</ele><time>2022-03-04T09:38:32Z</time><extensions><speed>1.441380</speed><course>238.691330</course><hAcc>1.454169</hAcc><vAcc>0.828252</vAcc></extensions></trkpt>
      <trkpt lon="-2.260075" lat="53.122249"><ele>98.029961</ele><time>2022-03-04T09:38:33Z</time><extensions><speed>1.440404</speed><course>241.631516</course><hAcc>1.442294</hAcc><vAcc>0.828252</vAcc></extensions></trkpt>
      <trkpt lon="-2.260094" lat="53.122243"><ele>97.954918</ele><time>2022-03-04T09:38:34Z</time><extensions><speed>1.491412</speed><course>243.370255</course><hAcc>1.467864</hAcc><vAcc>0.828263</vAcc></extensions></trkpt>
      <trkpt lon="-2.260114" lat="53.122238"><ele>97.884079</ele><time>2022-03-04T09:38:35Z</time><extensions><speed>1.539365</speed><course>244.040390</course><hAcc>1.480839</hAcc><vAcc>0.828269</vAcc></extensions></trkpt>
      <trkpt lon="-2.260134" lat="53.122232"><ele>97.814697</ele><time>2022-03-04T09:38:35Z</time><extensions><speed>1.379830</speed><course>243.922012</course><hAcc>1.463373</hAcc><vAcc>0.828269</vAcc></extensions></trkpt>
      <trkpt lon="-2.260152" lat="53.122227"><ele>97.741692</ele><time>2022-03-04T09:38:36Z</time><extensions><speed>1.379203</speed><course>243.870865</course><hAcc>1.484367</hAcc><vAcc>0.828273</vAcc></extensions></trkpt>
      <trkpt lon="-2.260170" lat="53.122221"><ele>97.675888</ele><time>2022-03-04T09:38:37Z</time><extensions><speed>1.381791</speed><course>243.237213</course><hAcc>1.489550</hAcc><vAcc>0.828278</vAcc></extensions></trkpt>
      <trkpt lon="-2.260188" lat="53.122216"><ele>97.607224</ele><time>2022-03-04T09:38:38Z</time><extensions><speed>1.399459</speed><course>242.661362</course><hAcc>1.511509</hAcc><vAcc>0.828282</vAcc></extensions></trkpt>
      <trkpt lon="-2.260206" lat="53.122210"><ele>97.555450</ele><time>2022-03-04T09:38:39Z</time><extensions><speed>1.317685</speed><course>242.992706</course><hAcc>1.487296</hAcc><vAcc>0.828283</vAcc></extensions></trkpt>
      <trkpt lon="-2.260223" lat="53.122205"><ele>97.497360</ele><time>2022-03-04T09:38:40Z</time><extensions><speed>1.333439</speed><course>242.076752</course><hAcc>1.482432</hAcc><vAcc>0.828293</vAcc></extensions></trkpt>
      <trkpt lon="-2.260240" lat="53.122199"><ele>97.445518</ele><time>2022-03-04T09:38:41Z</time><extensions><speed>1.376003</speed><course>241.840149</course><hAcc>1.492723</hAcc><vAcc>0.828294</vAcc></extensions></trkpt>
      <trkpt lon="-2.260259" lat="53.122193"><ele>97.384880</ele><time>2022-03-04T09:38:42Z</time><extensions><speed>1.526286</speed><course>239.726974</course><hAcc>1.519500</hAcc><vAcc>0.828301</vAcc></extensions></trkpt>
      <trkpt lon="-2.260277" lat="53.122186"><ele>97.335709</ele><time>2022-03-04T09:38:43Z</time><extensions><speed>1.394273</speed><course>237.456863</course><hAcc>1.480349</hAcc><vAcc>0.828310</vAcc></extensions></trkpt>
      <trkpt lon="-2.260294" lat="53.122180"><ele>97.293640</ele><time>2022-03-04T09:38:44Z</time><extensions><speed>1.355724</speed><course>239.046646</course><hAcc>1.464801</hAcc><vAcc>0.828316</vAcc></extensions></trkpt>
      <trkpt lon="-2.260312" lat="53.122174"><ele>97.248039</ele><time>2022-03-04T09:38:45Z</time><extensions><speed>1.413411</speed><course>239.933105</course><hAcc>1.474218</hAcc><vAcc>0.828320</vAcc></extensions></trkpt>
      <trkpt lon="-2.260330" lat="53.122167"><ele>97.198044</ele><time>2022-03-04T09:38:46Z</time><extensions><speed>1.436111</speed><course>239.208694</course><hAcc>1.470981</hAcc><vAcc>0.828329</vAcc></extensions></trkpt>
      <trkpt lon="-2.260348" lat="53.122161"><ele>97.153305</ele><time>2022-03-04T09:38:47Z</time><extensions><speed>1.442659</speed><course>238.731094</course><hAcc>1.473349</hAcc><vAcc>0.828335</vAcc></extensions></trkpt>
      <trkpt lon="-2.260366" lat="53.122154"><ele>97.122482</ele><time>2022-03-04T09:38:48Z</time><extensions><speed>1.456256</speed><course>240.481964</course><hAcc>1.481685</hAcc><vAcc>0.828337</vAcc></extensions></trkpt>
      <trkpt lon="-2.260385" lat="53.122148"><ele>97.091805</ele><time>2022-03-04T09:38:49Z</time><extensions><speed>1.387394</speed><course>240.487823</course><hAcc>1.470312</hAcc><vAcc>0.828332</vAcc></extensions></trkpt>
      <trkpt lon="-2.260402" lat="53.122142"><ele>97.058815</ele><time>2022-03-04T09:38:50Z</time><extensions><speed>1.376643</speed><course>239.689697</course><hAcc>1.487464</hAcc><vAcc>0.828332</vAcc></extensions></trkpt>
      <trkpt lon="-2.260420" lat="53.122136"><ele>97.037102</ele><time>2022-03-04T09:38:51Z</time><extensions><speed>1.382294</speed><course>239.647095</course><hAcc>1.489373</hAcc><vAcc>0.828320</vAcc></extensions></trkpt>
      <trkpt lon="-2.260437" lat="53.122130"><ele>97.005768</ele><time>2022-03-04T09:38:52Z</time><extensions><speed>1.383240</speed><course>241.233047</course><hAcc>1.504930</hAcc><vAcc>0.828311</vAcc></extensions></trkpt>
      <trkpt lon="-2.260455" lat="53.122124"><ele>96.975998</ele><time>2022-03-04T09:38:53Z</time><extensions><speed>1.385237</speed><course>241.568024</course><hAcc>1.524984</hAcc><vAcc>0.828315</vAcc></extensions></trkpt>
      <trkpt lon="-2.260473" lat="53.122118"><ele>96.952583</ele><time>2022-03-04T09:38:54Z</time><extensions><speed>1.317511</speed><course>239.638840</course><hAcc>1.516594</hAcc><vAcc>0.828307</vAcc></extensions></trkpt>
      <trkpt lon="-2.260489" lat="53.122112"><ele>96.922142</ele><time>2022-03-04T09:38:55Z</time><extensions><speed>1.350744</speed><course>239.940628</course><hAcc>1.521729</hAcc><vAcc>0.828313</vAcc></extensions></trkpt>
      <trkpt lon="-2.260507" lat="53.122106"><ele>96.899170</ele><time>2022-03-04T09:38:56Z</time><extensions><speed>1.348158</speed><course>240.101883</course><hAcc>1.517675</hAcc><vAcc>0.828329</vAcc></extensions></trkpt>
      <trkpt lon="-2.260524" lat="53.122100"><ele>96.868095</ele><time>2022-03-04T09:38:57Z</time><extensions><speed>1.378627</speed><course>239.293900</course><hAcc>1.514585</hAcc><vAcc>0.828348</vAcc></extensions></trkpt>
      <trkpt lon="-2.260542" lat="53.122094"><ele>96.840561</ele><time>2022-03-04T09:38:58Z</time><extensions><speed>1.451353</speed><course>238.947586</course><hAcc>1.521610</hAcc><vAcc>0.828385</vAcc></extensions></trkpt>
      <trkpt lon="-2.260559" lat="53.122087"><ele>96.823021</ele><time>2022-03-04T09:38:59Z</time><extensions><speed>1.375825</speed><course>239.936157</course><hAcc>1.497885</hAcc><vAcc>0.828425</vAcc></extensions></trkpt>
      <trkpt lon="-2.260577" lat="53.122081"><ele>96.807030</ele><time>2022-03-04T09:39:00Z</time><extensions><speed>1.458309</speed><course>238.010269</course><hAcc>1.506687</hAcc><vAcc>0.828475</vAcc></extensions></trkpt>
      <trkpt lon="-2.260595" lat="53.122074"><ele>96.791252</ele><time>2022-03-04T09:39:01Z</time><extensions><speed>1.390514</speed><course>235.723434</course><hAcc>1.493287</hAcc><vAcc>0.828533</vAcc></extensions></trkpt>
      <trkpt lon="-2.260612" lat="53.122067"><ele>96.782745</ele><time>2022-03-04T09:39:02Z</time><extensions><speed>1.407890</speed><course>238.274185</course><hAcc>1.511983</hAcc><vAcc>0.828592</vAcc></extensions></trkpt>
      <trkpt lon="-2.260630" lat="53.122061"><ele>96.775398</ele><time>2022-03-04T09:39:03Z</time><extensions><speed>1.475783</speed><course>241.056488</course><hAcc>1.529936</hAcc><vAcc>0.828652</vAcc></extensions></trkpt>
      <trkpt lon="-2.260648" lat="53.122055"><ele>96.768456</ele><time>2022-03-04T09:39:04Z</time><extensions><speed>1.300759</speed><course>241.294235</course><hAcc>1.502170</hAcc><vAcc>0.828708</vAcc></extensions></trkpt>
      <trkpt lon="-2.260664" lat="53.122049"><ele>96.760902</ele><time>2022-03-04T09:39:05Z</time><extensions><speed>1.238235</speed><course>239.572449</course><hAcc>1.506720</hAcc><vAcc>0.828754</vAcc></extensions></trkpt>
      <trkpt lon="-2.260680" lat="53.122043"><ele>96.752266</ele><time>2022-03-04T09:39:06Z</time><extensions><speed>1.227467</speed><course>237.194992</course><hAcc>1.521557</hAcc><vAcc>0.828783</vAcc></extensions></trkpt>
      <trkpt lon="-2.260695" lat="53.122038"><ele>96.752014</ele><time>2022-03-04T09:39:07Z</time><extensions><speed>1.179188</speed><course>238.458801</course><hAcc>1.524482</hAcc><vAcc>0.828802</vAcc></extensions></trkpt>
      <trkpt lon="-2.260709" lat="53.122032"><ele>96.751991</ele><time>2022-03-04T09:39:08Z</time><extensions><speed>1.212153</speed><course>237.901764</course><hAcc>1.531938</hAcc><vAcc>0.828813</vAcc></extensions></trkpt>
      <trkpt lon="-2.260725" lat="53.122026"><ele>96.760971</ele><time>2022-03-04T09:39:09Z</time><extensions><speed>1.320058</speed><course>234.119019</course><hAcc>1.547967</hAcc><vAcc>0.828818</vAcc></extensions></trkpt>
      <trkpt lon="-2.260740" lat="53.122019"><ele>96.772255</ele><time>2022-03-04T09:39:10Z</time><extensions><speed>1.302482</speed><course>230.564331</course><hAcc>1.520196</hAcc><vAcc>0.828810</vAcc></extensions></trkpt>
      <trkpt lon="-2.260754" lat="53.122012"><ele>96.784081</ele><time>2022-03-04T09:39:11Z</time><extensions><speed>1.256825</speed><course>227.095871</course><hAcc>1.490602</hAcc><vAcc>0.828797</vAcc></extensions></trkpt>
      <trkpt lon="-2.260767" lat="53.122004"><ele>96.799759</ele><time>2022-03-04T09:39:12Z</time><extensions><speed>1.243446</speed><course>225.015961</course><hAcc>1.481388</hAcc><vAcc>0.828777</vAcc></extensions></trkpt>
      <trkpt lon="-2.260781" lat="53.121996"><ele>96.824692</ele><time>2022-03-04T09:39:13Z</time><extensions><speed>1.419805</speed><course>226.540009</course><hAcc>1.511209</hAcc><vAcc>0.828754</vAcc></extensions></trkpt>
      <trkpt lon="-2.260796" lat="53.121987"><ele>96.850159</ele><time>2022-03-04T09:39:14Z</time><extensions><speed>1.418280</speed><course>228.545563</course><hAcc>1.496184</hAcc><vAcc>0.828729</vAcc></extensions></trkpt>
      <trkpt lon="-2.260812" lat="53.121979"><ele>96.872292</ele><time>2022-03-04T09:39:15Z</time><extensions><speed>1.442969</speed><course>228.142914</course><hAcc>1.498697</hAcc><vAcc>0.828712</vAcc></extensions></trkpt>
      <trkpt lon="-2.260827" lat="53.121970"><ele>96.901360</ele><time>2022-03-04T09:39:16Z</time><extensions><speed>1.358617</speed><course>225.347153</course><hAcc>1.485572</hAcc><vAcc>0.828698</vAcc></extensions></trkpt>
      <trkpt lon="-2.260840" lat="53.121962"><ele>96.941963</ele><time>2022-03-04T09:39:17Z</time><extensions><speed>1.242316</speed><course>223.046509</course><hAcc>1.468377</hAcc><vAcc>0.828689</vAcc></extensions></trkpt>
      <trkpt lon="-2.260852" lat="53.121954"><ele>96.983963</ele><time>2022-03-04T09:39:18Z</time><extensions><speed>1.277633</speed><course>220.858749</course><hAcc>1.474362</hAcc><vAcc>0.828683</vAcc></extensions></trkpt>
      <trkpt lon="-2.260865" lat="53.121945"><ele>97.028732</ele><time>2022-03-04T09:39:19Z</time><extensions><speed>1.308820</speed><course>222.216888</course><hAcc>1.484064</hAcc><vAcc>0.828690</vAcc></extensions></trkpt>
      <trkpt lon="-2.260878" lat="53.121937"><ele>97.080956</ele><time>2022-03-04T09:39:20Z</time><extensions><speed>1.363662</speed><course>223.634521</course><hAcc>1.499923</hAcc><vAcc>0.828697</vAcc></extensions></trkpt>
      <trkpt lon="-2.260892" lat="53.121928"><ele>97.137352</ele><time>2022-03-04T09:39:21Z</time><extensions><speed>1.406683</speed><course>223.599289</course><hAcc>1.496649</hAcc><vAcc>0.828726</vAcc></extensions></trkpt>
      <trkpt lon="-2.260905" lat="53.121919"><ele>97.195694</ele><time>2022-03-04T09:39:22Z</time><extensions><speed>1.280102</speed><course>221.832108</course><hAcc>1.466566</hAcc><vAcc>0.828752</vAcc></extensions></trkpt>
      <trkpt lon="-2.260918" lat="53.121911"><ele>97.242470</ele><time>2022-03-04T09:39:23Z</time><extensions><speed>1.302639</speed><course>222.523132</course><hAcc>1.468088</hAcc><vAcc>0.828792</vAcc></extensions></trkpt>
      <trkpt lon="-2.260931" lat="53.121903"><ele>97.301445</ele><time>2022-03-04T09:39:24Z</time><extensions><speed>1.322213</speed><course>225.910995</course><hAcc>1.467037</hAcc><vAcc>0.828838</vAcc></extensions></trkpt>
      <trkpt lon="-2.260944" lat="53.121894"><ele>97.359024</ele><time>2022-03-04T09:39:26Z</time><extensions><speed>1.284845</speed><course>224.590515</course><hAcc>1.463001</hAcc><vAcc>0.828897</vAcc></extensions></trkpt>
      <trkpt lon="-2.260958" lat="53.121886"><ele>97.418381</ele><time>2022-03-04T09:39:27Z</time><extensions><speed>1.339843</speed><course>223.152008</course><hAcc>1.457017</hAcc><vAcc>0.828921</vAcc></extensions></trkpt>
      <trkpt lon="-2.260971" lat="53.121877"><ele>97.470940</ele><time>2022-03-04T09:39:28Z</time><extensions><speed>1.361783</speed><course>222.385864</course><hAcc>1.455816</hAcc><vAcc>0.828951</vAcc></extensions></trkpt>
      <trkpt lon="-2.260985" lat="53.121868"><ele>97.515121</ele><time>2022-03-04T09:39:29Z</time><extensions><speed>1.471588</speed><course>222.911896</course><hAcc>1.467909</hAcc><vAcc>0.828986</vAcc></extensions></trkpt>
      <trkpt lon="-2.260999" lat="53.121859"><ele>97.556641</ele><time>2022-03-04T09:39:30Z</time><extensions><speed>1.394986</speed><course>222.231308</course><hAcc>1.454008</hAcc><vAcc>0.829015</vAcc></extensions></trkpt>
      <trkpt lon="-2.261013" lat="53.121850"><ele>97.593781</ele><time>2022-03-04T09:39:31Z</time><extensions><speed>1.330789</speed><course>221.434921</course><hAcc>1.444818</hAcc><vAcc>0.829045</vAcc></extensions></trkpt>
      <trkpt lon="-2.261025" lat="53.121841"><ele>97.614609</ele><time>2022-03-04T09:39:32Z</time><extensions><speed>1.331439</speed><course>220.695190</course><hAcc>1.451807</hAcc><vAcc>0.829065</vAcc></extensions></trkpt>
      <trkpt lon="-2.261038" lat="53.121833"><ele>97.624565</ele><time>2022-03-04T09:39:33Z</time><extensions><speed>1.260606</speed><course>221.202179</course><hAcc>1.441412</hAcc><vAcc>0.829075</vAcc></extensions></trkpt>
      <trkpt lon="-2.261051" lat="53.121824"><ele>97.621376</ele><time>2022-03-04T09:39:34Z</time><extensions><speed>1.353651</speed><course>223.113052</course><hAcc>1.453528</hAcc><vAcc>0.829079</vAcc></extensions></trkpt>
      <trkpt lon="-2.261064" lat="53.121815"><ele>97.612869</ele><time>2022-03-04T09:39:35Z</time><extensions><speed>1.466645</speed><course>221.920151</course><hAcc>1.472173</hAcc><vAcc>0.829072</vAcc></extensions></trkpt>
      <trkpt lon="-2.261078" lat="53.121806"><ele>97.583298</ele><time>2022-03-04T09:39:36Z</time><extensions><speed>1.435325</speed><course>217.233780</course><hAcc>1.468064</hAcc><vAcc>0.829050</vAcc></extensions></trkpt>
      <trkpt lon="-2.261090" lat="53.121796"><ele>97.540421</ele><time>2022-03-04T09:39:37Z</time><extensions><speed>1.268998</speed><course>217.941025</course><hAcc>1.432532</hAcc><vAcc>0.829030</vAcc></extensions></trkpt>
      <trkpt lon="-2.261102" lat="53.121788"><ele>97.481812</ele><time>2022-03-04T09:39:38Z</time><extensions><speed>1.277883</speed><course>220.567261</course><hAcc>1.432440</hAcc><vAcc>0.829022</vAcc></extensions></trkpt>
      <trkpt lon="-2.261115" lat="53.121779"><ele>97.419952</ele><time>2022-03-04T09:39:39Z</time><extensions><speed>1.431793</speed><course>222.483368</course><hAcc>1.461922</hAcc><vAcc>0.828989</vAcc></extensions></trkpt>
      <trkpt lon="-2.261129" lat="53.121770"><ele>97.344986</ele><time>2022-03-04T09:39:40Z</time><extensions><speed>1.368759</speed><course>223.902161</course><hAcc>1.450313</hAcc><vAcc>0.828957</vAcc></extensions></trkpt>
      <trkpt lon="-2.261143" lat="53.121761"><ele>97.259003</ele><time>2022-03-04T09:39:41Z</time><extensions><speed>1.407224</speed><course>224.313019</course><hAcc>1.455708</hAcc><vAcc>0.828928</vAcc></extensions></trkpt>
      <trkpt lon="-2.261157" lat="53.121752"><ele>97.164665</ele><time>2022-03-04T09:39:42Z</time><extensions><speed>1.438448</speed><course>221.428986</course><hAcc>1.460829</hAcc><vAcc>0.828893</vAcc></extensions></trkpt>
      <trkpt lon="-2.261170" lat="53.121743"><ele>97.065536</ele><time>2022-03-04T09:39:43Z</time><extensions><speed>1.339694</speed><course>220.192795</course><hAcc>1.455641</hAcc><vAcc>0.828860</vAcc></extensions></trkpt>
      <trkpt lon="-2.261183" lat="53.121734"><ele>96.964226</ele><time>2022-03-04T09:39:44Z</time><extensions><speed>1.343373</speed><course>222.324036</course><hAcc>1.461713</hAcc><vAcc>0.828826</vAcc></extensions></trkpt>
      <trkpt lon="-2.261196" lat="53.121726"><ele>96.877014</ele><time>2022-03-04T09:39:45Z</time><extensions><speed>1.238147</speed><course>225.567215</course><hAcc>1.449140</hAcc><vAcc>0.828778</vAcc></extensions></trkpt>
      <trkpt lon="-2.261210" lat="53.121718"><ele>96.771011</ele><time>2022-03-04T09:39:46Z</time><extensions><speed>1.291634</speed><course>225.517334</course><hAcc>1.459337</hAcc><vAcc>0.828779</vAcc></extensions></trkpt>
      <trkpt lon="-2.261224" lat="53.121710"><ele>96.679115</ele><time>2022-03-04T09:39:47Z</time><extensions><speed>1.314254</speed><course>226.852264</course><hAcc>1.463150</hAcc><vAcc>0.828771</vAcc></extensions></trkpt>
      <trkpt lon="-2.261239" lat="53.121702"><ele>96.589203</ele><time>2022-03-04T09:39:48Z</time><extensions><speed>1.461888</speed><course>224.938690</course><hAcc>1.486960</hAcc><vAcc>0.828754</vAcc></extensions></trkpt>
      <trkpt lon="-2.261253" lat="53.121693"><ele>96.509674</ele><time>2022-03-04T09:39:49Z</time><extensions><speed>1.297468</speed><course>222.197266</course><hAcc>1.471063</hAcc><vAcc>0.828737</vAcc></extensions></trkpt>
      <trkpt lon="-2.261265" lat="53.121684"><ele>96.448952</ele><time>2022-03-04T09:39:50Z</time><extensions><speed>1.213685</speed><course>221.042953</course><hAcc>1.473351</hAcc><vAcc>0.828716</vAcc></extensions></trkpt>
      <trkpt lon="-2.261277" lat="53.121676"><ele>96.391579</ele><time>2022-03-04T09:39:51Z</time><extensions><speed>1.223556</speed><course>219.297852</course><hAcc>1.507499</hAcc><vAcc>0.828710</vAcc></extensions></trkpt>
      <trkpt lon="-2.261287" lat="53.121667"><ele>96.350670</ele><time>2022-03-04T09:39:52Z</time><extensions><speed>1.165102</speed><course>210.819321</course><hAcc>1.513631</hAcc><vAcc>0.828695</vAcc></extensions></trkpt>
      <trkpt lon="-2.261294" lat="53.121659"><ele>96.335930</ele><time>2022-03-04T09:39:53Z</time><extensions><speed>0.887449</speed><course>202.146866</course><hAcc>1.503276</hAcc><vAcc>0.828674</vAcc></extensions></trkpt>
      <trkpt lon="-2.261299" lat="53.121653"><ele>96.338341</ele><time>2022-03-04T09:39:54Z</time><extensions><speed>0.683537</speed><course>206.753052</course><hAcc>1.507970</hAcc><vAcc>0.828657</vAcc></extensions></trkpt>
      <trkpt lon="-2.261305" lat="53.121647"><ele>96.352631</ele><time>2022-03-04T09:39:55Z</time><extensions><speed>0.723162</speed><course>217.524994</course><hAcc>1.558608</hAcc><vAcc>0.828653</vAcc></extensions></trkpt>
      <trkpt lon="-2.261313" lat="53.121642"><ele>96.381218</ele><time>2022-03-04T09:39:56Z</time><extensions><speed>0.905096</speed><course>221.384018</course><hAcc>1.635051</hAcc><vAcc>0.828655</vAcc></extensions></trkpt>
      <trkpt lon="-2.261322" lat="53.121636"><ele>96.422066</ele><time>2022-03-04T09:39:57Z</time><extensions><speed>0.897192</speed><course>225.613449</course><hAcc>1.601530</hAcc><vAcc>0.828645</vAcc></extensions></trkpt>
      <trkpt lon="-2.261332" lat="53.121630"><ele>96.472977</ele><time>2022-03-04T09:39:58Z</time><extensions><speed>0.937144</speed><course>227.120056</course><hAcc>1.603023</hAcc><vAcc>0.828635</vAcc></extensions></trkpt>
      <trkpt lon="-2.261342" lat="53.121624"><ele>96.531403</ele><time>2022-03-04T09:39:59Z</time><extensions><speed>0.912801</speed><course>227.674469</course><hAcc>1.633415</hAcc><vAcc>0.828631</vAcc></extensions></trkpt>
      <trkpt lon="-2.261352" lat="53.121619"><ele>96.586586</ele><time>2022-03-04T09:40:00Z</time><extensions><speed>0.899885</speed><course>227.196579</course><hAcc>1.663356</hAcc><vAcc>0.828630</vAcc></extensions></trkpt>
      <trkpt lon="-2.261361" lat="53.121613"><ele>96.653442</ele><time>2022-03-04T09:40:01Z</time><extensions><speed>0.822857</speed><course>225.874039</course><hAcc>1.685152</hAcc><vAcc>0.828614</vAcc></extensions></trkpt>
      <trkpt lon="-2.261370" lat="53.121608"><ele>96.730194</ele><time>2022-03-04T09:40:02Z</time><extensions><speed>0.815041</speed><course>224.274109</course><hAcc>1.696915</hAcc><vAcc>0.828596</vAcc></extensions></trkpt>
      <trkpt lon="-2.261378" lat="53.121603"><ele>96.809090</ele><time>2022-03-04T09:40:03Z</time><extensions><speed>0.806690</speed><course>224.289932</course><hAcc>1.704422</hAcc><vAcc>0.828569</vAcc></extensions></trkpt>
      <trkpt lon="-2.261387" lat="53.121598"><ele>96.887993</ele><time>2022-03-04T09:40:04Z</time><extensions><speed>0.748803</speed><course>224.493240</course><hAcc>1.711480</hAcc><vAcc>0.828524</vAcc></extensions></trkpt>
      <trkpt lon="-2.261393" lat="53.121594"><ele>96.965225</ele><time>2022-03-04T09:40:05Z</time><extensions><speed>0.575082</speed><course>221.352966</course><hAcc>1.723548</hAcc><vAcc>0.828462</vAcc></extensions></trkpt>
      <trkpt lon="-2.261397" lat="53.121590"><ele>97.039497</ele><time>2022-03-04T09:40:06Z</time><extensions><speed>0.313088</speed><course>201.862488</course><hAcc>1.727569</hAcc><vAcc>0.828368</vAcc></extensions></trkpt>
      <trkpt lon="-2.261398" lat="53.121588"><ele>97.108459</ele><time>2022-03-04T09:40:07Z</time><extensions><speed>0.262178</speed><course>181.800430</course><hAcc>1.722557</hAcc><vAcc>0.828281</vAcc></extensions></trkpt>
      <trkpt lon="-2.261398" lat="53.121586"><ele>97.180641</ele><time>2022-03-04T09:40:08Z</time><extensions><speed>0.252712</speed><course>172.133850</course><hAcc>1.726699</hAcc><vAcc>0.828155</vAcc></extensions></trkpt>
      <trkpt lon="-2.261397" lat="53.121583"><ele>97.249283</ele><time>2022-03-04T09:40:09Z</time><extensions><speed>0.241009</speed><course>168.331085</course><hAcc>1.734105</hAcc><vAcc>0.828045</vAcc></extensions></trkpt>
      <trkpt lon="-2.261396" lat="53.121581"><ele>97.312935</ele><time>2022-03-04T09:40:10Z</time><extensions><speed>0.223532</speed><course>167.485825</course><hAcc>1.738508</hAcc><vAcc>0.827932</vAcc></extensions></trkpt>
      <trkpt lon="-2.261396" lat="53.121579"><ele>97.369514</ele><time>2022-03-04T09:40:11Z</time><extensions><speed>0.196471</speed><course>169.600342</course><hAcc>1.743396</hAcc><vAcc>0.827815</vAcc></extensions></trkpt>
      <trkpt lon="-2.261395" lat="53.121578"><ele>97.420967</ele><time>2022-03-04T09:40:12Z</time><extensions><speed>0.171119</speed><course>173.635071</course><hAcc>1.747329</hAcc><vAcc>0.827700</vAcc></extensions></trkpt>
      <trkpt lon="-2.261395" lat="53.121576"><ele>97.477089</ele><time>2022-03-04T09:40:13Z</time><extensions><speed>0.158523</speed><course>178.552994</course><hAcc>1.748449</hAcc><vAcc>0.827594</vAcc></extensions></trkpt>
      <trkpt lon="-2.261395" lat="53.121575"><ele>97.534348</ele><time>2022-03-04T09:40:14Z</time><extensions><speed>0.165643</speed><course>183.680252</course><hAcc>1.746925</hAcc><vAcc>0.827492</vAcc></extensions></trkpt>
      <trkpt lon="-2.261396" lat="53.121573"><ele>97.592209</ele><time>2022-03-04T09:40:15Z</time><extensions><speed>0.186789</speed><course>187.972244</course><hAcc>1.747596</hAcc><vAcc>0.827401</vAcc></extensions></trkpt>
      <trkpt lon="-2.261396" lat="53.121571"><ele>97.652138</ele><time>2022-03-04T09:40:16Z</time><extensions><speed>0.220979</speed><course>191.095688</course><hAcc>1.747344</hAcc><vAcc>0.827312</vAcc></extensions></trkpt>
      <trkpt lon="-2.261397" lat="53.121569"><ele>97.709824</ele><time>2022-03-04T09:40:17Z</time><extensions><speed>0.239347</speed><course>193.889099</course><hAcc>1.750089</hAcc><vAcc>0.827235</vAcc></extensions></trkpt>
      <trkpt lon="-2.261398" lat="53.121567"><ele>97.779343</ele><time>2022-03-04T09:40:18Z</time><extensions><speed>0.251690</speed><course>197.669922</course><hAcc>1.749482</hAcc><vAcc>0.827211</vAcc></extensions></trkpt>
      <trkpt lon="-2.261399" lat="53.121565"><ele>97.831497</ele><time>2022-03-04T09:40:19Z</time><extensions><speed>0.257694</speed><course>200.774506</course><hAcc>1.750463</hAcc><vAcc>0.827202</vAcc></extensions></trkpt>
      <trkpt lon="-2.261401" lat="53.121563"><ele>97.884705</ele><time>2022-03-04T09:40:20Z</time><extensions><speed>0.257240</speed><course>202.216431</course><hAcc>1.752366</hAcc><vAcc>0.827208</vAcc></extensions></trkpt>
      <trkpt lon="-2.261402" lat="53.121561"><ele>97.931419</ele><time>2022-03-04T09:40:21Z</time><extensions><speed>0.254907</speed><course>202.946503</course><hAcc>1.752959</hAcc><vAcc>0.827230</vAcc></extensions></trkpt>
      <trkpt lon="-2.261403" lat="53.121559"><ele>97.982628</ele><time>2022-03-04T09:40:22Z</time><extensions><speed>0.252964</speed><course>202.779999</course><hAcc>1.750718</hAcc><vAcc>0.827265</vAcc></extensions></trkpt>
      <trkpt lon="-2.261405" lat="53.121556"><ele>98.027382</ele><time>2022-03-04T09:40:23Z</time><extensions><speed>0.243637</speed><course>199.942764</course><hAcc>1.750465</hAcc><vAcc>0.827304</vAcc></extensions></trkpt>
      <trkpt lon="-2.261406" lat="53.121554"><ele>98.073021</ele><time>2022-03-04T09:40:24Z</time><extensions><speed>0.237321</speed><course>193.418671</course><hAcc>1.751995</hAcc><vAcc>0.827345</vAcc></extensions></trkpt>
      <trkpt lon="-2.261406" lat="53.121552"><ele>98.117889</ele><time>2022-03-04T09:40:25Z</time><extensions><speed>0.231264</speed><course>185.029922</course><hAcc>1.753630</hAcc><vAcc>0.827417</vAcc></extensions></trkpt>
      <trkpt lon="-2.261406" lat="53.121550"><ele>98.155289</ele><time>2022-03-04T09:40:26Z</time><extensions><speed>0.217426</speed><course>176.344360</course><hAcc>1.753574</hAcc><vAcc>0.827491</vAcc></extensions></trkpt>
      <trkpt lon="-2.261406" lat="53.121549"><ele>98.194252</ele><time>2022-03-04T09:40:27Z</time><extensions><speed>0.191744</speed><course>168.496490</course><hAcc>1.755531</hAcc><vAcc>0.827577</vAcc></extensions></trkpt>
      <trkpt lon="-2.261405" lat="53.121547"><ele>98.232048</ele><time>2022-03-04T09:40:28Z</time><extensions><speed>0.171843</speed><course>164.244370</course><hAcc>1.754623</hAcc><vAcc>0.827659</vAcc></extensions></trkpt>
      <trkpt lon="-2.261405" lat="53.121546"><ele>98.265099</ele><time>2022-03-04T09:40:29Z</time><extensions><speed>0.148995</speed><course>169.591003</course><hAcc>1.755819</hAcc><vAcc>0.827724</vAcc></extensions></trkpt>
      <trkpt lon="-2.261405" lat="53.121544"><ele>98.290230</ele><time>2022-03-04T09:40:30Z</time><extensions><speed>0.142976</speed><course>192.255035</course><hAcc>1.755876</hAcc><vAcc>0.827771</vAcc></extensions></trkpt>
      <trkpt lon="-2.261406" lat="53.121543"><ele>98.304802</ele><time>2022-03-04T09:40:31Z</time><extensions><speed>0.218542</speed><course>218.413452</course><hAcc>1.742059</hAcc><vAcc>0.827787</vAcc></extensions></trkpt>
      <trkpt lon="-2.261410" lat="53.121541"><ele>98.310890</ele><time>2022-03-04T09:40:32Z</time><extensions><speed>0.402609</speed><course>230.073578</course><hAcc>1.724591</hAcc><vAcc>0.827790</vAcc></extensions></trkpt>
      <trkpt lon="-2.261415" lat="53.121538"><ele>98.303841</ele><time>2022-03-04T09:40:33Z</time><extensions><speed>0.506654</speed><course>233.666519</course><hAcc>1.739513</hAcc><vAcc>0.827785</vAcc></extensions></trkpt>
      <trkpt lon="-2.261421" lat="53.121536"><ele>98.299004</ele><time>2022-03-04T09:40:33Z</time><extensions><speed>0.439524</speed><course>240.785767</course><hAcc>1.742890</hAcc><vAcc>0.827765</vAcc></extensions></trkpt>
      <trkpt lon="-2.261426" lat="53.121535"><ele>98.287048</ele><time>2022-03-04T09:40:34Z</time><extensions><speed>0.263621</speed><course>248.706787</course><hAcc>1.738467</hAcc><vAcc>0.827738</vAcc></extensions></trkpt>
      <trkpt lon="-2.261430" lat="53.121534"><ele>98.279655</ele><time>2022-03-04T09:40:35Z</time><extensions><speed>0.249476</speed><course>253.557419</course><hAcc>1.718857</hAcc><vAcc>0.827685</vAcc></extensions></trkpt>
      <trkpt lon="-2.261433" lat="53.121533"><ele>98.246681</ele><time>2022-03-04T09:40:36Z</time><extensions><speed>0.277770</speed><course>252.874603</course><hAcc>1.715733</hAcc><vAcc>0.827636</vAcc></extensions></trkpt>
      <trkpt lon="-2.261438" lat="53.121532"><ele>98.205170</ele><time>2022-03-04T09:40:37Z</time><extensions><speed>0.319101</speed><course>251.232742</course><hAcc>1.730589</hAcc><vAcc>0.827599</vAcc></extensions></trkpt>
      <trkpt lon="-2.261443" lat="53.121531"><ele>98.151321</ele><time>2022-03-04T09:40:38Z</time><extensions><speed>0.418225</speed><course>251.119263</course><hAcc>1.735530</hAcc><vAcc>0.827583</vAcc></extensions></trkpt>
      <trkpt lon="-2.261450" lat="53.121530"><ele>98.099121</ele><time>2022-03-04T09:40:39Z</time><extensions><speed>0.580324</speed><course>252.098068</course><hAcc>1.730030</hAcc><vAcc>0.827587</vAcc></extensions></trkpt>
      <trkpt lon="-2.261460" lat="53.121528"><ele>98.032585</ele><time>2022-03-04T09:40:40Z</time><extensions><speed>0.872854</speed><course>253.010223</course><hAcc>1.715852</hAcc><vAcc>0.827600</vAcc></extensions></trkpt>
      <trkpt lon="-2.261473" lat="53.121526"><ele>97.962791</ele><time>2022-03-04T09:40:41Z</time><extensions><speed>0.948649</speed><course>255.775803</course><hAcc>1.721114</hAcc><vAcc>0.827635</vAcc></extensions></trkpt>
      <trkpt lon="-2.261487" lat="53.121524"><ele>97.894356</ele><time>2022-03-04T09:40:42Z</time><extensions><speed>0.851217</speed><course>255.122879</course><hAcc>1.724561</hAcc><vAcc>0.827690</vAcc></extensions></trkpt>
      <trkpt lon="-2.261498" lat="53.121522"><ele>97.834503</ele><time>2022-03-04T09:40:43Z</time><extensions><speed>0.694324</speed><course>250.069656</course><hAcc>1.722783</hAcc><vAcc>0.827732</vAcc></extensions></trkpt>
      <trkpt lon="-2.261506" lat="53.121519"><ele>97.777359</ele><time>2022-03-04T09:40:44Z</time><extensions><speed>0.608051</speed><course>239.698059</course><hAcc>1.719545</hAcc><vAcc>0.827787</vAcc></extensions></trkpt>
      <trkpt lon="-2.261515" lat="53.121516"><ele>97.715370</ele><time>2022-03-04T09:40:45Z</time><extensions><speed>0.836716</speed><course>231.645035</course><hAcc>1.717605</hAcc><vAcc>0.827831</vAcc></extensions></trkpt>
      <trkpt lon="-2.261526" lat="53.121510"><ele>97.644646</ele><time>2022-03-04T09:40:46Z</time><extensions><speed>1.035780</speed><course>233.067612</course><hAcc>1.711489</hAcc><vAcc>0.827866</vAcc></extensions></trkpt>
      <trkpt lon="-2.261539" lat="53.121505"><ele>97.579033</ele><time>2022-03-04T09:40:47Z</time><extensions><speed>1.053428</speed><course>235.825256</course><hAcc>1.707649</hAcc><vAcc>0.827899</vAcc></extensions></trkpt>
      <trkpt lon="-2.261552" lat="53.121500"><ele>97.528175</ele><time>2022-03-04T09:40:48Z</time><extensions><speed>1.077206</speed><course>237.031586</course><hAcc>1.707380</hAcc><vAcc>0.827926</vAcc></extensions></trkpt>
      <trkpt lon="-2.261566" lat="53.121495"><ele>97.467224</ele><time>2022-03-04T09:40:49Z</time><extensions><speed>1.017890</speed><course>238.825119</course><hAcc>1.707221</hAcc><vAcc>0.827948</vAcc></extensions></trkpt>
      <trkpt lon="-2.261578" lat="53.121490"><ele>97.406357</ele><time>2022-03-04T09:40:50Z</time><extensions><speed>0.916306</speed><course>241.990692</course><hAcc>1.708240</hAcc><vAcc>0.827973</vAcc></extensions></trkpt>
      <trkpt lon="-2.261589" lat="53.121487"><ele>97.360947</ele><time>2022-03-04T09:40:51Z</time><extensions><speed>0.757483</speed><course>246.947250</course><hAcc>1.708978</hAcc><vAcc>0.828004</vAcc></extensions></trkpt>
      <trkpt lon="-2.261599" lat="53.121485"><ele>97.309097</ele><time>2022-03-04T09:40:52Z</time><extensions><speed>0.657812</speed><course>248.955673</course><hAcc>1.706663</hAcc><vAcc>0.828019</vAcc></extensions></trkpt>
      <trkpt lon="-2.261610" lat="53.121482"><ele>97.254532</ele><time>2022-03-04T09:40:53Z</time><extensions><speed>0.901717</speed><course>244.769836</course><hAcc>1.703573</hAcc><vAcc>0.828030</vAcc></extensions></trkpt>
      <trkpt lon="-2.261623" lat="53.121478"><ele>97.198669</ele><time>2022-03-04T09:40:54Z</time><extensions><speed>1.044314</speed><course>241.341980</course><hAcc>1.701305</hAcc><vAcc>0.828026</vAcc></extensions></trkpt>
      <trkpt lon="-2.261637" lat="53.121474"><ele>97.138214</ele><time>2022-03-04T09:40:55Z</time><extensions><speed>1.160414</speed><course>240.655685</course><hAcc>1.689117</hAcc><vAcc>0.828019</vAcc></extensions></trkpt>
      <trkpt lon="-2.261652" lat="53.121468"><ele>97.069214</ele><time>2022-03-04T09:40:56Z</time><extensions><speed>1.233021</speed><course>239.953323</course><hAcc>1.664475</hAcc><vAcc>0.828015</vAcc></extensions></trkpt>
      <trkpt lon="-2.261668" lat="53.121463"><ele>96.997185</ele><time>2022-03-04T09:40:57Z</time><extensions><speed>1.255620</speed><course>239.578522</course><hAcc>1.624416</hAcc><vAcc>0.828006</vAcc></extensions></trkpt>
      <trkpt lon="-2.261684" lat="53.121457"><ele>96.926880</ele><time>2022-03-04T09:40:58Z</time><extensions><speed>1.307630</speed><course>239.623093</course><hAcc>1.574681</hAcc><vAcc>0.827994</vAcc></extensions></trkpt>
      <trkpt lon="-2.261701" lat="53.121452"><ele>96.849831</ele><time>2022-03-04T09:40:59Z</time><extensions><speed>1.400603</speed><course>239.153595</course><hAcc>1.537758</hAcc><vAcc>0.827994</vAcc></extensions></trkpt>
      <trkpt lon="-2.261720" lat="53.121445"><ele>96.766212</ele><time>2022-03-04T09:41:00Z</time><extensions><speed>1.565006</speed><course>238.461914</course><hAcc>1.539659</hAcc><vAcc>0.827987</vAcc></extensions></trkpt>
      <trkpt lon="-2.261740" lat="53.121438"><ele>96.674149</ele><time>2022-03-04T09:41:01Z</time><extensions><speed>1.571601</speed><course>239.494537</course><hAcc>1.506584</hAcc><vAcc>0.827994</vAcc></extensions></trkpt>
      <trkpt lon="-2.261760" lat="53.121431"><ele>96.585907</ele><time>2022-03-04T09:41:02Z</time><extensions><speed>1.580215</speed><course>239.165771</course><hAcc>1.481329</hAcc><vAcc>0.828004</vAcc></extensions></trkpt>
      <trkpt lon="-2.261779" lat="53.121424"><ele>96.492317</ele><time>2022-03-04T09:41:03Z</time><extensions><speed>1.535207</speed><course>237.942612</course><hAcc>1.466592</hAcc><vAcc>0.828001</vAcc></extensions></trkpt>
      <trkpt lon="-2.261798" lat="53.121417"><ele>96.397980</ele><time>2022-03-04T09:41:04Z</time><extensions><speed>1.498963</speed><course>238.653412</course><hAcc>1.456329</hAcc><vAcc>0.827998</vAcc></extensions></trkpt>
      <trkpt lon="-2.261816" lat="53.121410"><ele>96.312347</ele><time>2022-03-04T09:41:05Z</time><extensions><speed>1.404864</speed><course>241.095688</course><hAcc>1.443893</hAcc><vAcc>0.827992</vAcc></extensions></trkpt>
      <trkpt lon="-2.261835" lat="53.121404"><ele>96.207756</ele><time>2022-03-04T09:41:06Z</time><extensions><speed>1.435396</speed><course>244.029175</course><hAcc>1.449479</hAcc><vAcc>0.827984</vAcc></extensions></trkpt>
      <trkpt lon="-2.261854" lat="53.121399"><ele>96.113083</ele><time>2022-03-04T09:41:07Z</time><extensions><speed>1.418618</speed><course>247.264893</course><hAcc>1.457255</hAcc><vAcc>0.827972</vAcc></extensions></trkpt>
      <trkpt lon="-2.261874" lat="53.121394"><ele>96.032494</ele><time>2022-03-04T09:41:08Z</time><extensions><speed>1.429954</speed><course>247.377625</course><hAcc>1.469338</hAcc><vAcc>0.827965</vAcc></extensions></trkpt>
      <trkpt lon="-2.261892" lat="53.121389"><ele>95.959435</ele><time>2022-03-04T09:41:09Z</time><extensions><speed>1.319149</speed><course>245.217316</course><hAcc>1.456940</hAcc><vAcc>0.827951</vAcc></extensions></trkpt>
      <trkpt lon="-2.261909" lat="53.121384"><ele>95.878922</ele><time>2022-03-04T09:41:10Z</time><extensions><speed>1.325125</speed><course>241.452118</course><hAcc>1.465768</hAcc><vAcc>0.827941</vAcc></extensions></trkpt>
      <trkpt lon="-2.261927" lat="53.121378"><ele>95.797249</ele><time>2022-03-04T09:41:11Z</time><extensions><speed>1.369691</speed><course>241.577423</course><hAcc>1.480988</hAcc><vAcc>0.827946</vAcc></extensions></trkpt>
      <trkpt lon="-2.261945" lat="53.121373"><ele>95.725441</ele><time>2022-03-04T09:41:12Z</time><extensions><speed>1.396656</speed><course>243.956192</course><hAcc>1.501724</hAcc><vAcc>0.827959</vAcc></extensions></trkpt>
      <trkpt lon="-2.261963" lat="53.121367"><ele>95.661980</ele><time>2022-03-04T09:41:13Z</time><extensions><speed>1.405820</speed><course>241.192902</course><hAcc>1.486553</hAcc><vAcc>0.827974</vAcc></extensions></trkpt>
      <trkpt lon="-2.261982" lat="53.121361"><ele>95.591621</ele><time>2022-03-04T09:41:14Z</time><extensions><speed>1.454493</speed><course>238.115204</course><hAcc>1.492505</hAcc><vAcc>0.828000</vAcc></extensions></trkpt>
      <trkpt lon="-2.262000" lat="53.121354"><ele>95.535484</ele><time>2022-03-04T09:41:15Z</time><extensions><speed>1.446313</speed><course>237.249863</course><hAcc>1.492774</hAcc><vAcc>0.828026</vAcc></extensions></trkpt>
      <trkpt lon="-2.262017" lat="53.121347"><ele>95.486748</ele><time>2022-03-04T09:41:16Z</time><extensions><speed>1.426283</speed><course>236.189774</course><hAcc>1.479235</hAcc><vAcc>0.828061</vAcc></extensions></trkpt>
      <trkpt lon="-2.262035" lat="53.121340"><ele>95.451424</ele><time>2022-03-04T09:41:17Z</time><extensions><speed>1.443712</speed><course>236.043854</course><hAcc>1.483239</hAcc><vAcc>0.828102</vAcc></extensions></trkpt>
      <trkpt lon="-2.262053" lat="53.121332"><ele>95.418396</ele><time>2022-03-04T09:41:18Z</time><extensions><speed>1.505283</speed><course>233.793030</course><hAcc>1.498603</hAcc><vAcc>0.828151</vAcc></extensions></trkpt>
      <trkpt lon="-2.262070" lat="53.121324"><ele>95.383514</ele><time>2022-03-04T09:41:19Z</time><extensions><speed>1.513486</speed><course>230.817963</course><hAcc>1.486090</hAcc><vAcc>0.828200</vAcc></extensions></trkpt>
      <trkpt lon="-2.262087" lat="53.121315"><ele>95.350693</ele><time>2022-03-04T09:41:20Z</time><extensions><speed>1.503933</speed><course>227.558502</course><hAcc>1.470179</hAcc><vAcc>0.828250</vAcc></extensions></trkpt>
      <trkpt lon="-2.262104" lat="53.121306"><ele>95.327629</ele><time>2022-03-04T09:41:21Z</time><extensions><speed>1.537578</speed><course>227.450089</course><hAcc>1.477634</hAcc><vAcc>0.828286</vAcc></extensions></trkpt>
      <trkpt lon="-2.262121" lat="53.121297"><ele>95.313568</ele><time>2022-03-04T09:41:22Z</time><extensions><speed>1.556400</speed><course>230.045059</course><hAcc>1.488339</hAcc><vAcc>0.828317</vAcc></extensions></trkpt>
      <trkpt lon="-2.262139" lat="53.121288"><ele>95.301460</ele><time>2022-03-04T09:41:23Z</time><extensions><speed>1.539339</speed><course>233.012558</course><hAcc>1.496385</hAcc><vAcc>0.828324</vAcc></extensions></trkpt>
      <trkpt lon="-2.262156" lat="53.121280"><ele>95.283447</ele><time>2022-03-04T09:41:24Z</time><extensions><speed>1.476214</speed><course>232.969574</course><hAcc>1.499145</hAcc><vAcc>0.828339</vAcc></extensions></trkpt>
      <trkpt lon="-2.262174" lat="53.121273"><ele>95.259880</ele><time>2022-03-04T09:41:25Z</time><extensions><speed>1.440680</speed><course>231.492188</course><hAcc>1.479849</hAcc><vAcc>0.828328</vAcc></extensions></trkpt>
      <trkpt lon="-2.262190" lat="53.121265"><ele>95.252411</ele><time>2022-03-04T09:41:26Z</time><extensions><speed>1.429533</speed><course>230.769257</course><hAcc>1.472603</hAcc><vAcc>0.828305</vAcc></extensions></trkpt>
      <trkpt lon="-2.262207" lat="53.121257"><ele>95.241241</ele><time>2022-03-04T09:41:27Z</time><extensions><speed>1.459537</speed><course>231.703598</course><hAcc>1.486372</hAcc><vAcc>0.828273</vAcc></extensions></trkpt>
      <trkpt lon="-2.262224" lat="53.121249"><ele>95.225693</ele><time>2022-03-04T09:41:28Z</time><extensions><speed>1.463626</speed><course>232.209641</course><hAcc>1.500384</hAcc><vAcc>0.828234</vAcc></extensions></trkpt>
      <trkpt lon="-2.262241" lat="53.121241"><ele>95.216766</ele><time>2022-03-04T09:41:29Z</time><extensions><speed>1.485131</speed><course>230.333191</course><hAcc>1.502784</hAcc><vAcc>0.828197</vAcc></extensions></trkpt>
      <trkpt lon="-2.262257" lat="53.121232"><ele>95.215370</ele><time>2022-03-04T09:41:30Z</time><extensions><speed>1.489209</speed><course>228.237717</course><hAcc>1.507453</hAcc><vAcc>0.828172</vAcc></extensions></trkpt>
      <trkpt lon="-2.262274" lat="53.121223"><ele>95.202728</ele><time>2022-03-04T09:41:32Z</time><extensions><speed>1.444577</speed><course>228.956970</course><hAcc>1.484118</hAcc><vAcc>0.828132</vAcc></extensions></trkpt>
      <trkpt lon="-2.262290" lat="53.121215"><ele>95.181747</ele><time>2022-03-04T09:41:33Z</time><extensions><speed>1.420479</speed><course>232.482590</course><hAcc>1.476130</hAcc><vAcc>0.828067</vAcc></extensions></trkpt>
      <trkpt lon="-2.262307" lat="53.121208"><ele>95.174942</ele><time>2022-03-04T09:41:34Z</time><extensions><speed>1.489498</speed><course>234.917053</course><hAcc>1.494020</hAcc><vAcc>0.828021</vAcc></extensions></trkpt>
      <trkpt lon="-2.262325" lat="53.121200"><ele>95.170296</ele><time>2022-03-04T09:41:35Z</time><extensions><speed>1.475834</speed><course>235.944839</course><hAcc>1.489733</hAcc><vAcc>0.827975</vAcc></extensions></trkpt>
      <trkpt lon="-2.262343" lat="53.121194"><ele>95.166832</ele><time>2022-03-04T09:41:36Z</time><extensions><speed>1.457388</speed><course>239.107620</course><hAcc>1.478603</hAcc><vAcc>0.827942</vAcc></extensions></trkpt>
      <trkpt lon="-2.262362" lat="53.121187"><ele>95.161469</ele><time>2022-03-04T09:41:37Z</time><extensions><speed>1.496495</speed><course>240.710251</course><hAcc>1.485874</hAcc><vAcc>0.827918</vAcc></extensions></trkpt>
      <trkpt lon="-2.262382" lat="53.121180"><ele>95.155952</ele><time>2022-03-04T09:41:38Z</time><extensions><speed>1.563940</speed><course>240.931747</course><hAcc>1.491167</hAcc><vAcc>0.827891</vAcc></extensions></trkpt>
      <trkpt lon="-2.262403" lat="53.121174"><ele>95.151855</ele><time>2022-03-04T09:41:39Z</time><extensions><speed>1.583640</speed><course>242.013962</course><hAcc>1.486877</hAcc><vAcc>0.827869</vAcc></extensions></trkpt>
      <trkpt lon="-2.262423" lat="53.121168"><ele>95.147308</ele><time>2022-03-04T09:41:40Z</time><extensions><speed>1.468653</speed><course>244.698792</course><hAcc>1.464740</hAcc><vAcc>0.827850</vAcc></extensions></trkpt>
      <trkpt lon="-2.262443" lat="53.121162"><ele>95.147507</ele><time>2022-03-04T09:41:41Z</time><extensions><speed>1.485042</speed><course>244.761688</course><hAcc>1.481999</hAcc><vAcc>0.827841</vAcc></extensions></trkpt>
      <trkpt lon="-2.262462" lat="53.121157"><ele>95.146812</ele><time>2022-03-04T09:41:42Z</time><extensions><speed>1.466679</speed><course>247.482254</course><hAcc>1.480833</hAcc><vAcc>0.827825</vAcc></extensions></trkpt>
      <trkpt lon="-2.262483" lat="53.121152"><ele>95.148239</ele><time>2022-03-04T09:41:43Z</time><extensions><speed>1.521817</speed><course>248.930252</course><hAcc>1.506969</hAcc><vAcc>0.827818</vAcc></extensions></trkpt>
      <trkpt lon="-2.262504" lat="53.121147"><ele>95.140663</ele><time>2022-03-04T09:41:44Z</time><extensions><speed>1.520648</speed><course>250.595108</course><hAcc>1.513188</hAcc><vAcc>0.827808</vAcc></extensions></trkpt>
      <trkpt lon="-2.262525" lat="53.121143"><ele>95.135193</ele><time>2022-03-04T09:41:45Z</time><extensions><speed>1.449320</speed><course>253.357544</course><hAcc>1.492736</hAcc><vAcc>0.827794</vAcc></extensions></trkpt>
      <trkpt lon="-2.262545" lat="53.121140"><ele>95.144142</ele><time>2022-03-04T09:41:46Z</time><extensions><speed>1.432746</speed><course>255.493759</course><hAcc>1.512707</hAcc><vAcc>0.827785</vAcc></extensions></trkpt>
      <trkpt lon="-2.262566" lat="53.121137"><ele>95.147781</ele><time>2022-03-04T09:41:47Z</time><extensions><speed>1.457611</speed><course>256.926453</course><hAcc>1.551106</hAcc><vAcc>0.827776</vAcc></extensions></trkpt>
      <trkpt lon="-2.262587" lat="53.121134"><ele>95.153282</ele><time>2022-03-04T09:41:48Z</time><extensions><speed>1.449633</speed><course>259.470917</course><hAcc>1.542005</hAcc><vAcc>0.827767</vAcc></extensions></trkpt>
      <trkpt lon="-2.262608" lat="53.121132"><ele>95.170570</ele><time>2022-03-04T09:41:49Z</time><extensions><speed>1.458074</speed><course>261.950226</course><hAcc>1.548085</hAcc><vAcc>0.827757</vAcc></extensions></trkpt>
      <trkpt lon="-2.262630" lat="53.121130"><ele>95.176727</ele><time>2022-03-04T09:41:50Z</time><extensions><speed>1.434467</speed><course>261.584534</course><hAcc>1.553684</hAcc><vAcc>0.827749</vAcc></extensions></trkpt>
      <trkpt lon="-2.262651" lat="53.121128"><ele>95.187607</ele><time>2022-03-04T09:41:51Z</time><extensions><speed>1.416935</speed><course>258.350861</course><hAcc>1.570826</hAcc><vAcc>0.827744</vAcc></extensions></trkpt>
      <trkpt lon="-2.262671" lat="53.121125"><ele>95.201912</ele><time>2022-03-04T09:41:52Z</time><extensions><speed>1.429603</speed><course>254.851776</course><hAcc>1.590459</hAcc><vAcc>0.827732</vAcc></extensions></trkpt>
      <trkpt lon="-2.262691" lat="53.121121"><ele>95.214363</ele><time>2022-03-04T09:41:53Z</time><extensions><speed>1.377299</speed><course>253.996704</course><hAcc>1.595700</hAcc><vAcc>0.827730</vAcc></extensions></trkpt>
      <trkpt lon="-2.262711" lat="53.121118"><ele>95.224876</ele><time>2022-03-04T09:41:54Z</time><extensions><speed>1.360686</speed><course>254.229065</course><hAcc>1.594118</hAcc><vAcc>0.827724</vAcc></extensions></trkpt>
      <trkpt lon="-2.262731" lat="53.121115"><ele>95.235077</ele><time>2022-03-04T09:41:55Z</time><extensions><speed>1.394329</speed><course>256.388092</course><hAcc>1.611973</hAcc><vAcc>0.827722</vAcc></extensions></trkpt>
      <trkpt lon="-2.262751" lat="53.121112"><ele>95.247780</ele><time>2022-03-04T09:41:56Z</time><extensions><speed>1.361665</speed><course>255.523605</course><hAcc>1.622017</hAcc><vAcc>0.827710</vAcc></extensions></trkpt>
      <trkpt lon="-2.262770" lat="53.121109"><ele>95.250755</ele><time>2022-03-04T09:41:57Z</time><extensions><speed>1.264381</speed><course>251.707153</course><hAcc>1.632425</hAcc><vAcc>0.827690</vAcc></extensions></trkpt>
      <trkpt lon="-2.262786" lat="53.121105"><ele>95.251862</ele><time>2022-03-04T09:41:58Z</time><extensions><speed>1.098808</speed><course>247.313004</course><hAcc>1.654935</hAcc><vAcc>0.827657</vAcc></extensions></trkpt>
      <trkpt lon="-2.262800" lat="53.121101"><ele>95.251144</ele><time>2022-03-04T09:41:59Z</time><extensions><speed>0.966908</speed><course>245.417603</course><hAcc>1.666544</hAcc><vAcc>0.827613</vAcc></extensions></trkpt>
      <trkpt lon="-2.262814" lat="53.121097"><ele>95.242096</ele><time>2022-03-04T09:42:00Z</time><extensions><speed>0.989998</speed><course>246.118195</course><hAcc>1.678794</hAcc><vAcc>0.827571</vAcc></extensions></trkpt>
      <trkpt lon="-2.262827" lat="53.121094"><ele>95.238235</ele><time>2022-03-04T09:42:01Z</time><extensions><speed>0.985238</speed><course>243.929276</course><hAcc>1.696581</hAcc><vAcc>0.827519</vAcc></extensions></trkpt>
      <trkpt lon="-2.262840" lat="53.121090"><ele>95.234352</ele><time>2022-03-04T09:42:02Z</time><extensions><speed>0.934613</speed><course>240.334229</course><hAcc>1.716378</hAcc><vAcc>0.827458</vAcc></extensions></trkpt>
      <trkpt lon="-2.262850" lat="53.121086"><ele>95.230347</ele><time>2022-03-04T09:42:03Z</time><extensions><speed>0.775700</speed><course>234.790344</course><hAcc>1.733989</hAcc><vAcc>0.827414</vAcc></extensions></trkpt>
      <trkpt lon="-2.262858" lat="53.121082"><ele>95.229759</ele><time>2022-03-04T09:42:04Z</time><extensions><speed>0.564638</speed><course>230.077316</course><hAcc>1.737372</hAcc><vAcc>0.827348</vAcc></extensions></trkpt>
      <trkpt lon="-2.262864" lat="53.121079"><ele>95.233994</ele><time>2022-03-04T09:42:05Z</time><extensions><speed>0.407012</speed><course>220.808044</course><hAcc>1.725103</hAcc><vAcc>0.827298</vAcc></extensions></trkpt>
      <trkpt lon="-2.262867" lat="53.121076"><ele>95.230209</ele><time>2022-03-04T09:42:06Z</time><extensions><speed>0.352865</speed><course>206.918793</course><hAcc>1.710380</hAcc><vAcc>0.827258</vAcc></extensions></trkpt>
      <trkpt lon="-2.262868" lat="53.121073"><ele>95.213333</ele><time>2022-03-04T09:42:07Z</time><extensions><speed>0.303026</speed><course>190.139801</course><hAcc>1.720357</hAcc><vAcc>0.827210</vAcc></extensions></trkpt>
      <trkpt lon="-2.262869" lat="53.121070"><ele>95.198883</ele><time>2022-03-04T09:42:08Z</time><extensions><speed>0.390975</speed><course>187.794144</course><hAcc>1.706709</hAcc><vAcc>0.827192</vAcc></extensions></trkpt>
      <trkpt lon="-2.262871" lat="53.121066"><ele>95.183342</ele><time>2022-03-04T09:42:09Z</time><extensions><speed>0.580925</speed><course>191.916031</course><hAcc>1.679213</hAcc><vAcc>0.827204</vAcc></extensions></trkpt>
      <trkpt lon="-2.262874" lat="53.121059"><ele>95.163383</ele><time>2022-03-04T09:42:10Z</time><extensions><speed>0.953188</speed><course>196.286118</course><hAcc>1.649081</hAcc><vAcc>0.827230</vAcc></extensions></trkpt>
      <trkpt lon="-2.262879" lat="53.121050"><ele>95.146912</ele><time>2022-03-04T09:42:11Z</time><extensions><speed>1.203840</speed><course>197.155457</course><hAcc>1.613005</hAcc><vAcc>0.827291</vAcc></extensions></trkpt>
      <trkpt lon="-2.262884" lat="53.121039"><ele>95.129562</ele><time>2022-03-04T09:42:12Z</time><extensions><speed>1.269114</speed><course>198.116608</course><hAcc>1.592147</hAcc><vAcc>0.827359</vAcc></extensions></trkpt>
      <trkpt lon="-2.262891" lat="53.121028"><ele>95.108421</ele><time>2022-03-04T09:42:13Z</time><extensions><speed>1.271619</speed><course>200.013992</course><hAcc>1.605896</hAcc><vAcc>0.827443</vAcc></extensions></trkpt>
      <trkpt lon="-2.262898" lat="53.121018"><ele>95.078445</ele><time>2022-03-04T09:42:14Z</time><extensions><speed>1.199711</speed><course>205.698700</course><hAcc>1.548878</hAcc><vAcc>0.827521</vAcc></extensions></trkpt>
      <trkpt lon="-2.262906" lat="53.121009"><ele>95.059593</ele><time>2022-03-04T09:42:15Z</time><extensions><speed>1.099060</speed><course>211.394333</course><hAcc>1.536141</hAcc><vAcc>0.827631</vAcc></extensions></trkpt>
      <trkpt lon="-2.262915" lat="53.121001"><ele>95.035706</ele><time>2022-03-04T09:42:16Z</time><extensions><speed>0.919083</speed><course>218.202530</course><hAcc>1.539079</hAcc><vAcc>0.827731</vAcc></extensions></trkpt>
      <trkpt lon="-2.262924" lat="53.120995"><ele>95.022835</ele><time>2022-03-04T09:42:17Z</time><extensions><speed>0.974596</speed><course>222.405792</course><hAcc>1.502697</hAcc><vAcc>0.827819</vAcc></extensions></trkpt>
      <trkpt lon="-2.262934" lat="53.120988"><ele>95.010765</ele><time>2022-03-04T09:42:18Z</time><extensions><speed>1.032626</speed><course>223.824310</course><hAcc>1.536403</hAcc><vAcc>0.827920</vAcc></extensions></trkpt>
      <trkpt lon="-2.262945" lat="53.120982"><ele>94.997879</ele><time>2022-03-04T09:42:19Z</time><extensions><speed>0.958497</speed><course>223.848846</course><hAcc>1.591699</hAcc><vAcc>0.827993</vAcc></extensions></trkpt>
      <trkpt lon="-2.262955" lat="53.120975"><ele>94.990082</ele><time>2022-03-04T09:42:20Z</time><extensions><speed>1.078561</speed><course>224.791931</course><hAcc>1.534388</hAcc><vAcc>0.828071</vAcc></extensions></trkpt>
      <trkpt lon="-2.262967" lat="53.120969"><ele>94.989029</ele><time>2022-03-04T09:42:21Z</time><extensions><speed>1.060407</speed><course>223.985840</course><hAcc>1.531309</hAcc><vAcc>0.828131</vAcc></extensions></trkpt>
      <trkpt lon="-2.262978" lat="53.120961"><ele>94.992134</ele><time>2022-03-04T09:42:22Z</time><extensions><speed>1.080841</speed><course>222.251205</course><hAcc>1.551778</hAcc><vAcc>0.828184</vAcc></extensions></trkpt>
      <trkpt lon="-2.262988" lat="53.120954"><ele>95.000191</ele><time>2022-03-04T09:42:23Z</time><extensions><speed>1.059580</speed><course>219.996155</course><hAcc>1.579886</hAcc><vAcc>0.828233</vAcc></extensions></trkpt>
      <trkpt lon="-2.262999" lat="53.120947"><ele>95.029358</ele><time>2022-03-04T09:42:24Z</time><extensions><speed>1.117009</speed><course>219.737213</course><hAcc>1.602286</hAcc><vAcc>0.828290</vAcc></extensions></trkpt>
      <trkpt lon="-2.263009" lat="53.120939"><ele>95.070076</ele><time>2022-03-04T09:42:25Z</time><extensions><speed>1.083335</speed><course>221.734741</course><hAcc>1.642937</hAcc><vAcc>0.828346</vAcc></extensions></trkpt>
      <trkpt lon="-2.263020" lat="53.120933"><ele>95.109344</ele><time>2022-03-04T09:42:26Z</time><extensions><speed>0.900143</speed><course>231.084717</course><hAcc>1.656816</hAcc><vAcc>0.828399</vAcc></extensions></trkpt>
      <trkpt lon="-2.263031" lat="53.120929"><ele>95.153320</ele><time>2022-03-04T09:42:27Z</time><extensions><speed>0.793880</speed><course>243.282303</course><hAcc>1.632381</hAcc><vAcc>0.828437</vAcc></extensions></trkpt>
      <trkpt lon="-2.263042" lat="53.120926"><ele>95.201393</ele><time>2022-03-04T09:42:28Z</time><extensions><speed>0.822318</speed><course>246.729858</course><hAcc>1.635854</hAcc><vAcc>0.828465</vAcc></extensions></trkpt>
      <trkpt lon="-2.263052" lat="53.120923"><ele>95.257401</ele><time>2022-03-04T09:42:29Z</time><extensions><speed>0.781755</speed><course>242.842926</course><hAcc>1.666497</hAcc><vAcc>0.828487</vAcc></extensions></trkpt>
      <trkpt lon="-2.263062" lat="53.120919"><ele>95.318443</ele><time>2022-03-04T09:42:30Z</time><extensions><speed>0.780701</speed><course>236.137085</course><hAcc>1.694061</hAcc><vAcc>0.828493</vAcc></extensions></trkpt>
      <trkpt lon="-2.263072" lat="53.120915"><ele>95.371124</ele><time>2022-03-04T09:42:31Z</time><extensions><speed>0.766530</speed><course>233.324432</course><hAcc>1.708275</hAcc><vAcc>0.828488</vAcc></extensions></trkpt>
      <trkpt lon="-2.263081" lat="53.120912"><ele>95.415352</ele><time>2022-03-04T09:42:32Z</time><extensions><speed>0.664480</speed><course>241.101547</course><hAcc>1.706832</hAcc><vAcc>0.828477</vAcc></extensions></trkpt>
      <trkpt lon="-2.263090" lat="53.120910"><ele>95.460190</ele><time>2022-03-04T09:42:33Z</time><extensions><speed>0.657048</speed><course>258.110504</course><hAcc>1.708200</hAcc><vAcc>0.828457</vAcc></extensions></trkpt>
      <trkpt lon="-2.263101" lat="53.120910"><ele>95.502296</ele><time>2022-03-04T09:42:34Z</time><extensions><speed>0.765735</speed><course>276.084961</course><hAcc>1.713753</hAcc><vAcc>0.828440</vAcc></extensions></trkpt>
      <trkpt lon="-2.263113" lat="53.120911"><ele>95.536438</ele><time>2022-03-04T09:42:35Z</time><extensions><speed>0.981294</speed><course>286.982880</course><hAcc>1.721817</hAcc><vAcc>0.828417</vAcc></extensions></trkpt>
      <trkpt lon="-2.263128" lat="53.120915"><ele>95.570023</ele><time>2022-03-04T09:42:36Z</time><extensions><speed>1.176018</speed><course>293.867981</course><hAcc>1.719741</hAcc><vAcc>0.828391</vAcc></extensions></trkpt>
      <trkpt lon="-2.263145" lat="53.120920"><ele>95.601540</ele><time>2022-03-04T09:42:36Z</time><extensions><speed>1.274652</speed><course>298.157227</course><hAcc>1.713413</hAcc><vAcc>0.828341</vAcc></extensions></trkpt>
      <trkpt lon="-2.263161" lat="53.120925"><ele>95.634750</ele><time>2022-03-04T09:42:37Z</time><extensions><speed>1.271356</speed><course>302.652191</course><hAcc>1.710557</hAcc><vAcc>0.828292</vAcc></extensions></trkpt>
      <trkpt lon="-2.263176" lat="53.120932"><ele>95.659599</ele><time>2022-03-04T09:42:38Z</time><extensions><speed>1.212638</speed><course>305.684021</course><hAcc>1.708505</hAcc><vAcc>0.828237</vAcc></extensions></trkpt>
      <trkpt lon="-2.263190" lat="53.120938"><ele>95.674400</ele><time>2022-03-04T09:42:39Z</time><extensions><speed>1.045878</speed><course>307.222931</course><hAcc>1.703879</hAcc><vAcc>0.828178</vAcc></extensions></trkpt>
      <trkpt lon="-2.263201" lat="53.120943"><ele>95.682388</ele><time>2022-03-04T09:42:40Z</time><extensions><speed>0.895167</speed><course>308.135498</course><hAcc>1.694634</hAcc><vAcc>0.828105</vAcc></extensions></trkpt>
      <trkpt lon="-2.263212" lat="53.120948"><ele>95.686409</ele><time>2022-03-04T09:42:41Z</time><extensions><speed>0.831807</speed><course>307.264465</course><hAcc>1.679768</hAcc><vAcc>0.828030</vAcc></extensions></trkpt>
      <trkpt lon="-2.263222" lat="53.120952"><ele>95.684822</ele><time>2022-03-04T09:42:42Z</time><extensions><speed>0.872056</speed><course>305.886902</course><hAcc>1.666026</hAcc><vAcc>0.827948</vAcc></extensions></trkpt>
      <trkpt lon="-2.263233" lat="53.120957"><ele>95.683266</ele><time>2022-03-04T09:42:43Z</time><extensions><speed>0.918686</speed><course>305.213348</course><hAcc>1.660674</hAcc><vAcc>0.827865</vAcc></extensions></trkpt>
      <trkpt lon="-2.263245" lat="53.120961"><ele>95.680420</ele><time>2022-03-04T09:42:44Z</time><extensions><speed>0.991124</speed><course>304.024353</course><hAcc>1.676296</hAcc><vAcc>0.827773</vAcc></extensions></trkpt>
      <trkpt lon="-2.263257" lat="53.120966"><ele>95.682320</ele><time>2022-03-04T09:42:45Z</time><extensions><speed>0.975644</speed><course>303.726044</course><hAcc>1.706976</hAcc><vAcc>0.827682</vAcc></extensions></trkpt>
      <trkpt lon="-2.263268" lat="53.120971"><ele>95.692406</ele><time>2022-03-04T09:42:46Z</time><extensions><speed>0.738375</speed><course>303.341675</course><hAcc>1.678263</hAcc><vAcc>0.827600</vAcc></extensions></trkpt>
      <trkpt lon="-2.263276" lat="53.120973"><ele>95.707314</ele><time>2022-03-04T09:42:47Z</time><extensions><speed>0.508050</speed><course>298.611145</course><hAcc>1.671740</hAcc><vAcc>0.827518</vAcc></extensions></trkpt>
      <trkpt lon="-2.263281" lat="53.120975"><ele>95.725159</ele><time>2022-03-04T09:42:48Z</time><extensions><speed>0.334040</speed><course>276.798096</course><hAcc>1.684962</hAcc><vAcc>0.827451</vAcc></extensions></trkpt>
      <trkpt lon="-2.263285" lat="53.120974"><ele>95.749237</ele><time>2022-03-04T09:42:49Z</time><extensions><speed>0.299096</speed><course>231.305817</course><hAcc>1.706931</hAcc><vAcc>0.827403</vAcc></extensions></trkpt>
      <trkpt lon="-2.263289" lat="53.120972"><ele>95.770744</ele><time>2022-03-04T09:42:50Z</time><extensions><speed>0.399052</speed><course>212.153809</course><hAcc>1.722522</hAcc><vAcc>0.827360</vAcc></extensions></trkpt>
      <trkpt lon="-2.263292" lat="53.120968"><ele>95.792801</ele><time>2022-03-04T09:42:51Z</time><extensions><speed>0.484456</speed><course>204.394623</course><hAcc>1.731843</hAcc><vAcc>0.827335</vAcc></extensions></trkpt>
      <trkpt lon="-2.263295" lat="53.120964"><ele>95.812469</ele><time>2022-03-04T09:42:52Z</time><extensions><speed>0.527802</speed><course>198.352402</course><hAcc>1.738795</hAcc><vAcc>0.827324</vAcc></extensions></trkpt>
      <trkpt lon="-2.263297" lat="53.120959"><ele>95.834503</ele><time>2022-03-04T09:42:53Z</time><extensions><speed>0.526380</speed><course>191.469086</course><hAcc>1.744561</hAcc><vAcc>0.827334</vAcc></extensions></trkpt>
      <trkpt lon="-2.263298" lat="53.120954"><ele>95.854034</ele><time>2022-03-04T09:42:54Z</time><extensions><speed>0.514462</speed><course>183.941452</course><hAcc>1.745998</hAcc><vAcc>0.827359</vAcc></extensions></trkpt>
      <trkpt lon="-2.263298" lat="53.120949"><ele>95.872635</ele><time>2022-03-04T09:42:55Z</time><extensions><speed>0.522871</speed><course>177.836777</course><hAcc>1.744896</hAcc><vAcc>0.827386</vAcc></extensions></trkpt>
      <trkpt lon="-2.263298" lat="53.120944"><ele>95.890427</ele><time>2022-03-04T09:42:56Z</time><extensions><speed>0.560416</speed><course>175.287689</course><hAcc>1.744802</hAcc><vAcc>0.827420</vAcc></extensions></trkpt>
      <trkpt lon="-2.263297" lat="53.120939"><ele>95.910782</ele><time>2022-03-04T09:42:57Z</time><extensions><speed>0.627290</speed><course>176.728348</course><hAcc>1.745309</hAcc><vAcc>0.827449</vAcc></extensions></trkpt>
      <trkpt lon="-2.263297" lat="53.120933"><ele>95.931374</ele><time>2022-03-04T09:42:58Z</time><extensions><speed>0.724564</speed><course>180.537613</course><hAcc>1.744414</hAcc><vAcc>0.827467</vAcc></extensions></trkpt>
      <trkpt lon="-2.263297" lat="53.120926"><ele>95.951767</ele><time>2022-03-04T09:42:59Z</time><extensions><speed>0.832801</speed><course>184.931030</course><hAcc>1.743387</hAcc><vAcc>0.827469</vAcc></extensions></trkpt>
      <trkpt lon="-2.263299" lat="53.120918"><ele>95.973869</ele><time>2022-03-04T09:43:00Z</time><extensions><speed>0.944976</speed><course>188.524399</course><hAcc>1.742135</hAcc><vAcc>0.827454</vAcc></extensions></trkpt>
      <trkpt lon="-2.263302" lat="53.120909"><ele>95.992630</ele><time>2022-03-04T09:43:01Z</time><extensions><speed>1.020973</speed><course>190.906799</course><hAcc>1.743706</hAcc><vAcc>0.827425</vAcc></extensions></trkpt>
      <trkpt lon="-2.263305" lat="53.120900"><ele>96.011993</ele><time>2022-03-04T09:43:02Z</time><extensions><speed>1.081438</speed><course>192.443756</course><hAcc>1.744358</hAcc><vAcc>0.827382</vAcc></extensions></trkpt>
      <trkpt lon="-2.263309" lat="53.120890"><ele>96.028046</ele><time>2022-03-04T09:43:03Z</time><extensions><speed>1.119958</speed><course>193.562378</course><hAcc>1.744078</hAcc><vAcc>0.827331</vAcc></extensions></trkpt>
      <trkpt lon="-2.263313" lat="53.120880"><ele>96.046364</ele><time>2022-03-04T09:43:04Z</time><extensions><speed>1.155281</speed><course>194.502243</course><hAcc>1.742043</hAcc><vAcc>0.827269</vAcc></extensions></trkpt>
      <trkpt lon="-2.263317" lat="53.120870"><ele>96.070168</ele><time>2022-03-04T09:43:05Z</time><extensions><speed>1.165391</speed><course>195.315033</course><hAcc>1.742458</hAcc><vAcc>0.827201</vAcc></extensions></trkpt>
      <trkpt lon="-2.263322" lat="53.120859"><ele>96.097061</ele><time>2022-03-04T09:43:06Z</time><extensions><speed>1.167531</speed><course>196.272858</course><hAcc>1.744285</hAcc><vAcc>0.827131</vAcc></extensions></trkpt>
      <trkpt lon="-2.263327" lat="53.120849"><ele>96.124847</ele><time>2022-03-04T09:43:07Z</time><extensions><speed>1.158564</speed><course>197.696091</course><hAcc>1.746416</hAcc><vAcc>0.827060</vAcc></extensions></trkpt>
      <trkpt lon="-2.263333" lat="53.120839"><ele>96.158203</ele><time>2022-03-04T09:43:08Z</time><extensions><speed>1.181120</speed><course>199.539536</course><hAcc>1.744483</hAcc><vAcc>0.826999</vAcc></extensions></trkpt>
      <trkpt lon="-2.263339" lat="53.120829"><ele>96.189522</ele><time>2022-03-04T09:43:09Z</time><extensions><speed>1.200020</speed><course>201.412979</course><hAcc>1.743376</hAcc><vAcc>0.826942</vAcc></extensions></trkpt>
      <trkpt lon="-2.263346" lat="53.120819"><ele>96.228287</ele><time>2022-03-04T09:43:10Z</time><extensions><speed>1.206939</speed><course>202.980804</course><hAcc>1.744575</hAcc><vAcc>0.826892</vAcc></extensions></trkpt>
      <trkpt lon="-2.263354" lat="53.120809"><ele>96.268654</ele><time>2022-03-04T09:43:11Z</time><extensions><speed>1.211815</speed><course>204.138046</course><hAcc>1.745958</hAcc><vAcc>0.826854</vAcc></extensions></trkpt>
      <trkpt lon="-2.263361" lat="53.120799"><ele>96.317162</ele><time>2022-03-04T09:43:12Z</time><extensions><speed>1.221104</speed><course>204.918549</course><hAcc>1.747211</hAcc><vAcc>0.826824</vAcc></extensions></trkpt>
      <trkpt lon="-2.263369" lat="53.120789"><ele>96.364830</ele><time>2022-03-04T09:43:13Z</time><extensions><speed>1.230887</speed><course>205.554047</course><hAcc>1.748030</hAcc><vAcc>0.826804</vAcc></extensions></trkpt>
      <trkpt lon="-2.263377" lat="53.120778"><ele>96.413269</ele><time>2022-03-04T09:43:14Z</time><extensions><speed>1.277181</speed><course>206.099380</course><hAcc>1.745205</hAcc><vAcc>0.826795</vAcc></extensions></trkpt>
      <trkpt lon="-2.263386" lat="53.120768"><ele>96.465569</ele><time>2022-03-04T09:43:15Z</time><extensions><speed>1.311059</speed><course>206.671280</course><hAcc>1.743462</hAcc><vAcc>0.826805</vAcc></extensions></trkpt>
      <trkpt lon="-2.263395" lat="53.120757"><ele>96.515816</ele><time>2022-03-04T09:43:16Z</time><extensions><speed>1.321503</speed><course>207.198273</course><hAcc>1.743192</hAcc><vAcc>0.826821</vAcc></extensions></trkpt>
      <trkpt lon="-2.263404" lat="53.120747"><ele>96.566887</ele><time>2022-03-04T09:43:17Z</time><extensions><speed>1.311058</speed><course>207.475662</course><hAcc>1.743227</hAcc><vAcc>0.826841</vAcc></extensions></trkpt>
      <trkpt lon="-2.263414" lat="53.120736"><ele>96.612457</ele><time>2022-03-04T09:43:18Z</time><extensions><speed>1.295923</speed><course>207.535141</course><hAcc>1.742219</hAcc><vAcc>0.826868</vAcc></extensions></trkpt>
      <trkpt lon="-2.263423" lat="53.120726"><ele>96.655922</ele><time>2022-03-04T09:43:19Z</time><extensions><speed>1.277907</speed><course>207.653107</course><hAcc>1.741030</hAcc><vAcc>0.826894</vAcc></extensions></trkpt>
      <trkpt lon="-2.263432" lat="53.120716"><ele>96.699844</ele><time>2022-03-04T09:43:20Z</time><extensions><speed>1.248639</speed><course>208.537689</course><hAcc>1.740710</hAcc><vAcc>0.826921</vAcc></extensions></trkpt>
      <trkpt lon="-2.263441" lat="53.120706"><ele>96.737564</ele><time>2022-03-04T09:43:21Z</time><extensions><speed>1.230524</speed><course>210.419586</course><hAcc>1.739697</hAcc><vAcc>0.826949</vAcc></extensions></trkpt>
      <trkpt lon="-2.263451" lat="53.120697"><ele>96.771492</ele><time>2022-03-04T09:43:22Z</time><extensions><speed>1.202361</speed><course>212.978668</course><hAcc>1.740394</hAcc><vAcc>0.826971</vAcc></extensions></trkpt>
      <trkpt lon="-2.263461" lat="53.120688"><ele>96.797791</ele><time>2022-03-04T09:43:23Z</time><extensions><speed>1.197297</speed><course>215.626358</course><hAcc>1.740384</hAcc><vAcc>0.826995</vAcc></extensions></trkpt>
      <trkpt lon="-2.263472" lat="53.120679"><ele>96.821243</ele><time>2022-03-04T09:43:24Z</time><extensions><speed>1.192576</speed><course>217.862274</course><hAcc>1.740983</hAcc><vAcc>0.827023</vAcc></extensions></trkpt>
      <trkpt lon="-2.263483" lat="53.120671"><ele>96.833221</ele><time>2022-03-04T09:43:25Z</time><extensions><speed>1.204853</speed><course>219.837265</course><hAcc>1.739992</hAcc><vAcc>0.827043</vAcc></extensions></trkpt>
      <trkpt lon="-2.263495" lat="53.120662"><ele>96.842331</ele><time>2022-03-04T09:43:26Z</time><extensions><speed>1.188964</speed><course>221.952179</course><hAcc>1.741839</hAcc><vAcc>0.827065</vAcc></extensions></trkpt>
      <trkpt lon="-2.263507" lat="53.120655"><ele>96.842667</ele><time>2022-03-04T09:43:27Z</time><extensions><speed>1.164882</speed><course>224.359650</course><hAcc>1.744525</hAcc><vAcc>0.827083</vAcc></extensions></trkpt>
      <trkpt lon="-2.263519" lat="53.120647"><ele>96.851173</ele><time>2022-03-04T09:43:28Z</time><extensions><speed>1.126112</speed><course>226.710861</course><hAcc>1.746410</hAcc><vAcc>0.827096</vAcc></extensions></trkpt>
      <trkpt lon="-2.263532" lat="53.120641"><ele>96.856766</ele><time>2022-03-04T09:43:29Z</time><extensions><speed>1.097559</speed><course>228.786896</course><hAcc>1.744401</hAcc><vAcc>0.827127</vAcc></extensions></trkpt>
      <trkpt lon="-2.263544" lat="53.120634"><ele>96.851479</ele><time>2022-03-04T09:43:30Z</time><extensions><speed>1.036295</speed><course>230.529099</course><hAcc>1.743701</hAcc><vAcc>0.827160</vAcc></extensions></trkpt>
      <trkpt lon="-2.263555" lat="53.120629"><ele>96.841141</ele><time>2022-03-04T09:43:31Z</time><extensions><speed>0.958851</speed><course>231.931320</course><hAcc>1.744574</hAcc><vAcc>0.827193</vAcc></extensions></trkpt>
      <trkpt lon="-2.263566" lat="53.120624"><ele>96.827469</ele><time>2022-03-04T09:43:32Z</time><extensions><speed>0.878145</speed><course>232.875778</course><hAcc>1.747343</hAcc><vAcc>0.827231</vAcc></extensions></trkpt>
      <trkpt lon="-2.263577" lat="53.120619"><ele>96.810768</ele><time>2022-03-04T09:43:33Z</time><extensions><speed>0.850752</speed><course>233.435455</course><hAcc>1.746102</hAcc><vAcc>0.827279</vAcc></extensions></trkpt>
      <trkpt lon="-2.263587" lat="53.120614"><ele>96.792900</ele><time>2022-03-04T09:43:34Z</time><extensions><speed>0.855749</speed><course>233.588577</course><hAcc>1.743845</hAcc><vAcc>0.827346</vAcc></extensions></trkpt>
      <trkpt lon="-2.263597" lat="53.120610"><ele>96.773697</ele><time>2022-03-04T09:43:35Z</time><extensions><speed>0.876573</speed><course>233.008484</course><hAcc>1.742278</hAcc><vAcc>0.827405</vAcc></extensions></trkpt>
      <trkpt lon="-2.263608" lat="53.120605"><ele>96.751938</ele><time>2022-03-04T09:43:36Z</time><extensions><speed>0.917151</speed><course>232.075928</course><hAcc>1.738154</hAcc><vAcc>0.827482</vAcc></extensions></trkpt>
      <trkpt lon="-2.263619" lat="53.120599"><ele>96.723244</ele><time>2022-03-04T09:43:38Z</time><extensions><speed>1.014193</speed><course>231.778214</course><hAcc>1.727415</hAcc><vAcc>0.827544</vAcc></extensions></trkpt>
      <trkpt lon="-2.263633" lat="53.120593"><ele>96.694244</ele><time>2022-03-04T09:43:39Z</time><extensions><speed>1.255712</speed><course>232.452423</course><hAcc>1.714741</hAcc><vAcc>0.827573</vAcc></extensions></trkpt>
      <trkpt lon="-2.263648" lat="53.120586"><ele>96.662376</ele><time>2022-03-04T09:43:40Z</time><extensions><speed>1.392756</speed><course>228.789398</course><hAcc>1.718429</hAcc><vAcc>0.827616</vAcc></extensions></trkpt>
      <trkpt lon="-2.263664" lat="53.120577"><ele>96.631454</ele><time>2022-03-04T09:43:41Z</time><extensions><speed>1.446854</speed><course>225.121613</course><hAcc>1.712057</hAcc><vAcc>0.827649</vAcc></extensions></trkpt>
      <trkpt lon="-2.263679" lat="53.120568"><ele>96.596748</ele><time>2022-03-04T09:43:42Z</time><extensions><speed>1.460077</speed><course>224.528580</course><hAcc>1.697403</hAcc><vAcc>0.827667</vAcc></extensions></trkpt>
      <trkpt lon="-2.263694" lat="53.120558"><ele>96.564690</ele><time>2022-03-04T09:43:43Z</time><extensions><speed>1.447185</speed><course>223.128036</course><hAcc>1.682287</hAcc><vAcc>0.827695</vAcc></extensions></trkpt>
      <trkpt lon="-2.263708" lat="53.120548"><ele>96.533379</ele><time>2022-03-04T09:43:44Z</time><extensions><speed>1.439281</speed><course>221.041031</course><hAcc>1.675994</hAcc><vAcc>0.827723</vAcc></extensions></trkpt>
      <trkpt lon="-2.263722" lat="53.120539"><ele>96.500015</ele><time>2022-03-04T09:43:45Z</time><extensions><speed>1.420845</speed><course>220.055969</course><hAcc>1.671810</hAcc><vAcc>0.827749</vAcc></extensions></trkpt>
      <trkpt lon="-2.263736" lat="53.120529"><ele>96.470764</ele><time>2022-03-04T09:43:46Z</time><extensions><speed>1.412748</speed><course>220.355759</course><hAcc>1.663831</hAcc><vAcc>0.827767</vAcc></extensions></trkpt>
      <trkpt lon="-2.263750" lat="53.120520"><ele>96.438080</ele><time>2022-03-04T09:43:47Z</time><extensions><speed>1.386180</speed><course>221.387589</course><hAcc>1.663116</hAcc><vAcc>0.827783</vAcc></extensions></trkpt>
      <trkpt lon="-2.263763" lat="53.120511"><ele>96.406548</ele><time>2022-03-04T09:43:48Z</time><extensions><speed>1.354490</speed><course>222.791489</course><hAcc>1.655162</hAcc><vAcc>0.827806</vAcc></extensions></trkpt>
      <trkpt lon="-2.263777" lat="53.120502"><ele>96.372421</ele><time>2022-03-04T09:43:49Z</time><extensions><speed>1.338821</speed><course>223.360123</course><hAcc>1.629122</hAcc><vAcc>0.827837</vAcc></extensions></trkpt>
      <trkpt lon="-2.263790" lat="53.120493"><ele>96.338654</ele><time>2022-03-04T09:43:50Z</time><extensions><speed>1.331421</speed><course>223.590317</course><hAcc>1.599477</hAcc><vAcc>0.827883</vAcc></extensions></trkpt>
      <trkpt lon="-2.263803" lat="53.120485"><ele>96.304146</ele><time>2022-03-04T09:43:51Z</time><extensions><speed>1.327482</speed><course>221.741760</course><hAcc>1.553547</hAcc><vAcc>0.827940</vAcc></extensions></trkpt>
      <trkpt lon="-2.263816" lat="53.120476"><ele>96.273003</ele><time>2022-03-04T09:43:52Z</time><extensions><speed>1.392593</speed><course>219.096512</course><hAcc>1.511105</hAcc><vAcc>0.828006</vAcc></extensions></trkpt>
      <trkpt lon="-2.263830" lat="53.120466"><ele>96.246124</ele><time>2022-03-04T09:43:53Z</time><extensions><speed>1.554578</speed><course>216.528290</course><hAcc>1.499534</hAcc><vAcc>0.828072</vAcc></extensions></trkpt>
      <trkpt lon="-2.263844" lat="53.120454"><ele>96.216530</ele><time>2022-03-04T09:43:54Z</time><extensions><speed>1.664291</speed><course>218.448593</course><hAcc>1.490998</hAcc><vAcc>0.828148</vAcc></extensions></trkpt>
      <trkpt lon="-2.263860" lat="53.120444"><ele>96.179382</ele><time>2022-03-04T09:43:55Z</time><extensions><speed>1.634126</speed><course>225.643372</course><hAcc>1.468459</hAcc><vAcc>0.828218</vAcc></extensions></trkpt>
      <trkpt lon="-2.263877" lat="53.120434"><ele>96.146515</ele><time>2022-03-04T09:43:56Z</time><extensions><speed>1.585247</speed><course>228.686066</course><hAcc>1.446981</hAcc><vAcc>0.828281</vAcc></extensions></trkpt>
      <trkpt lon="-2.263894" lat="53.120425"><ele>96.104889</ele><time>2022-03-04T09:43:57Z</time><extensions><speed>1.515385</speed><course>226.063644</course><hAcc>1.417518</hAcc><vAcc>0.828331</vAcc></extensions></trkpt>
      <trkpt lon="-2.263909" lat="53.120415"><ele>96.068169</ele><time>2022-03-04T09:43:58Z</time><extensions><speed>1.516043</speed><course>222.947968</course><hAcc>1.409774</hAcc><vAcc>0.828375</vAcc></extensions></trkpt>
      <trkpt lon="-2.263924" lat="53.120406"><ele>96.036789</ele><time>2022-03-04T09:43:59Z</time><extensions><speed>1.452023</speed><course>223.840698</course><hAcc>1.402475</hAcc><vAcc>0.828415</vAcc></extensions></trkpt>
      <trkpt lon="-2.263939" lat="53.120397"><ele>96.010582</ele><time>2022-03-04T09:44:00Z</time><extensions><speed>1.488508</speed><course>226.079926</course><hAcc>1.402143</hAcc><vAcc>0.828432</vAcc></extensions></trkpt>
      <trkpt lon="-2.263955" lat="53.120388"><ele>95.978333</ele><time>2022-03-04T09:44:01Z</time><extensions><speed>1.447651</speed><course>229.477905</course><hAcc>1.396000</hAcc><vAcc>0.828450</vAcc></extensions></trkpt>
      <trkpt lon="-2.263971" lat="53.120380"><ele>95.949303</ele><time>2022-03-04T09:44:02Z</time><extensions><speed>1.447135</speed><course>232.583969</course><hAcc>1.395717</hAcc><vAcc>0.828456</vAcc></extensions></trkpt>
      <trkpt lon="-2.263988" lat="53.120372"><ele>95.922211</ele><time>2022-03-04T09:44:03Z</time><extensions><speed>1.436058</speed><course>231.924622</course><hAcc>1.390041</hAcc><vAcc>0.828457</vAcc></extensions></trkpt>
      <trkpt lon="-2.264005" lat="53.120364"><ele>95.895782</ele><time>2022-03-04T09:44:04Z</time><extensions><speed>1.507957</speed><course>228.852463</course><hAcc>1.396669</hAcc><vAcc>0.828465</vAcc></extensions></trkpt>
      <trkpt lon="-2.264021" lat="53.120355"><ele>95.867561</ele><time>2022-03-04T09:44:05Z</time><extensions><speed>1.533686</speed><course>226.541275</course><hAcc>1.400252</hAcc><vAcc>0.828489</vAcc></extensions></trkpt>
      <trkpt lon="-2.264037" lat="53.120346"><ele>95.859276</ele><time>2022-03-04T09:44:06Z</time><extensions><speed>1.461779</speed><course>227.772522</course><hAcc>1.393105</hAcc><vAcc>0.828512</vAcc></extensions></trkpt>
      <trkpt lon="-2.264054" lat="53.120337"><ele>95.841850</ele><time>2022-03-04T09:44:07Z</time><extensions><speed>1.482941</speed><course>229.681580</course><hAcc>1.398922</hAcc><vAcc>0.828549</vAcc></extensions></trkpt>
      <trkpt lon="-2.264070" lat="53.120329"><ele>95.837288</ele><time>2022-03-04T09:44:08Z</time><extensions><speed>1.474789</speed><course>230.515579</course><hAcc>1.407105</hAcc><vAcc>0.828584</vAcc></extensions></trkpt>
      <trkpt lon="-2.264087" lat="53.120320"><ele>95.835152</ele><time>2022-03-04T09:44:09Z</time><extensions><speed>1.450721</speed><course>228.972412</course><hAcc>1.414278</hAcc><vAcc>0.828631</vAcc></extensions></trkpt>
      <trkpt lon="-2.264102" lat="53.120312"><ele>95.832588</ele><time>2022-03-04T09:44:10Z</time><extensions><speed>1.375858</speed><course>223.335846</course><hAcc>1.409562</hAcc><vAcc>0.828690</vAcc></extensions></trkpt>
      <trkpt lon="-2.264116" lat="53.120303"><ele>95.829781</ele><time>2022-03-04T09:44:11Z</time><extensions><speed>1.393451</speed><course>224.325317</course><hAcc>1.413488</hAcc><vAcc>0.828767</vAcc></extensions></trkpt>
      <trkpt lon="-2.264131" lat="53.120294"><ele>95.836533</ele><time>2022-03-04T09:44:12Z</time><extensions><speed>1.416885</speed><course>229.246902</course><hAcc>1.418712</hAcc><vAcc>0.828850</vAcc></extensions></trkpt>
      <trkpt lon="-2.264146" lat="53.120286"><ele>95.846169</ele><time>2022-03-04T09:44:13Z</time><extensions><speed>1.457469</speed><course>227.462952</course><hAcc>1.420195</hAcc><vAcc>0.828915</vAcc></extensions></trkpt>
      <trkpt lon="-2.264162" lat="53.120277"><ele>95.859741</ele><time>2022-03-04T09:44:14Z</time><extensions><speed>1.475480</speed><course>225.648270</course><hAcc>1.417459</hAcc><vAcc>0.828980</vAcc></extensions></trkpt>
      <trkpt lon="-2.264178" lat="53.120268"><ele>95.871994</ele><time>2022-03-04T09:44:15Z</time><extensions><speed>1.533055</speed><course>225.100204</course><hAcc>1.424017</hAcc><vAcc>0.829033</vAcc></extensions></trkpt>
      <trkpt lon="-2.264194" lat="53.120258"><ele>95.888153</ele><time>2022-03-04T09:44:16Z</time><extensions><speed>1.552165</speed><course>227.693024</course><hAcc>1.429941</hAcc><vAcc>0.829087</vAcc></extensions></trkpt>
      <trkpt lon="-2.264211" lat="53.120249"><ele>95.908737</ele><time>2022-03-04T09:44:17Z</time><extensions><speed>1.542562</speed><course>228.538757</course><hAcc>1.427186</hAcc><vAcc>0.829134</vAcc></extensions></trkpt>
      <trkpt lon="-2.264228" lat="53.120240"><ele>95.934921</ele><time>2022-03-04T09:44:18Z</time><extensions><speed>1.474284</speed><course>226.719147</course><hAcc>1.413701</hAcc><vAcc>0.829165</vAcc></extensions></trkpt>
      <trkpt lon="-2.264243" lat="53.120231"><ele>95.969170</ele><time>2022-03-04T09:44:19Z</time><extensions><speed>1.481807</speed><course>223.856796</course><hAcc>1.419257</hAcc><vAcc>0.829183</vAcc></extensions></trkpt>
      <trkpt lon="-2.264258" lat="53.120221"><ele>95.998314</ele><time>2022-03-04T09:44:20Z</time><extensions><speed>1.510556</speed><course>222.882294</course><hAcc>1.433476</hAcc><vAcc>0.829184</vAcc></extensions></trkpt>
      <trkpt lon="-2.264273" lat="53.120212"><ele>96.026917</ele><time>2022-03-04T09:44:21Z</time><extensions><speed>1.503970</speed><course>223.525116</course><hAcc>1.439843</hAcc><vAcc>0.829177</vAcc></extensions></trkpt>
      <trkpt lon="-2.264289" lat="53.120202"><ele>96.054619</ele><time>2022-03-04T09:44:22Z</time><extensions><speed>1.473900</speed><course>226.979919</course><hAcc>1.443007</hAcc><vAcc>0.829156</vAcc></extensions></trkpt>
      <trkpt lon="-2.264304" lat="53.120193"><ele>96.076691</ele><time>2022-03-04T09:44:23Z</time><extensions><speed>1.437812</speed><course>225.211899</course><hAcc>1.437887</hAcc><vAcc>0.829126</vAcc></extensions></trkpt>
      <trkpt lon="-2.264319" lat="53.120184"><ele>96.097916</ele><time>2022-03-04T09:44:24Z</time><extensions><speed>1.434538</speed><course>225.913345</course><hAcc>1.435122</hAcc><vAcc>0.829106</vAcc></extensions></trkpt>
      <trkpt lon="-2.264334" lat="53.120176"><ele>96.115440</ele><time>2022-03-04T09:44:25Z</time><extensions><speed>1.427679</speed><course>226.876373</course><hAcc>1.429107</hAcc><vAcc>0.829094</vAcc></extensions></trkpt>
      <trkpt lon="-2.264350" lat="53.120167"><ele>96.139374</ele><time>2022-03-04T09:44:26Z</time><extensions><speed>1.488232</speed><course>227.192734</course><hAcc>1.441962</hAcc><vAcc>0.829080</vAcc></extensions></trkpt>
      <trkpt lon="-2.264365" lat="53.120158"><ele>96.170265</ele><time>2022-03-04T09:44:27Z</time><extensions><speed>1.497159</speed><course>225.190338</course><hAcc>1.438164</hAcc><vAcc>0.829078</vAcc></extensions></trkpt>
      <trkpt lon="-2.264381" lat="53.120149"><ele>96.196579</ele><time>2022-03-04T09:44:28Z</time><extensions><speed>1.464051</speed><course>226.241470</course><hAcc>1.432431</hAcc><vAcc>0.829068</vAcc></extensions></trkpt>
      <trkpt lon="-2.264396" lat="53.120140"><ele>96.223701</ele><time>2022-03-04T09:44:29Z</time><extensions><speed>1.442763</speed><course>226.728790</course><hAcc>1.426830</hAcc><vAcc>0.829067</vAcc></extensions></trkpt>
      <trkpt lon="-2.264412" lat="53.120131"><ele>96.243996</ele><time>2022-03-04T09:44:30Z</time><extensions><speed>1.480300</speed><course>227.651215</course><hAcc>1.415638</hAcc><vAcc>0.829083</vAcc></extensions></trkpt>
      <trkpt lon="-2.264428" lat="53.120122"><ele>96.268555</ele><time>2022-03-04T09:44:31Z</time><extensions><speed>1.503240</speed><course>227.405441</course><hAcc>1.412873</hAcc><vAcc>0.829103</vAcc></extensions></trkpt>
      <trkpt lon="-2.264444" lat="53.120113"><ele>96.291321</ele><time>2022-03-04T09:44:32Z</time><extensions><speed>1.495021</speed><course>225.225082</course><hAcc>1.417879</hAcc><vAcc>0.829122</vAcc></extensions></trkpt>
      <trkpt lon="-2.264460" lat="53.120103"><ele>96.317970</ele><time>2022-03-04T09:44:33Z</time><extensions><speed>1.584009</speed><course>225.044434</course><hAcc>1.425829</hAcc><vAcc>0.829155</vAcc></extensions></trkpt>
      <trkpt lon="-2.264476" lat="53.120093"><ele>96.338326</ele><time>2022-03-04T09:44:34Z</time><extensions><speed>1.540887</speed><course>224.023209</course><hAcc>1.423889</hAcc><vAcc>0.829187</vAcc></extensions></trkpt>
      <trkpt lon="-2.264492" lat="53.120083"><ele>96.359062</ele><time>2022-03-04T09:44:34Z</time><extensions><speed>1.535779</speed><course>222.538940</course><hAcc>1.429818</hAcc><vAcc>0.829226</vAcc></extensions></trkpt>
      <trkpt lon="-2.264507" lat="53.120073"><ele>96.383560</ele><time>2022-03-04T09:44:35Z</time><extensions><speed>1.524236</speed><course>221.892715</course><hAcc>1.434661</hAcc><vAcc>0.829275</vAcc></extensions></trkpt>
      <trkpt lon="-2.264521" lat="53.120064"><ele>96.417915</ele><time>2022-03-04T09:44:36Z</time><extensions><speed>1.406512</speed><course>222.586243</course><hAcc>1.420820</hAcc><vAcc>0.829330</vAcc></extensions></trkpt>
      <trkpt lon="-2.264535" lat="53.120054"><ele>96.455254</ele><time>2022-03-04T09:44:37Z</time><extensions><speed>1.458187</speed><course>223.741226</course><hAcc>1.439816</hAcc><vAcc>0.829381</vAcc></extensions></trkpt>
      <trkpt lon="-2.264550" lat="53.120045"><ele>96.492409</ele><time>2022-03-04T09:44:38Z</time><extensions><speed>1.453837</speed><course>223.734375</course><hAcc>1.446699</hAcc><vAcc>0.829434</vAcc></extensions></trkpt>
      <trkpt lon="-2.264565" lat="53.120036"><ele>96.528099</ele><time>2022-03-04T09:44:39Z</time><extensions><speed>1.487965</speed><course>223.475174</course><hAcc>1.447620</hAcc><vAcc>0.829491</vAcc></extensions></trkpt>
      <trkpt lon="-2.264579" lat="53.120026"><ele>96.555771</ele><time>2022-03-04T09:44:40Z</time><extensions><speed>1.419291</speed><course>222.270691</course><hAcc>1.431599</hAcc><vAcc>0.829537</vAcc></extensions></trkpt>
      <trkpt lon="-2.264594" lat="53.120017"><ele>96.593513</ele><time>2022-03-04T09:44:41Z</time><extensions><speed>1.516558</speed><course>222.854767</course><hAcc>1.437725</hAcc><vAcc>0.829578</vAcc></extensions></trkpt>
      <trkpt lon="-2.264608" lat="53.120007"><ele>96.620781</ele><time>2022-03-04T09:44:42Z</time><extensions><speed>1.466963</speed><course>221.713104</course><hAcc>1.435052</hAcc><vAcc>0.829622</vAcc></extensions></trkpt>
      <trkpt lon="-2.264623" lat="53.119997"><ele>96.646332</ele><time>2022-03-04T09:44:43Z</time><extensions><speed>1.534794</speed><course>218.888901</course><hAcc>1.437820</hAcc><vAcc>0.829659</vAcc></extensions></trkpt>
      <trkpt lon="-2.264637" lat="53.119986"><ele>96.672676</ele><time>2022-03-04T09:44:44Z</time><extensions><speed>1.571059</speed><course>220.466370</course><hAcc>1.433147</hAcc><vAcc>0.829685</vAcc></extensions></trkpt>
      <trkpt lon="-2.264652" lat="53.119976"><ele>96.703308</ele><time>2022-03-04T09:44:45Z</time><extensions><speed>1.464115</speed><course>222.754517</course><hAcc>1.419661</hAcc><vAcc>0.829691</vAcc></extensions></trkpt>
      <trkpt lon="-2.264666" lat="53.119967"><ele>96.739067</ele><time>2022-03-04T09:44:46Z</time><extensions><speed>1.460820</speed><course>222.590057</course><hAcc>1.420512</hAcc><vAcc>0.829672</vAcc></extensions></trkpt>
      <trkpt lon="-2.264681" lat="53.119957"><ele>96.764175</ele><time>2022-03-04T09:44:47Z</time><extensions><speed>1.484897</speed><course>224.018341</course><hAcc>1.429343</hAcc><vAcc>0.829623</vAcc></extensions></trkpt>
      <trkpt lon="-2.264696" lat="53.119948"><ele>96.778183</ele><time>2022-03-04T09:44:48Z</time><extensions><speed>1.455747</speed><course>225.375656</course><hAcc>1.429255</hAcc><vAcc>0.829547</vAcc></extensions></trkpt>
      <trkpt lon="-2.264712" lat="53.119939"><ele>96.791100</ele><time>2022-03-04T09:44:49Z</time><extensions><speed>1.524040</speed><course>224.242661</course><hAcc>1.442057</hAcc><vAcc>0.829458</vAcc></extensions></trkpt>
      <trkpt lon="-2.264727" lat="53.119929"><ele>96.795067</ele><time>2022-03-04T09:44:50Z</time><extensions><speed>1.579196</speed><course>222.518921</course><hAcc>1.451847</hAcc><vAcc>0.829351</vAcc></extensions></trkpt>
      <trkpt lon="-2.264743" lat="53.119919"><ele>96.794754</ele><time>2022-03-04T09:44:51Z</time><extensions><speed>1.521897</speed><course>224.483597</course><hAcc>1.455785</hAcc><vAcc>0.829238</vAcc></extensions></trkpt>
      <trkpt lon="-2.264758" lat="53.119909"><ele>96.787895</ele><time>2022-03-04T09:44:52Z</time><extensions><speed>1.448634</speed><course>224.898743</course><hAcc>1.449425</hAcc><vAcc>0.829124</vAcc></extensions></trkpt>
      <trkpt lon="-2.264773" lat="53.119900"><ele>96.773170</ele><time>2022-03-04T09:44:53Z</time><extensions><speed>1.425980</speed><course>225.348053</course><hAcc>1.462287</hAcc><vAcc>0.829022</vAcc></extensions></trkpt>
      <trkpt lon="-2.264788" lat="53.119892"><ele>96.753532</ele><time>2022-03-04T09:44:54Z</time><extensions><speed>1.387428</speed><course>227.687317</course><hAcc>1.468323</hAcc><vAcc>0.828922</vAcc></extensions></trkpt>
      <trkpt lon="-2.264804" lat="53.119883"><ele>96.722786</ele><time>2022-03-04T09:44:55Z</time><extensions><speed>1.435085</speed><course>227.140503</course><hAcc>1.493068</hAcc><vAcc>0.828825</vAcc></extensions></trkpt>
      <trkpt lon="-2.264819" lat="53.119874"><ele>96.679100</ele><time>2022-03-04T09:44:56Z</time><extensions><speed>1.452864</speed><course>222.816589</course><hAcc>1.503886</hAcc><vAcc>0.828738</vAcc></extensions></trkpt>
      <trkpt lon="-2.264832" lat="53.119865"><ele>96.630898</ele><time>2022-03-04T09:44:57Z</time><extensions><speed>1.374858</speed><course>219.815613</course><hAcc>1.492076</hAcc><vAcc>0.828665</vAcc></extensions></trkpt>
      <trkpt lon="-2.264845" lat="53.119855"><ele>96.578049</ele><time>2022-03-04T09:44:58Z</time><extensions><speed>1.440650</speed><course>221.328476</course><hAcc>1.506583</hAcc><vAcc>0.828597</vAcc></extensions></trkpt>
      <trkpt lon="-2.264859" lat="53.119846"><ele>96.529816</ele><time>2022-03-04T09:44:59Z</time><extensions><speed>1.411713</speed><course>222.999176</course><hAcc>1.499734</hAcc><vAcc>0.828551</vAcc></extensions></trkpt>
      <trkpt lon="-2.264874" lat="53.119837"><ele>96.481018</ele><time>2022-03-04T09:45:00Z</time><extensions><speed>1.389280</speed><course>224.351013</course><hAcc>1.499132</hAcc><vAcc>0.828509</vAcc></extensions></trkpt>
      <trkpt lon="-2.264888" lat="53.119828"><ele>96.431847</ele><time>2022-03-04T09:45:01Z</time><extensions><speed>1.379434</speed><course>226.237427</course><hAcc>1.495570</hAcc><vAcc>0.828465</vAcc></extensions></trkpt>
      <trkpt lon="-2.264903" lat="53.119820"><ele>96.362114</ele><time>2022-03-04T09:45:02Z</time><extensions><speed>1.379547</speed><course>226.601746</course><hAcc>1.496082</hAcc><vAcc>0.828437</vAcc></extensions></trkpt>
      <trkpt lon="-2.264918" lat="53.119811"><ele>96.300858</ele><time>2022-03-04T09:45:03Z</time><extensions><speed>1.473123</speed><course>225.693237</course><hAcc>1.509321</hAcc><vAcc>0.828410</vAcc></extensions></trkpt>
      <trkpt lon="-2.264933" lat="53.119802"><ele>96.244270</ele><time>2022-03-04T09:45:04Z</time><extensions><speed>1.444920</speed><course>227.570297</course><hAcc>1.494563</hAcc><vAcc>0.828391</vAcc></extensions></trkpt>
      <trkpt lon="-2.264949" lat="53.119793"><ele>96.189217</ele><time>2022-03-04T09:45:05Z</time><extensions><speed>1.443640</speed><course>227.068848</course><hAcc>1.489881</hAcc><vAcc>0.828363</vAcc></extensions></trkpt>
      <trkpt lon="-2.264963" lat="53.119785"><ele>96.133461</ele><time>2022-03-04T09:45:06Z</time><extensions><speed>1.368573</speed><course>223.426224</course><hAcc>1.475932</hAcc><vAcc>0.828335</vAcc></extensions></trkpt>
      <trkpt lon="-2.264977" lat="53.119776"><ele>96.093941</ele><time>2022-03-04T09:45:07Z</time><extensions><speed>1.372262</speed><course>222.525558</course><hAcc>1.472920</hAcc><vAcc>0.828309</vAcc></extensions></trkpt>
      <trkpt lon="-2.264990" lat="53.119767"><ele>96.048210</ele><time>2022-03-04T09:45:08Z</time><extensions><speed>1.383802</speed><course>219.434128</course><hAcc>1.460860</hAcc><vAcc>0.828279</vAcc></extensions></trkpt>
      <trkpt lon="-2.265003" lat="53.119757"><ele>96.008850</ele><time>2022-03-04T09:45:09Z</time><extensions><speed>1.400038</speed><course>223.664047</course><hAcc>1.461825</hAcc><vAcc>0.828251</vAcc></extensions></trkpt>
      <trkpt lon="-2.265018" lat="53.119748"><ele>95.966660</ele><time>2022-03-04T09:45:10Z</time><extensions><speed>1.452147</speed><course>226.393295</course><hAcc>1.456762</hAcc><vAcc>0.828231</vAcc></extensions></trkpt>
      <trkpt lon="-2.265034" lat="53.119739"><ele>95.923653</ele><time>2022-03-04T09:45:11Z</time><extensions><speed>1.481461</speed><course>226.542603</course><hAcc>1.449011</hAcc><vAcc>0.828204</vAcc></extensions></trkpt>
      <trkpt lon="-2.265050" lat="53.119730"><ele>95.881607</ele><time>2022-03-04T09:45:12Z</time><extensions><speed>1.525638</speed><course>226.329498</course><hAcc>1.451738</hAcc><vAcc>0.828200</vAcc></extensions></trkpt>
      <trkpt lon="-2.265066" lat="53.119721"><ele>95.843185</ele><time>2022-03-04T09:45:13Z</time><extensions><speed>1.558192</speed><course>224.450577</course><hAcc>1.455735</hAcc><vAcc>0.828199</vAcc></extensions></trkpt>
      <trkpt lon="-2.265082" lat="53.119711"><ele>95.816254</ele><time>2022-03-04T09:45:14Z</time><extensions><speed>1.538204</speed><course>223.329269</course><hAcc>1.457227</hAcc><vAcc>0.828187</vAcc></extensions></trkpt>
      <trkpt lon="-2.265097" lat="53.119701"><ele>95.794609</ele><time>2022-03-04T09:45:15Z</time><extensions><speed>1.549010</speed><course>222.610718</course><hAcc>1.462394</hAcc><vAcc>0.828187</vAcc></extensions></trkpt>
      <trkpt lon="-2.265113" lat="53.119691"><ele>95.775627</ele><time>2022-03-04T09:45:16Z</time><extensions><speed>1.473355</speed><course>223.565857</course><hAcc>1.454714</hAcc><vAcc>0.828187</vAcc></extensions></trkpt>
      <trkpt lon="-2.265128" lat="53.119681"><ele>95.769768</ele><time>2022-03-04T09:45:17Z</time><extensions><speed>1.491894</speed><course>223.317383</course><hAcc>1.466516</hAcc><vAcc>0.828194</vAcc></extensions></trkpt>
      <trkpt lon="-2.265142" lat="53.119672"><ele>95.776825</ele><time>2022-03-04T09:45:18Z</time><extensions><speed>1.455447</speed><course>223.121155</course><hAcc>1.467735</hAcc><vAcc>0.828218</vAcc></extensions></trkpt>
      <trkpt lon="-2.265157" lat="53.119662"><ele>95.781876</ele><time>2022-03-04T09:45:19Z</time><extensions><speed>1.480667</speed><course>222.845566</course><hAcc>1.485439</hAcc><vAcc>0.828261</vAcc></extensions></trkpt>
      <trkpt lon="-2.265172" lat="53.119653"><ele>95.805046</ele><time>2022-03-04T09:45:20Z</time><extensions><speed>1.490032</speed><course>223.161530</course><hAcc>1.491548</hAcc><vAcc>0.828321</vAcc></extensions></trkpt>
      <trkpt lon="-2.265188" lat="53.119643"><ele>95.832520</ele><time>2022-03-04T09:45:21Z</time><extensions><speed>1.476409</speed><course>224.607544</course><hAcc>1.487895</hAcc><vAcc>0.828394</vAcc></extensions></trkpt>
      <trkpt lon="-2.265203" lat="53.119634"><ele>95.858955</ele><time>2022-03-04T09:45:22Z</time><extensions><speed>1.440205</speed><course>227.389572</course><hAcc>1.479695</hAcc><vAcc>0.828473</vAcc></extensions></trkpt>
      <trkpt lon="-2.265219" lat="53.119625"><ele>95.883263</ele><time>2022-03-04T09:45:23Z</time><extensions><speed>1.496627</speed><course>225.063766</course><hAcc>1.493374</hAcc><vAcc>0.828557</vAcc></extensions></trkpt>
      <trkpt lon="-2.265234" lat="53.119615"><ele>95.914223</ele><time>2022-03-04T09:45:24Z</time><extensions><speed>1.527400</speed><course>223.708801</course><hAcc>1.492355</hAcc><vAcc>0.828642</vAcc></extensions></trkpt>
      <trkpt lon="-2.265250" lat="53.119606"><ele>95.949883</ele><time>2022-03-04T09:45:25Z</time><extensions><speed>1.576227</speed><course>225.582855</course><hAcc>1.496322</hAcc><vAcc>0.828724</vAcc></extensions></trkpt>
      <trkpt lon="-2.265267" lat="53.119596"><ele>95.980934</ele><time>2022-03-04T09:45:26Z</time><extensions><speed>1.558246</speed><course>227.780289</course><hAcc>1.504746</hAcc><vAcc>0.828796</vAcc></extensions></trkpt>
      <trkpt lon="-2.265284" lat="53.119587"><ele>96.012543</ele><time>2022-03-04T09:45:27Z</time><extensions><speed>1.531482</speed><course>227.052902</course><hAcc>1.505337</hAcc><vAcc>0.828859</vAcc></extensions></trkpt>
      <trkpt lon="-2.265300" lat="53.119578"><ele>96.035782</ele><time>2022-03-04T09:45:28Z</time><extensions><speed>1.488889</speed><course>226.849182</course><hAcc>1.497434</hAcc><vAcc>0.828915</vAcc></extensions></trkpt>
      <trkpt lon="-2.265317" lat="53.119569"><ele>96.057930</ele><time>2022-03-04T09:45:29Z</time><extensions><speed>1.525588</speed><course>228.202744</course><hAcc>1.500861</hAcc><vAcc>0.828948</vAcc></extensions></trkpt>
      <trkpt lon="-2.265333" lat="53.119560"><ele>96.069847</ele><time>2022-03-04T09:45:30Z</time><extensions><speed>1.513515</speed><course>227.979614</course><hAcc>1.511234</hAcc><vAcc>0.828957</vAcc></extensions></trkpt>
      <trkpt lon="-2.265349" lat="53.119550"><ele>96.074974</ele><time>2022-03-04T09:45:31Z</time><extensions><speed>1.522253</speed><course>224.903915</course><hAcc>1.527058</hAcc><vAcc>0.828946</vAcc></extensions></trkpt>
      <trkpt lon="-2.265365" lat="53.119541"><ele>96.073624</ele><time>2022-03-04T09:45:32Z</time><extensions><speed>1.507486</speed><course>224.913544</course><hAcc>1.522877</hAcc><vAcc>0.828929</vAcc></extensions></trkpt>
      <trkpt lon="-2.265380" lat="53.119532"><ele>96.071289</ele><time>2022-03-04T09:45:33Z</time><extensions><speed>1.444879</speed><course>225.174179</course><hAcc>1.502076</hAcc><vAcc>0.828886</vAcc></extensions></trkpt>
      <trkpt lon="-2.265396" lat="53.119523"><ele>96.069939</ele><time>2022-03-04T09:45:34Z</time><extensions><speed>1.444592</speed><course>226.735229</course><hAcc>1.496383</hAcc><vAcc>0.828831</vAcc></extensions></trkpt>
      <trkpt lon="-2.265411" lat="53.119514"><ele>96.068466</ele><time>2022-03-04T09:45:35Z</time><extensions><speed>1.457494</speed><course>229.011032</course><hAcc>1.498902</hAcc><vAcc>0.828764</vAcc></extensions></trkpt>
      <trkpt lon="-2.265428" lat="53.119506"><ele>96.058258</ele><time>2022-03-04T09:45:36Z</time><extensions><speed>1.515483</speed><course>232.179382</course><hAcc>1.515378</hAcc><vAcc>0.828682</vAcc></extensions></trkpt>
      <trkpt lon="-2.265445" lat="53.119498"><ele>96.056786</ele><time>2022-03-04T09:45:37Z</time><extensions><speed>1.459421</speed><course>232.068527</course><hAcc>1.507738</hAcc><vAcc>0.828600</vAcc></extensions></trkpt>
      <trkpt lon="-2.265462" lat="53.119490"><ele>96.055679</ele><time>2022-03-04T09:45:38Z</time><extensions><speed>1.392713</speed><course>229.059860</course><hAcc>1.486622</hAcc><vAcc>0.828528</vAcc></extensions></trkpt>
      <trkpt lon="-2.265477" lat="53.119481"><ele>96.043434</ele><time>2022-03-04T09:45:39Z</time><extensions><speed>1.422773</speed><course>227.068619</course><hAcc>1.486201</hAcc><vAcc>0.828460</vAcc></extensions></trkpt>
      <trkpt lon="-2.265492" lat="53.119473"><ele>96.029060</ele><time>2022-03-04T09:45:40Z</time><extensions><speed>1.401709</speed><course>227.500549</course><hAcc>1.477790</hAcc><vAcc>0.828409</vAcc></extensions></trkpt>
      <trkpt lon="-2.265508" lat="53.119464"><ele>96.014748</ele><time>2022-03-04T09:45:41Z</time><extensions><speed>1.480543</speed><course>227.300079</course><hAcc>1.489501</hAcc><vAcc>0.828364</vAcc></extensions></trkpt>
      <trkpt lon="-2.265523" lat="53.119456"><ele>96.001099</ele><time>2022-03-04T09:45:42Z</time><extensions><speed>1.462780</speed><course>225.783676</course><hAcc>1.486105</hAcc><vAcc>0.828322</vAcc></extensions></trkpt>
      <trkpt lon="-2.265539" lat="53.119447"><ele>95.990585</ele><time>2022-03-04T09:45:44Z</time><extensions><speed>1.453246</speed><course>225.787872</course><hAcc>1.490162</hAcc><vAcc>0.828282</vAcc></extensions></trkpt>
      <trkpt lon="-2.265553" lat="53.119438"><ele>95.982506</ele><time>2022-03-04T09:45:45Z</time><extensions><speed>1.388169</speed><course>225.901672</course><hAcc>1.495354</hAcc><vAcc>0.828234</vAcc></extensions></trkpt>
      <trkpt lon="-2.265568" lat="53.119429"><ele>95.966255</ele><time>2022-03-04T09:45:46Z</time><extensions><speed>1.351857</speed><course>226.252945</course><hAcc>1.502891</hAcc><vAcc>0.828183</vAcc></extensions></trkpt>
      <trkpt lon="-2.265582" lat="53.119421"><ele>95.951500</ele><time>2022-03-04T09:45:47Z</time><extensions><speed>1.344981</speed><course>226.969238</course><hAcc>1.492860</hAcc><vAcc>0.828138</vAcc></extensions></trkpt>
      <trkpt lon="-2.265597" lat="53.119413"><ele>95.937157</ele><time>2022-03-04T09:45:48Z</time><extensions><speed>1.307259</speed><course>227.592422</course><hAcc>1.498191</hAcc><vAcc>0.828100</vAcc></extensions></trkpt>
      <trkpt lon="-2.265611" lat="53.119406"><ele>95.927895</ele><time>2022-03-04T09:45:49Z</time><extensions><speed>1.292109</speed><course>227.902435</course><hAcc>1.508464</hAcc><vAcc>0.828068</vAcc></extensions></trkpt>
      <trkpt lon="-2.265625" lat="53.119398"><ele>95.919861</ele><time>2022-03-04T09:45:50Z</time><extensions><speed>1.251924</speed><course>227.399536</course><hAcc>1.509620</hAcc><vAcc>0.828045</vAcc></extensions></trkpt>
      <trkpt lon="-2.265638" lat="53.119390"><ele>95.918045</ele><time>2022-03-04T09:45:51Z</time><extensions><speed>1.287452</speed><course>226.828247</course><hAcc>1.521683</hAcc><vAcc>0.828031</vAcc></extensions></trkpt>
      <trkpt lon="-2.265653" lat="53.119382"><ele>95.913490</ele><time>2022-03-04T09:45:52Z</time><extensions><speed>1.364381</speed><course>227.041214</course><hAcc>1.544230</hAcc><vAcc>0.828015</vAcc></extensions></trkpt>
      <trkpt lon="-2.265667" lat="53.119374"><ele>95.906181</ele><time>2022-03-04T09:45:53Z</time><extensions><speed>1.334381</speed><course>224.513779</course><hAcc>1.538236</hAcc><vAcc>0.828010</vAcc></extensions></trkpt>
      <trkpt lon="-2.265679" lat="53.119366"><ele>95.899277</ele><time>2022-03-04T09:45:54Z</time><extensions><speed>1.200307</speed><course>222.034607</course><hAcc>1.524440</hAcc><vAcc>0.828011</vAcc></extensions></trkpt>
      <trkpt lon="-2.265691" lat="53.119358"><ele>95.907661</ele><time>2022-03-04T09:45:55Z</time><extensions><speed>1.169036</speed><course>221.758270</course><hAcc>1.522298</hAcc><vAcc>0.828011</vAcc></extensions></trkpt>
      <trkpt lon="-2.265703" lat="53.119350"><ele>95.917465</ele><time>2022-03-04T09:45:56Z</time><extensions><speed>1.256584</speed><course>226.127762</course><hAcc>1.531628</hAcc><vAcc>0.828002</vAcc></extensions></trkpt>
      <trkpt lon="-2.265717" lat="53.119343"><ele>95.918709</ele><time>2022-03-04T09:45:57Z</time><extensions><speed>1.301549</speed><course>230.388748</course><hAcc>1.528483</hAcc><vAcc>0.827995</vAcc></extensions></trkpt>
      <trkpt lon="-2.265732" lat="53.119335"><ele>95.926353</ele><time>2022-03-04T09:45:58Z</time><extensions><speed>1.383212</speed><course>227.214188</course><hAcc>1.536865</hAcc><vAcc>0.827986</vAcc></extensions></trkpt>
      <trkpt lon="-2.265747" lat="53.119327"><ele>95.933655</ele><time>2022-03-04T09:45:59Z</time><extensions><speed>1.348800</speed><course>225.627167</course><hAcc>1.511466</hAcc><vAcc>0.827971</vAcc></extensions></trkpt>
      <trkpt lon="-2.265761" lat="53.119318"><ele>95.947701</ele><time>2022-03-04T09:46:00Z</time><extensions><speed>1.363467</speed><course>224.907043</course><hAcc>1.503833</hAcc><vAcc>0.827965</vAcc></extensions></trkpt>
      <trkpt lon="-2.265776" lat="53.119309"><ele>95.959663</ele><time>2022-03-04T09:46:01Z</time><extensions><speed>1.487299</speed><course>223.728546</course><hAcc>1.513503</hAcc><vAcc>0.827952</vAcc></extensions></trkpt>
      <trkpt lon="-2.265790" lat="53.119300"><ele>95.959671</ele><time>2022-03-04T09:46:02Z</time><extensions><speed>1.436816</speed><course>223.100037</course><hAcc>1.487791</hAcc><vAcc>0.827941</vAcc></extensions></trkpt>
      <trkpt lon="-2.265805" lat="53.119290"><ele>95.962410</ele><time>2022-03-04T09:46:03Z</time><extensions><speed>1.518450</speed><course>223.339813</course><hAcc>1.492963</hAcc><vAcc>0.827928</vAcc></extensions></trkpt>
      <trkpt lon="-2.265821" lat="53.119281"><ele>95.971931</ele><time>2022-03-04T09:46:04Z</time><extensions><speed>1.543170</speed><course>224.288589</course><hAcc>1.497594</hAcc><vAcc>0.827906</vAcc></extensions></trkpt>
      <trkpt lon="-2.265837" lat="53.119271"><ele>95.988647</ele><time>2022-03-04T09:46:05Z</time><extensions><speed>1.476841</speed><course>228.638519</course><hAcc>1.492748</hAcc><vAcc>0.827884</vAcc></extensions></trkpt>
      <trkpt lon="-2.265853" lat="53.119263"><ele>95.983612</ele><time>2022-03-04T09:46:06Z</time><extensions><speed>1.463995</speed><course>229.394333</course><hAcc>1.486743</hAcc><vAcc>0.827862</vAcc></extensions></trkpt>
      <trkpt lon="-2.265869" lat="53.119254"><ele>95.974022</ele><time>2022-03-04T09:46:07Z</time><extensions><speed>1.419189</speed><course>227.093948</course><hAcc>1.478064</hAcc><vAcc>0.827847</vAcc></extensions></trkpt>
      <trkpt lon="-2.265884" lat="53.119246"><ele>95.968254</ele><time>2022-03-04T09:46:08Z</time><extensions><speed>1.420768</speed><course>225.439133</course><hAcc>1.487368</hAcc><vAcc>0.827838</vAcc></extensions></trkpt>
      <trkpt lon="-2.265899" lat="53.119237"><ele>95.962982</ele><time>2022-03-04T09:46:09Z</time><extensions><speed>1.468858</speed><course>226.757584</course><hAcc>1.499254</hAcc><vAcc>0.827826</vAcc></extensions></trkpt>
      <trkpt lon="-2.265915" lat="53.119228"><ele>95.954666</ele><time>2022-03-04T09:46:10Z</time><extensions><speed>1.436063</speed><course>229.955322</course><hAcc>1.493168</hAcc><vAcc>0.827821</vAcc></extensions></trkpt>
      <trkpt lon="-2.265932" lat="53.119220"><ele>95.949661</ele><time>2022-03-04T09:46:11Z</time><extensions><speed>1.501308</speed><course>232.056519</course><hAcc>1.510956</hAcc><vAcc>0.827821</vAcc></extensions></trkpt>
      <trkpt lon="-2.265949" lat="53.119212"><ele>95.934608</ele><time>2022-03-04T09:46:12Z</time><extensions><speed>1.452770</speed><course>232.060577</course><hAcc>1.508805</hAcc><vAcc>0.827827</vAcc></extensions></trkpt>
      <trkpt lon="-2.265965" lat="53.119204"><ele>95.918602</ele><time>2022-03-04T09:46:13Z</time><extensions><speed>1.352023</speed><course>229.305679</course><hAcc>1.494475</hAcc><vAcc>0.827822</vAcc></extensions></trkpt>
      <trkpt lon="-2.265980" lat="53.119196"><ele>95.900230</ele><time>2022-03-04T09:46:14Z</time><extensions><speed>1.377182</speed><course>226.383514</course><hAcc>1.490940</hAcc><vAcc>0.827828</vAcc></extensions></trkpt>
      <trkpt lon="-2.265995" lat="53.119188"><ele>95.892387</ele><time>2022-03-04T09:46:15Z</time><extensions><speed>1.390878</speed><course>226.992065</course><hAcc>1.493129</hAcc><vAcc>0.827831</vAcc></extensions></trkpt>
      <trkpt lon="-2.266010" lat="53.119179"><ele>95.868294</ele><time>2022-03-04T09:46:16Z</time><extensions><speed>1.442097</speed><course>226.736603</course><hAcc>1.512334</hAcc><vAcc>0.827841</vAcc></extensions></trkpt>
      <trkpt lon="-2.266026" lat="53.119170"><ele>95.847687</ele><time>2022-03-04T09:46:17Z</time><extensions><speed>1.482576</speed><course>227.902222</course><hAcc>1.521997</hAcc><vAcc>0.827855</vAcc></extensions></trkpt>
      <trkpt lon="-2.266042" lat="53.119162"><ele>95.827324</ele><time>2022-03-04T09:46:18Z</time><extensions><speed>1.429337</speed><course>230.045288</course><hAcc>1.508957</hAcc><vAcc>0.827866</vAcc></extensions></trkpt>
      <trkpt lon="-2.266059" lat="53.119153"><ele>95.814880</ele><time>2022-03-04T09:46:19Z</time><extensions><speed>1.492119</speed><course>230.234222</course><hAcc>1.513553</hAcc><vAcc>0.827877</vAcc></extensions></trkpt>
      <trkpt lon="-2.266076" lat="53.119145"><ele>95.798927</ele><time>2022-03-04T09:46:20Z</time><extensions><speed>1.469205</speed><course>232.183411</course><hAcc>1.513104</hAcc><vAcc>0.827887</vAcc></extensions></trkpt>
      <trkpt lon="-2.266093" lat="53.119137"><ele>95.770912</ele><time>2022-03-04T09:46:21Z</time><extensions><speed>1.420019</speed><course>232.373535</course><hAcc>1.516224</hAcc><vAcc>0.827893</vAcc></extensions></trkpt>
      <trkpt lon="-2.266109" lat="53.119130"><ele>95.738319</ele><time>2022-03-04T09:46:22Z</time><extensions><speed>1.362108</speed><course>232.627335</course><hAcc>1.514374</hAcc><vAcc>0.827901</vAcc></extensions></trkpt>
      <trkpt lon="-2.266125" lat="53.119123"><ele>95.702492</ele><time>2022-03-04T09:46:23Z</time><extensions><speed>1.343228</speed><course>233.626740</course><hAcc>1.518326</hAcc><vAcc>0.827894</vAcc></extensions></trkpt>
      <trkpt lon="-2.266141" lat="53.119116"><ele>95.670837</ele><time>2022-03-04T09:46:24Z</time><extensions><speed>1.400217</speed><course>234.572830</course><hAcc>1.533896</hAcc><vAcc>0.827880</vAcc></extensions></trkpt>
      <trkpt lon="-2.266157" lat="53.119109"><ele>95.638283</ele><time>2022-03-04T09:46:25Z</time><extensions><speed>1.342469</speed><course>233.466721</course><hAcc>1.516655</hAcc><vAcc>0.827872</vAcc></extensions></trkpt>
      <trkpt lon="-2.266173" lat="53.119101"><ele>95.609001</ele><time>2022-03-04T09:46:26Z</time><extensions><speed>1.351213</speed><course>230.655914</course><hAcc>1.501977</hAcc><vAcc>0.827852</vAcc></extensions></trkpt>
      <trkpt lon="-2.266189" lat="53.119093"><ele>95.579063</ele><time>2022-03-04T09:46:27Z</time><extensions><speed>1.452796</speed><course>229.252563</course><hAcc>1.501027</hAcc><vAcc>0.827819</vAcc></extensions></trkpt>
      <trkpt lon="-2.266206" lat="53.119084"><ele>95.546440</ele><time>2022-03-04T09:46:28Z</time><extensions><speed>1.502883</speed><course>227.439713</course><hAcc>1.521715</hAcc><vAcc>0.827782</vAcc></extensions></trkpt>
      <trkpt lon="-2.266221" lat="53.119075"><ele>95.511147</ele><time>2022-03-04T09:46:29Z</time><extensions><speed>1.451260</speed><course>223.969757</course><hAcc>1.524100</hAcc><vAcc>0.827773</vAcc></extensions></trkpt>
      <trkpt lon="-2.266236" lat="53.119066"><ele>95.479500</ele><time>2022-03-04T09:46:30Z</time><extensions><speed>1.428882</speed><course>222.956924</course><hAcc>1.537400</hAcc><vAcc>0.827753</vAcc></extensions></trkpt>
      <trkpt lon="-2.266250" lat="53.119057"><ele>95.459984</ele><time>2022-03-04T09:46:31Z</time><extensions><speed>1.204494</speed><course>224.111404</course><hAcc>1.550277</hAcc><vAcc>0.827727</vAcc></extensions></trkpt>
      <trkpt lon="-2.266262" lat="53.119050"><ele>95.432732</ele><time>2022-03-04T09:46:32Z</time><extensions><speed>1.033442</speed><course>227.280701</course><hAcc>1.577711</hAcc><vAcc>0.827703</vAcc></extensions></trkpt>
      <trkpt lon="-2.266273" lat="53.119044"><ele>95.409401</ele><time>2022-03-04T09:46:33Z</time><extensions><speed>0.938766</speed><course>231.053207</course><hAcc>1.572540</hAcc><vAcc>0.827693</vAcc></extensions></trkpt>
      <trkpt lon="-2.266285" lat="53.119038"><ele>95.380402</ele><time>2022-03-04T09:46:34Z</time><extensions><speed>1.078819</speed><course>230.573288</course><hAcc>1.593709</hAcc><vAcc>0.827695</vAcc></extensions></trkpt>
      <trkpt lon="-2.266297" lat="53.119032"><ele>95.353043</ele><time>2022-03-04T09:46:35Z</time><extensions><speed>1.161126</speed><course>229.741180</course><hAcc>1.620878</hAcc><vAcc>0.827708</vAcc></extensions></trkpt>
      <trkpt lon="-2.266311" lat="53.119025"><ele>95.330406</ele><time>2022-03-04T09:46:36Z</time><extensions><speed>1.229440</speed><course>229.174133</course><hAcc>1.631792</hAcc><vAcc>0.827733</vAcc></extensions></trkpt>
      <trkpt lon="-2.266325" lat="53.119018"><ele>95.303932</ele><time>2022-03-04T09:46:37Z</time><extensions><speed>1.265553</speed><course>229.262268</course><hAcc>1.621346</hAcc><vAcc>0.827765</vAcc></extensions></trkpt>
      <trkpt lon="-2.266339" lat="53.119010"><ele>95.273636</ele><time>2022-03-04T09:46:38Z</time><extensions><speed>1.305775</speed><course>230.521851</course><hAcc>1.594601</hAcc><vAcc>0.827803</vAcc></extensions></trkpt>
      <trkpt lon="-2.266355" lat="53.119003"><ele>95.249146</ele><time>2022-03-04T09:46:38Z</time><extensions><speed>1.350538</speed><course>230.703979</course><hAcc>1.570313</hAcc><vAcc>0.827857</vAcc></extensions></trkpt>
      <trkpt lon="-2.266371" lat="53.118995"><ele>95.226006</ele><time>2022-03-04T09:46:39Z</time><extensions><speed>1.414293</speed><course>232.203918</course><hAcc>1.556821</hAcc><vAcc>0.827909</vAcc></extensions></trkpt>
      <trkpt lon="-2.266388" lat="53.118987"><ele>95.197403</ele><time>2022-03-04T09:46:40Z</time><extensions><speed>1.507783</speed><course>231.752823</course><hAcc>1.557545</hAcc><vAcc>0.827971</vAcc></extensions></trkpt>
      <trkpt lon="-2.266406" lat="53.118979"><ele>95.170433</ele><time>2022-03-04T09:46:41Z</time><extensions><speed>1.599021</speed><course>231.687408</course><hAcc>1.533949</hAcc><vAcc>0.828026</vAcc></extensions></trkpt>
      <trkpt lon="-2.266424" lat="53.118970"><ele>95.123817</ele><time>2022-03-04T09:46:42Z</time><extensions><speed>1.579264</speed><course>232.731430</course><hAcc>1.510106</hAcc><vAcc>0.828071</vAcc></extensions></trkpt>
      <trkpt lon="-2.266443" lat="53.118961"><ele>95.079788</ele><time>2022-03-04T09:46:43Z</time><extensions><speed>1.582532</speed><course>231.327011</course><hAcc>1.514589</hAcc><vAcc>0.828107</vAcc></extensions></trkpt>
      <trkpt lon="-2.266462" lat="53.118953"><ele>95.038025</ele><time>2022-03-04T09:46:44Z</time><extensions><speed>1.591673</speed><course>233.656616</course><hAcc>1.504360</hAcc><vAcc>0.828140</vAcc></extensions></trkpt>
      <trkpt lon="-2.266481" lat="53.118945"><ele>94.997643</ele><time>2022-03-04T09:46:45Z</time><extensions><speed>1.585692</speed><course>235.739914</course><hAcc>1.514252</hAcc><vAcc>0.828162</vAcc></extensions></trkpt>
      <trkpt lon="-2.266500" lat="53.118937"><ele>94.953194</ele><time>2022-03-04T09:46:46Z</time><extensions><speed>1.558768</speed><course>236.499176</course><hAcc>1.510267</hAcc><vAcc>0.828179</vAcc></extensions></trkpt>
      <trkpt lon="-2.266519" lat="53.118929"><ele>94.904343</ele><time>2022-03-04T09:46:47Z</time><extensions><speed>1.479231</speed><course>234.417786</course><hAcc>1.510824</hAcc><vAcc>0.828189</vAcc></extensions></trkpt>
      <trkpt lon="-2.266536" lat="53.118921"><ele>94.848442</ele><time>2022-03-04T09:46:48Z</time><extensions><speed>1.465141</speed><course>233.643173</course><hAcc>1.515932</hAcc><vAcc>0.828200</vAcc></extensions></trkpt>
      <trkpt lon="-2.266554" lat="53.118914"><ele>94.797897</ele><time>2022-03-04T09:46:49Z</time><extensions><speed>1.507906</speed><course>234.952942</course><hAcc>1.524850</hAcc><vAcc>0.828196</vAcc></extensions></trkpt>
      <trkpt lon="-2.266572" lat="53.118906"><ele>94.751907</ele><time>2022-03-04T09:46:50Z</time><extensions><speed>1.486014</speed><course>236.118362</course><hAcc>1.534887</hAcc><vAcc>0.828174</vAcc></extensions></trkpt>
      <trkpt lon="-2.266591" lat="53.118899"><ele>94.710167</ele><time>2022-03-04T09:46:51Z</time><extensions><speed>1.506866</speed><course>236.699951</course><hAcc>1.551583</hAcc><vAcc>0.828140</vAcc></extensions></trkpt>
      <trkpt lon="-2.266609" lat="53.118891"><ele>94.659523</ele><time>2022-03-04T09:46:52Z</time><extensions><speed>1.499395</speed><course>238.201492</course><hAcc>1.522638</hAcc><vAcc>0.828098</vAcc></extensions></trkpt>
      <trkpt lon="-2.266627" lat="53.118884"><ele>94.613541</ele><time>2022-03-04T09:46:53Z</time><extensions><speed>1.463392</speed><course>235.024399</course><hAcc>1.518769</hAcc><vAcc>0.828043</vAcc></extensions></trkpt>
      <trkpt lon="-2.266644" lat="53.118876"><ele>94.569862</ele><time>2022-03-04T09:46:54Z</time><extensions><speed>1.447426</speed><course>229.891205</course><hAcc>1.520583</hAcc><vAcc>0.827995</vAcc></extensions></trkpt>
      <trkpt lon="-2.266660" lat="53.118868"><ele>94.539955</ele><time>2022-03-04T09:46:55Z</time><extensions><speed>1.465070</speed><course>227.583405</course><hAcc>1.511867</hAcc><vAcc>0.827942</vAcc></extensions></trkpt>
      <trkpt lon="-2.266676" lat="53.118859"><ele>94.522430</ele><time>2022-03-04T09:46:56Z</time><extensions><speed>1.484879</speed><course>228.977371</course><hAcc>1.489319</hAcc><vAcc>0.827898</vAcc></extensions></trkpt>
      <trkpt lon="-2.266692" lat="53.118850"><ele>94.513466</ele><time>2022-03-04T09:46:57Z</time><extensions><speed>1.451443</speed><course>227.217056</course><hAcc>1.471598</hAcc><vAcc>0.827848</vAcc></extensions></trkpt>
      <trkpt lon="-2.266707" lat="53.118841"><ele>94.503662</ele><time>2022-03-04T09:46:58Z</time><extensions><speed>1.481552</speed><course>225.499039</course><hAcc>1.472016</hAcc><vAcc>0.827813</vAcc></extensions></trkpt>
      <trkpt lon="-2.266723" lat="53.118831"><ele>94.507553</ele><time>2022-03-04T09:46:59Z</time><extensions><speed>1.576460</speed><course>221.922607</course><hAcc>1.469347</hAcc><vAcc>0.827796</vAcc></extensions></trkpt>
      <trkpt lon="-2.266737" lat="53.118821"><ele>94.526505</ele><time>2022-03-04T09:47:00Z</time><extensions><speed>1.551969</speed><course>218.999054</course><hAcc>1.445016</hAcc><vAcc>0.827819</vAcc></extensions></trkpt>
      <trkpt lon="-2.266750" lat="53.118809"><ele>94.544624</ele><time>2022-03-04T09:47:01Z</time><extensions><speed>1.584088</speed><course>212.588959</course><hAcc>1.431007</hAcc><vAcc>0.827861</vAcc></extensions></trkpt>
      <trkpt lon="-2.266762" lat="53.118797"><ele>94.570633</ele><time>2022-03-04T09:47:02Z</time><extensions><speed>1.611820</speed><course>206.842560</course><hAcc>1.428137</hAcc><vAcc>0.827935</vAcc></extensions></trkpt>
      <trkpt lon="-2.266771" lat="53.118784"><ele>94.617798</ele><time>2022-03-04T09:47:03Z</time><extensions><speed>1.580450</speed><course>201.251785</course><hAcc>1.423087</hAcc><vAcc>0.828030</vAcc></extensions></trkpt>
      <trkpt lon="-2.266778" lat="53.118771"><ele>94.675812</ele><time>2022-03-04T09:47:04Z</time><extensions><speed>1.578399</speed><course>198.369034</course><hAcc>1.423637</hAcc><vAcc>0.828145</vAcc></extensions></trkpt>
      <trkpt lon="-2.266785" lat="53.118757"><ele>94.738129</ele><time>2022-03-04T09:47:05Z</time><extensions><speed>1.614654</speed><course>193.823700</course><hAcc>1.425063</hAcc><vAcc>0.828280</vAcc></extensions></trkpt>
      <trkpt lon="-2.266789" lat="53.118744"><ele>94.802956</ele><time>2022-03-04T09:47:06Z</time><extensions><speed>1.535933</speed><course>188.389206</course><hAcc>1.413756</hAcc><vAcc>0.828406</vAcc></extensions></trkpt>
      <trkpt lon="-2.266792" lat="53.118731"><ele>94.868393</ele><time>2022-03-04T09:47:07Z</time><extensions><speed>1.516224</speed><course>183.956100</course><hAcc>1.412221</hAcc><vAcc>0.828528</vAcc></extensions></trkpt>
      <trkpt lon="-2.266793" lat="53.118718"><ele>94.935173</ele><time>2022-03-04T09:47:08Z</time><extensions><speed>1.524681</speed><course>182.856384</course><hAcc>1.417362</hAcc><vAcc>0.828649</vAcc></extensions></trkpt>
      <trkpt lon="-2.266794" lat="53.118705"><ele>95.007256</ele><time>2022-03-04T09:47:09Z</time><extensions><speed>1.501742</speed><course>180.232010</course><hAcc>1.421604</hAcc><vAcc>0.828742</vAcc></extensions></trkpt>
      <trkpt lon="-2.266793" lat="53.118692"><ele>95.084732</ele><time>2022-03-04T09:47:10Z</time><extensions><speed>1.492572</speed><course>178.790085</course><hAcc>1.436007</hAcc><vAcc>0.828814</vAcc></extensions></trkpt>
      <trkpt lon="-2.266791" lat="53.118679"><ele>95.162598</ele><time>2022-03-04T09:47:11Z</time><extensions><speed>1.401207</speed><course>169.179398</course><hAcc>1.434695</hAcc><vAcc>0.828846</vAcc></extensions></trkpt>
      <trkpt lon="-2.266787" lat="53.118666"><ele>95.240097</ele><time>2022-03-04T09:47:12Z</time><extensions><speed>1.415590</speed><course>167.362137</course><hAcc>1.452348</hAcc><vAcc>0.828835</vAcc></extensions></trkpt>
      <trkpt lon="-2.266781" lat="53.118655"><ele>95.315712</ele><time>2022-03-04T09:47:13Z</time><extensions><speed>1.306889</speed><course>160.676422</course><hAcc>1.464656</hAcc><vAcc>0.828793</vAcc></extensions></trkpt>
      <trkpt lon="-2.266775" lat="53.118644"><ele>95.388351</ele><time>2022-03-04T09:47:14Z</time><extensions><speed>1.151362</speed><course>160.346466</course><hAcc>1.499759</hAcc><vAcc>0.828717</vAcc></extensions></trkpt>
      <trkpt lon="-2.266770" lat="53.118637"><ele>95.457306</ele><time>2022-03-04T09:47:15Z</time><extensions><speed>0.681188</speed><course>155.189468</course><hAcc>1.525368</hAcc><vAcc>0.828611</vAcc></extensions></trkpt>
      <trkpt lon="-2.266768" lat="53.118635"><ele>95.522171</ele><time>2022-03-04T09:47:16Z</time><extensions><speed>0.178418</speed><course>26.478676</course><hAcc>1.549458</hAcc><vAcc>0.828486</vAcc></extensions></trkpt>
      <trkpt lon="-2.266767" lat="53.118637"><ele>95.583252</ele><time>2022-03-04T09:47:17Z</time><extensions><speed>0.455993</speed><course>1.023680</course><hAcc>1.572361</hAcc><vAcc>0.828351</vAcc></extensions></trkpt>
      <trkpt lon="-2.266767" lat="53.118642"><ele>95.635681</ele><time>2022-03-04T09:47:18Z</time><extensions><speed>0.491002</speed><course>358.542847</course><hAcc>1.618362</hAcc><vAcc>0.828207</vAcc></extensions></trkpt>
      <trkpt lon="-2.266767" lat="53.118646"><ele>95.687874</ele><time>2022-03-04T09:47:19Z</time><extensions><speed>0.437989</speed><course>358.023712</course><hAcc>1.660669</hAcc><vAcc>0.828065</vAcc></extensions></trkpt>
      <trkpt lon="-2.266767" lat="53.118649"><ele>95.736885</ele><time>2022-03-04T09:47:20Z</time><extensions><speed>0.347686</speed><course>357.891144</course><hAcc>1.688488</hAcc><vAcc>0.827926</vAcc></extensions></trkpt>
      <trkpt lon="-2.266767" lat="53.118652"><ele>95.781525</ele><time>2022-03-04T09:47:21Z</time><extensions><speed>0.259423</speed><course>358.497772</course><hAcc>1.700349</hAcc><vAcc>0.827803</vAcc></extensions></trkpt>
      <trkpt lon="-2.266767" lat="53.118654"><ele>95.823975</ele><time>2022-03-04T09:47:22Z</time><extensions><speed>0.183957</speed><course>1.551254</course><hAcc>1.704903</hAcc><vAcc>0.827693</vAcc></extensions></trkpt>
      <trkpt lon="-2.266767" lat="53.118655"><ele>95.866714</ele><time>2022-03-04T09:47:23Z</time><extensions><speed>0.118465</speed><course>10.738091</course><hAcc>1.710087</hAcc><vAcc>0.827600</vAcc></extensions></trkpt>
      <trkpt lon="-2.266767" lat="53.118656"><ele>95.915375</ele><time>2022-03-04T09:47:24Z</time><extensions><speed>0.076843</speed><course>35.904263</course><hAcc>1.709752</hAcc><vAcc>0.827514</vAcc></extensions></trkpt>
      <trkpt lon="-2.266766" lat="53.118656"><ele>95.942932</ele><time>2022-03-04T09:47:25Z</time><extensions><speed>0.076800</speed><course>89.837044</course><hAcc>1.710667</hAcc><vAcc>0.827436</vAcc></extensions></trkpt>
      <trkpt lon="-2.266764" lat="53.118656"><ele>95.967400</ele><time>2022-03-04T09:47:26Z</time><extensions><speed>0.159009</speed><course>128.004410</course><hAcc>1.712590</hAcc><vAcc>0.827373</vAcc></extensions></trkpt>
      <trkpt lon="-2.266762" lat="53.118654"><ele>96.003769</ele><time>2022-03-04T09:47:27Z</time><extensions><speed>0.344808</speed><course>145.353699</course><hAcc>1.709080</hAcc><vAcc>0.827320</vAcc></extensions></trkpt>
      <trkpt lon="-2.266757" lat="53.118650"><ele>96.043083</ele><time>2022-03-04T09:47:28Z</time><extensions><speed>0.768406</speed><course>153.149261</course><hAcc>1.681581</hAcc><vAcc>0.827270</vAcc></extensions></trkpt>
      <trkpt lon="-2.266751" lat="53.118642"><ele>96.088707</ele><time>2022-03-04T09:47:29Z</time><extensions><speed>1.094806</speed><course>156.043304</course><hAcc>1.694090</hAcc><vAcc>0.827226</vAcc></extensions></trkpt>
      <trkpt lon="-2.266744" lat="53.118632"><ele>96.126137</ele><time>2022-03-04T09:47:30Z</time><extensions><speed>1.354541</speed><course>156.269226</course><hAcc>1.697359</hAcc><vAcc>0.827191</vAcc></extensions></trkpt>
      <trkpt lon="-2.266735" lat="53.118621"><ele>96.155945</ele><time>2022-03-04T09:47:31Z</time><extensions><speed>1.481930</speed><course>154.900482</course><hAcc>1.691658</hAcc><vAcc>0.827169</vAcc></extensions></trkpt>
      <trkpt lon="-2.266725" lat="53.118608"><ele>96.187202</ele><time>2022-03-04T09:47:32Z</time><extensions><speed>1.538873</speed><course>153.903107</course><hAcc>1.685395</hAcc><vAcc>0.827162</vAcc></extensions></trkpt>
      <trkpt lon="-2.266715" lat="53.118596"><ele>96.231140</ele><time>2022-03-04T09:47:33Z</time><extensions><speed>1.456401</speed><course>153.368393</course><hAcc>1.680906</hAcc><vAcc>0.827192</vAcc></extensions></trkpt>
      <trkpt lon="-2.266705" lat="53.118585"><ele>96.250656</ele><time>2022-03-04T09:47:34Z</time><extensions><speed>1.496678</speed><course>151.096909</course><hAcc>1.671068</hAcc><vAcc>0.827258</vAcc></extensions></trkpt>
      <trkpt lon="-2.266694" lat="53.118573"><ele>96.265312</ele><time>2022-03-04T09:47:35Z</time><extensions><speed>1.581108</speed><course>148.988068</course><hAcc>1.669535</hAcc><vAcc>0.827345</vAcc></extensions></trkpt>
      <trkpt lon="-2.266681" lat="53.118561"><ele>96.274376</ele><time>2022-03-04T09:47:36Z</time><extensions><speed>1.548866</speed><course>146.029694</course><hAcc>1.667257</hAcc><vAcc>0.827469</vAcc></extensions></trkpt>
      <trkpt lon="-2.266669" lat="53.118550"><ele>96.313896</ele><time>2022-03-04T09:47:37Z</time><extensions><speed>1.433462</speed><course>144.090195</course><hAcc>1.659758</hAcc><vAcc>0.827607</vAcc></extensions></trkpt>
      <trkpt lon="-2.266656" lat="53.118539"><ele>96.359276</ele><time>2022-03-04T09:47:38Z</time><extensions><speed>1.421749</speed><course>144.366150</course><hAcc>1.645453</hAcc><vAcc>0.827762</vAcc></extensions></trkpt>
      <trkpt lon="-2.266644" lat="53.118529"><ele>96.414833</ele><time>2022-03-04T09:47:39Z</time><extensions><speed>1.435304</speed><course>145.132568</course><hAcc>1.626129</hAcc><vAcc>0.827942</vAcc></extensions></trkpt>
      <trkpt lon="-2.266632" lat="53.118519"><ele>96.462204</ele><time>2022-03-04T09:47:40Z</time><extensions><speed>1.426709</speed><course>146.383087</course><hAcc>1.591628</hAcc><vAcc>0.828149</vAcc></extensions></trkpt>
      <trkpt lon="-2.266621" lat="53.118508"><ele>96.492317</ele><time>2022-03-04T09:47:41Z</time><extensions><speed>1.441530</speed><course>146.650040</course><hAcc>1.552359</hAcc><vAcc>0.828379</vAcc></extensions></trkpt>
      <trkpt lon="-2.266609" lat="53.118497"><ele>96.521851</ele><time>2022-03-04T09:47:42Z</time><extensions><speed>1.484021</speed><course>147.507965</course><hAcc>1.529154</hAcc><vAcc>0.828622</vAcc></extensions></trkpt>
      <trkpt lon="-2.266599" lat="53.118485"><ele>96.532639</ele><time>2022-03-04T09:47:43Z</time><extensions><speed>1.570254</speed><course>152.887924</course><hAcc>1.511734</hAcc><vAcc>0.828865</vAcc></extensions></trkpt>
      <trkpt lon="-2.266590" lat="53.118473"><ele>96.542328</ele><time>2022-03-04T09:47:44Z</time><extensions><speed>1.578180</speed><course>161.310577</course><hAcc>1.481793</hAcc><vAcc>0.829090</vAcc></extensions></trkpt>
      <trkpt lon="-2.266584" lat="53.118459"><ele>96.544037</ele><time>2022-03-04T09:47:45Z</time><extensions><speed>1.618516</speed><course>167.632736</course><hAcc>1.473788</hAcc><vAcc>0.829284</vAcc></extensions></trkpt>
      <trkpt lon="-2.266579" lat="53.118445"><ele>96.552002</ele><time>2022-03-04T09:47:46Z</time><extensions><speed>1.621045</speed><course>167.884155</course><hAcc>1.461592</hAcc><vAcc>0.829450</vAcc></extensions></trkpt>
      <trkpt lon="-2.266574" lat="53.118431"><ele>96.540512</ele><time>2022-03-04T09:47:47Z</time><extensions><speed>1.560992</speed><course>164.562775</course><hAcc>1.439511</hAcc><vAcc>0.829581</vAcc></extensions></trkpt>
      <trkpt lon="-2.266568" lat="53.118419"><ele>96.528221</ele><time>2022-03-04T09:47:48Z</time><extensions><speed>1.448488</speed><course>166.129517</course><hAcc>1.425094</hAcc><vAcc>0.829679</vAcc></extensions></trkpt>
      <trkpt lon="-2.266565" lat="53.118406"><ele>96.511780</ele><time>2022-03-04T09:47:50Z</time><extensions><speed>1.422400</speed><course>174.223663</course><hAcc>1.426986</hAcc><vAcc>0.829740</vAcc></extensions></trkpt>
      <trkpt lon="-2.266565" lat="53.118393"><ele>96.490997</ele><time>2022-03-04T09:47:51Z</time><extensions><speed>1.507689</speed><course>184.811234</course><hAcc>1.427773</hAcc><vAcc>0.829745</vAcc></extensions></trkpt>
      <trkpt lon="-2.266569" lat="53.118380"><ele>96.464470</ele><time>2022-03-04T09:47:52Z</time><extensions><speed>1.528476</speed><course>196.419617</course><hAcc>1.425594</hAcc><vAcc>0.829724</vAcc></extensions></trkpt>
      <trkpt lon="-2.266577" lat="53.118368"><ele>96.432434</ele><time>2022-03-04T09:47:53Z</time><extensions><speed>1.515422</speed><course>203.823120</course><hAcc>1.427557</hAcc><vAcc>0.829678</vAcc></extensions></trkpt>
      <trkpt lon="-2.266586" lat="53.118356"><ele>96.390869</ele><time>2022-03-04T09:47:54Z</time><extensions><speed>1.563783</speed><course>206.111206</course><hAcc>1.435316</hAcc><vAcc>0.829606</vAcc></extensions></trkpt>
      <trkpt lon="-2.266597" lat="53.118344"><ele>96.341377</ele><time>2022-03-04T09:47:55Z</time><extensions><speed>1.506862</speed><course>208.594879</course><hAcc>1.424406</hAcc><vAcc>0.829523</vAcc></extensions></trkpt>
      <trkpt lon="-2.266608" lat="53.118332"><ele>96.294998</ele><time>2022-03-04T09:47:56Z</time><extensions><speed>1.495178</speed><course>209.665771</course><hAcc>1.426206</hAcc><vAcc>0.829424</vAcc></extensions></trkpt>
      <trkpt lon="-2.266618" lat="53.118321"><ele>96.250000</ele><time>2022-03-04T09:47:57Z</time><extensions><speed>1.407943</speed><course>208.796661</course><hAcc>1.416662</hAcc><vAcc>0.829314</vAcc></extensions></trkpt>
      <trkpt lon="-2.266628" lat="53.118310"><ele>96.205017</ele><time>2022-03-04T09:47:58Z</time><extensions><speed>1.478243</speed><course>208.877792</course><hAcc>1.426913</hAcc><vAcc>0.829199</vAcc></extensions></trkpt>
      <trkpt lon="-2.266640" lat="53.118299"><ele>96.168007</ele><time>2022-03-04T09:47:59Z</time><extensions><speed>1.507338</speed><course>213.909561</course><hAcc>1.425550</hAcc><vAcc>0.829090</vAcc></extensions></trkpt>
      <trkpt lon="-2.266653" lat="53.118288"><ele>96.142059</ele><time>2022-03-04T09:48:00Z</time><extensions><speed>1.531626</speed><course>213.941299</course><hAcc>1.419030</hAcc><vAcc>0.828993</vAcc></extensions></trkpt>
      <trkpt lon="-2.266664" lat="53.118277"><ele>96.128296</ele><time>2022-03-04T09:48:01Z</time><extensions><speed>1.428045</speed><course>213.397415</course><hAcc>1.410957</hAcc><vAcc>0.828914</vAcc></extensions></trkpt>
      <trkpt lon="-2.266675" lat="53.118267"><ele>96.117767</ele><time>2022-03-04T09:48:02Z</time><extensions><speed>1.398089</speed><course>208.225723</course><hAcc>1.415836</hAcc><vAcc>0.828866</vAcc></extensions></trkpt>
      <trkpt lon="-2.266684" lat="53.118256"><ele>96.108246</ele><time>2022-03-04T09:48:03Z</time><extensions><speed>1.396173</speed><course>203.150192</course><hAcc>1.414258</hAcc><vAcc>0.828842</vAcc></extensions></trkpt>
      <trkpt lon="-2.266692" lat="53.118245"><ele>96.103889</ele><time>2022-03-04T09:48:04Z</time><extensions><speed>1.405165</speed><course>205.294144</course><hAcc>1.408493</hAcc><vAcc>0.828845</vAcc></extensions></trkpt>
      <trkpt lon="-2.266702" lat="53.118233"><ele>96.101860</ele><time>2022-03-04T09:48:05Z</time><extensions><speed>1.478117</speed><course>209.199768</course><hAcc>1.418042</hAcc><vAcc>0.828871</vAcc></extensions></trkpt>
      <trkpt lon="-2.266713" lat="53.118222"><ele>96.110321</ele><time>2022-03-04T09:48:06Z</time><extensions><speed>1.463175</speed><course>212.164215</course><hAcc>1.410602</hAcc><vAcc>0.828918</vAcc></extensions></trkpt>
      <trkpt lon="-2.266724" lat="53.118212"><ele>96.127441</ele><time>2022-03-04T09:48:07Z</time><extensions><speed>1.441855</speed><course>213.935516</course><hAcc>1.402672</hAcc><vAcc>0.828987</vAcc></extensions></trkpt>
      <trkpt lon="-2.266736" lat="53.118202"><ele>96.145378</ele><time>2022-03-04T09:48:08Z</time><extensions><speed>1.296029</speed><course>216.428131</course><hAcc>1.376465</hAcc><vAcc>0.829064</vAcc></extensions></trkpt>
      <trkpt lon="-2.266747" lat="53.118193"><ele>96.158371</ele><time>2022-03-04T09:48:09Z</time><extensions><speed>1.285326</speed><course>215.595581</course><hAcc>1.385886</hAcc><vAcc>0.829166</vAcc></extensions></trkpt>
      <trkpt lon="-2.266758" lat="53.118184"><ele>96.164909</ele><time>2022-03-04T09:48:10Z</time><extensions><speed>1.322918</speed><course>213.329102</course><hAcc>1.390274</hAcc><vAcc>0.829281</vAcc></extensions></trkpt>
      <trkpt lon="-2.266768" lat="53.118174"><ele>96.161392</ele><time>2022-03-04T09:48:11Z</time><extensions><speed>1.310129</speed><course>209.871384</course><hAcc>1.378979</hAcc><vAcc>0.829396</vAcc></extensions></trkpt>
      <trkpt lon="-2.266778" lat="53.118164"><ele>96.152962</ele><time>2022-03-04T09:48:12Z</time><extensions><speed>1.342356</speed><course>210.010376</course><hAcc>1.368747</hAcc><vAcc>0.829510</vAcc></extensions></trkpt>
      <trkpt lon="-2.266788" lat="53.118154"><ele>96.154205</ele><time>2022-03-04T09:48:13Z</time><extensions><speed>1.320770</speed><course>214.277893</course><hAcc>1.355859</hAcc><vAcc>0.829610</vAcc></extensions></trkpt>
      <trkpt lon="-2.266799" lat="53.118145"><ele>96.133652</ele><time>2022-03-04T09:48:14Z</time><extensions><speed>1.434809</speed><course>214.196457</course><hAcc>1.362313</hAcc><vAcc>0.829689</vAcc></extensions></trkpt>
      <trkpt lon="-2.266811" lat="53.118134"><ele>96.112892</ele><time>2022-03-04T09:48:15Z</time><extensions><speed>1.426056</speed><course>211.414658</course><hAcc>1.349290</hAcc><vAcc>0.829754</vAcc></extensions></trkpt>
      <trkpt lon="-2.266821" lat="53.118123"><ele>96.076706</ele><time>2022-03-04T09:48:16Z</time><extensions><speed>1.390717</speed><course>205.962204</course><hAcc>1.343220</hAcc><vAcc>0.829786</vAcc></extensions></trkpt>
      <trkpt lon="-2.266829" lat="53.118112"><ele>96.035385</ele><time>2022-03-04T09:48:17Z</time><extensions><speed>1.400417</speed><course>202.014114</course><hAcc>1.342457</hAcc><vAcc>0.829785</vAcc></extensions></trkpt>
      <trkpt lon="-2.266837" lat="53.118100"><ele>95.978600</ele><time>2022-03-04T09:48:18Z</time><extensions><speed>1.555567</speed><course>203.248306</course><hAcc>1.361069</hAcc><vAcc>0.829752</vAcc></extensions></trkpt>
      <trkpt lon="-2.266846" lat="53.118087"><ele>95.920532</ele><time>2022-03-04T09:48:19Z</time><extensions><speed>1.547065</speed><course>207.037888</course><hAcc>1.356620</hAcc><vAcc>0.829689</vAcc></extensions></trkpt>
      <trkpt lon="-2.266857" lat="53.118075"><ele>95.839981</ele><time>2022-03-04T09:48:20Z</time><extensions><speed>1.531840</speed><course>209.105286</course><hAcc>1.349233</hAcc><vAcc>0.829608</vAcc></extensions></trkpt>
      <trkpt lon="-2.266867" lat="53.118063"><ele>95.746918</ele><time>2022-03-04T09:48:21Z</time><extensions><speed>1.500046</speed><course>211.314880</course><hAcc>1.349630</hAcc><vAcc>0.829483</vAcc></extensions></trkpt>
      <trkpt lon="-2.266879" lat="53.118052"><ele>95.651825</ele><time>2022-03-04T09:48:22Z</time><extensions><speed>1.461207</speed><course>214.645142</course><hAcc>1.351933</hAcc><vAcc>0.829346</vAcc></extensions></trkpt>
      <trkpt lon="-2.266892" lat="53.118042"><ele>95.555336</ele><time>2022-03-04T09:48:23Z</time><extensions><speed>1.525803</speed><course>215.810287</course><hAcc>1.368483</hAcc><vAcc>0.829187</vAcc></extensions></trkpt>
      <trkpt lon="-2.266906" lat="53.118030"><ele>95.451576</ele><time>2022-03-04T09:48:24Z</time><extensions><speed>1.589800</speed><course>217.490067</course><hAcc>1.380338</hAcc><vAcc>0.829003</vAcc></extensions></trkpt>
      <trkpt lon="-2.266920" lat="53.118020"><ele>95.356995</ele><time>2022-03-04T09:48:25Z</time><extensions><speed>1.482059</speed><course>219.012451</course><hAcc>1.366459</hAcc><vAcc>0.828811</vAcc></extensions></trkpt>
      <trkpt lon="-2.266934" lat="53.118010"><ele>95.277023</ele><time>2022-03-04T09:48:26Z</time><extensions><speed>1.464617</speed><course>221.287003</course><hAcc>1.372168</hAcc><vAcc>0.828606</vAcc></extensions></trkpt>
      <trkpt lon="-2.266947" lat="53.118000"><ele>95.208504</ele><time>2022-03-04T09:48:27Z</time><extensions><speed>1.500976</speed><course>216.842743</course><hAcc>1.374413</hAcc><vAcc>0.828395</vAcc></extensions></trkpt>
      <trkpt lon="-2.266960" lat="53.117989"><ele>95.153442</ele><time>2022-03-04T09:48:28Z</time><extensions><speed>1.494384</speed><course>212.476944</course><hAcc>1.375382</hAcc><vAcc>0.828189</vAcc></extensions></trkpt>
      <trkpt lon="-2.266973" lat="53.117978"><ele>95.098518</ele><time>2022-03-04T09:48:29Z</time><extensions><speed>1.567026</speed><course>214.560638</course><hAcc>1.391838</hAcc><vAcc>0.827995</vAcc></extensions></trkpt>
      <trkpt lon="-2.266986" lat="53.117966"><ele>95.040543</ele><time>2022-03-04T09:48:30Z</time><extensions><speed>1.505757</speed><course>213.340195</course><hAcc>1.396096</hAcc><vAcc>0.827836</vAcc></extensions></trkpt>
      <trkpt lon="-2.266998" lat="53.117955"><ele>94.993370</ele><time>2022-03-04T09:48:31Z</time><extensions><speed>1.490174</speed><course>214.098495</course><hAcc>1.404350</hAcc><vAcc>0.827687</vAcc></extensions></trkpt>
      <trkpt lon="-2.267012" lat="53.117944"><ele>94.966949</ele><time>2022-03-04T09:48:32Z</time><extensions><speed>1.517881</speed><course>220.080856</course><hAcc>1.418836</hAcc><vAcc>0.827536</vAcc></extensions></trkpt>
      <trkpt lon="-2.267028" lat="53.117934"><ele>94.928711</ele><time>2022-03-04T09:48:33Z</time><extensions><speed>1.511420</speed><course>225.714462</course><hAcc>1.433910</hAcc><vAcc>0.827416</vAcc></extensions></trkpt>
      <trkpt lon="-2.267044" lat="53.117925"><ele>94.907578</ele><time>2022-03-04T09:48:34Z</time><extensions><speed>1.470814</speed><course>226.789780</course><hAcc>1.448554</hAcc><vAcc>0.827329</vAcc></extensions></trkpt>
      <trkpt lon="-2.267060" lat="53.117916"><ele>94.897881</ele><time>2022-03-04T09:48:35Z</time><extensions><speed>1.429960</speed><course>229.567200</course><hAcc>1.467154</hAcc><vAcc>0.827255</vAcc></extensions></trkpt>
      <trkpt lon="-2.267077" lat="53.117909"><ele>94.892731</ele><time>2022-03-04T09:48:36Z</time><extensions><speed>1.330559</speed><course>234.420700</course><hAcc>1.485142</hAcc><vAcc>0.827200</vAcc></extensions></trkpt>
      <trkpt lon="-2.267092" lat="53.117903"><ele>94.891518</ele><time>2022-03-04T09:48:37Z</time><extensions><speed>1.141235</speed><course>242.584381</course><hAcc>1.505924</hAcc><vAcc>0.827170</vAcc></extensions></trkpt>
      <trkpt lon="-2.267107" lat="53.117899"><ele>94.909561</ele><time>2022-03-04T09:48:38Z</time><extensions><speed>0.997123</speed><course>249.082916</course><hAcc>1.558740</hAcc><vAcc>0.827156</vAcc></extensions></trkpt>
      <trkpt lon="-2.267121" lat="53.117895"><ele>94.916672</ele><time>2022-03-04T09:48:39Z</time><extensions><speed>1.042560</speed><course>246.823547</course><hAcc>1.603375</hAcc><vAcc>0.827157</vAcc></extensions></trkpt>
      <trkpt lon="-2.267135" lat="53.117891"><ele>94.944054</ele><time>2022-03-04T09:48:40Z</time><extensions><speed>1.063587</speed><course>240.892181</course><hAcc>1.612130</hAcc><vAcc>0.827171</vAcc></extensions></trkpt>
      <trkpt lon="-2.267149" lat="53.117886"><ele>94.973961</ele><time>2022-03-04T09:48:40Z</time><extensions><speed>1.107469</speed><course>238.051880</course><hAcc>1.598779</hAcc><vAcc>0.827195</vAcc></extensions></trkpt>
      <trkpt lon="-2.267164" lat="53.117880"><ele>95.013100</ele><time>2022-03-04T09:48:41Z</time><extensions><speed>1.266590</speed><course>236.430084</course><hAcc>1.619151</hAcc><vAcc>0.827232</vAcc></extensions></trkpt>
      <trkpt lon="-2.267180" lat="53.117874"><ele>95.058754</ele><time>2022-03-04T09:48:42Z</time><extensions><speed>1.309325</speed><course>234.888031</course><hAcc>1.655422</hAcc><vAcc>0.827254</vAcc></extensions></trkpt>
      <trkpt lon="-2.267197" lat="53.117867"><ele>95.114273</ele><time>2022-03-04T09:48:43Z</time><extensions><speed>1.334086</speed><course>232.729156</course><hAcc>1.676198</hAcc><vAcc>0.827278</vAcc></extensions></trkpt>
      <trkpt lon="-2.267213" lat="53.117859"><ele>95.163208</ele><time>2022-03-04T09:48:44Z</time><extensions><speed>1.400395</speed><course>231.358292</course><hAcc>1.681883</hAcc><vAcc>0.827301</vAcc></extensions></trkpt>
      <trkpt lon="-2.267230" lat="53.117851"><ele>95.211372</ele><time>2022-03-04T09:48:45Z</time><extensions><speed>1.512746</speed><course>231.040939</course><hAcc>1.666983</hAcc><vAcc>0.827317</vAcc></extensions></trkpt>
      <trkpt lon="-2.267248" lat="53.117842"><ele>95.261253</ele><time>2022-03-04T09:48:46Z</time><extensions><speed>1.555586</speed><course>231.336090</course><hAcc>1.652954</hAcc><vAcc>0.827356</vAcc></extensions></trkpt>
      <trkpt lon="-2.267266" lat="53.117833"><ele>95.337425</ele><time>2022-03-04T09:48:47Z</time><extensions><speed>1.527931</speed><course>231.164307</course><hAcc>1.639881</hAcc><vAcc>0.827377</vAcc></extensions></trkpt>
      <trkpt lon="-2.267283" lat="53.117825"><ele>95.414474</ele><time>2022-03-04T09:48:48Z</time><extensions><speed>1.408850</speed><course>229.992645</course><hAcc>1.630499</hAcc><vAcc>0.827381</vAcc></extensions></trkpt>
      <trkpt lon="-2.267299" lat="53.117817"><ele>95.480812</ele><time>2022-03-04T09:48:49Z</time><extensions><speed>1.328107</speed><course>230.114090</course><hAcc>1.621526</hAcc><vAcc>0.827370</vAcc></extensions></trkpt>
      <trkpt lon="-2.267314" lat="53.117809"><ele>95.544693</ele><time>2022-03-04T09:48:50Z</time><extensions><speed>1.295678</speed><course>231.178421</course><hAcc>1.620797</hAcc><vAcc>0.827356</vAcc></extensions></trkpt>
      <trkpt lon="-2.267329" lat="53.117802"><ele>95.611343</ele><time>2022-03-04T09:48:51Z</time><extensions><speed>1.259211</speed><course>231.547195</course><hAcc>1.653826</hAcc><vAcc>0.827307</vAcc></extensions></trkpt>
      <trkpt lon="-2.267346" lat="53.117794"><ele>95.665077</ele><time>2022-03-04T09:48:52Z</time><extensions><speed>1.499970</speed><course>232.848724</course><hAcc>1.594814</hAcc><vAcc>0.827245</vAcc></extensions></trkpt>
      <trkpt lon="-2.267364" lat="53.117786"><ele>95.726585</ele><time>2022-03-04T09:48:53Z</time><extensions><speed>1.590433</speed><course>233.173096</course><hAcc>1.563366</hAcc><vAcc>0.827141</vAcc></extensions></trkpt>
      <trkpt lon="-2.267383" lat="53.117777"><ele>95.778152</ele><time>2022-03-04T09:48:54Z</time><extensions><speed>1.598068</speed><course>232.772507</course><hAcc>1.578914</hAcc><vAcc>0.827045</vAcc></extensions></trkpt>
      <trkpt lon="-2.267401" lat="53.117769"><ele>95.826057</ele><time>2022-03-04T09:48:55Z</time><extensions><speed>1.454812</speed><course>232.394348</course><hAcc>1.630603</hAcc><vAcc>0.826945</vAcc></extensions></trkpt>
      <trkpt lon="-2.267418" lat="53.117762"><ele>95.871872</ele><time>2022-03-04T09:48:56Z</time><extensions><speed>1.328224</speed><course>233.150757</course><hAcc>1.674451</hAcc><vAcc>0.826857</vAcc></extensions></trkpt>
      <trkpt lon="-2.267434" lat="53.117754"><ele>95.917236</ele><time>2022-03-04T09:48:57Z</time><extensions><speed>1.355713</speed><course>231.628952</course><hAcc>1.627010</hAcc><vAcc>0.826766</vAcc></extensions></trkpt>
      <trkpt lon="-2.267449" lat="53.117747"><ele>95.939903</ele><time>2022-03-04T09:48:58Z</time><extensions><speed>1.278765</speed><course>231.528824</course><hAcc>1.623375</hAcc><vAcc>0.826657</vAcc></extensions></trkpt>
      <trkpt lon="-2.267464" lat="53.117740"><ele>95.962517</ele><time>2022-03-04T09:48:59Z</time><extensions><speed>1.209369</speed><course>231.542877</course><hAcc>1.654258</hAcc><vAcc>0.826540</vAcc></extensions></trkpt>
      <trkpt lon="-2.267478" lat="53.117733"><ele>95.971489</ele><time>2022-03-04T09:49:00Z</time><extensions><speed>1.180954</speed><course>234.356293</course><hAcc>1.681388</hAcc><vAcc>0.826439</vAcc></extensions></trkpt>
      <trkpt lon="-2.267493" lat="53.117727"><ele>95.970688</ele><time>2022-03-04T09:49:01Z</time><extensions><speed>1.148647</speed><course>237.036560</course><hAcc>1.700655</hAcc><vAcc>0.826333</vAcc></extensions></trkpt>
      <trkpt lon="-2.267507" lat="53.117722"><ele>95.962311</ele><time>2022-03-04T09:49:02Z</time><extensions><speed>1.073604</speed><course>239.262817</course><hAcc>1.713377</hAcc><vAcc>0.826253</vAcc></extensions></trkpt>
      <trkpt lon="-2.267521" lat="53.117718"><ele>95.940956</ele><time>2022-03-04T09:49:03Z</time><extensions><speed>0.986739</speed><course>245.114883</course><hAcc>1.699909</hAcc><vAcc>0.826210</vAcc></extensions></trkpt>
      <trkpt lon="-2.267535" lat="53.117714"><ele>95.912590</ele><time>2022-03-04T09:49:04Z</time><extensions><speed>1.093585</speed><course>243.678955</course><hAcc>1.685185</hAcc><vAcc>0.826192</vAcc></extensions></trkpt>
      <trkpt lon="-2.267551" lat="53.117709"><ele>95.887436</ele><time>2022-03-04T09:49:05Z</time><extensions><speed>1.233292</speed><course>242.133072</course><hAcc>1.666295</hAcc><vAcc>0.826197</vAcc></extensions></trkpt>
      <trkpt lon="-2.267567" lat="53.117703"><ele>95.864555</ele><time>2022-03-04T09:49:06Z</time><extensions><speed>1.266569</speed><course>240.117996</course><hAcc>1.649052</hAcc><vAcc>0.826226</vAcc></extensions></trkpt>
      <trkpt lon="-2.267583" lat="53.117697"><ele>95.831879</ele><time>2022-03-04T09:49:07Z</time><extensions><speed>1.242565</speed><course>236.748062</course><hAcc>1.642838</hAcc><vAcc>0.826263</vAcc></extensions></trkpt>
      <trkpt lon="-2.267597" lat="53.117691"><ele>95.797295</ele><time>2022-03-04T09:49:08Z</time><extensions><speed>1.066866</speed><course>232.574188</course><hAcc>1.664846</hAcc><vAcc>0.826306</vAcc></extensions></trkpt>
      <trkpt lon="-2.267610" lat="53.117685"><ele>95.759804</ele><time>2022-03-04T09:49:09Z</time><extensions><speed>1.129779</speed><course>236.169296</course><hAcc>1.629795</hAcc><vAcc>0.826356</vAcc></extensions></trkpt>
      <trkpt lon="-2.267625" lat="53.117680"><ele>95.728920</ele><time>2022-03-04T09:49:10Z</time><extensions><speed>1.217910</speed><course>239.375549</course><hAcc>1.573996</hAcc><vAcc>0.826415</vAcc></extensions></trkpt>
      <trkpt lon="-2.267641" lat="53.117674"><ele>95.697487</ele><time>2022-03-04T09:49:11Z</time><extensions><speed>1.375011</speed><course>237.164734</course><hAcc>1.524385</hAcc><vAcc>0.826483</vAcc></extensions></trkpt>
      <trkpt lon="-2.267658" lat="53.117667"><ele>95.681953</ele><time>2022-03-04T09:49:12Z</time><extensions><speed>1.517360</speed><course>233.702347</course><hAcc>1.505014</hAcc><vAcc>0.826535</vAcc></extensions></trkpt>
      <trkpt lon="-2.267675" lat="53.117658"><ele>95.662521</ele><time>2022-03-04T09:49:13Z</time><extensions><speed>1.614488</speed><course>230.041458</course><hAcc>1.520939</hAcc><vAcc>0.826559</vAcc></extensions></trkpt>
      <trkpt lon="-2.267693" lat="53.117649"><ele>95.632393</ele><time>2022-03-04T09:49:14Z</time><extensions><speed>1.739715</speed><course>226.281219</course><hAcc>1.505388</hAcc><vAcc>0.826580</vAcc></extensions></trkpt>
      <trkpt lon="-2.267711" lat="53.117638"><ele>95.607964</ele><time>2022-03-04T09:49:15Z</time><extensions><speed>1.753610</speed><course>223.386780</course><hAcc>1.481851</hAcc><vAcc>0.826591</vAcc></extensions></trkpt>
      <trkpt lon="-2.267728" lat="53.117626"><ele>95.568199</ele><time>2022-03-04T09:49:16Z</time><extensions><speed>1.679150</speed><course>221.446457</course><hAcc>1.466909</hAcc><vAcc>0.826600</vAcc></extensions></trkpt>
      <trkpt lon="-2.267745" lat="53.117615"><ele>95.537270</ele><time>2022-03-04T09:49:17Z</time><extensions><speed>1.650866</speed><course>222.793549</course><hAcc>1.458667</hAcc><vAcc>0.826589</vAcc></extensions></trkpt>
      <trkpt lon="-2.267761" lat="53.117605"><ele>95.502777</ele><time>2022-03-04T09:49:18Z</time><extensions><speed>1.613747</speed><course>224.488785</course><hAcc>1.468017</hAcc><vAcc>0.826566</vAcc></extensions></trkpt>
      <trkpt lon="-2.267778" lat="53.117595"><ele>95.458397</ele><time>2022-03-04T09:49:19Z</time><extensions><speed>1.491973</speed><course>224.554153</course><hAcc>1.479214</hAcc><vAcc>0.826537</vAcc></extensions></trkpt>
      <trkpt lon="-2.267793" lat="53.117585"><ele>95.414711</ele><time>2022-03-04T09:49:20Z</time><extensions><speed>1.415275</speed><course>224.295609</course><hAcc>1.512385</hAcc><vAcc>0.826475</vAcc></extensions></trkpt>
      <trkpt lon="-2.267805" lat="53.117577"><ele>95.384361</ele><time>2022-03-04T09:49:21Z</time><extensions><speed>1.058847</speed><course>218.473770</course><hAcc>1.520071</hAcc><vAcc>0.826406</vAcc></extensions></trkpt>
      <trkpt lon="-2.267812" lat="53.117571"><ele>95.352936</ele><time>2022-03-04T09:49:22Z</time><extensions><speed>0.691554</speed><course>204.954575</course><hAcc>1.543934</hAcc><vAcc>0.826350</vAcc></extensions></trkpt>
      <trkpt lon="-2.267813" lat="53.117566"><ele>95.321388</ele><time>2022-03-04T09:49:23Z</time><extensions><speed>0.364421</speed><course>163.216370</course><hAcc>1.562054</hAcc><vAcc>0.826315</vAcc></extensions></trkpt>
      <trkpt lon="-2.267812" lat="53.117563"><ele>95.279282</ele><time>2022-03-04T09:49:24Z</time><extensions><speed>0.325263</speed><course>154.817047</course><hAcc>1.599411</hAcc><vAcc>0.826306</vAcc></extensions></trkpt>
      <trkpt lon="-2.267811" lat="53.117559"><ele>95.246033</ele><time>2022-03-04T09:49:25Z</time><extensions><speed>0.543529</speed><course>183.127808</course><hAcc>1.635327</hAcc><vAcc>0.826334</vAcc></extensions></trkpt>
      <trkpt lon="-2.267812" lat="53.117554"><ele>95.221474</ele><time>2022-03-04T09:49:26Z</time><extensions><speed>0.698151</speed><course>191.345291</course><hAcc>1.654468</hAcc><vAcc>0.826388</vAcc></extensions></trkpt>
      <trkpt lon="-2.267814" lat="53.117548"><ele>95.189751</ele><time>2022-03-04T09:49:27Z</time><extensions><speed>0.796733</speed><course>195.607254</course><hAcc>1.653290</hAcc><vAcc>0.826472</vAcc></extensions></trkpt>
      <trkpt lon="-2.267817" lat="53.117540"><ele>95.157906</ele><time>2022-03-04T09:49:28Z</time><extensions><speed>0.977232</speed><course>195.128876</course><hAcc>1.643897</hAcc><vAcc>0.826590</vAcc></extensions></trkpt>
      <trkpt lon="-2.267821" lat="53.117531"><ele>95.114342</ele><time>2022-03-04T09:49:29Z</time><extensions><speed>1.160260</speed><course>194.906906</course><hAcc>1.623592</hAcc><vAcc>0.826733</vAcc></extensions></trkpt>
      <trkpt lon="-2.267825" lat="53.117521"><ele>95.067421</ele><time>2022-03-04T09:49:30Z</time><extensions><speed>1.266076</speed><course>195.978409</course><hAcc>1.575743</hAcc><vAcc>0.826906</vAcc></extensions></trkpt>
      <trkpt lon="-2.267830" lat="53.117510"><ele>95.034622</ele><time>2022-03-04T09:49:31Z</time><extensions><speed>1.336850</speed><course>196.770233</course><hAcc>1.527198</hAcc><vAcc>0.827111</vAcc></extensions></trkpt>
      <trkpt lon="-2.267836" lat="53.117498"><ele>95.010277</ele><time>2022-03-04T09:49:32Z</time><extensions><speed>1.444287</speed><course>197.230118</course><hAcc>1.506168</hAcc><vAcc>0.827346</vAcc></extensions></trkpt>
      <trkpt lon="-2.267842" lat="53.117485"><ele>94.995216</ele><time>2022-03-04T09:49:33Z</time><extensions><speed>1.537991</speed><course>195.943954</course><hAcc>1.490807</hAcc><vAcc>0.827587</vAcc></extensions></trkpt>
      <trkpt lon="-2.267848" lat="53.117472"><ele>94.980530</ele><time>2022-03-04T09:49:34Z</time><extensions><speed>1.569782</speed><course>193.584427</course><hAcc>1.460626</hAcc><vAcc>0.827823</vAcc></extensions></trkpt>
      <trkpt lon="-2.267853" lat="53.117459"><ele>94.967659</ele><time>2022-03-04T09:49:35Z</time><extensions><speed>1.604866</speed><course>192.862579</course><hAcc>1.434318</hAcc><vAcc>0.827999</vAcc></extensions></trkpt>
      <trkpt lon="-2.267858" lat="53.117445"><ele>94.965103</ele><time>2022-03-04T09:49:36Z</time><extensions><speed>1.620357</speed><course>191.110687</course><hAcc>1.423559</hAcc><vAcc>0.828144</vAcc></extensions></trkpt>
      <trkpt lon="-2.267862" lat="53.117431"><ele>94.971008</ele><time>2022-03-04T09:49:37Z</time><extensions><speed>1.549552</speed><course>191.482681</course><hAcc>1.412797</hAcc><vAcc>0.828296</vAcc></extensions></trkpt>
      <trkpt lon="-2.267866" lat="53.117417"><ele>94.969833</ele><time>2022-03-04T09:49:38Z</time><extensions><speed>1.517270</speed><course>187.431488</course><hAcc>1.402512</hAcc><vAcc>0.828431</vAcc></extensions></trkpt>
      <trkpt lon="-2.267867" lat="53.117404"><ele>94.959427</ele><time>2022-03-04T09:49:39Z</time><extensions><speed>1.502192</speed><course>181.622543</course><hAcc>1.390953</hAcc><vAcc>0.828541</vAcc></extensions></trkpt>
      <trkpt lon="-2.267867" lat="53.117390"><ele>94.961403</ele><time>2022-03-04T09:49:40Z</time><extensions><speed>1.474755</speed><course>176.723770</course><hAcc>1.404167</hAcc><vAcc>0.828613</vAcc></extensions></trkpt>
      <trkpt lon="-2.267866" lat="53.117378"><ele>94.982849</ele><time>2022-03-04T09:49:41Z</time><extensions><speed>1.400863</speed><course>181.947052</course><hAcc>1.426901</hAcc><vAcc>0.828658</vAcc></extensions></trkpt>
      <trkpt lon="-2.267868" lat="53.117365"><ele>95.013603</ele><time>2022-03-04T09:49:42Z</time><extensions><speed>1.354236</speed><course>189.016556</course><hAcc>1.440679</hAcc><vAcc>0.828662</vAcc></extensions></trkpt>
      <trkpt lon="-2.267871" lat="53.117354"><ele>95.029877</ele><time>2022-03-04T09:49:43Z</time><extensions><speed>1.295298</speed><course>189.407501</course><hAcc>1.441944</hAcc><vAcc>0.828645</vAcc></extensions></trkpt>
      <trkpt lon="-2.267872" lat="53.117343"><ele>95.058861</ele><time>2022-03-04T09:49:44Z</time><extensions><speed>1.176206</speed><course>181.675522</course><hAcc>1.408534</hAcc><vAcc>0.828627</vAcc></extensions></trkpt>
      <trkpt lon="-2.267872" lat="53.117333"><ele>95.092148</ele><time>2022-03-04T09:49:45Z</time><extensions><speed>1.146949</speed><course>175.392090</course><hAcc>1.390778</hAcc><vAcc>0.828626</vAcc></extensions></trkpt>
      <trkpt lon="-2.267870" lat="53.117322"><ele>95.122757</ele><time>2022-03-04T09:49:46Z</time><extensions><speed>1.308622</speed><course>174.576157</course><hAcc>1.402404</hAcc><vAcc>0.828647</vAcc></extensions></trkpt>
      <trkpt lon="-2.267869" lat="53.117310"><ele>95.156303</ele><time>2022-03-04T09:49:47Z</time><extensions><speed>1.481972</speed><course>178.534149</course><hAcc>1.439578</hAcc><vAcc>0.828714</vAcc></extensions></trkpt>
      <trkpt lon="-2.267869" lat="53.117296"><ele>95.193352</ele><time>2022-03-04T09:49:48Z</time><extensions><speed>1.615531</speed><course>178.045380</course><hAcc>1.414889</hAcc><vAcc>0.828804</vAcc></extensions></trkpt>
      <trkpt lon="-2.267868" lat="53.117282"><ele>95.239700</ele><time>2022-03-04T09:49:49Z</time><extensions><speed>1.614083</speed><course>178.665878</course><hAcc>1.390220</hAcc><vAcc>0.828919</vAcc></extensions></trkpt>
      <trkpt lon="-2.267867" lat="53.117268"><ele>95.284149</ele><time>2022-03-04T09:49:50Z</time><extensions><speed>1.591881</speed><course>176.737289</course><hAcc>1.383245</hAcc><vAcc>0.829055</vAcc></extensions></trkpt>
      <trkpt lon="-2.267863" lat="53.117254"><ele>95.329895</ele><time>2022-03-04T09:49:51Z</time><extensions><speed>1.551682</speed><course>163.150742</course><hAcc>1.351370</hAcc><vAcc>0.829193</vAcc></extensions></trkpt>
      <trkpt lon="-2.267855" lat="53.117241"><ele>95.375992</ele><time>2022-03-04T09:49:52Z</time><extensions><speed>1.567996</speed><course>158.142593</course><hAcc>1.338255</hAcc><vAcc>0.829343</vAcc></extensions></trkpt>
      <trkpt lon="-2.267847" lat="53.117228"><ele>95.427185</ele><time>2022-03-04T09:49:53Z</time><extensions><speed>1.567229</speed><course>163.622620</course><hAcc>1.335118</hAcc><vAcc>0.829498</vAcc></extensions></trkpt>
      <trkpt lon="-2.267842" lat="53.117215"><ele>95.463730</ele><time>2022-03-04T09:49:54Z</time><extensions><speed>1.509498</speed><course>171.398758</course><hAcc>1.339878</hAcc><vAcc>0.829669</vAcc></extensions></trkpt>
      <trkpt lon="-2.267839" lat="53.117202"><ele>95.493507</ele><time>2022-03-04T09:49:56Z</time><extensions><speed>1.465445</speed><course>173.304169</course><hAcc>1.330283</hAcc><vAcc>0.829822</vAcc></extensions></trkpt>
      <trkpt lon="-2.267837" lat="53.117189"><ele>95.518387</ele><time>2022-03-04T09:49:57Z</time><extensions><speed>1.381955</speed><course>176.541031</course><hAcc>1.318486</hAcc><vAcc>0.829954</vAcc></extensions></trkpt>
      <trkpt lon="-2.267836" lat="53.117177"><ele>95.558174</ele><time>2022-03-04T09:49:58Z</time><extensions><speed>1.407810</speed><course>174.990921</course><hAcc>1.320587</hAcc><vAcc>0.830067</vAcc></extensions></trkpt>
      <trkpt lon="-2.267834" lat="53.117165"><ele>95.578087</ele><time>2022-03-04T09:49:59Z</time><extensions><speed>1.407070</speed><course>174.675217</course><hAcc>1.320902</hAcc><vAcc>0.830168</vAcc></extensions></trkpt>
      <trkpt lon="-2.267831" lat="53.117152"><ele>95.604317</ele><time>2022-03-04T09:50:00Z</time><extensions><speed>1.455838</speed><course>171.683655</course><hAcc>1.329542</hAcc><vAcc>0.830249</vAcc></extensions></trkpt>
      <trkpt lon="-2.267828" lat="53.117140"><ele>95.634209</ele><time>2022-03-04T09:50:01Z</time><extensions><speed>1.394860</speed><course>171.238831</course><hAcc>1.314300</hAcc><vAcc>0.830319</vAcc></extensions></trkpt>
      <trkpt lon="-2.267824" lat="53.117128"><ele>95.660477</ele><time>2022-03-04T09:50:02Z</time><extensions><speed>1.327829</speed><course>168.833496</course><hAcc>1.293742</hAcc><vAcc>0.830366</vAcc></extensions></trkpt>
      <trkpt lon="-2.267820" lat="53.117116"><ele>95.690552</ele><time>2022-03-04T09:50:03Z</time><extensions><speed>1.371786</speed><course>170.131119</course><hAcc>1.307060</hAcc><vAcc>0.830425</vAcc></extensions></trkpt>
      <trkpt lon="-2.267816" lat="53.117104"><ele>95.724937</ele><time>2022-03-04T09:50:04Z</time><extensions><speed>1.399899</speed><course>168.819839</course><hAcc>1.306486</hAcc><vAcc>0.830461</vAcc></extensions></trkpt>
      <trkpt lon="-2.267812" lat="53.117092"><ele>95.751625</ele><time>2022-03-04T09:50:05Z</time><extensions><speed>1.462269</speed><course>168.213013</course><hAcc>1.312919</hAcc><vAcc>0.830501</vAcc></extensions></trkpt>
      <trkpt lon="-2.267807" lat="53.117079"><ele>95.778351</ele><time>2022-03-04T09:50:06Z</time><extensions><speed>1.446843</speed><course>166.793274</course><hAcc>1.304481</hAcc><vAcc>0.830519</vAcc></extensions></trkpt>
      <trkpt lon="-2.267802" lat="53.117066"><ele>95.829002</ele><time>2022-03-04T09:50:07Z</time><extensions><speed>1.441058</speed><course>166.666397</course><hAcc>1.296554</hAcc><vAcc>0.830519</vAcc></extensions></trkpt>
      <trkpt lon="-2.267796" lat="53.117054"><ele>95.871246</ele><time>2022-03-04T09:50:08Z</time><extensions><speed>1.471835</speed><course>164.156921</course><hAcc>1.307073</hAcc><vAcc>0.830542</vAcc></extensions></trkpt>
      <trkpt lon="-2.267790" lat="53.117041"><ele>95.919502</ele><time>2022-03-04T09:50:09Z</time><extensions><speed>1.479062</speed><course>160.190765</course><hAcc>1.313508</hAcc><vAcc>0.830520</vAcc></extensions></trkpt>
      <trkpt lon="-2.267782" lat="53.117029"><ele>95.968246</ele><time>2022-03-04T09:50:10Z</time><extensions><speed>1.472717</speed><course>160.453812</course><hAcc>1.319591</hAcc><vAcc>0.830472</vAcc></extensions></trkpt>
      <trkpt lon="-2.267774" lat="53.117016"><ele>96.015228</ele><time>2022-03-04T09:50:11Z</time><extensions><speed>1.451899</speed><course>155.918320</course><hAcc>1.331322</hAcc><vAcc>0.830400</vAcc></extensions></trkpt>
      <trkpt lon="-2.267765" lat="53.117005"><ele>96.052994</ele><time>2022-03-04T09:50:12Z</time><extensions><speed>1.434369</speed><course>152.153946</course><hAcc>1.371933</hAcc><vAcc>0.830325</vAcc></extensions></trkpt>
      <trkpt lon="-2.267755" lat="53.116994"><ele>96.086037</ele><time>2022-03-04T09:50:13Z</time><extensions><speed>1.367574</speed><course>149.757767</course><hAcc>1.394664</hAcc><vAcc>0.830202</vAcc></extensions></trkpt>
      <trkpt lon="-2.267746" lat="53.116983"><ele>96.114189</ele><time>2022-03-04T09:50:14Z</time><extensions><speed>1.253852</speed><course>155.802582</course><hAcc>1.401707</hAcc><vAcc>0.830065</vAcc></extensions></trkpt>
      <trkpt lon="-2.267740" lat="53.116973"><ele>96.143288</ele><time>2022-03-04T09:50:15Z</time><extensions><speed>1.253031</speed><course>165.149521</course><hAcc>1.465379</hAcc><vAcc>0.829900</vAcc></extensions></trkpt>
      <trkpt lon="-2.267737" lat="53.116962"><ele>96.161949</ele><time>2022-03-04T09:50:16Z</time><extensions><speed>1.306245</speed><course>171.577377</course><hAcc>1.478160</hAcc><vAcc>0.829715</vAcc></extensions></trkpt>
      <trkpt lon="-2.267735" lat="53.116950"><ele>96.169128</ele><time>2022-03-04T09:50:17Z</time><extensions><speed>1.354172</speed><course>175.199203</course><hAcc>1.512489</hAcc><vAcc>0.829523</vAcc></extensions></trkpt>
      <trkpt lon="-2.267734" lat="53.116938"><ele>96.171707</ele><time>2022-03-04T09:50:18Z</time><extensions><speed>1.298803</speed><course>178.833450</course><hAcc>1.553306</hAcc><vAcc>0.829333</vAcc></extensions></trkpt>
      <trkpt lon="-2.267735" lat="53.116927"><ele>96.173218</ele><time>2022-03-04T09:50:19Z</time><extensions><speed>1.249915</speed><course>188.882004</course><hAcc>1.534047</hAcc><vAcc>0.829134</vAcc></extensions></trkpt>
      <trkpt lon="-2.267739" lat="53.116916"><ele>96.165253</ele><time>2022-03-04T09:50:20Z</time><extensions><speed>1.270940</speed><course>197.577499</course><hAcc>1.516683</hAcc><vAcc>0.828938</vAcc></extensions></trkpt>
      <trkpt lon="-2.267746" lat="53.116905"><ele>96.152824</ele><time>2022-03-04T09:50:21Z</time><extensions><speed>1.289164</speed><course>201.806061</course><hAcc>1.530738</hAcc><vAcc>0.828753</vAcc></extensions></trkpt>
      <trkpt lon="-2.267753" lat="53.116895"><ele>96.132111</ele><time>2022-03-04T09:50:22Z</time><extensions><speed>1.327856</speed><course>200.838058</course><hAcc>1.575506</hAcc><vAcc>0.828583</vAcc></extensions></trkpt>
      <trkpt lon="-2.267761" lat="53.116884"><ele>96.107964</ele><time>2022-03-04T09:50:23Z</time><extensions><speed>1.377874</speed><course>209.196060</course><hAcc>1.508972</hAcc><vAcc>0.828435</vAcc></extensions></trkpt>
      <trkpt lon="-2.267772" lat="53.116873"><ele>96.079132</ele><time>2022-03-04T09:50:24Z</time><extensions><speed>1.439944</speed><course>213.339020</course><hAcc>1.482537</hAcc><vAcc>0.828305</vAcc></extensions></trkpt>
      <trkpt lon="-2.267784" lat="53.116862"><ele>96.051224</ele><time>2022-03-04T09:50:25Z</time><extensions><speed>1.609550</speed><course>211.947449</course><hAcc>1.498489</hAcc><vAcc>0.828188</vAcc></extensions></trkpt>
      <trkpt lon="-2.267797" lat="53.116850"><ele>96.028343</ele><time>2022-03-04T09:50:26Z</time><extensions><speed>1.568374</speed><course>211.797516</course><hAcc>1.487306</hAcc><vAcc>0.828099</vAcc></extensions></trkpt>
      <trkpt lon="-2.267809" lat="53.116838"><ele>96.012383</ele><time>2022-03-04T09:50:27Z</time><extensions><speed>1.516633</speed><course>211.696274</course><hAcc>1.472518</hAcc><vAcc>0.828016</vAcc></extensions></trkpt>
      <trkpt lon="-2.267820" lat="53.116827"><ele>95.993042</ele><time>2022-03-04T09:50:28Z</time><extensions><speed>1.478578</speed><course>211.184708</course><hAcc>1.464899</hAcc><vAcc>0.827935</vAcc></extensions></trkpt>
      <trkpt lon="-2.267832" lat="53.116816"><ele>95.964081</ele><time>2022-03-04T09:50:29Z</time><extensions><speed>1.460842</speed><course>214.486694</course><hAcc>1.458129</hAcc><vAcc>0.827880</vAcc></extensions></trkpt>
      <trkpt lon="-2.267844" lat="53.116806"><ele>95.942268</ele><time>2022-03-04T09:50:30Z</time><extensions><speed>1.475273</speed><course>215.749664</course><hAcc>1.448659</hAcc><vAcc>0.827809</vAcc></extensions></trkpt>
      <trkpt lon="-2.267857" lat="53.116795"><ele>95.923965</ele><time>2022-03-04T09:50:31Z</time><extensions><speed>1.485670</speed><course>218.057892</course><hAcc>1.439431</hAcc><vAcc>0.827758</vAcc></extensions></trkpt>
      <trkpt lon="-2.267872" lat="53.116785"><ele>95.913185</ele><time>2022-03-04T09:50:32Z</time><extensions><speed>1.557738</speed><course>219.987427</course><hAcc>1.433422</hAcc><vAcc>0.827713</vAcc></extensions></trkpt>
      <trkpt lon="-2.267886" lat="53.116774"><ele>95.905746</ele><time>2022-03-04T09:50:33Z</time><extensions><speed>1.576890</speed><course>218.218643</course><hAcc>1.419496</hAcc><vAcc>0.827675</vAcc></extensions></trkpt>
      <trkpt lon="-2.267900" lat="53.116763"><ele>95.894424</ele><time>2022-03-04T09:50:34Z</time><extensions><speed>1.574503</speed><course>218.009399</course><hAcc>1.410743</hAcc><vAcc>0.827648</vAcc></extensions></trkpt>
      <trkpt lon="-2.267914" lat="53.116753"><ele>95.885689</ele><time>2022-03-04T09:50:35Z</time><extensions><speed>1.532649</speed><course>219.250336</course><hAcc>1.400945</hAcc><vAcc>0.827639</vAcc></extensions></trkpt>
      <trkpt lon="-2.267928" lat="53.116743"><ele>95.890106</ele><time>2022-03-04T09:50:36Z</time><extensions><speed>1.505024</speed><course>220.198517</course><hAcc>1.393149</hAcc><vAcc>0.827639</vAcc></extensions></trkpt>
      <trkpt lon="-2.267942" lat="53.116733"><ele>95.902649</ele><time>2022-03-04T09:50:37Z</time><extensions><speed>1.457850</speed><course>220.352097</course><hAcc>1.381725</hAcc><vAcc>0.827655</vAcc></extensions></trkpt>
      <trkpt lon="-2.267954" lat="53.116723"><ele>95.935753</ele><time>2022-03-04T09:50:38Z</time><extensions><speed>1.500976</speed><course>217.167816</course><hAcc>1.375317</hAcc><vAcc>0.827678</vAcc></extensions></trkpt>
      <trkpt lon="-2.267966" lat="53.116713"><ele>95.982216</ele><time>2022-03-04T09:50:39Z</time><extensions><speed>1.513412</speed><course>212.632629</course><hAcc>1.374422</hAcc><vAcc>0.827700</vAcc></extensions></trkpt>
      <trkpt lon="-2.267977" lat="53.116702"><ele>96.044518</ele><time>2022-03-04T09:50:40Z</time><extensions><speed>1.514780</speed><course>209.482422</course><hAcc>1.369371</hAcc><vAcc>0.827736</vAcc></extensions></trkpt>
      <trkpt lon="-2.267987" lat="53.116691"><ele>96.133499</ele><time>2022-03-04T09:50:41Z</time><extensions><speed>1.420353</speed><course>209.471527</course><hAcc>1.355867</hAcc><vAcc>0.827775</vAcc></extensions></trkpt>
      <trkpt lon="-2.267997" lat="53.116681"><ele>96.255341</ele><time>2022-03-04T09:50:42Z</time><extensions><speed>1.335752</speed><course>213.219986</course><hAcc>1.349779</hAcc><vAcc>0.827812</vAcc></extensions></trkpt>
      <trkpt lon="-2.268008" lat="53.116672"><ele>96.421112</ele><time>2022-03-04T09:50:43Z</time><extensions><speed>1.356117</speed><course>215.955017</course><hAcc>1.356393</hAcc><vAcc>0.827833</vAcc></extensions></trkpt>
      <trkpt lon="-2.268019" lat="53.116662"><ele>96.599899</ele><time>2022-03-04T09:50:44Z</time><extensions><speed>1.318016</speed><course>211.747131</course><hAcc>1.352623</hAcc><vAcc>0.827833</vAcc></extensions></trkpt>
      <trkpt lon="-2.268027" lat="53.116652"><ele>96.781570</ele><time>2022-03-04T09:50:45Z</time><extensions><speed>1.230277</speed><course>202.958008</course><hAcc>1.344929</hAcc><vAcc>0.827842</vAcc></extensions></trkpt>
      <trkpt lon="-2.268031" lat="53.116642"><ele>96.955322</ele><time>2022-03-04T09:50:45Z</time><extensions><speed>1.225429</speed><course>184.951172</course><hAcc>1.346403</hAcc><vAcc>0.827857</vAcc></extensions></trkpt>
      <trkpt lon="-2.268029" lat="53.116632"><ele>97.127106</ele><time>2022-03-04T09:50:46Z</time><extensions><speed>1.327643</speed><course>159.362518</course><hAcc>1.350361</hAcc><vAcc>0.827878</vAcc></extensions></trkpt>
      <trkpt lon="-2.268019" lat="53.116622"><ele>97.298119</ele><time>2022-03-04T09:50:47Z</time><extensions><speed>1.421015</speed><course>140.916809</course><hAcc>1.353348</hAcc><vAcc>0.827899</vAcc></extensions></trkpt>
      <trkpt lon="-2.268004" lat="53.116613"><ele>97.461700</ele><time>2022-03-04T09:50:48Z</time><extensions><speed>1.462755</speed><course>128.858368</course><hAcc>1.349020</hAcc><vAcc>0.827919</vAcc></extensions></trkpt>
      <trkpt lon="-2.267987" lat="53.116606"><ele>97.607475</ele><time>2022-03-04T09:50:49Z</time><extensions><speed>1.337790</speed><course>128.813705</course><hAcc>1.346650</hAcc><vAcc>0.827949</vAcc></extensions></trkpt>
      <trkpt lon="-2.267972" lat="53.116599"><ele>97.744125</ele><time>2022-03-04T09:50:50Z</time><extensions><speed>1.266460</speed><course>126.367485</course><hAcc>1.351872</hAcc><vAcc>0.827992</vAcc></extensions></trkpt>
      <trkpt lon="-2.267957" lat="53.116593"><ele>97.852531</ele><time>2022-03-04T09:50:51Z</time><extensions><speed>1.232750</speed><course>117.302124</course><hAcc>1.361281</hAcc><vAcc>0.828040</vAcc></extensions></trkpt>
      <trkpt lon="-2.267941" lat="53.116589"><ele>97.940125</ele><time>2022-03-04T09:50:52Z</time><extensions><speed>1.118433</speed><course>113.145302</course><hAcc>1.347159</hAcc><vAcc>0.828124</vAcc></extensions></trkpt>
      <trkpt lon="-2.267926" lat="53.116585"><ele>98.019821</ele><time>2022-03-04T09:50:53Z</time><extensions><speed>1.208985</speed><course>124.160881</course><hAcc>1.358030</hAcc><vAcc>0.828220</vAcc></extensions></trkpt>
      <trkpt lon="-2.267911" lat="53.116578"><ele>98.073135</ele><time>2022-03-04T09:50:54Z</time><extensions><speed>1.422686</speed><course>129.831268</course><hAcc>1.365075</hAcc><vAcc>0.828338</vAcc></extensions></trkpt>
      <trkpt lon="-2.267895" lat="53.116570"><ele>98.099297</ele><time>2022-03-04T09:50:55Z</time><extensions><speed>1.460647</speed><course>129.985291</course><hAcc>1.360025</hAcc><vAcc>0.828479</vAcc></extensions></trkpt>
      <trkpt lon="-2.267879" lat="53.116562"><ele>98.107864</ele><time>2022-03-04T09:50:56Z</time><extensions><speed>1.354206</speed><course>130.430283</course><hAcc>1.343087</hAcc><vAcc>0.828645</vAcc></extensions></trkpt>
      <trkpt lon="-2.267863" lat="53.116554"><ele>98.108864</ele><time>2022-03-04T09:50:57Z</time><extensions><speed>1.448530</speed><course>131.369171</course><hAcc>1.352257</hAcc><vAcc>0.828799</vAcc></extensions></trkpt>
      <trkpt lon="-2.267847" lat="53.116546"><ele>98.092628</ele><time>2022-03-04T09:50:58Z</time><extensions><speed>1.443991</speed><course>129.870621</course><hAcc>1.349751</hAcc><vAcc>0.828945</vAcc></extensions></trkpt>
      <trkpt lon="-2.267831" lat="53.116538"><ele>98.046738</ele><time>2022-03-04T09:50:59Z</time><extensions><speed>1.497129</speed><course>130.616714</course><hAcc>1.354843</hAcc><vAcc>0.829086</vAcc></extensions></trkpt>
      <trkpt lon="-2.267814" lat="53.116529"><ele>97.995834</ele><time>2022-03-04T09:51:00Z</time><extensions><speed>1.485142</speed><course>130.677109</course><hAcc>1.345423</hAcc><vAcc>0.829207</vAcc></extensions></trkpt>
      <trkpt lon="-2.267798" lat="53.116521"><ele>97.933792</ele><time>2022-03-04T09:51:01Z</time><extensions><speed>1.473450</speed><course>130.090332</course><hAcc>1.344617</hAcc><vAcc>0.829316</vAcc></extensions></trkpt>
      <trkpt lon="-2.267781" lat="53.116513"><ele>97.876030</ele><time>2022-03-04T09:51:02Z</time><extensions><speed>1.454867</speed><course>129.695404</course><hAcc>1.343244</hAcc><vAcc>0.829402</vAcc></extensions></trkpt>
      <trkpt lon="-2.267765" lat="53.116505"><ele>97.815834</ele><time>2022-03-04T09:51:03Z</time><extensions><speed>1.468621</speed><course>129.986832</course><hAcc>1.344131</hAcc><vAcc>0.829461</vAcc></extensions></trkpt>
      <trkpt lon="-2.267749" lat="53.116496"><ele>97.742821</ele><time>2022-03-04T09:51:04Z</time><extensions><speed>1.424100</speed><course>132.589951</course><hAcc>1.337629</hAcc><vAcc>0.829491</vAcc></extensions></trkpt>
      <trkpt lon="-2.267733" lat="53.116487"><ele>97.680038</ele><time>2022-03-04T09:51:05Z</time><extensions><speed>1.516471</speed><course>133.704910</course><hAcc>1.355284</hAcc><vAcc>0.829506</vAcc></extensions></trkpt>
      <trkpt lon="-2.267718" lat="53.116478"><ele>97.622238</ele><time>2022-03-04T09:51:06Z</time><extensions><speed>1.461857</speed><course>133.758652</course><hAcc>1.349356</hAcc><vAcc>0.829510</vAcc></extensions></trkpt>
      <trkpt lon="-2.267702" lat="53.116470"><ele>97.576569</ele><time>2022-03-04T09:51:07Z</time><extensions><speed>1.453326</speed><course>131.895340</course><hAcc>1.343534</hAcc><vAcc>0.829490</vAcc></extensions></trkpt>
      <trkpt lon="-2.267686" lat="53.116461"><ele>97.536919</ele><time>2022-03-04T09:51:08Z</time><extensions><speed>1.430766</speed><course>131.638824</course><hAcc>1.342705</hAcc><vAcc>0.829459</vAcc></extensions></trkpt>
      <trkpt lon="-2.267670" lat="53.116453"><ele>97.500420</ele><time>2022-03-04T09:51:09Z</time><extensions><speed>1.478281</speed><course>133.887299</course><hAcc>1.357047</hAcc><vAcc>0.829417</vAcc></extensions></trkpt>
      <trkpt lon="-2.267655" lat="53.116443"><ele>97.475754</ele><time>2022-03-04T09:51:10Z</time><extensions><speed>1.498409</speed><course>135.184143</course><hAcc>1.368366</hAcc><vAcc>0.829362</vAcc></extensions></trkpt>
      <trkpt lon="-2.267639" lat="53.116434"><ele>97.464134</ele><time>2022-03-04T09:51:11Z</time><extensions><speed>1.538822</speed><course>135.164703</course><hAcc>1.385376</hAcc><vAcc>0.829299</vAcc></extensions></trkpt>
      <trkpt lon="-2.267623" lat="53.116424"><ele>97.469200</ele><time>2022-03-04T09:51:12Z</time><extensions><speed>1.503003</speed><course>136.908325</course><hAcc>1.391402</hAcc><vAcc>0.829235</vAcc></extensions></trkpt>
      <trkpt lon="-2.267607" lat="53.116415"><ele>97.489227</ele><time>2022-03-04T09:51:13Z</time><extensions><speed>1.543570</speed><course>135.464188</course><hAcc>1.387522</hAcc><vAcc>0.829165</vAcc></extensions></trkpt>
      <trkpt lon="-2.267591" lat="53.116405"><ele>97.502281</ele><time>2022-03-04T09:51:14Z</time><extensions><speed>1.484601</speed><course>135.528427</course><hAcc>1.392051</hAcc><vAcc>0.829109</vAcc></extensions></trkpt>
      <trkpt lon="-2.267576" lat="53.116396"><ele>97.526291</ele><time>2022-03-04T09:51:15Z</time><extensions><speed>1.487166</speed><course>134.934418</course><hAcc>1.421192</hAcc><vAcc>0.829058</vAcc></extensions></trkpt>
      <trkpt lon="-2.267560" lat="53.116387"><ele>97.550346</ele><time>2022-03-04T09:51:16Z</time><extensions><speed>1.478972</speed><course>134.738068</course><hAcc>1.431808</hAcc><vAcc>0.829015</vAcc></extensions></trkpt>
      <trkpt lon="-2.267545" lat="53.116378"><ele>97.575539</ele><time>2022-03-04T09:51:17Z</time><extensions><speed>1.485716</speed><course>135.794052</course><hAcc>1.437330</hAcc><vAcc>0.828989</vAcc></extensions></trkpt>
      <trkpt lon="-2.267530" lat="53.116368"><ele>97.593521</ele><time>2022-03-04T09:51:18Z</time><extensions><speed>1.494719</speed><course>139.192825</course><hAcc>1.436272</hAcc><vAcc>0.828971</vAcc></extensions></trkpt>
      <trkpt lon="-2.267515" lat="53.116358"><ele>97.625122</ele><time>2022-03-04T09:51:19Z</time><extensions><speed>1.537713</speed><course>139.445435</course><hAcc>1.442111</hAcc><vAcc>0.828970</vAcc></extensions></trkpt>
      <trkpt lon="-2.267499" lat="53.116348"><ele>97.657730</ele><time>2022-03-04T09:51:20Z</time><extensions><speed>1.602300</speed><course>136.154419</course><hAcc>1.449222</hAcc><vAcc>0.828969</vAcc></extensions></trkpt>
      <trkpt lon="-2.267483" lat="53.116338"><ele>97.686035</ele><time>2022-03-04T09:51:21Z</time><extensions><speed>1.528790</speed><course>133.371857</course><hAcc>1.428861</hAcc><vAcc>0.828958</vAcc></extensions></trkpt>
      <trkpt lon="-2.267467" lat="53.116329"><ele>97.718643</ele><time>2022-03-04T09:51:22Z</time><extensions><speed>1.448086</speed><course>133.896683</course><hAcc>1.415699</hAcc><vAcc>0.828972</vAcc></extensions></trkpt>
      <trkpt lon="-2.267451" lat="53.116320"><ele>97.757843</ele><time>2022-03-04T09:51:23Z</time><extensions><speed>1.513783</speed><course>136.760468</course><hAcc>1.430660</hAcc><vAcc>0.828984</vAcc></extensions></trkpt>
      <trkpt lon="-2.267435" lat="53.116310"><ele>97.780785</ele><time>2022-03-04T09:51:24Z</time><extensions><speed>1.575568</speed><course>138.434494</course><hAcc>1.436667</hAcc><vAcc>0.829004</vAcc></extensions></trkpt>
      <trkpt lon="-2.267420" lat="53.116300"><ele>97.808792</ele><time>2022-03-04T09:51:25Z</time><extensions><speed>1.495178</speed><course>137.808044</course><hAcc>1.418519</hAcc><vAcc>0.829016</vAcc></extensions></trkpt>
      <trkpt lon="-2.267405" lat="53.116290"><ele>97.848419</ele><time>2022-03-04T09:51:26Z</time><extensions><speed>1.426995</speed><course>135.475769</course><hAcc>1.411986</hAcc><vAcc>0.829022</vAcc></extensions></trkpt>
      <trkpt lon="-2.267389" lat="53.116281"><ele>97.876335</ele><time>2022-03-04T09:51:27Z</time><extensions><speed>1.513068</speed><course>134.201355</course><hAcc>1.417984</hAcc><vAcc>0.829049</vAcc></extensions></trkpt>
      <trkpt lon="-2.267373" lat="53.116272"><ele>97.910286</ele><time>2022-03-04T09:51:28Z</time><extensions><speed>1.432952</speed><course>134.785324</course><hAcc>1.429879</hAcc><vAcc>0.829078</vAcc></extensions></trkpt>
      <trkpt lon="-2.267358" lat="53.116263"><ele>97.932220</ele><time>2022-03-04T09:51:29Z</time><extensions><speed>1.373037</speed><course>135.955582</course><hAcc>1.415451</hAcc><vAcc>0.829105</vAcc></extensions></trkpt>
      <trkpt lon="-2.267344" lat="53.116254"><ele>97.950752</ele><time>2022-03-04T09:51:30Z</time><extensions><speed>1.353495</speed><course>136.048233</course><hAcc>1.401231</hAcc><vAcc>0.829142</vAcc></extensions></trkpt>
      <trkpt lon="-2.267330" lat="53.116246"><ele>97.972923</ele><time>2022-03-04T09:51:31Z</time><extensions><speed>1.348401</speed><course>132.239349</course><hAcc>1.365711</hAcc><vAcc>0.829185</vAcc></extensions></trkpt>
      <trkpt lon="-2.267314" lat="53.116238"><ele>98.004013</ele><time>2022-03-04T09:51:32Z</time><extensions><speed>1.448627</speed><course>132.932800</course><hAcc>1.384199</hAcc><vAcc>0.829246</vAcc></extensions></trkpt>
      <trkpt lon="-2.267298" lat="53.116229"><ele>98.037933</ele><time>2022-03-04T09:51:33Z</time><extensions><speed>1.487242</speed><course>132.618393</course><hAcc>1.387403</hAcc><vAcc>0.829307</vAcc></extensions></trkpt>
      <trkpt lon="-2.267282" lat="53.116220"><ele>98.050583</ele><time>2022-03-04T09:51:34Z</time><extensions><speed>1.493194</speed><course>136.334839</course><hAcc>1.388420</hAcc><vAcc>0.829364</vAcc></extensions></trkpt>
      <trkpt lon="-2.267267" lat="53.116210"><ele>98.055336</ele><time>2022-03-04T09:51:35Z</time><extensions><speed>1.498801</speed><course>135.744125</course><hAcc>1.373821</hAcc><vAcc>0.829443</vAcc></extensions></trkpt>
      <trkpt lon="-2.267251" lat="53.116200"><ele>98.047050</ele><time>2022-03-04T09:51:36Z</time><extensions><speed>1.502363</speed><course>137.605026</course><hAcc>1.370509</hAcc><vAcc>0.829538</vAcc></extensions></trkpt>
      <trkpt lon="-2.267237" lat="53.116190"><ele>98.054291</ele><time>2022-03-04T09:51:37Z</time><extensions><speed>1.495523</speed><course>141.937012</course><hAcc>1.376718</hAcc><vAcc>0.829633</vAcc></extensions></trkpt>
      <trkpt lon="-2.267223" lat="53.116179"><ele>98.063080</ele><time>2022-03-04T09:51:38Z</time><extensions><speed>1.494508</speed><course>144.319199</course><hAcc>1.398935</hAcc><vAcc>0.829718</vAcc></extensions></trkpt>
      <trkpt lon="-2.267210" lat="53.116169"><ele>98.073433</ele><time>2022-03-04T09:51:39Z</time><extensions><speed>1.458982</speed><course>141.346878</course><hAcc>1.406623</hAcc><vAcc>0.829802</vAcc></extensions></trkpt>
      <trkpt lon="-2.267196" lat="53.116159"><ele>98.083771</ele><time>2022-03-04T09:51:40Z</time><extensions><speed>1.401255</speed><course>137.771912</course><hAcc>1.390680</hAcc><vAcc>0.829862</vAcc></extensions></trkpt>
      <trkpt lon="-2.267182" lat="53.116150"><ele>98.092018</ele><time>2022-03-04T09:51:41Z</time><extensions><speed>1.386119</speed><course>134.978546</course><hAcc>1.395836</hAcc><vAcc>0.829914</vAcc></extensions></trkpt>
      <trkpt lon="-2.267166" lat="53.116141"><ele>98.109589</ele><time>2022-03-04T09:51:42Z</time><extensions><speed>1.398654</speed><course>134.164154</course><hAcc>1.416067</hAcc><vAcc>0.829955</vAcc></extensions></trkpt>
      <trkpt lon="-2.267151" lat="53.116132"><ele>98.138412</ele><time>2022-03-04T09:51:43Z</time><extensions><speed>1.448044</speed><course>135.867096</course><hAcc>1.437282</hAcc><vAcc>0.829976</vAcc></extensions></trkpt>
      <trkpt lon="-2.267136" lat="53.116123"><ele>98.158997</ele><time>2022-03-04T09:51:44Z</time><extensions><speed>1.458822</speed><course>138.057312</course><hAcc>1.428141</hAcc><vAcc>0.829990</vAcc></extensions></trkpt>
      <trkpt lon="-2.267122" lat="53.116113"><ele>98.186867</ele><time>2022-03-04T09:51:45Z</time><extensions><speed>1.471647</speed><course>139.062195</course><hAcc>1.433023</hAcc><vAcc>0.829998</vAcc></extensions></trkpt>
      <trkpt lon="-2.267107" lat="53.116103"><ele>98.231682</ele><time>2022-03-04T09:51:46Z</time><extensions><speed>1.478562</speed><course>140.914505</course><hAcc>1.435317</hAcc><vAcc>0.829996</vAcc></extensions></trkpt>
      <trkpt lon="-2.267093" lat="53.116093"><ele>98.279022</ele><time>2022-03-04T09:51:47Z</time><extensions><speed>1.489898</speed><course>138.846542</course><hAcc>1.428606</hAcc><vAcc>0.829992</vAcc></extensions></trkpt>
      <trkpt lon="-2.267078" lat="53.116083"><ele>98.336540</ele><time>2022-03-04T09:51:48Z</time><extensions><speed>1.484553</speed><course>136.627350</course><hAcc>1.422806</hAcc><vAcc>0.829976</vAcc></extensions></trkpt>
      <trkpt lon="-2.267062" lat="53.116073"><ele>98.410172</ele><time>2022-03-04T09:51:49Z</time><extensions><speed>1.494164</speed><course>135.345230</course><hAcc>1.397068</hAcc><vAcc>0.829961</vAcc></extensions></trkpt>
      <trkpt lon="-2.267046" lat="53.116063"><ele>98.490143</ele><time>2022-03-04T09:51:50Z</time><extensions><speed>1.518647</speed><course>135.821182</course><hAcc>1.385937</hAcc><vAcc>0.829941</vAcc></extensions></trkpt>
      <trkpt lon="-2.267031" lat="53.116054"><ele>98.569069</ele><time>2022-03-04T09:51:51Z</time><extensions><speed>1.501406</speed><course>136.257431</course><hAcc>1.418403</hAcc><vAcc>0.829933</vAcc></extensions></trkpt>
      <trkpt lon="-2.267015" lat="53.116044"><ele>98.659851</ele><time>2022-03-04T09:51:52Z</time><extensions><speed>1.512546</speed><course>131.334473</course><hAcc>1.392376</hAcc><vAcc>0.829918</vAcc></extensions></trkpt>
      <trkpt lon="-2.266998" lat="53.116035"><ele>98.757736</ele><time>2022-03-04T09:51:53Z</time><extensions><speed>1.510452</speed><course>133.682922</course><hAcc>1.394739</hAcc><vAcc>0.829900</vAcc></extensions></trkpt>
      <trkpt lon="-2.266983" lat="53.116025"><ele>98.851181</ele><time>2022-03-04T09:51:54Z</time><extensions><speed>1.509295</speed><course>139.775253</course><hAcc>1.395000</hAcc><vAcc>0.829878</vAcc></extensions></trkpt>
      <trkpt lon="-2.266968" lat="53.116015"><ele>98.955025</ele><time>2022-03-04T09:51:55Z</time><extensions><speed>1.510165</speed><course>139.920425</course><hAcc>1.386630</hAcc><vAcc>0.829852</vAcc></extensions></trkpt>
      <trkpt lon="-2.266954" lat="53.116004"><ele>99.048927</ele><time>2022-03-04T09:51:56Z</time><extensions><speed>1.495304</speed><course>141.508301</course><hAcc>1.395868</hAcc><vAcc>0.829821</vAcc></extensions></trkpt>
      <trkpt lon="-2.266939" lat="53.115994"><ele>99.153595</ele><time>2022-03-04T09:51:57Z</time><extensions><speed>1.500442</speed><course>134.718124</course><hAcc>1.383603</hAcc><vAcc>0.829766</vAcc></extensions></trkpt>
      <trkpt lon="-2.266924" lat="53.115985"><ele>99.250046</ele><time>2022-03-04T09:51:58Z</time><extensions><speed>1.500619</speed><course>136.307312</course><hAcc>1.367737</hAcc><vAcc>0.829691</vAcc></extensions></trkpt>
      <trkpt lon="-2.266909" lat="53.115975"><ele>99.350685</ele><time>2022-03-04T09:51:59Z</time><extensions><speed>1.483390</speed><course>136.890350</course><hAcc>1.382607</hAcc><vAcc>0.829603</vAcc></extensions></trkpt>
      <trkpt lon="-2.266894" lat="53.115965"><ele>99.439568</ele><time>2022-03-04T09:52:00Z</time><extensions><speed>1.480978</speed><course>138.315582</course><hAcc>1.411040</hAcc><vAcc>0.829491</vAcc></extensions></trkpt>
      <trkpt lon="-2.266879" lat="53.115955"><ele>99.535362</ele><time>2022-03-04T09:52:02Z</time><extensions><speed>1.470322</speed><course>139.073532</course><hAcc>1.424792</hAcc><vAcc>0.829358</vAcc></extensions></trkpt>
      <trkpt lon="-2.266865" lat="53.115945"><ele>99.606544</ele><time>2022-03-04T09:52:03Z</time><extensions><speed>1.457607</speed><course>140.115585</course><hAcc>1.425657</hAcc><vAcc>0.829208</vAcc></extensions></trkpt>
      <trkpt lon="-2.266851" lat="53.115935"><ele>99.678513</ele><time>2022-03-04T09:52:04Z</time><extensions><speed>1.447622</speed><course>141.899323</course><hAcc>1.441802</hAcc><vAcc>0.829039</vAcc></extensions></trkpt>
      <trkpt lon="-2.266838" lat="53.115925"><ele>99.739815</ele><time>2022-03-04T09:52:05Z</time><extensions><speed>1.444173</speed><course>142.097870</course><hAcc>1.443476</hAcc><vAcc>0.828860</vAcc></extensions></trkpt>
      <trkpt lon="-2.266825" lat="53.115915"><ele>99.805000</ele><time>2022-03-04T09:52:06Z</time><extensions><speed>1.481438</speed><course>144.687073</course><hAcc>1.465034</hAcc><vAcc>0.828674</vAcc></extensions></trkpt>
      <trkpt lon="-2.266813" lat="53.115904"><ele>99.869858</ele><time>2022-03-04T09:52:07Z</time><extensions><speed>1.452051</speed><course>145.754349</course><hAcc>1.498211</hAcc><vAcc>0.828475</vAcc></extensions></trkpt>
      <trkpt lon="-2.266800" lat="53.115893"><ele>99.919861</ele><time>2022-03-04T09:52:08Z</time><extensions><speed>1.498031</speed><course>142.922821</course><hAcc>1.510960</hAcc><vAcc>0.828284</vAcc></extensions></trkpt>
      <trkpt lon="-2.266786" lat="53.115883"><ele>99.973152</ele><time>2022-03-04T09:52:09Z</time><extensions><speed>1.558584</speed><course>140.609451</course><hAcc>1.529395</hAcc><vAcc>0.828110</vAcc></extensions></trkpt>
      <trkpt lon="-2.266771" lat="53.115872"><ele>100.026611</ele><time>2022-03-04T09:52:10Z</time><extensions><speed>1.542203</speed><course>137.988617</course><hAcc>1.545652</hAcc><vAcc>0.827948</vAcc></extensions></trkpt>
      <trkpt lon="-2.266756" lat="53.115862"><ele>100.090843</ele><time>2022-03-04T09:52:11Z</time><extensions><speed>1.548187</speed><course>138.000671</course><hAcc>1.560801</hAcc><vAcc>0.827809</vAcc></extensions></trkpt>
      <trkpt lon="-2.266740" lat="53.115852"><ele>100.162849</ele><time>2022-03-04T09:52:12Z</time><extensions><speed>1.557228</speed><course>138.334793</course><hAcc>1.567756</hAcc><vAcc>0.827678</vAcc></extensions></trkpt>
      <trkpt lon="-2.266725" lat="53.115841"><ele>100.227783</ele><time>2022-03-04T09:52:13Z</time><extensions><speed>1.570662</speed><course>139.044846</course><hAcc>1.576097</hAcc><vAcc>0.827580</vAcc></extensions></trkpt>
      <trkpt lon="-2.266710" lat="53.115831"><ele>100.282951</ele><time>2022-03-04T09:52:14Z</time><extensions><speed>1.537944</speed><course>138.632111</course><hAcc>1.578981</hAcc><vAcc>0.827506</vAcc></extensions></trkpt>
      <trkpt lon="-2.266696" lat="53.115820"><ele>100.338387</ele><time>2022-03-04T09:52:15Z</time><extensions><speed>1.495673</speed><course>140.388916</course><hAcc>1.578815</hAcc><vAcc>0.827460</vAcc></extensions></trkpt>
      <trkpt lon="-2.266682" lat="53.115811"><ele>100.377853</ele><time>2022-03-04T09:52:16Z</time><extensions><speed>1.355878</speed><course>139.455078</course><hAcc>1.556545</hAcc><vAcc>0.827435</vAcc></extensions></trkpt>
      <trkpt lon="-2.266669" lat="53.115802"><ele>100.429054</ele><time>2022-03-04T09:52:17Z</time><extensions><speed>1.296309</speed><course>138.464127</course><hAcc>1.539075</hAcc><vAcc>0.827433</vAcc></extensions></trkpt>
      <trkpt lon="-2.266656" lat="53.115793"><ele>100.466965</ele><time>2022-03-04T09:52:18Z</time><extensions><speed>1.396598</speed><course>138.909531</course><hAcc>1.549906</hAcc><vAcc>0.827465</vAcc></extensions></trkpt>
      <trkpt lon="-2.266642" lat="53.115783"><ele>100.522827</ele><time>2022-03-04T09:52:19Z</time><extensions><speed>1.503324</speed><course>139.797775</course><hAcc>1.562544</hAcc><vAcc>0.827509</vAcc></extensions></trkpt>
      <trkpt lon="-2.266627" lat="53.115773"><ele>100.589729</ele><time>2022-03-04T09:52:20Z</time><extensions><speed>1.501516</speed><course>137.720032</course><hAcc>1.550741</hAcc><vAcc>0.827569</vAcc></extensions></trkpt>
      <trkpt lon="-2.266613" lat="53.115764"><ele>100.635948</ele><time>2022-03-04T09:52:21Z</time><extensions><speed>1.373471</speed><course>139.234680</course><hAcc>1.522664</hAcc><vAcc>0.827655</vAcc></extensions></trkpt>
      <trkpt lon="-2.266600" lat="53.115755"><ele>100.706505</ele><time>2022-03-04T09:52:22Z</time><extensions><speed>1.392922</speed><course>140.827423</course><hAcc>1.512592</hAcc><vAcc>0.827737</vAcc></extensions></trkpt>
      <trkpt lon="-2.266587" lat="53.115744"><ele>100.775856</ele><time>2022-03-04T09:52:23Z</time><extensions><speed>1.465668</speed><course>147.109848</course><hAcc>1.527133</hAcc><vAcc>0.827818</vAcc></extensions></trkpt>
      <trkpt lon="-2.266575" lat="53.115733"><ele>100.841301</ele><time>2022-03-04T09:52:24Z</time><extensions><speed>1.553610</speed><course>147.954163</course><hAcc>1.535578</hAcc><vAcc>0.827895</vAcc></extensions></trkpt>
      <trkpt lon="-2.266562" lat="53.115722"><ele>100.894989</ele><time>2022-03-04T09:52:25Z</time><extensions><speed>1.517733</speed><course>144.460983</course><hAcc>1.509514</hAcc><vAcc>0.827997</vAcc></extensions></trkpt>
      <trkpt lon="-2.266549" lat="53.115712"><ele>100.931671</ele><time>2022-03-04T09:52:26Z</time><extensions><speed>1.463139</speed><course>141.819000</course><hAcc>1.501799</hAcc><vAcc>0.828076</vAcc></extensions></trkpt>
      <trkpt lon="-2.266534" lat="53.115702"><ele>100.975525</ele><time>2022-03-04T09:52:27Z</time><extensions><speed>1.495039</speed><course>139.180328</course><hAcc>1.508092</hAcc><vAcc>0.828124</vAcc></extensions></trkpt>
      <trkpt lon="-2.266519" lat="53.115692"><ele>101.036423</ele><time>2022-03-04T09:52:28Z</time><extensions><speed>1.486676</speed><course>139.389755</course><hAcc>1.500378</hAcc><vAcc>0.828153</vAcc></extensions></trkpt>
      <trkpt lon="-2.266505" lat="53.115682"><ele>101.096657</ele><time>2022-03-04T09:52:29Z</time><extensions><speed>1.530009</speed><course>139.549774</course><hAcc>1.510069</hAcc><vAcc>0.828170</vAcc></extensions></trkpt>
      <trkpt lon="-2.266489" lat="53.115672"><ele>101.174614</ele><time>2022-03-04T09:52:30Z</time><extensions><speed>1.532060</speed><course>138.305527</course><hAcc>1.506842</hAcc><vAcc>0.828161</vAcc></extensions></trkpt>
      <trkpt lon="-2.266475" lat="53.115662"><ele>101.252525</ele><time>2022-03-04T09:52:31Z</time><extensions><speed>1.400737</speed><course>143.005814</course><hAcc>1.487669</hAcc><vAcc>0.828139</vAcc></extensions></trkpt>
      <trkpt lon="-2.266463" lat="53.115652"><ele>101.307938</ele><time>2022-03-04T09:52:32Z</time><extensions><speed>1.408776</speed><course>142.958389</course><hAcc>1.485972</hAcc><vAcc>0.828103</vAcc></extensions></trkpt>
      <trkpt lon="-2.266450" lat="53.115641"><ele>101.371483</ele><time>2022-03-04T09:52:33Z</time><extensions><speed>1.474071</speed><course>142.284454</course><hAcc>1.490955</hAcc><vAcc>0.828051</vAcc></extensions></trkpt>
      <trkpt lon="-2.266437" lat="53.115631"><ele>101.434586</ele><time>2022-03-04T09:52:34Z</time><extensions><speed>1.505882</speed><course>144.533844</course><hAcc>1.492801</hAcc><vAcc>0.827994</vAcc></extensions></trkpt>
      <trkpt lon="-2.266424" lat="53.115620"><ele>101.504631</ele><time>2022-03-04T09:52:35Z</time><extensions><speed>1.475334</speed><course>142.074097</course><hAcc>1.486941</hAcc><vAcc>0.827929</vAcc></extensions></trkpt>
      <trkpt lon="-2.266410" lat="53.115611"><ele>101.576141</ele><time>2022-03-04T09:52:36Z</time><extensions><speed>1.446416</speed><course>137.630020</course><hAcc>1.484873</hAcc><vAcc>0.827847</vAcc></extensions></trkpt>
      <trkpt lon="-2.266395" lat="53.115601"><ele>101.650269</ele><time>2022-03-04T09:52:37Z</time><extensions><speed>1.493649</speed><course>137.992722</course><hAcc>1.495325</hAcc><vAcc>0.827760</vAcc></extensions></trkpt>
      <trkpt lon="-2.266380" lat="53.115591"><ele>101.721710</ele><time>2022-03-04T09:52:38Z</time><extensions><speed>1.521316</speed><course>133.226883</course><hAcc>1.487018</hAcc><vAcc>0.827684</vAcc></extensions></trkpt>
      <trkpt lon="-2.266363" lat="53.115582"><ele>101.780380</ele><time>2022-03-04T09:52:39Z</time><extensions><speed>1.549792</speed><course>132.597427</course><hAcc>1.491907</hAcc><vAcc>0.827608</vAcc></extensions></trkpt>
      <trkpt lon="-2.266347" lat="53.115573"><ele>101.837502</ele><time>2022-03-04T09:52:40Z</time><extensions><speed>1.438460</speed><course>135.513977</course><hAcc>1.481472</hAcc><vAcc>0.827537</vAcc></extensions></trkpt>
      <trkpt lon="-2.266333" lat="53.115564"><ele>101.886986</ele><time>2022-03-04T09:52:41Z</time><extensions><speed>1.439359</speed><course>139.197357</course><hAcc>1.482917</hAcc><vAcc>0.827472</vAcc></extensions></trkpt>
      <trkpt lon="-2.266319" lat="53.115554"><ele>101.951729</ele><time>2022-03-04T09:52:42Z</time><extensions><speed>1.482717</speed><course>143.635971</course><hAcc>1.495221</hAcc><vAcc>0.827429</vAcc></extensions></trkpt>
      <trkpt lon="-2.266306" lat="53.115544"><ele>102.009720</ele><time>2022-03-04T09:52:43Z</time><extensions><speed>1.453276</speed><course>143.132706</course><hAcc>1.485179</hAcc><vAcc>0.827387</vAcc></extensions></trkpt>
      <trkpt lon="-2.266294" lat="53.115534"><ele>102.045166</ele><time>2022-03-04T09:52:44Z</time><extensions><speed>1.349388</speed><course>140.372391</course><hAcc>1.470148</hAcc><vAcc>0.827364</vAcc></extensions></trkpt>
      <trkpt lon="-2.266281" lat="53.115525"><ele>102.100113</ele><time>2022-03-04T09:52:45Z</time><extensions><speed>1.356873</speed><course>141.964172</course><hAcc>1.483343</hAcc><vAcc>0.827368</vAcc></extensions></trkpt>
      <trkpt lon="-2.266269" lat="53.115515"><ele>102.139870</ele><time>2022-03-04T09:52:46Z</time><extensions><speed>1.383253</speed><course>144.675308</course><hAcc>1.475631</hAcc><vAcc>0.827405</vAcc></extensions></trkpt>
      <trkpt lon="-2.266257" lat="53.115506"><ele>102.181335</ele><time>2022-03-04T09:52:47Z</time><extensions><speed>1.351099</speed><course>142.207916</course><hAcc>1.457035</hAcc><vAcc>0.827460</vAcc></extensions></trkpt>
      <trkpt lon="-2.266245" lat="53.115496"><ele>102.231087</ele><time>2022-03-04T09:52:48Z</time><extensions><speed>1.408315</speed><course>143.040924</course><hAcc>1.461459</hAcc><vAcc>0.827529</vAcc></extensions></trkpt>
      <trkpt lon="-2.266233" lat="53.115486"><ele>102.276978</ele><time>2022-03-04T09:52:49Z</time><extensions><speed>1.417159</speed><course>143.735840</course><hAcc>1.462254</hAcc><vAcc>0.827605</vAcc></extensions></trkpt>
      <trkpt lon="-2.266220" lat="53.115476"><ele>102.304001</ele><time>2022-03-04T09:52:50Z</time><extensions><speed>1.453135</speed><course>144.490891</course><hAcc>1.468307</hAcc><vAcc>0.827686</vAcc></extensions></trkpt>
      <trkpt lon="-2.266208" lat="53.115466"><ele>102.349731</ele><time>2022-03-04T09:52:51Z</time><extensions><speed>1.389239</speed><course>141.982712</course><hAcc>1.461825</hAcc><vAcc>0.827765</vAcc></extensions></trkpt>
      <trkpt lon="-2.266195" lat="53.115456"><ele>102.394012</ele><time>2022-03-04T09:52:52Z</time><extensions><speed>1.316646</speed><course>139.957397</course><hAcc>1.463662</hAcc><vAcc>0.827833</vAcc></extensions></trkpt>
      <trkpt lon="-2.266183" lat="53.115448"><ele>102.452721</ele><time>2022-03-04T09:52:53Z</time><extensions><speed>1.271425</speed><course>136.696655</course><hAcc>1.469497</hAcc><vAcc>0.827896</vAcc></extensions></trkpt>
      <trkpt lon="-2.266170" lat="53.115440"><ele>102.499466</ele><time>2022-03-04T09:52:54Z</time><extensions><speed>1.288326</speed><course>137.085052</course><hAcc>1.462590</hAcc><vAcc>0.827954</vAcc></extensions></trkpt>
      <trkpt lon="-2.266156" lat="53.115431"><ele>102.563011</ele><time>2022-03-04T09:52:55Z</time><extensions><speed>1.351717</speed><course>136.128922</course><hAcc>1.473869</hAcc><vAcc>0.828001</vAcc></extensions></trkpt>
      <trkpt lon="-2.266143" lat="53.115422"><ele>102.641266</ele><time>2022-03-04T09:52:56Z</time><extensions><speed>1.376408</speed><course>139.484909</course><hAcc>1.483991</hAcc><vAcc>0.828031</vAcc></extensions></trkpt>
      <trkpt lon="-2.266129" lat="53.115413"><ele>102.727470</ele><time>2022-03-04T09:52:57Z</time><extensions><speed>1.345060</speed><course>139.197617</course><hAcc>1.483008</hAcc><vAcc>0.828037</vAcc></extensions></trkpt>
      <trkpt lon="-2.266116" lat="53.115404"><ele>102.812943</ele><time>2022-03-04T09:52:57Z</time><extensions><speed>1.385251</speed><course>138.460922</course><hAcc>1.482428</hAcc><vAcc>0.828029</vAcc></extensions></trkpt>
      <trkpt lon="-2.266102" lat="53.115395"><ele>102.910469</ele><time>2022-03-04T09:52:58Z</time><extensions><speed>1.454189</speed><course>141.850418</course><hAcc>1.491617</hAcc><vAcc>0.827994</vAcc></extensions></trkpt>
      <trkpt lon="-2.266090" lat="53.115384"><ele>103.010010</ele><time>2022-03-04T09:52:59Z</time><extensions><speed>1.516149</speed><course>146.849625</course><hAcc>1.503904</hAcc><vAcc>0.827942</vAcc></extensions></trkpt>
      <trkpt lon="-2.266077" lat="53.115373"><ele>103.124832</ele><time>2022-03-04T09:53:00Z</time><extensions><speed>1.437934</speed><course>142.310944</course><hAcc>1.497856</hAcc><vAcc>0.827877</vAcc></extensions></trkpt>
      <trkpt lon="-2.266064" lat="53.115364"><ele>103.234474</ele><time>2022-03-04T09:53:01Z</time><extensions><speed>1.424685</speed><course>139.503784</course><hAcc>1.503580</hAcc><vAcc>0.827794</vAcc></extensions></trkpt>
      <trkpt lon="-2.266050" lat="53.115354"><ele>103.348839</ele><time>2022-03-04T09:53:02Z</time><extensions><speed>1.390005</speed><course>137.206696</course><hAcc>1.505902</hAcc><vAcc>0.827713</vAcc></extensions></trkpt>
      <trkpt lon="-2.266036" lat="53.115345"><ele>103.463776</ele><time>2022-03-04T09:53:03Z</time><extensions><speed>1.399819</speed><course>138.294189</course><hAcc>1.502753</hAcc><vAcc>0.827620</vAcc></extensions></trkpt>
      <trkpt lon="-2.266022" lat="53.115336"><ele>103.580360</ele><time>2022-03-04T09:53:04Z</time><extensions><speed>1.379015</speed><course>136.766693</course><hAcc>1.494285</hAcc><vAcc>0.827534</vAcc></extensions></trkpt>
      <trkpt lon="-2.266009" lat="53.115328"><ele>103.699364</ele><time>2022-03-04T09:53:05Z</time><extensions><speed>1.382195</speed><course>136.722290</course><hAcc>1.497123</hAcc><vAcc>0.827461</vAcc></extensions></trkpt>
      <trkpt lon="-2.265994" lat="53.115319"><ele>103.836189</ele><time>2022-03-04T09:53:06Z</time><extensions><speed>1.457298</speed><course>136.369553</course><hAcc>1.511368</hAcc><vAcc>0.827395</vAcc></extensions></trkpt>
      <trkpt lon="-2.265979" lat="53.115309"><ele>103.968994</ele><time>2022-03-04T09:53:07Z</time><extensions><speed>1.499895</speed><course>134.473709</course><hAcc>1.504452</hAcc><vAcc>0.827340</vAcc></extensions></trkpt>
      <trkpt lon="-2.265963" lat="53.115300"><ele>104.086502</ele><time>2022-03-04T09:53:08Z</time><extensions><speed>1.477799</speed><course>133.899460</course><hAcc>1.492999</hAcc><vAcc>0.827298</vAcc></extensions></trkpt>
      <trkpt lon="-2.265947" lat="53.115291"><ele>104.215553</ele><time>2022-03-04T09:53:09Z</time><extensions><speed>1.488996</speed><course>133.645981</course><hAcc>1.487119</hAcc><vAcc>0.827278</vAcc></extensions></trkpt>
      <trkpt lon="-2.265931" lat="53.115283"><ele>104.348274</ele><time>2022-03-04T09:53:10Z</time><extensions><speed>1.438755</speed><course>129.441650</course><hAcc>1.482085</hAcc><vAcc>0.827268</vAcc></extensions></trkpt>
      <trkpt lon="-2.265915" lat="53.115275"><ele>104.484489</ele><time>2022-03-04T09:53:11Z</time><extensions><speed>1.371521</speed><course>131.458466</course><hAcc>1.474803</hAcc><vAcc>0.827279</vAcc></extensions></trkpt>
      <trkpt lon="-2.265901" lat="53.115267"><ele>104.586487</ele><time>2022-03-04T09:53:12Z</time><extensions><speed>1.377393</speed><course>135.115326</course><hAcc>1.481708</hAcc><vAcc>0.827321</vAcc></extensions></trkpt>
      <trkpt lon="-2.265887" lat="53.115258"><ele>104.697777</ele><time>2022-03-04T09:53:13Z</time><extensions><speed>1.416013</speed><course>140.724060</course><hAcc>1.485654</hAcc><vAcc>0.827371</vAcc></extensions></trkpt>
      <trkpt lon="-2.265874" lat="53.115248"><ele>104.828392</ele><time>2022-03-04T09:53:14Z</time><extensions><speed>1.382825</speed><course>142.854889</course><hAcc>1.478120</hAcc><vAcc>0.827451</vAcc></extensions></trkpt>
      <trkpt lon="-2.265862" lat="53.115238"><ele>104.940453</ele><time>2022-03-04T09:53:15Z</time><extensions><speed>1.375530</speed><course>142.438156</course><hAcc>1.476158</hAcc><vAcc>0.827531</vAcc></extensions></trkpt>
      <trkpt lon="-2.265849" lat="53.115228"><ele>105.045860</ele><time>2022-03-04T09:53:16Z</time><extensions><speed>1.410203</speed><course>142.703323</course><hAcc>1.478172</hAcc><vAcc>0.827626</vAcc></extensions></trkpt>
      <trkpt lon="-2.265837" lat="53.115219"><ele>105.160767</ele><time>2022-03-04T09:53:17Z</time><extensions><speed>1.312907</speed><course>143.159637</course><hAcc>1.470465</hAcc><vAcc>0.827726</vAcc></extensions></trkpt>
      <trkpt lon="-2.265825" lat="53.115209"><ele>105.268776</ele><time>2022-03-04T09:53:18Z</time><extensions><speed>1.354515</speed><course>141.746033</course><hAcc>1.475230</hAcc><vAcc>0.827825</vAcc></extensions></trkpt>
      <trkpt lon="-2.265812" lat="53.115200"><ele>105.374100</ele><time>2022-03-04T09:53:19Z</time><extensions><speed>1.412449</speed><course>140.954361</course><hAcc>1.478755</hAcc><vAcc>0.827931</vAcc></extensions></trkpt>
      <trkpt lon="-2.265799" lat="53.115190"><ele>105.477783</ele><time>2022-03-04T09:53:20Z</time><extensions><speed>1.470537</speed><course>140.709167</course><hAcc>1.487971</hAcc><vAcc>0.828053</vAcc></extensions></trkpt>
      <trkpt lon="-2.265785" lat="53.115180"><ele>105.561905</ele><time>2022-03-04T09:53:21Z</time><extensions><speed>1.490092</speed><course>138.852646</course><hAcc>1.498238</hAcc><vAcc>0.828161</vAcc></extensions></trkpt>
      <trkpt lon="-2.265771" lat="53.115170"><ele>105.639893</ele><time>2022-03-04T09:53:22Z</time><extensions><speed>1.462883</speed><course>141.814941</course><hAcc>1.497690</hAcc><vAcc>0.828270</vAcc></extensions></trkpt>
      <trkpt lon="-2.265759" lat="53.115160"><ele>105.727379</ele><time>2022-03-04T09:53:23Z</time><extensions><speed>1.278490</speed><course>142.005325</course><hAcc>1.480388</hAcc><vAcc>0.828395</vAcc></extensions></trkpt>
      <trkpt lon="-2.265747" lat="53.115152"><ele>105.825630</ele><time>2022-03-04T09:53:24Z</time><extensions><speed>1.177972</speed><course>142.588684</course><hAcc>1.468805</hAcc><vAcc>0.828502</vAcc></extensions></trkpt>
      <trkpt lon="-2.265736" lat="53.115143"><ele>105.921455</ele><time>2022-03-04T09:53:25Z</time><extensions><speed>1.376427</speed><course>144.535660</course><hAcc>1.503555</hAcc><vAcc>0.828613</vAcc></extensions></trkpt>
      <trkpt lon="-2.265724" lat="53.115132"><ele>106.000443</ele><time>2022-03-04T09:53:26Z</time><extensions><speed>1.503684</speed><course>144.576462</course><hAcc>1.512132</hAcc><vAcc>0.828701</vAcc></extensions></trkpt>
      <trkpt lon="-2.265711" lat="53.115122"><ele>106.082916</ele><time>2022-03-04T09:53:27Z</time><extensions><speed>1.478905</speed><course>144.656235</course><hAcc>1.491116</hAcc><vAcc>0.828783</vAcc></extensions></trkpt>
      <trkpt lon="-2.265698" lat="53.115111"><ele>106.155312</ele><time>2022-03-04T09:53:28Z</time><extensions><speed>1.497381</speed><course>143.821442</course><hAcc>1.490204</hAcc><vAcc>0.828854</vAcc></extensions></trkpt>
      <trkpt lon="-2.265685" lat="53.115100"><ele>106.236473</ele><time>2022-03-04T09:53:29Z</time><extensions><speed>1.477170</speed><course>145.766617</course><hAcc>1.485713</hAcc><vAcc>0.828914</vAcc></extensions></trkpt>
      <trkpt lon="-2.265673" lat="53.115089"><ele>106.321609</ele><time>2022-03-04T09:53:30Z</time><extensions><speed>1.436150</speed><course>146.878281</course><hAcc>1.483691</hAcc><vAcc>0.828962</vAcc></extensions></trkpt>
      <trkpt lon="-2.265661" lat="53.115078"><ele>106.395927</ele><time>2022-03-04T09:53:31Z</time><extensions><speed>1.516783</speed><course>144.652359</course><hAcc>1.497432</hAcc><vAcc>0.829009</vAcc></extensions></trkpt>
      <trkpt lon="-2.265648" lat="53.115068"><ele>106.445137</ele><time>2022-03-04T09:53:32Z</time><extensions><speed>1.469530</speed><course>141.412338</course><hAcc>1.490498</hAcc><vAcc>0.829048</vAcc></extensions></trkpt>
      <trkpt lon="-2.265634" lat="53.115058"><ele>106.517204</ele><time>2022-03-04T09:53:33Z</time><extensions><speed>1.451548</speed><course>139.891602</course><hAcc>1.483444</hAcc><vAcc>0.829066</vAcc></extensions></trkpt>
      <trkpt lon="-2.265620" lat="53.115048"><ele>106.598145</ele><time>2022-03-04T09:53:34Z</time><extensions><speed>1.532884</speed><course>140.007339</course><hAcc>1.492390</hAcc><vAcc>0.829064</vAcc></extensions></trkpt>
      <trkpt lon="-2.265605" lat="53.115037"><ele>106.684120</ele><time>2022-03-04T09:53:35Z</time><extensions><speed>1.547714</speed><course>140.733398</course><hAcc>1.478022</hAcc><vAcc>0.829054</vAcc></extensions></trkpt>
      <trkpt lon="-2.265591" lat="53.115026"><ele>106.758171</ele><time>2022-03-04T09:53:36Z</time><extensions><speed>1.576257</speed><course>143.666565</course><hAcc>1.485446</hAcc><vAcc>0.829032</vAcc></extensions></trkpt>
      <trkpt lon="-2.265578" lat="53.115015"><ele>106.809799</ele><time>2022-03-04T09:53:37Z</time><extensions><speed>1.556905</speed><course>144.365295</course><hAcc>1.482232</hAcc><vAcc>0.828998</vAcc></extensions></trkpt>
      <trkpt lon="-2.265564" lat="53.115004"><ele>106.862617</ele><time>2022-03-04T09:53:38Z</time><extensions><speed>1.551437</speed><course>143.692780</course><hAcc>1.479653</hAcc><vAcc>0.828958</vAcc></extensions></trkpt>
      <trkpt lon="-2.265551" lat="53.114993"><ele>106.929306</ele><time>2022-03-04T09:53:39Z</time><extensions><speed>1.520914</speed><course>144.032272</course><hAcc>1.474025</hAcc><vAcc>0.828927</vAcc></extensions></trkpt>
      <trkpt lon="-2.265538" lat="53.114982"><ele>107.003914</ele><time>2022-03-04T09:53:40Z</time><extensions><speed>1.500224</speed><course>145.307968</course><hAcc>1.473633</hAcc><vAcc>0.828891</vAcc></extensions></trkpt>
      <trkpt lon="-2.265526" lat="53.114971"><ele>107.064507</ele><time>2022-03-04T09:53:41Z</time><extensions><speed>1.536339</speed><course>149.416809</course><hAcc>1.484032</hAcc><vAcc>0.828861</vAcc></extensions></trkpt>
      <trkpt lon="-2.265515" lat="53.114959"><ele>107.113876</ele><time>2022-03-04T09:53:42Z</time><extensions><speed>1.488179</speed><course>150.983047</course><hAcc>1.477531</hAcc><vAcc>0.828840</vAcc></extensions></trkpt>
      <trkpt lon="-2.265504" lat="53.114948"><ele>107.179031</ele><time>2022-03-04T09:53:43Z</time><extensions><speed>1.469715</speed><course>150.804306</course><hAcc>1.470947</hAcc><vAcc>0.828820</vAcc></extensions></trkpt>
      <trkpt lon="-2.265494" lat="53.114936"><ele>107.249115</ele><time>2022-03-04T09:53:44Z</time><extensions><speed>1.417946</speed><course>153.068863</course><hAcc>1.464790</hAcc><vAcc>0.828798</vAcc></extensions></trkpt>
      <trkpt lon="-2.265485" lat="53.114925"><ele>107.327591</ele><time>2022-03-04T09:53:45Z</time><extensions><speed>1.410436</speed><course>150.753464</course><hAcc>1.466075</hAcc><vAcc>0.828776</vAcc></extensions></trkpt>
      <trkpt lon="-2.265474" lat="53.114914"><ele>107.402534</ele><time>2022-03-04T09:53:46Z</time><extensions><speed>1.451527</speed><course>149.952362</course><hAcc>1.471601</hAcc><vAcc>0.828753</vAcc></extensions></trkpt>
      <trkpt lon="-2.265463" lat="53.114903"><ele>107.470474</ele><time>2022-03-04T09:53:47Z</time><extensions><speed>1.544091</speed><course>149.450531</course><hAcc>1.478971</hAcc><vAcc>0.828743</vAcc></extensions></trkpt>
      <trkpt lon="-2.265451" lat="53.114891"><ele>107.523117</ele><time>2022-03-04T09:53:48Z</time><extensions><speed>1.552335</speed><course>148.858170</course><hAcc>1.473531</hAcc><vAcc>0.828725</vAcc></extensions></trkpt>
      <trkpt lon="-2.265440" lat="53.114880"><ele>107.576149</ele><time>2022-03-04T09:53:49Z</time><extensions><speed>1.532952</speed><course>149.591721</course><hAcc>1.465736</hAcc><vAcc>0.828705</vAcc></extensions></trkpt>
      <trkpt lon="-2.265429" lat="53.114868"><ele>107.628258</ele><time>2022-03-04T09:53:50Z</time><extensions><speed>1.468682</speed><course>150.396164</course><hAcc>1.458478</hAcc><vAcc>0.828673</vAcc></extensions></trkpt>
      <trkpt lon="-2.265419" lat="53.114857"><ele>107.665215</ele><time>2022-03-04T09:53:51Z</time><extensions><speed>1.436779</speed><course>152.706253</course><hAcc>1.454647</hAcc><vAcc>0.828634</vAcc></extensions></trkpt>
      <trkpt lon="-2.265409" lat="53.114846"><ele>107.717270</ele><time>2022-03-04T09:53:52Z</time><extensions><speed>1.459587</speed><course>152.540237</course><hAcc>1.457251</hAcc><vAcc>0.828591</vAcc></extensions></trkpt>
      <trkpt lon="-2.265399" lat="53.114834"><ele>107.768600</ele><time>2022-03-04T09:53:53Z</time><extensions><speed>1.514144</speed><course>150.786453</course><hAcc>1.457731</hAcc><vAcc>0.828534</vAcc></extensions></trkpt>
      <trkpt lon="-2.265388" lat="53.114822"><ele>107.817665</ele><time>2022-03-04T09:53:54Z</time><extensions><speed>1.470342</speed><course>152.280167</course><hAcc>1.450231</hAcc><vAcc>0.828470</vAcc></extensions></trkpt>
      <trkpt lon="-2.265379" lat="53.114811"><ele>107.860039</ele><time>2022-03-04T09:53:55Z</time><extensions><speed>1.382167</speed><course>157.155441</course><hAcc>1.445728</hAcc><vAcc>0.828395</vAcc></extensions></trkpt>
      <trkpt lon="-2.265371" lat="53.114800"><ele>107.901451</ele><time>2022-03-04T09:53:56Z</time><extensions><speed>1.412093</speed><course>158.040207</course><hAcc>1.450160</hAcc><vAcc>0.828317</vAcc></extensions></trkpt>
      <trkpt lon="-2.265363" lat="53.114788"><ele>107.927971</ele><time>2022-03-04T09:53:57Z</time><extensions><speed>1.434443</speed><course>155.875732</course><hAcc>1.448565</hAcc><vAcc>0.828239</vAcc></extensions></trkpt>
      <trkpt lon="-2.265354" lat="53.114776"><ele>107.966759</ele><time>2022-03-04T09:53:58Z</time><extensions><speed>1.485912</speed><course>155.353149</course><hAcc>1.454554</hAcc><vAcc>0.828166</vAcc></extensions></trkpt>
      <trkpt lon="-2.265345" lat="53.114764"><ele>108.010521</ele><time>2022-03-04T09:53:59Z</time><extensions><speed>1.507386</speed><course>156.002808</course><hAcc>1.464674</hAcc><vAcc>0.828104</vAcc></extensions></trkpt>
      <trkpt lon="-2.265336" lat="53.114752"><ele>108.057953</ele><time>2022-03-04T09:54:00Z</time><extensions><speed>1.456558</speed><course>154.042877</course><hAcc>1.469252</hAcc><vAcc>0.828035</vAcc></extensions></trkpt>
      <trkpt lon="-2.265326" lat="53.114740"><ele>108.077461</ele><time>2022-03-04T09:54:01Z</time><extensions><speed>1.482310</speed><course>150.793015</course><hAcc>1.477665</hAcc><vAcc>0.827990</vAcc></extensions></trkpt>
      <trkpt lon="-2.265315" lat="53.114729"><ele>108.117096</ele><time>2022-03-04T09:54:02Z</time><extensions><speed>1.414410</speed><course>150.089050</course><hAcc>1.478554</hAcc><vAcc>0.827951</vAcc></extensions></trkpt>
      <trkpt lon="-2.265305" lat="53.114718"><ele>108.154694</ele><time>2022-03-04T09:54:03Z</time><extensions><speed>1.401010</speed><course>153.085068</course><hAcc>1.491164</hAcc><vAcc>0.827922</vAcc></extensions></trkpt>
      <trkpt lon="-2.265296" lat="53.114707"><ele>108.200981</ele><time>2022-03-04T09:54:04Z</time><extensions><speed>1.436992</speed><course>152.838577</course><hAcc>1.504017</hAcc><vAcc>0.827900</vAcc></extensions></trkpt>
      <trkpt lon="-2.265286" lat="53.114695"><ele>108.240547</ele><time>2022-03-04T09:54:05Z</time><extensions><speed>1.435408</speed><course>155.356873</course><hAcc>1.510141</hAcc><vAcc>0.827882</vAcc></extensions></trkpt>
      <trkpt lon="-2.265278" lat="53.114684"><ele>108.270973</ele><time>2022-03-04T09:54:06Z</time><extensions><speed>1.467352</speed><course>156.297882</course><hAcc>1.508497</hAcc><vAcc>0.827884</vAcc></extensions></trkpt>
      <trkpt lon="-2.265269" lat="53.114672"><ele>108.320908</ele><time>2022-03-04T09:54:08Z</time><extensions><speed>1.476572</speed><course>154.883514</course><hAcc>1.508965</hAcc><vAcc>0.827902</vAcc></extensions></trkpt>
      <trkpt lon="-2.265259" lat="53.114660"><ele>108.380882</ele><time>2022-03-04T09:54:09Z</time><extensions><speed>1.502661</speed><course>155.374344</course><hAcc>1.512173</hAcc><vAcc>0.827977</vAcc></extensions></trkpt>
      <trkpt lon="-2.265250" lat="53.114648"><ele>108.439415</ele><time>2022-03-04T09:54:10Z</time><extensions><speed>1.482770</speed><course>154.540405</course><hAcc>1.495254</hAcc><vAcc>0.828174</vAcc></extensions></trkpt>
      <trkpt lon="-2.265241" lat="53.114636"><ele>108.466621</ele><time>2022-03-04T09:54:11Z</time><extensions><speed>1.507752</speed><course>156.722809</course><hAcc>1.491578</hAcc><vAcc>0.828325</vAcc></extensions></trkpt>
      <trkpt lon="-2.265232" lat="53.114623"><ele>108.471397</ele><time>2022-03-04T09:54:12Z</time><extensions><speed>1.606879</speed><course>158.320770</course><hAcc>1.507508</hAcc><vAcc>0.828483</vAcc></extensions></trkpt>
      <trkpt lon="-2.265223" lat="53.114610"><ele>108.483070</ele><time>2022-03-04T09:54:13Z</time><extensions><speed>1.556009</speed><course>156.326172</course><hAcc>1.496702</hAcc><vAcc>0.828663</vAcc></extensions></trkpt>
      <trkpt lon="-2.265214" lat="53.114597"><ele>108.446190</ele><time>2022-03-04T09:54:14Z</time><extensions><speed>1.555383</speed><course>155.132919</course><hAcc>1.496977</hAcc><vAcc>0.828853</vAcc></extensions></trkpt>
      <trkpt lon="-2.265204" lat="53.114585"><ele>108.420433</ele><time>2022-03-04T09:54:15Z</time><extensions><speed>1.508345</speed><course>151.776016</course><hAcc>1.484146</hAcc><vAcc>0.829062</vAcc></extensions></trkpt>
      <trkpt lon="-2.265194" lat="53.114574"><ele>108.397690</ele><time>2022-03-04T09:54:16Z</time><extensions><speed>1.503585</speed><course>152.022614</course><hAcc>1.485489</hAcc><vAcc>0.829293</vAcc></extensions></trkpt>
      <trkpt lon="-2.265183" lat="53.114562"><ele>108.381027</ele><time>2022-03-04T09:54:17Z</time><extensions><speed>1.481980</speed><course>153.457870</course><hAcc>1.482401</hAcc><vAcc>0.829504</vAcc></extensions></trkpt>
      <trkpt lon="-2.265174" lat="53.114550"><ele>108.344170</ele><time>2022-03-04T09:54:18Z</time><extensions><speed>1.451453</speed><course>156.351288</course><hAcc>1.477536</hAcc><vAcc>0.829702</vAcc></extensions></trkpt>
      <trkpt lon="-2.265166" lat="53.114538"><ele>108.323219</ele><time>2022-03-04T09:54:19Z</time><extensions><speed>1.476520</speed><course>157.197891</course><hAcc>1.492469</hAcc><vAcc>0.829880</vAcc></extensions></trkpt>
      <trkpt lon="-2.265157" lat="53.114526"><ele>108.294708</ele><time>2022-03-04T09:54:20Z</time><extensions><speed>1.437520</speed><course>154.991821</course><hAcc>1.490322</hAcc><vAcc>0.829990</vAcc></extensions></trkpt>
      <trkpt lon="-2.265148" lat="53.114515"><ele>108.286140</ele><time>2022-03-04T09:54:21Z</time><extensions><speed>1.331152</speed><course>152.472870</course><hAcc>1.476774</hAcc><vAcc>0.830029</vAcc></extensions></trkpt>
      <trkpt lon="-2.265138" lat="53.114505"><ele>108.279427</ele><time>2022-03-04T09:54:22Z</time><extensions><speed>1.360001</speed><course>149.053329</course><hAcc>1.486087</hAcc><vAcc>0.830004</vAcc></extensions></trkpt>
      <trkpt lon="-2.265128" lat="53.114495"><ele>108.265167</ele><time>2022-03-04T09:54:23Z</time><extensions><speed>1.374584</speed><course>149.480713</course><hAcc>1.489761</hAcc><vAcc>0.829940</vAcc></extensions></trkpt>
      <trkpt lon="-2.265119" lat="53.114484"><ele>108.259323</ele><time>2022-03-04T09:54:24Z</time><extensions><speed>1.333168</speed><course>156.254730</course><hAcc>1.496370</hAcc><vAcc>0.829834</vAcc></extensions></trkpt>
      <trkpt lon="-2.265111" lat="53.114473"><ele>108.263985</ele><time>2022-03-04T09:54:25Z</time><extensions><speed>1.359679</speed><course>154.683548</course><hAcc>1.512543</hAcc><vAcc>0.829682</vAcc></extensions></trkpt>
      <trkpt lon="-2.265102" lat="53.114463"><ele>108.276932</ele><time>2022-03-04T09:54:26Z</time><extensions><speed>1.276204</speed><course>148.928131</course><hAcc>1.506973</hAcc><vAcc>0.829515</vAcc></extensions></trkpt>
      <trkpt lon="-2.265092" lat="53.114454"><ele>108.302856</ele><time>2022-03-04T09:54:27Z</time><extensions><speed>1.198859</speed><course>144.829941</course><hAcc>1.497404</hAcc><vAcc>0.829292</vAcc></extensions></trkpt>
      <trkpt lon="-2.265082" lat="53.114446"><ele>108.326950</ele><time>2022-03-04T09:54:28Z</time><extensions><speed>1.147881</speed><course>148.473434</course><hAcc>1.491384</hAcc><vAcc>0.829018</vAcc></extensions></trkpt>
      <trkpt lon="-2.265074" lat="53.114436"><ele>108.356125</ele><time>2022-03-04T09:54:29Z</time><extensions><speed>1.332676</speed><course>153.762192</course><hAcc>1.512497</hAcc><vAcc>0.828739</vAcc></extensions></trkpt>
      <trkpt lon="-2.265065" lat="53.114425"><ele>108.380745</ele><time>2022-03-04T09:54:30Z</time><extensions><speed>1.446598</speed><course>157.385620</course><hAcc>1.522013</hAcc><vAcc>0.828477</vAcc></extensions></trkpt>
      <trkpt lon="-2.265057" lat="53.114413"><ele>108.423279</ele><time>2022-03-04T09:54:31Z</time><extensions><speed>1.445026</speed><course>159.464035</course><hAcc>1.513971</hAcc><vAcc>0.828195</vAcc></extensions></trkpt>
      <trkpt lon="-2.265049" lat="53.114401"><ele>108.458595</ele><time>2022-03-04T09:54:32Z</time><extensions><speed>1.424731</speed><course>158.423599</course><hAcc>1.519060</hAcc><vAcc>0.827919</vAcc></extensions></trkpt>
      <trkpt lon="-2.265042" lat="53.114389"><ele>108.492859</ele><time>2022-03-04T09:54:33Z</time><extensions><speed>1.324338</speed><course>157.488388</course><hAcc>1.527186</hAcc><vAcc>0.827665</vAcc></extensions></trkpt>
      <trkpt lon="-2.265034" lat="53.114378"><ele>108.535088</ele><time>2022-03-04T09:54:34Z</time><extensions><speed>1.269630</speed><course>158.682373</course><hAcc>1.553088</hAcc><vAcc>0.827375</vAcc></extensions></trkpt>
      <trkpt lon="-2.265028" lat="53.114368"><ele>108.569992</ele><time>2022-03-04T09:54:35Z</time><extensions><speed>1.122627</speed><course>161.637070</course><hAcc>1.571836</hAcc><vAcc>0.827117</vAcc></extensions></trkpt>
      <trkpt lon="-2.265024" lat="53.114360"><ele>108.604889</ele><time>2022-03-04T09:54:36Z</time><extensions><speed>0.765016</speed><course>161.243607</course><hAcc>1.567756</hAcc><vAcc>0.826834</vAcc></extensions></trkpt>
      <trkpt lon="-2.265020" lat="53.114354"><ele>108.621162</ele><time>2022-03-04T09:54:37Z</time><extensions><speed>0.621531</speed><course>158.120193</course><hAcc>1.584853</hAcc><vAcc>0.826536</vAcc></extensions></trkpt>
      <trkpt lon="-2.265016" lat="53.114349"><ele>108.632919</ele><time>2022-03-04T09:54:38Z</time><extensions><speed>0.693639</speed><course>155.283157</course><hAcc>1.617392</hAcc><vAcc>0.826255</vAcc></extensions></trkpt>
      <trkpt lon="-2.265011" lat="53.114343"><ele>108.633423</ele><time>2022-03-04T09:54:39Z</time><extensions><speed>0.832943</speed><course>152.299026</course><hAcc>1.651079</hAcc><vAcc>0.825979</vAcc></extensions></trkpt>
      <trkpt lon="-2.265004" lat="53.114335"><ele>108.640228</ele><time>2022-03-04T09:54:40Z</time><extensions><speed>1.065208</speed><course>150.067032</course><hAcc>1.674060</hAcc><vAcc>0.825798</vAcc></extensions></trkpt>
      <trkpt lon="-2.264994" lat="53.114326"><ele>108.622345</ele><time>2022-03-04T09:54:41Z</time><extensions><speed>1.276067</speed><course>146.326263</course><hAcc>1.672049</hAcc><vAcc>0.825641</vAcc></extensions></trkpt>
      <trkpt lon="-2.264983" lat="53.114316"><ele>108.608284</ele><time>2022-03-04T09:54:42Z</time><extensions><speed>1.450090</speed><course>143.272125</course><hAcc>1.679332</hAcc><vAcc>0.825464</vAcc></extensions></trkpt>
      <trkpt lon="-2.264969" lat="53.114305"><ele>108.602417</ele><time>2022-03-04T09:54:43Z</time><extensions><speed>1.515921</speed><course>140.486710</course><hAcc>1.690003</hAcc><vAcc>0.825318</vAcc></extensions></trkpt>
      <trkpt lon="-2.264954" lat="53.114295"><ele>108.605423</ele><time>2022-03-04T09:54:44Z</time><extensions><speed>1.502185</speed><course>136.182236</course><hAcc>1.668903</hAcc><vAcc>0.825168</vAcc></extensions></trkpt>
      <trkpt lon="-2.264939" lat="53.114285"><ele>108.604500</ele><time>2022-03-04T09:54:45Z</time><extensions><speed>1.420771</speed><course>135.126373</course><hAcc>1.648060</hAcc><vAcc>0.825060</vAcc></extensions></trkpt>
      <trkpt lon="-2.264924" lat="53.114276"><ele>108.595039</ele><time>2022-03-04T09:54:46Z</time><extensions><speed>1.470095</speed><course>136.416122</course><hAcc>1.628562</hAcc><vAcc>0.824916</vAcc></extensions></trkpt>
      <trkpt lon="-2.264909" lat="53.114266"><ele>108.589699</ele><time>2022-03-04T09:54:47Z</time><extensions><speed>1.462522</speed><course>138.970398</course><hAcc>1.624274</hAcc><vAcc>0.824790</vAcc></extensions></trkpt>
      <trkpt lon="-2.264896" lat="53.114256"><ele>108.587685</ele><time>2022-03-04T09:54:48Z</time><extensions><speed>1.325109</speed><course>143.046204</course><hAcc>1.631260</hAcc><vAcc>0.824721</vAcc></extensions></trkpt>
      <trkpt lon="-2.264886" lat="53.114247"><ele>108.577858</ele><time>2022-03-04T09:54:49Z</time><extensions><speed>1.170942</speed><course>149.004837</course><hAcc>1.648133</hAcc><vAcc>0.824724</vAcc></extensions></trkpt>
      <trkpt lon="-2.264878" lat="53.114238"><ele>108.610260</ele><time>2022-03-04T09:54:50Z</time><extensions><speed>1.150131</speed><course>157.832581</course><hAcc>1.632531</hAcc><vAcc>0.824754</vAcc></extensions></trkpt>
      <trkpt lon="-2.264872" lat="53.114228"><ele>108.631821</ele><time>2022-03-04T09:54:51Z</time><extensions><speed>1.191716</speed><course>165.061356</course><hAcc>1.617375</hAcc><vAcc>0.824810</vAcc></extensions></trkpt>
      <trkpt lon="-2.264868" lat="53.114217"><ele>108.659019</ele><time>2022-03-04T09:54:52Z</time><extensions><speed>1.373151</speed><course>170.314438</course><hAcc>1.600191</hAcc><vAcc>0.824910</vAcc></extensions></trkpt>
      <trkpt lon="-2.264865" lat="53.114205"><ele>108.666672</ele><time>2022-03-04T09:54:53Z</time><extensions><speed>1.423710</speed><course>173.615417</course><hAcc>1.600102</hAcc><vAcc>0.825039</vAcc></extensions></trkpt>
      <trkpt lon="-2.264863" lat="53.114192"><ele>108.677429</ele><time>2022-03-04T09:54:54Z</time><extensions><speed>1.420886</speed><course>176.080811</course><hAcc>1.603202</hAcc><vAcc>0.825194</vAcc></extensions></trkpt>
      <trkpt lon="-2.264862" lat="53.114179"><ele>108.700111</ele><time>2022-03-04T09:54:55Z</time><extensions><speed>1.429612</speed><course>176.741440</course><hAcc>1.602751</hAcc><vAcc>0.825388</vAcc></extensions></trkpt>
      <trkpt lon="-2.264859" lat="53.114166"><ele>108.722527</ele><time>2022-03-04T09:54:56Z</time><extensions><speed>1.498186</speed><course>171.168381</course><hAcc>1.566011</hAcc><vAcc>0.825607</vAcc></extensions></trkpt>
      <trkpt lon="-2.264854" lat="53.114153"><ele>108.752548</ele><time>2022-03-04T09:54:57Z</time><extensions><speed>1.570555</speed><course>164.337433</course><hAcc>1.558793</hAcc><vAcc>0.825839</vAcc></extensions></trkpt>
      <trkpt lon="-2.264847" lat="53.114140"><ele>108.790459</ele><time>2022-03-04T09:54:57Z</time><extensions><speed>1.618559</speed><course>158.270508</course><hAcc>1.568966</hAcc><vAcc>0.826078</vAcc></extensions></trkpt>
      <trkpt lon="-2.264837" lat="53.114127"><ele>108.820862</ele><time>2022-03-04T09:54:58Z</time><extensions><speed>1.582400</speed><course>151.804871</course><hAcc>1.530745</hAcc><vAcc>0.826304</vAcc></extensions></trkpt>
      <trkpt lon="-2.264825" lat="53.114115"><ele>108.844460</ele><time>2022-03-04T09:54:59Z</time><extensions><speed>1.576686</speed><course>148.154892</course><hAcc>1.491691</hAcc><vAcc>0.826506</vAcc></extensions></trkpt>
      <trkpt lon="-2.264813" lat="53.114103"><ele>108.855438</ele><time>2022-03-04T09:55:00Z</time><extensions><speed>1.639797</speed><course>147.855743</course><hAcc>1.486773</hAcc><vAcc>0.826672</vAcc></extensions></trkpt>
      <trkpt lon="-2.264800" lat="53.114090"><ele>108.867630</ele><time>2022-03-04T09:55:01Z</time><extensions><speed>1.690118</speed><course>147.633057</course><hAcc>1.489612</hAcc><vAcc>0.826785</vAcc></extensions></trkpt>
      <trkpt lon="-2.264787" lat="53.114078"><ele>108.880951</ele><time>2022-03-04T09:55:02Z</time><extensions><speed>1.701636</speed><course>151.000732</course><hAcc>1.481346</hAcc><vAcc>0.826860</vAcc></extensions></trkpt>
      <trkpt lon="-2.264775" lat="53.114064"><ele>108.890045</ele><time>2022-03-04T09:55:03Z</time><extensions><speed>1.647593</speed><course>153.846375</course><hAcc>1.468001</hAcc><vAcc>0.826899</vAcc></extensions></trkpt>
      <trkpt lon="-2.264765" lat="53.114052"><ele>108.909195</ele><time>2022-03-04T09:55:04Z</time><extensions><speed>1.565529</speed><course>151.844742</course><hAcc>1.444707</hAcc><vAcc>0.826898</vAcc></extensions></trkpt>
      <trkpt lon="-2.264754" lat="53.114040"><ele>108.929504</ele><time>2022-03-04T09:55:05Z</time><extensions><speed>1.561047</speed><course>151.135437</course><hAcc>1.452325</hAcc><vAcc>0.826876</vAcc></extensions></trkpt>
      <trkpt lon="-2.264743" lat="53.114028"><ele>108.954277</ele><time>2022-03-04T09:55:06Z</time><extensions><speed>1.497252</speed><course>151.022537</course><hAcc>1.446729</hAcc><vAcc>0.826838</vAcc></extensions></trkpt>
      <trkpt lon="-2.264733" lat="53.114016"><ele>108.975128</ele><time>2022-03-04T09:55:07Z</time><extensions><speed>1.475914</speed><course>151.452896</course><hAcc>1.452590</hAcc><vAcc>0.826796</vAcc></extensions></trkpt>
      <trkpt lon="-2.264722" lat="53.114005"><ele>108.996330</ele><time>2022-03-04T09:55:08Z</time><extensions><speed>1.519560</speed><course>152.365387</course><hAcc>1.447055</hAcc><vAcc>0.826763</vAcc></extensions></trkpt>
      <trkpt lon="-2.264712" lat="53.113993"><ele>109.024971</ele><time>2022-03-04T09:55:09Z</time><extensions><speed>1.445632</speed><course>151.979446</course><hAcc>1.432903</hAcc><vAcc>0.826744</vAcc></extensions></trkpt>
      <trkpt lon="-2.264702" lat="53.113982"><ele>109.073044</ele><time>2022-03-04T09:55:10Z</time><extensions><speed>1.514460</speed><course>152.250305</course><hAcc>1.451108</hAcc><vAcc>0.826736</vAcc></extensions></trkpt>
      <trkpt lon="-2.264692" lat="53.113970"><ele>109.130447</ele><time>2022-03-04T09:55:11Z</time><extensions><speed>1.444440</speed><course>151.607559</course><hAcc>1.443976</hAcc><vAcc>0.826744</vAcc></extensions></trkpt>
      <trkpt lon="-2.264682" lat="53.113959"><ele>109.185356</ele><time>2022-03-04T09:55:12Z</time><extensions><speed>1.443344</speed><course>148.716110</course><hAcc>1.443712</hAcc><vAcc>0.826780</vAcc></extensions></trkpt>
      <trkpt lon="-2.264670" lat="53.113948"><ele>109.254097</ele><time>2022-03-04T09:55:13Z</time><extensions><speed>1.442872</speed><course>144.722946</course><hAcc>1.444556</hAcc><vAcc>0.826821</vAcc></extensions></trkpt>
      <trkpt lon="-2.264658" lat="53.113938"><ele>109.331512</ele><time>2022-03-04T09:55:14Z</time><extensions><speed>1.452133</speed><course>146.391190</course><hAcc>1.447626</hAcc><vAcc>0.826876</vAcc></extensions></trkpt>
      <trkpt lon="-2.264647" lat="53.113927"><ele>109.429359</ele><time>2022-03-04T09:55:15Z</time><extensions><speed>1.480241</speed><course>151.234543</course><hAcc>1.450427</hAcc><vAcc>0.826934</vAcc></extensions></trkpt>
      <trkpt lon="-2.264637" lat="53.113915"><ele>109.533974</ele><time>2022-03-04T09:55:16Z</time><extensions><speed>1.451333</speed><course>155.410782</course><hAcc>1.447383</hAcc><vAcc>0.827009</vAcc></extensions></trkpt>
      <trkpt lon="-2.264629" lat="53.113903"><ele>109.655731</ele><time>2022-03-04T09:55:17Z</time><extensions><speed>1.448598</speed><course>155.459335</course><hAcc>1.445046</hAcc><vAcc>0.827083</vAcc></extensions></trkpt>
      <trkpt lon="-2.264620" lat="53.113892"><ele>109.793739</ele><time>2022-03-04T09:55:18Z</time><extensions><speed>1.475968</speed><course>155.392685</course><hAcc>1.450671</hAcc><vAcc>0.827163</vAcc></extensions></trkpt>
      <trkpt lon="-2.264611" lat="53.113880"><ele>109.944527</ele><time>2022-03-04T09:55:19Z</time><extensions><speed>1.500602</speed><course>155.479858</course><hAcc>1.460522</hAcc><vAcc>0.827209</vAcc></extensions></trkpt>
      <trkpt lon="-2.264602" lat="53.113868"><ele>110.101089</ele><time>2022-03-04T09:55:20Z</time><extensions><speed>1.474115</speed><course>153.427704</course><hAcc>1.460032</hAcc><vAcc>0.827199</vAcc></extensions></trkpt>
      <trkpt lon="-2.264593" lat="53.113857"><ele>110.251747</ele><time>2022-03-04T09:55:21Z</time><extensions><speed>1.369269</speed><course>152.503922</course><hAcc>1.437173</hAcc><vAcc>0.827149</vAcc></extensions></trkpt>
      <trkpt lon="-2.264584" lat="53.113846"><ele>110.403305</ele><time>2022-03-04T09:55:22Z</time><extensions><speed>1.375885</speed><course>153.983292</course><hAcc>1.437281</hAcc><vAcc>0.827032</vAcc></extensions></trkpt>
      <trkpt lon="-2.264575" lat="53.113835"><ele>110.545845</ele><time>2022-03-04T09:55:23Z</time><extensions><speed>1.477057</speed><course>154.954865</course><hAcc>1.456734</hAcc><vAcc>0.826852</vAcc></extensions></trkpt>
      <trkpt lon="-2.264567" lat="53.113823"><ele>110.668945</ele><time>2022-03-04T09:55:24Z</time><extensions><speed>1.439598</speed><course>158.022202</course><hAcc>1.452072</hAcc><vAcc>0.826618</vAcc></extensions></trkpt>
      <trkpt lon="-2.264559" lat="53.113812"><ele>110.780785</ele><time>2022-03-04T09:55:25Z</time><extensions><speed>1.396804</speed><course>157.876617</course><hAcc>1.454029</hAcc><vAcc>0.826305</vAcc></extensions></trkpt>
      <trkpt lon="-2.264551" lat="53.113800"><ele>110.873909</ele><time>2022-03-04T09:55:26Z</time><extensions><speed>1.381560</speed><course>155.832474</course><hAcc>1.468334</hAcc><vAcc>0.825905</vAcc></extensions></trkpt>
      <trkpt lon="-2.264543" lat="53.113789"><ele>110.952751</ele><time>2022-03-04T09:55:27Z</time><extensions><speed>1.245278</speed><course>155.896225</course><hAcc>1.481406</hAcc><vAcc>0.825460</vAcc></extensions></trkpt>
      <trkpt lon="-2.264537" lat="53.113781"><ele>111.022034</ele><time>2022-03-04T09:55:28Z</time><extensions><speed>0.838630</speed><course>158.294403</course><hAcc>1.500975</hAcc><vAcc>0.824998</vAcc></extensions></trkpt>
      <trkpt lon="-2.264535" lat="53.113777"><ele>111.067863</ele><time>2022-03-04T09:55:29Z</time><extensions><speed>0.055513</speed><course>240.517853</course><hAcc>1.541049</hAcc><vAcc>0.824510</vAcc></extensions></trkpt>
      <trkpt lon="-2.264536" lat="53.113778"><ele>111.101372</ele><time>2022-03-04T09:55:30Z</time><extensions><speed>0.247008</speed><course>320.661255</course><hAcc>1.552368</hAcc><vAcc>0.824008</vAcc></extensions></trkpt>
      <trkpt lon="-2.264539" lat="53.113780"><ele>111.110909</ele><time>2022-03-04T09:55:31Z</time><extensions><speed>0.347656</speed><course>323.807434</course><hAcc>1.565203</hAcc><vAcc>0.823540</vAcc></extensions></trkpt>
      <trkpt lon="-2.264542" lat="53.113782"><ele>111.113014</ele><time>2022-03-04T09:55:32Z</time><extensions><speed>0.303735</speed><course>322.402618</course><hAcc>1.606070</hAcc><vAcc>0.823121</vAcc></extensions></trkpt>
      <trkpt lon="-2.264544" lat="53.113784"><ele>111.086044</ele><time>2022-03-04T09:55:33Z</time><extensions><speed>0.160953</speed><course>316.213043</course><hAcc>1.659031</hAcc><vAcc>0.822777</vAcc></extensions></trkpt>
      <trkpt lon="-2.264545" lat="53.113784"><ele>111.052444</ele><time>2022-03-04T09:55:34Z</time><extensions><speed>0.054939</speed><course>183.123505</course><hAcc>1.697783</hAcc><vAcc>0.822527</vAcc></extensions></trkpt>
      <trkpt lon="-2.264544" lat="53.113783"><ele>111.001114</ele><time>2022-03-04T09:55:35Z</time><extensions><speed>0.296856</speed><course>154.987823</course><hAcc>1.716047</hAcc><vAcc>0.822371</vAcc></extensions></trkpt>
      <trkpt lon="-2.264541" lat="53.113779"><ele>110.938461</ele><time>2022-03-04T09:55:36Z</time><extensions><speed>0.609975</speed><course>153.771149</course><hAcc>1.718204</hAcc><vAcc>0.822324</vAcc></extensions></trkpt>
      <trkpt lon="-2.264535" lat="53.113772"><ele>110.865784</ele><time>2022-03-04T09:55:37Z</time><extensions><speed>1.018062</speed><course>153.645142</course><hAcc>1.718195</hAcc><vAcc>0.822388</vAcc></extensions></trkpt>
      <trkpt lon="-2.264528" lat="53.113764"><ele>110.782990</ele><time>2022-03-04T09:55:38Z</time><extensions><speed>1.196629</speed><course>153.084534</course><hAcc>1.720399</hAcc><vAcc>0.822549</vAcc></extensions></trkpt>
      <trkpt lon="-2.264520" lat="53.113754"><ele>110.702995</ele><time>2022-03-04T09:55:39Z</time><extensions><speed>1.163411</speed><course>152.254639</course><hAcc>1.709038</hAcc><vAcc>0.822808</vAcc></extensions></trkpt>
      <trkpt lon="-2.264512" lat="53.113745"><ele>110.624870</ele><time>2022-03-04T09:55:40Z</time><extensions><speed>1.105996</speed><course>151.727921</course><hAcc>1.696872</hAcc><vAcc>0.823131</vAcc></extensions></trkpt>
      <trkpt lon="-2.264504" lat="53.113736"><ele>110.547401</ele><time>2022-03-04T09:55:41Z</time><extensions><speed>1.136262</speed><course>152.970322</course><hAcc>1.694807</hAcc><vAcc>0.823504</vAcc></extensions></trkpt>
      <trkpt lon="-2.264496" lat="53.113727"><ele>110.468048</ele><time>2022-03-04T09:55:42Z</time><extensions><speed>1.229846</speed><course>155.081741</course><hAcc>1.687727</hAcc><vAcc>0.823919</vAcc></extensions></trkpt>
      <trkpt lon="-2.264489" lat="53.113717"><ele>110.382401</ele><time>2022-03-04T09:55:43Z</time><extensions><speed>1.150813</speed><course>155.061066</course><hAcc>1.683737</hAcc><vAcc>0.824359</vAcc></extensions></trkpt>
      <trkpt lon="-2.264481" lat="53.113708"><ele>110.302536</ele><time>2022-03-04T09:55:44Z</time><extensions><speed>1.109488</speed><course>153.244354</course><hAcc>1.680778</hAcc><vAcc>0.824797</vAcc></extensions></trkpt>
      <trkpt lon="-2.264473" lat="53.113699"><ele>110.226410</ele><time>2022-03-04T09:55:45Z</time><extensions><speed>1.128620</speed><course>149.959244</course><hAcc>1.673690</hAcc><vAcc>0.825252</vAcc></extensions></trkpt>
      <trkpt lon="-2.264464" lat="53.113690"><ele>110.157379</ele><time>2022-03-04T09:55:46Z</time><extensions><speed>1.148506</speed><course>148.480057</course><hAcc>1.669268</hAcc><vAcc>0.825699</vAcc></extensions></trkpt>
      <trkpt lon="-2.264455" lat="53.113682"><ele>110.096458</ele><time>2022-03-04T09:55:47Z</time><extensions><speed>1.147060</speed><course>147.334961</course><hAcc>1.666827</hAcc><vAcc>0.826120</vAcc></extensions></trkpt>
      <trkpt lon="-2.264446" lat="53.113673"><ele>110.048340</ele><time>2022-03-04T09:55:48Z</time><extensions><speed>1.221975</speed><course>146.355240</course><hAcc>1.664082</hAcc><vAcc>0.826520</vAcc></extensions></trkpt>
      <trkpt lon="-2.264435" lat="53.113663"><ele>110.015526</ele><time>2022-03-04T09:55:49Z</time><extensions><speed>1.259541</speed><course>145.648010</course><hAcc>1.653431</hAcc><vAcc>0.826897</vAcc></extensions></trkpt>
      <trkpt lon="-2.264425" lat="53.113654"><ele>109.996033</ele><time>2022-03-04T09:55:50Z</time><extensions><speed>1.241778</speed><course>146.182739</course><hAcc>1.624321</hAcc><vAcc>0.827242</vAcc></extensions></trkpt>
      <trkpt lon="-2.264414" lat="53.113645"><ele>109.980141</ele><time>2022-03-04T09:55:51Z</time><extensions><speed>1.299648</speed><course>146.405380</course><hAcc>1.587729</hAcc><vAcc>0.827573</vAcc></extensions></trkpt>
      <trkpt lon="-2.264404" lat="53.113635"><ele>109.969467</ele><time>2022-03-04T09:55:52Z</time><extensions><speed>1.324439</speed><course>146.781876</course><hAcc>1.556147</hAcc><vAcc>0.827872</vAcc></extensions></trkpt>
      <trkpt lon="-2.264393" lat="53.113625"><ele>109.969971</ele><time>2022-03-04T09:55:53Z</time><extensions><speed>1.406374</speed><course>147.649170</course><hAcc>1.536357</hAcc><vAcc>0.828160</vAcc></extensions></trkpt>
      <trkpt lon="-2.264381" lat="53.113614"><ele>109.982826</ele><time>2022-03-04T09:55:54Z</time><extensions><speed>1.532059</speed><course>145.328568</course><hAcc>1.478520</hAcc><vAcc>0.828435</vAcc></extensions></trkpt>
      <trkpt lon="-2.264367" lat="53.113602"><ele>110.003105</ele><time>2022-03-04T09:55:55Z</time><extensions><speed>1.605011</speed><course>142.309464</course><hAcc>1.477953</hAcc><vAcc>0.828692</vAcc></extensions></trkpt>
      <trkpt lon="-2.264352" lat="53.113591"><ele>110.027771</ele><time>2022-03-04T09:55:56Z</time><extensions><speed>1.594205</speed><course>139.202057</course><hAcc>1.447437</hAcc><vAcc>0.828934</vAcc></extensions></trkpt>
      <trkpt lon="-2.264337" lat="53.113580"><ele>110.054604</ele><time>2022-03-04T09:55:57Z</time><extensions><speed>1.602310</speed><course>141.671906</course><hAcc>1.421304</hAcc><vAcc>0.829166</vAcc></extensions></trkpt>
      <trkpt lon="-2.264323" lat="53.113569"><ele>110.086678</ele><time>2022-03-04T09:55:58Z</time><extensions><speed>1.596889</speed><course>146.975235</course><hAcc>1.395883</hAcc><vAcc>0.829371</vAcc></extensions></trkpt>
      <trkpt lon="-2.264311" lat="53.113557"><ele>110.126389</ele><time>2022-03-04T09:55:59Z</time><extensions><speed>1.599952</speed><course>150.361710</course><hAcc>1.381466</hAcc><vAcc>0.829578</vAcc></extensions></trkpt>
      <trkpt lon="-2.264299" lat="53.113544"><ele>110.173599</ele><time>2022-03-04T09:56:00Z</time><extensions><speed>1.645704</speed><course>154.551193</course><hAcc>1.381014</hAcc><vAcc>0.829765</vAcc></extensions></trkpt>
      <trkpt lon="-2.264289" lat="53.113531"><ele>110.234436</ele><time>2022-03-04T09:56:01Z</time><extensions><speed>1.637265</speed><course>154.426636</course><hAcc>1.372810</hAcc><vAcc>0.829938</vAcc></extensions></trkpt>
      <trkpt lon="-2.264278" lat="53.113518"><ele>110.300499</ele><time>2022-03-04T09:56:02Z</time><extensions><speed>1.606737</speed><course>150.773331</course><hAcc>1.360300</hAcc><vAcc>0.830083</vAcc></extensions></trkpt>
      <trkpt lon="-2.264265" lat="53.113505"><ele>110.371506</ele><time>2022-03-04T09:56:03Z</time><extensions><speed>1.610608</speed><course>148.271561</course><hAcc>1.362215</hAcc><vAcc>0.830223</vAcc></extensions></trkpt>
      <trkpt lon="-2.264253" lat="53.113493"><ele>110.436798</ele><time>2022-03-04T09:56:04Z</time><extensions><speed>1.631210</speed><course>148.288345</course><hAcc>1.362220</hAcc><vAcc>0.830348</vAcc></extensions></trkpt>
      <trkpt lon="-2.264239" lat="53.113481"><ele>110.494438</ele><time>2022-03-04T09:56:05Z</time><extensions><speed>1.650738</speed><course>146.352890</course><hAcc>1.353577</hAcc><vAcc>0.830481</vAcc></extensions></trkpt>
      <trkpt lon="-2.264226" lat="53.113469"><ele>110.557213</ele><time>2022-03-04T09:56:06Z</time><extensions><speed>1.609509</speed><course>148.605591</course><hAcc>1.344667</hAcc><vAcc>0.830613</vAcc></extensions></trkpt>
      <trkpt lon="-2.264214" lat="53.113457"><ele>110.641525</ele><time>2022-03-04T09:56:07Z</time><extensions><speed>1.626884</speed><course>151.538071</course><hAcc>1.347780</hAcc><vAcc>0.830735</vAcc></extensions></trkpt>
      <trkpt lon="-2.264203" lat="53.113444"><ele>110.717079</ele><time>2022-03-04T09:56:08Z</time><extensions><speed>1.668938</speed><course>152.305267</course><hAcc>1.357428</hAcc><vAcc>0.830851</vAcc></extensions></trkpt>
      <trkpt lon="-2.264191" lat="53.113431"><ele>110.815933</ele><time>2022-03-04T09:56:09Z</time><extensions><speed>1.675180</speed><course>151.088333</course><hAcc>1.351714</hAcc><vAcc>0.830988</vAcc></extensions></trkpt>
      <trkpt lon="-2.264179" lat="53.113418"><ele>110.916634</ele><time>2022-03-04T09:56:10Z</time><extensions><speed>1.677823</speed><course>151.816269</course><hAcc>1.348062</hAcc><vAcc>0.831121</vAcc></extensions></trkpt>
      <trkpt lon="-2.264167" lat="53.113405"><ele>111.023857</ele><time>2022-03-04T09:56:11Z</time><extensions><speed>1.630269</speed><course>154.238632</course><hAcc>1.347752</hAcc><vAcc>0.831253</vAcc></extensions></trkpt>
      <trkpt lon="-2.264157" lat="53.113391"><ele>111.152992</ele><time>2022-03-04T09:56:12Z</time><extensions><speed>1.668372</speed><course>155.734558</course><hAcc>1.354920</hAcc><vAcc>0.831376</vAcc></extensions></trkpt>
      <trkpt lon="-2.264146" lat="53.113378"><ele>111.280342</ele><time>2022-03-04T09:56:14Z</time><extensions><speed>1.644851</speed><course>152.848587</course><hAcc>1.357225</hAcc><vAcc>0.831490</vAcc></extensions></trkpt>
      <trkpt lon="-2.264135" lat="53.113366"><ele>111.405251</ele><time>2022-03-04T09:56:15Z</time><extensions><speed>1.522079</speed><course>149.002579</course><hAcc>1.349890</hAcc><vAcc>0.831576</vAcc></extensions></trkpt>
      <trkpt lon="-2.264123" lat="53.113355"><ele>111.522163</ele><time>2022-03-04T09:56:16Z</time><extensions><speed>1.502803</speed><course>147.790024</course><hAcc>1.355274</hAcc><vAcc>0.831666</vAcc></extensions></trkpt>
      <trkpt lon="-2.264111" lat="53.113343"><ele>111.634819</ele><time>2022-03-04T09:56:17Z</time><extensions><speed>1.630290</speed><course>148.995697</course><hAcc>1.375006</hAcc><vAcc>0.831734</vAcc></extensions></trkpt>
      <trkpt lon="-2.264098" lat="53.113331"><ele>111.753067</ele><time>2022-03-04T09:56:18Z</time><extensions><speed>1.610490</speed><course>147.364685</course><hAcc>1.366799</hAcc><vAcc>0.831798</vAcc></extensions></trkpt>
      <trkpt lon="-2.264085" lat="53.113319"><ele>111.883247</ele><time>2022-03-04T09:56:19Z</time><extensions><speed>1.648358</speed><course>148.942322</course><hAcc>1.372838</hAcc><vAcc>0.831809</vAcc></extensions></trkpt>
      <trkpt lon="-2.264073" lat="53.113306"><ele>112.014687</ele><time>2022-03-04T09:56:20Z</time><extensions><speed>1.645865</speed><course>148.399414</course><hAcc>1.374076</hAcc><vAcc>0.831774</vAcc></extensions></trkpt>
      <trkpt lon="-2.264060" lat="53.113294"><ele>112.117088</ele><time>2022-03-04T09:56:21Z</time><extensions><speed>1.664038</speed><course>148.361710</course><hAcc>1.374930</hAcc><vAcc>0.831723</vAcc></extensions></trkpt>
      <trkpt lon="-2.264048" lat="53.113282"><ele>112.204285</ele><time>2022-03-04T09:56:22Z</time><extensions><speed>1.633512</speed><course>147.857773</course><hAcc>1.375604</hAcc><vAcc>0.831638</vAcc></extensions></trkpt>
      <trkpt lon="-2.264035" lat="53.113270"><ele>112.286156</ele><time>2022-03-04T09:56:23Z</time><extensions><speed>1.567203</speed><course>145.321808</course><hAcc>1.381882</hAcc><vAcc>0.831529</vAcc></extensions></trkpt>
      <trkpt lon="-2.264022" lat="53.113259"><ele>112.360336</ele><time>2022-03-04T09:56:24Z</time><extensions><speed>1.507776</speed><course>146.809265</course><hAcc>1.375191</hAcc><vAcc>0.831393</vAcc></extensions></trkpt>
      <trkpt lon="-2.264010" lat="53.113247"><ele>112.416016</ele><time>2022-03-04T09:56:25Z</time><extensions><speed>1.593856</speed><course>145.625381</course><hAcc>1.391735</hAcc><vAcc>0.831232</vAcc></extensions></trkpt>
      <trkpt lon="-2.263997" lat="53.113236"><ele>112.458466</ele><time>2022-03-04T09:56:26Z</time><extensions><speed>1.551011</speed><course>147.936310</course><hAcc>1.389275</hAcc><vAcc>0.831067</vAcc></extensions></trkpt>
      <trkpt lon="-2.263985" lat="53.113225"><ele>112.488472</ele><time>2022-03-04T09:56:27Z</time><extensions><speed>1.496285</speed><course>147.011536</course><hAcc>1.389329</hAcc><vAcc>0.830892</vAcc></extensions></trkpt>
      <trkpt lon="-2.263972" lat="53.113213"><ele>112.521782</ele><time>2022-03-04T09:56:28Z</time><extensions><speed>1.558760</speed><course>145.246216</course><hAcc>1.410342</hAcc><vAcc>0.830700</vAcc></extensions></trkpt>
      <trkpt lon="-2.263959" lat="53.113202"><ele>112.542213</ele><time>2022-03-04T09:56:29Z</time><extensions><speed>1.514492</speed><course>145.163727</course><hAcc>1.414006</hAcc><vAcc>0.830507</vAcc></extensions></trkpt>
      <trkpt lon="-2.263947" lat="53.113191"><ele>112.581764</ele><time>2022-03-04T09:56:30Z</time><extensions><speed>1.493603</speed><course>149.092896</course><hAcc>1.414860</hAcc><vAcc>0.830339</vAcc></extensions></trkpt>
      <trkpt lon="-2.263936" lat="53.113180"><ele>112.623085</ele><time>2022-03-04T09:56:31Z</time><extensions><speed>1.445182</speed><course>151.597031</course><hAcc>1.413625</hAcc><vAcc>0.830164</vAcc></extensions></trkpt>
      <trkpt lon="-2.263926" lat="53.113169"><ele>112.666100</ele><time>2022-03-04T09:56:32Z</time><extensions><speed>1.411758</speed><course>151.927551</course><hAcc>1.414008</hAcc><vAcc>0.830005</vAcc></extensions></trkpt>
      <trkpt lon="-2.263916" lat="53.113158"><ele>112.699562</ele><time>2022-03-04T09:56:33Z</time><extensions><speed>1.368381</speed><course>147.404099</course><hAcc>1.408419</hAcc><vAcc>0.829870</vAcc></extensions></trkpt>
      <trkpt lon="-2.263903" lat="53.113148"><ele>112.738281</ele><time>2022-03-04T09:56:34Z</time><extensions><speed>1.507144</speed><course>143.025711</course><hAcc>1.423534</hAcc><vAcc>0.829784</vAcc></extensions></trkpt>
      <trkpt lon="-2.263890" lat="53.113137"><ele>112.797127</ele><time>2022-03-04T09:56:35Z</time><extensions><speed>1.522857</speed><course>143.171387</course><hAcc>1.418491</hAcc><vAcc>0.829729</vAcc></extensions></trkpt>
      <trkpt lon="-2.263877" lat="53.113126"><ele>112.859528</ele><time>2022-03-04T09:56:36Z</time><extensions><speed>1.532369</speed><course>146.086945</course><hAcc>1.410642</hAcc><vAcc>0.829709</vAcc></extensions></trkpt>
      <trkpt lon="-2.263864" lat="53.113115"><ele>112.930603</ele><time>2022-03-04T09:56:37Z</time><extensions><speed>1.567859</speed><course>147.847748</course><hAcc>1.409413</hAcc><vAcc>0.829726</vAcc></extensions></trkpt>
      <trkpt lon="-2.263852" lat="53.113103"><ele>113.018166</ele><time>2022-03-04T09:56:38Z</time><extensions><speed>1.622651</speed><course>147.305756</course><hAcc>1.418167</hAcc><vAcc>0.829768</vAcc></extensions></trkpt>
      <trkpt lon="-2.263839" lat="53.113091"><ele>113.105461</ele><time>2022-03-04T09:56:39Z</time><extensions><speed>1.566545</speed><course>146.349060</course><hAcc>1.406412</hAcc><vAcc>0.829841</vAcc></extensions></trkpt>
      <trkpt lon="-2.263827" lat="53.113079"><ele>113.202515</ele><time>2022-03-04T09:56:40Z</time><extensions><speed>1.521285</speed><course>150.298126</course><hAcc>1.395313</hAcc><vAcc>0.829935</vAcc></extensions></trkpt>
      <trkpt lon="-2.263816" lat="53.113067"><ele>113.300430</ele><time>2022-03-04T09:56:41Z</time><extensions><speed>1.574780</speed><course>151.681900</course><hAcc>1.400036</hAcc><vAcc>0.830044</vAcc></extensions></trkpt>
      <trkpt lon="-2.263804" lat="53.113055"><ele>113.405304</ele><time>2022-03-04T09:56:42Z</time><extensions><speed>1.625641</speed><course>150.098862</course><hAcc>1.411712</hAcc><vAcc>0.830159</vAcc></extensions></trkpt>
      <trkpt lon="-2.263792" lat="53.113043"><ele>113.521988</ele><time>2022-03-04T09:56:43Z</time><extensions><speed>1.637212</speed><course>147.025620</course><hAcc>1.416016</hAcc><vAcc>0.830259</vAcc></extensions></trkpt>
      <trkpt lon="-2.263779" lat="53.113030"><ele>113.592346</ele><time>2022-03-04T09:56:44Z</time><extensions><speed>1.605591</speed><course>146.280258</course><hAcc>1.413545</hAcc><vAcc>0.830342</vAcc></extensions></trkpt>
      <trkpt lon="-2.263766" lat="53.113019"><ele>113.668983</ele><time>2022-03-04T09:56:45Z</time><extensions><speed>1.556455</speed><course>147.690979</course><hAcc>1.408736</hAcc><vAcc>0.830409</vAcc></extensions></trkpt>
      <trkpt lon="-2.263754" lat="53.113007"><ele>113.731995</ele><time>2022-03-04T09:56:46Z</time><extensions><speed>1.630889</speed><course>146.670624</course><hAcc>1.418927</hAcc><vAcc>0.830457</vAcc></extensions></trkpt>
      <trkpt lon="-2.263740" lat="53.112995"><ele>113.789528</ele><time>2022-03-04T09:56:47Z</time><extensions><speed>1.614546</speed><course>145.767044</course><hAcc>1.421549</hAcc><vAcc>0.830485</vAcc></extensions></trkpt>
      <trkpt lon="-2.263727" lat="53.112983"><ele>113.846092</ele><time>2022-03-04T09:56:48Z</time><extensions><speed>1.583630</speed><course>146.019516</course><hAcc>1.429085</hAcc><vAcc>0.830490</vAcc></extensions></trkpt>
      <trkpt lon="-2.263714" lat="53.112971"><ele>113.887337</ele><time>2022-03-04T09:56:49Z</time><extensions><speed>1.562356</speed><course>145.442215</course><hAcc>1.433821</hAcc><vAcc>0.830472</vAcc></extensions></trkpt>
      <trkpt lon="-2.263701" lat="53.112960"><ele>113.912682</ele><time>2022-03-04T09:56:50Z</time><extensions><speed>1.542943</speed><course>146.751678</course><hAcc>1.437043</hAcc><vAcc>0.830439</vAcc></extensions></trkpt>
      <trkpt lon="-2.263689" lat="53.112948"><ele>113.919807</ele><time>2022-03-04T09:56:51Z</time><extensions><speed>1.528727</speed><course>145.684921</course><hAcc>1.440486</hAcc><vAcc>0.830399</vAcc></extensions></trkpt>
      <trkpt lon="-2.263676" lat="53.112937"><ele>113.928970</ele><time>2022-03-04T09:56:52Z</time><extensions><speed>1.560325</speed><course>145.445801</course><hAcc>1.452539</hAcc><vAcc>0.830352</vAcc></extensions></trkpt>
      <trkpt lon="-2.263663" lat="53.112925"><ele>113.934448</ele><time>2022-03-04T09:56:53Z</time><extensions><speed>1.599583</speed><course>145.557526</course><hAcc>1.458825</hAcc><vAcc>0.830312</vAcc></extensions></trkpt>
      <trkpt lon="-2.263650" lat="53.112914"><ele>113.961357</ele><time>2022-03-04T09:56:54Z</time><extensions><speed>1.508181</speed><course>144.189774</course><hAcc>1.456618</hAcc><vAcc>0.830285</vAcc></extensions></trkpt>
      <trkpt lon="-2.263636" lat="53.112903"><ele>113.977478</ele><time>2022-03-04T09:56:55Z</time><extensions><speed>1.557564</speed><course>143.047333</course><hAcc>1.473701</hAcc><vAcc>0.830253</vAcc></extensions></trkpt>
      <trkpt lon="-2.263623" lat="53.112892"><ele>113.970215</ele><time>2022-03-04T09:56:56Z</time><extensions><speed>1.555874</speed><course>145.546066</course><hAcc>1.474803</hAcc><vAcc>0.830249</vAcc></extensions></trkpt>
      <trkpt lon="-2.263610" lat="53.112880"><ele>113.988388</ele><time>2022-03-04T09:56:57Z</time><extensions><speed>1.553235</speed><course>145.952042</course><hAcc>1.475337</hAcc><vAcc>0.830236</vAcc></extensions></trkpt>
      <trkpt lon="-2.263596" lat="53.112868"><ele>113.986099</ele><time>2022-03-04T09:56:58Z</time><extensions><speed>1.560575</speed><course>144.397461</course><hAcc>1.479469</hAcc><vAcc>0.830227</vAcc></extensions></trkpt>
      <trkpt lon="-2.263583" lat="53.112857"><ele>113.964188</ele><time>2022-03-04T09:56:59Z</time><extensions><speed>1.540536</speed><course>145.171051</course><hAcc>1.482354</hAcc><vAcc>0.830235</vAcc></extensions></trkpt>
      <trkpt lon="-2.263569" lat="53.112846"><ele>113.948639</ele><time>2022-03-04T09:57:00Z</time><extensions><speed>1.554048</speed><course>143.220627</course><hAcc>1.496549</hAcc><vAcc>0.830221</vAcc></extensions></trkpt>
      <trkpt lon="-2.263555" lat="53.112834"><ele>113.922859</ele><time>2022-03-04T09:57:01Z</time><extensions><speed>1.671183</speed><course>144.108459</course><hAcc>1.525942</hAcc><vAcc>0.830210</vAcc></extensions></trkpt>
      <trkpt lon="-2.263541" lat="53.112822"><ele>113.900543</ele><time>2022-03-04T09:57:02Z</time><extensions><speed>1.585719</speed><course>146.297409</course><hAcc>1.526238</hAcc><vAcc>0.830201</vAcc></extensions></trkpt>
      <trkpt lon="-2.263529" lat="53.112811"><ele>113.846519</ele><time>2022-03-04T09:57:03Z</time><extensions><speed>1.386231</speed><course>146.960602</course><hAcc>1.540678</hAcc><vAcc>0.830183</vAcc></extensions></trkpt>
      <trkpt lon="-2.263518" lat="53.112801"><ele>113.793732</ele><time>2022-03-04T09:57:04Z</time><extensions><speed>1.260240</speed><course>145.727661</course><hAcc>1.539065</hAcc><vAcc>0.830118</vAcc></extensions></trkpt>
      <trkpt lon="-2.263508" lat="53.112792"><ele>113.719894</ele><time>2022-03-04T09:57:05Z</time><extensions><speed>1.207181</speed><course>145.085266</course><hAcc>1.552971</hAcc><vAcc>0.830103</vAcc></extensions></trkpt>
      <trkpt lon="-2.263497" lat="53.112782"><ele>113.637817</ele><time>2022-03-04T09:57:06Z</time><extensions><speed>1.288208</speed><course>144.794800</course><hAcc>1.569038</hAcc><vAcc>0.830025</vAcc></extensions></trkpt>
      <trkpt lon="-2.263486" lat="53.112773"><ele>113.533005</ele><time>2022-03-04T09:57:07Z</time><extensions><speed>1.331512</speed><course>146.350372</course><hAcc>1.586197</hAcc><vAcc>0.829908</vAcc></extensions></trkpt>
      <trkpt lon="-2.263476" lat="53.112763"><ele>113.419807</ele><time>2022-03-04T09:57:07Z</time><extensions><speed>1.274508</speed><course>148.561890</course><hAcc>1.618568</hAcc><vAcc>0.829775</vAcc></extensions></trkpt>
      <trkpt lon="-2.263466" lat="53.112754"><ele>113.310501</ele><time>2022-03-04T09:57:08Z</time><extensions><speed>1.199818</speed><course>147.845749</course><hAcc>1.606586</hAcc><vAcc>0.829594</vAcc></extensions></trkpt>
      <trkpt lon="-2.263457" lat="53.112745"><ele>113.193626</ele><time>2022-03-04T09:57:09Z</time><extensions><speed>1.063903</speed><course>148.074722</course><hAcc>1.584556</hAcc><vAcc>0.829385</vAcc></extensions></trkpt>
      <trkpt lon="-2.263449" lat="53.112737"><ele>113.047157</ele><time>2022-03-04T09:57:10Z</time><extensions><speed>0.920646</speed><course>146.527634</course><hAcc>1.595923</hAcc><vAcc>0.829160</vAcc></extensions></trkpt>
      <trkpt lon="-2.263442" lat="53.112730"><ele>112.902016</ele><time>2022-03-04T09:57:11Z</time><extensions><speed>0.869702</speed><course>145.837540</course><hAcc>1.628188</hAcc><vAcc>0.828921</vAcc></extensions></trkpt>
      <trkpt lon="-2.263434" lat="53.112724"><ele>112.757568</ele><time>2022-03-04T09:57:12Z</time><extensions><speed>0.888126</speed><course>144.521774</course><hAcc>1.603605</hAcc><vAcc>0.828675</vAcc></extensions></trkpt>
      <trkpt lon="-2.263427" lat="53.112718"><ele>112.632500</ele><time>2022-03-04T09:57:13Z</time><extensions><speed>0.804738</speed><course>143.969635</course><hAcc>1.606835</hAcc><vAcc>0.828430</vAcc></extensions></trkpt>
      <trkpt lon="-2.263420" lat="53.112712"><ele>112.515587</ele><time>2022-03-04T09:57:14Z</time><extensions><speed>0.701322</speed><course>146.163879</course><hAcc>1.645168</hAcc><vAcc>0.828192</vAcc></extensions></trkpt>
      <trkpt lon="-2.263414" lat="53.112707"><ele>112.381088</ele><time>2022-03-04T09:57:15Z</time><extensions><speed>0.614686</speed><course>147.001434</course><hAcc>1.622573</hAcc><vAcc>0.827975</vAcc></extensions></trkpt>
      <trkpt lon="-2.263409" lat="53.112703"><ele>112.256035</ele><time>2022-03-04T09:57:16Z</time><extensions><speed>0.580931</speed><course>142.739304</course><hAcc>1.638496</hAcc><vAcc>0.827794</vAcc></extensions></trkpt>
      <trkpt lon="-2.263404" lat="53.112699"><ele>112.144478</ele><time>2022-03-04T09:57:17Z</time><extensions><speed>0.443059</speed><course>141.231857</course><hAcc>1.668517</hAcc><vAcc>0.827647</vAcc></extensions></trkpt>
      <trkpt lon="-2.263398" lat="53.112695"><ele>112.048363</ele><time>2022-03-04T09:57:18Z</time><extensions><speed>0.781808</speed><course>138.349258</course><hAcc>1.649461</hAcc><vAcc>0.827520</vAcc></extensions></trkpt>
      <trkpt lon="-2.263390" lat="53.112689"><ele>111.947922</ele><time>2022-03-04T09:57:19Z</time><extensions><speed>0.976825</speed><course>139.307846</course><hAcc>1.663382</hAcc><vAcc>0.827381</vAcc></extensions></trkpt>
      <trkpt lon="-2.263380" lat="53.112682"><ele>111.873329</ele><time>2022-03-04T09:57:20Z</time><extensions><speed>1.061492</speed><course>139.908707</course><hAcc>1.674773</hAcc><vAcc>0.827207</vAcc></extensions></trkpt>
      <trkpt lon="-2.263369" lat="53.112674"><ele>111.810089</ele><time>2022-03-04T09:57:21Z</time><extensions><speed>1.150402</speed><course>137.703491</course><hAcc>1.676053</hAcc><vAcc>0.827023</vAcc></extensions></trkpt>
      <trkpt lon="-2.263357" lat="53.112667"><ele>111.757927</ele><time>2022-03-04T09:57:22Z</time><extensions><speed>1.157986</speed><course>134.350815</course><hAcc>1.680071</hAcc><vAcc>0.826830</vAcc></extensions></trkpt>
      <trkpt lon="-2.263344" lat="53.112659"><ele>111.716103</ele><time>2022-03-04T09:57:23Z</time><extensions><speed>1.258610</speed><course>135.406326</course><hAcc>1.672339</hAcc><vAcc>0.826644</vAcc></extensions></trkpt>
      <trkpt lon="-2.263331" lat="53.112651"><ele>111.683792</ele><time>2022-03-04T09:57:24Z</time><extensions><speed>1.263918</speed><course>135.642090</course><hAcc>1.670544</hAcc><vAcc>0.826383</vAcc></extensions></trkpt>
      <trkpt lon="-2.263318" lat="53.112644"><ele>111.677872</ele><time>2022-03-04T09:57:25Z</time><extensions><speed>1.156049</speed><course>135.709702</course><hAcc>1.675543</hAcc><vAcc>0.826062</vAcc></extensions></trkpt>
      <trkpt lon="-2.263307" lat="53.112637"><ele>111.686150</ele><time>2022-03-04T09:57:26Z</time><extensions><speed>0.935703</speed><course>134.858185</course><hAcc>1.692263</hAcc><vAcc>0.825668</vAcc></extensions></trkpt>
      <trkpt lon="-2.263299" lat="53.112632"><ele>111.690643</ele><time>2022-03-04T09:57:27Z</time><extensions><speed>0.713809</speed><course>132.501770</course><hAcc>1.702709</hAcc><vAcc>0.825234</vAcc></extensions></trkpt>
      <trkpt lon="-2.263292" lat="53.112629"><ele>111.701691</ele><time>2022-03-04T09:57:28Z</time><extensions><speed>0.387920</speed><course>122.926880</course><hAcc>1.689883</hAcc><vAcc>0.824816</vAcc></extensions></trkpt>
      <trkpt lon="-2.263289" lat="53.112628"><ele>111.695396</ele><time>2022-03-04T09:57:29Z</time><extensions><speed>0.111927</speed><course>67.127823</course><hAcc>1.702118</hAcc><vAcc>0.824400</vAcc></extensions></trkpt>
      <trkpt lon="-2.263289" lat="53.112629"><ele>111.687996</ele><time>2022-03-04T09:57:30Z</time><extensions><speed>0.151609</speed><course>355.163666</course><hAcc>1.716506</hAcc><vAcc>0.824017</vAcc></extensions></trkpt>
      <trkpt lon="-2.263289" lat="53.112630"><ele>111.671463</ele><time>2022-03-04T09:57:31Z</time><extensions><speed>0.206645</speed><course>336.980896</course><hAcc>1.728195</hAcc><vAcc>0.823666</vAcc></extensions></trkpt>
      <trkpt lon="-2.263291" lat="53.112632"><ele>111.653061</ele><time>2022-03-04T09:57:32Z</time><extensions><speed>0.239642</speed><course>326.122284</course><hAcc>1.737741</hAcc><vAcc>0.823394</vAcc></extensions></trkpt>
      <trkpt lon="-2.263294" lat="53.112634"><ele>111.630882</ele><time>2022-03-04T09:57:33Z</time><extensions><speed>0.273266</speed><course>316.476349</course><hAcc>1.743041</hAcc><vAcc>0.823233</vAcc></extensions></trkpt>
      <trkpt lon="-2.263297" lat="53.112635"><ele>111.603851</ele><time>2022-03-04T09:57:34Z</time><extensions><speed>0.309327</speed><course>305.362976</course><hAcc>1.746288</hAcc><vAcc>0.823161</vAcc></extensions></trkpt>
      <trkpt lon="-2.263301" lat="53.112637"><ele>111.571144</ele><time>2022-03-04T09:57:35Z</time><extensions><speed>0.337688</speed><course>288.077911</course><hAcc>1.748688</hAcc><vAcc>0.823197</vAcc></extensions></trkpt>
      <trkpt lon="-2.263307" lat="53.112637"><ele>111.532204</ele><time>2022-03-04T09:57:36Z</time><extensions><speed>0.400016</speed><course>266.578094</course><hAcc>1.744712</hAcc><vAcc>0.823340</vAcc></extensions></trkpt>
      <trkpt lon="-2.263313" lat="53.112636"><ele>111.487114</ele><time>2022-03-04T09:57:37Z</time><extensions><speed>0.495036</speed><course>251.617813</course><hAcc>1.736706</hAcc><vAcc>0.823566</vAcc></extensions></trkpt>
      <trkpt lon="-2.263321" lat="53.112634"><ele>111.436722</ele><time>2022-03-04T09:57:38Z</time><extensions><speed>0.565865</speed><course>243.848709</course><hAcc>1.727571</hAcc><vAcc>0.823859</vAcc></extensions></trkpt>
      <trkpt lon="-2.263328" lat="53.112632"><ele>111.382469</ele><time>2022-03-04T09:57:39Z</time><extensions><speed>0.585504</speed><course>239.303864</course><hAcc>1.716383</hAcc><vAcc>0.824188</vAcc></extensions></trkpt>
      <trkpt lon="-2.263335" lat="53.112629"><ele>111.326126</ele><time>2022-03-04T09:57:40Z</time><extensions><speed>0.559424</speed><course>236.487839</course><hAcc>1.701993</hAcc><vAcc>0.824523</vAcc></extensions></trkpt>
      <trkpt lon="-2.263342" lat="53.112626"><ele>111.269463</ele><time>2022-03-04T09:57:41Z</time><extensions><speed>0.497477</speed><course>234.574554</course><hAcc>1.689349</hAcc><vAcc>0.824857</vAcc></extensions></trkpt>
      <trkpt lon="-2.263347" lat="53.112624"><ele>111.214005</ele><time>2022-03-04T09:57:42Z</time><extensions><speed>0.368163</speed><course>232.958527</course><hAcc>1.686798</hAcc><vAcc>0.825177</vAcc></extensions></trkpt>
      <trkpt lon="-2.263351" lat="53.112622"><ele>111.160919</ele><time>2022-03-04T09:57:43Z</time><extensions><speed>0.278186</speed><course>232.060394</course><hAcc>1.672922</hAcc><vAcc>0.825478</vAcc></extensions></trkpt>
      <trkpt lon="-2.263354" lat="53.112621"><ele>111.111053</ele><time>2022-03-04T09:57:44Z</time><extensions><speed>0.189429</speed><course>231.547211</course><hAcc>1.670194</hAcc><vAcc>0.825747</vAcc></extensions></trkpt>
      <trkpt lon="-2.263356" lat="53.112620"><ele>111.086876</ele><time>2022-03-04T09:57:45Z</time><extensions><speed>0.146397</speed><course>231.590424</course><hAcc>1.674980</hAcc><vAcc>0.825961</vAcc></extensions></trkpt>
      <trkpt lon="-2.263358" lat="53.112619"><ele>111.072075</ele><time>2022-03-04T09:57:46Z</time><extensions><speed>0.112714</speed><course>232.208435</course><hAcc>1.689011</hAcc><vAcc>0.826144</vAcc></extensions></trkpt>
      <trkpt lon="-2.263360" lat="53.112618"><ele>111.065117</ele><time>2022-03-04T09:57:47Z</time><extensions><speed>0.142192</speed><course>233.091721</course><hAcc>1.669381</hAcc><vAcc>0.826331</vAcc></extensions></trkpt>
      <trkpt lon="-2.263362" lat="53.112617"><ele>111.064346</ele><time>2022-03-04T09:57:48Z</time><extensions><speed>0.170100</speed><course>233.932541</course><hAcc>1.672273</hAcc><vAcc>0.826462</vAcc></extensions></trkpt>
      <trkpt lon="-2.263364" lat="53.112616"><ele>111.070946</ele><time>2022-03-04T09:57:49Z</time><extensions><speed>0.211065</speed><course>234.628479</course><hAcc>1.690700</hAcc><vAcc>0.826590</vAcc></extensions></trkpt>
      <trkpt lon="-2.263367" lat="53.112615"><ele>111.084663</ele><time>2022-03-04T09:57:50Z</time><extensions><speed>0.276546</speed><course>235.102081</course><hAcc>1.706916</hAcc><vAcc>0.826703</vAcc></extensions></trkpt>
      <trkpt lon="-2.263371" lat="53.112613"><ele>111.105034</ele><time>2022-03-04T09:57:51Z</time><extensions><speed>0.375554</speed><course>235.375259</course><hAcc>1.715810</hAcc><vAcc>0.826787</vAcc></extensions></trkpt>
      <trkpt lon="-2.263376" lat="53.112611"><ele>111.131386</ele><time>2022-03-04T09:57:52Z</time><extensions><speed>0.506945</speed><course>235.521439</course><hAcc>1.720237</hAcc><vAcc>0.826849</vAcc></extensions></trkpt>
      <trkpt lon="-2.263384" lat="53.112608"><ele>111.162857</ele><time>2022-03-04T09:57:53Z</time><extensions><speed>0.653681</speed><course>235.605362</course><hAcc>1.723257</hAcc><vAcc>0.826881</vAcc></extensions></trkpt>
      <trkpt lon="-2.263392" lat="53.112605"><ele>111.218201</ele><time>2022-03-04T09:57:54Z</time><extensions><speed>0.778445</speed><course>235.744675</course><hAcc>1.724329</hAcc><vAcc>0.826914</vAcc></extensions></trkpt>
      <trkpt lon="-2.263402" lat="53.112601"><ele>111.295319</ele><time>2022-03-04T09:57:55Z</time><extensions><speed>0.752895</speed><course>235.914886</course><hAcc>1.723566</hAcc><vAcc>0.826933</vAcc></extensions></trkpt>
      <trkpt lon="-2.263410" lat="53.112597"><ele>111.364830</ele><time>2022-03-04T09:57:56Z</time><extensions><speed>0.586952</speed><course>235.914673</course><hAcc>1.723578</hAcc><vAcc>0.826940</vAcc></extensions></trkpt>
      <trkpt lon="-2.263416" lat="53.112595"><ele>111.441444</ele><time>2022-03-04T09:57:57Z</time><extensions><speed>0.416718</speed><course>235.758209</course><hAcc>1.726014</hAcc><vAcc>0.826965</vAcc></extensions></trkpt>
      <trkpt lon="-2.263421" lat="53.112593"><ele>111.491829</ele><time>2022-03-04T09:57:58Z</time><extensions><speed>0.293796</speed><course>235.538422</course><hAcc>1.723064</hAcc><vAcc>0.826950</vAcc></extensions></trkpt>
      <trkpt lon="-2.263423" lat="53.112592"><ele>111.542465</ele><time>2022-03-04T09:57:59Z</time><extensions><speed>0.207627</speed><course>234.063583</course><hAcc>1.716458</hAcc><vAcc>0.826953</vAcc></extensions></trkpt>
      <trkpt lon="-2.263425" lat="53.112591"><ele>111.567642</ele><time>2022-03-04T09:58:00Z</time><extensions><speed>0.135281</speed><course>229.253159</course><hAcc>1.717770</hAcc><vAcc>0.826968</vAcc></extensions></trkpt>
      <trkpt lon="-2.263426" lat="53.112590"><ele>111.588699</ele><time>2022-03-04T09:58:01Z</time><extensions><speed>0.080187</speed><course>211.369980</course><hAcc>1.724161</hAcc><vAcc>0.826977</vAcc></extensions></trkpt>
      <trkpt lon="-2.263426" lat="53.112590"><ele>111.623459</ele><time>2022-03-04T09:58:02Z</time><extensions><speed>0.067728</speed><course>152.519821</course><hAcc>1.730558</hAcc><vAcc>0.826976</vAcc></extensions></trkpt>
      <trkpt lon="-2.263424" lat="53.112589"><ele>111.643387</ele><time>2022-03-04T09:58:03Z</time><extensions><speed>0.163688</speed><course>112.320953</course><hAcc>1.728077</hAcc><vAcc>0.826980</vAcc></extensions></trkpt>
      <trkpt lon="-2.263420" lat="53.112588"><ele>111.668777</ele><time>2022-03-04T09:58:04Z</time><extensions><speed>0.378634</speed><course>99.707909</course><hAcc>1.724626</hAcc><vAcc>0.826990</vAcc></extensions></trkpt>
      <trkpt lon="-2.263412" lat="53.112588"><ele>111.689835</ele><time>2022-03-04T09:58:05Z</time><extensions><speed>0.697199</speed><course>96.744881</course><hAcc>1.724912</hAcc><vAcc>0.826985</vAcc></extensions></trkpt>
      <trkpt lon="-2.263398" lat="53.112587"><ele>111.703148</ele><time>2022-03-04T09:58:06Z</time><extensions><speed>1.092602</speed><course>99.094002</course><hAcc>1.719718</hAcc><vAcc>0.826971</vAcc></extensions></trkpt>
      <trkpt lon="-2.263379" lat="53.112584"><ele>111.702362</ele><time>2022-03-04T09:58:07Z</time><extensions><speed>1.600838</speed><course>104.445168</course><hAcc>1.711628</hAcc><vAcc>0.826956</vAcc></extensions></trkpt>
      <trkpt lon="-2.263353" lat="53.112579"><ele>111.682762</ele><time>2022-03-04T09:58:08Z</time><extensions><speed>1.884785</speed><course>109.254486</course><hAcc>1.723197</hAcc><vAcc>0.826935</vAcc></extensions></trkpt>
      <trkpt lon="-2.263327" lat="53.112573"><ele>111.648430</ele><time>2022-03-04T09:58:09Z</time><extensions><speed>1.985288</speed><course>114.510162</course><hAcc>1.724307</hAcc><vAcc>0.826901</vAcc></extensions></trkpt>
      <trkpt lon="-2.263300" lat="53.112564"><ele>111.621353</ele><time>2022-03-04T09:58:10Z</time><extensions><speed>2.016837</speed><course>119.495743</course><hAcc>1.718385</hAcc><vAcc>0.826869</vAcc></extensions></trkpt>
      <trkpt lon="-2.263273" lat="53.112555"><ele>111.588921</ele><time>2022-03-04T09:58:11Z</time><extensions><speed>2.145295</speed><course>123.133667</course><hAcc>1.709253</hAcc><vAcc>0.826826</vAcc></extensions></trkpt>
      <trkpt lon="-2.263246" lat="53.112544"><ele>111.546410</ele><time>2022-03-04T09:58:12Z</time><extensions><speed>2.188685</speed><course>125.695641</course><hAcc>1.703432</hAcc><vAcc>0.826798</vAcc></extensions></trkpt>
      <trkpt lon="-2.263221" lat="53.112532"><ele>111.510483</ele><time>2022-03-04T09:58:13Z</time><extensions><speed>2.015050</speed><course>127.998672</course><hAcc>1.703923</hAcc><vAcc>0.826749</vAcc></extensions></trkpt>
      <trkpt lon="-2.263198" lat="53.112521"><ele>111.473915</ele><time>2022-03-04T09:58:14Z</time><extensions><speed>1.888335</speed><course>130.634476</course><hAcc>1.701735</hAcc><vAcc>0.826700</vAcc></extensions></trkpt>
      <trkpt lon="-2.263177" lat="53.112510"><ele>111.423836</ele><time>2022-03-04T09:58:15Z</time><extensions><speed>1.838100</speed><course>133.302826</course><hAcc>1.698758</hAcc><vAcc>0.826650</vAcc></extensions></trkpt>
      <trkpt lon="-2.263158" lat="53.112498"><ele>111.369659</ele><time>2022-03-04T09:58:16Z</time><extensions><speed>1.752026</speed><course>135.533691</course><hAcc>1.694149</hAcc><vAcc>0.826639</vAcc></extensions></trkpt>
      <trkpt lon="-2.263140" lat="53.112487"><ele>111.308121</ele><time>2022-03-04T09:58:17Z</time><extensions><speed>1.666348</speed><course>137.402588</course><hAcc>1.692046</hAcc><vAcc>0.826636</vAcc></extensions></trkpt>
      <trkpt lon="-2.263123" lat="53.112476"><ele>111.245041</ele><time>2022-03-04T09:58:18Z</time><extensions><speed>1.722894</speed><course>137.998810</course><hAcc>1.683915</hAcc><vAcc>0.826684</vAcc></extensions></trkpt>
      <trkpt lon="-2.263105" lat="53.112464"><ele>111.195480</ele><time>2022-03-04T09:58:20Z</time><extensions><speed>1.788443</speed><course>136.218094</course><hAcc>1.660337</hAcc><vAcc>0.826790</vAcc></extensions></trkpt>
      <trkpt lon="-2.263086" lat="53.112452"><ele>111.160927</ele><time>2022-03-04T09:58:21Z</time><extensions><speed>1.799734</speed><course>135.095734</course><hAcc>1.633428</hAcc><vAcc>0.826909</vAcc></extensions></trkpt>
      <trkpt lon="-2.263067" lat="53.112441"><ele>111.136452</ele><time>2022-03-04T09:58:22Z</time><extensions><speed>1.746314</speed><course>134.982025</course><hAcc>1.622990</hAcc><vAcc>0.827049</vAcc></extensions></trkpt>
      <trkpt lon="-2.263050" lat="53.112430"><ele>111.096283</ele><time>2022-03-04T09:58:23Z</time><extensions><speed>1.578492</speed><course>137.354721</course><hAcc>1.643269</hAcc><vAcc>0.827230</vAcc></extensions></trkpt>
      <trkpt lon="-2.263035" lat="53.112419"><ele>111.055534</ele><time>2022-03-04T09:58:24Z</time><extensions><speed>1.534318</speed><course>142.027313</course><hAcc>1.644945</hAcc><vAcc>0.827436</vAcc></extensions></trkpt>
      <trkpt lon="-2.263021" lat="53.112408"><ele>111.024246</ele><time>2022-03-04T09:58:25Z</time><extensions><speed>1.661118</speed><course>145.037567</course><hAcc>1.625585</hAcc><vAcc>0.827680</vAcc></extensions></trkpt>
      <trkpt lon="-2.263006" lat="53.112395"><ele>110.990791</ele><time>2022-03-04T09:58:26Z</time><extensions><speed>1.774815</speed><course>143.753799</course><hAcc>1.590848</hAcc><vAcc>0.827920</vAcc></extensions></trkpt>
      <trkpt lon="-2.262990" lat="53.112383"><ele>110.941597</ele><time>2022-03-04T09:58:27Z</time><extensions><speed>1.760727</speed><course>143.318619</course><hAcc>1.573863</hAcc><vAcc>0.828166</vAcc></extensions></trkpt>
      <trkpt lon="-2.262974" lat="53.112370"><ele>110.903839</ele><time>2022-03-04T09:58:28Z</time><extensions><speed>1.776100</speed><course>143.573181</course><hAcc>1.558681</hAcc><vAcc>0.828402</vAcc></extensions></trkpt>
      <trkpt lon="-2.262958" lat="53.112357"><ele>110.855209</ele><time>2022-03-04T09:58:29Z</time><extensions><speed>1.862339</speed><course>142.571442</course><hAcc>1.538142</hAcc><vAcc>0.828621</vAcc></extensions></trkpt>
      <trkpt lon="-2.262940" lat="53.112344"><ele>110.810997</ele><time>2022-03-04T09:58:30Z</time><extensions><speed>1.888367</speed><course>140.222610</course><hAcc>1.540699</hAcc><vAcc>0.828816</vAcc></extensions></trkpt>
      <trkpt lon="-2.262922" lat="53.112331"><ele>110.744926</ele><time>2022-03-04T09:58:31Z</time><extensions><speed>1.840653</speed><course>139.750992</course><hAcc>1.517557</hAcc><vAcc>0.829006</vAcc></extensions></trkpt>
      <trkpt lon="-2.262905" lat="53.112318"><ele>110.688255</ele><time>2022-03-04T09:58:32Z</time><extensions><speed>1.730932</speed><course>142.466995</course><hAcc>1.492289</hAcc><vAcc>0.829174</vAcc></extensions></trkpt>
      <trkpt lon="-2.262890" lat="53.112306"><ele>110.638504</ele><time>2022-03-04T09:58:33Z</time><extensions><speed>1.628914</speed><course>145.816528</course><hAcc>1.470508</hAcc><vAcc>0.829292</vAcc></extensions></trkpt>
      <trkpt lon="-2.262877" lat="53.112294"><ele>110.572495</ele><time>2022-03-04T09:58:34Z</time><extensions><speed>1.599514</speed><course>146.469772</course><hAcc>1.473823</hAcc><vAcc>0.829380</vAcc></extensions></trkpt>
      <trkpt lon="-2.262865" lat="53.112283"><ele>110.493370</ele><time>2022-03-04T09:58:35Z</time><extensions><speed>1.492023</speed><course>146.088379</course><hAcc>1.490135</hAcc><vAcc>0.829444</vAcc></extensions></trkpt>
      <trkpt lon="-2.262852" lat="53.112272"><ele>110.395958</ele><time>2022-03-04T09:58:36Z</time><extensions><speed>1.370027</speed><course>143.485031</course><hAcc>1.468805</hAcc><vAcc>0.829491</vAcc></extensions></trkpt>
      <trkpt lon="-2.262841" lat="53.112263"><ele>110.310936</ele><time>2022-03-04T09:58:37Z</time><extensions><speed>1.231149</speed><course>140.594772</course><hAcc>1.444576</hAcc><vAcc>0.829532</vAcc></extensions></trkpt>
      <trkpt lon="-2.262829" lat="53.112255"><ele>110.260941</ele><time>2022-03-04T09:58:38Z</time><extensions><speed>1.132780</speed><course>138.989227</course><hAcc>1.472123</hAcc><vAcc>0.829567</vAcc></extensions></trkpt>
      <trkpt lon="-2.262818" lat="53.112247"><ele>110.184525</ele><time>2022-03-04T09:58:39Z</time><extensions><speed>1.176161</speed><course>139.213303</course><hAcc>1.426051</hAcc><vAcc>0.829595</vAcc></extensions></trkpt>
      <trkpt lon="-2.262805" lat="53.112239"><ele>110.101662</ele><time>2022-03-04T09:58:40Z</time><extensions><speed>1.345371</speed><course>138.622055</course><hAcc>1.402320</hAcc><vAcc>0.829659</vAcc></extensions></trkpt>
      <trkpt lon="-2.262791" lat="53.112229"><ele>110.032776</ele><time>2022-03-04T09:58:41Z</time><extensions><speed>1.452260</speed><course>137.033844</course><hAcc>1.432625</hAcc><vAcc>0.829720</vAcc></extensions></trkpt>
      <trkpt lon="-2.262776" lat="53.112220"><ele>109.958710</ele><time>2022-03-04T09:58:42Z</time><extensions><speed>1.483245</speed><course>139.468216</course><hAcc>1.424438</hAcc><vAcc>0.829808</vAcc></extensions></trkpt>
      <trkpt lon="-2.262761" lat="53.112209"><ele>109.882698</ele><time>2022-03-04T09:58:43Z</time><extensions><speed>1.491330</speed><course>141.519974</course><hAcc>1.408886</hAcc><vAcc>0.829955</vAcc></extensions></trkpt>
      <trkpt lon="-2.262747" lat="53.112199"><ele>109.810570</ele><time>2022-03-04T09:58:44Z</time><extensions><speed>1.479295</speed><course>142.940338</course><hAcc>1.399250</hAcc><vAcc>0.830139</vAcc></extensions></trkpt>
      <trkpt lon="-2.262733" lat="53.112188"><ele>109.757271</ele><time>2022-03-04T09:58:45Z</time><extensions><speed>1.441873</speed><course>142.733307</course><hAcc>1.384920</hAcc><vAcc>0.830331</vAcc></extensions></trkpt>
      <trkpt lon="-2.262721" lat="53.112177"><ele>109.716751</ele><time>2022-03-04T09:58:46Z</time><extensions><speed>1.480673</speed><course>150.297668</course><hAcc>1.396921</hAcc><vAcc>0.830540</vAcc></extensions></trkpt>
      <trkpt lon="-2.262709" lat="53.112166"><ele>109.679337</ele><time>2022-03-04T09:58:47Z</time><extensions><speed>1.511193</speed><course>148.565170</course><hAcc>1.365278</hAcc><vAcc>0.830757</vAcc></extensions></trkpt>
      <trkpt lon="-2.262697" lat="53.112154"><ele>109.647255</ele><time>2022-03-04T09:58:48Z</time><extensions><speed>1.526263</speed><course>145.564392</course><hAcc>1.352622</hAcc><vAcc>0.830983</vAcc></extensions></trkpt>
      <trkpt lon="-2.262684" lat="53.112143"><ele>109.635170</ele><time>2022-03-04T09:58:49Z</time><extensions><speed>1.505314</speed><course>145.842560</course><hAcc>1.384283</hAcc><vAcc>0.831207</vAcc></extensions></trkpt>
      <trkpt lon="-2.262671" lat="53.112132"><ele>109.627457</ele><time>2022-03-04T09:58:50Z</time><extensions><speed>1.534505</speed><course>142.033447</course><hAcc>1.362616</hAcc><vAcc>0.831397</vAcc></extensions></trkpt>
      <trkpt lon="-2.262656" lat="53.112121"><ele>109.628685</ele><time>2022-03-04T09:58:51Z</time><extensions><speed>1.575233</speed><course>139.511475</course><hAcc>1.368280</hAcc><vAcc>0.831576</vAcc></extensions></trkpt>
      <trkpt lon="-2.262641" lat="53.112110"><ele>109.643997</ele><time>2022-03-04T09:58:52Z</time><extensions><speed>1.588609</speed><course>137.959717</course><hAcc>1.368719</hAcc><vAcc>0.831729</vAcc></extensions></trkpt>
      <trkpt lon="-2.262625" lat="53.112099"><ele>109.692123</ele><time>2022-03-04T09:58:53Z</time><extensions><speed>1.591882</speed><course>137.183289</course><hAcc>1.360477</hAcc><vAcc>0.831835</vAcc></extensions></trkpt>
      <trkpt lon="-2.262609" lat="53.112089"><ele>109.713051</ele><time>2022-03-04T09:58:54Z</time><extensions><speed>1.588483</speed><course>140.305176</course><hAcc>1.356383</hAcc><vAcc>0.831881</vAcc></extensions></trkpt>
      <trkpt lon="-2.262594" lat="53.112077"><ele>109.746216</ele><time>2022-03-04T09:58:55Z</time><extensions><speed>1.575315</speed><course>140.735687</course><hAcc>1.361685</hAcc><vAcc>0.831864</vAcc></extensions></trkpt>
      <trkpt lon="-2.262579" lat="53.112066"><ele>109.796043</ele><time>2022-03-04T09:58:56Z</time><extensions><speed>1.566336</speed><course>141.070862</course><hAcc>1.377697</hAcc><vAcc>0.831800</vAcc></extensions></trkpt>
      <trkpt lon="-2.262563" lat="53.112056"><ele>109.832581</ele><time>2022-03-04T09:58:57Z</time><extensions><speed>1.561408</speed><course>137.748825</course><hAcc>1.402758</hAcc><vAcc>0.831700</vAcc></extensions></trkpt>
      <trkpt lon="-2.262548" lat="53.112045"><ele>109.886810</ele><time>2022-03-04T09:58:58Z</time><extensions><speed>1.518023</speed><course>142.042038</course><hAcc>1.419549</hAcc><vAcc>0.831570</vAcc></extensions></trkpt>
      <trkpt lon="-2.262535" lat="53.112034"><ele>109.945076</ele><time>2022-03-04T09:58:59Z</time><extensions><speed>1.444965</speed><course>145.486954</course><hAcc>1.438925</hAcc><vAcc>0.831408</vAcc></extensions></trkpt>
      <trkpt lon="-2.262524" lat="53.112024"><ele>109.995537</ele><time>2022-03-04T09:59:00Z</time><extensions><speed>1.305941</speed><course>147.134460</course><hAcc>1.430105</hAcc><vAcc>0.831234</vAcc></extensions></trkpt>
      <trkpt lon="-2.262513" lat="53.112014"><ele>110.030052</ele><time>2022-03-04T09:59:01Z</time><extensions><speed>1.246732</speed><course>147.500626</course><hAcc>1.460930</hAcc><vAcc>0.831067</vAcc></extensions></trkpt>
      <trkpt lon="-2.262503" lat="53.112005"><ele>110.063301</ele><time>2022-03-04T09:59:02Z</time><extensions><speed>1.224447</speed><course>147.054016</course><hAcc>1.500138</hAcc><vAcc>0.830902</vAcc></extensions></trkpt>
      <trkpt lon="-2.262493" lat="53.111995"><ele>110.100891</ele><time>2022-03-04T09:59:03Z</time><extensions><speed>1.326259</speed><course>144.291687</course><hAcc>1.519003</hAcc><vAcc>0.830742</vAcc></extensions></trkpt>
      <trkpt lon="-2.262480" lat="53.111985"><ele>110.143463</ele><time>2022-03-04T09:59:04Z</time><extensions><speed>1.524536</speed><course>143.312347</course><hAcc>1.508950</hAcc><vAcc>0.830608</vAcc></extensions></trkpt>
      <trkpt lon="-2.262466" lat="53.111974"><ele>110.215103</ele><time>2022-03-04T09:59:05Z</time><extensions><speed>1.628354</speed><course>141.494110</course><hAcc>1.515839</hAcc><vAcc>0.830498</vAcc></extensions></trkpt>
      <trkpt lon="-2.262450" lat="53.111962"><ele>110.259712</ele><time>2022-03-04T09:59:06Z</time><extensions><speed>1.769724</speed><course>140.186310</course><hAcc>1.484324</hAcc><vAcc>0.830397</vAcc></extensions></trkpt>
      <trkpt lon="-2.262433" lat="53.111950"><ele>110.300499</ele><time>2022-03-04T09:59:07Z</time><extensions><speed>1.827789</speed><course>139.016525</course><hAcc>1.477914</hAcc><vAcc>0.830304</vAcc></extensions></trkpt>
      <trkpt lon="-2.262415" lat="53.111938"><ele>110.349159</ele><time>2022-03-04T09:59:08Z</time><extensions><speed>1.814223</speed><course>139.478470</course><hAcc>1.462706</hAcc><vAcc>0.830233</vAcc></extensions></trkpt>
      <trkpt lon="-2.262397" lat="53.111925"><ele>110.394333</ele><time>2022-03-04T09:59:09Z</time><extensions><speed>1.753182</speed><course>139.672546</course><hAcc>1.449442</hAcc><vAcc>0.830201</vAcc></extensions></trkpt>
      <trkpt lon="-2.262381" lat="53.111914"><ele>110.438339</ele><time>2022-03-04T09:59:09Z</time><extensions><speed>1.643742</speed><course>141.813187</course><hAcc>1.432629</hAcc><vAcc>0.830175</vAcc></extensions></trkpt>
      <trkpt lon="-2.262366" lat="53.111902"><ele>110.470825</ele><time>2022-03-04T09:59:10Z</time><extensions><speed>1.580517</speed><course>139.814774</course><hAcc>1.434801</hAcc><vAcc>0.830178</vAcc></extensions></trkpt>
      <trkpt lon="-2.262351" lat="53.111891"><ele>110.500748</ele><time>2022-03-04T09:59:11Z</time><extensions><speed>1.596203</speed><course>142.037201</course><hAcc>1.449921</hAcc><vAcc>0.830174</vAcc></extensions></trkpt>
      <trkpt lon="-2.262337" lat="53.111880"><ele>110.530861</ele><time>2022-03-04T09:59:12Z</time><extensions><speed>1.527580</speed><course>146.812393</course><hAcc>1.463144</hAcc><vAcc>0.830186</vAcc></extensions></trkpt>
      <trkpt lon="-2.262325" lat="53.111869"><ele>110.531395</ele><time>2022-03-04T09:59:13Z</time><extensions><speed>1.460635</speed><course>144.252228</course><hAcc>1.457041</hAcc><vAcc>0.830214</vAcc></extensions></trkpt>
      <trkpt lon="-2.262312" lat="53.111859"><ele>110.536697</ele><time>2022-03-04T09:59:14Z</time><extensions><speed>1.393372</speed><course>140.857910</course><hAcc>1.433560</hAcc><vAcc>0.830244</vAcc></extensions></trkpt>
      <trkpt lon="-2.262298" lat="53.111849"><ele>110.515869</ele><time>2022-03-04T09:59:15Z</time><extensions><speed>1.394124</speed><course>139.887680</course><hAcc>1.448596</hAcc><vAcc>0.830287</vAcc></extensions></trkpt>
      <trkpt lon="-2.262285" lat="53.111839"><ele>110.459549</ele><time>2022-03-04T09:59:16Z</time><extensions><speed>1.435332</speed><course>140.865005</course><hAcc>1.483979</hAcc><vAcc>0.830340</vAcc></extensions></trkpt>
      <trkpt lon="-2.262271" lat="53.111829"><ele>110.383087</ele><time>2022-03-04T09:59:17Z</time><extensions><speed>1.428952</speed><course>141.987076</course><hAcc>1.549293</hAcc><vAcc>0.830456</vAcc></extensions></trkpt>
      <trkpt lon="-2.262259" lat="53.111819"><ele>110.289795</ele><time>2022-03-04T09:59:18Z</time><extensions><speed>1.342100</speed><course>147.258026</course><hAcc>1.552935</hAcc><vAcc>0.830543</vAcc></extensions></trkpt>
      <trkpt lon="-2.262249" lat="53.111809"><ele>110.215111</ele><time>2022-03-04T09:59:19Z</time><extensions><speed>1.135727</speed><course>148.472229</course><hAcc>1.550299</hAcc><vAcc>0.830621</vAcc></extensions></trkpt>
      <trkpt lon="-2.262239" lat="53.111801"><ele>110.159081</ele><time>2022-03-04T09:59:20Z</time><extensions><speed>1.239377</speed><course>144.218063</course><hAcc>1.564381</hAcc><vAcc>0.830680</vAcc></extensions></trkpt>
      <trkpt lon="-2.262228" lat="53.111791"><ele>110.108421</ele><time>2022-03-04T09:59:21Z</time><extensions><speed>1.347026</speed><course>143.528946</course><hAcc>1.580250</hAcc><vAcc>0.830727</vAcc></extensions></trkpt>
      <trkpt lon="-2.262216" lat="53.111781"><ele>110.089798</ele><time>2022-03-04T09:59:22Z</time><extensions><speed>1.408314</speed><course>143.005981</course><hAcc>1.597921</hAcc><vAcc>0.830800</vAcc></extensions></trkpt>
      <trkpt lon="-2.262203" lat="53.111771"><ele>110.106277</ele><time>2022-03-04T09:59:23Z</time><extensions><speed>1.419091</speed><course>142.487625</course><hAcc>1.619349</hAcc><vAcc>0.830912</vAcc></extensions></trkpt>
      <trkpt lon="-2.262190" lat="53.111761"><ele>110.113670</ele><time>2022-03-04T09:59:24Z</time><extensions><speed>1.397948</speed><course>140.962585</course><hAcc>1.627524</hAcc><vAcc>0.830968</vAcc></extensions></trkpt>
      <trkpt lon="-2.262176" lat="53.111751"><ele>110.145370</ele><time>2022-03-04T09:59:25Z</time><extensions><speed>1.392353</speed><course>140.725281</course><hAcc>1.627988</hAcc><vAcc>0.831008</vAcc></extensions></trkpt>
      <trkpt lon="-2.262163" lat="53.111742"><ele>110.167633</ele><time>2022-03-04T09:59:26Z</time><extensions><speed>1.409827</speed><course>140.233459</course><hAcc>1.613149</hAcc><vAcc>0.831030</vAcc></extensions></trkpt>
      <trkpt lon="-2.262150" lat="53.111732"><ele>110.218124</ele><time>2022-03-04T09:59:27Z</time><extensions><speed>1.457689</speed><course>142.179794</course><hAcc>1.591950</hAcc><vAcc>0.831035</vAcc></extensions></trkpt>
      <trkpt lon="-2.262136" lat="53.111721"><ele>110.280205</ele><time>2022-03-04T09:59:28Z</time><extensions><speed>1.586261</speed><course>143.662460</course><hAcc>1.578765</hAcc><vAcc>0.831032</vAcc></extensions></trkpt>
      <trkpt lon="-2.262122" lat="53.111709"><ele>110.315208</ele><time>2022-03-04T09:59:29Z</time><extensions><speed>1.697431</speed><course>144.727402</course><hAcc>1.589520</hAcc><vAcc>0.831016</vAcc></extensions></trkpt>
      <trkpt lon="-2.262107" lat="53.111697"><ele>110.355568</ele><time>2022-03-04T09:59:30Z</time><extensions><speed>1.685607</speed><course>143.642593</course><hAcc>1.581548</hAcc><vAcc>0.830996</vAcc></extensions></trkpt>
      <trkpt lon="-2.262092" lat="53.111685"><ele>110.379341</ele><time>2022-03-04T09:59:31Z</time><extensions><speed>1.606079</speed><course>141.398178</course><hAcc>1.540209</hAcc><vAcc>0.830975</vAcc></extensions></trkpt>
      <trkpt lon="-2.262077" lat="53.111674"><ele>110.394325</ele><time>2022-03-04T09:59:32Z</time><extensions><speed>1.560894</speed><course>140.401169</course><hAcc>1.514675</hAcc><vAcc>0.830965</vAcc></extensions></trkpt>
      <trkpt lon="-2.262063" lat="53.111663"><ele>110.398140</ele><time>2022-03-04T09:59:33Z</time><extensions><speed>1.568949</speed><course>142.353210</course><hAcc>1.514914</hAcc><vAcc>0.830924</vAcc></extensions></trkpt>
      <trkpt lon="-2.262049" lat="53.111652"><ele>110.398209</ele><time>2022-03-04T09:59:34Z</time><extensions><speed>1.593809</speed><course>144.615860</course><hAcc>1.501546</hAcc><vAcc>0.830836</vAcc></extensions></trkpt>
      <trkpt lon="-2.262035" lat="53.111640"><ele>110.387878</ele><time>2022-03-04T09:59:35Z</time><extensions><speed>1.677152</speed><course>144.990585</course><hAcc>1.505235</hAcc><vAcc>0.830749</vAcc></extensions></trkpt>
      <trkpt lon="-2.262020" lat="53.111627"><ele>110.361519</ele><time>2022-03-04T09:59:36Z</time><extensions><speed>1.699074</speed><course>145.182648</course><hAcc>1.502862</hAcc><vAcc>0.830700</vAcc></extensions></trkpt>
      <trkpt lon="-2.262005" lat="53.111615"><ele>110.321388</ele><time>2022-03-04T09:59:37Z</time><extensions><speed>1.691301</speed><course>143.696503</course><hAcc>1.501070</hAcc><vAcc>0.830636</vAcc></extensions></trkpt>
      <trkpt lon="-2.261990" lat="53.111603"><ele>110.256126</ele><time>2022-03-04T09:59:38Z</time><extensions><speed>1.650549</speed><course>142.081680</course><hAcc>1.496207</hAcc><vAcc>0.830558</vAcc></extensions></trkpt>
      <trkpt lon="-2.261975" lat="53.111591"><ele>110.177536</ele><time>2022-03-04T09:59:39Z</time><extensions><speed>1.606258</speed><course>142.757095</course><hAcc>1.502753</hAcc><vAcc>0.830545</vAcc></extensions></trkpt>
      <trkpt lon="-2.261962" lat="53.111580"><ele>110.065895</ele><time>2022-03-04T09:59:40Z</time><extensions><speed>1.528480</speed><course>144.647064</course><hAcc>1.507363</hAcc><vAcc>0.830520</vAcc></extensions></trkpt>
      <trkpt lon="-2.261949" lat="53.111569"><ele>109.968521</ele><time>2022-03-04T09:59:41Z</time><extensions><speed>1.478075</speed><course>145.303436</course><hAcc>1.525694</hAcc><vAcc>0.830505</vAcc></extensions></trkpt>
      <trkpt lon="-2.261936" lat="53.111558"><ele>109.861305</ele><time>2022-03-04T09:59:42Z</time><extensions><speed>1.404687</speed><course>143.686356</course><hAcc>1.534654</hAcc><vAcc>0.830487</vAcc></extensions></trkpt>
      <trkpt lon="-2.261924" lat="53.111548"><ele>109.762489</ele><time>2022-03-04T09:59:43Z</time><extensions><speed>1.342679</speed><course>144.079163</course><hAcc>1.537705</hAcc><vAcc>0.830471</vAcc></extensions></trkpt>
      <trkpt lon="-2.261912" lat="53.111539"><ele>109.671272</ele><time>2022-03-04T09:59:44Z</time><extensions><speed>1.268589</speed><course>143.354904</course><hAcc>1.521196</hAcc><vAcc>0.830456</vAcc></extensions></trkpt>
      <trkpt lon="-2.261901" lat="53.111530"><ele>109.608940</ele><time>2022-03-04T09:59:45Z</time><extensions><speed>1.164873</speed><course>142.790466</course><hAcc>1.536810</hAcc><vAcc>0.830460</vAcc></extensions></trkpt>
      <trkpt lon="-2.261891" lat="53.111522"><ele>109.537109</ele><time>2022-03-04T09:59:46Z</time><extensions><speed>1.065443</speed><course>144.593460</course><hAcc>1.583751</hAcc><vAcc>0.830500</vAcc></extensions></trkpt>
      <trkpt lon="-2.261882" lat="53.111514"><ele>109.488655</ele><time>2022-03-04T09:59:47Z</time><extensions><speed>0.983048</speed><course>146.478119</course><hAcc>1.566524</hAcc><vAcc>0.830530</vAcc></extensions></trkpt>
      <trkpt lon="-2.261874" lat="53.111507"><ele>109.457169</ele><time>2022-03-04T09:59:48Z</time><extensions><speed>1.011878</speed><course>145.836426</course><hAcc>1.550301</hAcc><vAcc>0.830593</vAcc></extensions></trkpt>
      <trkpt lon="-2.261866" lat="53.111499"><ele>109.450241</ele><time>2022-03-04T09:59:49Z</time><extensions><speed>0.984397</speed><course>145.271484</course><hAcc>1.582630</hAcc><vAcc>0.830722</vAcc></extensions></trkpt>
      <trkpt lon="-2.261856" lat="53.111491"><ele>109.446175</ele><time>2022-03-04T09:59:50Z</time><extensions><speed>1.154333</speed><course>142.303116</course><hAcc>1.579802</hAcc><vAcc>0.830809</vAcc></extensions></trkpt>
      <trkpt lon="-2.261844" lat="53.111482"><ele>109.456390</ele><time>2022-03-04T09:59:51Z</time><extensions><speed>1.370777</speed><course>141.554855</course><hAcc>1.602430</hAcc><vAcc>0.830897</vAcc></extensions></trkpt>
      <trkpt lon="-2.261831" lat="53.111473"><ele>109.469078</ele><time>2022-03-04T09:59:52Z</time><extensions><speed>1.418360</speed><course>141.653320</course><hAcc>1.602820</hAcc><vAcc>0.830965</vAcc></extensions></trkpt>
      <trkpt lon="-2.261818" lat="53.111462"><ele>109.495911</ele><time>2022-03-04T09:59:53Z</time><extensions><speed>1.423118</speed><course>142.504715</course><hAcc>1.609150</hAcc><vAcc>0.831056</vAcc></extensions></trkpt>
      <trkpt lon="-2.261805" lat="53.111452"><ele>109.534813</ele><time>2022-03-04T09:59:54Z</time><extensions><speed>1.467248</speed><course>143.433258</course><hAcc>1.617388</hAcc><vAcc>0.831179</vAcc></extensions></trkpt>
      <trkpt lon="-2.261792" lat="53.111441"><ele>109.591881</ele><time>2022-03-04T09:59:55Z</time><extensions><speed>1.468019</speed><course>144.975876</course><hAcc>1.622230</hAcc><vAcc>0.831333</vAcc></extensions></trkpt>
      <trkpt lon="-2.261780" lat="53.111430"><ele>109.677589</ele><time>2022-03-04T09:59:56Z</time><extensions><speed>1.431761</speed><course>146.184372</course><hAcc>1.629951</hAcc><vAcc>0.831497</vAcc></extensions></trkpt>
      <trkpt lon="-2.261767" lat="53.111419"><ele>109.754623</ele><time>2022-03-04T09:59:57Z</time><extensions><speed>1.486115</speed><course>146.015427</course><hAcc>1.640073</hAcc><vAcc>0.831629</vAcc></extensions></trkpt>
      <trkpt lon="-2.261755" lat="53.111408"><ele>109.845673</ele><time>2022-03-04T09:59:58Z</time><extensions><speed>1.457614</speed><course>145.386230</course><hAcc>1.650350</hAcc><vAcc>0.831745</vAcc></extensions></trkpt>
      <trkpt lon="-2.261743" lat="53.111398"><ele>109.931572</ele><time>2022-03-04T09:59:59Z</time><extensions><speed>1.405977</speed><course>145.630783</course><hAcc>1.626089</hAcc><vAcc>0.831905</vAcc></extensions></trkpt>
      <trkpt lon="-2.261731" lat="53.111387"><ele>110.019234</ele><time>2022-03-04T10:00:00Z</time><extensions><speed>1.368955</speed><course>144.757721</course><hAcc>1.623482</hAcc><vAcc>0.831987</vAcc></extensions></trkpt>
      <trkpt lon="-2.261719" lat="53.111377"><ele>110.076317</ele><time>2022-03-04T10:00:01Z</time><extensions><speed>1.326116</speed><course>145.084030</course><hAcc>1.628751</hAcc><vAcc>0.832071</vAcc></extensions></trkpt>
      <trkpt lon="-2.261707" lat="53.111368"><ele>110.142090</ele><time>2022-03-04T10:00:02Z</time><extensions><speed>1.351165</speed><course>145.221146</course><hAcc>1.640788</hAcc><vAcc>0.832123</vAcc></extensions></trkpt>
      <trkpt lon="-2.261695" lat="53.111357"><ele>110.158241</ele><time>2022-03-04T10:00:03Z</time><extensions><speed>1.500582</speed><course>143.829041</course><hAcc>1.660170</hAcc><vAcc>0.832169</vAcc></extensions></trkpt>
      <trkpt lon="-2.261681" lat="53.111346"><ele>110.159813</ele><time>2022-03-04T10:00:04Z</time><extensions><speed>1.622305</speed><course>141.782272</course><hAcc>1.652279</hAcc><vAcc>0.832230</vAcc></extensions></trkpt>
      <trkpt lon="-2.261665" lat="53.111334"><ele>110.163879</ele><time>2022-03-04T10:00:05Z</time><extensions><speed>1.672560</speed><course>141.206818</course><hAcc>1.646214</hAcc><vAcc>0.832286</vAcc></extensions></trkpt>
      <trkpt lon="-2.261650" lat="53.111322"><ele>110.148148</ele><time>2022-03-04T10:00:06Z</time><extensions><speed>1.716923</speed><course>141.919571</course><hAcc>1.638432</hAcc><vAcc>0.832335</vAcc></extensions></trkpt>
      <trkpt lon="-2.261634" lat="53.111310"><ele>110.113792</ele><time>2022-03-04T10:00:07Z</time><extensions><speed>1.656100</speed><course>143.729721</course><hAcc>1.632293</hAcc><vAcc>0.832380</vAcc></extensions></trkpt>
      <trkpt lon="-2.261621" lat="53.111298"><ele>110.060501</ele><time>2022-03-04T10:00:08Z</time><extensions><speed>1.552254</speed><course>144.928329</course><hAcc>1.622947</hAcc><vAcc>0.832397</vAcc></extensions></trkpt>
      <trkpt lon="-2.261608" lat="53.111288"><ele>110.008331</ele><time>2022-03-04T10:00:09Z</time><extensions><speed>1.433498</speed><course>145.239395</course><hAcc>1.611126</hAcc><vAcc>0.832401</vAcc></extensions></trkpt>
      <trkpt lon="-2.261595" lat="53.111277"><ele>109.959084</ele><time>2022-03-04T10:00:10Z</time><extensions><speed>1.460897</speed><course>143.263550</course><hAcc>1.570305</hAcc><vAcc>0.832371</vAcc></extensions></trkpt>
      <trkpt lon="-2.261582" lat="53.111267"><ele>109.870056</ele><time>2022-03-04T10:00:11Z</time><extensions><speed>1.466056</speed><course>142.237000</course><hAcc>1.540259</hAcc><vAcc>0.832296</vAcc></extensions></trkpt>
      <trkpt lon="-2.261569" lat="53.111256"><ele>109.772682</ele><time>2022-03-04T10:00:12Z</time><extensions><speed>1.643274</speed><course>143.071747</course><hAcc>1.510243</hAcc><vAcc>0.832197</vAcc></extensions></trkpt>
      <trkpt lon="-2.261554" lat="53.111244"><ele>109.663536</ele><time>2022-03-04T10:00:13Z</time><extensions><speed>1.822098</speed><course>143.027664</course><hAcc>1.515009</hAcc><vAcc>0.832068</vAcc></extensions></trkpt>
      <trkpt lon="-2.261538" lat="53.111231"><ele>109.564262</ele><time>2022-03-04T10:00:14Z</time><extensions><speed>1.719052</speed><course>145.219498</course><hAcc>1.487849</hAcc><vAcc>0.831914</vAcc></extensions></trkpt>
      <trkpt lon="-2.261524" lat="53.111219"><ele>109.473152</ele><time>2022-03-04T10:00:15Z</time><extensions><speed>1.663916</speed><course>145.575729</course><hAcc>1.462601</hAcc><vAcc>0.831758</vAcc></extensions></trkpt>
      <trkpt lon="-2.261511" lat="53.111206"><ele>109.380898</ele><time>2022-03-04T10:00:16Z</time><extensions><speed>1.667343</speed><course>145.527405</course><hAcc>1.448706</hAcc><vAcc>0.831594</vAcc></extensions></trkpt>
      <trkpt lon="-2.261498" lat="53.111194"><ele>109.287552</ele><time>2022-03-04T10:00:17Z</time><extensions><speed>1.552302</speed><course>148.231079</course><hAcc>1.437294</hAcc><vAcc>0.831422</vAcc></extensions></trkpt>
      <trkpt lon="-2.261486" lat="53.111183"><ele>109.206772</ele><time>2022-03-04T10:00:18Z</time><extensions><speed>1.490995</speed><course>146.674438</course><hAcc>1.444895</hAcc><vAcc>0.831231</vAcc></extensions></trkpt>
      <trkpt lon="-2.261474" lat="53.111172"><ele>109.134071</ele><time>2022-03-04T10:00:19Z</time><extensions><speed>1.427186</speed><course>143.903137</course><hAcc>1.443657</hAcc><vAcc>0.831046</vAcc></extensions></trkpt>
      <trkpt lon="-2.261461" lat="53.111163"><ele>109.102737</ele><time>2022-03-04T10:00:20Z</time><extensions><speed>1.392120</speed><course>142.303024</course><hAcc>1.435362</hAcc><vAcc>0.830866</vAcc></extensions></trkpt>
      <trkpt lon="-2.261449" lat="53.111153"><ele>109.073059</ele><time>2022-03-04T10:00:21Z</time><extensions><speed>1.371582</speed><course>145.903671</course><hAcc>1.439827</hAcc><vAcc>0.830687</vAcc></extensions></trkpt>
      <trkpt lon="-2.261438" lat="53.111143"><ele>109.064217</ele><time>2022-03-04T10:00:22Z</time><extensions><speed>1.322654</speed><course>149.074615</course><hAcc>1.435195</hAcc><vAcc>0.830529</vAcc></extensions></trkpt>
      <trkpt lon="-2.261428" lat="53.111133"><ele>109.081413</ele><time>2022-03-04T10:00:23Z</time><extensions><speed>1.350991</speed><course>147.932892</course><hAcc>1.442163</hAcc><vAcc>0.830386</vAcc></extensions></trkpt>
      <trkpt lon="-2.261416" lat="53.111123"><ele>109.132858</ele><time>2022-03-04T10:00:24Z</time><extensions><speed>1.470731</speed><course>143.153870</course><hAcc>1.456274</hAcc><vAcc>0.830246</vAcc></extensions></trkpt>
      <trkpt lon="-2.261404" lat="53.111112"><ele>109.203629</ele><time>2022-03-04T10:00:26Z</time><extensions><speed>1.489305</speed><course>146.249435</course><hAcc>1.463148</hAcc><vAcc>0.830093</vAcc></extensions></trkpt>
      <trkpt lon="-2.261393" lat="53.111102"><ele>109.268539</ele><time>2022-03-04T10:00:27Z</time><extensions><speed>1.397413</speed><course>152.652649</course><hAcc>1.456388</hAcc><vAcc>0.829954</vAcc></extensions></trkpt>
      <trkpt lon="-2.261383" lat="53.111091"><ele>109.336426</ele><time>2022-03-04T10:00:28Z</time><extensions><speed>1.324400</speed><course>149.181671</course><hAcc>1.446446</hAcc><vAcc>0.829783</vAcc></extensions></trkpt>
      <trkpt lon="-2.261372" lat="53.111081"><ele>109.421837</ele><time>2022-03-04T10:00:29Z</time><extensions><speed>1.393595</speed><course>144.173248</course><hAcc>1.456951</hAcc><vAcc>0.829691</vAcc></extensions></trkpt>
      <trkpt lon="-2.261359" lat="53.111071"><ele>109.522476</ele><time>2022-03-04T10:00:30Z</time><extensions><speed>1.423867</speed><course>140.417297</course><hAcc>1.464270</hAcc><vAcc>0.829605</vAcc></extensions></trkpt>
      <trkpt lon="-2.261346" lat="53.111061"><ele>109.646461</ele><time>2022-03-04T10:00:31Z</time><extensions><speed>1.450722</speed><course>142.441940</course><hAcc>1.477940</hAcc><vAcc>0.829557</vAcc></extensions></trkpt>
      <trkpt lon="-2.261332" lat="53.111051"><ele>109.773407</ele><time>2022-03-04T10:00:32Z</time><extensions><speed>1.396433</speed><course>139.462463</course><hAcc>1.489251</hAcc><vAcc>0.829529</vAcc></extensions></trkpt>
      <trkpt lon="-2.261318" lat="53.111042"><ele>109.916260</ele><time>2022-03-04T10:00:33Z</time><extensions><speed>1.353399</speed><course>136.600281</course><hAcc>1.508627</hAcc><vAcc>0.829548</vAcc></extensions></trkpt>
      <trkpt lon="-2.261305" lat="53.111034"><ele>110.034958</ele><time>2022-03-04T10:00:34Z</time><extensions><speed>1.258521</speed><course>134.906845</course><hAcc>1.537345</hAcc><vAcc>0.829548</vAcc></extensions></trkpt>
      <trkpt lon="-2.261292" lat="53.111027"><ele>110.130928</ele><time>2022-03-04T10:00:35Z</time><extensions><speed>0.930424</speed><course>124.485146</course><hAcc>1.553012</hAcc><vAcc>0.829541</vAcc></extensions></trkpt>
      <trkpt lon="-2.261283" lat="53.111025"><ele>110.223671</ele><time>2022-03-04T10:00:36Z</time><extensions><speed>0.504669</speed><course>102.948257</course><hAcc>1.580475</hAcc><vAcc>0.829522</vAcc></extensions></trkpt>
      <trkpt lon="-2.261278" lat="53.111025"><ele>110.292259</ele><time>2022-03-04T10:00:37Z</time><extensions><speed>0.321456</speed><course>48.780254</course><hAcc>1.608648</hAcc><vAcc>0.829511</vAcc></extensions></trkpt>
      <trkpt lon="-2.261274" lat="53.111027"><ele>110.342354</ele><time>2022-03-04T10:00:38Z</time><extensions><speed>0.309286</speed><course>36.618633</course><hAcc>1.647572</hAcc><vAcc>0.829495</vAcc></extensions></trkpt>
      <trkpt lon="-2.261272" lat="53.111029"><ele>110.381294</ele><time>2022-03-04T10:00:39Z</time><extensions><speed>0.235059</speed><course>45.567772</course><hAcc>1.689131</hAcc><vAcc>0.829457</vAcc></extensions></trkpt>
      <trkpt lon="-2.261270" lat="53.111030"><ele>110.411903</ele><time>2022-03-04T10:00:40Z</time><extensions><speed>0.135005</speed><course>68.241089</course><hAcc>1.722026</hAcc><vAcc>0.829382</vAcc></extensions></trkpt>
      <trkpt lon="-2.261269" lat="53.111030"><ele>110.422516</ele><time>2022-03-04T10:00:41Z</time><extensions><speed>0.068199</speed><course>157.923981</course><hAcc>1.740876</hAcc><vAcc>0.829270</vAcc></extensions></trkpt>
      <trkpt lon="-2.261270" lat="53.111029"><ele>110.412079</ele><time>2022-03-04T10:00:42Z</time><extensions><speed>0.220157</speed><course>217.117279</course><hAcc>1.744877</hAcc><vAcc>0.829153</vAcc></extensions></trkpt>
      <trkpt lon="-2.261273" lat="53.111026"><ele>110.376114</ele><time>2022-03-04T10:00:43Z</time><extensions><speed>0.433427</speed><course>227.845154</course><hAcc>1.741463</hAcc><vAcc>0.828982</vAcc></extensions></trkpt>
      <trkpt lon="-2.261279" lat="53.111023"><ele>110.324379</ele><time>2022-03-04T10:00:44Z</time><extensions><speed>0.649223</speed><course>229.484375</course><hAcc>1.735439</hAcc><vAcc>0.828766</vAcc></extensions></trkpt>
      <trkpt lon="-2.261288" lat="53.111019"><ele>110.259491</ele><time>2022-03-04T10:00:45Z</time><extensions><speed>0.876286</speed><course>226.073227</course><hAcc>1.726076</hAcc><vAcc>0.828546</vAcc></extensions></trkpt>
      <trkpt lon="-2.261299" lat="53.111012"><ele>110.181526</ele><time>2022-03-04T10:00:46Z</time><extensions><speed>1.193879</speed><course>219.496857</course><hAcc>1.717606</hAcc><vAcc>0.828314</vAcc></extensions></trkpt>
      <trkpt lon="-2.261310" lat="53.111003"><ele>110.091347</ele><time>2022-03-04T10:00:47Z</time><extensions><speed>1.283951</speed><course>219.158066</course><hAcc>1.714913</hAcc><vAcc>0.828100</vAcc></extensions></trkpt>
      <trkpt lon="-2.261322" lat="53.110994"><ele>110.009209</ele><time>2022-03-04T10:00:48Z</time><extensions><speed>1.202174</speed><course>218.448868</course><hAcc>1.708353</hAcc><vAcc>0.827891</vAcc></extensions></trkpt>
      <trkpt lon="-2.261334" lat="53.110986"><ele>109.908073</ele><time>2022-03-04T10:00:49Z</time><extensions><speed>1.205834</speed><course>218.919571</course><hAcc>1.691883</hAcc><vAcc>0.827690</vAcc></extensions></trkpt>
      <trkpt lon="-2.261345" lat="53.110977"><ele>109.813469</ele><time>2022-03-04T10:00:50Z</time><extensions><speed>1.264504</speed><course>220.815582</course><hAcc>1.679900</hAcc><vAcc>0.827509</vAcc></extensions></trkpt>
      <trkpt lon="-2.261359" lat="53.110968"><ele>109.718681</ele><time>2022-03-04T10:00:51Z</time><extensions><speed>1.403954</speed><course>222.551956</course><hAcc>1.679785</hAcc><vAcc>0.827351</vAcc></extensions></trkpt>
      <trkpt lon="-2.261374" lat="53.110959"><ele>109.615295</ele><time>2022-03-04T10:00:52Z</time><extensions><speed>1.435886</speed><course>225.770508</course><hAcc>1.687353</hAcc><vAcc>0.827227</vAcc></extensions></trkpt>
      <trkpt lon="-2.261390" lat="53.110950"><ele>109.514984</ele><time>2022-03-04T10:00:53Z</time><extensions><speed>1.495698</speed><course>228.803436</course><hAcc>1.676447</hAcc><vAcc>0.827118</vAcc></extensions></trkpt>
      <trkpt lon="-2.261406" lat="53.110942"><ele>109.430489</ele><time>2022-03-04T10:00:54Z</time><extensions><speed>1.440819</speed><course>230.358948</course><hAcc>1.674466</hAcc><vAcc>0.827023</vAcc></extensions></trkpt>
      <trkpt lon="-2.261423" lat="53.110934"><ele>109.345894</ele><time>2022-03-04T10:00:55Z</time><extensions><speed>1.355413</speed><course>232.101791</course><hAcc>1.681754</hAcc><vAcc>0.826944</vAcc></extensions></trkpt>
      <trkpt lon="-2.261438" lat="53.110926"><ele>109.263893</ele><time>2022-03-04T10:00:56Z</time><extensions><speed>1.342754</speed><course>231.558060</course><hAcc>1.677679</hAcc><vAcc>0.826871</vAcc></extensions></trkpt>
      <trkpt lon="-2.261454" lat="53.110918"><ele>109.180893</ele><time>2022-03-04T10:00:57Z</time><extensions><speed>1.414187</speed><course>229.999725</course><hAcc>1.669379</hAcc><vAcc>0.826814</vAcc></extensions></trkpt>
      <trkpt lon="-2.261470" lat="53.110910"><ele>109.113113</ele><time>2022-03-04T10:00:58Z</time><extensions><speed>1.435145</speed><course>227.413620</course><hAcc>1.654173</hAcc><vAcc>0.826770</vAcc></extensions></trkpt>
      <trkpt lon="-2.261486" lat="53.110901"><ele>109.057823</ele><time>2022-03-04T10:00:59Z</time><extensions><speed>1.420287</speed><course>226.143311</course><hAcc>1.628102</hAcc><vAcc>0.826751</vAcc></extensions></trkpt>
      <trkpt lon="-2.261501" lat="53.110893"><ele>109.015709</ele><time>2022-03-04T10:01:00Z</time><extensions><speed>1.420157</speed><course>224.643082</course><hAcc>1.584542</hAcc><vAcc>0.826766</vAcc></extensions></trkpt>
      <trkpt lon="-2.261515" lat="53.110884"><ele>108.967140</ele><time>2022-03-04T10:01:01Z</time><extensions><speed>1.427849</speed><course>224.618118</course><hAcc>1.532210</hAcc><vAcc>0.826799</vAcc></extensions></trkpt>
      <trkpt lon="-2.261531" lat="53.110875"><ele>108.918747</ele><time>2022-03-04T10:01:02Z</time><extensions><speed>1.471349</speed><course>225.744095</course><hAcc>1.500218</hAcc><vAcc>0.826853</vAcc></extensions></trkpt>
      <trkpt lon="-2.261547" lat="53.110865"><ele>108.861214</ele><time>2022-03-04T10:01:03Z</time><extensions><speed>1.571166</speed><course>224.305450</course><hAcc>1.490154</hAcc><vAcc>0.826931</vAcc></extensions></trkpt>
      <trkpt lon="-2.261563" lat="53.110855"><ele>108.805496</ele><time>2022-03-04T10:01:04Z</time><extensions><speed>1.612272</speed><course>221.951950</course><hAcc>1.467567</hAcc><vAcc>0.827038</vAcc></extensions></trkpt>
      <trkpt lon="-2.261579" lat="53.110844"><ele>108.755447</ele><time>2022-03-04T10:01:05Z</time><extensions><speed>1.624997</speed><course>219.956863</course><hAcc>1.451586</hAcc><vAcc>0.827138</vAcc></extensions></trkpt>
      <trkpt lon="-2.261595" lat="53.110833"><ele>108.692657</ele><time>2022-03-04T10:01:06Z</time><extensions><speed>1.618135</speed><course>219.249405</course><hAcc>1.448248</hAcc><vAcc>0.827221</vAcc></extensions></trkpt>
      <trkpt lon="-2.261610" lat="53.110822"><ele>108.636139</ele><time>2022-03-04T10:01:07Z</time><extensions><speed>1.550798</speed><course>221.989899</course><hAcc>1.445837</hAcc><vAcc>0.827322</vAcc></extensions></trkpt>
      <trkpt lon="-2.261626" lat="53.110812"><ele>108.588257</ele><time>2022-03-04T10:01:08Z</time><extensions><speed>1.494602</speed><course>225.465088</course><hAcc>1.460168</hAcc><vAcc>0.827399</vAcc></extensions></trkpt>
      <trkpt lon="-2.261640" lat="53.110803"><ele>108.534683</ele><time>2022-03-04T10:01:09Z</time><extensions><speed>1.294377</speed><course>224.304596</course><hAcc>1.477158</hAcc><vAcc>0.827452</vAcc></extensions></trkpt>
      <trkpt lon="-2.261653" lat="53.110795"><ele>108.478210</ele><time>2022-03-04T10:01:10Z</time><extensions><speed>1.131397</speed><course>226.275192</course><hAcc>1.469520</hAcc><vAcc>0.827481</vAcc></extensions></trkpt>
      <trkpt lon="-2.261666" lat="53.110789"><ele>108.418396</ele><time>2022-03-04T10:01:11Z</time><extensions><speed>1.126592</speed><course>230.433624</course><hAcc>1.486211</hAcc><vAcc>0.827514</vAcc></extensions></trkpt>
      <trkpt lon="-2.261680" lat="53.110782"><ele>108.353294</ele><time>2022-03-04T10:01:12Z</time><extensions><speed>1.171899</speed><course>236.151871</course><hAcc>1.517742</hAcc><vAcc>0.827548</vAcc></extensions></trkpt>
      <trkpt lon="-2.261695" lat="53.110776"><ele>108.286026</ele><time>2022-03-04T10:01:13Z</time><extensions><speed>1.247496</speed><course>236.837799</course><hAcc>1.561956</hAcc><vAcc>0.827576</vAcc></extensions></trkpt>
      <trkpt lon="-2.261710" lat="53.110770"><ele>108.215736</ele><time>2022-03-04T10:01:14Z</time><extensions><speed>1.257124</speed><course>234.105515</course><hAcc>1.614931</hAcc><vAcc>0.827606</vAcc></extensions></trkpt>
      <trkpt lon="-2.261724" lat="53.110763"><ele>108.148621</ele><time>2022-03-04T10:01:15Z</time><extensions><speed>1.203906</speed><course>227.015121</course><hAcc>1.601989</hAcc><vAcc>0.827641</vAcc></extensions></trkpt>
      <trkpt lon="-2.261737" lat="53.110755"><ele>108.090088</ele><time>2022-03-04T10:01:16Z</time><extensions><speed>1.195197</speed><course>224.434158</course><hAcc>1.571402</hAcc><vAcc>0.827671</vAcc></extensions></trkpt>
      <trkpt lon="-2.261749" lat="53.110747"><ele>108.025597</ele><time>2022-03-04T10:01:17Z</time><extensions><speed>1.267133</speed><course>222.009796</course><hAcc>1.570890</hAcc><vAcc>0.827703</vAcc></extensions></trkpt>
      <trkpt lon="-2.261762" lat="53.110738"><ele>107.962784</ele><time>2022-03-04T10:01:18Z</time><extensions><speed>1.378736</speed><course>220.530609</course><hAcc>1.543123</hAcc><vAcc>0.827748</vAcc></extensions></trkpt>
      <trkpt lon="-2.261776" lat="53.110729"><ele>107.900780</ele><time>2022-03-04T10:01:18Z</time><extensions><speed>1.480786</speed><course>219.733765</course><hAcc>1.505731</hAcc><vAcc>0.827800</vAcc></extensions></trkpt>
      <trkpt lon="-2.261791" lat="53.110719"><ele>107.849663</ele><time>2022-03-04T10:01:19Z</time><extensions><speed>1.569635</speed><course>223.559143</course><hAcc>1.481466</hAcc><vAcc>0.827869</vAcc></extensions></trkpt>
      <trkpt lon="-2.261808" lat="53.110709"><ele>107.810165</ele><time>2022-03-04T10:01:20Z</time><extensions><speed>1.644292</speed><course>228.284073</course><hAcc>1.502405</hAcc><vAcc>0.827936</vAcc></extensions></trkpt>
      <trkpt lon="-2.261825" lat="53.110699"><ele>107.754364</ele><time>2022-03-04T10:01:21Z</time><extensions><speed>1.625299</speed><course>228.257599</course><hAcc>1.465734</hAcc><vAcc>0.828000</vAcc></extensions></trkpt>
      <trkpt lon="-2.261843" lat="53.110689"><ele>107.706100</ele><time>2022-03-04T10:01:22Z</time><extensions><speed>1.607124</speed><course>226.887085</course><hAcc>1.433144</hAcc><vAcc>0.828070</vAcc></extensions></trkpt>
      <trkpt lon="-2.261860" lat="53.110679"><ele>107.669250</ele><time>2022-03-04T10:01:23Z</time><extensions><speed>1.573469</speed><course>224.903931</course><hAcc>1.405389</hAcc><vAcc>0.828131</vAcc></extensions></trkpt>
      <trkpt lon="-2.261875" lat="53.110669"><ele>107.641579</ele><time>2022-03-04T10:01:24Z</time><extensions><speed>1.574417</speed><course>221.702667</course><hAcc>1.388682</hAcc><vAcc>0.828179</vAcc></extensions></trkpt>
      <trkpt lon="-2.261891" lat="53.110659"><ele>107.612793</ele><time>2022-03-04T10:01:25Z</time><extensions><speed>1.617912</speed><course>223.482254</course><hAcc>1.387241</hAcc><vAcc>0.828221</vAcc></extensions></trkpt>
      <trkpt lon="-2.261907" lat="53.110648"><ele>107.581245</ele><time>2022-03-04T10:01:26Z</time><extensions><speed>1.592387</speed><course>223.828110</course><hAcc>1.374937</hAcc><vAcc>0.828256</vAcc></extensions></trkpt>
      <trkpt lon="-2.261923" lat="53.110638"><ele>107.547440</ele><time>2022-03-04T10:01:27Z</time><extensions><speed>1.533533</speed><course>226.276718</course><hAcc>1.360313</hAcc><vAcc>0.828284</vAcc></extensions></trkpt>
      <trkpt lon="-2.261940" lat="53.110629"><ele>107.523567</ele><time>2022-03-04T10:01:28Z</time><extensions><speed>1.528795</speed><course>228.330933</course><hAcc>1.359318</hAcc><vAcc>0.828314</vAcc></extensions></trkpt>
      <trkpt lon="-2.261957" lat="53.110620"><ele>107.521217</ele><time>2022-03-04T10:01:29Z</time><extensions><speed>1.526940</speed><course>232.566223</course><hAcc>1.360530</hAcc><vAcc>0.828314</vAcc></extensions></trkpt>
      <trkpt lon="-2.261974" lat="53.110612"><ele>107.499245</ele><time>2022-03-04T10:01:30Z</time><extensions><speed>1.487123</speed><course>234.240692</course><hAcc>1.345149</hAcc><vAcc>0.828310</vAcc></extensions></trkpt>
      <trkpt lon="-2.261992" lat="53.110605"><ele>107.495369</ele><time>2022-03-04T10:01:31Z</time><extensions><speed>1.514680</speed><course>235.364456</course><hAcc>1.345648</hAcc><vAcc>0.828294</vAcc></extensions></trkpt>
      <trkpt lon="-2.262011" lat="53.110597"><ele>107.498444</ele><time>2022-03-04T10:01:32Z</time><extensions><speed>1.571931</speed><course>233.609497</course><hAcc>1.354925</hAcc><vAcc>0.828262</vAcc></extensions></trkpt>
      <trkpt lon="-2.262029" lat="53.110588"><ele>107.504875</ele><time>2022-03-04T10:01:33Z</time><extensions><speed>1.558638</speed><course>231.942612</course><hAcc>1.351969</hAcc><vAcc>0.828206</vAcc></extensions></trkpt>
      <trkpt lon="-2.262047" lat="53.110580"><ele>107.504196</ele><time>2022-03-04T10:01:34Z</time><extensions><speed>1.510439</speed><course>235.892914</course><hAcc>1.353556</hAcc><vAcc>0.828145</vAcc></extensions></trkpt>
      <trkpt lon="-2.262065" lat="53.110572"><ele>107.507805</ele><time>2022-03-04T10:01:35Z</time><extensions><speed>1.520690</speed><course>234.543045</course><hAcc>1.353443</hAcc><vAcc>0.828074</vAcc></extensions></trkpt>
      <trkpt lon="-2.262083" lat="53.110564"><ele>107.508385</ele><time>2022-03-04T10:01:36Z</time><extensions><speed>1.544380</speed><course>232.454971</course><hAcc>1.369948</hAcc><vAcc>0.827986</vAcc></extensions></trkpt>
      <trkpt lon="-2.262102" lat="53.110556"><ele>107.515076</ele><time>2022-03-04T10:01:37Z</time><extensions><speed>1.524816</speed><course>233.775543</course><hAcc>1.384851</hAcc><vAcc>0.827891</vAcc></extensions></trkpt>
      <trkpt lon="-2.262120" lat="53.110549"><ele>107.528496</ele><time>2022-03-04T10:01:38Z</time><extensions><speed>1.449915</speed><course>238.082169</course><hAcc>1.394977</hAcc><vAcc>0.827786</vAcc></extensions></trkpt>
      <trkpt lon="-2.262139" lat="53.110542"><ele>107.540833</ele><time>2022-03-04T10:01:39Z</time><extensions><speed>1.517028</speed><course>239.512726</course><hAcc>1.424009</hAcc><vAcc>0.827679</vAcc></extensions></trkpt>
      <trkpt lon="-2.262158" lat="53.110535"><ele>107.544670</ele><time>2022-03-04T10:01:40Z</time><extensions><speed>1.475814</speed><course>239.812454</course><hAcc>1.440444</hAcc><vAcc>0.827575</vAcc></extensions></trkpt>
      <trkpt lon="-2.262176" lat="53.110528"><ele>107.554779</ele><time>2022-03-04T10:01:41Z</time><extensions><speed>1.392319</speed><course>239.900070</course><hAcc>1.446917</hAcc><vAcc>0.827466</vAcc></extensions></trkpt>
      <trkpt lon="-2.262193" lat="53.110522"><ele>107.565857</ele><time>2022-03-04T10:01:42Z</time><extensions><speed>1.292470</speed><course>239.710846</course><hAcc>1.459911</hAcc><vAcc>0.827380</vAcc></extensions></trkpt>
      <trkpt lon="-2.262210" lat="53.110516"><ele>107.575790</ele><time>2022-03-04T10:01:43Z</time><extensions><speed>1.293957</speed><course>238.488251</course><hAcc>1.482258</hAcc><vAcc>0.827293</vAcc></extensions></trkpt>
      <trkpt lon="-2.262227" lat="53.110510"><ele>107.587128</ele><time>2022-03-04T10:01:44Z</time><extensions><speed>1.439070</speed><course>239.969376</course><hAcc>1.518270</hAcc><vAcc>0.827226</vAcc></extensions></trkpt>
      <trkpt lon="-2.262246" lat="53.110504"><ele>107.600670</ele><time>2022-03-04T10:01:45Z</time><extensions><speed>1.488481</speed><course>241.083893</course><hAcc>1.538697</hAcc><vAcc>0.827187</vAcc></extensions></trkpt>
      <trkpt lon="-2.262265" lat="53.110497"><ele>107.603012</ele><time>2022-03-04T10:01:46Z</time><extensions><speed>1.481125</speed><course>240.342651</course><hAcc>1.502702</hAcc><vAcc>0.827179</vAcc></extensions></trkpt>
      <trkpt lon="-2.262284" lat="53.110491"><ele>107.617584</ele><time>2022-03-04T10:01:47Z</time><extensions><speed>1.435685</speed><course>239.450485</course><hAcc>1.456768</hAcc><vAcc>0.827199</vAcc></extensions></trkpt>
      <trkpt lon="-2.262303" lat="53.110484"><ele>107.606079</ele><time>2022-03-04T10:01:48Z</time><extensions><speed>1.482318</speed><course>240.071152</course><hAcc>1.433692</hAcc><vAcc>0.827254</vAcc></extensions></trkpt>
      <trkpt lon="-2.262322" lat="53.110478"><ele>107.593346</ele><time>2022-03-04T10:01:49Z</time><extensions><speed>1.548459</speed><course>242.784256</course><hAcc>1.446067</hAcc><vAcc>0.827334</vAcc></extensions></trkpt>
      <trkpt lon="-2.262343" lat="53.110473"><ele>107.569672</ele><time>2022-03-04T10:01:50Z</time><extensions><speed>1.543269</speed><course>248.488968</course><hAcc>1.428655</hAcc><vAcc>0.827418</vAcc></extensions></trkpt>
      <trkpt lon="-2.262364" lat="53.110467"><ele>107.549522</ele><time>2022-03-04T10:01:51Z</time><extensions><speed>1.550921</speed><course>243.781815</course><hAcc>1.417775</hAcc><vAcc>0.827523</vAcc></extensions></trkpt>
      <trkpt lon="-2.262384" lat="53.110460"><ele>107.530037</ele><time>2022-03-04T10:01:52Z</time><extensions><speed>1.541137</speed><course>235.419861</course><hAcc>1.398088</hAcc><vAcc>0.827646</vAcc></extensions></trkpt>
      <trkpt lon="-2.262403" lat="53.110452"><ele>107.495285</ele><time>2022-03-04T10:01:53Z</time><extensions><speed>1.548729</speed><course>236.467087</course><hAcc>1.386254</hAcc><vAcc>0.827778</vAcc></extensions></trkpt>
      <trkpt lon="-2.262423" lat="53.110445"><ele>107.464188</ele><time>2022-03-04T10:01:54Z</time><extensions><speed>1.546581</speed><course>240.520752</course><hAcc>1.386313</hAcc><vAcc>0.827927</vAcc></extensions></trkpt>
      <trkpt lon="-2.262443" lat="53.110439"><ele>107.426620</ele><time>2022-03-04T10:01:55Z</time><extensions><speed>1.517725</speed><course>242.813644</course><hAcc>1.385472</hAcc><vAcc>0.828078</vAcc></extensions></trkpt>
      <trkpt lon="-2.262463" lat="53.110432"><ele>107.393280</ele><time>2022-03-04T10:01:56Z</time><extensions><speed>1.502773</speed><course>242.091232</course><hAcc>1.388662</hAcc><vAcc>0.828220</vAcc></extensions></trkpt>
      <trkpt lon="-2.262483" lat="53.110426"><ele>107.371735</ele><time>2022-03-04T10:01:57Z</time><extensions><speed>1.500854</speed><course>242.572830</course><hAcc>1.403236</hAcc><vAcc>0.828339</vAcc></extensions></trkpt>
      <trkpt lon="-2.262503" lat="53.110420"><ele>107.340439</ele><time>2022-03-04T10:01:58Z</time><extensions><speed>1.493371</speed><course>244.828079</course><hAcc>1.423281</hAcc><vAcc>0.828443</vAcc></extensions></trkpt>
      <trkpt lon="-2.262522" lat="53.110415"><ele>107.328255</ele><time>2022-03-04T10:01:59Z</time><extensions><speed>1.392923</speed><course>245.253281</course><hAcc>1.429140</hAcc><vAcc>0.828535</vAcc></extensions></trkpt>
      <trkpt lon="-2.262541" lat="53.110410"><ele>107.316170</ele><time>2022-03-04T10:02:00Z</time><extensions><speed>1.363482</speed><course>244.674393</course><hAcc>1.460257</hAcc><vAcc>0.828613</vAcc></extensions></trkpt>
      <trkpt lon="-2.262559" lat="53.110404"><ele>107.320259</ele><time>2022-03-04T10:02:01Z</time><extensions><speed>1.373390</speed><course>243.407990</course><hAcc>1.501997</hAcc><vAcc>0.828665</vAcc></extensions></trkpt>
      <trkpt lon="-2.262577" lat="53.110399"><ele>107.329704</ele><time>2022-03-04T10:02:02Z</time><extensions><speed>1.317138</speed><course>243.623672</course><hAcc>1.506921</hAcc><vAcc>0.828713</vAcc></extensions></trkpt>
      <trkpt lon="-2.262595" lat="53.110394"><ele>107.345505</ele><time>2022-03-04T10:02:03Z</time><extensions><speed>1.263779</speed><course>247.378677</course><hAcc>1.526758</hAcc><vAcc>0.828737</vAcc></extensions></trkpt>
      <trkpt lon="-2.262612" lat="53.110390"><ele>107.366272</ele><time>2022-03-04T10:02:04Z</time><extensions><speed>1.240144</speed><course>251.562561</course><hAcc>1.570417</hAcc><vAcc>0.828738</vAcc></extensions></trkpt>
      <trkpt lon="-2.262630" lat="53.110387"><ele>107.393333</ele><time>2022-03-04T10:02:05Z</time><extensions><speed>1.219274</speed><course>252.915939</course><hAcc>1.617818</hAcc><vAcc>0.828716</vAcc></extensions></trkpt>
      <trkpt lon="-2.262647" lat="53.110383"><ele>107.436012</ele><time>2022-03-04T10:02:06Z</time><extensions><speed>1.255926</speed><course>249.484787</course><hAcc>1.660945</hAcc><vAcc>0.828670</vAcc></extensions></trkpt>
      <trkpt lon="-2.262664" lat="53.110379"><ele>107.465126</ele><time>2022-03-04T10:02:07Z</time><extensions><speed>1.267092</speed><course>244.932739</course><hAcc>1.674109</hAcc><vAcc>0.828616</vAcc></extensions></trkpt>
      <trkpt lon="-2.262682" lat="53.110374"><ele>107.512985</ele><time>2022-03-04T10:02:08Z</time><extensions><speed>1.320618</speed><course>243.337173</course><hAcc>1.668255</hAcc><vAcc>0.828554</vAcc></extensions></trkpt>
      <trkpt lon="-2.262700" lat="53.110368"><ele>107.571281</ele><time>2022-03-04T10:02:09Z</time><extensions><speed>1.354978</speed><course>244.828705</course><hAcc>1.645869</hAcc><vAcc>0.828482</vAcc></extensions></trkpt>
      <trkpt lon="-2.262718" lat="53.110363"><ele>107.628258</ele><time>2022-03-04T10:02:10Z</time><extensions><speed>1.369594</speed><course>245.246658</course><hAcc>1.612752</hAcc><vAcc>0.828402</vAcc></extensions></trkpt>
      <trkpt lon="-2.262737" lat="53.110358"><ele>107.677887</ele><time>2022-03-04T10:02:11Z</time><extensions><speed>1.424608</speed><course>245.500732</course><hAcc>1.592392</hAcc><vAcc>0.828310</vAcc></extensions></trkpt>
      <trkpt lon="-2.262757" lat="53.110352"><ele>107.726967</ele><time>2022-03-04T10:02:12Z</time><extensions><speed>1.470946</speed><course>246.353943</course><hAcc>1.602018</hAcc><vAcc>0.828206</vAcc></extensions></trkpt>
      <trkpt lon="-2.262777" lat="53.110347"><ele>107.776794</ele><time>2022-03-04T10:02:13Z</time><extensions><speed>1.476891</speed><course>244.624557</course><hAcc>1.586120</hAcc><vAcc>0.828101</vAcc></extensions></trkpt>
      <trkpt lon="-2.262797" lat="53.110341"><ele>107.823181</ele><time>2022-03-04T10:02:14Z</time><extensions><speed>1.452127</speed><course>244.021194</course><hAcc>1.576677</hAcc><vAcc>0.827984</vAcc></extensions></trkpt>
      <trkpt lon="-2.262816" lat="53.110335"><ele>107.861229</ele><time>2022-03-04T10:02:15Z</time><extensions><speed>1.444655</speed><course>242.935165</course><hAcc>1.561897</hAcc><vAcc>0.827855</vAcc></extensions></trkpt>
      <trkpt lon="-2.262835" lat="53.110329"><ele>107.903282</ele><time>2022-03-04T10:02:16Z</time><extensions><speed>1.475084</speed><course>241.049225</course><hAcc>1.550993</hAcc><vAcc>0.827735</vAcc></extensions></trkpt>
      <trkpt lon="-2.262855" lat="53.110322"><ele>107.945930</ele><time>2022-03-04T10:02:17Z</time><extensions><speed>1.498476</speed><course>238.526306</course><hAcc>1.557658</hAcc><vAcc>0.827620</vAcc></extensions></trkpt>
      <trkpt lon="-2.262874" lat="53.110315"><ele>107.952698</ele><time>2022-03-04T10:02:18Z</time><extensions><speed>1.499007</speed><course>237.496048</course><hAcc>1.578822</hAcc><vAcc>0.827513</vAcc></extensions></trkpt>
      <trkpt lon="-2.262892" lat="53.110308"><ele>107.967560</ele><time>2022-03-04T10:02:19Z</time><extensions><speed>1.470383</speed><course>238.819977</course><hAcc>1.584407</hAcc><vAcc>0.827402</vAcc></extensions></trkpt>
      <trkpt lon="-2.262912" lat="53.110302"><ele>107.977112</ele><time>2022-03-04T10:02:20Z</time><extensions><speed>1.472979</speed><course>241.404800</course><hAcc>1.591488</hAcc><vAcc>0.827307</vAcc></extensions></trkpt>
      <trkpt lon="-2.262931" lat="53.110296"><ele>107.995232</ele><time>2022-03-04T10:02:21Z</time><extensions><speed>1.435349</speed><course>243.533356</course><hAcc>1.596170</hAcc><vAcc>0.827221</vAcc></extensions></trkpt>
      <trkpt lon="-2.262949" lat="53.110290"><ele>108.007103</ele><time>2022-03-04T10:02:22Z</time><extensions><speed>1.402670</speed><course>243.006897</course><hAcc>1.590842</hAcc><vAcc>0.827156</vAcc></extensions></trkpt>
      <trkpt lon="-2.262968" lat="53.110284"><ele>108.019547</ele><time>2022-03-04T10:02:23Z</time><extensions><speed>1.398297</speed><course>242.203201</course><hAcc>1.590119</hAcc><vAcc>0.827112</vAcc></extensions></trkpt>
      <trkpt lon="-2.262986" lat="53.110278"><ele>108.024742</ele><time>2022-03-04T10:02:24Z</time><extensions><speed>1.423571</speed><course>240.398666</course><hAcc>1.545061</hAcc><vAcc>0.827094</vAcc></extensions></trkpt>
      <trkpt lon="-2.263005" lat="53.110272"><ele>108.027390</ele><time>2022-03-04T10:02:25Z</time><extensions><speed>1.485084</speed><course>239.005310</course><hAcc>1.520783</hAcc><vAcc>0.827099</vAcc></extensions></trkpt>
      <trkpt lon="-2.263023" lat="53.110265"><ele>108.032593</ele><time>2022-03-04T10:02:26Z</time><extensions><speed>1.488164</speed><course>238.861588</course><hAcc>1.544453</hAcc><vAcc>0.827114</vAcc></extensions></trkpt>
      <trkpt lon="-2.263043" lat="53.110258"><ele>108.033524</ele><time>2022-03-04T10:02:27Z</time><extensions><speed>1.586333</speed><course>241.849884</course><hAcc>1.528606</hAcc><vAcc>0.827151</vAcc></extensions></trkpt>
      <trkpt lon="-2.263065" lat="53.110252"><ele>108.028191</ele><time>2022-03-04T10:02:28Z</time><extensions><speed>1.626930</speed><course>250.882263</course><hAcc>1.504989</hAcc><vAcc>0.827213</vAcc></extensions></trkpt>
      <trkpt lon="-2.263087" lat="53.110247"><ele>108.034157</ele><time>2022-03-04T10:02:29Z</time><extensions><speed>1.576687</speed><course>249.453873</course><hAcc>1.450510</hAcc><vAcc>0.827283</vAcc></extensions></trkpt>
      <trkpt lon="-2.263109" lat="53.110242"><ele>108.034821</ele><time>2022-03-04T10:02:30Z</time><extensions><speed>1.559258</speed><course>246.644058</course><hAcc>1.427137</hAcc><vAcc>0.827368</vAcc></extensions></trkpt>
      <trkpt lon="-2.263130" lat="53.110235"><ele>108.037437</ele><time>2022-03-04T10:02:32Z</time><extensions><speed>1.603226</speed><course>241.455109</course><hAcc>1.434915</hAcc><vAcc>0.827466</vAcc></extensions></trkpt>
      <trkpt lon="-2.263150" lat="53.110228"><ele>108.035095</ele><time>2022-03-04T10:02:33Z</time><extensions><speed>1.583095</speed><course>237.980911</course><hAcc>1.436680</hAcc><vAcc>0.827547</vAcc></extensions></trkpt>
      <trkpt lon="-2.263170" lat="53.110221"><ele>108.030045</ele><time>2022-03-04T10:02:34Z</time><extensions><speed>1.547440</speed><course>237.376984</course><hAcc>1.411507</hAcc><vAcc>0.827619</vAcc></extensions></trkpt>
      <trkpt lon="-2.263189" lat="53.110213"><ele>108.019188</ele><time>2022-03-04T10:02:35Z</time><extensions><speed>1.542673</speed><course>240.698822</course><hAcc>1.391690</hAcc><vAcc>0.827698</vAcc></extensions></trkpt>
      <trkpt lon="-2.263210" lat="53.110207"><ele>108.001892</ele><time>2022-03-04T10:02:36Z</time><extensions><speed>1.561067</speed><course>242.480118</course><hAcc>1.383390</hAcc><vAcc>0.827771</vAcc></extensions></trkpt>
      <trkpt lon="-2.263230" lat="53.110200"><ele>107.987213</ele><time>2022-03-04T10:02:37Z</time><extensions><speed>1.572366</speed><course>239.394150</course><hAcc>1.375142</hAcc><vAcc>0.827843</vAcc></extensions></trkpt>
      <trkpt lon="-2.263249" lat="53.110193"><ele>107.963005</ele><time>2022-03-04T10:02:38Z</time><extensions><speed>1.494027</speed><course>237.269241</course><hAcc>1.362530</hAcc><vAcc>0.827912</vAcc></extensions></trkpt>
      <trkpt lon="-2.263267" lat="53.110186"><ele>107.929100</ele><time>2022-03-04T10:02:39Z</time><extensions><speed>1.454781</speed><course>236.920197</course><hAcc>1.356093</hAcc><vAcc>0.827976</vAcc></extensions></trkpt>
      <trkpt lon="-2.263285" lat="53.110179"><ele>107.895210</ele><time>2022-03-04T10:02:40Z</time><extensions><speed>1.477621</speed><course>236.811615</course><hAcc>1.362567</hAcc><vAcc>0.828030</vAcc></extensions></trkpt>
      <trkpt lon="-2.263303" lat="53.110171"><ele>107.855087</ele><time>2022-03-04T10:02:41Z</time><extensions><speed>1.442384</speed><course>236.637192</course><hAcc>1.344905</hAcc><vAcc>0.828075</vAcc></extensions></trkpt>
      <trkpt lon="-2.263321" lat="53.110164"><ele>107.810539</ele><time>2022-03-04T10:02:42Z</time><extensions><speed>1.455405</speed><course>235.905701</course><hAcc>1.341478</hAcc><vAcc>0.828121</vAcc></extensions></trkpt>
      <trkpt lon="-2.263339" lat="53.110157"><ele>107.763458</ele><time>2022-03-04T10:02:43Z</time><extensions><speed>1.465757</speed><course>235.465332</course><hAcc>1.335629</hAcc><vAcc>0.828165</vAcc></extensions></trkpt>
      <trkpt lon="-2.263357" lat="53.110149"><ele>107.715012</ele><time>2022-03-04T10:02:44Z</time><extensions><speed>1.541632</speed><course>235.566177</course><hAcc>1.347544</hAcc><vAcc>0.828202</vAcc></extensions></trkpt>
      <trkpt lon="-2.263375" lat="53.110141"><ele>107.662453</ele><time>2022-03-04T10:02:45Z</time><extensions><speed>1.506465</speed><course>233.994141</course><hAcc>1.331054</hAcc><vAcc>0.828247</vAcc></extensions></trkpt>
      <trkpt lon="-2.263393" lat="53.110133"><ele>107.608482</ele><time>2022-03-04T10:02:46Z</time><extensions><speed>1.516818</speed><course>232.442078</course><hAcc>1.333864</hAcc><vAcc>0.828279</vAcc></extensions></trkpt>
      <trkpt lon="-2.263411" lat="53.110125"><ele>107.568695</ele><time>2022-03-04T10:02:47Z</time><extensions><speed>1.495388</speed><course>232.306503</course><hAcc>1.328301</hAcc><vAcc>0.828315</vAcc></extensions></trkpt>
      <trkpt lon="-2.263428" lat="53.110117"><ele>107.523582</ele><time>2022-03-04T10:02:48Z</time><extensions><speed>1.509475</speed><course>231.298660</course><hAcc>1.333760</hAcc><vAcc>0.828342</vAcc></extensions></trkpt>
      <trkpt lon="-2.263446" lat="53.110109"><ele>107.475754</ele><time>2022-03-04T10:02:49Z</time><extensions><speed>1.523197</speed><course>230.886108</course><hAcc>1.336932</hAcc><vAcc>0.828385</vAcc></extensions></trkpt>
      <trkpt lon="-2.263463" lat="53.110100"><ele>107.431038</ele><time>2022-03-04T10:02:50Z</time><extensions><speed>1.501444</speed><course>229.908478</course><hAcc>1.331272</hAcc><vAcc>0.828420</vAcc></extensions></trkpt>
      <trkpt lon="-2.263480" lat="53.110091"><ele>107.392715</ele><time>2022-03-04T10:02:51Z</time><extensions><speed>1.494946</speed><course>228.505859</course><hAcc>1.335662</hAcc><vAcc>0.828455</vAcc></extensions></trkpt>
      <trkpt lon="-2.263497" lat="53.110082"><ele>107.354797</ele><time>2022-03-04T10:02:52Z</time><extensions><speed>1.513316</speed><course>226.869766</course><hAcc>1.334479</hAcc><vAcc>0.828486</vAcc></extensions></trkpt>
      <trkpt lon="-2.263513" lat="53.110073"><ele>107.310272</ele><time>2022-03-04T10:02:53Z</time><extensions><speed>1.484710</speed><course>228.419067</course><hAcc>1.326209</hAcc><vAcc>0.828502</vAcc></extensions></trkpt>
      <trkpt lon="-2.263530" lat="53.110065"><ele>107.279129</ele><time>2022-03-04T10:02:54Z</time><extensions><speed>1.512703</speed><course>231.951859</course><hAcc>1.342625</hAcc><vAcc>0.828514</vAcc></extensions></trkpt>
      <trkpt lon="-2.263548" lat="53.110057"><ele>107.249016</ele><time>2022-03-04T10:02:55Z</time><extensions><speed>1.491078</speed><course>235.821518</course><hAcc>1.342408</hAcc><vAcc>0.828511</vAcc></extensions></trkpt>
      <trkpt lon="-2.263566" lat="53.110049"><ele>107.228775</ele><time>2022-03-04T10:02:56Z</time><extensions><speed>1.512866</speed><course>236.577866</course><hAcc>1.359322</hAcc><vAcc>0.828497</vAcc></extensions></trkpt>
      <trkpt lon="-2.263584" lat="53.110042"><ele>107.216850</ele><time>2022-03-04T10:02:57Z</time><extensions><speed>1.472926</speed><course>236.891266</course><hAcc>1.355678</hAcc><vAcc>0.828478</vAcc></extensions></trkpt>
      <trkpt lon="-2.263603" lat="53.110035"><ele>107.203148</ele><time>2022-03-04T10:02:58Z</time><extensions><speed>1.462860</speed><course>239.928619</course><hAcc>1.358147</hAcc><vAcc>0.828461</vAcc></extensions></trkpt>
      <trkpt lon="-2.263622" lat="53.110028"><ele>107.198952</ele><time>2022-03-04T10:02:59Z</time><extensions><speed>1.447978</speed><course>241.093842</course><hAcc>1.371444</hAcc><vAcc>0.828442</vAcc></extensions></trkpt>
      <trkpt lon="-2.263640" lat="53.110022"><ele>107.204048</ele><time>2022-03-04T10:03:00Z</time><extensions><speed>1.444808</speed><course>241.452499</course><hAcc>1.379333</hAcc><vAcc>0.828431</vAcc></extensions></trkpt>
      <trkpt lon="-2.263659" lat="53.110016"><ele>107.214684</ele><time>2022-03-04T10:03:01Z</time><extensions><speed>1.470824</speed><course>236.425995</course><hAcc>1.387868</hAcc><vAcc>0.828424</vAcc></extensions></trkpt>
      <trkpt lon="-2.263677" lat="53.110008"><ele>107.223305</ele><time>2022-03-04T10:03:02Z</time><extensions><speed>1.535614</speed><course>231.841003</course><hAcc>1.397027</hAcc><vAcc>0.828417</vAcc></extensions></trkpt>
      <trkpt lon="-2.263695" lat="53.109999"><ele>107.230766</ele><time>2022-03-04T10:03:03Z</time><extensions><speed>1.538050</speed><course>231.708710</course><hAcc>1.407549</hAcc><vAcc>0.828419</vAcc></extensions></trkpt>
      <trkpt lon="-2.263712" lat="53.109991"><ele>107.247818</ele><time>2022-03-04T10:03:04Z</time><extensions><speed>1.562759</speed><course>230.244873</course><hAcc>1.413624</hAcc><vAcc>0.828433</vAcc></extensions></trkpt>
      <trkpt lon="-2.263730" lat="53.109982"><ele>107.277901</ele><time>2022-03-04T10:03:05Z</time><extensions><speed>1.608726</speed><course>229.371475</course><hAcc>1.428045</hAcc><vAcc>0.828453</vAcc></extensions></trkpt>
      <trkpt lon="-2.263748" lat="53.109972"><ele>107.306976</ele><time>2022-03-04T10:03:06Z</time><extensions><speed>1.618960</speed><course>230.195312</course><hAcc>1.440672</hAcc><vAcc>0.828473</vAcc></extensions></trkpt>
      <trkpt lon="-2.263767" lat="53.109963"><ele>107.320808</ele><time>2022-03-04T10:03:07Z</time><extensions><speed>1.600977</speed><course>231.561890</course><hAcc>1.445438</hAcc><vAcc>0.828519</vAcc></extensions></trkpt>
      <trkpt lon="-2.263784" lat="53.109955"><ele>107.343117</ele><time>2022-03-04T10:03:08Z</time><extensions><speed>1.501627</speed><course>231.224945</course><hAcc>1.440678</hAcc><vAcc>0.828549</vAcc></extensions></trkpt>
      <trkpt lon="-2.263802" lat="53.109946"><ele>107.373108</ele><time>2022-03-04T10:03:09Z</time><extensions><speed>1.531633</speed><course>231.348450</course><hAcc>1.465708</hAcc><vAcc>0.828585</vAcc></extensions></trkpt>
      <trkpt lon="-2.263820" lat="53.109938"><ele>107.396408</ele><time>2022-03-04T10:03:10Z</time><extensions><speed>1.499008</speed><course>236.475327</course><hAcc>1.454346</hAcc><vAcc>0.828633</vAcc></extensions></trkpt>
      <trkpt lon="-2.263838" lat="53.109931"><ele>107.426895</ele><time>2022-03-04T10:03:11Z</time><extensions><speed>1.475837</speed><course>235.907608</course><hAcc>1.449017</hAcc><vAcc>0.828674</vAcc></extensions></trkpt>
      <trkpt lon="-2.263856" lat="53.109923"><ele>107.459129</ele><time>2022-03-04T10:03:12Z</time><extensions><speed>1.555130</speed><course>233.888992</course><hAcc>1.471706</hAcc><vAcc>0.828694</vAcc></extensions></trkpt>
      <trkpt lon="-2.263874" lat="53.109915"><ele>107.494164</ele><time>2022-03-04T10:03:13Z</time><extensions><speed>1.524508</speed><course>233.539703</course><hAcc>1.464589</hAcc><vAcc>0.828711</vAcc></extensions></trkpt>
      <trkpt lon="-2.263892" lat="53.109907"><ele>107.542351</ele><time>2022-03-04T10:03:14Z</time><extensions><speed>1.517403</speed><course>233.290970</course><hAcc>1.451917</hAcc><vAcc>0.828731</vAcc></extensions></trkpt>
      <trkpt lon="-2.263910" lat="53.109898"><ele>107.583855</ele><time>2022-03-04T10:03:15Z</time><extensions><speed>1.488362</speed><course>230.932846</course><hAcc>1.432117</hAcc><vAcc>0.828750</vAcc></extensions></trkpt>
      <trkpt lon="-2.263926" lat="53.109889"><ele>107.631783</ele><time>2022-03-04T10:03:16Z</time><extensions><speed>1.563242</speed><course>225.594101</course><hAcc>1.442894</hAcc><vAcc>0.828791</vAcc></extensions></trkpt>
      <trkpt lon="-2.263943" lat="53.109880"><ele>107.696869</ele><time>2022-03-04T10:03:17Z</time><extensions><speed>1.529518</speed><course>226.002975</course><hAcc>1.437894</hAcc><vAcc>0.828824</vAcc></extensions></trkpt>
      <trkpt lon="-2.263960" lat="53.109870"><ele>107.760109</ele><time>2022-03-04T10:03:18Z</time><extensions><speed>1.564722</speed><course>227.666504</course><hAcc>1.431468</hAcc><vAcc>0.828839</vAcc></extensions></trkpt>
      <trkpt lon="-2.263977" lat="53.109861"><ele>107.823586</ele><time>2022-03-04T10:03:19Z</time><extensions><speed>1.573489</speed><course>230.645905</course><hAcc>1.429911</hAcc><vAcc>0.828858</vAcc></extensions></trkpt>
      <trkpt lon="-2.263995" lat="53.109852"><ele>107.900902</ele><time>2022-03-04T10:03:20Z</time><extensions><speed>1.540537</speed><course>232.491531</course><hAcc>1.426381</hAcc><vAcc>0.828873</vAcc></extensions></trkpt>
      <trkpt lon="-2.264014" lat="53.109844"><ele>107.980537</ele><time>2022-03-04T10:03:20Z</time><extensions><speed>1.534451</speed><course>235.448273</course><hAcc>1.428842</hAcc><vAcc>0.828875</vAcc></extensions></trkpt>
      <trkpt lon="-2.264032" lat="53.109836"><ele>108.052895</ele><time>2022-03-04T10:03:21Z</time><extensions><speed>1.596013</speed><course>233.448441</course><hAcc>1.441227</hAcc><vAcc>0.828857</vAcc></extensions></trkpt>
      <trkpt lon="-2.264051" lat="53.109827"><ele>108.117882</ele><time>2022-03-04T10:03:22Z</time><extensions><speed>1.604592</speed><course>229.076889</course><hAcc>1.448994</hAcc><vAcc>0.828831</vAcc></extensions></trkpt>
      <trkpt lon="-2.264068" lat="53.109818"><ele>108.181305</ele><time>2022-03-04T10:03:23Z</time><extensions><speed>1.578137</speed><course>228.442657</course><hAcc>1.452728</hAcc><vAcc>0.828776</vAcc></extensions></trkpt>
      <trkpt lon="-2.264086" lat="53.109809"><ele>108.239845</ele><time>2022-03-04T10:03:24Z</time><extensions><speed>1.513235</speed><course>228.639206</course><hAcc>1.440880</hAcc><vAcc>0.828693</vAcc></extensions></trkpt>
      <trkpt lon="-2.264102" lat="53.109800"><ele>108.298775</ele><time>2022-03-04T10:03:25Z</time><extensions><speed>1.504838</speed><course>229.230667</course><hAcc>1.448886</hAcc><vAcc>0.828588</vAcc></extensions></trkpt>
      <trkpt lon="-2.264120" lat="53.109791"><ele>108.363045</ele><time>2022-03-04T10:03:26Z</time><extensions><speed>1.579906</speed><course>231.956299</course><hAcc>1.472361</hAcc><vAcc>0.828462</vAcc></extensions></trkpt>
      <trkpt lon="-2.264138" lat="53.109783"><ele>108.407784</ele><time>2022-03-04T10:03:27Z</time><extensions><speed>1.501855</speed><course>232.823166</course><hAcc>1.467498</hAcc><vAcc>0.828304</vAcc></extensions></trkpt>
      <trkpt lon="-2.264155" lat="53.109775"><ele>108.429092</ele><time>2022-03-04T10:03:28Z</time><extensions><speed>1.505928</speed><course>230.960449</course><hAcc>1.475289</hAcc><vAcc>0.828128</vAcc></extensions></trkpt>
      <trkpt lon="-2.264172" lat="53.109767"><ele>108.444138</ele><time>2022-03-04T10:03:29Z</time><extensions><speed>1.499544</speed><course>231.837936</course><hAcc>1.472353</hAcc><vAcc>0.827939</vAcc></extensions></trkpt>
      <trkpt lon="-2.264189" lat="53.109758"><ele>108.455879</ele><time>2022-03-04T10:03:30Z</time><extensions><speed>1.533138</speed><course>232.897568</course><hAcc>1.492055</hAcc><vAcc>0.827745</vAcc></extensions></trkpt>
      <trkpt lon="-2.264207" lat="53.109751"><ele>108.467377</ele><time>2022-03-04T10:03:31Z</time><extensions><speed>1.480853</speed><course>235.453888</course><hAcc>1.489821</hAcc><vAcc>0.827552</vAcc></extensions></trkpt>
      <trkpt lon="-2.264225" lat="53.109744"><ele>108.467026</ele><time>2022-03-04T10:03:32Z</time><extensions><speed>1.366316</speed><course>240.362228</course><hAcc>1.474568</hAcc><vAcc>0.827371</vAcc></extensions></trkpt>
      <trkpt lon="-2.264242" lat="53.109738"><ele>108.441216</ele><time>2022-03-04T10:03:33Z</time><extensions><speed>1.350180</speed><course>241.445312</course><hAcc>1.471029</hAcc><vAcc>0.827214</vAcc></extensions></trkpt>
      <trkpt lon="-2.264259" lat="53.109732"><ele>108.408142</ele><time>2022-03-04T10:03:34Z</time><extensions><speed>1.341311</speed><course>238.092255</course><hAcc>1.468624</hAcc><vAcc>0.827098</vAcc></extensions></trkpt>
      <trkpt lon="-2.264276" lat="53.109726"><ele>108.359718</ele><time>2022-03-04T10:03:35Z</time><extensions><speed>1.380982</speed><course>234.710007</course><hAcc>1.480818</hAcc><vAcc>0.827008</vAcc></extensions></trkpt>
      <trkpt lon="-2.264292" lat="53.109718"><ele>108.302200</ele><time>2022-03-04T10:03:36Z</time><extensions><speed>1.407161</speed><course>231.532364</course><hAcc>1.474629</hAcc><vAcc>0.826962</vAcc></extensions></trkpt>
      <trkpt lon="-2.264308" lat="53.109711"><ele>108.245247</ele><time>2022-03-04T10:03:37Z</time><extensions><speed>1.367948</speed><course>231.401703</course><hAcc>1.461057</hAcc><vAcc>0.826945</vAcc></extensions></trkpt>
      <trkpt lon="-2.264324" lat="53.109704"><ele>108.181213</ele><time>2022-03-04T10:03:38Z</time><extensions><speed>1.331578</speed><course>233.314499</course><hAcc>1.456267</hAcc><vAcc>0.826967</vAcc></extensions></trkpt>
      <trkpt lon="-2.264339" lat="53.109696"><ele>108.113190</ele><time>2022-03-04T10:03:39Z</time><extensions><speed>1.362625</speed><course>231.595779</course><hAcc>1.452011</hAcc><vAcc>0.827022</vAcc></extensions></trkpt>
      <trkpt lon="-2.264355" lat="53.109689"><ele>108.044785</ele><time>2022-03-04T10:03:40Z</time><extensions><speed>1.432849</speed><course>230.763702</course><hAcc>1.449155</hAcc><vAcc>0.827097</vAcc></extensions></trkpt>
      <trkpt lon="-2.264372" lat="53.109681"><ele>107.982491</ele><time>2022-03-04T10:03:41Z</time><extensions><speed>1.442847</speed><course>233.108887</course><hAcc>1.443497</hAcc><vAcc>0.827187</vAcc></extensions></trkpt>
      <trkpt lon="-2.264389" lat="53.109674"><ele>107.901436</ele><time>2022-03-04T10:03:42Z</time><extensions><speed>1.462105</speed><course>235.255707</course><hAcc>1.445369</hAcc><vAcc>0.827279</vAcc></extensions></trkpt>
      <trkpt lon="-2.264407" lat="53.109666"><ele>107.835854</ele><time>2022-03-04T10:03:43Z</time><extensions><speed>1.439655</speed><course>235.627762</course><hAcc>1.446873</hAcc><vAcc>0.827364</vAcc></extensions></trkpt>
      <trkpt lon="-2.264424" lat="53.109659"><ele>107.776283</ele><time>2022-03-04T10:03:44Z</time><extensions><speed>1.441317</speed><course>232.163284</course><hAcc>1.445693</hAcc><vAcc>0.827446</vAcc></extensions></trkpt>
      <trkpt lon="-2.264440" lat="53.109651"><ele>107.725334</ele><time>2022-03-04T10:03:45Z</time><extensions><speed>1.373651</speed><course>230.024033</course><hAcc>1.445255</hAcc><vAcc>0.827524</vAcc></extensions></trkpt>
      <trkpt lon="-2.264455" lat="53.109643"><ele>107.677986</ele><time>2022-03-04T10:03:46Z</time><extensions><speed>1.321783</speed><course>232.036316</course><hAcc>1.432535</hAcc><vAcc>0.827587</vAcc></extensions></trkpt>
      <trkpt lon="-2.264472" lat="53.109636"><ele>107.641258</ele><time>2022-03-04T10:03:47Z</time><extensions><speed>1.449769</speed><course>233.453857</course><hAcc>1.453718</hAcc><vAcc>0.827640</vAcc></extensions></trkpt>
      <trkpt lon="-2.264489" lat="53.109628"><ele>107.610519</ele><time>2022-03-04T10:03:48Z</time><extensions><speed>1.500558</speed><course>233.470734</course><hAcc>1.456258</hAcc><vAcc>0.827668</vAcc></extensions></trkpt>
      <trkpt lon="-2.264507" lat="53.109620"><ele>107.584473</ele><time>2022-03-04T10:03:49Z</time><extensions><speed>1.512602</speed><course>232.068375</course><hAcc>1.459160</hAcc><vAcc>0.827677</vAcc></extensions></trkpt>
      <trkpt lon="-2.264524" lat="53.109612"><ele>107.575790</ele><time>2022-03-04T10:03:50Z</time><extensions><speed>1.453951</speed><course>232.258545</course><hAcc>1.466577</hAcc><vAcc>0.827678</vAcc></extensions></trkpt>
      <trkpt lon="-2.264542" lat="53.109604"><ele>107.553024</ele><time>2022-03-04T10:03:51Z</time><extensions><speed>1.492189</speed><course>236.025360</course><hAcc>1.468915</hAcc><vAcc>0.827657</vAcc></extensions></trkpt>
      <trkpt lon="-2.264560" lat="53.109597"><ele>107.536613</ele><time>2022-03-04T10:03:52Z</time><extensions><speed>1.450980</speed><course>237.196854</course><hAcc>1.465409</hAcc><vAcc>0.827633</vAcc></extensions></trkpt>
      <trkpt lon="-2.264578" lat="53.109590"><ele>107.525612</ele><time>2022-03-04T10:03:53Z</time><extensions><speed>1.474113</speed><course>234.576920</course><hAcc>1.483173</hAcc><vAcc>0.827600</vAcc></extensions></trkpt>
      <trkpt lon="-2.264595" lat="53.109582"><ele>107.518463</ele><time>2022-03-04T10:03:54Z</time><extensions><speed>1.439598</speed><course>233.591110</course><hAcc>1.478550</hAcc><vAcc>0.827568</vAcc></extensions></trkpt>
      <trkpt lon="-2.264612" lat="53.109575"><ele>107.502998</ele><time>2022-03-04T10:03:55Z</time><extensions><speed>1.416365</speed><course>231.072311</course><hAcc>1.484246</hAcc><vAcc>0.827553</vAcc></extensions></trkpt>
      <trkpt lon="-2.264628" lat="53.109566"><ele>107.483765</ele><time>2022-03-04T10:03:56Z</time><extensions><speed>1.477624</speed><course>231.371033</course><hAcc>1.502734</hAcc><vAcc>0.827530</vAcc></extensions></trkpt>
      <trkpt lon="-2.264646" lat="53.109558"><ele>107.467636</ele><time>2022-03-04T10:03:57Z</time><extensions><speed>1.503711</speed><course>231.588989</course><hAcc>1.488036</hAcc><vAcc>0.827511</vAcc></extensions></trkpt>
      <trkpt lon="-2.264663" lat="53.109550"><ele>107.440140</ele><time>2022-03-04T10:03:58Z</time><extensions><speed>1.547075</speed><course>232.440369</course><hAcc>1.496326</hAcc><vAcc>0.827500</vAcc></extensions></trkpt>
      <trkpt lon="-2.264681" lat="53.109541"><ele>107.424362</ele><time>2022-03-04T10:03:59Z</time><extensions><speed>1.532751</speed><course>230.990433</course><hAcc>1.490798</hAcc><vAcc>0.827486</vAcc></extensions></trkpt>
      <trkpt lon="-2.264698" lat="53.109533"><ele>107.431557</ele><time>2022-03-04T10:04:00Z</time><extensions><speed>1.514501</speed><course>229.037766</course><hAcc>1.476635</hAcc><vAcc>0.827472</vAcc></extensions></trkpt>
      <trkpt lon="-2.264715" lat="53.109524"><ele>107.416740</ele><time>2022-03-04T10:04:01Z</time><extensions><speed>1.519708</speed><course>227.637985</course><hAcc>1.485309</hAcc><vAcc>0.827471</vAcc></extensions></trkpt>
      <trkpt lon="-2.264731" lat="53.109514"><ele>107.407982</ele><time>2022-03-04T10:04:02Z</time><extensions><speed>1.506098</speed><course>224.448242</course><hAcc>1.489327</hAcc><vAcc>0.827465</vAcc></extensions></trkpt>
      <trkpt lon="-2.264747" lat="53.109505"><ele>107.400558</ele><time>2022-03-04T10:04:03Z</time><extensions><speed>1.522542</speed><course>228.591370</course><hAcc>1.495621</hAcc><vAcc>0.827467</vAcc></extensions></trkpt>
      <trkpt lon="-2.264764" lat="53.109497"><ele>107.390800</ele><time>2022-03-04T10:04:04Z</time><extensions><speed>1.519071</speed><course>231.418991</course><hAcc>1.496271</hAcc><vAcc>0.827480</vAcc></extensions></trkpt>
      <trkpt lon="-2.264782" lat="53.109489"><ele>107.385963</ele><time>2022-03-04T10:04:05Z</time><extensions><speed>1.504946</speed><course>235.417221</course><hAcc>1.478225</hAcc><vAcc>0.827489</vAcc></extensions></trkpt>
      <trkpt lon="-2.264800" lat="53.109482"><ele>107.384239</ele><time>2022-03-04T10:04:06Z</time><extensions><speed>1.449369</speed><course>236.303802</course><hAcc>1.477601</hAcc><vAcc>0.827493</vAcc></extensions></trkpt>
      <trkpt lon="-2.264818" lat="53.109474"><ele>107.384926</ele><time>2022-03-04T10:04:07Z</time><extensions><speed>1.436951</speed><course>235.641846</course><hAcc>1.484775</hAcc><vAcc>0.827481</vAcc></extensions></trkpt>
      <trkpt lon="-2.264835" lat="53.109467"><ele>107.390015</ele><time>2022-03-04T10:04:08Z</time><extensions><speed>1.470645</speed><course>233.245865</course><hAcc>1.500952</hAcc><vAcc>0.827420</vAcc></extensions></trkpt>
      <trkpt lon="-2.264852" lat="53.109460"><ele>107.397400</ele><time>2022-03-04T10:04:09Z</time><extensions><speed>1.438985</speed><course>235.161942</course><hAcc>1.491937</hAcc><vAcc>0.827336</vAcc></extensions></trkpt>
      <trkpt lon="-2.264869" lat="53.109453"><ele>107.403389</ele><time>2022-03-04T10:04:10Z</time><extensions><speed>1.391526</speed><course>235.795151</course><hAcc>1.477040</hAcc><vAcc>0.827227</vAcc></extensions></trkpt>
      <trkpt lon="-2.264886" lat="53.109446"><ele>107.418549</ele><time>2022-03-04T10:04:11Z</time><extensions><speed>1.379985</speed><course>239.273804</course><hAcc>1.489082</hAcc><vAcc>0.827109</vAcc></extensions></trkpt>
      <trkpt lon="-2.264903" lat="53.109440"><ele>107.430656</ele><time>2022-03-04T10:04:12Z</time><extensions><speed>1.332103</speed><course>240.961746</course><hAcc>1.480600</hAcc><vAcc>0.826967</vAcc></extensions></trkpt>
      <trkpt lon="-2.264921" lat="53.109435"><ele>107.455917</ele><time>2022-03-04T10:04:13Z</time><extensions><speed>1.359786</speed><course>241.395798</course><hAcc>1.500474</hAcc><vAcc>0.826758</vAcc></extensions></trkpt>
      <trkpt lon="-2.264938" lat="53.109429"><ele>107.491127</ele><time>2022-03-04T10:04:14Z</time><extensions><speed>1.285310</speed><course>243.917267</course><hAcc>1.515302</hAcc><vAcc>0.826504</vAcc></extensions></trkpt>
      <trkpt lon="-2.264955" lat="53.109425"><ele>107.515297</ele><time>2022-03-04T10:04:15Z</time><extensions><speed>1.244601</speed><course>248.091125</course><hAcc>1.529721</hAcc><vAcc>0.826243</vAcc></extensions></trkpt>
      <trkpt lon="-2.264971" lat="53.109421"><ele>107.540245</ele><time>2022-03-04T10:04:16Z</time><extensions><speed>1.036194</speed><course>250.003448</course><hAcc>1.538786</hAcc><vAcc>0.825981</vAcc></extensions></trkpt>
      <trkpt lon="-2.264984" lat="53.109418"><ele>107.565720</ele><time>2022-03-04T10:04:17Z</time><extensions><speed>0.865468</speed><course>243.862595</course><hAcc>1.576905</hAcc><vAcc>0.825713</vAcc></extensions></trkpt>
      <trkpt lon="-2.264993" lat="53.109415"><ele>107.580994</ele><time>2022-03-04T10:04:18Z</time><extensions><speed>0.391332</speed><course>244.263901</course><hAcc>1.595393</hAcc><vAcc>0.825467</vAcc></extensions></trkpt>
      <trkpt lon="-2.264996" lat="53.109415"><ele>107.594635</ele><time>2022-03-04T10:04:19Z</time><extensions><speed>0.150043</speed><course>321.688385</course><hAcc>1.608192</hAcc><vAcc>0.825230</vAcc></extensions></trkpt>
      <trkpt lon="-2.264997" lat="53.109417"><ele>107.606323</ele><time>2022-03-04T10:04:20Z</time><extensions><speed>0.278400</speed><course>352.726440</course><hAcc>1.643469</hAcc><vAcc>0.825010</vAcc></extensions></trkpt>
      <trkpt lon="-2.264997" lat="53.109419"><ele>107.576103</ele><time>2022-03-04T10:04:21Z</time><extensions><speed>0.287355</speed><course>354.444916</course><hAcc>1.687624</hAcc><vAcc>0.824812</vAcc></extensions></trkpt>
      <trkpt lon="-2.264997" lat="53.109422"><ele>107.547302</ele><time>2022-03-04T10:04:22Z</time><extensions><speed>0.254332</speed><course>24.466898</course><hAcc>1.727019</hAcc><vAcc>0.824686</vAcc></extensions></trkpt>
      <trkpt lon="-2.264994" lat="53.109424"><ele>107.514656</ele><time>2022-03-04T10:04:23Z</time><extensions><speed>0.306379</speed><course>37.684364</course><hAcc>1.714913</hAcc><vAcc>0.824612</vAcc></extensions></trkpt>
      <trkpt lon="-2.264991" lat="53.109426"><ele>107.478058</ele><time>2022-03-04T10:04:24Z</time><extensions><speed>0.307568</speed><course>43.281754</course><hAcc>1.710925</hAcc><vAcc>0.824591</vAcc></extensions></trkpt>
      <trkpt lon="-2.264988" lat="53.109428"><ele>107.440826</ele><time>2022-03-04T10:04:25Z</time><extensions><speed>0.296524</speed><course>46.323902</course><hAcc>1.715857</hAcc><vAcc>0.824588</vAcc></extensions></trkpt>
      <trkpt lon="-2.264985" lat="53.109430"><ele>107.396309</ele><time>2022-03-04T10:04:26Z</time><extensions><speed>0.277965</speed><course>48.873436</course><hAcc>1.722936</hAcc><vAcc>0.824553</vAcc></extensions></trkpt>
      <trkpt lon="-2.264982" lat="53.109431"><ele>107.354279</ele><time>2022-03-04T10:04:27Z</time><extensions><speed>0.260484</speed><course>52.907104</course><hAcc>1.726035</hAcc><vAcc>0.824508</vAcc></extensions></trkpt>
      <trkpt lon="-2.264979" lat="53.109432"><ele>107.312302</ele><time>2022-03-04T10:04:28Z</time><extensions><speed>0.221530</speed><course>61.119751</course><hAcc>1.726110</hAcc><vAcc>0.824481</vAcc></extensions></trkpt>
      <trkpt lon="-2.264976" lat="53.109433"><ele>107.262413</ele><time>2022-03-04T10:04:29Z</time><extensions><speed>0.170513</speed><course>81.809464</course><hAcc>1.723328</hAcc><vAcc>0.824442</vAcc></extensions></trkpt>
      <trkpt lon="-2.264974" lat="53.109432"><ele>107.214973</ele><time>2022-03-04T10:04:30Z</time><extensions><speed>0.167608</speed><course>123.171661</course><hAcc>1.721839</hAcc><vAcc>0.824384</vAcc></extensions></trkpt>
      <trkpt lon="-2.264972" lat="53.109431"><ele>107.172638</ele><time>2022-03-04T10:04:31Z</time><extensions><speed>0.282701</speed><course>159.374557</course><hAcc>1.727731</hAcc><vAcc>0.824299</vAcc></extensions></trkpt>
      <trkpt lon="-2.264970" lat="53.109429"><ele>107.128441</ele><time>2022-03-04T10:04:32Z</time><extensions><speed>0.285941</speed><course>136.382004</course><hAcc>1.738576</hAcc><vAcc>0.824222</vAcc></extensions></trkpt>
      <trkpt lon="-2.264967" lat="53.109427"><ele>107.091377</ele><time>2022-03-04T10:04:33Z</time><extensions><speed>0.204790</speed><course>131.150848</course><hAcc>1.730126</hAcc><vAcc>0.824127</vAcc></extensions></trkpt>
      <trkpt lon="-2.264965" lat="53.109426"><ele>107.070076</ele><time>2022-03-04T10:04:34Z</time><extensions><speed>0.174312</speed><course>143.639023</course><hAcc>1.730541</hAcc><vAcc>0.824023</vAcc></extensions></trkpt>
      <trkpt lon="-2.264964" lat="53.109424"><ele>107.048767</ele><time>2022-03-04T10:04:35Z</time><extensions><speed>0.218873</speed><course>165.828766</course><hAcc>1.735971</hAcc><vAcc>0.823922</vAcc></extensions></trkpt>
      <trkpt lon="-2.264964" lat="53.109422"><ele>107.040131</ele><time>2022-03-04T10:04:36Z</time><extensions><speed>0.327102</speed><course>179.417328</course><hAcc>1.738599</hAcc><vAcc>0.823873</vAcc></extensions></trkpt>
      <trkpt lon="-2.264965" lat="53.109418"><ele>107.036125</ele><time>2022-03-04T10:04:38Z</time><extensions><speed>0.430094</speed><course>188.105377</course><hAcc>1.742558</hAcc><vAcc>0.823838</vAcc></extensions></trkpt>
      <trkpt lon="-2.264966" lat="53.109414"><ele>107.028961</ele><time>2022-03-04T10:04:39Z</time><extensions><speed>0.502299</speed><course>196.404053</course><hAcc>1.748193</hAcc><vAcc>0.823831</vAcc></extensions></trkpt>
      <trkpt lon="-2.264969" lat="53.109409"><ele>107.025116</ele><time>2022-03-04T10:04:40Z</time><extensions><speed>0.564530</speed><course>204.350250</course><hAcc>1.750657</hAcc><vAcc>0.823861</vAcc></extensions></trkpt>
      <trkpt lon="-2.264974" lat="53.109405"><ele>107.019676</ele><time>2022-03-04T10:04:41Z</time><extensions><speed>0.631208</speed><course>211.631287</course><hAcc>1.748824</hAcc><vAcc>0.823936</vAcc></extensions></trkpt>
      <trkpt lon="-2.264979" lat="53.109400"><ele>107.015282</ele><time>2022-03-04T10:04:42Z</time><extensions><speed>0.708645</speed><course>217.937988</course><hAcc>1.744919</hAcc><vAcc>0.824057</vAcc></extensions></trkpt>
      <trkpt lon="-2.264987" lat="53.109395"><ele>107.014954</ele><time>2022-03-04T10:04:43Z</time><extensions><speed>0.772557</speed><course>223.027832</course><hAcc>1.744947</hAcc><vAcc>0.824207</vAcc></extensions></trkpt>
      <trkpt lon="-2.264995" lat="53.109389"><ele>107.011742</ele><time>2022-03-04T10:04:44Z</time><extensions><speed>0.847078</speed><course>226.745575</course><hAcc>1.745300</hAcc><vAcc>0.824382</vAcc></extensions></trkpt>
      <trkpt lon="-2.265005" lat="53.109384"><ele>107.014206</ele><time>2022-03-04T10:04:45Z</time><extensions><speed>0.922136</speed><course>229.297821</course><hAcc>1.745539</hAcc><vAcc>0.824577</vAcc></extensions></trkpt>
      <trkpt lon="-2.265016" lat="53.109379"><ele>107.001793</ele><time>2022-03-04T10:04:46Z</time><extensions><speed>0.989728</speed><course>230.805145</course><hAcc>1.744873</hAcc><vAcc>0.824785</vAcc></extensions></trkpt>
      <trkpt lon="-2.265028" lat="53.109373"><ele>106.986015</ele><time>2022-03-04T10:04:47Z</time><extensions><speed>1.055517</speed><course>231.541901</course><hAcc>1.741260</hAcc><vAcc>0.825016</vAcc></extensions></trkpt>
      <trkpt lon="-2.265041" lat="53.109367"><ele>106.971077</ele><time>2022-03-04T10:04:48Z</time><extensions><speed>1.099039</speed><course>231.723343</course><hAcc>1.736338</hAcc><vAcc>0.825265</vAcc></extensions></trkpt>
      <trkpt lon="-2.265054" lat="53.109361"><ele>106.951523</ele><time>2022-03-04T10:04:49Z</time><extensions><speed>1.174865</speed><course>231.187851</course><hAcc>1.725887</hAcc><vAcc>0.825526</vAcc></extensions></trkpt>
      <trkpt lon="-2.265069" lat="53.109353"><ele>106.935646</ele><time>2022-03-04T10:04:50Z</time><extensions><speed>1.364947</speed><course>229.388596</course><hAcc>1.709192</hAcc><vAcc>0.825797</vAcc></extensions></trkpt>
      <trkpt lon="-2.265085" lat="53.109345"><ele>106.919724</ele><time>2022-03-04T10:04:51Z</time><extensions><speed>1.494501</speed><course>229.198380</course><hAcc>1.694462</hAcc><vAcc>0.826084</vAcc></extensions></trkpt>
      <trkpt lon="-2.265103" lat="53.109336"><ele>106.895004</ele><time>2022-03-04T10:04:52Z</time><extensions><speed>1.593282</speed><course>229.366028</course><hAcc>1.661206</hAcc><vAcc>0.826385</vAcc></extensions></trkpt>
      <trkpt lon="-2.265121" lat="53.109327"><ele>106.870102</ele><time>2022-03-04T10:04:53Z</time><extensions><speed>1.648273</speed><course>230.597946</course><hAcc>1.609235</hAcc><vAcc>0.826685</vAcc></extensions></trkpt>
      <trkpt lon="-2.265140" lat="53.109317"><ele>106.846489</ele><time>2022-03-04T10:04:54Z</time><extensions><speed>1.652120</speed><course>231.271835</course><hAcc>1.550985</hAcc><vAcc>0.826984</vAcc></extensions></trkpt>
      <trkpt lon="-2.265159" lat="53.109308"><ele>106.822128</ele><time>2022-03-04T10:04:55Z</time><extensions><speed>1.625782</speed><course>230.544846</course><hAcc>1.515519</hAcc><vAcc>0.827276</vAcc></extensions></trkpt>
      <trkpt lon="-2.265177" lat="53.109299"><ele>106.794670</ele><time>2022-03-04T10:04:56Z</time><extensions><speed>1.615123</speed><course>228.374420</course><hAcc>1.529698</hAcc><vAcc>0.827547</vAcc></extensions></trkpt>
      <trkpt lon="-2.265195" lat="53.109290"><ele>106.774521</ele><time>2022-03-04T10:04:57Z</time><extensions><speed>1.610316</speed><course>228.939285</course><hAcc>1.505884</hAcc><vAcc>0.827789</vAcc></extensions></trkpt>
      <trkpt lon="-2.265213" lat="53.109280"><ele>106.750717</ele><time>2022-03-04T10:04:58Z</time><extensions><speed>1.613416</speed><course>230.729858</course><hAcc>1.482457</hAcc><vAcc>0.828005</vAcc></extensions></trkpt>
      <trkpt lon="-2.265232" lat="53.109271"><ele>106.737129</ele><time>2022-03-04T10:04:59Z</time><extensions><speed>1.680146</speed><course>231.951416</course><hAcc>1.456069</hAcc><vAcc>0.828183</vAcc></extensions></trkpt>
      <trkpt lon="-2.265252" lat="53.109262"><ele>106.726303</ele><time>2022-03-04T10:05:00Z</time><extensions><speed>1.783454</speed><course>230.594315</course><hAcc>1.441725</hAcc><vAcc>0.828324</vAcc></extensions></trkpt>
      <trkpt lon="-2.265272" lat="53.109252"><ele>106.714607</ele><time>2022-03-04T10:05:01Z</time><extensions><speed>1.735879</speed><course>230.229980</course><hAcc>1.442468</hAcc><vAcc>0.828443</vAcc></extensions></trkpt>
      <trkpt lon="-2.265291" lat="53.109242"><ele>106.709755</ele><time>2022-03-04T10:05:02Z</time><extensions><speed>1.689935</speed><course>230.840897</course><hAcc>1.451960</hAcc><vAcc>0.828525</vAcc></extensions></trkpt>
      <trkpt lon="-2.265311" lat="53.109233"><ele>106.698616</ele><time>2022-03-04T10:05:03Z</time><extensions><speed>1.653766</speed><course>233.230789</course><hAcc>1.454048</hAcc><vAcc>0.828580</vAcc></extensions></trkpt>
      <trkpt lon="-2.265330" lat="53.109224"><ele>106.681831</ele><time>2022-03-04T10:05:04Z</time><extensions><speed>1.601588</speed><course>229.422440</course><hAcc>1.458446</hAcc><vAcc>0.828612</vAcc></extensions></trkpt>
      <trkpt lon="-2.265347" lat="53.109215"><ele>106.669159</ele><time>2022-03-04T10:05:05Z</time><extensions><speed>1.488109</speed><course>227.498932</course><hAcc>1.462032</hAcc><vAcc>0.828654</vAcc></extensions></trkpt>
      <trkpt lon="-2.265363" lat="53.109206"><ele>106.670067</ele><time>2022-03-04T10:05:06Z</time><extensions><speed>1.477457</speed><course>228.847488</course><hAcc>1.454985</hAcc><vAcc>0.828665</vAcc></extensions></trkpt>
      <trkpt lon="-2.265379" lat="53.109198"><ele>106.664139</ele><time>2022-03-04T10:05:07Z</time><extensions><speed>1.431135</speed><course>229.804596</course><hAcc>1.440928</hAcc><vAcc>0.828690</vAcc></extensions></trkpt>
      <trkpt lon="-2.265396" lat="53.109189"><ele>106.662613</ele><time>2022-03-04T10:05:08Z</time><extensions><speed>1.487154</speed><course>229.099274</course><hAcc>1.457296</hAcc><vAcc>0.828694</vAcc></extensions></trkpt>
      <trkpt lon="-2.265412" lat="53.109181"><ele>106.654556</ele><time>2022-03-04T10:05:09Z</time><extensions><speed>1.522955</speed><course>229.904297</course><hAcc>1.466359</hAcc><vAcc>0.828698</vAcc></extensions></trkpt>
      <trkpt lon="-2.265430" lat="53.109172"><ele>106.657181</ele><time>2022-03-04T10:05:10Z</time><extensions><speed>1.554744</speed><course>231.129059</course><hAcc>1.468490</hAcc><vAcc>0.828715</vAcc></extensions></trkpt>
      <trkpt lon="-2.265448" lat="53.109163"><ele>106.655373</ele><time>2022-03-04T10:05:11Z</time><extensions><speed>1.543089</speed><course>231.881256</course><hAcc>1.461282</hAcc><vAcc>0.828720</vAcc></extensions></trkpt>
      <trkpt lon="-2.265465" lat="53.109155"><ele>106.660988</ele><time>2022-03-04T10:05:12Z</time><extensions><speed>1.564197</speed><course>230.127533</course><hAcc>1.460670</hAcc><vAcc>0.828712</vAcc></extensions></trkpt>
      <trkpt lon="-2.265483" lat="53.109146"><ele>106.676926</ele><time>2022-03-04T10:05:13Z</time><extensions><speed>1.528479</speed><course>230.749832</course><hAcc>1.456823</hAcc><vAcc>0.828697</vAcc></extensions></trkpt>
      <trkpt lon="-2.265500" lat="53.109138"><ele>106.684311</ele><time>2022-03-04T10:05:14Z</time><extensions><speed>1.523027</speed><course>231.508774</course><hAcc>1.463064</hAcc><vAcc>0.828668</vAcc></extensions></trkpt>
      <trkpt lon="-2.265517" lat="53.109130"><ele>106.680176</ele><time>2022-03-04T10:05:15Z</time><extensions><speed>1.417491</speed><course>232.761017</course><hAcc>1.451760</hAcc><vAcc>0.828641</vAcc></extensions></trkpt>
      <trkpt lon="-2.265534" lat="53.109122"><ele>106.679924</ele><time>2022-03-04T10:05:16Z</time><extensions><speed>1.468564</speed><course>229.903717</course><hAcc>1.467170</hAcc><vAcc>0.828609</vAcc></extensions></trkpt>
      <trkpt lon="-2.265551" lat="53.109113"><ele>106.691162</ele><time>2022-03-04T10:05:17Z</time><extensions><speed>1.513067</speed><course>232.585190</course><hAcc>1.470227</hAcc><vAcc>0.828564</vAcc></extensions></trkpt>
      <trkpt lon="-2.265568" lat="53.109105"><ele>106.696983</ele><time>2022-03-04T10:05:18Z</time><extensions><speed>1.483417</speed><course>232.129410</course><hAcc>1.459245</hAcc><vAcc>0.828526</vAcc></extensions></trkpt>
      <trkpt lon="-2.265585" lat="53.109097"><ele>106.704712</ele><time>2022-03-04T10:05:19Z</time><extensions><speed>1.514149</speed><course>230.262131</course><hAcc>1.451734</hAcc><vAcc>0.828488</vAcc></extensions></trkpt>
      <trkpt lon="-2.265602" lat="53.109088"><ele>106.733086</ele><time>2022-03-04T10:05:20Z</time><extensions><speed>1.502706</speed><course>227.123703</course><hAcc>1.445182</hAcc><vAcc>0.828461</vAcc></extensions></trkpt>
      <trkpt lon="-2.265618" lat="53.109079"><ele>106.742386</ele><time>2022-03-04T10:05:21Z</time><extensions><speed>1.534882</speed><course>225.653809</course><hAcc>1.445679</hAcc><vAcc>0.828435</vAcc></extensions></trkpt>
      <trkpt lon="-2.265634" lat="53.109069"><ele>106.753250</ele><time>2022-03-04T10:05:22Z</time><extensions><speed>1.532944</speed><course>224.802612</course><hAcc>1.438258</hAcc><vAcc>0.828431</vAcc></extensions></trkpt>
      <trkpt lon="-2.265650" lat="53.109060"><ele>106.761734</ele><time>2022-03-04T10:05:23Z</time><extensions><speed>1.491567</speed><course>226.374008</course><hAcc>1.431541</hAcc><vAcc>0.828473</vAcc></extensions></trkpt>
      <trkpt lon="-2.265666" lat="53.109051"><ele>106.781754</ele><time>2022-03-04T10:05:24Z</time><extensions><speed>1.535832</speed><course>226.881241</course><hAcc>1.437342</hAcc><vAcc>0.828517</vAcc></extensions></trkpt>
      <trkpt lon="-2.265682" lat="53.109041"><ele>106.801689</ele><time>2022-03-04T10:05:25Z</time><extensions><speed>1.534675</speed><course>224.261551</course><hAcc>1.433303</hAcc><vAcc>0.828589</vAcc></extensions></trkpt>
      <trkpt lon="-2.265697" lat="53.109031"><ele>106.817139</ele><time>2022-03-04T10:05:26Z</time><extensions><speed>1.558863</speed><course>219.768845</course><hAcc>1.423509</hAcc><vAcc>0.828700</vAcc></extensions></trkpt>
      <trkpt lon="-2.265711" lat="53.109020"><ele>106.834114</ele><time>2022-03-04T10:05:27Z</time><extensions><speed>1.598511</speed><course>216.258728</course><hAcc>1.427383</hAcc><vAcc>0.828862</vAcc></extensions></trkpt>
      <trkpt lon="-2.265724" lat="53.109008"><ele>106.855515</ele><time>2022-03-04T10:05:28Z</time><extensions><speed>1.588843</speed><course>212.198212</course><hAcc>1.430547</hAcc><vAcc>0.829045</vAcc></extensions></trkpt>
      <trkpt lon="-2.265736" lat="53.108997"><ele>106.872574</ele><time>2022-03-04T10:05:28Z</time><extensions><speed>1.522155</speed><course>213.576187</course><hAcc>1.421238</hAcc><vAcc>0.829252</vAcc></extensions></trkpt>
      <trkpt lon="-2.265748" lat="53.108986"><ele>106.888130</ele><time>2022-03-04T10:05:29Z</time><extensions><speed>1.483897</speed><course>213.183243</course><hAcc>1.414903</hAcc><vAcc>0.829464</vAcc></extensions></trkpt>
      <trkpt lon="-2.265760" lat="53.108974"><ele>106.899796</ele><time>2022-03-04T10:05:30Z</time><extensions><speed>1.584368</speed><course>211.775986</course><hAcc>1.430075</hAcc><vAcc>0.829683</vAcc></extensions></trkpt>
      <trkpt lon="-2.265772" lat="53.108963"><ele>106.902451</ele><time>2022-03-04T10:05:31Z</time><extensions><speed>1.513965</speed><course>210.541733</course><hAcc>1.428559</hAcc><vAcc>0.829893</vAcc></extensions></trkpt>
      <trkpt lon="-2.265782" lat="53.108951"><ele>106.902939</ele><time>2022-03-04T10:05:32Z</time><extensions><speed>1.439644</speed><course>207.296326</course><hAcc>1.420871</hAcc><vAcc>0.830108</vAcc></extensions></trkpt>
      <trkpt lon="-2.265791" lat="53.108940"><ele>106.887375</ele><time>2022-03-04T10:05:33Z</time><extensions><speed>1.429561</speed><course>201.401367</course><hAcc>1.412497</hAcc><vAcc>0.830323</vAcc></extensions></trkpt>
      <trkpt lon="-2.265798" lat="53.108928"><ele>106.869484</ele><time>2022-03-04T10:05:34Z</time><extensions><speed>1.534251</speed><course>198.509842</course><hAcc>1.420680</hAcc><vAcc>0.830511</vAcc></extensions></trkpt>
      <trkpt lon="-2.265806" lat="53.108915"><ele>106.846619</ele><time>2022-03-04T10:05:35Z</time><extensions><speed>1.578477</speed><course>200.257904</course><hAcc>1.420390</hAcc><vAcc>0.830687</vAcc></extensions></trkpt>
      <trkpt lon="-2.265813" lat="53.108902"><ele>106.824554</ele><time>2022-03-04T10:05:36Z</time><extensions><speed>1.555796</speed><course>198.679596</course><hAcc>1.405806</hAcc><vAcc>0.830818</vAcc></extensions></trkpt>
      <trkpt lon="-2.265820" lat="53.108889"><ele>106.804268</ele><time>2022-03-04T10:05:37Z</time><extensions><speed>1.509131</speed><course>197.025681</course><hAcc>1.398167</hAcc><vAcc>0.830900</vAcc></extensions></trkpt>
      <trkpt lon="-2.265825" lat="53.108876"><ele>106.780579</ele><time>2022-03-04T10:05:38Z</time><extensions><speed>1.466412</speed><course>195.575226</course><hAcc>1.401578</hAcc><vAcc>0.830956</vAcc></extensions></trkpt>
      <trkpt lon="-2.265830" lat="53.108863"><ele>106.749557</ele><time>2022-03-04T10:05:39Z</time><extensions><speed>1.542341</speed><course>191.708969</course><hAcc>1.408061</hAcc><vAcc>0.830977</vAcc></extensions></trkpt>
      <trkpt lon="-2.265835" lat="53.108850"><ele>106.715195</ele><time>2022-03-04T10:05:40Z</time><extensions><speed>1.576203</speed><course>190.905106</course><hAcc>1.407844</hAcc><vAcc>0.830988</vAcc></extensions></trkpt>
      <trkpt lon="-2.265839" lat="53.108837"><ele>106.677635</ele><time>2022-03-04T10:05:41Z</time><extensions><speed>1.473184</speed><course>192.272110</course><hAcc>1.386030</hAcc><vAcc>0.831010</vAcc></extensions></trkpt>
      <trkpt lon="-2.265844" lat="53.108824"><ele>106.654053</ele><time>2022-03-04T10:05:42Z</time><extensions><speed>1.474285</speed><course>194.623306</course><hAcc>1.383029</hAcc><vAcc>0.831006</vAcc></extensions></trkpt>
      <trkpt lon="-2.265849" lat="53.108811"><ele>106.636299</ele><time>2022-03-04T10:05:43Z</time><extensions><speed>1.573456</speed><course>193.577530</course><hAcc>1.390045</hAcc><vAcc>0.830990</vAcc></extensions></trkpt>
      <trkpt lon="-2.265855" lat="53.108798"><ele>106.592316</ele><time>2022-03-04T10:05:44Z</time><extensions><speed>1.590303</speed><course>193.858612</course><hAcc>1.385527</hAcc><vAcc>0.830989</vAcc></extensions></trkpt>
      <trkpt lon="-2.265860" lat="53.108784"><ele>106.547661</ele><time>2022-03-04T10:05:45Z</time><extensions><speed>1.580274</speed><course>191.969406</course><hAcc>1.379694</hAcc><vAcc>0.830991</vAcc></extensions></trkpt>
      <trkpt lon="-2.265864" lat="53.108771"><ele>106.510521</ele><time>2022-03-04T10:05:46Z</time><extensions><speed>1.548076</speed><course>189.257568</course><hAcc>1.370616</hAcc><vAcc>0.831031</vAcc></extensions></trkpt>
      <trkpt lon="-2.265867" lat="53.108757"><ele>106.483917</ele><time>2022-03-04T10:05:47Z</time><extensions><speed>1.497774</speed><course>187.385559</course><hAcc>1.364388</hAcc><vAcc>0.831084</vAcc></extensions></trkpt>
      <trkpt lon="-2.265869" lat="53.108744"><ele>106.456352</ele><time>2022-03-04T10:05:48Z</time><extensions><speed>1.581236</speed><course>184.382431</course><hAcc>1.375341</hAcc><vAcc>0.831151</vAcc></extensions></trkpt>
      <trkpt lon="-2.265871" lat="53.108730"><ele>106.446060</ele><time>2022-03-04T10:05:49Z</time><extensions><speed>1.580047</speed><course>185.042557</course><hAcc>1.369202</hAcc><vAcc>0.831260</vAcc></extensions></trkpt>
      <trkpt lon="-2.265873" lat="53.108716"><ele>106.423386</ele><time>2022-03-04T10:05:50Z</time><extensions><speed>1.558100</speed><course>186.755386</course><hAcc>1.367202</hAcc><vAcc>0.831394</vAcc></extensions></trkpt>
      <trkpt lon="-2.265876" lat="53.108702"><ele>106.402206</ele><time>2022-03-04T10:05:51Z</time><extensions><speed>1.551078</speed><course>187.789734</course><hAcc>1.364956</hAcc><vAcc>0.831506</vAcc></extensions></trkpt>
      <trkpt lon="-2.265879" lat="53.108689"><ele>106.380821</ele><time>2022-03-04T10:05:52Z</time><extensions><speed>1.503760</speed><course>186.870865</course><hAcc>1.351545</hAcc><vAcc>0.831618</vAcc></extensions></trkpt>
      <trkpt lon="-2.265881" lat="53.108675"><ele>106.356667</ele><time>2022-03-04T10:05:53Z</time><extensions><speed>1.580830</speed><course>186.589722</course><hAcc>1.361125</hAcc><vAcc>0.831723</vAcc></extensions></trkpt>
      <trkpt lon="-2.265884" lat="53.108661"><ele>106.335152</ele><time>2022-03-04T10:05:54Z</time><extensions><speed>1.618689</speed><course>186.846573</course><hAcc>1.371956</hAcc><vAcc>0.831823</vAcc></extensions></trkpt>
      <trkpt lon="-2.265887" lat="53.108647"><ele>106.316772</ele><time>2022-03-04T10:05:55Z</time><extensions><speed>1.632457</speed><course>188.413391</course><hAcc>1.378816</hAcc><vAcc>0.831905</vAcc></extensions></trkpt>
      <trkpt lon="-2.265891" lat="53.108632"><ele>106.293221</ele><time>2022-03-04T10:05:56Z</time><extensions><speed>1.620238</speed><course>187.763519</course><hAcc>1.374587</hAcc><vAcc>0.831954</vAcc></extensions></trkpt>
      <trkpt lon="-2.265893" lat="53.108619"><ele>106.269463</ele><time>2022-03-04T10:05:57Z</time><extensions><speed>1.530070</speed><course>183.773972</course><hAcc>1.357051</hAcc><vAcc>0.831963</vAcc></extensions></trkpt>
      <trkpt lon="-2.265894" lat="53.108605"><ele>106.246109</ele><time>2022-03-04T10:05:58Z</time><extensions><speed>1.635739</speed><course>183.258270</course><hAcc>1.390059</hAcc><vAcc>0.831930</vAcc></extensions></trkpt>
      <trkpt lon="-2.265896" lat="53.108590"><ele>106.222122</ele><time>2022-03-04T10:05:59Z</time><extensions><speed>1.653621</speed><course>185.086899</course><hAcc>1.396758</hAcc><vAcc>0.831854</vAcc></extensions></trkpt>
      <trkpt lon="-2.265899" lat="53.108576"><ele>106.198647</ele><time>2022-03-04T10:06:00Z</time><extensions><speed>1.563458</speed><course>187.726913</course><hAcc>1.379449</hAcc><vAcc>0.831756</vAcc></extensions></trkpt>
      <trkpt lon="-2.265902" lat="53.108562"><ele>106.171242</ele><time>2022-03-04T10:06:01Z</time><extensions><speed>1.571931</speed><course>188.229248</course><hAcc>1.387544</hAcc><vAcc>0.831603</vAcc></extensions></trkpt>
      <trkpt lon="-2.265905" lat="53.108548"><ele>106.140678</ele><time>2022-03-04T10:06:02Z</time><extensions><speed>1.594867</speed><course>189.939575</course><hAcc>1.399077</hAcc><vAcc>0.831423</vAcc></extensions></trkpt>
      <trkpt lon="-2.265909" lat="53.108535"><ele>106.115067</ele><time>2022-03-04T10:06:03Z</time><extensions><speed>1.534099</speed><course>189.204285</course><hAcc>1.390423</hAcc><vAcc>0.831227</vAcc></extensions></trkpt>
      <trkpt lon="-2.265912" lat="53.108521"><ele>106.096275</ele><time>2022-03-04T10:06:04Z</time><extensions><speed>1.593454</speed><course>184.263885</course><hAcc>1.393853</hAcc><vAcc>0.831032</vAcc></extensions></trkpt>
      <trkpt lon="-2.265914" lat="53.108507"><ele>106.083374</ele><time>2022-03-04T10:06:05Z</time><extensions><speed>1.586828</speed><course>185.019547</course><hAcc>1.391065</hAcc><vAcc>0.830856</vAcc></extensions></trkpt>
      <trkpt lon="-2.265916" lat="53.108493"><ele>106.074028</ele><time>2022-03-04T10:06:06Z</time><extensions><speed>1.602185</speed><course>185.756638</course><hAcc>1.392361</hAcc><vAcc>0.830713</vAcc></extensions></trkpt>
      <trkpt lon="-2.265918" lat="53.108479"><ele>106.048553</ele><time>2022-03-04T10:06:07Z</time><extensions><speed>1.571901</speed><course>183.214355</course><hAcc>1.381446</hAcc><vAcc>0.830580</vAcc></extensions></trkpt>
      <trkpt lon="-2.265918" lat="53.108465"><ele>106.030869</ele><time>2022-03-04T10:06:08Z</time><extensions><speed>1.605198</speed><course>180.234497</course><hAcc>1.382469</hAcc><vAcc>0.830479</vAcc></extensions></trkpt>
      <trkpt lon="-2.265918" lat="53.108452"><ele>106.024132</ele><time>2022-03-04T10:06:09Z</time><extensions><speed>1.531545</speed><course>180.776535</course><hAcc>1.371139</hAcc><vAcc>0.830417</vAcc></extensions></trkpt>
      <trkpt lon="-2.265919" lat="53.108438"><ele>106.014000</ele><time>2022-03-04T10:06:10Z</time><extensions><speed>1.617613</speed><course>181.186050</course><hAcc>1.375640</hAcc><vAcc>0.830399</vAcc></extensions></trkpt>
      <trkpt lon="-2.265919" lat="53.108424"><ele>105.977051</ele><time>2022-03-04T10:06:11Z</time><extensions><speed>1.607453</speed><course>181.009964</course><hAcc>1.377332</hAcc><vAcc>0.830384</vAcc></extensions></trkpt>
      <trkpt lon="-2.265919" lat="53.108410"><ele>105.938644</ele><time>2022-03-04T10:06:12Z</time><extensions><speed>1.559418</speed><course>178.854034</course><hAcc>1.378005</hAcc><vAcc>0.830387</vAcc></extensions></trkpt>
      <trkpt lon="-2.265919" lat="53.108396"><ele>105.905922</ele><time>2022-03-04T10:06:13Z</time><extensions><speed>1.585843</speed><course>179.101990</course><hAcc>1.392428</hAcc><vAcc>0.830438</vAcc></extensions></trkpt>
      <trkpt lon="-2.265918" lat="53.108381"><ele>105.879570</ele><time>2022-03-04T10:06:14Z</time><extensions><speed>1.619688</speed><course>179.809357</course><hAcc>1.395886</hAcc><vAcc>0.830497</vAcc></extensions></trkpt>
      <trkpt lon="-2.265918" lat="53.108368"><ele>105.868698</ele><time>2022-03-04T10:06:15Z</time><extensions><speed>1.396868</speed><course>179.587906</course><hAcc>1.365126</hAcc><vAcc>0.830560</vAcc></extensions></trkpt>
      <trkpt lon="-2.265918" lat="53.108356"><ele>105.846550</ele><time>2022-03-04T10:06:16Z</time><extensions><speed>1.372544</speed><course>181.528122</course><hAcc>1.375473</hAcc><vAcc>0.830638</vAcc></extensions></trkpt>
      <trkpt lon="-2.265919" lat="53.108343"><ele>105.821594</ele><time>2022-03-04T10:06:17Z</time><extensions><speed>1.481554</speed><course>182.235428</course><hAcc>1.404573</hAcc><vAcc>0.830729</vAcc></extensions></trkpt>
      <trkpt lon="-2.265920" lat="53.108330"><ele>105.792885</ele><time>2022-03-04T10:06:18Z</time><extensions><speed>1.561159</speed><course>180.903275</course><hAcc>1.405637</hAcc><vAcc>0.830798</vAcc></extensions></trkpt>
      <trkpt lon="-2.265920" lat="53.108316"><ele>105.764923</ele><time>2022-03-04T10:06:19Z</time><extensions><speed>1.575732</speed><course>179.819550</course><hAcc>1.402747</hAcc><vAcc>0.830923</vAcc></extensions></trkpt>
      <trkpt lon="-2.265921" lat="53.108302"><ele>105.739777</ele><time>2022-03-04T10:06:20Z</time><extensions><speed>1.479687</speed><course>181.135040</course><hAcc>1.381057</hAcc><vAcc>0.830992</vAcc></extensions></trkpt>
      <trkpt lon="-2.265922" lat="53.108289"><ele>105.703918</ele><time>2022-03-04T10:06:21Z</time><extensions><speed>1.558535</speed><course>182.175140</course><hAcc>1.399762</hAcc><vAcc>0.831047</vAcc></extensions></trkpt>
      <trkpt lon="-2.265922" lat="53.108275"><ele>105.674347</ele><time>2022-03-04T10:06:22Z</time><extensions><speed>1.617638</speed><course>178.851730</course><hAcc>1.404534</hAcc><vAcc>0.831119</vAcc></extensions></trkpt>
      <trkpt lon="-2.265921" lat="53.108261"><ele>105.630211</ele><time>2022-03-04T10:06:23Z</time><extensions><speed>1.652336</speed><course>178.032684</course><hAcc>1.400419</hAcc><vAcc>0.831200</vAcc></extensions></trkpt>
      <trkpt lon="-2.265921" lat="53.108246"><ele>105.592751</ele><time>2022-03-04T10:06:24Z</time><extensions><speed>1.568490</speed><course>179.892349</course><hAcc>1.384552</hAcc><vAcc>0.831244</vAcc></extensions></trkpt>
      <trkpt lon="-2.265922" lat="53.108233"><ele>105.553795</ele><time>2022-03-04T10:06:25Z</time><extensions><speed>1.551660</speed><course>181.892731</course><hAcc>1.384851</hAcc><vAcc>0.831302</vAcc></extensions></trkpt>
      <trkpt lon="-2.265922" lat="53.108219"><ele>105.525841</ele><time>2022-03-04T10:06:26Z</time><extensions><speed>1.585729</speed><course>180.721848</course><hAcc>1.395351</hAcc><vAcc>0.831333</vAcc></extensions></trkpt>
      <trkpt lon="-2.265923" lat="53.108205"><ele>105.490959</ele><time>2022-03-04T10:06:27Z</time><extensions><speed>1.607779</speed><course>179.783966</course><hAcc>1.401790</hAcc><vAcc>0.831353</vAcc></extensions></trkpt>
      <trkpt lon="-2.265923" lat="53.108191"><ele>105.455360</ele><time>2022-03-04T10:06:28Z</time><extensions><speed>1.547850</speed><course>183.863205</course><hAcc>1.396823</hAcc><vAcc>0.831388</vAcc></extensions></trkpt>
      <trkpt lon="-2.265926" lat="53.108177"><ele>105.411064</ele><time>2022-03-04T10:06:29Z</time><extensions><speed>1.558880</speed><course>188.909531</course><hAcc>1.403374</hAcc><vAcc>0.831371</vAcc></extensions></trkpt>
      <trkpt lon="-2.265930" lat="53.108163"><ele>105.376534</ele><time>2022-03-04T10:06:30Z</time><extensions><speed>1.570486</speed><course>190.290405</course><hAcc>1.414292</hAcc><vAcc>0.831343</vAcc></extensions></trkpt>
      <trkpt lon="-2.265934" lat="53.108149"><ele>105.352997</ele><time>2022-03-04T10:06:31Z</time><extensions><speed>1.535087</speed><course>187.934296</course><hAcc>1.424248</hAcc><vAcc>0.831272</vAcc></extensions></trkpt>
      <trkpt lon="-2.265937" lat="53.108135"><ele>105.338669</ele><time>2022-03-04T10:06:32Z</time><extensions><speed>1.543458</speed><course>187.481842</course><hAcc>1.444459</hAcc><vAcc>0.831218</vAcc></extensions></trkpt>
      <trkpt lon="-2.265941" lat="53.108122"><ele>105.298279</ele><time>2022-03-04T10:06:33Z</time><extensions><speed>1.467053</speed><course>190.009369</course><hAcc>1.463959</hAcc><vAcc>0.831124</vAcc></extensions></trkpt>
      <trkpt lon="-2.265945" lat="53.108110"><ele>105.279671</ele><time>2022-03-04T10:06:34Z</time><extensions><speed>1.301349</speed><course>192.114838</course><hAcc>1.468110</hAcc><vAcc>0.831012</vAcc></extensions></trkpt>
      <trkpt lon="-2.265948" lat="53.108099"><ele>105.257042</ele><time>2022-03-04T10:06:35Z</time><extensions><speed>1.112168</speed><course>191.676910</course><hAcc>1.496584</hAcc><vAcc>0.830829</vAcc></extensions></trkpt>
      <trkpt lon="-2.265951" lat="53.108090"><ele>105.248863</ele><time>2022-03-04T10:06:36Z</time><extensions><speed>0.944859</speed><course>189.106049</course><hAcc>1.551044</hAcc><vAcc>0.830606</vAcc></extensions></trkpt>
      <trkpt lon="-2.265954" lat="53.108082"><ele>105.241676</ele><time>2022-03-04T10:06:37Z</time><extensions><speed>0.970012</speed><course>194.001755</course><hAcc>1.553537</hAcc><vAcc>0.830372</vAcc></extensions></trkpt>
      <trkpt lon="-2.265958" lat="53.108072"><ele>105.219536</ele><time>2022-03-04T10:06:38Z</time><extensions><speed>1.075209</speed><course>193.922531</course><hAcc>1.574507</hAcc><vAcc>0.830104</vAcc></extensions></trkpt>
      <trkpt lon="-2.265962" lat="53.108062"><ele>105.189552</ele><time>2022-03-04T10:06:39Z</time><extensions><speed>1.276901</speed><course>191.361740</course><hAcc>1.587953</hAcc><vAcc>0.829821</vAcc></extensions></trkpt>
      <trkpt lon="-2.265966" lat="53.108050"><ele>105.180191</ele><time>2022-03-04T10:06:40Z</time><extensions><speed>1.335582</speed><course>190.615601</course><hAcc>1.606212</hAcc><vAcc>0.829526</vAcc></extensions></trkpt>
      <trkpt lon="-2.265969" lat="53.108039"><ele>105.175705</ele><time>2022-03-04T10:06:41Z</time><extensions><speed>1.238942</speed><course>190.232681</course><hAcc>1.628792</hAcc><vAcc>0.829223</vAcc></extensions></trkpt>
      <trkpt lon="-2.265972" lat="53.108028"><ele>105.182419</ele><time>2022-03-04T10:06:42Z</time><extensions><speed>1.139571</speed><course>191.038651</course><hAcc>1.652955</hAcc><vAcc>0.828936</vAcc></extensions></trkpt>
      <trkpt lon="-2.265976" lat="53.108018"><ele>105.170486</ele><time>2022-03-04T10:06:44Z</time><extensions><speed>1.063844</speed><course>194.237778</course><hAcc>1.633078</hAcc><vAcc>0.828640</vAcc></extensions></trkpt>
      <trkpt lon="-2.265979" lat="53.108009"><ele>105.143585</ele><time>2022-03-04T10:06:45Z</time><extensions><speed>1.043955</speed><course>194.740921</course><hAcc>1.603909</hAcc><vAcc>0.828465</vAcc></extensions></trkpt>
      <trkpt lon="-2.265983" lat="53.108000"><ele>105.114922</ele><time>2022-03-04T10:06:46Z</time><extensions><speed>1.117730</speed><course>193.059357</course><hAcc>1.579352</hAcc><vAcc>0.828287</vAcc></extensions></trkpt>
      <trkpt lon="-2.265987" lat="53.107989"><ele>105.113869</ele><time>2022-03-04T10:06:47Z</time><extensions><speed>1.233553</speed><course>193.030441</course><hAcc>1.563353</hAcc><vAcc>0.828148</vAcc></extensions></trkpt>
      <trkpt lon="-2.265991" lat="53.107978"><ele>105.118301</ele><time>2022-03-04T10:06:48Z</time><extensions><speed>1.376699</speed><course>193.870651</course><hAcc>1.556177</hAcc><vAcc>0.828056</vAcc></extensions></trkpt>
      <trkpt lon="-2.265996" lat="53.107964"><ele>105.120903</ele><time>2022-03-04T10:06:49Z</time><extensions><speed>1.687085</speed><course>193.414322</course><hAcc>1.523449</hAcc><vAcc>0.828030</vAcc></extensions></trkpt>
      <trkpt lon="-2.266002" lat="53.107949"><ele>105.118256</ele><time>2022-03-04T10:06:50Z</time><extensions><speed>1.856809</speed><course>193.521225</course><hAcc>1.500689</hAcc><vAcc>0.828071</vAcc></extensions></trkpt>
      <trkpt lon="-2.266008" lat="53.107932"><ele>105.123840</ele><time>2022-03-04T10:06:51Z</time><extensions><speed>1.932757</speed><course>189.937515</course><hAcc>1.475734</hAcc><vAcc>0.828180</vAcc></extensions></trkpt>
      <trkpt lon="-2.266010" lat="53.107915"><ele>105.142403</ele><time>2022-03-04T10:06:52Z</time><extensions><speed>1.921637</speed><course>181.705154</course><hAcc>1.454591</hAcc><vAcc>0.828316</vAcc></extensions></trkpt>
      <trkpt lon="-2.266009" lat="53.107898"><ele>105.174202</ele><time>2022-03-04T10:06:53Z</time><extensions><speed>1.914069</speed><course>175.444107</course><hAcc>1.443276</hAcc><vAcc>0.828464</vAcc></extensions></trkpt>
      <trkpt lon="-2.266005" lat="53.107881"><ele>105.206955</ele><time>2022-03-04T10:06:54Z</time><extensions><speed>1.881265</speed><course>170.575867</course><hAcc>1.428808</hAcc><vAcc>0.828592</vAcc></extensions></trkpt>
      <trkpt lon="-2.266000" lat="53.107865"><ele>105.245918</ele><time>2022-03-04T10:06:55Z</time><extensions><speed>1.849930</speed><course>170.664841</course><hAcc>1.424850</hAcc><vAcc>0.828704</vAcc></extensions></trkpt>
      <trkpt lon="-2.265995" lat="53.107849"><ele>105.293053</ele><time>2022-03-04T10:06:56Z</time><extensions><speed>1.769473</speed><course>170.073608</course><hAcc>1.414664</hAcc><vAcc>0.828772</vAcc></extensions></trkpt>
      <trkpt lon="-2.265990" lat="53.107833"><ele>105.359589</ele><time>2022-03-04T10:06:57Z</time><extensions><speed>1.767900</speed><course>172.235672</course><hAcc>1.417167</hAcc><vAcc>0.828780</vAcc></extensions></trkpt>
      <trkpt lon="-2.265986" lat="53.107818"><ele>105.419495</ele><time>2022-03-04T10:06:58Z</time><extensions><speed>1.713752</speed><course>173.131210</course><hAcc>1.424118</hAcc><vAcc>0.828735</vAcc></extensions></trkpt>
      <trkpt lon="-2.265983" lat="53.107803"><ele>105.482666</ele><time>2022-03-04T10:06:59Z</time><extensions><speed>1.694207</speed><course>175.343109</course><hAcc>1.439397</hAcc><vAcc>0.828673</vAcc></extensions></trkpt>
      <trkpt lon="-2.265982" lat="53.107788"><ele>105.538689</ele><time>2022-03-04T10:07:00Z</time><extensions><speed>1.677840</speed><course>178.795212</course><hAcc>1.443584</hAcc><vAcc>0.828571</vAcc></extensions></trkpt>
      <trkpt lon="-2.265980" lat="53.107773"><ele>105.602654</ele><time>2022-03-04T10:07:01Z</time><extensions><speed>1.672371</speed><course>174.704941</course><hAcc>1.449884</hAcc><vAcc>0.828448</vAcc></extensions></trkpt>
      <trkpt lon="-2.265976" lat="53.107758"><ele>105.668739</ele><time>2022-03-04T10:07:02Z</time><extensions><speed>1.665473</speed><course>167.234482</course><hAcc>1.463349</hAcc><vAcc>0.828316</vAcc></extensions></trkpt>
      <trkpt lon="-2.265969" lat="53.107744"><ele>105.727516</ele><time>2022-03-04T10:07:03Z</time><extensions><speed>1.556882</speed><course>157.869278</course><hAcc>1.452719</hAcc><vAcc>0.828200</vAcc></extensions></trkpt>
      <trkpt lon="-2.265959" lat="53.107732"><ele>105.779160</ele><time>2022-03-04T10:07:04Z</time><extensions><speed>1.565612</speed><course>153.226349</course><hAcc>1.450384</hAcc><vAcc>0.828107</vAcc></extensions></trkpt>
      <trkpt lon="-2.265949" lat="53.107719"><ele>105.816597</ele><time>2022-03-04T10:07:05Z</time><extensions><speed>1.660447</speed><course>154.169678</course><hAcc>1.468580</hAcc><vAcc>0.828047</vAcc></extensions></trkpt>
      <trkpt lon="-2.265937" lat="53.107706"><ele>105.875641</ele><time>2022-03-04T10:07:06Z</time><extensions><speed>1.730077</speed><course>151.411606</course><hAcc>1.467537</hAcc><vAcc>0.828018</vAcc></extensions></trkpt>
      <trkpt lon="-2.265925" lat="53.107692"><ele>105.921791</ele><time>2022-03-04T10:07:07Z</time><extensions><speed>1.735520</speed><course>151.511826</course><hAcc>1.467597</hAcc><vAcc>0.828012</vAcc></extensions></trkpt>
      <trkpt lon="-2.265912" lat="53.107679"><ele>105.957268</ele><time>2022-03-04T10:07:08Z</time><extensions><speed>1.716576</speed><course>145.870850</course><hAcc>1.446573</hAcc><vAcc>0.828038</vAcc></extensions></trkpt>
      <trkpt lon="-2.265897" lat="53.107667"><ele>105.995285</ele><time>2022-03-04T10:07:09Z</time><extensions><speed>1.702902</speed><course>141.188339</course><hAcc>1.440282</hAcc><vAcc>0.828090</vAcc></extensions></trkpt>
      <trkpt lon="-2.265882" lat="53.107656"><ele>106.037468</ele><time>2022-03-04T10:07:10Z</time><extensions><speed>1.643104</speed><course>141.283249</course><hAcc>1.430995</hAcc><vAcc>0.828151</vAcc></extensions></trkpt>
      <trkpt lon="-2.265868" lat="53.107645"><ele>106.082115</ele><time>2022-03-04T10:07:11Z</time><extensions><speed>1.670617</speed><course>141.687271</course><hAcc>1.430911</hAcc><vAcc>0.828181</vAcc></extensions></trkpt>
      <trkpt lon="-2.265854" lat="53.107633"><ele>106.111664</ele><time>2022-03-04T10:07:12Z</time><extensions><speed>1.564879</speed><course>145.143845</course><hAcc>1.416680</hAcc><vAcc>0.828182</vAcc></extensions></trkpt>
      <trkpt lon="-2.265841" lat="53.107622"><ele>106.159615</ele><time>2022-03-04T10:07:13Z</time><extensions><speed>1.583317</speed><course>150.521805</course><hAcc>1.424872</hAcc><vAcc>0.828134</vAcc></extensions></trkpt>
      <trkpt lon="-2.265831" lat="53.107609"><ele>106.195152</ele><time>2022-03-04T10:07:14Z</time><extensions><speed>1.543405</speed><course>152.872955</course><hAcc>1.433356</hAcc><vAcc>0.828057</vAcc></extensions></trkpt>
      <trkpt lon="-2.265820" lat="53.107597"><ele>106.219254</ele><time>2022-03-04T10:07:15Z</time><extensions><speed>1.483622</speed><course>152.626785</course><hAcc>1.436734</hAcc><vAcc>0.827905</vAcc></extensions></trkpt>
      <trkpt lon="-2.265810" lat="53.107586"><ele>106.264816</ele><time>2022-03-04T10:07:16Z</time><extensions><speed>1.439881</speed><course>151.561768</course><hAcc>1.443337</hAcc><vAcc>0.827709</vAcc></extensions></trkpt>
      <trkpt lon="-2.265800" lat="53.107574"><ele>106.313034</ele><time>2022-03-04T10:07:17Z</time><extensions><speed>1.487292</speed><course>152.753830</course><hAcc>1.472874</hAcc><vAcc>0.827442</vAcc></extensions></trkpt>
      <trkpt lon="-2.265791" lat="53.107562"><ele>106.348358</ele><time>2022-03-04T10:07:18Z</time><extensions><speed>1.377941</speed><course>153.740326</course><hAcc>1.493576</hAcc><vAcc>0.827112</vAcc></extensions></trkpt>
      <trkpt lon="-2.265783" lat="53.107552"><ele>106.365089</ele><time>2022-03-04T10:07:19Z</time><extensions><speed>1.220726</speed><course>158.951752</course><hAcc>1.520031</hAcc><vAcc>0.826749</vAcc></extensions></trkpt>
      <trkpt lon="-2.265777" lat="53.107542"><ele>106.393867</ele><time>2022-03-04T10:07:20Z</time><extensions><speed>1.119587</speed><course>164.083923</course><hAcc>1.548801</hAcc><vAcc>0.826362</vAcc></extensions></trkpt>
      <trkpt lon="-2.265774" lat="53.107533"><ele>106.403511</ele><time>2022-03-04T10:07:21Z</time><extensions><speed>0.954166</speed><course>168.033981</course><hAcc>1.571248</hAcc><vAcc>0.825946</vAcc></extensions></trkpt>
      <trkpt lon="-2.265771" lat="53.107525"><ele>106.405769</ele><time>2022-03-04T10:07:22Z</time><extensions><speed>0.863500</speed><course>171.713715</course><hAcc>1.605344</hAcc><vAcc>0.825517</vAcc></extensions></trkpt>
      <trkpt lon="-2.265770" lat="53.107517"><ele>106.407196</ele><time>2022-03-04T10:07:23Z</time><extensions><speed>0.889732</speed><course>176.210052</course><hAcc>1.640630</hAcc><vAcc>0.825124</vAcc></extensions></trkpt>
      <trkpt lon="-2.265769" lat="53.107508"><ele>106.412003</ele><time>2022-03-04T10:07:24Z</time><extensions><speed>0.964903</speed><course>177.361496</course><hAcc>1.667406</hAcc><vAcc>0.824767</vAcc></extensions></trkpt>
      <trkpt lon="-2.265769" lat="53.107499"><ele>106.420921</ele><time>2022-03-04T10:07:25Z</time><extensions><speed>1.032238</speed><course>180.963943</course><hAcc>1.682556</hAcc><vAcc>0.824511</vAcc></extensions></trkpt>
      <trkpt lon="-2.265770" lat="53.107490"><ele>106.422134</ele><time>2022-03-04T10:07:26Z</time><extensions><speed>1.053758</speed><course>185.552017</course><hAcc>1.693191</hAcc><vAcc>0.824321</vAcc></extensions></trkpt>
      <trkpt lon="-2.265772" lat="53.107481"><ele>106.404961</ele><time>2022-03-04T10:07:27Z</time><extensions><speed>1.073693</speed><course>188.051712</course><hAcc>1.689579</hAcc><vAcc>0.824174</vAcc></extensions></trkpt>
      <trkpt lon="-2.265775" lat="53.107471"><ele>106.413696</ele><time>2022-03-04T10:07:28Z</time><extensions><speed>1.002635</speed><course>190.510513</course><hAcc>1.690334</hAcc><vAcc>0.824063</vAcc></extensions></trkpt>
      <trkpt lon="-2.265778" lat="53.107463"><ele>106.430580</ele><time>2022-03-04T10:07:29Z</time><extensions><speed>0.930651</speed><course>194.974854</course><hAcc>1.697021</hAcc><vAcc>0.824018</vAcc></extensions></trkpt>
      <trkpt lon="-2.265782" lat="53.107455"><ele>106.434380</ele><time>2022-03-04T10:07:30Z</time><extensions><speed>0.937914</speed><course>200.254303</course><hAcc>1.697459</hAcc><vAcc>0.824022</vAcc></extensions></trkpt>
      <trkpt lon="-2.265787" lat="53.107447"><ele>106.450729</ele><time>2022-03-04T10:07:31Z</time><extensions><speed>0.909943</speed><course>205.493164</course><hAcc>1.695761</hAcc><vAcc>0.824080</vAcc></extensions></trkpt>
      <trkpt lon="-2.265793" lat="53.107440"><ele>106.483360</ele><time>2022-03-04T10:07:32Z</time><extensions><speed>0.946375</speed><course>205.713242</course><hAcc>1.695614</hAcc><vAcc>0.824178</vAcc></extensions></trkpt>
      <trkpt lon="-2.265800" lat="53.107431"><ele>106.539276</ele><time>2022-03-04T10:07:33Z</time><extensions><speed>1.065122</speed><course>204.625763</course><hAcc>1.696055</hAcc><vAcc>0.824309</vAcc></extensions></trkpt>
      <trkpt lon="-2.265806" lat="53.107422"><ele>106.615242</ele><time>2022-03-04T10:07:34Z</time><extensions><speed>1.141261</speed><course>201.017014</course><hAcc>1.695892</hAcc><vAcc>0.824434</vAcc></extensions></trkpt>
      <trkpt lon="-2.265811" lat="53.107412"><ele>106.695641</ele><time>2022-03-04T10:07:34Z</time><extensions><speed>1.138386</speed><course>197.410660</course><hAcc>1.697829</hAcc><vAcc>0.824570</vAcc></extensions></trkpt>
      <trkpt lon="-2.265816" lat="53.107403"><ele>106.789673</ele><time>2022-03-04T10:07:35Z</time><extensions><speed>1.082939</speed><course>191.960953</course><hAcc>1.699146</hAcc><vAcc>0.824660</vAcc></extensions></trkpt>
      <trkpt lon="-2.265818" lat="53.107393"><ele>106.882545</ele><time>2022-03-04T10:07:36Z</time><extensions><speed>1.070845</speed><course>187.877075</course><hAcc>1.698000</hAcc><vAcc>0.824737</vAcc></extensions></trkpt>
      <trkpt lon="-2.265820" lat="53.107384"><ele>107.007011</ele><time>2022-03-04T10:07:37Z</time><extensions><speed>1.078183</speed><course>185.682129</course><hAcc>1.692502</hAcc><vAcc>0.824787</vAcc></extensions></trkpt>
      <trkpt lon="-2.265822" lat="53.107374"><ele>107.142807</ele><time>2022-03-04T10:07:38Z</time><extensions><speed>1.047400</speed><course>184.170105</course><hAcc>1.689965</hAcc><vAcc>0.824823</vAcc></extensions></trkpt>
      <trkpt lon="-2.265823" lat="53.107364"><ele>107.276634</ele><time>2022-03-04T10:07:39Z</time><extensions><speed>1.077481</speed><course>182.613098</course><hAcc>1.691212</hAcc><vAcc>0.824855</vAcc></extensions></trkpt>
      <trkpt lon="-2.265823" lat="53.107354"><ele>107.387657</ele><time>2022-03-04T10:07:40Z</time><extensions><speed>1.206484</speed><course>178.698792</course><hAcc>1.689689</hAcc><vAcc>0.824896</vAcc></extensions></trkpt>
      <trkpt lon="-2.265822" lat="53.107343"><ele>107.517876</ele><time>2022-03-04T10:07:41Z</time><extensions><speed>1.293045</speed><course>178.235321</course><hAcc>1.685511</hAcc><vAcc>0.824921</vAcc></extensions></trkpt>
      <trkpt lon="-2.265822" lat="53.107331"><ele>107.661736</ele><time>2022-03-04T10:07:42Z</time><extensions><speed>1.331253</speed><course>177.876328</course><hAcc>1.681432</hAcc><vAcc>0.824901</vAcc></extensions></trkpt>
      <trkpt lon="-2.265821" lat="53.107319"><ele>107.791862</ele><time>2022-03-04T10:07:43Z</time><extensions><speed>1.322859</speed><course>177.404892</course><hAcc>1.680899</hAcc><vAcc>0.824883</vAcc></extensions></trkpt>
      <trkpt lon="-2.265820" lat="53.107307"><ele>107.913765</ele><time>2022-03-04T10:07:44Z</time><extensions><speed>1.253983</speed><course>177.714371</course><hAcc>1.689579</hAcc><vAcc>0.824873</vAcc></extensions></trkpt>
      <trkpt lon="-2.265820" lat="53.107295"><ele>108.036896</ele><time>2022-03-04T10:07:45Z</time><extensions><speed>1.298144</speed><course>179.592575</course><hAcc>1.676568</hAcc><vAcc>0.824887</vAcc></extensions></trkpt>
      <trkpt lon="-2.265821" lat="53.107283"><ele>108.151833</ele><time>2022-03-04T10:07:46Z</time><extensions><speed>1.355008</speed><course>183.485992</course><hAcc>1.663414</hAcc><vAcc>0.824922</vAcc></extensions></trkpt>
      <trkpt lon="-2.265823" lat="53.107271"><ele>108.254875</ele><time>2022-03-04T10:07:47Z</time><extensions><speed>1.492429</speed><course>187.348114</course><hAcc>1.643912</hAcc><vAcc>0.824956</vAcc></extensions></trkpt>
      <trkpt lon="-2.265826" lat="53.107257"><ele>108.328590</ele><time>2022-03-04T10:07:48Z</time><extensions><speed>1.534924</speed><course>188.989090</course><hAcc>1.628952</hAcc><vAcc>0.825037</vAcc></extensions></trkpt>
      <trkpt lon="-2.265830" lat="53.107244"><ele>108.384117</ele><time>2022-03-04T10:07:49Z</time><extensions><speed>1.420596</speed><course>189.594620</course><hAcc>1.637099</hAcc><vAcc>0.825166</vAcc></extensions></trkpt>
      <trkpt lon="-2.265833" lat="53.107232"><ele>108.431442</ele><time>2022-03-04T10:07:50Z</time><extensions><speed>1.220470</speed><course>189.541595</course><hAcc>1.661255</hAcc><vAcc>0.825333</vAcc></extensions></trkpt>
      <trkpt lon="-2.265837" lat="53.107221"><ele>108.474098</ele><time>2022-03-04T10:07:51Z</time><extensions><speed>1.411086</speed><course>192.577728</course><hAcc>1.622903</hAcc><vAcc>0.825523</vAcc></extensions></trkpt>
      <trkpt lon="-2.265842" lat="53.107208"><ele>108.515755</ele><time>2022-03-04T10:07:52Z</time><extensions><speed>1.520772</speed><course>194.206131</course><hAcc>1.591499</hAcc><vAcc>0.825735</vAcc></extensions></trkpt>
      <trkpt lon="-2.265848" lat="53.107195"><ele>108.557556</ele><time>2022-03-04T10:07:53Z</time><extensions><speed>1.484627</speed><course>195.289719</course><hAcc>1.576956</hAcc><vAcc>0.825968</vAcc></extensions></trkpt>
      <trkpt lon="-2.265853" lat="53.107182"><ele>108.591873</ele><time>2022-03-04T10:07:54Z</time><extensions><speed>1.399649</speed><course>194.947937</course><hAcc>1.577888</hAcc><vAcc>0.826220</vAcc></extensions></trkpt>
      <trkpt lon="-2.265858" lat="53.107170"><ele>108.632385</ele><time>2022-03-04T10:07:55Z</time><extensions><speed>1.407534</speed><course>194.262177</course><hAcc>1.565214</hAcc><vAcc>0.826482</vAcc></extensions></trkpt>
      <trkpt lon="-2.265863" lat="53.107158"><ele>108.660698</ele><time>2022-03-04T10:07:56Z</time><extensions><speed>1.447194</speed><course>192.518082</course><hAcc>1.538599</hAcc><vAcc>0.826752</vAcc></extensions></trkpt>
      <trkpt lon="-2.265867" lat="53.107145"><ele>108.676529</ele><time>2022-03-04T10:07:57Z</time><extensions><speed>1.512751</speed><course>190.085800</course><hAcc>1.481138</hAcc><vAcc>0.827025</vAcc></extensions></trkpt>
      <trkpt lon="-2.265870" lat="53.107132"><ele>108.697823</ele><time>2022-03-04T10:07:58Z</time><extensions><speed>1.580591</speed><course>187.075974</course><hAcc>1.458547</hAcc><vAcc>0.827287</vAcc></extensions></trkpt>
      <trkpt lon="-2.265872" lat="53.107118"><ele>108.733765</ele><time>2022-03-04T10:07:59Z</time><extensions><speed>1.683367</speed><course>182.854675</course><hAcc>1.465600</hAcc><vAcc>0.827530</vAcc></extensions></trkpt>
      <trkpt lon="-2.265872" lat="53.107103"><ele>108.763351</ele><time>2022-03-04T10:08:00Z</time><extensions><speed>1.695322</speed><course>179.567993</course><hAcc>1.453339</hAcc><vAcc>0.827757</vAcc></extensions></trkpt>
      <trkpt lon="-2.265871" lat="53.107088"><ele>108.798767</ele><time>2022-03-04T10:08:01Z</time><extensions><speed>1.666523</speed><course>177.796570</course><hAcc>1.415654</hAcc><vAcc>0.827954</vAcc></extensions></trkpt>
      <trkpt lon="-2.265870" lat="53.107073"><ele>108.846092</ele><time>2022-03-04T10:08:02Z</time><extensions><speed>1.666140</speed><course>178.896759</course><hAcc>1.407059</hAcc><vAcc>0.828111</vAcc></extensions></trkpt>
      <trkpt lon="-2.265870" lat="53.107059"><ele>108.891068</ele><time>2022-03-04T10:08:03Z</time><extensions><speed>1.591122</speed><course>181.358505</course><hAcc>1.396144</hAcc><vAcc>0.828239</vAcc></extensions></trkpt>
      <trkpt lon="-2.265869" lat="53.107045"><ele>108.940697</ele><time>2022-03-04T10:08:04Z</time><extensions><speed>1.535186</speed><course>176.381439</course><hAcc>1.383130</hAcc><vAcc>0.828338</vAcc></extensions></trkpt>
      <trkpt lon="-2.265866" lat="53.107032"><ele>109.004211</ele><time>2022-03-04T10:08:05Z</time><extensions><speed>1.527242</speed><course>171.778244</course><hAcc>1.382454</hAcc><vAcc>0.828415</vAcc></extensions></trkpt>
      <trkpt lon="-2.265861" lat="53.107019"><ele>109.063400</ele><time>2022-03-04T10:08:06Z</time><extensions><speed>1.524219</speed><course>161.769852</course><hAcc>1.376689</hAcc><vAcc>0.828478</vAcc></extensions></trkpt>
      <trkpt lon="-2.265853" lat="53.107007"><ele>109.122795</ele><time>2022-03-04T10:08:07Z</time><extensions><speed>1.593106</speed><course>153.460861</course><hAcc>1.383085</hAcc><vAcc>0.828523</vAcc></extensions></trkpt>
      <trkpt lon="-2.265842" lat="53.106995"><ele>109.188576</ele><time>2022-03-04T10:08:08Z</time><extensions><speed>1.553629</speed><course>149.382294</course><hAcc>1.376125</hAcc><vAcc>0.828554</vAcc></extensions></trkpt>
      <trkpt lon="-2.265830" lat="53.106983"><ele>109.239502</ele><time>2022-03-04T10:08:09Z</time><extensions><speed>1.500220</speed><course>147.682632</course><hAcc>1.365955</hAcc><vAcc>0.828585</vAcc></extensions></trkpt>
      <trkpt lon="-2.265817" lat="53.106973"><ele>109.287102</ele><time>2022-03-04T10:08:10Z</time><extensions><speed>1.577054</speed><course>142.622665</course><hAcc>1.374326</hAcc><vAcc>0.828628</vAcc></extensions></trkpt>
      <trkpt lon="-2.265803" lat="53.106962"><ele>109.339600</ele><time>2022-03-04T10:08:11Z</time><extensions><speed>1.580841</speed><course>142.356918</course><hAcc>1.378265</hAcc><vAcc>0.828679</vAcc></extensions></trkpt>
      <trkpt lon="-2.265789" lat="53.106951"><ele>109.385117</ele><time>2022-03-04T10:08:12Z</time><extensions><speed>1.543851</speed><course>140.809036</course><hAcc>1.380700</hAcc><vAcc>0.828733</vAcc></extensions></trkpt>
      <trkpt lon="-2.265774" lat="53.106942"><ele>109.420464</ele><time>2022-03-04T10:08:13Z</time><extensions><speed>1.432014</speed><course>134.627579</course><hAcc>1.376304</hAcc><vAcc>0.828798</vAcc></extensions></trkpt>
      <trkpt lon="-2.265759" lat="53.106933"><ele>109.450356</ele><time>2022-03-04T10:08:14Z</time><extensions><speed>1.450929</speed><course>130.824707</course><hAcc>1.383956</hAcc><vAcc>0.828875</vAcc></extensions></trkpt>
      <trkpt lon="-2.265743" lat="53.106926"><ele>109.474960</ele><time>2022-03-04T10:08:15Z</time><extensions><speed>1.385203</speed><course>129.661072</course><hAcc>1.383570</hAcc><vAcc>0.828974</vAcc></extensions></trkpt>
      <trkpt lon="-2.265729" lat="53.106918"><ele>109.501114</ele><time>2022-03-04T10:08:16Z</time><extensions><speed>1.264593</speed><course>133.157639</course><hAcc>1.375261</hAcc><vAcc>0.829084</vAcc></extensions></trkpt>
      <trkpt lon="-2.265716" lat="53.106911"><ele>109.519081</ele><time>2022-03-04T10:08:17Z</time><extensions><speed>1.258286</speed><course>135.943497</course><hAcc>1.377288</hAcc><vAcc>0.829198</vAcc></extensions></trkpt>
      <trkpt lon="-2.265703" lat="53.106903"><ele>109.537315</ele><time>2022-03-04T10:08:18Z</time><extensions><speed>1.302921</speed><course>136.871429</course><hAcc>1.384160</hAcc><vAcc>0.829318</vAcc></extensions></trkpt>
      <trkpt lon="-2.265690" lat="53.106896"><ele>109.551994</ele><time>2022-03-04T10:08:19Z</time><extensions><speed>1.255733</speed><course>133.579224</course><hAcc>1.374565</hAcc><vAcc>0.829434</vAcc></extensions></trkpt>
      <trkpt lon="-2.265676" lat="53.106888"><ele>109.584099</ele><time>2022-03-04T10:08:20Z</time><extensions><speed>1.388652</speed><course>130.986328</course><hAcc>1.374480</hAcc><vAcc>0.829545</vAcc></extensions></trkpt>
      <trkpt lon="-2.265660" lat="53.106880"><ele>109.618607</ele><time>2022-03-04T10:08:21Z</time><extensions><speed>1.498157</speed><course>131.663315</course><hAcc>1.377859</hAcc><vAcc>0.829638</vAcc></extensions></trkpt>
      <trkpt lon="-2.265645" lat="53.106872"><ele>109.651443</ele><time>2022-03-04T10:08:22Z</time><extensions><speed>1.381893</speed><course>131.124741</course><hAcc>1.360784</hAcc><vAcc>0.829734</vAcc></extensions></trkpt>
      <trkpt lon="-2.265629" lat="53.106864"><ele>109.705132</ele><time>2022-03-04T10:08:23Z</time><extensions><speed>1.422235</speed><course>132.942627</course><hAcc>1.361307</hAcc><vAcc>0.829815</vAcc></extensions></trkpt>
      <trkpt lon="-2.265614" lat="53.106856"><ele>109.743561</ele><time>2022-03-04T10:08:24Z</time><extensions><speed>1.461344</speed><course>132.892258</course><hAcc>1.367602</hAcc><vAcc>0.829891</vAcc></extensions></trkpt>
      <trkpt lon="-2.265599" lat="53.106847"><ele>109.781250</ele><time>2022-03-04T10:08:25Z</time><extensions><speed>1.428049</speed><course>136.029770</course><hAcc>1.367353</hAcc><vAcc>0.829973</vAcc></extensions></trkpt>
      <trkpt lon="-2.265584" lat="53.106839"><ele>109.832932</ele><time>2022-03-04T10:08:26Z</time><extensions><speed>1.350730</speed><course>132.066696</course><hAcc>1.362172</hAcc><vAcc>0.830042</vAcc></extensions></trkpt>
      <trkpt lon="-2.265569" lat="53.106832"><ele>109.895119</ele><time>2022-03-04T10:08:27Z</time><extensions><speed>1.322726</speed><course>121.445724</course><hAcc>1.361424</hAcc><vAcc>0.830104</vAcc></extensions></trkpt>
      <trkpt lon="-2.265551" lat="53.106826"><ele>109.965073</ele><time>2022-03-04T10:08:28Z</time><extensions><speed>1.426460</speed><course>114.152161</course><hAcc>1.371908</hAcc><vAcc>0.830201</vAcc></extensions></trkpt>
      <trkpt lon="-2.265532" lat="53.106822"><ele>110.020714</ele><time>2022-03-04T10:08:29Z</time><extensions><speed>1.401503</speed><course>109.708824</course><hAcc>1.368332</hAcc><vAcc>0.830273</vAcc></extensions></trkpt>
      <trkpt lon="-2.265513" lat="53.106817"><ele>110.074463</ele><time>2022-03-04T10:08:30Z</time><extensions><speed>1.345627</speed><course>115.271133</course><hAcc>1.369154</hAcc><vAcc>0.830396</vAcc></extensions></trkpt>
      <trkpt lon="-2.265495" lat="53.106812"><ele>110.109474</ele><time>2022-03-04T10:08:31Z</time><extensions><speed>1.446673</speed><course>119.061264</course><hAcc>1.385451</hAcc><vAcc>0.830510</vAcc></extensions></trkpt>
      <trkpt lon="-2.265477" lat="53.106806"><ele>110.129005</ele><time>2022-03-04T10:08:32Z</time><extensions><speed>1.416120</speed><course>116.265533</course><hAcc>1.382727</hAcc><vAcc>0.830612</vAcc></extensions></trkpt>
      <trkpt lon="-2.265458" lat="53.106801"><ele>110.141945</ele><time>2022-03-04T10:08:33Z</time><extensions><speed>1.366096</speed><course>114.620117</course><hAcc>1.385422</hAcc><vAcc>0.830717</vAcc></extensions></trkpt>
      <trkpt lon="-2.265439" lat="53.106797"><ele>110.143013</ele><time>2022-03-04T10:08:34Z</time><extensions><speed>1.441803</speed><course>111.176933</course><hAcc>1.388892</hAcc><vAcc>0.830831</vAcc></extensions></trkpt>
      <trkpt lon="-2.265420" lat="53.106793"><ele>110.116982</ele><time>2022-03-04T10:08:35Z</time><extensions><speed>1.363397</speed><course>107.499001</course><hAcc>1.373251</hAcc><vAcc>0.830934</vAcc></extensions></trkpt>
      <trkpt lon="-2.265400" lat="53.106789"><ele>110.074478</ele><time>2022-03-04T10:08:36Z</time><extensions><speed>1.397905</speed><course>111.108437</course><hAcc>1.392190</hAcc><vAcc>0.831031</vAcc></extensions></trkpt>
      <trkpt lon="-2.265382" lat="53.106784"><ele>110.025375</ele><time>2022-03-04T10:08:37Z</time><extensions><speed>1.370928</speed><course>115.124451</course><hAcc>1.393025</hAcc><vAcc>0.831117</vAcc></extensions></trkpt>
      <trkpt lon="-2.265363" lat="53.106779"><ele>109.975899</ele><time>2022-03-04T10:08:38Z</time><extensions><speed>1.437285</speed><course>120.842598</course><hAcc>1.407097</hAcc><vAcc>0.831189</vAcc></extensions></trkpt>
      <trkpt lon="-2.265345" lat="53.106772"><ele>109.912498</ele><time>2022-03-04T10:08:39Z</time><extensions><speed>1.405178</speed><course>120.159531</course><hAcc>1.399641</hAcc><vAcc>0.831237</vAcc></extensions></trkpt>
      <trkpt lon="-2.265327" lat="53.106767"><ele>109.847885</ele><time>2022-03-04T10:08:40Z</time><extensions><speed>1.406777</speed><course>117.213104</course><hAcc>1.402393</hAcc><vAcc>0.831247</vAcc></extensions></trkpt>
      <trkpt lon="-2.265308" lat="53.106761"><ele>109.787964</ele><time>2022-03-04T10:08:41Z</time><extensions><speed>1.471581</speed><course>112.379196</course><hAcc>1.411694</hAcc><vAcc>0.831230</vAcc></extensions></trkpt>
      <trkpt lon="-2.265288" lat="53.106757"><ele>109.725540</ele><time>2022-03-04T10:08:42Z</time><extensions><speed>1.475009</speed><course>109.825752</course><hAcc>1.409630</hAcc><vAcc>0.831189</vAcc></extensions></trkpt>
      <trkpt lon="-2.265268" lat="53.106753"><ele>109.681709</ele><time>2022-03-04T10:08:43Z</time><extensions><speed>1.423664</speed><course>109.170418</course><hAcc>1.392640</hAcc><vAcc>0.831124</vAcc></extensions></trkpt>
      <trkpt lon="-2.265248" lat="53.106748"><ele>109.626877</ele><time>2022-03-04T10:08:44Z</time><extensions><speed>1.450742</speed><course>111.981682</course><hAcc>1.405791</hAcc><vAcc>0.831040</vAcc></extensions></trkpt>
      <trkpt lon="-2.265228" lat="53.106743"><ele>109.576225</ele><time>2022-03-04T10:08:45Z</time><extensions><speed>1.548550</speed><course>112.557915</course><hAcc>1.416254</hAcc><vAcc>0.830956</vAcc></extensions></trkpt>
      <trkpt lon="-2.265207" lat="53.106738"><ele>109.529709</ele><time>2022-03-04T10:08:46Z</time><extensions><speed>1.533893</speed><course>110.780968</course><hAcc>1.405498</hAcc><vAcc>0.830863</vAcc></extensions></trkpt>
      <trkpt lon="-2.265187" lat="53.106733"><ele>109.507278</ele><time>2022-03-04T10:08:47Z</time><extensions><speed>1.508298</speed><course>113.943443</course><hAcc>1.400247</hAcc><vAcc>0.830757</vAcc></extensions></trkpt>
      <trkpt lon="-2.265167" lat="53.106727"><ele>109.499931</ele><time>2022-03-04T10:08:48Z</time><extensions><speed>1.474169</speed><course>116.673958</course><hAcc>1.400705</hAcc><vAcc>0.830695</vAcc></extensions></trkpt>
      <trkpt lon="-2.265148" lat="53.106721"><ele>109.480370</ele><time>2022-03-04T10:08:50Z</time><extensions><speed>1.515657</speed><course>118.544334</course><hAcc>1.407127</hAcc><vAcc>0.830628</vAcc></extensions></trkpt>
      <trkpt lon="-2.265129" lat="53.106715"><ele>109.461494</ele><time>2022-03-04T10:08:51Z</time><extensions><speed>1.502686</speed><course>118.866478</course><hAcc>1.397373</hAcc><vAcc>0.830548</vAcc></extensions></trkpt>
      <trkpt lon="-2.265110" lat="53.106708"><ele>109.447731</ele><time>2022-03-04T10:08:52Z</time><extensions><speed>1.404396</speed><course>121.490433</course><hAcc>1.384493</hAcc><vAcc>0.830483</vAcc></extensions></trkpt>
      <trkpt lon="-2.265093" lat="53.106702"><ele>109.459419</ele><time>2022-03-04T10:08:53Z</time><extensions><speed>1.442200</speed><course>122.146408</course><hAcc>1.390205</hAcc><vAcc>0.830407</vAcc></extensions></trkpt>
      <trkpt lon="-2.265075" lat="53.106695"><ele>109.447594</ele><time>2022-03-04T10:08:54Z</time><extensions><speed>1.495790</speed><course>121.328110</course><hAcc>1.400390</hAcc><vAcc>0.830324</vAcc></extensions></trkpt>
      <trkpt lon="-2.265056" lat="53.106688"><ele>109.434975</ele><time>2022-03-04T10:08:55Z</time><extensions><speed>1.505896</speed><course>122.069977</course><hAcc>1.401714</hAcc><vAcc>0.830242</vAcc></extensions></trkpt>
      <trkpt lon="-2.265038" lat="53.106681"><ele>109.405670</ele><time>2022-03-04T10:08:56Z</time><extensions><speed>1.433027</speed><course>124.217583</course><hAcc>1.392105</hAcc><vAcc>0.830153</vAcc></extensions></trkpt>
      <trkpt lon="-2.265021" lat="53.106674"><ele>109.393341</ele><time>2022-03-04T10:08:57Z</time><extensions><speed>1.390382</speed><course>124.255211</course><hAcc>1.384354</hAcc><vAcc>0.830041</vAcc></extensions></trkpt>
      <trkpt lon="-2.265003" lat="53.106667"><ele>109.378891</ele><time>2022-03-04T10:08:58Z</time><extensions><speed>1.456305</speed><course>120.697021</course><hAcc>1.395784</hAcc><vAcc>0.829904</vAcc></extensions></trkpt>
      <trkpt lon="-2.264985" lat="53.106661"><ele>109.354218</ele><time>2022-03-04T10:08:59Z</time><extensions><speed>1.468455</speed><course>120.669754</course><hAcc>1.401281</hAcc><vAcc>0.829759</vAcc></extensions></trkpt>
      <trkpt lon="-2.264967" lat="53.106654"><ele>109.316780</ele><time>2022-03-04T10:09:00Z</time><extensions><speed>1.500639</speed><course>121.652596</course><hAcc>1.406636</hAcc><vAcc>0.829599</vAcc></extensions></trkpt>
      <trkpt lon="-2.264949" lat="53.106647"><ele>109.281807</ele><time>2022-03-04T10:09:01Z</time><extensions><speed>1.459069</speed><course>123.002693</course><hAcc>1.395928</hAcc><vAcc>0.829424</vAcc></extensions></trkpt>
      <trkpt lon="-2.264932" lat="53.106640"><ele>109.248108</ele><time>2022-03-04T10:09:02Z</time><extensions><speed>1.376040</speed><course>124.664711</course><hAcc>1.383118</hAcc><vAcc>0.829237</vAcc></extensions></trkpt>
      <trkpt lon="-2.264915" lat="53.106633"><ele>109.206505</ele><time>2022-03-04T10:09:03Z</time><extensions><speed>1.438996</speed><course>127.093750</course><hAcc>1.403601</hAcc><vAcc>0.829041</vAcc></extensions></trkpt>
      <trkpt lon="-2.264899" lat="53.106626"><ele>109.159241</ele><time>2022-03-04T10:09:04Z</time><extensions><speed>1.438260</speed><course>125.247177</course><hAcc>1.400763</hAcc><vAcc>0.828842</vAcc></extensions></trkpt>
      <trkpt lon="-2.264882" lat="53.106619"><ele>109.093369</ele><time>2022-03-04T10:09:05Z</time><extensions><speed>1.428602</speed><course>124.034477</course><hAcc>1.398233</hAcc><vAcc>0.828647</vAcc></extensions></trkpt>
      <trkpt lon="-2.264865" lat="53.106612"><ele>109.035339</ele><time>2022-03-04T10:09:06Z</time><extensions><speed>1.360981</speed><course>124.946602</course><hAcc>1.393576</hAcc><vAcc>0.828466</vAcc></extensions></trkpt>
      <trkpt lon="-2.264849" lat="53.106604"><ele>108.967827</ele><time>2022-03-04T10:09:07Z</time><extensions><speed>1.472641</speed><course>128.629028</course><hAcc>1.397637</hAcc><vAcc>0.828297</vAcc></extensions></trkpt>
      <trkpt lon="-2.264832" lat="53.106596"><ele>108.896698</ele><time>2022-03-04T10:09:08Z</time><extensions><speed>1.489607</speed><course>129.590347</course><hAcc>1.398261</hAcc><vAcc>0.828159</vAcc></extensions></trkpt>
      <trkpt lon="-2.264816" lat="53.106588"><ele>108.831352</ele><time>2022-03-04T10:09:09Z</time><extensions><speed>1.431393</speed><course>128.043350</course><hAcc>1.392052</hAcc><vAcc>0.828068</vAcc></extensions></trkpt>
      <trkpt lon="-2.264799" lat="53.106581"><ele>108.794830</ele><time>2022-03-04T10:09:10Z</time><extensions><speed>1.400932</speed><course>127.602852</course><hAcc>1.387015</hAcc><vAcc>0.827988</vAcc></extensions></trkpt>
      <trkpt lon="-2.264783" lat="53.106573"><ele>108.777847</ele><time>2022-03-04T10:09:11Z</time><extensions><speed>1.403124</speed><course>128.044159</course><hAcc>1.383860</hAcc><vAcc>0.827913</vAcc></extensions></trkpt>
      <trkpt lon="-2.264768" lat="53.106565"><ele>108.776817</ele><time>2022-03-04T10:09:12Z</time><extensions><speed>1.445408</speed><course>132.866470</course><hAcc>1.389390</hAcc><vAcc>0.827841</vAcc></extensions></trkpt>
      <trkpt lon="-2.264753" lat="53.106556"><ele>108.777870</ele><time>2022-03-04T10:09:13Z</time><extensions><speed>1.484284</speed><course>139.445511</course><hAcc>1.391581</hAcc><vAcc>0.827797</vAcc></extensions></trkpt>
      <trkpt lon="-2.264740" lat="53.106547"><ele>108.776405</ele><time>2022-03-04T10:09:14Z</time><extensions><speed>1.410978</speed><course>137.487366</course><hAcc>1.384189</hAcc><vAcc>0.827773</vAcc></extensions></trkpt>
      <trkpt lon="-2.264725" lat="53.106538"><ele>108.787315</ele><time>2022-03-04T10:09:15Z</time><extensions><speed>1.426067</speed><course>133.024445</course><hAcc>1.385079</hAcc><vAcc>0.827781</vAcc></extensions></trkpt>
      <trkpt lon="-2.264710" lat="53.106530"><ele>108.794556</ele><time>2022-03-04T10:09:16Z</time><extensions><speed>1.388139</speed><course>128.670792</course><hAcc>1.379233</hAcc><vAcc>0.827802</vAcc></extensions></trkpt>
      <trkpt lon="-2.264694" lat="53.106523"><ele>108.832581</ele><time>2022-03-04T10:09:17Z</time><extensions><speed>1.399675</speed><course>127.842995</course><hAcc>1.382692</hAcc><vAcc>0.827840</vAcc></extensions></trkpt>
      <trkpt lon="-2.264678" lat="53.106515"><ele>108.876228</ele><time>2022-03-04T10:09:18Z</time><extensions><speed>1.409583</speed><course>128.174469</course><hAcc>1.391291</hAcc><vAcc>0.827888</vAcc></extensions></trkpt>
      <trkpt lon="-2.264663" lat="53.106508"><ele>108.910706</ele><time>2022-03-04T10:09:19Z</time><extensions><speed>1.363849</speed><course>129.099670</course><hAcc>1.392050</hAcc><vAcc>0.827953</vAcc></extensions></trkpt>
      <trkpt lon="-2.264648" lat="53.106501"><ele>108.940353</ele><time>2022-03-04T10:09:20Z</time><extensions><speed>1.270314</speed><course>128.958160</course><hAcc>1.393169</hAcc><vAcc>0.828058</vAcc></extensions></trkpt>
      <trkpt lon="-2.264634" lat="53.106495"><ele>108.976974</ele><time>2022-03-04T10:09:21Z</time><extensions><speed>1.092454</speed><course>121.929939</course><hAcc>1.383331</hAcc><vAcc>0.828168</vAcc></extensions></trkpt>
      <trkpt lon="-2.264620" lat="53.106490"><ele>109.006859</ele><time>2022-03-04T10:09:22Z</time><extensions><speed>1.194045</speed><course>116.173836</course><hAcc>1.403085</hAcc><vAcc>0.828315</vAcc></extensions></trkpt>
      <trkpt lon="-2.264603" lat="53.106486"><ele>109.026772</ele><time>2022-03-04T10:09:23Z</time><extensions><speed>1.327517</speed><course>109.372726</course><hAcc>1.415244</hAcc><vAcc>0.828489</vAcc></extensions></trkpt>
      <trkpt lon="-2.264585" lat="53.106482"><ele>109.033722</ele><time>2022-03-04T10:09:24Z</time><extensions><speed>1.352019</speed><course>107.626541</course><hAcc>1.418953</hAcc><vAcc>0.828686</vAcc></extensions></trkpt>
      <trkpt lon="-2.264567" lat="53.106478"><ele>109.030815</ele><time>2022-03-04T10:09:25Z</time><extensions><speed>1.274931</speed><course>110.343231</course><hAcc>1.415601</hAcc><vAcc>0.828899</vAcc></extensions></trkpt>
      <trkpt lon="-2.264550" lat="53.106475"><ele>109.014687</ele><time>2022-03-04T10:09:26Z</time><extensions><speed>1.205759</speed><course>109.024429</course><hAcc>1.411827</hAcc><vAcc>0.829118</vAcc></extensions></trkpt>
      <trkpt lon="-2.264533" lat="53.106471"><ele>109.002052</ele><time>2022-03-04T10:09:27Z</time><extensions><speed>1.248240</speed><course>113.933235</course><hAcc>1.435812</hAcc><vAcc>0.829335</vAcc></extensions></trkpt>
      <trkpt lon="-2.264517" lat="53.106466"><ele>108.985153</ele><time>2022-03-04T10:09:28Z</time><extensions><speed>1.181162</speed><course>115.129425</course><hAcc>1.437162</hAcc><vAcc>0.829531</vAcc></extensions></trkpt>
      <trkpt lon="-2.264502" lat="53.106462"><ele>108.958664</ele><time>2022-03-04T10:09:29Z</time><extensions><speed>1.179252</speed><course>115.007294</course><hAcc>1.431371</hAcc><vAcc>0.829728</vAcc></extensions></trkpt>
      <trkpt lon="-2.264486" lat="53.106458"><ele>108.926407</ele><time>2022-03-04T10:09:30Z</time><extensions><speed>1.227855</speed><course>115.339317</course><hAcc>1.439787</hAcc><vAcc>0.829895</vAcc></extensions></trkpt>
      <trkpt lon="-2.264470" lat="53.106453"><ele>108.895416</ele><time>2022-03-04T10:09:31Z</time><extensions><speed>1.183373</speed><course>116.294144</course><hAcc>1.431631</hAcc><vAcc>0.830030</vAcc></extensions></trkpt>
      <trkpt lon="-2.264455" lat="53.106448"><ele>108.864441</ele><time>2022-03-04T10:09:32Z</time><extensions><speed>1.253325</speed><course>118.325722</course><hAcc>1.442893</hAcc><vAcc>0.830128</vAcc></extensions></trkpt>
      <trkpt lon="-2.264439" lat="53.106443"><ele>108.834068</ele><time>2022-03-04T10:09:33Z</time><extensions><speed>1.285785</speed><course>122.984344</course><hAcc>1.439328</hAcc><vAcc>0.830209</vAcc></extensions></trkpt>
      <trkpt lon="-2.264423" lat="53.106437"><ele>108.791557</ele><time>2022-03-04T10:09:34Z</time><extensions><speed>1.279156</speed><course>123.628113</course><hAcc>1.430474</hAcc><vAcc>0.830249</vAcc></extensions></trkpt>
      <trkpt lon="-2.264408" lat="53.106431"><ele>108.749146</ele><time>2022-03-04T10:09:35Z</time><extensions><speed>1.267281</speed><course>121.587463</course><hAcc>1.425206</hAcc><vAcc>0.830292</vAcc></extensions></trkpt>
      <trkpt lon="-2.264392" lat="53.106425"><ele>108.700470</ele><time>2022-03-04T10:09:36Z</time><extensions><speed>1.273091</speed><course>119.954079</course><hAcc>1.427231</hAcc><vAcc>0.830313</vAcc></extensions></trkpt>
      <trkpt lon="-2.264376" lat="53.106420"><ele>108.663773</ele><time>2022-03-04T10:09:37Z</time><extensions><speed>1.294526</speed><course>117.509727</course><hAcc>1.433100</hAcc><vAcc>0.830328</vAcc></extensions></trkpt>
      <trkpt lon="-2.264360" lat="53.106415"><ele>108.632423</ele><time>2022-03-04T10:09:38Z</time><extensions><speed>1.213496</speed><course>119.079872</course><hAcc>1.420204</hAcc><vAcc>0.830369</vAcc></extensions></trkpt>
      <trkpt lon="-2.264346" lat="53.106410"><ele>108.598122</ele><time>2022-03-04T10:09:39Z</time><extensions><speed>1.134414</speed><course>119.493896</course><hAcc>1.406060</hAcc><vAcc>0.830391</vAcc></extensions></trkpt>
      <trkpt lon="-2.264331" lat="53.106405"><ele>108.592392</ele><time>2022-03-04T10:09:40Z</time><extensions><speed>1.237504</speed><course>119.093987</course><hAcc>1.412621</hAcc><vAcc>0.830442</vAcc></extensions></trkpt>
      <trkpt lon="-2.264315" lat="53.106400"><ele>108.578041</ele><time>2022-03-04T10:09:40Z</time><extensions><speed>1.248135</speed><course>118.535110</course><hAcc>1.408647</hAcc><vAcc>0.830489</vAcc></extensions></trkpt>
      <trkpt lon="-2.264298" lat="53.106395"><ele>108.559975</ele><time>2022-03-04T10:09:41Z</time><extensions><speed>1.412005</speed><course>118.098495</course><hAcc>1.421726</hAcc><vAcc>0.830546</vAcc></extensions></trkpt>
      <trkpt lon="-2.264281" lat="53.106389"><ele>108.546112</ele><time>2022-03-04T10:09:42Z</time><extensions><speed>1.346019</speed><course>115.999687</course><hAcc>1.417166</hAcc><vAcc>0.830633</vAcc></extensions></trkpt>
      <trkpt lon="-2.264264" lat="53.106385"><ele>108.538887</ele><time>2022-03-04T10:09:43Z</time><extensions><speed>1.198445</speed><course>111.927986</course><hAcc>1.411042</hAcc><vAcc>0.830707</vAcc></extensions></trkpt>
      <trkpt lon="-2.264247" lat="53.106381"><ele>108.544838</ele><time>2022-03-04T10:09:44Z</time><extensions><speed>1.222868</speed><course>110.128365</course><hAcc>1.420641</hAcc><vAcc>0.830794</vAcc></extensions></trkpt>
      <trkpt lon="-2.264231" lat="53.106377"><ele>108.553253</ele><time>2022-03-04T10:09:45Z</time><extensions><speed>1.219795</speed><course>109.178787</course><hAcc>1.428257</hAcc><vAcc>0.830869</vAcc></extensions></trkpt>
      <trkpt lon="-2.264214" lat="53.106374"><ele>108.553925</ele><time>2022-03-04T10:09:46Z</time><extensions><speed>1.240949</speed><course>108.995407</course><hAcc>1.432887</hAcc><vAcc>0.830932</vAcc></extensions></trkpt>
      <trkpt lon="-2.264197" lat="53.106371"><ele>108.572090</ele><time>2022-03-04T10:09:47Z</time><extensions><speed>1.152492</speed><course>107.724022</course><hAcc>1.428548</hAcc><vAcc>0.830996</vAcc></extensions></trkpt>
      <trkpt lon="-2.264181" lat="53.106368"><ele>108.593819</ele><time>2022-03-04T10:09:48Z</time><extensions><speed>1.261657</speed><course>110.099327</course><hAcc>1.453236</hAcc><vAcc>0.831026</vAcc></extensions></trkpt>
      <trkpt lon="-2.264164" lat="53.106364"><ele>108.619064</ele><time>2022-03-04T10:09:49Z</time><extensions><speed>1.181499</speed><course>112.545998</course><hAcc>1.446829</hAcc><vAcc>0.831036</vAcc></extensions></trkpt>
      <trkpt lon="-2.264149" lat="53.106359"><ele>108.639320</ele><time>2022-03-04T10:09:50Z</time><extensions><speed>1.246846</speed><course>120.378883</course><hAcc>1.460632</hAcc><vAcc>0.831012</vAcc></extensions></trkpt>
      <trkpt lon="-2.264133" lat="53.106354"><ele>108.651703</ele><time>2022-03-04T10:09:51Z</time><extensions><speed>1.209212</speed><course>120.928070</course><hAcc>1.461606</hAcc><vAcc>0.830965</vAcc></extensions></trkpt>
      <trkpt lon="-2.264118" lat="53.106348"><ele>108.672348</ele><time>2022-03-04T10:09:52Z</time><extensions><speed>1.204471</speed><course>121.833336</course><hAcc>1.464766</hAcc><vAcc>0.830907</vAcc></extensions></trkpt>
      <trkpt lon="-2.264103" lat="53.106343"><ele>108.708328</ele><time>2022-03-04T10:09:53Z</time><extensions><speed>1.224320</speed><course>120.954643</course><hAcc>1.476395</hAcc><vAcc>0.830842</vAcc></extensions></trkpt>
      <trkpt lon="-2.264088" lat="53.106337"><ele>108.730392</ele><time>2022-03-04T10:09:54Z</time><extensions><speed>1.238606</speed><course>121.246048</course><hAcc>1.483553</hAcc><vAcc>0.830752</vAcc></extensions></trkpt>
      <trkpt lon="-2.264073" lat="53.106332"><ele>108.744278</ele><time>2022-03-04T10:09:55Z</time><extensions><speed>1.100674</speed><course>116.130386</course><hAcc>1.464028</hAcc><vAcc>0.830670</vAcc></extensions></trkpt>
      <trkpt lon="-2.264059" lat="53.106329"><ele>108.756508</ele><time>2022-03-04T10:09:56Z</time><extensions><speed>1.076323</speed><course>109.958481</course><hAcc>1.458670</hAcc><vAcc>0.830587</vAcc></extensions></trkpt>
      <trkpt lon="-2.264044" lat="53.106326"><ele>108.777802</ele><time>2022-03-04T10:09:57Z</time><extensions><speed>1.090709</speed><course>105.014458</course><hAcc>1.465890</hAcc><vAcc>0.830515</vAcc></extensions></trkpt>
      <trkpt lon="-2.264028" lat="53.106323"><ele>108.790092</ele><time>2022-03-04T10:09:58Z</time><extensions><speed>1.220827</speed><course>107.470665</course><hAcc>1.482227</hAcc><vAcc>0.830437</vAcc></extensions></trkpt>
      <trkpt lon="-2.264011" lat="53.106320"><ele>108.800606</ele><time>2022-03-04T10:09:59Z</time><extensions><speed>1.248383</speed><course>109.314728</course><hAcc>1.480386</hAcc><vAcc>0.830378</vAcc></extensions></trkpt>
      <trkpt lon="-2.263994" lat="53.106316"><ele>108.800987</ele><time>2022-03-04T10:10:00Z</time><extensions><speed>1.253546</speed><course>110.616722</course><hAcc>1.469797</hAcc><vAcc>0.830335</vAcc></extensions></trkpt>
      <trkpt lon="-2.263978" lat="53.106312"><ele>108.793594</ele><time>2022-03-04T10:10:01Z</time><extensions><speed>1.170821</speed><course>111.940155</course><hAcc>1.441925</hAcc><vAcc>0.830293</vAcc></extensions></trkpt>
      <trkpt lon="-2.263962" lat="53.106308"><ele>108.781029</ele><time>2022-03-04T10:10:02Z</time><extensions><speed>1.199997</speed><course>110.959335</course><hAcc>1.435082</hAcc><vAcc>0.830267</vAcc></extensions></trkpt>
      <trkpt lon="-2.263944" lat="53.106304"><ele>108.751556</ele><time>2022-03-04T10:10:03Z</time><extensions><speed>1.353986</speed><course>110.852791</course><hAcc>1.448690</hAcc><vAcc>0.830259</vAcc></extensions></trkpt>
      <trkpt lon="-2.263926" lat="53.106300"><ele>108.722084</ele><time>2022-03-04T10:10:04Z</time><extensions><speed>1.350110</speed><course>109.990517</course><hAcc>1.440621</hAcc><vAcc>0.830252</vAcc></extensions></trkpt>
      <trkpt lon="-2.263907" lat="53.106296"><ele>108.712082</ele><time>2022-03-04T10:10:05Z</time><extensions><speed>1.321944</speed><course>111.086685</course><hAcc>1.429769</hAcc><vAcc>0.830258</vAcc></extensions></trkpt>
      <trkpt lon="-2.263889" lat="53.106292"><ele>108.695541</ele><time>2022-03-04T10:10:06Z</time><extensions><speed>1.385444</speed><course>112.821724</course><hAcc>1.434982</hAcc><vAcc>0.830251</vAcc></extensions></trkpt>
      <trkpt lon="-2.263870" lat="53.106287"><ele>108.677971</ele><time>2022-03-04T10:10:07Z</time><extensions><speed>1.445517</speed><course>115.092812</course><hAcc>1.438911</hAcc><vAcc>0.830264</vAcc></extensions></trkpt>
      <trkpt lon="-2.263851" lat="53.106282"><ele>108.664398</ele><time>2022-03-04T10:10:08Z</time><extensions><speed>1.442119</speed><course>111.610481</course><hAcc>1.435602</hAcc><vAcc>0.830288</vAcc></extensions></trkpt>
      <trkpt lon="-2.263832" lat="53.106277"><ele>108.658440</ele><time>2022-03-04T10:10:09Z</time><extensions><speed>1.314186</speed><course>108.613907</course><hAcc>1.417089</hAcc><vAcc>0.830318</vAcc></extensions></trkpt>
      <trkpt lon="-2.263814" lat="53.106274"><ele>108.655304</ele><time>2022-03-04T10:10:10Z</time><extensions><speed>1.312376</speed><course>108.478828</course><hAcc>1.419624</hAcc><vAcc>0.830365</vAcc></extensions></trkpt>
      <trkpt lon="-2.263795" lat="53.106270"><ele>108.647430</ele><time>2022-03-04T10:10:11Z</time><extensions><speed>1.435280</speed><course>111.926300</course><hAcc>1.439265</hAcc><vAcc>0.830402</vAcc></extensions></trkpt>
      <trkpt lon="-2.263777" lat="53.106265"><ele>108.634972</ele><time>2022-03-04T10:10:12Z</time><extensions><speed>1.382348</speed><course>114.946129</course><hAcc>1.421901</hAcc><vAcc>0.830451</vAcc></extensions></trkpt>
      <trkpt lon="-2.263758" lat="53.106259"><ele>108.632889</ele><time>2022-03-04T10:10:13Z</time><extensions><speed>1.439290</speed><course>114.359856</course><hAcc>1.428591</hAcc><vAcc>0.830533</vAcc></extensions></trkpt>
      <trkpt lon="-2.263739" lat="53.106255"><ele>108.619125</ele><time>2022-03-04T10:10:14Z</time><extensions><speed>1.441265</speed><course>106.914253</course><hAcc>1.425876</hAcc><vAcc>0.830603</vAcc></extensions></trkpt>
      <trkpt lon="-2.263719" lat="53.106251"><ele>108.604286</ele><time>2022-03-04T10:10:15Z</time><extensions><speed>1.455534</speed><course>109.580704</course><hAcc>1.426646</hAcc><vAcc>0.830689</vAcc></extensions></trkpt>
      <trkpt lon="-2.263699" lat="53.106246"><ele>108.605240</ele><time>2022-03-04T10:10:16Z</time><extensions><speed>1.376912</speed><course>111.383156</course><hAcc>1.417830</hAcc><vAcc>0.830785</vAcc></extensions></trkpt>
      <trkpt lon="-2.263681" lat="53.106242"><ele>108.597816</ele><time>2022-03-04T10:10:17Z</time><extensions><speed>1.349038</speed><course>112.737694</course><hAcc>1.418409</hAcc><vAcc>0.830867</vAcc></extensions></trkpt>
      <trkpt lon="-2.263662" lat="53.106237"><ele>108.596970</ele><time>2022-03-04T10:10:18Z</time><extensions><speed>1.384976</speed><course>114.300438</course><hAcc>1.420642</hAcc><vAcc>0.830977</vAcc></extensions></trkpt>
      <trkpt lon="-2.263645" lat="53.106232"><ele>108.598114</ele><time>2022-03-04T10:10:19Z</time><extensions><speed>1.322213</speed><course>114.953003</course><hAcc>1.415242</hAcc><vAcc>0.831089</vAcc></extensions></trkpt>
      <trkpt lon="-2.263627" lat="53.106227"><ele>108.609360</ele><time>2022-03-04T10:10:20Z</time><extensions><speed>1.298298</speed><course>116.170570</course><hAcc>1.408262</hAcc><vAcc>0.831201</vAcc></extensions></trkpt>
      <trkpt lon="-2.263610" lat="53.106222"><ele>108.626274</ele><time>2022-03-04T10:10:21Z</time><extensions><speed>1.398803</speed><course>117.348351</course><hAcc>1.427900</hAcc><vAcc>0.831291</vAcc></extensions></trkpt>
      <trkpt lon="-2.263592" lat="53.106216"><ele>108.639404</ele><time>2022-03-04T10:10:22Z</time><extensions><speed>1.415787</speed><course>122.420357</course><hAcc>1.432044</hAcc><vAcc>0.831356</vAcc></extensions></trkpt>
      <trkpt lon="-2.263575" lat="53.106209"><ele>108.650803</ele><time>2022-03-04T10:10:23Z</time><extensions><speed>1.421164</speed><course>124.872375</course><hAcc>1.434950</hAcc><vAcc>0.831426</vAcc></extensions></trkpt>
      <trkpt lon="-2.263558" lat="53.106202"><ele>108.654526</ele><time>2022-03-04T10:10:24Z</time><extensions><speed>1.408022</speed><course>125.174149</course><hAcc>1.433625</hAcc><vAcc>0.831476</vAcc></extensions></trkpt>
      <trkpt lon="-2.263542" lat="53.106195"><ele>108.665359</ele><time>2022-03-04T10:10:25Z</time><extensions><speed>1.287327</speed><course>126.492798</course><hAcc>1.414437</hAcc><vAcc>0.831526</vAcc></extensions></trkpt>
      <trkpt lon="-2.263527" lat="53.106189"><ele>108.676941</ele><time>2022-03-04T10:10:26Z</time><extensions><speed>1.235492</speed><course>122.695000</course><hAcc>1.407690</hAcc><vAcc>0.831562</vAcc></extensions></trkpt>
      <trkpt lon="-2.263511" lat="53.106183"><ele>108.689484</ele><time>2022-03-04T10:10:27Z</time><extensions><speed>1.325199</speed><course>115.983009</course><hAcc>1.420122</hAcc><vAcc>0.831614</vAcc></extensions></trkpt>
      <trkpt lon="-2.263493" lat="53.106179"><ele>108.719742</ele><time>2022-03-04T10:10:28Z</time><extensions><speed>1.344138</speed><course>112.606911</course><hAcc>1.418976</hAcc><vAcc>0.831680</vAcc></extensions></trkpt>
      <trkpt lon="-2.263474" lat="53.106174"><ele>108.735527</ele><time>2022-03-04T10:10:29Z</time><extensions><speed>1.460616</speed><course>111.423950</course><hAcc>1.419547</hAcc><vAcc>0.831705</vAcc></extensions></trkpt>
      <trkpt lon="-2.263455" lat="53.106170"><ele>108.774544</ele><time>2022-03-04T10:10:30Z</time><extensions><speed>1.389668</speed><course>109.277245</course><hAcc>1.404421</hAcc><vAcc>0.831719</vAcc></extensions></trkpt>
      <trkpt lon="-2.263436" lat="53.106166"><ele>108.811325</ele><time>2022-03-04T10:10:31Z</time><extensions><speed>1.406601</speed><course>112.170914</course><hAcc>1.400037</hAcc><vAcc>0.831715</vAcc></extensions></trkpt>
      <trkpt lon="-2.263416" lat="53.106161"><ele>108.835808</ele><time>2022-03-04T10:10:32Z</time><extensions><speed>1.487849</speed><course>114.040634</course><hAcc>1.403525</hAcc><vAcc>0.831705</vAcc></extensions></trkpt>
      <trkpt lon="-2.263397" lat="53.106155"><ele>108.852119</ele><time>2022-03-04T10:10:33Z</time><extensions><speed>1.432137</speed><course>115.564262</course><hAcc>1.403740</hAcc><vAcc>0.831710</vAcc></extensions></trkpt>
      <trkpt lon="-2.263378" lat="53.106150"><ele>108.863029</ele><time>2022-03-04T10:10:34Z</time><extensions><speed>1.430726</speed><course>115.410866</course><hAcc>1.402544</hAcc><vAcc>0.831717</vAcc></extensions></trkpt>
      <trkpt lon="-2.263359" lat="53.106145"><ele>108.868919</ele><time>2022-03-04T10:10:35Z</time><extensions><speed>1.417876</speed><course>109.477905</course><hAcc>1.404263</hAcc><vAcc>0.831725</vAcc></extensions></trkpt>
      <trkpt lon="-2.263339" lat="53.106141"><ele>108.862335</ele><time>2022-03-04T10:10:36Z</time><extensions><speed>1.431150</speed><course>106.599861</course><hAcc>1.410510</hAcc><vAcc>0.831726</vAcc></extensions></trkpt>
      <trkpt lon="-2.263319" lat="53.106138"><ele>108.868523</ele><time>2022-03-04T10:10:37Z</time><extensions><speed>1.382177</speed><course>104.332764</course><hAcc>1.412835</hAcc><vAcc>0.831731</vAcc></extensions></trkpt>
      <trkpt lon="-2.263300" lat="53.106135"><ele>108.864738</ele><time>2022-03-04T10:10:38Z</time><extensions><speed>1.348217</speed><course>106.647522</course><hAcc>1.422629</hAcc><vAcc>0.831710</vAcc></extensions></trkpt>
      <trkpt lon="-2.263281" lat="53.106132"><ele>108.842659</ele><time>2022-03-04T10:10:39Z</time><extensions><speed>1.379848</speed><course>106.901001</course><hAcc>1.424674</hAcc><vAcc>0.831694</vAcc></extensions></trkpt>
      <trkpt lon="-2.263263" lat="53.106128"><ele>108.803993</ele><time>2022-03-04T10:10:40Z</time><extensions><speed>1.268588</speed><course>109.398804</course><hAcc>1.408744</hAcc><vAcc>0.831710</vAcc></extensions></trkpt>
      <trkpt lon="-2.263246" lat="53.106124"><ele>108.752090</ele><time>2022-03-04T10:10:41Z</time><extensions><speed>1.295187</speed><course>110.706657</course><hAcc>1.424590</hAcc><vAcc>0.831693</vAcc></extensions></trkpt>
      <trkpt lon="-2.263227" lat="53.106120"><ele>108.688248</ele><time>2022-03-04T10:10:42Z</time><extensions><speed>1.372657</speed><course>109.746597</course><hAcc>1.434537</hAcc><vAcc>0.831668</vAcc></extensions></trkpt>
      <trkpt lon="-2.263208" lat="53.106117"><ele>108.613884</ele><time>2022-03-04T10:10:43Z</time><extensions><speed>1.370804</speed><course>106.568253</course><hAcc>1.435502</hAcc><vAcc>0.831628</vAcc></extensions></trkpt>
      <trkpt lon="-2.263190" lat="53.106114"><ele>108.537300</ele><time>2022-03-04T10:10:44Z</time><extensions><speed>1.291677</speed><course>104.769249</course><hAcc>1.426741</hAcc><vAcc>0.831597</vAcc></extensions></trkpt>
      <trkpt lon="-2.263172" lat="53.106111"><ele>108.473839</ele><time>2022-03-04T10:10:45Z</time><extensions><speed>1.216970</speed><course>106.410049</course><hAcc>1.406264</hAcc><vAcc>0.831587</vAcc></extensions></trkpt>
      <trkpt lon="-2.263155" lat="53.106107"><ele>108.412811</ele><time>2022-03-04T10:10:46Z</time><extensions><speed>1.310858</speed><course>110.959213</course><hAcc>1.429204</hAcc><vAcc>0.831552</vAcc></extensions></trkpt>
      <trkpt lon="-2.263138" lat="53.106103"><ele>108.370071</ele><time>2022-03-04T10:10:47Z</time><extensions><speed>1.309641</speed><course>114.661316</course><hAcc>1.432708</hAcc><vAcc>0.831484</vAcc></extensions></trkpt>
      <trkpt lon="-2.263122" lat="53.106098"><ele>108.302170</ele><time>2022-03-04T10:10:48Z</time><extensions><speed>1.263124</speed><course>118.343132</course><hAcc>1.422783</hAcc><vAcc>0.831394</vAcc></extensions></trkpt>
      <trkpt lon="-2.263107" lat="53.106093"><ele>108.229042</ele><time>2022-03-04T10:10:49Z</time><extensions><speed>1.157573</speed><course>118.244392</course><hAcc>1.405328</hAcc><vAcc>0.831271</vAcc></extensions></trkpt>
      <trkpt lon="-2.263093" lat="53.106089"><ele>108.155319</ele><time>2022-03-04T10:10:50Z</time><extensions><speed>1.196698</speed><course>116.529915</course><hAcc>1.421920</hAcc><vAcc>0.831120</vAcc></extensions></trkpt>
      <trkpt lon="-2.263076" lat="53.106084"><ele>108.085892</ele><time>2022-03-04T10:10:51Z</time><extensions><speed>1.312121</speed><course>116.092369</course><hAcc>1.434131</hAcc><vAcc>0.830920</vAcc></extensions></trkpt>
      <trkpt lon="-2.263059" lat="53.106079"><ele>108.020844</ele><time>2022-03-04T10:10:52Z</time><extensions><speed>1.351086</speed><course>113.779213</course><hAcc>1.443757</hAcc><vAcc>0.830670</vAcc></extensions></trkpt>
      <trkpt lon="-2.263041" lat="53.106075"><ele>107.960762</ele><time>2022-03-04T10:10:53Z</time><extensions><speed>1.268934</speed><course>111.028641</course><hAcc>1.454577</hAcc><vAcc>0.830407</vAcc></extensions></trkpt>
      <trkpt lon="-2.263025" lat="53.106071"><ele>107.905060</ele><time>2022-03-04T10:10:54Z</time><extensions><speed>1.055832</speed><course>113.528473</course><hAcc>1.462291</hAcc><vAcc>0.830107</vAcc></extensions></trkpt>
      <trkpt lon="-2.263012" lat="53.106067"><ele>107.865372</ele><time>2022-03-04T10:10:56Z</time><extensions><speed>0.847644</speed><course>116.926758</course><hAcc>1.475696</hAcc><vAcc>0.829806</vAcc></extensions></trkpt>
      <trkpt lon="-2.263003" lat="53.106064"><ele>107.826263</ele><time>2022-03-04T10:10:57Z</time><extensions><speed>0.570330</speed><course>121.196411</course><hAcc>1.511670</hAcc><vAcc>0.829470</vAcc></extensions></trkpt>
      <trkpt lon="-2.262998" lat="53.106062"><ele>107.790352</ele><time>2022-03-04T10:10:58Z</time><extensions><speed>0.250942</speed><course>129.932938</course><hAcc>1.553205</hAcc><vAcc>0.829098</vAcc></extensions></trkpt>
      <trkpt lon="-2.262999" lat="53.106062"><ele>107.757698</ele><time>2022-03-04T10:10:59Z</time><extensions><speed>0.431068</speed><course>296.985382</course><hAcc>1.557669</hAcc><vAcc>0.828727</vAcc></extensions></trkpt>
      <trkpt lon="-2.263007" lat="53.106065"><ele>107.728470</ele><time>2022-03-04T10:11:00Z</time><extensions><speed>0.678350</speed><course>299.393372</course><hAcc>1.558987</hAcc><vAcc>0.828361</vAcc></extensions></trkpt>
      <trkpt lon="-2.263015" lat="53.106068"><ele>107.703003</ele><time>2022-03-04T10:11:01Z</time><extensions><speed>0.627436</speed><course>300.378448</course><hAcc>1.594083</hAcc><vAcc>0.828005</vAcc></extensions></trkpt>
      <trkpt lon="-2.263022" lat="53.106070"><ele>107.681511</ele><time>2022-03-04T10:11:02Z</time><extensions><speed>0.411757</speed><course>301.152435</course><hAcc>1.657913</hAcc><vAcc>0.827655</vAcc></extensions></trkpt>
      <trkpt lon="-2.263026" lat="53.106072"><ele>107.664001</ele><time>2022-03-04T10:11:03Z</time><extensions><speed>0.246800</speed><course>302.558990</course><hAcc>1.697163</hAcc><vAcc>0.827330</vAcc></extensions></trkpt>
      <trkpt lon="-2.263030" lat="53.106073"><ele>107.650291</ele><time>2022-03-04T10:11:04Z</time><extensions><speed>0.334344</speed><course>304.721985</course><hAcc>1.654698</hAcc><vAcc>0.827057</vAcc></extensions></trkpt>
      <trkpt lon="-2.263034" lat="53.106075"><ele>107.640060</ele><time>2022-03-04T10:11:05Z</time><extensions><speed>0.337969</speed><course>307.543488</course><hAcc>1.637298</hAcc><vAcc>0.826819</vAcc></extensions></trkpt>
      <trkpt lon="-2.263038" lat="53.106077"><ele>107.629967</ele><time>2022-03-04T10:11:06Z</time><extensions><speed>0.298691</speed><course>311.331207</course><hAcc>1.640522</hAcc><vAcc>0.826610</vAcc></extensions></trkpt>
      <trkpt lon="-2.263040" lat="53.106078"><ele>107.625748</ele><time>2022-03-04T10:11:07Z</time><extensions><speed>0.235180</speed><course>314.610229</course><hAcc>1.642966</hAcc><vAcc>0.826463</vAcc></extensions></trkpt>
      <trkpt lon="-2.263043" lat="53.106080"><ele>107.617905</ele><time>2022-03-04T10:11:08Z</time><extensions><speed>0.158274</speed><course>317.416351</course><hAcc>1.650349</hAcc><vAcc>0.826328</vAcc></extensions></trkpt>
      <trkpt lon="-2.263044" lat="53.106081"><ele>107.612244</ele><time>2022-03-04T10:11:09Z</time><extensions><speed>0.097595</speed><course>320.480255</course><hAcc>1.655616</hAcc><vAcc>0.826214</vAcc></extensions></trkpt>
      <trkpt lon="-2.263045" lat="53.106081"><ele>107.605598</ele><time>2022-03-04T10:11:10Z</time><extensions><speed>0.077259</speed><course>324.207825</course><hAcc>1.639825</hAcc><vAcc>0.826126</vAcc></extensions></trkpt>
      <trkpt lon="-2.263045" lat="53.106082"><ele>107.596069</ele><time>2022-03-04T10:11:11Z</time><extensions><speed>0.066201</speed><course>328.255432</course><hAcc>1.634961</hAcc><vAcc>0.826057</vAcc></extensions></trkpt>
      <trkpt lon="-2.263046" lat="53.106082"><ele>107.586090</ele><time>2022-03-04T10:11:12Z</time><extensions><speed>0.065722</speed><course>332.155609</course><hAcc>1.648397</hAcc><vAcc>0.826042</vAcc></extensions></trkpt>
      <trkpt lon="-2.263046" lat="53.106083"><ele>107.578499</ele><time>2022-03-04T10:11:13Z</time><extensions><speed>0.065126</speed><course>335.530090</course><hAcc>1.678890</hAcc><vAcc>0.826046</vAcc></extensions></trkpt>
      <trkpt lon="-2.263047" lat="53.106084"><ele>107.569145</ele><time>2022-03-04T10:11:14Z</time><extensions><speed>0.130420</speed><course>336.868988</course><hAcc>1.651089</hAcc><vAcc>0.826075</vAcc></extensions></trkpt>
      <trkpt lon="-2.263048" lat="53.106085"><ele>107.558159</ele><time>2022-03-04T10:11:15Z</time><extensions><speed>0.176202</speed><course>336.464142</course><hAcc>1.656938</hAcc><vAcc>0.826119</vAcc></extensions></trkpt>
      <trkpt lon="-2.263049" lat="53.106086"><ele>107.546074</ele><time>2022-03-04T10:11:16Z</time><extensions><speed>0.199143</speed><course>334.329742</course><hAcc>1.684094</hAcc><vAcc>0.826149</vAcc></extensions></trkpt>
      <trkpt lon="-2.263050" lat="53.106088"><ele>107.533340</ele><time>2022-03-04T10:11:17Z</time><extensions><speed>0.195099</speed><course>330.615021</course><hAcc>1.705952</hAcc><vAcc>0.826161</vAcc></extensions></trkpt>
      <trkpt lon="-2.263052" lat="53.106089"><ele>107.520103</ele><time>2022-03-04T10:11:18Z</time><extensions><speed>0.172636</speed><course>326.405701</course><hAcc>1.714942</hAcc><vAcc>0.826147</vAcc></extensions></trkpt>
      <trkpt lon="-2.263053" lat="53.106091"><ele>107.506592</ele><time>2022-03-04T10:11:19Z</time><extensions><speed>0.147691</speed><course>322.986755</course><hAcc>1.713254</hAcc><vAcc>0.826144</vAcc></extensions></trkpt>
      <trkpt lon="-2.263054" lat="53.106092"><ele>107.493050</ele><time>2022-03-04T10:11:20Z</time><extensions><speed>0.120886</speed><course>321.510681</course><hAcc>1.719632</hAcc><vAcc>0.826124</vAcc></extensions></trkpt>
      <trkpt lon="-2.263055" lat="53.106092"><ele>107.479736</ele><time>2022-03-04T10:11:21Z</time><extensions><speed>0.084686</speed><course>321.097137</course><hAcc>1.734848</hAcc><vAcc>0.826098</vAcc></extensions></trkpt>
      <trkpt lon="-2.263056" lat="53.106093"><ele>107.466866</ele><time>2022-03-04T10:11:22Z</time><extensions><speed>0.087338</speed><course>320.276398</course><hAcc>1.697809</hAcc><vAcc>0.826072</vAcc></extensions></trkpt>
      <trkpt lon="-2.263057" lat="53.106093"><ele>107.451035</ele><time>2022-03-04T10:11:23Z</time><extensions><speed>0.078512</speed><course>316.589325</course><hAcc>1.664790</hAcc><vAcc>0.826065</vAcc></extensions></trkpt>
      <trkpt lon="-2.263058" lat="53.106094"><ele>107.430611</ele><time>2022-03-04T10:11:24Z</time><extensions><speed>0.067055</speed><course>311.751129</course><hAcc>1.639759</hAcc><vAcc>0.826037</vAcc></extensions></trkpt>
      <trkpt lon="-2.263059" lat="53.106094"><ele>107.409088</ele><time>2022-03-04T10:11:25Z</time><extensions><speed>0.051315</speed><course>307.802643</course><hAcc>1.637144</hAcc><vAcc>0.826027</vAcc></extensions></trkpt>
      <trkpt lon="-2.263059" lat="53.106094"><ele>107.383873</ele><time>2022-03-04T10:11:26Z</time><extensions><speed>0.027203</speed><course>302.285248</course><hAcc>1.671994</hAcc><vAcc>0.826034</vAcc></extensions></trkpt>
      <trkpt lon="-2.263059" lat="53.106095"><ele>107.357719</ele><time>2022-03-04T10:11:27Z</time><extensions><speed>0.016652</speed><course>289.065491</course><hAcc>1.689200</hAcc><vAcc>0.826035</vAcc></extensions></trkpt>
      <trkpt lon="-2.263060" lat="53.106095"><ele>107.330788</ele><time>2022-03-04T10:11:28Z</time><extensions><speed>0.020013</speed><course>268.388092</course><hAcc>1.671531</hAcc><vAcc>0.826060</vAcc></extensions></trkpt>
      <trkpt lon="-2.263060" lat="53.106094"><ele>107.303123</ele><time>2022-03-04T10:11:29Z</time><extensions><speed>0.033858</speed><course>252.723373</course><hAcc>1.644747</hAcc><vAcc>0.826100</vAcc></extensions></trkpt>
      <trkpt lon="-2.263061" lat="53.106094"><ele>107.274757</ele><time>2022-03-04T10:11:30Z</time><extensions><speed>0.047939</speed><course>243.189301</course><hAcc>1.656284</hAcc><vAcc>0.826131</vAcc></extensions></trkpt>
      <trkpt lon="-2.263061" lat="53.106094"><ele>107.245850</ele><time>2022-03-04T10:11:31Z</time><extensions><speed>0.062624</speed><course>237.166351</course><hAcc>1.686352</hAcc><vAcc>0.826182</vAcc></extensions></trkpt>
      <trkpt lon="-2.263062" lat="53.106094"><ele>107.216606</ele><time>2022-03-04T10:11:32Z</time><extensions><speed>0.075737</speed><course>233.391953</course><hAcc>1.711593</hAcc><vAcc>0.826209</vAcc></extensions></trkpt>
      <trkpt lon="-2.263063" lat="53.106093"><ele>107.187363</ele><time>2022-03-04T10:11:33Z</time><extensions><speed>0.078865</speed><course>230.599518</course><hAcc>1.729177</hAcc><vAcc>0.826225</vAcc></extensions></trkpt>
      <trkpt lon="-2.263064" lat="53.106093"><ele>107.158546</ele><time>2022-03-04T10:11:34Z</time><extensions><speed>0.069023</speed><course>228.417572</course><hAcc>1.742568</hAcc><vAcc>0.826221</vAcc></extensions></trkpt>
      <trkpt lon="-2.263065" lat="53.106092"><ele>107.130638</ele><time>2022-03-04T10:11:35Z</time><extensions><speed>0.061631</speed><course>225.249435</course><hAcc>1.739594</hAcc><vAcc>0.826203</vAcc></extensions></trkpt>
      <trkpt lon="-2.263065" lat="53.106092"><ele>107.104073</ele><time>2022-03-04T10:11:36Z</time><extensions><speed>0.053435</speed><course>217.351746</course><hAcc>1.739125</hAcc><vAcc>0.826191</vAcc></extensions></trkpt>
      <trkpt lon="-2.263066" lat="53.106092"><ele>107.079239</ele><time>2022-03-04T10:11:37Z</time><extensions><speed>0.049270</speed><course>205.968323</course><hAcc>1.741981</hAcc><vAcc>0.826171</vAcc></extensions></trkpt>
      <trkpt lon="-2.263066" lat="53.106091"><ele>107.056389</ele><time>2022-03-04T10:11:38Z</time><extensions><speed>0.047038</speed><course>196.949661</course><hAcc>1.740286</hAcc><vAcc>0.826136</vAcc></extensions></trkpt>
      <trkpt lon="-2.263066" lat="53.106091"><ele>107.035645</ele><time>2022-03-04T10:11:39Z</time><extensions><speed>0.040314</speed><course>192.054047</course><hAcc>1.735769</hAcc><vAcc>0.826120</vAcc></extensions></trkpt>
      <trkpt lon="-2.263066" lat="53.106091"><ele>107.017090</ele><time>2022-03-04T10:11:40Z</time><extensions><speed>0.030948</speed><course>189.436066</course><hAcc>1.725858</hAcc><vAcc>0.826104</vAcc></extensions></trkpt>
      <trkpt lon="-2.263066" lat="53.106090"><ele>107.000702</ele><time>2022-03-04T10:11:41Z</time><extensions><speed>0.022362</speed><course>187.782639</course><hAcc>1.711679</hAcc><vAcc>0.826095</vAcc></extensions></trkpt>
      <trkpt lon="-2.263066" lat="53.106090"><ele>106.986420</ele><time>2022-03-04T10:11:42Z</time><extensions><speed>0.014709</speed><course>186.615082</course><hAcc>1.702850</hAcc><vAcc>0.826087</vAcc></extensions></trkpt>
      <trkpt lon="-2.263066" lat="53.106090"><ele>106.974121</ele><time>2022-03-04T10:11:43Z</time><extensions><speed>0.009180</speed><course>185.700836</course><hAcc>1.698094</hAcc><vAcc>0.826083</vAcc></extensions></trkpt>
      <trkpt lon="-2.263066" lat="53.106090"><ele>106.963684</ele><time>2022-03-04T10:11:44Z</time><extensions><speed>0.005486</speed><course>184.952087</course><hAcc>1.699370</hAcc><vAcc>0.826094</vAcc></extensions></trkpt>
      <trkpt lon="-2.263066" lat="53.106090"><ele>106.955757</ele><time>2022-03-04T10:11:45Z</time><extensions><speed>0.003842</speed><course>197.854858</course><hAcc>1.697465</hAcc><vAcc>0.826097</vAcc></extensions></trkpt>
      <trkpt lon="-2.263066" lat="53.106090"><ele>106.944527</ele><time>2022-03-04T10:11:46Z</time><extensions><speed>0.004773</speed><course>215.071747</course><hAcc>1.666756</hAcc><vAcc>0.826121</vAcc></extensions></trkpt>
      <trkpt lon="-2.263066" lat="53.106090"><ele>106.935005</ele><time>2022-03-04T10:11:46Z</time><extensions><speed>0.005939</speed><course>227.009018</course><hAcc>1.677302</hAcc><vAcc>0.826145</vAcc></extensions></trkpt>
      <trkpt lon="-2.263066" lat="53.106090"><ele>106.926231</ele><time>2022-03-04T10:11:47Z</time><extensions><speed>0.006846</speed><course>235.025726</course><hAcc>1.720093</hAcc><vAcc>0.826171</vAcc></extensions></trkpt>
      <trkpt lon="-2.263067" lat="53.106090"><ele>106.918030</ele><time>2022-03-04T10:11:48Z</time><extensions><speed>0.014643</speed><course>238.523285</course><hAcc>1.695128</hAcc><vAcc>0.826185</vAcc></extensions></trkpt>
      <trkpt lon="-2.263067" lat="53.106090"><ele>106.910271</ele><time>2022-03-04T10:11:49Z</time><extensions><speed>0.023082</speed><course>239.749588</course><hAcc>1.688690</hAcc><vAcc>0.826209</vAcc></extensions></trkpt>
      <trkpt lon="-2.263067" lat="53.106090"><ele>106.902817</ele><time>2022-03-04T10:11:50Z</time><extensions><speed>0.033582</speed><course>240.316711</course><hAcc>1.699591</hAcc><vAcc>0.826203</vAcc></extensions></trkpt>
      <trkpt lon="-2.263068" lat="53.106089"><ele>106.895584</ele><time>2022-03-04T10:11:51Z</time><extensions><speed>0.045858</speed><course>240.568665</course><hAcc>1.709968</hAcc><vAcc>0.826184</vAcc></extensions></trkpt>
      <trkpt lon="-2.263068" lat="53.106089"><ele>106.893028</ele><time>2022-03-04T10:11:52Z</time><extensions><speed>0.059337</speed><course>240.908920</course><hAcc>1.713142</hAcc><vAcc>0.826176</vAcc></extensions></trkpt>
      <trkpt lon="-2.263069" lat="53.106089"><ele>106.889664</ele><time>2022-03-04T10:11:53Z</time><extensions><speed>0.068072</speed><course>240.924927</course><hAcc>1.723139</hAcc><vAcc>0.826176</vAcc></extensions></trkpt>
      <trkpt lon="-2.263070" lat="53.106089"><ele>106.890007</ele><time>2022-03-04T10:11:54Z</time><extensions><speed>0.058091</speed><course>240.873840</course><hAcc>1.742698</hAcc><vAcc>0.826163</vAcc></extensions></trkpt>
      <trkpt lon="-2.263071" lat="53.106088"><ele>106.891472</ele><time>2022-03-04T10:11:55Z</time><extensions><speed>0.053399</speed><course>241.141983</course><hAcc>1.725536</hAcc><vAcc>0.826148</vAcc></extensions></trkpt>
      <trkpt lon="-2.263071" lat="53.106088"><ele>106.891815</ele><time>2022-03-04T10:11:56Z</time><extensions><speed>0.039130</speed><course>241.603424</course><hAcc>1.717994</hAcc><vAcc>0.826132</vAcc></extensions></trkpt>
      <trkpt lon="-2.263072" lat="53.106088"><ele>106.893105</ele><time>2022-03-04T10:11:57Z</time><extensions><speed>0.023267</speed><course>242.883179</course><hAcc>1.718996</hAcc><vAcc>0.826117</vAcc></extensions></trkpt>
      <trkpt lon="-2.263072" lat="53.106088"><ele>106.895348</ele><time>2022-03-04T10:11:58Z</time><extensions><speed>0.007874</speed><course>248.833496</course><hAcc>1.718707</hAcc><vAcc>0.826094</vAcc></extensions></trkpt>
      <trkpt lon="-2.263072" lat="53.106088"><ele>106.898506</ele><time>2022-03-04T10:11:59Z</time><extensions><speed>0.006574</speed><course>50.613670</course><hAcc>1.714131</hAcc><vAcc>0.826061</vAcc></extensions></trkpt>
      <trkpt lon="-2.263072" lat="53.106088"><ele>106.902489</ele><time>2022-03-04T10:12:00Z</time><extensions><speed>0.018815</speed><course>58.794334</course><hAcc>1.712564</hAcc><vAcc>0.826021</vAcc></extensions></trkpt>
      <trkpt lon="-2.263072" lat="53.106088"><ele>106.907120</ele><time>2022-03-04T10:12:01Z</time><extensions><speed>0.028030</speed><course>62.962818</course><hAcc>1.703382</hAcc><vAcc>0.825973</vAcc></extensions></trkpt>
      <trkpt lon="-2.263071" lat="53.106088"><ele>106.912186</ele><time>2022-03-04T10:12:02Z</time><extensions><speed>0.035434</speed><course>70.067902</course><hAcc>1.665462</hAcc><vAcc>0.825924</vAcc></extensions></trkpt>
      <trkpt lon="-2.263071" lat="53.106088"><ele>106.917427</ele><time>2022-03-04T10:12:03Z</time><extensions><speed>0.032626</speed><course>79.963165</course><hAcc>1.642460</hAcc><vAcc>0.825880</vAcc></extensions></trkpt>
      <trkpt lon="-2.263070" lat="53.106088"><ele>106.922607</ele><time>2022-03-04T10:12:04Z</time><extensions><speed>0.022241</speed><course>94.317146</course><hAcc>1.651757</hAcc><vAcc>0.825826</vAcc></extensions></trkpt>
      <trkpt lon="-2.263070" lat="53.106088"><ele>106.927513</ele><time>2022-03-04T10:12:05Z</time><extensions><speed>0.018815</speed><course>113.383476</course><hAcc>1.642291</hAcc><vAcc>0.825778</vAcc></extensions></trkpt>
      <trkpt lon="-2.263070" lat="53.106088"><ele>106.932045</ele><time>2022-03-04T10:12:06Z</time><extensions><speed>0.018335</speed><course>124.867424</course><hAcc>1.615163</hAcc><vAcc>0.825725</vAcc></extensions></trkpt>
      <trkpt lon="-2.263069" lat="53.106088"><ele>106.936142</ele><time>2022-03-04T10:12:07Z</time><extensions><speed>0.015940</speed><course>128.864670</course><hAcc>1.592427</hAcc><vAcc>0.825672</vAcc></extensions></trkpt>
      <trkpt lon="-2.263069" lat="53.106088"><ele>106.939804</ele><time>2022-03-04T10:12:08Z</time><extensions><speed>0.011936</speed><course>130.592621</course><hAcc>1.587686</hAcc><vAcc>0.825631</vAcc></extensions></trkpt>
      <trkpt lon="-2.263069" lat="53.106088"><ele>106.943031</ele><time>2022-03-04T10:12:09Z</time><extensions><speed>0.008540</speed><course>131.465546</course><hAcc>1.591669</hAcc><vAcc>0.825590</vAcc></extensions></trkpt>
      <trkpt lon="-2.263069" lat="53.106088"><ele>106.945839</ele><time>2022-03-04T10:12:10Z</time><extensions><speed>0.005970</speed><course>131.916397</course><hAcc>1.605138</hAcc><vAcc>0.825586</vAcc></extensions></trkpt>
      <trkpt lon="-2.263069" lat="53.106088"><ele>106.969467</ele><time>2022-03-04T10:12:11Z</time><extensions><speed>0.004715</speed><course>133.593384</course><hAcc>1.631249</hAcc><vAcc>0.825609</vAcc></extensions></trkpt>
      <trkpt lon="-2.263069" lat="53.106088"><ele>106.997345</ele><time>2022-03-04T10:12:12Z</time><extensions><speed>0.004980</speed><course>137.397049</course><hAcc>1.646402</hAcc><vAcc>0.825637</vAcc></extensions></trkpt>
      <trkpt lon="-2.263069" lat="53.106088"><ele>107.028259</ele><time>2022-03-04T10:12:13Z</time><extensions><speed>0.009189</speed><course>140.875809</course><hAcc>1.627087</hAcc><vAcc>0.825687</vAcc></extensions></trkpt>
      <trkpt lon="-2.263069" lat="53.106088"><ele>107.060951</ele><time>2022-03-04T10:12:14Z</time><extensions><speed>0.012974</speed><course>142.956589</course><hAcc>1.644571</hAcc><vAcc>0.825774</vAcc></extensions></trkpt>
      <trkpt lon="-2.263069" lat="53.106088"><ele>107.096565</ele><time>2022-03-04T10:12:15Z</time><extensions><speed>0.017567</speed><course>144.462769</course><hAcc>1.681227</hAcc><vAcc>0.825849</vAcc></extensions></trkpt>
      <trkpt lon="-2.263068" lat="53.106087"><ele>107.134964</ele><time>2022-03-04T10:12:16Z</time><extensions><speed>0.023944</speed><course>145.452774</course><hAcc>1.709303</hAcc><vAcc>0.825933</vAcc></extensions></trkpt>
      <trkpt lon="-2.263068" lat="53.106087"><ele>107.175980</ele><time>2022-03-04T10:12:17Z</time><extensions><speed>0.032518</speed><course>146.085220</course><hAcc>1.724362</hAcc><vAcc>0.826008</vAcc></extensions></trkpt>
      <trkpt lon="-2.263068" lat="53.106087"><ele>107.219276</ele><time>2022-03-04T10:12:18Z</time><extensions><speed>0.043315</speed><course>146.553009</course><hAcc>1.731424</hAcc><vAcc>0.826098</vAcc></extensions></trkpt>
      <trkpt lon="-2.263067" lat="53.106087"><ele>107.264351</ele><time>2022-03-04T10:12:19Z</time><extensions><speed>0.054240</speed><course>147.044891</course><hAcc>1.738269</hAcc><vAcc>0.826184</vAcc></extensions></trkpt>
      <trkpt lon="-2.263067" lat="53.106086"><ele>107.310486</ele><time>2022-03-04T10:12:20Z</time><extensions><speed>0.062628</speed><course>147.834671</course><hAcc>1.740414</hAcc><vAcc>0.826273</vAcc></extensions></trkpt>
      <trkpt lon="-2.263067" lat="53.106086"><ele>107.356705</ele><time>2022-03-04T10:12:21Z</time><extensions><speed>0.062618</speed><course>149.709030</course><hAcc>1.729078</hAcc><vAcc>0.826353</vAcc></extensions></trkpt>
      <trkpt lon="-2.263066" lat="53.106085"><ele>107.401871</ele><time>2022-03-04T10:12:22Z</time><extensions><speed>0.045502</speed><course>152.289948</course><hAcc>1.722566</hAcc><vAcc>0.826416</vAcc></extensions></trkpt>
      <trkpt lon="-2.263066" lat="53.106085"><ele>107.445015</ele><time>2022-03-04T10:12:23Z</time><extensions><speed>0.026698</speed><course>154.646133</course><hAcc>1.714567</hAcc><vAcc>0.826461</vAcc></extensions></trkpt>
      <trkpt lon="-2.263066" lat="53.106085"><ele>107.485443</ele><time>2022-03-04T10:12:24Z</time><extensions><speed>0.013068</speed><course>158.134369</course><hAcc>1.704871</hAcc><vAcc>0.826503</vAcc></extensions></trkpt>
      <trkpt lon="-2.263066" lat="53.106085"><ele>107.522705</ele><time>2022-03-04T10:12:25Z</time><extensions><speed>0.005655</speed><course>163.624695</course><hAcc>1.698909</hAcc><vAcc>0.826509</vAcc></extensions></trkpt>
      <trkpt lon="-2.263066" lat="53.106085"><ele>107.556572</ele><time>2022-03-04T10:12:26Z</time><extensions><speed>0.002209</speed><course>174.272903</course><hAcc>1.685934</hAcc><vAcc>0.826514</vAcc></extensions></trkpt>
      <trkpt lon="-2.263066" lat="53.106085"><ele>107.586922</ele><time>2022-03-04T10:12:27Z</time><extensions><speed>0.000830</speed><course>198.255539</course><hAcc>1.667547</hAcc><vAcc>0.826511</vAcc></extensions></trkpt>
      <trkpt lon="-2.263066" lat="53.106085"><ele>107.613770</ele><time>2022-03-04T10:12:28Z</time><extensions><speed>0.000377</speed><course>243.874451</course><hAcc>1.657948</hAcc><vAcc>0.826498</vAcc></extensions></trkpt>
      <trkpt lon="-2.263066" lat="53.106085"><ele>107.637215</ele><time>2022-03-04T10:12:29Z</time><extensions><speed>0.000331</speed><course>278.115326</course><hAcc>1.632229</hAcc><vAcc>0.826492</vAcc></extensions></trkpt>
      <trkpt lon="-2.263066" lat="53.106085"><ele>107.657433</ele><time>2022-03-04T10:12:30Z</time><extensions><speed>0.000284</speed><course>291.127045</course><hAcc>1.617827</hAcc><vAcc>0.826490</vAcc></extensions></trkpt>
      <trkpt lon="-2.263066" lat="53.106085"><ele>107.674614</ele><time>2022-03-04T10:12:31Z</time><extensions><speed>0.000181</speed><course>297.148315</course><hAcc>1.633341</hAcc><vAcc>0.826490</vAcc></extensions></trkpt>
      <trkpt lon="-2.263066" lat="53.106085"><ele>107.689018</ele><time>2022-03-04T10:12:32Z</time><extensions><speed>0.000136</speed><course>300.527283</course><hAcc>1.633069</hAcc><vAcc>0.826472</vAcc></extensions></trkpt>
      <trkpt lon="-2.263066" lat="53.106085"><ele>107.700905</ele><time>2022-03-04T10:12:33Z</time><extensions><speed>0.000103</speed><course>302.166656</course><hAcc>1.632401</hAcc><vAcc>0.826472</vAcc></extensions></trkpt>
      <trkpt lon="-2.263066" lat="53.106085"><ele>107.710533</ele><time>2022-03-04T10:12:34Z</time><extensions><speed>0.000096</speed><course>302.904327</course><hAcc>1.629153</hAcc><vAcc>0.826456</vAcc></extensions></trkpt>
      <trkpt lon="-2.263066" lat="53.106085"><ele>107.748451</ele><time>2022-03-04T10:12:35Z</time><extensions><speed>0.000322</speed><course>14.117741</course><hAcc>1.670181</hAcc><vAcc>0.826461</vAcc></extensions></trkpt>
      <trkpt lon="-2.263066" lat="53.106085"><ele>107.785080</ele><time>2022-03-04T10:12:36Z</time><extensions><speed>0.001062</speed><course>10.115307</course><hAcc>1.663711</hAcc><vAcc>0.826470</vAcc></extensions></trkpt>
      <trkpt lon="-2.263066" lat="53.106085"><ele>107.825394</ele><time>2022-03-04T10:12:37Z</time><extensions><speed>0.001606</speed><course>5.470716</course><hAcc>1.672119</hAcc><vAcc>0.826504</vAcc></extensions></trkpt>
      <trkpt lon="-2.263066" lat="53.106085"><ele>107.868576</ele><time>2022-03-04T10:12:38Z</time><extensions><speed>0.002302</speed><course>2.599600</course><hAcc>1.694702</hAcc><vAcc>0.826537</vAcc></extensions></trkpt>
      <trkpt lon="-2.263066" lat="53.106085"><ele>107.914772</ele><time>2022-03-04T10:12:39Z</time><extensions><speed>0.003221</speed><course>0.261612</course><hAcc>1.712533</hAcc><vAcc>0.826555</vAcc></extensions></trkpt>
      <trkpt lon="-2.263066" lat="53.106085"><ele>107.963982</ele><time>2022-03-04T10:12:40Z</time><extensions><speed>0.004487</speed><course>358.663269</course><hAcc>1.718510</hAcc><vAcc>0.826576</vAcc></extensions></trkpt>
      <trkpt lon="-2.263066" lat="53.106085"><ele>108.016068</ele><time>2022-03-04T10:12:41Z</time><extensions><speed>0.006026</speed><course>356.991852</course><hAcc>1.719743</hAcc><vAcc>0.826622</vAcc></extensions></trkpt>
      <trkpt lon="-2.263066" lat="53.106085"><ele>108.070755</ele><time>2022-03-04T10:12:42Z</time><extensions><speed>0.007540</speed><course>354.642059</course><hAcc>1.724278</hAcc><vAcc>0.826676</vAcc></extensions></trkpt>
      <trkpt lon="-2.263066" lat="53.106085"><ele>108.127487</ele><time>2022-03-04T10:12:43Z</time><extensions><speed>0.009156</speed><course>350.557739</course><hAcc>1.725509</hAcc><vAcc>0.826742</vAcc></extensions></trkpt>
      <trkpt lon="-2.263066" lat="53.106085"><ele>108.185425</ele><time>2022-03-04T10:12:44Z</time><extensions><speed>0.009873</speed><course>341.520874</course><hAcc>1.720852</hAcc><vAcc>0.826814</vAcc></extensions></trkpt>
      <trkpt lon="-2.263066" lat="53.106085"><ele>108.243385</ele><time>2022-03-04T10:12:45Z</time><extensions><speed>0.009525</speed><course>314.529449</course><hAcc>1.696252</hAcc><vAcc>0.826900</vAcc></extensions></trkpt>
      <trkpt lon="-2.263066" lat="53.106085"><ele>108.291168</ele><time>2022-03-04T10:12:46Z</time><extensions><speed>0.012904</speed><course>276.172791</course><hAcc>1.674836</hAcc><vAcc>0.826976</vAcc></extensions></trkpt>
      <trkpt lon="-2.263066" lat="53.106085"><ele>108.331787</ele><time>2022-03-04T10:12:47Z</time><extensions><speed>0.016133</speed><course>262.062042</course><hAcc>1.658257</hAcc><vAcc>0.827050</vAcc></extensions></trkpt>
      <trkpt lon="-2.263067" lat="53.106085"><ele>108.362228</ele><time>2022-03-04T10:12:48Z</time><extensions><speed>0.016007</speed><course>264.986084</course><hAcc>1.670041</hAcc><vAcc>0.827101</vAcc></extensions></trkpt>
      <trkpt lon="-2.263067" lat="53.106085"><ele>108.389153</ele><time>2022-03-04T10:12:49Z</time><extensions><speed>0.012005</speed><course>275.229034</course><hAcc>1.718274</hAcc><vAcc>0.827188</vAcc></extensions></trkpt>
      <trkpt lon="-2.263067" lat="53.106085"><ele>108.399094</ele><time>2022-03-04T10:12:50Z</time><extensions><speed>0.019350</speed><course>286.067413</course><hAcc>1.710584</hAcc><vAcc>0.827249</vAcc></extensions></trkpt>
      <trkpt lon="-2.263068" lat="53.106085"><ele>108.400551</ele><time>2022-03-04T10:12:51Z</time><extensions><speed>0.040141</speed><course>291.004852</course><hAcc>1.674139</hAcc><vAcc>0.827285</vAcc></extensions></trkpt>
      <trkpt lon="-2.263068" lat="53.106085"><ele>108.388199</ele><time>2022-03-04T10:12:52Z</time><extensions><speed>0.061361</speed><course>293.246765</course><hAcc>1.677068</hAcc><vAcc>0.827338</vAcc></extensions></trkpt>
      <trkpt lon="-2.263069" lat="53.106086"><ele>108.370018</ele><time>2022-03-04T10:12:53Z</time><extensions><speed>0.085778</speed><course>294.638916</course><hAcc>1.701805</hAcc><vAcc>0.827398</vAcc></extensions></trkpt>
      <trkpt lon="-2.263071" lat="53.106086"><ele>108.344261</ele><time>2022-03-04T10:12:54Z</time><extensions><speed>0.111739</speed><course>295.354279</course><hAcc>1.724274</hAcc><vAcc>0.827469</vAcc></extensions></trkpt>
      <trkpt lon="-2.263072" lat="53.106087"><ele>108.311646</ele><time>2022-03-04T10:12:55Z</time><extensions><speed>0.129984</speed><course>295.649506</course><hAcc>1.738393</hAcc><vAcc>0.827534</vAcc></extensions></trkpt>
      <trkpt lon="-2.263074" lat="53.106087"><ele>108.273201</ele><time>2022-03-04T10:12:56Z</time><extensions><speed>0.117882</speed><course>295.557190</course><hAcc>1.744776</hAcc><vAcc>0.827612</vAcc></extensions></trkpt>
      <trkpt lon="-2.263075" lat="53.106087"><ele>108.230148</ele><time>2022-03-04T10:12:57Z</time><extensions><speed>0.076712</speed><course>297.778748</course><hAcc>1.745380</hAcc><vAcc>0.827684</vAcc></extensions></trkpt>
      <trkpt lon="-2.263076" lat="53.106088"><ele>108.183838</ele><time>2022-03-04T10:12:58Z</time><extensions><speed>0.031185</speed><course>313.712006</course><hAcc>1.741873</hAcc><vAcc>0.827755</vAcc></extensions></trkpt>
      <trkpt lon="-2.263076" lat="53.106088"><ele>108.135101</ele><time>2022-03-04T10:12:59Z</time><extensions><speed>0.017322</speed><course>54.036255</course><hAcc>1.732529</hAcc><vAcc>0.827811</vAcc></extensions></trkpt>
      <trkpt lon="-2.263076" lat="53.106088"><ele>108.085754</ele><time>2022-03-04T10:13:00Z</time><extensions><speed>0.032418</speed><course>83.814789</course><hAcc>1.725750</hAcc><vAcc>0.827881</vAcc></extensions></trkpt>
      <trkpt lon="-2.263075" lat="53.106088"><ele>108.032204</ele><time>2022-03-04T10:13:02Z</time><extensions><speed>0.035234</speed><course>87.949936</course><hAcc>1.724311</hAcc><vAcc>0.827909</vAcc></extensions></trkpt>
      <trkpt lon="-2.263075" lat="53.106088"><ele>107.979691</ele><time>2022-03-04T10:13:03Z</time><extensions><speed>0.033415</speed><course>86.913246</course><hAcc>1.726165</hAcc><vAcc>0.827908</vAcc></extensions></trkpt>
      <trkpt lon="-2.263074" lat="53.106088"><ele>107.928986</ele><time>2022-03-04T10:13:04Z</time><extensions><speed>0.023589</speed><course>86.931366</course><hAcc>1.747164</hAcc><vAcc>0.827932</vAcc></extensions></trkpt>
      <trkpt lon="-2.263074" lat="53.106088"><ele>107.878014</ele><time>2022-03-04T10:13:05Z</time><extensions><speed>0.024085</speed><course>95.602959</course><hAcc>1.725029</hAcc><vAcc>0.827961</vAcc></extensions></trkpt>
      <trkpt lon="-2.263073" lat="53.106088"><ele>107.832397</ele><time>2022-03-04T10:13:06Z</time><extensions><speed>0.024251</speed><course>109.523300</course><hAcc>1.715055</hAcc><vAcc>0.827945</vAcc></extensions></trkpt>
      <trkpt lon="-2.263073" lat="53.106088"><ele>107.789780</ele><time>2022-03-04T10:13:07Z</time><extensions><speed>0.027421</speed><course>124.860329</course><hAcc>1.717801</hAcc><vAcc>0.827899</vAcc></extensions></trkpt>
      <trkpt lon="-2.263073" lat="53.106088"><ele>107.750259</ele><time>2022-03-04T10:13:08Z</time><extensions><speed>0.033769</speed><course>136.704453</course><hAcc>1.719437</hAcc><vAcc>0.827857</vAcc></extensions></trkpt>
      <trkpt lon="-2.263072" lat="53.106087"><ele>107.713882</ele><time>2022-03-04T10:13:09Z</time><extensions><speed>0.042290</speed><course>144.420181</course><hAcc>1.710769</hAcc><vAcc>0.827802</vAcc></extensions></trkpt>
      <trkpt lon="-2.263072" lat="53.106087"><ele>107.680626</ele><time>2022-03-04T10:13:10Z</time><extensions><speed>0.049022</speed><course>150.203751</course><hAcc>1.696283</hAcc><vAcc>0.827741</vAcc></extensions></trkpt>
      <trkpt lon="-2.263072" lat="53.106087"><ele>107.650497</ele><time>2022-03-04T10:13:11Z</time><extensions><speed>0.049045</speed><course>152.484909</course><hAcc>1.695002</hAcc><vAcc>0.827672</vAcc></extensions></trkpt>
      <trkpt lon="-2.263071" lat="53.106086"><ele>107.612305</ele><time>2022-03-04T10:13:12Z</time><extensions><speed>0.040253</speed><course>150.475388</course><hAcc>1.712957</hAcc><vAcc>0.827603</vAcc></extensions></trkpt>
      <trkpt lon="-2.263071" lat="53.106086"><ele>107.578812</ele><time>2022-03-04T10:13:13Z</time><extensions><speed>0.040525</speed><course>146.640488</course><hAcc>1.700015</hAcc><vAcc>0.827562</vAcc></extensions></trkpt>
      <trkpt lon="-2.263071" lat="53.106086"><ele>107.549789</ele><time>2022-03-04T10:13:14Z</time><extensions><speed>0.050407</speed><course>143.864731</course><hAcc>1.657951</hAcc><vAcc>0.827496</vAcc></extensions></trkpt>
      <trkpt lon="-2.263070" lat="53.106085"><ele>107.522964</ele><time>2022-03-04T10:13:15Z</time><extensions><speed>0.045094</speed><course>143.231689</course><hAcc>1.657912</hAcc><vAcc>0.827443</vAcc></extensions></trkpt>
      <trkpt lon="-2.263070" lat="53.106085"><ele>107.498184</ele><time>2022-03-04T10:13:16Z</time><extensions><speed>0.029958</speed><course>145.045242</course><hAcc>1.698871</hAcc><vAcc>0.827400</vAcc></extensions></trkpt>
      <trkpt lon="-2.263070" lat="53.106085"><ele>107.475266</ele><time>2022-03-04T10:13:17Z</time><extensions><speed>0.025210</speed><course>149.534546</course><hAcc>1.715684</hAcc><vAcc>0.827347</vAcc></extensions></trkpt>
      <trkpt lon="-2.263069" lat="53.106084"><ele>107.454025</ele><time>2022-03-04T10:13:18Z</time><extensions><speed>0.036227</speed><course>154.301849</course><hAcc>1.686179</hAcc><vAcc>0.827297</vAcc></extensions></trkpt>
      <trkpt lon="-2.263069" lat="53.106084"><ele>107.434341</ele><time>2022-03-04T10:13:19Z</time><extensions><speed>0.045081</speed><course>157.735748</course><hAcc>1.681363</hAcc><vAcc>0.827243</vAcc></extensions></trkpt>
      <trkpt lon="-2.263069" lat="53.106084"><ele>107.416130</ele><time>2022-03-04T10:13:20Z</time><extensions><speed>0.053769</speed><course>160.327881</course><hAcc>1.689674</hAcc><vAcc>0.827191</vAcc></extensions></trkpt>
      <trkpt lon="-2.263069" lat="53.106083"><ele>107.399414</ele><time>2022-03-04T10:13:21Z</time><extensions><speed>0.060019</speed><course>162.389618</course><hAcc>1.691517</hAcc><vAcc>0.827132</vAcc></extensions></trkpt>
      <trkpt lon="-2.263068" lat="53.106083"><ele>107.384300</ele><time>2022-03-04T10:13:22Z</time><extensions><speed>0.054640</speed><course>164.910645</course><hAcc>1.692247</hAcc><vAcc>0.827071</vAcc></extensions></trkpt>
      <trkpt lon="-2.263068" lat="53.106082"><ele>107.370934</ele><time>2022-03-04T10:13:23Z</time><extensions><speed>0.038820</speed><course>169.631165</course><hAcc>1.711446</hAcc><vAcc>0.827006</vAcc></extensions></trkpt>
      <trkpt lon="-2.263068" lat="53.106082"><ele>107.380119</ele><time>2022-03-04T10:13:24Z</time><extensions><speed>0.017714</speed><course>177.026062</course><hAcc>1.751026</hAcc><vAcc>0.826957</vAcc></extensions></trkpt>
      <trkpt lon="-2.263068" lat="53.106082"><ele>107.389275</ele><time>2022-03-04T10:13:25Z</time><extensions><speed>0.017282</speed><course>182.618286</course><hAcc>1.709085</hAcc><vAcc>0.826890</vAcc></extensions></trkpt>
      <trkpt lon="-2.263068" lat="53.106082"><ele>107.402328</ele><time>2022-03-04T10:13:26Z</time><extensions><speed>0.014284</speed><course>184.453766</course><hAcc>1.690894</hAcc><vAcc>0.826836</vAcc></extensions></trkpt>
      <trkpt lon="-2.263068" lat="53.106082"><ele>107.419174</ele><time>2022-03-04T10:13:27Z</time><extensions><speed>0.010907</speed><course>184.277084</course><hAcc>1.699464</hAcc><vAcc>0.826784</vAcc></extensions></trkpt>
      <trkpt lon="-2.263068" lat="53.106082"><ele>107.439629</ele><time>2022-03-04T10:13:28Z</time><extensions><speed>0.008201</speed><course>181.911270</course><hAcc>1.707565</hAcc><vAcc>0.826729</vAcc></extensions></trkpt>
      <trkpt lon="-2.263068" lat="53.106081"><ele>107.463432</ele><time>2022-03-04T10:13:29Z</time><extensions><speed>0.006418</speed><course>176.765060</course><hAcc>1.707840</hAcc><vAcc>0.826697</vAcc></extensions></trkpt>
      <trkpt lon="-2.263068" lat="53.106081"><ele>107.490288</ele><time>2022-03-04T10:13:30Z</time><extensions><speed>0.005492</speed><course>169.149399</course><hAcc>1.705837</hAcc><vAcc>0.826679</vAcc></extensions></trkpt>
      <trkpt lon="-2.263068" lat="53.106081"><ele>107.519760</ele><time>2022-03-04T10:13:31Z</time><extensions><speed>0.005293</speed><course>161.035370</course><hAcc>1.707050</hAcc><vAcc>0.826672</vAcc></extensions></trkpt>
      <trkpt lon="-2.263068" lat="53.106081"><ele>107.551315</ele><time>2022-03-04T10:13:32Z</time><extensions><speed>0.005911</speed><course>154.712830</course><hAcc>1.705281</hAcc><vAcc>0.826681</vAcc></extensions></trkpt>
      <trkpt lon="-2.263068" lat="53.106081"><ele>107.584236</ele><time>2022-03-04T10:13:33Z</time><extensions><speed>0.007626</speed><course>150.819504</course><hAcc>1.693210</hAcc><vAcc>0.826704</vAcc></extensions></trkpt>
      <trkpt lon="-2.263068" lat="53.106081"><ele>107.617630</ele><time>2022-03-04T10:13:34Z</time><extensions><speed>0.009376</speed><course>148.145370</course><hAcc>1.695486</hAcc><vAcc>0.826738</vAcc></extensions></trkpt>
      <trkpt lon="-2.263068" lat="53.106081"><ele>107.650528</ele><time>2022-03-04T10:13:35Z</time><extensions><speed>0.007801</speed><course>146.447098</course><hAcc>1.725307</hAcc><vAcc>0.826770</vAcc></extensions></trkpt>
      <trkpt lon="-2.263068" lat="53.106081"><ele>107.682175</ele><time>2022-03-04T10:13:36Z</time><extensions><speed>0.008211</speed><course>145.760620</course><hAcc>1.707933</hAcc><vAcc>0.826802</vAcc></extensions></trkpt>
      <trkpt lon="-2.263068" lat="53.106081"><ele>107.710136</ele><time>2022-03-04T10:13:37Z</time><extensions><speed>0.007124</speed><course>146.687027</course><hAcc>1.706816</hAcc><vAcc>0.826862</vAcc></extensions></trkpt>
      <trkpt lon="-2.263068" lat="53.106081"><ele>107.735931</ele><time>2022-03-04T10:13:38Z</time><extensions><speed>0.005770</speed><course>145.951782</course><hAcc>1.719280</hAcc><vAcc>0.826915</vAcc></extensions></trkpt>
      <trkpt lon="-2.263068" lat="53.106081"><ele>107.763344</ele><time>2022-03-04T10:13:39Z</time><extensions><speed>0.004650</speed><course>140.491119</course><hAcc>1.732834</hAcc><vAcc>0.826958</vAcc></extensions></trkpt>
      <trkpt lon="-2.263068" lat="53.106081"><ele>107.781914</ele><time>2022-03-04T10:13:40Z</time><extensions><speed>0.003544</speed><course>126.928871</course><hAcc>1.739798</hAcc><vAcc>0.827012</vAcc></extensions></trkpt>
      <trkpt lon="-2.263068" lat="53.106081"><ele>107.794716</ele><time>2022-03-04T10:13:41Z</time><extensions><speed>0.002948</speed><course>102.401917</course><hAcc>1.741142</hAcc><vAcc>0.827056</vAcc></extensions></trkpt>
      <trkpt lon="-2.263068" lat="53.106081"><ele>107.804222</ele><time>2022-03-04T10:13:42Z</time><extensions><speed>0.003448</speed><course>74.686996</course><hAcc>1.738829</hAcc><vAcc>0.827071</vAcc></extensions></trkpt>
      <trkpt lon="-2.263067" lat="53.106081"><ele>107.810410</ele><time>2022-03-04T10:13:43Z</time><extensions><speed>0.004963</speed><course>56.217903</course><hAcc>1.739723</hAcc><vAcc>0.827074</vAcc></extensions></trkpt>
      <trkpt lon="-2.263067" lat="53.106081"><ele>107.813446</ele><time>2022-03-04T10:13:44Z</time><extensions><speed>0.007555</speed><course>44.638802</course><hAcc>1.743613</hAcc><vAcc>0.827083</vAcc></extensions></trkpt>
      <trkpt lon="-2.263067" lat="53.106081"><ele>107.813522</ele><time>2022-03-04T10:13:45Z</time><extensions><speed>0.012004</speed><course>35.564690</course><hAcc>1.745268</hAcc><vAcc>0.827071</vAcc></extensions></trkpt>
      <trkpt lon="-2.263067" lat="53.106081"><ele>107.810905</ele><time>2022-03-04T10:13:46Z</time><extensions><speed>0.019388</speed><course>26.922842</course><hAcc>1.743662</hAcc><vAcc>0.827055</vAcc></extensions></trkpt>
      <trkpt lon="-2.263067" lat="53.106081"><ele>107.805878</ele><time>2022-03-04T10:13:47Z</time><extensions><speed>0.032182</speed><course>17.927109</course><hAcc>1.736083</hAcc><vAcc>0.827016</vAcc></extensions></trkpt>
      <trkpt lon="-2.263067" lat="53.106082"><ele>107.798782</ele><time>2022-03-04T10:13:48Z</time><extensions><speed>0.044885</speed><course>8.753534</course><hAcc>1.736646</hAcc><vAcc>0.826964</vAcc></extensions></trkpt>
      <trkpt lon="-2.263067" lat="53.106082"><ele>107.789970</ele><time>2022-03-04T10:13:49Z</time><extensions><speed>0.053596</speed><course>358.618652</course><hAcc>1.740165</hAcc><vAcc>0.826877</vAcc></extensions></trkpt>
      <trkpt lon="-2.263067" lat="53.106083"><ele>107.779831</ele><time>2022-03-04T10:13:50Z</time><extensions><speed>0.053614</speed><course>349.915192</course><hAcc>1.744441</hAcc><vAcc>0.826761</vAcc></extensions></trkpt>
      <trkpt lon="-2.263067" lat="53.106083"><ele>107.768845</ele><time>2022-03-04T10:13:51Z</time><extensions><speed>0.045693</speed><course>344.336853</course><hAcc>1.744241</hAcc><vAcc>0.826622</vAcc></extensions></trkpt>
      <trkpt lon="-2.263067" lat="53.106083"><ele>107.757484</ele><time>2022-03-04T10:13:52Z</time><extensions><speed>0.035341</speed><course>341.174591</course><hAcc>1.737003</hAcc><vAcc>0.826487</vAcc></extensions></trkpt>
      <trkpt lon="-2.263067" lat="53.106084"><ele>107.746117</ele><time>2022-03-04T10:13:53Z</time><extensions><speed>0.025914</speed><course>339.202972</course><hAcc>1.724381</hAcc><vAcc>0.826356</vAcc></extensions></trkpt>
      <trkpt lon="-2.263068" lat="53.106084"><ele>107.735054</ele><time>2022-03-04T10:13:53Z</time><extensions><speed>0.017861</speed><course>337.845093</course><hAcc>1.713537</hAcc><vAcc>0.826237</vAcc></extensions></trkpt>
      <trkpt lon="-2.263068" lat="53.106084"><ele>107.733131</ele><time>2022-03-04T10:13:54Z</time><extensions><speed>0.012581</speed><course>339.667542</course><hAcc>1.707202</hAcc><vAcc>0.826125</vAcc></extensions></trkpt>
      <trkpt lon="-2.263068" lat="53.106084"><ele>107.727547</ele><time>2022-03-04T10:13:55Z</time><extensions><speed>0.009774</speed><course>344.883026</course><hAcc>1.690448</hAcc><vAcc>0.826022</vAcc></extensions></trkpt>
      <trkpt lon="-2.263068" lat="53.106084"><ele>107.717880</ele><time>2022-03-04T10:13:56Z</time><extensions><speed>0.008096</speed><course>356.881378</course><hAcc>1.674093</hAcc><vAcc>0.825965</vAcc></extensions></trkpt>
      <trkpt lon="-2.263068" lat="53.106084"><ele>107.703918</ele><time>2022-03-04T10:13:57Z</time><extensions><speed>0.007479</speed><course>9.459620</course><hAcc>1.670944</hAcc><vAcc>0.825928</vAcc></extensions></trkpt>
      <trkpt lon="-2.263068" lat="53.106084"><ele>107.689568</ele><time>2022-03-04T10:13:58Z</time><extensions><speed>0.008734</speed><course>18.332012</course><hAcc>1.670323</hAcc><vAcc>0.825902</vAcc></extensions></trkpt>
      <trkpt lon="-2.263068" lat="53.106084"><ele>107.674187</ele><time>2022-03-04T10:13:59Z</time><extensions><speed>0.011033</speed><course>23.216553</course><hAcc>1.684018</hAcc><vAcc>0.825914</vAcc></extensions></trkpt>
      <trkpt lon="-2.263067" lat="53.106085"><ele>107.661346</ele><time>2022-03-04T10:14:00Z</time><extensions><speed>0.015011</speed><course>26.207556</course><hAcc>1.700961</hAcc><vAcc>0.825952</vAcc></extensions></trkpt>
      <trkpt lon="-2.263067" lat="53.106085"><ele>107.642441</ele><time>2022-03-04T10:14:01Z</time><extensions><speed>0.030485</speed><course>27.774378</course><hAcc>1.675421</hAcc><vAcc>0.826000</vAcc></extensions></trkpt>
      <trkpt lon="-2.263067" lat="53.106085"><ele>107.621765</ele><time>2022-03-04T10:14:02Z</time><extensions><speed>0.042918</speed><course>29.921261</course><hAcc>1.681774</hAcc><vAcc>0.826052</vAcc></extensions></trkpt>
      <trkpt lon="-2.263067" lat="53.106085"><ele>107.600609</ele><time>2022-03-04T10:14:03Z</time><extensions><speed>0.052249</speed><course>33.590633</course><hAcc>1.707303</hAcc><vAcc>0.826079</vAcc></extensions></trkpt>
      <trkpt lon="-2.263066" lat="53.106086"><ele>107.578247</ele><time>2022-03-04T10:14:04Z</time><extensions><speed>0.053143</speed><course>41.860264</course><hAcc>1.728725</hAcc><vAcc>0.826089</vAcc></extensions></trkpt>
      <trkpt lon="-2.263066" lat="53.106086"><ele>107.554726</ele><time>2022-03-04T10:14:05Z</time><extensions><speed>0.045899</speed><course>52.353149</course><hAcc>1.742934</hAcc><vAcc>0.826082</vAcc></extensions></trkpt>
      <trkpt lon="-2.263065" lat="53.106086"><ele>107.530304</ele><time>2022-03-04T10:14:06Z</time><extensions><speed>0.033312</speed><course>50.873417</course><hAcc>1.751239</hAcc><vAcc>0.826050</vAcc></extensions></trkpt>
      <trkpt lon="-2.263065" lat="53.106086"><ele>107.505424</ele><time>2022-03-04T10:14:07Z</time><extensions><speed>0.020944</speed><course>20.535961</course><hAcc>1.753118</hAcc><vAcc>0.826018</vAcc></extensions></trkpt>
      <trkpt lon="-2.263065" lat="53.106087"><ele>107.486465</ele><time>2022-03-04T10:14:08Z</time><extensions><speed>0.020673</speed><course>326.957153</course><hAcc>1.751015</hAcc><vAcc>0.825972</vAcc></extensions></trkpt>
      <trkpt lon="-2.263065" lat="53.106087"><ele>107.459206</ele><time>2022-03-04T10:14:09Z</time><extensions><speed>0.024919</speed><course>293.368652</course><hAcc>1.746726</hAcc><vAcc>0.825942</vAcc></extensions></trkpt>
      <trkpt lon="-2.263066" lat="53.106087"><ele>107.436783</ele><time>2022-03-04T10:14:10Z</time><extensions><speed>0.026843</speed><course>270.965027</course><hAcc>1.736878</hAcc><vAcc>0.825914</vAcc></extensions></trkpt>
      <trkpt lon="-2.263066" lat="53.106087"><ele>107.414871</ele><time>2022-03-04T10:14:11Z</time><extensions><speed>0.025232</speed><course>244.399521</course><hAcc>1.720942</hAcc><vAcc>0.825890</vAcc></extensions></trkpt>
      <trkpt lon="-2.263066" lat="53.106087"><ele>107.392967</ele><time>2022-03-04T10:14:12Z</time><extensions><speed>0.022817</speed><course>217.032745</course><hAcc>1.705575</hAcc><vAcc>0.825867</vAcc></extensions></trkpt>
      <trkpt lon="-2.263066" lat="53.106086"><ele>107.375931</ele><time>2022-03-04T10:14:13Z</time><extensions><speed>0.018438</speed><course>189.022827</course><hAcc>1.701415</hAcc><vAcc>0.825878</vAcc></extensions></trkpt>
      <trkpt lon="-2.263066" lat="53.106086"><ele>107.358894</ele><time>2022-03-04T10:14:14Z</time><extensions><speed>0.017843</speed><course>154.284302</course><hAcc>1.706144</hAcc><vAcc>0.825933</vAcc></extensions></trkpt>
      <trkpt lon="-2.263066" lat="53.106086"><ele>107.344643</ele><time>2022-03-04T10:14:15Z</time><extensions><speed>0.024135</speed><course>128.881866</course><hAcc>1.715206</hAcc><vAcc>0.826009</vAcc></extensions></trkpt>
      <trkpt lon="-2.263065" lat="53.106086"><ele>107.337990</ele><time>2022-03-04T10:14:16Z</time><extensions><speed>0.037965</speed><course>115.844902</course><hAcc>1.719812</hAcc><vAcc>0.826078</vAcc></extensions></trkpt>
      <trkpt lon="-2.263065" lat="53.106086"><ele>107.343636</ele><time>2022-03-04T10:14:17Z</time><extensions><speed>0.073939</speed><course>109.599190</course><hAcc>1.696814</hAcc><vAcc>0.826180</vAcc></extensions></trkpt>
      <trkpt lon="-2.263063" lat="53.106086"><ele>107.343910</ele><time>2022-03-04T10:14:18Z</time><extensions><speed>0.109077</speed><course>105.923691</course><hAcc>1.700556</hAcc><vAcc>0.826306</vAcc></extensions></trkpt>
      <trkpt lon="-2.263061" lat="53.106085"><ele>107.345253</ele><time>2022-03-04T10:14:19Z</time><extensions><speed>0.138927</speed><course>102.521370</course><hAcc>1.719179</hAcc><vAcc>0.826432</vAcc></extensions></trkpt>
      <trkpt lon="-2.263059" lat="53.106085"><ele>107.350456</ele><time>2022-03-04T10:14:20Z</time><extensions><speed>0.166743</speed><course>99.322067</course><hAcc>1.735947</hAcc><vAcc>0.826545</vAcc></extensions></trkpt>
      <trkpt lon="-2.263056" lat="53.106085"><ele>107.363693</ele><time>2022-03-04T10:14:21Z</time><extensions><speed>0.203861</speed><course>96.130478</course><hAcc>1.744855</hAcc><vAcc>0.826664</vAcc></extensions></trkpt>
      <trkpt lon="-2.263053" lat="53.106085"><ele>107.380325</ele><time>2022-03-04T10:14:22Z</time><extensions><speed>0.242197</speed><course>92.681038</course><hAcc>1.748688</hAcc><vAcc>0.826788</vAcc></extensions></trkpt>
      <trkpt lon="-2.263049" lat="53.106085"><ele>107.395332</ele><time>2022-03-04T10:14:23Z</time><extensions><speed>0.270861</speed><course>90.043709</course><hAcc>1.750677</hAcc><vAcc>0.826907</vAcc></extensions></trkpt>
      <trkpt lon="-2.263045" lat="53.106085"><ele>107.414047</ele><time>2022-03-04T10:14:24Z</time><extensions><speed>0.290718</speed><course>88.695419</course><hAcc>1.751340</hAcc><vAcc>0.827022</vAcc></extensions></trkpt>
      <trkpt lon="-2.263040" lat="53.106085"><ele>107.440575</ele><time>2022-03-04T10:14:25Z</time><extensions><speed>0.312261</speed><course>89.330345</course><hAcc>1.753684</hAcc><vAcc>0.827160</vAcc></extensions></trkpt>
      <trkpt lon="-2.263035" lat="53.106084"><ele>107.471542</ele><time>2022-03-04T10:14:26Z</time><extensions><speed>0.345875</speed><course>92.717491</course><hAcc>1.757393</hAcc><vAcc>0.827280</vAcc></extensions></trkpt>
      <trkpt lon="-2.263030" lat="53.106084"><ele>107.506531</ele><time>2022-03-04T10:14:27Z</time><extensions><speed>0.407448</speed><course>98.506836</course><hAcc>1.754595</hAcc><vAcc>0.827389</vAcc></extensions></trkpt>
      <trkpt lon="-2.263023" lat="53.106083"><ele>107.544243</ele><time>2022-03-04T10:14:28Z</time><extensions><speed>0.469855</speed><course>104.913811</course><hAcc>1.753382</hAcc><vAcc>0.827495</vAcc></extensions></trkpt>
      <trkpt lon="-2.263016" lat="53.106082"><ele>107.582367</ele><time>2022-03-04T10:14:29Z</time><extensions><speed>0.530063</speed><course>109.917191</course><hAcc>1.755704</hAcc><vAcc>0.827585</vAcc></extensions></trkpt>
      <trkpt lon="-2.263008" lat="53.106080"><ele>107.622169</ele><time>2022-03-04T10:14:30Z</time><extensions><speed>0.586512</speed><course>113.044502</course><hAcc>1.758279</hAcc><vAcc>0.827674</vAcc></extensions></trkpt>
      <trkpt lon="-2.263000" lat="53.106078"><ele>107.668892</ele><time>2022-03-04T10:14:31Z</time><extensions><speed>0.638799</speed><course>115.020943</course><hAcc>1.758507</hAcc><vAcc>0.827756</vAcc></extensions></trkpt>
      <trkpt lon="-2.262991" lat="53.106075"><ele>107.711624</ele><time>2022-03-04T10:14:32Z</time><extensions><speed>0.678009</speed><course>116.485489</course><hAcc>1.759635</hAcc><vAcc>0.827803</vAcc></extensions></trkpt>
      <trkpt lon="-2.262981" lat="53.106072"><ele>107.752701</ele><time>2022-03-04T10:14:33Z</time><extensions><speed>0.706325</speed><course>117.599159</course><hAcc>1.761481</hAcc><vAcc>0.827814</vAcc></extensions></trkpt>
      <trkpt lon="-2.262972" lat="53.106069"><ele>107.796883</ele><time>2022-03-04T10:14:34Z</time><extensions><speed>0.736433</speed><course>118.445732</course><hAcc>1.760857</hAcc><vAcc>0.827800</vAcc></extensions></trkpt>
      <trkpt lon="-2.262962" lat="53.106066"><ele>107.839241</ele><time>2022-03-04T10:14:35Z</time><extensions><speed>0.751811</speed><course>119.103989</course><hAcc>1.761149</hAcc><vAcc>0.827746</vAcc></extensions></trkpt>
      <trkpt lon="-2.262952" lat="53.106063"><ele>107.880211</ele><time>2022-03-04T10:14:36Z</time><extensions><speed>0.764031</speed><course>119.462852</course><hAcc>1.761797</hAcc><vAcc>0.827662</vAcc></extensions></trkpt>
      <trkpt lon="-2.262942" lat="53.106059"><ele>107.917091</ele><time>2022-03-04T10:14:37Z</time><extensions><speed>0.780893</speed><course>119.609329</course><hAcc>1.761647</hAcc><vAcc>0.827574</vAcc></extensions></trkpt>
      <trkpt lon="-2.262932" lat="53.106056"><ele>107.950844</ele><time>2022-03-04T10:14:38Z</time><extensions><speed>0.801677</speed><course>119.659103</course><hAcc>1.760633</hAcc><vAcc>0.827491</vAcc></extensions></trkpt>
      <trkpt lon="-2.262921" lat="53.106052"><ele>107.976402</ele><time>2022-03-04T10:14:39Z</time><extensions><speed>0.815672</speed><course>119.644753</course><hAcc>1.759794</hAcc><vAcc>0.827402</vAcc></extensions></trkpt>
      <trkpt lon="-2.262910" lat="53.106048"><ele>107.990669</ele><time>2022-03-04T10:14:40Z</time><extensions><speed>0.815182</speed><course>119.438850</course><hAcc>1.759175</hAcc><vAcc>0.827336</vAcc></extensions></trkpt>
      <trkpt lon="-2.262900" lat="53.106045"><ele>108.005737</ele><time>2022-03-04T10:14:41Z</time><extensions><speed>0.798772</speed><course>118.995750</course><hAcc>1.759030</hAcc><vAcc>0.827283</vAcc></extensions></trkpt>
      <trkpt lon="-2.262889" lat="53.106041"><ele>108.012123</ele><time>2022-03-04T10:14:42Z</time><extensions><speed>0.762521</speed><course>118.588654</course><hAcc>1.759737</hAcc><vAcc>0.827252</vAcc></extensions></trkpt>
      <trkpt lon="-2.262879" lat="53.106038"><ele>108.024559</ele><time>2022-03-04T10:14:43Z</time><extensions><speed>0.731855</speed><course>118.441376</course><hAcc>1.758126</hAcc><vAcc>0.827242</vAcc></extensions></trkpt>
      <trkpt lon="-2.262870" lat="53.106035"><ele>108.029846</ele><time>2022-03-04T10:14:44Z</time><extensions><speed>0.691982</speed><course>118.488075</course><hAcc>1.757593</hAcc><vAcc>0.827249</vAcc></extensions></trkpt>
      <trkpt lon="-2.262861" lat="53.106032"><ele>108.033539</ele><time>2022-03-04T10:14:45Z</time><extensions><speed>0.670833</speed><course>118.257072</course><hAcc>1.755910</hAcc><vAcc>0.827276</vAcc></extensions></trkpt>
      <trkpt lon="-2.262852" lat="53.106029"><ele>108.034126</ele><time>2022-03-04T10:14:46Z</time><extensions><speed>0.665947</speed><course>117.340446</course><hAcc>1.756063</hAcc><vAcc>0.827346</vAcc></extensions></trkpt>
      <trkpt lon="-2.262843" lat="53.106027"><ele>108.028587</ele><time>2022-03-04T10:14:47Z</time><extensions><speed>0.680227</speed><course>115.954102</course><hAcc>1.757744</hAcc><vAcc>0.827434</vAcc></extensions></trkpt>
      <trkpt lon="-2.262833" lat="53.106024"><ele>108.027786</ele><time>2022-03-04T10:14:48Z</time><extensions><speed>0.720350</speed><course>114.605179</course><hAcc>1.757950</hAcc><vAcc>0.827551</vAcc></extensions></trkpt>
      <trkpt lon="-2.262823" lat="53.106021"><ele>108.020355</ele><time>2022-03-04T10:14:49Z</time><extensions><speed>0.774699</speed><course>113.733391</course><hAcc>1.757434</hAcc><vAcc>0.827660</vAcc></extensions></trkpt>
      <trkpt lon="-2.262812" lat="53.106018"><ele>108.020737</ele><time>2022-03-04T10:14:50Z</time><extensions><speed>0.835961</speed><course>113.434273</course><hAcc>1.755920</hAcc><vAcc>0.827767</vAcc></extensions></trkpt>
      <trkpt lon="-2.262800" lat="53.106015"><ele>108.005096</ele><time>2022-03-04T10:14:51Z</time><extensions><speed>0.883709</speed><course>113.537010</course><hAcc>1.754484</hAcc><vAcc>0.827890</vAcc></extensions></trkpt>
      <trkpt lon="-2.262788" lat="53.106012"><ele>107.988892</ele><time>2022-03-04T10:14:52Z</time><extensions><speed>0.901808</speed><course>113.840126</course><hAcc>1.754663</hAcc><vAcc>0.828001</vAcc></extensions></trkpt>
      <trkpt lon="-2.262775" lat="53.106008"><ele>107.973732</ele><time>2022-03-04T10:14:53Z</time><extensions><speed>0.901607</speed><course>114.320900</course><hAcc>1.755689</hAcc><vAcc>0.828134</vAcc></extensions></trkpt>
      <trkpt lon="-2.262763" lat="53.106005"><ele>107.948044</ele><time>2022-03-04T10:14:54Z</time><extensions><speed>0.898537</speed><course>115.065437</course><hAcc>1.756852</hAcc><vAcc>0.828263</vAcc></extensions></trkpt>
      <trkpt lon="-2.262751" lat="53.106001"><ele>107.919243</ele><time>2022-03-04T10:14:55Z</time><extensions><speed>0.905341</speed><course>115.988228</course><hAcc>1.756390</hAcc><vAcc>0.828403</vAcc></extensions></trkpt>
      <trkpt lon="-2.262738" lat="53.105998"><ele>107.887962</ele><time>2022-03-04T10:14:56Z</time><extensions><speed>0.930634</speed><course>116.826279</course><hAcc>1.753896</hAcc><vAcc>0.828521</vAcc></extensions></trkpt>
      <trkpt lon="-2.262725" lat="53.105994"><ele>107.855537</ele><time>2022-03-04T10:14:57Z</time><extensions><speed>0.955021</speed><course>117.331841</course><hAcc>1.754415</hAcc><vAcc>0.828653</vAcc></extensions></trkpt>
      <trkpt lon="-2.262712" lat="53.105990"><ele>107.827538</ele><time>2022-03-04T10:14:58Z</time><extensions><speed>0.983594</speed><course>117.412819</course><hAcc>1.756838</hAcc><vAcc>0.828773</vAcc></extensions></trkpt>
      <trkpt lon="-2.262699" lat="53.105986"><ele>107.796974</ele><time>2022-03-04T10:14:59Z</time><extensions><speed>1.042033</speed><course>117.163811</course><hAcc>1.756006</hAcc><vAcc>0.828885</vAcc></extensions></trkpt>
      <trkpt lon="-2.262685" lat="53.105981"><ele>107.770866</ele><time>2022-03-04T10:15:00Z</time><extensions><speed>1.096716</speed><course>116.908394</course><hAcc>1.754981</hAcc><vAcc>0.829008</vAcc></extensions></trkpt>
      <trkpt lon="-2.262669" lat="53.105977"><ele>107.740814</ele><time>2022-03-04T10:15:01Z</time><extensions><speed>1.143760</speed><course>116.717400</course><hAcc>1.754069</hAcc><vAcc>0.829120</vAcc></extensions></trkpt>
      <trkpt lon="-2.262654" lat="53.105972"><ele>107.712074</ele><time>2022-03-04T10:15:02Z</time><extensions><speed>1.151651</speed><course>116.512985</course><hAcc>1.756463</hAcc><vAcc>0.829220</vAcc></extensions></trkpt>
      <trkpt lon="-2.262638" lat="53.105967"><ele>107.679077</ele><time>2022-03-04T10:15:03Z</time><extensions><speed>1.145380</speed><course>116.287102</course><hAcc>1.758673</hAcc><vAcc>0.829305</vAcc></extensions></trkpt>
      <trkpt lon="-2.262623" lat="53.105963"><ele>107.655823</ele><time>2022-03-04T10:15:04Z</time><extensions><speed>1.171430</speed><course>115.982246</course><hAcc>1.755511</hAcc><vAcc>0.829372</vAcc></extensions></trkpt>
      <trkpt lon="-2.262607" lat="53.105958"><ele>107.637215</ele><time>2022-03-04T10:15:05Z</time><extensions><speed>1.172487</speed><course>115.557755</course><hAcc>1.754929</hAcc><vAcc>0.829420</vAcc></extensions></trkpt>
      <trkpt lon="-2.262591" lat="53.105954"><ele>107.615265</ele><time>2022-03-04T10:15:06Z</time><extensions><speed>1.158458</speed><course>115.029251</course><hAcc>1.757697</hAcc><vAcc>0.829447</vAcc></extensions></trkpt>
      <trkpt lon="-2.262575" lat="53.105949"><ele>107.608788</ele><time>2022-03-04T10:15:08Z</time><extensions><speed>1.156847</speed><course>114.633492</course><hAcc>1.759814</hAcc><vAcc>0.829459</vAcc></extensions></trkpt>
      <trkpt lon="-2.262559" lat="53.105945"><ele>107.596283</ele><time>2022-03-04T10:15:09Z</time><extensions><speed>1.170529</speed><course>114.787361</course><hAcc>1.759525</hAcc><vAcc>0.829424</vAcc></extensions></trkpt>
      <trkpt lon="-2.262543" lat="53.105940"><ele>107.567726</ele><time>2022-03-04T10:15:10Z</time><extensions><speed>1.215666</speed><course>115.102783</course><hAcc>1.756468</hAcc><vAcc>0.829384</vAcc></extensions></trkpt>
      <trkpt lon="-2.262526" lat="53.105935"><ele>107.536217</ele><time>2022-03-04T10:15:11Z</time><extensions><speed>1.235849</speed><course>115.376663</course><hAcc>1.755696</hAcc><vAcc>0.829354</vAcc></extensions></trkpt>
      <trkpt lon="-2.262509" lat="53.105931"><ele>107.512550</ele><time>2022-03-04T10:15:12Z</time><extensions><speed>1.239554</speed><course>115.346519</course><hAcc>1.754831</hAcc><vAcc>0.829314</vAcc></extensions></trkpt>
      <trkpt lon="-2.262493" lat="53.105926"><ele>107.493820</ele><time>2022-03-04T10:15:13Z</time><extensions><speed>1.217812</speed><course>115.077065</course><hAcc>1.752415</hAcc><vAcc>0.829273</vAcc></extensions></trkpt>
      <trkpt lon="-2.262476" lat="53.105921"><ele>107.470474</ele><time>2022-03-04T10:15:14Z</time><extensions><speed>1.187145</speed><course>114.935013</course><hAcc>1.744453</hAcc><vAcc>0.829232</vAcc></extensions></trkpt>
      <trkpt lon="-2.262460" lat="53.105917"><ele>107.449532</ele><time>2022-03-04T10:15:15Z</time><extensions><speed>1.159080</speed><course>115.379227</course><hAcc>1.727174</hAcc><vAcc>0.829215</vAcc></extensions></trkpt>
      <trkpt lon="-2.262445" lat="53.105912"><ele>107.435516</ele><time>2022-03-04T10:15:16Z</time><extensions><speed>1.120493</speed><course>117.366425</course><hAcc>1.704094</hAcc><vAcc>0.829209</vAcc></extensions></trkpt>
      <trkpt lon="-2.262431" lat="53.105907"><ele>107.416664</ele><time>2022-03-04T10:15:17Z</time><extensions><speed>1.088564</speed><course>123.024994</course><hAcc>1.688047</hAcc><vAcc>0.829227</vAcc></extensions></trkpt>
      <trkpt lon="-2.262418" lat="53.105901"><ele>107.409576</ele><time>2022-03-04T10:15:18Z</time><extensions><speed>1.054222</speed><course>135.833008</course><hAcc>1.695389</hAcc><vAcc>0.829261</vAcc></extensions></trkpt>
      <trkpt lon="-2.262406" lat="53.105895"><ele>107.400856</ele><time>2022-03-04T10:15:19Z</time><extensions><speed>1.189163</speed><course>126.649330</course><hAcc>1.689699</hAcc><vAcc>0.829306</vAcc></extensions></trkpt>
      <trkpt lon="-2.262389" lat="53.105888"><ele>107.382431</ele><time>2022-03-04T10:15:20Z</time><extensions><speed>1.527906</speed><course>120.780212</course><hAcc>1.667566</hAcc><vAcc>0.829372</vAcc></extensions></trkpt>
      <trkpt lon="-2.262369" lat="53.105881"><ele>107.378166</ele><time>2022-03-04T10:15:21Z</time><extensions><speed>1.547534</speed><course>120.761658</course><hAcc>1.672035</hAcc><vAcc>0.829440</vAcc></extensions></trkpt>
      <trkpt lon="-2.262349" lat="53.105874"><ele>107.369331</ele><time>2022-03-04T10:15:22Z</time><extensions><speed>1.534026</speed><course>115.717827</course><hAcc>1.642799</hAcc><vAcc>0.829511</vAcc></extensions></trkpt>
      <trkpt lon="-2.262329" lat="53.105868"><ele>107.355881</ele><time>2022-03-04T10:15:23Z</time><extensions><speed>1.470102</speed><course>116.996613</course><hAcc>1.626958</hAcc><vAcc>0.829583</vAcc></extensions></trkpt>
      <trkpt lon="-2.262309" lat="53.105862"><ele>107.352066</ele><time>2022-03-04T10:15:24Z</time><extensions><speed>1.484382</speed><course>119.890045</course><hAcc>1.635156</hAcc><vAcc>0.829644</vAcc></extensions></trkpt>
      <trkpt lon="-2.262290" lat="53.105855"><ele>107.355370</ele><time>2022-03-04T10:15:25Z</time><extensions><speed>1.481936</speed><course>121.447456</course><hAcc>1.656821</hAcc><vAcc>0.829716</vAcc></extensions></trkpt>
      <trkpt lon="-2.262272" lat="53.105848"><ele>107.358498</ele><time>2022-03-04T10:15:26Z</time><extensions><speed>1.376910</speed><course>122.114021</course><hAcc>1.643474</hAcc><vAcc>0.829782</vAcc></extensions></trkpt>
      <trkpt lon="-2.262256" lat="53.105842"><ele>107.362427</ele><time>2022-03-04T10:15:27Z</time><extensions><speed>1.198727</speed><course>123.205009</course><hAcc>1.638964</hAcc><vAcc>0.829861</vAcc></extensions></trkpt>
      <trkpt lon="-2.262242" lat="53.105837"><ele>107.348618</ele><time>2022-03-04T10:15:28Z</time><extensions><speed>1.054525</speed><course>123.947342</course><hAcc>1.665074</hAcc><vAcc>0.829917</vAcc></extensions></trkpt>
      <trkpt lon="-2.262228" lat="53.105831"><ele>107.347092</ele><time>2022-03-04T10:15:29Z</time><extensions><speed>1.204313</speed><course>123.002304</course><hAcc>1.647899</hAcc><vAcc>0.829958</vAcc></extensions></trkpt>
      <trkpt lon="-2.262212" lat="53.105825"><ele>107.346558</ele><time>2022-03-04T10:15:30Z</time><extensions><speed>1.281903</speed><course>120.121399</course><hAcc>1.644890</hAcc><vAcc>0.829998</vAcc></extensions></trkpt>
      <trkpt lon="-2.262195" lat="53.105820"><ele>107.350739</ele><time>2022-03-04T10:15:31Z</time><extensions><speed>1.288806</speed><course>117.491837</course><hAcc>1.656147</hAcc><vAcc>0.830029</vAcc></extensions></trkpt>
      <trkpt lon="-2.262178" lat="53.105814"><ele>107.352524</ele><time>2022-03-04T10:15:32Z</time><extensions><speed>1.244425</speed><course>115.894684</course><hAcc>1.673617</hAcc><vAcc>0.830048</vAcc></extensions></trkpt>
      <trkpt lon="-2.262161" lat="53.105810"><ele>107.348648</ele><time>2022-03-04T10:15:33Z</time><extensions><speed>1.229256</speed><course>115.247902</course><hAcc>1.691748</hAcc><vAcc>0.830057</vAcc></extensions></trkpt>
      <trkpt lon="-2.262144" lat="53.105805"><ele>107.337280</ele><time>2022-03-04T10:15:34Z</time><extensions><speed>1.245303</speed><course>114.193726</course><hAcc>1.685549</hAcc><vAcc>0.830053</vAcc></extensions></trkpt>
      <trkpt lon="-2.262127" lat="53.105801"><ele>107.322418</ele><time>2022-03-04T10:15:35Z</time><extensions><speed>1.226589</speed><course>112.447258</course><hAcc>1.682956</hAcc><vAcc>0.830042</vAcc></extensions></trkpt>
      <trkpt lon="-2.262111" lat="53.105796"><ele>107.315514</ele><time>2022-03-04T10:15:36Z</time><extensions><speed>1.170963</speed><course>112.227020</course><hAcc>1.691443</hAcc><vAcc>0.830011</vAcc></extensions></trkpt>
      <trkpt lon="-2.262095" lat="53.105792"><ele>107.311470</ele><time>2022-03-04T10:15:37Z</time><extensions><speed>1.178993</speed><course>112.703186</course><hAcc>1.695420</hAcc><vAcc>0.829966</vAcc></extensions></trkpt>
      <trkpt lon="-2.262078" lat="53.105788"><ele>107.307434</ele><time>2022-03-04T10:15:38Z</time><extensions><speed>1.205401</speed><course>114.133629</course><hAcc>1.706874</hAcc><vAcc>0.829913</vAcc></extensions></trkpt>
      <trkpt lon="-2.262062" lat="53.105784"><ele>107.313225</ele><time>2022-03-04T10:15:39Z</time><extensions><speed>1.220869</speed><course>115.173637</course><hAcc>1.704955</hAcc><vAcc>0.829844</vAcc></extensions></trkpt>
      <trkpt lon="-2.262045" lat="53.105779"><ele>107.325790</ele><time>2022-03-04T10:15:40Z</time><extensions><speed>1.199452</speed><course>114.089630</course><hAcc>1.700819</hAcc><vAcc>0.829799</vAcc></extensions></trkpt>
      <trkpt lon="-2.262029" lat="53.105775"><ele>107.354965</ele><time>2022-03-04T10:15:41Z</time><extensions><speed>1.172981</speed><course>112.812958</course><hAcc>1.700989</hAcc><vAcc>0.829735</vAcc></extensions></trkpt>
      <trkpt lon="-2.262013" lat="53.105771"><ele>107.364540</ele><time>2022-03-04T10:15:42Z</time><extensions><speed>1.129990</speed><course>111.563423</course><hAcc>1.701402</hAcc><vAcc>0.829692</vAcc></extensions></trkpt>
      <trkpt lon="-2.261997" lat="53.105767"><ele>107.392746</ele><time>2022-03-04T10:15:43Z</time><extensions><speed>1.142774</speed><course>109.741867</course><hAcc>1.699862</hAcc><vAcc>0.829676</vAcc></extensions></trkpt>
      <trkpt lon="-2.261981" lat="53.105764"><ele>107.428001</ele><time>2022-03-04T10:15:44Z</time><extensions><speed>1.071487</speed><course>106.519386</course><hAcc>1.705410</hAcc><vAcc>0.829669</vAcc></extensions></trkpt>
      <trkpt lon="-2.261966" lat="53.105762"><ele>107.459000</ele><time>2022-03-04T10:15:45Z</time><extensions><speed>1.077953</speed><course>102.771706</course><hAcc>1.717688</hAcc><vAcc>0.829669</vAcc></extensions></trkpt>
      <trkpt lon="-2.261949" lat="53.105760"><ele>107.486877</ele><time>2022-03-04T10:15:46Z</time><extensions><speed>1.175332</speed><course>98.996666</course><hAcc>1.698718</hAcc><vAcc>0.829678</vAcc></extensions></trkpt>
      <trkpt lon="-2.261932" lat="53.105759"><ele>107.536392</ele><time>2022-03-04T10:15:47Z</time><extensions><speed>1.199878</speed><course>96.200325</course><hAcc>1.687911</hAcc><vAcc>0.829706</vAcc></extensions></trkpt>
      <trkpt lon="-2.261914" lat="53.105757"><ele>107.586838</ele><time>2022-03-04T10:15:48Z</time><extensions><speed>1.194099</speed><course>95.877136</course><hAcc>1.687486</hAcc><vAcc>0.829731</vAcc></extensions></trkpt>
      <trkpt lon="-2.261897" lat="53.105756"><ele>107.644379</ele><time>2022-03-04T10:15:49Z</time><extensions><speed>1.150026</speed><course>96.975746</course><hAcc>1.701008</hAcc><vAcc>0.829756</vAcc></extensions></trkpt>
      <trkpt lon="-2.261880" lat="53.105755"><ele>107.703697</ele><time>2022-03-04T10:15:50Z</time><extensions><speed>1.106911</speed><course>97.008011</course><hAcc>1.724063</hAcc><vAcc>0.829779</vAcc></extensions></trkpt>
      <trkpt lon="-2.261863" lat="53.105754"><ele>107.770119</ele><time>2022-03-04T10:15:51Z</time><extensions><speed>1.185799</speed><course>95.194366</course><hAcc>1.709267</hAcc><vAcc>0.829799</vAcc></extensions></trkpt>
      <trkpt lon="-2.261845" lat="53.105753"><ele>107.832489</ele><time>2022-03-04T10:15:52Z</time><extensions><speed>1.206832</speed><course>92.527397</course><hAcc>1.703096</hAcc><vAcc>0.829795</vAcc></extensions></trkpt>
      <trkpt lon="-2.261827" lat="53.105753"><ele>107.885490</ele><time>2022-03-04T10:15:53Z</time><extensions><speed>1.228127</speed><course>90.374039</course><hAcc>1.708044</hAcc><vAcc>0.829802</vAcc></extensions></trkpt>
      <trkpt lon="-2.261809" lat="53.105753"><ele>107.949287</ele><time>2022-03-04T10:15:54Z</time><extensions><speed>1.206600</speed><course>90.902359</course><hAcc>1.714230</hAcc><vAcc>0.829798</vAcc></extensions></trkpt>
      <trkpt lon="-2.261791" lat="53.105752"><ele>108.015549</ele><time>2022-03-04T10:15:55Z</time><extensions><speed>1.134631</speed><course>92.933319</course><hAcc>1.718418</hAcc><vAcc>0.829776</vAcc></extensions></trkpt>
      <trkpt lon="-2.261775" lat="53.105752"><ele>108.083900</ele><time>2022-03-04T10:15:56Z</time><extensions><speed>1.073565</speed><course>96.640755</course><hAcc>1.719744</hAcc><vAcc>0.829760</vAcc></extensions></trkpt>
      <trkpt lon="-2.261759" lat="53.105750"><ele>108.156357</ele><time>2022-03-04T10:15:57Z</time><extensions><speed>1.076222</speed><course>99.766426</course><hAcc>1.719999</hAcc><vAcc>0.829750</vAcc></extensions></trkpt>
      <trkpt lon="-2.261743" lat="53.105748"><ele>108.222275</ele><time>2022-03-04T10:15:58Z</time><extensions><speed>1.100980</speed><course>103.005875</course><hAcc>1.720145</hAcc><vAcc>0.829741</vAcc></extensions></trkpt>
      <trkpt lon="-2.261727" lat="53.105746"><ele>108.274483</ele><time>2022-03-04T10:15:58Z</time><extensions><speed>1.125102</speed><course>105.070000</course><hAcc>1.717375</hAcc><vAcc>0.829714</vAcc></extensions></trkpt>
      <trkpt lon="-2.261711" lat="53.105743"><ele>108.329918</ele><time>2022-03-04T10:15:59Z</time><extensions><speed>1.035692</speed><course>103.335480</course><hAcc>1.709243</hAcc><vAcc>0.829696</vAcc></extensions></trkpt>
      <trkpt lon="-2.261696" lat="53.105741"><ele>108.402008</ele><time>2022-03-04T10:16:00Z</time><extensions><speed>1.041828</speed><course>103.410110</course><hAcc>1.696073</hAcc><vAcc>0.829666</vAcc></extensions></trkpt>
      <trkpt lon="-2.261681" lat="53.105739"><ele>108.467293</ele><time>2022-03-04T10:16:01Z</time><extensions><speed>1.059948</speed><course>103.783287</course><hAcc>1.686145</hAcc><vAcc>0.829630</vAcc></extensions></trkpt>
      <trkpt lon="-2.261665" lat="53.105737"><ele>108.522491</ele><time>2022-03-04T10:16:02Z</time><extensions><speed>1.122217</speed><course>104.158966</course><hAcc>1.662119</hAcc><vAcc>0.829569</vAcc></extensions></trkpt>
      <trkpt lon="-2.261648" lat="53.105734"><ele>108.577698</ele><time>2022-03-04T10:16:03Z</time><extensions><speed>1.276060</speed><course>103.725418</course><hAcc>1.615432</hAcc><vAcc>0.829493</vAcc></extensions></trkpt>
      <trkpt lon="-2.261630" lat="53.105731"><ele>108.634895</ele><time>2022-03-04T10:16:04Z</time><extensions><speed>1.301554</speed><course>103.006752</course><hAcc>1.558399</hAcc><vAcc>0.829417</vAcc></extensions></trkpt>
      <trkpt lon="-2.261610" lat="53.105729"><ele>108.691078</ele><time>2022-03-04T10:16:05Z</time><extensions><speed>1.434761</speed><course>100.267746</course><hAcc>1.534454</hAcc><vAcc>0.829341</vAcc></extensions></trkpt>
      <trkpt lon="-2.261589" lat="53.105727"><ele>108.747055</ele><time>2022-03-04T10:16:06Z</time><extensions><speed>1.554553</speed><course>93.435181</course><hAcc>1.552925</hAcc><vAcc>0.829248</vAcc></extensions></trkpt>
      <trkpt lon="-2.261567" lat="53.105726"><ele>108.788971</ele><time>2022-03-04T10:16:07Z</time><extensions><speed>1.450505</speed><course>95.588509</course><hAcc>1.488126</hAcc><vAcc>0.829152</vAcc></extensions></trkpt>
      <trkpt lon="-2.261546" lat="53.105725"><ele>108.834053</ele><time>2022-03-04T10:16:08Z</time><extensions><speed>1.437255</speed><course>99.576271</course><hAcc>1.475495</hAcc><vAcc>0.829049</vAcc></extensions></trkpt>
      <trkpt lon="-2.261525" lat="53.105723"><ele>108.883858</ele><time>2022-03-04T10:16:09Z</time><extensions><speed>1.423711</speed><course>99.021614</course><hAcc>1.467089</hAcc><vAcc>0.828955</vAcc></extensions></trkpt>
      <trkpt lon="-2.261504" lat="53.105721"><ele>108.925407</ele><time>2022-03-04T10:16:10Z</time><extensions><speed>1.410315</speed><course>93.665527</course><hAcc>1.463293</hAcc><vAcc>0.828856</vAcc></extensions></trkpt>
      <trkpt lon="-2.261483" lat="53.105721"><ele>108.972214</ele><time>2022-03-04T10:16:11Z</time><extensions><speed>1.368973</speed><course>90.958977</course><hAcc>1.446498</hAcc><vAcc>0.828765</vAcc></extensions></trkpt>
      <trkpt lon="-2.261462" lat="53.105721"><ele>109.006447</ele><time>2022-03-04T10:16:12Z</time><extensions><speed>1.432966</speed><course>90.827400</course><hAcc>1.474811</hAcc><vAcc>0.828668</vAcc></extensions></trkpt>
      <trkpt lon="-2.261442" lat="53.105720"><ele>109.039215</ele><time>2022-03-04T10:16:13Z</time><extensions><speed>1.357574</speed><course>92.201027</course><hAcc>1.493625</hAcc><vAcc>0.828588</vAcc></extensions></trkpt>
      <trkpt lon="-2.261421" lat="53.105720"><ele>109.070290</ele><time>2022-03-04T10:16:14Z</time><extensions><speed>1.345241</speed><course>93.277962</course><hAcc>1.539625</hAcc><vAcc>0.828525</vAcc></extensions></trkpt>
      <trkpt lon="-2.261403" lat="53.105719"><ele>109.107704</ele><time>2022-03-04T10:16:15Z</time><extensions><speed>1.110779</speed><course>94.868279</course><hAcc>1.535192</hAcc><vAcc>0.828460</vAcc></extensions></trkpt>
      <trkpt lon="-2.261389" lat="53.105718"><ele>109.130043</ele><time>2022-03-04T10:16:16Z</time><extensions><speed>0.825307</speed><course>92.266212</course><hAcc>1.549698</hAcc><vAcc>0.828406</vAcc></extensions></trkpt>
      <trkpt lon="-2.261376" lat="53.105718"><ele>109.147209</ele><time>2022-03-04T10:16:17Z</time><extensions><speed>0.827151</speed><course>88.920723</course><hAcc>1.602417</hAcc><vAcc>0.828362</vAcc></extensions></trkpt>
      <trkpt lon="-2.261363" lat="53.105719"><ele>109.167809</ele><time>2022-03-04T10:16:18Z</time><extensions><speed>0.917466</speed><course>86.053261</course><hAcc>1.653583</hAcc><vAcc>0.828329</vAcc></extensions></trkpt>
      <trkpt lon="-2.261349" lat="53.105719"><ele>109.202568</ele><time>2022-03-04T10:16:19Z</time><extensions><speed>1.011069</speed><course>86.202370</course><hAcc>1.687600</hAcc><vAcc>0.828312</vAcc></extensions></trkpt>
      <trkpt lon="-2.261333" lat="53.105720"><ele>109.235336</ele><time>2022-03-04T10:16:20Z</time><extensions><speed>1.039397</speed><course>87.569557</course><hAcc>1.711074</hAcc><vAcc>0.828297</vAcc></extensions></trkpt>
      <trkpt lon="-2.261318" lat="53.105720"><ele>109.267998</ele><time>2022-03-04T10:16:21Z</time><extensions><speed>1.066194</speed><course>88.375778</course><hAcc>1.725598</hAcc><vAcc>0.828287</vAcc></extensions></trkpt>
      <trkpt lon="-2.261301" lat="53.105720"><ele>109.296196</ele><time>2022-03-04T10:16:22Z</time><extensions><speed>1.096329</speed><course>89.084587</course><hAcc>1.725662</hAcc><vAcc>0.828298</vAcc></extensions></trkpt>
      <trkpt lon="-2.261284" lat="53.105720"><ele>109.339622</ele><time>2022-03-04T10:16:23Z</time><extensions><speed>1.172099</speed><course>89.994385</course><hAcc>1.723989</hAcc><vAcc>0.828319</vAcc></extensions></trkpt>
      <trkpt lon="-2.261266" lat="53.105720"><ele>109.373077</ele><time>2022-03-04T10:16:24Z</time><extensions><speed>1.276201</speed><course>90.587395</course><hAcc>1.717787</hAcc><vAcc>0.828363</vAcc></extensions></trkpt>
      <trkpt lon="-2.261246" lat="53.105720"><ele>109.411400</ele><time>2022-03-04T10:16:25Z</time><extensions><speed>1.364447</speed><course>91.978012</course><hAcc>1.705997</hAcc><vAcc>0.828414</vAcc></extensions></trkpt>
      <trkpt lon="-2.261226" lat="53.105719"><ele>109.450935</ele><time>2022-03-04T10:16:26Z</time><extensions><speed>1.371088</speed><course>94.423462</course><hAcc>1.690965</hAcc><vAcc>0.828473</vAcc></extensions></trkpt>
      <trkpt lon="-2.261206" lat="53.105718"><ele>109.510399</ele><time>2022-03-04T10:16:27Z</time><extensions><speed>1.310130</speed><course>97.026848</course><hAcc>1.681587</hAcc><vAcc>0.828544</vAcc></extensions></trkpt>
      <trkpt lon="-2.261187" lat="53.105717"><ele>109.565620</ele><time>2022-03-04T10:16:28Z</time><extensions><speed>1.175642</speed><course>95.785469</course><hAcc>1.686628</hAcc><vAcc>0.828621</vAcc></extensions></trkpt>
      <trkpt lon="-2.261170" lat="53.105716"><ele>109.632439</ele><time>2022-03-04T10:16:29Z</time><extensions><speed>1.072660</speed><course>93.525978</course><hAcc>1.709486</hAcc><vAcc>0.828707</vAcc></extensions></trkpt>
      <trkpt lon="-2.261154" lat="53.105715"><ele>109.690598</ele><time>2022-03-04T10:16:30Z</time><extensions><speed>1.146859</speed><course>92.922607</course><hAcc>1.671708</hAcc><vAcc>0.828801</vAcc></extensions></trkpt>
      <trkpt lon="-2.261136" lat="53.105715"><ele>109.761185</ele><time>2022-03-04T10:16:31Z</time><extensions><speed>1.179263</speed><course>93.976418</course><hAcc>1.656804</hAcc><vAcc>0.828891</vAcc></extensions></trkpt>
      <trkpt lon="-2.261118" lat="53.105714"><ele>109.831894</ele><time>2022-03-04T10:16:32Z</time><extensions><speed>1.236412</speed><course>96.742790</course><hAcc>1.661966</hAcc><vAcc>0.828981</vAcc></extensions></trkpt>
      <trkpt lon="-2.261100" lat="53.105712"><ele>109.897903</ele><time>2022-03-04T10:16:33Z</time><extensions><speed>1.280334</speed><course>99.920204</course><hAcc>1.690230</hAcc><vAcc>0.829057</vAcc></extensions></trkpt>
      <trkpt lon="-2.261080" lat="53.105710"><ele>109.976845</ele><time>2022-03-04T10:16:34Z</time><extensions><speed>1.407701</speed><course>102.391357</course><hAcc>1.686441</hAcc><vAcc>0.829117</vAcc></extensions></trkpt>
      <trkpt lon="-2.261059" lat="53.105707"><ele>110.043884</ele><time>2022-03-04T10:16:35Z</time><extensions><speed>1.444765</speed><course>103.825554</course><hAcc>1.680966</hAcc><vAcc>0.829206</vAcc></extensions></trkpt>
      <trkpt lon="-2.261038" lat="53.105704"><ele>110.124321</ele><time>2022-03-04T10:16:36Z</time><extensions><speed>1.402177</speed><course>104.836983</course><hAcc>1.692025</hAcc><vAcc>0.829277</vAcc></extensions></trkpt>
      <trkpt lon="-2.261019" lat="53.105701"><ele>110.197678</ele><time>2022-03-04T10:16:37Z</time><extensions><speed>1.282841</speed><course>103.901558</course><hAcc>1.701438</hAcc><vAcc>0.829349</vAcc></extensions></trkpt>
      <trkpt lon="-2.261001" lat="53.105698"><ele>110.284935</ele><time>2022-03-04T10:16:38Z</time><extensions><speed>1.245544</speed><course>104.780983</course><hAcc>1.708527</hAcc><vAcc>0.829426</vAcc></extensions></trkpt>
      <trkpt lon="-2.260983" lat="53.105695"><ele>110.360710</ele><time>2022-03-04T10:16:39Z</time><extensions><speed>1.244572</speed><course>107.031662</course><hAcc>1.709354</hAcc><vAcc>0.829507</vAcc></extensions></trkpt>
      <trkpt lon="-2.260965" lat="53.105691"><ele>110.441185</ele><time>2022-03-04T10:16:40Z</time><extensions><speed>1.245643</speed><course>109.270309</course><hAcc>1.712816</hAcc><vAcc>0.829567</vAcc></extensions></trkpt>
      <trkpt lon="-2.260947" lat="53.105687"><ele>110.520210</ele><time>2022-03-04T10:16:41Z</time><extensions><speed>1.271591</speed><course>111.121292</course><hAcc>1.712784</hAcc><vAcc>0.829638</vAcc></extensions></trkpt>
      <trkpt lon="-2.260929" lat="53.105683"><ele>110.601799</ele><time>2022-03-04T10:16:42Z</time><extensions><speed>1.323527</speed><course>112.143166</course><hAcc>1.709351</hAcc><vAcc>0.829689</vAcc></extensions></trkpt>
      <trkpt lon="-2.260911" lat="53.105678"><ele>110.687866</ele><time>2022-03-04T10:16:43Z</time><extensions><speed>1.315989</speed><course>113.098419</course><hAcc>1.715339</hAcc><vAcc>0.829725</vAcc></extensions></trkpt>
      <trkpt lon="-2.260893" lat="53.105674"><ele>110.777840</ele><time>2022-03-04T10:16:44Z</time><extensions><speed>1.336434</speed><course>113.363197</course><hAcc>1.722475</hAcc><vAcc>0.829774</vAcc></extensions></trkpt>
      <trkpt lon="-2.260875" lat="53.105669"><ele>110.853897</ele><time>2022-03-04T10:16:45Z</time><extensions><speed>1.282149</speed><course>114.478783</course><hAcc>1.710886</hAcc><vAcc>0.829800</vAcc></extensions></trkpt>
      <trkpt lon="-2.260857" lat="53.105664"><ele>110.941833</ele><time>2022-03-04T10:16:46Z</time><extensions><speed>1.245664</speed><course>116.867813</course><hAcc>1.704523</hAcc><vAcc>0.829800</vAcc></extensions></trkpt>
      <trkpt lon="-2.260841" lat="53.105659"><ele>111.039238</ele><time>2022-03-04T10:16:47Z</time><extensions><speed>1.271959</speed><course>119.177498</course><hAcc>1.702428</hAcc><vAcc>0.829774</vAcc></extensions></trkpt>
      <trkpt lon="-2.260824" lat="53.105653"><ele>111.123444</ele><time>2022-03-04T10:16:48Z</time><extensions><speed>1.292333</speed><course>120.131958</course><hAcc>1.698547</hAcc><vAcc>0.829747</vAcc></extensions></trkpt>
      <trkpt lon="-2.260807" lat="53.105647"><ele>111.206818</ele><time>2022-03-04T10:16:49Z</time><extensions><speed>1.294396</speed><course>120.938980</course><hAcc>1.694373</hAcc><vAcc>0.829715</vAcc></extensions></trkpt>
      <trkpt lon="-2.260790" lat="53.105641"><ele>111.282478</ele><time>2022-03-04T10:16:50Z</time><extensions><speed>1.324829</speed><course>120.167709</course><hAcc>1.690832</hAcc><vAcc>0.829681</vAcc></extensions></trkpt>
      <trkpt lon="-2.260773" lat="53.105635"><ele>111.361069</ele><time>2022-03-04T10:16:51Z</time><extensions><speed>1.285645</speed><course>118.857269</course><hAcc>1.696332</hAcc><vAcc>0.829626</vAcc></extensions></trkpt>
      <trkpt lon="-2.260756" lat="53.105629"><ele>111.434196</ele><time>2022-03-04T10:16:52Z</time><extensions><speed>1.376954</speed><course>116.379204</course><hAcc>1.674040</hAcc><vAcc>0.829547</vAcc></extensions></trkpt>
      <trkpt lon="-2.260737" lat="53.105624"><ele>111.508003</ele><time>2022-03-04T10:16:53Z</time><extensions><speed>1.355679</speed><course>114.221748</course><hAcc>1.672479</hAcc><vAcc>0.829441</vAcc></extensions></trkpt>
      <trkpt lon="-2.260719" lat="53.105619"><ele>111.565384</ele><time>2022-03-04T10:16:54Z</time><extensions><speed>1.315997</speed><course>113.867531</course><hAcc>1.687281</hAcc><vAcc>0.829320</vAcc></extensions></trkpt>
      <trkpt lon="-2.260701" lat="53.105614"><ele>111.610283</ele><time>2022-03-04T10:16:55Z</time><extensions><speed>1.327637</speed><course>115.625145</course><hAcc>1.679491</hAcc><vAcc>0.829199</vAcc></extensions></trkpt>
      <trkpt lon="-2.260683" lat="53.105609"><ele>111.664398</ele><time>2022-03-04T10:16:56Z</time><extensions><speed>1.342641</speed><course>117.163940</course><hAcc>1.665618</hAcc><vAcc>0.829050</vAcc></extensions></trkpt>
      <trkpt lon="-2.260666" lat="53.105604"><ele>111.712471</ele><time>2022-03-04T10:16:57Z</time><extensions><speed>1.261219</speed><course>118.192917</course><hAcc>1.667716</hAcc><vAcc>0.828925</vAcc></extensions></trkpt>
      <trkpt lon="-2.260649" lat="53.105598"><ele>111.744827</ele><time>2022-03-04T10:16:58Z</time><extensions><speed>1.194241</speed><course>118.482185</course><hAcc>1.667140</hAcc><vAcc>0.828802</vAcc></extensions></trkpt>
      <trkpt lon="-2.260634" lat="53.105593"><ele>111.783302</ele><time>2022-03-04T10:16:59Z</time><extensions><speed>1.172781</speed><course>118.600395</course><hAcc>1.686494</hAcc><vAcc>0.828679</vAcc></extensions></trkpt>
      <trkpt lon="-2.260618" lat="53.105588"><ele>111.824432</ele><time>2022-03-04T10:17:00Z</time><extensions><speed>1.192581</speed><course>118.947334</course><hAcc>1.700709</hAcc><vAcc>0.828547</vAcc></extensions></trkpt>
      <trkpt lon="-2.260602" lat="53.105583"><ele>111.856720</ele><time>2022-03-04T10:17:01Z</time><extensions><speed>1.286637</speed><course>117.141106</course><hAcc>1.685049</hAcc><vAcc>0.828416</vAcc></extensions></trkpt>
      <trkpt lon="-2.260585" lat="53.105578"><ele>111.893600</ele><time>2022-03-04T10:17:02Z</time><extensions><speed>1.234767</speed><course>116.425758</course><hAcc>1.687526</hAcc><vAcc>0.828292</vAcc></extensions></trkpt>
      <trkpt lon="-2.260569" lat="53.105573"><ele>111.907410</ele><time>2022-03-04T10:17:03Z</time><extensions><speed>1.145988</speed><course>115.767868</course><hAcc>1.691959</hAcc><vAcc>0.828210</vAcc></extensions></trkpt>
      <trkpt lon="-2.260554" lat="53.105569"><ele>111.911728</ele><time>2022-03-04T10:17:04Z</time><extensions><speed>1.062478</speed><course>117.227272</course><hAcc>1.703786</hAcc><vAcc>0.828184</vAcc></extensions></trkpt>
      <trkpt lon="-2.260540" lat="53.105564"><ele>111.924835</ele><time>2022-03-04T10:17:05Z</time><extensions><speed>1.081692</speed><course>116.238594</course><hAcc>1.711017</hAcc><vAcc>0.828197</vAcc></extensions></trkpt>
      <trkpt lon="-2.260525" lat="53.105560"><ele>111.960236</ele><time>2022-03-04T10:17:06Z</time><extensions><speed>1.094345</speed><course>113.938538</course><hAcc>1.714149</hAcc><vAcc>0.828246</vAcc></extensions></trkpt>
      <trkpt lon="-2.260510" lat="53.105556"><ele>111.988708</ele><time>2022-03-04T10:17:07Z</time><extensions><speed>1.109065</speed><course>112.844292</course><hAcc>1.721255</hAcc><vAcc>0.828317</vAcc></extensions></trkpt>
      <trkpt lon="-2.260495" lat="53.105552"><ele>112.022392</ele><time>2022-03-04T10:17:08Z</time><extensions><speed>1.022091</speed><course>112.964470</course><hAcc>1.726839</hAcc><vAcc>0.828418</vAcc></extensions></trkpt>
      <trkpt lon="-2.260481" lat="53.105549"><ele>112.064537</ele><time>2022-03-04T10:17:09Z</time><extensions><speed>0.991636</speed><course>113.873993</course><hAcc>1.715820</hAcc><vAcc>0.828546</vAcc></extensions></trkpt>
      <trkpt lon="-2.260467" lat="53.105545"><ele>112.094803</ele><time>2022-03-04T10:17:10Z</time><extensions><speed>0.996797</speed><course>114.466507</course><hAcc>1.717436</hAcc><vAcc>0.828680</vAcc></extensions></trkpt>
      <trkpt lon="-2.260454" lat="53.105541"><ele>112.111092</ele><time>2022-03-04T10:17:11Z</time><extensions><speed>1.027608</speed><course>113.292068</course><hAcc>1.722326</hAcc><vAcc>0.828824</vAcc></extensions></trkpt>
      <trkpt lon="-2.260439" lat="53.105538"><ele>112.122322</ele><time>2022-03-04T10:17:12Z</time><extensions><speed>1.116388</speed><course>112.022713</course><hAcc>1.725866</hAcc><vAcc>0.828982</vAcc></extensions></trkpt>
      <trkpt lon="-2.260423" lat="53.105534"><ele>112.138336</ele><time>2022-03-04T10:17:14Z</time><extensions><speed>1.149883</speed><course>110.852783</course><hAcc>1.726381</hAcc><vAcc>0.829129</vAcc></extensions></trkpt>
      <trkpt lon="-2.260407" lat="53.105530"><ele>112.148521</ele><time>2022-03-04T10:17:15Z</time><extensions><speed>1.180692</speed><course>109.222313</course><hAcc>1.726869</hAcc><vAcc>0.829255</vAcc></extensions></trkpt>
      <trkpt lon="-2.260389" lat="53.105527"><ele>112.162422</ele><time>2022-03-04T10:17:16Z</time><extensions><speed>1.253983</speed><course>109.528595</course><hAcc>1.728001</hAcc><vAcc>0.829381</vAcc></extensions></trkpt>
      <trkpt lon="-2.260372" lat="53.105523"><ele>112.176941</ele><time>2022-03-04T10:17:17Z</time><extensions><speed>1.267468</speed><course>110.189507</course><hAcc>1.729433</hAcc><vAcc>0.829496</vAcc></extensions></trkpt>
      <trkpt lon="-2.260354" lat="53.105519"><ele>112.188141</ele><time>2022-03-04T10:17:18Z</time><extensions><speed>1.232763</speed><course>110.974869</course><hAcc>1.726550</hAcc><vAcc>0.829593</vAcc></extensions></trkpt>
      <trkpt lon="-2.260338" lat="53.105515"><ele>112.189507</ele><time>2022-03-04T10:17:19Z</time><extensions><speed>1.147944</speed><course>111.444717</course><hAcc>1.725452</hAcc><vAcc>0.829687</vAcc></extensions></trkpt>
      <trkpt lon="-2.260322" lat="53.105511"><ele>112.196480</ele><time>2022-03-04T10:17:20Z</time><extensions><speed>1.072200</speed><course>112.613853</course><hAcc>1.727023</hAcc><vAcc>0.829759</vAcc></extensions></trkpt>
      <trkpt lon="-2.260308" lat="53.105508"><ele>112.223015</ele><time>2022-03-04T10:17:21Z</time><extensions><speed>1.043412</speed><course>113.231613</course><hAcc>1.727132</hAcc><vAcc>0.829817</vAcc></extensions></trkpt>
      <trkpt lon="-2.260294" lat="53.105504"><ele>112.248863</ele><time>2022-03-04T10:17:22Z</time><extensions><speed>1.027763</speed><course>112.901100</course><hAcc>1.726379</hAcc><vAcc>0.829862</vAcc></extensions></trkpt>
      <trkpt lon="-2.260279" lat="53.105500"><ele>112.270668</ele><time>2022-03-04T10:17:23Z</time><extensions><speed>1.054606</speed><course>112.513680</course><hAcc>1.721906</hAcc><vAcc>0.829898</vAcc></extensions></trkpt>
      <trkpt lon="-2.260264" lat="53.105497"><ele>112.281586</ele><time>2022-03-04T10:17:24Z</time><extensions><speed>1.084535</speed><course>110.866074</course><hAcc>1.718888</hAcc><vAcc>0.829938</vAcc></extensions></trkpt>
      <trkpt lon="-2.260249" lat="53.105493"><ele>112.290024</ele><time>2022-03-04T10:17:25Z</time><extensions><speed>1.080596</speed><course>110.424782</course><hAcc>1.715521</hAcc><vAcc>0.829971</vAcc></extensions></trkpt>
      <trkpt lon="-2.260234" lat="53.105490"><ele>112.322517</ele><time>2022-03-04T10:17:26Z</time><extensions><speed>1.028625</speed><course>108.768936</course><hAcc>1.705923</hAcc><vAcc>0.829999</vAcc></extensions></trkpt>
      <trkpt lon="-2.260220" lat="53.105487"><ele>112.366066</ele><time>2022-03-04T10:17:27Z</time><extensions><speed>1.005271</speed><course>108.132042</course><hAcc>1.695963</hAcc><vAcc>0.830041</vAcc></extensions></trkpt>
      <trkpt lon="-2.260206" lat="53.105485"><ele>112.414719</ele><time>2022-03-04T10:17:28Z</time><extensions><speed>1.020156</speed><course>109.045082</course><hAcc>1.694664</hAcc><vAcc>0.830096</vAcc></extensions></trkpt>
      <trkpt lon="-2.260191" lat="53.105481"><ele>112.479843</ele><time>2022-03-04T10:17:29Z</time><extensions><speed>1.074824</speed><course>111.293297</course><hAcc>1.701905</hAcc><vAcc>0.830160</vAcc></extensions></trkpt>
      <trkpt lon="-2.260176" lat="53.105478"><ele>112.547684</ele><time>2022-03-04T10:17:30Z</time><extensions><speed>1.078071</speed><course>112.208801</course><hAcc>1.705007</hAcc><vAcc>0.830235</vAcc></extensions></trkpt>
      <trkpt lon="-2.260161" lat="53.105474"><ele>112.626862</ele><time>2022-03-04T10:17:31Z</time><extensions><speed>1.045829</speed><course>111.874100</course><hAcc>1.692852</hAcc><vAcc>0.830309</vAcc></extensions></trkpt>
      <trkpt lon="-2.260147" lat="53.105471"><ele>112.684402</ele><time>2022-03-04T10:17:32Z</time><extensions><speed>1.034127</speed><course>112.253487</course><hAcc>1.686499</hAcc><vAcc>0.830385</vAcc></extensions></trkpt>
      <trkpt lon="-2.260133" lat="53.105467"><ele>112.755135</ele><time>2022-03-04T10:17:33Z</time><extensions><speed>1.071936</speed><course>114.782425</course><hAcc>1.691430</hAcc><vAcc>0.830459</vAcc></extensions></trkpt>
      <trkpt lon="-2.260118" lat="53.105463"><ele>112.816284</ele><time>2022-03-04T10:17:34Z</time><extensions><speed>1.098465</speed><course>116.002625</course><hAcc>1.695729</hAcc><vAcc>0.830531</vAcc></extensions></trkpt>
      <trkpt lon="-2.260103" lat="53.105458"><ele>112.878044</ele><time>2022-03-04T10:17:35Z</time><extensions><speed>1.076114</speed><course>115.344421</course><hAcc>1.699429</hAcc><vAcc>0.830596</vAcc></extensions></trkpt>
      <trkpt lon="-2.260089" lat="53.105454"><ele>112.949287</ele><time>2022-03-04T10:17:36Z</time><extensions><speed>1.033519</speed><course>113.064873</course><hAcc>1.701495</hAcc><vAcc>0.830670</vAcc></extensions></trkpt>
      <trkpt lon="-2.260075" lat="53.105451"><ele>113.017929</ele><time>2022-03-04T10:17:37Z</time><extensions><speed>1.020463</speed><course>112.904922</course><hAcc>1.706623</hAcc><vAcc>0.830718</vAcc></extensions></trkpt>
      <trkpt lon="-2.260060" lat="53.105447"><ele>113.086159</ele><time>2022-03-04T10:17:38Z</time><extensions><speed>1.097647</speed><course>113.381073</course><hAcc>1.701457</hAcc><vAcc>0.830743</vAcc></extensions></trkpt>
      <trkpt lon="-2.260045" lat="53.105443"><ele>113.163849</ele><time>2022-03-04T10:17:39Z</time><extensions><speed>1.155122</speed><course>113.660660</course><hAcc>1.698427</hAcc><vAcc>0.830754</vAcc></extensions></trkpt>
      <trkpt lon="-2.260029" lat="53.105439"><ele>113.232910</ele><time>2022-03-04T10:17:40Z</time><extensions><speed>1.209705</speed><course>114.184441</course><hAcc>1.696893</hAcc><vAcc>0.830736</vAcc></extensions></trkpt>
      <trkpt lon="-2.260012" lat="53.105434"><ele>113.294907</ele><time>2022-03-04T10:17:41Z</time><extensions><speed>1.215091</speed><course>115.700424</course><hAcc>1.699383</hAcc><vAcc>0.830707</vAcc></extensions></trkpt>
      <trkpt lon="-2.259996" lat="53.105429"><ele>113.363304</ele><time>2022-03-04T10:17:42Z</time><extensions><speed>1.167630</speed><course>117.781120</course><hAcc>1.705259</hAcc><vAcc>0.830658</vAcc></extensions></trkpt>
      <trkpt lon="-2.259981" lat="53.105424"><ele>113.426300</ele><time>2022-03-04T10:17:43Z</time><extensions><speed>1.184716</speed><course>118.548409</course><hAcc>1.707434</hAcc><vAcc>0.830593</vAcc></extensions></trkpt>
      <trkpt lon="-2.259965" lat="53.105419"><ele>113.493706</ele><time>2022-03-04T10:17:44Z</time><extensions><speed>1.211859</speed><course>118.510155</course><hAcc>1.697252</hAcc><vAcc>0.830507</vAcc></extensions></trkpt>
      <trkpt lon="-2.259949" lat="53.105414"><ele>113.562279</ele><time>2022-03-04T10:17:45Z</time><extensions><speed>1.247174</speed><course>117.962830</course><hAcc>1.691870</hAcc><vAcc>0.830416</vAcc></extensions></trkpt>
      <trkpt lon="-2.259932" lat="53.105409"><ele>113.625526</ele><time>2022-03-04T10:17:46Z</time><extensions><speed>1.245484</speed><course>118.655800</course><hAcc>1.687364</hAcc><vAcc>0.830321</vAcc></extensions></trkpt>
      <trkpt lon="-2.259916" lat="53.105403"><ele>113.680382</ele><time>2022-03-04T10:17:47Z</time><extensions><speed>1.218904</speed><course>119.159492</course><hAcc>1.685438</hAcc><vAcc>0.830218</vAcc></extensions></trkpt>
      <trkpt lon="-2.259901" lat="53.105398"><ele>113.734268</ele><time>2022-03-04T10:17:48Z</time><extensions><speed>1.161627</speed><course>119.717888</course><hAcc>1.682301</hAcc><vAcc>0.830119</vAcc></extensions></trkpt>
      <trkpt lon="-2.259886" lat="53.105393"><ele>113.790176</ele><time>2022-03-04T10:17:49Z</time><extensions><speed>1.134154</speed><course>119.156036</course><hAcc>1.671530</hAcc><vAcc>0.830025</vAcc></extensions></trkpt>
      <trkpt lon="-2.259871" lat="53.105388"><ele>113.854095</ele><time>2022-03-04T10:17:50Z</time><extensions><speed>1.178406</speed><course>118.973152</course><hAcc>1.642664</hAcc><vAcc>0.829944</vAcc></extensions></trkpt>
      <trkpt lon="-2.259856" lat="53.105383"><ele>113.895393</ele><time>2022-03-04T10:17:51Z</time><extensions><speed>1.184558</speed><course>119.055458</course><hAcc>1.612538</hAcc><vAcc>0.829870</vAcc></extensions></trkpt>
      <trkpt lon="-2.259840" lat="53.105378"><ele>113.928261</ele><time>2022-03-04T10:17:52Z</time><extensions><speed>1.308140</speed><course>119.897346</course><hAcc>1.556235</hAcc><vAcc>0.829820</vAcc></extensions></trkpt>
      <trkpt lon="-2.259823" lat="53.105371"><ele>113.957382</ele><time>2022-03-04T10:17:53Z</time><extensions><speed>1.429928</speed><course>121.860825</course><hAcc>1.519751</hAcc><vAcc>0.829779</vAcc></extensions></trkpt>
      <trkpt lon="-2.259805" lat="53.105364"><ele>113.984840</ele><time>2022-03-04T10:17:54Z</time><extensions><speed>1.552791</speed><course>122.894501</course><hAcc>1.519380</hAcc><vAcc>0.829754</vAcc></extensions></trkpt>
      <trkpt lon="-2.259786" lat="53.105357"><ele>114.024818</ele><time>2022-03-04T10:17:55Z</time><extensions><speed>1.526139</speed><course>119.888275</course><hAcc>1.484703</hAcc><vAcc>0.829734</vAcc></extensions></trkpt>
      <trkpt lon="-2.259766" lat="53.105351"><ele>114.070686</ele><time>2022-03-04T10:17:56Z</time><extensions><speed>1.543979</speed><course>115.510071</course><hAcc>1.464087</hAcc><vAcc>0.829718</vAcc></extensions></trkpt>
      <trkpt lon="-2.259746" lat="53.105346"><ele>114.110100</ele><time>2022-03-04T10:17:57Z</time><extensions><speed>1.492251</speed><course>111.573860</course><hAcc>1.437351</hAcc><vAcc>0.829716</vAcc></extensions></trkpt>
      <trkpt lon="-2.259726" lat="53.105342"><ele>114.133270</ele><time>2022-03-04T10:17:58Z</time><extensions><speed>1.439758</speed><course>108.411903</course><hAcc>1.416912</hAcc><vAcc>0.829732</vAcc></extensions></trkpt>
      <trkpt lon="-2.259707" lat="53.105337"><ele>114.156059</ele><time>2022-03-04T10:17:59Z</time><extensions><speed>1.402919</speed><course>113.384605</course><hAcc>1.396835</hAcc><vAcc>0.829756</vAcc></extensions></trkpt>
      <trkpt lon="-2.259688" lat="53.105332"><ele>114.189957</ele><time>2022-03-04T10:18:00Z</time><extensions><speed>1.448121</speed><course>121.890068</course><hAcc>1.396508</hAcc><vAcc>0.829785</vAcc></extensions></trkpt>
      <trkpt lon="-2.259671" lat="53.105325"><ele>114.230240</ele><time>2022-03-04T10:18:01Z</time><extensions><speed>1.436066</speed><course>123.034271</course><hAcc>1.392685</hAcc><vAcc>0.829801</vAcc></extensions></trkpt>
      <trkpt lon="-2.259653" lat="53.105319"><ele>114.262611</ele><time>2022-03-04T10:18:02Z</time><extensions><speed>1.365244</speed><course>118.568146</course><hAcc>1.379501</hAcc><vAcc>0.829825</vAcc></extensions></trkpt>
      <trkpt lon="-2.259636" lat="53.105313"><ele>114.297592</ele><time>2022-03-04T10:18:03Z</time><extensions><speed>1.315380</speed><course>116.951744</course><hAcc>1.371975</hAcc><vAcc>0.829848</vAcc></extensions></trkpt>
      <trkpt lon="-2.259619" lat="53.105308"><ele>114.338417</ele><time>2022-03-04T10:18:04Z</time><extensions><speed>1.407304</speed><course>120.458267</course><hAcc>1.380445</hAcc><vAcc>0.829857</vAcc></extensions></trkpt>
      <trkpt lon="-2.259602" lat="53.105301"><ele>114.390709</ele><time>2022-03-04T10:18:05Z</time><extensions><speed>1.377677</speed><course>121.977722</course><hAcc>1.383475</hAcc><vAcc>0.829858</vAcc></extensions></trkpt>
      <trkpt lon="-2.259585" lat="53.105295"><ele>114.458801</ele><time>2022-03-04T10:18:05Z</time><extensions><speed>1.316508</speed><course>121.739311</course><hAcc>1.372557</hAcc><vAcc>0.829862</vAcc></extensions></trkpt>
      <trkpt lon="-2.259569" lat="53.105289"><ele>114.530731</ele><time>2022-03-04T10:18:06Z</time><extensions><speed>1.310996</speed><course>119.547340</course><hAcc>1.366380</hAcc><vAcc>0.829864</vAcc></extensions></trkpt>
      <trkpt lon="-2.259553" lat="53.105284"><ele>114.599831</ele><time>2022-03-04T10:18:07Z</time><extensions><speed>1.291275</speed><course>119.525101</course><hAcc>1.362320</hAcc><vAcc>0.829858</vAcc></extensions></trkpt>
      <trkpt lon="-2.259537" lat="53.105278"><ele>114.667068</ele><time>2022-03-04T10:18:08Z</time><extensions><speed>1.315771</speed><course>121.972076</course><hAcc>1.363418</hAcc><vAcc>0.829852</vAcc></extensions></trkpt>
      <trkpt lon="-2.259520" lat="53.105272"><ele>114.736420</ele><time>2022-03-04T10:18:09Z</time><extensions><speed>1.404259</speed><course>123.784912</course><hAcc>1.372657</hAcc><vAcc>0.829848</vAcc></extensions></trkpt>
      <trkpt lon="-2.259503" lat="53.105265"><ele>114.809395</ele><time>2022-03-04T10:18:10Z</time><extensions><speed>1.409710</speed><course>120.861313</course><hAcc>1.368786</hAcc><vAcc>0.829852</vAcc></extensions></trkpt>
      <trkpt lon="-2.259485" lat="53.105260"><ele>114.878578</ele><time>2022-03-04T10:18:11Z</time><extensions><speed>1.392205</speed><course>116.187798</course><hAcc>1.364682</hAcc><vAcc>0.829849</vAcc></extensions></trkpt>
      <trkpt lon="-2.259467" lat="53.105255"><ele>114.947868</ele><time>2022-03-04T10:18:12Z</time><extensions><speed>1.379873</speed><course>112.449867</course><hAcc>1.367223</hAcc><vAcc>0.829843</vAcc></extensions></trkpt>
      <trkpt lon="-2.259449" lat="53.105250"><ele>115.016464</ele><time>2022-03-04T10:18:13Z</time><extensions><speed>1.405032</speed><course>116.123329</course><hAcc>1.369776</hAcc><vAcc>0.829841</vAcc></extensions></trkpt>
      <trkpt lon="-2.259431" lat="53.105244"><ele>115.086731</ele><time>2022-03-04T10:18:14Z</time><extensions><speed>1.351190</speed><course>122.295883</course><hAcc>1.373940</hAcc><vAcc>0.829853</vAcc></extensions></trkpt>
      <trkpt lon="-2.259415" lat="53.105238"><ele>115.165436</ele><time>2022-03-04T10:18:15Z</time><extensions><speed>1.377391</speed><course>125.553719</course><hAcc>1.387454</hAcc><vAcc>0.829867</vAcc></extensions></trkpt>
      <trkpt lon="-2.259399" lat="53.105231"><ele>115.243721</ele><time>2022-03-04T10:18:16Z</time><extensions><speed>1.277037</speed><course>124.647247</course><hAcc>1.387326</hAcc><vAcc>0.829885</vAcc></extensions></trkpt>
      <trkpt lon="-2.259384" lat="53.105225"><ele>115.318153</ele><time>2022-03-04T10:18:17Z</time><extensions><speed>1.221540</speed><course>119.469231</course><hAcc>1.389603</hAcc><vAcc>0.829907</vAcc></extensions></trkpt>
      <trkpt lon="-2.259368" lat="53.105220"><ele>115.383987</ele><time>2022-03-04T10:18:18Z</time><extensions><speed>1.312241</speed><course>116.066307</course><hAcc>1.418969</hAcc><vAcc>0.829936</vAcc></extensions></trkpt>
      <trkpt lon="-2.259351" lat="53.105215"><ele>115.445137</ele><time>2022-03-04T10:18:19Z</time><extensions><speed>1.217237</speed><course>118.084297</course><hAcc>1.416694</hAcc><vAcc>0.829982</vAcc></extensions></trkpt>
      <trkpt lon="-2.259337" lat="53.105210"><ele>115.508209</ele><time>2022-03-04T10:18:20Z</time><extensions><speed>1.147923</speed><course>119.034126</course><hAcc>1.409239</hAcc><vAcc>0.830023</vAcc></extensions></trkpt>
      <trkpt lon="-2.259321" lat="53.105205"><ele>115.567055</ele><time>2022-03-04T10:18:21Z</time><extensions><speed>1.265650</speed><course>118.777977</course><hAcc>1.437675</hAcc><vAcc>0.830071</vAcc></extensions></trkpt>
      <trkpt lon="-2.259305" lat="53.105200"><ele>115.635880</ele><time>2022-03-04T10:18:22Z</time><extensions><speed>1.348558</speed><course>115.711136</course><hAcc>1.444608</hAcc><vAcc>0.830110</vAcc></extensions></trkpt>
      <trkpt lon="-2.259288" lat="53.105196"><ele>115.707726</ele><time>2022-03-04T10:18:23Z</time><extensions><speed>1.130677</speed><course>109.636818</course><hAcc>1.410867</hAcc><vAcc>0.830144</vAcc></extensions></trkpt>
      <trkpt lon="-2.259274" lat="53.105193"><ele>115.782906</ele><time>2022-03-04T10:18:24Z</time><extensions><speed>1.081701</speed><course>109.194176</course><hAcc>1.403028</hAcc><vAcc>0.830171</vAcc></extensions></trkpt>
      <trkpt lon="-2.259259" lat="53.105189"><ele>115.835587</ele><time>2022-03-04T10:18:25Z</time><extensions><speed>1.227794</speed><course>115.277061</course><hAcc>1.421822</hAcc><vAcc>0.830198</vAcc></extensions></trkpt>
      <trkpt lon="-2.259243" lat="53.105185"><ele>115.885353</ele><time>2022-03-04T10:18:26Z</time><extensions><speed>1.257803</speed><course>115.434288</course><hAcc>1.420123</hAcc><vAcc>0.830222</vAcc></extensions></trkpt>
      <trkpt lon="-2.259227" lat="53.105180"><ele>115.935608</ele><time>2022-03-04T10:18:27Z</time><extensions><speed>1.185432</speed><course>116.823616</course><hAcc>1.402149</hAcc><vAcc>0.830254</vAcc></extensions></trkpt>
      <trkpt lon="-2.259212" lat="53.105176"><ele>115.999779</ele><time>2022-03-04T10:18:28Z</time><extensions><speed>1.239508</speed><course>113.300667</course><hAcc>1.401287</hAcc><vAcc>0.830289</vAcc></extensions></trkpt>
      <trkpt lon="-2.259196" lat="53.105172"><ele>116.083252</ele><time>2022-03-04T10:18:29Z</time><extensions><speed>1.185734</speed><course>113.168640</course><hAcc>1.386890</hAcc><vAcc>0.830307</vAcc></extensions></trkpt>
      <trkpt lon="-2.259180" lat="53.105168"><ele>116.167999</ele><time>2022-03-04T10:18:30Z</time><extensions><speed>1.266022</speed><course>114.707062</course><hAcc>1.386293</hAcc><vAcc>0.830320</vAcc></extensions></trkpt>
      <trkpt lon="-2.259164" lat="53.105163"><ele>116.242416</ele><time>2022-03-04T10:18:31Z</time><extensions><speed>1.183893</speed><course>114.456367</course><hAcc>1.378760</hAcc><vAcc>0.830325</vAcc></extensions></trkpt>
      <trkpt lon="-2.259148" lat="53.105159"><ele>116.318169</ele><time>2022-03-04T10:18:32Z</time><extensions><speed>1.270430</speed><course>118.096870</course><hAcc>1.383493</hAcc><vAcc>0.830332</vAcc></extensions></trkpt>
      <trkpt lon="-2.259133" lat="53.105153"><ele>116.391281</ele><time>2022-03-04T10:18:33Z</time><extensions><speed>1.252571</speed><course>121.637505</course><hAcc>1.382878</hAcc><vAcc>0.830335</vAcc></extensions></trkpt>
      <trkpt lon="-2.259118" lat="53.105148"><ele>116.466850</ele><time>2022-03-04T10:18:34Z</time><extensions><speed>1.183891</speed><course>123.038467</course><hAcc>1.378887</hAcc><vAcc>0.830332</vAcc></extensions></trkpt>
      <trkpt lon="-2.259105" lat="53.105142"><ele>116.528664</ele><time>2022-03-04T10:18:35Z</time><extensions><speed>1.110568</speed><course>122.304932</course><hAcc>1.375733</hAcc><vAcc>0.830329</vAcc></extensions></trkpt>
      <trkpt lon="-2.259091" lat="53.105137"><ele>116.595566</ele><time>2022-03-04T10:18:36Z</time><extensions><speed>1.183742</speed><course>124.928101</course><hAcc>1.380491</hAcc><vAcc>0.830322</vAcc></extensions></trkpt>
      <trkpt lon="-2.259077" lat="53.105131"><ele>116.670975</ele><time>2022-03-04T10:18:37Z</time><extensions><speed>1.242472</speed><course>123.351074</course><hAcc>1.388553</hAcc><vAcc>0.830313</vAcc></extensions></trkpt>
      <trkpt lon="-2.259062" lat="53.105126"><ele>116.767525</ele><time>2022-03-04T10:18:38Z</time><extensions><speed>1.119264</speed><course>112.561836</course><hAcc>1.385857</hAcc><vAcc>0.830286</vAcc></extensions></trkpt>
      <trkpt lon="-2.259047" lat="53.105123"><ele>116.851295</ele><time>2022-03-04T10:18:39Z</time><extensions><speed>1.075123</speed><course>109.664780</course><hAcc>1.389736</hAcc><vAcc>0.830249</vAcc></extensions></trkpt>
      <trkpt lon="-2.259033" lat="53.105120"><ele>116.930222</ele><time>2022-03-04T10:18:40Z</time><extensions><speed>1.098766</speed><course>111.403687</course><hAcc>1.394114</hAcc><vAcc>0.830232</vAcc></extensions></trkpt>
      <trkpt lon="-2.259018" lat="53.105116"><ele>117.015427</ele><time>2022-03-04T10:18:41Z</time><extensions><speed>1.182002</speed><course>117.295822</course><hAcc>1.404796</hAcc><vAcc>0.830230</vAcc></extensions></trkpt>
      <trkpt lon="-2.259003" lat="53.105110"><ele>117.110100</ele><time>2022-03-04T10:18:42Z</time><extensions><speed>1.198613</speed><course>124.007500</course><hAcc>1.411751</hAcc><vAcc>0.830217</vAcc></extensions></trkpt>
      <trkpt lon="-2.258990" lat="53.105105"><ele>117.202507</ele><time>2022-03-04T10:18:43Z</time><extensions><speed>1.039533</speed><course>122.648628</course><hAcc>1.396700</hAcc><vAcc>0.830200</vAcc></extensions></trkpt>
      <trkpt lon="-2.258977" lat="53.105100"><ele>117.298744</ele><time>2022-03-04T10:18:44Z</time><extensions><speed>1.052824</speed><course>121.570419</course><hAcc>1.409677</hAcc><vAcc>0.830188</vAcc></extensions></trkpt>
      <trkpt lon="-2.258964" lat="53.105096"><ele>117.382317</ele><time>2022-03-04T10:18:45Z</time><extensions><speed>1.102185</speed><course>116.994675</course><hAcc>1.416381</hAcc><vAcc>0.830185</vAcc></extensions></trkpt>
      <trkpt lon="-2.258950" lat="53.105092"><ele>117.467506</ele><time>2022-03-04T10:18:46Z</time><extensions><speed>1.087023</speed><course>115.279381</course><hAcc>1.400351</hAcc><vAcc>0.830211</vAcc></extensions></trkpt>
      <trkpt lon="-2.258936" lat="53.105088"><ele>117.545769</ele><time>2022-03-04T10:18:47Z</time><extensions><speed>1.191900</speed><course>113.142700</course><hAcc>1.413595</hAcc><vAcc>0.830232</vAcc></extensions></trkpt>
      <trkpt lon="-2.258920" lat="53.105083"><ele>117.632484</ele><time>2022-03-04T10:18:48Z</time><extensions><speed>1.242101</speed><course>113.215469</course><hAcc>1.413833</hAcc><vAcc>0.830257</vAcc></extensions></trkpt>
      <trkpt lon="-2.258903" lat="53.105079"><ele>117.711594</ele><time>2022-03-04T10:18:49Z</time><extensions><speed>1.220529</speed><course>113.817574</course><hAcc>1.404535</hAcc><vAcc>0.830304</vAcc></extensions></trkpt>
      <trkpt lon="-2.258887" lat="53.105075"><ele>117.777969</ele><time>2022-03-04T10:18:50Z</time><extensions><speed>1.213272</speed><course>115.350693</course><hAcc>1.405915</hAcc><vAcc>0.830350</vAcc></extensions></trkpt>
      <trkpt lon="-2.258871" lat="53.105070"><ele>117.841354</ele><time>2022-03-04T10:18:51Z</time><extensions><speed>1.232460</speed><course>117.709480</course><hAcc>1.411495</hAcc><vAcc>0.830392</vAcc></extensions></trkpt>
      <trkpt lon="-2.258855" lat="53.105065"><ele>117.902603</ele><time>2022-03-04T10:18:52Z</time><extensions><speed>1.284888</speed><course>118.300087</course><hAcc>1.425708</hAcc><vAcc>0.830423</vAcc></extensions></trkpt>
      <trkpt lon="-2.258838" lat="53.105059"><ele>117.957497</ele><time>2022-03-04T10:18:53Z</time><extensions><speed>1.236947</speed><course>118.715279</course><hAcc>1.437577</hAcc><vAcc>0.830447</vAcc></extensions></trkpt>
      <trkpt lon="-2.258822" lat="53.105054"><ele>118.008179</ele><time>2022-03-04T10:18:54Z</time><extensions><speed>1.239145</speed><course>118.754059</course><hAcc>1.462975</hAcc><vAcc>0.830460</vAcc></extensions></trkpt>
      <trkpt lon="-2.258806" lat="53.105049"><ele>118.053772</ele><time>2022-03-04T10:18:55Z</time><extensions><speed>1.205882</speed><course>121.476830</course><hAcc>1.487184</hAcc><vAcc>0.830468</vAcc></extensions></trkpt>
      <trkpt lon="-2.258792" lat="53.105043"><ele>118.088791</ele><time>2022-03-04T10:18:56Z</time><extensions><speed>1.075314</speed><course>124.927765</course><hAcc>1.505243</hAcc><vAcc>0.830466</vAcc></extensions></trkpt>
      <trkpt lon="-2.258780" lat="53.105038"><ele>118.117470</ele><time>2022-03-04T10:18:57Z</time><extensions><speed>0.878158</speed><course>125.736122</course><hAcc>1.533294</hAcc><vAcc>0.830475</vAcc></extensions></trkpt>
      <trkpt lon="-2.258771" lat="53.105034"><ele>118.145950</ele><time>2022-03-04T10:18:58Z</time><extensions><speed>0.675521</speed><course>125.416008</course><hAcc>1.570968</hAcc><vAcc>0.830466</vAcc></extensions></trkpt>
      <trkpt lon="-2.258763" lat="53.105031"><ele>118.177361</ele><time>2022-03-04T10:18:59Z</time><extensions><speed>0.627651</speed><course>121.244316</course><hAcc>1.612088</hAcc><vAcc>0.830449</vAcc></extensions></trkpt>
      <trkpt lon="-2.258754" lat="53.105028"><ele>118.201599</ele><time>2022-03-04T10:19:00Z</time><extensions><speed>0.741643</speed><course>119.441277</course><hAcc>1.640569</hAcc><vAcc>0.830422</vAcc></extensions></trkpt>
      <trkpt lon="-2.258743" lat="53.105024"><ele>118.212128</ele><time>2022-03-04T10:19:01Z</time><extensions><speed>0.861061</speed><course>119.541695</course><hAcc>1.666707</hAcc><vAcc>0.830387</vAcc></extensions></trkpt>
      <trkpt lon="-2.258732" lat="53.105020"><ele>118.218834</ele><time>2022-03-04T10:19:02Z</time><extensions><speed>0.932412</speed><course>120.774338</course><hAcc>1.683043</hAcc><vAcc>0.830355</vAcc></extensions></trkpt>
      <trkpt lon="-2.258720" lat="53.105016"><ele>118.225273</ele><time>2022-03-04T10:19:03Z</time><extensions><speed>0.946120</speed><course>119.847626</course><hAcc>1.691366</hAcc><vAcc>0.830307</vAcc></extensions></trkpt>
      <trkpt lon="-2.258707" lat="53.105011"><ele>118.242027</ele><time>2022-03-04T10:19:04Z</time><extensions><speed>0.998689</speed><course>118.659210</course><hAcc>1.695051</hAcc><vAcc>0.830256</vAcc></extensions></trkpt>
      <trkpt lon="-2.258694" lat="53.105007"><ele>118.256012</ele><time>2022-03-04T10:19:05Z</time><extensions><speed>1.010053</speed><course>117.807297</course><hAcc>1.696724</hAcc><vAcc>0.830210</vAcc></extensions></trkpt>
      <trkpt lon="-2.258680" lat="53.105003"><ele>118.262436</ele><time>2022-03-04T10:19:06Z</time><extensions><speed>1.029941</speed><course>118.288284</course><hAcc>1.699303</hAcc><vAcc>0.830138</vAcc></extensions></trkpt>
      <trkpt lon="-2.258666" lat="53.104998"><ele>118.258118</ele><time>2022-03-04T10:19:07Z</time><extensions><speed>1.081111</speed><course>117.585075</course><hAcc>1.701490</hAcc><vAcc>0.830055</vAcc></extensions></trkpt>
      <trkpt lon="-2.258652" lat="53.104994"><ele>118.250076</ele><time>2022-03-04T10:19:08Z</time><extensions><speed>1.097598</speed><course>116.545479</course><hAcc>1.700851</hAcc><vAcc>0.829971</vAcc></extensions></trkpt>
      <trkpt lon="-2.258637" lat="53.104990"><ele>118.245285</ele><time>2022-03-04T10:19:09Z</time><extensions><speed>1.069895</speed><course>114.880417</course><hAcc>1.698449</hAcc><vAcc>0.829882</vAcc></extensions></trkpt>
      <trkpt lon="-2.258623" lat="53.104986"><ele>118.248039</ele><time>2022-03-04T10:19:10Z</time><extensions><speed>1.059675</speed><course>114.421371</course><hAcc>1.697515</hAcc><vAcc>0.829786</vAcc></extensions></trkpt>
      <trkpt lon="-2.258608" lat="53.104982"><ele>118.238304</ele><time>2022-03-04T10:19:11Z</time><extensions><speed>1.112275</speed><course>114.925041</course><hAcc>1.697245</hAcc><vAcc>0.829690</vAcc></extensions></trkpt>
      <trkpt lon="-2.258593" lat="53.104977"><ele>118.227684</ele><time>2022-03-04T10:19:12Z</time><extensions><speed>1.172719</speed><course>117.230637</course><hAcc>1.698487</hAcc><vAcc>0.829601</vAcc></extensions></trkpt>
      <trkpt lon="-2.258577" lat="53.104972"><ele>118.207794</ele><time>2022-03-04T10:19:13Z</time><extensions><speed>1.183777</speed><course>120.405624</course><hAcc>1.695397</hAcc><vAcc>0.829533</vAcc></extensions></trkpt>
      <trkpt lon="-2.258563" lat="53.104967"><ele>118.194740</ele><time>2022-03-04T10:19:14Z</time><extensions><speed>1.124967</speed><course>123.197876</course><hAcc>1.696441</hAcc><vAcc>0.829465</vAcc></extensions></trkpt>
      <trkpt lon="-2.258549" lat="53.104961"><ele>118.177475</ele><time>2022-03-04T10:19:15Z</time><extensions><speed>1.061700</speed><course>125.416367</course><hAcc>1.700878</hAcc><vAcc>0.829416</vAcc></extensions></trkpt>
      <trkpt lon="-2.258536" lat="53.104956"><ele>118.166611</ele><time>2022-03-04T10:19:16Z</time><extensions><speed>1.063524</speed><course>123.982224</course><hAcc>1.702044</hAcc><vAcc>0.829382</vAcc></extensions></trkpt>
      <trkpt lon="-2.258523" lat="53.104951"><ele>118.164513</ele><time>2022-03-04T10:19:17Z</time><extensions><speed>1.045915</speed><course>118.703201</course><hAcc>1.699786</hAcc><vAcc>0.829362</vAcc></extensions></trkpt>
      <trkpt lon="-2.258509" lat="53.104946"><ele>118.155869</ele><time>2022-03-04T10:19:18Z</time><extensions><speed>1.081870</speed><course>113.995865</course><hAcc>1.698471</hAcc><vAcc>0.829357</vAcc></extensions></trkpt>
      <trkpt lon="-2.258493" lat="53.104942"><ele>118.151154</ele><time>2022-03-04T10:19:20Z</time><extensions><speed>1.172315</speed><course>114.960907</course><hAcc>1.697339</hAcc><vAcc>0.829369</vAcc></extensions></trkpt>
      <trkpt lon="-2.258477" lat="53.104937"><ele>118.156548</ele><time>2022-03-04T10:19:21Z</time><extensions><speed>1.206058</speed><course>117.923988</course><hAcc>1.697215</hAcc><vAcc>0.829372</vAcc></extensions></trkpt>
      <trkpt lon="-2.258461" lat="53.104932"><ele>118.155197</ele><time>2022-03-04T10:19:22Z</time><extensions><speed>1.213581</speed><course>120.788933</course><hAcc>1.694264</hAcc><vAcc>0.829386</vAcc></extensions></trkpt>
      <trkpt lon="-2.258446" lat="53.104926"><ele>118.157845</ele><time>2022-03-04T10:19:23Z</time><extensions><speed>1.221431</speed><course>122.977715</course><hAcc>1.689639</hAcc><vAcc>0.829416</vAcc></extensions></trkpt>
      <trkpt lon="-2.258431" lat="53.104920"><ele>118.169113</ele><time>2022-03-04T10:19:24Z</time><extensions><speed>1.231379</speed><course>123.437744</course><hAcc>1.692962</hAcc><vAcc>0.829449</vAcc></extensions></trkpt>
      <trkpt lon="-2.258415" lat="53.104914"><ele>118.192940</ele><time>2022-03-04T10:19:25Z</time><extensions><speed>1.258363</speed><course>124.372246</course><hAcc>1.695765</hAcc><vAcc>0.829486</vAcc></extensions></trkpt>
      <trkpt lon="-2.258400" lat="53.104908"><ele>118.232040</ele><time>2022-03-04T10:19:26Z</time><extensions><speed>1.203726</speed><course>123.916153</course><hAcc>1.686895</hAcc><vAcc>0.829511</vAcc></extensions></trkpt>
      <trkpt lon="-2.258386" lat="53.104902"><ele>118.276123</ele><time>2022-03-04T10:19:27Z</time><extensions><speed>1.166087</speed><course>122.635147</course><hAcc>1.681575</hAcc><vAcc>0.829525</vAcc></extensions></trkpt>
      <trkpt lon="-2.258371" lat="53.104897"><ele>118.322227</ele><time>2022-03-04T10:19:28Z</time><extensions><speed>1.175850</speed><course>122.287720</course><hAcc>1.669959</hAcc><vAcc>0.829530</vAcc></extensions></trkpt>
      <trkpt lon="-2.258356" lat="53.104891"><ele>118.367012</ele><time>2022-03-04T10:19:29Z</time><extensions><speed>1.158282</speed><course>121.524521</course><hAcc>1.652087</hAcc><vAcc>0.829537</vAcc></extensions></trkpt>
      <trkpt lon="-2.258342" lat="53.104886"><ele>118.419128</ele><time>2022-03-04T10:19:30Z</time><extensions><speed>1.177644</speed><course>121.281647</course><hAcc>1.618688</hAcc><vAcc>0.829540</vAcc></extensions></trkpt>
      <trkpt lon="-2.258327" lat="53.104880"><ele>118.483002</ele><time>2022-03-04T10:19:31Z</time><extensions><speed>1.204093</speed><course>120.430931</course><hAcc>1.572671</hAcc><vAcc>0.829537</vAcc></extensions></trkpt>
      <trkpt lon="-2.258311" lat="53.104875"><ele>118.554619</ele><time>2022-03-04T10:19:32Z</time><extensions><speed>1.340363</speed><course>120.300972</course><hAcc>1.531736</hAcc><vAcc>0.829517</vAcc></extensions></trkpt>
      <trkpt lon="-2.258293" lat="53.104868"><ele>118.623123</ele><time>2022-03-04T10:19:33Z</time><extensions><speed>1.519590</speed><course>120.856575</course><hAcc>1.525459</hAcc><vAcc>0.829504</vAcc></extensions></trkpt>
      <trkpt lon="-2.258274" lat="53.104861"><ele>118.679665</ele><time>2022-03-04T10:19:34Z</time><extensions><speed>1.567644</speed><course>120.474411</course><hAcc>1.498642</hAcc><vAcc>0.829496</vAcc></extensions></trkpt>
      <trkpt lon="-2.258254" lat="53.104855"><ele>118.750175</ele><time>2022-03-04T10:19:35Z</time><extensions><speed>1.517683</speed><course>115.913483</course><hAcc>1.466062</hAcc><vAcc>0.829493</vAcc></extensions></trkpt>
      <trkpt lon="-2.258234" lat="53.104850"><ele>118.828583</ele><time>2022-03-04T10:19:36Z</time><extensions><speed>1.515314</speed><course>111.176384</course><hAcc>1.452664</hAcc><vAcc>0.829485</vAcc></extensions></trkpt>
      <trkpt lon="-2.258214" lat="53.104845"><ele>118.908157</ele><time>2022-03-04T10:19:37Z</time><extensions><speed>1.437229</speed><course>114.641838</course><hAcc>1.420845</hAcc><vAcc>0.829473</vAcc></extensions></trkpt>
      <trkpt lon="-2.258196" lat="53.104840"><ele>118.986137</ele><time>2022-03-04T10:19:38Z</time><extensions><speed>1.421616</speed><course>119.014915</course><hAcc>1.404491</hAcc><vAcc>0.829469</vAcc></extensions></trkpt>
      <trkpt lon="-2.258178" lat="53.104833"><ele>119.068436</ele><time>2022-03-04T10:19:39Z</time><extensions><speed>1.468879</speed><course>124.800835</course><hAcc>1.405999</hAcc><vAcc>0.829472</vAcc></extensions></trkpt>
      <trkpt lon="-2.258160" lat="53.104826"><ele>119.150772</ele><time>2022-03-04T10:19:40Z</time><extensions><speed>1.464074</speed><course>123.973389</course><hAcc>1.403494</hAcc><vAcc>0.829494</vAcc></extensions></trkpt>
      <trkpt lon="-2.258143" lat="53.104819"><ele>119.235245</ele><time>2022-03-04T10:19:41Z</time><extensions><speed>1.360597</speed><course>118.318504</course><hAcc>1.392562</hAcc><vAcc>0.829530</vAcc></extensions></trkpt>
      <trkpt lon="-2.258125" lat="53.104814"><ele>119.301750</ele><time>2022-03-04T10:19:42Z</time><extensions><speed>1.409260</speed><course>118.454796</course><hAcc>1.394021</hAcc><vAcc>0.829574</vAcc></extensions></trkpt>
      <trkpt lon="-2.258107" lat="53.104808"><ele>119.366127</ele><time>2022-03-04T10:19:43Z</time><extensions><speed>1.376162</speed><course>116.419579</course><hAcc>1.389405</hAcc><vAcc>0.829635</vAcc></extensions></trkpt>
      <trkpt lon="-2.258090" lat="53.104803"><ele>119.439842</ele><time>2022-03-04T10:19:44Z</time><extensions><speed>1.246536</speed><course>113.976120</course><hAcc>1.371409</hAcc><vAcc>0.829682</vAcc></extensions></trkpt>
      <trkpt lon="-2.258073" lat="53.104799"><ele>119.505119</ele><time>2022-03-04T10:19:45Z</time><extensions><speed>1.351545</speed><course>111.709190</course><hAcc>1.391564</hAcc><vAcc>0.829731</vAcc></extensions></trkpt>
      <trkpt lon="-2.258055" lat="53.104795"><ele>119.564415</ele><time>2022-03-04T10:19:46Z</time><extensions><speed>1.338217</speed><course>113.038826</course><hAcc>1.390960</hAcc><vAcc>0.829788</vAcc></extensions></trkpt>
      <trkpt lon="-2.258038" lat="53.104790"><ele>119.620003</ele><time>2022-03-04T10:19:47Z</time><extensions><speed>1.311295</speed><course>116.564613</course><hAcc>1.383677</hAcc><vAcc>0.829849</vAcc></extensions></trkpt>
      <trkpt lon="-2.258020" lat="53.104784"><ele>119.667122</ele><time>2022-03-04T10:19:48Z</time><extensions><speed>1.402596</speed><course>119.362312</course><hAcc>1.388360</hAcc><vAcc>0.829899</vAcc></extensions></trkpt>
      <trkpt lon="-2.258003" lat="53.104778"><ele>119.711128</ele><time>2022-03-04T10:19:49Z</time><extensions><speed>1.341456</speed><course>120.965080</course><hAcc>1.387785</hAcc><vAcc>0.829953</vAcc></extensions></trkpt>
      <trkpt lon="-2.257987" lat="53.104773"><ele>119.754990</ele><time>2022-03-04T10:19:50Z</time><extensions><speed>1.291227</speed><course>119.973549</course><hAcc>1.391886</hAcc><vAcc>0.829993</vAcc></extensions></trkpt>
      <trkpt lon="-2.257970" lat="53.104767"><ele>119.803551</ele><time>2022-03-04T10:19:51Z</time><extensions><speed>1.292584</speed><course>117.417198</course><hAcc>1.394032</hAcc><vAcc>0.830046</vAcc></extensions></trkpt>
      <trkpt lon="-2.257954" lat="53.104762"><ele>119.848152</ele><time>2022-03-04T10:19:52Z</time><extensions><speed>1.302860</speed><course>116.139641</course><hAcc>1.396026</hAcc><vAcc>0.830085</vAcc></extensions></trkpt>
      <trkpt lon="-2.257937" lat="53.104757"><ele>119.881615</ele><time>2022-03-04T10:19:53Z</time><extensions><speed>1.231275</speed><course>115.273140</course><hAcc>1.385692</hAcc><vAcc>0.830119</vAcc></extensions></trkpt>
      <trkpt lon="-2.257921" lat="53.104752"><ele>119.905396</ele><time>2022-03-04T10:19:54Z</time><extensions><speed>1.292583</speed><course>116.533279</course><hAcc>1.402152</hAcc><vAcc>0.830141</vAcc></extensions></trkpt>
      <trkpt lon="-2.257904" lat="53.104747"><ele>119.938705</ele><time>2022-03-04T10:19:55Z</time><extensions><speed>1.290020</speed><course>116.780190</course><hAcc>1.402629</hAcc><vAcc>0.830152</vAcc></extensions></trkpt>
      <trkpt lon="-2.257888" lat="53.104742"><ele>119.980812</ele><time>2022-03-04T10:19:56Z</time><extensions><speed>1.261473</speed><course>115.477089</course><hAcc>1.399642</hAcc><vAcc>0.830149</vAcc></extensions></trkpt>
      <trkpt lon="-2.257871" lat="53.104738"><ele>120.025017</ele><time>2022-03-04T10:19:57Z</time><extensions><speed>1.302747</speed><course>114.825485</course><hAcc>1.399593</hAcc><vAcc>0.830136</vAcc></extensions></trkpt>
      <trkpt lon="-2.257854" lat="53.104733"><ele>120.060684</ele><time>2022-03-04T10:19:58Z</time><extensions><speed>1.261401</speed><course>115.090370</course><hAcc>1.392571</hAcc><vAcc>0.830113</vAcc></extensions></trkpt>
      <trkpt lon="-2.257837" lat="53.104728"><ele>120.086494</ele><time>2022-03-04T10:19:59Z</time><extensions><speed>1.298967</speed><course>116.492119</course><hAcc>1.394173</hAcc><vAcc>0.830088</vAcc></extensions></trkpt>
      <trkpt lon="-2.257821" lat="53.104723"><ele>120.117455</ele><time>2022-03-04T10:20:00Z</time><extensions><speed>1.293514</speed><course>115.083916</course><hAcc>1.389921</hAcc><vAcc>0.830062</vAcc></extensions></trkpt>
      <trkpt lon="-2.257803" lat="53.104718"><ele>120.156006</ele><time>2022-03-04T10:20:01Z</time><extensions><speed>1.366123</speed><course>111.653442</course><hAcc>1.397409</hAcc><vAcc>0.830025</vAcc></extensions></trkpt>
      <trkpt lon="-2.257785" lat="53.104714"><ele>120.198105</ele><time>2022-03-04T10:20:02Z</time><extensions><speed>1.339279</speed><course>114.263016</course><hAcc>1.397054</hAcc><vAcc>0.829995</vAcc></extensions></trkpt>
      <trkpt lon="-2.257767" lat="53.104709"><ele>120.249435</ele><time>2022-03-04T10:20:03Z</time><extensions><speed>1.356277</speed><course>115.311165</course><hAcc>1.405254</hAcc><vAcc>0.829966</vAcc></extensions></trkpt>
      <trkpt lon="-2.257750" lat="53.104704"><ele>120.303909</ele><time>2022-03-04T10:20:04Z</time><extensions><speed>1.262644</speed><course>116.978592</course><hAcc>1.391194</hAcc><vAcc>0.829922</vAcc></extensions></trkpt>
      <trkpt lon="-2.257733" lat="53.104698"><ele>120.366432</ele><time>2022-03-04T10:20:05Z</time><extensions><speed>1.346725</speed><course>117.647865</course><hAcc>1.410818</hAcc><vAcc>0.829895</vAcc></extensions></trkpt>
      <trkpt lon="-2.257716" lat="53.104693"><ele>120.424240</ele><time>2022-03-04T10:20:06Z</time><extensions><speed>1.316416</speed><course>116.765579</course><hAcc>1.419536</hAcc><vAcc>0.829866</vAcc></extensions></trkpt>
      <trkpt lon="-2.257699" lat="53.104688"><ele>120.476372</ele><time>2022-03-04T10:20:07Z</time><extensions><speed>1.267458</speed><course>117.291283</course><hAcc>1.410154</hAcc><vAcc>0.829852</vAcc></extensions></trkpt>
      <trkpt lon="-2.257683" lat="53.104683"><ele>120.526222</ele><time>2022-03-04T10:20:08Z</time><extensions><speed>1.311691</speed><course>115.840019</course><hAcc>1.428018</hAcc><vAcc>0.829842</vAcc></extensions></trkpt>
      <trkpt lon="-2.257666" lat="53.104678"><ele>120.577415</ele><time>2022-03-04T10:20:09Z</time><extensions><speed>1.329531</speed><course>114.316002</course><hAcc>1.436565</hAcc><vAcc>0.829836</vAcc></extensions></trkpt>
      <trkpt lon="-2.257649" lat="53.104673"><ele>120.638329</ele><time>2022-03-04T10:20:10Z</time><extensions><speed>1.283045</speed><course>117.711662</course><hAcc>1.437839</hAcc><vAcc>0.829834</vAcc></extensions></trkpt>
      <trkpt lon="-2.257632" lat="53.104667"><ele>120.700500</ele><time>2022-03-04T10:20:11Z</time><extensions><speed>1.246402</speed><course>118.100426</course><hAcc>1.438984</hAcc><vAcc>0.829819</vAcc></extensions></trkpt>
      <trkpt lon="-2.257617" lat="53.104662"><ele>120.768425</ele><time>2022-03-04T10:20:12Z</time><extensions><speed>1.177191</speed><course>118.948242</course><hAcc>1.424333</hAcc><vAcc>0.829821</vAcc></extensions></trkpt>
      <trkpt lon="-2.257602" lat="53.104657"><ele>120.845673</ele><time>2022-03-04T10:20:13Z</time><extensions><speed>1.141390</speed><course>117.907593</course><hAcc>1.423641</hAcc><vAcc>0.829812</vAcc></extensions></trkpt>
      <trkpt lon="-2.257587" lat="53.104653"><ele>120.930458</ele><time>2022-03-04T10:20:14Z</time><extensions><speed>1.213520</speed><course>116.729858</course><hAcc>1.442210</hAcc><vAcc>0.829797</vAcc></extensions></trkpt>
      <trkpt lon="-2.257571" lat="53.104648"><ele>121.018112</ele><time>2022-03-04T10:20:15Z</time><extensions><speed>1.283626</speed><course>115.707237</course><hAcc>1.449794</hAcc><vAcc>0.829786</vAcc></extensions></trkpt>
      <trkpt lon="-2.257554" lat="53.104643"><ele>121.098465</ele><time>2022-03-04T10:20:15Z</time><extensions><speed>1.347400</speed><course>115.765366</course><hAcc>1.450667</hAcc><vAcc>0.829773</vAcc></extensions></trkpt>
      <trkpt lon="-2.257537" lat="53.104638"><ele>121.176048</ele><time>2022-03-04T10:20:16Z</time><extensions><speed>1.280913</speed><course>119.245239</course><hAcc>1.442800</hAcc><vAcc>0.829762</vAcc></extensions></trkpt>
      <trkpt lon="-2.257522" lat="53.104632"><ele>121.241425</ele><time>2022-03-04T10:20:17Z</time><extensions><speed>1.199915</speed><course>125.362457</course><hAcc>1.430155</hAcc><vAcc>0.829762</vAcc></extensions></trkpt>
      <trkpt lon="-2.257508" lat="53.104626"><ele>121.297302</ele><time>2022-03-04T10:20:18Z</time><extensions><speed>1.174994</speed><course>127.744377</course><hAcc>1.440880</hAcc><vAcc>0.829756</vAcc></extensions></trkpt>
      <trkpt lon="-2.257495" lat="53.104620"><ele>121.354698</ele><time>2022-03-04T10:20:19Z</time><extensions><speed>1.115717</speed><course>125.531548</course><hAcc>1.435008</hAcc><vAcc>0.829744</vAcc></extensions></trkpt>
      <trkpt lon="-2.257482" lat="53.104615"><ele>121.404076</ele><time>2022-03-04T10:20:20Z</time><extensions><speed>1.112582</speed><course>120.508919</course><hAcc>1.437337</hAcc><vAcc>0.829718</vAcc></extensions></trkpt>
      <trkpt lon="-2.257467" lat="53.104610"><ele>121.449287</ele><time>2022-03-04T10:20:21Z</time><extensions><speed>1.183709</speed><course>113.559364</course><hAcc>1.455297</hAcc><vAcc>0.829670</vAcc></extensions></trkpt>
      <trkpt lon="-2.257451" lat="53.104606"><ele>121.487312</ele><time>2022-03-04T10:20:22Z</time><extensions><speed>1.274101</speed><course>113.852844</course><hAcc>1.461850</hAcc><vAcc>0.829597</vAcc></extensions></trkpt>
      <trkpt lon="-2.257434" lat="53.104601"><ele>121.518738</ele><time>2022-03-04T10:20:23Z</time><extensions><speed>1.275206</speed><course>113.629417</course><hAcc>1.462921</hAcc><vAcc>0.829509</vAcc></extensions></trkpt>
      <trkpt lon="-2.257417" lat="53.104596"><ele>121.545044</ele><time>2022-03-04T10:20:24Z</time><extensions><speed>1.210166</speed><course>120.389130</course><hAcc>1.462646</hAcc><vAcc>0.829411</vAcc></extensions></trkpt>
      <trkpt lon="-2.257402" lat="53.104590"><ele>121.564392</ele><time>2022-03-04T10:20:25Z</time><extensions><speed>1.326595</speed><course>124.222763</course><hAcc>1.499843</hAcc><vAcc>0.829301</vAcc></extensions></trkpt>
      <trkpt lon="-2.257386" lat="53.104584"><ele>121.583023</ele><time>2022-03-04T10:20:26Z</time><extensions><speed>1.095921</speed><course>121.656395</course><hAcc>1.509831</hAcc><vAcc>0.829165</vAcc></extensions></trkpt>
      <trkpt lon="-2.257373" lat="53.104580"><ele>121.598907</ele><time>2022-03-04T10:20:27Z</time><extensions><speed>0.975649</speed><course>112.450684</course><hAcc>1.541644</hAcc><vAcc>0.829007</vAcc></extensions></trkpt>
      <trkpt lon="-2.257361" lat="53.104578"><ele>121.612762</ele><time>2022-03-04T10:20:28Z</time><extensions><speed>0.705044</speed><course>106.573219</course><hAcc>1.569384</hAcc><vAcc>0.828844</vAcc></extensions></trkpt>
      <trkpt lon="-2.257355" lat="53.104577"><ele>121.621254</ele><time>2022-03-04T10:20:29Z</time><extensions><speed>0.123185</speed><course>80.462547</course><hAcc>1.589368</hAcc><vAcc>0.828660</vAcc></extensions></trkpt>
      <trkpt lon="-2.257356" lat="53.104577"><ele>121.619461</ele><time>2022-03-04T10:20:30Z</time><extensions><speed>0.273813</speed><course>297.271545</course><hAcc>1.628208</hAcc><vAcc>0.828467</vAcc></extensions></trkpt>
      <trkpt lon="-2.257360" lat="53.104579"><ele>121.615143</ele><time>2022-03-04T10:20:31Z</time><extensions><speed>0.366819</speed><course>292.231415</course><hAcc>1.667121</hAcc><vAcc>0.828274</vAcc></extensions></trkpt>
      <trkpt lon="-2.257365" lat="53.104580"><ele>121.606491</ele><time>2022-03-04T10:20:32Z</time><extensions><speed>0.359374</speed><course>291.329620</course><hAcc>1.694787</hAcc><vAcc>0.828101</vAcc></extensions></trkpt>
      <trkpt lon="-2.257370" lat="53.104581"><ele>121.595695</ele><time>2022-03-04T10:20:33Z</time><extensions><speed>0.309355</speed><course>291.948029</course><hAcc>1.714919</hAcc><vAcc>0.827941</vAcc></extensions></trkpt>
      <trkpt lon="-2.257374" lat="53.104582"><ele>121.583054</ele><time>2022-03-04T10:20:34Z</time><extensions><speed>0.247836</speed><course>292.844025</course><hAcc>1.726661</hAcc><vAcc>0.827795</vAcc></extensions></trkpt>
      <trkpt lon="-2.257377" lat="53.104583"><ele>121.570084</ele><time>2022-03-04T10:20:35Z</time><extensions><speed>0.187530</speed><course>293.392456</course><hAcc>1.730891</hAcc><vAcc>0.827659</vAcc></extensions></trkpt>
      <trkpt lon="-2.257379" lat="53.104583"><ele>121.555634</ele><time>2022-03-04T10:20:36Z</time><extensions><speed>0.127891</speed><course>291.224945</course><hAcc>1.733350</hAcc><vAcc>0.827531</vAcc></extensions></trkpt>
      <trkpt lon="-2.257380" lat="53.104583"><ele>121.533791</ele><time>2022-03-04T10:20:37Z</time><extensions><speed>0.072295</speed><course>279.702362</course><hAcc>1.737251</hAcc><vAcc>0.827415</vAcc></extensions></trkpt>
      <trkpt lon="-2.257381" lat="53.104583"><ele>121.508606</ele><time>2022-03-04T10:20:38Z</time><extensions><speed>0.037956</speed><course>235.799530</course><hAcc>1.740140</hAcc><vAcc>0.827309</vAcc></extensions></trkpt>
      <trkpt lon="-2.257381" lat="53.104583"><ele>121.473076</ele><time>2022-03-04T10:20:39Z</time><extensions><speed>0.052498</speed><course>179.652435</course><hAcc>1.740301</hAcc><vAcc>0.827198</vAcc></extensions></trkpt>
      <trkpt lon="-2.257381" lat="53.104582"><ele>121.436195</ele><time>2022-03-04T10:20:40Z</time><extensions><speed>0.087252</speed><course>163.535675</course><hAcc>1.740326</hAcc><vAcc>0.827072</vAcc></extensions></trkpt>
      <trkpt lon="-2.257381" lat="53.104581"><ele>121.396309</ele><time>2022-03-04T10:20:41Z</time><extensions><speed>0.117955</speed><course>160.054733</course><hAcc>1.742234</hAcc><vAcc>0.826933</vAcc></extensions></trkpt>
      <trkpt lon="-2.257380" lat="53.104580"><ele>121.359566</ele><time>2022-03-04T10:20:42Z</time><extensions><speed>0.140883</speed><course>160.375595</course><hAcc>1.745043</hAcc><vAcc>0.826800</vAcc></extensions></trkpt>
      <trkpt lon="-2.257379" lat="53.104579"><ele>121.322128</ele><time>2022-03-04T10:20:43Z</time><extensions><speed>0.162843</speed><course>160.821030</course><hAcc>1.745049</hAcc><vAcc>0.826674</vAcc></extensions></trkpt>
      <trkpt lon="-2.257378" lat="53.104578"><ele>121.280029</ele><time>2022-03-04T10:20:44Z</time><extensions><speed>0.179535</speed><course>157.769608</course><hAcc>1.744132</hAcc><vAcc>0.826573</vAcc></extensions></trkpt>
      <trkpt lon="-2.257377" lat="53.104576"><ele>121.237228</ele><time>2022-03-04T10:20:45Z</time><extensions><speed>0.187910</speed><course>150.676453</course><hAcc>1.743913</hAcc><vAcc>0.826477</vAcc></extensions></trkpt>
      <trkpt lon="-2.257375" lat="53.104575"><ele>121.201622</ele><time>2022-03-04T10:20:46Z</time><extensions><speed>0.193114</speed><course>142.188599</course><hAcc>1.743516</hAcc><vAcc>0.826394</vAcc></extensions></trkpt>
      <trkpt lon="-2.257374" lat="53.104573"><ele>121.171722</ele><time>2022-03-04T10:20:47Z</time><extensions><speed>0.196870</speed><course>134.962677</course><hAcc>1.742897</hAcc><vAcc>0.826345</vAcc></extensions></trkpt>
      <trkpt lon="-2.257371" lat="53.104572"><ele>121.146248</ele><time>2022-03-04T10:20:48Z</time><extensions><speed>0.194951</speed><course>129.991837</course><hAcc>1.742260</hAcc><vAcc>0.826304</vAcc></extensions></trkpt>
      <trkpt lon="-2.257369" lat="53.104571"><ele>121.124886</ele><time>2022-03-04T10:20:49Z</time><extensions><speed>0.183799</speed><course>127.834602</course><hAcc>1.743057</hAcc><vAcc>0.826294</vAcc></extensions></trkpt>
      <trkpt lon="-2.257367" lat="53.104570"><ele>121.102493</ele><time>2022-03-04T10:20:50Z</time><extensions><speed>0.168997</speed><course>126.975494</course><hAcc>1.741157</hAcc><vAcc>0.826318</vAcc></extensions></trkpt>
      <trkpt lon="-2.257365" lat="53.104569"><ele>121.084557</ele><time>2022-03-04T10:20:51Z</time><extensions><speed>0.141676</speed><course>124.882942</course><hAcc>1.739961</hAcc><vAcc>0.826367</vAcc></extensions></trkpt>
      <trkpt lon="-2.257364" lat="53.104569"><ele>121.069664</ele><time>2022-03-04T10:20:52Z</time><extensions><speed>0.102082</speed><course>118.740974</course><hAcc>1.739446</hAcc><vAcc>0.826449</vAcc></extensions></trkpt>
      <trkpt lon="-2.257363" lat="53.104568"><ele>121.057381</ele><time>2022-03-04T10:20:53Z</time><extensions><speed>0.057131</speed><course>99.178940</course><hAcc>1.739219</hAcc><vAcc>0.826559</vAcc></extensions></trkpt>
      <trkpt lon="-2.257362" lat="53.104569"><ele>121.052567</ele><time>2022-03-04T10:20:54Z</time><extensions><speed>0.033740</speed><course>46.173561</course><hAcc>1.736878</hAcc><vAcc>0.826678</vAcc></extensions></trkpt>
      <trkpt lon="-2.257362" lat="53.104569"><ele>121.051903</ele><time>2022-03-04T10:20:55Z</time><extensions><speed>0.040607</speed><course>356.543823</course><hAcc>1.738135</hAcc><vAcc>0.826784</vAcc></extensions></trkpt>
      <trkpt lon="-2.257362" lat="53.104569"><ele>121.052391</ele><time>2022-03-04T10:20:56Z</time><extensions><speed>0.049760</speed><course>335.573608</course><hAcc>1.735211</hAcc><vAcc>0.826887</vAcc></extensions></trkpt>
      <trkpt lon="-2.257362" lat="53.104569"><ele>121.051888</ele><time>2022-03-04T10:20:57Z</time><extensions><speed>0.048577</speed><course>320.361389</course><hAcc>1.733890</hAcc><vAcc>0.826991</vAcc></extensions></trkpt>
      <trkpt lon="-2.257363" lat="53.104570"><ele>121.045868</ele><time>2022-03-04T10:20:58Z</time><extensions><speed>0.043660</speed><course>298.565735</course><hAcc>1.733134</hAcc><vAcc>0.827083</vAcc></extensions></trkpt>
      <trkpt lon="-2.257364" lat="53.104570"><ele>121.032303</ele><time>2022-03-04T10:20:59Z</time><extensions><speed>0.043132</speed><course>264.806549</course><hAcc>1.732428</hAcc><vAcc>0.827175</vAcc></extensions></trkpt>
      <trkpt lon="-2.257364" lat="53.104570"><ele>121.027809</ele><time>2022-03-04T10:21:00Z</time><extensions><speed>0.055297</speed><course>230.364517</course><hAcc>1.733404</hAcc><vAcc>0.827247</vAcc></extensions></trkpt>
      <trkpt lon="-2.257365" lat="53.104569"><ele>121.025597</ele><time>2022-03-04T10:21:01Z</time><extensions><speed>0.079517</speed><course>205.139313</course><hAcc>1.733861</hAcc><vAcc>0.827288</vAcc></extensions></trkpt>
      <trkpt lon="-2.257365" lat="53.104568"><ele>121.022606</ele><time>2022-03-04T10:21:02Z</time><extensions><speed>0.110082</speed><course>188.794144</course><hAcc>1.731482</hAcc><vAcc>0.827301</vAcc></extensions></trkpt>
      <trkpt lon="-2.257365" lat="53.104567"><ele>121.028893</ele><time>2022-03-04T10:21:03Z</time><extensions><speed>0.138750</speed><course>177.937256</course><hAcc>1.731538</hAcc><vAcc>0.827323</vAcc></extensions></trkpt>
      <trkpt lon="-2.257365" lat="53.104566"><ele>121.036324</ele><time>2022-03-04T10:21:04Z</time><extensions><speed>0.164589</speed><course>169.111038</course><hAcc>1.736610</hAcc><vAcc>0.827333</vAcc></extensions></trkpt>
      <trkpt lon="-2.257364" lat="53.104564"><ele>121.040031</ele><time>2022-03-04T10:21:05Z</time><extensions><speed>0.198232</speed><course>161.052826</course><hAcc>1.739100</hAcc><vAcc>0.827339</vAcc></extensions></trkpt>
      <trkpt lon="-2.257363" lat="53.104562"><ele>121.048973</ele><time>2022-03-04T10:21:06Z</time><extensions><speed>0.243049</speed><course>154.395386</course><hAcc>1.739251</hAcc><vAcc>0.827342</vAcc></extensions></trkpt>
      <trkpt lon="-2.257361" lat="53.104560"><ele>121.057182</ele><time>2022-03-04T10:21:07Z</time><extensions><speed>0.323986</speed><course>149.304733</course><hAcc>1.735034</hAcc><vAcc>0.827345</vAcc></extensions></trkpt>
      <trkpt lon="-2.257358" lat="53.104557"><ele>121.072365</ele><time>2022-03-04T10:21:08Z</time><extensions><speed>0.477319</speed><course>145.961288</course><hAcc>1.721052</hAcc><vAcc>0.827352</vAcc></extensions></trkpt>
      <trkpt lon="-2.257352" lat="53.104552"><ele>121.091347</ele><time>2022-03-04T10:21:09Z</time><extensions><speed>0.771703</speed><course>143.474579</course><hAcc>1.697580</hAcc><vAcc>0.827363</vAcc></extensions></trkpt>
      <trkpt lon="-2.257344" lat="53.104546"><ele>121.118057</ele><time>2022-03-04T10:21:10Z</time><extensions><speed>0.954398</speed><course>144.066940</course><hAcc>1.704177</hAcc><vAcc>0.827401</vAcc></extensions></trkpt>
      <trkpt lon="-2.257336" lat="53.104539"><ele>121.150581</ele><time>2022-03-04T10:21:11Z</time><extensions><speed>1.046636</speed><course>151.209366</course><hAcc>1.704838</hAcc><vAcc>0.827437</vAcc></extensions></trkpt>
      <trkpt lon="-2.257329" lat="53.104529"><ele>121.185692</ele><time>2022-03-04T10:21:12Z</time><extensions><speed>1.223223</speed><course>154.690720</course><hAcc>1.693444</hAcc><vAcc>0.827490</vAcc></extensions></trkpt>
      <trkpt lon="-2.257320" lat="53.104519"><ele>121.240105</ele><time>2022-03-04T10:21:13Z</time><extensions><speed>1.319389</speed><course>154.127518</course><hAcc>1.684684</hAcc><vAcc>0.827559</vAcc></extensions></trkpt>
      <trkpt lon="-2.257311" lat="53.104509"><ele>121.300125</ele><time>2022-03-04T10:21:14Z</time><extensions><speed>1.321326</speed><course>151.064728</course><hAcc>1.671626</hAcc><vAcc>0.827628</vAcc></extensions></trkpt>
      <trkpt lon="-2.257301" lat="53.104498"><ele>121.367027</ele><time>2022-03-04T10:21:15Z</time><extensions><speed>1.308194</speed><course>149.011917</course><hAcc>1.667759</hAcc><vAcc>0.827711</vAcc></extensions></trkpt>
      <trkpt lon="-2.257291" lat="53.104489"><ele>121.432823</ele><time>2022-03-04T10:21:16Z</time><extensions><speed>1.212462</speed><course>147.751038</course><hAcc>1.666993</hAcc><vAcc>0.827816</vAcc></extensions></trkpt>
      <trkpt lon="-2.257281" lat="53.104480"><ele>121.511429</ele><time>2022-03-04T10:21:17Z</time><extensions><speed>1.221737</speed><course>144.926254</course><hAcc>1.669164</hAcc><vAcc>0.827949</vAcc></extensions></trkpt>
      <trkpt lon="-2.257270" lat="53.104471"><ele>121.592690</ele><time>2022-03-04T10:21:18Z</time><extensions><speed>1.191435</speed><course>139.415375</course><hAcc>1.669353</hAcc><vAcc>0.828097</vAcc></extensions></trkpt>
      <trkpt lon="-2.257258" lat="53.104463"><ele>121.675201</ele><time>2022-03-04T10:21:19Z</time><extensions><speed>1.137883</speed><course>132.460526</course><hAcc>1.660729</hAcc><vAcc>0.828260</vAcc></extensions></trkpt>
      <trkpt lon="-2.257245" lat="53.104457"><ele>121.766670</ele><time>2022-03-04T10:21:20Z</time><extensions><speed>1.102465</speed><course>127.013046</course><hAcc>1.652450</hAcc><vAcc>0.828438</vAcc></extensions></trkpt>
      <trkpt lon="-2.257231" lat="53.104451"><ele>121.865440</ele><time>2022-03-04T10:21:21Z</time><extensions><speed>1.158943</speed><course>127.073891</course><hAcc>1.644390</hAcc><vAcc>0.828644</vAcc></extensions></trkpt>
      <trkpt lon="-2.257217" lat="53.104444"><ele>121.965027</ele><time>2022-03-04T10:21:22Z</time><extensions><speed>1.194719</speed><course>128.422256</course><hAcc>1.644147</hAcc><vAcc>0.828852</vAcc></extensions></trkpt>
      <trkpt lon="-2.257204" lat="53.104438"><ele>122.074638</ele><time>2022-03-04T10:21:23Z</time><extensions><speed>1.088236</speed><course>129.479645</course><hAcc>1.648429</hAcc><vAcc>0.829034</vAcc></extensions></trkpt>
      <trkpt lon="-2.257192" lat="53.104431"><ele>122.185379</ele><time>2022-03-04T10:21:24Z</time><extensions><speed>1.045504</speed><course>129.483459</course><hAcc>1.644151</hAcc><vAcc>0.829220</vAcc></extensions></trkpt>
      <trkpt lon="-2.257179" lat="53.104425"><ele>122.294724</ele><time>2022-03-04T10:21:26Z</time><extensions><speed>1.072888</speed><course>128.699036</course><hAcc>1.620282</hAcc><vAcc>0.829394</vAcc></extensions></trkpt>
      <trkpt lon="-2.257167" lat="53.104419"><ele>122.398277</ele><time>2022-03-04T10:21:27Z</time><extensions><speed>1.046352</speed><course>128.114517</course><hAcc>1.635254</hAcc><vAcc>0.829540</vAcc></extensions></trkpt>
      <trkpt lon="-2.257155" lat="53.104414"><ele>122.517204</ele><time>2022-03-04T10:21:28Z</time><extensions><speed>0.973811</speed><course>129.523376</course><hAcc>1.664667</hAcc><vAcc>0.829683</vAcc></extensions></trkpt>
      <trkpt lon="-2.257144" lat="53.104408"><ele>122.613808</ele><time>2022-03-04T10:21:29Z</time><extensions><speed>0.999172</speed><course>130.796097</course><hAcc>1.642238</hAcc><vAcc>0.829774</vAcc></extensions></trkpt>
      <trkpt lon="-2.257132" lat="53.104402"><ele>122.699951</ele><time>2022-03-04T10:21:30Z</time><extensions><speed>1.087958</speed><course>131.494812</course><hAcc>1.638681</hAcc><vAcc>0.829874</vAcc></extensions></trkpt>
      <trkpt lon="-2.257120" lat="53.104395"><ele>122.801041</ele><time>2022-03-04T10:21:31Z</time><extensions><speed>1.165439</speed><course>132.801163</course><hAcc>1.652333</hAcc><vAcc>0.830004</vAcc></extensions></trkpt>
      <trkpt lon="-2.257107" lat="53.104387"><ele>122.879654</ele><time>2022-03-04T10:21:32Z</time><extensions><speed>1.226443</speed><course>135.306412</course><hAcc>1.659398</hAcc><vAcc>0.830086</vAcc></extensions></trkpt>
      <trkpt lon="-2.257094" lat="53.104379"><ele>122.942856</ele><time>2022-03-04T10:21:33Z</time><extensions><speed>1.266770</speed><course>139.548264</course><hAcc>1.663285</hAcc><vAcc>0.830165</vAcc></extensions></trkpt>
      <trkpt lon="-2.257082" lat="53.104370"><ele>123.001396</ele><time>2022-03-04T10:21:34Z</time><extensions><speed>1.295986</speed><course>143.021011</course><hAcc>1.662121</hAcc><vAcc>0.830219</vAcc></extensions></trkpt>
      <trkpt lon="-2.257071" lat="53.104360"><ele>123.041916</ele><time>2022-03-04T10:21:35Z</time><extensions><speed>1.311040</speed><course>146.074112</course><hAcc>1.665747</hAcc><vAcc>0.830260</vAcc></extensions></trkpt>
      <trkpt lon="-2.257060" lat="53.104351"><ele>123.078026</ele><time>2022-03-04T10:21:36Z</time><extensions><speed>1.328906</speed><course>146.053574</course><hAcc>1.673381</hAcc><vAcc>0.830292</vAcc></extensions></trkpt>
      <trkpt lon="-2.257048" lat="53.104341"><ele>123.103897</ele><time>2022-03-04T10:21:37Z</time><extensions><speed>1.292290</speed><course>142.990753</course><hAcc>1.673581</hAcc><vAcc>0.830286</vAcc></extensions></trkpt>
      <trkpt lon="-2.257037" lat="53.104332"><ele>123.105354</ele><time>2022-03-04T10:21:38Z</time><extensions><speed>1.282442</speed><course>140.823257</course><hAcc>1.657646</hAcc><vAcc>0.830261</vAcc></extensions></trkpt>
      <trkpt lon="-2.257024" lat="53.104323"><ele>123.121254</ele><time>2022-03-04T10:21:39Z</time><extensions><speed>1.363580</speed><course>141.271576</course><hAcc>1.656150</hAcc><vAcc>0.830200</vAcc></extensions></trkpt>
      <trkpt lon="-2.257011" lat="53.104313"><ele>123.135139</ele><time>2022-03-04T10:21:40Z</time><extensions><speed>1.450761</speed><course>141.881836</course><hAcc>1.661344</hAcc><vAcc>0.830101</vAcc></extensions></trkpt>
      <trkpt lon="-2.256998" lat="53.104302"><ele>123.136024</ele><time>2022-03-04T10:21:41Z</time><extensions><speed>1.385946</speed><course>141.947876</course><hAcc>1.662854</hAcc><vAcc>0.829965</vAcc></extensions></trkpt>
      <trkpt lon="-2.256985" lat="53.104293"><ele>123.142181</ele><time>2022-03-04T10:21:42Z</time><extensions><speed>1.285903</speed><course>140.754669</course><hAcc>1.670206</hAcc><vAcc>0.829798</vAcc></extensions></trkpt>
      <trkpt lon="-2.256973" lat="53.104284"><ele>123.148582</ele><time>2022-03-04T10:21:43Z</time><extensions><speed>1.232186</speed><course>138.897064</course><hAcc>1.682827</hAcc><vAcc>0.829604</vAcc></extensions></trkpt>
      <trkpt lon="-2.256961" lat="53.104276"><ele>123.172539</ele><time>2022-03-04T10:21:44Z</time><extensions><speed>1.260519</speed><course>138.945114</course><hAcc>1.668861</hAcc><vAcc>0.829394</vAcc></extensions></trkpt>
      <trkpt lon="-2.256949" lat="53.104267"><ele>123.200630</ele><time>2022-03-04T10:21:45Z</time><extensions><speed>1.308878</speed><course>139.966492</course><hAcc>1.670143</hAcc><vAcc>0.829190</vAcc></extensions></trkpt>
      <trkpt lon="-2.256936" lat="53.104258"><ele>123.225441</ele><time>2022-03-04T10:21:46Z</time><extensions><speed>1.336904</speed><course>139.620392</course><hAcc>1.678943</hAcc><vAcc>0.828985</vAcc></extensions></trkpt>
      <trkpt lon="-2.256923" lat="53.104249"><ele>123.247673</ele><time>2022-03-04T10:21:47Z</time><extensions><speed>1.318749</speed><course>139.637146</course><hAcc>1.679566</hAcc><vAcc>0.828806</vAcc></extensions></trkpt>
      <trkpt lon="-2.256910" lat="53.104240"><ele>123.278053</ele><time>2022-03-04T10:21:48Z</time><extensions><speed>1.268006</speed><course>139.668869</course><hAcc>1.681432</hAcc><vAcc>0.828641</vAcc></extensions></trkpt>
      <trkpt lon="-2.256898" lat="53.104231"><ele>123.324638</ele><time>2022-03-04T10:21:49Z</time><extensions><speed>1.229001</speed><course>141.000916</course><hAcc>1.683802</hAcc><vAcc>0.828512</vAcc></extensions></trkpt>
      <trkpt lon="-2.256887" lat="53.104223"><ele>123.367722</ele><time>2022-03-04T10:21:50Z</time><extensions><speed>1.250482</speed><course>142.206741</course><hAcc>1.684010</hAcc><vAcc>0.828418</vAcc></extensions></trkpt>
      <trkpt lon="-2.256875" lat="53.104213"><ele>123.411621</ele><time>2022-03-04T10:21:51Z</time><extensions><speed>1.315949</speed><course>142.767822</course><hAcc>1.683901</hAcc><vAcc>0.828331</vAcc></extensions></trkpt>
      <trkpt lon="-2.256863" lat="53.104204"><ele>123.455994</ele><time>2022-03-04T10:21:52Z</time><extensions><speed>1.325593</speed><course>141.918457</course><hAcc>1.684695</hAcc><vAcc>0.828283</vAcc></extensions></trkpt>
      <trkpt lon="-2.256851" lat="53.104195"><ele>123.501617</ele><time>2022-03-04T10:21:53Z</time><extensions><speed>1.291732</speed><course>140.785568</course><hAcc>1.684855</hAcc><vAcc>0.828284</vAcc></extensions></trkpt>
      <trkpt lon="-2.256839" lat="53.104186"><ele>123.552711</ele><time>2022-03-04T10:21:54Z</time><extensions><speed>1.235880</speed><course>140.446014</course><hAcc>1.688084</hAcc><vAcc>0.828283</vAcc></extensions></trkpt>
      <trkpt lon="-2.256827" lat="53.104177"><ele>123.611595</ele><time>2022-03-04T10:21:55Z</time><extensions><speed>1.241299</speed><course>139.101456</course><hAcc>1.689353</hAcc><vAcc>0.828284</vAcc></extensions></trkpt>
      <trkpt lon="-2.256815" lat="53.104169"><ele>123.668388</ele><time>2022-03-04T10:21:56Z</time><extensions><speed>1.184412</speed><course>138.555634</course><hAcc>1.685797</hAcc><vAcc>0.828283</vAcc></extensions></trkpt>
      <trkpt lon="-2.256803" lat="53.104161"><ele>123.733215</ele><time>2022-03-04T10:21:57Z</time><extensions><speed>1.157569</speed><course>137.825317</course><hAcc>1.682335</hAcc><vAcc>0.828267</vAcc></extensions></trkpt>
      <trkpt lon="-2.256792" lat="53.104154"><ele>123.807205</ele><time>2022-03-04T10:21:58Z</time><extensions><speed>1.140472</speed><course>138.784714</course><hAcc>1.683387</hAcc><vAcc>0.828267</vAcc></extensions></trkpt>
      <trkpt lon="-2.256781" lat="53.104146"><ele>123.861649</ele><time>2022-03-04T10:21:59Z</time><extensions><speed>1.170578</speed><course>142.271347</course><hAcc>1.691338</hAcc><vAcc>0.828233</vAcc></extensions></trkpt>
      <trkpt lon="-2.256770" lat="53.104137"><ele>123.922585</ele><time>2022-03-04T10:22:00Z</time><extensions><speed>1.181990</speed><course>142.349991</course><hAcc>1.697954</hAcc><vAcc>0.828186</vAcc></extensions></trkpt>
      <trkpt lon="-2.256759" lat="53.104129"><ele>123.988144</ele><time>2022-03-04T10:22:01Z</time><extensions><speed>1.177496</speed><course>141.531815</course><hAcc>1.690560</hAcc><vAcc>0.828133</vAcc></extensions></trkpt>
      <trkpt lon="-2.256748" lat="53.104121"><ele>124.052071</ele><time>2022-03-04T10:22:02Z</time><extensions><speed>1.185444</speed><course>140.402893</course><hAcc>1.687165</hAcc><vAcc>0.828083</vAcc></extensions></trkpt>
      <trkpt lon="-2.256737" lat="53.104112"><ele>124.105560</ele><time>2022-03-04T10:22:03Z</time><extensions><speed>1.220501</speed><course>140.408066</course><hAcc>1.690178</hAcc><vAcc>0.828027</vAcc></extensions></trkpt>
      <trkpt lon="-2.256725" lat="53.104104"><ele>124.173683</ele><time>2022-03-04T10:22:04Z</time><extensions><speed>1.227428</speed><course>139.704666</course><hAcc>1.691088</hAcc><vAcc>0.827960</vAcc></extensions></trkpt>
      <trkpt lon="-2.256713" lat="53.104095"><ele>124.229080</ele><time>2022-03-04T10:22:05Z</time><extensions><speed>1.211471</speed><course>140.857071</course><hAcc>1.687920</hAcc><vAcc>0.827894</vAcc></extensions></trkpt>
      <trkpt lon="-2.256702" lat="53.104087"><ele>124.294342</ele><time>2022-03-04T10:22:06Z</time><extensions><speed>1.168651</speed><course>142.961441</course><hAcc>1.687465</hAcc><vAcc>0.827826</vAcc></extensions></trkpt>
      <trkpt lon="-2.256692" lat="53.104079"><ele>124.368340</ele><time>2022-03-04T10:22:07Z</time><extensions><speed>1.152323</speed><course>143.506821</course><hAcc>1.688760</hAcc><vAcc>0.827794</vAcc></extensions></trkpt>
      <trkpt lon="-2.256682" lat="53.104070"><ele>124.433891</ele><time>2022-03-04T10:22:08Z</time><extensions><speed>1.159864</speed><course>144.509674</course><hAcc>1.692903</hAcc><vAcc>0.827746</vAcc></extensions></trkpt>
      <trkpt lon="-2.256672" lat="53.104062"><ele>124.485725</ele><time>2022-03-04T10:22:09Z</time><extensions><speed>1.153483</speed><course>142.424362</course><hAcc>1.685942</hAcc><vAcc>0.827694</vAcc></extensions></trkpt>
      <trkpt lon="-2.256661" lat="53.104054"><ele>124.532364</ele><time>2022-03-04T10:22:10Z</time><extensions><speed>1.142307</speed><course>140.834869</course><hAcc>1.681964</hAcc><vAcc>0.827676</vAcc></extensions></trkpt>
      <trkpt lon="-2.256650" lat="53.104046"><ele>124.584946</ele><time>2022-03-04T10:22:11Z</time><extensions><speed>1.134971</speed><course>140.718094</course><hAcc>1.679560</hAcc><vAcc>0.827680</vAcc></extensions></trkpt>
      <trkpt lon="-2.256639" lat="53.104037"><ele>124.637077</ele><time>2022-03-04T10:22:12Z</time><extensions><speed>1.166816</speed><course>142.034317</course><hAcc>1.677161</hAcc><vAcc>0.827705</vAcc></extensions></trkpt>
      <trkpt lon="-2.256629" lat="53.104029"><ele>124.686005</ele><time>2022-03-04T10:22:13Z</time><extensions><speed>1.124271</speed><course>142.697632</course><hAcc>1.665016</hAcc><vAcc>0.827763</vAcc></extensions></trkpt>
      <trkpt lon="-2.256619" lat="53.104021"><ele>124.742470</ele><time>2022-03-04T10:22:14Z</time><extensions><speed>1.161427</speed><course>142.123596</course><hAcc>1.639120</hAcc><vAcc>0.827836</vAcc></extensions></trkpt>
      <trkpt lon="-2.256608" lat="53.104013"><ele>124.795662</ele><time>2022-03-04T10:22:15Z</time><extensions><speed>1.207461</speed><course>141.141159</course><hAcc>1.612348</hAcc><vAcc>0.827920</vAcc></extensions></trkpt>
      <trkpt lon="-2.256597" lat="53.104005"><ele>124.852745</ele><time>2022-03-04T10:22:16Z</time><extensions><speed>1.115883</speed><course>141.768387</course><hAcc>1.603481</hAcc><vAcc>0.828017</vAcc></extensions></trkpt>
      <trkpt lon="-2.256587" lat="53.103997"><ele>124.919518</ele><time>2022-03-04T10:22:17Z</time><extensions><speed>1.044798</speed><course>141.848038</course><hAcc>1.612208</hAcc><vAcc>0.828138</vAcc></extensions></trkpt>
      <trkpt lon="-2.256578" lat="53.103989"><ele>125.008972</ele><time>2022-03-04T10:22:18Z</time><extensions><speed>1.180279</speed><course>144.171555</course><hAcc>1.529864</hAcc><vAcc>0.828260</vAcc></extensions></trkpt>
      <trkpt lon="-2.256567" lat="53.103980"><ele>125.076736</ele><time>2022-03-04T10:22:19Z</time><extensions><speed>1.360856</speed><course>145.715088</course><hAcc>1.472439</hAcc><vAcc>0.828386</vAcc></extensions></trkpt>
      <trkpt lon="-2.256555" lat="53.103969"><ele>125.150642</ele><time>2022-03-04T10:22:20Z</time><extensions><speed>1.581807</speed><course>146.521179</course><hAcc>1.476154</hAcc><vAcc>0.828542</vAcc></extensions></trkpt>
      <trkpt lon="-2.256542" lat="53.103958"><ele>125.215363</ele><time>2022-03-04T10:22:21Z</time><extensions><speed>1.661365</speed><course>146.167877</course><hAcc>1.457599</hAcc><vAcc>0.828703</vAcc></extensions></trkpt>
      <trkpt lon="-2.256528" lat="53.103946"><ele>125.284424</ele><time>2022-03-04T10:22:21Z</time><extensions><speed>1.650802</speed><course>142.238251</course><hAcc>1.435268</hAcc><vAcc>0.828883</vAcc></extensions></trkpt>
      <trkpt lon="-2.256514" lat="53.103935"><ele>125.340416</ele><time>2022-03-04T10:22:22Z</time><extensions><speed>1.593126</speed><course>141.172012</course><hAcc>1.401559</hAcc><vAcc>0.829043</vAcc></extensions></trkpt>
      <trkpt lon="-2.256500" lat="53.103924"><ele>125.396271</ele><time>2022-03-04T10:22:23Z</time><extensions><speed>1.543474</speed><course>144.311920</course><hAcc>1.387295</hAcc><vAcc>0.829195</vAcc></extensions></trkpt>
      <trkpt lon="-2.256487" lat="53.103912"><ele>125.446236</ele><time>2022-03-04T10:22:24Z</time><extensions><speed>1.598414</speed><course>146.937073</course><hAcc>1.391802</hAcc><vAcc>0.829331</vAcc></extensions></trkpt>
      <trkpt lon="-2.256474" lat="53.103901"><ele>125.485390</ele><time>2022-03-04T10:22:25Z</time><extensions><speed>1.553359</speed><course>147.562042</course><hAcc>1.385593</hAcc><vAcc>0.829457</vAcc></extensions></trkpt>
      <trkpt lon="-2.256463" lat="53.103890"><ele>125.521759</ele><time>2022-03-04T10:22:26Z</time><extensions><speed>1.422304</speed><course>148.857712</course><hAcc>1.373760</hAcc><vAcc>0.829563</vAcc></extensions></trkpt>
      <trkpt lon="-2.256453" lat="53.103880"><ele>125.554733</ele><time>2022-03-04T10:22:27Z</time><extensions><speed>1.310721</speed><course>148.591080</course><hAcc>1.358876</hAcc><vAcc>0.829658</vAcc></extensions></trkpt>
      <trkpt lon="-2.256442" lat="53.103870"><ele>125.574074</ele><time>2022-03-04T10:22:28Z</time><extensions><speed>1.471158</speed><course>144.375824</course><hAcc>1.381745</hAcc><vAcc>0.829731</vAcc></extensions></trkpt>
      <trkpt lon="-2.256430" lat="53.103859"><ele>125.590569</ele><time>2022-03-04T10:22:29Z</time><extensions><speed>1.424494</speed><course>145.321411</course><hAcc>1.376113</hAcc><vAcc>0.829790</vAcc></extensions></trkpt>
      <trkpt lon="-2.256419" lat="53.103850"><ele>125.605186</ele><time>2022-03-04T10:22:30Z</time><extensions><speed>1.304569</speed><course>146.435135</course><hAcc>1.357040</hAcc><vAcc>0.829825</vAcc></extensions></trkpt>
      <trkpt lon="-2.256408" lat="53.103840"><ele>125.625023</ele><time>2022-03-04T10:22:31Z</time><extensions><speed>1.379912</speed><course>146.761566</course><hAcc>1.375958</hAcc><vAcc>0.829828</vAcc></extensions></trkpt>
      <trkpt lon="-2.256397" lat="53.103829"><ele>125.640182</ele><time>2022-03-04T10:22:32Z</time><extensions><speed>1.553262</speed><course>146.614517</course><hAcc>1.383501</hAcc><vAcc>0.829804</vAcc></extensions></trkpt>
      <trkpt lon="-2.256385" lat="53.103818"><ele>125.645164</ele><time>2022-03-04T10:22:33Z</time><extensions><speed>1.457969</speed><course>148.616150</course><hAcc>1.369077</hAcc><vAcc>0.829755</vAcc></extensions></trkpt>
      <trkpt lon="-2.256374" lat="53.103808"><ele>125.644516</ele><time>2022-03-04T10:22:34Z</time><extensions><speed>1.408345</speed><course>148.959305</course><hAcc>1.365341</hAcc><vAcc>0.829697</vAcc></extensions></trkpt>
      <trkpt lon="-2.256364" lat="53.103797"><ele>125.657974</ele><time>2022-03-04T10:22:35Z</time><extensions><speed>1.508657</speed><course>150.366211</course><hAcc>1.386643</hAcc><vAcc>0.829630</vAcc></extensions></trkpt>
      <trkpt lon="-2.256353" lat="53.103785"><ele>125.686462</ele><time>2022-03-04T10:22:36Z</time><extensions><speed>1.479724</speed><course>148.205353</course><hAcc>1.390275</hAcc><vAcc>0.829560</vAcc></extensions></trkpt>
      <trkpt lon="-2.256341" lat="53.103776"><ele>125.706459</ele><time>2022-03-04T10:22:37Z</time><extensions><speed>1.263745</speed><course>141.359894</course><hAcc>1.378266</hAcc><vAcc>0.829480</vAcc></extensions></trkpt>
      <trkpt lon="-2.256330" lat="53.103768"><ele>125.731705</ele><time>2022-03-04T10:22:38Z</time><extensions><speed>1.205271</speed><course>137.719376</course><hAcc>1.383818</hAcc><vAcc>0.829404</vAcc></extensions></trkpt>
      <trkpt lon="-2.256318" lat="53.103760"><ele>125.753754</ele><time>2022-03-04T10:22:39Z</time><extensions><speed>1.175518</speed><course>138.458221</course><hAcc>1.394501</hAcc><vAcc>0.829342</vAcc></extensions></trkpt>
      <trkpt lon="-2.256307" lat="53.103752"><ele>125.779068</ele><time>2022-03-04T10:22:40Z</time><extensions><speed>1.192057</speed><course>138.107880</course><hAcc>1.404651</hAcc><vAcc>0.829281</vAcc></extensions></trkpt>
      <trkpt lon="-2.256296" lat="53.103745"><ele>125.802299</ele><time>2022-03-04T10:22:41Z</time><extensions><speed>1.178802</speed><course>139.226974</course><hAcc>1.400842</hAcc><vAcc>0.829234</vAcc></extensions></trkpt>
      <trkpt lon="-2.256285" lat="53.103737"><ele>125.825035</ele><time>2022-03-04T10:22:42Z</time><extensions><speed>1.226126</speed><course>140.541931</course><hAcc>1.402486</hAcc><vAcc>0.829195</vAcc></extensions></trkpt>
      <trkpt lon="-2.256275" lat="53.103728"><ele>125.857079</ele><time>2022-03-04T10:22:43Z</time><extensions><speed>1.286532</speed><course>151.055099</course><hAcc>1.400216</hAcc><vAcc>0.829204</vAcc></extensions></trkpt>
      <trkpt lon="-2.256267" lat="53.103718"><ele>125.890694</ele><time>2022-03-04T10:22:44Z</time><extensions><speed>1.310817</speed><course>154.135590</course><hAcc>1.394779</hAcc><vAcc>0.829224</vAcc></extensions></trkpt>
      <trkpt lon="-2.256258" lat="53.103708"><ele>125.921371</ele><time>2022-03-04T10:22:45Z</time><extensions><speed>1.383818</speed><course>147.121140</course><hAcc>1.396376</hAcc><vAcc>0.829258</vAcc></extensions></trkpt>
      <trkpt lon="-2.256246" lat="53.103699"><ele>125.962791</ele><time>2022-03-04T10:22:46Z</time><extensions><speed>1.278345</speed><course>135.957962</course><hAcc>1.388319</hAcc><vAcc>0.829302</vAcc></extensions></trkpt>
      <trkpt lon="-2.256233" lat="53.103690"><ele>126.012047</ele><time>2022-03-04T10:22:47Z</time><extensions><speed>1.398997</speed><course>136.112122</course><hAcc>1.390781</hAcc><vAcc>0.829357</vAcc></extensions></trkpt>
      <trkpt lon="-2.256220" lat="53.103682"><ele>126.069916</ele><time>2022-03-04T10:22:48Z</time><extensions><speed>1.327984</speed><course>138.905685</course><hAcc>1.382185</hAcc><vAcc>0.829419</vAcc></extensions></trkpt>
      <trkpt lon="-2.256208" lat="53.103673"><ele>126.125153</ele><time>2022-03-04T10:22:49Z</time><extensions><speed>1.226875</speed><course>141.207306</course><hAcc>1.371601</hAcc><vAcc>0.829484</vAcc></extensions></trkpt>
      <trkpt lon="-2.256198" lat="53.103665"><ele>126.188263</ele><time>2022-03-04T10:22:50Z</time><extensions><speed>1.258491</speed><course>142.813934</course><hAcc>1.374943</hAcc><vAcc>0.829548</vAcc></extensions></trkpt>
      <trkpt lon="-2.256188" lat="53.103656"><ele>126.262169</ele><time>2022-03-04T10:22:51Z</time><extensions><speed>1.279555</speed><course>148.245667</course><hAcc>1.370538</hAcc><vAcc>0.829616</vAcc></extensions></trkpt>
      <trkpt lon="-2.256179" lat="53.103646"><ele>126.337746</ele><time>2022-03-04T10:22:52Z</time><extensions><speed>1.410092</speed><course>152.842911</course><hAcc>1.381902</hAcc><vAcc>0.829686</vAcc></extensions></trkpt>
      <trkpt lon="-2.256171" lat="53.103635"><ele>126.416046</ele><time>2022-03-04T10:22:53Z</time><extensions><speed>1.366923</speed><course>158.138153</course><hAcc>1.373127</hAcc><vAcc>0.829742</vAcc></extensions></trkpt>
      <trkpt lon="-2.256165" lat="53.103625"><ele>126.497833</ele><time>2022-03-04T10:22:54Z</time><extensions><speed>1.235890</speed><course>161.603714</course><hAcc>1.354576</hAcc><vAcc>0.829780</vAcc></extensions></trkpt>
      <trkpt lon="-2.256159" lat="53.103614"><ele>126.579872</ele><time>2022-03-04T10:22:55Z</time><extensions><speed>1.345659</speed><course>158.731430</course><hAcc>1.364950</hAcc><vAcc>0.829817</vAcc></extensions></trkpt>
      <trkpt lon="-2.256153" lat="53.103604"><ele>126.673996</ele><time>2022-03-04T10:22:56Z</time><extensions><speed>1.260114</speed><course>163.202576</course><hAcc>1.354144</hAcc><vAcc>0.829838</vAcc></extensions></trkpt>
      <trkpt lon="-2.256148" lat="53.103594"><ele>126.767944</ele><time>2022-03-04T10:22:57Z</time><extensions><speed>1.297324</speed><course>165.867050</course><hAcc>1.354492</hAcc><vAcc>0.829845</vAcc></extensions></trkpt>
      <trkpt lon="-2.256145" lat="53.103583"><ele>126.859612</ele><time>2022-03-04T10:22:58Z</time><extensions><speed>1.281212</speed><course>171.958115</course><hAcc>1.350580</hAcc><vAcc>0.829834</vAcc></extensions></trkpt>
      <trkpt lon="-2.256143" lat="53.103572"><ele>126.938507</ele><time>2022-03-04T10:22:59Z</time><extensions><speed>1.318625</speed><course>174.950409</course><hAcc>1.353565</hAcc><vAcc>0.829820</vAcc></extensions></trkpt>
      <trkpt lon="-2.256142" lat="53.103561"><ele>126.997231</ele><time>2022-03-04T10:23:00Z</time><extensions><speed>1.308379</speed><course>171.644394</course><hAcc>1.356724</hAcc><vAcc>0.829809</vAcc></extensions></trkpt>
      <trkpt lon="-2.256139" lat="53.103551"><ele>127.057732</ele><time>2022-03-04T10:23:01Z</time><extensions><speed>1.231805</speed><course>169.469116</course><hAcc>1.343538</hAcc><vAcc>0.829799</vAcc></extensions></trkpt>
      <trkpt lon="-2.256136" lat="53.103541"><ele>127.102081</ele><time>2022-03-04T10:23:02Z</time><extensions><speed>1.094793</speed><course>169.737076</course><hAcc>1.335950</hAcc><vAcc>0.829781</vAcc></extensions></trkpt>
      <trkpt lon="-2.256133" lat="53.103532"><ele>127.132698</ele><time>2022-03-04T10:23:03Z</time><extensions><speed>1.280087</speed><course>170.058670</course><hAcc>1.353065</hAcc><vAcc>0.829767</vAcc></extensions></trkpt>
      <trkpt lon="-2.256130" lat="53.103521"><ele>127.143555</ele><time>2022-03-04T10:23:04Z</time><extensions><speed>1.225222</speed><course>174.072662</course><hAcc>1.351198</hAcc><vAcc>0.829755</vAcc></extensions></trkpt>
      <trkpt lon="-2.256129" lat="53.103511"><ele>127.147346</ele><time>2022-03-04T10:23:05Z</time><extensions><speed>1.211899</speed><course>174.592575</course><hAcc>1.345819</hAcc><vAcc>0.829754</vAcc></extensions></trkpt>
      <trkpt lon="-2.256126" lat="53.103503"><ele>127.150146</ele><time>2022-03-04T10:23:06Z</time><extensions><speed>0.949331</speed><course>167.356720</course><hAcc>1.323799</hAcc><vAcc>0.829761</vAcc></extensions></trkpt>
      <trkpt lon="-2.256123" lat="53.103495"><ele>127.146347</ele><time>2022-03-04T10:23:07Z</time><extensions><speed>1.132326</speed><course>162.760757</course><hAcc>1.339957</hAcc><vAcc>0.829776</vAcc></extensions></trkpt>
      <trkpt lon="-2.256119" lat="53.103485"><ele>127.134415</ele><time>2022-03-04T10:23:08Z</time><extensions><speed>1.254294</speed><course>170.038177</course><hAcc>1.341121</hAcc><vAcc>0.829803</vAcc></extensions></trkpt>
      <trkpt lon="-2.256118" lat="53.103474"><ele>127.119110</ele><time>2022-03-04T10:23:09Z</time><extensions><speed>1.316388</speed><course>183.188416</course><hAcc>1.340751</hAcc><vAcc>0.829848</vAcc></extensions></trkpt>
      <trkpt lon="-2.256120" lat="53.103464"><ele>127.090118</ele><time>2022-03-04T10:23:10Z</time><extensions><speed>1.195431</speed><course>183.584000</course><hAcc>1.331038</hAcc><vAcc>0.829899</vAcc></extensions></trkpt>
      <trkpt lon="-2.256119" lat="53.103453"><ele>127.052658</ele><time>2022-03-04T10:23:11Z</time><extensions><speed>1.318558</speed><course>170.329666</course><hAcc>1.334226</hAcc><vAcc>0.829952</vAcc></extensions></trkpt>
      <trkpt lon="-2.256113" lat="53.103444"><ele>127.027565</ele><time>2022-03-04T10:23:12Z</time><extensions><speed>1.185790</speed><course>148.801102</course><hAcc>1.322680</hAcc><vAcc>0.830013</vAcc></extensions></trkpt>
      <trkpt lon="-2.256102" lat="53.103435"><ele>127.003258</ele><time>2022-03-04T10:23:13Z</time><extensions><speed>1.294098</speed><course>138.472122</course><hAcc>1.332047</hAcc><vAcc>0.830082</vAcc></extensions></trkpt>
      <trkpt lon="-2.256090" lat="53.103427"><ele>126.994354</ele><time>2022-03-04T10:23:14Z</time><extensions><speed>1.307851</speed><course>138.740555</course><hAcc>1.337844</hAcc><vAcc>0.830135</vAcc></extensions></trkpt>
      <trkpt lon="-2.256079" lat="53.103419"><ele>126.996056</ele><time>2022-03-04T10:23:15Z</time><extensions><speed>1.266866</speed><course>143.380508</course><hAcc>1.342014</hAcc><vAcc>0.830167</vAcc></extensions></trkpt>
      <trkpt lon="-2.256068" lat="53.103410"><ele>126.993347</ele><time>2022-03-04T10:23:16Z</time><extensions><speed>1.305977</speed><course>145.326904</course><hAcc>1.349218</hAcc><vAcc>0.830199</vAcc></extensions></trkpt>
      <trkpt lon="-2.256057" lat="53.103402"><ele>126.985237</ele><time>2022-03-04T10:23:17Z</time><extensions><speed>1.183485</speed><course>137.766373</course><hAcc>1.348720</hAcc><vAcc>0.830216</vAcc></extensions></trkpt>
      <trkpt lon="-2.256045" lat="53.103394"><ele>126.978699</ele><time>2022-03-04T10:23:18Z</time><extensions><speed>1.160078</speed><course>136.546402</course><hAcc>1.358447</hAcc><vAcc>0.830219</vAcc></extensions></trkpt>
      <trkpt lon="-2.256032" lat="53.103387"><ele>126.982887</ele><time>2022-03-04T10:23:19Z</time><extensions><speed>1.243401</speed><course>131.926666</course><hAcc>1.376346</hAcc><vAcc>0.830189</vAcc></extensions></trkpt>
      <trkpt lon="-2.256018" lat="53.103380"><ele>126.990257</ele><time>2022-03-04T10:23:20Z</time><extensions><speed>1.252998</speed><course>127.936447</course><hAcc>1.391151</hAcc><vAcc>0.830128</vAcc></extensions></trkpt>
      <trkpt lon="-2.256004" lat="53.103373"><ele>126.998825</ele><time>2022-03-04T10:23:21Z</time><extensions><speed>1.219369</speed><course>126.408363</course><hAcc>1.410806</hAcc><vAcc>0.830074</vAcc></extensions></trkpt>
      <trkpt lon="-2.255989" lat="53.103367"><ele>127.004784</ele><time>2022-03-04T10:23:22Z</time><extensions><speed>1.162184</speed><course>124.849098</course><hAcc>1.435557</hAcc><vAcc>0.829977</vAcc></extensions></trkpt>
      <trkpt lon="-2.255975" lat="53.103361"><ele>127.013702</ele><time>2022-03-04T10:23:23Z</time><extensions><speed>1.169889</speed><course>125.438095</course><hAcc>1.471010</hAcc><vAcc>0.829875</vAcc></extensions></trkpt>
      <trkpt lon="-2.255962" lat="53.103355"><ele>127.014702</ele><time>2022-03-04T10:23:24Z</time><extensions><speed>1.016303</speed><course>123.159203</course><hAcc>1.502254</hAcc><vAcc>0.829730</vAcc></extensions></trkpt>
      <trkpt lon="-2.255951" lat="53.103352"><ele>127.010979</ele><time>2022-03-04T10:23:25Z</time><extensions><speed>0.655211</speed><course>107.529495</course><hAcc>1.508945</hAcc><vAcc>0.829574</vAcc></extensions></trkpt>
      <trkpt lon="-2.255943" lat="53.103351"><ele>127.016174</ele><time>2022-03-04T10:23:26Z</time><extensions><speed>0.441877</speed><course>91.165779</course><hAcc>1.540766</hAcc><vAcc>0.829429</vAcc></extensions></trkpt>
      <trkpt lon="-2.255936" lat="53.103351"><ele>127.000938</ele><time>2022-03-04T10:23:27Z</time><extensions><speed>0.476265</speed><course>97.985146</course><hAcc>1.587103</hAcc><vAcc>0.829288</vAcc></extensions></trkpt>
      <trkpt lon="-2.255928" lat="53.103349"><ele>126.984711</ele><time>2022-03-04T10:23:28Z</time><extensions><speed>0.607528</speed><course>116.939034</course><hAcc>1.629127</hAcc><vAcc>0.829147</vAcc></extensions></trkpt>
      <trkpt lon="-2.255921" lat="53.103346"><ele>126.966621</ele><time>2022-03-04T10:23:29Z</time><extensions><speed>0.636946</speed><course>138.386627</course><hAcc>1.655279</hAcc><vAcc>0.829015</vAcc></extensions></trkpt>
      <trkpt lon="-2.255915" lat="53.103341"><ele>126.958679</ele><time>2022-03-04T10:23:30Z</time><extensions><speed>0.789827</speed><course>151.627319</course><hAcc>1.657560</hAcc><vAcc>0.828892</vAcc></extensions></trkpt>
      <trkpt lon="-2.255909" lat="53.103334"><ele>126.941170</ele><time>2022-03-04T10:23:32Z</time><extensions><speed>0.912645</speed><course>157.116776</course><hAcc>1.654040</hAcc><vAcc>0.828782</vAcc></extensions></trkpt>
      <trkpt lon="-2.255904" lat="53.103326"><ele>126.925552</ele><time>2022-03-04T10:23:33Z</time><extensions><speed>1.005312</speed><course>156.778259</course><hAcc>1.646811</hAcc><vAcc>0.828671</vAcc></extensions></trkpt>
      <trkpt lon="-2.255897" lat="53.103317"><ele>126.921661</ele><time>2022-03-04T10:23:34Z</time><extensions><speed>1.111393</speed><course>149.540939</course><hAcc>1.640208</hAcc><vAcc>0.828576</vAcc></extensions></trkpt>
      <trkpt lon="-2.255887" lat="53.103309"><ele>126.915100</ele><time>2022-03-04T10:23:35Z</time><extensions><speed>1.222391</speed><course>141.375092</course><hAcc>1.619074</hAcc><vAcc>0.828478</vAcc></extensions></trkpt>
      <trkpt lon="-2.255874" lat="53.103300"><ele>126.911964</ele><time>2022-03-04T10:23:36Z</time><extensions><speed>1.297213</speed><course>136.521530</course><hAcc>1.612105</hAcc><vAcc>0.828400</vAcc></extensions></trkpt>
      <trkpt lon="-2.255861" lat="53.103292"><ele>126.917717</ele><time>2022-03-04T10:23:37Z</time><extensions><speed>1.284641</speed><course>134.493851</course><hAcc>1.637706</hAcc><vAcc>0.828348</vAcc></extensions></trkpt>
      <trkpt lon="-2.255847" lat="53.103284"><ele>126.945831</ele><time>2022-03-04T10:23:38Z</time><extensions><speed>1.212035</speed><course>132.770737</course><hAcc>1.658917</hAcc><vAcc>0.828301</vAcc></extensions></trkpt>
      <trkpt lon="-2.255834" lat="53.103276"><ele>126.972198</ele><time>2022-03-04T10:23:39Z</time><extensions><speed>1.244440</speed><course>134.021225</course><hAcc>1.626137</hAcc><vAcc>0.828260</vAcc></extensions></trkpt>
      <trkpt lon="-2.255821" lat="53.103268"><ele>127.003929</ele><time>2022-03-04T10:23:40Z</time><extensions><speed>1.289680</speed><course>135.301987</course><hAcc>1.623610</hAcc><vAcc>0.828250</vAcc></extensions></trkpt>
      <trkpt lon="-2.255807" lat="53.103260"><ele>127.051125</ele><time>2022-03-04T10:23:41Z</time><extensions><speed>1.287336</speed><course>138.473480</course><hAcc>1.639628</hAcc><vAcc>0.828283</vAcc></extensions></trkpt>
      <trkpt lon="-2.255796" lat="53.103251"><ele>127.094292</ele><time>2022-03-04T10:23:42Z</time><extensions><speed>1.206695</speed><course>142.089096</course><hAcc>1.658275</hAcc><vAcc>0.828302</vAcc></extensions></trkpt>
      <trkpt lon="-2.255785" lat="53.103243"><ele>127.156837</ele><time>2022-03-04T10:23:43Z</time><extensions><speed>1.132328</speed><course>147.269577</course><hAcc>1.671697</hAcc><vAcc>0.828314</vAcc></extensions></trkpt>
      <trkpt lon="-2.255777" lat="53.103234"><ele>127.210327</ele><time>2022-03-04T10:23:44Z</time><extensions><speed>1.185627</speed><course>151.175705</course><hAcc>1.673408</hAcc><vAcc>0.828332</vAcc></extensions></trkpt>
      <trkpt lon="-2.255768" lat="53.103224"><ele>127.271255</ele><time>2022-03-04T10:23:45Z</time><extensions><speed>1.216529</speed><course>152.513397</course><hAcc>1.671571</hAcc><vAcc>0.828384</vAcc></extensions></trkpt>
      <trkpt lon="-2.255760" lat="53.103214"><ele>127.340424</ele><time>2022-03-04T10:23:46Z</time><extensions><speed>1.194190</speed><course>153.521622</course><hAcc>1.674563</hAcc><vAcc>0.828433</vAcc></extensions></trkpt>
      <trkpt lon="-2.255752" lat="53.103204"><ele>127.415718</ele><time>2022-03-04T10:23:47Z</time><extensions><speed>1.214989</speed><course>156.487259</course><hAcc>1.675789</hAcc><vAcc>0.828514</vAcc></extensions></trkpt>
      <trkpt lon="-2.255745" lat="53.103194"><ele>127.485405</ele><time>2022-03-04T10:23:48Z</time><extensions><speed>1.250128</speed><course>157.515778</course><hAcc>1.669950</hAcc><vAcc>0.828590</vAcc></extensions></trkpt>
      <trkpt lon="-2.255738" lat="53.103184"><ele>127.564529</ele><time>2022-03-04T10:23:49Z</time><extensions><speed>1.293737</speed><course>155.902496</course><hAcc>1.667323</hAcc><vAcc>0.828657</vAcc></extensions></trkpt>
      <trkpt lon="-2.255730" lat="53.103173"><ele>127.641869</ele><time>2022-03-04T10:23:50Z</time><extensions><speed>1.282491</speed><course>157.115341</course><hAcc>1.656920</hAcc><vAcc>0.828730</vAcc></extensions></trkpt>
      <trkpt lon="-2.255723" lat="53.103162"><ele>127.710258</ele><time>2022-03-04T10:23:51Z</time><extensions><speed>1.209171</speed><course>160.391815</course><hAcc>1.640751</hAcc><vAcc>0.828772</vAcc></extensions></trkpt>
      <trkpt lon="-2.255718" lat="53.103152"><ele>127.784172</ele><time>2022-03-04T10:23:52Z</time><extensions><speed>1.098202</speed><course>163.748322</course><hAcc>1.631387</hAcc><vAcc>0.828792</vAcc></extensions></trkpt>
      <trkpt lon="-2.255714" lat="53.103143"><ele>127.851517</ele><time>2022-03-04T10:23:53Z</time><extensions><speed>1.024498</speed><course>168.254120</course><hAcc>1.621218</hAcc><vAcc>0.828780</vAcc></extensions></trkpt>
      <trkpt lon="-2.255711" lat="53.103134"><ele>127.925667</ele><time>2022-03-04T10:23:54Z</time><extensions><speed>1.017255</speed><course>168.358292</course><hAcc>1.632389</hAcc><vAcc>0.828763</vAcc></extensions></trkpt>
      <trkpt lon="-2.255707" lat="53.103125"><ele>128.000748</ele><time>2022-03-04T10:23:55Z</time><extensions><speed>0.919806</speed><course>162.548538</course><hAcc>1.652669</hAcc><vAcc>0.828744</vAcc></extensions></trkpt>
      <trkpt lon="-2.255703" lat="53.103117"><ele>128.071564</ele><time>2022-03-04T10:23:56Z</time><extensions><speed>1.045814</speed><course>160.051239</course><hAcc>1.608399</hAcc><vAcc>0.828746</vAcc></extensions></trkpt>
      <trkpt lon="-2.255697" lat="53.103108"><ele>128.126984</ele><time>2022-03-04T10:23:57Z</time><extensions><speed>1.075955</speed><course>157.083542</course><hAcc>1.580596</hAcc><vAcc>0.828735</vAcc></extensions></trkpt>
      <trkpt lon="-2.255690" lat="53.103099"><ele>128.181107</ele><time>2022-03-04T10:23:58Z</time><extensions><speed>1.088166</speed><course>154.747528</course><hAcc>1.579118</hAcc><vAcc>0.828716</vAcc></extensions></trkpt>
      <trkpt lon="-2.255682" lat="53.103090"><ele>128.229858</ele><time>2022-03-04T10:23:59Z</time><extensions><speed>1.181086</speed><course>151.456863</course><hAcc>1.613479</hAcc><vAcc>0.828713</vAcc></extensions></trkpt>
      <trkpt lon="-2.255674" lat="53.103081"><ele>128.288422</ele><time>2022-03-04T10:24:00Z</time><extensions><speed>1.081836</speed><course>149.069916</course><hAcc>1.665467</hAcc><vAcc>0.828703</vAcc></extensions></trkpt>
      <trkpt lon="-2.255666" lat="53.103072"><ele>128.327820</ele><time>2022-03-04T10:24:01Z</time><extensions><speed>1.156170</speed><course>151.708084</course><hAcc>1.618157</hAcc><vAcc>0.828700</vAcc></extensions></trkpt>
      <trkpt lon="-2.255658" lat="53.103063"><ele>128.371796</ele><time>2022-03-04T10:24:02Z</time><extensions><speed>1.104080</speed><course>153.042053</course><hAcc>1.601696</hAcc><vAcc>0.828719</vAcc></extensions></trkpt>
      <trkpt lon="-2.255650" lat="53.103055"><ele>128.405045</ele><time>2022-03-04T10:24:03Z</time><extensions><speed>1.036250</speed><course>151.929688</course><hAcc>1.615867</hAcc><vAcc>0.828734</vAcc></extensions></trkpt>
      <trkpt lon="-2.255643" lat="53.103047"><ele>128.425034</ele><time>2022-03-04T10:24:04Z</time><extensions><speed>1.017666</speed><course>148.685699</course><hAcc>1.632085</hAcc><vAcc>0.828752</vAcc></extensions></trkpt>
      <trkpt lon="-2.255634" lat="53.103039"><ele>128.444702</ele><time>2022-03-04T10:24:05Z</time><extensions><speed>1.068105</speed><course>144.660858</course><hAcc>1.646603</hAcc><vAcc>0.828774</vAcc></extensions></trkpt>
      <trkpt lon="-2.255625" lat="53.103031"><ele>128.457367</ele><time>2022-03-04T10:24:06Z</time><extensions><speed>1.055484</speed><course>143.222900</course><hAcc>1.666237</hAcc><vAcc>0.828800</vAcc></extensions></trkpt>
      <trkpt lon="-2.255616" lat="53.103023"><ele>128.459183</ele><time>2022-03-04T10:24:07Z</time><extensions><speed>1.100023</speed><course>146.225388</course><hAcc>1.666005</hAcc><vAcc>0.828812</vAcc></extensions></trkpt>
      <trkpt lon="-2.255606" lat="53.103015"><ele>128.460831</ele><time>2022-03-04T10:24:08Z</time><extensions><speed>1.149862</speed><course>146.196640</course><hAcc>1.657544</hAcc><vAcc>0.828802</vAcc></extensions></trkpt>
      <trkpt lon="-2.255597" lat="53.103006"><ele>128.466553</ele><time>2022-03-04T10:24:09Z</time><extensions><speed>1.144111</speed><course>147.207642</course><hAcc>1.664635</hAcc><vAcc>0.828784</vAcc></extensions></trkpt>
      <trkpt lon="-2.255588" lat="53.102998"><ele>128.469925</ele><time>2022-03-04T10:24:10Z</time><extensions><speed>1.088533</speed><course>146.824783</course><hAcc>1.663008</hAcc><vAcc>0.828754</vAcc></extensions></trkpt>
      <trkpt lon="-2.255579" lat="53.102990"><ele>128.469177</ele><time>2022-03-04T10:24:11Z</time><extensions><speed>1.035540</speed><course>144.014709</course><hAcc>1.668567</hAcc><vAcc>0.828715</vAcc></extensions></trkpt>
      <trkpt lon="-2.255569" lat="53.102982"><ele>128.467316</ele><time>2022-03-04T10:24:12Z</time><extensions><speed>0.995030</speed><course>142.636490</course><hAcc>1.672954</hAcc><vAcc>0.828643</vAcc></extensions></trkpt>
      <trkpt lon="-2.255561" lat="53.102975"><ele>128.466782</ele><time>2022-03-04T10:24:13Z</time><extensions><speed>0.909634</speed><course>144.179565</course><hAcc>1.657371</hAcc><vAcc>0.828528</vAcc></extensions></trkpt>
      <trkpt lon="-2.255553" lat="53.102969"><ele>128.478989</ele><time>2022-03-04T10:24:14Z</time><extensions><speed>0.946874</speed><course>145.408005</course><hAcc>1.652415</hAcc><vAcc>0.828438</vAcc></extensions></trkpt>
      <trkpt lon="-2.255545" lat="53.102961"><ele>128.499985</ele><time>2022-03-04T10:24:15Z</time><extensions><speed>0.956456</speed><course>146.812744</course><hAcc>1.653086</hAcc><vAcc>0.828320</vAcc></extensions></trkpt>
      <trkpt lon="-2.255537" lat="53.102954"><ele>128.525574</ele><time>2022-03-04T10:24:16Z</time><extensions><speed>0.963006</speed><course>149.281708</course><hAcc>1.667222</hAcc><vAcc>0.828161</vAcc></extensions></trkpt>
      <trkpt lon="-2.255530" lat="53.102947"><ele>128.561615</ele><time>2022-03-04T10:24:17Z</time><extensions><speed>0.910463</speed><course>148.791565</course><hAcc>1.683478</hAcc><vAcc>0.827979</vAcc></extensions></trkpt>
      <trkpt lon="-2.255522" lat="53.102940"><ele>128.601166</ele><time>2022-03-04T10:24:18Z</time><extensions><speed>0.973431</speed><course>146.605652</course><hAcc>1.663419</hAcc><vAcc>0.827778</vAcc></extensions></trkpt>
      <trkpt lon="-2.255514" lat="53.102932"><ele>128.639648</ele><time>2022-03-04T10:24:19Z</time><extensions><speed>1.007806</speed><course>142.938110</course><hAcc>1.661270</hAcc><vAcc>0.827532</vAcc></extensions></trkpt>
      <trkpt lon="-2.255504" lat="53.102925"><ele>128.678223</ele><time>2022-03-04T10:24:20Z</time><extensions><speed>1.078146</speed><course>140.069519</course><hAcc>1.672831</hAcc><vAcc>0.827253</vAcc></extensions></trkpt>
      <trkpt lon="-2.255493" lat="53.102918"><ele>128.722610</ele><time>2022-03-04T10:24:21Z</time><extensions><speed>1.084555</speed><course>138.679794</course><hAcc>1.684926</hAcc><vAcc>0.826945</vAcc></extensions></trkpt>
      <trkpt lon="-2.255483" lat="53.102911"><ele>128.770874</ele><time>2022-03-04T10:24:22Z</time><extensions><speed>0.998467</speed><course>135.501526</course><hAcc>1.688834</hAcc><vAcc>0.826625</vAcc></extensions></trkpt>
      <trkpt lon="-2.255472" lat="53.102904"><ele>128.821899</ele><time>2022-03-04T10:24:23Z</time><extensions><speed>1.033650</speed><course>132.522308</course><hAcc>1.700831</hAcc><vAcc>0.826301</vAcc></extensions></trkpt>
      <trkpt lon="-2.255461" lat="53.102898"><ele>128.874786</ele><time>2022-03-04T10:24:24Z</time><extensions><speed>1.000153</speed><course>130.682831</course><hAcc>1.716602</hAcc><vAcc>0.825938</vAcc></extensions></trkpt>
      <trkpt lon="-2.255450" lat="53.102893"><ele>128.931580</ele><time>2022-03-04T10:24:25Z</time><extensions><speed>0.856041</speed><course>128.153000</course><hAcc>1.715451</hAcc><vAcc>0.825582</vAcc></extensions></trkpt>
      <trkpt lon="-2.255440" lat="53.102888"><ele>128.980576</ele><time>2022-03-04T10:24:26Z</time><extensions><speed>0.777338</speed><course>127.807671</course><hAcc>1.705247</hAcc><vAcc>0.825155</vAcc></extensions></trkpt>
      <trkpt lon="-2.255431" lat="53.102884"><ele>129.028015</ele><time>2022-03-04T10:24:27Z</time><extensions><speed>0.704473</speed><course>127.596413</course><hAcc>1.706019</hAcc><vAcc>0.824741</vAcc></extensions></trkpt>
      <trkpt lon="-2.255425" lat="53.102881"><ele>129.060928</ele><time>2022-03-04T10:24:27Z</time><extensions><speed>0.513988</speed><course>132.053391</course><hAcc>1.701973</hAcc><vAcc>0.824295</vAcc></extensions></trkpt>
      <trkpt lon="-2.255420" lat="53.102878"><ele>129.077057</ele><time>2022-03-04T10:24:28Z</time><extensions><speed>0.285903</speed><course>145.017212</course><hAcc>1.709061</hAcc><vAcc>0.823797</vAcc></extensions></trkpt>
      <trkpt lon="-2.255419" lat="53.102876"><ele>129.091034</ele><time>2022-03-04T10:24:29Z</time><extensions><speed>0.210919</speed><course>161.002350</course><hAcc>1.706407</hAcc><vAcc>0.823340</vAcc></extensions></trkpt>
      <trkpt lon="-2.255418" lat="53.102874"><ele>129.093002</ele><time>2022-03-04T10:24:30Z</time><extensions><speed>0.188461</speed><course>172.137909</course><hAcc>1.701682</hAcc><vAcc>0.822895</vAcc></extensions></trkpt>
      <trkpt lon="-2.255418" lat="53.102873"><ele>129.099457</ele><time>2022-03-04T10:24:31Z</time><extensions><speed>0.176853</speed><course>178.648453</course><hAcc>1.699394</hAcc><vAcc>0.822455</vAcc></extensions></trkpt>
      <trkpt lon="-2.255418" lat="53.102871"><ele>129.100800</ele><time>2022-03-04T10:24:32Z</time><extensions><speed>0.166099</speed><course>184.264557</course><hAcc>1.698546</hAcc><vAcc>0.822006</vAcc></extensions></trkpt>
      <trkpt lon="-2.255418" lat="53.102870"><ele>129.106049</ele><time>2022-03-04T10:24:33Z</time><extensions><speed>0.153263</speed><course>191.259506</course><hAcc>1.697347</hAcc><vAcc>0.821485</vAcc></extensions></trkpt>
      <trkpt lon="-2.255419" lat="53.102868"><ele>129.119247</ele><time>2022-03-04T10:24:34Z</time><extensions><speed>0.149854</speed><course>200.366257</course><hAcc>1.698203</hAcc><vAcc>0.821073</vAcc></extensions></trkpt>
      <trkpt lon="-2.255420" lat="53.102867"><ele>129.133789</ele><time>2022-03-04T10:24:35Z</time><extensions><speed>0.169001</speed><course>206.761856</course><hAcc>1.699431</hAcc><vAcc>0.820688</vAcc></extensions></trkpt>
      <trkpt lon="-2.255421" lat="53.102866"><ele>129.157166</ele><time>2022-03-04T10:24:36Z</time><extensions><speed>0.185602</speed><course>208.534882</course><hAcc>1.703700</hAcc><vAcc>0.820356</vAcc></extensions></trkpt>
      <trkpt lon="-2.255422" lat="53.102864"><ele>129.186630</ele><time>2022-03-04T10:24:37Z</time><extensions><speed>0.185693</speed><course>206.758209</course><hAcc>1.704853</hAcc><vAcc>0.820130</vAcc></extensions></trkpt>
      <trkpt lon="-2.255423" lat="53.102863"><ele>129.208267</ele><time>2022-03-04T10:24:38Z</time><extensions><speed>0.162406</speed><course>201.931564</course><hAcc>1.706643</hAcc><vAcc>0.819939</vAcc></extensions></trkpt>
      <trkpt lon="-2.255424" lat="53.102861"><ele>129.223175</ele><time>2022-03-04T10:24:39Z</time><extensions><speed>0.136410</speed><course>193.819199</course><hAcc>1.705972</hAcc><vAcc>0.819842</vAcc></extensions></trkpt>
      <trkpt lon="-2.255424" lat="53.102860"><ele>129.233917</ele><time>2022-03-04T10:24:40Z</time><extensions><speed>0.115379</speed><course>178.746216</course><hAcc>1.704776</hAcc><vAcc>0.819818</vAcc></extensions></trkpt>
      <trkpt lon="-2.255424" lat="53.102859"><ele>129.256439</ele><time>2022-03-04T10:24:41Z</time><extensions><speed>0.115542</speed><course>161.454117</course><hAcc>1.706133</hAcc><vAcc>0.819864</vAcc></extensions></trkpt>
      <trkpt lon="-2.255423" lat="53.102858"><ele>129.283447</ele><time>2022-03-04T10:24:42Z</time><extensions><speed>0.135108</speed><course>151.894638</course><hAcc>1.708135</hAcc><vAcc>0.819964</vAcc></extensions></trkpt>
      <trkpt lon="-2.255422" lat="53.102857"><ele>129.312469</ele><time>2022-03-04T10:24:43Z</time><extensions><speed>0.158944</speed><course>147.475891</course><hAcc>1.709704</hAcc><vAcc>0.820159</vAcc></extensions></trkpt>
      <trkpt lon="-2.255420" lat="53.102856"><ele>129.354446</ele><time>2022-03-04T10:24:44Z</time><extensions><speed>0.185731</speed><course>143.767761</course><hAcc>1.706184</hAcc><vAcc>0.820417</vAcc></extensions></trkpt>
      <trkpt lon="-2.255418" lat="53.102854"><ele>129.397552</ele><time>2022-03-04T10:24:45Z</time><extensions><speed>0.204914</speed><course>140.267212</course><hAcc>1.703498</hAcc><vAcc>0.820730</vAcc></extensions></trkpt>
      <trkpt lon="-2.255416" lat="53.102853"><ele>129.446854</ele><time>2022-03-04T10:24:46Z</time><extensions><speed>0.228436</speed><course>136.702118</course><hAcc>1.702080</hAcc><vAcc>0.821075</vAcc></extensions></trkpt>
      <trkpt lon="-2.255414" lat="53.102851"><ele>129.511108</ele><time>2022-03-04T10:24:47Z</time><extensions><speed>0.246953</speed><course>132.796188</course><hAcc>1.700267</hAcc><vAcc>0.821422</vAcc></extensions></trkpt>
      <trkpt lon="-2.255411" lat="53.102849"><ele>129.572418</ele><time>2022-03-04T10:24:48Z</time><extensions><speed>0.244055</speed><course>131.070724</course><hAcc>1.695157</hAcc><vAcc>0.821745</vAcc></extensions></trkpt>
      <trkpt lon="-2.255408" lat="53.102848"><ele>129.638306</ele><time>2022-03-04T10:24:49Z</time><extensions><speed>0.229325</speed><course>130.696793</course><hAcc>1.687409</hAcc><vAcc>0.822067</vAcc></extensions></trkpt>
      <trkpt lon="-2.255405" lat="53.102847"><ele>129.702377</ele><time>2022-03-04T10:24:50Z</time><extensions><speed>0.230036</speed><course>131.738647</course><hAcc>1.674482</hAcc><vAcc>0.822356</vAcc></extensions></trkpt>
      <trkpt lon="-2.255403" lat="53.102845"><ele>129.777618</ele><time>2022-03-04T10:24:51Z</time><extensions><speed>0.239975</speed><course>135.430466</course><hAcc>1.657746</hAcc><vAcc>0.822598</vAcc></extensions></trkpt>
      <trkpt lon="-2.255400" lat="53.102843"><ele>129.857620</ele><time>2022-03-04T10:24:52Z</time><extensions><speed>0.266717</speed><course>140.264832</course><hAcc>1.633771</hAcc><vAcc>0.822766</vAcc></extensions></trkpt>
      <trkpt lon="-2.255397" lat="53.102841"><ele>129.931595</ele><time>2022-03-04T10:24:53Z</time><extensions><speed>0.269851</speed><course>143.751434</course><hAcc>1.623967</hAcc><vAcc>0.822863</vAcc></extensions></trkpt>
      <trkpt lon="-2.255395" lat="53.102839"><ele>130.015976</ele><time>2022-03-04T10:24:54Z</time><extensions><speed>0.232831</speed><course>145.784195</course><hAcc>1.642865</hAcc><vAcc>0.822935</vAcc></extensions></trkpt>
      <trkpt lon="-2.255393" lat="53.102838"><ele>130.103470</ele><time>2022-03-04T10:24:55Z</time><extensions><speed>0.180214</speed><course>145.707794</course><hAcc>1.664899</hAcc><vAcc>0.822919</vAcc></extensions></trkpt>
      <trkpt lon="-2.255391" lat="53.102836"><ele>130.188919</ele><time>2022-03-04T10:24:56Z</time><extensions><speed>0.307596</speed><course>143.473907</course><hAcc>1.618806</hAcc><vAcc>0.822821</vAcc></extensions></trkpt>
      <trkpt lon="-2.255388" lat="53.102834"><ele>130.278275</ele><time>2022-03-04T10:24:57Z</time><extensions><speed>0.343449</speed><course>140.316360</course><hAcc>1.603614</hAcc><vAcc>0.822704</vAcc></extensions></trkpt>
      <trkpt lon="-2.255385" lat="53.102831"><ele>130.373062</ele><time>2022-03-04T10:24:58Z</time><extensions><speed>0.333080</speed><course>137.009369</course><hAcc>1.622821</hAcc><vAcc>0.822528</vAcc></extensions></trkpt>
      <trkpt lon="-2.255381" lat="53.102829"><ele>130.461349</ele><time>2022-03-04T10:24:59Z</time><extensions><speed>0.312098</speed><course>135.697235</course><hAcc>1.652825</hAcc><vAcc>0.822290</vAcc></extensions></trkpt>
      <trkpt lon="-2.255378" lat="53.102827"><ele>130.549179</ele><time>2022-03-04T10:25:00Z</time><extensions><speed>0.296150</speed><course>137.816757</course><hAcc>1.675514</hAcc><vAcc>0.821978</vAcc></extensions></trkpt>
      <trkpt lon="-2.255375" lat="53.102825"><ele>130.629700</ele><time>2022-03-04T10:25:01Z</time><extensions><speed>0.362201</speed><course>141.130005</course><hAcc>1.665959</hAcc><vAcc>0.821628</vAcc></extensions></trkpt>
      <trkpt lon="-2.255372" lat="53.102822"><ele>130.707550</ele><time>2022-03-04T10:25:02Z</time><extensions><speed>0.383082</speed><course>143.845749</course><hAcc>1.668312</hAcc><vAcc>0.821235</vAcc></extensions></trkpt>
      <trkpt lon="-2.255368" lat="53.102819"><ele>130.779984</ele><time>2022-03-04T10:25:03Z</time><extensions><speed>0.373243</speed><course>147.758408</course><hAcc>1.685097</hAcc><vAcc>0.820841</vAcc></extensions></trkpt>
      <trkpt lon="-2.255366" lat="53.102816"><ele>130.843338</ele><time>2022-03-04T10:25:04Z</time><extensions><speed>0.360397</speed><course>153.008408</course><hAcc>1.697856</hAcc><vAcc>0.820455</vAcc></extensions></trkpt>
      <trkpt lon="-2.255364" lat="53.102813"><ele>130.896790</ele><time>2022-03-04T10:25:05Z</time><extensions><speed>0.337263</speed><course>158.548981</course><hAcc>1.701634</hAcc><vAcc>0.820020</vAcc></extensions></trkpt>
      <trkpt lon="-2.255362" lat="53.102811"><ele>130.943863</ele><time>2022-03-04T10:25:06Z</time><extensions><speed>0.302317</speed><course>165.633377</course><hAcc>1.704891</hAcc><vAcc>0.819600</vAcc></extensions></trkpt>
      <trkpt lon="-2.255361" lat="53.102808"><ele>130.984131</ele><time>2022-03-04T10:25:07Z</time><extensions><speed>0.267736</speed><course>173.832031</course><hAcc>1.709028</hAcc><vAcc>0.819173</vAcc></extensions></trkpt>
      <trkpt lon="-2.255361" lat="53.102806"><ele>131.017441</ele><time>2022-03-04T10:25:08Z</time><extensions><speed>0.243999</speed><course>181.241241</course><hAcc>1.710586</hAcc><vAcc>0.818774</vAcc></extensions></trkpt>
      <trkpt lon="-2.255361" lat="53.102804"><ele>131.043762</ele><time>2022-03-04T10:25:09Z</time><extensions><speed>0.235399</speed><course>186.135742</course><hAcc>1.711599</hAcc><vAcc>0.818413</vAcc></extensions></trkpt>
      <trkpt lon="-2.255362" lat="53.102802"><ele>131.063278</ele><time>2022-03-04T10:25:10Z</time><extensions><speed>0.247725</speed><course>187.213333</course><hAcc>1.710687</hAcc><vAcc>0.818060</vAcc></extensions></trkpt>
      <trkpt lon="-2.255362" lat="53.102799"><ele>131.076416</ele><time>2022-03-04T10:25:11Z</time><extensions><speed>0.246475</speed><course>187.851059</course><hAcc>1.708585</hAcc><vAcc>0.817722</vAcc></extensions></trkpt>
      <trkpt lon="-2.255363" lat="53.102798"><ele>131.083801</ele><time>2022-03-04T10:25:12Z</time><extensions><speed>0.194310</speed><course>194.749054</course><hAcc>1.704481</hAcc><vAcc>0.817440</vAcc></extensions></trkpt>
      <trkpt lon="-2.255364" lat="53.102796"><ele>131.086121</ele><time>2022-03-04T10:25:13Z</time><extensions><speed>0.101059</speed><course>225.954132</course><hAcc>1.701154</hAcc><vAcc>0.817207</vAcc></extensions></trkpt>
      <trkpt lon="-2.255365" lat="53.102796"><ele>131.084198</ele><time>2022-03-04T10:25:14Z</time><extensions><speed>0.095616</speed><course>301.560913</course><hAcc>1.695286</hAcc><vAcc>0.816998</vAcc></extensions></trkpt>
      <trkpt lon="-2.255366" lat="53.102797"><ele>131.076050</ele><time>2022-03-04T10:25:15Z</time><extensions><speed>0.139482</speed><course>334.995758</course><hAcc>1.682619</hAcc><vAcc>0.816827</vAcc></extensions></trkpt>
      <trkpt lon="-2.255366" lat="53.102799"><ele>131.065018</ele><time>2022-03-04T10:25:16Z</time><extensions><speed>0.148365</speed><course>348.988342</course><hAcc>1.665658</hAcc><vAcc>0.816703</vAcc></extensions></trkpt>
      <trkpt lon="-2.255366" lat="53.102800"><ele>131.051849</ele><time>2022-03-04T10:25:17Z</time><extensions><speed>0.139056</speed><course>1.321169</course><hAcc>1.649378</hAcc><vAcc>0.816619</vAcc></extensions></trkpt>
      <trkpt lon="-2.255365" lat="53.102802"><ele>131.037186</ele><time>2022-03-04T10:25:18Z</time><extensions><speed>0.131159</speed><course>13.942768</course><hAcc>1.635893</hAcc><vAcc>0.816562</vAcc></extensions></trkpt>
      <trkpt lon="-2.255365" lat="53.102803"><ele>131.021561</ele><time>2022-03-04T10:25:19Z</time><extensions><speed>0.132456</speed><course>25.218525</course><hAcc>1.626539</hAcc><vAcc>0.816570</vAcc></extensions></trkpt>
      <trkpt lon="-2.255364" lat="53.102804"><ele>131.005371</ele><time>2022-03-04T10:25:20Z</time><extensions><speed>0.146927</speed><course>33.477837</course><hAcc>1.620440</hAcc><vAcc>0.816621</vAcc></extensions></trkpt>
      <trkpt lon="-2.255362" lat="53.102805"><ele>130.988998</ele><time>2022-03-04T10:25:21Z</time><extensions><speed>0.178839</speed><course>38.565063</course><hAcc>1.617689</hAcc><vAcc>0.816701</vAcc></extensions></trkpt>
      <trkpt lon="-2.255360" lat="53.102807"><ele>130.972702</ele><time>2022-03-04T10:25:22Z</time><extensions><speed>0.224957</speed><course>41.432888</course><hAcc>1.627302</hAcc><vAcc>0.816796</vAcc></extensions></trkpt>
      <trkpt lon="-2.255358" lat="53.102808"><ele>130.956757</ele><time>2022-03-04T10:25:23Z</time><extensions><speed>0.262942</speed><course>43.146206</course><hAcc>1.648008</hAcc><vAcc>0.816933</vAcc></extensions></trkpt>
      <trkpt lon="-2.255354" lat="53.102811"><ele>130.941345</ele><time>2022-03-04T10:25:24Z</time><extensions><speed>0.481075</speed><course>43.923149</course><hAcc>1.623354</hAcc><vAcc>0.817098</vAcc></extensions></trkpt>
      <trkpt lon="-2.255349" lat="53.102814"><ele>130.926712</ele><time>2022-03-04T10:25:25Z</time><extensions><speed>0.523938</speed><course>44.183727</course><hAcc>1.631330</hAcc><vAcc>0.817279</vAcc></extensions></trkpt>
      <trkpt lon="-2.255344" lat="53.102817"><ele>130.899750</ele><time>2022-03-04T10:25:26Z</time><extensions><speed>0.443027</speed><course>43.894680</course><hAcc>1.656856</hAcc><vAcc>0.817459</vAcc></extensions></trkpt>
      <trkpt lon="-2.255340" lat="53.102819"><ele>130.875580</ele><time>2022-03-04T10:25:27Z</time><extensions><speed>0.335135</speed><course>43.613983</course><hAcc>1.676748</hAcc><vAcc>0.817648</vAcc></extensions></trkpt>
      <trkpt lon="-2.255337" lat="53.102821"><ele>130.844559</ele><time>2022-03-04T10:25:28Z</time><extensions><speed>0.228299</speed><course>42.906036</course><hAcc>1.688557</hAcc><vAcc>0.817885</vAcc></extensions></trkpt>
      <trkpt lon="-2.255335" lat="53.102822"><ele>130.803299</ele><time>2022-03-04T10:25:29Z</time><extensions><speed>0.144624</speed><course>41.304169</course><hAcc>1.690480</hAcc><vAcc>0.818160</vAcc></extensions></trkpt>
      <trkpt lon="-2.255334" lat="53.102823"><ele>130.766037</ele><time>2022-03-04T10:25:30Z</time><extensions><speed>0.073887</speed><course>38.045216</course><hAcc>1.690295</hAcc><vAcc>0.818444</vAcc></extensions></trkpt>
      <trkpt lon="-2.255334" lat="53.102823"><ele>130.730423</ele><time>2022-03-04T10:25:31Z</time><extensions><speed>0.017823</speed><course>19.057777</course><hAcc>1.686748</hAcc><vAcc>0.818769</vAcc></extensions></trkpt>
      <trkpt lon="-2.255334" lat="53.102823"><ele>130.691788</ele><time>2022-03-04T10:25:32Z</time><extensions><speed>0.036177</speed><course>232.998001</course><hAcc>1.685077</hAcc><vAcc>0.819112</vAcc></extensions></trkpt>
      <trkpt lon="-2.255334" lat="53.102823"><ele>130.657288</ele><time>2022-03-04T10:25:33Z</time><extensions><speed>0.085449</speed><course>225.107697</course><hAcc>1.689542</hAcc><vAcc>0.819500</vAcc></extensions></trkpt>
      <trkpt lon="-2.255335" lat="53.102822"><ele>130.621521</ele><time>2022-03-04T10:25:34Z</time><extensions><speed>0.137793</speed><course>220.826660</course><hAcc>1.695867</hAcc><vAcc>0.819921</vAcc></extensions></trkpt>
      <trkpt lon="-2.255337" lat="53.102821"><ele>130.579193</ele><time>2022-03-04T10:25:35Z</time><extensions><speed>0.200297</speed><course>215.279419</course><hAcc>1.698813</hAcc><vAcc>0.820385</vAcc></extensions></trkpt>
      <trkpt lon="-2.255339" lat="53.102819"><ele>130.544952</ele><time>2022-03-04T10:25:36Z</time><extensions><speed>0.262804</speed><course>205.598343</course><hAcc>1.700933</hAcc><vAcc>0.820875</vAcc></extensions></trkpt>
      <trkpt lon="-2.255340" lat="53.102816"><ele>130.506271</ele><time>2022-03-04T10:25:38Z</time><extensions><speed>0.312881</speed><course>193.870453</course><hAcc>1.706008</hAcc><vAcc>0.821393</vAcc></extensions></trkpt>
      <trkpt lon="-2.255341" lat="53.102813"><ele>130.467636</ele><time>2022-03-04T10:25:39Z</time><extensions><speed>0.354564</speed><course>182.081543</course><hAcc>1.712654</hAcc><vAcc>0.821927</vAcc></extensions></trkpt>
      <trkpt lon="-2.255340" lat="53.102810"><ele>130.432953</ele><time>2022-03-04T10:25:40Z</time><extensions><speed>0.395402</speed><course>170.873398</course><hAcc>1.721728</hAcc><vAcc>0.822465</vAcc></extensions></trkpt>
      <trkpt lon="-2.255339" lat="53.102806"><ele>130.396851</ele><time>2022-03-04T10:25:41Z</time><extensions><speed>0.433098</speed><course>162.516617</course><hAcc>1.730145</hAcc><vAcc>0.823017</vAcc></extensions></trkpt>
      <trkpt lon="-2.255336" lat="53.102803"><ele>130.365387</ele><time>2022-03-04T10:25:42Z</time><extensions><speed>0.455556</speed><course>157.424026</course><hAcc>1.736622</hAcc><vAcc>0.823552</vAcc></extensions></trkpt>
      <trkpt lon="-2.255334" lat="53.102799"><ele>130.334763</ele><time>2022-03-04T10:25:43Z</time><extensions><speed>0.462484</speed><course>154.490005</course><hAcc>1.740564</hAcc><vAcc>0.824034</vAcc></extensions></trkpt>
      <trkpt lon="-2.255331" lat="53.102795"><ele>130.304031</ele><time>2022-03-04T10:25:44Z</time><extensions><speed>0.455490</speed><course>152.155396</course><hAcc>1.744543</hAcc><vAcc>0.824432</vAcc></extensions></trkpt>
      <trkpt lon="-2.255327" lat="53.102792"><ele>130.282242</ele><time>2022-03-04T10:25:45Z</time><extensions><speed>0.452597</speed><course>150.666351</course><hAcc>1.747948</hAcc><vAcc>0.824754</vAcc></extensions></trkpt>
      <trkpt lon="-2.255324" lat="53.102788"><ele>130.255569</ele><time>2022-03-04T10:25:46Z</time><extensions><speed>0.459289</speed><course>150.164948</course><hAcc>1.750531</hAcc><vAcc>0.824990</vAcc></extensions></trkpt>
      <trkpt lon="-2.255320" lat="53.102784"><ele>130.227371</ele><time>2022-03-04T10:25:47Z</time><extensions><speed>0.489199</speed><course>150.533875</course><hAcc>1.750720</hAcc><vAcc>0.825104</vAcc></extensions></trkpt>
      <trkpt lon="-2.255316" lat="53.102780"><ele>130.202271</ele><time>2022-03-04T10:25:48Z</time><extensions><speed>0.562595</speed><course>150.956924</course><hAcc>1.745160</hAcc><vAcc>0.825109</vAcc></extensions></trkpt>
      <trkpt lon="-2.255312" lat="53.102775"><ele>130.183075</ele><time>2022-03-04T10:25:49Z</time><extensions><speed>0.717451</speed><course>150.651535</course><hAcc>1.732689</hAcc><vAcc>0.825068</vAcc></extensions></trkpt>
      <trkpt lon="-2.255306" lat="53.102770"><ele>130.163239</ele><time>2022-03-04T10:25:50Z</time><extensions><speed>0.691363</speed><course>149.210571</course><hAcc>1.730591</hAcc><vAcc>0.824948</vAcc></extensions></trkpt>
      <trkpt lon="-2.255301" lat="53.102765"><ele>130.137009</ele><time>2022-03-04T10:25:51Z</time><extensions><speed>0.579661</speed><course>146.814865</course><hAcc>1.737331</hAcc><vAcc>0.824761</vAcc></extensions></trkpt>
      <trkpt lon="-2.255297" lat="53.102761"><ele>130.129822</ele><time>2022-03-04T10:25:52Z</time><extensions><speed>0.360454</speed><course>139.355988</course><hAcc>1.751372</hAcc><vAcc>0.824528</vAcc></extensions></trkpt>
      <trkpt lon="-2.255293" lat="53.102759"><ele>130.114609</ele><time>2022-03-04T10:25:53Z</time><extensions><speed>0.349483</speed><course>129.896286</course><hAcc>1.735526</hAcc><vAcc>0.824236</vAcc></extensions></trkpt>
      <trkpt lon="-2.255289" lat="53.102757"><ele>130.110596</ele><time>2022-03-04T10:25:54Z</time><extensions><speed>0.369226</speed><course>124.025589</course><hAcc>1.727375</hAcc><vAcc>0.823881</vAcc></extensions></trkpt>
      <trkpt lon="-2.255284" lat="53.102755"><ele>130.101501</ele><time>2022-03-04T10:25:55Z</time><extensions><speed>0.407634</speed><course>121.838982</course><hAcc>1.730926</hAcc><vAcc>0.823472</vAcc></extensions></trkpt>
      <trkpt lon="-2.255278" lat="53.102753"><ele>130.105896</ele><time>2022-03-04T10:25:56Z</time><extensions><speed>0.479616</speed><course>121.875870</course><hAcc>1.735549</hAcc><vAcc>0.823093</vAcc></extensions></trkpt>
      <trkpt lon="-2.255272" lat="53.102750"><ele>130.119919</ele><time>2022-03-04T10:25:57Z</time><extensions><speed>0.578138</speed><course>123.868454</course><hAcc>1.740083</hAcc><vAcc>0.822676</vAcc></extensions></trkpt>
      <trkpt lon="-2.255264" lat="53.102747"><ele>130.144333</ele><time>2022-03-04T10:25:58Z</time><extensions><speed>0.713360</speed><course>128.181229</course><hAcc>1.742338</hAcc><vAcc>0.822218</vAcc></extensions></trkpt>
      <trkpt lon="-2.255254" lat="53.102742"><ele>130.178360</ele><time>2022-03-04T10:25:59Z</time><extensions><speed>0.956816</speed><course>133.604126</course><hAcc>1.740341</hAcc><vAcc>0.821802</vAcc></extensions></trkpt>
      <trkpt lon="-2.255244" lat="53.102736"><ele>130.218079</ele><time>2022-03-04T10:26:00Z</time><extensions><speed>0.996412</speed><course>137.439270</course><hAcc>1.754301</hAcc><vAcc>0.821338</vAcc></extensions></trkpt>
      <trkpt lon="-2.255234" lat="53.102729"><ele>130.260086</ele><time>2022-03-04T10:26:01Z</time><extensions><speed>0.976639</speed><course>141.339523</course><hAcc>1.759975</hAcc><vAcc>0.820783</vAcc></extensions></trkpt>
      <trkpt lon="-2.255225" lat="53.102723"><ele>130.304108</ele><time>2022-03-04T10:26:02Z</time><extensions><speed>0.857583</speed><course>135.200150</course><hAcc>1.756581</hAcc><vAcc>0.820139</vAcc></extensions></trkpt>
      <trkpt lon="-2.255216" lat="53.102718"><ele>130.355148</ele><time>2022-03-04T10:26:03Z</time><extensions><speed>0.798073</speed><course>130.186783</course><hAcc>1.761525</hAcc><vAcc>0.819489</vAcc></extensions></trkpt>
      <trkpt lon="-2.255207" lat="53.102713"><ele>130.409317</ele><time>2022-03-04T10:26:04Z</time><extensions><speed>0.736683</speed><course>127.939529</course><hAcc>1.773231</hAcc><vAcc>0.818806</vAcc></extensions></trkpt>
      <trkpt lon="-2.255198" lat="53.102709"><ele>130.472641</ele><time>2022-03-04T10:26:05Z</time><extensions><speed>0.881838</speed><course>128.326294</course><hAcc>1.770306</hAcc><vAcc>0.818115</vAcc></extensions></trkpt>
      <trkpt lon="-2.255186" lat="53.102703"><ele>130.535721</ele><time>2022-03-04T10:26:06Z</time><extensions><speed>1.163743</speed><course>129.204483</course><hAcc>1.760280</hAcc><vAcc>0.817423</vAcc></extensions></trkpt>
      <trkpt lon="-2.255172" lat="53.102696"><ele>130.604004</ele><time>2022-03-04T10:26:07Z</time><extensions><speed>1.268179</speed><course>131.380203</course><hAcc>1.765561</hAcc><vAcc>0.816649</vAcc></extensions></trkpt>
      <trkpt lon="-2.255158" lat="53.102688"><ele>130.684830</ele><time>2022-03-04T10:26:08Z</time><extensions><speed>1.184245</speed><course>134.627045</course><hAcc>1.768607</hAcc><vAcc>0.816003</vAcc></extensions></trkpt>
      <trkpt lon="-2.255147" lat="53.102681"><ele>130.770554</ele><time>2022-03-04T10:26:09Z</time><extensions><speed>0.970171</speed><course>137.559692</course><hAcc>1.770451</hAcc><vAcc>0.815398</vAcc></extensions></trkpt>
      <trkpt lon="-2.255138" lat="53.102676"><ele>130.854294</ele><time>2022-03-04T10:26:10Z</time><extensions><speed>0.782400</speed><course>135.813217</course><hAcc>1.775280</hAcc><vAcc>0.814924</vAcc></extensions></trkpt>
      <trkpt lon="-2.255131" lat="53.102672"><ele>130.950378</ele><time>2022-03-04T10:26:11Z</time><extensions><speed>0.510281</speed><course>127.450089</course><hAcc>1.789707</hAcc><vAcc>0.814561</vAcc></extensions></trkpt>
      <trkpt lon="-2.255124" lat="53.102669"><ele>131.033524</ele><time>2022-03-04T10:26:12Z</time><extensions><speed>0.550214</speed><course>119.865990</course><hAcc>1.775101</hAcc><vAcc>0.814363</vAcc></extensions></trkpt>
      <trkpt lon="-2.255116" lat="53.102667"><ele>131.121201</ele><time>2022-03-04T10:26:13Z</time><extensions><speed>0.624084</speed><course>116.802261</course><hAcc>1.774234</hAcc><vAcc>0.814293</vAcc></extensions></trkpt>
      <trkpt lon="-2.255107" lat="53.102664"><ele>131.204865</ele><time>2022-03-04T10:26:14Z</time><extensions><speed>0.712348</speed><course>116.631828</course><hAcc>1.786000</hAcc><vAcc>0.814364</vAcc></extensions></trkpt>
      <trkpt lon="-2.255097" lat="53.102661"><ele>131.292252</ele><time>2022-03-04T10:26:15Z</time><extensions><speed>0.807885</speed><course>117.924240</course><hAcc>1.797487</hAcc><vAcc>0.814608</vAcc></extensions></trkpt>
      <trkpt lon="-2.255086" lat="53.102657"><ele>131.380020</ele><time>2022-03-04T10:26:16Z</time><extensions><speed>0.902411</speed><course>119.742569</course><hAcc>1.804632</hAcc><vAcc>0.815023</vAcc></extensions></trkpt>
      <trkpt lon="-2.255074" lat="53.102653"><ele>131.473251</ele><time>2022-03-04T10:26:17Z</time><extensions><speed>1.024693</speed><course>121.134087</course><hAcc>1.802677</hAcc><vAcc>0.815595</vAcc></extensions></trkpt>
      <trkpt lon="-2.255060" lat="53.102647"><ele>131.551407</ele><time>2022-03-04T10:26:18Z</time><extensions><speed>1.175962</speed><course>121.864273</course><hAcc>1.792746</hAcc><vAcc>0.816302</vAcc></extensions></trkpt>
      <trkpt lon="-2.255045" lat="53.102642"><ele>131.653488</ele><time>2022-03-04T10:26:19Z</time><extensions><speed>1.148243</speed><course>120.718803</course><hAcc>1.784193</hAcc><vAcc>0.817092</vAcc></extensions></trkpt>
      <trkpt lon="-2.255030" lat="53.102637"><ele>131.727798</ele><time>2022-03-04T10:26:20Z</time><extensions><speed>1.043420</speed><course>118.287865</course><hAcc>1.774822</hAcc><vAcc>0.817948</vAcc></extensions></trkpt>
      <trkpt lon="-2.255017" lat="53.102633"><ele>131.797592</ele><time>2022-03-04T10:26:21Z</time><extensions><speed>0.909325</speed><course>116.537521</course><hAcc>1.771805</hAcc><vAcc>0.818821</vAcc></extensions></trkpt>
      <trkpt lon="-2.255007" lat="53.102630"><ele>131.883606</ele><time>2022-03-04T10:26:22Z</time><extensions><speed>0.626169</speed><course>116.054047</course><hAcc>1.786000</hAcc><vAcc>0.819708</vAcc></extensions></trkpt>
      <trkpt lon="-2.254999" lat="53.102627"><ele>131.950958</ele><time>2022-03-04T10:26:23Z</time><extensions><speed>0.630112</speed><course>116.605156</course><hAcc>1.768674</hAcc><vAcc>0.820554</vAcc></extensions></trkpt>
      <trkpt lon="-2.254990" lat="53.102625"><ele>132.009186</ele><time>2022-03-04T10:26:24Z</time><extensions><speed>0.714943</speed><course>117.449783</course><hAcc>1.748053</hAcc><vAcc>0.821329</vAcc></extensions></trkpt>
      <trkpt lon="-2.254979" lat="53.102621"><ele>132.080338</ele><time>2022-03-04T10:26:25Z</time><extensions><speed>0.882517</speed><course>118.668343</course><hAcc>1.735839</hAcc><vAcc>0.822012</vAcc></extensions></trkpt>
      <trkpt lon="-2.254967" lat="53.102618"><ele>132.140305</ele><time>2022-03-04T10:26:26Z</time><extensions><speed>0.876104</speed><course>115.586975</course><hAcc>1.739752</hAcc><vAcc>0.822592</vAcc></extensions></trkpt>
      <trkpt lon="-2.254956" lat="53.102615"><ele>132.191696</ele><time>2022-03-04T10:26:27Z</time><extensions><speed>0.715132</speed><course>113.442329</course><hAcc>1.740642</hAcc><vAcc>0.823002</vAcc></extensions></trkpt>
      <trkpt lon="-2.254948" lat="53.102612"><ele>132.233902</ele><time>2022-03-04T10:26:28Z</time><extensions><speed>0.527833</speed><course>112.635345</course><hAcc>1.750501</hAcc><vAcc>0.823251</vAcc></extensions></trkpt>
      <trkpt lon="-2.254940" lat="53.102610"><ele>132.284576</ele><time>2022-03-04T10:26:28Z</time><extensions><speed>0.586555</speed><course>115.888054</course><hAcc>1.744864</hAcc><vAcc>0.823310</vAcc></extensions></trkpt>
      <trkpt lon="-2.254931" lat="53.102607"><ele>132.328979</ele><time>2022-03-04T10:26:29Z</time><extensions><speed>0.768171</speed><course>121.669884</course><hAcc>1.746460</hAcc><vAcc>0.823151</vAcc></extensions></trkpt>
      <trkpt lon="-2.254921" lat="53.102603"><ele>132.368057</ele><time>2022-03-04T10:26:30Z</time><extensions><speed>0.853157</speed><course>122.895645</course><hAcc>1.743866</hAcc><vAcc>0.822947</vAcc></extensions></trkpt>
      <trkpt lon="-2.254910" lat="53.102599"><ele>132.402725</ele><time>2022-03-04T10:26:31Z</time><extensions><speed>0.928814</speed><course>124.042946</course><hAcc>1.745910</hAcc><vAcc>0.822618</vAcc></extensions></trkpt>
      <trkpt lon="-2.254898" lat="53.102594"><ele>132.426163</ele><time>2022-03-04T10:26:32Z</time><extensions><speed>0.937418</speed><course>123.876389</course><hAcc>1.741147</hAcc><vAcc>0.822156</vAcc></extensions></trkpt>
      <trkpt lon="-2.254886" lat="53.102590"><ele>132.472137</ele><time>2022-03-04T10:26:33Z</time><extensions><speed>0.953662</speed><course>123.437302</course><hAcc>1.740221</hAcc><vAcc>0.821548</vAcc></extensions></trkpt>
      <trkpt lon="-2.254875" lat="53.102585"><ele>132.485977</ele><time>2022-03-04T10:26:34Z</time><extensions><speed>0.865343</speed><course>123.325874</course><hAcc>1.760905</hAcc><vAcc>0.820886</vAcc></extensions></trkpt>
      <trkpt lon="-2.254866" lat="53.102581"><ele>132.535950</ele><time>2022-03-04T10:26:35Z</time><extensions><speed>0.632701</speed><course>120.400238</course><hAcc>1.781591</hAcc><vAcc>0.820201</vAcc></extensions></trkpt>
      <trkpt lon="-2.254857" lat="53.102579"><ele>132.577377</ele><time>2022-03-04T10:26:36Z</time><extensions><speed>0.679505</speed><course>117.193100</course><hAcc>1.770873</hAcc><vAcc>0.819529</vAcc></extensions></trkpt>
      <trkpt lon="-2.254847" lat="53.102576"><ele>132.606140</ele><time>2022-03-04T10:26:37Z</time><extensions><speed>0.747196</speed><course>115.138504</course><hAcc>1.770031</hAcc><vAcc>0.818873</vAcc></extensions></trkpt>
      <trkpt lon="-2.254836" lat="53.102573"><ele>132.649109</ele><time>2022-03-04T10:26:38Z</time><extensions><speed>0.857714</speed><course>114.573036</course><hAcc>1.774057</hAcc><vAcc>0.818294</vAcc></extensions></trkpt>
      <trkpt lon="-2.254823" lat="53.102569"><ele>132.691498</ele><time>2022-03-04T10:26:39Z</time><extensions><speed>1.082079</speed><course>114.322411</course><hAcc>1.769844</hAcc><vAcc>0.817825</vAcc></extensions></trkpt>
      <trkpt lon="-2.254808" lat="53.102565"><ele>132.733047</ele><time>2022-03-04T10:26:40Z</time><extensions><speed>1.100715</speed><course>115.614410</course><hAcc>1.784579</hAcc><vAcc>0.817465</vAcc></extensions></trkpt>
      <trkpt lon="-2.254794" lat="53.102560"><ele>132.781326</ele><time>2022-03-04T10:26:41Z</time><extensions><speed>1.073736</speed><course>118.687592</course><hAcc>1.787387</hAcc><vAcc>0.817243</vAcc></extensions></trkpt>
      <trkpt lon="-2.254780" lat="53.102556"><ele>132.831116</ele><time>2022-03-04T10:26:42Z</time><extensions><speed>1.011804</speed><course>120.994499</course><hAcc>1.778583</hAcc><vAcc>0.817147</vAcc></extensions></trkpt>
      <trkpt lon="-2.254767" lat="53.102551"><ele>132.900604</ele><time>2022-03-04T10:26:43Z</time><extensions><speed>1.010645</speed><course>119.572197</course><hAcc>1.775243</hAcc><vAcc>0.817169</vAcc></extensions></trkpt>
      <trkpt lon="-2.254754" lat="53.102547"><ele>132.982056</ele><time>2022-03-04T10:26:44Z</time><extensions><speed>1.036066</speed><course>119.798820</course><hAcc>1.772838</hAcc><vAcc>0.817320</vAcc></extensions></trkpt>
      <trkpt lon="-2.254740" lat="53.102542"><ele>133.043961</ele><time>2022-03-04T10:26:45Z</time><extensions><speed>0.984695</speed><course>116.259140</course><hAcc>1.767222</hAcc><vAcc>0.817603</vAcc></extensions></trkpt>
      <trkpt lon="-2.254727" lat="53.102538"><ele>133.108047</ele><time>2022-03-04T10:26:46Z</time><extensions><speed>1.009202</speed><course>116.595215</course><hAcc>1.766145</hAcc><vAcc>0.817962</vAcc></extensions></trkpt>
      <trkpt lon="-2.254713" lat="53.102534"><ele>133.182602</ele><time>2022-03-04T10:26:47Z</time><extensions><speed>0.975832</speed><course>113.730225</course><hAcc>1.760254</hAcc><vAcc>0.818380</vAcc></extensions></trkpt>
      <trkpt lon="-2.254701" lat="53.102531"><ele>133.256653</ele><time>2022-03-04T10:26:48Z</time><extensions><speed>0.814011</speed><course>109.889503</course><hAcc>1.758608</hAcc><vAcc>0.818845</vAcc></extensions></trkpt>
      <trkpt lon="-2.254689" lat="53.102529"><ele>133.338303</ele><time>2022-03-04T10:26:49Z</time><extensions><speed>0.892867</speed><course>107.607513</course><hAcc>1.753641</hAcc><vAcc>0.819357</vAcc></extensions></trkpt>
      <trkpt lon="-2.254677" lat="53.102526"><ele>133.409485</ele><time>2022-03-04T10:26:50Z</time><extensions><speed>0.815891</speed><course>111.401375</course><hAcc>1.768760</hAcc><vAcc>0.819892</vAcc></extensions></trkpt>
      <trkpt lon="-2.254663" lat="53.102523"><ele>133.479889</ele><time>2022-03-04T10:26:51Z</time><extensions><speed>1.133457</speed><course>113.387352</course><hAcc>1.747341</hAcc><vAcc>0.820456</vAcc></extensions></trkpt>
      <trkpt lon="-2.254647" lat="53.102518"><ele>133.553787</ele><time>2022-03-04T10:26:52Z</time><extensions><speed>1.269545</speed><course>114.990166</course><hAcc>1.748458</hAcc><vAcc>0.821005</vAcc></extensions></trkpt>
      <trkpt lon="-2.254630" lat="53.102514"><ele>133.639587</ele><time>2022-03-04T10:26:53Z</time><extensions><speed>1.223285</speed><course>116.854103</course><hAcc>1.751296</hAcc><vAcc>0.821570</vAcc></extensions></trkpt>
      <trkpt lon="-2.254614" lat="53.102509"><ele>133.710312</ele><time>2022-03-04T10:26:54Z</time><extensions><speed>1.153786</speed><course>117.382240</course><hAcc>1.742396</hAcc><vAcc>0.822108</vAcc></extensions></trkpt>
      <trkpt lon="-2.254599" lat="53.102504"><ele>133.776642</ele><time>2022-03-04T10:26:55Z</time><extensions><speed>1.109713</speed><course>120.441589</course><hAcc>1.729927</hAcc><vAcc>0.822615</vAcc></extensions></trkpt>
      <trkpt lon="-2.254585" lat="53.102499"><ele>133.833817</ele><time>2022-03-04T10:26:56Z</time><extensions><speed>1.001065</speed><course>121.810829</course><hAcc>1.737170</hAcc><vAcc>0.823101</vAcc></extensions></trkpt>
      <trkpt lon="-2.254574" lat="53.102495"><ele>133.898544</ele><time>2022-03-04T10:26:57Z</time><extensions><speed>0.728723</speed><course>120.939735</course><hAcc>1.752407</hAcc><vAcc>0.823542</vAcc></extensions></trkpt>
      <trkpt lon="-2.254564" lat="53.102491"><ele>133.940353</ele><time>2022-03-04T10:26:58Z</time><extensions><speed>0.878872</speed><course>121.060440</course><hAcc>1.729424</hAcc><vAcc>0.823946</vAcc></extensions></trkpt>
      <trkpt lon="-2.254553" lat="53.102487"><ele>133.987320</ele><time>2022-03-04T10:26:59Z</time><extensions><speed>0.858371</speed><course>121.862671</course><hAcc>1.726954</hAcc><vAcc>0.824320</vAcc></extensions></trkpt>
      <trkpt lon="-2.254541" lat="53.102482"><ele>134.031189</ele><time>2022-03-04T10:27:00Z</time><extensions><speed>1.069469</speed><course>122.291031</course><hAcc>1.721313</hAcc><vAcc>0.824652</vAcc></extensions></trkpt>
      <trkpt lon="-2.254526" lat="53.102477"><ele>134.087036</ele><time>2022-03-04T10:27:01Z</time><extensions><speed>1.188400</speed><course>119.661896</course><hAcc>1.731554</hAcc><vAcc>0.824949</vAcc></extensions></trkpt>
      <trkpt lon="-2.254510" lat="53.102472"><ele>134.135681</ele><time>2022-03-04T10:27:02Z</time><extensions><speed>1.266462</speed><course>118.155266</course><hAcc>1.733851</hAcc><vAcc>0.825205</vAcc></extensions></trkpt>
      <trkpt lon="-2.254494" lat="53.102466"><ele>134.182343</ele><time>2022-03-04T10:27:03Z</time><extensions><speed>1.208700</speed><course>119.238640</course><hAcc>1.734577</hAcc><vAcc>0.825423</vAcc></extensions></trkpt>
      <trkpt lon="-2.254478" lat="53.102461"><ele>134.217285</ele><time>2022-03-04T10:27:04Z</time><extensions><speed>1.138321</speed><course>120.032112</course><hAcc>1.732412</hAcc><vAcc>0.825581</vAcc></extensions></trkpt>
      <trkpt lon="-2.254464" lat="53.102456"><ele>134.255966</ele><time>2022-03-04T10:27:05Z</time><extensions><speed>1.064079</speed><course>119.387604</course><hAcc>1.732586</hAcc><vAcc>0.825701</vAcc></extensions></trkpt>
      <trkpt lon="-2.254450" lat="53.102452"><ele>134.283737</ele><time>2022-03-04T10:27:06Z</time><extensions><speed>1.052845</speed><course>117.893265</course><hAcc>1.730353</hAcc><vAcc>0.825761</vAcc></extensions></trkpt>
      <trkpt lon="-2.254436" lat="53.102447"><ele>134.308380</ele><time>2022-03-04T10:27:07Z</time><extensions><speed>1.059098</speed><course>115.664604</course><hAcc>1.727394</hAcc><vAcc>0.825738</vAcc></extensions></trkpt>
      <trkpt lon="-2.254421" lat="53.102443"><ele>134.319839</ele><time>2022-03-04T10:27:08Z</time><extensions><speed>1.116186</speed><course>116.137276</course><hAcc>1.732453</hAcc><vAcc>0.825660</vAcc></extensions></trkpt>
      <trkpt lon="-2.254405" lat="53.102438"><ele>134.341309</ele><time>2022-03-04T10:27:09Z</time><extensions><speed>1.196592</speed><course>117.281303</course><hAcc>1.731482</hAcc><vAcc>0.825589</vAcc></extensions></trkpt>
      <trkpt lon="-2.254389" lat="53.102433"><ele>134.364258</ele><time>2022-03-04T10:27:10Z</time><extensions><speed>1.242120</speed><course>118.399689</course><hAcc>1.732033</hAcc><vAcc>0.825507</vAcc></extensions></trkpt>
      <trkpt lon="-2.254373" lat="53.102428"><ele>134.381149</ele><time>2022-03-04T10:27:11Z</time><extensions><speed>1.226431</speed><course>119.877068</course><hAcc>1.731050</hAcc><vAcc>0.825416</vAcc></extensions></trkpt>
      <trkpt lon="-2.254357" lat="53.102422"><ele>134.391327</ele><time>2022-03-04T10:27:12Z</time><extensions><speed>1.207637</speed><course>120.052269</course><hAcc>1.729066</hAcc><vAcc>0.825328</vAcc></extensions></trkpt>
      <trkpt lon="-2.254341" lat="53.102417"><ele>134.401749</ele><time>2022-03-04T10:27:13Z</time><extensions><speed>1.201353</speed><course>119.513481</course><hAcc>1.725472</hAcc><vAcc>0.825241</vAcc></extensions></trkpt>
      <trkpt lon="-2.254326" lat="53.102412"><ele>134.425400</ele><time>2022-03-04T10:27:14Z</time><extensions><speed>1.055329</speed><course>118.134048</course><hAcc>1.721946</hAcc><vAcc>0.825139</vAcc></extensions></trkpt>
      <trkpt lon="-2.254313" lat="53.102408"><ele>134.453537</ele><time>2022-03-04T10:27:15Z</time><extensions><speed>0.876837</speed><course>117.071457</course><hAcc>1.729082</hAcc><vAcc>0.825110</vAcc></extensions></trkpt>
      <trkpt lon="-2.254300" lat="53.102404"><ele>134.474823</ele><time>2022-03-04T10:27:16Z</time><extensions><speed>1.000628</speed><course>116.076431</course><hAcc>1.710240</hAcc><vAcc>0.825113</vAcc></extensions></trkpt>
      <trkpt lon="-2.254285" lat="53.102400"><ele>134.485168</ele><time>2022-03-04T10:27:17Z</time><extensions><speed>1.201543</speed><course>115.000618</course><hAcc>1.683248</hAcc><vAcc>0.825163</vAcc></extensions></trkpt>
      <trkpt lon="-2.254267" lat="53.102395"><ele>134.500366</ele><time>2022-03-04T10:27:18Z</time><extensions><speed>1.464579</speed><course>114.002258</course><hAcc>1.665558</hAcc><vAcc>0.825272</vAcc></extensions></trkpt>
      <trkpt lon="-2.254246" lat="53.102389"><ele>134.508377</ele><time>2022-03-04T10:27:19Z</time><extensions><speed>1.442135</speed><course>112.259041</course><hAcc>1.675010</hAcc><vAcc>0.825413</vAcc></extensions></trkpt>
      <trkpt lon="-2.254226" lat="53.102385"><ele>134.526642</ele><time>2022-03-04T10:27:20Z</time><extensions><speed>1.417637</speed><course>110.738708</course><hAcc>1.675883</hAcc><vAcc>0.825632</vAcc></extensions></trkpt>
      <trkpt lon="-2.254207" lat="53.102380"><ele>134.560577</ele><time>2022-03-04T10:27:21Z</time><extensions><speed>1.391334</speed><course>109.966553</course><hAcc>1.677587</hAcc><vAcc>0.825893</vAcc></extensions></trkpt>
      <trkpt lon="-2.254187" lat="53.102376"><ele>134.598038</ele><time>2022-03-04T10:27:22Z</time><extensions><speed>1.411872</speed><course>109.981155</course><hAcc>1.654125</hAcc><vAcc>0.826185</vAcc></extensions></trkpt>
      <trkpt lon="-2.254168" lat="53.102372"><ele>134.622208</ele><time>2022-03-04T10:27:23Z</time><extensions><speed>1.298514</speed><course>109.704506</course><hAcc>1.652048</hAcc><vAcc>0.826501</vAcc></extensions></trkpt>
      <trkpt lon="-2.254149" lat="53.102368"><ele>134.636642</ele><time>2022-03-04T10:27:24Z</time><extensions><speed>1.345922</speed><course>106.911797</course><hAcc>1.655932</hAcc><vAcc>0.826810</vAcc></extensions></trkpt>
      <trkpt lon="-2.254130" lat="53.102364"><ele>134.661758</ele><time>2022-03-04T10:27:25Z</time><extensions><speed>1.320134</speed><course>108.549400</course><hAcc>1.677109</hAcc><vAcc>0.827124</vAcc></extensions></trkpt>
      <trkpt lon="-2.254112" lat="53.102361"><ele>134.684372</ele><time>2022-03-04T10:27:26Z</time><extensions><speed>1.179186</speed><course>110.491386</course><hAcc>1.687388</hAcc><vAcc>0.827434</vAcc></extensions></trkpt>
      <trkpt lon="-2.254096" lat="53.102357"><ele>134.720184</ele><time>2022-03-04T10:27:27Z</time><extensions><speed>0.991543</speed><course>110.776604</course><hAcc>1.683624</hAcc><vAcc>0.827720</vAcc></extensions></trkpt>
      <trkpt lon="-2.254081" lat="53.102353"><ele>134.751236</ele><time>2022-03-04T10:27:28Z</time><extensions><speed>1.125851</speed><course>112.460770</course><hAcc>1.668426</hAcc><vAcc>0.827989</vAcc></extensions></trkpt>
      <trkpt lon="-2.254065" lat="53.102349"><ele>134.790009</ele><time>2022-03-04T10:27:29Z</time><extensions><speed>1.209976</speed><course>111.863487</course><hAcc>1.661688</hAcc><vAcc>0.828248</vAcc></extensions></trkpt>
      <trkpt lon="-2.254046" lat="53.102345"><ele>134.823029</ele><time>2022-03-04T10:27:30Z</time><extensions><speed>1.498848</speed><course>112.560684</course><hAcc>1.654654</hAcc><vAcc>0.828459</vAcc></extensions></trkpt>
      <trkpt lon="-2.254025" lat="53.102339"><ele>134.848923</ele><time>2022-03-04T10:27:31Z</time><extensions><speed>1.552599</speed><course>112.421959</course><hAcc>1.627142</hAcc><vAcc>0.828613</vAcc></extensions></trkpt>
      <trkpt lon="-2.254004" lat="53.102334"><ele>134.871170</ele><time>2022-03-04T10:27:32Z</time><extensions><speed>1.387848</speed><course>112.702789</course><hAcc>1.622445</hAcc><vAcc>0.828699</vAcc></extensions></trkpt>
      <trkpt lon="-2.253986" lat="53.102330"><ele>134.884201</ele><time>2022-03-04T10:27:33Z</time><extensions><speed>1.244586</speed><course>112.530365</course><hAcc>1.641248</hAcc><vAcc>0.828720</vAcc></extensions></trkpt>
      <trkpt lon="-2.253969" lat="53.102325"><ele>134.896149</ele><time>2022-03-04T10:27:34Z</time><extensions><speed>1.116883</speed><course>114.201912</course><hAcc>1.664349</hAcc><vAcc>0.828699</vAcc></extensions></trkpt>
      <trkpt lon="-2.253952" lat="53.102320"><ele>134.912323</ele><time>2022-03-04T10:27:35Z</time><extensions><speed>1.375852</speed><course>117.012962</course><hAcc>1.609307</hAcc><vAcc>0.828616</vAcc></extensions></trkpt>
      <trkpt lon="-2.253933" lat="53.102314"><ele>134.917480</ele><time>2022-03-04T10:27:36Z</time><extensions><speed>1.460191</speed><course>118.661758</course><hAcc>1.595613</hAcc><vAcc>0.828542</vAcc></extensions></trkpt>
      <trkpt lon="-2.253914" lat="53.102308"><ele>134.888901</ele><time>2022-03-04T10:27:37Z</time><extensions><speed>1.478392</speed><course>119.929131</course><hAcc>1.621717</hAcc><vAcc>0.828406</vAcc></extensions></trkpt>
      <trkpt lon="-2.253895" lat="53.102301"><ele>134.848389</ele><time>2022-03-04T10:27:38Z</time><extensions><speed>1.353581</speed><course>120.056976</course><hAcc>1.664196</hAcc><vAcc>0.828297</vAcc></extensions></trkpt>
      <trkpt lon="-2.253878" lat="53.102296"><ele>134.809372</ele><time>2022-03-04T10:27:39Z</time><extensions><speed>1.267558</speed><course>119.217438</course><hAcc>1.664417</hAcc><vAcc>0.828154</vAcc></extensions></trkpt>
      <trkpt lon="-2.253863" lat="53.102290"><ele>134.778473</ele><time>2022-03-04T10:27:40Z</time><extensions><speed>1.095103</speed><course>117.111046</course><hAcc>1.670236</hAcc><vAcc>0.827986</vAcc></extensions></trkpt>
      <trkpt lon="-2.253849" lat="53.102287"><ele>134.730667</ele><time>2022-03-04T10:27:41Z</time><extensions><speed>0.831556</speed><course>114.148285</course><hAcc>1.702207</hAcc><vAcc>0.827816</vAcc></extensions></trkpt>
      <trkpt lon="-2.253836" lat="53.102283"><ele>134.672699</ele><time>2022-03-04T10:27:42Z</time><extensions><speed>1.129507</speed><course>111.587341</course><hAcc>1.684740</hAcc><vAcc>0.827641</vAcc></extensions></trkpt>
      <trkpt lon="-2.253820" lat="53.102279"><ele>134.615173</ele><time>2022-03-04T10:27:44Z</time><extensions><speed>1.124993</speed><course>111.313950</course><hAcc>1.700130</hAcc><vAcc>0.827526</vAcc></extensions></trkpt>
      <trkpt lon="-2.253805" lat="53.102276"><ele>134.554367</ele><time>2022-03-04T10:27:45Z</time><extensions><speed>1.023001</speed><course>113.469215</course><hAcc>1.725122</hAcc><vAcc>0.827410</vAcc></extensions></trkpt>
      <trkpt lon="-2.253789" lat="53.102271"><ele>134.494553</ele><time>2022-03-04T10:27:46Z</time><extensions><speed>1.330339</speed><course>115.310570</course><hAcc>1.707448</hAcc><vAcc>0.827325</vAcc></extensions></trkpt>
      <trkpt lon="-2.253771" lat="53.102266"><ele>134.440216</ele><time>2022-03-04T10:27:47Z</time><extensions><speed>1.317919</speed><course>115.967171</course><hAcc>1.717349</hAcc><vAcc>0.827246</vAcc></extensions></trkpt>
      <trkpt lon="-2.253754" lat="53.102261"><ele>134.393677</ele><time>2022-03-04T10:27:48Z</time><extensions><speed>1.222543</speed><course>116.356377</course><hAcc>1.744862</hAcc><vAcc>0.827225</vAcc></extensions></trkpt>
      <trkpt lon="-2.253737" lat="53.102256"><ele>134.362045</ele><time>2022-03-04T10:27:49Z</time><extensions><speed>1.282728</speed><course>120.013306</course><hAcc>1.747131</hAcc><vAcc>0.827204</vAcc></extensions></trkpt>
      <trkpt lon="-2.253720" lat="53.102249"><ele>134.339294</ele><time>2022-03-04T10:27:50Z</time><extensions><speed>1.395608</speed><course>121.932243</course><hAcc>1.725254</hAcc><vAcc>0.827211</vAcc></extensions></trkpt>
      <trkpt lon="-2.253702" lat="53.102243"><ele>134.339523</ele><time>2022-03-04T10:27:51Z</time><extensions><speed>1.461830</speed><course>122.360825</course><hAcc>1.713368</hAcc><vAcc>0.827246</vAcc></extensions></trkpt>
      <trkpt lon="-2.253683" lat="53.102235"><ele>134.340881</ele><time>2022-03-04T10:27:52Z</time><extensions><speed>1.473954</speed><course>123.240387</course><hAcc>1.714327</hAcc><vAcc>0.827321</vAcc></extensions></trkpt>
      <trkpt lon="-2.253664" lat="53.102228"><ele>134.348053</ele><time>2022-03-04T10:27:53Z</time><extensions><speed>1.524766</speed><course>123.367622</course><hAcc>1.719249</hAcc><vAcc>0.827438</vAcc></extensions></trkpt>
      <trkpt lon="-2.253645" lat="53.102220"><ele>134.367462</ele><time>2022-03-04T10:27:54Z</time><extensions><speed>1.569497</speed><course>123.361519</course><hAcc>1.717640</hAcc><vAcc>0.827585</vAcc></extensions></trkpt>
      <trkpt lon="-2.253626" lat="53.102213"><ele>134.403992</ele><time>2022-03-04T10:27:55Z</time><extensions><speed>1.488830</speed><course>124.445045</course><hAcc>1.691797</hAcc><vAcc>0.827757</vAcc></extensions></trkpt>
      <trkpt lon="-2.253608" lat="53.102205"><ele>134.442444</ele><time>2022-03-04T10:27:56Z</time><extensions><speed>1.453105</speed><course>125.746605</course><hAcc>1.664171</hAcc><vAcc>0.827940</vAcc></extensions></trkpt>
      <trkpt lon="-2.253590" lat="53.102197"><ele>134.477585</ele><time>2022-03-04T10:27:57Z</time><extensions><speed>1.520776</speed><course>126.246353</course><hAcc>1.625714</hAcc><vAcc>0.828131</vAcc></extensions></trkpt>
      <trkpt lon="-2.253570" lat="53.102189"><ele>134.513565</ele><time>2022-03-04T10:27:58Z</time><extensions><speed>1.703009</speed><course>125.607292</course><hAcc>1.585576</hAcc><vAcc>0.828333</vAcc></extensions></trkpt>
      <trkpt lon="-2.253548" lat="53.102180"><ele>134.555939</ele><time>2022-03-04T10:27:59Z</time><extensions><speed>1.844734</speed><course>123.856354</course><hAcc>1.535855</hAcc><vAcc>0.828507</vAcc></extensions></trkpt>
      <trkpt lon="-2.253525" lat="53.102171"><ele>134.575424</ele><time>2022-03-04T10:28:00Z</time><extensions><speed>1.884299</speed><course>123.289787</course><hAcc>1.506033</hAcc><vAcc>0.828659</vAcc></extensions></trkpt>
      <trkpt lon="-2.253502" lat="53.102162"><ele>134.589981</ele><time>2022-03-04T10:28:01Z</time><extensions><speed>1.844640</speed><course>123.281876</course><hAcc>1.492561</hAcc><vAcc>0.828774</vAcc></extensions></trkpt>
      <trkpt lon="-2.253480" lat="53.102153"><ele>134.591797</ele><time>2022-03-04T10:28:02Z</time><extensions><speed>1.808055</speed><course>124.283104</course><hAcc>1.464935</hAcc><vAcc>0.828863</vAcc></extensions></trkpt>
      <trkpt lon="-2.253458" lat="53.102144"><ele>134.594467</ele><time>2022-03-04T10:28:03Z</time><extensions><speed>1.758129</speed><course>126.009048</course><hAcc>1.443951</hAcc><vAcc>0.828913</vAcc></extensions></trkpt>
      <trkpt lon="-2.253438" lat="53.102135"><ele>134.582184</ele><time>2022-03-04T10:28:04Z</time><extensions><speed>1.692861</speed><course>125.384216</course><hAcc>1.420105</hAcc><vAcc>0.828915</vAcc></extensions></trkpt>
      <trkpt lon="-2.253417" lat="53.102127"><ele>134.555695</ele><time>2022-03-04T10:28:05Z</time><extensions><speed>1.632304</speed><course>118.729118</course><hAcc>1.407444</hAcc><vAcc>0.828874</vAcc></extensions></trkpt>
      <trkpt lon="-2.253395" lat="53.102120"><ele>134.533646</ele><time>2022-03-04T10:28:06Z</time><extensions><speed>1.670467</speed><course>116.099937</course><hAcc>1.413048</hAcc><vAcc>0.828801</vAcc></extensions></trkpt>
      <trkpt lon="-2.253374" lat="53.102114"><ele>134.524307</ele><time>2022-03-04T10:28:07Z</time><extensions><speed>1.587087</speed><course>113.594917</course><hAcc>1.406228</hAcc><vAcc>0.828676</vAcc></extensions></trkpt>
      <trkpt lon="-2.253353" lat="53.102109"><ele>134.509521</ele><time>2022-03-04T10:28:08Z</time><extensions><speed>1.519138</speed><course>109.577431</course><hAcc>1.401792</hAcc><vAcc>0.828527</vAcc></extensions></trkpt>
      <trkpt lon="-2.253331" lat="53.102105"><ele>134.488586</ele><time>2022-03-04T10:28:09Z</time><extensions><speed>1.487830</speed><course>107.095802</course><hAcc>1.395003</hAcc><vAcc>0.828359</vAcc></extensions></trkpt>
      <trkpt lon="-2.253310" lat="53.102102"><ele>134.477234</ele><time>2022-03-04T10:28:10Z</time><extensions><speed>1.464967</speed><course>103.143311</course><hAcc>1.389207</hAcc><vAcc>0.828178</vAcc></extensions></trkpt>
      <trkpt lon="-2.253289" lat="53.102099"><ele>134.464661</ele><time>2022-03-04T10:28:11Z</time><extensions><speed>1.535375</speed><course>102.607887</course><hAcc>1.410278</hAcc><vAcc>0.827986</vAcc></extensions></trkpt>
      <trkpt lon="-2.253267" lat="53.102096"><ele>134.451965</ele><time>2022-03-04T10:28:12Z</time><extensions><speed>1.472800</speed><course>104.310806</course><hAcc>1.404641</hAcc><vAcc>0.827788</vAcc></extensions></trkpt>
      <trkpt lon="-2.253246" lat="53.102093"><ele>134.426971</ele><time>2022-03-04T10:28:13Z</time><extensions><speed>1.497443</speed><course>102.139946</course><hAcc>1.393279</hAcc><vAcc>0.827598</vAcc></extensions></trkpt>
      <trkpt lon="-2.253224" lat="53.102091"><ele>134.398666</ele><time>2022-03-04T10:28:14Z</time><extensions><speed>1.535832</speed><course>97.671600</course><hAcc>1.392983</hAcc><vAcc>0.827437</vAcc></extensions></trkpt>
      <trkpt lon="-2.253202" lat="53.102089"><ele>134.382416</ele><time>2022-03-04T10:28:15Z</time><extensions><speed>1.493128</speed><course>99.351707</course><hAcc>1.380009</hAcc><vAcc>0.827310</vAcc></extensions></trkpt>
      <trkpt lon="-2.253180" lat="53.102087"><ele>134.379593</ele><time>2022-03-04T10:28:16Z</time><extensions><speed>1.517282</speed><course>99.672523</course><hAcc>1.384326</hAcc><vAcc>0.827203</vAcc></extensions></trkpt>
      <trkpt lon="-2.253158" lat="53.102084"><ele>134.365021</ele><time>2022-03-04T10:28:17Z</time><extensions><speed>1.508164</speed><course>102.780617</course><hAcc>1.387464</hAcc><vAcc>0.827145</vAcc></extensions></trkpt>
      <trkpt lon="-2.253136" lat="53.102082"><ele>134.358063</ele><time>2022-03-04T10:28:18Z</time><extensions><speed>1.519634</speed><course>98.273682</course><hAcc>1.382240</hAcc><vAcc>0.827131</vAcc></extensions></trkpt>
      <trkpt lon="-2.253114" lat="53.102080"><ele>134.360138</ele><time>2022-03-04T10:28:19Z</time><extensions><speed>1.530559</speed><course>94.467216</course><hAcc>1.379955</hAcc><vAcc>0.827152</vAcc></extensions></trkpt>
      <trkpt lon="-2.253092" lat="53.102079"><ele>134.359787</ele><time>2022-03-04T10:28:20Z</time><extensions><speed>1.556200</speed><course>93.423363</course><hAcc>1.388682</hAcc><vAcc>0.827213</vAcc></extensions></trkpt>
      <trkpt lon="-2.253069" lat="53.102079"><ele>134.375183</ele><time>2022-03-04T10:28:21Z</time><extensions><speed>1.498904</speed><course>92.845970</course><hAcc>1.384430</hAcc><vAcc>0.827315</vAcc></extensions></trkpt>
      <trkpt lon="-2.253047" lat="53.102078"><ele>134.392273</ele><time>2022-03-04T10:28:22Z</time><extensions><speed>1.472474</speed><course>93.045830</course><hAcc>1.382339</hAcc><vAcc>0.827437</vAcc></extensions></trkpt>
      <trkpt lon="-2.253026" lat="53.102078"><ele>134.404541</ele><time>2022-03-04T10:28:23Z</time><extensions><speed>1.417828</speed><course>91.873230</course><hAcc>1.372769</hAcc><vAcc>0.827585</vAcc></extensions></trkpt>
      <trkpt lon="-2.253005" lat="53.102077"><ele>134.429062</ele><time>2022-03-04T10:28:24Z</time><extensions><speed>1.456781</speed><course>93.150414</course><hAcc>1.390908</hAcc><vAcc>0.827748</vAcc></extensions></trkpt>
      <trkpt lon="-2.252984" lat="53.102076"><ele>134.458252</ele><time>2022-03-04T10:28:25Z</time><extensions><speed>1.489884</speed><course>95.920876</course><hAcc>1.388266</hAcc><vAcc>0.827908</vAcc></extensions></trkpt>
      <trkpt lon="-2.252962" lat="53.102075"><ele>134.473938</ele><time>2022-03-04T10:28:26Z</time><extensions><speed>1.466633</speed><course>96.013908</course><hAcc>1.382121</hAcc><vAcc>0.828066</vAcc></extensions></trkpt>
      <trkpt lon="-2.252940" lat="53.102073"><ele>134.490295</ele><time>2022-03-04T10:28:27Z</time><extensions><speed>1.474834</speed><course>95.330727</course><hAcc>1.378327</hAcc><vAcc>0.828210</vAcc></extensions></trkpt>
      <trkpt lon="-2.252919" lat="53.102072"><ele>134.493912</ele><time>2022-03-04T10:28:28Z</time><extensions><speed>1.496673</speed><course>94.909294</course><hAcc>1.379974</hAcc><vAcc>0.828335</vAcc></extensions></trkpt>
      <trkpt lon="-2.252897" lat="53.102071"><ele>134.508453</ele><time>2022-03-04T10:28:29Z</time><extensions><speed>1.500281</speed><course>95.543770</course><hAcc>1.384043</hAcc><vAcc>0.828434</vAcc></extensions></trkpt>
      <trkpt lon="-2.252875" lat="53.102070"><ele>134.519806</ele><time>2022-03-04T10:28:30Z</time><extensions><speed>1.532742</speed><course>97.249039</course><hAcc>1.393425</hAcc><vAcc>0.828516</vAcc></extensions></trkpt>
      <trkpt lon="-2.252853" lat="53.102068"><ele>134.536926</ele><time>2022-03-04T10:28:31Z</time><extensions><speed>1.484370</speed><course>96.758400</course><hAcc>1.395860</hAcc><vAcc>0.828560</vAcc></extensions></trkpt>
      <trkpt lon="-2.252832" lat="53.102066"><ele>134.535172</ele><time>2022-03-04T10:28:32Z</time><extensions><speed>1.436656</speed><course>97.738365</course><hAcc>1.386179</hAcc><vAcc>0.828555</vAcc></extensions></trkpt>
      <trkpt lon="-2.252811" lat="53.102065"><ele>134.505524</ele><time>2022-03-04T10:28:32Z</time><extensions><speed>1.401658</speed><course>95.515846</course><hAcc>1.378571</hAcc><vAcc>0.828539</vAcc></extensions></trkpt>
      <trkpt lon="-2.252790" lat="53.102064"><ele>134.470444</ele><time>2022-03-04T10:28:33Z</time><extensions><speed>1.445026</speed><course>96.017883</course><hAcc>1.403883</hAcc><vAcc>0.828507</vAcc></extensions></trkpt>
      <trkpt lon="-2.252769" lat="53.102062"><ele>134.421371</ele><time>2022-03-04T10:28:34Z</time><extensions><speed>1.481086</speed><course>101.955566</course><hAcc>1.408635</hAcc><vAcc>0.828462</vAcc></extensions></trkpt>
      <trkpt lon="-2.252748" lat="53.102059"><ele>134.362671</ele><time>2022-03-04T10:28:35Z</time><extensions><speed>1.510147</speed><course>106.555939</course><hAcc>1.407751</hAcc><vAcc>0.828396</vAcc></extensions></trkpt>
      <trkpt lon="-2.252727" lat="53.102055"><ele>134.302475</ele><time>2022-03-04T10:28:36Z</time><extensions><speed>1.501700</speed><course>109.897537</course><hAcc>1.403881</hAcc><vAcc>0.828308</vAcc></extensions></trkpt>
      <trkpt lon="-2.252706" lat="53.102051"><ele>134.244858</ele><time>2022-03-04T10:28:37Z</time><extensions><speed>1.478016</speed><course>109.159851</course><hAcc>1.402281</hAcc><vAcc>0.828185</vAcc></extensions></trkpt>
      <trkpt lon="-2.252686" lat="53.102047"><ele>134.178787</ele><time>2022-03-04T10:28:38Z</time><extensions><speed>1.428785</speed><course>107.663559</course><hAcc>1.393429</hAcc><vAcc>0.828041</vAcc></extensions></trkpt>
      <trkpt lon="-2.252665" lat="53.102043"><ele>134.117188</ele><time>2022-03-04T10:28:39Z</time><extensions><speed>1.413610</speed><course>106.907318</course><hAcc>1.392806</hAcc><vAcc>0.827870</vAcc></extensions></trkpt>
      <trkpt lon="-2.252645" lat="53.102040"><ele>134.056305</ele><time>2022-03-04T10:28:40Z</time><extensions><speed>1.451802</speed><course>109.899284</course><hAcc>1.395394</hAcc><vAcc>0.827691</vAcc></extensions></trkpt>
      <trkpt lon="-2.252625" lat="53.102036"><ele>134.016495</ele><time>2022-03-04T10:28:41Z</time><extensions><speed>1.450937</speed><course>112.540154</course><hAcc>1.395225</hAcc><vAcc>0.827485</vAcc></extensions></trkpt>
      <trkpt lon="-2.252606" lat="53.102030"><ele>133.950989</ele><time>2022-03-04T10:28:42Z</time><extensions><speed>1.332678</speed><course>118.644859</course><hAcc>1.398634</hAcc><vAcc>0.827291</vAcc></extensions></trkpt>
      <trkpt lon="-2.252589" lat="53.102026"><ele>133.898941</ele><time>2022-03-04T10:28:43Z</time><extensions><speed>1.429806</speed><course>112.979340</course><hAcc>1.401477</hAcc><vAcc>0.827125</vAcc></extensions></trkpt>
      <trkpt lon="-2.252569" lat="53.102022"><ele>133.852859</ele><time>2022-03-04T10:28:44Z</time><extensions><speed>1.456741</speed><course>102.747681</course><hAcc>1.402004</hAcc><vAcc>0.826957</vAcc></extensions></trkpt>
      <trkpt lon="-2.252548" lat="53.102020"><ele>133.820755</ele><time>2022-03-04T10:28:45Z</time><extensions><speed>1.499340</speed><course>95.450150</course><hAcc>1.400902</hAcc><vAcc>0.826805</vAcc></extensions></trkpt>
      <trkpt lon="-2.252526" lat="53.102020"><ele>133.789139</ele><time>2022-03-04T10:28:46Z</time><extensions><speed>1.489512</speed><course>90.543503</course><hAcc>1.394239</hAcc><vAcc>0.826641</vAcc></extensions></trkpt>
      <trkpt lon="-2.252503" lat="53.102020"><ele>133.768509</ele><time>2022-03-04T10:28:47Z</time><extensions><speed>1.546739</speed><course>91.721344</course><hAcc>1.418830</hAcc><vAcc>0.826501</vAcc></extensions></trkpt>
      <trkpt lon="-2.252480" lat="53.102020"><ele>133.756470</ele><time>2022-03-04T10:28:48Z</time><extensions><speed>1.521211</speed><course>90.810593</course><hAcc>1.430821</hAcc><vAcc>0.826374</vAcc></extensions></trkpt>
      <trkpt lon="-2.252458" lat="53.102020"><ele>133.755402</ele><time>2022-03-04T10:28:49Z</time><extensions><speed>1.510162</speed><course>89.048401</course><hAcc>1.440139</hAcc><vAcc>0.826270</vAcc></extensions></trkpt>
      <trkpt lon="-2.252435" lat="53.102020"><ele>133.765320</ele><time>2022-03-04T10:28:50Z</time><extensions><speed>1.514907</speed><course>89.327812</course><hAcc>1.463799</hAcc><vAcc>0.826149</vAcc></extensions></trkpt>
      <trkpt lon="-2.252413" lat="53.102019"><ele>133.768356</ele><time>2022-03-04T10:28:51Z</time><extensions><speed>1.431546</speed><course>93.932716</course><hAcc>1.496633</hAcc><vAcc>0.826064</vAcc></extensions></trkpt>
      <trkpt lon="-2.252395" lat="53.102017"><ele>133.778427</ele><time>2022-03-04T10:28:52Z</time><extensions><speed>1.102552</speed><course>113.829674</course><hAcc>1.527738</hAcc><vAcc>0.825996</vAcc></extensions></trkpt>
      <trkpt lon="-2.252386" lat="53.102015"><ele>133.782532</ele><time>2022-03-04T10:28:53Z</time><extensions><speed>0.231203</speed><course>100.679626</course><hAcc>1.531522</hAcc><vAcc>0.825890</vAcc></extensions></trkpt>
      <trkpt lon="-2.252386" lat="53.102016"><ele>133.790894</ele><time>2022-03-04T10:28:54Z</time><extensions><speed>0.383712</speed><course>323.346466</course><hAcc>1.565913</hAcc><vAcc>0.825772</vAcc></extensions></trkpt>
      <trkpt lon="-2.252389" lat="53.102019"><ele>133.797623</ele><time>2022-03-04T10:28:55Z</time><extensions><speed>0.372420</speed><course>330.080597</course><hAcc>1.619197</hAcc><vAcc>0.825591</vAcc></extensions></trkpt>
      <trkpt lon="-2.252391" lat="53.102022"><ele>133.800491</ele><time>2022-03-04T10:28:56Z</time><extensions><speed>0.299295</speed><course>340.625244</course><hAcc>1.668554</hAcc><vAcc>0.825396</vAcc></extensions></trkpt>
      <trkpt lon="-2.252391" lat="53.102024"><ele>133.784195</ele><time>2022-03-04T10:28:57Z</time><extensions><speed>0.217243</speed><course>1.035145</course><hAcc>1.709316</hAcc><vAcc>0.825136</vAcc></extensions></trkpt>
      <trkpt lon="-2.252390" lat="53.102025"><ele>133.772949</ele><time>2022-03-04T10:28:58Z</time><extensions><speed>0.188066</speed><course>36.554806</course><hAcc>1.737530</hAcc><vAcc>0.824786</vAcc></extensions></trkpt>
      <trkpt lon="-2.252388" lat="53.102027"><ele>133.758377</ele><time>2022-03-04T10:28:59Z</time><extensions><speed>0.239477</speed><course>67.354523</course><hAcc>1.752106</hAcc><vAcc>0.824373</vAcc></extensions></trkpt>
      <trkpt lon="-2.252383" lat="53.102027"><ele>133.728867</ele><time>2022-03-04T10:29:00Z</time><extensions><speed>0.335234</speed><course>82.404686</course><hAcc>1.759388</hAcc><vAcc>0.823904</vAcc></extensions></trkpt>
      <trkpt lon="-2.252377" lat="53.102027"><ele>133.696213</ele><time>2022-03-04T10:29:01Z</time><extensions><speed>0.443554</speed><course>89.030830</course><hAcc>1.762665</hAcc><vAcc>0.823456</vAcc></extensions></trkpt>
      <trkpt lon="-2.252370" lat="53.102027"><ele>133.684387</ele><time>2022-03-04T10:29:02Z</time><extensions><speed>0.557611</speed><course>92.665565</course><hAcc>1.760617</hAcc><vAcc>0.823034</vAcc></extensions></trkpt>
      <trkpt lon="-2.252360" lat="53.102027"><ele>133.670837</ele><time>2022-03-04T10:29:03Z</time><extensions><speed>0.669003</speed><course>94.359039</course><hAcc>1.755206</hAcc><vAcc>0.822656</vAcc></extensions></trkpt>
      <trkpt lon="-2.252350" lat="53.102026"><ele>133.663666</ele><time>2022-03-04T10:29:04Z</time><extensions><speed>0.736232</speed><course>94.576958</course><hAcc>1.749644</hAcc><vAcc>0.822332</vAcc></extensions></trkpt>
      <trkpt lon="-2.252338" lat="53.102026"><ele>133.652878</ele><time>2022-03-04T10:29:05Z</time><extensions><speed>0.780375</speed><course>94.360657</course><hAcc>1.736077</hAcc><vAcc>0.822081</vAcc></extensions></trkpt>
      <trkpt lon="-2.252326" lat="53.102025"><ele>133.641129</ele><time>2022-03-04T10:29:06Z</time><extensions><speed>0.797336</speed><course>93.947403</course><hAcc>1.720327</hAcc><vAcc>0.821927</vAcc></extensions></trkpt>
      <trkpt lon="-2.252314" lat="53.102025"><ele>133.635635</ele><time>2022-03-04T10:29:07Z</time><extensions><speed>0.787080</speed><course>93.242905</course><hAcc>1.724201</hAcc><vAcc>0.821872</vAcc></extensions></trkpt>
      <trkpt lon="-2.252304" lat="53.102024"><ele>133.632797</ele><time>2022-03-04T10:29:08Z</time><extensions><speed>0.623031</speed><course>102.739174</course><hAcc>1.754503</hAcc><vAcc>0.821927</vAcc></extensions></trkpt>
      <trkpt lon="-2.252292" lat="53.102022"><ele>133.656998</ele><time>2022-03-04T10:29:09Z</time><extensions><speed>1.004726</speed><course>108.339485</course><hAcc>1.710539</hAcc><vAcc>0.822083</vAcc></extensions></trkpt>
      <trkpt lon="-2.252277" lat="53.102019"><ele>133.676880</ele><time>2022-03-04T10:29:10Z</time><extensions><speed>1.144801</speed><course>105.552216</course><hAcc>1.687641</hAcc><vAcc>0.822277</vAcc></extensions></trkpt>
      <trkpt lon="-2.252258" lat="53.102016"><ele>133.701508</ele><time>2022-03-04T10:29:11Z</time><extensions><speed>1.356084</speed><course>99.474800</course><hAcc>1.687757</hAcc><vAcc>0.822424</vAcc></extensions></trkpt>
      <trkpt lon="-2.252238" lat="53.102015"><ele>133.731613</ele><time>2022-03-04T10:29:12Z</time><extensions><speed>1.352706</speed><course>97.062057</course><hAcc>1.713758</hAcc><vAcc>0.822634</vAcc></extensions></trkpt>
      <trkpt lon="-2.252218" lat="53.102013"><ele>133.765396</ele><time>2022-03-04T10:29:13Z</time><extensions><speed>1.380675</speed><course>99.736191</course><hAcc>1.708804</hAcc><vAcc>0.822854</vAcc></extensions></trkpt>
      <trkpt lon="-2.252197" lat="53.102010"><ele>133.816818</ele><time>2022-03-04T10:29:14Z</time><extensions><speed>1.463738</speed><course>102.001511</course><hAcc>1.693691</hAcc><vAcc>0.823040</vAcc></extensions></trkpt>
      <trkpt lon="-2.252175" lat="53.102007"><ele>133.862320</ele><time>2022-03-04T10:29:15Z</time><extensions><speed>1.537210</speed><course>106.870590</course><hAcc>1.681725</hAcc><vAcc>0.823179</vAcc></extensions></trkpt>
      <trkpt lon="-2.252152" lat="53.102002"><ele>133.910339</ele><time>2022-03-04T10:29:16Z</time><extensions><speed>1.637642</speed><course>111.335953</course><hAcc>1.670504</hAcc><vAcc>0.823256</vAcc></extensions></trkpt>
      <trkpt lon="-2.252129" lat="53.101997"><ele>133.955658</ele><time>2022-03-04T10:29:17Z</time><extensions><speed>1.684207</speed><course>114.065193</course><hAcc>1.651574</hAcc><vAcc>0.823275</vAcc></extensions></trkpt>
      <trkpt lon="-2.252107" lat="53.101991"><ele>134.017120</ele><time>2022-03-04T10:29:18Z</time><extensions><speed>1.612730</speed><course>114.824715</course><hAcc>1.636589</hAcc><vAcc>0.823224</vAcc></extensions></trkpt>
      <trkpt lon="-2.252085" lat="53.101986"><ele>134.078476</ele><time>2022-03-04T10:29:19Z</time><extensions><speed>1.467821</speed><course>110.361313</course><hAcc>1.637583</hAcc><vAcc>0.823137</vAcc></extensions></trkpt>
      <trkpt lon="-2.252065" lat="53.101982"><ele>134.135071</ele><time>2022-03-04T10:29:20Z</time><extensions><speed>1.386261</speed><course>105.131409</course><hAcc>1.631811</hAcc><vAcc>0.823051</vAcc></extensions></trkpt>
      <trkpt lon="-2.252043" lat="53.101979"><ele>134.192642</ele><time>2022-03-04T10:29:21Z</time><extensions><speed>1.620019</speed><course>101.411873</course><hAcc>1.557398</hAcc><vAcc>0.822996</vAcc></extensions></trkpt>
      <trkpt lon="-2.252018" lat="53.101976"><ele>134.237534</ele><time>2022-03-04T10:29:22Z</time><extensions><speed>1.820692</speed><course>99.901665</course><hAcc>1.507109</hAcc><vAcc>0.822991</vAcc></extensions></trkpt>
      <trkpt lon="-2.251992" lat="53.101974"><ele>134.277542</ele><time>2022-03-04T10:29:23Z</time><extensions><speed>1.859219</speed><course>100.637352</course><hAcc>1.515133</hAcc><vAcc>0.823047</vAcc></extensions></trkpt>
      <trkpt lon="-2.251965" lat="53.101970"><ele>134.314316</ele><time>2022-03-04T10:29:24Z</time><extensions><speed>1.827601</speed><course>102.249702</course><hAcc>1.496798</hAcc><vAcc>0.823158</vAcc></extensions></trkpt>
      <trkpt lon="-2.251940" lat="53.101966"><ele>134.339966</ele><time>2022-03-04T10:29:25Z</time><extensions><speed>1.746478</speed><course>108.111504</course><hAcc>1.467880</hAcc><vAcc>0.823320</vAcc></extensions></trkpt>
      <trkpt lon="-2.251916" lat="53.101962"><ele>134.355484</ele><time>2022-03-04T10:29:26Z</time><extensions><speed>1.695860</speed><course>103.743614</course><hAcc>1.439865</hAcc><vAcc>0.823489</vAcc></extensions></trkpt>
      <trkpt lon="-2.251893" lat="53.101959"><ele>134.359604</ele><time>2022-03-04T10:29:27Z</time><extensions><speed>1.648902</speed><course>102.196548</course><hAcc>1.424086</hAcc><vAcc>0.823656</vAcc></extensions></trkpt>
      <trkpt lon="-2.251869" lat="53.101956"><ele>134.363861</ele><time>2022-03-04T10:29:28Z</time><extensions><speed>1.638081</speed><course>100.275574</course><hAcc>1.414671</hAcc><vAcc>0.823817</vAcc></extensions></trkpt>
      <trkpt lon="-2.251847" lat="53.101954"><ele>134.360992</ele><time>2022-03-04T10:29:29Z</time><extensions><speed>1.587286</speed><course>102.337730</course><hAcc>1.405546</hAcc><vAcc>0.823991</vAcc></extensions></trkpt>
      <trkpt lon="-2.251825" lat="53.101951"><ele>134.359802</ele><time>2022-03-04T10:29:30Z</time><extensions><speed>1.582272</speed><course>105.471680</course><hAcc>1.410113</hAcc><vAcc>0.824161</vAcc></extensions></trkpt>
      <trkpt lon="-2.251804" lat="53.101949"><ele>134.335052</ele><time>2022-03-04T10:29:31Z</time><extensions><speed>1.405152</speed><course>100.735382</course><hAcc>1.391002</hAcc><vAcc>0.824335</vAcc></extensions></trkpt>
      <trkpt lon="-2.251786" lat="53.101947"><ele>134.324448</ele><time>2022-03-04T10:29:32Z</time><extensions><speed>1.311669</speed><course>95.922615</course><hAcc>1.388085</hAcc><vAcc>0.824505</vAcc></extensions></trkpt>
      <trkpt lon="-2.251768" lat="53.101946"><ele>134.354660</ele><time>2022-03-04T10:29:33Z</time><extensions><speed>1.281117</speed><course>90.340271</course><hAcc>1.390679</hAcc><vAcc>0.824657</vAcc></extensions></trkpt>
      <trkpt lon="-2.251751" lat="53.101946"><ele>134.379379</ele><time>2022-03-04T10:29:34Z</time><extensions><speed>1.243705</speed><course>89.224503</course><hAcc>1.392522</hAcc><vAcc>0.824764</vAcc></extensions></trkpt>
      <trkpt lon="-2.251733" lat="53.101946"><ele>134.411682</ele><time>2022-03-04T10:29:35Z</time><extensions><speed>1.212571</speed><course>88.813286</course><hAcc>1.393969</hAcc><vAcc>0.824837</vAcc></extensions></trkpt>
      <trkpt lon="-2.251717" lat="53.101947"><ele>134.450104</ele><time>2022-03-04T10:29:36Z</time><extensions><speed>1.115313</speed><course>84.539062</course><hAcc>1.382446</hAcc><vAcc>0.824895</vAcc></extensions></trkpt>
      <trkpt lon="-2.251701" lat="53.101948"><ele>134.495529</ele><time>2022-03-04T10:29:37Z</time><extensions><speed>1.147020</speed><course>77.604950</course><hAcc>1.378540</hAcc><vAcc>0.824938</vAcc></extensions></trkpt>
      <trkpt lon="-2.251686" lat="53.101951"><ele>134.548401</ele><time>2022-03-04T10:29:38Z</time><extensions><speed>1.137298</speed><course>65.337540</course><hAcc>1.374067</hAcc><vAcc>0.824966</vAcc></extensions></trkpt>
      <trkpt lon="-2.251672" lat="53.101957"><ele>134.608612</ele><time>2022-03-04T10:29:39Z</time><extensions><speed>1.178535</speed><course>41.693417</course><hAcc>1.369929</hAcc><vAcc>0.824987</vAcc></extensions></trkpt>
      <trkpt lon="-2.251663" lat="53.101967"><ele>134.624130</ele><time>2022-03-04T10:29:40Z</time><extensions><speed>1.333651</speed><course>19.985178</course><hAcc>1.372475</hAcc><vAcc>0.824985</vAcc></extensions></trkpt>
      <trkpt lon="-2.251662" lat="53.101979"><ele>134.629135</ele><time>2022-03-04T10:29:41Z</time><extensions><speed>1.488547</speed><course>350.008759</course><hAcc>1.375187</hAcc><vAcc>0.824932</vAcc></extensions></trkpt>
      <trkpt lon="-2.251671" lat="53.101991"><ele>134.618744</ele><time>2022-03-04T10:29:42Z</time><extensions><speed>1.516099</speed><course>323.582733</course><hAcc>1.378626</hAcc><vAcc>0.824836</vAcc></extensions></trkpt>
      <trkpt lon="-2.251685" lat="53.101999"><ele>134.605484</ele><time>2022-03-04T10:29:43Z</time><extensions><speed>1.087874</speed><course>304.813507</course><hAcc>1.383294</hAcc><vAcc>0.824729</vAcc></extensions></trkpt>
      <trkpt lon="-2.251693" lat="53.102001"><ele>134.580017</ele><time>2022-03-04T10:29:44Z</time><extensions><speed>0.172092</speed><course>277.413910</course><hAcc>1.431918</hAcc><vAcc>0.824614</vAcc></extensions></trkpt>
      <trkpt lon="-2.251696" lat="53.102000"><ele>134.546524</ele><time>2022-03-04T10:29:45Z</time><extensions><speed>0.288921</speed><course>247.304916</course><hAcc>1.405397</hAcc><vAcc>0.824510</vAcc></extensions></trkpt>
      <trkpt lon="-2.251700" lat="53.101999"><ele>134.501160</ele><time>2022-03-04T10:29:46Z</time><extensions><speed>0.380907</speed><course>236.568054</course><hAcc>1.403255</hAcc><vAcc>0.824413</vAcc></extensions></trkpt>
      <trkpt lon="-2.251705" lat="53.101996"><ele>134.461716</ele><time>2022-03-04T10:29:47Z</time><extensions><speed>0.373352</speed><course>225.657837</course><hAcc>1.440519</hAcc><vAcc>0.824334</vAcc></extensions></trkpt>
      <trkpt lon="-2.251708" lat="53.101993"><ele>134.384430</ele><time>2022-03-04T10:29:48Z</time><extensions><speed>0.347460</speed><course>213.795044</course><hAcc>1.469538</hAcc><vAcc>0.824289</vAcc></extensions></trkpt>
      <trkpt lon="-2.251711" lat="53.101989"><ele>134.309952</ele><time>2022-03-04T10:29:50Z</time><extensions><speed>0.499017</speed><course>204.314819</course><hAcc>1.450662</hAcc><vAcc>0.824298</vAcc></extensions></trkpt>
      <trkpt lon="-2.251714" lat="53.101985"><ele>134.225693</ele><time>2022-03-04T10:29:51Z</time><extensions><speed>0.379810</speed><course>197.661743</course><hAcc>1.484617</hAcc><vAcc>0.824317</vAcc></extensions></trkpt>
      <trkpt lon="-2.251715" lat="53.101981"><ele>134.140121</ele><time>2022-03-04T10:29:52Z</time><extensions><speed>0.383116</speed><course>192.105286</course><hAcc>1.491937</hAcc><vAcc>0.824374</vAcc></extensions></trkpt>
      <trkpt lon="-2.251716" lat="53.101977"><ele>134.057312</ele><time>2022-03-04T10:29:53Z</time><extensions><speed>0.426204</speed><course>188.166000</course><hAcc>1.488109</hAcc><vAcc>0.824468</vAcc></extensions></trkpt>
      <trkpt lon="-2.251717" lat="53.101973"><ele>133.975632</ele><time>2022-03-04T10:29:54Z</time><extensions><speed>0.437438</speed><course>185.244324</course><hAcc>1.494353</hAcc><vAcc>0.824592</vAcc></extensions></trkpt>
      <trkpt lon="-2.251718" lat="53.101969"><ele>133.896942</ele><time>2022-03-04T10:29:55Z</time><extensions><speed>0.478779</speed><course>183.096786</course><hAcc>1.504289</hAcc><vAcc>0.824743</vAcc></extensions></trkpt>
      <trkpt lon="-2.251718" lat="53.101965"><ele>133.827805</ele><time>2022-03-04T10:29:56Z</time><extensions><speed>0.533564</speed><course>181.132492</course><hAcc>1.522006</hAcc><vAcc>0.824900</vAcc></extensions></trkpt>
      <trkpt lon="-2.251718" lat="53.101959"><ele>133.786758</ele><time>2022-03-04T10:29:57Z</time><extensions><speed>0.633497</speed><course>178.237106</course><hAcc>1.539170</hAcc><vAcc>0.825045</vAcc></extensions></trkpt>
      <trkpt lon="-2.251717" lat="53.101951"><ele>133.754761</ele><time>2022-03-04T10:29:58Z</time><extensions><speed>1.183412</speed><course>174.954529</course><hAcc>1.525272</hAcc><vAcc>0.825189</vAcc></extensions></trkpt>
      <trkpt lon="-2.251716" lat="53.101940"><ele>133.702255</ele><time>2022-03-04T10:29:59Z</time><extensions><speed>1.265690</speed><course>175.212982</course><hAcc>1.565207</hAcc><vAcc>0.825320</vAcc></extensions></trkpt>
      <trkpt lon="-2.251715" lat="53.101929"><ele>133.668442</ele><time>2022-03-04T10:30:00Z</time><extensions><speed>1.281531</speed><course>177.583298</course><hAcc>1.609538</hAcc><vAcc>0.825445</vAcc></extensions></trkpt>
      <trkpt lon="-2.251714" lat="53.101917"><ele>133.654602</ele><time>2022-03-04T10:30:01Z</time><extensions><speed>1.327866</speed><course>181.666290</course><hAcc>1.617312</hAcc><vAcc>0.825557</vAcc></extensions></trkpt>
      <trkpt lon="-2.251716" lat="53.101905"><ele>133.639877</ele><time>2022-03-04T10:30:02Z</time><extensions><speed>1.394021</speed><course>184.810699</course><hAcc>1.617647</hAcc><vAcc>0.825676</vAcc></extensions></trkpt>
      <trkpt lon="-2.251718" lat="53.101893"><ele>133.620605</ele><time>2022-03-04T10:30:03Z</time><extensions><speed>1.326517</speed><course>188.226395</course><hAcc>1.622509</hAcc><vAcc>0.825778</vAcc></extensions></trkpt>
      <trkpt lon="-2.251721" lat="53.101881"><ele>133.614059</ele><time>2022-03-04T10:30:04Z</time><extensions><speed>1.280799</speed><course>192.234238</course><hAcc>1.638388</hAcc><vAcc>0.825887</vAcc></extensions></trkpt>
      <trkpt lon="-2.251726" lat="53.101870"><ele>133.614426</ele><time>2022-03-04T10:30:05Z</time><extensions><speed>1.235016</speed><course>197.057083</course><hAcc>1.649242</hAcc><vAcc>0.825971</vAcc></extensions></trkpt>
      <trkpt lon="-2.251732" lat="53.101859"><ele>133.612854</ele><time>2022-03-04T10:30:06Z</time><extensions><speed>1.356946</speed><course>200.710526</course><hAcc>1.637187</hAcc><vAcc>0.826082</vAcc></extensions></trkpt>
      <trkpt lon="-2.251740" lat="53.101847"><ele>133.617722</ele><time>2022-03-04T10:30:07Z</time><extensions><speed>1.490259</speed><course>199.861053</course><hAcc>1.621596</hAcc><vAcc>0.826193</vAcc></extensions></trkpt>
      <trkpt lon="-2.251747" lat="53.101834"><ele>133.618484</ele><time>2022-03-04T10:30:08Z</time><extensions><speed>1.570408</speed><course>196.372406</course><hAcc>1.627587</hAcc><vAcc>0.826316</vAcc></extensions></trkpt>
      <trkpt lon="-2.251753" lat="53.101821"><ele>133.607788</ele><time>2022-03-04T10:30:09Z</time><extensions><speed>1.449391</speed><course>194.211380</course><hAcc>1.633051</hAcc><vAcc>0.826447</vAcc></extensions></trkpt>
      <trkpt lon="-2.251758" lat="53.101809"><ele>133.595993</ele><time>2022-03-04T10:30:10Z</time><extensions><speed>1.220340</speed><course>195.637085</course><hAcc>1.626608</hAcc><vAcc>0.826583</vAcc></extensions></trkpt>
      <trkpt lon="-2.251763" lat="53.101799"><ele>133.591797</ele><time>2022-03-04T10:30:11Z</time><extensions><speed>1.176572</speed><course>197.656891</course><hAcc>1.621195</hAcc><vAcc>0.826731</vAcc></extensions></trkpt>
      <trkpt lon="-2.251768" lat="53.101788"><ele>133.577271</ele><time>2022-03-04T10:30:12Z</time><extensions><speed>1.140420</speed><course>195.537094</course><hAcc>1.606030</hAcc><vAcc>0.826882</vAcc></extensions></trkpt>
      <trkpt lon="-2.251772" lat="53.101778"><ele>133.568802</ele><time>2022-03-04T10:30:13Z</time><extensions><speed>1.098264</speed><course>191.495010</course><hAcc>1.573956</hAcc><vAcc>0.827024</vAcc></extensions></trkpt>
      <trkpt lon="-2.251775" lat="53.101768"><ele>133.563690</ele><time>2022-03-04T10:30:14Z</time><extensions><speed>1.135115</speed><course>188.053757</course><hAcc>1.543022</hAcc><vAcc>0.827153</vAcc></extensions></trkpt>
      <trkpt lon="-2.251777" lat="53.101758"><ele>133.563004</ele><time>2022-03-04T10:30:15Z</time><extensions><speed>1.162281</speed><course>185.919479</course><hAcc>1.529440</hAcc><vAcc>0.827263</vAcc></extensions></trkpt>
      <trkpt lon="-2.251779" lat="53.101748"><ele>133.548508</ele><time>2022-03-04T10:30:16Z</time><extensions><speed>1.090764</speed><course>185.924820</course><hAcc>1.568392</hAcc><vAcc>0.827384</vAcc></extensions></trkpt>
      <trkpt lon="-2.251781" lat="53.101738"><ele>133.545090</ele><time>2022-03-04T10:30:17Z</time><extensions><speed>1.033757</speed><course>187.130341</course><hAcc>1.565628</hAcc><vAcc>0.827443</vAcc></extensions></trkpt>
      <trkpt lon="-2.251782" lat="53.101729"><ele>133.551895</ele><time>2022-03-04T10:30:18Z</time><extensions><speed>1.154666</speed><course>185.070816</course><hAcc>1.520387</hAcc><vAcc>0.827482</vAcc></extensions></trkpt>
      <trkpt lon="-2.251784" lat="53.101718"><ele>133.564789</ele><time>2022-03-04T10:30:19Z</time><extensions><speed>1.162381</speed><course>186.614487</course><hAcc>1.520598</hAcc><vAcc>0.827514</vAcc></extensions></trkpt>
      <trkpt lon="-2.251786" lat="53.101707"><ele>133.568161</ele><time>2022-03-04T10:30:20Z</time><extensions><speed>1.241138</speed><course>184.564804</course><hAcc>1.525966</hAcc><vAcc>0.827525</vAcc></extensions></trkpt>
      <trkpt lon="-2.251787" lat="53.101696"><ele>133.576370</ele><time>2022-03-04T10:30:21Z</time><extensions><speed>1.340860</speed><course>180.719650</course><hAcc>1.555356</hAcc><vAcc>0.827503</vAcc></extensions></trkpt>
      <trkpt lon="-2.251787" lat="53.101683"><ele>133.584412</ele><time>2022-03-04T10:30:22Z</time><extensions><speed>1.398432</speed><course>180.967621</course><hAcc>1.589677</hAcc><vAcc>0.827469</vAcc></extensions></trkpt>
      <trkpt lon="-2.251788" lat="53.101670"><ele>133.590240</ele><time>2022-03-04T10:30:23Z</time><extensions><speed>1.494296</speed><course>184.957062</course><hAcc>1.570232</hAcc><vAcc>0.827434</vAcc></extensions></trkpt>
      <trkpt lon="-2.251791" lat="53.101657"><ele>133.593811</ele><time>2022-03-04T10:30:24Z</time><extensions><speed>1.438981</speed><course>187.880524</course><hAcc>1.562412</hAcc><vAcc>0.827354</vAcc></extensions></trkpt>
      <trkpt lon="-2.251794" lat="53.101645"><ele>133.587540</ele><time>2022-03-04T10:30:25Z</time><extensions><speed>1.344966</speed><course>189.162506</course><hAcc>1.570135</hAcc><vAcc>0.827301</vAcc></extensions></trkpt>
      <trkpt lon="-2.251797" lat="53.101633"><ele>133.567169</ele><time>2022-03-04T10:30:26Z</time><extensions><speed>1.301017</speed><course>190.983505</course><hAcc>1.582749</hAcc><vAcc>0.827285</vAcc></extensions></trkpt>
      <trkpt lon="-2.251801" lat="53.101622"><ele>133.544220</ele><time>2022-03-04T10:30:27Z</time><extensions><speed>1.354104</speed><course>193.320480</course><hAcc>1.540213</hAcc><vAcc>0.827282</vAcc></extensions></trkpt>
      <trkpt lon="-2.251806" lat="53.101609"><ele>133.528885</ele><time>2022-03-04T10:30:28Z</time><extensions><speed>1.432306</speed><course>194.395187</course><hAcc>1.535939</hAcc><vAcc>0.827291</vAcc></extensions></trkpt>
      <trkpt lon="-2.251811" lat="53.101597"><ele>133.520554</ele><time>2022-03-04T10:30:29Z</time><extensions><speed>1.382528</speed><course>195.801086</course><hAcc>1.577400</hAcc><vAcc>0.827334</vAcc></extensions></trkpt>
      <trkpt lon="-2.251816" lat="53.101584"><ele>133.507965</ele><time>2022-03-04T10:30:30Z</time><extensions><speed>1.418284</speed><course>193.565765</course><hAcc>1.517654</hAcc><vAcc>0.827390</vAcc></extensions></trkpt>
      <trkpt lon="-2.251821" lat="53.101572"><ele>133.486710</ele><time>2022-03-04T10:30:31Z</time><extensions><speed>1.442148</speed><course>192.106415</course><hAcc>1.483786</hAcc><vAcc>0.827435</vAcc></extensions></trkpt>
      <trkpt lon="-2.251826" lat="53.101559"><ele>133.474808</ele><time>2022-03-04T10:30:32Z</time><extensions><speed>1.402320</speed><course>191.141174</course><hAcc>1.499466</hAcc><vAcc>0.827509</vAcc></extensions></trkpt>
      <trkpt lon="-2.251830" lat="53.101547"><ele>133.466049</ele><time>2022-03-04T10:30:33Z</time><extensions><speed>1.276398</speed><course>191.601105</course><hAcc>1.513492</hAcc><vAcc>0.827574</vAcc></extensions></trkpt>
      <trkpt lon="-2.251833" lat="53.101537"><ele>133.455338</ele><time>2022-03-04T10:30:34Z</time><extensions><speed>1.062340</speed><course>190.977768</course><hAcc>1.466814</hAcc><vAcc>0.827641</vAcc></extensions></trkpt>
      <trkpt lon="-2.251836" lat="53.101528"><ele>133.440659</ele><time>2022-03-04T10:30:35Z</time><extensions><speed>0.816719</speed><course>193.105316</course><hAcc>1.484172</hAcc><vAcc>0.827705</vAcc></extensions></trkpt>
      <trkpt lon="-2.251839" lat="53.101521"><ele>133.439819</ele><time>2022-03-04T10:30:36Z</time><extensions><speed>0.884831</speed><course>191.790970</course><hAcc>1.505896</hAcc><vAcc>0.827762</vAcc></extensions></trkpt>
      <trkpt lon="-2.251841" lat="53.101512"><ele>133.439804</ele><time>2022-03-04T10:30:37Z</time><extensions><speed>1.088251</speed><course>186.566818</course><hAcc>1.479259</hAcc><vAcc>0.827812</vAcc></extensions></trkpt>
      <trkpt lon="-2.251843" lat="53.101501"><ele>133.443298</ele><time>2022-03-04T10:30:38Z</time><extensions><speed>1.304160</speed><course>185.340195</course><hAcc>1.463498</hAcc><vAcc>0.827854</vAcc></extensions></trkpt>
      <trkpt lon="-2.251845" lat="53.101489"><ele>133.449188</ele><time>2022-03-04T10:30:38Z</time><extensions><speed>1.472901</speed><course>187.607010</course><hAcc>1.503363</hAcc><vAcc>0.827872</vAcc></extensions></trkpt>
      <trkpt lon="-2.251849" lat="53.101476"><ele>133.457535</ele><time>2022-03-04T10:30:39Z</time><extensions><speed>1.486069</speed><course>190.599686</course><hAcc>1.536659</hAcc><vAcc>0.827870</vAcc></extensions></trkpt>
      <trkpt lon="-2.251854" lat="53.101462"><ele>133.467987</ele><time>2022-03-04T10:30:40Z</time><extensions><speed>1.515288</speed><course>194.586914</course><hAcc>1.502394</hAcc><vAcc>0.827855</vAcc></extensions></trkpt>
      <trkpt lon="-2.251860" lat="53.101449"><ele>133.489883</ele><time>2022-03-04T10:30:41Z</time><extensions><speed>1.489728</speed><course>196.698578</course><hAcc>1.516107</hAcc><vAcc>0.827814</vAcc></extensions></trkpt>
      <trkpt lon="-2.251866" lat="53.101437"><ele>133.514557</ele><time>2022-03-04T10:30:42Z</time><extensions><speed>1.475957</speed><course>196.480072</course><hAcc>1.511596</hAcc><vAcc>0.827795</vAcc></extensions></trkpt>
      <trkpt lon="-2.251873" lat="53.101424"><ele>133.549286</ele><time>2022-03-04T10:30:43Z</time><extensions><speed>1.437482</speed><course>196.814941</course><hAcc>1.521292</hAcc><vAcc>0.827753</vAcc></extensions></trkpt>
      <trkpt lon="-2.251879" lat="53.101412"><ele>133.589233</ele><time>2022-03-04T10:30:44Z</time><extensions><speed>1.388072</speed><course>198.655426</course><hAcc>1.532735</hAcc><vAcc>0.827691</vAcc></extensions></trkpt>
      <trkpt lon="-2.251886" lat="53.101400"><ele>133.625641</ele><time>2022-03-04T10:30:45Z</time><extensions><speed>1.393470</speed><course>198.384003</course><hAcc>1.499256</hAcc><vAcc>0.827606</vAcc></extensions></trkpt>
      <trkpt lon="-2.251893" lat="53.101388"><ele>133.661118</ele><time>2022-03-04T10:30:46Z</time><extensions><speed>1.380129</speed><course>198.415833</course><hAcc>1.489582</hAcc><vAcc>0.827515</vAcc></extensions></trkpt>
      <trkpt lon="-2.251899" lat="53.101376"><ele>133.700806</ele><time>2022-03-04T10:30:47Z</time><extensions><speed>1.358273</speed><course>198.140594</course><hAcc>1.510042</hAcc><vAcc>0.827397</vAcc></extensions></trkpt>
      <trkpt lon="-2.251905" lat="53.101365"><ele>133.740494</ele><time>2022-03-04T10:30:48Z</time><extensions><speed>1.298037</speed><course>197.768478</course><hAcc>1.527672</hAcc><vAcc>0.827269</vAcc></extensions></trkpt>
      <trkpt lon="-2.251910" lat="53.101354"><ele>133.776123</ele><time>2022-03-04T10:30:49Z</time><extensions><speed>1.169978</speed><course>198.643250</course><hAcc>1.493385</hAcc><vAcc>0.827135</vAcc></extensions></trkpt>
      <trkpt lon="-2.251915" lat="53.101345"><ele>133.823013</ele><time>2022-03-04T10:30:50Z</time><extensions><speed>0.997497</speed><course>198.400513</course><hAcc>1.503904</hAcc><vAcc>0.827004</vAcc></extensions></trkpt>
      <trkpt lon="-2.251920" lat="53.101336"><ele>133.856079</ele><time>2022-03-04T10:30:51Z</time><extensions><speed>0.942942</speed><course>197.496475</course><hAcc>1.513095</hAcc><vAcc>0.826886</vAcc></extensions></trkpt>
      <trkpt lon="-2.251924" lat="53.101329"><ele>133.883652</ele><time>2022-03-04T10:30:52Z</time><extensions><speed>0.899631</speed><course>197.331207</course><hAcc>1.577771</hAcc><vAcc>0.826785</vAcc></extensions></trkpt>
      <trkpt lon="-2.251927" lat="53.101320"><ele>133.913757</ele><time>2022-03-04T10:30:53Z</time><extensions><speed>1.105876</speed><course>192.682770</course><hAcc>1.547007</hAcc><vAcc>0.826685</vAcc></extensions></trkpt>
      <trkpt lon="-2.251930" lat="53.101310"><ele>133.945404</ele><time>2022-03-04T10:30:54Z</time><extensions><speed>1.185549</speed><course>187.561020</course><hAcc>1.559906</hAcc><vAcc>0.826633</vAcc></extensions></trkpt>
      <trkpt lon="-2.251931" lat="53.101299"><ele>133.961365</ele><time>2022-03-04T10:30:55Z</time><extensions><speed>1.143991</speed><course>180.222855</course><hAcc>1.604168</hAcc><vAcc>0.826613</vAcc></extensions></trkpt>
      <trkpt lon="-2.251930" lat="53.101290"><ele>133.970383</ele><time>2022-03-04T10:30:56Z</time><extensions><speed>0.981698</speed><course>166.535660</course><hAcc>1.638569</hAcc><vAcc>0.826623</vAcc></extensions></trkpt>
      <trkpt lon="-2.251924" lat="53.101282"><ele>133.979919</ele><time>2022-03-04T10:30:57Z</time><extensions><speed>0.883700</speed><course>143.466843</course><hAcc>1.640262</hAcc><vAcc>0.826680</vAcc></extensions></trkpt>
      <trkpt lon="-2.251914" lat="53.101276"><ele>133.987045</ele><time>2022-03-04T10:30:58Z</time><extensions><speed>0.991453</speed><course>129.271179</course><hAcc>1.630085</hAcc><vAcc>0.826773</vAcc></extensions></trkpt>
      <trkpt lon="-2.251901" lat="53.101271"><ele>133.991455</ele><time>2022-03-04T10:30:59Z</time><extensions><speed>1.219165</speed><course>124.058388</course><hAcc>1.617028</hAcc><vAcc>0.826911</vAcc></extensions></trkpt>
      <trkpt lon="-2.251883" lat="53.101264"><ele>133.984283</ele><time>2022-03-04T10:31:00Z</time><extensions><speed>1.599980</speed><course>122.318840</course><hAcc>1.601990</hAcc><vAcc>0.827076</vAcc></extensions></trkpt>
      <trkpt lon="-2.251863" lat="53.101256"><ele>133.973755</ele><time>2022-03-04T10:31:01Z</time><extensions><speed>1.533092</speed><course>119.006477</course><hAcc>1.603882</hAcc><vAcc>0.827279</vAcc></extensions></trkpt>
      <trkpt lon="-2.251843" lat="53.101250"><ele>133.958649</ele><time>2022-03-04T10:31:02Z</time><extensions><speed>1.400827</speed><course>119.005432</course><hAcc>1.592885</hAcc><vAcc>0.827466</vAcc></extensions></trkpt>
      <trkpt lon="-2.251825" lat="53.101244"><ele>133.951279</ele><time>2022-03-04T10:31:03Z</time><extensions><speed>1.475509</speed><course>119.162445</course><hAcc>1.564169</hAcc><vAcc>0.827636</vAcc></extensions></trkpt>
      <trkpt lon="-2.251806" lat="53.101237"><ele>133.926605</ele><time>2022-03-04T10:31:04Z</time><extensions><speed>1.388883</speed><course>121.258369</course><hAcc>1.598502</hAcc><vAcc>0.827802</vAcc></extensions></trkpt>
      <trkpt lon="-2.251789" lat="53.101231"><ele>133.905975</ele><time>2022-03-04T10:31:05Z</time><extensions><speed>1.303299</speed><course>120.765236</course><hAcc>1.574069</hAcc><vAcc>0.827942</vAcc></extensions></trkpt>
      <trkpt lon="-2.251772" lat="53.101225"><ele>133.890762</ele><time>2022-03-04T10:31:06Z</time><extensions><speed>1.327249</speed><course>118.816536</course><hAcc>1.547496</hAcc><vAcc>0.828067</vAcc></extensions></trkpt>
      <trkpt lon="-2.251755" lat="53.101219"><ele>133.886154</ele><time>2022-03-04T10:31:07Z</time><extensions><speed>1.311005</speed><course>118.045700</course><hAcc>1.564327</hAcc><vAcc>0.828178</vAcc></extensions></trkpt>
      <trkpt lon="-2.251738" lat="53.101214"><ele>133.888168</ele><time>2022-03-04T10:31:08Z</time><extensions><speed>1.252981</speed><course>119.267746</course><hAcc>1.601742</hAcc><vAcc>0.828258</vAcc></extensions></trkpt>
      <trkpt lon="-2.251723" lat="53.101208"><ele>133.881027</ele><time>2022-03-04T10:31:09Z</time><extensions><speed>1.160135</speed><course>120.946114</course><hAcc>1.623015</hAcc><vAcc>0.828293</vAcc></extensions></trkpt>
      <trkpt lon="-2.251709" lat="53.101203"><ele>133.871140</ele><time>2022-03-04T10:31:10Z</time><extensions><speed>1.058146</speed><course>125.128464</course><hAcc>1.619481</hAcc><vAcc>0.828314</vAcc></extensions></trkpt>
      <trkpt lon="-2.251698" lat="53.101197"><ele>133.855072</ele><time>2022-03-04T10:31:11Z</time><extensions><speed>0.928734</speed><course>135.654465</course><hAcc>1.623750</hAcc><vAcc>0.828319</vAcc></extensions></trkpt>
      <trkpt lon="-2.251691" lat="53.101190"><ele>133.841782</ele><time>2022-03-04T10:31:12Z</time><extensions><speed>0.825661</speed><course>159.706772</course><hAcc>1.618755</hAcc><vAcc>0.828297</vAcc></extensions></trkpt>
      <trkpt lon="-2.251689" lat="53.101182"><ele>133.835236</ele><time>2022-03-04T10:31:13Z</time><extensions><speed>0.995681</speed><course>178.113586</course><hAcc>1.632557</hAcc><vAcc>0.828249</vAcc></extensions></trkpt>
      <trkpt lon="-2.251690" lat="53.101172"><ele>133.820938</ele><time>2022-03-04T10:31:14Z</time><extensions><speed>1.231999</speed><course>184.994568</course><hAcc>1.647563</hAcc><vAcc>0.828189</vAcc></extensions></trkpt>
      <trkpt lon="-2.251692" lat="53.101160"><ele>133.808929</ele><time>2022-03-04T10:31:15Z</time><extensions><speed>1.378859</speed><course>189.608231</course><hAcc>1.637638</hAcc><vAcc>0.828126</vAcc></extensions></trkpt>
      <trkpt lon="-2.251696" lat="53.101148"><ele>133.797180</ele><time>2022-03-04T10:31:16Z</time><extensions><speed>1.387052</speed><course>193.098770</course><hAcc>1.631232</hAcc><vAcc>0.828077</vAcc></extensions></trkpt>
      <trkpt lon="-2.251701" lat="53.101136"><ele>133.797531</ele><time>2022-03-04T10:31:17Z</time><extensions><speed>1.386712</speed><course>193.579254</course><hAcc>1.631805</hAcc><vAcc>0.828026</vAcc></extensions></trkpt>
      <trkpt lon="-2.251706" lat="53.101123"><ele>133.788956</ele><time>2022-03-04T10:31:18Z</time><extensions><speed>1.430565</speed><course>192.915817</course><hAcc>1.615479</hAcc><vAcc>0.828006</vAcc></extensions></trkpt>
      <trkpt lon="-2.251710" lat="53.101111"><ele>133.786224</ele><time>2022-03-04T10:31:19Z</time><extensions><speed>1.312266</speed><course>189.693344</course><hAcc>1.594122</hAcc><vAcc>0.828006</vAcc></extensions></trkpt>
      <trkpt lon="-2.251712" lat="53.101099"><ele>133.772995</ele><time>2022-03-04T10:31:20Z</time><extensions><speed>1.310159</speed><course>184.781540</course><hAcc>1.589288</hAcc><vAcc>0.828011</vAcc></extensions></trkpt>
      <trkpt lon="-2.251713" lat="53.101087"><ele>133.764801</ele><time>2022-03-04T10:31:21Z</time><extensions><speed>1.338723</speed><course>180.800964</course><hAcc>1.602642</hAcc><vAcc>0.828039</vAcc></extensions></trkpt>
      <trkpt lon="-2.251713" lat="53.101075"><ele>133.757767</ele><time>2022-03-04T10:31:22Z</time><extensions><speed>1.366928</speed><course>180.108871</course><hAcc>1.596833</hAcc><vAcc>0.828083</vAcc></extensions></trkpt>
      <trkpt lon="-2.251713" lat="53.101062"><ele>133.764618</ele><time>2022-03-04T10:31:23Z</time><extensions><speed>1.537149</speed><course>181.630829</course><hAcc>1.557491</hAcc><vAcc>0.828154</vAcc></extensions></trkpt>
      <trkpt lon="-2.251714" lat="53.101048"><ele>133.762924</ele><time>2022-03-04T10:31:24Z</time><extensions><speed>1.619914</speed><course>182.762253</course><hAcc>1.542103</hAcc><vAcc>0.828264</vAcc></extensions></trkpt>
      <trkpt lon="-2.251715" lat="53.101033"><ele>133.750839</ele><time>2022-03-04T10:31:25Z</time><extensions><speed>1.662661</speed><course>182.235535</course><hAcc>1.519557</hAcc><vAcc>0.828382</vAcc></extensions></trkpt>
      <trkpt lon="-2.251716" lat="53.101019"><ele>133.748184</ele><time>2022-03-04T10:31:26Z</time><extensions><speed>1.613632</speed><course>181.181320</course><hAcc>1.498510</hAcc><vAcc>0.828523</vAcc></extensions></trkpt>
      <trkpt lon="-2.251717" lat="53.101004"><ele>133.726547</ele><time>2022-03-04T10:31:27Z</time><extensions><speed>1.660618</speed><course>179.873566</course><hAcc>1.460197</hAcc><vAcc>0.828662</vAcc></extensions></trkpt>
      <trkpt lon="-2.251717" lat="53.100989"><ele>133.684738</ele><time>2022-03-04T10:31:28Z</time><extensions><speed>1.754352</speed><course>178.655762</course><hAcc>1.462004</hAcc><vAcc>0.828826</vAcc></extensions></trkpt>
      <trkpt lon="-2.251716" lat="53.100974"><ele>133.633911</ele><time>2022-03-04T10:31:29Z</time><extensions><speed>1.765252</speed><course>175.726334</course><hAcc>1.442174</hAcc><vAcc>0.828984</vAcc></extensions></trkpt>
      <trkpt lon="-2.251712" lat="53.100959"><ele>133.577850</ele><time>2022-03-04T10:31:30Z</time><extensions><speed>1.724338</speed><course>164.156067</course><hAcc>1.417349</hAcc><vAcc>0.829129</vAcc></extensions></trkpt>
      <trkpt lon="-2.251705" lat="53.100945"><ele>133.501785</ele><time>2022-03-04T10:31:31Z</time><extensions><speed>1.637986</speed><course>160.238037</course><hAcc>1.389363</hAcc><vAcc>0.829264</vAcc></extensions></trkpt>
      <trkpt lon="-2.251697" lat="53.100931"><ele>133.409531</ele><time>2022-03-04T10:31:32Z</time><extensions><speed>1.663903</speed><course>159.186737</course><hAcc>1.394365</hAcc><vAcc>0.829381</vAcc></extensions></trkpt>
      <trkpt lon="-2.251690" lat="53.100917"><ele>133.316330</ele><time>2022-03-04T10:31:33Z</time><extensions><speed>1.639382</speed><course>165.024200</course><hAcc>1.388946</hAcc><vAcc>0.829480</vAcc></extensions></trkpt>
      <trkpt lon="-2.251684" lat="53.100904"><ele>133.221985</ele><time>2022-03-04T10:31:34Z</time><extensions><speed>1.544686</speed><course>164.187332</course><hAcc>1.368187</hAcc><vAcc>0.829563</vAcc></extensions></trkpt>
      <trkpt lon="-2.251677" lat="53.100891"><ele>133.125458</ele><time>2022-03-04T10:31:35Z</time><extensions><speed>1.491692</speed><course>157.418961</course><hAcc>1.372531</hAcc><vAcc>0.829621</vAcc></extensions></trkpt>
      <trkpt lon="-2.251669" lat="53.100880"><ele>133.031219</ele><time>2022-03-04T10:31:36Z</time><extensions><speed>1.396730</speed><course>153.575668</course><hAcc>1.377519</hAcc><vAcc>0.829664</vAcc></extensions></trkpt>
      <trkpt lon="-2.251660" lat="53.100870"><ele>132.922470</ele><time>2022-03-04T10:31:37Z</time><extensions><speed>1.260444</speed><course>151.253296</course><hAcc>1.371840</hAcc><vAcc>0.829683</vAcc></extensions></trkpt>
      <trkpt lon="-2.251652" lat="53.100861"><ele>132.809235</ele><time>2022-03-04T10:31:38Z</time><extensions><speed>1.179014</speed><course>154.381546</course><hAcc>1.360852</hAcc><vAcc>0.829662</vAcc></extensions></trkpt>
      <trkpt lon="-2.251646" lat="53.100851"><ele>132.705795</ele><time>2022-03-04T10:31:39Z</time><extensions><speed>1.329553</speed><course>163.060425</course><hAcc>1.383046</hAcc><vAcc>0.829566</vAcc></extensions></trkpt>
      <trkpt lon="-2.251641" lat="53.100840"><ele>132.608749</ele><time>2022-03-04T10:31:40Z</time><extensions><speed>1.241571</speed><course>164.256577</course><hAcc>1.372567</hAcc><vAcc>0.829415</vAcc></extensions></trkpt>
      <trkpt lon="-2.251636" lat="53.100831"><ele>132.518051</ele><time>2022-03-04T10:31:41Z</time><extensions><speed>1.157780</speed><course>158.547440</course><hAcc>1.376453</hAcc><vAcc>0.829068</vAcc></extensions></trkpt>
      <trkpt lon="-2.251629" lat="53.100821"><ele>132.450592</ele><time>2022-03-04T10:31:42Z</time><extensions><speed>1.208996</speed><course>152.673035</course><hAcc>1.382887</hAcc><vAcc>0.828609</vAcc></extensions></trkpt>
      <trkpt lon="-2.251620" lat="53.100813"><ele>132.393158</ele><time>2022-03-04T10:31:43Z</time><extensions><speed>1.191140</speed><course>145.858459</course><hAcc>1.385211</hAcc><vAcc>0.828156</vAcc></extensions></trkpt>
      <trkpt lon="-2.251610" lat="53.100804"><ele>132.374390</ele><time>2022-03-04T10:31:44Z</time><extensions><speed>1.261308</speed><course>147.760880</course><hAcc>1.402158</hAcc><vAcc>0.827654</vAcc></extensions></trkpt>
      <trkpt lon="-2.251601" lat="53.100794"><ele>132.375870</ele><time>2022-03-04T10:31:45Z</time><extensions><speed>1.267208</speed><course>151.977325</course><hAcc>1.423808</hAcc><vAcc>0.827102</vAcc></extensions></trkpt>
      <trkpt lon="-2.251593" lat="53.100784"><ele>132.387421</ele><time>2022-03-04T10:31:46Z</time><extensions><speed>1.237194</speed><course>158.004379</course><hAcc>1.452031</hAcc><vAcc>0.826503</vAcc></extensions></trkpt>
      <trkpt lon="-2.251587" lat="53.100775"><ele>132.434082</ele><time>2022-03-04T10:31:47Z</time><extensions><speed>1.009175</speed><course>160.229599</course><hAcc>1.476856</hAcc><vAcc>0.825867</vAcc></extensions></trkpt>
      <trkpt lon="-2.251581" lat="53.100768"><ele>132.499313</ele><time>2022-03-04T10:31:48Z</time><extensions><speed>0.693681</speed><course>135.072189</course><hAcc>1.495340</hAcc><vAcc>0.825215</vAcc></extensions></trkpt>
      <trkpt lon="-2.251575" lat="53.100767"><ele>132.578735</ele><time>2022-03-04T10:31:49Z</time><extensions><speed>0.305423</speed><course>73.557739</course><hAcc>1.520323</hAcc><vAcc>0.824566</vAcc></extensions></trkpt>
      <trkpt lon="-2.251572" lat="53.100769"><ele>132.672058</ele><time>2022-03-04T10:31:50Z</time><extensions><speed>0.399174</speed><course>8.310795</course><hAcc>1.581845</hAcc><vAcc>0.823967</vAcc></extensions></trkpt>
      <trkpt lon="-2.251572" lat="53.100774"><ele>132.777191</ele><time>2022-03-04T10:31:51Z</time><extensions><speed>0.756288</speed><course>357.841797</course><hAcc>1.634992</hAcc><vAcc>0.823461</vAcc></extensions></trkpt>
      <trkpt lon="-2.251572" lat="53.100782"><ele>132.892349</ele><time>2022-03-04T10:31:52Z</time><extensions><speed>1.001036</speed><course>5.933967</course><hAcc>1.663267</hAcc><vAcc>0.823077</vAcc></extensions></trkpt>
      <trkpt lon="-2.251568" lat="53.100791"><ele>133.004974</ele><time>2022-03-04T10:31:53Z</time><extensions><speed>1.202863</speed><course>20.495220</course><hAcc>1.684846</hAcc><vAcc>0.822815</vAcc></extensions></trkpt>
      <trkpt lon="-2.251561" lat="53.100801"><ele>133.122284</ele><time>2022-03-04T10:31:54Z</time><extensions><speed>1.205284</speed><course>29.318657</course><hAcc>1.703174</hAcc><vAcc>0.822680</vAcc></extensions></trkpt>
      <trkpt lon="-2.251552" lat="53.100810"><ele>133.237762</ele><time>2022-03-04T10:31:56Z</time><extensions><speed>1.017052</speed><course>31.678202</course><hAcc>1.702272</hAcc><vAcc>0.822636</vAcc></extensions></trkpt>
      <trkpt lon="-2.251546" lat="53.100816"><ele>133.345032</ele><time>2022-03-04T10:31:57Z</time><extensions><speed>0.672835</speed><course>30.035938</course><hAcc>1.686808</hAcc><vAcc>0.822623</vAcc></extensions></trkpt>
      <trkpt lon="-2.251543" lat="53.100820"><ele>133.445068</ele><time>2022-03-04T10:31:58Z</time><extensions><speed>0.367245</speed><course>21.164961</course><hAcc>1.669614</hAcc><vAcc>0.822644</vAcc></extensions></trkpt>
      <trkpt lon="-2.251543" lat="53.100822"><ele>133.541718</ele><time>2022-03-04T10:31:59Z</time><extensions><speed>0.191443</speed><course>319.910187</course><hAcc>1.654016</hAcc><vAcc>0.822687</vAcc></extensions></trkpt>
      <trkpt lon="-2.251546" lat="53.100822"><ele>133.626007</ele><time>2022-03-04T10:32:00Z</time><extensions><speed>0.219729</speed><course>276.959259</course><hAcc>1.662705</hAcc><vAcc>0.822739</vAcc></extensions></trkpt>
      <trkpt lon="-2.251549" lat="53.100822"><ele>133.699615</ele><time>2022-03-04T10:32:01Z</time><extensions><speed>0.191098</speed><course>254.885117</course><hAcc>1.700980</hAcc><vAcc>0.822768</vAcc></extensions></trkpt>
      <trkpt lon="-2.251553" lat="53.100821"><ele>133.763458</ele><time>2022-03-04T10:32:02Z</time><extensions><speed>0.389277</speed><course>242.521469</course><hAcc>1.660882</hAcc><vAcc>0.822778</vAcc></extensions></trkpt>
      <trkpt lon="-2.251559" lat="53.100819"><ele>133.813095</ele><time>2022-03-04T10:32:03Z</time><extensions><speed>0.535700</speed><course>236.213638</course><hAcc>1.645245</hAcc><vAcc>0.822768</vAcc></extensions></trkpt>
      <trkpt lon="-2.251566" lat="53.100816"><ele>133.855286</ele><time>2022-03-04T10:32:04Z</time><extensions><speed>0.639712</speed><course>230.860016</course><hAcc>1.657391</hAcc><vAcc>0.822724</vAcc></extensions></trkpt>
      <trkpt lon="-2.251573" lat="53.100812"><ele>133.888641</ele><time>2022-03-04T10:32:05Z</time><extensions><speed>0.689088</speed><course>225.363464</course><hAcc>1.674334</hAcc><vAcc>0.822649</vAcc></extensions></trkpt>
      <trkpt lon="-2.251580" lat="53.100807"><ele>133.916611</ele><time>2022-03-04T10:32:06Z</time><extensions><speed>0.699704</speed><course>220.044571</course><hAcc>1.684597</hAcc><vAcc>0.822533</vAcc></extensions></trkpt>
      <trkpt lon="-2.251586" lat="53.100802"><ele>133.929825</ele><time>2022-03-04T10:32:07Z</time><extensions><speed>0.652163</speed><course>215.825256</course><hAcc>1.690683</hAcc><vAcc>0.822433</vAcc></extensions></trkpt>
      <trkpt lon="-2.251592" lat="53.100798"><ele>133.931427</ele><time>2022-03-04T10:32:08Z</time><extensions><speed>0.573659</speed><course>212.746765</course><hAcc>1.693067</hAcc><vAcc>0.822343</vAcc></extensions></trkpt>
      <trkpt lon="-2.251596" lat="53.100794"><ele>133.927414</ele><time>2022-03-04T10:32:09Z</time><extensions><speed>0.451710</speed><course>211.045135</course><hAcc>1.699387</hAcc><vAcc>0.822270</vAcc></extensions></trkpt>
      <trkpt lon="-2.251599" lat="53.100791"><ele>133.918716</ele><time>2022-03-04T10:32:10Z</time><extensions><speed>0.347580</speed><course>211.830383</course><hAcc>1.701448</hAcc><vAcc>0.822209</vAcc></extensions></trkpt>
      <trkpt lon="-2.251602" lat="53.100789"><ele>133.898987</ele><time>2022-03-04T10:32:11Z</time><extensions><speed>0.263363</speed><course>217.089325</course><hAcc>1.702032</hAcc><vAcc>0.822161</vAcc></extensions></trkpt>
      <trkpt lon="-2.251605" lat="53.100787"><ele>133.869965</ele><time>2022-03-04T10:32:12Z</time><extensions><speed>0.208724</speed><course>232.141373</course><hAcc>1.702034</hAcc><vAcc>0.822110</vAcc></extensions></trkpt>
      <trkpt lon="-2.251608" lat="53.100786"><ele>133.833679</ele><time>2022-03-04T10:32:13Z</time><extensions><speed>0.210600</speed><course>256.646179</course><hAcc>1.702266</hAcc><vAcc>0.822014</vAcc></extensions></trkpt>
      <trkpt lon="-2.251612" lat="53.100786"><ele>133.787933</ele><time>2022-03-04T10:32:14Z</time><extensions><speed>0.274081</speed><course>275.522552</course><hAcc>1.705937</hAcc><vAcc>0.821906</vAcc></extensions></trkpt>
      <trkpt lon="-2.251616" lat="53.100787"><ele>133.733780</ele><time>2022-03-04T10:32:15Z</time><extensions><speed>0.383986</speed><course>283.833954</course><hAcc>1.708036</hAcc><vAcc>0.821727</vAcc></extensions></trkpt>
      <trkpt lon="-2.251623" lat="53.100788"><ele>133.675385</ele><time>2022-03-04T10:32:16Z</time><extensions><speed>0.519811</speed><course>285.201019</course><hAcc>1.706287</hAcc><vAcc>0.821302</vAcc></extensions></trkpt>
      <trkpt lon="-2.251631" lat="53.100789"><ele>133.613968</ele><time>2022-03-04T10:32:17Z</time><extensions><speed>0.619374</speed><course>282.672516</course><hAcc>1.707538</hAcc><vAcc>0.820759</vAcc></extensions></trkpt>
      <trkpt lon="-2.251641" lat="53.100790"><ele>133.534088</ele><time>2022-03-04T10:32:18Z</time><extensions><speed>0.671217</speed><course>276.663818</course><hAcc>1.708818</hAcc><vAcc>0.820191</vAcc></extensions></trkpt>
      <trkpt lon="-2.251651" lat="53.100790"><ele>133.460434</ele><time>2022-03-04T10:32:19Z</time><extensions><speed>0.674219</speed><course>266.797424</course><hAcc>1.711132</hAcc><vAcc>0.819422</vAcc></extensions></trkpt>
      <trkpt lon="-2.251661" lat="53.100789"><ele>133.368134</ele><time>2022-03-04T10:32:20Z</time><extensions><speed>0.663087</speed><course>254.452225</course><hAcc>1.713982</hAcc><vAcc>0.818529</vAcc></extensions></trkpt>
      <trkpt lon="-2.251670" lat="53.100787"><ele>133.269531</ele><time>2022-03-04T10:32:21Z</time><extensions><speed>0.668710</speed><course>241.916580</course><hAcc>1.716918</hAcc><vAcc>0.817505</vAcc></extensions></trkpt>
      <trkpt lon="-2.251678" lat="53.100783"><ele>133.175446</ele><time>2022-03-04T10:32:22Z</time><extensions><speed>0.669383</speed><course>230.864075</course><hAcc>1.723892</hAcc><vAcc>0.816294</vAcc></extensions></trkpt>
      <trkpt lon="-2.251685" lat="53.100779"><ele>133.085205</ele><time>2022-03-04T10:32:23Z</time><extensions><speed>0.664518</speed><course>222.216995</course><hAcc>1.731300</hAcc><vAcc>0.814964</vAcc></extensions></trkpt>
      <trkpt lon="-2.251691" lat="53.100774"><ele>132.984787</ele><time>2022-03-04T10:32:24Z</time><extensions><speed>0.674046</speed><course>214.868408</course><hAcc>1.735257</hAcc><vAcc>0.813344</vAcc></extensions></trkpt>
      <trkpt lon="-2.251696" lat="53.100769"><ele>132.891403</ele><time>2022-03-04T10:32:25Z</time><extensions><speed>0.700036</speed><course>207.143158</course><hAcc>1.736893</hAcc><vAcc>0.811451</vAcc></extensions></trkpt>
      <trkpt lon="-2.251701" lat="53.100763"><ele>132.798843</ele><time>2022-03-04T10:32:26Z</time><extensions><speed>0.805028</speed><course>198.866348</course><hAcc>1.727389</hAcc><vAcc>0.809343</vAcc></extensions></trkpt>
      <trkpt lon="-2.251704" lat="53.100755"><ele>132.711136</ele><time>2022-03-04T10:32:27Z</time><extensions><speed>1.010270</speed><course>193.525955</course><hAcc>1.717369</hAcc><vAcc>0.807136</vAcc></extensions></trkpt>
      <trkpt lon="-2.251707" lat="53.100746"><ele>132.627716</ele><time>2022-03-04T10:32:28Z</time><extensions><speed>0.956976</speed><course>193.002182</course><hAcc>1.738557</hAcc><vAcc>0.805003</vAcc></extensions></trkpt>
      <trkpt lon="-2.251709" lat="53.100738"><ele>132.562347</ele><time>2022-03-04T10:32:29Z</time><extensions><speed>0.892383</speed><course>183.981186</course><hAcc>1.729853</hAcc><vAcc>0.802977</vAcc></extensions></trkpt>
      <trkpt lon="-2.251708" lat="53.100731"><ele>132.505219</ele><time>2022-03-04T10:32:30Z</time><extensions><speed>0.728819</speed><course>168.800629</course><hAcc>1.721406</hAcc><vAcc>0.800970</vAcc></extensions></trkpt>
      <trkpt lon="-2.251704" lat="53.100725"><ele>132.457428</ele><time>2022-03-04T10:32:31Z</time><extensions><speed>0.617277</speed><course>145.131943</course><hAcc>1.717395</hAcc><vAcc>0.799090</vAcc></extensions></trkpt>
      <trkpt lon="-2.251697" lat="53.100722"><ele>132.418869</ele><time>2022-03-04T10:32:32Z</time><extensions><speed>0.521291</speed><course>117.269989</course><hAcc>1.731062</hAcc><vAcc>0.797320</vAcc></extensions></trkpt>
      <trkpt lon="-2.251689" lat="53.100720"><ele>132.389847</ele><time>2022-03-04T10:32:33Z</time><extensions><speed>0.654604</speed><course>102.025993</course><hAcc>1.722141</hAcc><vAcc>0.795741</vAcc></extensions></trkpt>
      <trkpt lon="-2.251678" lat="53.100719"><ele>132.385681</ele><time>2022-03-04T10:32:34Z</time><extensions><speed>0.759238</speed><course>95.678001</course><hAcc>1.721834</hAcc><vAcc>0.794495</vAcc></extensions></trkpt>
      <trkpt lon="-2.251667" lat="53.100718"><ele>132.383484</ele><time>2022-03-04T10:32:35Z</time><extensions><speed>0.817623</speed><course>94.360741</course><hAcc>1.733101</hAcc><vAcc>0.793693</vAcc></extensions></trkpt>
      <trkpt lon="-2.251654" lat="53.100718"><ele>132.398270</ele><time>2022-03-04T10:32:36Z</time><extensions><speed>0.890964</speed><course>96.092941</course><hAcc>1.736014</hAcc><vAcc>0.793470</vAcc></extensions></trkpt>
      <trkpt lon="-2.251640" lat="53.100717"><ele>132.424500</ele><time>2022-03-04T10:32:37Z</time><extensions><speed>0.909737</speed><course>99.461723</course><hAcc>1.734969</hAcc><vAcc>0.793866</vAcc></extensions></trkpt>
      <trkpt lon="-2.251627" lat="53.100715"><ele>132.464050</ele><time>2022-03-04T10:32:38Z</time><extensions><speed>0.874068</speed><course>105.541992</course><hAcc>1.734625</hAcc><vAcc>0.794857</vAcc></extensions></trkpt>
      <trkpt lon="-2.251615" lat="53.100712"><ele>132.511856</ele><time>2022-03-04T10:32:39Z</time><extensions><speed>0.834627</speed><course>112.740166</course><hAcc>1.729994</hAcc><vAcc>0.796340</vAcc></extensions></trkpt>
      <trkpt lon="-2.251605" lat="53.100709"><ele>132.566238</ele><time>2022-03-04T10:32:40Z</time><extensions><speed>0.757285</speed><course>118.047005</course><hAcc>1.723427</hAcc><vAcc>0.798181</vAcc></extensions></trkpt>
      <trkpt lon="-2.251596" lat="53.100706"><ele>132.625641</ele><time>2022-03-04T10:32:41Z</time><extensions><speed>0.631005</speed><course>121.807281</course><hAcc>1.721435</hAcc><vAcc>0.800242</vAcc></extensions></trkpt>
      <trkpt lon="-2.251588" lat="53.100703"><ele>132.688583</ele><time>2022-03-04T10:32:42Z</time><extensions><speed>0.525356</speed><course>125.529778</course><hAcc>1.723310</hAcc><vAcc>0.802393</vAcc></extensions></trkpt>
      <trkpt lon="-2.251582" lat="53.100701"><ele>132.745590</ele><time>2022-03-04T10:32:43Z</time><extensions><speed>0.460341</speed><course>127.497635</course><hAcc>1.728048</hAcc><vAcc>0.804525</vAcc></extensions></trkpt>
      <trkpt lon="-2.251577" lat="53.100698"><ele>132.798645</ele><time>2022-03-04T10:32:44Z</time><extensions><speed>0.452986</speed><course>123.608826</course><hAcc>1.727696</hAcc><vAcc>0.806540</vAcc></extensions></trkpt>
      <trkpt lon="-2.251571" lat="53.100696"><ele>132.840073</ele><time>2022-03-04T10:32:45Z</time><extensions><speed>0.522915</speed><course>111.747826</course><hAcc>1.723843</hAcc><vAcc>0.808369</vAcc></extensions></trkpt>
      <trkpt lon="-2.251564" lat="53.100695"><ele>132.866989</ele><time>2022-03-04T10:32:46Z</time><extensions><speed>0.429648</speed><course>113.260880</course><hAcc>1.732757</hAcc><vAcc>0.809963</vAcc></extensions></trkpt>
      <trkpt lon="-2.251560" lat="53.100693"><ele>132.889389</ele><time>2022-03-04T10:32:47Z</time><extensions><speed>0.244778</speed><course>128.092789</course><hAcc>1.739515</hAcc><vAcc>0.811256</vAcc></extensions></trkpt>
      <trkpt lon="-2.251557" lat="53.100692"><ele>132.894165</ele><time>2022-03-04T10:32:48Z</time><extensions><speed>0.129733</speed><course>132.609528</course><hAcc>1.745134</hAcc><vAcc>0.812238</vAcc></extensions></trkpt>
      <trkpt lon="-2.251556" lat="53.100692"><ele>132.880615</ele><time>2022-03-04T10:32:49Z</time><extensions><speed>0.069492</speed><course>88.246613</course><hAcc>1.749700</hAcc><vAcc>0.812932</vAcc></extensions></trkpt>
      <trkpt lon="-2.251555" lat="53.100692"><ele>132.835114</ele><time>2022-03-04T10:32:50Z</time><extensions><speed>0.144507</speed><course>39.347046</course><hAcc>1.754172</hAcc><vAcc>0.813243</vAcc></extensions></trkpt>
      <trkpt lon="-2.251553" lat="53.100694"><ele>132.783798</ele><time>2022-03-04T10:32:51Z</time><extensions><speed>0.294051</speed><course>32.263515</course><hAcc>1.752941</hAcc><vAcc>0.813342</vAcc></extensions></trkpt>
      <trkpt lon="-2.251549" lat="53.100697"><ele>132.733658</ele><time>2022-03-04T10:32:51Z</time><extensions><speed>0.494904</speed><course>33.003143</course><hAcc>1.749109</hAcc><vAcc>0.813158</vAcc></extensions></trkpt>
      <trkpt lon="-2.251544" lat="53.100702"><ele>132.664398</ele><time>2022-03-04T10:32:52Z</time><extensions><speed>0.762532</speed><course>36.220474</course><hAcc>1.739619</hAcc><vAcc>0.812637</vAcc></extensions></trkpt>
      <trkpt lon="-2.251535" lat="53.100709"><ele>132.599976</ele><time>2022-03-04T10:32:53Z</time><extensions><speed>1.157519</speed><course>40.391247</course><hAcc>1.729605</hAcc><vAcc>0.812020</vAcc></extensions></trkpt>
      <trkpt lon="-2.251523" lat="53.100718"><ele>132.543839</ele><time>2022-03-04T10:32:54Z</time><extensions><speed>1.401498</speed><course>40.525333</course><hAcc>1.740543</hAcc><vAcc>0.811298</vAcc></extensions></trkpt>
      <trkpt lon="-2.251509" lat="53.100728"><ele>132.492691</ele><time>2022-03-04T10:32:55Z</time><extensions><speed>1.646103</speed><course>39.235142</course><hAcc>1.741936</hAcc><vAcc>0.810529</vAcc></extensions></trkpt>
      <trkpt lon="-2.251492" lat="53.100741"><ele>132.452225</ele><time>2022-03-04T10:32:56Z</time><extensions><speed>1.871109</speed><course>40.618465</course><hAcc>1.733438</hAcc><vAcc>0.809793</vAcc></extensions></trkpt>
      <trkpt lon="-2.251473" lat="53.100754"><ele>132.416641</ele><time>2022-03-04T10:32:57Z</time><extensions><speed>2.009242</speed><course>44.571388</course><hAcc>1.726866</hAcc><vAcc>0.809125</vAcc></extensions></trkpt>
      <trkpt lon="-2.251452" lat="53.100767"><ele>132.407440</ele><time>2022-03-04T10:32:58Z</time><extensions><speed>2.023511</speed><course>44.341290</course><hAcc>1.718302</hAcc><vAcc>0.808605</vAcc></extensions></trkpt>
      <trkpt lon="-2.251433" lat="53.100780"><ele>132.428375</ele><time>2022-03-04T10:32:59Z</time><extensions><speed>1.951088</speed><course>37.286201</course><hAcc>1.711390</hAcc><vAcc>0.808293</vAcc></extensions></trkpt>
      <trkpt lon="-2.251419" lat="53.100795"><ele>132.435745</ele><time>2022-03-04T10:33:00Z</time><extensions><speed>1.708177</speed><course>21.544271</course><hAcc>1.714798</hAcc><vAcc>0.808225</vAcc></extensions></trkpt>
      <trkpt lon="-2.251413" lat="53.100809"><ele>132.455200</ele><time>2022-03-04T10:33:01Z</time><extensions><speed>1.657004</speed><course>5.274518</course><hAcc>1.720779</hAcc><vAcc>0.808443</vAcc></extensions></trkpt>
      <trkpt lon="-2.251413" lat="53.100825"><ele>132.487122</ele><time>2022-03-04T10:33:02Z</time><extensions><speed>1.912118</speed><course>357.206879</course><hAcc>1.704310</hAcc><vAcc>0.808931</vAcc></extensions></trkpt>
      <trkpt lon="-2.251414" lat="53.100844"><ele>132.537994</ele><time>2022-03-04T10:33:03Z</time><extensions><speed>2.133810</speed><course>356.060486</course><hAcc>1.696168</hAcc><vAcc>0.809677</vAcc></extensions></trkpt>
      <trkpt lon="-2.251416" lat="53.100863"><ele>132.597839</ele><time>2022-03-04T10:33:04Z</time><extensions><speed>2.242713</speed><course>356.018341</course><hAcc>1.683940</hAcc><vAcc>0.810631</vAcc></extensions></trkpt>
      <trkpt lon="-2.251418" lat="53.100884"><ele>132.660721</ele><time>2022-03-04T10:33:05Z</time><extensions><speed>2.314042</speed><course>356.910370</course><hAcc>1.667033</hAcc><vAcc>0.811715</vAcc></extensions></trkpt>
      <trkpt lon="-2.251419" lat="53.100905"><ele>132.744019</ele><time>2022-03-04T10:33:06Z</time><extensions><speed>2.306805</speed><course>359.930145</course><hAcc>1.650551</hAcc><vAcc>0.812857</vAcc></extensions></trkpt>
      <trkpt lon="-2.251418" lat="53.100925"><ele>132.808899</ele><time>2022-03-04T10:33:07Z</time><extensions><speed>2.204141</speed><course>4.617177</course><hAcc>1.634127</hAcc><vAcc>0.814003</vAcc></extensions></trkpt>
      <trkpt lon="-2.251414" lat="53.100944"><ele>132.870850</ele><time>2022-03-04T10:33:08Z</time><extensions><speed>1.978088</speed><course>11.676242</course><hAcc>1.622311</hAcc><vAcc>0.815063</vAcc></extensions></trkpt>
      <trkpt lon="-2.251407" lat="53.100960"><ele>132.927338</ele><time>2022-03-04T10:33:09Z</time><extensions><speed>1.766415</speed><course>17.271824</course><hAcc>1.609394</hAcc><vAcc>0.816076</vAcc></extensions></trkpt>
      <trkpt lon="-2.251398" lat="53.100975"><ele>132.976242</ele><time>2022-03-04T10:33:10Z</time><extensions><speed>1.599886</speed><course>23.922003</course><hAcc>1.605652</hAcc><vAcc>0.816974</vAcc></extensions></trkpt>
      <trkpt lon="-2.251387" lat="53.100987"><ele>133.024673</ele><time>2022-03-04T10:33:11Z</time><extensions><speed>1.563998</speed><course>29.850418</course><hAcc>1.601678</hAcc><vAcc>0.817770</vAcc></extensions></trkpt>
      <trkpt lon="-2.251375" lat="53.101000"><ele>133.076965</ele><time>2022-03-04T10:33:12Z</time><extensions><speed>1.556011</speed><course>31.202944</course><hAcc>1.560820</hAcc><vAcc>0.818446</vAcc></extensions></trkpt>
      <trkpt lon="-2.251364" lat="53.101011"><ele>133.136230</ele><time>2022-03-04T10:33:13Z</time><extensions><speed>1.476427</speed><course>29.627323</course><hAcc>1.543307</hAcc><vAcc>0.818997</vAcc></extensions></trkpt>
      <trkpt lon="-2.251353" lat="53.101023"><ele>133.193405</ele><time>2022-03-04T10:33:14Z</time><extensions><speed>1.396649</speed><course>27.960342</course><hAcc>1.544199</hAcc><vAcc>0.819438</vAcc></extensions></trkpt>
      <trkpt lon="-2.251343" lat="53.101034"><ele>133.248642</ele><time>2022-03-04T10:33:15Z</time><extensions><speed>1.418081</speed><course>28.684834</course><hAcc>1.561502</hAcc><vAcc>0.819781</vAcc></extensions></trkpt>
      <trkpt lon="-2.251332" lat="53.101046"><ele>133.297348</ele><time>2022-03-04T10:33:16Z</time><extensions><speed>1.581470</speed><course>29.388821</course><hAcc>1.557276</hAcc><vAcc>0.820047</vAcc></extensions></trkpt>
      <trkpt lon="-2.251321" lat="53.101059"><ele>133.334702</ele><time>2022-03-04T10:33:17Z</time><extensions><speed>1.614832</speed><course>28.294231</course><hAcc>1.517920</hAcc><vAcc>0.820262</vAcc></extensions></trkpt>
      <trkpt lon="-2.251310" lat="53.101071"><ele>133.357880</ele><time>2022-03-04T10:33:18Z</time><extensions><speed>1.515128</speed><course>28.936483</course><hAcc>1.510627</hAcc><vAcc>0.820435</vAcc></extensions></trkpt>
      <trkpt lon="-2.251298" lat="53.101082"><ele>133.393829</ele><time>2022-03-04T10:33:19Z</time><extensions><speed>1.477918</speed><course>35.189373</course><hAcc>1.550428</hAcc><vAcc>0.820582</vAcc></extensions></trkpt>
      <trkpt lon="-2.251285" lat="53.101094"><ele>133.429398</ele><time>2022-03-04T10:33:20Z</time><extensions><speed>1.641565</speed><course>34.169060</course><hAcc>1.492327</hAcc><vAcc>0.820713</vAcc></extensions></trkpt>
      <trkpt lon="-2.251270" lat="53.101107"><ele>133.470978</ele><time>2022-03-04T10:33:21Z</time><extensions><speed>1.807325</speed><course>33.391647</course><hAcc>1.469869</hAcc><vAcc>0.820825</vAcc></extensions></trkpt>
      <trkpt lon="-2.251255" lat="53.101121"><ele>133.519791</ele><time>2022-03-04T10:33:22Z</time><extensions><speed>1.879090</speed><course>31.926250</course><hAcc>1.484227</hAcc><vAcc>0.820930</vAcc></extensions></trkpt>
      <trkpt lon="-2.251241" lat="53.101135"><ele>133.561722</ele><time>2022-03-04T10:33:23Z</time><extensions><speed>1.880830</speed><course>30.376553</course><hAcc>1.480003</hAcc><vAcc>0.821022</vAcc></extensions></trkpt>
      <trkpt lon="-2.251226" lat="53.101149"><ele>133.598770</ele><time>2022-03-04T10:33:24Z</time><extensions><speed>1.867583</speed><course>32.320156</course><hAcc>1.456725</hAcc><vAcc>0.821128</vAcc></extensions></trkpt>
      <trkpt lon="-2.251212" lat="53.101164"><ele>133.633698</ele><time>2022-03-04T10:33:25Z</time><extensions><speed>1.875878</speed><course>30.061974</course><hAcc>1.443057</hAcc><vAcc>0.821233</vAcc></extensions></trkpt>
      <trkpt lon="-2.251199" lat="53.101178"><ele>133.669205</ele><time>2022-03-04T10:33:26Z</time><extensions><speed>1.812267</speed><course>23.232285</course><hAcc>1.438264</hAcc><vAcc>0.821371</vAcc></extensions></trkpt>
      <trkpt lon="-2.251189" lat="53.101193"><ele>133.706924</ele><time>2022-03-04T10:33:27Z</time><extensions><speed>1.722751</speed><course>21.585876</course><hAcc>1.432667</hAcc><vAcc>0.821492</vAcc></extensions></trkpt>
      <trkpt lon="-2.251179" lat="53.101207"><ele>133.735901</ele><time>2022-03-04T10:33:28Z</time><extensions><speed>1.643443</speed><course>23.641949</course><hAcc>1.442011</hAcc><vAcc>0.821614</vAcc></extensions></trkpt>
      <trkpt lon="-2.251168" lat="53.101220"><ele>133.765762</ele><time>2022-03-04T10:33:29Z</time><extensions><speed>1.645022</speed><course>30.293694</course><hAcc>1.449442</hAcc><vAcc>0.821731</vAcc></extensions></trkpt>
      <trkpt lon="-2.251155" lat="53.101232"><ele>133.793655</ele><time>2022-03-04T10:33:30Z</time><extensions><speed>1.728841</speed><course>34.880024</course><hAcc>1.455982</hAcc><vAcc>0.821830</vAcc></extensions></trkpt>
      <trkpt lon="-2.251139" lat="53.101245"><ele>133.816101</ele><time>2022-03-04T10:33:31Z</time><extensions><speed>1.757815</speed><course>40.267097</course><hAcc>1.446879</hAcc><vAcc>0.821877</vAcc></extensions></trkpt>
      <trkpt lon="-2.251121" lat="53.101256"><ele>133.833511</ele><time>2022-03-04T10:33:32Z</time><extensions><speed>1.760684</speed><course>44.909000</course><hAcc>1.447392</hAcc><vAcc>0.821918</vAcc></extensions></trkpt>
      <trkpt lon="-2.251103" lat="53.101268"><ele>133.843414</ele><time>2022-03-04T10:33:33Z</time><extensions><speed>1.695276</speed><course>41.812912</course><hAcc>1.458475</hAcc><vAcc>0.821973</vAcc></extensions></trkpt>
      <trkpt lon="-2.251088" lat="53.101279"><ele>133.859314</ele><time>2022-03-04T10:33:34Z</time><extensions><speed>1.649498</speed><course>36.865822</course><hAcc>1.464577</hAcc><vAcc>0.822034</vAcc></extensions></trkpt>
      <trkpt lon="-2.251073" lat="53.101291"><ele>133.868149</ele><time>2022-03-04T10:33:35Z</time><extensions><speed>1.622237</speed><course>34.313492</course><hAcc>1.466594</hAcc><vAcc>0.822074</vAcc></extensions></trkpt>
      <trkpt lon="-2.251060" lat="53.101303"><ele>133.858429</ele><time>2022-03-04T10:33:36Z</time><extensions><speed>1.547468</speed><course>37.360271</course><hAcc>1.476099</hAcc><vAcc>0.822095</vAcc></extensions></trkpt>
      <trkpt lon="-2.251046" lat="53.101314"><ele>133.828323</ele><time>2022-03-04T10:33:37Z</time><extensions><speed>1.521514</speed><course>33.997501</course><hAcc>1.476906</hAcc><vAcc>0.822108</vAcc></extensions></trkpt>
      <trkpt lon="-2.251034" lat="53.101326"><ele>133.784409</ele><time>2022-03-04T10:33:38Z</time><extensions><speed>1.500910</speed><course>29.868994</course><hAcc>1.487635</hAcc><vAcc>0.822101</vAcc></extensions></trkpt>
      <trkpt lon="-2.251024" lat="53.101338"><ele>133.739746</ele><time>2022-03-04T10:33:39Z</time><extensions><speed>1.432632</speed><course>26.129044</course><hAcc>1.490772</hAcc><vAcc>0.822089</vAcc></extensions></trkpt>
      <trkpt lon="-2.251014" lat="53.101349"><ele>133.697739</ele><time>2022-03-04T10:33:40Z</time><extensions><speed>1.353338</speed><course>28.368584</course><hAcc>1.514504</hAcc><vAcc>0.822059</vAcc></extensions></trkpt>
      <trkpt lon="-2.251004" lat="53.101359"><ele>133.648254</ele><time>2022-03-04T10:33:41Z</time><extensions><speed>1.344299</speed><course>32.407692</course><hAcc>1.483375</hAcc><vAcc>0.822015</vAcc></extensions></trkpt>
      <trkpt lon="-2.250993" lat="53.101370"><ele>133.596161</ele><time>2022-03-04T10:33:42Z</time><extensions><speed>1.381866</speed><course>32.994114</course><hAcc>1.503027</hAcc><vAcc>0.821990</vAcc></extensions></trkpt>
      <trkpt lon="-2.250981" lat="53.101380"><ele>133.550781</ele><time>2022-03-04T10:33:43Z</time><extensions><speed>1.386673</speed><course>31.881371</course><hAcc>1.558062</hAcc><vAcc>0.821968</vAcc></extensions></trkpt>
      <trkpt lon="-2.250970" lat="53.101391"><ele>133.512741</ele><time>2022-03-04T10:33:44Z</time><extensions><speed>1.418326</speed><course>30.647833</course><hAcc>1.581245</hAcc><vAcc>0.821954</vAcc></extensions></trkpt>
      <trkpt lon="-2.250959" lat="53.101402"><ele>133.476547</ele><time>2022-03-04T10:33:45Z</time><extensions><speed>1.471854</speed><course>34.051266</course><hAcc>1.563450</hAcc><vAcc>0.821961</vAcc></extensions></trkpt>
      <trkpt lon="-2.250946" lat="53.101413"><ele>133.439270</ele><time>2022-03-04T10:33:46Z</time><extensions><speed>1.501459</speed><course>36.962032</course><hAcc>1.561971</hAcc><vAcc>0.821983</vAcc></extensions></trkpt>
      <trkpt lon="-2.250932" lat="53.101424"><ele>133.397781</ele><time>2022-03-04T10:33:47Z</time><extensions><speed>1.469948</speed><course>40.430283</course><hAcc>1.564655</hAcc><vAcc>0.822002</vAcc></extensions></trkpt>
      <trkpt lon="-2.250918" lat="53.101433"><ele>133.367813</ele><time>2022-03-04T10:33:48Z</time><extensions><speed>1.377634</speed><course>39.386597</course><hAcc>1.569036</hAcc><vAcc>0.822040</vAcc></extensions></trkpt>
      <trkpt lon="-2.250906" lat="53.101444"><ele>133.332733</ele><time>2022-03-04T10:33:49Z</time><extensions><speed>1.386807</speed><course>32.838642</course><hAcc>1.565045</hAcc><vAcc>0.822047</vAcc></extensions></trkpt>
      <trkpt lon="-2.250894" lat="53.101455"><ele>133.317993</ele><time>2022-03-04T10:33:50Z</time><extensions><speed>1.593441</speed><course>35.377785</course><hAcc>1.524950</hAcc><vAcc>0.822064</vAcc></extensions></trkpt>
      <trkpt lon="-2.250879" lat="53.101467"><ele>133.314804</ele><time>2022-03-04T10:33:51Z</time><extensions><speed>1.720107</speed><course>38.216557</course><hAcc>1.509550</hAcc><vAcc>0.822093</vAcc></extensions></trkpt>
      <trkpt lon="-2.250862" lat="53.101478"><ele>133.319107</ele><time>2022-03-04T10:33:52Z</time><extensions><speed>1.671812</speed><course>42.919296</course><hAcc>1.530808</hAcc><vAcc>0.822139</vAcc></extensions></trkpt>
      <trkpt lon="-2.250844" lat="53.101489"><ele>133.311523</ele><time>2022-03-04T10:33:53Z</time><extensions><speed>1.658380</speed><course>44.918678</course><hAcc>1.508645</hAcc><vAcc>0.822176</vAcc></extensions></trkpt>
      <trkpt lon="-2.250827" lat="53.101500"><ele>133.295181</ele><time>2022-03-04T10:33:54Z</time><extensions><speed>1.614104</speed><course>42.128746</course><hAcc>1.515490</hAcc><vAcc>0.822185</vAcc></extensions></trkpt>
      <trkpt lon="-2.250812" lat="53.101511"><ele>133.291290</ele><time>2022-03-04T10:33:55Z</time><extensions><speed>1.603991</speed><course>37.547958</course><hAcc>1.503105</hAcc><vAcc>0.822177</vAcc></extensions></trkpt>
      <trkpt lon="-2.250797" lat="53.101522"><ele>133.294662</ele><time>2022-03-04T10:33:56Z</time><extensions><speed>1.550303</speed><course>36.643612</course><hAcc>1.476527</hAcc><vAcc>0.822143</vAcc></extensions></trkpt>
      <trkpt lon="-2.250784" lat="53.101533"><ele>133.299942</ele><time>2022-03-04T10:33:57Z</time><extensions><speed>1.461228</speed><course>36.084919</course><hAcc>1.469725</hAcc><vAcc>0.822081</vAcc></extensions></trkpt>
      <trkpt lon="-2.250772" lat="53.101545"><ele>133.307663</ele><time>2022-03-04T10:33:58Z</time><extensions><speed>1.459975</speed><course>30.291952</course><hAcc>1.452819</hAcc><vAcc>0.822037</vAcc></extensions></trkpt>
      <trkpt lon="-2.250761" lat="53.101557"><ele>133.304520</ele><time>2022-03-04T10:33:59Z</time><extensions><speed>1.578529</speed><course>27.485912</course><hAcc>1.427495</hAcc><vAcc>0.821998</vAcc></extensions></trkpt>
      <trkpt lon="-2.250750" lat="53.101570"><ele>133.316544</ele><time>2022-03-04T10:34:00Z</time><extensions><speed>1.595958</speed><course>26.344950</course><hAcc>1.459572</hAcc><vAcc>0.821954</vAcc></extensions></trkpt>
      <trkpt lon="-2.250738" lat="53.101583"><ele>133.325760</ele><time>2022-03-04T10:34:02Z</time><extensions><speed>1.635401</speed><course>32.470379</course><hAcc>1.458656</hAcc><vAcc>0.821923</vAcc></extensions></trkpt>
      <trkpt lon="-2.250724" lat="53.101595"><ele>133.341431</ele><time>2022-03-04T10:34:03Z</time><extensions><speed>1.628298</speed><course>38.258915</course><hAcc>1.444100</hAcc><vAcc>0.821876</vAcc></extensions></trkpt>
      <trkpt lon="-2.250708" lat="53.101606"><ele>133.350174</ele><time>2022-03-04T10:34:04Z</time><extensions><speed>1.581826</speed><course>43.576897</course><hAcc>1.428540</hAcc><vAcc>0.821839</vAcc></extensions></trkpt>
      <trkpt lon="-2.250692" lat="53.101616"><ele>133.354340</ele><time>2022-03-04T10:34:05Z</time><extensions><speed>1.506065</speed><course>43.753841</course><hAcc>1.389746</hAcc><vAcc>0.821816</vAcc></extensions></trkpt>
      <trkpt lon="-2.250677" lat="53.101626"><ele>133.372726</ele><time>2022-03-04T10:34:06Z</time><extensions><speed>1.419354</speed><course>39.454857</course><hAcc>1.398903</hAcc><vAcc>0.821795</vAcc></extensions></trkpt>
      <trkpt lon="-2.250665" lat="53.101636"><ele>133.387283</ele><time>2022-03-04T10:34:07Z</time><extensions><speed>1.361470</speed><course>35.466400</course><hAcc>1.403702</hAcc><vAcc>0.821784</vAcc></extensions></trkpt>
      <trkpt lon="-2.250652" lat="53.101647"><ele>133.418594</ele><time>2022-03-04T10:34:08Z</time><extensions><speed>1.640260</speed><course>33.457748</course><hAcc>1.410316</hAcc><vAcc>0.821784</vAcc></extensions></trkpt>
      <trkpt lon="-2.250638" lat="53.101660"><ele>133.448090</ele><time>2022-03-04T10:34:09Z</time><extensions><speed>1.654540</speed><course>35.890610</course><hAcc>1.417730</hAcc><vAcc>0.821802</vAcc></extensions></trkpt>
      <trkpt lon="-2.250624" lat="53.101672"><ele>133.453995</ele><time>2022-03-04T10:34:10Z</time><extensions><speed>1.655718</speed><course>34.921970</course><hAcc>1.408589</hAcc><vAcc>0.821821</vAcc></extensions></trkpt>
      <trkpt lon="-2.250610" lat="53.101684"><ele>133.463867</ele><time>2022-03-04T10:34:11Z</time><extensions><speed>1.682963</speed><course>33.771046</course><hAcc>1.399116</hAcc><vAcc>0.821838</vAcc></extensions></trkpt>
      <trkpt lon="-2.250596" lat="53.101696"><ele>133.476913</ele><time>2022-03-04T10:34:12Z</time><extensions><speed>1.631418</speed><course>36.177044</course><hAcc>1.412574</hAcc><vAcc>0.821862</vAcc></extensions></trkpt>
      <trkpt lon="-2.250581" lat="53.101708"><ele>133.501831</ele><time>2022-03-04T10:34:13Z</time><extensions><speed>1.631543</speed><course>38.094639</course><hAcc>1.420096</hAcc><vAcc>0.821867</vAcc></extensions></trkpt>
      <trkpt lon="-2.250567" lat="53.101720"><ele>133.538834</ele><time>2022-03-04T10:34:14Z</time><extensions><speed>1.627052</speed><course>37.732048</course><hAcc>1.441514</hAcc><vAcc>0.821847</vAcc></extensions></trkpt>
      <trkpt lon="-2.250552" lat="53.101732"><ele>133.586197</ele><time>2022-03-04T10:34:15Z</time><extensions><speed>1.681776</speed><course>34.260120</course><hAcc>1.432152</hAcc><vAcc>0.821840</vAcc></extensions></trkpt>
      <trkpt lon="-2.250538" lat="53.101745"><ele>133.619675</ele><time>2022-03-04T10:34:16Z</time><extensions><speed>1.795896</speed><course>33.687717</course><hAcc>1.444882</hAcc><vAcc>0.821838</vAcc></extensions></trkpt>
      <trkpt lon="-2.250523" lat="53.101758"><ele>133.674774</ele><time>2022-03-04T10:34:17Z</time><extensions><speed>1.804730</speed><course>32.707939</course><hAcc>1.464119</hAcc><vAcc>0.821815</vAcc></extensions></trkpt>
      <trkpt lon="-2.250509" lat="53.101771"><ele>133.733292</ele><time>2022-03-04T10:34:18Z</time><extensions><speed>1.729878</speed><course>33.824593</course><hAcc>1.473063</hAcc><vAcc>0.821789</vAcc></extensions></trkpt>
      <trkpt lon="-2.250495" lat="53.101785"><ele>133.776840</ele><time>2022-03-04T10:34:19Z</time><extensions><speed>1.742808</speed><course>30.717278</course><hAcc>1.481390</hAcc><vAcc>0.821769</vAcc></extensions></trkpt>
      <trkpt lon="-2.250481" lat="53.101797"><ele>133.813477</ele><time>2022-03-04T10:34:20Z</time><extensions><speed>1.688962</speed><course>35.407707</course><hAcc>1.476204</hAcc><vAcc>0.821789</vAcc></extensions></trkpt>
      <trkpt lon="-2.250466" lat="53.101809"><ele>133.851074</ele><time>2022-03-04T10:34:21Z</time><extensions><speed>1.682190</speed><course>39.266792</course><hAcc>1.473694</hAcc><vAcc>0.821835</vAcc></extensions></trkpt>
      <trkpt lon="-2.250451" lat="53.101821"><ele>133.892670</ele><time>2022-03-04T10:34:22Z</time><extensions><speed>1.698136</speed><course>37.630066</course><hAcc>1.473413</hAcc><vAcc>0.821896</vAcc></extensions></trkpt>
      <trkpt lon="-2.250436" lat="53.101833"><ele>133.918121</ele><time>2022-03-04T10:34:23Z</time><extensions><speed>1.675764</speed><course>34.987270</course><hAcc>1.471880</hAcc><vAcc>0.821975</vAcc></extensions></trkpt>
      <trkpt lon="-2.250423" lat="53.101846"><ele>133.943420</ele><time>2022-03-04T10:34:24Z</time><extensions><speed>1.713093</speed><course>28.344372</course><hAcc>1.467317</hAcc><vAcc>0.822068</vAcc></extensions></trkpt>
      <trkpt lon="-2.250411" lat="53.101860"><ele>133.949768</ele><time>2022-03-04T10:34:25Z</time><extensions><speed>1.783448</speed><course>25.935070</course><hAcc>1.475578</hAcc><vAcc>0.822124</vAcc></extensions></trkpt>
      <trkpt lon="-2.250399" lat="53.101874"><ele>133.975235</ele><time>2022-03-04T10:34:26Z</time><extensions><speed>1.799041</speed><course>24.782553</course><hAcc>1.480270</hAcc><vAcc>0.822119</vAcc></extensions></trkpt>
      <trkpt lon="-2.250388" lat="53.101887"><ele>133.978561</ele><time>2022-03-04T10:34:27Z</time><extensions><speed>1.651905</speed><course>29.763208</course><hAcc>1.468912</hAcc><vAcc>0.822027</vAcc></extensions></trkpt>
      <trkpt lon="-2.250375" lat="53.101900"><ele>133.949295</ele><time>2022-03-04T10:34:28Z</time><extensions><speed>1.570347</speed><course>33.032730</course><hAcc>1.465357</hAcc><vAcc>0.821899</vAcc></extensions></trkpt>
      <trkpt lon="-2.250362" lat="53.101911"><ele>133.928909</ele><time>2022-03-04T10:34:29Z</time><extensions><speed>1.541655</speed><course>35.156326</course><hAcc>1.477471</hAcc><vAcc>0.821666</vAcc></extensions></trkpt>
      <trkpt lon="-2.250348" lat="53.101922"><ele>133.891922</ele><time>2022-03-04T10:34:30Z</time><extensions><speed>1.560190</speed><course>38.765648</course><hAcc>1.487349</hAcc><vAcc>0.821296</vAcc></extensions></trkpt>
      <trkpt lon="-2.250334" lat="53.101933"><ele>133.860565</ele><time>2022-03-04T10:34:31Z</time><extensions><speed>1.560438</speed><course>36.292629</course><hAcc>1.489939</hAcc><vAcc>0.820917</vAcc></extensions></trkpt>
      <trkpt lon="-2.250320" lat="53.101945"><ele>133.816162</ele><time>2022-03-04T10:34:32Z</time><extensions><speed>1.587720</speed><course>35.073189</course><hAcc>1.486647</hAcc><vAcc>0.820512</vAcc></extensions></trkpt>
      <trkpt lon="-2.250306" lat="53.101956"><ele>133.772568</ele><time>2022-03-04T10:34:33Z</time><extensions><speed>1.625195</speed><course>43.385021</course><hAcc>1.485314</hAcc><vAcc>0.820093</vAcc></extensions></trkpt>
      <trkpt lon="-2.250288" lat="53.101966"><ele>133.735748</ele><time>2022-03-04T10:34:34Z</time><extensions><speed>1.588212</speed><course>49.329433</course><hAcc>1.482565</hAcc><vAcc>0.819660</vAcc></extensions></trkpt>
      <trkpt lon="-2.250269" lat="53.101976"><ele>133.687225</ele><time>2022-03-04T10:34:35Z</time><extensions><speed>1.688443</speed><course>51.362385</course><hAcc>1.480816</hAcc><vAcc>0.819227</vAcc></extensions></trkpt>
      <trkpt lon="-2.250250" lat="53.101985"><ele>133.628326</ele><time>2022-03-04T10:34:36Z</time><extensions><speed>1.734103</speed><course>50.867290</course><hAcc>1.464100</hAcc><vAcc>0.818856</vAcc></extensions></trkpt>
      <trkpt lon="-2.250229" lat="53.101995"><ele>133.571411</ele><time>2022-03-04T10:34:37Z</time><extensions><speed>1.790534</speed><course>51.802322</course><hAcc>1.452960</hAcc><vAcc>0.818570</vAcc></extensions></trkpt>
      <trkpt lon="-2.250208" lat="53.102005"><ele>133.513306</ele><time>2022-03-04T10:34:38Z</time><extensions><speed>1.752364</speed><course>54.035999</course><hAcc>1.470175</hAcc><vAcc>0.818366</vAcc></extensions></trkpt>
      <trkpt lon="-2.250187" lat="53.102015"><ele>133.463806</ele><time>2022-03-04T10:34:39Z</time><extensions><speed>1.740300</speed><course>53.307297</course><hAcc>1.445953</hAcc><vAcc>0.818335</vAcc></extensions></trkpt>
      <trkpt lon="-2.250167" lat="53.102025"><ele>133.414749</ele><time>2022-03-04T10:34:40Z</time><extensions><speed>1.730815</speed><course>49.169529</course><hAcc>1.428098</hAcc><vAcc>0.818477</vAcc></extensions></trkpt>
      <trkpt lon="-2.250149" lat="53.102036"><ele>133.340347</ele><time>2022-03-04T10:34:41Z</time><extensions><speed>1.765586</speed><course>35.543484</course><hAcc>1.439847</hAcc><vAcc>0.818785</vAcc></extensions></trkpt>
      <trkpt lon="-2.250136" lat="53.102050"><ele>133.283493</ele><time>2022-03-04T10:34:42Z</time><extensions><speed>1.757568</speed><course>23.445566</course><hAcc>1.447575</hAcc><vAcc>0.819224</vAcc></extensions></trkpt>
      <trkpt lon="-2.250126" lat="53.102064"><ele>133.216095</ele><time>2022-03-04T10:34:43Z</time><extensions><speed>1.699285</speed><course>19.962105</course><hAcc>1.433206</hAcc><vAcc>0.819759</vAcc></extensions></trkpt>
      <trkpt lon="-2.250117" lat="53.102078"><ele>133.142807</ele><time>2022-03-04T10:34:44Z</time><extensions><speed>1.586098</speed><course>22.958441</course><hAcc>1.411442</hAcc><vAcc>0.820340</vAcc></extensions></trkpt>
      <trkpt lon="-2.250107" lat="53.102090"><ele>133.079926</ele><time>2022-03-04T10:34:45Z</time><extensions><speed>1.401249</speed><course>26.084166</course><hAcc>1.429063</hAcc><vAcc>0.820915</vAcc></extensions></trkpt>
      <trkpt lon="-2.250099" lat="53.102100"><ele>133.033264</ele><time>2022-03-04T10:34:46Z</time><extensions><speed>1.204200</speed><course>25.400110</course><hAcc>1.462414</hAcc><vAcc>0.821474</vAcc></extensions></trkpt>
      <trkpt lon="-2.250090" lat="53.102111"><ele>132.955032</ele><time>2022-03-04T10:34:47Z</time><extensions><speed>1.363984</speed><course>27.442759</course><hAcc>1.457189</hAcc><vAcc>0.821974</vAcc></extensions></trkpt>
      <trkpt lon="-2.250080" lat="53.102122"><ele>132.895966</ele><time>2022-03-04T10:34:48Z</time><extensions><speed>1.573106</speed><course>30.943539</course><hAcc>1.410009</hAcc><vAcc>0.822434</vAcc></extensions></trkpt>
      <trkpt lon="-2.250067" lat="53.102134"><ele>132.865204</ele><time>2022-03-04T10:34:49Z</time><extensions><speed>1.632378</speed><course>33.645321</course><hAcc>1.422185</hAcc><vAcc>0.822844</vAcc></extensions></trkpt>
      <trkpt lon="-2.250053" lat="53.102146"><ele>132.852768</ele><time>2022-03-04T10:34:50Z</time><extensions><speed>1.616945</speed><course>38.348274</course><hAcc>1.439025</hAcc><vAcc>0.823200</vAcc></extensions></trkpt>
      <trkpt lon="-2.250038" lat="53.102157"><ele>132.832916</ele><time>2022-03-04T10:34:50Z</time><extensions><speed>1.570974</speed><course>36.999737</course><hAcc>1.441244</hAcc><vAcc>0.823484</vAcc></extensions></trkpt>
      <trkpt lon="-2.250023" lat="53.102167"><ele>132.839142</ele><time>2022-03-04T10:34:51Z</time><extensions><speed>1.545484</speed><course>42.537109</course><hAcc>1.426513</hAcc><vAcc>0.823720</vAcc></extensions></trkpt>
      <trkpt lon="-2.250008" lat="53.102177"><ele>132.863235</ele><time>2022-03-04T10:34:52Z</time><extensions><speed>1.498837</speed><course>46.148785</course><hAcc>1.415088</hAcc><vAcc>0.823903</vAcc></extensions></trkpt>
      <trkpt lon="-2.249992" lat="53.102186"><ele>132.900620</ele><time>2022-03-04T10:34:53Z</time><extensions><speed>1.487051</speed><course>44.972500</course><hAcc>1.423892</hAcc><vAcc>0.824033</vAcc></extensions></trkpt>
      <trkpt lon="-2.249977" lat="53.102195"><ele>132.923035</ele><time>2022-03-04T10:34:54Z</time><extensions><speed>1.470319</speed><course>41.971836</course><hAcc>1.420147</hAcc><vAcc>0.824108</vAcc></extensions></trkpt>
      <trkpt lon="-2.249963" lat="53.102205"><ele>132.957138</ele><time>2022-03-04T10:34:55Z</time><extensions><speed>1.493990</speed><course>38.219685</course><hAcc>1.419876</hAcc><vAcc>0.824157</vAcc></extensions></trkpt>
      <trkpt lon="-2.249949" lat="53.102216"><ele>133.022369</ele><time>2022-03-04T10:34:56Z</time><extensions><speed>1.572142</speed><course>35.696041</course><hAcc>1.435392</hAcc><vAcc>0.824180</vAcc></extensions></trkpt>
      <trkpt lon="-2.249936" lat="53.102227"><ele>133.101059</ele><time>2022-03-04T10:34:57Z</time><extensions><speed>1.557398</speed><course>34.759010</course><hAcc>1.434480</hAcc><vAcc>0.824180</vAcc></extensions></trkpt>
      <trkpt lon="-2.249924" lat="53.102239"><ele>133.171677</ele><time>2022-03-04T10:34:58Z</time><extensions><speed>1.513943</speed><course>30.947813</course><hAcc>1.435779</hAcc><vAcc>0.824172</vAcc></extensions></trkpt>
      <trkpt lon="-2.249912" lat="53.102250"><ele>133.250580</ele><time>2022-03-04T10:34:59Z</time><extensions><speed>1.516881</speed><course>35.220791</course><hAcc>1.441523</hAcc><vAcc>0.824156</vAcc></extensions></trkpt>
      <trkpt lon="-2.249898" lat="53.102260"><ele>133.341751</ele><time>2022-03-04T10:35:00Z</time><extensions><speed>1.456770</speed><course>40.025604</course><hAcc>1.448666</hAcc><vAcc>0.824125</vAcc></extensions></trkpt>
      <trkpt lon="-2.249884" lat="53.102269"><ele>133.418823</ele><time>2022-03-04T10:35:01Z</time><extensions><speed>1.439088</speed><course>42.512119</course><hAcc>1.459903</hAcc><vAcc>0.824111</vAcc></extensions></trkpt>
      <trkpt lon="-2.249870" lat="53.102278"><ele>133.490524</ele><time>2022-03-04T10:35:02Z</time><extensions><speed>1.309382</speed><course>48.965084</course><hAcc>1.443992</hAcc><vAcc>0.824105</vAcc></extensions></trkpt>
      <trkpt lon="-2.249855" lat="53.102284"><ele>133.557419</ele><time>2022-03-04T10:35:03Z</time><extensions><speed>1.310244</speed><course>52.373459</course><hAcc>1.437235</hAcc><vAcc>0.824091</vAcc></extensions></trkpt>
      <trkpt lon="-2.249839" lat="53.102292"><ele>133.642807</ele><time>2022-03-04T10:35:04Z</time><extensions><speed>1.428985</speed><course>48.837498</course><hAcc>1.444183</hAcc><vAcc>0.824074</vAcc></extensions></trkpt>
      <trkpt lon="-2.249824" lat="53.102300"><ele>133.707687</ele><time>2022-03-04T10:35:05Z</time><extensions><speed>1.424953</speed><course>42.795753</course><hAcc>1.438531</hAcc><vAcc>0.823995</vAcc></extensions></trkpt>
      <trkpt lon="-2.249811" lat="53.102309"><ele>133.766510</ele><time>2022-03-04T10:35:06Z</time><extensions><speed>1.368700</speed><course>36.483315</course><hAcc>1.431575</hAcc><vAcc>0.823889</vAcc></extensions></trkpt>
      <trkpt lon="-2.249799" lat="53.102319"><ele>133.817505</ele><time>2022-03-04T10:35:07Z</time><extensions><speed>1.424502</speed><course>37.327068</course><hAcc>1.431599</hAcc><vAcc>0.823790</vAcc></extensions></trkpt>
      <trkpt lon="-2.249787" lat="53.102328"><ele>133.871292</ele><time>2022-03-04T10:35:08Z</time><extensions><speed>1.376925</speed><course>39.223141</course><hAcc>1.421607</hAcc><vAcc>0.823693</vAcc></extensions></trkpt>
      <trkpt lon="-2.249775" lat="53.102337"><ele>133.940781</ele><time>2022-03-04T10:35:09Z</time><extensions><speed>1.348552</speed><course>40.310883</course><hAcc>1.414846</hAcc><vAcc>0.823611</vAcc></extensions></trkpt>
      <trkpt lon="-2.249764" lat="53.102347"><ele>134.036011</ele><time>2022-03-04T10:35:10Z</time><extensions><speed>1.405968</speed><course>31.824688</course><hAcc>1.422229</hAcc><vAcc>0.823512</vAcc></extensions></trkpt>
      <trkpt lon="-2.249753" lat="53.102357"><ele>134.148178</ele><time>2022-03-04T10:35:11Z</time><extensions><speed>1.361299</speed><course>34.969837</course><hAcc>1.414347</hAcc><vAcc>0.823385</vAcc></extensions></trkpt>
      <trkpt lon="-2.249742" lat="53.102366"><ele>134.245163</ele><time>2022-03-04T10:35:12Z</time><extensions><speed>1.278280</speed><course>38.732052</course><hAcc>1.405489</hAcc><vAcc>0.823245</vAcc></extensions></trkpt>
      <trkpt lon="-2.249730" lat="53.102374"><ele>134.307999</ele><time>2022-03-04T10:35:13Z</time><extensions><speed>1.321728</speed><course>42.829559</course><hAcc>1.413366</hAcc><vAcc>0.823096</vAcc></extensions></trkpt>
      <trkpt lon="-2.249717" lat="53.102382"><ele>134.368149</ele><time>2022-03-04T10:35:14Z</time><extensions><speed>1.280114</speed><course>42.328506</course><hAcc>1.415578</hAcc><vAcc>0.822938</vAcc></extensions></trkpt>
      <trkpt lon="-2.249704" lat="53.102390"><ele>134.425507</ele><time>2022-03-04T10:35:15Z</time><extensions><speed>1.311350</speed><course>43.294384</course><hAcc>1.406476</hAcc><vAcc>0.822781</vAcc></extensions></trkpt>
      <trkpt lon="-2.249692" lat="53.102398"><ele>134.450668</ele><time>2022-03-04T10:35:16Z</time><extensions><speed>1.260595</speed><course>38.151417</course><hAcc>1.413089</hAcc><vAcc>0.822608</vAcc></extensions></trkpt>
      <trkpt lon="-2.249682" lat="53.102408"><ele>134.463974</ele><time>2022-03-04T10:35:17Z</time><extensions><speed>1.414926</speed><course>22.746733</course><hAcc>1.433526</hAcc><vAcc>0.822378</vAcc></extensions></trkpt>
      <trkpt lon="-2.249676" lat="53.102420"><ele>134.462326</ele><time>2022-03-04T10:35:18Z</time><extensions><speed>1.353060</speed><course>12.456306</course><hAcc>1.444676</hAcc><vAcc>0.822065</vAcc></extensions></trkpt>
      <trkpt lon="-2.249672" lat="53.102431"><ele>134.448410</ele><time>2022-03-04T10:35:19Z</time><extensions><speed>1.081332</speed><course>11.962377</course><hAcc>1.454675</hAcc><vAcc>0.821661</vAcc></extensions></trkpt>
      <trkpt lon="-2.249670" lat="53.102439"><ele>134.417923</ele><time>2022-03-04T10:35:20Z</time><extensions><speed>0.731955</speed><course>357.664398</course><hAcc>1.462936</hAcc><vAcc>0.821204</vAcc></extensions></trkpt>
      <trkpt lon="-2.249673" lat="53.102444"><ele>134.358139</ele><time>2022-03-04T10:35:21Z</time><extensions><speed>0.468332</speed><course>324.050049</course><hAcc>1.501990</hAcc><vAcc>0.820573</vAcc></extensions></trkpt>
      <trkpt lon="-2.249676" lat="53.102445"><ele>134.291061</ele><time>2022-03-04T10:35:22Z</time><extensions><speed>0.231531</speed><course>216.277328</course><hAcc>1.558348</hAcc><vAcc>0.819800</vAcc></extensions></trkpt>
      <trkpt lon="-2.249678" lat="53.102441"><ele>134.199753</ele><time>2022-03-04T10:35:23Z</time><extensions><speed>0.550041</speed><course>195.641281</course><hAcc>1.550114</hAcc><vAcc>0.818946</vAcc></extensions></trkpt>
      <trkpt lon="-2.249679" lat="53.102437"><ele>134.103226</ele><time>2022-03-04T10:35:24Z</time><extensions><speed>0.554559</speed><course>188.932419</course><hAcc>1.587147</hAcc><vAcc>0.818063</vAcc></extensions></trkpt>
      <trkpt lon="-2.249680" lat="53.102432"><ele>133.995789</ele><time>2022-03-04T10:35:25Z</time><extensions><speed>0.432023</speed><course>177.593246</course><hAcc>1.638079</hAcc><vAcc>0.817212</vAcc></extensions></trkpt>
      <trkpt lon="-2.249678" lat="53.102429"><ele>133.867645</ele><time>2022-03-04T10:35:26Z</time><extensions><speed>0.294586</speed><course>144.670700</course><hAcc>1.666634</hAcc><vAcc>0.816364</vAcc></extensions></trkpt>
      <trkpt lon="-2.249674" lat="53.102428"><ele>133.735214</ele><time>2022-03-04T10:35:27Z</time><extensions><speed>0.398768</speed><course>82.766640</course><hAcc>1.684566</hAcc><vAcc>0.815555</vAcc></extensions></trkpt>
      <trkpt lon="-2.249667" lat="53.102431"><ele>133.609741</ele><time>2022-03-04T10:35:28Z</time><extensions><speed>0.749102</speed><course>46.986122</course><hAcc>1.722989</hAcc><vAcc>0.814842</vAcc></extensions></trkpt>
      <trkpt lon="-2.249657" lat="53.102437"><ele>133.498749</ele><time>2022-03-04T10:35:29Z</time><extensions><speed>1.072339</speed><course>38.090168</course><hAcc>1.723357</hAcc><vAcc>0.814315</vAcc></extensions></trkpt>
      <trkpt lon="-2.249647" lat="53.102446"><ele>133.384033</ele><time>2022-03-04T10:35:30Z</time><extensions><speed>1.233346</speed><course>32.648849</course><hAcc>1.716037</hAcc><vAcc>0.813976</vAcc></extensions></trkpt>
      <trkpt lon="-2.249636" lat="53.102456"><ele>133.274643</ele><time>2022-03-04T10:35:31Z</time><extensions><speed>1.460887</speed><course>35.140480</course><hAcc>1.704947</hAcc><vAcc>0.813832</vAcc></extensions></trkpt>
      <trkpt lon="-2.249622" lat="53.102467"><ele>133.167480</ele><time>2022-03-04T10:35:32Z</time><extensions><speed>1.658098</speed><course>36.850498</course><hAcc>1.695750</hAcc><vAcc>0.813907</vAcc></extensions></trkpt>
      <trkpt lon="-2.249606" lat="53.102479"><ele>133.070938</ele><time>2022-03-04T10:35:33Z</time><extensions><speed>1.736734</speed><course>38.672749</course><hAcc>1.688608</hAcc><vAcc>0.814207</vAcc></extensions></trkpt>
      <trkpt lon="-2.249589" lat="53.102491"><ele>132.998337</ele><time>2022-03-04T10:35:34Z</time><extensions><speed>1.805777</speed><course>40.090282</course><hAcc>1.674603</hAcc><vAcc>0.814712</vAcc></extensions></trkpt>
      <trkpt lon="-2.249572" lat="53.102503"><ele>132.944565</ele><time>2022-03-04T10:35:35Z</time><extensions><speed>1.767669</speed><course>39.764538</course><hAcc>1.661630</hAcc><vAcc>0.815381</vAcc></extensions></trkpt>
      <trkpt lon="-2.249555" lat="53.102516"><ele>132.904083</ele><time>2022-03-04T10:35:36Z</time><extensions><speed>1.732083</speed><course>41.129467</course><hAcc>1.638533</hAcc><vAcc>0.816155</vAcc></extensions></trkpt>
      <trkpt lon="-2.249538" lat="53.102527"><ele>132.895569</ele><time>2022-03-04T10:35:37Z</time><extensions><speed>1.749774</speed><course>44.057056</course><hAcc>1.600290</hAcc><vAcc>0.817000</vAcc></extensions></trkpt>
      <trkpt lon="-2.249519" lat="53.102539"><ele>132.905975</ele><time>2022-03-04T10:35:38Z</time><extensions><speed>1.917994</speed><course>46.190609</course><hAcc>1.551778</hAcc><vAcc>0.817874</vAcc></extensions></trkpt>
      <trkpt lon="-2.249498" lat="53.102552"><ele>132.905426</ele><time>2022-03-04T10:35:39Z</time><extensions><speed>1.964308</speed><course>44.860943</course><hAcc>1.532017</hAcc><vAcc>0.818705</vAcc></extensions></trkpt>
      <trkpt lon="-2.249478" lat="53.102564"><ele>132.902603</ele><time>2022-03-04T10:35:40Z</time><extensions><speed>1.912355</speed><course>44.386673</course><hAcc>1.512606</hAcc><vAcc>0.819497</vAcc></extensions></trkpt>
      <trkpt lon="-2.249459" lat="53.102577"><ele>132.911667</ele><time>2022-03-04T10:35:41Z</time><extensions><speed>1.877432</speed><course>43.037411</course><hAcc>1.486732</hAcc><vAcc>0.820242</vAcc></extensions></trkpt>
      <trkpt lon="-2.249440" lat="53.102589"><ele>132.909134</ele><time>2022-03-04T10:35:42Z</time><extensions><speed>1.853459</speed><course>43.276985</course><hAcc>1.449360</hAcc><vAcc>0.820941</vAcc></extensions></trkpt>
      <trkpt lon="-2.249422" lat="53.102601"><ele>132.917374</ele><time>2022-03-04T10:35:43Z</time><extensions><speed>1.789070</speed><course>40.338310</course><hAcc>1.435823</hAcc><vAcc>0.821586</vAcc></extensions></trkpt>
      <trkpt lon="-2.249407" lat="53.102613"><ele>132.912292</ele><time>2022-03-04T10:35:44Z</time><extensions><speed>1.583730</speed><course>32.027649</course><hAcc>1.435242</hAcc><vAcc>0.822177</vAcc></extensions></trkpt>
      <trkpt lon="-2.249394" lat="53.102625"><ele>132.923767</ele><time>2022-03-04T10:35:45Z</time><extensions><speed>1.609480</speed><course>28.618593</course><hAcc>1.429494</hAcc><vAcc>0.822710</vAcc></extensions></trkpt>
      <trkpt lon="-2.249385" lat="53.102639"><ele>132.926620</ele><time>2022-03-04T10:35:46Z</time><extensions><speed>1.595458</speed><course>18.335634</course><hAcc>1.430476</hAcc><vAcc>0.823193</vAcc></extensions></trkpt>
      <trkpt lon="-2.249378" lat="53.102652"><ele>132.885651</ele><time>2022-03-04T10:35:47Z</time><extensions><speed>1.537153</speed><course>15.631020</course><hAcc>1.455881</hAcc><vAcc>0.823626</vAcc></extensions></trkpt>
      <trkpt lon="-2.249372" lat="53.102665"><ele>132.845779</ele><time>2022-03-04T10:35:48Z</time><extensions><speed>1.497701</speed><course>14.646032</course><hAcc>1.455273</hAcc><vAcc>0.824014</vAcc></extensions></trkpt>
      <trkpt lon="-2.249366" lat="53.102677"><ele>132.796799</ele><time>2022-03-04T10:35:49Z</time><extensions><speed>1.356425</speed><course>14.230572</course><hAcc>1.434834</hAcc><vAcc>0.824348</vAcc></extensions></trkpt>
      <trkpt lon="-2.249361" lat="53.102689"><ele>132.761261</ele><time>2022-03-04T10:35:50Z</time><extensions><speed>1.246806</speed><course>19.516647</course><hAcc>1.459291</hAcc><vAcc>0.824644</vAcc></extensions></trkpt>
      <trkpt lon="-2.249353" lat="53.102699"><ele>132.725830</ele><time>2022-03-04T10:35:51Z</time><extensions><speed>1.282828</speed><course>28.176926</course><hAcc>1.502006</hAcc><vAcc>0.824912</vAcc></extensions></trkpt>
      <trkpt lon="-2.249342" lat="53.102709"><ele>132.667267</ele><time>2022-03-04T10:35:52Z</time><extensions><speed>1.337249</speed><course>34.028614</course><hAcc>1.550336</hAcc><vAcc>0.825154</vAcc></extensions></trkpt>
      <trkpt lon="-2.249331" lat="53.102718"><ele>132.601730</ele><time>2022-03-04T10:35:53Z</time><extensions><speed>1.225889</speed><course>38.955402</course><hAcc>1.560281</hAcc><vAcc>0.825375</vAcc></extensions></trkpt>
      <trkpt lon="-2.249319" lat="53.102726"><ele>132.550720</ele><time>2022-03-04T10:35:54Z</time><extensions><speed>1.167228</speed><course>43.247471</course><hAcc>1.575119</hAcc><vAcc>0.825559</vAcc></extensions></trkpt>
      <trkpt lon="-2.249306" lat="53.102735"><ele>132.500320</ele><time>2022-03-04T10:35:55Z</time><extensions><speed>1.345160</speed><course>46.390072</course><hAcc>1.544653</hAcc><vAcc>0.825760</vAcc></extensions></trkpt>
      <trkpt lon="-2.249291" lat="53.102743"><ele>132.464249</ele><time>2022-03-04T10:35:56Z</time><extensions><speed>1.389405</speed><course>45.219891</course><hAcc>1.543007</hAcc><vAcc>0.825938</vAcc></extensions></trkpt>
      <trkpt lon="-2.249276" lat="53.102752"><ele>132.429169</ele><time>2022-03-04T10:35:57Z</time><extensions><speed>1.350426</speed><course>46.040825</course><hAcc>1.559060</hAcc><vAcc>0.826118</vAcc></extensions></trkpt>
      <trkpt lon="-2.249262" lat="53.102760"><ele>132.399200</ele><time>2022-03-04T10:35:58Z</time><extensions><speed>1.318727</speed><course>47.066753</course><hAcc>1.580937</hAcc><vAcc>0.826230</vAcc></extensions></trkpt>
      <trkpt lon="-2.249247" lat="53.102768"><ele>132.368332</ele><time>2022-03-04T10:35:59Z</time><extensions><speed>1.353195</speed><course>46.546623</course><hAcc>1.555931</hAcc><vAcc>0.826332</vAcc></extensions></trkpt>
      <trkpt lon="-2.249232" lat="53.102776"><ele>132.338730</ele><time>2022-03-04T10:36:00Z</time><extensions><speed>1.424690</speed><course>44.962048</course><hAcc>1.533278</hAcc><vAcc>0.826429</vAcc></extensions></trkpt>
      <trkpt lon="-2.249217" lat="53.102786"><ele>132.317688</ele><time>2022-03-04T10:36:01Z</time><extensions><speed>1.517319</speed><course>42.070534</course><hAcc>1.527805</hAcc><vAcc>0.826528</vAcc></extensions></trkpt>
      <trkpt lon="-2.249202" lat="53.102797"><ele>132.293869</ele><time>2022-03-04T10:36:02Z</time><extensions><speed>1.545838</speed><course>38.390488</course><hAcc>1.549823</hAcc><vAcc>0.826630</vAcc></extensions></trkpt>
      <trkpt lon="-2.249189" lat="53.102808"><ele>132.277191</ele><time>2022-03-04T10:36:03Z</time><extensions><speed>1.463913</speed><course>31.825321</course><hAcc>1.573247</hAcc><vAcc>0.826701</vAcc></extensions></trkpt>
      <trkpt lon="-2.249178" lat="53.102819"><ele>132.261887</ele><time>2022-03-04T10:36:04Z</time><extensions><speed>1.389417</speed><course>26.262770</course><hAcc>1.541441</hAcc><vAcc>0.826772</vAcc></extensions></trkpt>
      <trkpt lon="-2.249171" lat="53.102829"><ele>132.236694</ele><time>2022-03-04T10:36:05Z</time><extensions><speed>1.235099</speed><course>18.691198</course><hAcc>1.568785</hAcc><vAcc>0.826825</vAcc></extensions></trkpt>
      <trkpt lon="-2.249167" lat="53.102838"><ele>132.224701</ele><time>2022-03-04T10:36:06Z</time><extensions><speed>0.862244</speed><course>13.702661</course><hAcc>1.573317</hAcc><vAcc>0.826867</vAcc></extensions></trkpt>
      <trkpt lon="-2.249163" lat="53.102844"><ele>132.205734</ele><time>2022-03-04T10:36:08Z</time><extensions><speed>0.569311</speed><course>21.807634</course><hAcc>1.578849</hAcc><vAcc>0.826906</vAcc></extensions></trkpt>
      <trkpt lon="-2.249159" lat="53.102849"><ele>132.187698</ele><time>2022-03-04T10:36:09Z</time><extensions><speed>0.618812</speed><course>46.607933</course><hAcc>1.580225</hAcc><vAcc>0.826922</vAcc></extensions></trkpt>
      <trkpt lon="-2.249150" lat="53.102853"><ele>132.176834</ele><time>2022-03-04T10:36:10Z</time><extensions><speed>0.971775</speed><course>48.547718</course><hAcc>1.583592</hAcc><vAcc>0.826950</vAcc></extensions></trkpt>
      <trkpt lon="-2.249138" lat="53.102860"><ele>132.167953</ele><time>2022-03-04T10:36:11Z</time><extensions><speed>1.229840</speed><course>47.337303</course><hAcc>1.587834</hAcc><vAcc>0.826997</vAcc></extensions></trkpt>
      <trkpt lon="-2.249124" lat="53.102868"><ele>132.162109</ele><time>2022-03-04T10:36:12Z</time><extensions><speed>1.368984</speed><course>47.652897</course><hAcc>1.594983</hAcc><vAcc>0.827028</vAcc></extensions></trkpt>
      <trkpt lon="-2.249109" lat="53.102876"><ele>132.153275</ele><time>2022-03-04T10:36:13Z</time><extensions><speed>1.364368</speed><course>48.648354</course><hAcc>1.597901</hAcc><vAcc>0.827021</vAcc></extensions></trkpt>
      <trkpt lon="-2.249095" lat="53.102884"><ele>132.145172</ele><time>2022-03-04T10:36:14Z</time><extensions><speed>1.284530</speed><course>46.105869</course><hAcc>1.615115</hAcc><vAcc>0.826942</vAcc></extensions></trkpt>
      <trkpt lon="-2.249083" lat="53.102891"><ele>132.138016</ele><time>2022-03-04T10:36:15Z</time><extensions><speed>0.966545</speed><course>44.156029</course><hAcc>1.606126</hAcc><vAcc>0.826871</vAcc></extensions></trkpt>
      <trkpt lon="-2.249076" lat="53.102896"><ele>132.132538</ele><time>2022-03-04T10:36:16Z</time><extensions><speed>0.529468</speed><course>34.611328</course><hAcc>1.569231</hAcc><vAcc>0.826766</vAcc></extensions></trkpt>
      <trkpt lon="-2.249072" lat="53.102900"><ele>132.128891</ele><time>2022-03-04T10:36:17Z</time><extensions><speed>0.383612</speed><course>20.526844</course><hAcc>1.583856</hAcc><vAcc>0.826633</vAcc></extensions></trkpt>
      <trkpt lon="-2.249071" lat="53.102902"><ele>132.126999</ele><time>2022-03-04T10:36:18Z</time><extensions><speed>0.215438</speed><course>4.399657</course><hAcc>1.611595</hAcc><vAcc>0.826480</vAcc></extensions></trkpt>
      <trkpt lon="-2.249072" lat="53.102903"><ele>132.126648</ele><time>2022-03-04T10:36:19Z</time><extensions><speed>0.174667</speed><course>259.649323</course><hAcc>1.637787</hAcc><vAcc>0.826314</vAcc></extensions></trkpt>
      <trkpt lon="-2.249076" lat="53.102902"><ele>132.147507</ele><time>2022-03-04T10:36:20Z</time><extensions><speed>0.275771</speed><course>245.917191</course><hAcc>1.656514</hAcc><vAcc>0.826127</vAcc></extensions></trkpt>
      <trkpt lon="-2.249079" lat="53.102902"><ele>132.168182</ele><time>2022-03-04T10:36:21Z</time><extensions><speed>0.228082</speed><course>246.995361</course><hAcc>1.695830</hAcc><vAcc>0.825945</vAcc></extensions></trkpt>
      <trkpt lon="-2.249083" lat="53.102901"><ele>132.181259</ele><time>2022-03-04T10:36:22Z</time><extensions><speed>0.299333</speed><course>253.054489</course><hAcc>1.674827</hAcc><vAcc>0.825742</vAcc></extensions></trkpt>
      <trkpt lon="-2.249088" lat="53.102900"><ele>132.203033</ele><time>2022-03-04T10:36:23Z</time><extensions><speed>0.304559</speed><course>260.092163</course><hAcc>1.671900</hAcc><vAcc>0.825462</vAcc></extensions></trkpt>
      <trkpt lon="-2.249092" lat="53.102900"><ele>132.202835</ele><time>2022-03-04T10:36:24Z</time><extensions><speed>0.273679</speed><course>269.139221</course><hAcc>1.684370</hAcc><vAcc>0.825229</vAcc></extensions></trkpt>
      <trkpt lon="-2.249096" lat="53.102900"><ele>132.196365</ele><time>2022-03-04T10:36:25Z</time><extensions><speed>0.246456</speed><course>282.714539</course><hAcc>1.690914</hAcc><vAcc>0.824893</vAcc></extensions></trkpt>
      <trkpt lon="-2.249099" lat="53.102901"><ele>132.186417</ele><time>2022-03-04T10:36:26Z</time><extensions><speed>0.244895</speed><course>300.958344</course><hAcc>1.692176</hAcc><vAcc>0.824615</vAcc></extensions></trkpt>
      <trkpt lon="-2.249102" lat="53.102903"><ele>132.186935</ele><time>2022-03-04T10:36:27Z</time><extensions><speed>0.276617</speed><course>319.920685</course><hAcc>1.695604</hAcc><vAcc>0.824315</vAcc></extensions></trkpt>
      <trkpt lon="-2.249104" lat="53.102905"><ele>132.186340</ele><time>2022-03-04T10:36:28Z</time><extensions><speed>0.372021</speed><course>336.408356</course><hAcc>1.696240</hAcc><vAcc>0.823943</vAcc></extensions></trkpt>
      <trkpt lon="-2.249106" lat="53.102909"><ele>132.188995</ele><time>2022-03-04T10:36:29Z</time><extensions><speed>0.553330</speed><course>351.480927</course><hAcc>1.696709</hAcc><vAcc>0.823505</vAcc></extensions></trkpt>
      <trkpt lon="-2.249105" lat="53.102916"><ele>132.212601</ele><time>2022-03-04T10:36:30Z</time><extensions><speed>0.978907</speed><course>5.539047</course><hAcc>1.688700</hAcc><vAcc>0.823072</vAcc></extensions></trkpt>
      <trkpt lon="-2.249103" lat="53.102926"><ele>132.228027</ele><time>2022-03-04T10:36:31Z</time><extensions><speed>1.208195</speed><course>9.898368</course><hAcc>1.689157</hAcc><vAcc>0.822652</vAcc></extensions></trkpt>
      <trkpt lon="-2.249098" lat="53.102937"><ele>132.236420</ele><time>2022-03-04T10:36:32Z</time><extensions><speed>1.428220</speed><course>14.552229</course><hAcc>1.684283</hAcc><vAcc>0.822244</vAcc></extensions></trkpt>
      <trkpt lon="-2.249091" lat="53.102950"><ele>132.242859</ele><time>2022-03-04T10:36:33Z</time><extensions><speed>1.600495</speed><course>19.454926</course><hAcc>1.677531</hAcc><vAcc>0.821899</vAcc></extensions></trkpt>
      <trkpt lon="-2.249081" lat="53.102964"><ele>132.256485</ele><time>2022-03-04T10:36:34Z</time><extensions><speed>1.677776</speed><course>27.640863</course><hAcc>1.678694</hAcc><vAcc>0.821639</vAcc></extensions></trkpt>
      <trkpt lon="-2.249067" lat="53.102977"><ele>132.277969</ele><time>2022-03-04T10:36:35Z</time><extensions><speed>1.707336</speed><course>35.650455</course><hAcc>1.677232</hAcc><vAcc>0.821420</vAcc></extensions></trkpt>
      <trkpt lon="-2.249050" lat="53.102989"><ele>132.272079</ele><time>2022-03-04T10:36:36Z</time><extensions><speed>1.757096</speed><course>42.171261</course><hAcc>1.672013</hAcc><vAcc>0.821338</vAcc></extensions></trkpt>
      <trkpt lon="-2.249031" lat="53.103000"><ele>132.272980</ele><time>2022-03-04T10:36:37Z</time><extensions><speed>1.807183</speed><course>47.407562</course><hAcc>1.664463</hAcc><vAcc>0.821370</vAcc></extensions></trkpt>
      <trkpt lon="-2.249010" lat="53.103011"><ele>132.286652</ele><time>2022-03-04T10:36:38Z</time><extensions><speed>1.871616</speed><course>52.292381</course><hAcc>1.643041</hAcc><vAcc>0.821511</vAcc></extensions></trkpt>
      <trkpt lon="-2.248986" lat="53.103021"><ele>132.315704</ele><time>2022-03-04T10:36:39Z</time><extensions><speed>1.967142</speed><course>57.630455</course><hAcc>1.612121</hAcc><vAcc>0.821770</vAcc></extensions></trkpt>
      <trkpt lon="-2.248962" lat="53.103030"><ele>132.342407</ele><time>2022-03-04T10:36:40Z</time><extensions><speed>1.865415</speed><course>56.989166</course><hAcc>1.591040</hAcc><vAcc>0.822111</vAcc></extensions></trkpt>
      <trkpt lon="-2.248942" lat="53.103040"><ele>132.347504</ele><time>2022-03-04T10:36:41Z</time><extensions><speed>1.527293</speed><course>47.842915</course><hAcc>1.575187</hAcc><vAcc>0.822510</vAcc></extensions></trkpt>
      <trkpt lon="-2.248926" lat="53.103049"><ele>132.346893</ele><time>2022-03-04T10:36:42Z</time><extensions><speed>1.478153</speed><course>40.924122</course><hAcc>1.567641</hAcc><vAcc>0.822955</vAcc></extensions></trkpt>
      <trkpt lon="-2.248914" lat="53.103060"><ele>132.346802</ele><time>2022-03-04T10:36:43Z</time><extensions><speed>1.308049</speed><course>30.782345</course><hAcc>1.590927</hAcc><vAcc>0.823414</vAcc></extensions></trkpt>
      <trkpt lon="-2.248904" lat="53.103070"><ele>132.350189</ele><time>2022-03-04T10:36:44Z</time><extensions><speed>1.328434</speed><course>29.211027</course><hAcc>1.597123</hAcc><vAcc>0.823865</vAcc></extensions></trkpt>
      <trkpt lon="-2.248893" lat="53.103081"><ele>132.349472</ele><time>2022-03-04T10:36:45Z</time><extensions><speed>1.463559</speed><course>29.593060</course><hAcc>1.540466</hAcc><vAcc>0.824318</vAcc></extensions></trkpt>
      <trkpt lon="-2.248881" lat="53.103093"><ele>132.358749</ele><time>2022-03-04T10:36:46Z</time><extensions><speed>1.630025</speed><course>32.341022</course><hAcc>1.523622</hAcc><vAcc>0.824749</vAcc></extensions></trkpt>
      <trkpt lon="-2.248867" lat="53.103106"><ele>132.362793</ele><time>2022-03-04T10:36:47Z</time><extensions><speed>1.798575</speed><course>35.055954</course><hAcc>1.525766</hAcc><vAcc>0.825146</vAcc></extensions></trkpt>
      <trkpt lon="-2.248851" lat="53.103119"><ele>132.353104</ele><time>2022-03-04T10:36:48Z</time><extensions><speed>1.852574</speed><course>35.769432</course><hAcc>1.543375</hAcc><vAcc>0.825510</vAcc></extensions></trkpt>
      <trkpt lon="-2.248836" lat="53.103132"><ele>132.331268</ele><time>2022-03-04T10:36:49Z</time><extensions><speed>1.645211</speed><course>34.692532</course><hAcc>1.576537</hAcc><vAcc>0.825825</vAcc></extensions></trkpt>
      <trkpt lon="-2.248823" lat="53.103145"><ele>132.307983</ele><time>2022-03-04T10:36:50Z</time><extensions><speed>1.658771</speed><course>31.495838</course><hAcc>1.524094</hAcc><vAcc>0.826112</vAcc></extensions></trkpt>
      <trkpt lon="-2.248810" lat="53.103158"><ele>132.292419</ele><time>2022-03-04T10:36:51Z</time><extensions><speed>1.640992</speed><course>28.323503</course><hAcc>1.487103</hAcc><vAcc>0.826362</vAcc></extensions></trkpt>
      <trkpt lon="-2.248799" lat="53.103171"><ele>132.279190</ele><time>2022-03-04T10:36:52Z</time><extensions><speed>1.617522</speed><course>26.636471</course><hAcc>1.470172</hAcc><vAcc>0.826576</vAcc></extensions></trkpt>
      <trkpt lon="-2.248788" lat="53.103184"><ele>132.257507</ele><time>2022-03-04T10:36:53Z</time><extensions><speed>1.604340</speed><course>26.056698</course><hAcc>1.452793</hAcc><vAcc>0.826770</vAcc></extensions></trkpt>
      <trkpt lon="-2.248778" lat="53.103197"><ele>132.231781</ele><time>2022-03-04T10:36:54Z</time><extensions><speed>1.603022</speed><course>26.664808</course><hAcc>1.440782</hAcc><vAcc>0.826939</vAcc></extensions></trkpt>
      <trkpt lon="-2.248767" lat="53.103210"><ele>132.215256</ele><time>2022-03-04T10:36:55Z</time><extensions><speed>1.596519</speed><course>27.192572</course><hAcc>1.428354</hAcc><vAcc>0.827093</vAcc></extensions></trkpt>
      <trkpt lon="-2.248755" lat="53.103222"><ele>132.203445</ele><time>2022-03-04T10:36:56Z</time><extensions><speed>1.588574</speed><course>30.616217</course><hAcc>1.416769</hAcc><vAcc>0.827219</vAcc></extensions></trkpt>
      <trkpt lon="-2.248742" lat="53.103234"><ele>132.178726</ele><time>2022-03-04T10:36:57Z</time><extensions><speed>1.608814</speed><course>32.824669</course><hAcc>1.406790</hAcc><vAcc>0.827331</vAcc></extensions></trkpt>
      <trkpt lon="-2.248729" lat="53.103247"><ele>132.133942</ele><time>2022-03-04T10:36:58Z</time><extensions><speed>1.617435</speed><course>31.416559</course><hAcc>1.387949</hAcc><vAcc>0.827437</vAcc></extensions></trkpt>
      <trkpt lon="-2.248718" lat="53.103260"><ele>132.094910</ele><time>2022-03-04T10:36:59Z</time><extensions><speed>1.619771</speed><course>26.277229</course><hAcc>1.375607</hAcc><vAcc>0.827544</vAcc></extensions></trkpt>
      <trkpt lon="-2.248707" lat="53.103272"><ele>132.067474</ele><time>2022-03-04T10:37:00Z</time><extensions><speed>1.580760</speed><course>28.168081</course><hAcc>1.381888</hAcc><vAcc>0.827667</vAcc></extensions></trkpt>
      <trkpt lon="-2.248695" lat="53.103285"><ele>132.042374</ele><time>2022-03-04T10:37:00Z</time><extensions><speed>1.578600</speed><course>28.687540</course><hAcc>1.377077</hAcc><vAcc>0.827780</vAcc></extensions></trkpt>
      <trkpt lon="-2.248684" lat="53.103298"><ele>132.013016</ele><time>2022-03-04T10:37:01Z</time><extensions><speed>1.622053</speed><course>29.189722</course><hAcc>1.356396</hAcc><vAcc>0.827893</vAcc></extensions></trkpt>
      <trkpt lon="-2.248672" lat="53.103310"><ele>131.998489</ele><time>2022-03-04T10:37:02Z</time><extensions><speed>1.612287</speed><course>30.989334</course><hAcc>1.366361</hAcc><vAcc>0.828026</vAcc></extensions></trkpt>
      <trkpt lon="-2.248659" lat="53.103323"><ele>131.985870</ele><time>2022-03-04T10:37:03Z</time><extensions><speed>1.575524</speed><course>32.180779</course><hAcc>1.375029</hAcc><vAcc>0.828170</vAcc></extensions></trkpt>
      <trkpt lon="-2.248646" lat="53.103334"><ele>131.973068</ele><time>2022-03-04T10:37:04Z</time><extensions><speed>1.557379</speed><course>38.405231</course><hAcc>1.367446</hAcc><vAcc>0.828324</vAcc></extensions></trkpt>
      <trkpt lon="-2.248630" lat="53.103345"><ele>131.946960</ele><time>2022-03-04T10:37:05Z</time><extensions><speed>1.597893</speed><course>45.168667</course><hAcc>1.356533</hAcc><vAcc>0.828477</vAcc></extensions></trkpt>
      <trkpt lon="-2.248614" lat="53.103356"><ele>131.917175</ele><time>2022-03-04T10:37:06Z</time><extensions><speed>1.566971</speed><course>39.551842</course><hAcc>1.365739</hAcc><vAcc>0.828637</vAcc></extensions></trkpt>
      <trkpt lon="-2.248601" lat="53.103367"><ele>131.888123</ele><time>2022-03-04T10:37:07Z</time><extensions><speed>1.525704</speed><course>33.104099</course><hAcc>1.367349</hAcc><vAcc>0.828802</vAcc></extensions></trkpt>
      <trkpt lon="-2.248589" lat="53.103378"><ele>131.862656</ele><time>2022-03-04T10:37:08Z</time><extensions><speed>1.506060</speed><course>29.569538</course><hAcc>1.390222</hAcc><vAcc>0.828967</vAcc></extensions></trkpt>
      <trkpt lon="-2.248578" lat="53.103391"><ele>131.825455</ele><time>2022-03-04T10:37:09Z</time><extensions><speed>1.577441</speed><course>27.759621</course><hAcc>1.359048</hAcc><vAcc>0.829125</vAcc></extensions></trkpt>
      <trkpt lon="-2.248567" lat="53.103403"><ele>131.796570</ele><time>2022-03-04T10:37:10Z</time><extensions><speed>1.632787</speed><course>28.609152</course><hAcc>1.348113</hAcc><vAcc>0.829271</vAcc></extensions></trkpt>
      <trkpt lon="-2.248554" lat="53.103416"><ele>131.772980</ele><time>2022-03-04T10:37:11Z</time><extensions><speed>1.595709</speed><course>31.174536</course><hAcc>1.389155</hAcc><vAcc>0.829405</vAcc></extensions></trkpt>
      <trkpt lon="-2.248542" lat="53.103429"><ele>131.743652</ele><time>2022-03-04T10:37:12Z</time><extensions><speed>1.645109</speed><course>29.466997</course><hAcc>1.383963</hAcc><vAcc>0.829533</vAcc></extensions></trkpt>
      <trkpt lon="-2.248530" lat="53.103442"><ele>131.714279</ele><time>2022-03-04T10:37:13Z</time><extensions><speed>1.614954</speed><course>25.024887</course><hAcc>1.385899</hAcc><vAcc>0.829635</vAcc></extensions></trkpt>
      <trkpt lon="-2.248521" lat="53.103455"><ele>131.682312</ele><time>2022-03-04T10:37:14Z</time><extensions><speed>1.589808</speed><course>21.911766</course><hAcc>1.375232</hAcc><vAcc>0.829718</vAcc></extensions></trkpt>
      <trkpt lon="-2.248512" lat="53.103468"><ele>131.662247</ele><time>2022-03-04T10:37:15Z</time><extensions><speed>1.600506</speed><course>20.705780</course><hAcc>1.358789</hAcc><vAcc>0.829780</vAcc></extensions></trkpt>
      <trkpt lon="-2.248503" lat="53.103482"><ele>131.629242</ele><time>2022-03-04T10:37:16Z</time><extensions><speed>1.620644</speed><course>23.874289</course><hAcc>1.357561</hAcc><vAcc>0.829825</vAcc></extensions></trkpt>
      <trkpt lon="-2.248492" lat="53.103495"><ele>131.587128</ele><time>2022-03-04T10:37:17Z</time><extensions><speed>1.614834</speed><course>25.352938</course><hAcc>1.378496</hAcc><vAcc>0.829851</vAcc></extensions></trkpt>
      <trkpt lon="-2.248482" lat="53.103508"><ele>131.536026</ele><time>2022-03-04T10:37:18Z</time><extensions><speed>1.589082</speed><course>24.503677</course><hAcc>1.381287</hAcc><vAcc>0.829871</vAcc></extensions></trkpt>
      <trkpt lon="-2.248472" lat="53.103521"><ele>131.489166</ele><time>2022-03-04T10:37:19Z</time><extensions><speed>1.607661</speed><course>27.509459</course><hAcc>1.364890</hAcc><vAcc>0.829907</vAcc></extensions></trkpt>
      <trkpt lon="-2.248460" lat="53.103534"><ele>131.450821</ele><time>2022-03-04T10:37:20Z</time><extensions><speed>1.643893</speed><course>31.196089</course><hAcc>1.349750</hAcc><vAcc>0.829935</vAcc></extensions></trkpt>
      <trkpt lon="-2.248447" lat="53.103547"><ele>131.402420</ele><time>2022-03-04T10:37:21Z</time><extensions><speed>1.638651</speed><course>33.181061</course><hAcc>1.353176</hAcc><vAcc>0.829969</vAcc></extensions></trkpt>
      <trkpt lon="-2.248433" lat="53.103559"><ele>131.354935</ele><time>2022-03-04T10:37:22Z</time><extensions><speed>1.648514</speed><course>33.393234</course><hAcc>1.354641</hAcc><vAcc>0.830017</vAcc></extensions></trkpt>
      <trkpt lon="-2.248420" lat="53.103572"><ele>131.308868</ele><time>2022-03-04T10:37:23Z</time><extensions><speed>1.655159</speed><course>30.740364</course><hAcc>1.349348</hAcc><vAcc>0.830057</vAcc></extensions></trkpt>
      <trkpt lon="-2.248407" lat="53.103585"><ele>131.267654</ele><time>2022-03-04T10:37:24Z</time><extensions><speed>1.632532</speed><course>32.003601</course><hAcc>1.345837</hAcc><vAcc>0.830119</vAcc></extensions></trkpt>
      <trkpt lon="-2.248394" lat="53.103597"><ele>131.235367</ele><time>2022-03-04T10:37:25Z</time><extensions><speed>1.586109</speed><course>28.920523</course><hAcc>1.348123</hAcc><vAcc>0.830188</vAcc></extensions></trkpt>
      <trkpt lon="-2.248383" lat="53.103610"><ele>131.182083</ele><time>2022-03-04T10:37:26Z</time><extensions><speed>1.617990</speed><course>27.175526</course><hAcc>1.326636</hAcc><vAcc>0.830263</vAcc></extensions></trkpt>
      <trkpt lon="-2.248372" lat="53.103623"><ele>131.137131</ele><time>2022-03-04T10:37:27Z</time><extensions><speed>1.606501</speed><course>26.428310</course><hAcc>1.333904</hAcc><vAcc>0.830340</vAcc></extensions></trkpt>
      <trkpt lon="-2.248361" lat="53.103636"><ele>131.093750</ele><time>2022-03-04T10:37:28Z</time><extensions><speed>1.645209</speed><course>27.168850</course><hAcc>1.314123</hAcc><vAcc>0.830420</vAcc></extensions></trkpt>
      <trkpt lon="-2.248350" lat="53.103650"><ele>131.073441</ele><time>2022-03-04T10:37:29Z</time><extensions><speed>1.654791</speed><course>27.495134</course><hAcc>1.309327</hAcc><vAcc>0.830500</vAcc></extensions></trkpt>
      <trkpt lon="-2.248338" lat="53.103663"><ele>131.032669</ele><time>2022-03-04T10:37:30Z</time><extensions><speed>1.630880</speed><course>25.333538</course><hAcc>1.313215</hAcc><vAcc>0.830543</vAcc></extensions></trkpt>
      <trkpt lon="-2.248328" lat="53.103676"><ele>130.996506</ele><time>2022-03-04T10:37:31Z</time><extensions><speed>1.622522</speed><course>26.635479</course><hAcc>1.313092</hAcc><vAcc>0.830572</vAcc></extensions></trkpt>
      <trkpt lon="-2.248316" lat="53.103689"><ele>130.967239</ele><time>2022-03-04T10:37:32Z</time><extensions><speed>1.624389</speed><course>30.402290</course><hAcc>1.311742</hAcc><vAcc>0.830577</vAcc></extensions></trkpt>
      <trkpt lon="-2.248304" lat="53.103702"><ele>130.972076</ele><time>2022-03-04T10:37:33Z</time><extensions><speed>1.621950</speed><course>31.125004</course><hAcc>1.310238</hAcc><vAcc>0.830548</vAcc></extensions></trkpt>
      <trkpt lon="-2.248292" lat="53.103714"><ele>131.007324</ele><time>2022-03-04T10:37:34Z</time><extensions><speed>1.622028</speed><course>28.109941</course><hAcc>1.312733</hAcc><vAcc>0.830495</vAcc></extensions></trkpt>
      <trkpt lon="-2.248282" lat="53.103727"><ele>131.055786</ele><time>2022-03-04T10:37:35Z</time><extensions><speed>1.616164</speed><course>24.144209</course><hAcc>1.310951</hAcc><vAcc>0.830369</vAcc></extensions></trkpt>
      <trkpt lon="-2.248273" lat="53.103740"><ele>131.100388</ele><time>2022-03-04T10:37:36Z</time><extensions><speed>1.613935</speed><course>23.087238</course><hAcc>1.318993</hAcc><vAcc>0.830191</vAcc></extensions></trkpt>
      <trkpt lon="-2.248264" lat="53.103753"><ele>131.144928</ele><time>2022-03-04T10:37:37Z</time><extensions><speed>1.598566</speed><course>23.021610</course><hAcc>1.343956</hAcc><vAcc>0.829897</vAcc></extensions></trkpt>
      <trkpt lon="-2.248255" lat="53.103766"><ele>131.201294</ele><time>2022-03-04T10:37:38Z</time><extensions><speed>1.599422</speed><course>21.329874</course><hAcc>1.365837</hAcc><vAcc>0.829465</vAcc></extensions></trkpt>
      <trkpt lon="-2.248246" lat="53.103780"><ele>131.261139</ele><time>2022-03-04T10:37:39Z</time><extensions><speed>1.678620</speed><course>23.311619</course><hAcc>1.373728</hAcc><vAcc>0.829056</vAcc></extensions></trkpt>
      <trkpt lon="-2.248236" lat="53.103794"><ele>131.317551</ele><time>2022-03-04T10:37:40Z</time><extensions><speed>1.697333</speed><course>22.253025</course><hAcc>1.379948</hAcc><vAcc>0.828588</vAcc></extensions></trkpt>
      <trkpt lon="-2.248227" lat="53.103808"><ele>131.380219</ele><time>2022-03-04T10:37:41Z</time><extensions><speed>1.646270</speed><course>19.342010</course><hAcc>1.417578</hAcc><vAcc>0.828087</vAcc></extensions></trkpt>
      <trkpt lon="-2.248220" lat="53.103822"><ele>131.436508</ele><time>2022-03-04T10:37:42Z</time><extensions><speed>1.528234</speed><course>15.913754</course><hAcc>1.453486</hAcc><vAcc>0.827584</vAcc></extensions></trkpt>
      <trkpt lon="-2.248215" lat="53.103834"><ele>131.490997</ele><time>2022-03-04T10:37:43Z</time><extensions><speed>1.268585</speed><course>7.643935</course><hAcc>1.477891</hAcc><vAcc>0.827062</vAcc></extensions></trkpt>
      <trkpt lon="-2.248215" lat="53.103844"><ele>131.549072</ele><time>2022-03-04T10:37:44Z</time><extensions><speed>0.932442</speed><course>351.435394</course><hAcc>1.508494</hAcc><vAcc>0.826538</vAcc></extensions></trkpt>
      <trkpt lon="-2.248218" lat="53.103850"><ele>131.596237</ele><time>2022-03-04T10:37:45Z</time><extensions><speed>0.531187</speed><course>320.591217</course><hAcc>1.532678</hAcc><vAcc>0.826075</vAcc></extensions></trkpt>
      <trkpt lon="-2.248222" lat="53.103852"><ele>131.634888</ele><time>2022-03-04T10:37:46Z</time><extensions><speed>0.202711</speed><course>286.635040</course><hAcc>1.566112</hAcc><vAcc>0.825656</vAcc></extensions></trkpt>
      <trkpt lon="-2.248224" lat="53.103852"><ele>131.663544</ele><time>2022-03-04T10:37:47Z</time><extensions><speed>0.095926</speed><course>276.045898</course><hAcc>1.592089</hAcc><vAcc>0.825315</vAcc></extensions></trkpt>
      <trkpt lon="-2.248225" lat="53.103853"><ele>131.685593</ele><time>2022-03-04T10:37:48Z</time><extensions><speed>0.081432</speed><course>359.269684</course><hAcc>1.607551</hAcc><vAcc>0.825092</vAcc></extensions></trkpt>
      <trkpt lon="-2.248224" lat="53.103854"><ele>131.700195</ele><time>2022-03-04T10:37:49Z</time><extensions><speed>0.234229</speed><course>28.396477</course><hAcc>1.630372</hAcc><vAcc>0.824989</vAcc></extensions></trkpt>
      <trkpt lon="-2.248222" lat="53.103857"><ele>131.718918</ele><time>2022-03-04T10:37:50Z</time><extensions><speed>0.449555</speed><course>31.302889</course><hAcc>1.650149</hAcc><vAcc>0.825013</vAcc></extensions></trkpt>
      <trkpt lon="-2.248217" lat="53.103861"><ele>131.739655</ele><time>2022-03-04T10:37:51Z</time><extensions><speed>0.763249</speed><course>28.491083</course><hAcc>1.655855</hAcc><vAcc>0.825131</vAcc></extensions></trkpt>
      <trkpt lon="-2.248210" lat="53.103870"><ele>131.747025</ele><time>2022-03-04T10:37:52Z</time><extensions><speed>1.336735</speed><course>24.044659</course><hAcc>1.648194</hAcc><vAcc>0.825336</vAcc></extensions></trkpt>
      <trkpt lon="-2.248201" lat="53.103882"><ele>131.758865</ele><time>2022-03-04T10:37:53Z</time><extensions><speed>1.684946</speed><course>22.682791</course><hAcc>1.658231</hAcc><vAcc>0.825602</vAcc></extensions></trkpt>
      <trkpt lon="-2.248191" lat="53.103896"><ele>131.764526</ele><time>2022-03-04T10:37:54Z</time><extensions><speed>1.725004</speed><course>26.742737</course><hAcc>1.651781</hAcc><vAcc>0.825895</vAcc></extensions></trkpt>
      <trkpt lon="-2.248179" lat="53.103909"><ele>131.767548</ele><time>2022-03-04T10:37:55Z</time><extensions><speed>1.652516</speed><course>28.308786</course><hAcc>1.625148</hAcc><vAcc>0.826211</vAcc></extensions></trkpt>
      <trkpt lon="-2.248168" lat="53.103922"><ele>131.785538</ele><time>2022-03-04T10:37:56Z</time><extensions><speed>1.553635</speed><course>26.713341</course><hAcc>1.588830</hAcc><vAcc>0.826535</vAcc></extensions></trkpt>
      <trkpt lon="-2.248158" lat="53.103935"><ele>131.780457</ele><time>2022-03-04T10:37:57Z</time><extensions><speed>1.607266</speed><course>23.059473</course><hAcc>1.562911</hAcc><vAcc>0.826852</vAcc></extensions></trkpt>
      <trkpt lon="-2.248149" lat="53.103948"><ele>131.753769</ele><time>2022-03-04T10:37:58Z</time><extensions><speed>1.734840</speed><course>20.509899</course><hAcc>1.560707</hAcc><vAcc>0.827157</vAcc></extensions></trkpt>
      <trkpt lon="-2.248140" lat="53.103962"><ele>131.721222</ele><time>2022-03-04T10:37:59Z</time><extensions><speed>1.742573</speed><course>19.629913</course><hAcc>1.529561</hAcc><vAcc>0.827434</vAcc></extensions></trkpt>
      <trkpt lon="-2.248132" lat="53.103977"><ele>131.702728</ele><time>2022-03-04T10:38:00Z</time><extensions><speed>1.699888</speed><course>17.741055</course><hAcc>1.495647</hAcc><vAcc>0.827684</vAcc></extensions></trkpt>
      <trkpt lon="-2.248125" lat="53.103991"><ele>131.686951</ele><time>2022-03-04T10:38:01Z</time><extensions><speed>1.671107</speed><course>14.489372</course><hAcc>1.483801</hAcc><vAcc>0.827899</vAcc></extensions></trkpt>
      <trkpt lon="-2.248119" lat="53.104005"><ele>131.660019</ele><time>2022-03-04T10:38:02Z</time><extensions><speed>1.647691</speed><course>15.606257</course><hAcc>1.468685</hAcc><vAcc>0.828086</vAcc></extensions></trkpt>
      <trkpt lon="-2.248112" lat="53.104019"><ele>131.624710</ele><time>2022-03-04T10:38:03Z</time><extensions><speed>1.645101</speed><course>14.588497</course><hAcc>1.455068</hAcc><vAcc>0.828246</vAcc></extensions></trkpt>
      <trkpt lon="-2.248106" lat="53.104033"><ele>131.591675</ele><time>2022-03-04T10:38:04Z</time><extensions><speed>1.649912</speed><course>13.255420</course><hAcc>1.453093</hAcc><vAcc>0.828374</vAcc></extensions></trkpt>
      <trkpt lon="-2.248101" lat="53.104047"><ele>131.541275</ele><time>2022-03-04T10:38:05Z</time><extensions><speed>1.626150</speed><course>13.351767</course><hAcc>1.444815</hAcc><vAcc>0.828473</vAcc></extensions></trkpt>
      <trkpt lon="-2.248095" lat="53.104060"><ele>131.486023</ele><time>2022-03-04T10:38:06Z</time><extensions><speed>1.464754</speed><course>15.621076</course><hAcc>1.428542</hAcc><vAcc>0.828539</vAcc></extensions></trkpt>
      <trkpt lon="-2.248089" lat="53.104073"><ele>131.436783</ele><time>2022-03-04T10:38:07Z</time><extensions><speed>1.447268</speed><course>16.798855</course><hAcc>1.431966</hAcc><vAcc>0.828584</vAcc></extensions></trkpt>
      <trkpt lon="-2.248083" lat="53.104085"><ele>131.384964</ele><time>2022-03-04T10:38:08Z</time><extensions><speed>1.432839</speed><course>15.623918</course><hAcc>1.442235</hAcc><vAcc>0.828600</vAcc></extensions></trkpt>
      <trkpt lon="-2.248078" lat="53.104097"><ele>131.334991</ele><time>2022-03-04T10:38:09Z</time><extensions><speed>1.413570</speed><course>13.422831</course><hAcc>1.444720</hAcc><vAcc>0.828597</vAcc></extensions></trkpt>
      <trkpt lon="-2.248072" lat="53.104109"><ele>131.279877</ele><time>2022-03-04T10:38:10Z</time><extensions><speed>1.370001</speed><course>16.260578</course><hAcc>1.419059</hAcc><vAcc>0.828595</vAcc></extensions></trkpt>
      <trkpt lon="-2.248066" lat="53.104121"><ele>131.217957</ele><time>2022-03-04T10:38:11Z</time><extensions><speed>1.514756</speed><course>17.422419</course><hAcc>1.429072</hAcc><vAcc>0.828574</vAcc></extensions></trkpt>
      <trkpt lon="-2.248059" lat="53.104134"><ele>131.165329</ele><time>2022-03-04T10:38:12Z</time><extensions><speed>1.608819</speed><course>17.648468</course><hAcc>1.438374</hAcc><vAcc>0.828565</vAcc></extensions></trkpt>
      <trkpt lon="-2.248052" lat="53.104147"><ele>131.142517</ele><time>2022-03-04T10:38:14Z</time><extensions><speed>1.596107</speed><course>15.222589</course><hAcc>1.449039</hAcc><vAcc>0.828552</vAcc></extensions></trkpt>
      <trkpt lon="-2.248047" lat="53.104161"><ele>131.126389</ele><time>2022-03-04T10:38:15Z</time><extensions><speed>1.533117</speed><course>11.888616</course><hAcc>1.438648</hAcc><vAcc>0.828527</vAcc></extensions></trkpt>
      <trkpt lon="-2.248042" lat="53.104173"><ele>131.107315</ele><time>2022-03-04T10:38:16Z</time><extensions><speed>1.377034</speed><course>14.379977</course><hAcc>1.417116</hAcc><vAcc>0.828503</vAcc></extensions></trkpt>
      <trkpt lon="-2.248036" lat="53.104185"><ele>131.100220</ele><time>2022-03-04T10:38:17Z</time><extensions><speed>1.407930</speed><course>16.628014</course><hAcc>1.430441</hAcc><vAcc>0.828494</vAcc></extensions></trkpt>
      <trkpt lon="-2.248030" lat="53.104197"><ele>131.105118</ele><time>2022-03-04T10:38:18Z</time><extensions><speed>1.423416</speed><course>15.796559</course><hAcc>1.431986</hAcc><vAcc>0.828492</vAcc></extensions></trkpt>
      <trkpt lon="-2.248025" lat="53.104210"><ele>131.131165</ele><time>2022-03-04T10:38:19Z</time><extensions><speed>1.489272</speed><course>15.268289</course><hAcc>1.427570</hAcc><vAcc>0.828502</vAcc></extensions></trkpt>
      <trkpt lon="-2.248019" lat="53.104223"><ele>131.177597</ele><time>2022-03-04T10:38:20Z</time><extensions><speed>1.575168</speed><course>16.546568</course><hAcc>1.431536</hAcc><vAcc>0.828520</vAcc></extensions></trkpt>
      <trkpt lon="-2.248014" lat="53.104236"><ele>131.211700</ele><time>2022-03-04T10:38:21Z</time><extensions><speed>1.435193</speed><course>10.929750</course><hAcc>1.420539</hAcc><vAcc>0.828543</vAcc></extensions></trkpt>
      <trkpt lon="-2.248010" lat="53.104248"><ele>131.266937</ele><time>2022-03-04T10:38:22Z</time><extensions><speed>1.440372</speed><course>7.390437</course><hAcc>1.424440</hAcc><vAcc>0.828563</vAcc></extensions></trkpt>
      <trkpt lon="-2.248007" lat="53.104261"><ele>131.331238</ele><time>2022-03-04T10:38:23Z</time><extensions><speed>1.498672</speed><course>8.653257</course><hAcc>1.430691</hAcc><vAcc>0.828573</vAcc></extensions></trkpt>
      <trkpt lon="-2.248004" lat="53.104274"><ele>131.403351</ele><time>2022-03-04T10:38:24Z</time><extensions><speed>1.547331</speed><course>8.278372</course><hAcc>1.425740</hAcc><vAcc>0.828583</vAcc></extensions></trkpt>
      <trkpt lon="-2.248000" lat="53.104288"><ele>131.473434</ele><time>2022-03-04T10:38:25Z</time><extensions><speed>1.556131</speed><course>10.965208</course><hAcc>1.412849</hAcc><vAcc>0.828569</vAcc></extensions></trkpt>
      <trkpt lon="-2.247994" lat="53.104302"><ele>131.535385</ele><time>2022-03-04T10:38:26Z</time><extensions><speed>1.655146</speed><course>15.954693</course><hAcc>1.416589</hAcc><vAcc>0.828551</vAcc></extensions></trkpt>
      <trkpt lon="-2.247987" lat="53.104316"><ele>131.600433</ele><time>2022-03-04T10:38:27Z</time><extensions><speed>1.702259</speed><course>18.048107</course><hAcc>1.411675</hAcc><vAcc>0.828527</vAcc></extensions></trkpt>
      <trkpt lon="-2.247981" lat="53.104330"><ele>131.670914</ele><time>2022-03-04T10:38:28Z</time><extensions><speed>1.682048</speed><course>11.546836</course><hAcc>1.426031</hAcc><vAcc>0.828482</vAcc></extensions></trkpt>
      <trkpt lon="-2.247977" lat="53.104344"><ele>131.761673</ele><time>2022-03-04T10:38:29Z</time><extensions><speed>1.570517</speed><course>6.916220</course><hAcc>1.430591</hAcc><vAcc>0.828422</vAcc></extensions></trkpt>
      <trkpt lon="-2.247975" lat="53.104358"><ele>131.828201</ele><time>2022-03-04T10:38:30Z</time><extensions><speed>1.439654</speed><course>2.859780</course><hAcc>1.413421</hAcc><vAcc>0.828350</vAcc></extensions></trkpt>
      <trkpt lon="-2.247974" lat="53.104370"><ele>131.880859</ele><time>2022-03-04T10:38:31Z</time><extensions><speed>1.475562</speed><course>2.958376</course><hAcc>1.403826</hAcc><vAcc>0.828283</vAcc></extensions></trkpt>
      <trkpt lon="-2.247972" lat="53.104384"><ele>131.924744</ele><time>2022-03-04T10:38:32Z</time><extensions><speed>1.547274</speed><course>7.985629</course><hAcc>1.398571</hAcc><vAcc>0.828215</vAcc></extensions></trkpt>
      <trkpt lon="-2.247968" lat="53.104397"><ele>131.972672</ele><time>2022-03-04T10:38:33Z</time><extensions><speed>1.616938</speed><course>11.987727</course><hAcc>1.409742</hAcc><vAcc>0.828148</vAcc></extensions></trkpt>
      <trkpt lon="-2.247963" lat="53.104411"><ele>132.020538</ele><time>2022-03-04T10:38:34Z</time><extensions><speed>1.594784</speed><course>13.967615</course><hAcc>1.418677</hAcc><vAcc>0.828079</vAcc></extensions></trkpt>
      <trkpt lon="-2.247958" lat="53.104424"><ele>132.064194</ele><time>2022-03-04T10:38:35Z</time><extensions><speed>1.489644</speed><course>12.409945</course><hAcc>1.400591</hAcc><vAcc>0.828030</vAcc></extensions></trkpt>
      <trkpt lon="-2.247954" lat="53.104437"><ele>132.085175</ele><time>2022-03-04T10:38:36Z</time><extensions><speed>1.467650</speed><course>6.181071</course><hAcc>1.405006</hAcc><vAcc>0.827987</vAcc></extensions></trkpt>
      <trkpt lon="-2.247953" lat="53.104450"><ele>132.108566</ele><time>2022-03-04T10:38:37Z</time><extensions><speed>1.462150</speed><course>2.044359</course><hAcc>1.413878</hAcc><vAcc>0.827960</vAcc></extensions></trkpt>
      <trkpt lon="-2.247952" lat="53.104463"><ele>132.131104</ele><time>2022-03-04T10:38:38Z</time><extensions><speed>1.493713</speed><course>2.634668</course><hAcc>1.405752</hAcc><vAcc>0.827976</vAcc></extensions></trkpt>
      <trkpt lon="-2.247950" lat="53.104477"><ele>132.146393</ele><time>2022-03-04T10:38:39Z</time><extensions><speed>1.572621</speed><course>5.238406</course><hAcc>1.419814</hAcc><vAcc>0.827995</vAcc></extensions></trkpt>
      <trkpt lon="-2.247948" lat="53.104490"><ele>132.160446</ele><time>2022-03-04T10:38:40Z</time><extensions><speed>1.544426</speed><course>7.120353</course><hAcc>1.417170</hAcc><vAcc>0.828043</vAcc></extensions></trkpt>
      <trkpt lon="-2.247944" lat="53.104504"><ele>132.155640</ele><time>2022-03-04T10:38:41Z</time><extensions><speed>1.521379</speed><course>8.326433</course><hAcc>1.413747</hAcc><vAcc>0.828085</vAcc></extensions></trkpt>
      <trkpt lon="-2.247942" lat="53.104517"><ele>132.140686</ele><time>2022-03-04T10:38:42Z</time><extensions><speed>1.501486</speed><course>6.461923</course><hAcc>1.414087</hAcc><vAcc>0.828125</vAcc></extensions></trkpt>
      <trkpt lon="-2.247940" lat="53.104531"><ele>132.101807</ele><time>2022-03-04T10:38:43Z</time><extensions><speed>1.571952</speed><course>5.008615</course><hAcc>1.426970</hAcc><vAcc>0.828177</vAcc></extensions></trkpt>
      <trkpt lon="-2.247937" lat="53.104544"><ele>132.070816</ele><time>2022-03-04T10:38:44Z</time><extensions><speed>1.594358</speed><course>5.044834</course><hAcc>1.418863</hAcc><vAcc>0.828224</vAcc></extensions></trkpt>
      <trkpt lon="-2.247935" lat="53.104559"><ele>132.050476</ele><time>2022-03-04T10:38:45Z</time><extensions><speed>1.626772</speed><course>7.623996</course><hAcc>1.419178</hAcc><vAcc>0.828282</vAcc></extensions></trkpt>
      <trkpt lon="-2.247931" lat="53.104573"><ele>132.041931</ele><time>2022-03-04T10:38:46Z</time><extensions><speed>1.622554</speed><course>10.338272</course><hAcc>1.416106</hAcc><vAcc>0.828323</vAcc></extensions></trkpt>
      <trkpt lon="-2.247927" lat="53.104586"><ele>132.014099</ele><time>2022-03-04T10:38:47Z</time><extensions><speed>1.573653</speed><course>6.690053</course><hAcc>1.410440</hAcc><vAcc>0.828358</vAcc></extensions></trkpt>
      <trkpt lon="-2.247924" lat="53.104600"><ele>131.986771</ele><time>2022-03-04T10:38:48Z</time><extensions><speed>1.573195</speed><course>7.302494</course><hAcc>1.414005</hAcc><vAcc>0.828386</vAcc></extensions></trkpt>
      <trkpt lon="-2.247921" lat="53.104614"><ele>131.955048</ele><time>2022-03-04T10:38:49Z</time><extensions><speed>1.565462</speed><course>7.839468</course><hAcc>1.420186</hAcc><vAcc>0.828391</vAcc></extensions></trkpt>
      <trkpt lon="-2.247917" lat="53.104627"><ele>131.951080</ele><time>2022-03-04T10:38:50Z</time><extensions><speed>1.547597</speed><course>9.203714</course><hAcc>1.419711</hAcc><vAcc>0.828380</vAcc></extensions></trkpt>
      <trkpt lon="-2.247914" lat="53.104640"><ele>131.944626</ele><time>2022-03-04T10:38:51Z</time><extensions><speed>1.509453</speed><course>4.589071</course><hAcc>1.429360</hAcc><vAcc>0.828345</vAcc></extensions></trkpt>
      <trkpt lon="-2.247914" lat="53.104653"><ele>131.958023</ele><time>2022-03-04T10:38:52Z</time><extensions><speed>1.461295</speed><course>357.677887</course><hAcc>1.426147</hAcc><vAcc>0.828295</vAcc></extensions></trkpt>
      <trkpt lon="-2.247914" lat="53.104666"><ele>131.977112</ele><time>2022-03-04T10:38:53Z</time><extensions><speed>1.363744</speed><course>2.017973</course><hAcc>1.412155</hAcc><vAcc>0.828246</vAcc></extensions></trkpt>
      <trkpt lon="-2.247912" lat="53.104678"><ele>132.009827</ele><time>2022-03-04T10:38:54Z</time><extensions><speed>1.408035</speed><course>5.106702</course><hAcc>1.422421</hAcc><vAcc>0.828176</vAcc></extensions></trkpt>
      <trkpt lon="-2.247909" lat="53.104690"><ele>132.055496</ele><time>2022-03-04T10:38:55Z</time><extensions><speed>1.383054</speed><course>10.801769</course><hAcc>1.409996</hAcc><vAcc>0.828102</vAcc></extensions></trkpt>
      <trkpt lon="-2.247905" lat="53.104702"><ele>132.108261</ele><time>2022-03-04T10:38:56Z</time><extensions><speed>1.523849</speed><course>11.769886</course><hAcc>1.425130</hAcc><vAcc>0.828028</vAcc></extensions></trkpt>
      <trkpt lon="-2.247900" lat="53.104715"><ele>132.181900</ele><time>2022-03-04T10:38:57Z</time><extensions><speed>1.473097</speed><course>12.909348</course><hAcc>1.414601</hAcc><vAcc>0.827956</vAcc></extensions></trkpt>
      <trkpt lon="-2.247895" lat="53.104727"><ele>132.268204</ele><time>2022-03-04T10:38:58Z</time><extensions><speed>1.478093</speed><course>9.367714</course><hAcc>1.408463</hAcc><vAcc>0.827882</vAcc></extensions></trkpt>
      <trkpt lon="-2.247893" lat="53.104740"><ele>132.361984</ele><time>2022-03-04T10:38:59Z</time><extensions><speed>1.449457</speed><course>1.577716</course><hAcc>1.403226</hAcc><vAcc>0.827797</vAcc></extensions></trkpt>
      <trkpt lon="-2.247892" lat="53.104753"><ele>132.447296</ele><time>2022-03-04T10:39:00Z</time><extensions><speed>1.491627</speed><course>359.567657</course><hAcc>1.395106</hAcc><vAcc>0.827707</vAcc></extensions></trkpt>
      <trkpt lon="-2.247892" lat="53.104766"><ele>132.535110</ele><time>2022-03-04T10:39:01Z</time><extensions><speed>1.560729</speed><course>1.768511</course><hAcc>1.397359</hAcc><vAcc>0.827611</vAcc></extensions></trkpt>
      <trkpt lon="-2.247890" lat="53.104779"><ele>132.628693</ele><time>2022-03-04T10:39:02Z</time><extensions><speed>1.464571</speed><course>6.983547</course><hAcc>1.388956</hAcc><vAcc>0.827506</vAcc></extensions></trkpt>
      <trkpt lon="-2.247887" lat="53.104792"><ele>132.736511</ele><time>2022-03-04T10:39:03Z</time><extensions><speed>1.525445</speed><course>5.818622</course><hAcc>1.394450</hAcc><vAcc>0.827421</vAcc></extensions></trkpt>
      <trkpt lon="-2.247884" lat="53.104805"><ele>132.847580</ele><time>2022-03-04T10:39:04Z</time><extensions><speed>1.501755</speed><course>6.824602</course><hAcc>1.387533</hAcc><vAcc>0.827362</vAcc></extensions></trkpt>
      <trkpt lon="-2.247881" lat="53.104818"><ele>132.952591</ele><time>2022-03-04T10:39:05Z</time><extensions><speed>1.535617</speed><course>7.527912</course><hAcc>1.389804</hAcc><vAcc>0.827309</vAcc></extensions></trkpt>
      <trkpt lon="-2.247879" lat="53.104831"><ele>133.044373</ele><time>2022-03-04T10:39:06Z</time><extensions><speed>1.526795</speed><course>5.207328</course><hAcc>1.392517</hAcc><vAcc>0.827270</vAcc></extensions></trkpt>
      <trkpt lon="-2.247876" lat="53.104845"><ele>133.141235</ele><time>2022-03-04T10:39:06Z</time><extensions><speed>1.558482</speed><course>5.288313</course><hAcc>1.398321</hAcc><vAcc>0.827237</vAcc></extensions></trkpt>
      <trkpt lon="-2.247873" lat="53.104858"><ele>133.208725</ele><time>2022-03-04T10:39:07Z</time><extensions><speed>1.554863</speed><course>10.844414</course><hAcc>1.393785</hAcc><vAcc>0.827243</vAcc></extensions></trkpt>
      <trkpt lon="-2.247868" lat="53.104872"><ele>133.263474</ele><time>2022-03-04T10:39:08Z</time><extensions><speed>1.601328</speed><course>10.177563</course><hAcc>1.398862</hAcc><vAcc>0.827262</vAcc></extensions></trkpt>
      <trkpt lon="-2.247864" lat="53.104885"><ele>133.289917</ele><time>2022-03-04T10:39:09Z</time><extensions><speed>1.517490</speed><course>9.951044</course><hAcc>1.396450</hAcc><vAcc>0.827293</vAcc></extensions></trkpt>
      <trkpt lon="-2.247860" lat="53.104898"><ele>133.304794</ele><time>2022-03-04T10:39:10Z</time><extensions><speed>1.455858</speed><course>6.164824</course><hAcc>1.399302</hAcc><vAcc>0.827370</vAcc></extensions></trkpt>
      <trkpt lon="-2.247858" lat="53.104910"><ele>133.315125</ele><time>2022-03-04T10:39:11Z</time><extensions><speed>1.415728</speed><course>2.180531</course><hAcc>1.399371</hAcc><vAcc>0.827457</vAcc></extensions></trkpt>
      <trkpt lon="-2.247857" lat="53.104923"><ele>133.311707</ele><time>2022-03-04T10:39:12Z</time><extensions><speed>1.528753</speed><course>1.173674</course><hAcc>1.411724</hAcc><vAcc>0.827574</vAcc></extensions></trkpt>
      <trkpt lon="-2.247855" lat="53.104937"><ele>133.273834</ele><time>2022-03-04T10:39:13Z</time><extensions><speed>1.517726</speed><course>1.805244</course><hAcc>1.413053</hAcc><vAcc>0.827700</vAcc></extensions></trkpt>
      <trkpt lon="-2.247854" lat="53.104950"><ele>133.231400</ele><time>2022-03-04T10:39:14Z</time><extensions><speed>1.524315</speed><course>358.941132</course><hAcc>1.413643</hAcc><vAcc>0.827819</vAcc></extensions></trkpt>
      <trkpt lon="-2.247853" lat="53.104963"><ele>133.193481</ele><time>2022-03-04T10:39:15Z</time><extensions><speed>1.495522</speed><course>2.212304</course><hAcc>1.412147</hAcc><vAcc>0.827944</vAcc></extensions></trkpt>
      <trkpt lon="-2.247851" lat="53.104977"><ele>133.122223</ele><time>2022-03-04T10:39:16Z</time><extensions><speed>1.566815</speed><course>7.389814</course><hAcc>1.420210</hAcc><vAcc>0.828059</vAcc></extensions></trkpt>
      <trkpt lon="-2.247847" lat="53.104990"><ele>133.054749</ele><time>2022-03-04T10:39:17Z</time><extensions><speed>1.508903</speed><course>9.968693</course><hAcc>1.416490</hAcc><vAcc>0.828142</vAcc></extensions></trkpt>
      <trkpt lon="-2.247842" lat="53.105003"><ele>132.990570</ele><time>2022-03-04T10:39:18Z</time><extensions><speed>1.503235</speed><course>12.943920</course><hAcc>1.421003</hAcc><vAcc>0.828205</vAcc></extensions></trkpt>
      <trkpt lon="-2.247837" lat="53.105016"><ele>132.932846</ele><time>2022-03-04T10:39:19Z</time><extensions><speed>1.493988</speed><course>12.745729</course><hAcc>1.428620</hAcc><vAcc>0.828229</vAcc></extensions></trkpt>
      <trkpt lon="-2.247832" lat="53.105028"><ele>132.875137</ele><time>2022-03-04T10:39:20Z</time><extensions><speed>1.410107</speed><course>10.936728</course><hAcc>1.425067</hAcc><vAcc>0.828219</vAcc></extensions></trkpt>
      <trkpt lon="-2.247828" lat="53.105041"><ele>132.836624</ele><time>2022-03-04T10:39:21Z</time><extensions><speed>1.462856</speed><course>11.674610</course><hAcc>1.425198</hAcc><vAcc>0.828166</vAcc></extensions></trkpt>
      <trkpt lon="-2.247823" lat="53.105054"><ele>132.803757</ele><time>2022-03-04T10:39:22Z</time><extensions><speed>1.586550</speed><course>14.571905</course><hAcc>1.431325</hAcc><vAcc>0.828055</vAcc></extensions></trkpt>
      <trkpt lon="-2.247817" lat="53.105067"><ele>132.766663</ele><time>2022-03-04T10:39:23Z</time><extensions><speed>1.582911</speed><course>15.757750</course><hAcc>1.433782</hAcc><vAcc>0.827898</vAcc></extensions></trkpt>
      <trkpt lon="-2.247810" lat="53.105080"><ele>132.740921</ele><time>2022-03-04T10:39:24Z</time><extensions><speed>1.601489</speed><course>20.239801</course><hAcc>1.427753</hAcc><vAcc>0.827695</vAcc></extensions></trkpt>
      <trkpt lon="-2.247801" lat="53.105093"><ele>132.732651</ele><time>2022-03-04T10:39:25Z</time><extensions><speed>1.600314</speed><course>20.824577</course><hAcc>1.429695</hAcc><vAcc>0.827462</vAcc></extensions></trkpt>
      <trkpt lon="-2.247794" lat="53.105106"><ele>132.727875</ele><time>2022-03-04T10:39:26Z</time><extensions><speed>1.575030</speed><course>14.286355</course><hAcc>1.431376</hAcc><vAcc>0.827200</vAcc></extensions></trkpt>
      <trkpt lon="-2.247788" lat="53.105119"><ele>132.752304</ele><time>2022-03-04T10:39:27Z</time><extensions><speed>1.563182</speed><course>7.530765</course><hAcc>1.430101</hAcc><vAcc>0.826919</vAcc></extensions></trkpt>
      <trkpt lon="-2.247785" lat="53.105133"><ele>132.806000</ele><time>2022-03-04T10:39:28Z</time><extensions><speed>1.586350</speed><course>2.691198</course><hAcc>1.428261</hAcc><vAcc>0.826670</vAcc></extensions></trkpt>
      <trkpt lon="-2.247783" lat="53.105147"><ele>132.870773</ele><time>2022-03-04T10:39:29Z</time><extensions><speed>1.641806</speed><course>1.314709</course><hAcc>1.428750</hAcc><vAcc>0.826444</vAcc></extensions></trkpt>
      <trkpt lon="-2.247782" lat="53.105161"><ele>132.953384</ele><time>2022-03-04T10:39:30Z</time><extensions><speed>1.533760</speed><course>358.665680</course><hAcc>1.414750</hAcc><vAcc>0.826243</vAcc></extensions></trkpt>
      <trkpt lon="-2.247782" lat="53.105174"><ele>133.028824</ele><time>2022-03-04T10:39:31Z</time><extensions><speed>1.504318</speed><course>353.660889</course><hAcc>1.411174</hAcc><vAcc>0.826082</vAcc></extensions></trkpt>
      <trkpt lon="-2.247784" lat="53.105187"><ele>133.116104</ele><time>2022-03-04T10:39:32Z</time><extensions><speed>1.588011</speed><course>351.163422</course><hAcc>1.415373</hAcc><vAcc>0.825990</vAcc></extensions></trkpt>
      <trkpt lon="-2.247788" lat="53.105201"><ele>133.213409</ele><time>2022-03-04T10:39:33Z</time><extensions><speed>1.670835</speed><course>348.193176</course><hAcc>1.412837</hAcc><vAcc>0.825952</vAcc></extensions></trkpt>
      <trkpt lon="-2.247793" lat="53.105215"><ele>133.321075</ele><time>2022-03-04T10:39:34Z</time><extensions><speed>1.494612</speed><course>347.754456</course><hAcc>1.404005</hAcc><vAcc>0.825987</vAcc></extensions></trkpt>
      <trkpt lon="-2.247795" lat="53.105228"><ele>133.450119</ele><time>2022-03-04T10:39:35Z</time><extensions><speed>1.433655</speed><course>354.093140</course><hAcc>1.403552</hAcc><vAcc>0.826096</vAcc></extensions></trkpt>
      <trkpt lon="-2.247795" lat="53.105239"><ele>133.572372</ele><time>2022-03-04T10:39:36Z</time><extensions><speed>1.282871</speed><course>7.547012</course><hAcc>1.387181</hAcc><vAcc>0.826266</vAcc></extensions></trkpt>
      <trkpt lon="-2.247790" lat="53.105251"><ele>133.715286</ele><time>2022-03-04T10:39:37Z</time><extensions><speed>1.405507</speed><course>13.551276</course><hAcc>1.395581</hAcc><vAcc>0.826482</vAcc></extensions></trkpt>
      <trkpt lon="-2.247784" lat="53.105263"><ele>133.866226</ele><time>2022-03-04T10:39:38Z</time><extensions><speed>1.478275</speed><course>18.110651</course><hAcc>1.395417</hAcc><vAcc>0.826726</vAcc></extensions></trkpt>
      <trkpt lon="-2.247777" lat="53.105275"><ele>133.978348</ele><time>2022-03-04T10:39:39Z</time><extensions><speed>1.520081</speed><course>14.793139</course><hAcc>1.403102</hAcc><vAcc>0.826989</vAcc></extensions></trkpt>
      <trkpt lon="-2.247771" lat="53.105288"><ele>134.102509</ele><time>2022-03-04T10:39:40Z</time><extensions><speed>1.542758</speed><course>11.233153</course><hAcc>1.410229</hAcc><vAcc>0.827257</vAcc></extensions></trkpt>
      <trkpt lon="-2.247767" lat="53.105301"><ele>134.220215</ele><time>2022-03-04T10:39:41Z</time><extensions><speed>1.441567</speed><course>7.202382</course><hAcc>1.401654</hAcc><vAcc>0.827522</vAcc></extensions></trkpt>
      <trkpt lon="-2.247766" lat="53.105313"><ele>134.322845</ele><time>2022-03-04T10:39:42Z</time><extensions><speed>1.383592</speed><course>0.103679</course><hAcc>1.402588</hAcc><vAcc>0.827779</vAcc></extensions></trkpt>
      <trkpt lon="-2.247765" lat="53.105326"><ele>134.419510</ele><time>2022-03-04T10:39:43Z</time><extensions><speed>1.436292</speed><course>357.954895</course><hAcc>1.411918</hAcc><vAcc>0.828015</vAcc></extensions></trkpt>
      <trkpt lon="-2.247764" lat="53.105338"><ele>134.508575</ele><time>2022-03-04T10:39:44Z</time><extensions><speed>1.352900</speed><course>4.822890</course><hAcc>1.398971</hAcc><vAcc>0.828229</vAcc></extensions></trkpt>
      <trkpt lon="-2.247762" lat="53.105349"><ele>134.593704</ele><time>2022-03-04T10:39:45Z</time><extensions><speed>1.390137</speed><course>7.800572</course><hAcc>1.397393</hAcc><vAcc>0.828431</vAcc></extensions></trkpt>
      <trkpt lon="-2.247759" lat="53.105361"><ele>134.666992</ele><time>2022-03-04T10:39:46Z</time><extensions><speed>1.397650</speed><course>2.958853</course><hAcc>1.397972</hAcc><vAcc>0.828599</vAcc></extensions></trkpt>
      <trkpt lon="-2.247757" lat="53.105373"><ele>134.720932</ele><time>2022-03-04T10:39:47Z</time><extensions><speed>1.402194</speed><course>7.654135</course><hAcc>1.398164</hAcc><vAcc>0.828746</vAcc></extensions></trkpt>
      <trkpt lon="-2.247753" lat="53.105385"><ele>134.767258</ele><time>2022-03-04T10:39:48Z</time><extensions><speed>1.455932</speed><course>13.288300</course><hAcc>1.392427</hAcc><vAcc>0.828870</vAcc></extensions></trkpt>
      <trkpt lon="-2.247748" lat="53.105397"><ele>134.807663</ele><time>2022-03-04T10:39:49Z</time><extensions><speed>1.430123</speed><course>12.330937</course><hAcc>1.381767</hAcc><vAcc>0.828985</vAcc></extensions></trkpt>
      <trkpt lon="-2.247744" lat="53.105410"><ele>134.837585</ele><time>2022-03-04T10:39:50Z</time><extensions><speed>1.530524</speed><course>9.244078</course><hAcc>1.383244</hAcc><vAcc>0.829077</vAcc></extensions></trkpt>
      <trkpt lon="-2.247741" lat="53.105423"><ele>134.859192</ele><time>2022-03-04T10:39:51Z</time><extensions><speed>1.470436</speed><course>6.657368</course><hAcc>1.375226</hAcc><vAcc>0.829140</vAcc></extensions></trkpt>
      <trkpt lon="-2.247737" lat="53.105435"><ele>134.885193</ele><time>2022-03-04T10:39:52Z</time><extensions><speed>1.448055</speed><course>12.785194</course><hAcc>1.369581</hAcc><vAcc>0.829183</vAcc></extensions></trkpt>
      <trkpt lon="-2.247731" lat="53.105448"><ele>134.901840</ele><time>2022-03-04T10:39:53Z</time><extensions><speed>1.538269</speed><course>15.324675</course><hAcc>1.378874</hAcc><vAcc>0.829197</vAcc></extensions></trkpt>
      <trkpt lon="-2.247726" lat="53.105460"><ele>134.907028</ele><time>2022-03-04T10:39:54Z</time><extensions><speed>1.480824</speed><course>10.670458</course><hAcc>1.378212</hAcc><vAcc>0.829192</vAcc></extensions></trkpt>
      <trkpt lon="-2.247724" lat="53.105473"><ele>134.899033</ele><time>2022-03-04T10:39:55Z</time><extensions><speed>1.406211</speed><course>3.523116</course><hAcc>1.373166</hAcc><vAcc>0.829187</vAcc></extensions></trkpt>
      <trkpt lon="-2.247723" lat="53.105485"><ele>134.879623</ele><time>2022-03-04T10:39:56Z</time><extensions><speed>1.453761</speed><course>0.940392</course><hAcc>1.377081</hAcc><vAcc>0.829173</vAcc></extensions></trkpt>
      <trkpt lon="-2.247723" lat="53.105498"><ele>134.862534</ele><time>2022-03-04T10:39:57Z</time><extensions><speed>1.374881</speed><course>353.510620</course><hAcc>1.370058</hAcc><vAcc>0.829154</vAcc></extensions></trkpt>
      <trkpt lon="-2.247724" lat="53.105509"><ele>134.837952</ele><time>2022-03-04T10:39:58Z</time><extensions><speed>1.320173</speed><course>353.757111</course><hAcc>1.368353</hAcc><vAcc>0.829143</vAcc></extensions></trkpt>
      <trkpt lon="-2.247726" lat="53.105521"><ele>134.802399</ele><time>2022-03-04T10:39:59Z</time><extensions><speed>1.409285</speed><course>354.258484</course><hAcc>1.379441</hAcc><vAcc>0.829148</vAcc></extensions></trkpt>
      <trkpt lon="-2.247727" lat="53.105533"><ele>134.760025</ele><time>2022-03-04T10:40:00Z</time><extensions><speed>1.434309</speed><course>355.145020</course><hAcc>1.376494</hAcc><vAcc>0.829166</vAcc></extensions></trkpt>
      <trkpt lon="-2.247729" lat="53.105546"><ele>134.703232</ele><time>2022-03-04T10:40:01Z</time><extensions><speed>1.489219</speed><course>356.003571</course><hAcc>1.378865</hAcc><vAcc>0.829199</vAcc></extensions></trkpt>
      <trkpt lon="-2.247730" lat="53.105559"><ele>134.645950</ele><time>2022-03-04T10:40:02Z</time><extensions><speed>1.496312</speed><course>356.028137</course><hAcc>1.376816</hAcc><vAcc>0.829255</vAcc></extensions></trkpt>
      <trkpt lon="-2.247732" lat="53.105571"><ele>134.572159</ele><time>2022-03-04T10:40:03Z</time><extensions><speed>1.441637</speed><course>351.067505</course><hAcc>1.369072</hAcc><vAcc>0.829334</vAcc></extensions></trkpt>
      <trkpt lon="-2.247737" lat="53.105583"><ele>134.502045</ele><time>2022-03-04T10:40:04Z</time><extensions><speed>1.500731</speed><course>342.373383</course><hAcc>1.372332</hAcc><vAcc>0.829435</vAcc></extensions></trkpt>
      <trkpt lon="-2.247743" lat="53.105596"><ele>134.420410</ele><time>2022-03-04T10:40:05Z</time><extensions><speed>1.524539</speed><course>341.471252</course><hAcc>1.376313</hAcc><vAcc>0.829558</vAcc></extensions></trkpt>
      <trkpt lon="-2.247748" lat="53.105608"><ele>134.325027</ele><time>2022-03-04T10:40:06Z</time><extensions><speed>1.419312</speed><course>349.403015</course><hAcc>1.371624</hAcc><vAcc>0.829707</vAcc></extensions></trkpt>
      <trkpt lon="-2.247749" lat="53.105621"><ele>134.256393</ele><time>2022-03-04T10:40:07Z</time><extensions><speed>1.511586</speed><course>1.897017</course><hAcc>1.374456</hAcc><vAcc>0.829831</vAcc></extensions></trkpt>
      <trkpt lon="-2.247746" lat="53.105634"><ele>134.171982</ele><time>2022-03-04T10:40:08Z</time><extensions><speed>1.535547</speed><course>7.977517</course><hAcc>1.374837</hAcc><vAcc>0.829939</vAcc></extensions></trkpt>
      <trkpt lon="-2.247742" lat="53.105647"><ele>134.083344</ele><time>2022-03-04T10:40:09Z</time><extensions><speed>1.493019</speed><course>11.974147</course><hAcc>1.373211</hAcc><vAcc>0.830049</vAcc></extensions></trkpt>
      <trkpt lon="-2.247737" lat="53.105660"><ele>134.003845</ele><time>2022-03-04T10:40:10Z</time><extensions><speed>1.516243</speed><course>11.868296</course><hAcc>1.376064</hAcc><vAcc>0.830137</vAcc></extensions></trkpt>
      <trkpt lon="-2.247733" lat="53.105673"><ele>133.934616</ele><time>2022-03-04T10:40:11Z</time><extensions><speed>1.493192</speed><course>4.996712</course><hAcc>1.376660</hAcc><vAcc>0.830203</vAcc></extensions></trkpt>
      <trkpt lon="-2.247731" lat="53.105685"><ele>133.859131</ele><time>2022-03-04T10:40:12Z</time><extensions><speed>1.346773</speed><course>358.792633</course><hAcc>1.371400</hAcc><vAcc>0.830247</vAcc></extensions></trkpt>
      <trkpt lon="-2.247732" lat="53.105696"><ele>133.783768</ele><time>2022-03-04T10:40:13Z</time><extensions><speed>1.331928</speed><course>353.921997</course><hAcc>1.375719</hAcc><vAcc>0.830258</vAcc></extensions></trkpt>
      <trkpt lon="-2.247733" lat="53.105708"><ele>133.707809</ele><time>2022-03-04T10:40:14Z</time><extensions><speed>1.396626</speed><course>356.639130</course><hAcc>1.379292</hAcc><vAcc>0.830266</vAcc></extensions></trkpt>
      <trkpt lon="-2.247731" lat="53.105720"><ele>133.643555</ele><time>2022-03-04T10:40:15Z</time><extensions><speed>1.479644</speed><course>7.316765</course><hAcc>1.379131</hAcc><vAcc>0.830258</vAcc></extensions></trkpt>
      <trkpt lon="-2.247727" lat="53.105733"><ele>133.598785</ele><time>2022-03-04T10:40:16Z</time><extensions><speed>1.541637</speed><course>10.008981</course><hAcc>1.383241</hAcc><vAcc>0.830256</vAcc></extensions></trkpt>
      <trkpt lon="-2.247722" lat="53.105746"><ele>133.577072</ele><time>2022-03-04T10:40:17Z</time><extensions><speed>1.483785</speed><course>14.479785</course><hAcc>1.383184</hAcc><vAcc>0.830231</vAcc></extensions></trkpt>
      <trkpt lon="-2.247717" lat="53.105758"><ele>133.573608</ele><time>2022-03-04T10:40:18Z</time><extensions><speed>1.435851</speed><course>9.785712</course><hAcc>1.383426</hAcc><vAcc>0.830192</vAcc></extensions></trkpt>
      <trkpt lon="-2.247713" lat="53.105769"><ele>133.591827</ele><time>2022-03-04T10:40:20Z</time><extensions><speed>1.261706</speed><course>6.132532</course><hAcc>1.374101</hAcc><vAcc>0.830153</vAcc></extensions></trkpt>
      <trkpt lon="-2.247712" lat="53.105780"><ele>133.615158</ele><time>2022-03-04T10:40:21Z</time><extensions><speed>1.246324</speed><course>1.075320</course><hAcc>1.377100</hAcc><vAcc>0.830085</vAcc></extensions></trkpt>
      <trkpt lon="-2.247710" lat="53.105791"><ele>133.656540</ele><time>2022-03-04T10:40:22Z</time><extensions><speed>1.400922</speed><course>10.723786</course><hAcc>1.383783</hAcc><vAcc>0.830035</vAcc></extensions></trkpt>
      <trkpt lon="-2.247706" lat="53.105802"><ele>133.692673</ele><time>2022-03-04T10:40:23Z</time><extensions><speed>1.373333</speed><course>12.873797</course><hAcc>1.381281</hAcc><vAcc>0.829987</vAcc></extensions></trkpt>
      <trkpt lon="-2.247701" lat="53.105814"><ele>133.739746</ele><time>2022-03-04T10:40:24Z</time><extensions><speed>1.348218</speed><course>11.823636</course><hAcc>1.377317</hAcc><vAcc>0.829935</vAcc></extensions></trkpt>
      <trkpt lon="-2.247697" lat="53.105825"><ele>133.802170</ele><time>2022-03-04T10:40:25Z</time><extensions><speed>1.314385</speed><course>8.765881</course><hAcc>1.369314</hAcc><vAcc>0.829901</vAcc></extensions></trkpt>
      <trkpt lon="-2.247694" lat="53.105836"><ele>133.874146</ele><time>2022-03-04T10:40:26Z</time><extensions><speed>1.217456</speed><course>9.227502</course><hAcc>1.361076</hAcc><vAcc>0.829871</vAcc></extensions></trkpt>
      <trkpt lon="-2.247691" lat="53.105846"><ele>133.937805</ele><time>2022-03-04T10:40:27Z</time><extensions><speed>1.246420</speed><course>9.635471</course><hAcc>1.364620</hAcc><vAcc>0.829850</vAcc></extensions></trkpt>
      <trkpt lon="-2.247688" lat="53.105857"><ele>134.010971</ele><time>2022-03-04T10:40:28Z</time><extensions><speed>1.277484</speed><course>9.914657</course><hAcc>1.363824</hAcc><vAcc>0.829837</vAcc></extensions></trkpt>
      <trkpt lon="-2.247685" lat="53.105867"><ele>134.096954</ele><time>2022-03-04T10:40:29Z</time><extensions><speed>1.231417</speed><course>9.975262</course><hAcc>1.351069</hAcc><vAcc>0.829817</vAcc></extensions></trkpt>
      <trkpt lon="-2.247683" lat="53.105878"><ele>134.171249</ele><time>2022-03-04T10:40:30Z</time><extensions><speed>1.388195</speed><course>3.834657</course><hAcc>1.355462</hAcc><vAcc>0.829809</vAcc></extensions></trkpt>
      <trkpt lon="-2.247683" lat="53.105890"><ele>134.236816</ele><time>2022-03-04T10:40:31Z</time><extensions><speed>1.382982</speed><course>359.870300</course><hAcc>1.349794</hAcc><vAcc>0.829808</vAcc></extensions></trkpt>
      <trkpt lon="-2.247682" lat="53.105902"><ele>134.297791</ele><time>2022-03-04T10:40:32Z</time><extensions><speed>1.369353</speed><course>3.734922</course><hAcc>1.344671</hAcc><vAcc>0.829823</vAcc></extensions></trkpt>
      <trkpt lon="-2.247682" lat="53.105913"><ele>134.353836</ele><time>2022-03-04T10:40:33Z</time><extensions><speed>1.415829</speed><course>359.973602</course><hAcc>1.347131</hAcc><vAcc>0.829848</vAcc></extensions></trkpt>
      <trkpt lon="-2.247682" lat="53.105926"><ele>134.388824</ele><time>2022-03-04T10:40:34Z</time><extensions><speed>1.462070</speed><course>0.219689</course><hAcc>1.349268</hAcc><vAcc>0.829874</vAcc></extensions></trkpt>
      <trkpt lon="-2.247681" lat="53.105938"><ele>134.401978</ele><time>2022-03-04T10:40:35Z</time><extensions><speed>1.439888</speed><course>9.143602</course><hAcc>1.344976</hAcc><vAcc>0.829910</vAcc></extensions></trkpt>
      <trkpt lon="-2.247678" lat="53.105950"><ele>134.395905</ele><time>2022-03-04T10:40:36Z</time><extensions><speed>1.438191</speed><course>7.169169</course><hAcc>1.345228</hAcc><vAcc>0.829951</vAcc></extensions></trkpt>
      <trkpt lon="-2.247678" lat="53.105963"><ele>134.383102</ele><time>2022-03-04T10:40:37Z</time><extensions><speed>1.482048</speed><course>0.268952</course><hAcc>1.346211</hAcc><vAcc>0.829989</vAcc></extensions></trkpt>
      <trkpt lon="-2.247680" lat="53.105974"><ele>134.362213</ele><time>2022-03-04T10:40:38Z</time><extensions><speed>1.320606</speed><course>351.073578</course><hAcc>1.336045</hAcc><vAcc>0.830038</vAcc></extensions></trkpt>
      <trkpt lon="-2.247683" lat="53.105986"><ele>134.341476</ele><time>2022-03-04T10:40:39Z</time><extensions><speed>1.412262</speed><course>353.729584</course><hAcc>1.346077</hAcc><vAcc>0.830100</vAcc></extensions></trkpt>
      <trkpt lon="-2.247685" lat="53.105998"><ele>134.312256</ele><time>2022-03-04T10:40:40Z</time><extensions><speed>1.447788</speed><course>359.364075</course><hAcc>1.346447</hAcc><vAcc>0.830174</vAcc></extensions></trkpt>
      <trkpt lon="-2.247686" lat="53.106011"><ele>134.275421</ele><time>2022-03-04T10:40:41Z</time><extensions><speed>1.406216</speed><course>357.282471</course><hAcc>1.341773</hAcc><vAcc>0.830247</vAcc></extensions></trkpt>
      <trkpt lon="-2.247688" lat="53.106023"><ele>134.221405</ele><time>2022-03-04T10:40:42Z</time><extensions><speed>1.452971</speed><course>355.760956</course><hAcc>1.346191</hAcc><vAcc>0.830320</vAcc></extensions></trkpt>
      <trkpt lon="-2.247691" lat="53.106035"><ele>134.160202</ele><time>2022-03-04T10:40:43Z</time><extensions><speed>1.354558</speed><course>350.133148</course><hAcc>1.340426</hAcc><vAcc>0.830390</vAcc></extensions></trkpt>
      <trkpt lon="-2.247694" lat="53.106046"><ele>134.089691</ele><time>2022-03-04T10:40:44Z</time><extensions><speed>1.383307</speed><course>353.578522</course><hAcc>1.344562</hAcc><vAcc>0.830446</vAcc></extensions></trkpt>
      <trkpt lon="-2.247695" lat="53.106059"><ele>134.016602</ele><time>2022-03-04T10:40:45Z</time><extensions><speed>1.449269</speed><course>359.163055</course><hAcc>1.345599</hAcc><vAcc>0.830492</vAcc></extensions></trkpt>
      <trkpt lon="-2.247696" lat="53.106070"><ele>133.936325</ele><time>2022-03-04T10:40:46Z</time><extensions><speed>1.299157</speed><course>355.392853</course><hAcc>1.335511</hAcc><vAcc>0.830526</vAcc></extensions></trkpt>
      <trkpt lon="-2.247699" lat="53.106082"><ele>133.851746</ele><time>2022-03-04T10:40:47Z</time><extensions><speed>1.464980</speed><course>348.740784</course><hAcc>1.347516</hAcc><vAcc>0.830579</vAcc></extensions></trkpt>
      <trkpt lon="-2.247704" lat="53.106094"><ele>133.764847</ele><time>2022-03-04T10:40:48Z</time><extensions><speed>1.556067</speed><course>344.219086</course><hAcc>1.353573</hAcc><vAcc>0.830627</vAcc></extensions></trkpt>
      <trkpt lon="-2.247710" lat="53.106106"><ele>133.675110</ele><time>2022-03-04T10:40:49Z</time><extensions><speed>1.453269</speed><course>344.221252</course><hAcc>1.343006</hAcc><vAcc>0.830664</vAcc></extensions></trkpt>
      <trkpt lon="-2.247716" lat="53.106118"><ele>133.589951</ele><time>2022-03-04T10:40:50Z</time><extensions><speed>1.357507</speed><course>345.451782</course><hAcc>1.335894</hAcc><vAcc>0.830697</vAcc></extensions></trkpt>
      <trkpt lon="-2.247721" lat="53.106129"><ele>133.495255</ele><time>2022-03-04T10:40:51Z</time><extensions><speed>1.482881</speed><course>342.484528</course><hAcc>1.344259</hAcc><vAcc>0.830728</vAcc></extensions></trkpt>
      <trkpt lon="-2.247728" lat="53.106140"><ele>133.411102</ele><time>2022-03-04T10:40:52Z</time><extensions><speed>1.367608</speed><course>339.610413</course><hAcc>1.334755</hAcc><vAcc>0.830776</vAcc></extensions></trkpt>
      <trkpt lon="-2.247734" lat="53.106151"><ele>133.315140</ele><time>2022-03-04T10:40:53Z</time><extensions><speed>1.365837</speed><course>341.310516</course><hAcc>1.330796</hAcc><vAcc>0.830818</vAcc></extensions></trkpt>
      <trkpt lon="-2.247739" lat="53.106162"><ele>133.208481</ele><time>2022-03-04T10:40:54Z</time><extensions><speed>1.437136</speed><course>347.618439</course><hAcc>1.334124</hAcc><vAcc>0.830858</vAcc></extensions></trkpt>
      <trkpt lon="-2.247742" lat="53.106174"><ele>133.100296</ele><time>2022-03-04T10:40:55Z</time><extensions><speed>1.395405</speed><course>350.488464</course><hAcc>1.329479</hAcc><vAcc>0.830905</vAcc></extensions></trkpt>
      <trkpt lon="-2.247745" lat="53.106185"><ele>133.001663</ele><time>2022-03-04T10:40:56Z</time><extensions><speed>1.306107</speed><course>352.395966</course><hAcc>1.326260</hAcc><vAcc>0.830945</vAcc></extensions></trkpt>
      <trkpt lon="-2.247747" lat="53.106197"><ele>132.913773</ele><time>2022-03-04T10:40:57Z</time><extensions><speed>1.365328</speed><course>350.680054</course><hAcc>1.329714</hAcc><vAcc>0.830963</vAcc></extensions></trkpt>
      <trkpt lon="-2.247751" lat="53.106208"><ele>132.822906</ele><time>2022-03-04T10:40:58Z</time><extensions><speed>1.341506</speed><course>340.648163</course><hAcc>1.327120</hAcc><vAcc>0.830947</vAcc></extensions></trkpt>
      <trkpt lon="-2.247757" lat="53.106219"><ele>132.730881</ele><time>2022-03-04T10:40:59Z</time><extensions><speed>1.267145</speed><course>339.788940</course><hAcc>1.328293</hAcc><vAcc>0.830932</vAcc></extensions></trkpt>
      <trkpt lon="-2.247763" lat="53.106229"><ele>132.646820</ele><time>2022-03-04T10:41:00Z</time><extensions><speed>1.367451</speed><course>339.896729</course><hAcc>1.339386</hAcc><vAcc>0.830876</vAcc></extensions></trkpt>
      <trkpt lon="-2.247769" lat="53.106240"><ele>132.579742</ele><time>2022-03-04T10:41:01Z</time><extensions><speed>1.267114</speed><course>343.160004</course><hAcc>1.343946</hAcc><vAcc>0.830777</vAcc></extensions></trkpt>
      <trkpt lon="-2.247773" lat="53.106251"><ele>132.515411</ele><time>2022-03-04T10:41:02Z</time><extensions><speed>1.351941</speed><course>354.328125</course><hAcc>1.363516</hAcc><vAcc>0.830655</vAcc></extensions></trkpt>
      <trkpt lon="-2.247774" lat="53.106264"><ele>132.475906</ele><time>2022-03-04T10:41:03Z</time><extensions><speed>1.414139</speed><course>356.746796</course><hAcc>1.385139</hAcc><vAcc>0.830446</vAcc></extensions></trkpt>
      <trkpt lon="-2.247776" lat="53.106276"><ele>132.442123</ele><time>2022-03-04T10:41:04Z</time><extensions><speed>1.338208</speed><course>350.240448</course><hAcc>1.403930</hAcc><vAcc>0.830233</vAcc></extensions></trkpt>
      <trkpt lon="-2.247779" lat="53.106286"><ele>132.407867</ele><time>2022-03-04T10:41:05Z</time><extensions><speed>1.073438</speed><course>355.862091</course><hAcc>1.417058</hAcc><vAcc>0.829988</vAcc></extensions></trkpt>
      <trkpt lon="-2.247778" lat="53.106295"><ele>132.384338</ele><time>2022-03-04T10:41:06Z</time><extensions><speed>0.819072</speed><course>13.051872</course><hAcc>1.413461</hAcc><vAcc>0.829704</vAcc></extensions></trkpt>
      <trkpt lon="-2.247774" lat="53.106301"><ele>132.360458</ele><time>2022-03-04T10:41:07Z</time><extensions><speed>0.726679</speed><course>24.332592</course><hAcc>1.422815</hAcc><vAcc>0.829390</vAcc></extensions></trkpt>
      <trkpt lon="-2.247769" lat="53.106307"><ele>132.332855</ele><time>2022-03-04T10:41:08Z</time><extensions><speed>0.702127</speed><course>29.538786</course><hAcc>1.453263</hAcc><vAcc>0.829049</vAcc></extensions></trkpt>
      <trkpt lon="-2.247765" lat="53.106313"><ele>132.311707</ele><time>2022-03-04T10:41:09Z</time><extensions><speed>0.823111</speed><course>16.858139</course><hAcc>1.505758</hAcc><vAcc>0.828685</vAcc></extensions></trkpt>
      <trkpt lon="-2.247763" lat="53.106319"><ele>132.300751</ele><time>2022-03-04T10:41:10Z</time><extensions><speed>0.646319</speed><course>9.717882</course><hAcc>1.480188</hAcc><vAcc>0.828349</vAcc></extensions></trkpt>
      <trkpt lon="-2.247761" lat="53.106325"><ele>132.287292</ele><time>2022-03-04T10:41:11Z</time><extensions><speed>0.597324</speed><course>2.985503</course><hAcc>1.480450</hAcc><vAcc>0.828013</vAcc></extensions></trkpt>
      <trkpt lon="-2.247762" lat="53.106331"><ele>132.278229</ele><time>2022-03-04T10:41:12Z</time><extensions><speed>0.729752</speed><course>347.416016</course><hAcc>1.533915</hAcc><vAcc>0.827666</vAcc></extensions></trkpt>
      <trkpt lon="-2.247765" lat="53.106337"><ele>132.257767</ele><time>2022-03-04T10:41:13Z</time><extensions><speed>0.748341</speed><course>346.020660</course><hAcc>1.487006</hAcc><vAcc>0.827325</vAcc></extensions></trkpt>
      <trkpt lon="-2.247768" lat="53.106344"><ele>132.231064</ele><time>2022-03-04T10:41:14Z</time><extensions><speed>0.891924</speed><course>342.153046</course><hAcc>1.496928</hAcc><vAcc>0.827019</vAcc></extensions></trkpt>
      <trkpt lon="-2.247773" lat="53.106352"><ele>132.213440</ele><time>2022-03-04T10:41:15Z</time><extensions><speed>1.024326</speed><course>336.773315</course><hAcc>1.495796</hAcc><vAcc>0.826731</vAcc></extensions></trkpt>
      <trkpt lon="-2.247779" lat="53.106361"><ele>132.197342</ele><time>2022-03-04T10:41:15Z</time><extensions><speed>1.114624</speed><course>339.187805</course><hAcc>1.516392</hAcc><vAcc>0.826448</vAcc></extensions></trkpt>
      <trkpt lon="-2.247784" lat="53.106371"><ele>132.177444</ele><time>2022-03-04T10:41:16Z</time><extensions><speed>1.105285</speed><course>343.013641</course><hAcc>1.547519</hAcc><vAcc>0.826188</vAcc></extensions></trkpt>
      <trkpt lon="-2.247788" lat="53.106380"><ele>132.141235</ele><time>2022-03-04T10:41:17Z</time><extensions><speed>1.095035</speed><course>347.716095</course><hAcc>1.515536</hAcc><vAcc>0.825889</vAcc></extensions></trkpt>
      <trkpt lon="-2.247790" lat="53.106390"><ele>132.113724</ele><time>2022-03-04T10:41:18Z</time><extensions><speed>1.166154</speed><course>352.085052</course><hAcc>1.520041</hAcc><vAcc>0.825676</vAcc></extensions></trkpt>
      <trkpt lon="-2.247792" lat="53.106401"><ele>132.068527</ele><time>2022-03-04T10:41:19Z</time><extensions><speed>1.251207</speed><course>357.280487</course><hAcc>1.570244</hAcc><vAcc>0.825433</vAcc></extensions></trkpt>
      <trkpt lon="-2.247792" lat="53.106413"><ele>132.024002</ele><time>2022-03-04T10:41:20Z</time><extensions><speed>1.284751</speed><course>2.241249</course><hAcc>1.548644</hAcc><vAcc>0.825260</vAcc></extensions></trkpt>
      <trkpt lon="-2.247791" lat="53.106424"><ele>131.969116</ele><time>2022-03-04T10:41:21Z</time><extensions><speed>1.284397</speed><course>5.114187</course><hAcc>1.523754</hAcc><vAcc>0.825117</vAcc></extensions></trkpt>
      <trkpt lon="-2.247789" lat="53.106436"><ele>131.920090</ele><time>2022-03-04T10:41:22Z</time><extensions><speed>1.205209</speed><course>5.415078</course><hAcc>1.538533</hAcc><vAcc>0.825021</vAcc></extensions></trkpt>
      <trkpt lon="-2.247787" lat="53.106446"><ele>131.867722</ele><time>2022-03-04T10:41:23Z</time><extensions><speed>1.090189</speed><course>9.927564</course><hAcc>1.546844</hAcc><vAcc>0.824970</vAcc></extensions></trkpt>
      <trkpt lon="-2.247783" lat="53.106456"><ele>131.816620</ele><time>2022-03-04T10:41:24Z</time><extensions><speed>1.170867</speed><course>16.302956</course><hAcc>1.532292</hAcc><vAcc>0.824960</vAcc></extensions></trkpt>
      <trkpt lon="-2.247778" lat="53.106467"><ele>131.784363</ele><time>2022-03-04T10:41:25Z</time><extensions><speed>1.379411</speed><course>16.643076</course><hAcc>1.539418</hAcc><vAcc>0.824993</vAcc></extensions></trkpt>
      <trkpt lon="-2.247772" lat="53.106479"><ele>131.728729</ele><time>2022-03-04T10:41:26Z</time><extensions><speed>1.402082</speed><course>11.284776</course><hAcc>1.552490</hAcc><vAcc>0.825068</vAcc></extensions></trkpt>
      <trkpt lon="-2.247769" lat="53.106491"><ele>131.669968</ele><time>2022-03-04T10:41:27Z</time><extensions><speed>1.415798</speed><course>8.383438</course><hAcc>1.512118</hAcc><vAcc>0.825200</vAcc></extensions></trkpt>
      <trkpt lon="-2.247766" lat="53.106504"><ele>131.636688</ele><time>2022-03-04T10:41:28Z</time><extensions><speed>1.392195</speed><course>4.495551</course><hAcc>1.518591</hAcc><vAcc>0.825400</vAcc></extensions></trkpt>
      <trkpt lon="-2.247765" lat="53.106517"><ele>131.604065</ele><time>2022-03-04T10:41:29Z</time><extensions><speed>1.473767</speed><course>0.471195</course><hAcc>1.472477</hAcc><vAcc>0.825668</vAcc></extensions></trkpt>
      <trkpt lon="-2.247765" lat="53.106530"><ele>131.587799</ele><time>2022-03-04T10:41:30Z</time><extensions><speed>1.472080</speed><course>356.818329</course><hAcc>1.461126</hAcc><vAcc>0.826008</vAcc></extensions></trkpt>
      <trkpt lon="-2.247768" lat="53.106543"><ele>131.590637</ele><time>2022-03-04T10:41:31Z</time><extensions><speed>1.639253</speed><course>345.743835</course><hAcc>1.447636</hAcc><vAcc>0.826379</vAcc></extensions></trkpt>
      <trkpt lon="-2.247773" lat="53.106557"><ele>131.585953</ele><time>2022-03-04T10:41:32Z</time><extensions><speed>1.682096</speed><course>346.516632</course><hAcc>1.443176</hAcc><vAcc>0.826773</vAcc></extensions></trkpt>
      <trkpt lon="-2.247778" lat="53.106572"><ele>131.592392</ele><time>2022-03-04T10:41:33Z</time><extensions><speed>1.684994</speed><course>346.105499</course><hAcc>1.425886</hAcc><vAcc>0.827170</vAcc></extensions></trkpt>
      <trkpt lon="-2.247784" lat="53.106586"><ele>131.603470</ele><time>2022-03-04T10:41:34Z</time><extensions><speed>1.652796</speed><course>346.401917</course><hAcc>1.408884</hAcc><vAcc>0.827560</vAcc></extensions></trkpt>
      <trkpt lon="-2.247788" lat="53.106600"><ele>131.626373</ele><time>2022-03-04T10:41:35Z</time><extensions><speed>1.615784</speed><course>352.229553</course><hAcc>1.387990</hAcc><vAcc>0.827924</vAcc></extensions></trkpt>
      <trkpt lon="-2.247790" lat="53.106614"><ele>131.655396</ele><time>2022-03-04T10:41:36Z</time><extensions><speed>1.612154</speed><course>353.663940</course><hAcc>1.378644</hAcc><vAcc>0.828270</vAcc></extensions></trkpt>
      <trkpt lon="-2.247792" lat="53.106628"><ele>131.687317</ele><time>2022-03-04T10:41:37Z</time><extensions><speed>1.614815</speed><course>351.968414</course><hAcc>1.383263</hAcc><vAcc>0.828581</vAcc></extensions></trkpt>
      <trkpt lon="-2.247794" lat="53.106642"><ele>131.729065</ele><time>2022-03-04T10:41:38Z</time><extensions><speed>1.592031</speed><course>359.093781</course><hAcc>1.368061</hAcc><vAcc>0.828902</vAcc></extensions></trkpt>
      <trkpt lon="-2.247793" lat="53.106656"><ele>131.762131</ele><time>2022-03-04T10:41:39Z</time><extensions><speed>1.548188</speed><course>0.388221</course><hAcc>1.361342</hAcc><vAcc>0.829189</vAcc></extensions></trkpt>
      <trkpt lon="-2.247792" lat="53.106670"><ele>131.813339</ele><time>2022-03-04T10:41:40Z</time><extensions><speed>1.557045</speed><course>3.672644</course><hAcc>1.363467</hAcc><vAcc>0.829460</vAcc></extensions></trkpt>
      <trkpt lon="-2.247790" lat="53.106683"><ele>131.834686</ele><time>2022-03-04T10:41:41Z</time><extensions><speed>1.547037</speed><course>3.700930</course><hAcc>1.364395</hAcc><vAcc>0.829720</vAcc></extensions></trkpt>
      <trkpt lon="-2.247787" lat="53.106697"><ele>131.883957</ele><time>2022-03-04T10:41:42Z</time><extensions><speed>1.638362</speed><course>7.660753</course><hAcc>1.371316</hAcc><vAcc>0.829955</vAcc></extensions></trkpt>
      <trkpt lon="-2.247784" lat="53.106711"><ele>131.916840</ele><time>2022-03-04T10:41:43Z</time><extensions><speed>1.576037</speed><course>6.171306</course><hAcc>1.361391</hAcc><vAcc>0.830175</vAcc></extensions></trkpt>
      <trkpt lon="-2.247782" lat="53.106725"><ele>131.956635</ele><time>2022-03-04T10:41:44Z</time><extensions><speed>1.512118</speed><course>5.012383</course><hAcc>1.352063</hAcc><vAcc>0.830389</vAcc></extensions></trkpt>
      <trkpt lon="-2.247779" lat="53.106738"><ele>132.001404</ele><time>2022-03-04T10:41:45Z</time><extensions><speed>1.489720</speed><course>4.974113</course><hAcc>1.351457</hAcc><vAcc>0.830601</vAcc></extensions></trkpt>
      <trkpt lon="-2.247776" lat="53.106751"><ele>132.024994</ele><time>2022-03-04T10:41:46Z</time><extensions><speed>1.516323</speed><course>6.147857</course><hAcc>1.355505</hAcc><vAcc>0.830789</vAcc></extensions></trkpt>
      <trkpt lon="-2.247773" lat="53.106764"><ele>132.052200</ele><time>2022-03-04T10:41:47Z</time><extensions><speed>1.578418</speed><course>3.204854</course><hAcc>1.357302</hAcc><vAcc>0.830965</vAcc></extensions></trkpt>
      <trkpt lon="-2.247771" lat="53.106778"><ele>132.091888</ele><time>2022-03-04T10:41:48Z</time><extensions><speed>1.563449</speed><course>1.779741</course><hAcc>1.350338</hAcc><vAcc>0.831120</vAcc></extensions></trkpt>
      <trkpt lon="-2.247770" lat="53.106792"><ele>132.098999</ele><time>2022-03-04T10:41:49Z</time><extensions><speed>1.577747</speed><course>359.877350</course><hAcc>1.350206</hAcc><vAcc>0.831238</vAcc></extensions></trkpt>
      <trkpt lon="-2.247769" lat="53.106806"><ele>132.114868</ele><time>2022-03-04T10:41:50Z</time><extensions><speed>1.524555</speed><course>357.468842</course><hAcc>1.340813</hAcc><vAcc>0.831325</vAcc></extensions></trkpt>
      <trkpt lon="-2.247770" lat="53.106819"><ele>132.153580</ele><time>2022-03-04T10:41:51Z</time><extensions><speed>1.567885</speed><course>357.321960</course><hAcc>1.342575</hAcc><vAcc>0.831387</vAcc></extensions></trkpt>
      <trkpt lon="-2.247770" lat="53.106833"><ele>132.193436</ele><time>2022-03-04T10:41:52Z</time><extensions><speed>1.561260</speed><course>358.533966</course><hAcc>1.341220</hAcc><vAcc>0.831416</vAcc></extensions></trkpt>
      <trkpt lon="-2.247771" lat="53.106847"><ele>132.214859</ele><time>2022-03-04T10:41:53Z</time><extensions><speed>1.585300</speed><course>354.529358</course><hAcc>1.344045</hAcc><vAcc>0.831405</vAcc></extensions></trkpt>
      <trkpt lon="-2.247773" lat="53.106860"><ele>132.263962</ele><time>2022-03-04T10:41:54Z</time><extensions><speed>1.476900</speed><course>353.230072</course><hAcc>1.337600</hAcc><vAcc>0.831374</vAcc></extensions></trkpt>
      <trkpt lon="-2.247774" lat="53.106873"><ele>132.304825</ele><time>2022-03-04T10:41:55Z</time><extensions><speed>1.550808</speed><course>358.327545</course><hAcc>1.345975</hAcc><vAcc>0.831329</vAcc></extensions></trkpt>
      <trkpt lon="-2.247773" lat="53.106887"><ele>132.349228</ele><time>2022-03-04T10:41:56Z</time><extensions><speed>1.521841</speed><course>3.912115</course><hAcc>1.338987</hAcc><vAcc>0.831274</vAcc></extensions></trkpt>
      <trkpt lon="-2.247770" lat="53.106900"><ele>132.390060</ele><time>2022-03-04T10:41:57Z</time><extensions><speed>1.577321</speed><course>11.241626</course><hAcc>1.340982</hAcc><vAcc>0.831216</vAcc></extensions></trkpt>
      <trkpt lon="-2.247764" lat="53.106914"><ele>132.434494</ele><time>2022-03-04T10:41:58Z</time><extensions><speed>1.633992</speed><course>15.953493</course><hAcc>1.347834</hAcc><vAcc>0.831153</vAcc></extensions></trkpt>
      <trkpt lon="-2.247759" lat="53.106928"><ele>132.483276</ele><time>2022-03-04T10:41:59Z</time><extensions><speed>1.608231</speed><course>8.770332</course><hAcc>1.352700</hAcc><vAcc>0.831097</vAcc></extensions></trkpt>
      <trkpt lon="-2.247756" lat="53.106941"><ele>132.528381</ele><time>2022-03-04T10:42:00Z</time><extensions><speed>1.568834</speed><course>4.757178</course><hAcc>1.345011</hAcc><vAcc>0.831038</vAcc></extensions></trkpt>
      <trkpt lon="-2.247755" lat="53.106954"><ele>132.585983</ele><time>2022-03-04T10:42:01Z</time><extensions><speed>1.444757</speed><course>357.887024</course><hAcc>1.335693</hAcc><vAcc>0.830977</vAcc></extensions></trkpt>
      <trkpt lon="-2.247756" lat="53.106967"><ele>132.642960</ele><time>2022-03-04T10:42:02Z</time><extensions><speed>1.475851</speed><course>358.443939</course><hAcc>1.343683</hAcc><vAcc>0.830916</vAcc></extensions></trkpt>
      <trkpt lon="-2.247756" lat="53.106979"><ele>132.682526</ele><time>2022-03-04T10:42:03Z</time><extensions><speed>1.576496</speed><course>1.983886</course><hAcc>1.353322</hAcc><vAcc>0.830840</vAcc></extensions></trkpt>
      <trkpt lon="-2.247754" lat="53.106993"><ele>132.718552</ele><time>2022-03-04T10:42:04Z</time><extensions><speed>1.546129</speed><course>5.373214</course><hAcc>1.346900</hAcc><vAcc>0.830702</vAcc></extensions></trkpt>
      <trkpt lon="-2.247751" lat="53.107006"><ele>132.750381</ele><time>2022-03-04T10:42:05Z</time><extensions><speed>1.540291</speed><course>9.849051</course><hAcc>1.345137</hAcc><vAcc>0.830442</vAcc></extensions></trkpt>
      <trkpt lon="-2.247748" lat="53.107019"><ele>132.777634</ele><time>2022-03-04T10:42:06Z</time><extensions><speed>1.526309</speed><course>2.011123</course><hAcc>1.346590</hAcc><vAcc>0.830064</vAcc></extensions></trkpt>
      <trkpt lon="-2.247747" lat="53.107031"><ele>132.776749</ele><time>2022-03-04T10:42:07Z</time><extensions><speed>1.391308</speed><course>358.784363</course><hAcc>1.343690</hAcc><vAcc>0.829441</vAcc></extensions></trkpt>
      <trkpt lon="-2.247747" lat="53.107044"><ele>132.762344</ele><time>2022-03-04T10:42:08Z</time><extensions><speed>1.484943</speed><course>1.765853</course><hAcc>1.365640</hAcc><vAcc>0.828518</vAcc></extensions></trkpt>
      <trkpt lon="-2.247746" lat="53.107057"><ele>132.747116</ele><time>2022-03-04T10:42:09Z</time><extensions><speed>1.448022</speed><course>357.535889</course><hAcc>1.372047</hAcc><vAcc>0.827576</vAcc></extensions></trkpt>
      <trkpt lon="-2.247749" lat="53.107069"><ele>132.742798</ele><time>2022-03-04T10:42:10Z</time><extensions><speed>1.432031</speed><course>345.702728</course><hAcc>1.384270</hAcc><vAcc>0.826367</vAcc></extensions></trkpt>
      <trkpt lon="-2.247756" lat="53.107081"><ele>132.721146</ele><time>2022-03-04T10:42:11Z</time><extensions><speed>1.296347</speed><course>336.034698</course><hAcc>1.406706</hAcc><vAcc>0.824915</vAcc></extensions></trkpt>
      <trkpt lon="-2.247763" lat="53.107091"><ele>132.698288</ele><time>2022-03-04T10:42:12Z</time><extensions><speed>1.205743</speed><course>335.027191</course><hAcc>1.446201</hAcc><vAcc>0.823139</vAcc></extensions></trkpt>
      <trkpt lon="-2.247767" lat="53.107096"><ele>132.684708</ele><time>2022-03-04T10:42:13Z</time><extensions><speed>0.029364</speed><course>163.912018</course><hAcc>1.472811</hAcc><vAcc>0.821141</vAcc></extensions></trkpt>
      <trkpt lon="-2.247765" lat="53.107094"><ele>132.673767</ele><time>2022-03-04T10:42:14Z</time><extensions><speed>0.468825</speed><course>148.587280</course><hAcc>1.490858</hAcc><vAcc>0.818888</vAcc></extensions></trkpt>
      <trkpt lon="-2.247760" lat="53.107090"><ele>132.663895</ele><time>2022-03-04T10:42:15Z</time><extensions><speed>0.626167</speed><course>140.444885</course><hAcc>1.549768</hAcc><vAcc>0.816548</vAcc></extensions></trkpt>
      <trkpt lon="-2.247752" lat="53.107085"><ele>132.656418</ele><time>2022-03-04T10:42:16Z</time><extensions><speed>0.861363</speed><course>130.447403</course><hAcc>1.596586</hAcc><vAcc>0.814173</vAcc></extensions></trkpt>
      <trkpt lon="-2.247741" lat="53.107081"><ele>132.657150</ele><time>2022-03-04T10:42:17Z</time><extensions><speed>0.944667</speed><course>118.323196</course><hAcc>1.651313</hAcc><vAcc>0.811716</vAcc></extensions></trkpt>
      <trkpt lon="-2.247728" lat="53.107078"><ele>132.656189</ele><time>2022-03-04T10:42:18Z</time><extensions><speed>0.942470</speed><course>99.840675</course><hAcc>1.700741</hAcc><vAcc>0.809134</vAcc></extensions></trkpt>
      <trkpt lon="-2.247714" lat="53.107079"><ele>132.662521</ele><time>2022-03-04T10:42:19Z</time><extensions><speed>1.024107</speed><course>73.847237</course><hAcc>1.738216</hAcc><vAcc>0.806649</vAcc></extensions></trkpt>
      <trkpt lon="-2.247699" lat="53.107082"><ele>132.670624</ele><time>2022-03-04T10:42:20Z</time><extensions><speed>1.088259</speed><course>61.575966</course><hAcc>1.762997</hAcc><vAcc>0.804074</vAcc></extensions></trkpt>
      <trkpt lon="-2.247686" lat="53.107087"><ele>132.680161</ele><time>2022-03-04T10:42:21Z</time><extensions><speed>1.049673</speed><course>53.902176</course><hAcc>1.769935</hAcc><vAcc>0.801129</vAcc></extensions></trkpt>
      <trkpt lon="-2.247674" lat="53.107093"><ele>132.690475</ele><time>2022-03-04T10:42:22Z</time><extensions><speed>1.006011</speed><course>44.651550</course><hAcc>1.767659</hAcc><vAcc>0.798013</vAcc></extensions></trkpt>
      <trkpt lon="-2.247666" lat="53.107100"><ele>132.696594</ele><time>2022-03-04T10:42:23Z</time><extensions><speed>0.919736</speed><course>29.588312</course><hAcc>1.766992</hAcc><vAcc>0.795509</vAcc></extensions></trkpt>
      <trkpt lon="-2.247661" lat="53.107108"><ele>132.699890</ele><time>2022-03-04T10:42:24Z</time><extensions><speed>0.888003</speed><course>12.533414</course><hAcc>1.773578</hAcc><vAcc>0.793203</vAcc></extensions></trkpt>
      <trkpt lon="-2.247660" lat="53.107115"><ele>132.697662</ele><time>2022-03-04T10:42:26Z</time><extensions><speed>0.854563</speed><course>358.770813</course><hAcc>1.792645</hAcc><vAcc>0.791062</vAcc></extensions></trkpt>
      <trkpt lon="-2.247661" lat="53.107123"><ele>132.684799</ele><time>2022-03-04T10:42:27Z</time><extensions><speed>0.766546</speed><course>351.240112</course><hAcc>1.812422</hAcc><vAcc>0.789053</vAcc></extensions></trkpt>
      <trkpt lon="-2.247663" lat="53.107129"><ele>132.690384</ele><time>2022-03-04T10:42:28Z</time><extensions><speed>0.633585</speed><course>340.320862</course><hAcc>1.802549</hAcc><vAcc>0.787288</vAcc></extensions></trkpt>
      <trkpt lon="-2.247666" lat="53.107134"><ele>132.680954</ele><time>2022-03-04T10:42:29Z</time><extensions><speed>0.546425</speed><course>333.804016</course><hAcc>1.810560</hAcc><vAcc>0.785907</vAcc></extensions></trkpt>
      <trkpt lon="-2.247670" lat="53.107138"><ele>132.661346</ele><time>2022-03-04T10:42:30Z</time><extensions><speed>0.464544</speed><course>338.946533</course><hAcc>1.834408</hAcc><vAcc>0.784999</vAcc></extensions></trkpt>
      <trkpt lon="-2.247671" lat="53.107143"><ele>132.633560</ele><time>2022-03-04T10:42:31Z</time><extensions><speed>0.574919</speed><course>355.647736</course><hAcc>1.840310</hAcc><vAcc>0.784700</vAcc></extensions></trkpt>
      <trkpt lon="-2.247671" lat="53.107149"><ele>132.637878</ele><time>2022-03-04T10:42:32Z</time><extensions><speed>0.880687</speed><course>7.710311</course><hAcc>1.819959</hAcc><vAcc>0.785194</vAcc></extensions></trkpt>
      <trkpt lon="-2.247669" lat="53.107160"><ele>132.642166</ele><time>2022-03-04T10:42:33Z</time><extensions><speed>1.310581</speed><course>12.879664</course><hAcc>1.786638</hAcc><vAcc>0.786560</vAcc></extensions></trkpt>
      <trkpt lon="-2.247664" lat="53.107173"><ele>132.645294</ele><time>2022-03-04T10:42:34Z</time><extensions><speed>1.540806</speed><course>14.479951</course><hAcc>1.780035</hAcc><vAcc>0.788660</vAcc></extensions></trkpt>
      <trkpt lon="-2.247660" lat="53.107187"><ele>132.678070</ele><time>2022-03-04T10:42:35Z</time><extensions><speed>1.589455</speed><course>10.283768</course><hAcc>1.767662</hAcc><vAcc>0.791302</vAcc></extensions></trkpt>
      <trkpt lon="-2.247657" lat="53.107202"><ele>132.717438</ele><time>2022-03-04T10:42:36Z</time><extensions><speed>1.790103</speed><course>7.418602</course><hAcc>1.713012</hAcc><vAcc>0.794283</vAcc></extensions></trkpt>
      <trkpt lon="-2.247655" lat="53.107219"><ele>132.766052</ele><time>2022-03-04T10:42:37Z</time><extensions><speed>1.937585</speed><course>0.946783</course><hAcc>1.662308</hAcc><vAcc>0.797461</vAcc></extensions></trkpt>
      <trkpt lon="-2.247656" lat="53.107237"><ele>132.800430</ele><time>2022-03-04T10:42:38Z</time><extensions><speed>2.011872</speed><course>353.252014</course><hAcc>1.623454</hAcc><vAcc>0.800695</vAcc></extensions></trkpt>
      <trkpt lon="-2.247663" lat="53.107256"><ele>132.859390</ele><time>2022-03-04T10:42:39Z</time><extensions><speed>2.055679</speed><course>343.911102</course><hAcc>1.589289</hAcc><vAcc>0.803914</vAcc></extensions></trkpt>
      <trkpt lon="-2.247674" lat="53.107273"><ele>132.916748</ele><time>2022-03-04T10:42:40Z</time><extensions><speed>2.172962</speed><course>336.126709</course><hAcc>1.534237</hAcc><vAcc>0.807050</vAcc></extensions></trkpt>
      <trkpt lon="-2.247688" lat="53.107292"><ele>132.979218</ele><time>2022-03-04T10:42:41Z</time><extensions><speed>2.399752</speed><course>336.273590</course><hAcc>1.468403</hAcc><vAcc>0.810052</vAcc></extensions></trkpt>
      <trkpt lon="-2.247702" lat="53.107311"><ele>133.047440</ele><time>2022-03-04T10:42:42Z</time><extensions><speed>2.172590</speed><course>337.852448</course><hAcc>1.453649</hAcc><vAcc>0.812864</vAcc></extensions></trkpt>
      <trkpt lon="-2.247714" lat="53.107328"><ele>133.109146</ele><time>2022-03-04T10:42:43Z</time><extensions><speed>1.935902</speed><course>334.488678</course><hAcc>1.431593</hAcc><vAcc>0.815448</vAcc></extensions></trkpt>
      <trkpt lon="-2.247728" lat="53.107342"><ele>133.165771</ele><time>2022-03-04T10:42:44Z</time><extensions><speed>1.891040</speed><course>331.244019</course><hAcc>1.390479</hAcc><vAcc>0.817786</vAcc></extensions></trkpt>
      <trkpt lon="-2.247740" lat="53.107356"><ele>133.210342</ele><time>2022-03-04T10:42:45Z</time><extensions><speed>1.716805</speed><course>334.716064</course><hAcc>1.377637</hAcc><vAcc>0.819855</vAcc></extensions></trkpt>
      <trkpt lon="-2.247750" lat="53.107370"><ele>133.245682</ele><time>2022-03-04T10:42:46Z</time><extensions><speed>1.683030</speed><course>341.928955</course><hAcc>1.354959</hAcc><vAcc>0.821651</vAcc></extensions></trkpt>
      <trkpt lon="-2.247757" lat="53.107384"><ele>133.285294</ele><time>2022-03-04T10:42:47Z</time><extensions><speed>1.649557</speed><course>348.046570</course><hAcc>1.329396</hAcc><vAcc>0.823194</vAcc></extensions></trkpt>
      <trkpt lon="-2.247762" lat="53.107398"><ele>133.304993</ele><time>2022-03-04T10:42:48Z</time><extensions><speed>1.641899</speed><course>348.409821</course><hAcc>1.328304</hAcc><vAcc>0.824502</vAcc></extensions></trkpt>
      <trkpt lon="-2.247767" lat="53.107412"><ele>133.323212</ele><time>2022-03-04T10:42:49Z</time><extensions><speed>1.608257</speed><course>345.889465</course><hAcc>1.324347</hAcc><vAcc>0.825603</vAcc></extensions></trkpt>
      <trkpt lon="-2.247773" lat="53.107425"><ele>133.319626</ele><time>2022-03-04T10:42:50Z</time><extensions><speed>1.555899</speed><course>345.013275</course><hAcc>1.314745</hAcc><vAcc>0.826519</vAcc></extensions></trkpt>
      <trkpt lon="-2.247780" lat="53.107438"><ele>133.312347</ele><time>2022-03-04T10:42:51Z</time><extensions><speed>1.500724</speed><course>341.821838</course><hAcc>1.309446</hAcc><vAcc>0.827282</vAcc></extensions></trkpt>
      <trkpt lon="-2.247786" lat="53.107450"><ele>133.299118</ele><time>2022-03-04T10:42:52Z</time><extensions><speed>1.489450</speed><course>339.778046</course><hAcc>1.312253</hAcc><vAcc>0.827903</vAcc></extensions></trkpt>
      <trkpt lon="-2.247793" lat="53.107463"><ele>133.279938</ele><time>2022-03-04T10:42:53Z</time><extensions><speed>1.490347</speed><course>343.448120</course><hAcc>1.315379</hAcc><vAcc>0.828409</vAcc></extensions></trkpt>
      <trkpt lon="-2.247799" lat="53.107475"><ele>133.263809</ele><time>2022-03-04T10:42:54Z</time><extensions><speed>1.513266</speed><course>344.529205</course><hAcc>1.323165</hAcc><vAcc>0.828809</vAcc></extensions></trkpt>
      <trkpt lon="-2.247804" lat="53.107488"><ele>133.241776</ele><time>2022-03-04T10:42:55Z</time><extensions><speed>1.483157</speed><course>346.665100</course><hAcc>1.322752</hAcc><vAcc>0.829132</vAcc></extensions></trkpt>
      <trkpt lon="-2.247809" lat="53.107501"><ele>133.218170</ele><time>2022-03-04T10:42:56Z</time><extensions><speed>1.495863</speed><course>346.027924</course><hAcc>1.330937</hAcc><vAcc>0.829374</vAcc></extensions></trkpt>
      <trkpt lon="-2.247812" lat="53.107513"><ele>133.195007</ele><time>2022-03-04T10:42:57Z</time><extensions><speed>1.455420</speed><course>351.334290</course><hAcc>1.336304</hAcc><vAcc>0.829607</vAcc></extensions></trkpt>
      <trkpt lon="-2.247815" lat="53.107526"><ele>133.156754</ele><time>2022-03-04T10:42:58Z</time><extensions><speed>1.374052</speed><course>351.192505</course><hAcc>1.337182</hAcc><vAcc>0.829760</vAcc></extensions></trkpt>
      <trkpt lon="-2.247817" lat="53.107537"><ele>133.120163</ele><time>2022-03-04T10:42:59Z</time><extensions><speed>1.353436</speed><course>356.480621</course><hAcc>1.346780</hAcc><vAcc>0.829909</vAcc></extensions></trkpt>
      <trkpt lon="-2.247817" lat="53.107549"><ele>133.080399</ele><time>2022-03-04T10:43:00Z</time><extensions><speed>1.360295</speed><course>1.044235</course><hAcc>1.351027</hAcc><vAcc>0.830039</vAcc></extensions></trkpt>
      <trkpt lon="-2.247816" lat="53.107561"><ele>133.033920</ele><time>2022-03-04T10:43:01Z</time><extensions><speed>1.364645</speed><course>4.254766</course><hAcc>1.347306</hAcc><vAcc>0.830156</vAcc></extensions></trkpt>
      <trkpt lon="-2.247814" lat="53.107573"><ele>132.989471</ele><time>2022-03-04T10:43:02Z</time><extensions><speed>1.410584</speed><course>5.943037</course><hAcc>1.351761</hAcc><vAcc>0.830261</vAcc></extensions></trkpt>
      <trkpt lon="-2.247811" lat="53.107585"><ele>132.950638</ele><time>2022-03-04T10:43:03Z</time><extensions><speed>1.474475</speed><course>4.686563</course><hAcc>1.358909</hAcc><vAcc>0.830347</vAcc></extensions></trkpt>
      <trkpt lon="-2.247810" lat="53.107598"><ele>132.897888</ele><time>2022-03-04T10:43:04Z</time><extensions><speed>1.444884</speed><course>5.044089</course><hAcc>1.354008</hAcc><vAcc>0.830426</vAcc></extensions></trkpt>
      <trkpt lon="-2.247808" lat="53.107610"><ele>132.855469</ele><time>2022-03-04T10:43:05Z</time><extensions><speed>1.381025</speed><course>3.772547</course><hAcc>1.341010</hAcc><vAcc>0.830512</vAcc></extensions></trkpt>
      <trkpt lon="-2.247805" lat="53.107622"><ele>132.778442</ele><time>2022-03-04T10:43:06Z</time><extensions><speed>1.466399</speed><course>7.487979</course><hAcc>1.341972</hAcc><vAcc>0.830580</vAcc></extensions></trkpt>
      <trkpt lon="-2.247802" lat="53.107634"><ele>132.718674</ele><time>2022-03-04T10:43:07Z</time><extensions><speed>1.464196</speed><course>9.052058</course><hAcc>1.336419</hAcc><vAcc>0.830634</vAcc></extensions></trkpt>
      <trkpt lon="-2.247799" lat="53.107647"><ele>132.663071</ele><time>2022-03-04T10:43:08Z</time><extensions><speed>1.481697</speed><course>6.440219</course><hAcc>1.339929</hAcc><vAcc>0.830691</vAcc></extensions></trkpt>
      <trkpt lon="-2.247797" lat="53.107660"><ele>132.590485</ele><time>2022-03-04T10:43:09Z</time><extensions><speed>1.448836</speed><course>359.068604</course><hAcc>1.336774</hAcc><vAcc>0.830746</vAcc></extensions></trkpt>
      <trkpt lon="-2.247798" lat="53.107672"><ele>132.536850</ele><time>2022-03-04T10:43:10Z</time><extensions><speed>1.431559</speed><course>355.587128</course><hAcc>1.334309</hAcc><vAcc>0.830785</vAcc></extensions></trkpt>
      <trkpt lon="-2.247799" lat="53.107684"><ele>132.481903</ele><time>2022-03-04T10:43:11Z</time><extensions><speed>1.468852</speed><course>357.837738</course><hAcc>1.338133</hAcc><vAcc>0.830807</vAcc></extensions></trkpt>
      <trkpt lon="-2.247799" lat="53.107697"><ele>132.410751</ele><time>2022-03-04T10:43:12Z</time><extensions><speed>1.399675</speed><course>1.227907</course><hAcc>1.333266</hAcc><vAcc>0.830804</vAcc></extensions></trkpt>
      <trkpt lon="-2.247798" lat="53.107709"><ele>132.341614</ele><time>2022-03-04T10:43:13Z</time><extensions><speed>1.401513</speed><course>0.793017</course><hAcc>1.334400</hAcc><vAcc>0.830776</vAcc></extensions></trkpt>
      <trkpt lon="-2.247798" lat="53.107721"><ele>132.276459</ele><time>2022-03-04T10:43:14Z</time><extensions><speed>1.438288</speed><course>356.157654</course><hAcc>1.337162</hAcc><vAcc>0.830743</vAcc></extensions></trkpt>
      <trkpt lon="-2.247798" lat="53.107733"><ele>132.226959</ele><time>2022-03-04T10:43:15Z</time><extensions><speed>1.312737</speed><course>0.678757</course><hAcc>1.327659</hAcc><vAcc>0.830715</vAcc></extensions></trkpt>
      <trkpt lon="-2.247798" lat="53.107744"><ele>132.185501</ele><time>2022-03-04T10:43:16Z</time><extensions><speed>1.356601</speed><course>359.583160</course><hAcc>1.336306</hAcc><vAcc>0.830680</vAcc></extensions></trkpt>
      <trkpt lon="-2.247798" lat="53.107756"><ele>132.148010</ele><time>2022-03-04T10:43:17Z</time><extensions><speed>1.452067</speed><course>0.041569</course><hAcc>1.338910</hAcc><vAcc>0.830652</vAcc></extensions></trkpt>
      <trkpt lon="-2.247796" lat="53.107768"><ele>132.117905</ele><time>2022-03-04T10:43:18Z</time><extensions><speed>1.415453</speed><course>4.447534</course><hAcc>1.330930</hAcc><vAcc>0.830626</vAcc></extensions></trkpt>
      <trkpt lon="-2.247794" lat="53.107781"><ele>132.082764</ele><time>2022-03-04T10:43:19Z</time><extensions><speed>1.465058</speed><course>3.477338</course><hAcc>1.330499</hAcc><vAcc>0.830595</vAcc></extensions></trkpt>
      <trkpt lon="-2.247793" lat="53.107793"><ele>132.046036</ele><time>2022-03-04T10:43:20Z</time><extensions><speed>1.463300</speed><course>3.554917</course><hAcc>1.331672</hAcc><vAcc>0.830567</vAcc></extensions></trkpt>
      <trkpt lon="-2.247792" lat="53.107806"><ele>132.012894</ele><time>2022-03-04T10:43:21Z</time><extensions><speed>1.408731</speed><course>358.513245</course><hAcc>1.329070</hAcc><vAcc>0.830542</vAcc></extensions></trkpt>
      <trkpt lon="-2.247792" lat="53.107818"><ele>131.987427</ele><time>2022-03-04T10:43:21Z</time><extensions><speed>1.428240</speed><course>359.731873</course><hAcc>1.334747</hAcc><vAcc>0.830523</vAcc></extensions></trkpt>
      <trkpt lon="-2.247791" lat="53.107830"><ele>131.965561</ele><time>2022-03-04T10:43:22Z</time><extensions><speed>1.431459</speed><course>1.470458</course><hAcc>1.336041</hAcc><vAcc>0.830547</vAcc></extensions></trkpt>
      <trkpt lon="-2.247790" lat="53.107843"><ele>131.952560</ele><time>2022-03-04T10:43:23Z</time><extensions><speed>1.406592</speed><course>2.252332</course><hAcc>1.333115</hAcc><vAcc>0.830581</vAcc></extensions></trkpt>
      <trkpt lon="-2.247789" lat="53.107854"><ele>131.953094</ele><time>2022-03-04T10:43:24Z</time><extensions><speed>1.345981</speed><course>2.447974</course><hAcc>1.331830</hAcc><vAcc>0.830619</vAcc></extensions></trkpt>
      <trkpt lon="-2.247788" lat="53.107866"><ele>131.935638</ele><time>2022-03-04T10:43:25Z</time><extensions><speed>1.401187</speed><course>0.926600</course><hAcc>1.340327</hAcc><vAcc>0.830658</vAcc></extensions></trkpt>
      <trkpt lon="-2.247788" lat="53.107878"><ele>131.913254</ele><time>2022-03-04T10:43:26Z</time><extensions><speed>1.464882</speed><course>357.983826</course><hAcc>1.347691</hAcc><vAcc>0.830704</vAcc></extensions></trkpt>
      <trkpt lon="-2.247788" lat="53.107891"><ele>131.913177</ele><time>2022-03-04T10:43:27Z</time><extensions><speed>1.449446</speed><course>359.480865</course><hAcc>1.346197</hAcc><vAcc>0.830749</vAcc></extensions></trkpt>
      <trkpt lon="-2.247788" lat="53.107903"><ele>131.906372</ele><time>2022-03-04T10:43:28Z</time><extensions><speed>1.361781</speed><course>359.698212</course><hAcc>1.337260</hAcc><vAcc>0.830801</vAcc></extensions></trkpt>
      <trkpt lon="-2.247788" lat="53.107915"><ele>131.907440</ele><time>2022-03-04T10:43:29Z</time><extensions><speed>1.377882</speed><course>357.879272</course><hAcc>1.338418</hAcc><vAcc>0.830867</vAcc></extensions></trkpt>
      <trkpt lon="-2.247788" lat="53.107927"><ele>131.903641</ele><time>2022-03-04T10:43:30Z</time><extensions><speed>1.433819</speed><course>357.711823</course><hAcc>1.341451</hAcc><vAcc>0.830926</vAcc></extensions></trkpt>
      <trkpt lon="-2.247790" lat="53.107939"><ele>131.877289</ele><time>2022-03-04T10:43:31Z</time><extensions><speed>1.411920</speed><course>347.970856</course><hAcc>1.333628</hAcc><vAcc>0.830982</vAcc></extensions></trkpt>
      <trkpt lon="-2.247794" lat="53.107951"><ele>131.838379</ele><time>2022-03-04T10:43:32Z</time><extensions><speed>1.498398</speed><course>350.371216</course><hAcc>1.336371</hAcc><vAcc>0.831022</vAcc></extensions></trkpt>
      <trkpt lon="-2.247797" lat="53.107964"><ele>131.822144</ele><time>2022-03-04T10:43:33Z</time><extensions><speed>1.501941</speed><course>348.001801</course><hAcc>1.332570</hAcc><vAcc>0.831049</vAcc></extensions></trkpt>
      <trkpt lon="-2.247800" lat="53.107976"><ele>131.796188</ele><time>2022-03-04T10:43:34Z</time><extensions><speed>1.419240</speed><course>353.269379</course><hAcc>1.325251</hAcc><vAcc>0.831060</vAcc></extensions></trkpt>
      <trkpt lon="-2.247802" lat="53.107989"><ele>131.758972</ele><time>2022-03-04T10:43:35Z</time><extensions><speed>1.533871</speed><course>353.926636</course><hAcc>1.333947</hAcc><vAcc>0.831053</vAcc></extensions></trkpt>
      <trkpt lon="-2.247804" lat="53.108002"><ele>131.724213</ele><time>2022-03-04T10:43:36Z</time><extensions><speed>1.441682</speed><course>355.670959</course><hAcc>1.325662</hAcc><vAcc>0.831026</vAcc></extensions></trkpt>
      <trkpt lon="-2.247804" lat="53.108014"><ele>131.682205</ele><time>2022-03-04T10:43:37Z</time><extensions><speed>1.419108</speed><course>359.498901</course><hAcc>1.326135</hAcc><vAcc>0.830991</vAcc></extensions></trkpt>
      <trkpt lon="-2.247803" lat="53.108026"><ele>131.630539</ele><time>2022-03-04T10:43:38Z</time><extensions><speed>1.407786</speed><course>2.991951</course><hAcc>1.329548</hAcc><vAcc>0.830938</vAcc></extensions></trkpt>
      <trkpt lon="-2.247801" lat="53.108038"><ele>131.580704</ele><time>2022-03-04T10:43:39Z</time><extensions><speed>1.473889</speed><course>4.598351</course><hAcc>1.340785</hAcc><vAcc>0.830872</vAcc></extensions></trkpt>
      <trkpt lon="-2.247800" lat="53.108051"><ele>131.537659</ele><time>2022-03-04T10:43:40Z</time><extensions><speed>1.470036</speed><course>358.362823</course><hAcc>1.344742</hAcc><vAcc>0.830797</vAcc></extensions></trkpt>
      <trkpt lon="-2.247801" lat="53.108063"><ele>131.497574</ele><time>2022-03-04T10:43:41Z</time><extensions><speed>1.234555</speed><course>352.672302</course><hAcc>1.332710</hAcc><vAcc>0.830698</vAcc></extensions></trkpt>
      <trkpt lon="-2.247802" lat="53.108073"><ele>131.445282</ele><time>2022-03-04T10:43:42Z</time><extensions><speed>1.241179</speed><course>352.357178</course><hAcc>1.341367</hAcc><vAcc>0.830606</vAcc></extensions></trkpt>
      <trkpt lon="-2.247804" lat="53.108084"><ele>131.396408</ele><time>2022-03-04T10:43:43Z</time><extensions><speed>1.381649</speed><course>353.244202</course><hAcc>1.355000</hAcc><vAcc>0.830515</vAcc></extensions></trkpt>
      <trkpt lon="-2.247805" lat="53.108096"><ele>131.350769</ele><time>2022-03-04T10:43:44Z</time><extensions><speed>1.379991</speed><course>357.317230</course><hAcc>1.353300</hAcc><vAcc>0.830430</vAcc></extensions></trkpt>
      <trkpt lon="-2.247804" lat="53.108108"><ele>131.297485</ele><time>2022-03-04T10:43:45Z</time><extensions><speed>1.434937</speed><course>1.956988</course><hAcc>1.356366</hAcc><vAcc>0.830356</vAcc></extensions></trkpt>
      <trkpt lon="-2.247802" lat="53.108121"><ele>131.248657</ele><time>2022-03-04T10:43:46Z</time><extensions><speed>1.366788</speed><course>5.803687</course><hAcc>1.350809</hAcc><vAcc>0.830282</vAcc></extensions></trkpt>
      <trkpt lon="-2.247799" lat="53.108132"><ele>131.201202</ele><time>2022-03-04T10:43:47Z</time><extensions><speed>1.336908</speed><course>10.027029</course><hAcc>1.344213</hAcc><vAcc>0.830220</vAcc></extensions></trkpt>
      <trkpt lon="-2.247796" lat="53.108143"><ele>131.144043</ele><time>2022-03-04T10:43:48Z</time><extensions><speed>1.312865</speed><course>3.198557</course><hAcc>1.341027</hAcc><vAcc>0.830165</vAcc></extensions></trkpt>
      <trkpt lon="-2.247796" lat="53.108155"><ele>131.081741</ele><time>2022-03-04T10:43:49Z</time><extensions><speed>1.381240</speed><course>357.644531</course><hAcc>1.343944</hAcc><vAcc>0.830182</vAcc></extensions></trkpt>
      <trkpt lon="-2.247796" lat="53.108167"><ele>131.039734</ele><time>2022-03-04T10:43:50Z</time><extensions><speed>1.461515</speed><course>359.706390</course><hAcc>1.348672</hAcc><vAcc>0.830192</vAcc></extensions></trkpt>
      <trkpt lon="-2.247795" lat="53.108180"><ele>130.997910</ele><time>2022-03-04T10:43:51Z</time><extensions><speed>1.466025</speed><course>4.170179</course><hAcc>1.343237</hAcc><vAcc>0.830220</vAcc></extensions></trkpt>
      <trkpt lon="-2.247794" lat="53.108192"><ele>130.953751</ele><time>2022-03-04T10:43:52Z</time><extensions><speed>1.428145</speed><course>357.830658</course><hAcc>1.341616</hAcc><vAcc>0.830263</vAcc></extensions></trkpt>
      <trkpt lon="-2.247794" lat="53.108205"><ele>130.894638</ele><time>2022-03-04T10:43:53Z</time><extensions><speed>1.459992</speed><course>357.772308</course><hAcc>1.341627</hAcc><vAcc>0.830322</vAcc></extensions></trkpt>
      <trkpt lon="-2.247793" lat="53.108217"><ele>130.847473</ele><time>2022-03-04T10:43:54Z</time><extensions><speed>1.428151</speed><course>4.907433</course><hAcc>1.339454</hAcc><vAcc>0.830377</vAcc></extensions></trkpt>
      <trkpt lon="-2.247791" lat="53.108229"><ele>130.818176</ele><time>2022-03-04T10:43:55Z</time><extensions><speed>1.338863</speed><course>3.787981</course><hAcc>1.333237</hAcc><vAcc>0.830457</vAcc></extensions></trkpt>
      <trkpt lon="-2.247790" lat="53.108241"><ele>130.801483</ele><time>2022-03-04T10:43:56Z</time><extensions><speed>1.346442</speed><course>357.657471</course><hAcc>1.338693</hAcc><vAcc>0.830522</vAcc></extensions></trkpt>
      <trkpt lon="-2.247792" lat="53.108252"><ele>130.782806</ele><time>2022-03-04T10:43:57Z</time><extensions><speed>1.341309</speed><course>349.073334</course><hAcc>1.339581</hAcc><vAcc>0.830578</vAcc></extensions></trkpt>
      <trkpt lon="-2.247797" lat="53.108263"><ele>130.773605</ele><time>2022-03-04T10:43:58Z</time><extensions><speed>1.428764</speed><course>341.121216</course><hAcc>1.344084</hAcc><vAcc>0.830614</vAcc></extensions></trkpt>
      <trkpt lon="-2.247803" lat="53.108275"><ele>130.768982</ele><time>2022-03-04T10:43:59Z</time><extensions><speed>1.429315</speed><course>343.121674</course><hAcc>1.347128</hAcc><vAcc>0.830639</vAcc></extensions></trkpt>
      <trkpt lon="-2.247808" lat="53.108287"><ele>130.775909</ele><time>2022-03-04T10:44:00Z</time><extensions><speed>1.383355</speed><course>345.453522</course><hAcc>1.344607</hAcc><vAcc>0.830642</vAcc></extensions></trkpt>
      <trkpt lon="-2.247810" lat="53.108298"><ele>130.786316</ele><time>2022-03-04T10:44:01Z</time><extensions><speed>1.316426</speed><course>353.834686</course><hAcc>1.333739</hAcc><vAcc>0.830618</vAcc></extensions></trkpt>
      <trkpt lon="-2.247811" lat="53.108309"><ele>130.814423</ele><time>2022-03-04T10:44:02Z</time><extensions><speed>1.274263</speed><course>0.295555</course><hAcc>1.326243</hAcc><vAcc>0.830565</vAcc></extensions></trkpt>
      <trkpt lon="-2.247810" lat="53.108320"><ele>130.838028</ele><time>2022-03-04T10:44:03Z</time><extensions><speed>1.204182</speed><course>1.292568</course><hAcc>1.322679</hAcc><vAcc>0.830489</vAcc></extensions></trkpt>
      <trkpt lon="-2.247808" lat="53.108331"><ele>130.853653</ele><time>2022-03-04T10:44:04Z</time><extensions><speed>1.372497</speed><course>5.302477</course><hAcc>1.334105</hAcc><vAcc>0.830392</vAcc></extensions></trkpt>
      <trkpt lon="-2.247807" lat="53.108342"><ele>130.869095</ele><time>2022-03-04T10:44:05Z</time><extensions><speed>1.287442</speed><course>358.654114</course><hAcc>1.326774</hAcc><vAcc>0.830286</vAcc></extensions></trkpt>
      <trkpt lon="-2.247806" lat="53.108353"><ele>130.878479</ele><time>2022-03-04T10:44:06Z</time><extensions><speed>1.365123</speed><course>1.027059</course><hAcc>1.324554</hAcc><vAcc>0.830178</vAcc></extensions></trkpt>
      <trkpt lon="-2.247805" lat="53.108364"><ele>130.875397</ele><time>2022-03-04T10:44:07Z</time><extensions><speed>1.284506</speed><course>5.231958</course><hAcc>1.314744</hAcc><vAcc>0.830064</vAcc></extensions></trkpt>
      <trkpt lon="-2.247804" lat="53.108375"><ele>130.853058</ele><time>2022-03-04T10:44:08Z</time><extensions><speed>1.297060</speed><course>357.228394</course><hAcc>1.312026</hAcc><vAcc>0.829940</vAcc></extensions></trkpt>
      <trkpt lon="-2.247805" lat="53.108386"><ele>130.823761</ele><time>2022-03-04T10:44:09Z</time><extensions><speed>1.377599</speed><course>353.493805</course><hAcc>1.311307</hAcc><vAcc>0.829838</vAcc></extensions></trkpt>
      <trkpt lon="-2.247807" lat="53.108397"><ele>130.771729</ele><time>2022-03-04T10:44:10Z</time><extensions><speed>1.377379</speed><course>355.316406</course><hAcc>1.308859</hAcc><vAcc>0.829751</vAcc></extensions></trkpt>
      <trkpt lon="-2.247807" lat="53.108409"><ele>130.714844</ele><time>2022-03-04T10:44:11Z</time><extensions><speed>1.392706</speed><course>1.150170</course><hAcc>1.309141</hAcc><vAcc>0.829669</vAcc></extensions></trkpt>
      <trkpt lon="-2.247807" lat="53.108421"><ele>130.645630</ele><time>2022-03-04T10:44:12Z</time><extensions><speed>1.414452</speed><course>358.686676</course><hAcc>1.315611</hAcc><vAcc>0.829600</vAcc></extensions></trkpt>
      <trkpt lon="-2.247807" lat="53.108433"><ele>130.572784</ele><time>2022-03-04T10:44:13Z</time><extensions><speed>1.373613</speed><course>358.873260</course><hAcc>1.319000</hAcc><vAcc>0.829549</vAcc></extensions></trkpt>
      <trkpt lon="-2.247808" lat="53.108445"><ele>130.508301</ele><time>2022-03-04T10:44:14Z</time><extensions><speed>1.334933</speed><course>351.957184</course><hAcc>1.321745</hAcc><vAcc>0.829530</vAcc></extensions></trkpt>
      <trkpt lon="-2.247810" lat="53.108456"><ele>130.421112</ele><time>2022-03-04T10:44:15Z</time><extensions><speed>1.334762</speed><course>348.141968</course><hAcc>1.329150</hAcc><vAcc>0.829528</vAcc></extensions></trkpt>
      <trkpt lon="-2.247815" lat="53.108467"><ele>130.337982</ele><time>2022-03-04T10:44:16Z</time><extensions><speed>1.253368</speed><course>341.545319</course><hAcc>1.332571</hAcc><vAcc>0.829551</vAcc></extensions></trkpt>
      <trkpt lon="-2.247820" lat="53.108476"><ele>130.251358</ele><time>2022-03-04T10:44:17Z</time><extensions><speed>1.167923</speed><course>340.721680</course><hAcc>1.332300</hAcc><vAcc>0.829597</vAcc></extensions></trkpt>
      <trkpt lon="-2.247824" lat="53.108485"><ele>130.153854</ele><time>2022-03-04T10:44:18Z</time><extensions><speed>0.995508</speed><course>347.058502</course><hAcc>1.320672</hAcc><vAcc>0.829637</vAcc></extensions></trkpt>
      <trkpt lon="-2.247827" lat="53.108494"><ele>130.046432</ele><time>2022-03-04T10:44:19Z</time><extensions><speed>1.154272</speed><course>347.267395</course><hAcc>1.342571</hAcc><vAcc>0.829678</vAcc></extensions></trkpt>
      <trkpt lon="-2.247831" lat="53.108504"><ele>129.920074</ele><time>2022-03-04T10:44:20Z</time><extensions><speed>1.284384</speed><course>348.742493</course><hAcc>1.345194</hAcc><vAcc>0.829661</vAcc></extensions></trkpt>
      <trkpt lon="-2.247834" lat="53.108515"><ele>129.794067</ele><time>2022-03-04T10:44:21Z</time><extensions><speed>1.350409</speed><course>351.857697</course><hAcc>1.345128</hAcc><vAcc>0.829656</vAcc></extensions></trkpt>
      <trkpt lon="-2.247835" lat="53.108527"><ele>129.650391</ele><time>2022-03-04T10:44:22Z</time><extensions><speed>1.441487</speed><course>358.750641</course><hAcc>1.350818</hAcc><vAcc>0.829653</vAcc></extensions></trkpt>
      <trkpt lon="-2.247835" lat="53.108539"><ele>129.509964</ele><time>2022-03-04T10:44:23Z</time><extensions><speed>1.293564</speed><course>1.331023</course><hAcc>1.343520</hAcc><vAcc>0.829545</vAcc></extensions></trkpt>
      <trkpt lon="-2.247834" lat="53.108551"><ele>129.370102</ele><time>2022-03-04T10:44:24Z</time><extensions><speed>1.332082</speed><course>4.447056</course><hAcc>1.357353</hAcc><vAcc>0.829325</vAcc></extensions></trkpt>
      <trkpt lon="-2.247832" lat="53.108563"><ele>129.229782</ele><time>2022-03-04T10:44:25Z</time><extensions><speed>1.332517</speed><course>6.757193</course><hAcc>1.368007</hAcc><vAcc>0.829116</vAcc></extensions></trkpt>
      <trkpt lon="-2.247830" lat="53.108574"><ele>129.079147</ele><time>2022-03-04T10:44:26Z</time><extensions><speed>1.200955</speed><course>3.305057</course><hAcc>1.378908</hAcc><vAcc>0.828843</vAcc></extensions></trkpt>
      <trkpt lon="-2.247830" lat="53.108585"><ele>128.935638</ele><time>2022-03-04T10:44:27Z</time><extensions><speed>1.283613</speed><course>356.010437</course><hAcc>1.416601</hAcc><vAcc>0.828482</vAcc></extensions></trkpt>
      <trkpt lon="-2.247831" lat="53.108595"><ele>128.792755</ele><time>2022-03-04T10:44:28Z</time><extensions><speed>0.845862</speed><course>359.266388</course><hAcc>1.432836</hAcc><vAcc>0.828085</vAcc></extensions></trkpt>
      <trkpt lon="-2.247830" lat="53.108601"><ele>128.638672</ele><time>2022-03-04T10:44:29Z</time><extensions><speed>0.619405</speed><course>6.773838</course><hAcc>1.484551</hAcc><vAcc>0.827674</vAcc></extensions></trkpt>
      <trkpt lon="-2.247828" lat="53.108606"><ele>128.489426</ele><time>2022-03-04T10:44:30Z</time><extensions><speed>0.468969</speed><course>22.998327</course><hAcc>1.468306</hAcc><vAcc>0.827265</vAcc></extensions></trkpt>
      <trkpt lon="-2.247825" lat="53.108610"><ele>128.340225</ele><time>2022-03-04T10:44:32Z</time><extensions><speed>0.513613</speed><course>20.299574</course><hAcc>1.503742</hAcc><vAcc>0.826825</vAcc></extensions></trkpt>
      <trkpt lon="-2.247823" lat="53.108615"><ele>128.196640</ele><time>2022-03-04T10:44:33Z</time><extensions><speed>0.581094</speed><course>15.103135</course><hAcc>1.538561</hAcc><vAcc>0.826438</vAcc></extensions></trkpt>
      <trkpt lon="-2.247820" lat="53.108620"><ele>128.072968</ele><time>2022-03-04T10:44:34Z</time><extensions><speed>0.632675</speed><course>10.350623</course><hAcc>1.538314</hAcc><vAcc>0.826113</vAcc></extensions></trkpt>
      <trkpt lon="-2.247819" lat="53.108627"><ele>127.929375</ele><time>2022-03-04T10:44:35Z</time><extensions><speed>0.810516</speed><course>4.311604</course><hAcc>1.547441</hAcc><vAcc>0.825859</vAcc></extensions></trkpt>
      <trkpt lon="-2.247818" lat="53.108635"><ele>127.805397</ele><time>2022-03-04T10:44:36Z</time><extensions><speed>1.065225</speed><course>359.457336</course><hAcc>1.599014</hAcc><vAcc>0.825631</vAcc></extensions></trkpt>
      <trkpt lon="-2.247819" lat="53.108645"><ele>127.698364</ele><time>2022-03-04T10:44:37Z</time><extensions><speed>1.071133</speed><course>356.987091</course><hAcc>1.625000</hAcc><vAcc>0.825465</vAcc></extensions></trkpt>
      <trkpt lon="-2.247819" lat="53.108655"><ele>127.611374</ele><time>2022-03-04T10:44:38Z</time><extensions><speed>1.139307</speed><course>359.287415</course><hAcc>1.559263</hAcc><vAcc>0.825369</vAcc></extensions></trkpt>
      <trkpt lon="-2.247819" lat="53.108666"><ele>127.532486</ele><time>2022-03-04T10:44:39Z</time><extensions><speed>1.238195</speed><course>0.419791</course><hAcc>1.535640</hAcc><vAcc>0.825298</vAcc></extensions></trkpt>
      <trkpt lon="-2.247819" lat="53.108677"><ele>127.462952</ele><time>2022-03-04T10:44:40Z</time><extensions><speed>1.239931</speed><course>359.249054</course><hAcc>1.552554</hAcc><vAcc>0.825265</vAcc></extensions></trkpt>
      <trkpt lon="-2.247820" lat="53.108688"><ele>127.404160</ele><time>2022-03-04T10:44:41Z</time><extensions><speed>1.221085</speed><course>0.074382</course><hAcc>1.569365</hAcc><vAcc>0.825235</vAcc></extensions></trkpt>
      <trkpt lon="-2.247819" lat="53.108699"><ele>127.352074</ele><time>2022-03-04T10:44:42Z</time><extensions><speed>1.250464</speed><course>3.196758</course><hAcc>1.551203</hAcc><vAcc>0.825206</vAcc></extensions></trkpt>
      <trkpt lon="-2.247818" lat="53.108710"><ele>127.299850</ele><time>2022-03-04T10:44:43Z</time><extensions><speed>1.232650</speed><course>3.587950</course><hAcc>1.576353</hAcc><vAcc>0.825187</vAcc></extensions></trkpt>
      <trkpt lon="-2.247817" lat="53.108721"><ele>127.263962</ele><time>2022-03-04T10:44:44Z</time><extensions><speed>1.250218</speed><course>3.498997</course><hAcc>1.601221</hAcc><vAcc>0.825177</vAcc></extensions></trkpt>
      <trkpt lon="-2.247817" lat="53.108733"><ele>127.228271</ele><time>2022-03-04T10:44:45Z</time><extensions><speed>1.301430</speed><course>359.441559</course><hAcc>1.592638</hAcc><vAcc>0.825183</vAcc></extensions></trkpt>
      <trkpt lon="-2.247818" lat="53.108745"><ele>127.218002</ele><time>2022-03-04T10:44:46Z</time><extensions><speed>1.374164</speed><course>355.580841</course><hAcc>1.565076</hAcc><vAcc>0.825267</vAcc></extensions></trkpt>
      <trkpt lon="-2.247820" lat="53.108757"><ele>127.208138</ele><time>2022-03-04T10:44:47Z</time><extensions><speed>1.366203</speed><course>353.211426</course><hAcc>1.575021</hAcc><vAcc>0.825379</vAcc></extensions></trkpt>
      <trkpt lon="-2.247822" lat="53.108769"><ele>127.216797</ele><time>2022-03-04T10:44:48Z</time><extensions><speed>1.337636</speed><course>353.198700</course><hAcc>1.597016</hAcc><vAcc>0.825542</vAcc></extensions></trkpt>
      <trkpt lon="-2.247824" lat="53.108781"><ele>127.231392</ele><time>2022-03-04T10:44:49Z</time><extensions><speed>1.303984</speed><course>353.708160</course><hAcc>1.597886</hAcc><vAcc>0.825749</vAcc></extensions></trkpt>
      <trkpt lon="-2.247827" lat="53.108793"><ele>127.250961</ele><time>2022-03-04T10:44:50Z</time><extensions><speed>1.256811</speed><course>353.891968</course><hAcc>1.602287</hAcc><vAcc>0.826030</vAcc></extensions></trkpt>
      <trkpt lon="-2.247829" lat="53.108804"><ele>127.264854</ele><time>2022-03-04T10:44:51Z</time><extensions><speed>1.254034</speed><course>351.316742</course><hAcc>1.566424</hAcc><vAcc>0.826382</vAcc></extensions></trkpt>
      <trkpt lon="-2.247832" lat="53.108815"><ele>127.288078</ele><time>2022-03-04T10:44:52Z</time><extensions><speed>1.289335</speed><course>352.401733</course><hAcc>1.518758</hAcc><vAcc>0.826789</vAcc></extensions></trkpt>
      <trkpt lon="-2.247834" lat="53.108827"><ele>127.320168</ele><time>2022-03-04T10:44:53Z</time><extensions><speed>1.412075</speed><course>354.538605</course><hAcc>1.476017</hAcc><vAcc>0.827226</vAcc></extensions></trkpt>
      <trkpt lon="-2.247836" lat="53.108840"><ele>127.364555</ele><time>2022-03-04T10:44:54Z</time><extensions><speed>1.537342</speed><course>357.837982</course><hAcc>1.470280</hAcc><vAcc>0.827722</vAcc></extensions></trkpt>
      <trkpt lon="-2.247837" lat="53.108854"><ele>127.406990</ele><time>2022-03-04T10:44:55Z</time><extensions><speed>1.597106</speed><course>358.764954</course><hAcc>1.443427</hAcc><vAcc>0.828223</vAcc></extensions></trkpt>
      <trkpt lon="-2.247837" lat="53.108868"><ele>127.444695</ele><time>2022-03-04T10:44:56Z</time><extensions><speed>1.618216</speed><course>0.366748</course><hAcc>1.419496</hAcc><vAcc>0.828703</vAcc></extensions></trkpt>
      <trkpt lon="-2.247836" lat="53.108882"><ele>127.491623</ele><time>2022-03-04T10:44:57Z</time><extensions><speed>1.621122</speed><course>0.399251</course><hAcc>1.388351</hAcc><vAcc>0.829148</vAcc></extensions></trkpt>
      <trkpt lon="-2.247836" lat="53.108897"><ele>127.549492</ele><time>2022-03-04T10:44:58Z</time><extensions><speed>1.604640</speed><course>0.370433</course><hAcc>1.365764</hAcc><vAcc>0.829540</vAcc></extensions></trkpt>
      <trkpt lon="-2.247836" lat="53.108911"><ele>127.597984</ele><time>2022-03-04T10:44:59Z</time><extensions><speed>1.598832</speed><course>1.026080</course><hAcc>1.358238</hAcc><vAcc>0.829885</vAcc></extensions></trkpt>
      <trkpt lon="-2.247836" lat="53.108925"><ele>127.640320</ele><time>2022-03-04T10:45:00Z</time><extensions><speed>1.588994</speed><course>359.236389</course><hAcc>1.348540</hAcc><vAcc>0.830176</vAcc></extensions></trkpt>
      <trkpt lon="-2.247836" lat="53.108938"><ele>127.685112</ele><time>2022-03-04T10:45:01Z</time><extensions><speed>1.574155</speed><course>357.943512</course><hAcc>1.338748</hAcc><vAcc>0.830422</vAcc></extensions></trkpt>
      <trkpt lon="-2.247837" lat="53.108952"><ele>127.729065</ele><time>2022-03-04T10:45:02Z</time><extensions><speed>1.516732</speed><course>357.180847</course><hAcc>1.327196</hAcc><vAcc>0.830625</vAcc></extensions></trkpt>
      <trkpt lon="-2.247839" lat="53.108965"><ele>127.768112</ele><time>2022-03-04T10:45:03Z</time><extensions><speed>1.498656</speed><course>356.750977</course><hAcc>1.330791</hAcc><vAcc>0.830783</vAcc></extensions></trkpt>
      <trkpt lon="-2.247841" lat="53.108978"><ele>127.806953</ele><time>2022-03-04T10:45:04Z</time><extensions><speed>1.505587</speed><course>354.460602</course><hAcc>1.334908</hAcc><vAcc>0.830895</vAcc></extensions></trkpt>
      <trkpt lon="-2.247842" lat="53.108991"><ele>127.843018</ele><time>2022-03-04T10:45:05Z</time><extensions><speed>1.491925</speed><course>356.509552</course><hAcc>1.333757</hAcc><vAcc>0.830972</vAcc></extensions></trkpt>
      <trkpt lon="-2.247843" lat="53.109003"><ele>127.879272</ele><time>2022-03-04T10:45:06Z</time><extensions><speed>1.369016</speed><course>0.542586</course><hAcc>1.323739</hAcc><vAcc>0.831037</vAcc></extensions></trkpt>
      <trkpt lon="-2.247842" lat="53.109015"><ele>127.905907</ele><time>2022-03-04T10:45:07Z</time><extensions><speed>1.337421</speed><course>3.485289</course><hAcc>1.319800</hAcc><vAcc>0.831076</vAcc></extensions></trkpt>
      <trkpt lon="-2.247841" lat="53.109027"><ele>127.938995</ele><time>2022-03-04T10:45:08Z</time><extensions><speed>1.416633</speed><course>3.363944</course><hAcc>1.327181</hAcc><vAcc>0.831102</vAcc></extensions></trkpt>
      <trkpt lon="-2.247841" lat="53.109039"><ele>127.971825</ele><time>2022-03-04T10:45:09Z</time><extensions><speed>1.463049</speed><course>0.495663</course><hAcc>1.328514</hAcc><vAcc>0.831117</vAcc></extensions></trkpt>
      <trkpt lon="-2.247841" lat="53.109052"><ele>128.002945</ele><time>2022-03-04T10:45:10Z</time><extensions><speed>1.456337</speed><course>357.930695</course><hAcc>1.327030</hAcc><vAcc>0.831133</vAcc></extensions></trkpt>
      <trkpt lon="-2.247842" lat="53.109064"><ele>128.026886</ele><time>2022-03-04T10:45:11Z</time><extensions><speed>1.442169</speed><course>358.732086</course><hAcc>1.322139</hAcc><vAcc>0.831153</vAcc></extensions></trkpt>
      <trkpt lon="-2.247842" lat="53.109076"><ele>128.049561</ele><time>2022-03-04T10:45:12Z</time><extensions><speed>1.339196</speed><course>0.089282</course><hAcc>1.311796</hAcc><vAcc>0.831177</vAcc></extensions></trkpt>
      <trkpt lon="-2.247842" lat="53.109087"><ele>128.074127</ele><time>2022-03-04T10:45:13Z</time><extensions><speed>1.327379</speed><course>359.804810</course><hAcc>1.311549</hAcc><vAcc>0.831208</vAcc></extensions></trkpt>
      <trkpt lon="-2.247843" lat="53.109099"><ele>128.084671</ele><time>2022-03-04T10:45:14Z</time><extensions><speed>1.399362</speed><course>357.409119</course><hAcc>1.318431</hAcc><vAcc>0.831243</vAcc></extensions></trkpt>
      <trkpt lon="-2.247843" lat="53.109111"><ele>128.090775</ele><time>2022-03-04T10:45:15Z</time><extensions><speed>1.398041</speed><course>0.047294</course><hAcc>1.318095</hAcc><vAcc>0.831298</vAcc></extensions></trkpt>
      <trkpt lon="-2.247843" lat="53.109123"><ele>128.088791</ele><time>2022-03-04T10:45:16Z</time><extensions><speed>1.396795</speed><course>359.173981</course><hAcc>1.312995</hAcc><vAcc>0.831350</vAcc></extensions></trkpt>
      <trkpt lon="-2.247844" lat="53.109135"><ele>128.091446</ele><time>2022-03-04T10:45:17Z</time><extensions><speed>1.336414</speed><course>355.342865</course><hAcc>1.307901</hAcc><vAcc>0.831411</vAcc></extensions></trkpt>
      <trkpt lon="-2.247846" lat="53.109146"><ele>128.093307</ele><time>2022-03-04T10:45:18Z</time><extensions><speed>1.326038</speed><course>352.854401</course><hAcc>1.306835</hAcc><vAcc>0.831471</vAcc></extensions></trkpt>
      <trkpt lon="-2.247849" lat="53.109158"><ele>128.093430</ele><time>2022-03-04T10:45:19Z</time><extensions><speed>1.402408</speed><course>356.272247</course><hAcc>1.315542</hAcc><vAcc>0.831538</vAcc></extensions></trkpt>
      <trkpt lon="-2.247849" lat="53.109170"><ele>128.086868</ele><time>2022-03-04T10:45:20Z</time><extensions><speed>1.413625</speed><course>359.543518</course><hAcc>1.316406</hAcc><vAcc>0.831627</vAcc></extensions></trkpt>
      <trkpt lon="-2.247849" lat="53.109183"><ele>128.058929</ele><time>2022-03-04T10:45:21Z</time><extensions><speed>1.451192</speed><course>0.751752</course><hAcc>1.319570</hAcc><vAcc>0.831686</vAcc></extensions></trkpt>
      <trkpt lon="-2.247850" lat="53.109195"><ele>128.023514</ele><time>2022-03-04T10:45:22Z</time><extensions><speed>1.425289</speed><course>358.045410</course><hAcc>1.319967</hAcc><vAcc>0.831751</vAcc></extensions></trkpt>
      <trkpt lon="-2.247850" lat="53.109207"><ele>127.987251</ele><time>2022-03-04T10:45:23Z</time><extensions><speed>1.319997</speed><course>1.408036</course><hAcc>1.314487</hAcc><vAcc>0.831813</vAcc></extensions></trkpt>
      <trkpt lon="-2.247849" lat="53.109218"><ele>127.958916</ele><time>2022-03-04T10:45:24Z</time><extensions><speed>1.349924</speed><course>0.724211</course><hAcc>1.320570</hAcc><vAcc>0.831864</vAcc></extensions></trkpt>
      <trkpt lon="-2.247849" lat="53.109230"><ele>127.931633</ele><time>2022-03-04T10:45:25Z</time><extensions><speed>1.370769</speed><course>359.733978</course><hAcc>1.325317</hAcc><vAcc>0.831939</vAcc></extensions></trkpt>
      <trkpt lon="-2.247850" lat="53.109242"><ele>127.896568</ele><time>2022-03-04T10:45:25Z</time><extensions><speed>1.359201</speed><course>358.584473</course><hAcc>1.324923</hAcc><vAcc>0.832005</vAcc></extensions></trkpt>
      <trkpt lon="-2.247850" lat="53.109254"><ele>127.862167</ele><time>2022-03-04T10:45:26Z</time><extensions><speed>1.363419</speed><course>357.325439</course><hAcc>1.322786</hAcc><vAcc>0.832060</vAcc></extensions></trkpt>
      <trkpt lon="-2.247851" lat="53.109266"><ele>127.821991</ele><time>2022-03-04T10:45:27Z</time><extensions><speed>1.411133</speed><course>358.890106</course><hAcc>1.327690</hAcc><vAcc>0.832103</vAcc></extensions></trkpt>
      <trkpt lon="-2.247851" lat="53.109278"><ele>127.783165</ele><time>2022-03-04T10:45:28Z</time><extensions><speed>1.442421</speed><course>356.569061</course><hAcc>1.331465</hAcc><vAcc>0.832137</vAcc></extensions></trkpt>
      <trkpt lon="-2.247853" lat="53.109291"><ele>127.763344</ele><time>2022-03-04T10:45:29Z</time><extensions><speed>1.443315</speed><course>355.735077</course><hAcc>1.330889</hAcc><vAcc>0.832154</vAcc></extensions></trkpt>
      <trkpt lon="-2.247854" lat="53.109303"><ele>127.752869</ele><time>2022-03-04T10:45:30Z</time><extensions><speed>1.293132</speed><course>357.837677</course><hAcc>1.322849</hAcc><vAcc>0.832149</vAcc></extensions></trkpt>
      <trkpt lon="-2.247854" lat="53.109314"><ele>127.744392</ele><time>2022-03-04T10:45:31Z</time><extensions><speed>1.343281</speed><course>359.859192</course><hAcc>1.324498</hAcc><vAcc>0.832105</vAcc></extensions></trkpt>
      <trkpt lon="-2.247854" lat="53.109325"><ele>127.740028</ele><time>2022-03-04T10:45:32Z</time><extensions><speed>1.274957</speed><course>359.899841</course><hAcc>1.309857</hAcc><vAcc>0.832041</vAcc></extensions></trkpt>
      <trkpt lon="-2.247854" lat="53.109336"><ele>127.745979</ele><time>2022-03-04T10:45:33Z</time><extensions><speed>1.403712</speed><course>357.268188</course><hAcc>1.320520</hAcc><vAcc>0.831972</vAcc></extensions></trkpt>
      <trkpt lon="-2.247855" lat="53.109349"><ele>127.759872</ele><time>2022-03-04T10:45:34Z</time><extensions><speed>1.540352</speed><course>355.812683</course><hAcc>1.328995</hAcc><vAcc>0.831897</vAcc></extensions></trkpt>
      <trkpt lon="-2.247856" lat="53.109362"><ele>127.785019</ele><time>2022-03-04T10:45:35Z</time><extensions><speed>1.466352</speed><course>358.943298</course><hAcc>1.317376</hAcc><vAcc>0.831809</vAcc></extensions></trkpt>
      <trkpt lon="-2.247855" lat="53.109374"><ele>127.801979</ele><time>2022-03-04T10:45:36Z</time><extensions><speed>1.370343</speed><course>3.289271</course><hAcc>1.307612</hAcc><vAcc>0.831716</vAcc></extensions></trkpt>
      <trkpt lon="-2.247852" lat="53.109386"><ele>127.825867</ele><time>2022-03-04T10:45:37Z</time><extensions><speed>1.418604</speed><course>9.642416</course><hAcc>1.307685</hAcc><vAcc>0.831615</vAcc></extensions></trkpt>
      <trkpt lon="-2.247849" lat="53.109397"><ele>127.859406</ele><time>2022-03-04T10:45:38Z</time><extensions><speed>1.367533</speed><course>10.185995</course><hAcc>1.304725</hAcc><vAcc>0.831503</vAcc></extensions></trkpt>
      <trkpt lon="-2.247846" lat="53.109409"><ele>127.896759</ele><time>2022-03-04T10:45:39Z</time><extensions><speed>1.412046</speed><course>6.521395</course><hAcc>1.313655</hAcc><vAcc>0.831409</vAcc></extensions></trkpt>
      <trkpt lon="-2.247843" lat="53.109421"><ele>127.938858</ele><time>2022-03-04T10:45:40Z</time><extensions><speed>1.365029</speed><course>6.150162</course><hAcc>1.311868</hAcc><vAcc>0.831329</vAcc></extensions></trkpt>
      <trkpt lon="-2.247841" lat="53.109432"><ele>127.980667</ele><time>2022-03-04T10:45:41Z</time><extensions><speed>1.318724</speed><course>7.255271</course><hAcc>1.313399</hAcc><vAcc>0.831264</vAcc></extensions></trkpt>
      <trkpt lon="-2.247838" lat="53.109443"><ele>128.023438</ele><time>2022-03-04T10:45:42Z</time><extensions><speed>1.257251</speed><course>7.885275</course><hAcc>1.307961</hAcc><vAcc>0.831223</vAcc></extensions></trkpt>
      <trkpt lon="-2.247835" lat="53.109454"><ele>128.051468</ele><time>2022-03-04T10:45:43Z</time><extensions><speed>1.343444</speed><course>6.985423</course><hAcc>1.316222</hAcc><vAcc>0.831198</vAcc></extensions></trkpt>
      <trkpt lon="-2.247832" lat="53.109466"><ele>128.068893</ele><time>2022-03-04T10:45:44Z</time><extensions><speed>1.332767</speed><course>8.354240</course><hAcc>1.315219</hAcc><vAcc>0.831190</vAcc></extensions></trkpt>
      <trkpt lon="-2.247830" lat="53.109477"><ele>128.072769</ele><time>2022-03-04T10:45:45Z</time><extensions><speed>1.309353</speed><course>7.367176</course><hAcc>1.316630</hAcc><vAcc>0.831203</vAcc></extensions></trkpt>
      <trkpt lon="-2.247827" lat="53.109488"><ele>128.062393</ele><time>2022-03-04T10:45:46Z</time><extensions><speed>1.313012</speed><course>7.664254</course><hAcc>1.318898</hAcc><vAcc>0.831215</vAcc></extensions></trkpt>
      <trkpt lon="-2.247824" lat="53.109500"><ele>128.039551</ele><time>2022-03-04T10:45:47Z</time><extensions><speed>1.406210</speed><course>7.648292</course><hAcc>1.327515</hAcc><vAcc>0.831238</vAcc></extensions></trkpt>
      <trkpt lon="-2.247822" lat="53.109511"><ele>128.020187</ele><time>2022-03-04T10:45:48Z</time><extensions><speed>1.328830</speed><course>5.609705</course><hAcc>1.321781</hAcc><vAcc>0.831263</vAcc></extensions></trkpt>
      <trkpt lon="-2.247820" lat="53.109523"><ele>127.996193</ele><time>2022-03-04T10:45:49Z</time><extensions><speed>1.414730</speed><course>4.820865</course><hAcc>1.328632</hAcc><vAcc>0.831302</vAcc></extensions></trkpt>
      <trkpt lon="-2.247818" lat="53.109535"><ele>127.958351</ele><time>2022-03-04T10:45:50Z</time><extensions><speed>1.403694</speed><course>8.503139</course><hAcc>1.329444</hAcc><vAcc>0.831317</vAcc></extensions></trkpt>
      <trkpt lon="-2.247814" lat="53.109546"><ele>127.919350</ele><time>2022-03-04T10:45:51Z</time><extensions><speed>1.399122</speed><course>12.116833</course><hAcc>1.330862</hAcc><vAcc>0.831315</vAcc></extensions></trkpt>
      <trkpt lon="-2.247809" lat="53.109558"><ele>127.888069</ele><time>2022-03-04T10:45:52Z</time><extensions><speed>1.317742</speed><course>15.467879</course><hAcc>1.325933</hAcc><vAcc>0.831304</vAcc></extensions></trkpt>
      <trkpt lon="-2.247803" lat="53.109569"><ele>127.861641</ele><time>2022-03-04T10:45:53Z</time><extensions><speed>1.393372</speed><course>18.538700</course><hAcc>1.336282</hAcc><vAcc>0.831271</vAcc></extensions></trkpt>
      <trkpt lon="-2.247797" lat="53.109579"><ele>127.855492</ele><time>2022-03-04T10:45:54Z</time><extensions><speed>1.303515</speed><course>20.046085</course><hAcc>1.331920</hAcc><vAcc>0.831212</vAcc></extensions></trkpt>
      <trkpt lon="-2.247791" lat="53.109590"><ele>127.881462</ele><time>2022-03-04T10:45:55Z</time><extensions><speed>1.395063</speed><course>18.647308</course><hAcc>1.343678</hAcc><vAcc>0.831123</vAcc></extensions></trkpt>
      <trkpt lon="-2.247785" lat="53.109600"><ele>127.959518</ele><time>2022-03-04T10:45:56Z</time><extensions><speed>1.215494</speed><course>18.269510</course><hAcc>1.333724</hAcc><vAcc>0.830982</vAcc></extensions></trkpt>
      <trkpt lon="-2.247780" lat="53.109610"><ele>128.061646</ele><time>2022-03-04T10:45:57Z</time><extensions><speed>1.240195</speed><course>21.357649</course><hAcc>1.337974</hAcc><vAcc>0.830788</vAcc></extensions></trkpt>
      <trkpt lon="-2.247773" lat="53.109620"><ele>128.147552</ele><time>2022-03-04T10:45:58Z</time><extensions><speed>1.347525</speed><course>22.006033</course><hAcc>1.348696</hAcc><vAcc>0.830574</vAcc></extensions></trkpt>
      <trkpt lon="-2.247765" lat="53.109629"><ele>128.247894</ele><time>2022-03-04T10:45:59Z</time><extensions><speed>1.196346</speed><course>31.003309</course><hAcc>1.343189</hAcc><vAcc>0.830336</vAcc></extensions></trkpt>
      <trkpt lon="-2.247755" lat="53.109638"><ele>128.362061</ele><time>2022-03-04T10:46:00Z</time><extensions><speed>1.362906</speed><course>37.920620</course><hAcc>1.364184</hAcc><vAcc>0.830086</vAcc></extensions></trkpt>
      <trkpt lon="-2.247742" lat="53.109647"><ele>128.488785</ele><time>2022-03-04T10:46:01Z</time><extensions><speed>1.214988</speed><course>47.189392</course><hAcc>1.359905</hAcc><vAcc>0.829827</vAcc></extensions></trkpt>
      <trkpt lon="-2.247730" lat="53.109653"><ele>128.582703</ele><time>2022-03-04T10:46:02Z</time><extensions><speed>0.976955</speed><course>46.180721</course><hAcc>1.364048</hAcc><vAcc>0.829545</vAcc></extensions></trkpt>
      <trkpt lon="-2.247720" lat="53.109661"><ele>128.673264</ele><time>2022-03-04T10:46:03Z</time><extensions><speed>1.145442</speed><course>30.880018</course><hAcc>1.413487</hAcc><vAcc>0.829236</vAcc></extensions></trkpt>
      <trkpt lon="-2.247714" lat="53.109669"><ele>128.761856</ele><time>2022-03-04T10:46:04Z</time><extensions><speed>1.028167</speed><course>19.238518</course><hAcc>1.437348</hAcc><vAcc>0.828900</vAcc></extensions></trkpt>
      <trkpt lon="-2.247711" lat="53.109676"><ele>128.851944</ele><time>2022-03-04T10:46:05Z</time><extensions><speed>0.563078</speed><course>0.683427</course><hAcc>1.438409</hAcc><vAcc>0.828609</vAcc></extensions></trkpt>
      <trkpt lon="-2.247712" lat="53.109679"><ele>128.935867</ele><time>2022-03-04T10:46:06Z</time><extensions><speed>0.223567</speed><course>299.776978</course><hAcc>1.470569</hAcc><vAcc>0.828323</vAcc></extensions></trkpt>
      <trkpt lon="-2.247715" lat="53.109678"><ele>128.995926</ele><time>2022-03-04T10:46:07Z</time><extensions><speed>0.468822</speed><course>210.202347</course><hAcc>1.514579</hAcc><vAcc>0.828012</vAcc></extensions></trkpt>
      <trkpt lon="-2.247719" lat="53.109674"><ele>129.036255</ele><time>2022-03-04T10:46:08Z</time><extensions><speed>0.459019</speed><course>202.229553</course><hAcc>1.584166</hAcc><vAcc>0.827740</vAcc></extensions></trkpt>
      <trkpt lon="-2.247721" lat="53.109670"><ele>129.059555</ele><time>2022-03-04T10:46:09Z</time><extensions><speed>0.516829</speed><course>199.777451</course><hAcc>1.603427</hAcc><vAcc>0.827474</vAcc></extensions></trkpt>
      <trkpt lon="-2.247723" lat="53.109666"><ele>129.061676</ele><time>2022-03-04T10:46:10Z</time><extensions><speed>0.429821</speed><course>198.795013</course><hAcc>1.635769</hAcc><vAcc>0.827160</vAcc></extensions></trkpt>
      <trkpt lon="-2.247725" lat="53.109663"><ele>129.046066</ele><time>2022-03-04T10:46:11Z</time><extensions><speed>0.286925</speed><course>197.947784</course><hAcc>1.674057</hAcc><vAcc>0.826918</vAcc></extensions></trkpt>
      <trkpt lon="-2.247726" lat="53.109662"><ele>129.026947</ele><time>2022-03-04T10:46:12Z</time><extensions><speed>0.126347</speed><course>195.956085</course><hAcc>1.702081</hAcc><vAcc>0.826707</vAcc></extensions></trkpt>
      <trkpt lon="-2.247726" lat="53.109661"><ele>129.001495</ele><time>2022-03-04T10:46:13Z</time><extensions><speed>0.035120</speed><course>36.508942</course><hAcc>1.718822</hAcc><vAcc>0.826493</vAcc></extensions></trkpt>
      <trkpt lon="-2.247725" lat="53.109662"><ele>128.975845</ele><time>2022-03-04T10:46:14Z</time><extensions><speed>0.166848</speed><course>26.374050</course><hAcc>1.729604</hAcc><vAcc>0.826290</vAcc></extensions></trkpt>
      <trkpt lon="-2.247724" lat="53.109664"><ele>128.942917</ele><time>2022-03-04T10:46:15Z</time><extensions><speed>0.260431</speed><course>26.749002</course><hAcc>1.734216</hAcc><vAcc>0.826109</vAcc></extensions></trkpt>
      <trkpt lon="-2.247722" lat="53.109666"><ele>128.899033</ele><time>2022-03-04T10:46:16Z</time><extensions><speed>0.316753</speed><course>27.101776</course><hAcc>1.735592</hAcc><vAcc>0.825947</vAcc></extensions></trkpt>
      <trkpt lon="-2.247719" lat="53.109669"><ele>128.857407</ele><time>2022-03-04T10:46:17Z</time><extensions><speed>0.333928</speed><course>28.662706</course><hAcc>1.737357</hAcc><vAcc>0.825811</vAcc></extensions></trkpt>
      <trkpt lon="-2.247717" lat="53.109671"><ele>128.814163</ele><time>2022-03-04T10:46:18Z</time><extensions><speed>0.314537</speed><course>33.959930</course><hAcc>1.740340</hAcc><vAcc>0.825687</vAcc></extensions></trkpt>
      <trkpt lon="-2.247714" lat="53.109673"><ele>128.772232</ele><time>2022-03-04T10:46:19Z</time><extensions><speed>0.288568</speed><course>44.180981</course><hAcc>1.741243</hAcc><vAcc>0.825606</vAcc></extensions></trkpt>
      <trkpt lon="-2.247711" lat="53.109675"><ele>128.737152</ele><time>2022-03-04T10:46:20Z</time><extensions><speed>0.290295</speed><course>55.672028</course><hAcc>1.738277</hAcc><vAcc>0.825568</vAcc></extensions></trkpt>
      <trkpt lon="-2.247707" lat="53.109676"><ele>128.698532</ele><time>2022-03-04T10:46:21Z</time><extensions><speed>0.296662</speed><course>64.384842</course><hAcc>1.740967</hAcc><vAcc>0.825573</vAcc></extensions></trkpt>
      <trkpt lon="-2.247703" lat="53.109677"><ele>128.662582</ele><time>2022-03-04T10:46:22Z</time><extensions><speed>0.304744</speed><course>70.425171</course><hAcc>1.741905</hAcc><vAcc>0.825605</vAcc></extensions></trkpt>
      <trkpt lon="-2.247698" lat="53.109678"><ele>128.632355</ele><time>2022-03-04T10:46:23Z</time><extensions><speed>0.307059</speed><course>75.414520</course><hAcc>1.738638</hAcc><vAcc>0.825658</vAcc></extensions></trkpt>
      <trkpt lon="-2.247694" lat="53.109679"><ele>128.616791</ele><time>2022-03-04T10:46:24Z</time><extensions><speed>0.290429</speed><course>80.173775</course><hAcc>1.736737</hAcc><vAcc>0.825693</vAcc></extensions></trkpt>
      <trkpt lon="-2.247690" lat="53.109679"><ele>128.603928</ele><time>2022-03-04T10:46:25Z</time><extensions><speed>0.259756</speed><course>84.654488</course><hAcc>1.737118</hAcc><vAcc>0.825734</vAcc></extensions></trkpt>
      <trkpt lon="-2.247686" lat="53.109679"><ele>128.594315</ele><time>2022-03-04T10:46:26Z</time><extensions><speed>0.226821</speed><course>86.696884</course><hAcc>1.737056</hAcc><vAcc>0.825778</vAcc></extensions></trkpt>
      <trkpt lon="-2.247683" lat="53.109679"><ele>128.579758</ele><time>2022-03-04T10:46:27Z</time><extensions><speed>0.192430</speed><course>83.812859</course><hAcc>1.737083</hAcc><vAcc>0.825829</vAcc></extensions></trkpt>
      <trkpt lon="-2.247680" lat="53.109680"><ele>128.573273</ele><time>2022-03-04T10:46:28Z</time><extensions><speed>0.166181</speed><course>75.786636</course><hAcc>1.736742</hAcc><vAcc>0.825874</vAcc></extensions></trkpt>
      <trkpt lon="-2.247678" lat="53.109680"><ele>128.572083</ele><time>2022-03-04T10:46:29Z</time><extensions><speed>0.156929</speed><course>66.137207</course><hAcc>1.737092</hAcc><vAcc>0.825925</vAcc></extensions></trkpt>
      <trkpt lon="-2.247676" lat="53.109681"><ele>128.565140</ele><time>2022-03-04T10:46:30Z</time><extensions><speed>0.170008</speed><course>61.670166</course><hAcc>1.734674</hAcc><vAcc>0.825985</vAcc></extensions></trkpt>
      <trkpt lon="-2.247673" lat="53.109682"><ele>128.560440</ele><time>2022-03-04T10:46:31Z</time><extensions><speed>0.190943</speed><course>62.022511</course><hAcc>1.736983</hAcc><vAcc>0.826055</vAcc></extensions></trkpt>
      <trkpt lon="-2.247671" lat="53.109682"><ele>128.561188</ele><time>2022-03-04T10:46:32Z</time><extensions><speed>0.223618</speed><course>62.500435</course><hAcc>1.739306</hAcc><vAcc>0.826125</vAcc></extensions></trkpt>
      <trkpt lon="-2.247668" lat="53.109684"><ele>128.555283</ele><time>2022-03-04T10:46:33Z</time><extensions><speed>0.263373</speed><course>61.421921</course><hAcc>1.737666</hAcc><vAcc>0.826190</vAcc></extensions></trkpt>
      <trkpt lon="-2.247664" lat="53.109685"><ele>128.549774</ele><time>2022-03-04T10:46:34Z</time><extensions><speed>0.291557</speed><course>59.644962</course><hAcc>1.736500</hAcc><vAcc>0.826253</vAcc></extensions></trkpt>
      <trkpt lon="-2.247660" lat="53.109686"><ele>128.538834</ele><time>2022-03-04T10:46:35Z</time><extensions><speed>0.296265</speed><course>56.445793</course><hAcc>1.736940</hAcc><vAcc>0.826296</vAcc></extensions></trkpt>
      <trkpt lon="-2.247657" lat="53.109688"><ele>128.551361</ele><time>2022-03-04T10:46:36Z</time><extensions><speed>0.270506</speed><course>47.769993</course><hAcc>1.738474</hAcc><vAcc>0.826274</vAcc></extensions></trkpt>
      <trkpt lon="-2.247655" lat="53.109690"><ele>128.560837</ele><time>2022-03-04T10:46:38Z</time><extensions><speed>0.236081</speed><course>27.841801</course><hAcc>1.739299</hAcc><vAcc>0.826312</vAcc></extensions></trkpt>
      <trkpt lon="-2.247654" lat="53.109692"><ele>128.557831</ele><time>2022-03-04T10:46:39Z</time><extensions><speed>0.241565</speed><course>0.358808</course><hAcc>1.738705</hAcc><vAcc>0.826324</vAcc></extensions></trkpt>
      <trkpt lon="-2.247655" lat="53.109694"><ele>128.553864</ele><time>2022-03-04T10:46:40Z</time><extensions><speed>0.278287</speed><course>340.198975</course><hAcc>1.739907</hAcc><vAcc>0.826337</vAcc></extensions></trkpt>
      <trkpt lon="-2.247656" lat="53.109696"><ele>128.539810</ele><time>2022-03-04T10:46:41Z</time><extensions><speed>0.311690</speed><course>329.938354</course><hAcc>1.742024</hAcc><vAcc>0.826352</vAcc></extensions></trkpt>
      <trkpt lon="-2.247659" lat="53.109699"><ele>128.519775</ele><time>2022-03-04T10:46:42Z</time><extensions><speed>0.341188</speed><course>327.433228</course><hAcc>1.740151</hAcc><vAcc>0.826331</vAcc></extensions></trkpt>
      <trkpt lon="-2.247662" lat="53.109702"><ele>128.502426</ele><time>2022-03-04T10:46:43Z</time><extensions><speed>0.360312</speed><course>330.367950</course><hAcc>1.738087</hAcc><vAcc>0.826282</vAcc></extensions></trkpt>
      <trkpt lon="-2.247664" lat="53.109704"><ele>128.478882</ele><time>2022-03-04T10:46:44Z</time><extensions><speed>0.364633</speed><course>338.307129</course><hAcc>1.740099</hAcc><vAcc>0.826221</vAcc></extensions></trkpt>
      <trkpt lon="-2.247665" lat="53.109708"><ele>128.455582</ele><time>2022-03-04T10:46:45Z</time><extensions><speed>0.372531</speed><course>352.977966</course><hAcc>1.742132</hAcc><vAcc>0.826171</vAcc></extensions></trkpt>
      <trkpt lon="-2.247665" lat="53.109711"><ele>128.428391</ele><time>2022-03-04T10:46:46Z</time><extensions><speed>0.434927</speed><course>13.436770</course><hAcc>1.740265</hAcc><vAcc>0.826130</vAcc></extensions></trkpt>
      <trkpt lon="-2.247662" lat="53.109715"><ele>128.403000</ele><time>2022-03-04T10:46:47Z</time><extensions><speed>0.620506</speed><course>31.147495</course><hAcc>1.738243</hAcc><vAcc>0.826082</vAcc></extensions></trkpt>
      <trkpt lon="-2.247657" lat="53.109720"><ele>128.378967</ele><time>2022-03-04T10:46:48Z</time><extensions><speed>0.583762</speed><course>40.597580</course><hAcc>1.740546</hAcc><vAcc>0.826048</vAcc></extensions></trkpt>
      <trkpt lon="-2.247651" lat="53.109723"><ele>128.351395</ele><time>2022-03-04T10:46:49Z</time><extensions><speed>0.439893</speed><course>50.463734</course><hAcc>1.736097</hAcc><vAcc>0.826022</vAcc></extensions></trkpt>
      <trkpt lon="-2.247646" lat="53.109725"><ele>128.323776</ele><time>2022-03-04T10:46:50Z</time><extensions><speed>0.309799</speed><course>63.889107</course><hAcc>1.742914</hAcc><vAcc>0.825988</vAcc></extensions></trkpt>
      <trkpt lon="-2.247644" lat="53.109725"><ele>128.294785</ele><time>2022-03-04T10:46:51Z</time><extensions><speed>0.092995</speed><course>84.829567</course><hAcc>1.749791</hAcc><vAcc>0.825947</vAcc></extensions></trkpt>
      <trkpt lon="-2.247643" lat="53.109725"><ele>128.267517</ele><time>2022-03-04T10:46:52Z</time><extensions><speed>0.058050</speed><course>168.656876</course><hAcc>1.742151</hAcc><vAcc>0.825917</vAcc></extensions></trkpt>
      <trkpt lon="-2.247643" lat="53.109725"><ele>128.247894</ele><time>2022-03-04T10:46:53Z</time><extensions><speed>0.098463</speed><course>181.593948</course><hAcc>1.741117</hAcc><vAcc>0.825890</vAcc></extensions></trkpt>
      <trkpt lon="-2.247643" lat="53.109724"><ele>128.229568</ele><time>2022-03-04T10:46:54Z</time><extensions><speed>0.132491</speed><course>165.084198</course><hAcc>1.747112</hAcc><vAcc>0.825851</vAcc></extensions></trkpt>
      <trkpt lon="-2.247642" lat="53.109722"><ele>128.206863</ele><time>2022-03-04T10:46:55Z</time><extensions><speed>0.171167</speed><course>149.071228</course><hAcc>1.750928</hAcc><vAcc>0.825838</vAcc></extensions></trkpt>
      <trkpt lon="-2.247640" lat="53.109721"><ele>128.194351</ele><time>2022-03-04T10:46:56Z</time><extensions><speed>0.191566</speed><course>138.128906</course><hAcc>1.755922</hAcc><vAcc>0.825857</vAcc></extensions></trkpt>
      <trkpt lon="-2.247638" lat="53.109720"><ele>128.182816</ele><time>2022-03-04T10:46:57Z</time><extensions><speed>0.195458</speed><course>129.045395</course><hAcc>1.757512</hAcc><vAcc>0.825897</vAcc></extensions></trkpt>
      <trkpt lon="-2.247636" lat="53.109719"><ele>128.183426</ele><time>2022-03-04T10:46:58Z</time><extensions><speed>0.185257</speed><course>120.890381</course><hAcc>1.755148</hAcc><vAcc>0.825980</vAcc></extensions></trkpt>
      <trkpt lon="-2.247633" lat="53.109718"><ele>128.180817</ele><time>2022-03-04T10:46:59Z</time><extensions><speed>0.156097</speed><course>110.814400</course><hAcc>1.754069</hAcc><vAcc>0.826085</vAcc></extensions></trkpt>
      <trkpt lon="-2.247631" lat="53.109718"><ele>128.180435</ele><time>2022-03-04T10:47:00Z</time><extensions><speed>0.123898</speed><course>92.883522</course><hAcc>1.752583</hAcc><vAcc>0.826217</vAcc></extensions></trkpt>
      <trkpt lon="-2.247630" lat="53.109718"><ele>128.188171</ele><time>2022-03-04T10:47:01Z</time><extensions><speed>0.104883</speed><course>63.844364</course><hAcc>1.752980</hAcc><vAcc>0.826361</vAcc></extensions></trkpt>
      <trkpt lon="-2.247628" lat="53.109719"><ele>128.201813</ele><time>2022-03-04T10:47:02Z</time><extensions><speed>0.106019</speed><course>38.223934</course><hAcc>1.755546</hAcc><vAcc>0.826505</vAcc></extensions></trkpt>
      <trkpt lon="-2.247627" lat="53.109719"><ele>128.219559</ele><time>2022-03-04T10:47:03Z</time><extensions><speed>0.103120</speed><course>37.512089</course><hAcc>1.754110</hAcc><vAcc>0.826649</vAcc></extensions></trkpt>
      <trkpt lon="-2.247626" lat="53.109720"><ele>128.239639</ele><time>2022-03-04T10:47:04Z</time><extensions><speed>0.101976</speed><course>68.628326</course><hAcc>1.750505</hAcc><vAcc>0.826792</vAcc></extensions></trkpt>
      <trkpt lon="-2.247624" lat="53.109720"><ele>128.263580</ele><time>2022-03-04T10:47:05Z</time><extensions><speed>0.147039</speed><course>103.770653</course><hAcc>1.746776</hAcc><vAcc>0.826919</vAcc></extensions></trkpt>
      <trkpt lon="-2.247622" lat="53.109719"><ele>128.287704</ele><time>2022-03-04T10:47:06Z</time><extensions><speed>0.209865</speed><course>123.111778</course><hAcc>1.746384</hAcc><vAcc>0.827013</vAcc></extensions></trkpt>
      <trkpt lon="-2.247619" lat="53.109718"><ele>128.311371</ele><time>2022-03-04T10:47:07Z</time><extensions><speed>0.255904</speed><course>133.704742</course><hAcc>1.749434</hAcc><vAcc>0.827084</vAcc></extensions></trkpt>
      <trkpt lon="-2.247617" lat="53.109716"><ele>128.338303</ele><time>2022-03-04T10:47:08Z</time><extensions><speed>0.284653</speed><course>139.617737</course><hAcc>1.748544</hAcc><vAcc>0.827121</vAcc></extensions></trkpt>
      <trkpt lon="-2.247614" lat="53.109714"><ele>128.357986</ele><time>2022-03-04T10:47:09Z</time><extensions><speed>0.283328</speed><course>143.968582</course><hAcc>1.745127</hAcc><vAcc>0.827142</vAcc></extensions></trkpt>
      <trkpt lon="-2.247612" lat="53.109712"><ele>128.373795</ele><time>2022-03-04T10:47:10Z</time><extensions><speed>0.248024</speed><course>149.522934</course><hAcc>1.742734</hAcc><vAcc>0.827140</vAcc></extensions></trkpt>
      <trkpt lon="-2.247610" lat="53.109710"><ele>128.382187</ele><time>2022-03-04T10:47:11Z</time><extensions><speed>0.188011</speed><course>158.298157</course><hAcc>1.743942</hAcc><vAcc>0.827121</vAcc></extensions></trkpt>
      <trkpt lon="-2.247610" lat="53.109709"><ele>128.384369</ele><time>2022-03-04T10:47:12Z</time><extensions><speed>0.124954</speed><course>173.729904</course><hAcc>1.745280</hAcc><vAcc>0.827084</vAcc></extensions></trkpt>
      <trkpt lon="-2.247610" lat="53.109708"><ele>128.385925</ele><time>2022-03-04T10:47:13Z</time><extensions><speed>0.078800</speed><course>200.240707</course><hAcc>1.746021</hAcc><vAcc>0.827046</vAcc></extensions></trkpt>
      <trkpt lon="-2.247610" lat="53.109708"><ele>128.385254</ele><time>2022-03-04T10:47:14Z</time><extensions><speed>0.055749</speed><course>233.831985</course><hAcc>1.747135</hAcc><vAcc>0.827007</vAcc></extensions></trkpt>
      <trkpt lon="-2.247611" lat="53.109707"><ele>128.381332</ele><time>2022-03-04T10:47:15Z</time><extensions><speed>0.036895</speed><course>263.887695</course><hAcc>1.749073</hAcc><vAcc>0.826978</vAcc></extensions></trkpt>
      <trkpt lon="-2.247611" lat="53.109708"><ele>128.376755</ele><time>2022-03-04T10:47:16Z</time><extensions><speed>0.010823</speed><course>335.752960</course><hAcc>1.748695</hAcc><vAcc>0.826934</vAcc></extensions></trkpt>
      <trkpt lon="-2.247611" lat="53.109708"><ele>128.369278</ele><time>2022-03-04T10:47:17Z</time><extensions><speed>0.044466</speed><course>79.578972</course><hAcc>1.747266</hAcc><vAcc>0.826853</vAcc></extensions></trkpt>
      <trkpt lon="-2.247610" lat="53.109708"><ele>128.343399</ele><time>2022-03-04T10:47:18Z</time><extensions><speed>0.091363</speed><course>88.275085</course><hAcc>1.749516</hAcc><vAcc>0.826823</vAcc></extensions></trkpt>
      <trkpt lon="-2.247608" lat="53.109708"><ele>128.318832</ele><time>2022-03-04T10:47:19Z</time><extensions><speed>0.120345</speed><course>88.838921</course><hAcc>1.751470</hAcc><vAcc>0.826773</vAcc></extensions></trkpt>
      <trkpt lon="-2.247607" lat="53.109708"><ele>128.296936</ele><time>2022-03-04T10:47:20Z</time><extensions><speed>0.122811</speed><course>86.531517</course><hAcc>1.751462</hAcc><vAcc>0.826715</vAcc></extensions></trkpt>
      <trkpt lon="-2.247605" lat="53.109708"><ele>128.271042</ele><time>2022-03-04T10:47:21Z</time><extensions><speed>0.104020</speed><course>79.270180</course><hAcc>1.750775</hAcc><vAcc>0.826662</vAcc></extensions></trkpt>
      <trkpt lon="-2.247604" lat="53.109708"><ele>128.247650</ele><time>2022-03-04T10:47:22Z</time><extensions><speed>0.076649</speed><course>58.692623</course><hAcc>1.748688</hAcc><vAcc>0.826599</vAcc></extensions></trkpt>
      <trkpt lon="-2.247603" lat="53.109709"><ele>128.229202</ele><time>2022-03-04T10:47:23Z</time><extensions><speed>0.073604</speed><course>14.360853</course><hAcc>1.744701</hAcc><vAcc>0.826531</vAcc></extensions></trkpt>
      <trkpt lon="-2.247603" lat="53.109710"><ele>128.208801</ele><time>2022-03-04T10:47:24Z</time><extensions><speed>0.111470</speed><course>343.509613</course><hAcc>1.738335</hAcc><vAcc>0.826480</vAcc></extensions></trkpt>
      <trkpt lon="-2.247604" lat="53.109711"><ele>128.186935</ele><time>2022-03-04T10:47:25Z</time><extensions><speed>0.150454</speed><course>331.467987</course><hAcc>1.731864</hAcc><vAcc>0.826426</vAcc></extensions></trkpt>
      <trkpt lon="-2.247605" lat="53.109712"><ele>128.157486</ele><time>2022-03-04T10:47:26Z</time><extensions><speed>0.168754</speed><course>324.167725</course><hAcc>1.731210</hAcc><vAcc>0.826358</vAcc></extensions></trkpt>
      <trkpt lon="-2.247607" lat="53.109713"><ele>128.140610</ele><time>2022-03-04T10:47:27Z</time><extensions><speed>0.184825</speed><course>317.619873</course><hAcc>1.729515</hAcc><vAcc>0.826203</vAcc></extensions></trkpt>
      <trkpt lon="-2.247609" lat="53.109714"><ele>128.113708</ele><time>2022-03-04T10:47:28Z</time><extensions><speed>0.183261</speed><course>311.077362</course><hAcc>1.735536</hAcc><vAcc>0.825499</vAcc></extensions></trkpt>
      <trkpt lon="-2.247611" lat="53.109715"><ele>128.086365</ele><time>2022-03-04T10:47:29Z</time><extensions><speed>0.174188</speed><course>304.275696</course><hAcc>1.739192</hAcc><vAcc>0.823326</vAcc></extensions></trkpt>
      <trkpt lon="-2.247613" lat="53.109716"><ele>128.050308</ele><time>2022-03-04T10:47:30Z</time><extensions><speed>0.179632</speed><course>299.564209</course><hAcc>1.729499</hAcc><vAcc>0.822010</vAcc></extensions></trkpt>
      <trkpt lon="-2.247616" lat="53.109717"><ele>128.009811</ele><time>2022-03-04T10:47:30Z</time><extensions><speed>0.166675</speed><course>298.154846</course><hAcc>1.731939</hAcc><vAcc>0.820692</vAcc></extensions></trkpt>
      <trkpt lon="-2.247618" lat="53.109718"><ele>127.969810</ele><time>2022-03-04T10:47:31Z</time><extensions><speed>0.153078</speed><course>304.342529</course><hAcc>1.734217</hAcc><vAcc>0.819228</vAcc></extensions></trkpt>
      <trkpt lon="-2.247619" lat="53.109718"><ele>127.924156</ele><time>2022-03-04T10:47:32Z</time><extensions><speed>0.135964</speed><course>319.110840</course><hAcc>1.737968</hAcc><vAcc>0.817638</vAcc></extensions></trkpt>
      <trkpt lon="-2.247620" lat="53.109719"><ele>127.886658</ele><time>2022-03-04T10:47:33Z</time><extensions><speed>0.129251</speed><course>336.777863</course><hAcc>1.743927</hAcc><vAcc>0.815953</vAcc></extensions></trkpt>
      <trkpt lon="-2.247621" lat="53.109721"><ele>127.841362</ele><time>2022-03-04T10:47:34Z</time><extensions><speed>0.134666</speed><course>350.297607</course><hAcc>1.753179</hAcc><vAcc>0.814239</vAcc></extensions></trkpt>
      <trkpt lon="-2.247621" lat="53.109722"><ele>127.792671</ele><time>2022-03-04T10:47:35Z</time><extensions><speed>0.132598</speed><course>356.103851</course><hAcc>1.772629</hAcc><vAcc>0.812594</vAcc></extensions></trkpt>
      <trkpt lon="-2.247621" lat="53.109723"><ele>127.751160</ele><time>2022-03-04T10:47:36Z</time><extensions><speed>0.101888</speed><course>354.616180</course><hAcc>1.793211</hAcc><vAcc>0.811145</vAcc></extensions></trkpt>
      <trkpt lon="-2.247621" lat="53.109723"><ele>127.708694</ele><time>2022-03-04T10:47:37Z</time><extensions><speed>0.068902</speed><course>339.287231</course><hAcc>1.777926</hAcc><vAcc>0.810117</vAcc></extensions></trkpt>
      <trkpt lon="-2.247622" lat="53.109724"><ele>127.665123</ele><time>2022-03-04T10:47:38Z</time><extensions><speed>0.038316</speed><course>273.411835</course><hAcc>1.773732</hAcc><vAcc>0.809655</vAcc></extensions></trkpt>
      <trkpt lon="-2.247622" lat="53.109723"><ele>127.618164</ele><time>2022-03-04T10:47:39Z</time><extensions><speed>0.067750</speed><course>214.385147</course><hAcc>1.784238</hAcc><vAcc>0.809882</vAcc></extensions></trkpt>
      <trkpt lon="-2.247623" lat="53.109723"><ele>127.575584</ele><time>2022-03-04T10:47:40Z</time><extensions><speed>0.098310</speed><course>185.854095</course><hAcc>1.789626</hAcc><vAcc>0.810705</vAcc></extensions></trkpt>
      <trkpt lon="-2.247623" lat="53.109722"><ele>127.534966</ele><time>2022-03-04T10:47:41Z</time><extensions><speed>0.135794</speed><course>162.701477</course><hAcc>1.781848</hAcc><vAcc>0.811935</vAcc></extensions></trkpt>
      <trkpt lon="-2.247622" lat="53.109721"><ele>127.498344</ele><time>2022-03-04T10:47:42Z</time><extensions><speed>0.171906</speed><course>149.682480</course><hAcc>1.775719</hAcc><vAcc>0.813363</vAcc></extensions></trkpt>
      <trkpt lon="-2.247620" lat="53.109719"><ele>127.465698</ele><time>2022-03-04T10:47:43Z</time><extensions><speed>0.200005</speed><course>143.490250</course><hAcc>1.771654</hAcc><vAcc>0.814880</vAcc></extensions></trkpt>
      <trkpt lon="-2.247618" lat="53.109718"><ele>127.428680</ele><time>2022-03-04T10:47:44Z</time><extensions><speed>0.211969</speed><course>140.300980</course><hAcc>1.766858</hAcc><vAcc>0.816363</vAcc></extensions></trkpt>
      <trkpt lon="-2.247616" lat="53.109716"><ele>127.409149</ele><time>2022-03-04T10:47:45Z</time><extensions><speed>0.205160</speed><course>139.787460</course><hAcc>1.760445</hAcc><vAcc>0.817727</vAcc></extensions></trkpt>
      <trkpt lon="-2.247614" lat="53.109715"><ele>127.393921</ele><time>2022-03-04T10:47:46Z</time><extensions><speed>0.173214</speed><course>143.891174</course><hAcc>1.756410</hAcc><vAcc>0.818939</vAcc></extensions></trkpt>
      <trkpt lon="-2.247613" lat="53.109714"><ele>127.380104</ele><time>2022-03-04T10:47:47Z</time><extensions><speed>0.132581</speed><course>149.861694</course><hAcc>1.753525</hAcc><vAcc>0.820014</vAcc></extensions></trkpt>
      <trkpt lon="-2.247612" lat="53.109713"><ele>127.369736</ele><time>2022-03-04T10:47:48Z</time><extensions><speed>0.089429</speed><course>153.797653</course><hAcc>1.746430</hAcc><vAcc>0.820952</vAcc></extensions></trkpt>
      <trkpt lon="-2.247612" lat="53.109712"><ele>127.362717</ele><time>2022-03-04T10:47:49Z</time><extensions><speed>0.034928</speed><course>158.401016</course><hAcc>1.739651</hAcc><vAcc>0.821757</vAcc></extensions></trkpt>
      <trkpt lon="-2.247612" lat="53.109712"><ele>127.358932</ele><time>2022-03-04T10:47:50Z</time><extensions><speed>0.015000</speed><course>332.013153</course><hAcc>1.740964</hAcc><vAcc>0.822446</vAcc></extensions></trkpt>
      <trkpt lon="-2.247612" lat="53.109713"><ele>127.357109</ele><time>2022-03-04T10:47:51Z</time><extensions><speed>0.046842</speed><course>337.996002</course><hAcc>1.745158</hAcc><vAcc>0.823021</vAcc></extensions></trkpt>
      <trkpt lon="-2.247612" lat="53.109713"><ele>127.357773</ele><time>2022-03-04T10:47:52Z</time><extensions><speed>0.068932</speed><course>338.026947</course><hAcc>1.715940</hAcc><vAcc>0.823473</vAcc></extensions></trkpt>
      <trkpt lon="-2.247613" lat="53.109714"><ele>127.360703</ele><time>2022-03-04T10:47:53Z</time><extensions><speed>0.059295</speed><course>335.996765</course><hAcc>1.693360</hAcc><vAcc>0.823847</vAcc></extensions></trkpt>
      <trkpt lon="-2.247613" lat="53.109714"><ele>127.365524</ele><time>2022-03-04T10:47:54Z</time><extensions><speed>0.027424</speed><course>332.757843</course><hAcc>1.693956</hAcc><vAcc>0.824131</vAcc></extensions></trkpt>
      <trkpt lon="-2.247613" lat="53.109714"><ele>127.371750</ele><time>2022-03-04T10:47:55Z</time><extensions><speed>0.005661</speed><course>131.232498</course><hAcc>1.716336</hAcc><vAcc>0.824305</vAcc></extensions></trkpt>
      <trkpt lon="-2.247613" lat="53.109714"><ele>127.378799</ele><time>2022-03-04T10:47:56Z</time><extensions><speed>0.029629</speed><course>135.552216</course><hAcc>1.730615</hAcc><vAcc>0.824399</vAcc></extensions></trkpt>
      <trkpt lon="-2.247612" lat="53.109714"><ele>127.386154</ele><time>2022-03-04T10:47:57Z</time><extensions><speed>0.062785</speed><course>137.412064</course><hAcc>1.693395</hAcc><vAcc>0.824444</vAcc></extensions></trkpt>
      <trkpt lon="-2.247612" lat="53.109713"><ele>127.393478</ele><time>2022-03-04T10:47:58Z</time><extensions><speed>0.082458</speed><course>141.095505</course><hAcc>1.679126</hAcc><vAcc>0.824444</vAcc></extensions></trkpt>
      <trkpt lon="-2.247611" lat="53.109712"><ele>127.400505</ele><time>2022-03-04T10:47:59Z</time><extensions><speed>0.097432</speed><course>144.382660</course><hAcc>1.686363</hAcc><vAcc>0.824399</vAcc></extensions></trkpt>
      <trkpt lon="-2.247610" lat="53.109712"><ele>127.407066</ele><time>2022-03-04T10:48:00Z</time><extensions><speed>0.102138</speed><course>146.794495</course><hAcc>1.709241</hAcc><vAcc>0.824295</vAcc></extensions></trkpt>
      <trkpt lon="-2.247609" lat="53.109711"><ele>127.413078</ele><time>2022-03-04T10:48:01Z</time><extensions><speed>0.083876</speed><course>148.455078</course><hAcc>1.732850</hAcc><vAcc>0.824181</vAcc></extensions></trkpt>
      <trkpt lon="-2.247609" lat="53.109710"><ele>127.414352</ele><time>2022-03-04T10:48:02Z</time><extensions><speed>0.082968</speed><course>150.540009</course><hAcc>1.706797</hAcc><vAcc>0.824039</vAcc></extensions></trkpt>
      <trkpt lon="-2.247608" lat="53.109710"><ele>127.414383</ele><time>2022-03-04T10:48:03Z</time><extensions><speed>0.064706</speed><course>153.109329</course><hAcc>1.695645</hAcc><vAcc>0.823905</vAcc></extensions></trkpt>
      <trkpt lon="-2.247608" lat="53.109709"><ele>127.413177</ele><time>2022-03-04T10:48:04Z</time><extensions><speed>0.044562</speed><course>157.938690</course><hAcc>1.692945</hAcc><vAcc>0.823740</vAcc></extensions></trkpt>
      <trkpt lon="-2.247608" lat="53.109709"><ele>127.410782</ele><time>2022-03-04T10:48:05Z</time><extensions><speed>0.028526</speed><course>168.701935</course><hAcc>1.683262</hAcc><vAcc>0.823575</vAcc></extensions></trkpt>
      <trkpt lon="-2.247608" lat="53.109709"><ele>127.407249</ele><time>2022-03-04T10:48:06Z</time><extensions><speed>0.016683</speed><course>195.122406</course><hAcc>1.679401</hAcc><vAcc>0.823450</vAcc></extensions></trkpt>
      <trkpt lon="-2.247608" lat="53.109709"><ele>127.402626</ele><time>2022-03-04T10:48:07Z</time><extensions><speed>0.014872</speed><course>238.713638</course><hAcc>1.686627</hAcc><vAcc>0.823350</vAcc></extensions></trkpt>
      <trkpt lon="-2.247608" lat="53.109709"><ele>127.397003</ele><time>2022-03-04T10:48:08Z</time><extensions><speed>0.018194</speed><course>266.753143</course><hAcc>1.719015</hAcc><vAcc>0.823282</vAcc></extensions></trkpt>
      <trkpt lon="-2.247609" lat="53.109709"><ele>127.390488</ele><time>2022-03-04T10:48:09Z</time><extensions><speed>0.032451</speed><course>277.022186</course><hAcc>1.717789</hAcc><vAcc>0.823237</vAcc></extensions></trkpt>
      <trkpt lon="-2.247609" lat="53.109709"><ele>127.383217</ele><time>2022-03-04T10:48:10Z</time><extensions><speed>0.063944</speed><course>279.922638</course><hAcc>1.684617</hAcc><vAcc>0.823217</vAcc></extensions></trkpt>
      <trkpt lon="-2.247610" lat="53.109709"><ele>127.375397</ele><time>2022-03-04T10:48:11Z</time><extensions><speed>0.084610</speed><course>280.988800</course><hAcc>1.685198</hAcc><vAcc>0.823223</vAcc></extensions></trkpt>
      <trkpt lon="-2.247612" lat="53.109709"><ele>127.365173</ele><time>2022-03-04T10:48:12Z</time><extensions><speed>0.088473</speed><course>282.053528</course><hAcc>1.704233</hAcc><vAcc>0.823252</vAcc></extensions></trkpt>
      <trkpt lon="-2.247613" lat="53.109709"><ele>127.354561</ele><time>2022-03-04T10:48:13Z</time><extensions><speed>0.073856</speed><course>283.236053</course><hAcc>1.721282</hAcc><vAcc>0.823244</vAcc></extensions></trkpt>
      <trkpt lon="-2.247614" lat="53.109709"><ele>127.343796</ele><time>2022-03-04T10:48:14Z</time><extensions><speed>0.058150</speed><course>285.143402</course><hAcc>1.722783</hAcc><vAcc>0.823161</vAcc></extensions></trkpt>
      <trkpt lon="-2.247615" lat="53.109709"><ele>127.333054</ele><time>2022-03-04T10:48:15Z</time><extensions><speed>0.045792</speed><course>288.290497</course><hAcc>1.711815</hAcc><vAcc>0.822954</vAcc></extensions></trkpt>
      <trkpt lon="-2.247615" lat="53.109710"><ele>127.322472</ele><time>2022-03-04T10:48:16Z</time><extensions><speed>0.037381</speed><course>292.882385</course><hAcc>1.695382</hAcc><vAcc>0.822602</vAcc></extensions></trkpt>
      <trkpt lon="-2.247616" lat="53.109710"><ele>127.312149</ele><time>2022-03-04T10:48:17Z</time><extensions><speed>0.033448</speed><course>298.250763</course><hAcc>1.678190</hAcc><vAcc>0.822045</vAcc></extensions></trkpt>
      <trkpt lon="-2.247616" lat="53.109710"><ele>127.302139</ele><time>2022-03-04T10:48:18Z</time><extensions><speed>0.031757</speed><course>303.107269</course><hAcc>1.676536</hAcc><vAcc>0.821322</vAcc></extensions></trkpt>
      <trkpt lon="-2.247616" lat="53.109710"><ele>127.292511</ele><time>2022-03-04T10:48:19Z</time><extensions><speed>0.029497</speed><course>306.918121</course><hAcc>1.695051</hAcc><vAcc>0.820378</vAcc></extensions></trkpt>
      <trkpt lon="-2.247617" lat="53.109710"><ele>127.283302</ele><time>2022-03-04T10:48:20Z</time><extensions><speed>0.038804</speed><course>309.169220</course><hAcc>1.687403</hAcc><vAcc>0.819274</vAcc></extensions></trkpt>
      <trkpt lon="-2.247617" lat="53.109710"><ele>127.274567</ele><time>2022-03-04T10:48:21Z</time><extensions><speed>0.054954</speed><course>310.079315</course><hAcc>1.676155</hAcc><vAcc>0.818133</vAcc></extensions></trkpt>
      <trkpt lon="-2.247618" lat="53.109711"><ele>127.266373</ele><time>2022-03-04T10:48:22Z</time><extensions><speed>0.047255</speed><course>310.443756</course><hAcc>1.707479</hAcc><vAcc>0.816950</vAcc></extensions></trkpt>
      <trkpt lon="-2.247619" lat="53.109711"><ele>127.258797</ele><time>2022-03-04T10:48:23Z</time><extensions><speed>0.050535</speed><course>310.587860</course><hAcc>1.702132</hAcc><vAcc>0.815754</vAcc></extensions></trkpt>
      <trkpt lon="-2.247619" lat="53.109711"><ele>127.251915</ele><time>2022-03-04T10:48:24Z</time><extensions><speed>0.042198</speed><course>310.646149</course><hAcc>1.718784</hAcc><vAcc>0.814597</vAcc></extensions></trkpt>
      <trkpt lon="-2.247619" lat="53.109712"><ele>127.245743</ele><time>2022-03-04T10:48:25Z</time><extensions><speed>0.031729</speed><course>310.679840</course><hAcc>1.747178</hAcc><vAcc>0.813582</vAcc></extensions></trkpt>
      <trkpt lon="-2.247620" lat="53.109712"><ele>127.240288</ele><time>2022-03-04T10:48:26Z</time><extensions><speed>0.022436</speed><course>310.702972</course><hAcc>1.769116</hAcc><vAcc>0.812793</vAcc></extensions></trkpt>
      <trkpt lon="-2.247620" lat="53.109712"><ele>127.235527</ele><time>2022-03-04T10:48:27Z</time><extensions><speed>0.015028</speed><course>310.720856</course><hAcc>1.780352</hAcc><vAcc>0.812312</vAcc></extensions></trkpt>
      <trkpt lon="-2.247620" lat="53.109712"><ele>127.231430</ele><time>2022-03-04T10:48:28Z</time><extensions><speed>0.009848</speed><course>310.735931</course><hAcc>1.778944</hAcc><vAcc>0.812197</vAcc></extensions></trkpt>
      <trkpt lon="-2.247620" lat="53.109712"><ele>127.227951</ele><time>2022-03-04T10:48:29Z</time><extensions><speed>0.006082</speed><course>310.749603</course><hAcc>1.771393</hAcc><vAcc>0.812462</vAcc></extensions></trkpt>
      <trkpt lon="-2.247620" lat="53.109712"><ele>127.225044</ele><time>2022-03-04T10:48:30Z</time><extensions><speed>0.003637</speed><course>310.763000</course><hAcc>1.756492</hAcc><vAcc>0.813086</vAcc></extensions></trkpt>
      <trkpt lon="-2.247620" lat="53.109712"><ele>127.222656</ele><time>2022-03-04T10:48:31Z</time><extensions><speed>0.002020</speed><course>310.777069</course><hAcc>1.741599</hAcc><vAcc>0.814002</vAcc></extensions></trkpt>
      <trkpt lon="-2.247620" lat="53.109712"><ele>127.220726</ele><time>2022-03-04T10:48:32Z</time><extensions><speed>0.001051</speed><course>310.793427</course><hAcc>1.724019</hAcc><vAcc>0.815103</vAcc></extensions></trkpt>
      <trkpt lon="-2.247620" lat="53.109712"><ele>127.219200</ele><time>2022-03-04T10:48:33Z</time><extensions><speed>0.000552</speed><course>310.813446</course><hAcc>1.698343</hAcc><vAcc>0.816304</vAcc></extensions></trkpt>
      <trkpt lon="-2.247620" lat="53.109712"><ele>127.218033</ele><time>2022-03-04T10:48:34Z</time><extensions><speed>0.000274</speed><course>310.837891</course><hAcc>1.677540</hAcc><vAcc>0.817525</vAcc></extensions></trkpt>
      <trkpt lon="-2.247620" lat="53.109712"><ele>127.217163</ele><time>2022-03-04T10:48:35Z</time><extensions><speed>0.000138</speed><course>310.868408</course><hAcc>1.658880</hAcc><vAcc>0.818689</vAcc></extensions></trkpt>
      <trkpt lon="-2.247620" lat="53.109712"><ele>127.224884</ele><time>2022-03-04T10:48:36Z</time><extensions><speed>0.000879</speed><course>264.262329</course><hAcc>1.652173</hAcc><vAcc>0.819706</vAcc></extensions></trkpt>
      <trkpt lon="-2.247620" lat="53.109712"><ele>127.234009</ele><time>2022-03-04T10:48:37Z</time><extensions><speed>0.001637</speed><course>261.781738</course><hAcc>1.658434</hAcc><vAcc>0.820602</vAcc></extensions></trkpt>
      <trkpt lon="-2.247620" lat="53.109712"><ele>127.244522</ele><time>2022-03-04T10:48:38Z</time><extensions><speed>0.002711</speed><course>261.175629</course><hAcc>1.672829</hAcc><vAcc>0.821372</vAcc></extensions></trkpt>
      <trkpt lon="-2.247621" lat="53.109712"><ele>127.256401</ele><time>2022-03-04T10:48:39Z</time><extensions><speed>0.004939</speed><course>260.987946</course><hAcc>1.682549</hAcc><vAcc>0.822006</vAcc></extensions></trkpt>
      <trkpt lon="-2.247621" lat="53.109712"><ele>127.269608</ele><time>2022-03-04T10:48:40Z</time><extensions><speed>0.011345</speed><course>260.934235</course><hAcc>1.662927</hAcc><vAcc>0.822511</vAcc></extensions></trkpt>
      <trkpt lon="-2.247621" lat="53.109712"><ele>127.284073</ele><time>2022-03-04T10:48:41Z</time><extensions><speed>0.018748</speed><course>260.915283</course><hAcc>1.675765</hAcc><vAcc>0.822897</vAcc></extensions></trkpt>
      <trkpt lon="-2.247621" lat="53.109712"><ele>127.299706</ele><time>2022-03-04T10:48:42Z</time><extensions><speed>0.028147</speed><course>260.906219</course><hAcc>1.706358</hAcc><vAcc>0.823175</vAcc></extensions></trkpt>
      <trkpt lon="-2.247622" lat="53.109712"><ele>127.316368</ele><time>2022-03-04T10:48:44Z</time><extensions><speed>0.039801</speed><course>260.901733</course><hAcc>1.733624</hAcc><vAcc>0.823355</vAcc></extensions></trkpt>
      <trkpt lon="-2.247622" lat="53.109712"><ele>127.333794</ele><time>2022-03-04T10:48:45Z</time><extensions><speed>0.052610</speed><course>260.899567</course><hAcc>1.751980</hAcc><vAcc>0.823446</vAcc></extensions></trkpt>
      <trkpt lon="-2.247623" lat="53.109712"><ele>127.356461</ele><time>2022-03-04T10:48:46Z</time><extensions><speed>0.063289</speed><course>261.266754</course><hAcc>1.759169</hAcc><vAcc>0.823493</vAcc></extensions></trkpt>
      <trkpt lon="-2.247624" lat="53.109712"><ele>127.379936</ele><time>2022-03-04T10:48:47Z</time><extensions><speed>0.061931</speed><course>261.858643</course><hAcc>1.761595</hAcc><vAcc>0.823511</vAcc></extensions></trkpt>
      <trkpt lon="-2.247625" lat="53.109712"><ele>127.403770</ele><time>2022-03-04T10:48:48Z</time><extensions><speed>0.047206</speed><course>263.282196</course><hAcc>1.763690</hAcc><vAcc>0.823531</vAcc></extensions></trkpt>
      <trkpt lon="-2.247625" lat="53.109712"><ele>127.436653</ele><time>2022-03-04T10:48:49Z</time><extensions><speed>0.028534</speed><course>266.647339</course><hAcc>1.762915</hAcc><vAcc>0.823557</vAcc></extensions></trkpt>
      <trkpt lon="-2.247626" lat="53.109712"><ele>127.478386</ele><time>2022-03-04T10:48:50Z</time><extensions><speed>0.008912</speed><course>287.655273</course><hAcc>1.761082</hAcc><vAcc>0.823580</vAcc></extensions></trkpt>
      <trkpt lon="-2.247626" lat="53.109712"><ele>127.522209</ele><time>2022-03-04T10:48:51Z</time><extensions><speed>0.014248</speed><course>56.904366</course><hAcc>1.756262</hAcc><vAcc>0.823588</vAcc></extensions></trkpt>
      <trkpt lon="-2.247625" lat="53.109712"><ele>127.566193</ele><time>2022-03-04T10:48:52Z</time><extensions><speed>0.035097</speed><course>67.813568</course><hAcc>1.750491</hAcc><vAcc>0.823545</vAcc></extensions></trkpt>
      <trkpt lon="-2.247625" lat="53.109712"><ele>127.607910</ele><time>2022-03-04T10:48:53Z</time><extensions><speed>0.057456</speed><course>69.198029</course><hAcc>1.741677</hAcc><vAcc>0.823529</vAcc></extensions></trkpt>
      <trkpt lon="-2.247624" lat="53.109712"><ele>127.647614</ele><time>2022-03-04T10:48:54Z</time><extensions><speed>0.078922</speed><course>69.933884</course><hAcc>1.735588</hAcc><vAcc>0.823521</vAcc></extensions></trkpt>
      <trkpt lon="-2.247623" lat="53.109712"><ele>127.686264</ele><time>2022-03-04T10:48:55Z</time><extensions><speed>0.095334</speed><course>70.931755</course><hAcc>1.732853</hAcc><vAcc>0.823518</vAcc></extensions></trkpt>
      <trkpt lon="-2.247621" lat="53.109713"><ele>127.719902</ele><time>2022-03-04T10:48:56Z</time><extensions><speed>0.099662</speed><course>73.487106</course><hAcc>1.728172</hAcc><vAcc>0.823457</vAcc></extensions></trkpt>
      <trkpt lon="-2.247620" lat="53.109713"><ele>127.751625</ele><time>2022-03-04T10:48:57Z</time><extensions><speed>0.090859</speed><course>77.634186</course><hAcc>1.724081</hAcc><vAcc>0.823247</vAcc></extensions></trkpt>
      <trkpt lon="-2.247619" lat="53.109713"><ele>127.779823</ele><time>2022-03-04T10:48:58Z</time><extensions><speed>0.078668</speed><course>82.711235</course><hAcc>1.722842</hAcc><vAcc>0.822826</vAcc></extensions></trkpt>
      <trkpt lon="-2.247618" lat="53.109713"><ele>127.804405</ele><time>2022-03-04T10:48:59Z</time><extensions><speed>0.056505</speed><course>85.599953</course><hAcc>1.728843</hAcc><vAcc>0.822370</vAcc></extensions></trkpt>
      <trkpt lon="-2.247617" lat="53.109713"><ele>127.825157</ele><time>2022-03-04T10:49:00Z</time><extensions><speed>0.021572</speed><course>83.607246</course><hAcc>1.735219</hAcc><vAcc>0.821850</vAcc></extensions></trkpt>
      <trkpt lon="-2.247617" lat="53.109713"><ele>127.841461</ele><time>2022-03-04T10:49:01Z</time><extensions><speed>0.016897</speed><course>270.578003</course><hAcc>1.730380</hAcc><vAcc>0.821234</vAcc></extensions></trkpt>
      <trkpt lon="-2.247617" lat="53.109713"><ele>127.853073</ele><time>2022-03-04T10:49:02Z</time><extensions><speed>0.042670</speed><course>262.097504</course><hAcc>1.736602</hAcc><vAcc>0.820560</vAcc></extensions></trkpt>
      <trkpt lon="-2.247618" lat="53.109713"><ele>127.860046</ele><time>2022-03-04T10:49:03Z</time><extensions><speed>0.045564</speed><course>240.397400</course><hAcc>1.749678</hAcc><vAcc>0.819817</vAcc></extensions></trkpt>
      <trkpt lon="-2.247618" lat="53.109713"><ele>127.865799</ele><time>2022-03-04T10:49:04Z</time><extensions><speed>0.052633</speed><course>194.719330</course><hAcc>1.759284</hAcc><vAcc>0.819022</vAcc></extensions></trkpt>
      <trkpt lon="-2.247618" lat="53.109712"><ele>127.866997</ele><time>2022-03-04T10:49:05Z</time><extensions><speed>0.084838</speed><course>165.624222</course><hAcc>1.760973</hAcc><vAcc>0.818171</vAcc></extensions></trkpt>
      <trkpt lon="-2.247618" lat="53.109711"><ele>127.865417</ele><time>2022-03-04T10:49:06Z</time><extensions><speed>0.118523</speed><course>154.424591</course><hAcc>1.754571</hAcc><vAcc>0.817337</vAcc></extensions></trkpt>
      <trkpt lon="-2.247617" lat="53.109710"><ele>127.861755</ele><time>2022-03-04T10:49:07Z</time><extensions><speed>0.132390</speed><course>148.879013</course><hAcc>1.750937</hAcc><vAcc>0.816535</vAcc></extensions></trkpt>
      <trkpt lon="-2.247616" lat="53.109709"><ele>127.856667</ele><time>2022-03-04T10:49:08Z</time><extensions><speed>0.122503</speed><course>144.389206</course><hAcc>1.747824</hAcc><vAcc>0.815805</vAcc></extensions></trkpt>
      <trkpt lon="-2.247615" lat="53.109708"><ele>127.850716</ele><time>2022-03-04T10:49:09Z</time><extensions><speed>0.100207</speed><course>140.572968</course><hAcc>1.738008</hAcc><vAcc>0.815192</vAcc></extensions></trkpt>
      <trkpt lon="-2.247614" lat="53.109708"><ele>127.844383</ele><time>2022-03-04T10:49:10Z</time><extensions><speed>0.075123</speed><course>138.591339</course><hAcc>1.729124</hAcc><vAcc>0.814614</vAcc></extensions></trkpt>
      <trkpt lon="-2.247613" lat="53.109707"><ele>127.838036</ele><time>2022-03-04T10:49:11Z</time><extensions><speed>0.056673</speed><course>137.958557</course><hAcc>1.723348</hAcc><vAcc>0.813999</vAcc></extensions></trkpt>
      <trkpt lon="-2.247613" lat="53.109707"><ele>127.831940</ele><time>2022-03-04T10:49:12Z</time><extensions><speed>0.041902</speed><course>138.821030</course><hAcc>1.727457</hAcc><vAcc>0.813222</vAcc></extensions></trkpt>
      <trkpt lon="-2.247612" lat="53.109707"><ele>127.826241</ele><time>2022-03-04T10:49:13Z</time><extensions><speed>0.035946</speed><course>141.726135</course><hAcc>1.718045</hAcc><vAcc>0.812367</vAcc></extensions></trkpt>
      <trkpt lon="-2.247612" lat="53.109706"><ele>127.811981</ele><time>2022-03-04T10:49:14Z</time><extensions><speed>0.032689</speed><course>145.047501</course><hAcc>1.692735</hAcc><vAcc>0.811535</vAcc></extensions></trkpt>
      <trkpt lon="-2.247612" lat="53.109706"><ele>127.797310</ele><time>2022-03-04T10:49:15Z</time><extensions><speed>0.022269</speed><course>147.169479</course><hAcc>1.694562</hAcc><vAcc>0.810816</vAcc></extensions></trkpt>
      <trkpt lon="-2.247612" lat="53.109706"><ele>127.781754</ele><time>2022-03-04T10:49:16Z</time><extensions><speed>0.011821</speed><course>138.327240</course><hAcc>1.711103</hAcc><vAcc>0.810122</vAcc></extensions></trkpt>
      <trkpt lon="-2.247612" lat="53.109706"><ele>127.765251</ele><time>2022-03-04T10:49:17Z</time><extensions><speed>0.006251</speed><course>82.244011</course><hAcc>1.723731</hAcc><vAcc>0.809449</vAcc></extensions></trkpt>
      <trkpt lon="-2.247611" lat="53.109706"><ele>127.747787</ele><time>2022-03-04T10:49:18Z</time><extensions><speed>0.013462</speed><course>26.793350</course><hAcc>1.741915</hAcc><vAcc>0.808819</vAcc></extensions></trkpt>
      <trkpt lon="-2.247611" lat="53.109706"><ele>127.729408</ele><time>2022-03-04T10:49:19Z</time><extensions><speed>0.028979</speed><course>15.594071</course><hAcc>1.755759</hAcc><vAcc>0.808305</vAcc></extensions></trkpt>
      <trkpt lon="-2.247611" lat="53.109707"><ele>127.710167</ele><time>2022-03-04T10:49:20Z</time><extensions><speed>0.058678</speed><course>12.748528</course><hAcc>1.748103</hAcc><vAcc>0.807970</vAcc></extensions></trkpt>
      <trkpt lon="-2.247611" lat="53.109707"><ele>127.690193</ele><time>2022-03-04T10:49:21Z</time><extensions><speed>0.092256</speed><course>11.788248</course><hAcc>1.755293</hAcc><vAcc>0.807885</vAcc></extensions></trkpt>
      <trkpt lon="-2.247611" lat="53.109708"><ele>127.664383</ele><time>2022-03-04T10:49:22Z</time><extensions><speed>0.124628</speed><course>11.274967</course><hAcc>1.772411</hAcc><vAcc>0.808088</vAcc></extensions></trkpt>
      <trkpt lon="-2.247610" lat="53.109710"><ele>127.637451</ele><time>2022-03-04T10:49:23Z</time><extensions><speed>0.149160</speed><course>10.995112</course><hAcc>1.782434</hAcc><vAcc>0.808647</vAcc></extensions></trkpt>
      <trkpt lon="-2.247610" lat="53.109711"><ele>127.609802</ele><time>2022-03-04T10:49:24Z</time><extensions><speed>0.144081</speed><course>10.782329</course><hAcc>1.784772</hAcc><vAcc>0.809536</vAcc></extensions></trkpt>
      <trkpt lon="-2.247610" lat="53.109712"><ele>127.581909</ele><time>2022-03-04T10:49:25Z</time><extensions><speed>0.111607</speed><course>10.418164</course><hAcc>1.781595</hAcc><vAcc>0.810678</vAcc></extensions></trkpt>
      <trkpt lon="-2.247609" lat="53.109713"><ele>127.554184</ele><time>2022-03-04T10:49:26Z</time><extensions><speed>0.080379</speed><course>9.581906</course><hAcc>1.768934</hAcc><vAcc>0.811962</vAcc></extensions></trkpt>
      <trkpt lon="-2.247609" lat="53.109713"><ele>127.526939</ele><time>2022-03-04T10:49:27Z</time><extensions><speed>0.052784</speed><course>7.631039</course><hAcc>1.755772</hAcc><vAcc>0.813248</vAcc></extensions></trkpt>
      <trkpt lon="-2.247609" lat="53.109714"><ele>127.500397</ele><time>2022-03-04T10:49:28Z</time><extensions><speed>0.032450</speed><course>2.847663</course><hAcc>1.740816</hAcc><vAcc>0.814482</vAcc></extensions></trkpt>
      <trkpt lon="-2.247609" lat="53.109714"><ele>127.474762</ele><time>2022-03-04T10:49:29Z</time><extensions><speed>0.017540</speed><course>349.897186</course><hAcc>1.729175</hAcc><vAcc>0.815611</vAcc></extensions></trkpt>
      <trkpt lon="-2.247609" lat="53.109714"><ele>127.450180</ele><time>2022-03-04T10:49:30Z</time><extensions><speed>0.009527</speed><course>312.741364</course><hAcc>1.724475</hAcc><vAcc>0.816602</vAcc></extensions></trkpt>
      <trkpt lon="-2.247609" lat="53.109714"><ele>127.426849</ele><time>2022-03-04T10:49:31Z</time><extensions><speed>0.009301</speed><course>264.703735</course><hAcc>1.737648</hAcc><vAcc>0.817453</vAcc></extensions></trkpt>
      <trkpt lon="-2.247609" lat="53.109714"><ele>127.404961</ele><time>2022-03-04T10:49:32Z</time><extensions><speed>0.009874</speed><course>246.234848</course><hAcc>1.749716</hAcc><vAcc>0.818174</vAcc></extensions></trkpt>
      <trkpt lon="-2.247610" lat="53.109714"><ele>127.384735</ele><time>2022-03-04T10:49:33Z</time><extensions><speed>0.010667</speed><course>240.542831</course><hAcc>1.726337</hAcc><vAcc>0.818779</vAcc></extensions></trkpt>
      <trkpt lon="-2.247610" lat="53.109714"><ele>127.366318</ele><time>2022-03-04T10:49:34Z</time><extensions><speed>0.009057</speed><course>238.328918</course><hAcc>1.719692</hAcc><vAcc>0.819294</vAcc></extensions></trkpt>
      <trkpt lon="-2.247610" lat="53.109714"><ele>127.349785</ele><time>2022-03-04T10:49:35Z</time><extensions><speed>0.006736</speed><course>237.094543</course><hAcc>1.727561</hAcc><vAcc>0.819734</vAcc></extensions></trkpt>
      <trkpt lon="-2.247610" lat="53.109714"><ele>127.335136</ele><time>2022-03-04T10:49:35Z</time><extensions><speed>0.004788</speed><course>236.269958</course><hAcc>1.730776</hAcc><vAcc>0.820119</vAcc></extensions></trkpt>
      <trkpt lon="-2.247610" lat="53.109714"><ele>127.355392</ele><time>2022-03-04T10:49:36Z</time><extensions><speed>0.001574</speed><course>28.379606</course><hAcc>1.731975</hAcc><vAcc>0.820469</vAcc></extensions></trkpt>
      <trkpt lon="-2.247610" lat="53.109714"><ele>127.382263</ele><time>2022-03-04T10:49:37Z</time><extensions><speed>0.007960</speed><course>44.591522</course><hAcc>1.729038</hAcc><vAcc>0.820813</vAcc></extensions></trkpt>
      <trkpt lon="-2.247609" lat="53.109714"><ele>127.415779</ele><time>2022-03-04T10:49:38Z</time><extensions><speed>0.015672</speed><course>46.054829</course><hAcc>1.715416</hAcc><vAcc>0.821142</vAcc></extensions></trkpt>
      <trkpt lon="-2.247609" lat="53.109714"><ele>127.434006</ele><time>2022-03-04T10:49:39Z</time><extensions><speed>0.023588</speed><course>46.622169</course><hAcc>1.704079</hAcc><vAcc>0.821444</vAcc></extensions></trkpt>
      <trkpt lon="-2.247609" lat="53.109715"><ele>127.453957</ele><time>2022-03-04T10:49:40Z</time><extensions><speed>0.033072</speed><course>46.886284</course><hAcc>1.697180</hAcc><vAcc>0.821710</vAcc></extensions></trkpt>
      <trkpt lon="-2.247609" lat="53.109715"><ele>127.476387</ele><time>2022-03-04T10:49:41Z</time><extensions><speed>0.044682</speed><course>47.013580</course><hAcc>1.698871</hAcc><vAcc>0.821943</vAcc></extensions></trkpt>
      <trkpt lon="-2.247608" lat="53.109715"><ele>127.500839</ele><time>2022-03-04T10:49:42Z</time><extensions><speed>0.058145</speed><course>47.094898</course><hAcc>1.715025</hAcc><vAcc>0.822144</vAcc></extensions></trkpt>
      <trkpt lon="-2.247607" lat="53.109716"><ele>127.526695</ele><time>2022-03-04T10:49:43Z</time><extensions><speed>0.080429</speed><course>47.173950</course><hAcc>1.726572</hAcc><vAcc>0.822330</vAcc></extensions></trkpt>
      <trkpt lon="-2.247606" lat="53.109716"><ele>127.553116</ele><time>2022-03-04T10:49:44Z</time><extensions><speed>0.139135</speed><course>47.262535</course><hAcc>1.704160</hAcc><vAcc>0.822485</vAcc></extensions></trkpt>
      <trkpt lon="-2.247604" lat="53.109717"><ele>127.579063</ele><time>2022-03-04T10:49:45Z</time><extensions><speed>0.178345</speed><course>47.395512</course><hAcc>1.703223</hAcc><vAcc>0.822620</vAcc></extensions></trkpt>
      <trkpt lon="-2.247602" lat="53.109718"><ele>127.603256</ele><time>2022-03-04T10:49:46Z</time><extensions><speed>0.170508</speed><course>47.720924</course><hAcc>1.720345</hAcc><vAcc>0.822732</vAcc></extensions></trkpt>
      <trkpt lon="-2.247601" lat="53.109719"><ele>127.624382</ele><time>2022-03-04T10:49:47Z</time><extensions><speed>0.128498</speed><course>48.511669</course><hAcc>1.731377</hAcc><vAcc>0.822816</vAcc></extensions></trkpt>
      <trkpt lon="-2.247599" lat="53.109720"><ele>127.641624</ele><time>2022-03-04T10:49:48Z</time><extensions><speed>0.079626</speed><course>50.235260</course><hAcc>1.734834</hAcc><vAcc>0.822869</vAcc></extensions></trkpt>
      <trkpt lon="-2.247599" lat="53.109720"><ele>127.654854</ele><time>2022-03-04T10:49:49Z</time><extensions><speed>0.043449</speed><course>53.340477</course><hAcc>1.730496</hAcc><vAcc>0.822891</vAcc></extensions></trkpt>
      <trkpt lon="-2.247598" lat="53.109720"><ele>127.664490</ele><time>2022-03-04T10:49:50Z</time><extensions><speed>0.023175</speed><course>57.356728</course><hAcc>1.720148</hAcc><vAcc>0.822890</vAcc></extensions></trkpt>
      <trkpt lon="-2.247598" lat="53.109720"><ele>127.671089</ele><time>2022-03-04T10:49:51Z</time><extensions><speed>0.011842</speed><course>62.336624</course><hAcc>1.709784</hAcc><vAcc>0.822867</vAcc></extensions></trkpt>
      <trkpt lon="-2.247598" lat="53.109720"><ele>127.675179</ele><time>2022-03-04T10:49:52Z</time><extensions><speed>0.005794</speed><course>68.840988</course><hAcc>1.701663</hAcc><vAcc>0.822821</vAcc></extensions></trkpt>
      <trkpt lon="-2.247598" lat="53.109720"><ele>127.677216</ele><time>2022-03-04T10:49:53Z</time><extensions><speed>0.002812</speed><course>77.527908</course><hAcc>1.696433</hAcc><vAcc>0.822772</vAcc></extensions></trkpt>
      <trkpt lon="-2.247598" lat="53.109720"><ele>127.677628</ele><time>2022-03-04T10:49:54Z</time><extensions><speed>0.001331</speed><course>89.029709</course><hAcc>1.696620</hAcc><vAcc>0.822713</vAcc></extensions></trkpt>
      <trkpt lon="-2.247598" lat="53.109720"><ele>127.676773</ele><time>2022-03-04T10:49:55Z</time><extensions><speed>0.000785</speed><course>102.128212</course><hAcc>1.695326</hAcc><vAcc>0.822652</vAcc></extensions></trkpt>
      <trkpt lon="-2.247598" lat="53.109720"><ele>127.674957</ele><time>2022-03-04T10:49:56Z</time><extensions><speed>0.000373</speed><course>114.888092</course><hAcc>1.724530</hAcc><vAcc>0.822582</vAcc></extensions></trkpt>
      <trkpt lon="-2.247598" lat="53.109720"><ele>127.672447</ele><time>2022-03-04T10:49:57Z</time><extensions><speed>0.000315</speed><course>126.275124</course><hAcc>1.702567</hAcc><vAcc>0.822509</vAcc></extensions></trkpt>
      <trkpt lon="-2.247598" lat="53.109720"><ele>127.669479</ele><time>2022-03-04T10:49:58Z</time><extensions><speed>0.000238</speed><course>132.585953</course><hAcc>1.704507</hAcc><vAcc>0.822440</vAcc></extensions></trkpt>
      <trkpt lon="-2.247598" lat="53.109720"><ele>127.675072</ele><time>2022-03-04T10:49:59Z</time><extensions><speed>0.001755</speed><course>159.915878</course><hAcc>1.721447</hAcc><vAcc>0.822379</vAcc></extensions></trkpt>
      <trkpt lon="-2.247598" lat="53.109720"><ele>127.681854</ele><time>2022-03-04T10:50:00Z</time><extensions><speed>0.004108</speed><course>161.706894</course><hAcc>1.737254</hAcc><vAcc>0.822335</vAcc></extensions></trkpt>
      <trkpt lon="-2.247598" lat="53.109720"><ele>127.689949</ele><time>2022-03-04T10:50:01Z</time><extensions><speed>0.007451</speed><course>162.134613</course><hAcc>1.748057</hAcc><vAcc>0.822310</vAcc></extensions></trkpt>
      <trkpt lon="-2.247598" lat="53.109720"><ele>127.699448</ele><time>2022-03-04T10:50:02Z</time><extensions><speed>0.012299</speed><course>162.270493</course><hAcc>1.754376</hAcc><vAcc>0.822319</vAcc></extensions></trkpt>
      <trkpt lon="-2.247598" lat="53.109720"><ele>127.702438</ele><time>2022-03-04T10:50:03Z</time><extensions><speed>0.019294</speed><course>164.894150</course><hAcc>1.756336</hAcc><vAcc>0.822350</vAcc></extensions></trkpt>
      <trkpt lon="-2.247598" lat="53.109720"><ele>127.705872</ele><time>2022-03-04T10:50:04Z</time><extensions><speed>0.028881</speed><course>166.938171</course><hAcc>1.753858</hAcc><vAcc>0.822404</vAcc></extensions></trkpt>
      <trkpt lon="-2.247598" lat="53.109719"><ele>127.713364</ele><time>2022-03-04T10:50:05Z</time><extensions><speed>0.041814</speed><course>168.620773</course><hAcc>1.744549</hAcc><vAcc>0.822467</vAcc></extensions></trkpt>
      <trkpt lon="-2.247597" lat="53.109719"><ele>127.721535</ele><time>2022-03-04T10:50:06Z</time><extensions><speed>0.058156</speed><course>169.886551</course><hAcc>1.730643</hAcc><vAcc>0.822538</vAcc></extensions></trkpt>
      <trkpt lon="-2.247597" lat="53.109718"><ele>127.730209</ele><time>2022-03-04T10:50:07Z</time><extensions><speed>0.073266</speed><course>171.213974</course><hAcc>1.721393</hAcc><vAcc>0.822625</vAcc></extensions></trkpt>
      <trkpt lon="-2.247597" lat="53.109718"><ele>127.739105</ele><time>2022-03-04T10:50:08Z</time><extensions><speed>0.080590</speed><course>173.375626</course><hAcc>1.723501</hAcc><vAcc>0.822747</vAcc></extensions></trkpt>
      <trkpt lon="-2.247597" lat="53.109717"><ele>127.747894</ele><time>2022-03-04T10:50:09Z</time><extensions><speed>0.067401</speed><course>179.547791</course><hAcc>1.735736</hAcc><vAcc>0.822875</vAcc></extensions></trkpt>
      <trkpt lon="-2.247597" lat="53.109717"><ele>127.756180</ele><time>2022-03-04T10:50:10Z</time><extensions><speed>0.050802</speed><course>197.231369</course><hAcc>1.729797</hAcc><vAcc>0.823017</vAcc></extensions></trkpt>
      <trkpt lon="-2.247598" lat="53.109716"><ele>127.763718</ele><time>2022-03-04T10:50:11Z</time><extensions><speed>0.049645</speed><course>228.951187</course><hAcc>1.702534</hAcc><vAcc>0.823161</vAcc></extensions></trkpt>
      <trkpt lon="-2.247598" lat="53.109716"><ele>127.770386</ele><time>2022-03-04T10:50:12Z</time><extensions><speed>0.057561</speed><course>258.402618</course><hAcc>1.694646</hAcc><vAcc>0.823304</vAcc></extensions></trkpt>
      <trkpt lon="-2.247599" lat="53.109716"><ele>127.776245</ele><time>2022-03-04T10:50:13Z</time><extensions><speed>0.064557</speed><course>277.345673</course><hAcc>1.711129</hAcc><vAcc>0.823438</vAcc></extensions></trkpt>
      <trkpt lon="-2.247600" lat="53.109716"><ele>127.781448</ele><time>2022-03-04T10:50:14Z</time><extensions><speed>0.055291</speed><course>290.352417</course><hAcc>1.741175</hAcc><vAcc>0.823554</vAcc></extensions></trkpt>
      <trkpt lon="-2.247601" lat="53.109716"><ele>127.786095</ele><time>2022-03-04T10:50:15Z</time><extensions><speed>0.060736</speed><course>297.107971</course><hAcc>1.720224</hAcc><vAcc>0.823647</vAcc></extensions></trkpt>
      <trkpt lon="-2.247602" lat="53.109717"><ele>127.790215</ele><time>2022-03-04T10:50:16Z</time><extensions><speed>0.051520</speed><course>299.659668</course><hAcc>1.712844</hAcc><vAcc>0.823720</vAcc></extensions></trkpt>
      <trkpt lon="-2.247602" lat="53.109717"><ele>127.793816</ele><time>2022-03-04T10:50:17Z</time><extensions><speed>0.038315</speed><course>301.064392</course><hAcc>1.720633</hAcc><vAcc>0.823795</vAcc></extensions></trkpt>
      <trkpt lon="-2.247603" lat="53.109717"><ele>127.796928</ele><time>2022-03-04T10:50:18Z</time><extensions><speed>0.027224</speed><course>301.991638</course><hAcc>1.724039</hAcc><vAcc>0.823850</vAcc></extensions></trkpt>
      <trkpt lon="-2.247603" lat="53.109717"><ele>127.799583</ele><time>2022-03-04T10:50:19Z</time><extensions><speed>0.018533</speed><course>302.657135</course><hAcc>1.722487</hAcc><vAcc>0.823890</vAcc></extensions></trkpt>
      <trkpt lon="-2.247603" lat="53.109717"><ele>127.801811</ele><time>2022-03-04T10:50:20Z</time><extensions><speed>0.012014</speed><course>303.173279</course><hAcc>1.718002</hAcc><vAcc>0.823923</vAcc></extensions></trkpt>
      <trkpt lon="-2.247603" lat="53.109717"><ele>127.803650</ele><time>2022-03-04T10:50:21Z</time><extensions><speed>0.007805</speed><course>303.592804</course><hAcc>1.708090</hAcc><vAcc>0.823951</vAcc></extensions></trkpt>
      <trkpt lon="-2.247603" lat="53.109717"><ele>127.805153</ele><time>2022-03-04T10:50:22Z</time><extensions><speed>0.004753</speed><course>303.941650</course><hAcc>1.703361</hAcc><vAcc>0.823977</vAcc></extensions></trkpt>
      <trkpt lon="-2.247603" lat="53.109717"><ele>127.806343</ele><time>2022-03-04T10:50:23Z</time><extensions><speed>0.002928</speed><course>304.242401</course><hAcc>1.700343</hAcc><vAcc>0.824000</vAcc></extensions></trkpt>
      <trkpt lon="-2.247603" lat="53.109717"><ele>127.807266</ele><time>2022-03-04T10:50:24Z</time><extensions><speed>0.001715</speed><course>304.495544</course><hAcc>1.713356</hAcc><vAcc>0.824029</vAcc></extensions></trkpt>
      <trkpt lon="-2.247603" lat="53.109717"><ele>127.807961</ele><time>2022-03-04T10:50:25Z</time><extensions><speed>0.000907</speed><course>304.728760</course><hAcc>1.732380</hAcc><vAcc>0.824060</vAcc></extensions></trkpt>
      <trkpt lon="-2.247603" lat="53.109717"><ele>127.808456</ele><time>2022-03-04T10:50:26Z</time><extensions><speed>0.000728</speed><course>304.923645</course><hAcc>1.709218</hAcc><vAcc>0.824089</vAcc></extensions></trkpt>
      <trkpt lon="-2.247603" lat="53.109717"><ele>127.811150</ele><time>2022-03-04T10:50:27Z</time><extensions><speed>0.004128</speed><course>316.511047</course><hAcc>1.707290</hAcc><vAcc>0.824122</vAcc></extensions></trkpt>
      <trkpt lon="-2.247604" lat="53.109717"><ele>127.810249</ele><time>2022-03-04T10:50:28Z</time><extensions><speed>0.008953</speed><course>316.088684</course><hAcc>1.722043</hAcc><vAcc>0.824155</vAcc></extensions></trkpt>
      <trkpt lon="-2.247604" lat="53.109717"><ele>127.808632</ele><time>2022-03-04T10:50:29Z</time><extensions><speed>0.015951</speed><course>315.813721</course><hAcc>1.735509</hAcc><vAcc>0.824184</vAcc></extensions></trkpt>
      <trkpt lon="-2.247604" lat="53.109718"><ele>127.811821</ele><time>2022-03-04T10:50:30Z</time><extensions><speed>0.025152</speed><course>315.788574</course><hAcc>1.745093</hAcc><vAcc>0.824219</vAcc></extensions></trkpt>
      <trkpt lon="-2.247604" lat="53.109718"><ele>127.815437</ele><time>2022-03-04T10:50:31Z</time><extensions><speed>0.038787</speed><course>315.753418</course><hAcc>1.746704</hAcc><vAcc>0.824253</vAcc></extensions></trkpt>
      <trkpt lon="-2.247605" lat="53.109718"><ele>127.822517</ele><time>2022-03-04T10:50:32Z</time><extensions><speed>0.055928</speed><course>315.749847</course><hAcc>1.745019</hAcc><vAcc>0.824281</vAcc></extensions></trkpt>
      <trkpt lon="-2.247605" lat="53.109719"><ele>127.830513</ele><time>2022-03-04T10:50:33Z</time><extensions><speed>0.078492</speed><course>315.709686</course><hAcc>1.743448</hAcc><vAcc>0.824296</vAcc></extensions></trkpt>
      <trkpt lon="-2.247606" lat="53.109719"><ele>127.839417</ele><time>2022-03-04T10:50:34Z</time><extensions><speed>0.103928</speed><course>315.625977</course><hAcc>1.746504</hAcc><vAcc>0.824295</vAcc></extensions></trkpt>
      <trkpt lon="-2.247608" lat="53.109720"><ele>127.849213</ele><time>2022-03-04T10:50:35Z</time><extensions><speed>0.133518</speed><course>315.475861</course><hAcc>1.747222</hAcc><vAcc>0.824280</vAcc></extensions></trkpt>
      <trkpt lon="-2.247609" lat="53.109721"><ele>127.868706</ele><time>2022-03-04T10:50:36Z</time><extensions><speed>0.157719</speed><course>314.640564</course><hAcc>1.743990</hAcc><vAcc>0.824248</vAcc></extensions></trkpt>
      <trkpt lon="-2.247611" lat="53.109722"><ele>127.891029</ele><time>2022-03-04T10:50:37Z</time><extensions><speed>0.149411</speed><course>312.908081</course><hAcc>1.737150</hAcc><vAcc>0.824204</vAcc></extensions></trkpt>
      <trkpt lon="-2.247612" lat="53.109722"><ele>127.916061</ele><time>2022-03-04T10:50:38Z</time><extensions><speed>0.095258</speed><course>308.990967</course><hAcc>1.738126</hAcc><vAcc>0.824143</vAcc></extensions></trkpt>
      <trkpt lon="-2.247613" lat="53.109723"><ele>127.943916</ele><time>2022-03-04T10:50:39Z</time><extensions><speed>0.038776</speed><course>294.470795</course><hAcc>1.736421</hAcc><vAcc>0.824062</vAcc></extensions></trkpt>
      <trkpt lon="-2.247613" lat="53.109723"><ele>127.971161</ele><time>2022-03-04T10:50:40Z</time><extensions><speed>0.022421</speed><course>191.640060</course><hAcc>1.732616</hAcc><vAcc>0.823937</vAcc></extensions></trkpt>
      <trkpt lon="-2.247613" lat="53.109722"><ele>127.999687</ele><time>2022-03-04T10:50:41Z</time><extensions><speed>0.050500</speed><course>166.256439</course><hAcc>1.731030</hAcc><vAcc>0.823795</vAcc></extensions></trkpt>
      <trkpt lon="-2.247613" lat="53.109722"><ele>128.029114</ele><time>2022-03-04T10:50:42Z</time><extensions><speed>0.060099</speed><course>171.629700</course><hAcc>1.730281</hAcc><vAcc>0.823626</vAcc></extensions></trkpt>
      <trkpt lon="-2.247613" lat="53.109721"><ele>128.058975</ele><time>2022-03-04T10:50:43Z</time><extensions><speed>0.064727</speed><course>188.797775</course><hAcc>1.715734</hAcc><vAcc>0.823449</vAcc></extensions></trkpt>
      <trkpt lon="-2.247614" lat="53.109721"><ele>128.088852</ele><time>2022-03-04T10:50:44Z</time><extensions><speed>0.068804</speed><course>207.388992</course><hAcc>1.721971</hAcc><vAcc>0.823247</vAcc></extensions></trkpt>
      <trkpt lon="-2.247614" lat="53.109720"><ele>128.118225</ele><time>2022-03-04T10:50:45Z</time><extensions><speed>0.066813</speed><course>219.810394</course><hAcc>1.747580</hAcc><vAcc>0.823027</vAcc></extensions></trkpt>
      <trkpt lon="-2.247615" lat="53.109720"><ele>128.146591</ele><time>2022-03-04T10:50:46Z</time><extensions><speed>0.085393</speed><course>219.355423</course><hAcc>1.722938</hAcc><vAcc>0.822806</vAcc></extensions></trkpt>
      <trkpt lon="-2.247615" lat="53.109719"><ele>128.173416</ele><time>2022-03-04T10:50:47Z</time><extensions><speed>0.081747</speed><course>208.487076</course><hAcc>1.710912</hAcc><vAcc>0.822599</vAcc></extensions></trkpt>
      <trkpt lon="-2.247616" lat="53.109719"><ele>128.198227</ele><time>2022-03-04T10:50:48Z</time><extensions><speed>0.073372</speed><course>196.596725</course><hAcc>1.712366</hAcc><vAcc>0.822405</vAcc></extensions></trkpt>
      <trkpt lon="-2.247616" lat="53.109718"><ele>128.220795</ele><time>2022-03-04T10:50:50Z</time><extensions><speed>0.061381</speed><course>188.947525</course><hAcc>1.716720</hAcc><vAcc>0.822225</vAcc></extensions></trkpt>
      <trkpt lon="-2.247616" lat="53.109717"><ele>128.240906</ele><time>2022-03-04T10:50:51Z</time><extensions><speed>0.048663</speed><course>184.382401</course><hAcc>1.717112</hAcc><vAcc>0.822043</vAcc></extensions></trkpt>
      <trkpt lon="-2.247616" lat="53.109717"><ele>128.258636</ele><time>2022-03-04T10:50:52Z</time><extensions><speed>0.034776</speed><course>181.737137</course><hAcc>1.720649</hAcc><vAcc>0.821869</vAcc></extensions></trkpt>
      <trkpt lon="-2.247616" lat="53.109717"><ele>128.274033</ele><time>2022-03-04T10:50:53Z</time><extensions><speed>0.023358</speed><course>179.990463</course><hAcc>1.731871</hAcc><vAcc>0.821686</vAcc></extensions></trkpt>
      <trkpt lon="-2.247616" lat="53.109717"><ele>128.287231</ele><time>2022-03-04T10:50:54Z</time><extensions><speed>0.014373</speed><course>178.693039</course><hAcc>1.745130</hAcc><vAcc>0.821497</vAcc></extensions></trkpt>
      <trkpt lon="-2.247616" lat="53.109717"><ele>128.298416</ele><time>2022-03-04T10:50:55Z</time><extensions><speed>0.011614</speed><course>177.753708</course><hAcc>1.725927</hAcc><vAcc>0.821307</vAcc></extensions></trkpt>
      <trkpt lon="-2.247616" lat="53.109716"><ele>128.307724</ele><time>2022-03-04T10:50:56Z</time><extensions><speed>0.008562</speed><course>177.186447</course><hAcc>1.723359</hAcc><vAcc>0.821107</vAcc></extensions></trkpt>
      <trkpt lon="-2.247616" lat="53.109716"><ele>128.315353</ele><time>2022-03-04T10:50:57Z</time><extensions><speed>0.005882</speed><course>176.786667</course><hAcc>1.734682</hAcc><vAcc>0.820916</vAcc></extensions></trkpt>
      <trkpt lon="-2.247616" lat="53.109716"><ele>128.321487</ele><time>2022-03-04T10:50:58Z</time><extensions><speed>0.003854</speed><course>176.471375</course><hAcc>1.743865</hAcc><vAcc>0.820751</vAcc></extensions></trkpt>
      <trkpt lon="-2.247616" lat="53.109716"><ele>128.326324</ele><time>2022-03-04T10:50:59Z</time><extensions><speed>0.002452</speed><course>176.203522</course><hAcc>1.745648</hAcc><vAcc>0.820584</vAcc></extensions></trkpt>
      <trkpt lon="-2.247616" lat="53.109716"><ele>128.330002</ele><time>2022-03-04T10:51:00Z</time><extensions><speed>0.001510</speed><course>175.963272</course><hAcc>1.742643</hAcc><vAcc>0.820403</vAcc></extensions></trkpt>
      <trkpt lon="-2.247616" lat="53.109716"><ele>128.326202</ele><time>2022-03-04T10:51:01Z</time><extensions><speed>0.002922</speed><course>172.452499</course><hAcc>1.736439</hAcc><vAcc>0.820217</vAcc></extensions></trkpt>
      <trkpt lon="-2.247616" lat="53.109716"><ele>128.321503</ele><time>2022-03-04T10:51:02Z</time><extensions><speed>0.005046</speed><course>172.693161</course><hAcc>1.725791</hAcc><vAcc>0.820051</vAcc></extensions></trkpt>
      <trkpt lon="-2.247616" lat="53.109716"><ele>128.315308</ele><time>2022-03-04T10:51:03Z</time><extensions><speed>0.007839</speed><course>172.853378</course><hAcc>1.709202</hAcc><vAcc>0.819962</vAcc></extensions></trkpt>
      <trkpt lon="-2.247616" lat="53.109716"><ele>128.307693</ele><time>2022-03-04T10:51:04Z</time><extensions><speed>0.011178</speed><course>172.941437</course><hAcc>1.690166</hAcc><vAcc>0.819924</vAcc></extensions></trkpt>
      <trkpt lon="-2.247616" lat="53.109716"><ele>128.298782</ele><time>2022-03-04T10:51:05Z</time><extensions><speed>0.014737</speed><course>172.990662</course><hAcc>1.675861</hAcc><vAcc>0.819937</vAcc></extensions></trkpt>
      <trkpt lon="-2.247616" lat="53.109716"><ele>128.288696</ele><time>2022-03-04T10:51:06Z</time><extensions><speed>0.018326</speed><course>173.025604</course><hAcc>1.676272</hAcc><vAcc>0.820006</vAcc></extensions></trkpt>
      <trkpt lon="-2.247616" lat="53.109716"><ele>128.277588</ele><time>2022-03-04T10:51:07Z</time><extensions><speed>0.020491</speed><course>173.071869</course><hAcc>1.695230</hAcc><vAcc>0.820121</vAcc></extensions></trkpt>
      <trkpt lon="-2.247616" lat="53.109715"><ele>128.265640</ele><time>2022-03-04T10:51:08Z</time><extensions><speed>0.032526</speed><course>173.143021</course><hAcc>1.681180</hAcc><vAcc>0.820263</vAcc></extensions></trkpt>
      <trkpt lon="-2.247616" lat="53.109715"><ele>128.253036</ele><time>2022-03-04T10:51:09Z</time><extensions><speed>0.050846</speed><course>173.247223</course><hAcc>1.667253</hAcc><vAcc>0.820396</vAcc></extensions></trkpt>
      <trkpt lon="-2.247616" lat="53.109714"><ele>128.240067</ele><time>2022-03-04T10:51:10Z</time><extensions><speed>0.053855</speed><course>173.474045</course><hAcc>1.696668</hAcc><vAcc>0.820530</vAcc></extensions></trkpt>
      <trkpt lon="-2.247616" lat="53.109714"><ele>128.227020</ele><time>2022-03-04T10:51:11Z</time><extensions><speed>0.067248</speed><course>173.992691</course><hAcc>1.691406</hAcc><vAcc>0.820685</vAcc></extensions></trkpt>
      <trkpt lon="-2.247616" lat="53.109713"><ele>128.214264</ele><time>2022-03-04T10:51:12Z</time><extensions><speed>0.060484</speed><course>174.527573</course><hAcc>1.699049</hAcc><vAcc>0.820801</vAcc></extensions></trkpt>
      <trkpt lon="-2.247616" lat="53.109713"><ele>128.200104</ele><time>2022-03-04T10:51:13Z</time><extensions><speed>0.045433</speed><course>176.298691</course><hAcc>1.716899</hAcc><vAcc>0.820895</vAcc></extensions></trkpt>
      <trkpt lon="-2.247616" lat="53.109713"><ele>128.191132</ele><time>2022-03-04T10:51:14Z</time><extensions><speed>0.030170</speed><course>180.129410</course><hAcc>1.730327</hAcc><vAcc>0.820925</vAcc></extensions></trkpt>
      <trkpt lon="-2.247616" lat="53.109712"><ele>128.183441</ele><time>2022-03-04T10:51:15Z</time><extensions><speed>0.016985</speed><course>191.582626</course><hAcc>1.734995</hAcc><vAcc>0.820871</vAcc></extensions></trkpt>
      <trkpt lon="-2.247616" lat="53.109712"><ele>128.177139</ele><time>2022-03-04T10:51:16Z</time><extensions><speed>0.008940</speed><course>235.865875</course><hAcc>1.729921</hAcc><vAcc>0.820732</vAcc></extensions></trkpt>
      <trkpt lon="-2.247616" lat="53.109712"><ele>128.172241</ele><time>2022-03-04T10:51:17Z</time><extensions><speed>0.013297</speed><course>294.998505</course><hAcc>1.722590</hAcc><vAcc>0.820491</vAcc></extensions></trkpt>
      <trkpt lon="-2.247616" lat="53.109712"><ele>128.168762</ele><time>2022-03-04T10:51:18Z</time><extensions><speed>0.023298</speed><course>311.972107</course><hAcc>1.716221</hAcc><vAcc>0.820176</vAcc></extensions></trkpt>
      <trkpt lon="-2.247617" lat="53.109713"><ele>128.166672</ele><time>2022-03-04T10:51:19Z</time><extensions><speed>0.034691</speed><course>317.253998</course><hAcc>1.708582</hAcc><vAcc>0.819842</vAcc></extensions></trkpt>
      <trkpt lon="-2.247617" lat="53.109713"><ele>128.161758</ele><time>2022-03-04T10:51:20Z</time><extensions><speed>0.044397</speed><course>318.303314</course><hAcc>1.703793</hAcc><vAcc>0.819483</vAcc></extensions></trkpt>
      <trkpt lon="-2.247617" lat="53.109713"><ele>128.157486</ele><time>2022-03-04T10:51:21Z</time><extensions><speed>0.052208</speed><course>318.513184</course><hAcc>1.712344</hAcc><vAcc>0.819135</vAcc></extensions></trkpt>
      <trkpt lon="-2.247618" lat="53.109713"><ele>128.153702</ele><time>2022-03-04T10:51:22Z</time><extensions><speed>0.054557</speed><course>318.197662</course><hAcc>1.723164</hAcc><vAcc>0.818800</vAcc></extensions></trkpt>
      <trkpt lon="-2.247618" lat="53.109714"><ele>128.150284</ele><time>2022-03-04T10:51:23Z</time><extensions><speed>0.064083</speed><course>316.946594</course><hAcc>1.692344</hAcc><vAcc>0.818527</vAcc></extensions></trkpt>
      <trkpt lon="-2.247619" lat="53.109714"><ele>128.147018</ele><time>2022-03-04T10:51:24Z</time><extensions><speed>0.044795</speed><course>312.483612</course><hAcc>1.687150</hAcc><vAcc>0.818321</vAcc></extensions></trkpt>
      <trkpt lon="-2.247619" lat="53.109714"><ele>128.143692</ele><time>2022-03-04T10:51:25Z</time><extensions><speed>0.018408</speed><course>288.832031</course><hAcc>1.702392</hAcc><vAcc>0.818168</vAcc></extensions></trkpt>
      <trkpt lon="-2.247620" lat="53.109714"><ele>128.140106</ele><time>2022-03-04T10:51:26Z</time><extensions><speed>0.020577</speed><course>184.439331</course><hAcc>1.717116</hAcc><vAcc>0.818074</vAcc></extensions></trkpt>
      <trkpt lon="-2.247619" lat="53.109714"><ele>128.138824</ele><time>2022-03-04T10:51:27Z</time><extensions><speed>0.051060</speed><course>163.821625</course><hAcc>1.721622</hAcc><vAcc>0.818013</vAcc></extensions></trkpt>
      <trkpt lon="-2.247619" lat="53.109713"><ele>128.137543</ele><time>2022-03-04T10:51:28Z</time><extensions><speed>0.083702</speed><course>159.243408</course><hAcc>1.728322</hAcc><vAcc>0.818080</vAcc></extensions></trkpt>
      <trkpt lon="-2.247619" lat="53.109713"><ele>128.136276</ele><time>2022-03-04T10:51:29Z</time><extensions><speed>0.105403</speed><course>157.323502</course><hAcc>1.740806</hAcc><vAcc>0.818247</vAcc></extensions></trkpt>
      <trkpt lon="-2.247618" lat="53.109712"><ele>128.135178</ele><time>2022-03-04T10:51:30Z</time><extensions><speed>0.126167</speed><course>156.057098</course><hAcc>1.725235</hAcc><vAcc>0.818509</vAcc></extensions></trkpt>
      <trkpt lon="-2.247617" lat="53.109711"><ele>128.134384</ele><time>2022-03-04T10:51:31Z</time><extensions><speed>0.107631</speed><course>153.995117</course><hAcc>1.721557</hAcc><vAcc>0.818853</vAcc></extensions></trkpt>
      <trkpt lon="-2.247616" lat="53.109710"><ele>128.134048</ele><time>2022-03-04T10:51:32Z</time><extensions><speed>0.079022</speed><course>149.318466</course><hAcc>1.724932</hAcc><vAcc>0.819259</vAcc></extensions></trkpt>
      <trkpt lon="-2.247616" lat="53.109709"><ele>128.134247</ele><time>2022-03-04T10:51:33Z</time><extensions><speed>0.053243</speed><course>139.034119</course><hAcc>1.726572</hAcc><vAcc>0.819714</vAcc></extensions></trkpt>
      <trkpt lon="-2.247615" lat="53.109709"><ele>128.135040</ele><time>2022-03-04T10:51:34Z</time><extensions><speed>0.036031</speed><course>117.901131</course><hAcc>1.728493</hAcc><vAcc>0.820185</vAcc></extensions></trkpt>
      <trkpt lon="-2.247615" lat="53.109709"><ele>128.136398</ele><time>2022-03-04T10:51:35Z</time><extensions><speed>0.032097</speed><course>89.041252</course><hAcc>1.733572</hAcc><vAcc>0.820666</vAcc></extensions></trkpt>
      <trkpt lon="-2.247614" lat="53.109709"><ele>128.138290</ele><time>2022-03-04T10:51:36Z</time><extensions><speed>0.032824</speed><course>68.008575</course><hAcc>1.747211</hAcc><vAcc>0.821168</vAcc></extensions></trkpt>
      <trkpt lon="-2.247614" lat="53.109709"><ele>128.134491</ele><time>2022-03-04T10:51:37Z</time><extensions><speed>0.041784</speed><course>55.509735</course><hAcc>1.725766</hAcc><vAcc>0.821652</vAcc></extensions></trkpt>
      <trkpt lon="-2.247614" lat="53.109710"><ele>128.130600</ele><time>2022-03-04T10:51:38Z</time><extensions><speed>0.039161</speed><course>45.869423</course><hAcc>1.720618</hAcc><vAcc>0.822121</vAcc></extensions></trkpt>
      <trkpt lon="-2.247613" lat="53.109710"><ele>128.122894</ele><time>2022-03-04T10:51:39Z</time><extensions><speed>0.035358</speed><course>31.573866</course><hAcc>1.728391</hAcc><vAcc>0.822545</vAcc></extensions></trkpt>
      <trkpt lon="-2.247613" lat="53.109710"><ele>128.113876</ele><time>2022-03-04T10:51:40Z</time><extensions><speed>0.036745</speed><course>14.190539</course><hAcc>1.731711</hAcc><vAcc>0.822833</vAcc></extensions></trkpt>
      <trkpt lon="-2.247613" lat="53.109711"><ele>128.103561</ele><time>2022-03-04T10:51:41Z</time><extensions><speed>0.045349</speed><course>359.517609</course><hAcc>1.730091</hAcc><vAcc>0.823054</vAcc></extensions></trkpt>
      <trkpt lon="-2.247613" lat="53.109711"><ele>128.091904</ele><time>2022-03-04T10:51:41Z</time><extensions><speed>0.060075</speed><course>350.578033</course><hAcc>1.729800</hAcc><vAcc>0.823210</vAcc></extensions></trkpt>
      <trkpt lon="-2.247613" lat="53.109712"><ele>128.078918</ele><time>2022-03-04T10:51:42Z</time><extensions><speed>0.080020</speed><course>345.800232</course><hAcc>1.731871</hAcc><vAcc>0.823268</vAcc></extensions></trkpt>
      <trkpt lon="-2.247614" lat="53.109713"><ele>128.064682</ele><time>2022-03-04T10:51:43Z</time><extensions><speed>0.109400</speed><course>343.278351</course><hAcc>1.728908</hAcc><vAcc>0.823277</vAcc></extensions></trkpt>
      <trkpt lon="-2.247614" lat="53.109714"><ele>128.049332</ele><time>2022-03-04T10:51:44Z</time><extensions><speed>0.144989</speed><course>341.679260</course><hAcc>1.725750</hAcc><vAcc>0.823227</vAcc></extensions></trkpt>
      <trkpt lon="-2.247615" lat="53.109715"><ele>128.035538</ele><time>2022-03-04T10:51:45Z</time><extensions><speed>0.175541</speed><course>339.787781</course><hAcc>1.723920</hAcc><vAcc>0.823099</vAcc></extensions></trkpt>
      <trkpt lon="-2.247616" lat="53.109717"><ele>128.022003</ele><time>2022-03-04T10:51:46Z</time><extensions><speed>0.198478</speed><course>336.650665</course><hAcc>1.712252</hAcc><vAcc>0.822906</vAcc></extensions></trkpt>
      <trkpt lon="-2.247617" lat="53.109718"><ele>128.008789</ele><time>2022-03-04T10:51:47Z</time><extensions><speed>0.171517</speed><course>333.188385</course><hAcc>1.723369</hAcc><vAcc>0.822669</vAcc></extensions></trkpt>
      <trkpt lon="-2.247618" lat="53.109719"><ele>127.996269</ele><time>2022-03-04T10:51:48Z</time><extensions><speed>0.120464</speed><course>330.532074</course><hAcc>1.745684</hAcc><vAcc>0.822417</vAcc></extensions></trkpt>
      <trkpt lon="-2.247619" lat="53.109720"><ele>127.984810</ele><time>2022-03-04T10:51:49Z</time><extensions><speed>0.106214</speed><course>327.439362</course><hAcc>1.729357</hAcc><vAcc>0.822166</vAcc></extensions></trkpt>
      <trkpt lon="-2.247620" lat="53.109721"><ele>127.974670</ele><time>2022-03-04T10:51:50Z</time><extensions><speed>0.082339</speed><course>323.094055</course><hAcc>1.727792</hAcc><vAcc>0.821937</vAcc></extensions></trkpt>
      <trkpt lon="-2.247621" lat="53.109721"><ele>127.966011</ele><time>2022-03-04T10:51:51Z</time><extensions><speed>0.063040</speed><course>315.789642</course><hAcc>1.736184</hAcc><vAcc>0.821741</vAcc></extensions></trkpt>
      <trkpt lon="-2.247621" lat="53.109722"><ele>127.958908</ele><time>2022-03-04T10:51:52Z</time><extensions><speed>0.051195</speed><course>304.789703</course><hAcc>1.743428</hAcc><vAcc>0.821582</vAcc></extensions></trkpt>
      <trkpt lon="-2.247622" lat="53.109722"><ele>127.953354</ele><time>2022-03-04T10:51:53Z</time><extensions><speed>0.047556</speed><course>292.567017</course><hAcc>1.744125</hAcc><vAcc>0.821460</vAcc></extensions></trkpt>
      <trkpt lon="-2.247623" lat="53.109722"><ele>127.949257</ele><time>2022-03-04T10:51:54Z</time><extensions><speed>0.047775</speed><course>283.523224</course><hAcc>1.738313</hAcc><vAcc>0.821365</vAcc></extensions></trkpt>
      <trkpt lon="-2.247623" lat="53.109722"><ele>127.946480</ele><time>2022-03-04T10:51:55Z</time><extensions><speed>0.044119</speed><course>279.814484</course><hAcc>1.727119</hAcc><vAcc>0.821292</vAcc></extensions></trkpt>
      <trkpt lon="-2.247624" lat="53.109722"><ele>127.944809</ele><time>2022-03-04T10:51:56Z</time><extensions><speed>0.032993</speed><course>279.151917</course><hAcc>1.720689</hAcc><vAcc>0.821242</vAcc></extensions></trkpt>
      <trkpt lon="-2.247624" lat="53.109722"><ele>127.944038</ele><time>2022-03-04T10:51:57Z</time><extensions><speed>0.023132</speed><course>278.723755</course><hAcc>1.711834</hAcc><vAcc>0.821214</vAcc></extensions></trkpt>
      <trkpt lon="-2.247624" lat="53.109722"><ele>127.956688</ele><time>2022-03-04T10:51:58Z</time><extensions><speed>0.010709</speed><course>265.000183</course><hAcc>1.702085</hAcc><vAcc>0.821196</vAcc></extensions></trkpt>
      <trkpt lon="-2.247624" lat="53.109722"><ele>127.972008</ele><time>2022-03-04T10:51:59Z</time><extensions><speed>0.005327</speed><course>186.793777</course><hAcc>1.686718</hAcc><vAcc>0.821203</vAcc></extensions></trkpt>
      <trkpt lon="-2.247624" lat="53.109722"><ele>127.989708</ele><time>2022-03-04T10:52:00Z</time><extensions><speed>0.012834</speed><course>139.778259</course><hAcc>1.670996</hAcc><vAcc>0.821217</vAcc></extensions></trkpt>
      <trkpt lon="-2.247624" lat="53.109722"><ele>128.009659</ele><time>2022-03-04T10:52:01Z</time><extensions><speed>0.022162</speed><course>131.153381</course><hAcc>1.659876</hAcc><vAcc>0.821227</vAcc></extensions></trkpt>
      <trkpt lon="-2.247624" lat="53.109722"><ele>128.031754</ele><time>2022-03-04T10:52:02Z</time><extensions><speed>0.032320</speed><course>128.319626</course><hAcc>1.655069</hAcc><vAcc>0.821220</vAcc></extensions></trkpt>
      <trkpt lon="-2.247623" lat="53.109721"><ele>128.055801</ele><time>2022-03-04T10:52:03Z</time><extensions><speed>0.043775</speed><course>127.129074</course><hAcc>1.653561</hAcc><vAcc>0.821236</vAcc></extensions></trkpt>
      <trkpt lon="-2.247622" lat="53.109721"><ele>128.081635</ele><time>2022-03-04T10:52:04Z</time><extensions><speed>0.067611</speed><course>126.628052</course><hAcc>1.636790</hAcc><vAcc>0.821271</vAcc></extensions></trkpt>
      <trkpt lon="-2.247622" lat="53.109721"><ele>128.109009</ele><time>2022-03-04T10:52:05Z</time><extensions><speed>0.085428</speed><course>126.402229</course><hAcc>1.645151</hAcc><vAcc>0.821319</vAcc></extensions></trkpt>
      <trkpt lon="-2.247620" lat="53.109720"><ele>128.136368</ele><time>2022-03-04T10:52:06Z</time><extensions><speed>0.102103</speed><course>126.071800</course><hAcc>1.665720</hAcc><vAcc>0.821355</vAcc></extensions></trkpt>
      <trkpt lon="-2.247619" lat="53.109720"><ele>128.159637</ele><time>2022-03-04T10:52:07Z</time><extensions><speed>0.129586</speed><course>125.772888</course><hAcc>1.670304</hAcc><vAcc>0.821371</vAcc></extensions></trkpt>
      <trkpt lon="-2.247617" lat="53.109719"><ele>128.182129</ele><time>2022-03-04T10:52:08Z</time><extensions><speed>0.159140</speed><course>125.390213</course><hAcc>1.654258</hAcc><vAcc>0.821394</vAcc></extensions></trkpt>
      <trkpt lon="-2.247616" lat="53.109718"><ele>128.203079</ele><time>2022-03-04T10:52:09Z</time><extensions><speed>0.131345</speed><course>124.634109</course><hAcc>1.661804</hAcc><vAcc>0.821388</vAcc></extensions></trkpt>
      <trkpt lon="-2.247614" lat="53.109718"><ele>128.221924</ele><time>2022-03-04T10:52:10Z</time><extensions><speed>0.092023</speed><course>122.900772</course><hAcc>1.672350</hAcc><vAcc>0.821368</vAcc></extensions></trkpt>
      <trkpt lon="-2.247613" lat="53.109717"><ele>128.238251</ele><time>2022-03-04T10:52:11Z</time><extensions><speed>0.052290</speed><course>118.119293</course><hAcc>1.677363</hAcc><vAcc>0.821333</vAcc></extensions></trkpt>
      <trkpt lon="-2.247613" lat="53.109717"><ele>128.251801</ele><time>2022-03-04T10:52:12Z</time><extensions><speed>0.018306</speed><course>94.441200</course><hAcc>1.681727</hAcc><vAcc>0.821274</vAcc></extensions></trkpt>
      <trkpt lon="-2.247613" lat="53.109717"><ele>128.262451</ele><time>2022-03-04T10:52:13Z</time><extensions><speed>0.019246</speed><course>344.966034</course><hAcc>1.687753</hAcc><vAcc>0.821194</vAcc></extensions></trkpt>
      <trkpt lon="-2.247613" lat="53.109717"><ele>128.270233</ele><time>2022-03-04T10:52:14Z</time><extensions><speed>0.044839</speed><course>326.701355</course><hAcc>1.687447</hAcc><vAcc>0.821079</vAcc></extensions></trkpt>
      <trkpt lon="-2.247613" lat="53.109718"><ele>128.275299</ele><time>2022-03-04T10:52:15Z</time><extensions><speed>0.065520</speed><course>322.644836</course><hAcc>1.690146</hAcc><vAcc>0.820923</vAcc></extensions></trkpt>
      <trkpt lon="-2.247614" lat="53.109718"><ele>128.277924</ele><time>2022-03-04T10:52:16Z</time><extensions><speed>0.084064</speed><course>321.022705</course><hAcc>1.685261</hAcc><vAcc>0.820734</vAcc></extensions></trkpt>
      <trkpt lon="-2.247615" lat="53.109719"><ele>128.278488</ele><time>2022-03-04T10:52:17Z</time><extensions><speed>0.067613</speed><course>320.143799</course><hAcc>1.708694</hAcc><vAcc>0.820506</vAcc></extensions></trkpt>
      <trkpt lon="-2.247616" lat="53.109719"><ele>128.277405</ele><time>2022-03-04T10:52:18Z</time><extensions><speed>0.063497</speed><course>319.733948</course><hAcc>1.703213</hAcc><vAcc>0.820260</vAcc></extensions></trkpt>
      <trkpt lon="-2.247616" lat="53.109720"><ele>128.275101</ele><time>2022-03-04T10:52:19Z</time><extensions><speed>0.050450</speed><course>319.541443</course><hAcc>1.710076</hAcc><vAcc>0.820010</vAcc></extensions></trkpt>
      <trkpt lon="-2.247616" lat="53.109720"><ele>128.271896</ele><time>2022-03-04T10:52:20Z</time><extensions><speed>0.037162</speed><course>319.425873</course><hAcc>1.724209</hAcc><vAcc>0.819761</vAcc></extensions></trkpt>
      <trkpt lon="-2.247617" lat="53.109720"><ele>128.268097</ele><time>2022-03-04T10:52:21Z</time><extensions><speed>0.025867</speed><course>319.346710</course><hAcc>1.735236</hAcc><vAcc>0.819512</vAcc></extensions></trkpt>
      <trkpt lon="-2.247617" lat="53.109720"><ele>128.249710</ele><time>2022-03-04T10:52:22Z</time><extensions><speed>0.016642</speed><course>316.303375</course><hAcc>1.739420</hAcc><vAcc>0.819276</vAcc></extensions></trkpt>
      <trkpt lon="-2.247617" lat="53.109720"><ele>128.229019</ele><time>2022-03-04T10:52:23Z</time><extensions><speed>0.009401</speed><course>307.227875</course><hAcc>1.740712</hAcc><vAcc>0.819083</vAcc></extensions></trkpt>
      <trkpt lon="-2.247617" lat="53.109721"><ele>128.206131</ele><time>2022-03-04T10:52:24Z</time><extensions><speed>0.004962</speed><course>275.617767</course><hAcc>1.734251</hAcc><vAcc>0.818910</vAcc></extensions></trkpt>
      <trkpt lon="-2.247617" lat="53.109720"><ele>128.181183</ele><time>2022-03-04T10:52:25Z</time><extensions><speed>0.005369</speed><course>217.136078</course><hAcc>1.725919</hAcc><vAcc>0.818794</vAcc></extensions></trkpt>
      <trkpt lon="-2.247617" lat="53.109720"><ele>128.154266</ele><time>2022-03-04T10:52:26Z</time><extensions><speed>0.009320</speed><course>193.853439</course><hAcc>1.716151</hAcc><vAcc>0.818709</vAcc></extensions></trkpt>
      <trkpt lon="-2.247617" lat="53.109720"><ele>128.125504</ele><time>2022-03-04T10:52:27Z</time><extensions><speed>0.014074</speed><course>186.763901</course><hAcc>1.713512</hAcc><vAcc>0.818606</vAcc></extensions></trkpt>
      <trkpt lon="-2.247617" lat="53.109720"><ele>128.095108</ele><time>2022-03-04T10:52:28Z</time><extensions><speed>0.018789</speed><course>184.065887</course><hAcc>1.724635</hAcc><vAcc>0.818562</vAcc></extensions></trkpt>
      <trkpt lon="-2.247617" lat="53.109720"><ele>128.063354</ele><time>2022-03-04T10:52:29Z</time><extensions><speed>0.026453</speed><course>182.975601</course><hAcc>1.729633</hAcc><vAcc>0.818583</vAcc></extensions></trkpt>
      <trkpt lon="-2.247617" lat="53.109720"><ele>128.026260</ele><time>2022-03-04T10:52:30Z</time><extensions><speed>0.038890</speed><course>181.622391</course><hAcc>1.723868</hAcc><vAcc>0.818615</vAcc></extensions></trkpt>
      <trkpt lon="-2.247617" lat="53.109719"><ele>127.981850</ele><time>2022-03-04T10:52:31Z</time><extensions><speed>0.054087</speed><course>180.110931</course><hAcc>1.715663</hAcc><vAcc>0.818628</vAcc></extensions></trkpt>
      <trkpt lon="-2.247617" lat="53.109719"><ele>127.929939</ele><time>2022-03-04T10:52:32Z</time><extensions><speed>0.057661</speed><course>178.037170</course><hAcc>1.721745</hAcc><vAcc>0.818679</vAcc></extensions></trkpt>
      <trkpt lon="-2.247617" lat="53.109718"><ele>127.876419</ele><time>2022-03-04T10:52:33Z</time><extensions><speed>0.051957</speed><course>174.062592</course><hAcc>1.731804</hAcc><vAcc>0.818749</vAcc></extensions></trkpt>
      <trkpt lon="-2.247617" lat="53.109718"><ele>127.821915</ele><time>2022-03-04T10:52:34Z</time><extensions><speed>0.045246</speed><course>167.101562</course><hAcc>1.740383</hAcc><vAcc>0.818825</vAcc></extensions></trkpt>
      <trkpt lon="-2.247617" lat="53.109717"><ele>127.766930</ele><time>2022-03-04T10:52:35Z</time><extensions><speed>0.042162</speed><course>157.102966</course><hAcc>1.745542</hAcc><vAcc>0.818903</vAcc></extensions></trkpt>
      <trkpt lon="-2.247617" lat="53.109717"><ele>127.711838</ele><time>2022-03-04T10:52:36Z</time><extensions><speed>0.045701</speed><course>146.831665</course><hAcc>1.744901</hAcc><vAcc>0.818950</vAcc></extensions></trkpt>
      <trkpt lon="-2.247616" lat="53.109717"><ele>127.656998</ele><time>2022-03-04T10:52:37Z</time><extensions><speed>0.055004</speed><course>139.501343</course><hAcc>1.742777</hAcc><vAcc>0.818980</vAcc></extensions></trkpt>
      <trkpt lon="-2.247616" lat="53.109716"><ele>127.602730</ele><time>2022-03-04T10:52:38Z</time><extensions><speed>0.068109</speed><course>135.528946</course><hAcc>1.742696</hAcc><vAcc>0.818978</vAcc></extensions></trkpt>
      <trkpt lon="-2.247615" lat="53.109716"><ele>127.549423</ele><time>2022-03-04T10:52:39Z</time><extensions><speed>0.080120</speed><course>133.945618</course><hAcc>1.742605</hAcc><vAcc>0.818935</vAcc></extensions></trkpt>
      <trkpt lon="-2.247614" lat="53.109715"><ele>127.497566</ele><time>2022-03-04T10:52:40Z</time><extensions><speed>0.091463</speed><course>134.244675</course><hAcc>1.725683</hAcc><vAcc>0.818844</vAcc></extensions></trkpt>
      <trkpt lon="-2.247613" lat="53.109715"><ele>127.447769</ele><time>2022-03-04T10:52:41Z</time><extensions><speed>0.084179</speed><course>135.126450</course><hAcc>1.711737</hAcc><vAcc>0.818707</vAcc></extensions></trkpt>
      <trkpt lon="-2.247612" lat="53.109714"><ele>127.400681</ele><time>2022-03-04T10:52:42Z</time><extensions><speed>0.063128</speed><course>135.606827</course><hAcc>1.711767</hAcc><vAcc>0.818548</vAcc></extensions></trkpt>
      <trkpt lon="-2.247612" lat="53.109714"><ele>127.356850</ele><time>2022-03-04T10:52:43Z</time><extensions><speed>0.042466</speed><course>135.907425</course><hAcc>1.721470</hAcc><vAcc>0.818429</vAcc></extensions></trkpt>
      <trkpt lon="-2.247611" lat="53.109714"><ele>127.316711</ele><time>2022-03-04T10:52:44Z</time><extensions><speed>0.026272</speed><course>136.123383</course><hAcc>1.735837</hAcc><vAcc>0.818324</vAcc></extensions></trkpt>
      <trkpt lon="-2.247611" lat="53.109714"><ele>127.306862</ele><time>2022-03-04T10:52:45Z</time><extensions><speed>0.016973</speed><course>138.650421</course><hAcc>1.734098</hAcc><vAcc>0.818205</vAcc></extensions></trkpt>
      <trkpt lon="-2.247611" lat="53.109713"><ele>127.305687</ele><time>2022-03-04T10:52:46Z</time><extensions><speed>0.011647</speed><course>146.613968</course><hAcc>1.718215</hAcc><vAcc>0.818076</vAcc></extensions></trkpt>
      <trkpt lon="-2.247611" lat="53.109713"><ele>127.312614</ele><time>2022-03-04T10:52:47Z</time><extensions><speed>0.006201</speed><course>176.153625</course><hAcc>1.723384</hAcc><vAcc>0.817961</vAcc></extensions></trkpt>
      <trkpt lon="-2.247611" lat="53.109713"><ele>127.327477</ele><time>2022-03-04T10:52:48Z</time><extensions><speed>0.007152</speed><course>247.235886</course><hAcc>1.737685</hAcc><vAcc>0.817866</vAcc></extensions></trkpt>
      <trkpt lon="-2.247611" lat="53.109713"><ele>127.349991</ele><time>2022-03-04T10:52:49Z</time><extensions><speed>0.015293</speed><course>272.022034</course><hAcc>1.746976</hAcc><vAcc>0.817799</vAcc></extensions></trkpt>
      <trkpt lon="-2.247611" lat="53.109713"><ele>127.379753</ele><time>2022-03-04T10:52:50Z</time><extensions><speed>0.026621</speed><course>278.583435</course><hAcc>1.751308</hAcc><vAcc>0.817769</vAcc></extensions></trkpt>
      <trkpt lon="-2.247612" lat="53.109713"><ele>127.416229</ele><time>2022-03-04T10:52:51Z</time><extensions><speed>0.040246</speed><course>280.914185</course><hAcc>1.755429</hAcc><vAcc>0.817758</vAcc></extensions></trkpt>
      <trkpt lon="-2.247613" lat="53.109714"><ele>127.458649</ele><time>2022-03-04T10:52:52Z</time><extensions><speed>0.057748</speed><course>281.850861</course><hAcc>1.754261</hAcc><vAcc>0.817774</vAcc></extensions></trkpt>
      <trkpt lon="-2.247614" lat="53.109714"><ele>127.506058</ele><time>2022-03-04T10:52:53Z</time><extensions><speed>0.076911</speed><course>282.252533</course><hAcc>1.751902</hAcc><vAcc>0.817810</vAcc></extensions></trkpt>
      <trkpt lon="-2.247615" lat="53.109714"><ele>127.557213</ele><time>2022-03-04T10:52:54Z</time><extensions><speed>0.092280</speed><course>282.457489</course><hAcc>1.748514</hAcc><vAcc>0.817866</vAcc></extensions></trkpt>
      <trkpt lon="-2.247616" lat="53.109714"><ele>127.610626</ele><time>2022-03-04T10:52:56Z</time><extensions><speed>0.096244</speed><course>282.627838</course><hAcc>1.736534</hAcc><vAcc>0.817891</vAcc></extensions></trkpt>
      <trkpt lon="-2.247618" lat="53.109714"><ele>127.664413</ele><time>2022-03-04T10:52:57Z</time><extensions><speed>0.078347</speed><course>282.781982</course><hAcc>1.728652</hAcc><vAcc>0.817906</vAcc></extensions></trkpt>
      <trkpt lon="-2.247619" lat="53.109714"><ele>127.717140</ele><time>2022-03-04T10:52:58Z</time><extensions><speed>0.059260</speed><course>282.869080</course><hAcc>1.715888</hAcc><vAcc>0.817928</vAcc></extensions></trkpt>
      <trkpt lon="-2.247619" lat="53.109714"><ele>127.767647</ele><time>2022-03-04T10:52:59Z</time><extensions><speed>0.041361</speed><course>282.924866</course><hAcc>1.705565</hAcc><vAcc>0.817990</vAcc></extensions></trkpt>
      <trkpt lon="-2.247620" lat="53.109714"><ele>127.822556</ele><time>2022-03-04T10:53:00Z</time><extensions><speed>0.026029</speed><course>278.457703</course><hAcc>1.704358</hAcc><vAcc>0.818045</vAcc></extensions></trkpt>
      <trkpt lon="-2.247620" lat="53.109714"><ele>127.866234</ele><time>2022-03-04T10:53:01Z</time><extensions><speed>0.015727</speed><course>268.320557</course><hAcc>1.700057</hAcc><vAcc>0.818110</vAcc></extensions></trkpt>
      <trkpt lon="-2.247620" lat="53.109714"><ele>127.905754</ele><time>2022-03-04T10:53:02Z</time><extensions><speed>0.012506</speed><course>248.653122</course><hAcc>1.672850</hAcc><vAcc>0.818165</vAcc></extensions></trkpt>
      <trkpt lon="-2.247620" lat="53.109714"><ele>127.940994</ele><time>2022-03-04T10:53:03Z</time><extensions><speed>0.011799</speed><course>224.184586</course><hAcc>1.657956</hAcc><vAcc>0.818222</vAcc></extensions></trkpt>
      <trkpt lon="-2.247620" lat="53.109714"><ele>127.967705</ele><time>2022-03-04T10:53:04Z</time><extensions><speed>0.014721</speed><course>195.574982</course><hAcc>1.653593</hAcc><vAcc>0.818266</vAcc></extensions></trkpt>
      <trkpt lon="-2.247620" lat="53.109714"><ele>127.989540</ele><time>2022-03-04T10:53:05Z</time><extensions><speed>0.019696</speed><course>181.343689</course><hAcc>1.666255</hAcc><vAcc>0.818277</vAcc></extensions></trkpt>
      <trkpt lon="-2.247620" lat="53.109714"><ele>128.006699</ele><time>2022-03-04T10:53:06Z</time><extensions><speed>0.026010</speed><course>174.583740</course><hAcc>1.689535</hAcc><vAcc>0.818272</vAcc></extensions></trkpt>
      <trkpt lon="-2.247620" lat="53.109713"><ele>128.019363</ele><time>2022-03-04T10:53:07Z</time><extensions><speed>0.046529</speed><course>171.085159</course><hAcc>1.679775</hAcc><vAcc>0.818238</vAcc></extensions></trkpt>
      <trkpt lon="-2.247620" lat="53.109713"><ele>128.027786</ele><time>2022-03-04T10:53:08Z</time><extensions><speed>0.083678</speed><course>168.955490</course><hAcc>1.650426</hAcc><vAcc>0.818153</vAcc></extensions></trkpt>
      <trkpt lon="-2.247620" lat="53.109712"><ele>128.032227</ele><time>2022-03-04T10:53:09Z</time><extensions><speed>0.110231</speed><course>166.652634</course><hAcc>1.647219</hAcc><vAcc>0.818032</vAcc></extensions></trkpt>
      <trkpt lon="-2.247619" lat="53.109711"><ele>128.043396</ele><time>2022-03-04T10:53:10Z</time><extensions><speed>0.117606</speed><course>162.133194</course><hAcc>1.662188</hAcc><vAcc>0.817846</vAcc></extensions></trkpt>
      <trkpt lon="-2.247619" lat="53.109710"><ele>128.053391</ele><time>2022-03-04T10:53:11Z</time><extensions><speed>0.102302</speed><course>154.845657</course><hAcc>1.690354</hAcc><vAcc>0.817670</vAcc></extensions></trkpt>
      <trkpt lon="-2.247618" lat="53.109709"><ele>128.062347</ele><time>2022-03-04T10:53:12Z</time><extensions><speed>0.101965</speed><course>147.266464</course><hAcc>1.708358</hAcc><vAcc>0.817494</vAcc></extensions></trkpt>
      <trkpt lon="-2.247617" lat="53.109709"><ele>128.070847</ele><time>2022-03-04T10:53:13Z</time><extensions><speed>0.092120</speed><course>141.315292</course><hAcc>1.730357</hAcc><vAcc>0.817332</vAcc></extensions></trkpt>
      <trkpt lon="-2.247616" lat="53.109708"><ele>128.079468</ele><time>2022-03-04T10:53:14Z</time><extensions><speed>0.123196</speed><course>138.751968</course><hAcc>1.699664</hAcc><vAcc>0.817212</vAcc></extensions></trkpt>
      <trkpt lon="-2.247615" lat="53.109707"><ele>128.088715</ele><time>2022-03-04T10:53:15Z</time><extensions><speed>0.108605</speed><course>137.768860</course><hAcc>1.697662</hAcc><vAcc>0.817159</vAcc></extensions></trkpt>
      <trkpt lon="-2.247614" lat="53.109706"><ele>128.098969</ele><time>2022-03-04T10:53:16Z</time><extensions><speed>0.079624</speed><course>133.585175</course><hAcc>1.716474</hAcc><vAcc>0.817201</vAcc></extensions></trkpt>
      <trkpt lon="-2.247613" lat="53.109706"><ele>128.104095</ele><time>2022-03-04T10:53:17Z</time><extensions><speed>0.048058</speed><course>118.782318</course><hAcc>1.737150</hAcc><vAcc>0.817322</vAcc></extensions></trkpt>
      <trkpt lon="-2.247613" lat="53.109706"><ele>128.104935</ele><time>2022-03-04T10:53:18Z</time><extensions><speed>0.030448</speed><course>76.315681</course><hAcc>1.750646</hAcc><vAcc>0.817455</vAcc></extensions></trkpt>
      <trkpt lon="-2.247612" lat="53.109706"><ele>128.105179</ele><time>2022-03-04T10:53:19Z</time><extensions><speed>0.037447</speed><course>31.701967</course><hAcc>1.755582</hAcc><vAcc>0.817623</vAcc></extensions></trkpt>
      <trkpt lon="-2.247612" lat="53.109707"><ele>128.104492</ele><time>2022-03-04T10:53:20Z</time><extensions><speed>0.044355</speed><course>13.582367</course><hAcc>1.753053</hAcc><vAcc>0.817786</vAcc></extensions></trkpt>
      <trkpt lon="-2.247612" lat="53.109707"><ele>128.102448</ele><time>2022-03-04T10:53:21Z</time><extensions><speed>0.039154</speed><course>359.432709</course><hAcc>1.753801</hAcc><vAcc>0.817970</vAcc></extensions></trkpt>
      <trkpt lon="-2.247612" lat="53.109707"><ele>128.098602</ele><time>2022-03-04T10:53:22Z</time><extensions><speed>0.032696</speed><course>337.698059</course><hAcc>1.756676</hAcc><vAcc>0.818145</vAcc></extensions></trkpt>
      <trkpt lon="-2.247613" lat="53.109707"><ele>128.092712</ele><time>2022-03-04T10:53:23Z</time><extensions><speed>0.034143</speed><course>309.743347</course><hAcc>1.756863</hAcc><vAcc>0.818278</vAcc></extensions></trkpt>
      <trkpt lon="-2.247613" lat="53.109708"><ele>128.084671</ele><time>2022-03-04T10:53:24Z</time><extensions><speed>0.044309</speed><course>289.255096</course><hAcc>1.757949</hAcc><vAcc>0.818377</vAcc></extensions></trkpt>
      <trkpt lon="-2.247614" lat="53.109708"><ele>128.074539</ele><time>2022-03-04T10:53:25Z</time><extensions><speed>0.061011</speed><course>278.948761</course><hAcc>1.756531</hAcc><vAcc>0.818418</vAcc></extensions></trkpt>
      <trkpt lon="-2.247615" lat="53.109708"><ele>128.062546</ele><time>2022-03-04T10:53:26Z</time><extensions><speed>0.076087</speed><course>274.136658</course><hAcc>1.757425</hAcc><vAcc>0.818394</vAcc></extensions></trkpt>
      <trkpt lon="-2.247616" lat="53.109708"><ele>128.049088</ele><time>2022-03-04T10:53:27Z</time><extensions><speed>0.083831</speed><course>271.730469</course><hAcc>1.752882</hAcc><vAcc>0.818304</vAcc></extensions></trkpt>
      <trkpt lon="-2.247617" lat="53.109708"><ele>128.034698</ele><time>2022-03-04T10:53:28Z</time><extensions><speed>0.074461</speed><course>270.428375</course><hAcc>1.751735</hAcc><vAcc>0.818166</vAcc></extensions></trkpt>
      <trkpt lon="-2.247618" lat="53.109708"><ele>128.029282</ele><time>2022-03-04T10:53:29Z</time><extensions><speed>0.058909</speed><course>272.008484</course><hAcc>1.753003</hAcc><vAcc>0.817990</vAcc></extensions></trkpt>
      <trkpt lon="-2.247619" lat="53.109708"><ele>128.022552</ele><time>2022-03-04T10:53:30Z</time><extensions><speed>0.043643</speed><course>274.711639</course><hAcc>1.753416</hAcc><vAcc>0.817841</vAcc></extensions></trkpt>
      <trkpt lon="-2.247620" lat="53.109708"><ele>128.017303</ele><time>2022-03-04T10:53:31Z</time><extensions><speed>0.032487</speed><course>280.793976</course><hAcc>1.751596</hAcc><vAcc>0.817747</vAcc></extensions></trkpt>
      <trkpt lon="-2.247620" lat="53.109708"><ele>128.013809</ele><time>2022-03-04T10:53:32Z</time><extensions><speed>0.026369</speed><course>291.705170</course><hAcc>1.748220</hAcc><vAcc>0.817680</vAcc></extensions></trkpt>
      <trkpt lon="-2.247620" lat="53.109708"><ele>128.012222</ele><time>2022-03-04T10:53:33Z</time><extensions><speed>0.025806</speed><course>305.456482</course><hAcc>1.743872</hAcc><vAcc>0.817661</vAcc></extensions></trkpt>
      <trkpt lon="-2.247621" lat="53.109708"><ele>128.012634</ele><time>2022-03-04T10:53:34Z</time><extensions><speed>0.030109</speed><course>316.676300</course><hAcc>1.739818</hAcc><vAcc>0.817730</vAcc></extensions></trkpt>
      <trkpt lon="-2.247621" lat="53.109709"><ele>128.014999</ele><time>2022-03-04T10:53:35Z</time><extensions><speed>0.039170</speed><course>323.138153</course><hAcc>1.731544</hAcc><vAcc>0.817865</vAcc></extensions></trkpt>
      <trkpt lon="-2.247621" lat="53.109709"><ele>128.019241</ele><time>2022-03-04T10:53:36Z</time><extensions><speed>0.051099</speed><course>326.212921</course><hAcc>1.721879</hAcc><vAcc>0.818078</vAcc></extensions></trkpt>
      <trkpt lon="-2.247622" lat="53.109709"><ele>128.025146</ele><time>2022-03-04T10:53:37Z</time><extensions><speed>0.061727</speed><course>327.565918</course><hAcc>1.715455</hAcc><vAcc>0.818363</vAcc></extensions></trkpt>
      <trkpt lon="-2.247622" lat="53.109710"><ele>128.032410</ele><time>2022-03-04T10:53:38Z</time><extensions><speed>0.066829</speed><course>328.027710</course><hAcc>1.707477</hAcc><vAcc>0.818716</vAcc></extensions></trkpt>
      <trkpt lon="-2.247623" lat="53.109710"><ele>128.040634</ele><time>2022-03-04T10:53:39Z</time><extensions><speed>0.053264</speed><course>327.617950</course><hAcc>1.696753</hAcc><vAcc>0.819077</vAcc></extensions></trkpt>
      <trkpt lon="-2.247623" lat="53.109711"><ele>128.049377</ele><time>2022-03-04T10:53:40Z</time><extensions><speed>0.030531</speed><course>326.328644</course><hAcc>1.690228</hAcc><vAcc>0.819450</vAcc></extensions></trkpt>
      <trkpt lon="-2.247623" lat="53.109711"><ele>128.058258</ele><time>2022-03-04T10:53:41Z</time><extensions><speed>0.017347</speed><course>325.103119</course><hAcc>1.690038</hAcc><vAcc>0.819794</vAcc></extensions></trkpt>
      <trkpt lon="-2.247623" lat="53.109711"><ele>128.067032</ele><time>2022-03-04T10:53:42Z</time><extensions><speed>0.010216</speed><course>323.982788</course><hAcc>1.692956</hAcc><vAcc>0.820167</vAcc></extensions></trkpt>
      <trkpt lon="-2.247624" lat="53.109711"><ele>128.075470</ele><time>2022-03-04T10:53:43Z</time><extensions><speed>0.006193</speed><course>323.023712</course><hAcc>1.697984</hAcc><vAcc>0.820519</vAcc></extensions></trkpt>
      <trkpt lon="-2.247624" lat="53.109711"><ele>128.083450</ele><time>2022-03-04T10:53:44Z</time><extensions><speed>0.004265</speed><course>322.268311</course><hAcc>1.691451</hAcc><vAcc>0.820839</vAcc></extensions></trkpt>
      <trkpt lon="-2.247624" lat="53.109711"><ele>128.090851</ele><time>2022-03-04T10:53:45Z</time><extensions><speed>0.003312</speed><course>321.766937</course><hAcc>1.680048</hAcc><vAcc>0.821092</vAcc></extensions></trkpt>
      <trkpt lon="-2.247624" lat="53.109711"><ele>128.097610</ele><time>2022-03-04T10:53:46Z</time><extensions><speed>0.002245</speed><course>321.450378</course><hAcc>1.703147</hAcc><vAcc>0.821275</vAcc></extensions></trkpt>
      <trkpt lon="-2.247624" lat="53.109711"><ele>128.090820</ele><time>2022-03-04T10:53:47Z</time><extensions><speed>0.002281</speed><course>359.649384</course><hAcc>1.741080</hAcc><vAcc>0.821391</vAcc></extensions></trkpt>
      <trkpt lon="-2.247624" lat="53.109711"><ele>128.088715</ele><time>2022-03-04T10:53:47Z</time><extensions><speed>0.004902</speed><course>19.601471</course><hAcc>1.727729</hAcc><vAcc>0.821417</vAcc></extensions></trkpt>
      <trkpt lon="-2.247624" lat="53.109711"><ele>128.085159</ele><time>2022-03-04T10:53:48Z</time><extensions><speed>0.008768</speed><course>25.984810</course><hAcc>1.726500</hAcc><vAcc>0.821472</vAcc></extensions></trkpt>
      <trkpt lon="-2.247623" lat="53.109711"><ele>128.070618</ele><time>2022-03-04T10:53:49Z</time><extensions><speed>0.015005</speed><course>30.528032</course><hAcc>1.737961</hAcc><vAcc>0.821527</vAcc></extensions></trkpt>
      <trkpt lon="-2.247623" lat="53.109711"><ele>128.053192</ele><time>2022-03-04T10:53:50Z</time><extensions><speed>0.024014</speed><course>32.561852</course><hAcc>1.747541</hAcc><vAcc>0.821585</vAcc></extensions></trkpt>
      <trkpt lon="-2.247623" lat="53.109712"><ele>128.034439</ele><time>2022-03-04T10:53:51Z</time><extensions><speed>0.036025</speed><course>33.065720</course><hAcc>1.752687</hAcc><vAcc>0.821669</vAcc></extensions></trkpt>
      <trkpt lon="-2.247623" lat="53.109712"><ele>128.013275</ele><time>2022-03-04T10:53:52Z</time><extensions><speed>0.053033</speed><course>33.388561</course><hAcc>1.751207</hAcc><vAcc>0.821776</vAcc></extensions></trkpt>
      <trkpt lon="-2.247622" lat="53.109712"><ele>127.994347</ele><time>2022-03-04T10:53:53Z</time><extensions><speed>0.075103</speed><course>34.439110</course><hAcc>1.746447</hAcc><vAcc>0.821922</vAcc></extensions></trkpt>
      <trkpt lon="-2.247621" lat="53.109713"><ele>127.974197</ele><time>2022-03-04T10:53:54Z</time><extensions><speed>0.097928</speed><course>35.377060</course><hAcc>1.743991</hAcc><vAcc>0.822096</vAcc></extensions></trkpt>
      <trkpt lon="-2.247620" lat="53.109714"><ele>127.949715</ele><time>2022-03-04T10:53:55Z</time><extensions><speed>0.118719</speed><course>35.930771</course><hAcc>1.736749</hAcc><vAcc>0.822297</vAcc></extensions></trkpt>
      <trkpt lon="-2.247619" lat="53.109715"><ele>127.921776</ele><time>2022-03-04T10:53:56Z</time><extensions><speed>0.120573</speed><course>37.768970</course><hAcc>1.722248</hAcc><vAcc>0.822503</vAcc></extensions></trkpt>
      <trkpt lon="-2.247618" lat="53.109716"><ele>127.903877</ele><time>2022-03-04T10:53:57Z</time><extensions><speed>0.107207</speed><course>41.299183</course><hAcc>1.703815</hAcc><vAcc>0.822660</vAcc></extensions></trkpt>
      <trkpt lon="-2.247617" lat="53.109716"><ele>127.886131</ele><time>2022-03-04T10:53:58Z</time><extensions><speed>0.082385</speed><course>46.049179</course><hAcc>1.709235</hAcc><vAcc>0.822899</vAcc></extensions></trkpt>
      <trkpt lon="-2.247617" lat="53.109717"><ele>127.870468</ele><time>2022-03-04T10:53:59Z</time><extensions><speed>0.047029</speed><course>51.071049</course><hAcc>1.738829</hAcc><vAcc>0.823152</vAcc></extensions></trkpt>
      <trkpt lon="-2.247616" lat="53.109717"><ele>127.857147</ele><time>2022-03-04T10:54:00Z</time><extensions><speed>0.028060</speed><course>57.095478</course><hAcc>1.734694</hAcc><vAcc>0.823396</vAcc></extensions></trkpt>
      <trkpt lon="-2.247616" lat="53.109717"><ele>127.846519</ele><time>2022-03-04T10:54:01Z</time><extensions><speed>0.020083</speed><course>65.742386</course><hAcc>1.708735</hAcc><vAcc>0.823614</vAcc></extensions></trkpt>
      <trkpt lon="-2.247616" lat="53.109717"><ele>127.838699</ele><time>2022-03-04T10:54:02Z</time><extensions><speed>0.014457</speed><course>67.262527</course><hAcc>1.705632</hAcc><vAcc>0.823799</vAcc></extensions></trkpt>
      <trkpt lon="-2.247615" lat="53.109717"><ele>127.833641</ele><time>2022-03-04T10:54:03Z</time><extensions><speed>0.010421</speed><course>21.504612</course><hAcc>1.714533</hAcc><vAcc>0.823949</vAcc></extensions></trkpt>
      <trkpt lon="-2.247615" lat="53.109717"><ele>127.831184</ele><time>2022-03-04T10:54:04Z</time><extensions><speed>0.019288</speed><course>338.454498</course><hAcc>1.723202</hAcc><vAcc>0.824074</vAcc></extensions></trkpt>
      <trkpt lon="-2.247616" lat="53.109717"><ele>127.831116</ele><time>2022-03-04T10:54:05Z</time><extensions><speed>0.021973</speed><course>344.505768</course><hAcc>1.734164</hAcc><vAcc>0.824175</vAcc></extensions></trkpt>
      <trkpt lon="-2.247616" lat="53.109717"><ele>127.829453</ele><time>2022-03-04T10:54:06Z</time><extensions><speed>0.019080</speed><course>24.339617</course><hAcc>1.746208</hAcc><vAcc>0.824232</vAcc></extensions></trkpt>
      <trkpt lon="-2.247615" lat="53.109718"><ele>127.827888</ele><time>2022-03-04T10:54:07Z</time><extensions><speed>0.027321</speed><course>55.588718</course><hAcc>1.724231</hAcc><vAcc>0.824290</vAcc></extensions></trkpt>
      <trkpt lon="-2.247615" lat="53.109718"><ele>127.826912</ele><time>2022-03-04T10:54:08Z</time><extensions><speed>0.029654</speed><course>69.478226</course><hAcc>1.705945</hAcc><vAcc>0.824324</vAcc></extensions></trkpt>
      <trkpt lon="-2.247615" lat="53.109718"><ele>127.826103</ele><time>2022-03-04T10:54:09Z</time><extensions><speed>0.025432</speed><course>80.013664</course><hAcc>1.699295</hAcc><vAcc>0.824346</vAcc></extensions></trkpt>
      <trkpt lon="-2.247614" lat="53.109718"><ele>127.825096</ele><time>2022-03-04T10:54:10Z</time><extensions><speed>0.020834</speed><course>94.541382</course><hAcc>1.698604</hAcc><vAcc>0.824341</vAcc></extensions></trkpt>
      <trkpt lon="-2.247614" lat="53.109718"><ele>127.811607</ele><time>2022-03-04T10:54:11Z</time><extensions><speed>0.016774</speed><course>114.308121</course><hAcc>1.706286</hAcc><vAcc>0.824332</vAcc></extensions></trkpt>
      <trkpt lon="-2.247614" lat="53.109718"><ele>127.799232</ele><time>2022-03-04T10:54:12Z</time><extensions><speed>0.017461</speed><course>136.280365</course><hAcc>1.714509</hAcc><vAcc>0.824295</vAcc></extensions></trkpt>
      <trkpt lon="-2.247614" lat="53.109717"><ele>127.782043</ele><time>2022-03-04T10:54:13Z</time><extensions><speed>0.023673</speed><course>153.725693</course><hAcc>1.710272</hAcc><vAcc>0.824230</vAcc></extensions></trkpt>
      <trkpt lon="-2.247614" lat="53.109717"><ele>127.762390</ele><time>2022-03-04T10:54:14Z</time><extensions><speed>0.037129</speed><course>163.987000</course><hAcc>1.683610</hAcc><vAcc>0.824138</vAcc></extensions></trkpt>
      <trkpt lon="-2.247613" lat="53.109717"><ele>127.740349</ele><time>2022-03-04T10:54:15Z</time><extensions><speed>0.045217</speed><course>172.450394</course><hAcc>1.672602</hAcc><vAcc>0.824026</vAcc></extensions></trkpt>
      <trkpt lon="-2.247613" lat="53.109716"><ele>127.716125</ele><time>2022-03-04T10:54:16Z</time><extensions><speed>0.042219</speed><course>187.537643</course><hAcc>1.679176</hAcc><vAcc>0.823905</vAcc></extensions></trkpt>
      <trkpt lon="-2.247614" lat="53.109716"><ele>127.690041</ele><time>2022-03-04T10:54:17Z</time><extensions><speed>0.033245</speed><course>219.904541</course><hAcc>1.702710</hAcc><vAcc>0.823783</vAcc></extensions></trkpt>
      <trkpt lon="-2.247614" lat="53.109716"><ele>127.662476</ele><time>2022-03-04T10:54:18Z</time><extensions><speed>0.041607</speed><course>253.903091</course><hAcc>1.713944</hAcc><vAcc>0.823667</vAcc></extensions></trkpt>
      <trkpt lon="-2.247615" lat="53.109716"><ele>127.635582</ele><time>2022-03-04T10:54:19Z</time><extensions><speed>0.063158</speed><course>270.946564</course><hAcc>1.714569</hAcc><vAcc>0.823561</vAcc></extensions></trkpt>
      <trkpt lon="-2.247616" lat="53.109716"><ele>127.608337</ele><time>2022-03-04T10:54:20Z</time><extensions><speed>0.104126</speed><course>276.731201</course><hAcc>1.690584</hAcc><vAcc>0.823473</vAcc></extensions></trkpt>
      <trkpt lon="-2.247618" lat="53.109716"><ele>127.581406</ele><time>2022-03-04T10:54:21Z</time><extensions><speed>0.118495</speed><course>277.970215</course><hAcc>1.695693</hAcc><vAcc>0.823405</vAcc></extensions></trkpt>
      <trkpt lon="-2.247620" lat="53.109716"><ele>127.555435</ele><time>2022-03-04T10:54:22Z</time><extensions><speed>0.104204</speed><course>277.431213</course><hAcc>1.722093</hAcc><vAcc>0.823356</vAcc></extensions></trkpt>
      <trkpt lon="-2.247621" lat="53.109716"><ele>127.530952</ele><time>2022-03-04T10:54:23Z</time><extensions><speed>0.111149</speed><course>278.049713</course><hAcc>1.715655</hAcc><vAcc>0.823322</vAcc></extensions></trkpt>
      <trkpt lon="-2.247623" lat="53.109717"><ele>127.508354</ele><time>2022-03-04T10:54:24Z</time><extensions><speed>0.105847</speed><course>281.171753</course><hAcc>1.717897</hAcc><vAcc>0.823296</vAcc></extensions></trkpt>
      <trkpt lon="-2.247624" lat="53.109717"><ele>127.487915</ele><time>2022-03-04T10:54:25Z</time><extensions><speed>0.106397</speed><course>285.734985</course><hAcc>1.723729</hAcc><vAcc>0.823274</vAcc></extensions></trkpt>
      <trkpt lon="-2.247626" lat="53.109717"><ele>127.469780</ele><time>2022-03-04T10:54:26Z</time><extensions><speed>0.112936</speed><course>290.316528</course><hAcc>1.729037</hAcc><vAcc>0.823250</vAcc></extensions></trkpt>
      <trkpt lon="-2.247628" lat="53.109718"><ele>127.449585</ele><time>2022-03-04T10:54:27Z</time><extensions><speed>0.131139</speed><course>293.872528</course><hAcc>1.726168</hAcc><vAcc>0.823224</vAcc></extensions></trkpt>
      <trkpt lon="-2.247630" lat="53.109718"><ele>127.431015</ele><time>2022-03-04T10:54:28Z</time><extensions><speed>0.147340</speed><course>295.962341</course><hAcc>1.720233</hAcc><vAcc>0.823192</vAcc></extensions></trkpt>
      <trkpt lon="-2.247632" lat="53.109719"><ele>127.413933</ele><time>2022-03-04T10:54:29Z</time><extensions><speed>0.144487</speed><course>296.993408</course><hAcc>1.712930</hAcc><vAcc>0.823161</vAcc></extensions></trkpt>
      <trkpt lon="-2.247633" lat="53.109719"><ele>127.398163</ele><time>2022-03-04T10:54:30Z</time><extensions><speed>0.117386</speed><course>297.647369</course><hAcc>1.712839</hAcc><vAcc>0.823125</vAcc></extensions></trkpt>
      <trkpt lon="-2.247635" lat="53.109720"><ele>127.383499</ele><time>2022-03-04T10:54:31Z</time><extensions><speed>0.088321</speed><course>298.497009</course><hAcc>1.720601</hAcc><vAcc>0.823092</vAcc></extensions></trkpt>
      <trkpt lon="-2.247636" lat="53.109720"><ele>127.369766</ele><time>2022-03-04T10:54:32Z</time><extensions><speed>0.069888</speed><course>299.852509</course><hAcc>1.728904</hAcc><vAcc>0.823072</vAcc></extensions></trkpt>
      <trkpt lon="-2.247637" lat="53.109720"><ele>127.356804</ele><time>2022-03-04T10:54:33Z</time><extensions><speed>0.064217</speed><course>301.768951</course><hAcc>1.730233</hAcc><vAcc>0.823065</vAcc></extensions></trkpt>
      <trkpt lon="-2.247637" lat="53.109721"><ele>127.344498</ele><time>2022-03-04T10:54:34Z</time><extensions><speed>0.075644</speed><course>303.639465</course><hAcc>1.716105</hAcc><vAcc>0.823070</vAcc></extensions></trkpt>
      <trkpt lon="-2.247638" lat="53.109721"><ele>127.332787</ele><time>2022-03-04T10:54:35Z</time><extensions><speed>0.085222</speed><course>305.025879</course><hAcc>1.716661</hAcc><vAcc>0.823101</vAcc></extensions></trkpt>
      <trkpt lon="-2.247639" lat="53.109722"><ele>127.321655</ele><time>2022-03-04T10:54:36Z</time><extensions><speed>0.091691</speed><course>305.945312</course><hAcc>1.722615</hAcc><vAcc>0.823157</vAcc></extensions></trkpt>
      <trkpt lon="-2.247640" lat="53.109722"><ele>127.326111</ele><time>2022-03-04T10:54:37Z</time><extensions><speed>0.078722</speed><course>309.837433</course><hAcc>1.721702</hAcc><vAcc>0.823260</vAcc></extensions></trkpt>
      <trkpt lon="-2.247641" lat="53.109722"><ele>127.325829</ele><time>2022-03-04T10:54:38Z</time><extensions><speed>0.054515</speed><course>317.216095</course><hAcc>1.711617</hAcc><vAcc>0.823347</vAcc></extensions></trkpt>
      <trkpt lon="-2.247641" lat="53.109723"><ele>127.334007</ele><time>2022-03-04T10:54:39Z</time><extensions><speed>0.030319</speed><course>337.479431</course><hAcc>1.700551</hAcc><vAcc>0.823367</vAcc></extensions></trkpt>
      <trkpt lon="-2.247641" lat="53.109723"><ele>127.345085</ele><time>2022-03-04T10:54:40Z</time><extensions><speed>0.021493</speed><course>33.555855</course><hAcc>1.693512</hAcc><vAcc>0.823352</vAcc></extensions></trkpt>
      <trkpt lon="-2.247641" lat="53.109723"><ele>127.359047</ele><time>2022-03-04T10:54:41Z</time><extensions><speed>0.035183</speed><course>72.663765</course><hAcc>1.697472</hAcc><vAcc>0.823288</vAcc></extensions></trkpt>
      <trkpt lon="-2.247640" lat="53.109723"><ele>127.375809</ele><time>2022-03-04T10:54:42Z</time><extensions><speed>0.056161</speed><course>84.768204</course><hAcc>1.714159</hAcc><vAcc>0.823158</vAcc></extensions></trkpt>
      <trkpt lon="-2.247639" lat="53.109723"><ele>127.395218</ele><time>2022-03-04T10:54:43Z</time><extensions><speed>0.098788</speed><course>88.849983</course><hAcc>1.714199</hAcc><vAcc>0.822954</vAcc></extensions></trkpt>
      <trkpt lon="-2.247637" lat="53.109723"><ele>127.417038</ele><time>2022-03-04T10:54:44Z</time><extensions><speed>0.192827</speed><course>90.139496</course><hAcc>1.687529</hAcc><vAcc>0.822650</vAcc></extensions></trkpt>
      <trkpt lon="-2.247633" lat="53.109723"><ele>127.440910</ele><time>2022-03-04T10:54:45Z</time><extensions><speed>0.273124</speed><course>90.627632</course><hAcc>1.689835</hAcc><vAcc>0.822233</vAcc></extensions></trkpt>
      <trkpt lon="-2.247629" lat="53.109723"><ele>127.466339</ele><time>2022-03-04T10:54:46Z</time><extensions><speed>0.330716</speed><course>90.844322</course><hAcc>1.707041</hAcc><vAcc>0.821708</vAcc></extensions></trkpt>
      <trkpt lon="-2.247624" lat="53.109723"><ele>127.492676</ele><time>2022-03-04T10:54:47Z</time><extensions><speed>0.325322</speed><course>90.867905</course><hAcc>1.720041</hAcc><vAcc>0.821083</vAcc></extensions></trkpt>
      <trkpt lon="-2.247619" lat="53.109723"><ele>127.519211</ele><time>2022-03-04T10:54:48Z</time><extensions><speed>0.256308</speed><course>90.902084</course><hAcc>1.727502</hAcc><vAcc>0.820397</vAcc></extensions></trkpt>
      <trkpt lon="-2.247616" lat="53.109723"><ele>127.545296</ele><time>2022-03-04T10:54:49Z</time><extensions><speed>0.186379</speed><course>91.057198</course><hAcc>1.725292</hAcc><vAcc>0.819637</vAcc></extensions></trkpt>
      <trkpt lon="-2.247614" lat="53.109723"><ele>127.570389</ele><time>2022-03-04T10:54:50Z</time><extensions><speed>0.129974</speed><course>91.161102</course><hAcc>1.716298</hAcc><vAcc>0.818849</vAcc></extensions></trkpt>
      <trkpt lon="-2.247612" lat="53.109723"><ele>127.594055</ele><time>2022-03-04T10:54:51Z</time><extensions><speed>0.086929</speed><course>91.235756</course><hAcc>1.705249</hAcc><vAcc>0.818074</vAcc></extensions></trkpt>
      <trkpt lon="-2.247611" lat="53.109723"><ele>127.615997</ele><time>2022-03-04T10:54:52Z</time><extensions><speed>0.057699</speed><course>91.291557</course><hAcc>1.692903</hAcc><vAcc>0.817357</vAcc></extensions></trkpt>
      <trkpt lon="-2.247610" lat="53.109723"><ele>127.636017</ele><time>2022-03-04T10:54:53Z</time><extensions><speed>0.035979</speed><course>91.334244</course><hAcc>1.687889</hAcc><vAcc>0.816709</vAcc></extensions></trkpt>
      <trkpt lon="-2.247610" lat="53.109723"><ele>127.654053</ele><time>2022-03-04T10:54:54Z</time><extensions><speed>0.022360</speed><course>91.368294</course><hAcc>1.682973</hAcc><vAcc>0.816186</vAcc></extensions></trkpt>
      <trkpt lon="-2.247610" lat="53.109723"><ele>127.670059</ele><time>2022-03-04T10:54:55Z</time><extensions><speed>0.014505</speed><course>91.394402</course><hAcc>1.675434</hAcc><vAcc>0.815789</vAcc></extensions></trkpt>
      <trkpt lon="-2.247609" lat="53.109723"><ele>127.684090</ele><time>2022-03-04T10:54:56Z</time><extensions><speed>0.009842</speed><course>91.412544</course><hAcc>1.677457</hAcc><vAcc>0.815515</vAcc></extensions></trkpt>
      <trkpt lon="-2.247609" lat="53.109723"><ele>127.696220</ele><time>2022-03-04T10:54:57Z</time><extensions><speed>0.005636</speed><course>91.425224</course><hAcc>1.706061</hAcc><vAcc>0.815375</vAcc></extensions></trkpt>
      <trkpt lon="-2.247609" lat="53.109723"><ele>127.692505</ele><time>2022-03-04T10:54:58Z</time><extensions><speed>0.003512</speed><course>87.050446</course><hAcc>1.713161</hAcc><vAcc>0.815338</vAcc></extensions></trkpt>
      <trkpt lon="-2.247609" lat="53.109723"><ele>127.681747</ele><time>2022-03-04T10:54:59Z</time><extensions><speed>0.002320</speed><course>56.299320</course><hAcc>1.695601</hAcc><vAcc>0.815355</vAcc></extensions></trkpt>
      <trkpt lon="-2.247609" lat="53.109723"><ele>127.668144</ele><time>2022-03-04T10:55:00Z</time><extensions><speed>0.003086</speed><course>345.267670</course><hAcc>1.707571</hAcc><vAcc>0.815406</vAcc></extensions></trkpt>
      <trkpt lon="-2.247609" lat="53.109723"><ele>127.650528</ele><time>2022-03-04T10:55:02Z</time><extensions><speed>0.007014</speed><course>321.188080</course><hAcc>1.732049</hAcc><vAcc>0.815498</vAcc></extensions></trkpt>
      <trkpt lon="-2.247609" lat="53.109723"><ele>127.629326</ele><time>2022-03-04T10:55:03Z</time><extensions><speed>0.012713</speed><course>314.652374</course><hAcc>1.752757</hAcc><vAcc>0.815638</vAcc></extensions></trkpt>
      <trkpt lon="-2.247610" lat="53.109723"><ele>127.604706</ele><time>2022-03-04T10:55:04Z</time><extensions><speed>0.020893</speed><course>312.391418</course><hAcc>1.761949</hAcc><vAcc>0.815798</vAcc></extensions></trkpt>
      <trkpt lon="-2.247610" lat="53.109723"><ele>127.576973</ele><time>2022-03-04T10:55:05Z</time><extensions><speed>0.031730</speed><course>311.578583</course><hAcc>1.765110</hAcc><vAcc>0.815964</vAcc></extensions></trkpt>
      <trkpt lon="-2.247610" lat="53.109724"><ele>127.546509</ele><time>2022-03-04T10:55:06Z</time><extensions><speed>0.046063</speed><course>311.340179</course><hAcc>1.763124</hAcc><vAcc>0.816096</vAcc></extensions></trkpt>
      <trkpt lon="-2.247611" lat="53.109724"><ele>127.513847</ele><time>2022-03-04T10:55:07Z</time><extensions><speed>0.062908</speed><course>311.379028</course><hAcc>1.760461</hAcc><vAcc>0.816198</vAcc></extensions></trkpt>
      <trkpt lon="-2.247612" lat="53.109724"><ele>127.479652</ele><time>2022-03-04T10:55:08Z</time><extensions><speed>0.077202</speed><course>311.636719</course><hAcc>1.758481</hAcc><vAcc>0.816243</vAcc></extensions></trkpt>
      <trkpt lon="-2.247613" lat="53.109725"><ele>127.444778</ele><time>2022-03-04T10:55:09Z</time><extensions><speed>0.089142</speed><course>312.247437</course><hAcc>1.739498</hAcc><vAcc>0.816269</vAcc></extensions></trkpt>
      <trkpt lon="-2.247614" lat="53.109725"><ele>127.410179</ele><time>2022-03-04T10:55:10Z</time><extensions><speed>0.083692</speed><course>312.706146</course><hAcc>1.719313</hAcc><vAcc>0.816289</vAcc></extensions></trkpt>
      <trkpt lon="-2.247614" lat="53.109726"><ele>127.376740</ele><time>2022-03-04T10:55:11Z</time><extensions><speed>0.063499</speed><course>312.737915</course><hAcc>1.707833</hAcc><vAcc>0.816284</vAcc></extensions></trkpt>
      <trkpt lon="-2.247615" lat="53.109726"><ele>127.345062</ele><time>2022-03-04T10:55:12Z</time><extensions><speed>0.044070</speed><course>312.738159</course><hAcc>1.693314</hAcc><vAcc>0.816287</vAcc></extensions></trkpt>
      <trkpt lon="-2.247615" lat="53.109726"><ele>127.315598</ele><time>2022-03-04T10:55:13Z</time><extensions><speed>0.029082</speed><course>312.738342</course><hAcc>1.677722</hAcc><vAcc>0.816318</vAcc></extensions></trkpt>
      <trkpt lon="-2.247616" lat="53.109726"><ele>127.300217</ele><time>2022-03-04T10:55:14Z</time><extensions><speed>0.017018</speed><course>310.086334</course><hAcc>1.673293</hAcc><vAcc>0.816315</vAcc></extensions></trkpt>
      <trkpt lon="-2.247616" lat="53.109726"><ele>127.289200</ele><time>2022-03-04T10:55:15Z</time><extensions><speed>0.008119</speed><course>302.232513</course><hAcc>1.685634</hAcc><vAcc>0.816330</vAcc></extensions></trkpt>
      <trkpt lon="-2.247616" lat="53.109726"><ele>127.282593</ele><time>2022-03-04T10:55:16Z</time><extensions><speed>0.003643</speed><course>260.490112</course><hAcc>1.690849</hAcc><vAcc>0.816365</vAcc></extensions></trkpt>
      <trkpt lon="-2.247616" lat="53.109726"><ele>127.280441</ele><time>2022-03-04T10:55:17Z</time><extensions><speed>0.006759</speed><course>187.638107</course><hAcc>1.691331</hAcc><vAcc>0.816366</vAcc></extensions></trkpt>
      <trkpt lon="-2.247616" lat="53.109726"><ele>127.284264</ele><time>2022-03-04T10:55:18Z</time><extensions><speed>0.018061</speed><course>172.608658</course><hAcc>1.674649</hAcc><vAcc>0.816435</vAcc></extensions></trkpt>
      <trkpt lon="-2.247616" lat="53.109726"><ele>127.297127</ele><time>2022-03-04T10:55:19Z</time><extensions><speed>0.031775</speed><course>167.947784</course><hAcc>1.688684</hAcc><vAcc>0.816575</vAcc></extensions></trkpt>
      <trkpt lon="-2.247616" lat="53.109726"><ele>127.314842</ele><time>2022-03-04T10:55:20Z</time><extensions><speed>0.048799</speed><course>165.909760</course><hAcc>1.713442</hAcc><vAcc>0.816751</vAcc></extensions></trkpt>
      <trkpt lon="-2.247615" lat="53.109725"><ele>127.330017</ele><time>2022-03-04T10:55:21Z</time><extensions><speed>0.068688</speed><course>165.794754</course><hAcc>1.728868</hAcc><vAcc>0.816965</vAcc></extensions></trkpt>
      <trkpt lon="-2.247615" lat="53.109725"><ele>127.348030</ele><time>2022-03-04T10:55:22Z</time><extensions><speed>0.087644</speed><course>165.925079</course><hAcc>1.736661</hAcc><vAcc>0.817232</vAcc></extensions></trkpt>
      <trkpt lon="-2.247615" lat="53.109724"><ele>127.368256</ele><time>2022-03-04T10:55:23Z</time><extensions><speed>0.104463</speed><course>166.304535</course><hAcc>1.728893</hAcc><vAcc>0.817556</vAcc></extensions></trkpt>
      <trkpt lon="-2.247614" lat="53.109723"><ele>127.383385</ele><time>2022-03-04T10:55:24Z</time><extensions><speed>0.102519</speed><course>167.384476</course><hAcc>1.714605</hAcc><vAcc>0.817924</vAcc></extensions></trkpt>
      <trkpt lon="-2.247614" lat="53.109722"><ele>127.391815</ele><time>2022-03-04T10:55:25Z</time><extensions><speed>0.074296</speed><course>168.358826</course><hAcc>1.728068</hAcc><vAcc>0.818311</vAcc></extensions></trkpt>
      <trkpt lon="-2.247614" lat="53.109722"><ele>127.407005</ele><time>2022-03-04T10:55:26Z</time><extensions><speed>0.032699</speed><course>173.673538</course><hAcc>1.762708</hAcc><vAcc>0.818811</vAcc></extensions></trkpt>
      <trkpt lon="-2.247614" lat="53.109721"><ele>127.423180</ele><time>2022-03-04T10:55:27Z</time><extensions><speed>0.019620</speed><course>197.111160</course><hAcc>1.724023</hAcc><vAcc>0.819360</vAcc></extensions></trkpt>
      <trkpt lon="-2.247614" lat="53.109721"><ele>127.437683</ele><time>2022-03-04T10:55:28Z</time><extensions><speed>0.015296</speed><course>255.203934</course><hAcc>1.700582</hAcc><vAcc>0.819948</vAcc></extensions></trkpt>
      <trkpt lon="-2.247614" lat="53.109721"><ele>127.450127</ele><time>2022-03-04T10:55:29Z</time><extensions><speed>0.024491</speed><course>292.383575</course><hAcc>1.699780</hAcc><vAcc>0.820556</vAcc></extensions></trkpt>
      <trkpt lon="-2.247615" lat="53.109721"><ele>127.460304</ele><time>2022-03-04T10:55:30Z</time><extensions><speed>0.033141</speed><course>305.946808</course><hAcc>1.703614</hAcc><vAcc>0.821148</vAcc></extensions></trkpt>
      <trkpt lon="-2.247615" lat="53.109722"><ele>127.468277</ele><time>2022-03-04T10:55:31Z</time><extensions><speed>0.025233</speed><course>316.766541</course><hAcc>1.714434</hAcc><vAcc>0.821676</vAcc></extensions></trkpt>
      <trkpt lon="-2.247615" lat="53.109722"><ele>127.469872</ele><time>2022-03-04T10:55:32Z</time><extensions><speed>0.008555</speed><course>24.144360</course><hAcc>1.725136</hAcc><vAcc>0.822001</vAcc></extensions></trkpt>
      <trkpt lon="-2.247615" lat="53.109722"><ele>127.464111</ele><time>2022-03-04T10:55:33Z</time><extensions><speed>0.027193</speed><course>102.233727</course><hAcc>1.728653</hAcc><vAcc>0.822033</vAcc></extensions></trkpt>
      <trkpt lon="-2.247614" lat="53.109722"><ele>127.456955</ele><time>2022-03-04T10:55:34Z</time><extensions><speed>0.056984</speed><course>113.352661</course><hAcc>1.711313</hAcc><vAcc>0.821946</vAcc></extensions></trkpt>
      <trkpt lon="-2.247614" lat="53.109721"><ele>127.455070</ele><time>2022-03-04T10:55:35Z</time><extensions><speed>0.054439</speed><course>117.724907</course><hAcc>1.718702</hAcc><vAcc>0.821642</vAcc></extensions></trkpt>
      <trkpt lon="-2.247613" lat="53.109721"><ele>127.449493</ele><time>2022-03-04T10:55:36Z</time><extensions><speed>0.034020</speed><course>119.532310</course><hAcc>1.723283</hAcc><vAcc>0.820962</vAcc></extensions></trkpt>
      <trkpt lon="-2.247613" lat="53.109721"><ele>127.444778</ele><time>2022-03-04T10:55:37Z</time><extensions><speed>0.019444</speed><course>123.688919</course><hAcc>1.726637</hAcc><vAcc>0.820333</vAcc></extensions></trkpt>
      <trkpt lon="-2.247613" lat="53.109721"><ele>127.441360</ele><time>2022-03-04T10:55:38Z</time><extensions><speed>0.016053</speed><course>138.984711</course><hAcc>1.735358</hAcc><vAcc>0.819660</vAcc></extensions></trkpt>
      <trkpt lon="-2.247612" lat="53.109721"><ele>127.437172</ele><time>2022-03-04T10:55:39Z</time><extensions><speed>0.019767</speed><course>153.813187</course><hAcc>1.748073</hAcc><vAcc>0.818907</vAcc></extensions></trkpt>
      <trkpt lon="-2.247612" lat="53.109721"><ele>127.432899</ele><time>2022-03-04T10:55:40Z</time><extensions><speed>0.027773</speed><course>161.988800</course><hAcc>1.763108</hAcc><vAcc>0.818095</vAcc></extensions></trkpt>
      <trkpt lon="-2.247612" lat="53.109720"><ele>127.428734</ele><time>2022-03-04T10:55:41Z</time><extensions><speed>0.039329</speed><course>167.966507</course><hAcc>1.770095</hAcc><vAcc>0.817276</vAcc></extensions></trkpt>
      <trkpt lon="-2.247612" lat="53.109720"><ele>127.424942</ele><time>2022-03-04T10:55:42Z</time><extensions><speed>0.053903</speed><course>175.340363</course><hAcc>1.761711</hAcc><vAcc>0.816531</vAcc></extensions></trkpt>
      <trkpt lon="-2.247612" lat="53.109719"><ele>127.421837</ele><time>2022-03-04T10:55:43Z</time><extensions><speed>0.064597</speed><course>182.013062</course><hAcc>1.755855</hAcc><vAcc>0.815926</vAcc></extensions></trkpt>
      <trkpt lon="-2.247612" lat="53.109719"><ele>127.419640</ele><time>2022-03-04T10:55:44Z</time><extensions><speed>0.069689</speed><course>184.316895</course><hAcc>1.748828</hAcc><vAcc>0.815540</vAcc></extensions></trkpt>
      <trkpt lon="-2.247612" lat="53.109718"><ele>127.418411</ele><time>2022-03-04T10:55:45Z</time><extensions><speed>0.069437</speed><course>183.660034</course><hAcc>1.735760</hAcc><vAcc>0.815448</vAcc></extensions></trkpt>
      <trkpt lon="-2.247612" lat="53.109717"><ele>127.421738</ele><time>2022-03-04T10:55:46Z</time><extensions><speed>0.065256</speed><course>183.933777</course><hAcc>1.734923</hAcc><vAcc>0.815656</vAcc></extensions></trkpt>
      <trkpt lon="-2.247612" lat="53.109717"><ele>127.426407</ele><time>2022-03-04T10:55:47Z</time><extensions><speed>0.048965</speed><course>187.577850</course><hAcc>1.749392</hAcc><vAcc>0.816144</vAcc></extensions></trkpt>
      <trkpt lon="-2.247612" lat="53.109716"><ele>127.432259</ele><time>2022-03-04T10:55:48Z</time><extensions><speed>0.057647</speed><course>191.001175</course><hAcc>1.698078</hAcc><vAcc>0.816828</vAcc></extensions></trkpt>
      <trkpt lon="-2.247612" lat="53.109716"><ele>127.439110</ele><time>2022-03-04T10:55:49Z</time><extensions><speed>0.047108</speed><course>191.289093</course><hAcc>1.676239</hAcc><vAcc>0.817623</vAcc></extensions></trkpt>
      <trkpt lon="-2.247613" lat="53.109716"><ele>127.446815</ele><time>2022-03-04T10:55:50Z</time><extensions><speed>0.037745</speed><course>184.686996</course><hAcc>1.680027</hAcc><vAcc>0.818432</vAcc></extensions></trkpt>
      <trkpt lon="-2.247613" lat="53.109715"><ele>127.455231</ele><time>2022-03-04T10:55:51Z</time><extensions><speed>0.030134</speed><course>171.058121</course><hAcc>1.707728</hAcc><vAcc>0.819211</vAcc></extensions></trkpt>
      <trkpt lon="-2.247612" lat="53.109715"><ele>127.464233</ele><time>2022-03-04T10:55:52Z</time><extensions><speed>0.034052</speed><course>154.346191</course><hAcc>1.724383</hAcc><vAcc>0.819918</vAcc></extensions></trkpt>
      <trkpt lon="-2.247612" lat="53.109715"><ele>127.473694</ele><time>2022-03-04T10:55:53Z</time><extensions><speed>0.067626</speed><course>145.324677</course><hAcc>1.693772</hAcc><vAcc>0.820534</vAcc></extensions></trkpt>
      <trkpt lon="-2.247611" lat="53.109714"><ele>127.483452</ele><time>2022-03-04T10:55:53Z</time><extensions><speed>0.096955</speed><course>141.388931</course><hAcc>1.695033</hAcc><vAcc>0.821066</vAcc></extensions></trkpt>
      <trkpt lon="-2.247610" lat="53.109713"><ele>127.493347</ele><time>2022-03-04T10:55:54Z</time><extensions><speed>0.118414</speed><course>139.264542</course><hAcc>1.719739</hAcc><vAcc>0.821501</vAcc></extensions></trkpt>
      <trkpt lon="-2.247609" lat="53.109712"><ele>127.503174</ele><time>2022-03-04T10:55:55Z</time><extensions><speed>0.115034</speed><course>138.246323</course><hAcc>1.744464</hAcc><vAcc>0.821851</vAcc></extensions></trkpt>
      <trkpt lon="-2.247608" lat="53.109712"><ele>127.512711</ele><time>2022-03-04T10:55:56Z</time><extensions><speed>0.092860</speed><course>137.779099</course><hAcc>1.755776</hAcc><vAcc>0.822125</vAcc></extensions></trkpt>
      <trkpt lon="-2.247607" lat="53.109711"><ele>127.521774</ele><time>2022-03-04T10:55:57Z</time><extensions><speed>0.067732</speed><course>137.495651</course><hAcc>1.756210</hAcc><vAcc>0.822331</vAcc></extensions></trkpt>
      <trkpt lon="-2.247607" lat="53.109711"><ele>127.530243</ele><time>2022-03-04T10:55:58Z</time><extensions><speed>0.046376</speed><course>137.294296</course><hAcc>1.749348</hAcc><vAcc>0.822517</vAcc></extensions></trkpt>
      <trkpt lon="-2.247606" lat="53.109711"><ele>127.538017</ele><time>2022-03-04T10:55:59Z</time><extensions><speed>0.030344</speed><course>137.136337</course><hAcc>1.737800</hAcc><vAcc>0.822691</vAcc></extensions></trkpt>
      <trkpt lon="-2.247606" lat="53.109710"><ele>127.545052</ele><time>2022-03-04T10:56:00Z</time><extensions><speed>0.018988</speed><course>137.002884</course><hAcc>1.722983</hAcc><vAcc>0.822801</vAcc></extensions></trkpt>
      <trkpt lon="-2.247606" lat="53.109710"><ele>127.558372</ele><time>2022-03-04T10:56:01Z</time><extensions><speed>0.009602</speed><course>134.637497</course><hAcc>1.704588</hAcc><vAcc>0.822938</vAcc></extensions></trkpt>
      <trkpt lon="-2.247606" lat="53.109710"><ele>127.572891</ele><time>2022-03-04T10:56:02Z</time><extensions><speed>0.002279</speed><course>127.312569</course><hAcc>1.692962</hAcc><vAcc>0.823059</vAcc></extensions></trkpt>
      <trkpt lon="-2.247606" lat="53.109710"><ele>127.585266</ele><time>2022-03-04T10:56:03Z</time><extensions><speed>0.004374</speed><course>331.511444</course><hAcc>1.679140</hAcc><vAcc>0.823195</vAcc></extensions></trkpt>
      <trkpt lon="-2.247606" lat="53.109711"><ele>127.602959</ele><time>2022-03-04T10:56:04Z</time><extensions><speed>0.009388</speed><course>330.973053</course><hAcc>1.666840</hAcc><vAcc>0.823322</vAcc></extensions></trkpt>
      <trkpt lon="-2.247606" lat="53.109711"><ele>127.619263</ele><time>2022-03-04T10:56:05Z</time><extensions><speed>0.014360</speed><course>330.260010</course><hAcc>1.675256</hAcc><vAcc>0.823434</vAcc></extensions></trkpt>
      <trkpt lon="-2.247606" lat="53.109711"><ele>127.645691</ele><time>2022-03-04T10:56:06Z</time><extensions><speed>0.020845</speed><course>330.118866</course><hAcc>1.686172</hAcc><vAcc>0.823516</vAcc></extensions></trkpt>
      <trkpt lon="-2.247606" lat="53.109711"><ele>127.674110</ele><time>2022-03-04T10:56:07Z</time><extensions><speed>0.040269</speed><course>330.361115</course><hAcc>1.671435</hAcc><vAcc>0.823590</vAcc></extensions></trkpt>
      <trkpt lon="-2.247607" lat="53.109711"><ele>127.701492</ele><time>2022-03-04T10:56:08Z</time><extensions><speed>0.052470</speed><course>330.641510</course><hAcc>1.700101</hAcc><vAcc>0.823612</vAcc></extensions></trkpt>
      <trkpt lon="-2.247607" lat="53.109712"><ele>127.723427</ele><time>2022-03-04T10:56:09Z</time><extensions><speed>0.095504</speed><course>331.115570</course><hAcc>1.692765</hAcc><vAcc>0.823515</vAcc></extensions></trkpt>
      <trkpt lon="-2.247608" lat="53.109713"><ele>127.744835</ele><time>2022-03-04T10:56:10Z</time><extensions><speed>0.127406</speed><course>331.980255</course><hAcc>1.706133</hAcc><vAcc>0.823260</vAcc></extensions></trkpt>
      <trkpt lon="-2.247609" lat="53.109714"><ele>127.768730</ele><time>2022-03-04T10:56:11Z</time><extensions><speed>0.140946</speed><course>333.652008</course><hAcc>1.730524</hAcc><vAcc>0.822903</vAcc></extensions></trkpt>
      <trkpt lon="-2.247610" lat="53.109715"><ele>127.792854</ele><time>2022-03-04T10:56:12Z</time><extensions><speed>0.138501</speed><course>337.061981</course><hAcc>1.746242</hAcc><vAcc>0.822391</vAcc></extensions></trkpt>
      <trkpt lon="-2.247611" lat="53.109716"><ele>127.790222</ele><time>2022-03-04T10:56:13Z</time><extensions><speed>0.118571</speed><course>340.127869</course><hAcc>1.757027</hAcc><vAcc>0.821299</vAcc></extensions></trkpt>
      <trkpt lon="-2.247611" lat="53.109717"><ele>127.785118</ele><time>2022-03-04T10:56:14Z</time><extensions><speed>0.095130</speed><course>337.582123</course><hAcc>1.762268</hAcc><vAcc>0.820424</vAcc></extensions></trkpt>
      <trkpt lon="-2.247612" lat="53.109718"><ele>127.775215</ele><time>2022-03-04T10:56:15Z</time><extensions><speed>0.074009</speed><course>327.923859</course><hAcc>1.765210</hAcc><vAcc>0.819511</vAcc></extensions></trkpt>
      <trkpt lon="-2.247612" lat="53.109718"><ele>127.759773</ele><time>2022-03-04T10:56:16Z</time><extensions><speed>0.057583</speed><course>312.896332</course><hAcc>1.767042</hAcc><vAcc>0.818520</vAcc></extensions></trkpt>
      <trkpt lon="-2.247613" lat="53.109718"><ele>127.738510</ele><time>2022-03-04T10:56:17Z</time><extensions><speed>0.048836</speed><course>294.537994</course><hAcc>1.771002</hAcc><vAcc>0.817500</vAcc></extensions></trkpt>
      <trkpt lon="-2.247614" lat="53.109719"><ele>127.711395</ele><time>2022-03-04T10:56:18Z</time><extensions><speed>0.047970</speed><course>280.432587</course><hAcc>1.763136</hAcc><vAcc>0.816478</vAcc></extensions></trkpt>
      <trkpt lon="-2.247614" lat="53.109719"><ele>127.678787</ele><time>2022-03-04T10:56:19Z</time><extensions><speed>0.044894</speed><course>276.391571</course><hAcc>1.762795</hAcc><vAcc>0.815498</vAcc></extensions></trkpt>
      <trkpt lon="-2.247615" lat="53.109719"><ele>127.641411</ele><time>2022-03-04T10:56:20Z</time><extensions><speed>0.040450</speed><course>284.182770</course><hAcc>1.775174</hAcc><vAcc>0.814692</vAcc></extensions></trkpt>
      <trkpt lon="-2.247616" lat="53.109719"><ele>127.620605</ele><time>2022-03-04T10:56:21Z</time><extensions><speed>0.037114</speed><course>299.880188</course><hAcc>1.783077</hAcc><vAcc>0.814099</vAcc></extensions></trkpt>
      <trkpt lon="-2.247616" lat="53.109719"><ele>127.596367</ele><time>2022-03-04T10:56:22Z</time><extensions><speed>0.033332</speed><course>315.016846</course><hAcc>1.782194</hAcc><vAcc>0.813837</vAcc></extensions></trkpt>
      <trkpt lon="-2.247616" lat="53.109719"><ele>127.566071</ele><time>2022-03-04T10:56:23Z</time><extensions><speed>0.027574</speed><course>321.284912</course><hAcc>1.767579</hAcc><vAcc>0.813904</vAcc></extensions></trkpt>
      <trkpt lon="-2.247616" lat="53.109719"><ele>127.540672</ele><time>2022-03-04T10:56:24Z</time><extensions><speed>0.015424</speed><course>323.850372</course><hAcc>1.763498</hAcc><vAcc>0.814294</vAcc></extensions></trkpt>
      <trkpt lon="-2.247616" lat="53.109719"><ele>127.522469</ele><time>2022-03-04T10:56:25Z</time><extensions><speed>0.002180</speed><course>326.250336</course><hAcc>1.762937</hAcc><vAcc>0.814970</vAcc></extensions></trkpt>
      <trkpt lon="-2.247616" lat="53.109719"><ele>127.510307</ele><time>2022-03-04T10:56:26Z</time><extensions><speed>0.010921</speed><course>145.035645</course><hAcc>1.760667</hAcc><vAcc>0.815732</vAcc></extensions></trkpt>
      <trkpt lon="-2.247616" lat="53.109719"><ele>127.502266</ele><time>2022-03-04T10:56:27Z</time><extensions><speed>0.025580</speed><course>146.691406</course><hAcc>1.761608</hAcc><vAcc>0.816533</vAcc></extensions></trkpt>
      <trkpt lon="-2.247616" lat="53.109719"><ele>127.505119</ele><time>2022-03-04T10:56:28Z</time><extensions><speed>0.042115</speed><course>145.310486</course><hAcc>1.760587</hAcc><vAcc>0.817334</vAcc></extensions></trkpt>
      <trkpt lon="-2.247616" lat="53.109719"><ele>127.508583</ele><time>2022-03-04T10:56:29Z</time><extensions><speed>0.062154</speed><course>142.575012</course><hAcc>1.755437</hAcc><vAcc>0.818062</vAcc></extensions></trkpt>
      <trkpt lon="-2.247615" lat="53.109718"><ele>127.519463</ele><time>2022-03-04T10:56:30Z</time><extensions><speed>0.077490</speed><course>138.341827</course><hAcc>1.751699</hAcc><vAcc>0.818530</vAcc></extensions></trkpt>
      <trkpt lon="-2.247614" lat="53.109718"><ele>127.543922</ele><time>2022-03-04T10:56:31Z</time><extensions><speed>0.077673</speed><course>128.061172</course><hAcc>1.747590</hAcc><vAcc>0.818447</vAcc></extensions></trkpt>
      <trkpt lon="-2.247613" lat="53.109717"><ele>127.566017</ele><time>2022-03-04T10:56:32Z</time><extensions><speed>0.061280</speed><course>110.769669</course><hAcc>1.752833</hAcc><vAcc>0.817367</vAcc></extensions></trkpt>
      <trkpt lon="-2.247612" lat="53.109717"><ele>127.598129</ele><time>2022-03-04T10:56:33Z</time><extensions><speed>0.048040</speed><course>93.673515</course><hAcc>1.760879</hAcc><vAcc>0.816206</vAcc></extensions></trkpt>
      <trkpt lon="-2.247612" lat="53.109717"><ele>127.613129</ele><time>2022-03-04T10:56:34Z</time><extensions><speed>0.035582</speed><course>78.731773</course><hAcc>1.773519</hAcc><vAcc>0.815149</vAcc></extensions></trkpt>
      <trkpt lon="-2.247611" lat="53.109717"><ele>127.634422</ele><time>2022-03-04T10:56:35Z</time><extensions><speed>0.031543</speed><course>80.474892</course><hAcc>1.773216</hAcc><vAcc>0.813828</vAcc></extensions></trkpt>
      <trkpt lon="-2.247611" lat="53.109717"><ele>127.659088</ele><time>2022-03-04T10:56:36Z</time><extensions><speed>0.034414</speed><course>97.811531</course><hAcc>1.771622</hAcc><vAcc>0.812414</vAcc></extensions></trkpt>
      <trkpt lon="-2.247610" lat="53.109717"><ele>127.691116</ele><time>2022-03-04T10:56:37Z</time><extensions><speed>0.035422</speed><course>92.477226</course><hAcc>1.781538</hAcc><vAcc>0.810933</vAcc></extensions></trkpt>
      <trkpt lon="-2.247610" lat="53.109717"><ele>127.718094</ele><time>2022-03-04T10:56:38Z</time><extensions><speed>0.028739</speed><course>51.642017</course><hAcc>1.795458</hAcc><vAcc>0.809469</vAcc></extensions></trkpt>
      <trkpt lon="-2.247610" lat="53.109718"><ele>127.739677</ele><time>2022-03-04T10:56:39Z</time><extensions><speed>0.049602</speed><course>341.702423</course><hAcc>1.808879</hAcc><vAcc>0.808130</vAcc></extensions></trkpt>
      <trkpt lon="-2.247610" lat="53.109718"><ele>127.754608</ele><time>2022-03-04T10:56:40Z</time><extensions><speed>0.111386</speed><course>323.984558</course><hAcc>1.817497</hAcc><vAcc>0.807028</vAcc></extensions></trkpt>
      <trkpt lon="-2.247612" lat="53.109719"><ele>127.769684</ele><time>2022-03-04T10:56:41Z</time><extensions><speed>0.174948</speed><course>323.448914</course><hAcc>1.822184</hAcc><vAcc>0.806325</vAcc></extensions></trkpt>
      <trkpt lon="-2.247613" lat="53.109721"><ele>127.774124</ele><time>2022-03-04T10:56:42Z</time><extensions><speed>0.227301</speed><course>328.354279</course><hAcc>1.817371</hAcc><vAcc>0.806167</vAcc></extensions></trkpt>
      <trkpt lon="-2.247615" lat="53.109723"><ele>127.774101</ele><time>2022-03-04T10:56:43Z</time><extensions><speed>0.252858</speed><course>335.359924</course><hAcc>1.812474</hAcc><vAcc>0.806664</vAcc></extensions></trkpt>
      <trkpt lon="-2.247616" lat="53.109724"><ele>127.770004</ele><time>2022-03-04T10:56:44Z</time><extensions><speed>0.128626</speed><course>13.788593</course><hAcc>1.818370</hAcc><vAcc>0.807724</vAcc></extensions></trkpt>
      <trkpt lon="-2.247615" lat="53.109725"><ele>127.763542</ele><time>2022-03-04T10:56:45Z</time><extensions><speed>0.110246</speed><course>34.413700</course><hAcc>1.803138</hAcc><vAcc>0.809198</vAcc></extensions></trkpt>
      <trkpt lon="-2.247614" lat="53.109726"><ele>127.746811</ele><time>2022-03-04T10:56:46Z</time><extensions><speed>0.080736</speed><course>24.131430</course><hAcc>1.790603</hAcc><vAcc>0.810875</vAcc></extensions></trkpt>
      <trkpt lon="-2.247614" lat="53.109727"><ele>127.729630</ele><time>2022-03-04T10:56:47Z</time><extensions><speed>0.057857</speed><course>356.831360</course><hAcc>1.778412</hAcc><vAcc>0.812636</vAcc></extensions></trkpt>
      <trkpt lon="-2.247614" lat="53.109727"><ele>127.709381</ele><time>2022-03-04T10:56:48Z</time><extensions><speed>0.047301</speed><course>323.009460</course><hAcc>1.768038</hAcc><vAcc>0.814373</vAcc></extensions></trkpt>
      <trkpt lon="-2.247615" lat="53.109727"><ele>127.690239</ele><time>2022-03-04T10:56:49Z</time><extensions><speed>0.045398</speed><course>300.019135</course><hAcc>1.759132</hAcc><vAcc>0.815999</vAcc></extensions></trkpt>
      <trkpt lon="-2.247615" lat="53.109728"><ele>127.674530</ele><time>2022-03-04T10:56:50Z</time><extensions><speed>0.047446</speed><course>297.458313</course><hAcc>1.747324</hAcc><vAcc>0.817483</vAcc></extensions></trkpt>
      <trkpt lon="-2.247616" lat="53.109728"><ele>127.655014</ele><time>2022-03-04T10:56:51Z</time><extensions><speed>0.051984</speed><course>306.008850</course><hAcc>1.741425</hAcc><vAcc>0.818781</vAcc></extensions></trkpt>
      <trkpt lon="-2.247617" lat="53.109728"><ele>127.638901</ele><time>2022-03-04T10:56:52Z</time><extensions><speed>0.062308</speed><course>315.590118</course><hAcc>1.743494</hAcc><vAcc>0.819901</vAcc></extensions></trkpt>
      <trkpt lon="-2.247617" lat="53.109729"><ele>127.626175</ele><time>2022-03-04T10:56:53Z</time><extensions><speed>0.081747</speed><course>321.505280</course><hAcc>1.745831</hAcc><vAcc>0.820849</vAcc></extensions></trkpt>
      <trkpt lon="-2.247618" lat="53.109729"><ele>127.620743</ele><time>2022-03-04T10:56:54Z</time><extensions><speed>0.106395</speed><course>323.026581</course><hAcc>1.746385</hAcc><vAcc>0.821631</vAcc></extensions></trkpt>
      <trkpt lon="-2.247619" lat="53.109730"><ele>127.615494</ele><time>2022-03-04T10:56:55Z</time><extensions><speed>0.123366</speed><course>320.465851</course><hAcc>1.746782</hAcc><vAcc>0.822276</vAcc></extensions></trkpt>
      <trkpt lon="-2.247621" lat="53.109731"><ele>127.616676</ele><time>2022-03-04T10:56:56Z</time><extensions><speed>0.141467</speed><course>315.962585</course><hAcc>1.739659</hAcc><vAcc>0.822810</vAcc></extensions></trkpt>
      <trkpt lon="-2.247622" lat="53.109732"><ele>127.625946</ele><time>2022-03-04T10:56:57Z</time><extensions><speed>0.151850</speed><course>311.583832</course><hAcc>1.740456</hAcc><vAcc>0.823258</vAcc></extensions></trkpt>
      <trkpt lon="-2.247624" lat="53.109733"><ele>127.626358</ele><time>2022-03-04T10:56:58Z</time><extensions><speed>0.149159</speed><course>308.223877</course><hAcc>1.742439</hAcc><vAcc>0.823602</vAcc></extensions></trkpt>
      <trkpt lon="-2.247626" lat="53.109734"><ele>127.628906</ele><time>2022-03-04T10:56:59Z</time><extensions><speed>0.126227</speed><course>306.733002</course><hAcc>1.746358</hAcc><vAcc>0.823779</vAcc></extensions></trkpt>
      <trkpt lon="-2.247627" lat="53.109734"><ele>127.648491</ele><time>2022-03-04T10:57:00Z</time><extensions><speed>0.099502</speed><course>306.592865</course><hAcc>1.751264</hAcc><vAcc>0.823704</vAcc></extensions></trkpt>
      <trkpt lon="-2.247628" lat="53.109735"><ele>127.659966</ele><time>2022-03-04T10:57:01Z</time><extensions><speed>0.072440</speed><course>306.223297</course><hAcc>1.754335</hAcc><vAcc>0.823683</vAcc></extensions></trkpt>
      <trkpt lon="-2.247629" lat="53.109735"><ele>127.674675</ele><time>2022-03-04T10:57:02Z</time><extensions><speed>0.042107</speed><course>306.633881</course><hAcc>1.753961</hAcc><vAcc>0.823581</vAcc></extensions></trkpt>
      <trkpt lon="-2.247629" lat="53.109735"><ele>127.693001</ele><time>2022-03-04T10:57:03Z</time><extensions><speed>0.004579</speed><course>295.308014</course><hAcc>1.752222</hAcc><vAcc>0.823365</vAcc></extensions></trkpt>
      <trkpt lon="-2.247629" lat="53.109735"><ele>127.703972</ele><time>2022-03-04T10:57:04Z</time><extensions><speed>0.042072</speed><course>136.605667</course><hAcc>1.751828</hAcc><vAcc>0.823101</vAcc></extensions></trkpt>
      <trkpt lon="-2.247628" lat="53.109734"><ele>127.721832</ele><time>2022-03-04T10:57:05Z</time><extensions><speed>0.088618</speed><course>138.672409</course><hAcc>1.754373</hAcc><vAcc>0.822797</vAcc></extensions></trkpt>
      <trkpt lon="-2.247627" lat="53.109734"><ele>127.735970</ele><time>2022-03-04T10:57:06Z</time><extensions><speed>0.122704</speed><course>140.524765</course><hAcc>1.758779</hAcc><vAcc>0.822452</vAcc></extensions></trkpt>
      <trkpt lon="-2.247626" lat="53.109733"><ele>127.748695</ele><time>2022-03-04T10:57:08Z</time><extensions><speed>0.129173</speed><course>138.745407</course><hAcc>1.765654</hAcc><vAcc>0.822072</vAcc></extensions></trkpt>
      <trkpt lon="-2.247625" lat="53.109732"><ele>127.754608</ele><time>2022-03-04T10:57:09Z</time><extensions><speed>0.113138</speed><course>131.525101</course><hAcc>1.767974</hAcc><vAcc>0.821697</vAcc></extensions></trkpt>
      <trkpt lon="-2.247623" lat="53.109732"><ele>127.760277</ele><time>2022-03-04T10:57:10Z</time><extensions><speed>0.089703</speed><course>119.664452</course><hAcc>1.764528</hAcc><vAcc>0.821400</vAcc></extensions></trkpt>
      <trkpt lon="-2.247622" lat="53.109731"><ele>127.778015</ele><time>2022-03-04T10:57:11Z</time><extensions><speed>0.062828</speed><course>98.652138</course><hAcc>1.763320</hAcc><vAcc>0.821238</vAcc></extensions></trkpt>
      <trkpt lon="-2.247622" lat="53.109732"><ele>127.794533</ele><time>2022-03-04T10:57:12Z</time><extensions><speed>0.057843</speed><course>50.886993</course><hAcc>1.767703</hAcc><vAcc>0.821227</vAcc></extensions></trkpt>
      <trkpt lon="-2.247621" lat="53.109732"><ele>127.814178</ele><time>2022-03-04T10:57:13Z</time><extensions><speed>0.095800</speed><course>17.671005</course><hAcc>1.769803</hAcc><vAcc>0.821376</vAcc></extensions></trkpt>
      <trkpt lon="-2.247621" lat="53.109733"><ele>127.829422</ele><time>2022-03-04T10:57:14Z</time><extensions><speed>0.142633</speed><course>1.458366</course><hAcc>1.766287</hAcc><vAcc>0.821649</vAcc></extensions></trkpt>
      <trkpt lon="-2.247621" lat="53.109735"><ele>127.843025</ele><time>2022-03-04T10:57:15Z</time><extensions><speed>0.183681</speed><course>347.069183</course><hAcc>1.762325</hAcc><vAcc>0.822041</vAcc></extensions></trkpt>
      <trkpt lon="-2.247622" lat="53.109736"><ele>127.860260</ele><time>2022-03-04T10:57:16Z</time><extensions><speed>0.218305</speed><course>331.758392</course><hAcc>1.759878</hAcc><vAcc>0.822519</vAcc></extensions></trkpt>
      <trkpt lon="-2.247625" lat="53.109738"><ele>127.877579</ele><time>2022-03-04T10:57:17Z</time><extensions><speed>0.254005</speed><course>317.655487</course><hAcc>1.756711</hAcc><vAcc>0.823065</vAcc></extensions></trkpt>
      <trkpt lon="-2.247628" lat="53.109740"><ele>127.896378</ele><time>2022-03-04T10:57:18Z</time><extensions><speed>0.292157</speed><course>306.000092</course><hAcc>1.753738</hAcc><vAcc>0.823679</vAcc></extensions></trkpt>
      <trkpt lon="-2.247632" lat="53.109741"><ele>127.917038</ele><time>2022-03-04T10:57:19Z</time><extensions><speed>0.325745</speed><course>296.851898</course><hAcc>1.754294</hAcc><vAcc>0.824331</vAcc></extensions></trkpt>
      <trkpt lon="-2.247636" lat="53.109742"><ele>127.937668</ele><time>2022-03-04T10:57:20Z</time><extensions><speed>0.362498</speed><course>290.260010</course><hAcc>1.751416</hAcc><vAcc>0.824996</vAcc></extensions></trkpt>
      <trkpt lon="-2.247642" lat="53.109743"><ele>127.951248</ele><time>2022-03-04T10:57:21Z</time><extensions><speed>0.377465</speed><course>284.285919</course><hAcc>1.749625</hAcc><vAcc>0.825655</vAcc></extensions></trkpt>
      <trkpt lon="-2.247647" lat="53.109744"><ele>127.961151</ele><time>2022-03-04T10:57:22Z</time><extensions><speed>0.372320</speed><course>278.174469</course><hAcc>1.749717</hAcc><vAcc>0.826285</vAcc></extensions></trkpt>
      <trkpt lon="-2.247653" lat="53.109744"><ele>127.970978</ele><time>2022-03-04T10:57:23Z</time><extensions><speed>0.371546</speed><course>272.509949</course><hAcc>1.747295</hAcc><vAcc>0.826850</vAcc></extensions></trkpt>
      <trkpt lon="-2.247658" lat="53.109744"><ele>127.982330</ele><time>2022-03-04T10:57:24Z</time><extensions><speed>0.366094</speed><course>267.703766</course><hAcc>1.748273</hAcc><vAcc>0.827267</vAcc></extensions></trkpt>
      <trkpt lon="-2.247664" lat="53.109744"><ele>128.013168</ele><time>2022-03-04T10:57:25Z</time><extensions><speed>0.377160</speed><course>264.223907</course><hAcc>1.747497</hAcc><vAcc>0.827638</vAcc></extensions></trkpt>
      <trkpt lon="-2.247670" lat="53.109743"><ele>128.026016</ele><time>2022-03-04T10:57:26Z</time><extensions><speed>0.396464</speed><course>261.460999</course><hAcc>1.747254</hAcc><vAcc>0.827945</vAcc></extensions></trkpt>
      <trkpt lon="-2.247676" lat="53.109743"><ele>128.044510</ele><time>2022-03-04T10:57:27Z</time><extensions><speed>0.417017</speed><course>258.160614</course><hAcc>1.748232</hAcc><vAcc>0.828155</vAcc></extensions></trkpt>
      <trkpt lon="-2.247682" lat="53.109742"><ele>128.060806</ele><time>2022-03-04T10:57:28Z</time><extensions><speed>0.436567</speed><course>252.829758</course><hAcc>1.748673</hAcc><vAcc>0.828280</vAcc></extensions></trkpt>
      <trkpt lon="-2.247688" lat="53.109740"><ele>128.076050</ele><time>2022-03-04T10:57:29Z</time><extensions><speed>0.461561</speed><course>244.145172</course><hAcc>1.746361</hAcc><vAcc>0.828321</vAcc></extensions></trkpt>
      <trkpt lon="-2.247694" lat="53.109738"><ele>128.090775</ele><time>2022-03-04T10:57:30Z</time><extensions><speed>0.484721</speed><course>232.595673</course><hAcc>1.745032</hAcc><vAcc>0.828287</vAcc></extensions></trkpt>
      <trkpt lon="-2.247699" lat="53.109735"><ele>128.107452</ele><time>2022-03-04T10:57:31Z</time><extensions><speed>0.505469</speed><course>220.502029</course><hAcc>1.746519</hAcc><vAcc>0.828167</vAcc></extensions></trkpt>
      <trkpt lon="-2.247704" lat="53.109731"><ele>128.120667</ele><time>2022-03-04T10:57:32Z</time><extensions><speed>0.540726</speed><course>209.399506</course><hAcc>1.744715</hAcc><vAcc>0.827993</vAcc></extensions></trkpt>
      <trkpt lon="-2.247707" lat="53.109726"><ele>128.133652</ele><time>2022-03-04T10:57:33Z</time><extensions><speed>0.604792</speed><course>199.668869</course><hAcc>1.735860</hAcc><vAcc>0.827784</vAcc></extensions></trkpt>
      <trkpt lon="-2.247710" lat="53.109721"><ele>128.148438</ele><time>2022-03-04T10:57:34Z</time><extensions><speed>0.713043</speed><course>191.987396</course><hAcc>1.725316</hAcc><vAcc>0.827559</vAcc></extensions></trkpt>
      <trkpt lon="-2.247712" lat="53.109713"><ele>128.164398</ele><time>2022-03-04T10:57:35Z</time><extensions><speed>0.877044</speed><course>187.865280</course><hAcc>1.724124</hAcc><vAcc>0.827335</vAcc></extensions></trkpt>
      <trkpt lon="-2.247712" lat="53.109706"><ele>128.182220</ele><time>2022-03-04T10:57:36Z</time><extensions><speed>0.740043</speed><course>178.647705</course><hAcc>1.727787</hAcc><vAcc>0.827121</vAcc></extensions></trkpt>
      <trkpt lon="-2.247712" lat="53.109700"><ele>128.203674</ele><time>2022-03-04T10:57:37Z</time><extensions><speed>0.559722</speed><course>171.523392</course><hAcc>1.712372</hAcc><vAcc>0.826917</vAcc></extensions></trkpt>
      <trkpt lon="-2.247710" lat="53.109696"><ele>128.230881</ele><time>2022-03-04T10:57:38Z</time><extensions><speed>0.349323</speed><course>162.549377</course><hAcc>1.707438</hAcc><vAcc>0.826747</vAcc></extensions></trkpt>
      <trkpt lon="-2.247709" lat="53.109694"><ele>128.259033</ele><time>2022-03-04T10:57:39Z</time><extensions><speed>0.252761</speed><course>154.138138</course><hAcc>1.716566</hAcc><vAcc>0.826598</vAcc></extensions></trkpt>
      <trkpt lon="-2.247707" lat="53.109692"><ele>128.297119</ele><time>2022-03-04T10:57:40Z</time><extensions><speed>0.245537</speed><course>149.546249</course><hAcc>1.715863</hAcc><vAcc>0.826456</vAcc></extensions></trkpt>
      <trkpt lon="-2.247705" lat="53.109690"><ele>128.343353</ele><time>2022-03-04T10:57:41Z</time><extensions><speed>0.275664</speed><course>148.811050</course><hAcc>1.705875</hAcc><vAcc>0.826334</vAcc></extensions></trkpt>
      <trkpt lon="-2.247703" lat="53.109688"><ele>128.398254</ele><time>2022-03-04T10:57:42Z</time><extensions><speed>0.285451</speed><course>149.879227</course><hAcc>1.704119</hAcc><vAcc>0.826234</vAcc></extensions></trkpt>
      <trkpt lon="-2.247701" lat="53.109685"><ele>128.458511</ele><time>2022-03-04T10:57:43Z</time><extensions><speed>0.275147</speed><course>151.112778</course><hAcc>1.704802</hAcc><vAcc>0.826160</vAcc></extensions></trkpt>
      <trkpt lon="-2.247699" lat="53.109683"><ele>128.523117</ele><time>2022-03-04T10:57:44Z</time><extensions><speed>0.245406</speed><course>152.466400</course><hAcc>1.700740</hAcc><vAcc>0.826109</vAcc></extensions></trkpt>
      <trkpt lon="-2.247697" lat="53.109681"><ele>128.592468</ele><time>2022-03-04T10:57:45Z</time><extensions><speed>0.204619</speed><course>154.563202</course><hAcc>1.690167</hAcc><vAcc>0.826080</vAcc></extensions></trkpt>
      <trkpt lon="-2.247696" lat="53.109680"><ele>128.665085</ele><time>2022-03-04T10:57:46Z</time><extensions><speed>0.170073</speed><course>156.936798</course><hAcc>1.674787</hAcc><vAcc>0.826072</vAcc></extensions></trkpt>
      <trkpt lon="-2.247695" lat="53.109679"><ele>128.732742</ele><time>2022-03-04T10:57:47Z</time><extensions><speed>0.132544</speed><course>160.050720</course><hAcc>1.677900</hAcc><vAcc>0.826077</vAcc></extensions></trkpt>
      <trkpt lon="-2.247695" lat="53.109678"><ele>128.798538</ele><time>2022-03-04T10:57:48Z</time><extensions><speed>0.082748</speed><course>166.638443</course><hAcc>1.708054</hAcc><vAcc>0.826082</vAcc></extensions></trkpt>
      <trkpt lon="-2.247695" lat="53.109677"><ele>128.855392</ele><time>2022-03-04T10:57:49Z</time><extensions><speed>0.076514</speed><course>177.163925</course><hAcc>1.701715</hAcc><vAcc>0.826085</vAcc></extensions></trkpt>
      <trkpt lon="-2.247695" lat="53.109676"><ele>128.905930</ele><time>2022-03-04T10:57:50Z</time><extensions><speed>0.089072</speed><course>185.602356</course><hAcc>1.676255</hAcc><vAcc>0.826091</vAcc></extensions></trkpt>
      <trkpt lon="-2.247695" lat="53.109676"><ele>128.950912</ele><time>2022-03-04T10:57:51Z</time><extensions><speed>0.087660</speed><course>189.331955</course><hAcc>1.678208</hAcc><vAcc>0.826095</vAcc></extensions></trkpt>
      <trkpt lon="-2.247695" lat="53.109675"><ele>128.985992</ele><time>2022-03-04T10:57:52Z</time><extensions><speed>0.078558</speed><course>187.290131</course><hAcc>1.695220</hAcc><vAcc>0.826098</vAcc></extensions></trkpt>
      <trkpt lon="-2.247695" lat="53.109674"><ele>129.026123</ele><time>2022-03-04T10:57:53Z</time><extensions><speed>0.066615</speed><course>178.303818</course><hAcc>1.711163</hAcc><vAcc>0.826112</vAcc></extensions></trkpt>
      <trkpt lon="-2.247695" lat="53.109674"><ele>129.059647</ele><time>2022-03-04T10:57:54Z</time><extensions><speed>0.062435</speed><course>160.103424</course><hAcc>1.725000</hAcc><vAcc>0.826111</vAcc></extensions></trkpt>
      <trkpt lon="-2.247694" lat="53.109673"><ele>129.082840</ele><time>2022-03-04T10:57:55Z</time><extensions><speed>0.084730</speed><course>143.664261</course><hAcc>1.733577</hAcc><vAcc>0.826103</vAcc></extensions></trkpt>
      <trkpt lon="-2.247693" lat="53.109672"><ele>129.099075</ele><time>2022-03-04T10:57:56Z</time><extensions><speed>0.137001</speed><course>140.269043</course><hAcc>1.739093</hAcc><vAcc>0.826089</vAcc></extensions></trkpt>
      <trkpt lon="-2.247692" lat="53.109671"><ele>129.106934</ele><time>2022-03-04T10:57:57Z</time><extensions><speed>0.229702</speed><course>144.610336</course><hAcc>1.738279</hAcc><vAcc>0.826066</vAcc></extensions></trkpt>
      <trkpt lon="-2.247689" lat="53.109669"><ele>129.112549</ele><time>2022-03-04T10:57:58Z</time><extensions><speed>0.394494</speed><course>151.188156</course><hAcc>1.730186</hAcc><vAcc>0.826024</vAcc></extensions></trkpt>
      <trkpt lon="-2.247686" lat="53.109665"><ele>129.108398</ele><time>2022-03-04T10:57:59Z</time><extensions><speed>0.459488</speed><course>154.673065</course><hAcc>1.741636</hAcc><vAcc>0.825958</vAcc></extensions></trkpt>
      <trkpt lon="-2.247683" lat="53.109661"><ele>129.102234</ele><time>2022-03-04T10:58:00Z</time><extensions><speed>0.470223</speed><course>153.155655</course><hAcc>1.745995</hAcc><vAcc>0.825879</vAcc></extensions></trkpt>
      <trkpt lon="-2.247680" lat="53.109658"><ele>129.096405</ele><time>2022-03-04T10:58:00Z</time><extensions><speed>0.412496</speed><course>149.384109</course><hAcc>1.745037</hAcc><vAcc>0.825773</vAcc></extensions></trkpt>
      <trkpt lon="-2.247677" lat="53.109655"><ele>129.087753</ele><time>2022-03-04T10:58:01Z</time><extensions><speed>0.278279</speed><course>143.106918</course><hAcc>1.742602</hAcc><vAcc>0.825646</vAcc></extensions></trkpt>
      <trkpt lon="-2.247676" lat="53.109654"><ele>129.070633</ele><time>2022-03-04T10:58:02Z</time><extensions><speed>0.053149</speed><course>118.317955</course><hAcc>1.743228</hAcc><vAcc>0.825467</vAcc></extensions></trkpt>
      <trkpt lon="-2.247675" lat="53.109654"><ele>129.047150</ele><time>2022-03-04T10:58:03Z</time><extensions><speed>0.065009</speed><course>350.613739</course><hAcc>1.741823</hAcc><vAcc>0.825302</vAcc></extensions></trkpt>
      <trkpt lon="-2.247676" lat="53.109655"><ele>129.021469</ele><time>2022-03-04T10:58:04Z</time><extensions><speed>0.107899</speed><course>346.869781</course><hAcc>1.744618</hAcc><vAcc>0.825133</vAcc></extensions></trkpt>
      <trkpt lon="-2.247676" lat="53.109656"><ele>128.993866</ele><time>2022-03-04T10:58:05Z</time><extensions><speed>0.130026</speed><course>357.960968</course><hAcc>1.746354</hAcc><vAcc>0.824955</vAcc></extensions></trkpt>
      <trkpt lon="-2.247676" lat="53.109657"><ele>128.964645</ele><time>2022-03-04T10:58:06Z</time><extensions><speed>0.147589</speed><course>13.766915</course><hAcc>1.748161</hAcc><vAcc>0.824777</vAcc></extensions></trkpt>
      <trkpt lon="-2.247675" lat="53.109659"><ele>128.934097</ele><time>2022-03-04T10:58:07Z</time><extensions><speed>0.155378</speed><course>33.832756</course><hAcc>1.751312</hAcc><vAcc>0.824611</vAcc></extensions></trkpt>
      <trkpt lon="-2.247673" lat="53.109660"><ele>128.902496</ele><time>2022-03-04T10:58:08Z</time><extensions><speed>0.170312</speed><course>60.123856</course><hAcc>1.748194</hAcc><vAcc>0.824466</vAcc></extensions></trkpt>
      <trkpt lon="-2.247670" lat="53.109660"><ele>128.870178</ele><time>2022-03-04T10:58:09Z</time><extensions><speed>0.210457</speed><course>87.437645</course><hAcc>1.737380</hAcc><vAcc>0.824357</vAcc></extensions></trkpt>
      <trkpt lon="-2.247667" lat="53.109660"><ele>128.837448</ele><time>2022-03-04T10:58:10Z</time><extensions><speed>0.284804</speed><course>108.421417</course><hAcc>1.720377</hAcc><vAcc>0.824288</vAcc></extensions></trkpt>
      <trkpt lon="-2.247663" lat="53.109659"><ele>128.806686</ele><time>2022-03-04T10:58:11Z</time><extensions><speed>0.227959</speed><course>101.282486</course><hAcc>1.716017</hAcc><vAcc>0.824257</vAcc></extensions></trkpt>
      <trkpt lon="-2.247659" lat="53.109659"><ele>128.769104</ele><time>2022-03-04T10:58:12Z</time><extensions><speed>0.198753</speed><course>97.113701</course><hAcc>1.685068</hAcc><vAcc>0.824277</vAcc></extensions></trkpt>
      <trkpt lon="-2.247656" lat="53.109659"><ele>128.731735</ele><time>2022-03-04T10:58:13Z</time><extensions><speed>0.159017</speed><course>92.542923</course><hAcc>1.648799</hAcc><vAcc>0.824342</vAcc></extensions></trkpt>
      <trkpt lon="-2.247654" lat="53.109659"><ele>128.695129</ele><time>2022-03-04T10:58:14Z</time><extensions><speed>0.123124</speed><course>86.592834</course><hAcc>1.622118</hAcc><vAcc>0.824438</vAcc></extensions></trkpt>
      <trkpt lon="-2.247653" lat="53.109659"><ele>128.659683</ele><time>2022-03-04T10:58:15Z</time><extensions><speed>0.088305</speed><course>79.168701</course><hAcc>1.618928</hAcc><vAcc>0.824554</vAcc></extensions></trkpt>
      <trkpt lon="-2.247651" lat="53.109659"><ele>128.625671</ele><time>2022-03-04T10:58:16Z</time><extensions><speed>0.072833</speed><course>71.049004</course><hAcc>1.621053</hAcc><vAcc>0.824680</vAcc></extensions></trkpt>
      <trkpt lon="-2.247650" lat="53.109660"><ele>128.596222</ele><time>2022-03-04T10:58:17Z</time><extensions><speed>0.081870</speed><course>65.274857</course><hAcc>1.618690</hAcc><vAcc>0.824808</vAcc></extensions></trkpt>
      <trkpt lon="-2.247649" lat="53.109660"><ele>128.569992</ele><time>2022-03-04T10:58:18Z</time><extensions><speed>0.109045</speed><course>61.499664</course><hAcc>1.613926</hAcc><vAcc>0.824929</vAcc></extensions></trkpt>
      <trkpt lon="-2.247647" lat="53.109661"><ele>128.548019</ele><time>2022-03-04T10:58:19Z</time><extensions><speed>0.207174</speed><course>59.777073</course><hAcc>1.575784</hAcc><vAcc>0.825035</vAcc></extensions></trkpt>
      <trkpt lon="-2.247644" lat="53.109662"><ele>128.532410</ele><time>2022-03-04T10:58:20Z</time><extensions><speed>0.254033</speed><course>59.052147</course><hAcc>1.576299</hAcc><vAcc>0.825125</vAcc></extensions></trkpt>
      <trkpt lon="-2.247641" lat="53.109663"><ele>128.521576</ele><time>2022-03-04T10:58:21Z</time><extensions><speed>0.227244</speed><course>59.013195</course><hAcc>1.617547</hAcc><vAcc>0.825193</vAcc></extensions></trkpt>
      <trkpt lon="-2.247639" lat="53.109664"><ele>128.515350</ele><time>2022-03-04T10:58:22Z</time><extensions><speed>0.121959</speed><course>60.057739</course><hAcc>1.672469</hAcc><vAcc>0.825242</vAcc></extensions></trkpt>
      <trkpt lon="-2.247637" lat="53.109664"><ele>128.512909</ele><time>2022-03-04T10:58:23Z</time><extensions><speed>0.127161</speed><course>62.430180</course><hAcc>1.648756</hAcc><vAcc>0.825273</vAcc></extensions></trkpt>
      <trkpt lon="-2.247635" lat="53.109665"><ele>128.514297</ele><time>2022-03-04T10:58:24Z</time><extensions><speed>0.105152</speed><course>65.966965</course><hAcc>1.646272</hAcc><vAcc>0.825282</vAcc></extensions></trkpt>
      <trkpt lon="-2.247634" lat="53.109665"><ele>128.519379</ele><time>2022-03-04T10:58:25Z</time><extensions><speed>0.080591</speed><course>71.515114</course><hAcc>1.661505</hAcc><vAcc>0.825270</vAcc></extensions></trkpt>
      <trkpt lon="-2.247633" lat="53.109665"><ele>128.527908</ele><time>2022-03-04T10:58:26Z</time><extensions><speed>0.059738</speed><course>77.910110</course><hAcc>1.676006</hAcc><vAcc>0.825247</vAcc></extensions></trkpt>
      <trkpt lon="-2.247632" lat="53.109665"><ele>128.539520</ele><time>2022-03-04T10:58:27Z</time><extensions><speed>0.043921</speed><course>75.992043</course><hAcc>1.683071</hAcc><vAcc>0.825204</vAcc></extensions></trkpt>
      <trkpt lon="-2.247632" lat="53.109665"><ele>128.553696</ele><time>2022-03-04T10:58:28Z</time><extensions><speed>0.037628</speed><course>62.618164</course><hAcc>1.682460</hAcc><vAcc>0.825159</vAcc></extensions></trkpt>
      <trkpt lon="-2.247631" lat="53.109666"><ele>128.569824</ele><time>2022-03-04T10:58:29Z</time><extensions><speed>0.043300</speed><course>53.866444</course><hAcc>1.671674</hAcc><vAcc>0.825117</vAcc></extensions></trkpt>
      <trkpt lon="-2.247631" lat="53.109666"><ele>128.587265</ele><time>2022-03-04T10:58:30Z</time><extensions><speed>0.051326</speed><course>51.380188</course><hAcc>1.648914</hAcc><vAcc>0.825077</vAcc></extensions></trkpt>
      <trkpt lon="-2.247630" lat="53.109666"><ele>128.605347</ele><time>2022-03-04T10:58:31Z</time><extensions><speed>0.050344</speed><course>51.343254</course><hAcc>1.625269</hAcc><vAcc>0.825042</vAcc></extensions></trkpt>
      <trkpt lon="-2.247629" lat="53.109666"><ele>128.623505</ele><time>2022-03-04T10:58:32Z</time><extensions><speed>0.036003</speed><course>51.848385</course><hAcc>1.617879</hAcc><vAcc>0.825015</vAcc></extensions></trkpt>
      <trkpt lon="-2.247629" lat="53.109666"><ele>128.641235</ele><time>2022-03-04T10:58:33Z</time><extensions><speed>0.025837</speed><course>52.121315</course><hAcc>1.603397</hAcc><vAcc>0.824996</vAcc></extensions></trkpt>
      <trkpt lon="-2.247629" lat="53.109667"><ele>128.658188</ele><time>2022-03-04T10:58:34Z</time><extensions><speed>0.016095</speed><course>52.269253</course><hAcc>1.605627</hAcc><vAcc>0.824983</vAcc></extensions></trkpt>
      <trkpt lon="-2.247629" lat="53.109667"><ele>128.696365</ele><time>2022-03-04T10:58:35Z</time><extensions><speed>0.011937</speed><course>44.675331</course><hAcc>1.617065</hAcc><vAcc>0.824981</vAcc></extensions></trkpt>
      <trkpt lon="-2.247629" lat="53.109667"><ele>128.736633</ele><time>2022-03-04T10:58:36Z</time><extensions><speed>0.011023</speed><course>33.036068</course><hAcc>1.626602</hAcc><vAcc>0.824987</vAcc></extensions></trkpt>
      <trkpt lon="-2.247628" lat="53.109667"><ele>128.778900</ele><time>2022-03-04T10:58:37Z</time><extensions><speed>0.022409</speed><course>23.186756</course><hAcc>1.591551</hAcc><vAcc>0.825000</vAcc></extensions></trkpt>
      <trkpt lon="-2.247628" lat="53.109667"><ele>128.816360</ele><time>2022-03-04T10:58:38Z</time><extensions><speed>0.031675</speed><course>15.406514</course><hAcc>1.597062</hAcc><vAcc>0.825023</vAcc></extensions></trkpt>
      <trkpt lon="-2.247628" lat="53.109668"><ele>128.848495</ele><time>2022-03-04T10:58:39Z</time><extensions><speed>0.042094</speed><course>7.902880</course><hAcc>1.619373</hAcc><vAcc>0.825055</vAcc></extensions></trkpt>
      <trkpt lon="-2.247628" lat="53.109668"><ele>128.880081</ele><time>2022-03-04T10:58:40Z</time><extensions><speed>0.055402</speed><course>3.022754</course><hAcc>1.634071</hAcc><vAcc>0.825086</vAcc></extensions></trkpt>
      <trkpt lon="-2.247628" lat="53.109669"><ele>128.911346</ele><time>2022-03-04T10:58:41Z</time><extensions><speed>0.070893</speed><course>0.125168</course><hAcc>1.640028</hAcc><vAcc>0.825116</vAcc></extensions></trkpt>
      <trkpt lon="-2.247628" lat="53.109669"><ele>128.942001</ele><time>2022-03-04T10:58:42Z</time><extensions><speed>0.086169</speed><course>358.295044</course><hAcc>1.643970</hAcc><vAcc>0.825146</vAcc></extensions></trkpt>
      <trkpt lon="-2.247628" lat="53.109670"><ele>128.971664</ele><time>2022-03-04T10:58:43Z</time><extensions><speed>0.101859</speed><course>356.789459</course><hAcc>1.642140</hAcc><vAcc>0.825166</vAcc></extensions></trkpt>
      <trkpt lon="-2.247629" lat="53.109671"><ele>128.999786</ele><time>2022-03-04T10:58:44Z</time><extensions><speed>0.128622</speed><course>354.914551</course><hAcc>1.623572</hAcc><vAcc>0.825179</vAcc></extensions></trkpt>
      <trkpt lon="-2.247629" lat="53.109672"><ele>129.025620</ele><time>2022-03-04T10:58:45Z</time><extensions><speed>0.121116</speed><course>350.499115</course><hAcc>1.623030</hAcc><vAcc>0.825185</vAcc></extensions></trkpt>
      <trkpt lon="-2.247629" lat="53.109673"><ele>129.051910</ele><time>2022-03-04T10:58:46Z</time><extensions><speed>0.086745</speed><course>340.436188</course><hAcc>1.637613</hAcc><vAcc>0.825188</vAcc></extensions></trkpt>
      <trkpt lon="-2.247630" lat="53.109674"><ele>129.069656</ele><time>2022-03-04T10:58:47Z</time><extensions><speed>0.073069</speed><course>321.813690</course><hAcc>1.632342</hAcc><vAcc>0.825186</vAcc></extensions></trkpt>
      <trkpt lon="-2.247631" lat="53.109674"><ele>129.083832</ele><time>2022-03-04T10:58:48Z</time><extensions><speed>0.078843</speed><course>301.840881</course><hAcc>1.604523</hAcc><vAcc>0.825157</vAcc></extensions></trkpt>
      <trkpt lon="-2.247632" lat="53.109674"><ele>129.087662</ele><time>2022-03-04T10:58:49Z</time><extensions><speed>0.069477</speed><course>285.924011</course><hAcc>1.597826</hAcc><vAcc>0.825086</vAcc></extensions></trkpt>
      <trkpt lon="-2.247633" lat="53.109674"><ele>129.086884</ele><time>2022-03-04T10:58:50Z</time><extensions><speed>0.050384</speed><course>269.130157</course><hAcc>1.607827</hAcc><vAcc>0.824909</vAcc></extensions></trkpt>
      <trkpt lon="-2.247633" lat="53.109674"><ele>129.081253</ele><time>2022-03-04T10:58:51Z</time><extensions><speed>0.041603</speed><course>244.898651</course><hAcc>1.603659</hAcc><vAcc>0.824752</vAcc></extensions></trkpt>
      <trkpt lon="-2.247634" lat="53.109674"><ele>129.067459</ele><time>2022-03-04T10:58:52Z</time><extensions><speed>0.043130</speed><course>219.867035</course><hAcc>1.595688</hAcc><vAcc>0.824539</vAcc></extensions></trkpt>
      <trkpt lon="-2.247634" lat="53.109674"><ele>129.046844</ele><time>2022-03-04T10:58:53Z</time><extensions><speed>0.050640</speed><course>203.831879</course><hAcc>1.596880</hAcc><vAcc>0.824340</vAcc></extensions></trkpt>
      <trkpt lon="-2.247635" lat="53.109673"><ele>129.023956</ele><time>2022-03-04T10:58:54Z</time><extensions><speed>0.058198</speed><course>195.711426</course><hAcc>1.615378</hAcc><vAcc>0.824138</vAcc></extensions></trkpt>
      <trkpt lon="-2.247635" lat="53.109673"><ele>129.005798</ele><time>2022-03-04T10:58:55Z</time><extensions><speed>0.065811</speed><course>195.486328</course><hAcc>1.634729</hAcc><vAcc>0.823927</vAcc></extensions></trkpt>
      <trkpt lon="-2.247636" lat="53.109672"><ele>128.985275</ele><time>2022-03-04T10:58:56Z</time><extensions><speed>0.131257</speed><course>202.125397</course><hAcc>1.598125</hAcc><vAcc>0.823727</vAcc></extensions></trkpt>
      <trkpt lon="-2.247637" lat="53.109671"><ele>128.964584</ele><time>2022-03-04T10:58:57Z</time><extensions><speed>0.162826</speed><course>210.770813</course><hAcc>1.596992</hAcc><vAcc>0.823548</vAcc></extensions></trkpt>
      <trkpt lon="-2.247638" lat="53.109670"><ele>128.942429</ele><time>2022-03-04T10:58:58Z</time><extensions><speed>0.169756</speed><course>219.747345</course><hAcc>1.627595</hAcc><vAcc>0.823399</vAcc></extensions></trkpt>
      <trkpt lon="-2.247640" lat="53.109669"><ele>128.918091</ele><time>2022-03-04T10:58:59Z</time><extensions><speed>0.146331</speed><course>230.307175</course><hAcc>1.665808</hAcc><vAcc>0.823294</vAcc></extensions></trkpt>
      <trkpt lon="-2.247641" lat="53.109668"><ele>128.891846</ele><time>2022-03-04T10:59:00Z</time><extensions><speed>0.159627</speed><course>239.931396</course><hAcc>1.666081</hAcc><vAcc>0.823247</vAcc></extensions></trkpt>
      <trkpt lon="-2.247644" lat="53.109667"><ele>128.873734</ele><time>2022-03-04T10:59:01Z</time><extensions><speed>0.142530</speed><course>249.001663</course><hAcc>1.675300</hAcc><vAcc>0.823255</vAcc></extensions></trkpt>
      <trkpt lon="-2.247645" lat="53.109667"><ele>128.854691</ele><time>2022-03-04T10:59:02Z</time><extensions><speed>0.130950</speed><course>260.882355</course><hAcc>1.677229</hAcc><vAcc>0.823332</vAcc></extensions></trkpt>
      <trkpt lon="-2.247647" lat="53.109667"><ele>128.837936</ele><time>2022-03-04T10:59:03Z</time><extensions><speed>0.111015</speed><course>277.095825</course><hAcc>1.684946</hAcc><vAcc>0.823468</vAcc></extensions></trkpt>
      <trkpt lon="-2.247649" lat="53.109667"><ele>128.823730</ele><time>2022-03-04T10:59:04Z</time><extensions><speed>0.099128</speed><course>296.470245</course><hAcc>1.691955</hAcc><vAcc>0.823642</vAcc></extensions></trkpt>
      <trkpt lon="-2.247650" lat="53.109668"><ele>128.811996</ele><time>2022-03-04T10:59:05Z</time><extensions><speed>0.088383</speed><course>312.954041</course><hAcc>1.695702</hAcc><vAcc>0.823831</vAcc></extensions></trkpt>
      <trkpt lon="-2.247651" lat="53.109668"><ele>128.785309</ele><time>2022-03-04T10:59:06Z</time><extensions><speed>0.071204</speed><course>327.080139</course><hAcc>1.696619</hAcc><vAcc>0.824023</vAcc></extensions></trkpt>
      <trkpt lon="-2.247651" lat="53.109669"><ele>128.758011</ele><time>2022-03-04T10:59:07Z</time><extensions><speed>0.050982</speed><course>350.700073</course><hAcc>1.696623</hAcc><vAcc>0.824191</vAcc></extensions></trkpt>
      <trkpt lon="-2.247651" lat="53.109669"><ele>128.729828</ele><time>2022-03-04T10:59:08Z</time><extensions><speed>0.041830</speed><course>31.271429</course><hAcc>1.699060</hAcc><vAcc>0.824344</vAcc></extensions></trkpt>
      <trkpt lon="-2.247651" lat="53.109669"><ele>128.703293</ele><time>2022-03-04T10:59:09Z</time><extensions><speed>0.041857</speed><course>55.636082</course><hAcc>1.701027</hAcc><vAcc>0.824470</vAcc></extensions></trkpt>
      <trkpt lon="-2.247650" lat="53.109669"><ele>128.676346</ele><time>2022-03-04T10:59:10Z</time><extensions><speed>0.034375</speed><course>53.027634</course><hAcc>1.687357</hAcc><vAcc>0.824571</vAcc></extensions></trkpt>
      <trkpt lon="-2.247650" lat="53.109669"><ele>128.648560</ele><time>2022-03-04T10:59:11Z</time><extensions><speed>0.016084</speed><course>36.048042</course><hAcc>1.682195</hAcc><vAcc>0.824652</vAcc></extensions></trkpt>
      <trkpt lon="-2.247650" lat="53.109670"><ele>128.619843</ele><time>2022-03-04T10:59:12Z</time><extensions><speed>0.007631</speed><course>236.573380</course><hAcc>1.691513</hAcc><vAcc>0.824720</vAcc></extensions></trkpt>
      <trkpt lon="-2.247650" lat="53.109669"><ele>128.603149</ele><time>2022-03-04T10:59:14Z</time><extensions><speed>0.031809</speed><course>215.488937</course><hAcc>1.690820</hAcc><vAcc>0.824781</vAcc></extensions></trkpt>
      <trkpt lon="-2.247650" lat="53.109669"><ele>128.587784</ele><time>2022-03-04T10:59:15Z</time><extensions><speed>0.054811</speed><course>209.300339</course><hAcc>1.694262</hAcc><vAcc>0.824820</vAcc></extensions></trkpt>
      <trkpt lon="-2.247651" lat="53.109668"><ele>128.574234</ele><time>2022-03-04T10:59:16Z</time><extensions><speed>0.080713</speed><course>204.077377</course><hAcc>1.689140</hAcc><vAcc>0.824861</vAcc></extensions></trkpt>
      <trkpt lon="-2.247651" lat="53.109668"><ele>128.560242</ele><time>2022-03-04T10:59:17Z</time><extensions><speed>0.090528</speed><course>194.502518</course><hAcc>1.689045</hAcc><vAcc>0.824903</vAcc></extensions></trkpt>
      <trkpt lon="-2.247651" lat="53.109667"><ele>128.548920</ele><time>2022-03-04T10:59:18Z</time><extensions><speed>0.092682</speed><course>181.228760</course><hAcc>1.684607</hAcc><vAcc>0.824943</vAcc></extensions></trkpt>
      <trkpt lon="-2.247651" lat="53.109666"><ele>128.540833</ele><time>2022-03-04T10:59:19Z</time><extensions><speed>0.086287</speed><course>167.193298</course><hAcc>1.686126</hAcc><vAcc>0.824983</vAcc></extensions></trkpt>
      <trkpt lon="-2.247651" lat="53.109665"><ele>128.536194</ele><time>2022-03-04T10:59:20Z</time><extensions><speed>0.082639</speed><course>153.338684</course><hAcc>1.685439</hAcc><vAcc>0.825032</vAcc></extensions></trkpt>
      <trkpt lon="-2.247650" lat="53.109665"><ele>128.534988</ele><time>2022-03-04T10:59:21Z</time><extensions><speed>0.080498</speed><course>141.220261</course><hAcc>1.685829</hAcc><vAcc>0.825075</vAcc></extensions></trkpt>
      <trkpt lon="-2.247649" lat="53.109664"><ele>128.536972</ele><time>2022-03-04T10:59:22Z</time><extensions><speed>0.082131</speed><course>131.153992</course><hAcc>1.689506</hAcc><vAcc>0.825122</vAcc></extensions></trkpt>
      <trkpt lon="-2.247648" lat="53.109664"><ele>128.541718</ele><time>2022-03-04T10:59:23Z</time><extensions><speed>0.083452</speed><course>123.677475</course><hAcc>1.696583</hAcc><vAcc>0.825162</vAcc></extensions></trkpt>
      <trkpt lon="-2.247647" lat="53.109663"><ele>128.548584</ele><time>2022-03-04T10:59:24Z</time><extensions><speed>0.079188</speed><course>117.891403</course><hAcc>1.696243</hAcc><vAcc>0.825201</vAcc></extensions></trkpt>
      <trkpt lon="-2.247646" lat="53.109663"><ele>128.556824</ele><time>2022-03-04T10:59:25Z</time><extensions><speed>0.068290</speed><course>112.385315</course><hAcc>1.687815</hAcc><vAcc>0.825237</vAcc></extensions></trkpt>
      <trkpt lon="-2.247645" lat="53.109663"><ele>128.565811</ele><time>2022-03-04T10:59:26Z</time><extensions><speed>0.052595</speed><course>108.087494</course><hAcc>1.688615</hAcc><vAcc>0.825269</vAcc></extensions></trkpt>
      <trkpt lon="-2.247645" lat="53.109663"><ele>128.575073</ele><time>2022-03-04T10:59:27Z</time><extensions><speed>0.039074</speed><course>105.746979</course><hAcc>1.693395</hAcc><vAcc>0.825297</vAcc></extensions></trkpt>
      <trkpt lon="-2.247644" lat="53.109663"><ele>128.584274</ele><time>2022-03-04T10:59:28Z</time><extensions><speed>0.027966</speed><course>104.264359</course><hAcc>1.695262</hAcc><vAcc>0.825326</vAcc></extensions></trkpt>
      <trkpt lon="-2.247644" lat="53.109663"><ele>128.593201</ele><time>2022-03-04T10:59:29Z</time><extensions><speed>0.019449</speed><course>103.262131</course><hAcc>1.693874</hAcc><vAcc>0.825354</vAcc></extensions></trkpt>
      <trkpt lon="-2.247644" lat="53.109663"><ele>128.601669</ele><time>2022-03-04T10:59:30Z</time><extensions><speed>0.013036</speed><course>102.547951</course><hAcc>1.691506</hAcc><vAcc>0.825385</vAcc></extensions></trkpt>
      <trkpt lon="-2.247643" lat="53.109663"><ele>128.609573</ele><time>2022-03-04T10:59:31Z</time><extensions><speed>0.008540</speed><course>102.013939</course><hAcc>1.686456</hAcc><vAcc>0.825413</vAcc></extensions></trkpt>
      <trkpt lon="-2.247643" lat="53.109663"><ele>128.616837</ele><time>2022-03-04T10:59:32Z</time><extensions><speed>0.005602</speed><course>101.607529</course><hAcc>1.676853</hAcc><vAcc>0.825437</vAcc></extensions></trkpt>
      <trkpt lon="-2.247643" lat="53.109663"><ele>128.605927</ele><time>2022-03-04T10:59:33Z</time><extensions><speed>0.006011</speed><course>346.233032</course><hAcc>1.667057</hAcc><vAcc>0.825458</vAcc></extensions></trkpt>
      <trkpt lon="-2.247644" lat="53.109663"><ele>128.594070</ele><time>2022-03-04T10:59:34Z</time><extensions><speed>0.015891</speed><course>331.459290</course><hAcc>1.661057</hAcc><vAcc>0.825464</vAcc></extensions></trkpt>
      <trkpt lon="-2.247644" lat="53.109663"><ele>128.573090</ele><time>2022-03-04T10:59:35Z</time><extensions><speed>0.027160</speed><course>330.652344</course><hAcc>1.647228</hAcc><vAcc>0.825469</vAcc></extensions></trkpt>
      <trkpt lon="-2.247644" lat="53.109664"><ele>128.545166</ele><time>2022-03-04T10:59:36Z</time><extensions><speed>0.039442</speed><course>330.756775</course><hAcc>1.634989</hAcc><vAcc>0.825455</vAcc></extensions></trkpt>
      <trkpt lon="-2.247644" lat="53.109664"><ele>128.511414</ele><time>2022-03-04T10:59:37Z</time><extensions><speed>0.056912</speed><course>330.800385</course><hAcc>1.618716</hAcc><vAcc>0.825427</vAcc></extensions></trkpt>
      <trkpt lon="-2.247645" lat="53.109665"><ele>128.473434</ele><time>2022-03-04T10:59:38Z</time><extensions><speed>0.071707</speed><course>331.091827</course><hAcc>1.615465</hAcc><vAcc>0.825388</vAcc></extensions></trkpt>
      <trkpt lon="-2.247645" lat="53.109665"><ele>128.431625</ele><time>2022-03-04T10:59:39Z</time><extensions><speed>0.084313</speed><course>331.360168</course><hAcc>1.627428</hAcc><vAcc>0.825335</vAcc></extensions></trkpt>
      <trkpt lon="-2.247646" lat="53.109666"><ele>128.386108</ele><time>2022-03-04T10:59:40Z</time><extensions><speed>0.107652</speed><course>331.756104</course><hAcc>1.640769</hAcc><vAcc>0.825262</vAcc></extensions></trkpt>
      <trkpt lon="-2.247647" lat="53.109667"><ele>128.337402</ele><time>2022-03-04T10:59:41Z</time><extensions><speed>0.143846</speed><course>332.525452</course><hAcc>1.651201</hAcc><vAcc>0.825169</vAcc></extensions></trkpt>
      <trkpt lon="-2.247648" lat="53.109669"><ele>128.286209</ele><time>2022-03-04T10:59:42Z</time><extensions><speed>0.242824</speed><course>333.794220</course><hAcc>1.633020</hAcc><vAcc>0.825043</vAcc></extensions></trkpt>
      <trkpt lon="-2.247650" lat="53.109671"><ele>128.233566</ele><time>2022-03-04T10:59:43Z</time><extensions><speed>0.275094</speed><course>336.489197</course><hAcc>1.639602</hAcc><vAcc>0.824911</vAcc></extensions></trkpt>
      <trkpt lon="-2.247651" lat="53.109673"><ele>128.174835</ele><time>2022-03-04T10:59:44Z</time><extensions><speed>0.236692</speed><course>340.660858</course><hAcc>1.663071</hAcc><vAcc>0.824762</vAcc></extensions></trkpt>
      <trkpt lon="-2.247652" lat="53.109674"><ele>128.114319</ele><time>2022-03-04T10:59:45Z</time><extensions><speed>0.180438</speed><course>344.924225</course><hAcc>1.680973</hAcc><vAcc>0.824604</vAcc></extensions></trkpt>
      <trkpt lon="-2.247653" lat="53.109676"><ele>128.067947</ele><time>2022-03-04T10:59:46Z</time><extensions><speed>0.124309</speed><course>350.510040</course><hAcc>1.685675</hAcc><vAcc>0.824358</vAcc></extensions></trkpt>
      <trkpt lon="-2.247653" lat="53.109676"><ele>128.017014</ele><time>2022-03-04T10:59:47Z</time><extensions><speed>0.066932</speed><course>359.654236</course><hAcc>1.680945</hAcc><vAcc>0.824127</vAcc></extensions></trkpt>
      <trkpt lon="-2.247653" lat="53.109677"><ele>127.960831</ele><time>2022-03-04T10:59:48Z</time><extensions><speed>0.021353</speed><course>38.286045</course><hAcc>1.674153</hAcc><vAcc>0.823916</vAcc></extensions></trkpt>
      <trkpt lon="-2.247653" lat="53.109677"><ele>127.898705</ele><time>2022-03-04T10:59:49Z</time><extensions><speed>0.026775</speed><course>135.899155</course><hAcc>1.662540</hAcc><vAcc>0.823715</vAcc></extensions></trkpt>
      <trkpt lon="-2.247652" lat="53.109677"><ele>127.839813</ele><time>2022-03-04T10:59:50Z</time><extensions><speed>0.049192</speed><course>156.891388</course><hAcc>1.652025</hAcc><vAcc>0.823527</vAcc></extensions></trkpt>
      <trkpt lon="-2.247652" lat="53.109676"><ele>127.780647</ele><time>2022-03-04T10:59:51Z</time><extensions><speed>0.065058</speed><course>164.591080</course><hAcc>1.652870</hAcc><vAcc>0.823353</vAcc></extensions></trkpt>
      <trkpt lon="-2.247652" lat="53.109676"><ele>127.724426</ele><time>2022-03-04T10:59:52Z</time><extensions><speed>0.077538</speed><course>169.242340</course><hAcc>1.658944</hAcc><vAcc>0.823222</vAcc></extensions></trkpt>
      <trkpt lon="-2.247652" lat="53.109675"><ele>127.665321</ele><time>2022-03-04T10:59:53Z</time><extensions><speed>0.084335</speed><course>173.735367</course><hAcc>1.667573</hAcc><vAcc>0.823140</vAcc></extensions></trkpt>
      <trkpt lon="-2.247652" lat="53.109675"><ele>127.607811</ele><time>2022-03-04T10:59:54Z</time><extensions><speed>0.063027</speed><course>185.358917</course><hAcc>1.672761</hAcc><vAcc>0.823092</vAcc></extensions></trkpt>
      <trkpt lon="-2.247653" lat="53.109674"><ele>127.547905</ele><time>2022-03-04T10:59:55Z</time><extensions><speed>0.037815</speed><course>241.912186</course><hAcc>1.655531</hAcc><vAcc>0.823090</vAcc></extensions></trkpt>
      <trkpt lon="-2.247653" lat="53.109675"><ele>127.491112</ele><time>2022-03-04T10:59:56Z</time><extensions><speed>0.064041</speed><course>297.902039</course><hAcc>1.658479</hAcc><vAcc>0.823137</vAcc></extensions></trkpt>
      <trkpt lon="-2.247655" lat="53.109675"><ele>127.431969</ele><time>2022-03-04T10:59:57Z</time><extensions><speed>0.202790</speed><course>297.339294</course><hAcc>1.699920</hAcc><vAcc>0.823210</vAcc></extensions></trkpt>
      <trkpt lon="-2.247658" lat="53.109677"><ele>127.377319</ele><time>2022-03-04T10:59:58Z</time><extensions><speed>0.402188</speed><course>324.218872</course><hAcc>1.718220</hAcc><vAcc>0.823330</vAcc></extensions></trkpt>
      <trkpt lon="-2.247662" lat="53.109681"><ele>127.322952</ele><time>2022-03-04T10:59:59Z</time><extensions><speed>0.556924</speed><course>328.514038</course><hAcc>1.720059</hAcc><vAcc>0.823513</vAcc></extensions></trkpt>
      <trkpt lon="-2.247667" lat="53.109685"><ele>127.270958</ele><time>2022-03-04T11:00:00Z</time><extensions><speed>0.633756</speed><course>328.415283</course><hAcc>1.721222</hAcc><vAcc>0.823726</vAcc></extensions></trkpt>
      <trkpt lon="-2.247672" lat="53.109690"><ele>127.221794</ele><time>2022-03-04T11:00:01Z</time><extensions><speed>0.625980</speed><course>326.719971</course><hAcc>1.724793</hAcc><vAcc>0.823952</vAcc></extensions></trkpt>
      <trkpt lon="-2.247677" lat="53.109694"><ele>127.175797</ele><time>2022-03-04T11:00:01Z</time><extensions><speed>0.561006</speed><course>324.124878</course><hAcc>1.726453</hAcc><vAcc>0.824182</vAcc></extensions></trkpt>
      <trkpt lon="-2.247681" lat="53.109698"><ele>127.133217</ele><time>2022-03-04T11:00:02Z</time><extensions><speed>0.456009</speed><course>321.435089</course><hAcc>1.726989</hAcc><vAcc>0.824417</vAcc></extensions></trkpt>
      <trkpt lon="-2.247685" lat="53.109701"><ele>127.094261</ele><time>2022-03-04T11:00:03Z</time><extensions><speed>0.346769</speed><course>319.510651</course><hAcc>1.724279</hAcc><vAcc>0.824638</vAcc></extensions></trkpt>
      <trkpt lon="-2.247688" lat="53.109703"><ele>127.059052</ele><time>2022-03-04T11:00:04Z</time><extensions><speed>0.240063</speed><course>317.721436</course><hAcc>1.719252</hAcc><vAcc>0.824852</vAcc></extensions></trkpt>
      <trkpt lon="-2.247690" lat="53.109704"><ele>127.027634</ele><time>2022-03-04T11:00:05Z</time><extensions><speed>0.146172</speed><course>314.577454</course><hAcc>1.709495</hAcc><vAcc>0.825031</vAcc></extensions></trkpt>
      <trkpt lon="-2.247691" lat="53.109705"><ele>126.998520</ele><time>2022-03-04T11:00:06Z</time><extensions><speed>0.071338</speed><course>312.370605</course><hAcc>1.689893</hAcc><vAcc>0.825196</vAcc></extensions></trkpt>
      <trkpt lon="-2.247691" lat="53.109705"><ele>126.976784</ele><time>2022-03-04T11:00:07Z</time><extensions><speed>0.019029</speed><course>320.281738</course><hAcc>1.668401</hAcc><vAcc>0.825326</vAcc></extensions></trkpt>
      <trkpt lon="-2.247691" lat="53.109705"><ele>126.960953</ele><time>2022-03-04T11:00:08Z</time><extensions><speed>0.011875</speed><course>104.856705</course><hAcc>1.649381</hAcc><vAcc>0.825420</vAcc></extensions></trkpt>
      <trkpt lon="-2.247691" lat="53.109705"><ele>126.943748</ele><time>2022-03-04T11:00:09Z</time><extensions><speed>0.025625</speed><course>118.806808</course><hAcc>1.637010</hAcc><vAcc>0.825437</vAcc></extensions></trkpt>
      <trkpt lon="-2.247691" lat="53.109705"><ele>126.925674</ele><time>2022-03-04T11:00:10Z</time><extensions><speed>0.033068</speed><course>121.129265</course><hAcc>1.624229</hAcc><vAcc>0.825512</vAcc></extensions></trkpt>
      <trkpt lon="-2.247690" lat="53.109704"><ele>126.912888</ele><time>2022-03-04T11:00:11Z</time><extensions><speed>0.041148</speed><course>123.290436</course><hAcc>1.607317</hAcc><vAcc>0.825563</vAcc></extensions></trkpt>
      <trkpt lon="-2.247690" lat="53.109704"><ele>126.934624</ele><time>2022-03-04T11:00:12Z</time><extensions><speed>0.046687</speed><course>124.177017</course><hAcc>1.612360</hAcc><vAcc>0.825580</vAcc></extensions></trkpt>
      <trkpt lon="-2.247689" lat="53.109704"><ele>126.952591</ele><time>2022-03-04T11:00:13Z</time><extensions><speed>0.045135</speed><course>125.210739</course><hAcc>1.642303</hAcc><vAcc>0.825569</vAcc></extensions></trkpt>
      <trkpt lon="-2.247689" lat="53.109704"><ele>126.953384</ele><time>2022-03-04T11:00:14Z</time><extensions><speed>0.073788</speed><course>125.582191</course><hAcc>1.634938</hAcc><vAcc>0.825530</vAcc></extensions></trkpt>
      <trkpt lon="-2.247687" lat="53.109703"><ele>126.957001</ele><time>2022-03-04T11:00:15Z</time><extensions><speed>0.118752</speed><course>125.836670</course><hAcc>1.616654</hAcc><vAcc>0.825478</vAcc></extensions></trkpt>
      <trkpt lon="-2.247686" lat="53.109703"><ele>126.958641</ele><time>2022-03-04T11:00:16Z</time><extensions><speed>0.108055</speed><course>127.652100</course><hAcc>1.639308</hAcc><vAcc>0.825425</vAcc></extensions></trkpt>
      <trkpt lon="-2.247685" lat="53.109702"><ele>126.952232</ele><time>2022-03-04T11:00:17Z</time><extensions><speed>0.053875</speed><course>132.115158</course><hAcc>1.674309</hAcc><vAcc>0.825385</vAcc></extensions></trkpt>
      <trkpt lon="-2.247685" lat="53.109702"><ele>126.931290</ele><time>2022-03-04T11:00:18Z</time><extensions><speed>0.018665</speed><course>294.445648</course><hAcc>1.700437</hAcc><vAcc>0.825367</vAcc></extensions></trkpt>
      <trkpt lon="-2.247685" lat="53.109702"><ele>126.915657</ele><time>2022-03-04T11:00:19Z</time><extensions><speed>0.097174</speed><course>304.819397</course><hAcc>1.716631</hAcc><vAcc>0.825355</vAcc></extensions></trkpt>
      <trkpt lon="-2.247687" lat="53.109703"><ele>126.900986</ele><time>2022-03-04T11:00:20Z</time><extensions><speed>0.179628</speed><course>303.392517</course><hAcc>1.727259</hAcc><vAcc>0.825378</vAcc></extensions></trkpt>
      <trkpt lon="-2.247690" lat="53.109704"><ele>126.883102</ele><time>2022-03-04T11:00:21Z</time><extensions><speed>0.281852</speed><course>301.281464</course><hAcc>1.730970</hAcc><vAcc>0.825395</vAcc></extensions></trkpt>
      <trkpt lon="-2.247694" lat="53.109706"><ele>126.864296</ele><time>2022-03-04T11:00:22Z</time><extensions><speed>0.435750</speed><course>298.136322</course><hAcc>1.736937</hAcc><vAcc>0.825361</vAcc></extensions></trkpt>
      <trkpt lon="-2.247699" lat="53.109707"><ele>126.844215</ele><time>2022-03-04T11:00:23Z</time><extensions><speed>0.263279</speed><course>314.338898</course><hAcc>1.747594</hAcc><vAcc>0.825295</vAcc></extensions></trkpt>
      <trkpt lon="-2.247699" lat="53.109708"><ele>126.820396</ele><time>2022-03-04T11:00:24Z</time><extensions><speed>0.143946</speed><course>84.580124</course><hAcc>1.746804</hAcc><vAcc>0.825200</vAcc></extensions></trkpt>
      <trkpt lon="-2.247696" lat="53.109708"><ele>126.794510</ele><time>2022-03-04T11:00:25Z</time><extensions><speed>0.322475</speed><course>107.917862</course><hAcc>1.743539</hAcc><vAcc>0.825084</vAcc></extensions></trkpt>
      <trkpt lon="-2.247690" lat="53.109706"><ele>126.767616</ele><time>2022-03-04T11:00:26Z</time><extensions><speed>0.410279</speed><course>115.078217</course><hAcc>1.746574</hAcc><vAcc>0.824949</vAcc></extensions></trkpt>
      <trkpt lon="-2.247685" lat="53.109705"><ele>126.740845</ele><time>2022-03-04T11:00:27Z</time><extensions><speed>0.445858</speed><course>119.788338</course><hAcc>1.752742</hAcc><vAcc>0.824783</vAcc></extensions></trkpt>
      <trkpt lon="-2.247679" lat="53.109703"><ele>126.715309</ele><time>2022-03-04T11:00:28Z</time><extensions><speed>0.460386</speed><course>123.931068</course><hAcc>1.756831</hAcc><vAcc>0.824604</vAcc></extensions></trkpt>
      <trkpt lon="-2.247673" lat="53.109700"><ele>126.691879</ele><time>2022-03-04T11:00:29Z</time><extensions><speed>0.464553</speed><course>127.810631</course><hAcc>1.755963</hAcc><vAcc>0.824390</vAcc></extensions></trkpt>
      <trkpt lon="-2.247668" lat="53.109697"><ele>126.670998</ele><time>2022-03-04T11:00:30Z</time><extensions><speed>0.463417</speed><course>131.120667</course><hAcc>1.746218</hAcc><vAcc>0.824184</vAcc></extensions></trkpt>
      <trkpt lon="-2.247663" lat="53.109695"><ele>126.652794</ele><time>2022-03-04T11:00:31Z</time><extensions><speed>0.434262</speed><course>133.914627</course><hAcc>1.733793</hAcc><vAcc>0.823986</vAcc></extensions></trkpt>
      <trkpt lon="-2.247659" lat="53.109692"><ele>126.662796</ele><time>2022-03-04T11:00:32Z</time><extensions><speed>0.384125</speed><course>136.370621</course><hAcc>1.723569</hAcc><vAcc>0.823801</vAcc></extensions></trkpt>
      <trkpt lon="-2.247655" lat="53.109690"><ele>126.668633</ele><time>2022-03-04T11:00:33Z</time><extensions><speed>0.311870</speed><course>138.147034</course><hAcc>1.723875</hAcc><vAcc>0.823539</vAcc></extensions></trkpt>
      <trkpt lon="-2.247653" lat="53.109688"><ele>126.683960</ele><time>2022-03-04T11:00:34Z</time><extensions><speed>0.212437</speed><course>139.280502</course><hAcc>1.735160</hAcc><vAcc>0.823165</vAcc></extensions></trkpt>
      <trkpt lon="-2.247651" lat="53.109687"><ele>126.705956</ele><time>2022-03-04T11:00:35Z</time><extensions><speed>0.179567</speed><course>140.045486</course><hAcc>1.723373</hAcc><vAcc>0.822834</vAcc></extensions></trkpt>
      <trkpt lon="-2.247649" lat="53.109685"><ele>126.732826</ele><time>2022-03-04T11:00:36Z</time><extensions><speed>0.133092</speed><course>140.549332</course><hAcc>1.732397</hAcc><vAcc>0.822522</vAcc></extensions></trkpt>
      <trkpt lon="-2.247648" lat="53.109685"><ele>126.756004</ele><time>2022-03-04T11:00:37Z</time><extensions><speed>0.142512</speed><course>140.841217</course><hAcc>1.717501</hAcc><vAcc>0.822230</vAcc></extensions></trkpt>
      <trkpt lon="-2.247646" lat="53.109683"><ele>126.779732</ele><time>2022-03-04T11:00:38Z</time><extensions><speed>0.154859</speed><course>140.887802</course><hAcc>1.716132</hAcc><vAcc>0.821926</vAcc></extensions></trkpt>
      <trkpt lon="-2.247645" lat="53.109682"><ele>126.805496</ele><time>2022-03-04T11:00:39Z</time><extensions><speed>0.180788</speed><course>140.873398</course><hAcc>1.723213</hAcc><vAcc>0.821581</vAcc></extensions></trkpt>
      <trkpt lon="-2.247643" lat="53.109681"><ele>126.832611</ele><time>2022-03-04T11:00:40Z</time><extensions><speed>0.209489</speed><course>140.858459</course><hAcc>1.735615</hAcc><vAcc>0.821203</vAcc></extensions></trkpt>
      <trkpt lon="-2.247641" lat="53.109679"><ele>126.860252</ele><time>2022-03-04T11:00:41Z</time><extensions><speed>0.236355</speed><course>140.876312</course><hAcc>1.743888</hAcc><vAcc>0.820871</vAcc></extensions></trkpt>
      <trkpt lon="-2.247638" lat="53.109678"><ele>126.885216</ele><time>2022-03-04T11:00:42Z</time><extensions><speed>0.241407</speed><course>141.103073</course><hAcc>1.739901</hAcc><vAcc>0.820537</vAcc></extensions></trkpt>
      <trkpt lon="-2.247636" lat="53.109676"><ele>126.903091</ele><time>2022-03-04T11:00:43Z</time><extensions><speed>0.221093</speed><course>141.171936</course><hAcc>1.727000</hAcc><vAcc>0.820175</vAcc></extensions></trkpt>
      <trkpt lon="-2.247634" lat="53.109675"><ele>126.920654</ele><time>2022-03-04T11:00:44Z</time><extensions><speed>0.189954</speed><course>140.992630</course><hAcc>1.721458</hAcc><vAcc>0.819911</vAcc></extensions></trkpt>
      <trkpt lon="-2.247633" lat="53.109673"><ele>126.933327</ele><time>2022-03-04T11:00:45Z</time><extensions><speed>0.147526</speed><course>140.360565</course><hAcc>1.730250</hAcc><vAcc>0.819739</vAcc></extensions></trkpt>
      <trkpt lon="-2.247632" lat="53.109673"><ele>126.944069</ele><time>2022-03-04T11:00:46Z</time><extensions><speed>0.116821</speed><course>139.413544</course><hAcc>1.732866</hAcc><vAcc>0.819686</vAcc></extensions></trkpt>
      <trkpt lon="-2.247631" lat="53.109672"><ele>126.951271</ele><time>2022-03-04T11:00:47Z</time><extensions><speed>0.098288</speed><course>139.731888</course><hAcc>1.731375</hAcc><vAcc>0.819702</vAcc></extensions></trkpt>
      <trkpt lon="-2.247630" lat="53.109671"><ele>126.953346</ele><time>2022-03-04T11:00:48Z</time><extensions><speed>0.071222</speed><course>144.537781</course><hAcc>1.743075</hAcc><vAcc>0.819743</vAcc></extensions></trkpt>
      <trkpt lon="-2.247629" lat="53.109671"><ele>126.955521</ele><time>2022-03-04T11:00:49Z</time><extensions><speed>0.064465</speed><course>156.691101</course><hAcc>1.729607</hAcc><vAcc>0.819857</vAcc></extensions></trkpt>
      <trkpt lon="-2.247629" lat="53.109670"><ele>126.955399</ele><time>2022-03-04T11:00:50Z</time><extensions><speed>0.055134</speed><course>176.605728</course><hAcc>1.731159</hAcc><vAcc>0.820023</vAcc></extensions></trkpt>
      <trkpt lon="-2.247629" lat="53.109670"><ele>126.956123</ele><time>2022-03-04T11:00:51Z</time><extensions><speed>0.048120</speed><course>209.929855</course><hAcc>1.744258</hAcc><vAcc>0.820223</vAcc></extensions></trkpt>
      <trkpt lon="-2.247630" lat="53.109670"><ele>126.953300</ele><time>2022-03-04T11:00:52Z</time><extensions><speed>0.057486</speed><course>261.944092</course><hAcc>1.756231</hAcc><vAcc>0.820457</vAcc></extensions></trkpt>
      <trkpt lon="-2.247631" lat="53.109670"><ele>126.944244</ele><time>2022-03-04T11:00:53Z</time><extensions><speed>0.103277</speed><course>298.785248</course><hAcc>1.765035</hAcc><vAcc>0.820743</vAcc></extensions></trkpt>
      <trkpt lon="-2.247633" lat="53.109671"><ele>126.929115</ele><time>2022-03-04T11:00:54Z</time><extensions><speed>0.169719</speed><course>316.006287</course><hAcc>1.767360</hAcc><vAcc>0.821058</vAcc></extensions></trkpt>
      <trkpt lon="-2.247635" lat="53.109672"><ele>126.919632</ele><time>2022-03-04T11:00:55Z</time><extensions><speed>0.247005</speed><course>325.104492</course><hAcc>1.765866</hAcc><vAcc>0.821403</vAcc></extensions></trkpt>
      <trkpt lon="-2.247637" lat="53.109674"><ele>126.907845</ele><time>2022-03-04T11:00:56Z</time><extensions><speed>0.318839</speed><course>330.382904</course><hAcc>1.766623</hAcc><vAcc>0.821764</vAcc></extensions></trkpt>
      <trkpt lon="-2.247639" lat="53.109677"><ele>126.908371</ele><time>2022-03-04T11:00:57Z</time><extensions><speed>0.397739</speed><course>333.745605</course><hAcc>1.763325</hAcc><vAcc>0.822130</vAcc></extensions></trkpt>
      <trkpt lon="-2.247642" lat="53.109681"><ele>126.905151</ele><time>2022-03-04T11:00:58Z</time><extensions><speed>0.506939</speed><course>334.936188</course><hAcc>1.754075</hAcc><vAcc>0.822496</vAcc></extensions></trkpt>
      <trkpt lon="-2.247646" lat="53.109686"><ele>126.904160</ele><time>2022-03-04T11:00:59Z</time><extensions><speed>0.650603</speed><course>334.544098</course><hAcc>1.742237</hAcc><vAcc>0.822862</vAcc></extensions></trkpt>
      <trkpt lon="-2.247651" lat="53.109692"><ele>126.894501</ele><time>2022-03-04T11:01:00Z</time><extensions><speed>0.884844</speed><course>333.548767</course><hAcc>1.727492</hAcc><vAcc>0.823211</vAcc></extensions></trkpt>
      <trkpt lon="-2.247657" lat="53.109699"><ele>126.883125</ele><time>2022-03-04T11:01:01Z</time><extensions><speed>0.905673</speed><course>333.712158</course><hAcc>1.732573</hAcc><vAcc>0.823529</vAcc></extensions></trkpt>
      <trkpt lon="-2.247662" lat="53.109706"><ele>126.871559</ele><time>2022-03-04T11:01:02Z</time><extensions><speed>0.753622</speed><course>336.298889</course><hAcc>1.735384</hAcc><vAcc>0.823844</vAcc></extensions></trkpt>
      <trkpt lon="-2.247665" lat="53.109711"><ele>126.859512</ele><time>2022-03-04T11:01:03Z</time><extensions><speed>0.448760</speed><course>347.199493</course><hAcc>1.736008</hAcc><vAcc>0.824135</vAcc></extensions></trkpt>
      <trkpt lon="-2.247666" lat="53.109715"><ele>126.826736</ele><time>2022-03-04T11:01:04Z</time><extensions><speed>0.446442</speed><course>359.895752</course><hAcc>1.711545</hAcc><vAcc>0.824403</vAcc></extensions></trkpt>
      <trkpt lon="-2.247665" lat="53.109719"><ele>126.799263</ele><time>2022-03-04T11:01:05Z</time><extensions><speed>0.495169</speed><course>6.912905</course><hAcc>1.700109</hAcc><vAcc>0.824634</vAcc></extensions></trkpt>
      <trkpt lon="-2.247664" lat="53.109724"><ele>126.773689</ele><time>2022-03-04T11:01:06Z</time><extensions><speed>0.591579</speed><course>9.910889</course><hAcc>1.702510</hAcc><vAcc>0.824841</vAcc></extensions></trkpt>
      <trkpt lon="-2.247662" lat="53.109730"><ele>126.733246</ele><time>2022-03-04T11:01:07Z</time><extensions><speed>0.774461</speed><course>10.029863</course><hAcc>1.715577</hAcc><vAcc>0.825027</vAcc></extensions></trkpt>
      <trkpt lon="-2.247661" lat="53.109737"><ele>126.684502</ele><time>2022-03-04T11:01:08Z</time><extensions><speed>0.762366</speed><course>7.963544</course><hAcc>1.724002</hAcc><vAcc>0.825190</vAcc></extensions></trkpt>
      <trkpt lon="-2.247659" lat="53.109743"><ele>126.633621</ele><time>2022-03-04T11:01:09Z</time><extensions><speed>0.590126</speed><course>9.644889</course><hAcc>1.724181</hAcc><vAcc>0.825340</vAcc></extensions></trkpt>
      <trkpt lon="-2.247658" lat="53.109747"><ele>126.589172</ele><time>2022-03-04T11:01:10Z</time><extensions><speed>0.391816</speed><course>7.998155</course><hAcc>1.726474</hAcc><vAcc>0.825476</vAcc></extensions></trkpt>
      <trkpt lon="-2.247657" lat="53.109751"><ele>126.524483</ele><time>2022-03-04T11:01:11Z</time><extensions><speed>0.499890</speed><course>3.986507</course><hAcc>1.699932</hAcc><vAcc>0.825598</vAcc></extensions></trkpt>
      <trkpt lon="-2.247657" lat="53.109756"><ele>126.463966</ele><time>2022-03-04T11:01:12Z</time><extensions><speed>0.553120</speed><course>358.539276</course><hAcc>1.704904</hAcc><vAcc>0.825718</vAcc></extensions></trkpt>
      <trkpt lon="-2.247657" lat="53.109761"><ele>126.405495</ele><time>2022-03-04T11:01:13Z</time><extensions><speed>0.620819</speed><course>354.580505</course><hAcc>1.712737</hAcc><vAcc>0.825829</vAcc></extensions></trkpt>
      <trkpt lon="-2.247659" lat="53.109767"><ele>126.356598</ele><time>2022-03-04T11:01:14Z</time><extensions><speed>0.696230</speed><course>348.438995</course><hAcc>1.718029</hAcc><vAcc>0.825943</vAcc></extensions></trkpt>
      <trkpt lon="-2.247661" lat="53.109774"><ele>126.308838</ele><time>2022-03-04T11:01:15Z</time><extensions><speed>0.826611</speed><course>347.452942</course><hAcc>1.711190</hAcc><vAcc>0.826039</vAcc></extensions></trkpt>
      <trkpt lon="-2.247664" lat="53.109781"><ele>126.270645</ele><time>2022-03-04T11:01:16Z</time><extensions><speed>0.886206</speed><course>348.754364</course><hAcc>1.703745</hAcc><vAcc>0.826134</vAcc></extensions></trkpt>
      <trkpt lon="-2.247665" lat="53.109789"><ele>126.223419</ele><time>2022-03-04T11:01:17Z</time><extensions><speed>0.777017</speed><course>356.642761</course><hAcc>1.695186</hAcc><vAcc>0.826232</vAcc></extensions></trkpt>
      <trkpt lon="-2.247664" lat="53.109796"><ele>126.184227</ele><time>2022-03-04T11:01:18Z</time><extensions><speed>0.757043</speed><course>10.831288</course><hAcc>1.681501</hAcc><vAcc>0.826328</vAcc></extensions></trkpt>
      <trkpt lon="-2.247661" lat="53.109803"><ele>126.146294</ele><time>2022-03-04T11:01:20Z</time><extensions><speed>0.949677</speed><course>20.221563</course><hAcc>1.680373</hAcc><vAcc>0.826429</vAcc></extensions></trkpt>
      <trkpt lon="-2.247655" lat="53.109812"><ele>126.108704</ele><time>2022-03-04T11:01:21Z</time><extensions><speed>1.159178</speed><course>24.930277</course><hAcc>1.683425</hAcc><vAcc>0.826486</vAcc></extensions></trkpt>
      <trkpt lon="-2.247647" lat="53.109822"><ele>126.087440</ele><time>2022-03-04T11:01:22Z</time><extensions><speed>1.297713</speed><course>27.040182</course><hAcc>1.673090</hAcc><vAcc>0.826563</vAcc></extensions></trkpt>
      <trkpt lon="-2.247638" lat="53.109832"><ele>126.048805</ele><time>2022-03-04T11:01:23Z</time><extensions><speed>1.402104</speed><course>27.387161</course><hAcc>1.663581</hAcc><vAcc>0.826643</vAcc></extensions></trkpt>
      <trkpt lon="-2.247627" lat="53.109844"><ele>126.020927</ele><time>2022-03-04T11:01:24Z</time><extensions><speed>1.510636</speed><course>28.734129</course><hAcc>1.657616</hAcc><vAcc>0.826722</vAcc></extensions></trkpt>
      <trkpt lon="-2.247616" lat="53.109856"><ele>126.004761</ele><time>2022-03-04T11:01:25Z</time><extensions><speed>1.536504</speed><course>30.039886</course><hAcc>1.650876</hAcc><vAcc>0.826801</vAcc></extensions></trkpt>
      <trkpt lon="-2.247605" lat="53.109868"><ele>125.981674</ele><time>2022-03-04T11:01:26Z</time><extensions><speed>1.502161</speed><course>29.249750</course><hAcc>1.623727</hAcc><vAcc>0.826865</vAcc></extensions></trkpt>
      <trkpt lon="-2.247595" lat="53.109879"><ele>125.957916</ele><time>2022-03-04T11:01:27Z</time><extensions><speed>1.401374</speed><course>26.811420</course><hAcc>1.600333</hAcc><vAcc>0.826897</vAcc></extensions></trkpt>
      <trkpt lon="-2.247587" lat="53.109890"><ele>125.938316</ele><time>2022-03-04T11:01:28Z</time><extensions><speed>1.233926</speed><course>22.498905</course><hAcc>1.589412</hAcc><vAcc>0.826914</vAcc></extensions></trkpt>
      <trkpt lon="-2.247580" lat="53.109900"><ele>125.917091</ele><time>2022-03-04T11:01:29Z</time><extensions><speed>1.149071</speed><course>19.106382</course><hAcc>1.586468</hAcc><vAcc>0.826920</vAcc></extensions></trkpt>
      <trkpt lon="-2.247575" lat="53.109910"><ele>125.902542</ele><time>2022-03-04T11:01:30Z</time><extensions><speed>1.082966</speed><course>16.957905</course><hAcc>1.609740</hAcc><vAcc>0.826910</vAcc></extensions></trkpt>
      <trkpt lon="-2.247570" lat="53.109919"><ele>125.872574</ele><time>2022-03-04T11:01:31Z</time><extensions><speed>1.150108</speed><course>18.212519</course><hAcc>1.560825</hAcc><vAcc>0.826900</vAcc></extensions></trkpt>
      <trkpt lon="-2.247564" lat="53.109929"><ele>125.845680</ele><time>2022-03-04T11:01:32Z</time><extensions><speed>1.220074</speed><course>20.908033</course><hAcc>1.553538</hAcc><vAcc>0.826871</vAcc></extensions></trkpt>
      <trkpt lon="-2.247557" lat="53.109940"><ele>125.823082</ele><time>2022-03-04T11:01:33Z</time><extensions><speed>1.282293</speed><course>21.383848</course><hAcc>1.552884</hAcc><vAcc>0.826822</vAcc></extensions></trkpt>
      <trkpt lon="-2.247550" lat="53.109951"><ele>125.801193</ele><time>2022-03-04T11:01:34Z</time><extensions><speed>1.299206</speed><course>22.276567</course><hAcc>1.576040</hAcc><vAcc>0.826768</vAcc></extensions></trkpt>
      <trkpt lon="-2.247544" lat="53.109961"><ele>125.790718</ele><time>2022-03-04T11:01:35Z</time><extensions><speed>1.242827</speed><course>17.873690</course><hAcc>1.600201</hAcc><vAcc>0.826702</vAcc></extensions></trkpt>
      <trkpt lon="-2.247538" lat="53.109972"><ele>125.773033</ele><time>2022-03-04T11:01:36Z</time><extensions><speed>1.284066</speed><course>17.774481</course><hAcc>1.576145</hAcc><vAcc>0.826619</vAcc></extensions></trkpt>
      <trkpt lon="-2.247532" lat="53.109983"><ele>125.760483</ele><time>2022-03-04T11:01:37Z</time><extensions><speed>1.297122</speed><course>19.894751</course><hAcc>1.566856</hAcc><vAcc>0.826544</vAcc></extensions></trkpt>
      <trkpt lon="-2.247525" lat="53.109994"><ele>125.731194</ele><time>2022-03-04T11:01:38Z</time><extensions><speed>1.309084</speed><course>22.521685</course><hAcc>1.575568</hAcc><vAcc>0.826492</vAcc></extensions></trkpt>
      <trkpt lon="-2.247517" lat="53.110005"><ele>125.710617</ele><time>2022-03-04T11:01:39Z</time><extensions><speed>1.336642</speed><course>24.063009</course><hAcc>1.576910</hAcc><vAcc>0.826456</vAcc></extensions></trkpt>
      <trkpt lon="-2.247508" lat="53.110016"><ele>125.678070</ele><time>2022-03-04T11:01:40Z</time><extensions><speed>1.379075</speed><course>25.594149</course><hAcc>1.560001</hAcc><vAcc>0.826448</vAcc></extensions></trkpt>
      <trkpt lon="-2.247500" lat="53.110027"><ele>125.656090</ele><time>2022-03-04T11:01:41Z</time><extensions><speed>1.299514</speed><course>21.002274</course><hAcc>1.551890</hAcc><vAcc>0.826476</vAcc></extensions></trkpt>
      <trkpt lon="-2.247494" lat="53.110038"><ele>125.625870</ele><time>2022-03-04T11:01:42Z</time><extensions><speed>1.190040</speed><course>18.097961</course><hAcc>1.555397</hAcc><vAcc>0.826537</vAcc></extensions></trkpt>
      <trkpt lon="-2.247489" lat="53.110047"><ele>125.596024</ele><time>2022-03-04T11:01:43Z</time><extensions><speed>0.986192</speed><course>16.437206</course><hAcc>1.563005</hAcc><vAcc>0.826618</vAcc></extensions></trkpt>
      <trkpt lon="-2.247485" lat="53.110056"><ele>125.553856</ele><time>2022-03-04T11:01:44Z</time><extensions><speed>1.025092</speed><course>15.991669</course><hAcc>1.542188</hAcc><vAcc>0.826684</vAcc></extensions></trkpt>
      <trkpt lon="-2.247480" lat="53.110065"><ele>125.509026</ele><time>2022-03-04T11:01:45Z</time><extensions><speed>1.199970</speed><course>18.375206</course><hAcc>1.565095</hAcc><vAcc>0.826785</vAcc></extensions></trkpt>
      <trkpt lon="-2.247475" lat="53.110076"><ele>125.454033</ele><time>2022-03-04T11:01:46Z</time><extensions><speed>1.183797</speed><course>17.568506</course><hAcc>1.542761</hAcc><vAcc>0.826883</vAcc></extensions></trkpt>
      <trkpt lon="-2.247470" lat="53.110085"><ele>125.414688</ele><time>2022-03-04T11:01:47Z</time><extensions><speed>1.087632</speed><course>15.281559</course><hAcc>1.528529</hAcc><vAcc>0.826991</vAcc></extensions></trkpt>
      <trkpt lon="-2.247465" lat="53.110095"><ele>125.364418</ele><time>2022-03-04T11:01:48Z</time><extensions><speed>1.061380</speed><course>18.676188</course><hAcc>1.528929</hAcc><vAcc>0.827104</vAcc></extensions></trkpt>
      <trkpt lon="-2.247459" lat="53.110104"><ele>125.323105</ele><time>2022-03-04T11:01:49Z</time><extensions><speed>1.167721</speed><course>24.031031</course><hAcc>1.515020</hAcc><vAcc>0.827195</vAcc></extensions></trkpt>
      <trkpt lon="-2.247450" lat="53.110114"><ele>125.286743</ele><time>2022-03-04T11:01:50Z</time><extensions><speed>1.392191</speed><course>25.958420</course><hAcc>1.504814</hAcc><vAcc>0.827282</vAcc></extensions></trkpt>
      <trkpt lon="-2.247440" lat="53.110126"><ele>125.245728</ele><time>2022-03-04T11:01:51Z</time><extensions><speed>1.523124</speed><course>26.260420</course><hAcc>1.527758</hAcc><vAcc>0.827361</vAcc></extensions></trkpt>
      <trkpt lon="-2.247430" lat="53.110138"><ele>125.204277</ele><time>2022-03-04T11:01:52Z</time><extensions><speed>1.450522</speed><course>26.046719</course><hAcc>1.538308</hAcc><vAcc>0.827442</vAcc></extensions></trkpt>
      <trkpt lon="-2.247421" lat="53.110149"><ele>125.159981</ele><time>2022-03-04T11:01:53Z</time><extensions><speed>1.188803</speed><course>29.719261</course><hAcc>1.520492</hAcc><vAcc>0.827506</vAcc></extensions></trkpt>
      <trkpt lon="-2.247412" lat="53.110158"><ele>125.138153</ele><time>2022-03-04T11:01:54Z</time><extensions><speed>1.187119</speed><course>28.259819</course><hAcc>1.474194</hAcc><vAcc>0.827540</vAcc></extensions></trkpt>
      <trkpt lon="-2.247404" lat="53.110168"><ele>125.108482</ele><time>2022-03-04T11:01:55Z</time><extensions><speed>1.215537</speed><course>25.625332</course><hAcc>1.489269</hAcc><vAcc>0.827557</vAcc></extensions></trkpt>
      <trkpt lon="-2.247396" lat="53.110178"><ele>125.076546</ele><time>2022-03-04T11:01:56Z</time><extensions><speed>1.239505</speed><course>25.856010</course><hAcc>1.487083</hAcc><vAcc>0.827560</vAcc></extensions></trkpt>
      <trkpt lon="-2.247387" lat="53.110188"><ele>125.068901</ele><time>2022-03-04T11:01:57Z</time><extensions><speed>1.191389</speed><course>26.225426</course><hAcc>1.516984</hAcc><vAcc>0.827558</vAcc></extensions></trkpt>
      <trkpt lon="-2.247379" lat="53.110197"><ele>125.054947</ele><time>2022-03-04T11:01:58Z</time><extensions><speed>1.149070</speed><course>29.008518</course><hAcc>1.551256</hAcc><vAcc>0.827546</vAcc></extensions></trkpt>
      <trkpt lon="-2.247369" lat="53.110206"><ele>125.033226</ele><time>2022-03-04T11:01:59Z</time><extensions><speed>1.286204</speed><course>34.500679</course><hAcc>1.503399</hAcc><vAcc>0.827510</vAcc></extensions></trkpt>
      <trkpt lon="-2.247358" lat="53.110216"><ele>125.012291</ele><time>2022-03-04T11:02:00Z</time><extensions><speed>1.313753</speed><course>35.019009</course><hAcc>1.490790</hAcc><vAcc>0.827476</vAcc></extensions></trkpt>
      <trkpt lon="-2.247347" lat="53.110226"><ele>125.005600</ele><time>2022-03-04T11:02:01Z</time><extensions><speed>1.324306</speed><course>34.766811</course><hAcc>1.513211</hAcc><vAcc>0.827452</vAcc></extensions></trkpt>
      <trkpt lon="-2.247336" lat="53.110236"><ele>125.000603</ele><time>2022-03-04T11:02:02Z</time><extensions><speed>1.309848</speed><course>33.444801</course><hAcc>1.550046</hAcc><vAcc>0.827426</vAcc></extensions></trkpt>
      <trkpt lon="-2.247325" lat="53.110245"><ele>124.995926</ele><time>2022-03-04T11:02:03Z</time><extensions><speed>1.216871</speed><course>30.981400</course><hAcc>1.592287</hAcc><vAcc>0.827402</vAcc></extensions></trkpt>
      <trkpt lon="-2.247315" lat="53.110255"><ele>124.975578</ele><time>2022-03-04T11:02:04Z</time><extensions><speed>1.394067</speed><course>31.635672</course><hAcc>1.536230</hAcc><vAcc>0.827380</vAcc></extensions></trkpt>
      <trkpt lon="-2.247305" lat="53.110266"><ele>124.961746</ele><time>2022-03-04T11:02:05Z</time><extensions><speed>1.353485</speed><course>29.578011</course><hAcc>1.521667</hAcc><vAcc>0.827359</vAcc></extensions></trkpt>
      <trkpt lon="-2.247295" lat="53.110276"><ele>124.941238</ele><time>2022-03-04T11:02:06Z</time><extensions><speed>1.295053</speed><course>28.248245</course><hAcc>1.542127</hAcc><vAcc>0.827325</vAcc></extensions></trkpt>
      <trkpt lon="-2.247286" lat="53.110287"><ele>124.921402</ele><time>2022-03-04T11:02:07Z</time><extensions><speed>1.306780</speed><course>29.780745</course><hAcc>1.567021</hAcc><vAcc>0.827304</vAcc></extensions></trkpt>
      <trkpt lon="-2.247276" lat="53.110297"><ele>124.914268</ele><time>2022-03-04T11:02:08Z</time><extensions><speed>1.323212</speed><course>31.642977</course><hAcc>1.579888</hAcc><vAcc>0.827292</vAcc></extensions></trkpt>
      <trkpt lon="-2.247265" lat="53.110308"><ele>124.903404</ele><time>2022-03-04T11:02:09Z</time><extensions><speed>1.439663</speed><course>32.311436</course><hAcc>1.543502</hAcc><vAcc>0.827294</vAcc></extensions></trkpt>
      <trkpt lon="-2.247253" lat="53.110319"><ele>124.893265</ele><time>2022-03-04T11:02:10Z</time><extensions><speed>1.499974</speed><course>31.997923</course><hAcc>1.536671</hAcc><vAcc>0.827308</vAcc></extensions></trkpt>
      <trkpt lon="-2.247241" lat="53.110330"><ele>124.886414</ele><time>2022-03-04T11:02:11Z</time><extensions><speed>1.467272</speed><course>32.165363</course><hAcc>1.562115</hAcc><vAcc>0.827301</vAcc></extensions></trkpt>
      <trkpt lon="-2.247230" lat="53.110341"><ele>124.859604</ele><time>2022-03-04T11:02:11Z</time><extensions><speed>1.336182</speed><course>32.678642</course><hAcc>1.536925</hAcc><vAcc>0.827329</vAcc></extensions></trkpt>
      <trkpt lon="-2.247219" lat="53.110351"><ele>124.841827</ele><time>2022-03-04T11:02:12Z</time><extensions><speed>1.285886</speed><course>31.682411</course><hAcc>1.548093</hAcc><vAcc>0.827358</vAcc></extensions></trkpt>
      <trkpt lon="-2.247209" lat="53.110361"><ele>124.834892</ele><time>2022-03-04T11:02:13Z</time><extensions><speed>1.289315</speed><course>32.730846</course><hAcc>1.575365</hAcc><vAcc>0.827404</vAcc></extensions></trkpt>
      <trkpt lon="-2.247198" lat="53.110371"><ele>124.826027</ele><time>2022-03-04T11:02:14Z</time><extensions><speed>1.363799</speed><course>31.795218</course><hAcc>1.533784</hAcc><vAcc>0.827445</vAcc></extensions></trkpt>
      <trkpt lon="-2.247187" lat="53.110382"><ele>124.815063</ele><time>2022-03-04T11:02:15Z</time><extensions><speed>1.347930</speed><course>31.655914</course><hAcc>1.497927</hAcc><vAcc>0.827489</vAcc></extensions></trkpt>
      <trkpt lon="-2.247176" lat="53.110392"><ele>124.803757</ele><time>2022-03-04T11:02:16Z</time><extensions><speed>1.324064</speed><course>30.851780</course><hAcc>1.482732</hAcc><vAcc>0.827546</vAcc></extensions></trkpt>
      <trkpt lon="-2.247166" lat="53.110403"><ele>124.787331</ele><time>2022-03-04T11:02:17Z</time><extensions><speed>1.299910</speed><course>29.124006</course><hAcc>1.489927</hAcc><vAcc>0.827594</vAcc></extensions></trkpt>
      <trkpt lon="-2.247158" lat="53.110413"><ele>124.754158</ele><time>2022-03-04T11:02:18Z</time><extensions><speed>1.131781</speed><course>21.180313</course><hAcc>1.524954</hAcc><vAcc>0.827652</vAcc></extensions></trkpt>
      <trkpt lon="-2.247151" lat="53.110423"><ele>124.736801</ele><time>2022-03-04T11:02:19Z</time><extensions><speed>1.273212</speed><course>22.557951</course><hAcc>1.505872</hAcc><vAcc>0.827712</vAcc></extensions></trkpt>
      <trkpt lon="-2.247142" lat="53.110434"><ele>124.731987</ele><time>2022-03-04T11:02:20Z</time><extensions><speed>1.440602</speed><course>28.593533</course><hAcc>1.447922</hAcc><vAcc>0.827734</vAcc></extensions></trkpt>
      <trkpt lon="-2.247132" lat="53.110445"><ele>124.721931</ele><time>2022-03-04T11:02:21Z</time><extensions><speed>1.398018</speed><course>29.278288</course><hAcc>1.451948</hAcc><vAcc>0.827731</vAcc></extensions></trkpt>
      <trkpt lon="-2.247121" lat="53.110456"><ele>124.714859</ele><time>2022-03-04T11:02:22Z</time><extensions><speed>1.430783</speed><course>30.942720</course><hAcc>1.432043</hAcc><vAcc>0.827756</vAcc></extensions></trkpt>
      <trkpt lon="-2.247110" lat="53.110467"><ele>124.725975</ele><time>2022-03-04T11:02:23Z</time><extensions><speed>1.389122</speed><course>32.033588</course><hAcc>1.457116</hAcc><vAcc>0.827772</vAcc></extensions></trkpt>
      <trkpt lon="-2.247098" lat="53.110478"><ele>124.719002</ele><time>2022-03-04T11:02:24Z</time><extensions><speed>1.370573</speed><course>33.785908</course><hAcc>1.462156</hAcc><vAcc>0.827794</vAcc></extensions></trkpt>
      <trkpt lon="-2.247086" lat="53.110488"><ele>124.719246</ele><time>2022-03-04T11:02:25Z</time><extensions><speed>1.400488</speed><course>35.288284</course><hAcc>1.433789</hAcc><vAcc>0.827784</vAcc></extensions></trkpt>
      <trkpt lon="-2.247075" lat="53.110498"><ele>124.719589</ele><time>2022-03-04T11:02:26Z</time><extensions><speed>1.255314</speed><course>35.715469</course><hAcc>1.454391</hAcc><vAcc>0.827788</vAcc></extensions></trkpt>
      <trkpt lon="-2.247063" lat="53.110507"><ele>124.719200</ele><time>2022-03-04T11:02:27Z</time><extensions><speed>1.275449</speed><course>35.783424</course><hAcc>1.448390</hAcc><vAcc>0.827794</vAcc></extensions></trkpt>
      <trkpt lon="-2.247053" lat="53.110517"><ele>124.722389</ele><time>2022-03-04T11:02:28Z</time><extensions><speed>1.204163</speed><course>31.816273</course><hAcc>1.481380</hAcc><vAcc>0.827798</vAcc></extensions></trkpt>
      <trkpt lon="-2.247043" lat="53.110526"><ele>124.735809</ele><time>2022-03-04T11:02:29Z</time><extensions><speed>1.260534</speed><course>28.848579</course><hAcc>1.511562</hAcc><vAcc>0.827808</vAcc></extensions></trkpt>
      <trkpt lon="-2.247034" lat="53.110536"><ele>124.757927</ele><time>2022-03-04T11:02:30Z</time><extensions><speed>1.275345</speed><course>28.743958</course><hAcc>1.470855</hAcc><vAcc>0.827828</vAcc></extensions></trkpt>
      <trkpt lon="-2.247024" lat="53.110546"><ele>124.790825</ele><time>2022-03-04T11:02:31Z</time><extensions><speed>1.304809</speed><course>32.840805</course><hAcc>1.466028</hAcc><vAcc>0.827861</vAcc></extensions></trkpt>
      <trkpt lon="-2.247013" lat="53.110556"><ele>124.827675</ele><time>2022-03-04T11:02:32Z</time><extensions><speed>1.282586</speed><course>34.438557</course><hAcc>1.495755</hAcc><vAcc>0.827906</vAcc></extensions></trkpt>
      <trkpt lon="-2.247002" lat="53.110566"><ele>124.879074</ele><time>2022-03-04T11:02:33Z</time><extensions><speed>1.362013</speed><course>34.333950</course><hAcc>1.503205</hAcc><vAcc>0.827970</vAcc></extensions></trkpt>
      <trkpt lon="-2.246990" lat="53.110576"><ele>124.934624</ele><time>2022-03-04T11:02:34Z</time><extensions><speed>1.380917</speed><course>32.891232</course><hAcc>1.482639</hAcc><vAcc>0.828048</vAcc></extensions></trkpt>
      <trkpt lon="-2.246979" lat="53.110587"><ele>124.998146</ele><time>2022-03-04T11:02:35Z</time><extensions><speed>1.441591</speed><course>32.654045</course><hAcc>1.428431</hAcc><vAcc>0.828133</vAcc></extensions></trkpt>
      <trkpt lon="-2.246968" lat="53.110598"><ele>125.077240</ele><time>2022-03-04T11:02:36Z</time><extensions><speed>1.396642</speed><course>31.948330</course><hAcc>1.432671</hAcc><vAcc>0.828221</vAcc></extensions></trkpt>
      <trkpt lon="-2.246956" lat="53.110609"><ele>125.157578</ele><time>2022-03-04T11:02:37Z</time><extensions><speed>1.555038</speed><course>31.542765</course><hAcc>1.433591</hAcc><vAcc>0.828308</vAcc></extensions></trkpt>
      <trkpt lon="-2.246944" lat="53.110621"><ele>125.245186</ele><time>2022-03-04T11:02:38Z</time><extensions><speed>1.669474</speed><course>32.622341</course><hAcc>1.404256</hAcc><vAcc>0.828396</vAcc></extensions></trkpt>
      <trkpt lon="-2.246930" lat="53.110634"><ele>125.334831</ele><time>2022-03-04T11:02:39Z</time><extensions><speed>1.688649</speed><course>31.760265</course><hAcc>1.387791</hAcc><vAcc>0.828477</vAcc></extensions></trkpt>
      <trkpt lon="-2.246918" lat="53.110647"><ele>125.423317</ele><time>2022-03-04T11:02:40Z</time><extensions><speed>1.663084</speed><course>32.012447</course><hAcc>1.383267</hAcc><vAcc>0.828549</vAcc></extensions></trkpt>
      <trkpt lon="-2.246905" lat="53.110659"><ele>125.513474</ele><time>2022-03-04T11:02:41Z</time><extensions><speed>1.630672</speed><course>30.791458</course><hAcc>1.370081</hAcc><vAcc>0.828609</vAcc></extensions></trkpt>
      <trkpt lon="-2.246893" lat="53.110672"><ele>125.621719</ele><time>2022-03-04T11:02:42Z</time><extensions><speed>1.588451</speed><course>31.564058</course><hAcc>1.353027</hAcc><vAcc>0.828652</vAcc></extensions></trkpt>
      <trkpt lon="-2.246881" lat="53.110684"><ele>125.727051</ele><time>2022-03-04T11:02:43Z</time><extensions><speed>1.570828</speed><course>30.680832</course><hAcc>1.344182</hAcc><vAcc>0.828675</vAcc></extensions></trkpt>
      <trkpt lon="-2.246870" lat="53.110696"><ele>125.837845</ele><time>2022-03-04T11:02:44Z</time><extensions><speed>1.599858</speed><course>27.939016</course><hAcc>1.349252</hAcc><vAcc>0.828686</vAcc></extensions></trkpt>
      <trkpt lon="-2.246859" lat="53.110708"><ele>125.948189</ele><time>2022-03-04T11:02:45Z</time><extensions><speed>1.586540</speed><course>28.628447</course><hAcc>1.341493</hAcc><vAcc>0.828700</vAcc></extensions></trkpt>
      <trkpt lon="-2.246848" lat="53.110721"><ele>126.070259</ele><time>2022-03-04T11:02:46Z</time><extensions><speed>1.599789</speed><course>28.093742</course><hAcc>1.344418</hAcc><vAcc>0.828703</vAcc></extensions></trkpt>
      <trkpt lon="-2.246836" lat="53.110733"><ele>126.185272</ele><time>2022-03-04T11:02:47Z</time><extensions><speed>1.603475</speed><course>30.760496</course><hAcc>1.340905</hAcc><vAcc>0.828685</vAcc></extensions></trkpt>
      <trkpt lon="-2.246825" lat="53.110745"><ele>126.290337</ele><time>2022-03-04T11:02:48Z</time><extensions><speed>1.548038</speed><course>31.853085</course><hAcc>1.325597</hAcc><vAcc>0.828658</vAcc></extensions></trkpt>
      <trkpt lon="-2.246813" lat="53.110756"><ele>126.394440</ele><time>2022-03-04T11:02:49Z</time><extensions><speed>1.523461</speed><course>30.707661</course><hAcc>1.319325</hAcc><vAcc>0.828638</vAcc></extensions></trkpt>
      <trkpt lon="-2.246802" lat="53.110768"><ele>126.499847</ele><time>2022-03-04T11:02:50Z</time><extensions><speed>1.564675</speed><course>28.490013</course><hAcc>1.333802</hAcc><vAcc>0.828619</vAcc></extensions></trkpt>
      <trkpt lon="-2.246791" lat="53.110780"><ele>126.605492</ele><time>2022-03-04T11:02:51Z</time><extensions><speed>1.549631</speed><course>27.673578</course><hAcc>1.335772</hAcc><vAcc>0.828590</vAcc></extensions></trkpt>
      <trkpt lon="-2.246781" lat="53.110792"><ele>126.701881</ele><time>2022-03-04T11:02:52Z</time><extensions><speed>1.505908</speed><course>25.954979</course><hAcc>1.336973</hAcc><vAcc>0.828571</vAcc></extensions></trkpt>
      <trkpt lon="-2.246772" lat="53.110804"><ele>126.802048</ele><time>2022-03-04T11:02:53Z</time><extensions><speed>1.501012</speed><course>27.172815</course><hAcc>1.338508</hAcc><vAcc>0.828546</vAcc></extensions></trkpt>
      <trkpt lon="-2.246762" lat="53.110815"><ele>126.897751</ele><time>2022-03-04T11:02:54Z</time><extensions><speed>1.417913</speed><course>30.004929</course><hAcc>1.330057</hAcc><vAcc>0.828516</vAcc></extensions></trkpt>
      <trkpt lon="-2.246751" lat="53.110826"><ele>126.994171</ele><time>2022-03-04T11:02:55Z</time><extensions><speed>1.457596</speed><course>28.795639</course><hAcc>1.340884</hAcc><vAcc>0.828483</vAcc></extensions></trkpt>
      <trkpt lon="-2.246742" lat="53.110836"><ele>127.068092</ele><time>2022-03-04T11:02:56Z</time><extensions><speed>1.349322</speed><course>29.311920</course><hAcc>1.333768</hAcc><vAcc>0.828455</vAcc></extensions></trkpt>
      <trkpt lon="-2.246732" lat="53.110847"><ele>127.138695</ele><time>2022-03-04T11:02:57Z</time><extensions><speed>1.419229</speed><course>30.785685</course><hAcc>1.346163</hAcc><vAcc>0.828424</vAcc></extensions></trkpt>
      <trkpt lon="-2.246721" lat="53.110857"><ele>127.208595</ele><time>2022-03-04T11:02:58Z</time><extensions><speed>1.430862</speed><course>30.278425</course><hAcc>1.347407</hAcc><vAcc>0.828384</vAcc></extensions></trkpt>
      <trkpt lon="-2.246711" lat="53.110868"><ele>127.269691</ele><time>2022-03-04T11:02:59Z</time><extensions><speed>1.430934</speed><course>29.362495</course><hAcc>1.345051</hAcc><vAcc>0.828346</vAcc></extensions></trkpt>
      <trkpt lon="-2.246701" lat="53.110879"><ele>127.324677</ele><time>2022-03-04T11:03:00Z</time><extensions><speed>1.445907</speed><course>29.405304</course><hAcc>1.347875</hAcc><vAcc>0.828315</vAcc></extensions></trkpt>
      <trkpt lon="-2.246691" lat="53.110889"><ele>127.380196</ele><time>2022-03-04T11:03:01Z</time><extensions><speed>1.358934</speed><course>31.037170</course><hAcc>1.340195</hAcc><vAcc>0.828285</vAcc></extensions></trkpt>
      <trkpt lon="-2.246681" lat="53.110898"><ele>127.436066</ele><time>2022-03-04T11:03:02Z</time><extensions><speed>1.259425</speed><course>32.273849</course><hAcc>1.329593</hAcc><vAcc>0.828256</vAcc></extensions></trkpt>
      <trkpt lon="-2.246670" lat="53.110908"><ele>127.502525</ele><time>2022-03-04T11:03:03Z</time><extensions><speed>1.362376</speed><course>34.105846</course><hAcc>1.341602</hAcc><vAcc>0.828226</vAcc></extensions></trkpt>
      <trkpt lon="-2.246659" lat="53.110917"><ele>127.559776</ele><time>2022-03-04T11:03:04Z</time><extensions><speed>1.325385</speed><course>33.533039</course><hAcc>1.338327</hAcc><vAcc>0.828192</vAcc></extensions></trkpt>
      <trkpt lon="-2.246649" lat="53.110927"><ele>127.608109</ele><time>2022-03-04T11:03:05Z</time><extensions><speed>1.376499</speed><course>29.403591</course><hAcc>1.342630</hAcc><vAcc>0.828173</vAcc></extensions></trkpt>
      <trkpt lon="-2.246639" lat="53.110937"><ele>127.631042</ele><time>2022-03-04T11:03:06Z</time><extensions><speed>1.305374</speed><course>29.812695</course><hAcc>1.331089</hAcc><vAcc>0.828164</vAcc></extensions></trkpt>
      <trkpt lon="-2.246629" lat="53.110947"><ele>127.656296</ele><time>2022-03-04T11:03:07Z</time><extensions><speed>1.362629</speed><course>35.198910</course><hAcc>1.338188</hAcc><vAcc>0.828167</vAcc></extensions></trkpt>
      <trkpt lon="-2.246618" lat="53.110956"><ele>127.675583</ele><time>2022-03-04T11:03:08Z</time><extensions><speed>1.308470</speed><course>33.915756</course><hAcc>1.335910</hAcc><vAcc>0.828176</vAcc></extensions></trkpt>
      <trkpt lon="-2.246608" lat="53.110966"><ele>127.694603</ele><time>2022-03-04T11:03:09Z</time><extensions><speed>1.333995</speed><course>29.119270</course><hAcc>1.341686</hAcc><vAcc>0.828193</vAcc></extensions></trkpt>
      <trkpt lon="-2.246598" lat="53.110976"><ele>127.692856</ele><time>2022-03-04T11:03:10Z</time><extensions><speed>1.369874</speed><course>28.085066</course><hAcc>1.347330</hAcc><vAcc>0.828218</vAcc></extensions></trkpt>
      <trkpt lon="-2.246589" lat="53.110986"><ele>127.688850</ele><time>2022-03-04T11:03:11Z</time><extensions><speed>1.253329</speed><course>28.536175</course><hAcc>1.338052</hAcc><vAcc>0.828259</vAcc></extensions></trkpt>
      <trkpt lon="-2.246580" lat="53.110995"><ele>127.709915</ele><time>2022-03-04T11:03:12Z</time><extensions><speed>1.219111</speed><course>28.201836</course><hAcc>1.338920</hAcc><vAcc>0.828307</vAcc></extensions></trkpt>
      <trkpt lon="-2.246572" lat="53.111004"><ele>127.705177</ele><time>2022-03-04T11:03:13Z</time><extensions><speed>1.245380</speed><course>30.355080</course><hAcc>1.349172</hAcc><vAcc>0.828362</vAcc></extensions></trkpt>
      <trkpt lon="-2.246561" lat="53.111014"><ele>127.678406</ele><time>2022-03-04T11:03:14Z</time><extensions><speed>1.368428</speed><course>35.495831</course><hAcc>1.360037</hAcc><vAcc>0.828440</vAcc></extensions></trkpt>
      <trkpt lon="-2.246550" lat="53.111023"><ele>127.662605</ele><time>2022-03-04T11:03:15Z</time><extensions><speed>1.275072</speed><course>37.069965</course><hAcc>1.342271</hAcc><vAcc>0.828535</vAcc></extensions></trkpt>
      <trkpt lon="-2.246539" lat="53.111031"><ele>127.639206</ele><time>2022-03-04T11:03:16Z</time><extensions><speed>1.223910</speed><course>36.901054</course><hAcc>1.332346</hAcc><vAcc>0.828635</vAcc></extensions></trkpt>
      <trkpt lon="-2.246528" lat="53.111040"><ele>127.627586</ele><time>2022-03-04T11:03:17Z</time><extensions><speed>1.344121</speed><course>33.805424</course><hAcc>1.344539</hAcc><vAcc>0.828740</vAcc></extensions></trkpt>
      <trkpt lon="-2.246517" lat="53.111050"><ele>127.612938</ele><time>2022-03-04T11:03:18Z</time><extensions><speed>1.371646</speed><course>30.810776</course><hAcc>1.343478</hAcc><vAcc>0.828848</vAcc></extensions></trkpt>
      <trkpt lon="-2.246507" lat="53.111059"><ele>127.585884</ele><time>2022-03-04T11:03:19Z</time><extensions><speed>1.260669</speed><course>31.180616</course><hAcc>1.323704</hAcc><vAcc>0.828967</vAcc></extensions></trkpt>
      <trkpt lon="-2.246497" lat="53.111069"><ele>127.573036</ele><time>2022-03-04T11:03:20Z</time><extensions><speed>1.394786</speed><course>31.742144</course><hAcc>1.329057</hAcc><vAcc>0.829084</vAcc></extensions></trkpt>
      <trkpt lon="-2.246487" lat="53.111079"><ele>127.564796</ele><time>2022-03-04T11:03:21Z</time><extensions><speed>1.421109</speed><course>30.627821</course><hAcc>1.326357</hAcc><vAcc>0.829188</vAcc></extensions></trkpt>
      <trkpt lon="-2.246477" lat="53.111089"><ele>127.567902</ele><time>2022-03-04T11:03:22Z</time><extensions><speed>1.262086</speed><course>28.450405</course><hAcc>1.309844</hAcc><vAcc>0.829264</vAcc></extensions></trkpt>
      <trkpt lon="-2.246468" lat="53.111099"><ele>127.539482</ele><time>2022-03-04T11:03:23Z</time><extensions><speed>1.393986</speed><course>29.068260</course><hAcc>1.316499</hAcc><vAcc>0.829322</vAcc></extensions></trkpt>
      <trkpt lon="-2.246458" lat="53.111110"><ele>127.504059</ele><time>2022-03-04T11:03:24Z</time><extensions><speed>1.379045</speed><course>31.893883</course><hAcc>1.315416</hAcc><vAcc>0.829346</vAcc></extensions></trkpt>
      <trkpt lon="-2.246447" lat="53.111119"><ele>127.474449</ele><time>2022-03-04T11:03:26Z</time><extensions><speed>1.347780</speed><course>36.410130</course><hAcc>1.316814</hAcc><vAcc>0.829318</vAcc></extensions></trkpt>
      <trkpt lon="-2.246435" lat="53.111129"><ele>127.432343</ele><time>2022-03-04T11:03:27Z</time><extensions><speed>1.413176</speed><course>37.496532</course><hAcc>1.330869</hAcc><vAcc>0.829241</vAcc></extensions></trkpt>
      <trkpt lon="-2.246422" lat="53.111138"><ele>127.401062</ele><time>2022-03-04T11:03:28Z</time><extensions><speed>1.268378</speed><course>37.402538</course><hAcc>1.329984</hAcc><vAcc>0.829136</vAcc></extensions></trkpt>
      <trkpt lon="-2.246411" lat="53.111147"><ele>127.350227</ele><time>2022-03-04T11:03:29Z</time><extensions><speed>1.300652</speed><course>34.959316</course><hAcc>1.352526</hAcc><vAcc>0.828997</vAcc></extensions></trkpt>
      <trkpt lon="-2.246401" lat="53.111157"><ele>127.299088</ele><time>2022-03-04T11:03:30Z</time><extensions><speed>1.278264</speed><course>29.291672</course><hAcc>1.369774</hAcc><vAcc>0.828829</vAcc></extensions></trkpt>
      <trkpt lon="-2.246391" lat="53.111167"><ele>127.249641</ele><time>2022-03-04T11:03:31Z</time><extensions><speed>1.281856</speed><course>27.873470</course><hAcc>1.397183</hAcc><vAcc>0.828632</vAcc></extensions></trkpt>
      <trkpt lon="-2.246383" lat="53.111176"><ele>127.193016</ele><time>2022-03-04T11:03:32Z</time><extensions><speed>1.098506</speed><course>28.529989</course><hAcc>1.404344</hAcc><vAcc>0.828406</vAcc></extensions></trkpt>
      <trkpt lon="-2.246375" lat="53.111184"><ele>127.126862</ele><time>2022-03-04T11:03:33Z</time><extensions><speed>0.944873</speed><course>28.611263</course><hAcc>1.436296</hAcc><vAcc>0.828178</vAcc></extensions></trkpt>
      <trkpt lon="-2.246368" lat="53.111192"><ele>127.061592</ele><time>2022-03-04T11:03:34Z</time><extensions><speed>1.047401</speed><course>27.001734</course><hAcc>1.502873</hAcc><vAcc>0.827940</vAcc></extensions></trkpt>
      <trkpt lon="-2.246361" lat="53.111200"><ele>127.007629</ele><time>2022-03-04T11:03:35Z</time><extensions><speed>0.875912</speed><course>34.917343</course><hAcc>1.491008</hAcc><vAcc>0.827724</vAcc></extensions></trkpt>
      <trkpt lon="-2.246353" lat="53.111206"><ele>126.959686</ele><time>2022-03-04T11:03:36Z</time><extensions><speed>0.812589</speed><course>39.479038</course><hAcc>1.497332</hAcc><vAcc>0.827539</vAcc></extensions></trkpt>
      <trkpt lon="-2.246346" lat="53.111212"><ele>126.913742</ele><time>2022-03-04T11:03:37Z</time><extensions><speed>0.856930</speed><course>38.687325</course><hAcc>1.523713</hAcc><vAcc>0.827379</vAcc></extensions></trkpt>
      <trkpt lon="-2.246337" lat="53.111218"><ele>126.880714</ele><time>2022-03-04T11:03:38Z</time><extensions><speed>0.969552</speed><course>42.837543</course><hAcc>1.547024</hAcc><vAcc>0.827276</vAcc></extensions></trkpt>
      <trkpt lon="-2.246326" lat="53.111224"><ele>126.843681</ele><time>2022-03-04T11:03:39Z</time><extensions><speed>1.076571</speed><course>46.397984</course><hAcc>1.548424</hAcc><vAcc>0.827194</vAcc></extensions></trkpt>
      <trkpt lon="-2.246314" lat="53.111231"><ele>126.832199</ele><time>2022-03-04T11:03:40Z</time><extensions><speed>1.148623</speed><course>44.153522</course><hAcc>1.523575</hAcc><vAcc>0.827115</vAcc></extensions></trkpt>
      <trkpt lon="-2.246302" lat="53.111239"><ele>126.806305</ele><time>2022-03-04T11:03:41Z</time><extensions><speed>1.243739</speed><course>38.508789</course><hAcc>1.525710</hAcc><vAcc>0.827074</vAcc></extensions></trkpt>
      <trkpt lon="-2.246291" lat="53.111248"><ele>126.799263</ele><time>2022-03-04T11:03:42Z</time><extensions><speed>1.370330</speed><course>36.018398</course><hAcc>1.480442</hAcc><vAcc>0.827041</vAcc></extensions></trkpt>
      <trkpt lon="-2.246278" lat="53.111259"><ele>126.764679</ele><time>2022-03-04T11:03:43Z</time><extensions><speed>1.508684</speed><course>37.500935</course><hAcc>1.468536</hAcc><vAcc>0.827048</vAcc></extensions></trkpt>
      <trkpt lon="-2.246264" lat="53.111269"><ele>126.733322</ele><time>2022-03-04T11:03:44Z</time><extensions><speed>1.548503</speed><course>36.482533</course><hAcc>1.482615</hAcc><vAcc>0.827062</vAcc></extensions></trkpt>
      <trkpt lon="-2.246251" lat="53.111281"><ele>126.697807</ele><time>2022-03-04T11:03:45Z</time><extensions><speed>1.525912</speed><course>32.883461</course><hAcc>1.483373</hAcc><vAcc>0.827048</vAcc></extensions></trkpt>
      <trkpt lon="-2.246239" lat="53.111292"><ele>126.667809</ele><time>2022-03-04T11:03:46Z</time><extensions><speed>1.508840</speed><course>30.049934</course><hAcc>1.492860</hAcc><vAcc>0.827019</vAcc></extensions></trkpt>
      <trkpt lon="-2.246228" lat="53.111304"><ele>126.653496</ele><time>2022-03-04T11:03:47Z</time><extensions><speed>1.445166</speed><course>30.564453</course><hAcc>1.478628</hAcc><vAcc>0.826973</vAcc></extensions></trkpt>
      <trkpt lon="-2.246216" lat="53.111314"><ele>126.634331</ele><time>2022-03-04T11:03:48Z</time><extensions><speed>1.359774</speed><course>33.932362</course><hAcc>1.476033</hAcc><vAcc>0.826897</vAcc></extensions></trkpt>
      <trkpt lon="-2.246205" lat="53.111324"><ele>126.604889</ele><time>2022-03-04T11:03:49Z</time><extensions><speed>1.229587</speed><course>36.082699</course><hAcc>1.472651</hAcc><vAcc>0.826792</vAcc></extensions></trkpt>
      <trkpt lon="-2.246195" lat="53.111333"><ele>126.572540</ele><time>2022-03-04T11:03:50Z</time><extensions><speed>1.201911</speed><course>34.359501</course><hAcc>1.497915</hAcc><vAcc>0.826669</vAcc></extensions></trkpt>
      <trkpt lon="-2.246185" lat="53.111341"><ele>126.533340</ele><time>2022-03-04T11:03:51Z</time><extensions><speed>1.142661</speed><course>34.425648</course><hAcc>1.550298</hAcc><vAcc>0.826540</vAcc></extensions></trkpt>
      <trkpt lon="-2.246175" lat="53.111349"><ele>126.512894</ele><time>2022-03-04T11:03:52Z</time><extensions><speed>0.990772</speed><course>36.941959</course><hAcc>1.544333</hAcc><vAcc>0.826421</vAcc></extensions></trkpt>
      <trkpt lon="-2.246167" lat="53.111355"><ele>126.491737</ele><time>2022-03-04T11:03:53Z</time><extensions><speed>0.810335</speed><course>40.776100</course><hAcc>1.554266</hAcc><vAcc>0.826295</vAcc></extensions></trkpt>
      <trkpt lon="-2.246159" lat="53.111361"><ele>126.461647</ele><time>2022-03-04T11:03:54Z</time><extensions><speed>0.770163</speed><course>43.177029</course><hAcc>1.576646</hAcc><vAcc>0.826170</vAcc></extensions></trkpt>
      <trkpt lon="-2.246150" lat="53.111366"><ele>126.444717</ele><time>2022-03-04T11:03:55Z</time><extensions><speed>0.917931</speed><course>49.649803</course><hAcc>1.545066</hAcc><vAcc>0.826028</vAcc></extensions></trkpt>
      <trkpt lon="-2.246138" lat="53.111371"><ele>126.424957</ele><time>2022-03-04T11:03:56Z</time><extensions><speed>1.078483</speed><course>52.124287</course><hAcc>1.532795</hAcc><vAcc>0.825894</vAcc></extensions></trkpt>
      <trkpt lon="-2.246124" lat="53.111377"><ele>126.434883</ele><time>2022-03-04T11:03:57Z</time><extensions><speed>1.274114</speed><course>54.213249</course><hAcc>1.535173</hAcc><vAcc>0.825736</vAcc></extensions></trkpt>
      <trkpt lon="-2.246107" lat="53.111385"><ele>126.449837</ele><time>2022-03-04T11:03:58Z</time><extensions><speed>1.507446</speed><course>51.374855</course><hAcc>1.549093</hAcc><vAcc>0.825520</vAcc></extensions></trkpt>
      <trkpt lon="-2.246090" lat="53.111394"><ele>126.475426</ele><time>2022-03-04T11:03:59Z</time><extensions><speed>1.563615</speed><course>48.290565</course><hAcc>1.564952</hAcc><vAcc>0.825312</vAcc></extensions></trkpt>
      <trkpt lon="-2.246073" lat="53.111403"><ele>126.492188</ele><time>2022-03-04T11:04:00Z</time><extensions><speed>1.525796</speed><course>46.507336</course><hAcc>1.547452</hAcc><vAcc>0.825137</vAcc></extensions></trkpt>
      <trkpt lon="-2.246057" lat="53.111412"><ele>126.521698</ele><time>2022-03-04T11:04:01Z</time><extensions><speed>1.415760</speed><course>47.685810</course><hAcc>1.525812</hAcc><vAcc>0.824968</vAcc></extensions></trkpt>
      <trkpt lon="-2.246041" lat="53.111421"><ele>126.546280</ele><time>2022-03-04T11:04:02Z</time><extensions><speed>1.374426</speed><course>49.111206</course><hAcc>1.551715</hAcc><vAcc>0.824808</vAcc></extensions></trkpt>
      <trkpt lon="-2.246026" lat="53.111428"><ele>126.581726</ele><time>2022-03-04T11:04:03Z</time><extensions><speed>1.245396</speed><course>49.094322</course><hAcc>1.572208</hAcc><vAcc>0.824643</vAcc></extensions></trkpt>
      <trkpt lon="-2.246013" lat="53.111435"><ele>126.629044</ele><time>2022-03-04T11:04:04Z</time><extensions><speed>1.087349</speed><course>52.689861</course><hAcc>1.557485</hAcc><vAcc>0.824479</vAcc></extensions></trkpt>
      <trkpt lon="-2.246001" lat="53.111441"><ele>126.669922</ele><time>2022-03-04T11:04:05Z</time><extensions><speed>0.954203</speed><course>55.937103</course><hAcc>1.567935</hAcc><vAcc>0.824329</vAcc></extensions></trkpt>
      <trkpt lon="-2.245989" lat="53.111445"><ele>126.711975</ele><time>2022-03-04T11:04:06Z</time><extensions><speed>0.886509</speed><course>56.869850</course><hAcc>1.592124</hAcc><vAcc>0.824210</vAcc></extensions></trkpt>
      <trkpt lon="-2.245978" lat="53.111450"><ele>126.753540</ele><time>2022-03-04T11:04:07Z</time><extensions><speed>0.960867</speed><course>58.202118</course><hAcc>1.569760</hAcc><vAcc>0.824125</vAcc></extensions></trkpt>
      <trkpt lon="-2.245965" lat="53.111455"><ele>126.792435</ele><time>2022-03-04T11:04:08Z</time><extensions><speed>1.133166</speed><course>53.464039</course><hAcc>1.548910</hAcc><vAcc>0.824120</vAcc></extensions></trkpt>
      <trkpt lon="-2.245952" lat="53.111462"><ele>126.830910</ele><time>2022-03-04T11:04:09Z</time><extensions><speed>1.256155</speed><course>47.331543</course><hAcc>1.545961</hAcc><vAcc>0.824188</vAcc></extensions></trkpt>
      <trkpt lon="-2.245938" lat="53.111471"><ele>126.864388</ele><time>2022-03-04T11:04:10Z</time><extensions><speed>1.512069</speed><course>41.427883</course><hAcc>1.504834</hAcc><vAcc>0.824327</vAcc></extensions></trkpt>
      <trkpt lon="-2.245924" lat="53.111482"><ele>126.873047</ele><time>2022-03-04T11:04:11Z</time><extensions><speed>1.628829</speed><course>36.248524</course><hAcc>1.455794</hAcc><vAcc>0.824521</vAcc></extensions></trkpt>
      <trkpt lon="-2.245910" lat="53.111493"><ele>126.880806</ele><time>2022-03-04T11:04:12Z</time><extensions><speed>1.614046</speed><course>35.876057</course><hAcc>1.453890</hAcc><vAcc>0.824766</vAcc></extensions></trkpt>
      <trkpt lon="-2.245897" lat="53.111505"><ele>126.906311</ele><time>2022-03-04T11:04:13Z</time><extensions><speed>1.580667</speed><course>33.666714</course><hAcc>1.432094</hAcc><vAcc>0.825029</vAcc></extensions></trkpt>
      <trkpt lon="-2.245886" lat="53.111517"><ele>126.922119</ele><time>2022-03-04T11:04:14Z</time><extensions><speed>1.545510</speed><course>24.634056</course><hAcc>1.404492</hAcc><vAcc>0.825290</vAcc></extensions></trkpt>
      <trkpt lon="-2.245877" lat="53.111529"><ele>126.935669</ele><time>2022-03-04T11:04:15Z</time><extensions><speed>1.500418</speed><course>20.422197</course><hAcc>1.379585</hAcc><vAcc>0.825561</vAcc></extensions></trkpt>
      <trkpt lon="-2.245870" lat="53.111541"><ele>126.955009</ele><time>2022-03-04T11:04:16Z</time><extensions><speed>1.453720</speed><course>20.107412</course><hAcc>1.351725</hAcc><vAcc>0.825815</vAcc></extensions></trkpt>
      <trkpt lon="-2.245863" lat="53.111553"><ele>126.961044</ele><time>2022-03-04T11:04:17Z</time><extensions><speed>1.464800</speed><course>18.919409</course><hAcc>1.344660</hAcc><vAcc>0.826069</vAcc></extensions></trkpt>
      <trkpt lon="-2.245857" lat="53.111565"><ele>126.962639</ele><time>2022-03-04T11:04:18Z</time><extensions><speed>1.460957</speed><course>18.937096</course><hAcc>1.340290</hAcc><vAcc>0.826304</vAcc></extensions></trkpt>
      <trkpt lon="-2.245850" lat="53.111578"><ele>126.972603</ele><time>2022-03-04T11:04:18Z</time><extensions><speed>1.482553</speed><course>17.615860</course><hAcc>1.338334</hAcc><vAcc>0.826524</vAcc></extensions></trkpt>
      <trkpt lon="-2.245844" lat="53.111590"><ele>126.973045</ele><time>2022-03-04T11:04:19Z</time><extensions><speed>1.406621</speed><course>18.956955</course><hAcc>1.327819</hAcc><vAcc>0.826729</vAcc></extensions></trkpt>
      <trkpt lon="-2.245839" lat="53.111602"><ele>126.969193</ele><time>2022-03-04T11:04:20Z</time><extensions><speed>1.411845</speed><course>13.516850</course><hAcc>1.322379</hAcc><vAcc>0.826926</vAcc></extensions></trkpt>
      <trkpt lon="-2.245833" lat="53.111614"><ele>126.968552</ele><time>2022-03-04T11:04:21Z</time><extensions><speed>1.424858</speed><course>19.393873</course><hAcc>1.323555</hAcc><vAcc>0.827103</vAcc></extensions></trkpt>
      <trkpt lon="-2.245824" lat="53.111625"><ele>126.962929</ele><time>2022-03-04T11:04:22Z</time><extensions><speed>1.381547</speed><course>34.221889</course><hAcc>1.326422</hAcc><vAcc>0.827264</vAcc></extensions></trkpt>
      <trkpt lon="-2.245812" lat="53.111635"><ele>126.951988</ele><time>2022-03-04T11:04:23Z</time><extensions><speed>1.423378</speed><course>41.733902</course><hAcc>1.335100</hAcc><vAcc>0.827411</vAcc></extensions></trkpt>
      <trkpt lon="-2.245798" lat="53.111644"><ele>126.938614</ele><time>2022-03-04T11:04:24Z</time><extensions><speed>1.415987</speed><course>43.112694</course><hAcc>1.346797</hAcc><vAcc>0.827552</vAcc></extensions></trkpt>
      <trkpt lon="-2.245784" lat="53.111654"><ele>126.935356</ele><time>2022-03-04T11:04:25Z</time><extensions><speed>1.425191</speed><course>37.739006</course><hAcc>1.362230</hAcc><vAcc>0.827679</vAcc></extensions></trkpt>
      <trkpt lon="-2.245772" lat="53.111663"><ele>126.923225</ele><time>2022-03-04T11:04:26Z</time><extensions><speed>1.327835</speed><course>34.018326</course><hAcc>1.353572</hAcc><vAcc>0.827794</vAcc></extensions></trkpt>
      <trkpt lon="-2.245762" lat="53.111673"><ele>126.905396</ele><time>2022-03-04T11:04:27Z</time><extensions><speed>1.241847</speed><course>30.278364</course><hAcc>1.355154</hAcc><vAcc>0.827920</vAcc></extensions></trkpt>
      <trkpt lon="-2.245753" lat="53.111683"><ele>126.897339</ele><time>2022-03-04T11:04:28Z</time><extensions><speed>1.257936</speed><course>30.790571</course><hAcc>1.383933</hAcc><vAcc>0.828040</vAcc></extensions></trkpt>
      <trkpt lon="-2.245744" lat="53.111693"><ele>126.889832</ele><time>2022-03-04T11:04:29Z</time><extensions><speed>1.357648</speed><course>29.394075</course><hAcc>1.427918</hAcc><vAcc>0.828173</vAcc></extensions></trkpt>
      <trkpt lon="-2.245734" lat="53.111703"><ele>126.881912</ele><time>2022-03-04T11:04:30Z</time><extensions><speed>1.389773</speed><course>30.338516</course><hAcc>1.429263</hAcc><vAcc>0.828300</vAcc></extensions></trkpt>
      <trkpt lon="-2.245724" lat="53.111713"><ele>126.857315</ele><time>2022-03-04T11:04:31Z</time><extensions><speed>1.178355</speed><course>35.363373</course><hAcc>1.386248</hAcc><vAcc>0.828421</vAcc></extensions></trkpt>
      <trkpt lon="-2.245715" lat="53.111721"><ele>126.825348</ele><time>2022-03-04T11:04:32Z</time><extensions><speed>1.140617</speed><course>36.142735</course><hAcc>1.368517</hAcc><vAcc>0.828536</vAcc></extensions></trkpt>
      <trkpt lon="-2.245704" lat="53.111729"><ele>126.789330</ele><time>2022-03-04T11:04:33Z</time><extensions><speed>1.304154</speed><course>37.295883</course><hAcc>1.388655</hAcc><vAcc>0.828645</vAcc></extensions></trkpt>
      <trkpt lon="-2.245693" lat="53.111739"><ele>126.778923</ele><time>2022-03-04T11:04:34Z</time><extensions><speed>1.412303</speed><course>35.609486</course><hAcc>1.389085</hAcc><vAcc>0.828773</vAcc></extensions></trkpt>
      <trkpt lon="-2.245681" lat="53.111749"><ele>126.766121</ele><time>2022-03-04T11:04:35Z</time><extensions><speed>1.432846</speed><course>36.673985</course><hAcc>1.376328</hAcc><vAcc>0.828890</vAcc></extensions></trkpt>
      <trkpt lon="-2.245668" lat="53.111759"><ele>126.745682</ele><time>2022-03-04T11:04:36Z</time><extensions><speed>1.447251</speed><course>39.096249</course><hAcc>1.365334</hAcc><vAcc>0.828987</vAcc></extensions></trkpt>
      <trkpt lon="-2.245655" lat="53.111769"><ele>126.732986</ele><time>2022-03-04T11:04:37Z</time><extensions><speed>1.506138</speed><course>38.110142</course><hAcc>1.367818</hAcc><vAcc>0.829080</vAcc></extensions></trkpt>
      <trkpt lon="-2.245642" lat="53.111780"><ele>126.721626</ele><time>2022-03-04T11:04:38Z</time><extensions><speed>1.453783</speed><course>34.947235</course><hAcc>1.361766</hAcc><vAcc>0.829160</vAcc></extensions></trkpt>
      <trkpt lon="-2.245630" lat="53.111791"><ele>126.708275</ele><time>2022-03-04T11:04:39Z</time><extensions><speed>1.438634</speed><course>29.348059</course><hAcc>1.366346</hAcc><vAcc>0.829214</vAcc></extensions></trkpt>
      <trkpt lon="-2.245621" lat="53.111802"><ele>126.714600</ele><time>2022-03-04T11:04:40Z</time><extensions><speed>1.285373</speed><course>23.685255</course><hAcc>1.352023</hAcc><vAcc>0.829235</vAcc></extensions></trkpt>
      <trkpt lon="-2.245613" lat="53.111812"><ele>126.709740</ele><time>2022-03-04T11:04:41Z</time><extensions><speed>1.262655</speed><course>28.766270</course><hAcc>1.371302</hAcc><vAcc>0.829214</vAcc></extensions></trkpt>
      <trkpt lon="-2.245602" lat="53.111822"><ele>126.715202</ele><time>2022-03-04T11:04:42Z</time><extensions><speed>1.412552</speed><course>33.635983</course><hAcc>1.415255</hAcc><vAcc>0.829163</vAcc></extensions></trkpt>
      <trkpt lon="-2.245590" lat="53.111832"><ele>126.725838</ele><time>2022-03-04T11:04:43Z</time><extensions><speed>1.416327</speed><course>34.862408</course><hAcc>1.435927</hAcc><vAcc>0.829096</vAcc></extensions></trkpt>
      <trkpt lon="-2.245578" lat="53.111843"><ele>126.740501</ele><time>2022-03-04T11:04:44Z</time><extensions><speed>1.382692</speed><course>35.803802</course><hAcc>1.455349</hAcc><vAcc>0.828995</vAcc></extensions></trkpt>
      <trkpt lon="-2.245567" lat="53.111852"><ele>126.753418</ele><time>2022-03-04T11:04:45Z</time><extensions><speed>1.170648</speed><course>36.328487</course><hAcc>1.459319</hAcc><vAcc>0.828882</vAcc></extensions></trkpt>
      <trkpt lon="-2.245557" lat="53.111860"><ele>126.772316</ele><time>2022-03-04T11:04:46Z</time><extensions><speed>0.979747</speed><course>37.010517</course><hAcc>1.479834</hAcc><vAcc>0.828748</vAcc></extensions></trkpt>
      <trkpt lon="-2.245549" lat="53.111867"><ele>126.787239</ele><time>2022-03-04T11:04:47Z</time><extensions><speed>0.949247</speed><course>38.161564</course><hAcc>1.528695</hAcc><vAcc>0.828619</vAcc></extensions></trkpt>
      <trkpt lon="-2.245539" lat="53.111874"><ele>126.796967</ele><time>2022-03-04T11:04:48Z</time><extensions><speed>1.081942</speed><course>41.745071</course><hAcc>1.570096</hAcc><vAcc>0.828479</vAcc></extensions></trkpt>
      <trkpt lon="-2.245527" lat="53.111881"><ele>126.805443</ele><time>2022-03-04T11:04:49Z</time><extensions><speed>1.215709</speed><course>45.035564</course><hAcc>1.585944</hAcc><vAcc>0.828330</vAcc></extensions></trkpt>
      <trkpt lon="-2.245514" lat="53.111889"><ele>126.815285</ele><time>2022-03-04T11:04:50Z</time><extensions><speed>1.317161</speed><course>43.583843</course><hAcc>1.606842</hAcc><vAcc>0.828213</vAcc></extensions></trkpt>
      <trkpt lon="-2.245500" lat="53.111898"><ele>126.826241</ele><time>2022-03-04T11:04:51Z</time><extensions><speed>1.376160</speed><course>42.483372</course><hAcc>1.606816</hAcc><vAcc>0.828095</vAcc></extensions></trkpt>
      <trkpt lon="-2.245486" lat="53.111907"><ele>126.832390</ele><time>2022-03-04T11:04:52Z</time><extensions><speed>1.386732</speed><course>41.492695</course><hAcc>1.616894</hAcc><vAcc>0.827979</vAcc></extensions></trkpt>
      <trkpt lon="-2.245472" lat="53.111917"><ele>126.849106</ele><time>2022-03-04T11:04:53Z</time><extensions><speed>1.374273</speed><course>39.669868</course><hAcc>1.625730</hAcc><vAcc>0.827880</vAcc></extensions></trkpt>
      <trkpt lon="-2.245459" lat="53.111926"><ele>126.872322</ele><time>2022-03-04T11:04:54Z</time><extensions><speed>1.362036</speed><course>42.138927</course><hAcc>1.601774</hAcc><vAcc>0.827812</vAcc></extensions></trkpt>
      <trkpt lon="-2.245445" lat="53.111935"><ele>126.886909</ele><time>2022-03-04T11:04:55Z</time><extensions><speed>1.319970</speed><course>42.240887</course><hAcc>1.581996</hAcc><vAcc>0.827760</vAcc></extensions></trkpt>
      <trkpt lon="-2.245432" lat="53.111943"><ele>126.901894</ele><time>2022-03-04T11:04:56Z</time><extensions><speed>1.301364</speed><course>41.373871</course><hAcc>1.578972</hAcc><vAcc>0.827714</vAcc></extensions></trkpt>
      <trkpt lon="-2.245420" lat="53.111952"><ele>126.905205</ele><time>2022-03-04T11:04:57Z</time><extensions><speed>1.302118</speed><course>38.412888</course><hAcc>1.598243</hAcc><vAcc>0.827682</vAcc></extensions></trkpt>
      <trkpt lon="-2.245407" lat="53.111962"><ele>126.905746</ele><time>2022-03-04T11:04:58Z</time><extensions><speed>1.341071</speed><course>39.313843</course><hAcc>1.537571</hAcc><vAcc>0.827651</vAcc></extensions></trkpt>
      <trkpt lon="-2.245394" lat="53.111971"><ele>126.897469</ele><time>2022-03-04T11:04:59Z</time><extensions><speed>1.394882</speed><course>40.713608</course><hAcc>1.507561</hAcc><vAcc>0.827623</vAcc></extensions></trkpt>
      <trkpt lon="-2.245381" lat="53.111981"><ele>126.884247</ele><time>2022-03-04T11:05:00Z</time><extensions><speed>1.366467</speed><course>38.874245</course><hAcc>1.525858</hAcc><vAcc>0.827590</vAcc></extensions></trkpt>
      <trkpt lon="-2.245367" lat="53.111990"><ele>126.875587</ele><time>2022-03-04T11:05:01Z</time><extensions><speed>1.478722</speed><course>43.613487</course><hAcc>1.497010</hAcc><vAcc>0.827558</vAcc></extensions></trkpt>
      <trkpt lon="-2.245351" lat="53.112000"><ele>126.881416</ele><time>2022-03-04T11:05:02Z</time><extensions><speed>1.535285</speed><course>43.107204</course><hAcc>1.500654</hAcc><vAcc>0.827535</vAcc></extensions></trkpt>
      <trkpt lon="-2.245336" lat="53.112010"><ele>126.856842</ele><time>2022-03-04T11:05:03Z</time><extensions><speed>1.534948</speed><course>41.258408</course><hAcc>1.516810</hAcc><vAcc>0.827499</vAcc></extensions></trkpt>
      <trkpt lon="-2.245321" lat="53.112021"><ele>126.846237</ele><time>2022-03-04T11:05:04Z</time><extensions><speed>1.495963</speed><course>40.415352</course><hAcc>1.515388</hAcc><vAcc>0.827474</vAcc></extensions></trkpt>
      <trkpt lon="-2.245307" lat="53.112031"><ele>126.824921</ele><time>2022-03-04T11:05:05Z</time><extensions><speed>1.454648</speed><course>38.766739</course><hAcc>1.524839</hAcc><vAcc>0.827444</vAcc></extensions></trkpt>
      <trkpt lon="-2.245294" lat="53.112040"><ele>126.814758</ele><time>2022-03-04T11:05:06Z</time><extensions><speed>1.300300</speed><course>39.956615</course><hAcc>1.515239</hAcc><vAcc>0.827421</vAcc></extensions></trkpt>
      <trkpt lon="-2.245282" lat="53.112049"><ele>126.792160</ele><time>2022-03-04T11:05:07Z</time><extensions><speed>1.258729</speed><course>40.391464</course><hAcc>1.535430</hAcc><vAcc>0.827400</vAcc></extensions></trkpt>
      <trkpt lon="-2.245269" lat="53.112058"><ele>126.770271</ele><time>2022-03-04T11:05:08Z</time><extensions><speed>1.341536</speed><course>39.568027</course><hAcc>1.551703</hAcc><vAcc>0.827376</vAcc></extensions></trkpt>
      <trkpt lon="-2.245256" lat="53.112068"><ele>126.756401</ele><time>2022-03-04T11:05:09Z</time><extensions><speed>1.388683</speed><course>38.871746</course><hAcc>1.567257</hAcc><vAcc>0.827346</vAcc></extensions></trkpt>
      <trkpt lon="-2.245243" lat="53.112078"><ele>126.741791</ele><time>2022-03-04T11:05:10Z</time><extensions><speed>1.403329</speed><course>39.261921</course><hAcc>1.575681</hAcc><vAcc>0.827334</vAcc></extensions></trkpt>
      <trkpt lon="-2.245229" lat="53.112087"><ele>126.730347</ele><time>2022-03-04T11:05:11Z</time><extensions><speed>1.439257</speed><course>43.577282</course><hAcc>1.580684</hAcc><vAcc>0.827318</vAcc></extensions></trkpt>
      <trkpt lon="-2.245213" lat="53.112096"><ele>126.716896</ele><time>2022-03-04T11:05:12Z</time><extensions><speed>1.477394</speed><course>46.383259</course><hAcc>1.570431</hAcc><vAcc>0.827319</vAcc></extensions></trkpt>
      <trkpt lon="-2.245198" lat="53.112106"><ele>126.714455</ele><time>2022-03-04T11:05:13Z</time><extensions><speed>1.427545</speed><course>44.826633</course><hAcc>1.541083</hAcc><vAcc>0.827340</vAcc></extensions></trkpt>
      <trkpt lon="-2.245183" lat="53.112115"><ele>126.711060</ele><time>2022-03-04T11:05:14Z</time><extensions><speed>1.400241</speed><course>44.345833</course><hAcc>1.544327</hAcc><vAcc>0.827382</vAcc></extensions></trkpt>
      <trkpt lon="-2.245169" lat="53.112123"><ele>126.710732</ele><time>2022-03-04T11:05:15Z</time><extensions><speed>1.296965</speed><course>41.717541</course><hAcc>1.553261</hAcc><vAcc>0.827430</vAcc></extensions></trkpt>
      <trkpt lon="-2.245155" lat="53.112132"><ele>126.702606</ele><time>2022-03-04T11:05:16Z</time><extensions><speed>1.350935</speed><course>44.985542</course><hAcc>1.521107</hAcc><vAcc>0.827488</vAcc></extensions></trkpt>
      <trkpt lon="-2.245141" lat="53.112141"><ele>126.691605</ele><time>2022-03-04T11:05:17Z</time><extensions><speed>1.357163</speed><course>43.694389</course><hAcc>1.534189</hAcc><vAcc>0.827554</vAcc></extensions></trkpt>
      <trkpt lon="-2.245128" lat="53.112149"><ele>126.697456</ele><time>2022-03-04T11:05:18Z</time><extensions><speed>1.360678</speed><course>40.063164</course><hAcc>1.557778</hAcc><vAcc>0.827619</vAcc></extensions></trkpt>
      <trkpt lon="-2.245114" lat="53.112159"><ele>126.728111</ele><time>2022-03-04T11:05:19Z</time><extensions><speed>1.444264</speed><course>42.331070</course><hAcc>1.516401</hAcc><vAcc>0.827702</vAcc></extensions></trkpt>
      <trkpt lon="-2.245099" lat="53.112168"><ele>126.745964</ele><time>2022-03-04T11:05:20Z</time><extensions><speed>1.462364</speed><course>43.874588</course><hAcc>1.509969</hAcc><vAcc>0.827811</vAcc></extensions></trkpt>
      <trkpt lon="-2.245084" lat="53.112178"><ele>126.769211</ele><time>2022-03-04T11:05:21Z</time><extensions><speed>1.481136</speed><course>42.468945</course><hAcc>1.480490</hAcc><vAcc>0.827928</vAcc></extensions></trkpt>
      <trkpt lon="-2.245069" lat="53.112187"><ele>126.792679</ele><time>2022-03-04T11:05:22Z</time><extensions><speed>1.485195</speed><course>41.170933</course><hAcc>1.474426</hAcc><vAcc>0.828052</vAcc></extensions></trkpt>
      <trkpt lon="-2.245055" lat="53.112198"><ele>126.813683</ele><time>2022-03-04T11:05:23Z</time><extensions><speed>1.515316</speed><course>33.356739</course><hAcc>1.501247</hAcc><vAcc>0.828165</vAcc></extensions></trkpt>
      <trkpt lon="-2.245042" lat="53.112209"><ele>126.853477</ele><time>2022-03-04T11:05:24Z</time><extensions><speed>1.531996</speed><course>35.708580</course><hAcc>1.499132</hAcc><vAcc>0.828292</vAcc></extensions></trkpt>
      <trkpt lon="-2.245028" lat="53.112220"><ele>126.903748</ele><time>2022-03-04T11:05:25Z</time><extensions><speed>1.477013</speed><course>43.006172</course><hAcc>1.473382</hAcc><vAcc>0.828403</vAcc></extensions></trkpt>
      <trkpt lon="-2.245012" lat="53.112229"><ele>126.942558</ele><time>2022-03-04T11:05:26Z</time><extensions><speed>1.440891</speed><course>45.976093</course><hAcc>1.495519</hAcc><vAcc>0.828503</vAcc></extensions></trkpt>
      <trkpt lon="-2.244997" lat="53.112238"><ele>126.984329</ele><time>2022-03-04T11:05:27Z</time><extensions><speed>1.464636</speed><course>46.614452</course><hAcc>1.505090</hAcc><vAcc>0.828585</vAcc></extensions></trkpt>
      <trkpt lon="-2.244980" lat="53.112247"><ele>127.031273</ele><time>2022-03-04T11:05:28Z</time><extensions><speed>1.439140</speed><course>51.779720</course><hAcc>1.493154</hAcc><vAcc>0.828647</vAcc></extensions></trkpt>
      <trkpt lon="-2.244963" lat="53.112254"><ele>127.081352</ele><time>2022-03-04T11:05:29Z</time><extensions><speed>1.364126</speed><course>54.812660</course><hAcc>1.494133</hAcc><vAcc>0.828704</vAcc></extensions></trkpt>
      <trkpt lon="-2.244947" lat="53.112261"><ele>127.122925</ele><time>2022-03-04T11:05:30Z</time><extensions><speed>1.329524</speed><course>54.141541</course><hAcc>1.516852</hAcc><vAcc>0.828745</vAcc></extensions></trkpt>
      <trkpt lon="-2.244930" lat="53.112268"><ele>127.157730</ele><time>2022-03-04T11:05:32Z</time><extensions><speed>1.378709</speed><course>53.439686</course><hAcc>1.530267</hAcc><vAcc>0.828759</vAcc></extensions></trkpt>
      <trkpt lon="-2.244913" lat="53.112276"><ele>127.208710</ele><time>2022-03-04T11:05:33Z</time><extensions><speed>1.480206</speed><course>52.797306</course><hAcc>1.503829</hAcc><vAcc>0.828723</vAcc></extensions></trkpt>
      <trkpt lon="-2.244896" lat="53.112284"><ele>127.245171</ele><time>2022-03-04T11:05:34Z</time><extensions><speed>1.503597</speed><course>48.236252</course><hAcc>1.488766</hAcc><vAcc>0.828678</vAcc></extensions></trkpt>
      <trkpt lon="-2.244880" lat="53.112293"><ele>127.269669</ele><time>2022-03-04T11:05:35Z</time><extensions><speed>1.550822</speed><course>46.617706</course><hAcc>1.491818</hAcc><vAcc>0.828610</vAcc></extensions></trkpt>
      <trkpt lon="-2.244863" lat="53.112303"><ele>127.296486</ele><time>2022-03-04T11:05:36Z</time><extensions><speed>1.541495</speed><course>46.496788</course><hAcc>1.469423</hAcc><vAcc>0.828527</vAcc></extensions></trkpt>
      <trkpt lon="-2.244847" lat="53.112312"><ele>127.322174</ele><time>2022-03-04T11:05:37Z</time><extensions><speed>1.555647</speed><course>46.219673</course><hAcc>1.437973</hAcc><vAcc>0.828436</vAcc></extensions></trkpt>
      <trkpt lon="-2.244830" lat="53.112322"><ele>127.339821</ele><time>2022-03-04T11:05:38Z</time><extensions><speed>1.599683</speed><course>48.015751</course><hAcc>1.427236</hAcc><vAcc>0.828349</vAcc></extensions></trkpt>
      <trkpt lon="-2.244812" lat="53.112331"><ele>127.351265</ele><time>2022-03-04T11:05:39Z</time><extensions><speed>1.602490</speed><course>50.401699</course><hAcc>1.411435</hAcc><vAcc>0.828251</vAcc></extensions></trkpt>
      <trkpt lon="-2.244793" lat="53.112340"><ele>127.364227</ele><time>2022-03-04T11:05:40Z</time><extensions><speed>1.578526</speed><course>50.581303</course><hAcc>1.397417</hAcc><vAcc>0.828157</vAcc></extensions></trkpt>
      <trkpt lon="-2.244775" lat="53.112349"><ele>127.369057</ele><time>2022-03-04T11:05:41Z</time><extensions><speed>1.584925</speed><course>54.240898</course><hAcc>1.391543</hAcc><vAcc>0.828074</vAcc></extensions></trkpt>
      <trkpt lon="-2.244756" lat="53.112357"><ele>127.378227</ele><time>2022-03-04T11:05:42Z</time><extensions><speed>1.563656</speed><course>56.196915</course><hAcc>1.389188</hAcc><vAcc>0.827994</vAcc></extensions></trkpt>
      <trkpt lon="-2.244737" lat="53.112364"><ele>127.371872</ele><time>2022-03-04T11:05:43Z</time><extensions><speed>1.504343</speed><course>55.919117</course><hAcc>1.381572</hAcc><vAcc>0.827936</vAcc></extensions></trkpt>
      <trkpt lon="-2.244719" lat="53.112372"><ele>127.361404</ele><time>2022-03-04T11:05:44Z</time><extensions><speed>1.496225</speed><course>53.862709</course><hAcc>1.379583</hAcc><vAcc>0.827891</vAcc></extensions></trkpt>
      <trkpt lon="-2.244702" lat="53.112380"><ele>127.345428</ele><time>2022-03-04T11:05:45Z</time><extensions><speed>1.516430</speed><course>49.342159</course><hAcc>1.381644</hAcc><vAcc>0.827862</vAcc></extensions></trkpt>
      <trkpt lon="-2.244686" lat="53.112389"><ele>127.314857</ele><time>2022-03-04T11:05:46Z</time><extensions><speed>1.551030</speed><course>45.775055</course><hAcc>1.387186</hAcc><vAcc>0.827867</vAcc></extensions></trkpt>
      <trkpt lon="-2.244670" lat="53.112399"><ele>127.289742</ele><time>2022-03-04T11:05:47Z</time><extensions><speed>1.511381</speed><course>46.501408</course><hAcc>1.378306</hAcc><vAcc>0.827891</vAcc></extensions></trkpt>
      <trkpt lon="-2.244654" lat="53.112408"><ele>127.263184</ele><time>2022-03-04T11:05:48Z</time><extensions><speed>1.474880</speed><course>49.074364</course><hAcc>1.375181</hAcc><vAcc>0.827937</vAcc></extensions></trkpt>
      <trkpt lon="-2.244637" lat="53.112416"><ele>127.246300</ele><time>2022-03-04T11:05:49Z</time><extensions><speed>1.517147</speed><course>52.583561</course><hAcc>1.381904</hAcc><vAcc>0.828007</vAcc></extensions></trkpt>
      <trkpt lon="-2.244619" lat="53.112424"><ele>127.222969</ele><time>2022-03-04T11:05:50Z</time><extensions><speed>1.498984</speed><course>52.873779</course><hAcc>1.378191</hAcc><vAcc>0.828092</vAcc></extensions></trkpt>
      <trkpt lon="-2.244602" lat="53.112432"><ele>127.189255</ele><time>2022-03-04T11:05:51Z</time><extensions><speed>1.463970</speed><course>49.492146</course><hAcc>1.371702</hAcc><vAcc>0.828182</vAcc></extensions></trkpt>
      <trkpt lon="-2.244586" lat="53.112441"><ele>127.169106</ele><time>2022-03-04T11:05:52Z</time><extensions><speed>1.514047</speed><course>46.456093</course><hAcc>1.382882</hAcc><vAcc>0.828291</vAcc></extensions></trkpt>
      <trkpt lon="-2.244571" lat="53.112450"><ele>127.166046</ele><time>2022-03-04T11:05:53Z</time><extensions><speed>1.450172</speed><course>44.253857</course><hAcc>1.376292</hAcc><vAcc>0.828402</vAcc></extensions></trkpt>
      <trkpt lon="-2.244556" lat="53.112459"><ele>127.167900</ele><time>2022-03-04T11:05:54Z</time><extensions><speed>1.406987</speed><course>43.864269</course><hAcc>1.370909</hAcc><vAcc>0.828508</vAcc></extensions></trkpt>
      <trkpt lon="-2.244542" lat="53.112469"><ele>127.134102</ele><time>2022-03-04T11:05:55Z</time><extensions><speed>1.420128</speed><course>41.568279</course><hAcc>1.369958</hAcc><vAcc>0.828595</vAcc></extensions></trkpt>
      <trkpt lon="-2.244528" lat="53.112478"><ele>127.091103</ele><time>2022-03-04T11:05:56Z</time><extensions><speed>1.443184</speed><course>41.333652</course><hAcc>1.375271</hAcc><vAcc>0.828657</vAcc></extensions></trkpt>
      <trkpt lon="-2.244514" lat="53.112487"><ele>127.048920</ele><time>2022-03-04T11:05:57Z</time><extensions><speed>1.416191</speed><course>40.799660</course><hAcc>1.370158</hAcc><vAcc>0.828693</vAcc></extensions></trkpt>
      <trkpt lon="-2.244500" lat="53.112497"><ele>127.011765</ele><time>2022-03-04T11:05:58Z</time><extensions><speed>1.489747</speed><course>43.147942</course><hAcc>1.380403</hAcc><vAcc>0.828718</vAcc></extensions></trkpt>
      <trkpt lon="-2.244484" lat="53.112506"><ele>126.981155</ele><time>2022-03-04T11:05:59Z</time><extensions><speed>1.484583</speed><course>49.428841</course><hAcc>1.379308</hAcc><vAcc>0.828716</vAcc></extensions></trkpt>
      <trkpt lon="-2.244467" lat="53.112513"><ele>126.945839</ele><time>2022-03-04T11:06:00Z</time><extensions><speed>1.403663</speed><course>55.425091</course><hAcc>1.361334</hAcc><vAcc>0.828682</vAcc></extensions></trkpt>
      <trkpt lon="-2.244450" lat="53.112521"><ele>126.902954</ele><time>2022-03-04T11:06:01Z</time><extensions><speed>1.379715</speed><course>50.575211</course><hAcc>1.358237</hAcc><vAcc>0.828620</vAcc></extensions></trkpt>
      <trkpt lon="-2.244435" lat="53.112529"><ele>126.852852</ele><time>2022-03-04T11:06:02Z</time><extensions><speed>1.438296</speed><course>42.909222</course><hAcc>1.367685</hAcc><vAcc>0.828532</vAcc></extensions></trkpt>
      <trkpt lon="-2.244421" lat="53.112539"><ele>126.800110</ele><time>2022-03-04T11:06:03Z</time><extensions><speed>1.492071</speed><course>39.910759</course><hAcc>1.375257</hAcc><vAcc>0.828462</vAcc></extensions></trkpt>
      <trkpt lon="-2.244406" lat="53.112548"><ele>126.745842</ele><time>2022-03-04T11:06:04Z</time><extensions><speed>1.514707</speed><course>47.068214</course><hAcc>1.378398</hAcc><vAcc>0.828377</vAcc></extensions></trkpt>
      <trkpt lon="-2.244390" lat="53.112557"><ele>126.725113</ele><time>2022-03-04T11:06:05Z</time><extensions><speed>1.371653</speed><course>44.943478</course><hAcc>1.379968</hAcc><vAcc>0.828291</vAcc></extensions></trkpt>
      <trkpt lon="-2.244376" lat="53.112565"><ele>126.694000</ele><time>2022-03-04T11:06:06Z</time><extensions><speed>1.286060</speed><course>45.323429</course><hAcc>1.369606</hAcc><vAcc>0.828210</vAcc></extensions></trkpt>
      <trkpt lon="-2.244362" lat="53.112573"><ele>126.683479</ele><time>2022-03-04T11:06:07Z</time><extensions><speed>1.286956</speed><course>51.470673</course><hAcc>1.353680</hAcc><vAcc>0.828148</vAcc></extensions></trkpt>
      <trkpt lon="-2.244346" lat="53.112580"><ele>126.665253</ele><time>2022-03-04T11:06:08Z</time><extensions><speed>1.428834</speed><course>54.976418</course><hAcc>1.375219</hAcc><vAcc>0.828100</vAcc></extensions></trkpt>
      <trkpt lon="-2.244328" lat="53.112587"><ele>126.647949</ele><time>2022-03-04T11:06:09Z</time><extensions><speed>1.515821</speed><course>56.014690</course><hAcc>1.384754</hAcc><vAcc>0.828062</vAcc></extensions></trkpt>
      <trkpt lon="-2.244309" lat="53.112594"><ele>126.632584</ele><time>2022-03-04T11:06:10Z</time><extensions><speed>1.452582</speed><course>58.547699</course><hAcc>1.369973</hAcc><vAcc>0.828036</vAcc></extensions></trkpt>
      <trkpt lon="-2.244292" lat="53.112601"><ele>126.635658</ele><time>2022-03-04T11:06:11Z</time><extensions><speed>1.461006</speed><course>52.196606</course><hAcc>1.369123</hAcc><vAcc>0.828000</vAcc></extensions></trkpt>
      <trkpt lon="-2.244274" lat="53.112609"><ele>126.637260</ele><time>2022-03-04T11:06:12Z</time><extensions><speed>1.495629</speed><course>51.160313</course><hAcc>1.369482</hAcc><vAcc>0.827989</vAcc></extensions></trkpt>
      <trkpt lon="-2.244257" lat="53.112617"><ele>126.637970</ele><time>2022-03-04T11:06:13Z</time><extensions><speed>1.499871</speed><course>51.489475</course><hAcc>1.367545</hAcc><vAcc>0.827980</vAcc></extensions></trkpt>
      <trkpt lon="-2.244240" lat="53.112625"><ele>126.662453</ele><time>2022-03-04T11:06:14Z</time><extensions><speed>1.483296</speed><course>51.678490</course><hAcc>1.359520</hAcc><vAcc>0.827969</vAcc></extensions></trkpt>
      <trkpt lon="-2.244222" lat="53.112633"><ele>126.653976</ele><time>2022-03-04T11:06:15Z</time><extensions><speed>1.484893</speed><course>54.453396</course><hAcc>1.367667</hAcc><vAcc>0.827954</vAcc></extensions></trkpt>
      <trkpt lon="-2.244204" lat="53.112641"><ele>126.663025</ele><time>2022-03-04T11:06:16Z</time><extensions><speed>1.515902</speed><course>53.865997</course><hAcc>1.366393</hAcc><vAcc>0.827930</vAcc></extensions></trkpt>
      <trkpt lon="-2.244187" lat="53.112648"><ele>126.663406</ele><time>2022-03-04T11:06:17Z</time><extensions><speed>1.454292</speed><course>56.075638</course><hAcc>1.355469</hAcc><vAcc>0.827906</vAcc></extensions></trkpt>
      <trkpt lon="-2.244169" lat="53.112655"><ele>126.661102</ele><time>2022-03-04T11:06:18Z</time><extensions><speed>1.478987</speed><course>56.029995</course><hAcc>1.352766</hAcc><vAcc>0.827881</vAcc></extensions></trkpt>
      <trkpt lon="-2.244151" lat="53.112663"><ele>126.655563</ele><time>2022-03-04T11:06:19Z</time><extensions><speed>1.479254</speed><course>53.084270</course><hAcc>1.357054</hAcc><vAcc>0.827868</vAcc></extensions></trkpt>
      <trkpt lon="-2.244133" lat="53.112671"><ele>126.663467</ele><time>2022-03-04T11:06:20Z</time><extensions><speed>1.549251</speed><course>54.376957</course><hAcc>1.370970</hAcc><vAcc>0.827855</vAcc></extensions></trkpt>
      <trkpt lon="-2.244114" lat="53.112678"><ele>126.667236</ele><time>2022-03-04T11:06:21Z</time><extensions><speed>1.540990</speed><course>55.178520</course><hAcc>1.368856</hAcc><vAcc>0.827856</vAcc></extensions></trkpt>
      <trkpt lon="-2.244096" lat="53.112686"><ele>126.676346</ele><time>2022-03-04T11:06:22Z</time><extensions><speed>1.484160</speed><course>58.434006</course><hAcc>1.357072</hAcc><vAcc>0.827857</vAcc></extensions></trkpt>
      <trkpt lon="-2.244077" lat="53.112692"><ele>126.682861</ele><time>2022-03-04T11:06:23Z</time><extensions><speed>1.489905</speed><course>59.031826</course><hAcc>1.361239</hAcc><vAcc>0.827860</vAcc></extensions></trkpt>
      <trkpt lon="-2.244059" lat="53.112699"><ele>126.694244</ele><time>2022-03-04T11:06:24Z</time><extensions><speed>1.468302</speed><course>56.273216</course><hAcc>1.364614</hAcc><vAcc>0.827866</vAcc></extensions></trkpt>
      <trkpt lon="-2.244041" lat="53.112707"><ele>126.711800</ele><time>2022-03-04T11:06:25Z</time><extensions><speed>1.425687</speed><course>53.762295</course><hAcc>1.366020</hAcc><vAcc>0.827872</vAcc></extensions></trkpt>
      <trkpt lon="-2.244025" lat="53.112714"><ele>126.739685</ele><time>2022-03-04T11:06:26Z</time><extensions><speed>1.431100</speed><course>50.020805</course><hAcc>1.362806</hAcc><vAcc>0.827873</vAcc></extensions></trkpt>
      <trkpt lon="-2.244009" lat="53.112722"><ele>126.760536</ele><time>2022-03-04T11:06:27Z</time><extensions><speed>1.416527</speed><course>50.377571</course><hAcc>1.364303</hAcc><vAcc>0.827855</vAcc></extensions></trkpt>
      <trkpt lon="-2.243992" lat="53.112730"><ele>126.788513</ele><time>2022-03-04T11:06:28Z</time><extensions><speed>1.492304</speed><course>52.333313</course><hAcc>1.381920</hAcc><vAcc>0.827840</vAcc></extensions></trkpt>
      <trkpt lon="-2.243975" lat="53.112738"><ele>126.807037</ele><time>2022-03-04T11:06:29Z</time><extensions><speed>1.462875</speed><course>55.678291</course><hAcc>1.379149</hAcc><vAcc>0.827818</vAcc></extensions></trkpt>
      <trkpt lon="-2.243957" lat="53.112745"><ele>126.835930</ele><time>2022-03-04T11:06:30Z</time><extensions><speed>1.466842</speed><course>57.313477</course><hAcc>1.380396</hAcc><vAcc>0.827793</vAcc></extensions></trkpt>
      <trkpt lon="-2.243939" lat="53.112752"><ele>126.867088</ele><time>2022-03-04T11:06:30Z</time><extensions><speed>1.420570</speed><course>59.261635</course><hAcc>1.382859</hAcc><vAcc>0.827770</vAcc></extensions></trkpt>
      <trkpt lon="-2.243921" lat="53.112758"><ele>126.904427</ele><time>2022-03-04T11:06:31Z</time><extensions><speed>1.461190</speed><course>59.960602</course><hAcc>1.394144</hAcc><vAcc>0.827730</vAcc></extensions></trkpt>
      <trkpt lon="-2.243903" lat="53.112764"><ele>126.939117</ele><time>2022-03-04T11:06:32Z</time><extensions><speed>1.358342</speed><course>62.579712</course><hAcc>1.378992</hAcc><vAcc>0.827685</vAcc></extensions></trkpt>
      <trkpt lon="-2.243885" lat="53.112770"><ele>126.968773</ele><time>2022-03-04T11:06:33Z</time><extensions><speed>1.442010</speed><course>60.070473</course><hAcc>1.403697</hAcc><vAcc>0.827648</vAcc></extensions></trkpt>
      <trkpt lon="-2.243867" lat="53.112776"><ele>126.987930</ele><time>2022-03-04T11:06:34Z</time><extensions><speed>1.391465</speed><course>60.119076</course><hAcc>1.401705</hAcc><vAcc>0.827610</vAcc></extensions></trkpt>
      <trkpt lon="-2.243849" lat="53.112783"><ele>127.007278</ele><time>2022-03-04T11:06:35Z</time><extensions><speed>1.389938</speed><course>57.115688</course><hAcc>1.403245</hAcc><vAcc>0.827570</vAcc></extensions></trkpt>
      <trkpt lon="-2.243833" lat="53.112790"><ele>127.042168</ele><time>2022-03-04T11:06:36Z</time><extensions><speed>1.421010</speed><course>52.230137</course><hAcc>1.412939</hAcc><vAcc>0.827556</vAcc></extensions></trkpt>
      <trkpt lon="-2.243816" lat="53.112798"><ele>127.071815</ele><time>2022-03-04T11:06:37Z</time><extensions><speed>1.464408</speed><course>53.787964</course><hAcc>1.422679</hAcc><vAcc>0.827544</vAcc></extensions></trkpt>
      <trkpt lon="-2.243799" lat="53.112805"><ele>127.090118</ele><time>2022-03-04T11:06:38Z</time><extensions><speed>1.336535</speed><course>52.676205</course><hAcc>1.406706</hAcc><vAcc>0.827543</vAcc></extensions></trkpt>
      <trkpt lon="-2.243784" lat="53.112812"><ele>127.110909</ele><time>2022-03-04T11:06:39Z</time><extensions><speed>1.338439</speed><course>52.944508</course><hAcc>1.407377</hAcc><vAcc>0.827554</vAcc></extensions></trkpt>
      <trkpt lon="-2.243768" lat="53.112819"><ele>127.120880</ele><time>2022-03-04T11:06:40Z</time><extensions><speed>1.337078</speed><course>57.882866</course><hAcc>1.394993</hAcc><vAcc>0.827569</vAcc></extensions></trkpt>
      <trkpt lon="-2.243751" lat="53.112825"><ele>127.135399</ele><time>2022-03-04T11:06:41Z</time><extensions><speed>1.375423</speed><course>62.090698</course><hAcc>1.396416</hAcc><vAcc>0.827584</vAcc></extensions></trkpt>
      <trkpt lon="-2.243733" lat="53.112831"><ele>127.147522</ele><time>2022-03-04T11:06:42Z</time><extensions><speed>1.442686</speed><course>60.086918</course><hAcc>1.399161</hAcc><vAcc>0.827615</vAcc></extensions></trkpt>
      <trkpt lon="-2.243715" lat="53.112838"><ele>127.144341</ele><time>2022-03-04T11:06:43Z</time><extensions><speed>1.441141</speed><course>53.055855</course><hAcc>1.392003</hAcc><vAcc>0.827646</vAcc></extensions></trkpt>
      <trkpt lon="-2.243698" lat="53.112845"><ele>127.130478</ele><time>2022-03-04T11:06:44Z</time><extensions><speed>1.470735</speed><course>61.000259</course><hAcc>1.379395</hAcc><vAcc>0.827682</vAcc></extensions></trkpt>
      <trkpt lon="-2.243679" lat="53.112851"><ele>127.115623</ele><time>2022-03-04T11:06:45Z</time><extensions><speed>1.463785</speed><course>59.911392</course><hAcc>1.367997</hAcc><vAcc>0.827725</vAcc></extensions></trkpt>
      <trkpt lon="-2.243661" lat="53.112858"><ele>127.110062</ele><time>2022-03-04T11:06:46Z</time><extensions><speed>1.484139</speed><course>51.249580</course><hAcc>1.366881</hAcc><vAcc>0.827777</vAcc></extensions></trkpt>
      <trkpt lon="-2.243645" lat="53.112866"><ele>127.111809</ele><time>2022-03-04T11:06:47Z</time><extensions><speed>1.470524</speed><course>51.165020</course><hAcc>1.359973</hAcc><vAcc>0.827823</vAcc></extensions></trkpt>
      <trkpt lon="-2.243627" lat="53.112874"><ele>127.104012</ele><time>2022-03-04T11:06:48Z</time><extensions><speed>1.492062</speed><course>57.023548</course><hAcc>1.360848</hAcc><vAcc>0.827861</vAcc></extensions></trkpt>
      <trkpt lon="-2.243608" lat="53.112881"><ele>127.104729</ele><time>2022-03-04T11:06:49Z</time><extensions><speed>1.477597</speed><course>59.219894</course><hAcc>1.361619</hAcc><vAcc>0.827878</vAcc></extensions></trkpt>
      <trkpt lon="-2.243589" lat="53.112887"><ele>127.097801</ele><time>2022-03-04T11:06:50Z</time><extensions><speed>1.489123</speed><course>62.256310</course><hAcc>1.362394</hAcc><vAcc>0.827870</vAcc></extensions></trkpt>
      <trkpt lon="-2.243570" lat="53.112893"><ele>127.096970</ele><time>2022-03-04T11:06:51Z</time><extensions><speed>1.457525</speed><course>62.774178</course><hAcc>1.358364</hAcc><vAcc>0.827871</vAcc></extensions></trkpt>
      <trkpt lon="-2.243552" lat="53.112899"><ele>127.108238</ele><time>2022-03-04T11:06:52Z</time><extensions><speed>1.383608</speed><course>56.555119</course><hAcc>1.353883</hAcc><vAcc>0.827857</vAcc></extensions></trkpt>
      <trkpt lon="-2.243535" lat="53.112906"><ele>127.114685</ele><time>2022-03-04T11:06:53Z</time><extensions><speed>1.437985</speed><course>50.640736</course><hAcc>1.368839</hAcc><vAcc>0.827820</vAcc></extensions></trkpt>
      <trkpt lon="-2.243519" lat="53.112915"><ele>127.126289</ele><time>2022-03-04T11:06:54Z</time><extensions><speed>1.461774</speed><course>48.561924</course><hAcc>1.375147</hAcc><vAcc>0.827753</vAcc></extensions></trkpt>
      <trkpt lon="-2.243504" lat="53.112923"><ele>127.143738</ele><time>2022-03-04T11:06:55Z</time><extensions><speed>1.434324</speed><course>44.310665</course><hAcc>1.373050</hAcc><vAcc>0.827673</vAcc></extensions></trkpt>
      <trkpt lon="-2.243489" lat="53.112932"><ele>127.176834</ele><time>2022-03-04T11:06:56Z</time><extensions><speed>1.392281</speed><course>44.324440</course><hAcc>1.366615</hAcc><vAcc>0.827590</vAcc></extensions></trkpt>
      <trkpt lon="-2.243474" lat="53.112940"><ele>127.192986</ele><time>2022-03-04T11:06:57Z</time><extensions><speed>1.432264</speed><course>50.087070</course><hAcc>1.375595</hAcc><vAcc>0.827496</vAcc></extensions></trkpt>
      <trkpt lon="-2.243457" lat="53.112949"><ele>127.212234</ele><time>2022-03-04T11:06:58Z</time><extensions><speed>1.535389</speed><course>51.136955</course><hAcc>1.390474</hAcc><vAcc>0.827388</vAcc></extensions></trkpt>
      <trkpt lon="-2.243440" lat="53.112957"><ele>127.230049</ele><time>2022-03-04T11:06:59Z</time><extensions><speed>1.451913</speed><course>54.896332</course><hAcc>1.380071</hAcc><vAcc>0.827279</vAcc></extensions></trkpt>
      <trkpt lon="-2.243422" lat="53.112964"><ele>127.252945</ele><time>2022-03-04T11:07:00Z</time><extensions><speed>1.486251</speed><course>56.903728</course><hAcc>1.393900</hAcc><vAcc>0.827166</vAcc></extensions></trkpt>
      <trkpt lon="-2.243404" lat="53.112971"><ele>127.284401</ele><time>2022-03-04T11:07:01Z</time><extensions><speed>1.448724</speed><course>59.072193</course><hAcc>1.398806</hAcc><vAcc>0.827056</vAcc></extensions></trkpt>
      <trkpt lon="-2.243386" lat="53.112977"><ele>127.316086</ele><time>2022-03-04T11:07:02Z</time><extensions><speed>1.370541</speed><course>61.429386</course><hAcc>1.394183</hAcc><vAcc>0.826973</vAcc></extensions></trkpt>
      <trkpt lon="-2.243369" lat="53.112983"><ele>127.341103</ele><time>2022-03-04T11:07:03Z</time><extensions><speed>1.304675</speed><course>59.780010</course><hAcc>1.385507</hAcc><vAcc>0.826898</vAcc></extensions></trkpt>
      <trkpt lon="-2.243353" lat="53.112990"><ele>127.357941</ele><time>2022-03-04T11:07:04Z</time><extensions><speed>1.455211</speed><course>56.647877</course><hAcc>1.409063</hAcc><vAcc>0.826864</vAcc></extensions></trkpt>
      <trkpt lon="-2.243335" lat="53.112996"><ele>127.372093</ele><time>2022-03-04T11:07:05Z</time><extensions><speed>1.432115</speed><course>58.655342</course><hAcc>1.405684</hAcc><vAcc>0.826863</vAcc></extensions></trkpt>
      <trkpt lon="-2.243318" lat="53.113003"><ele>127.383972</ele><time>2022-03-04T11:07:06Z</time><extensions><speed>1.419634</speed><course>55.314972</course><hAcc>1.398914</hAcc><vAcc>0.826900</vAcc></extensions></trkpt>
      <trkpt lon="-2.243301" lat="53.113011"><ele>127.408051</ele><time>2022-03-04T11:07:07Z</time><extensions><speed>1.411255</speed><course>51.086266</course><hAcc>1.385015</hAcc><vAcc>0.826978</vAcc></extensions></trkpt>
      <trkpt lon="-2.243286" lat="53.113019"><ele>127.417038</ele><time>2022-03-04T11:07:08Z</time><extensions><speed>1.413735</speed><course>51.683426</course><hAcc>1.381835</hAcc><vAcc>0.827077</vAcc></extensions></trkpt>
      <trkpt lon="-2.243270" lat="53.113026"><ele>127.424522</ele><time>2022-03-04T11:07:09Z</time><extensions><speed>1.391492</speed><course>51.073261</course><hAcc>1.381221</hAcc><vAcc>0.827205</vAcc></extensions></trkpt>
      <trkpt lon="-2.243254" lat="53.113034"><ele>127.430473</ele><time>2022-03-04T11:07:10Z</time><extensions><speed>1.386505</speed><course>52.443703</course><hAcc>1.377948</hAcc><vAcc>0.827357</vAcc></extensions></trkpt>
      <trkpt lon="-2.243239" lat="53.113041"><ele>127.433174</ele><time>2022-03-04T11:07:11Z</time><extensions><speed>1.335588</speed><course>53.739201</course><hAcc>1.370190</hAcc><vAcc>0.827519</vAcc></extensions></trkpt>
      <trkpt lon="-2.243224" lat="53.113049"><ele>127.430260</ele><time>2022-03-04T11:07:12Z</time><extensions><speed>1.317484</speed><course>48.415115</course><hAcc>1.375627</hAcc><vAcc>0.827692</vAcc></extensions></trkpt>
      <trkpt lon="-2.243211" lat="53.113057"><ele>127.421562</ele><time>2022-03-04T11:07:13Z</time><extensions><speed>1.423914</speed><course>43.119038</course><hAcc>1.366725</hAcc><vAcc>0.827872</vAcc></extensions></trkpt>
      <trkpt lon="-2.243197" lat="53.113066"><ele>127.401421</ele><time>2022-03-04T11:07:14Z</time><extensions><speed>1.303193</speed><course>41.854435</course><hAcc>1.347118</hAcc><vAcc>0.828048</vAcc></extensions></trkpt>
      <trkpt lon="-2.243185" lat="53.113074"><ele>127.377716</ele><time>2022-03-04T11:07:15Z</time><extensions><speed>1.313388</speed><course>42.035381</course><hAcc>1.341614</hAcc><vAcc>0.828216</vAcc></extensions></trkpt>
      <trkpt lon="-2.243173" lat="53.113084"><ele>127.358727</ele><time>2022-03-04T11:07:16Z</time><extensions><speed>1.435448</speed><course>36.103310</course><hAcc>1.348485</hAcc><vAcc>0.828367</vAcc></extensions></trkpt>
      <trkpt lon="-2.243161" lat="53.113094"><ele>127.348083</ele><time>2022-03-04T11:07:17Z</time><extensions><speed>1.425918</speed><course>35.826466</course><hAcc>1.340825</hAcc><vAcc>0.828495</vAcc></extensions></trkpt>
      <trkpt lon="-2.243148" lat="53.113104"><ele>127.333717</ele><time>2022-03-04T11:07:18Z</time><extensions><speed>1.432517</speed><course>37.056412</course><hAcc>1.330326</hAcc><vAcc>0.828612</vAcc></extensions></trkpt>
      <trkpt lon="-2.243136" lat="53.113114"><ele>127.316101</ele><time>2022-03-04T11:07:19Z</time><extensions><speed>1.458061</speed><course>36.960308</course><hAcc>1.326669</hAcc><vAcc>0.828714</vAcc></extensions></trkpt>
      <trkpt lon="-2.243123" lat="53.113124"><ele>127.300354</ele><time>2022-03-04T11:07:20Z</time><extensions><speed>1.471491</speed><course>37.357758</course><hAcc>1.323603</hAcc><vAcc>0.828805</vAcc></extensions></trkpt>
      <trkpt lon="-2.243110" lat="53.113134"><ele>127.284500</ele><time>2022-03-04T11:07:21Z</time><extensions><speed>1.478458</speed><course>32.873627</course><hAcc>1.317522</hAcc><vAcc>0.828887</vAcc></extensions></trkpt>
      <trkpt lon="-2.243099" lat="53.113145"><ele>127.266991</ele><time>2022-03-04T11:07:22Z</time><extensions><speed>1.443510</speed><course>30.110302</course><hAcc>1.313269</hAcc><vAcc>0.828961</vAcc></extensions></trkpt>
      <trkpt lon="-2.243088" lat="53.113156"><ele>127.256531</ele><time>2022-03-04T11:07:23Z</time><extensions><speed>1.483084</speed><course>32.721409</course><hAcc>1.322333</hAcc><vAcc>0.829021</vAcc></extensions></trkpt>
      <trkpt lon="-2.243075" lat="53.113167"><ele>127.253922</ele><time>2022-03-04T11:07:24Z</time><extensions><speed>1.454627</speed><course>38.374966</course><hAcc>1.319483</hAcc><vAcc>0.829083</vAcc></extensions></trkpt>
      <trkpt lon="-2.243062" lat="53.113176"><ele>127.254128</ele><time>2022-03-04T11:07:25Z</time><extensions><speed>1.430474</speed><course>40.378597</course><hAcc>1.315794</hAcc><vAcc>0.829137</vAcc></extensions></trkpt>
      <trkpt lon="-2.243049" lat="53.113186"><ele>127.243736</ele><time>2022-03-04T11:07:26Z</time><extensions><speed>1.469583</speed><course>39.252865</course><hAcc>1.328596</hAcc><vAcc>0.829183</vAcc></extensions></trkpt>
      <trkpt lon="-2.243035" lat="53.113195"><ele>127.238335</ele><time>2022-03-04T11:07:27Z</time><extensions><speed>1.397389</speed><course>39.943390</course><hAcc>1.322196</hAcc><vAcc>0.829231</vAcc></extensions></trkpt>
      <trkpt lon="-2.243023" lat="53.113205"><ele>127.243134</ele><time>2022-03-04T11:07:28Z</time><extensions><speed>1.371746</speed><course>35.976398</course><hAcc>1.324644</hAcc><vAcc>0.829275</vAcc></extensions></trkpt>
      <trkpt lon="-2.243012" lat="53.113215"><ele>127.258720</ele><time>2022-03-04T11:07:29Z</time><extensions><speed>1.386683</speed><course>32.985420</course><hAcc>1.331842</hAcc><vAcc>0.829333</vAcc></extensions></trkpt>
      <trkpt lon="-2.243001" lat="53.113225"><ele>127.270126</ele><time>2022-03-04T11:07:30Z</time><extensions><speed>1.345794</speed><course>31.413141</course><hAcc>1.326900</hAcc><vAcc>0.829390</vAcc></extensions></trkpt>
      <trkpt lon="-2.242991" lat="53.113235"><ele>127.279037</ele><time>2022-03-04T11:07:31Z</time><extensions><speed>1.400476</speed><course>29.469790</course><hAcc>1.331954</hAcc><vAcc>0.829454</vAcc></extensions></trkpt>
      <trkpt lon="-2.242981" lat="53.113245"><ele>127.299759</ele><time>2022-03-04T11:07:32Z</time><extensions><speed>1.397699</speed><course>29.938097</course><hAcc>1.329568</hAcc><vAcc>0.829516</vAcc></extensions></trkpt>
      <trkpt lon="-2.242971" lat="53.113255"><ele>127.294426</ele><time>2022-03-04T11:07:33Z</time><extensions><speed>1.306157</speed><course>33.298111</course><hAcc>1.315820</hAcc><vAcc>0.829568</vAcc></extensions></trkpt>
      <trkpt lon="-2.242961" lat="53.113265"><ele>127.280327</ele><time>2022-03-04T11:07:34Z</time><extensions><speed>1.356447</speed><course>30.800711</course><hAcc>1.320496</hAcc><vAcc>0.829592</vAcc></extensions></trkpt>
      <trkpt lon="-2.242950" lat="53.113275"><ele>127.268059</ele><time>2022-03-04T11:07:35Z</time><extensions><speed>1.400555</speed><course>32.775002</course><hAcc>1.325027</hAcc><vAcc>0.829607</vAcc></extensions></trkpt>
      <trkpt lon="-2.242939" lat="53.113285"><ele>127.259979</ele><time>2022-03-04T11:07:36Z</time><extensions><speed>1.341005</speed><course>33.732212</course><hAcc>1.313700</hAcc><vAcc>0.829642</vAcc></extensions></trkpt>
      <trkpt lon="-2.242929" lat="53.113295"><ele>127.243401</ele><time>2022-03-04T11:07:38Z</time><extensions><speed>1.366951</speed><course>30.302706</course><hAcc>1.318553</hAcc><vAcc>0.829663</vAcc></extensions></trkpt>
      <trkpt lon="-2.242919" lat="53.113305"><ele>127.209702</ele><time>2022-03-04T11:07:39Z</time><extensions><speed>1.357273</speed><course>33.058628</course><hAcc>1.326692</hAcc><vAcc>0.829652</vAcc></extensions></trkpt>
      <trkpt lon="-2.242907" lat="53.113316"><ele>127.174179</ele><time>2022-03-04T11:07:40Z</time><extensions><speed>1.404813</speed><course>32.652699</course><hAcc>1.338326</hAcc><vAcc>0.829634</vAcc></extensions></trkpt>
      <trkpt lon="-2.242896" lat="53.113326"><ele>127.133881</ele><time>2022-03-04T11:07:41Z</time><extensions><speed>1.377394</speed><course>33.492092</course><hAcc>1.343444</hAcc><vAcc>0.829605</vAcc></extensions></trkpt>
      <trkpt lon="-2.242885" lat="53.113337"><ele>127.074356</ele><time>2022-03-04T11:07:42Z</time><extensions><speed>1.421783</speed><course>29.394764</course><hAcc>1.365738</hAcc><vAcc>0.829567</vAcc></extensions></trkpt>
      <trkpt lon="-2.242876" lat="53.113347"><ele>127.020004</ele><time>2022-03-04T11:07:43Z</time><extensions><speed>1.257424</speed><course>27.621212</course><hAcc>1.371245</hAcc><vAcc>0.829513</vAcc></extensions></trkpt>
      <trkpt lon="-2.242867" lat="53.113357"><ele>126.951065</ele><time>2022-03-04T11:07:44Z</time><extensions><speed>1.163607</speed><course>29.221325</course><hAcc>1.378905</hAcc><vAcc>0.829442</vAcc></extensions></trkpt>
      <trkpt lon="-2.242859" lat="53.113365"><ele>126.873955</ele><time>2022-03-04T11:07:45Z</time><extensions><speed>0.916630</speed><course>32.044624</course><hAcc>1.375234</hAcc><vAcc>0.829365</vAcc></extensions></trkpt>
      <trkpt lon="-2.242852" lat="53.113372"><ele>126.796158</ele><time>2022-03-04T11:07:46Z</time><extensions><speed>0.889454</speed><course>30.719791</course><hAcc>1.424147</hAcc><vAcc>0.829263</vAcc></extensions></trkpt>
      <trkpt lon="-2.242845" lat="53.113379"><ele>126.706848</ele><time>2022-03-04T11:07:47Z</time><extensions><speed>1.021267</speed><course>26.800488</course><hAcc>1.487790</hAcc><vAcc>0.829161</vAcc></extensions></trkpt>
      <trkpt lon="-2.242838" lat="53.113387"><ele>126.628105</ele><time>2022-03-04T11:07:48Z</time><extensions><speed>1.026827</speed><course>24.770876</course><hAcc>1.466485</hAcc><vAcc>0.829055</vAcc></extensions></trkpt>
      <trkpt lon="-2.242832" lat="53.113396"><ele>126.533638</ele><time>2022-03-04T11:07:49Z</time><extensions><speed>1.113298</speed><course>26.172489</course><hAcc>1.471656</hAcc><vAcc>0.828946</vAcc></extensions></trkpt>
      <trkpt lon="-2.242824" lat="53.113405"><ele>126.442070</ele><time>2022-03-04T11:07:50Z</time><extensions><speed>1.107344</speed><course>27.141764</course><hAcc>1.481720</hAcc><vAcc>0.828828</vAcc></extensions></trkpt>
      <trkpt lon="-2.242816" lat="53.113414"><ele>126.353439</ele><time>2022-03-04T11:07:51Z</time><extensions><speed>1.189908</speed><course>29.751799</course><hAcc>1.503722</hAcc><vAcc>0.828704</vAcc></extensions></trkpt>
      <trkpt lon="-2.242806" lat="53.113424"><ele>126.268723</ele><time>2022-03-04T11:07:52Z</time><extensions><speed>1.221141</speed><course>31.536356</course><hAcc>1.489969</hAcc><vAcc>0.828564</vAcc></extensions></trkpt>
      <trkpt lon="-2.242797" lat="53.113433"><ele>126.189217</ele><time>2022-03-04T11:07:53Z</time><extensions><speed>1.265536</speed><course>31.826361</course><hAcc>1.515334</hAcc><vAcc>0.828458</vAcc></extensions></trkpt>
      <trkpt lon="-2.242787" lat="53.113443"><ele>126.122787</ele><time>2022-03-04T11:07:54Z</time><extensions><speed>1.234803</speed><course>30.601637</course><hAcc>1.552531</hAcc><vAcc>0.828363</vAcc></extensions></trkpt>
      <trkpt lon="-2.242777" lat="53.113452"><ele>126.063499</ele><time>2022-03-04T11:07:55Z</time><extensions><speed>1.253395</speed><course>32.322983</course><hAcc>1.563777</hAcc><vAcc>0.828285</vAcc></extensions></trkpt>
      <trkpt lon="-2.242766" lat="53.113462"><ele>126.010284</ele><time>2022-03-04T11:07:56Z</time><extensions><speed>1.281747</speed><course>33.730526</course><hAcc>1.535263</hAcc><vAcc>0.828241</vAcc></extensions></trkpt>
      <trkpt lon="-2.242756" lat="53.113471"><ele>125.987305</ele><time>2022-03-04T11:07:57Z</time><extensions><speed>1.280548</speed><course>32.879303</course><hAcc>1.543396</hAcc><vAcc>0.828218</vAcc></extensions></trkpt>
      <trkpt lon="-2.242746" lat="53.113481"><ele>125.969460</ele><time>2022-03-04T11:07:58Z</time><extensions><speed>1.255608</speed><course>30.877613</course><hAcc>1.572620</hAcc><vAcc>0.828240</vAcc></extensions></trkpt>
      <trkpt lon="-2.242737" lat="53.113491"><ele>125.955688</ele><time>2022-03-04T11:07:59Z</time><extensions><speed>1.212530</speed><course>26.162518</course><hAcc>1.586487</hAcc><vAcc>0.828294</vAcc></extensions></trkpt>
      <trkpt lon="-2.242729" lat="53.113500"><ele>125.955170</ele><time>2022-03-04T11:08:00Z</time><extensions><speed>1.229402</speed><course>26.160011</course><hAcc>1.550879</hAcc><vAcc>0.828385</vAcc></extensions></trkpt>
      <trkpt lon="-2.242720" lat="53.113510"><ele>125.972511</ele><time>2022-03-04T11:08:01Z</time><extensions><speed>1.293911</speed><course>29.368523</course><hAcc>1.500213</hAcc><vAcc>0.828500</vAcc></extensions></trkpt>
      <trkpt lon="-2.242709" lat="53.113521"><ele>125.987511</ele><time>2022-03-04T11:08:02Z</time><extensions><speed>1.491923</speed><course>31.697186</course><hAcc>1.451081</hAcc><vAcc>0.828627</vAcc></extensions></trkpt>
      <trkpt lon="-2.242697" lat="53.113532"><ele>125.993332</ele><time>2022-03-04T11:08:03Z</time><extensions><speed>1.569253</speed><course>31.474197</course><hAcc>1.441594</hAcc><vAcc>0.828781</vAcc></extensions></trkpt>
      <trkpt lon="-2.242685" lat="53.113544"><ele>125.998962</ele><time>2022-03-04T11:08:04Z</time><extensions><speed>1.588519</speed><course>34.657742</course><hAcc>1.429332</hAcc><vAcc>0.828949</vAcc></extensions></trkpt>
      <trkpt lon="-2.242672" lat="53.113555"><ele>126.014206</ele><time>2022-03-04T11:08:05Z</time><extensions><speed>1.572819</speed><course>32.008575</course><hAcc>1.404963</hAcc><vAcc>0.829133</vAcc></extensions></trkpt>
      <trkpt lon="-2.242660" lat="53.113567"><ele>126.050789</ele><time>2022-03-04T11:08:06Z</time><extensions><speed>1.552074</speed><course>29.661446</course><hAcc>1.388253</hAcc><vAcc>0.829291</vAcc></extensions></trkpt>
      <trkpt lon="-2.242649" lat="53.113578"><ele>126.086632</ele><time>2022-03-04T11:08:07Z</time><extensions><speed>1.479188</speed><course>29.095926</course><hAcc>1.362594</hAcc><vAcc>0.829452</vAcc></extensions></trkpt>
      <trkpt lon="-2.242638" lat="53.113590"><ele>126.131538</ele><time>2022-03-04T11:08:08Z</time><extensions><speed>1.475113</speed><course>29.875837</course><hAcc>1.349138</hAcc><vAcc>0.829576</vAcc></extensions></trkpt>
      <trkpt lon="-2.242627" lat="53.113601"><ele>126.147224</ele><time>2022-03-04T11:08:09Z</time><extensions><speed>1.420574</speed><course>28.258816</course><hAcc>1.331166</hAcc><vAcc>0.829672</vAcc></extensions></trkpt>
      <trkpt lon="-2.242618" lat="53.113612"><ele>126.155563</ele><time>2022-03-04T11:08:10Z</time><extensions><speed>1.465301</speed><course>25.557533</course><hAcc>1.344071</hAcc><vAcc>0.829733</vAcc></extensions></trkpt>
      <trkpt lon="-2.242608" lat="53.113624"><ele>126.173126</ele><time>2022-03-04T11:08:11Z</time><extensions><speed>1.470297</speed><course>24.875092</course><hAcc>1.353414</hAcc><vAcc>0.829757</vAcc></extensions></trkpt>
      <trkpt lon="-2.242600" lat="53.113636"><ele>126.190338</ele><time>2022-03-04T11:08:12Z</time><extensions><speed>1.435488</speed><course>21.998003</course><hAcc>1.350878</hAcc><vAcc>0.829739</vAcc></extensions></trkpt>
      <trkpt lon="-2.242592" lat="53.113647"><ele>126.199677</ele><time>2022-03-04T11:08:13Z</time><extensions><speed>1.328030</speed><course>24.017336</course><hAcc>1.335881</hAcc><vAcc>0.829686</vAcc></extensions></trkpt>
      <trkpt lon="-2.242583" lat="53.113658"><ele>126.215927</ele><time>2022-03-04T11:08:14Z</time><extensions><speed>1.399855</speed><course>26.089727</course><hAcc>1.371927</hAcc><vAcc>0.829579</vAcc></extensions></trkpt>
      <trkpt lon="-2.242574" lat="53.113670"><ele>126.212303</ele><time>2022-03-04T11:08:15Z</time><extensions><speed>1.432477</speed><course>26.412962</course><hAcc>1.385048</hAcc><vAcc>0.829453</vAcc></extensions></trkpt>
      <trkpt lon="-2.242564" lat="53.113681"><ele>126.209175</ele><time>2022-03-04T11:08:16Z</time><extensions><speed>1.374134</speed><course>29.860031</course><hAcc>1.363242</hAcc><vAcc>0.829281</vAcc></extensions></trkpt>
      <trkpt lon="-2.242554" lat="53.113692"><ele>126.201012</ele><time>2022-03-04T11:08:17Z</time><extensions><speed>1.435888</speed><course>28.471407</course><hAcc>1.405724</hAcc><vAcc>0.829054</vAcc></extensions></trkpt>
      <trkpt lon="-2.242544" lat="53.113703"><ele>126.187881</ele><time>2022-03-04T11:08:18Z</time><extensions><speed>1.407063</speed><course>27.818815</course><hAcc>1.422869</hAcc><vAcc>0.828809</vAcc></extensions></trkpt>
      <trkpt lon="-2.242534" lat="53.113714"><ele>126.168015</ele><time>2022-03-04T11:08:19Z</time><extensions><speed>1.442106</speed><course>29.717634</course><hAcc>1.455217</hAcc><vAcc>0.828551</vAcc></extensions></trkpt>
      <trkpt lon="-2.242525" lat="53.113725"><ele>126.131004</ele><time>2022-03-04T11:08:20Z</time><extensions><speed>1.370663</speed><course>21.070456</course><hAcc>1.473873</hAcc><vAcc>0.828292</vAcc></extensions></trkpt>
      <trkpt lon="-2.242517" lat="53.113736"><ele>126.110390</ele><time>2022-03-04T11:08:21Z</time><extensions><speed>1.231295</speed><course>22.349209</course><hAcc>1.478783</hAcc><vAcc>0.828008</vAcc></extensions></trkpt>
      <trkpt lon="-2.242511" lat="53.113746"><ele>126.092323</ele><time>2022-03-04T11:08:22Z</time><extensions><speed>1.119157</speed><course>21.079546</course><hAcc>1.502123</hAcc><vAcc>0.827742</vAcc></extensions></trkpt>
      <trkpt lon="-2.242505" lat="53.113755"><ele>126.058983</ele><time>2022-03-04T11:08:23Z</time><extensions><speed>1.031294</speed><course>22.597311</course><hAcc>1.531030</hAcc><vAcc>0.827503</vAcc></extensions></trkpt>
      <trkpt lon="-2.242498" lat="53.113764"><ele>126.036934</ele><time>2022-03-04T11:08:24Z</time><extensions><speed>1.041308</speed><course>25.826283</course><hAcc>1.550579</hAcc><vAcc>0.827288</vAcc></extensions></trkpt>
      <trkpt lon="-2.242491" lat="53.113772"><ele>126.011528</ele><time>2022-03-04T11:08:25Z</time><extensions><speed>1.093578</speed><course>26.649107</course><hAcc>1.587642</hAcc><vAcc>0.827112</vAcc></extensions></trkpt>
      <trkpt lon="-2.242484" lat="53.113781"><ele>125.984978</ele><time>2022-03-04T11:08:26Z</time><extensions><speed>1.147554</speed><course>26.664431</course><hAcc>1.622133</hAcc><vAcc>0.826980</vAcc></extensions></trkpt>
      <trkpt lon="-2.242476" lat="53.113790"><ele>125.962852</ele><time>2022-03-04T11:08:27Z</time><extensions><speed>1.055855</speed><course>24.666443</course><hAcc>1.589481</hAcc><vAcc>0.826905</vAcc></extensions></trkpt>
      <trkpt lon="-2.242469" lat="53.113799"><ele>125.947296</ele><time>2022-03-04T11:08:28Z</time><extensions><speed>1.143957</speed><course>26.349144</course><hAcc>1.568872</hAcc><vAcc>0.826885</vAcc></extensions></trkpt>
      <trkpt lon="-2.242461" lat="53.113808"><ele>125.932510</ele><time>2022-03-04T11:08:29Z</time><extensions><speed>1.246714</speed><course>29.085144</course><hAcc>1.551208</hAcc><vAcc>0.826915</vAcc></extensions></trkpt>
      <trkpt lon="-2.242452" lat="53.113818"><ele>125.926102</ele><time>2022-03-04T11:08:30Z</time><extensions><speed>1.304712</speed><course>30.284517</course><hAcc>1.517189</hAcc><vAcc>0.827004</vAcc></extensions></trkpt>
      <trkpt lon="-2.242441" lat="53.113828"><ele>125.931969</ele><time>2022-03-04T11:08:31Z</time><extensions><speed>1.437345</speed><course>32.304588</course><hAcc>1.470891</hAcc><vAcc>0.827139</vAcc></extensions></trkpt>
      <trkpt lon="-2.242430" lat="53.113840"><ele>125.937111</ele><time>2022-03-04T11:08:32Z</time><extensions><speed>1.525799</speed><course>30.589878</course><hAcc>1.461553</hAcc><vAcc>0.827311</vAcc></extensions></trkpt>
      <trkpt lon="-2.242419" lat="53.113851"><ele>125.934845</ele><time>2022-03-04T11:08:33Z</time><extensions><speed>1.522288</speed><course>26.423401</course><hAcc>1.431487</hAcc><vAcc>0.827518</vAcc></extensions></trkpt>
      <trkpt lon="-2.242409" lat="53.113863"><ele>125.939781</ele><time>2022-03-04T11:08:33Z</time><extensions><speed>1.523639</speed><course>25.966372</course><hAcc>1.408595</hAcc><vAcc>0.827723</vAcc></extensions></trkpt>
      <trkpt lon="-2.242399" lat="53.113875"><ele>125.951027</ele><time>2022-03-04T11:08:34Z</time><extensions><speed>1.499243</speed><course>24.751616</course><hAcc>1.381679</hAcc><vAcc>0.827923</vAcc></extensions></trkpt>
      <trkpt lon="-2.242389" lat="53.113887"><ele>125.952660</ele><time>2022-03-04T11:08:35Z</time><extensions><speed>1.500894</speed><course>26.924759</course><hAcc>1.365805</hAcc><vAcc>0.828087</vAcc></extensions></trkpt>
      <trkpt lon="-2.242379" lat="53.113899"><ele>125.971085</ele><time>2022-03-04T11:08:36Z</time><extensions><speed>1.452685</speed><course>27.841389</course><hAcc>1.343564</hAcc><vAcc>0.828260</vAcc></extensions></trkpt>
      <trkpt lon="-2.242369" lat="53.113910"><ele>125.982880</ele><time>2022-03-04T11:08:37Z</time><extensions><speed>1.433073</speed><course>28.324856</course><hAcc>1.333620</hAcc><vAcc>0.828403</vAcc></extensions></trkpt>
      <trkpt lon="-2.242358" lat="53.113921"><ele>125.994957</ele><time>2022-03-04T11:08:38Z</time><extensions><speed>1.470823</speed><course>29.345621</course><hAcc>1.343547</hAcc><vAcc>0.828495</vAcc></extensions></trkpt>
      <trkpt lon="-2.242347" lat="53.113932"><ele>126.012108</ele><time>2022-03-04T11:08:39Z</time><extensions><speed>1.447707</speed><course>30.177649</course><hAcc>1.341784</hAcc><vAcc>0.828560</vAcc></extensions></trkpt>
      <trkpt lon="-2.242337" lat="53.113944"><ele>126.023941</ele><time>2022-03-04T11:08:40Z</time><extensions><speed>1.436107</speed><course>26.031713</course><hAcc>1.356385</hAcc><vAcc>0.828595</vAcc></extensions></trkpt>
      <trkpt lon="-2.242329" lat="53.113956"><ele>126.025612</ele><time>2022-03-04T11:08:41Z</time><extensions><speed>1.392505</speed><course>19.638594</course><hAcc>1.370507</hAcc><vAcc>0.828577</vAcc></extensions></trkpt>
      <trkpt lon="-2.242322" lat="53.113967"><ele>126.035851</ele><time>2022-03-04T11:08:42Z</time><extensions><speed>1.333856</speed><course>21.563513</course><hAcc>1.379860</hAcc><vAcc>0.828538</vAcc></extensions></trkpt>
      <trkpt lon="-2.242314" lat="53.113977"><ele>126.042992</ele><time>2022-03-04T11:08:43Z</time><extensions><speed>1.166084</speed><course>26.646341</course><hAcc>1.394274</hAcc><vAcc>0.828441</vAcc></extensions></trkpt>
      <trkpt lon="-2.242306" lat="53.113986"><ele>126.041122</ele><time>2022-03-04T11:08:44Z</time><extensions><speed>1.156982</speed><course>30.586256</course><hAcc>1.437872</hAcc><vAcc>0.828330</vAcc></extensions></trkpt>
      <trkpt lon="-2.242296" lat="53.113995"><ele>126.042374</ele><time>2022-03-04T11:08:45Z</time><extensions><speed>1.038714</speed><course>38.258133</course><hAcc>1.440681</hAcc><vAcc>0.828209</vAcc></extensions></trkpt>
      <trkpt lon="-2.242287" lat="53.114002"><ele>126.028381</ele><time>2022-03-04T11:08:46Z</time><extensions><speed>1.053401</speed><course>39.410110</course><hAcc>1.500018</hAcc><vAcc>0.828051</vAcc></extensions></trkpt>
      <trkpt lon="-2.242277" lat="53.114010"><ele>126.000893</ele><time>2022-03-04T11:08:47Z</time><extensions><speed>1.115353</speed><course>35.194164</course><hAcc>1.565614</hAcc><vAcc>0.827898</vAcc></extensions></trkpt>
      <trkpt lon="-2.242267" lat="53.114018"><ele>125.975471</ele><time>2022-03-04T11:08:48Z</time><extensions><speed>1.203901</speed><course>34.296852</course><hAcc>1.548840</hAcc><vAcc>0.827741</vAcc></extensions></trkpt>
      <trkpt lon="-2.242257" lat="53.114028"><ele>125.944183</ele><time>2022-03-04T11:08:49Z</time><extensions><speed>1.234230</speed><course>31.914387</course><hAcc>1.567336</hAcc><vAcc>0.827577</vAcc></extensions></trkpt>
      <trkpt lon="-2.242247" lat="53.114037"><ele>125.911476</ele><time>2022-03-04T11:08:50Z</time><extensions><speed>1.204089</speed><course>31.479614</course><hAcc>1.605628</hAcc><vAcc>0.827426</vAcc></extensions></trkpt>
      <trkpt lon="-2.242238" lat="53.114046"><ele>125.877998</ele><time>2022-03-04T11:08:51Z</time><extensions><speed>1.212991</speed><course>29.633554</course><hAcc>1.625295</hAcc><vAcc>0.827290</vAcc></extensions></trkpt>
      <trkpt lon="-2.242229" lat="53.114056"><ele>125.837112</ele><time>2022-03-04T11:08:52Z</time><extensions><speed>1.281109</speed><course>27.558399</course><hAcc>1.640937</hAcc><vAcc>0.827174</vAcc></extensions></trkpt>
      <trkpt lon="-2.242220" lat="53.114067"><ele>125.793571</ele><time>2022-03-04T11:08:53Z</time><extensions><speed>1.329396</speed><course>27.884876</course><hAcc>1.646655</hAcc><vAcc>0.827072</vAcc></extensions></trkpt>
      <trkpt lon="-2.242210" lat="53.114077"><ele>125.751801</ele><time>2022-03-04T11:08:54Z</time><extensions><speed>1.361809</speed><course>28.513819</course><hAcc>1.654419</hAcc><vAcc>0.826967</vAcc></extensions></trkpt>
      <trkpt lon="-2.242201" lat="53.114088"><ele>125.700302</ele><time>2022-03-04T11:08:55Z</time><extensions><speed>1.391141</speed><course>28.413637</course><hAcc>1.658315</hAcc><vAcc>0.826908</vAcc></extensions></trkpt>
      <trkpt lon="-2.242191" lat="53.114099"><ele>125.634499</ele><time>2022-03-04T11:08:56Z</time><extensions><speed>1.413263</speed><course>27.881414</course><hAcc>1.649560</hAcc><vAcc>0.826873</vAcc></extensions></trkpt>
      <trkpt lon="-2.242181" lat="53.114111"><ele>125.574173</ele><time>2022-03-04T11:08:57Z</time><extensions><speed>1.426250</speed><course>26.918224</course><hAcc>1.643561</hAcc><vAcc>0.826829</vAcc></extensions></trkpt>
      <trkpt lon="-2.242171" lat="53.114122"><ele>125.516502</ele><time>2022-03-04T11:08:58Z</time><extensions><speed>1.440845</speed><course>25.986504</course><hAcc>1.639280</hAcc><vAcc>0.826819</vAcc></extensions></trkpt>
      <trkpt lon="-2.242161" lat="53.114134"><ele>125.461060</ele><time>2022-03-04T11:08:59Z</time><extensions><speed>1.427323</speed><course>26.139635</course><hAcc>1.614844</hAcc><vAcc>0.826832</vAcc></extensions></trkpt>
      <trkpt lon="-2.242152" lat="53.114145"><ele>125.405014</ele><time>2022-03-04T11:09:00Z</time><extensions><speed>1.430931</speed><course>26.897715</course><hAcc>1.595379</hAcc><vAcc>0.826854</vAcc></extensions></trkpt>
      <trkpt lon="-2.242142" lat="53.114157"><ele>125.360756</ele><time>2022-03-04T11:09:01Z</time><extensions><speed>1.433936</speed><course>27.226654</course><hAcc>1.585900</hAcc><vAcc>0.826884</vAcc></extensions></trkpt>
      <trkpt lon="-2.242132" lat="53.114169"><ele>125.316284</ele><time>2022-03-04T11:09:02Z</time><extensions><speed>1.439209</speed><course>26.615522</course><hAcc>1.579174</hAcc><vAcc>0.826927</vAcc></extensions></trkpt>
      <trkpt lon="-2.242122" lat="53.114180"><ele>125.271027</ele><time>2022-03-04T11:09:03Z</time><extensions><speed>1.423501</speed><course>24.517260</course><hAcc>1.554643</hAcc><vAcc>0.826972</vAcc></extensions></trkpt>
      <trkpt lon="-2.242114" lat="53.114192"><ele>125.227196</ele><time>2022-03-04T11:09:04Z</time><extensions><speed>1.382538</speed><course>21.681639</course><hAcc>1.522000</hAcc><vAcc>0.827026</vAcc></extensions></trkpt>
      <trkpt lon="-2.242107" lat="53.114203"><ele>125.191978</ele><time>2022-03-04T11:09:05Z</time><extensions><speed>1.302423</speed><course>13.573710</course><hAcc>1.536273</hAcc><vAcc>0.827062</vAcc></extensions></trkpt>
      <trkpt lon="-2.242103" lat="53.114215"><ele>125.165771</ele><time>2022-03-04T11:09:06Z</time><extensions><speed>1.277727</speed><course>12.015417</course><hAcc>1.516357</hAcc><vAcc>0.827132</vAcc></extensions></trkpt>
      <trkpt lon="-2.242096" lat="53.114227"><ele>125.139389</ele><time>2022-03-04T11:09:07Z</time><extensions><speed>1.422410</speed><course>22.850908</course><hAcc>1.468763</hAcc><vAcc>0.827169</vAcc></extensions></trkpt>
      <trkpt lon="-2.242087" lat="53.114238"><ele>125.120537</ele><time>2022-03-04T11:09:08Z</time><extensions><speed>1.479964</speed><course>28.158894</course><hAcc>1.474160</hAcc><vAcc>0.827225</vAcc></extensions></trkpt>
      <trkpt lon="-2.242075" lat="53.114250"><ele>125.118294</ele><time>2022-03-04T11:09:09Z</time><extensions><speed>1.448107</speed><course>30.108023</course><hAcc>1.467707</hAcc><vAcc>0.827271</vAcc></extensions></trkpt>
      <trkpt lon="-2.242065" lat="53.114261"><ele>125.105675</ele><time>2022-03-04T11:09:10Z</time><extensions><speed>1.306901</speed><course>27.592630</course><hAcc>1.464746</hAcc><vAcc>0.827288</vAcc></extensions></trkpt>
      <trkpt lon="-2.242055" lat="53.114272"><ele>125.083618</ele><time>2022-03-04T11:09:11Z</time><extensions><speed>1.379606</speed><course>29.918301</course><hAcc>1.428045</hAcc><vAcc>0.827301</vAcc></extensions></trkpt>
      <trkpt lon="-2.242045" lat="53.114282"><ele>125.077187</ele><time>2022-03-04T11:09:12Z</time><extensions><speed>1.390671</speed><course>29.887335</course><hAcc>1.434066</hAcc><vAcc>0.827314</vAcc></extensions></trkpt>
      <trkpt lon="-2.242035" lat="53.114293"><ele>125.073723</ele><time>2022-03-04T11:09:13Z</time><extensions><speed>1.246483</speed><course>26.473183</course><hAcc>1.459675</hAcc><vAcc>0.827323</vAcc></extensions></trkpt>
      <trkpt lon="-2.242026" lat="53.114303"><ele>125.067909</ele><time>2022-03-04T11:09:14Z</time><extensions><speed>1.317461</speed><course>28.178719</course><hAcc>1.459846</hAcc><vAcc>0.827319</vAcc></extensions></trkpt>
      <trkpt lon="-2.242016" lat="53.114314"><ele>125.074974</ele><time>2022-03-04T11:09:15Z</time><extensions><speed>1.433134</speed><course>31.498999</course><hAcc>1.423600</hAcc><vAcc>0.827314</vAcc></extensions></trkpt>
      <trkpt lon="-2.242004" lat="53.114325"><ele>125.081779</ele><time>2022-03-04T11:09:16Z</time><extensions><speed>1.446750</speed><course>30.778008</course><hAcc>1.457137</hAcc><vAcc>0.827268</vAcc></extensions></trkpt>
      <trkpt lon="-2.241992" lat="53.114336"><ele>125.093346</ele><time>2022-03-04T11:09:17Z</time><extensions><speed>1.540305</speed><course>33.363487</course><hAcc>1.456824</hAcc><vAcc>0.827209</vAcc></extensions></trkpt>
      <trkpt lon="-2.241980" lat="53.114347"><ele>125.108620</ele><time>2022-03-04T11:09:18Z</time><extensions><speed>1.447326</speed><course>34.478615</course><hAcc>1.511414</hAcc><vAcc>0.827156</vAcc></extensions></trkpt>
      <trkpt lon="-2.241967" lat="53.114358"><ele>125.128471</ele><time>2022-03-04T11:09:19Z</time><extensions><speed>1.405616</speed><course>36.809624</course><hAcc>1.530332</hAcc><vAcc>0.827079</vAcc></extensions></trkpt>
      <trkpt lon="-2.241955" lat="53.114367"><ele>125.145271</ele><time>2022-03-04T11:09:20Z</time><extensions><speed>1.273047</speed><course>36.368984</course><hAcc>1.502404</hAcc><vAcc>0.826997</vAcc></extensions></trkpt>
      <trkpt lon="-2.241945" lat="53.114376"><ele>125.157608</ele><time>2022-03-04T11:09:21Z</time><extensions><speed>1.091458</speed><course>35.927204</course><hAcc>1.518242</hAcc><vAcc>0.826911</vAcc></extensions></trkpt>
      <trkpt lon="-2.241935" lat="53.114384"><ele>125.175812</ele><time>2022-03-04T11:09:22Z</time><extensions><speed>0.981582</speed><course>36.859238</course><hAcc>1.560583</hAcc><vAcc>0.826819</vAcc></extensions></trkpt>
      <trkpt lon="-2.241927" lat="53.114391"><ele>125.201462</ele><time>2022-03-04T11:09:23Z</time><extensions><speed>1.008483</speed><course>34.318924</course><hAcc>1.596216</hAcc><vAcc>0.826712</vAcc></extensions></trkpt>
      <trkpt lon="-2.241918" lat="53.114398"><ele>125.229507</ele><time>2022-03-04T11:09:24Z</time><extensions><speed>0.959832</speed><course>33.524624</course><hAcc>1.610292</hAcc><vAcc>0.826579</vAcc></extensions></trkpt>
      <trkpt lon="-2.241911" lat="53.114405"><ele>125.263763</ele><time>2022-03-04T11:09:25Z</time><extensions><speed>0.757165</speed><course>36.659073</course><hAcc>1.639590</hAcc><vAcc>0.826446</vAcc></extensions></trkpt>
      <trkpt lon="-2.241905" lat="53.114408"><ele>125.292145</ele><time>2022-03-04T11:09:26Z</time><extensions><speed>0.406189</speed><course>55.698189</course><hAcc>1.643306</hAcc><vAcc>0.826317</vAcc></extensions></trkpt>
      <trkpt lon="-2.241900" lat="53.114410"><ele>125.326019</ele><time>2022-03-04T11:09:27Z</time><extensions><speed>0.349360</speed><course>71.110832</course><hAcc>1.649344</hAcc><vAcc>0.826186</vAcc></extensions></trkpt>
      <trkpt lon="-2.241895" lat="53.114411"><ele>125.352509</ele><time>2022-03-04T11:09:28Z</time><extensions><speed>0.341640</speed><course>72.150253</course><hAcc>1.671137</hAcc><vAcc>0.826059</vAcc></extensions></trkpt>
      <trkpt lon="-2.241890" lat="53.114412"><ele>125.378113</ele><time>2022-03-04T11:09:29Z</time><extensions><speed>0.345778</speed><course>64.305542</course><hAcc>1.693988</hAcc><vAcc>0.825945</vAcc></extensions></trkpt>
      <trkpt lon="-2.241886" lat="53.114414"><ele>125.395897</ele><time>2022-03-04T11:09:30Z</time><extensions><speed>0.371543</speed><course>52.333748</course><hAcc>1.714480</hAcc><vAcc>0.825826</vAcc></extensions></trkpt>
      <trkpt lon="-2.241882" lat="53.114416"><ele>125.393181</ele><time>2022-03-04T11:09:31Z</time><extensions><speed>0.447881</speed><course>38.072922</course><hAcc>1.734191</hAcc><vAcc>0.825714</vAcc></extensions></trkpt>
      <trkpt lon="-2.241878" lat="53.114419"><ele>125.383453</ele><time>2022-03-04T11:09:32Z</time><extensions><speed>0.356143</speed><course>49.861927</course><hAcc>1.737206</hAcc><vAcc>0.825607</vAcc></extensions></trkpt>
      <trkpt lon="-2.241873" lat="53.114421"><ele>125.371956</ele><time>2022-03-04T11:09:33Z</time><extensions><speed>0.378136</speed><course>51.283798</course><hAcc>1.723623</hAcc><vAcc>0.825522</vAcc></extensions></trkpt>
      <trkpt lon="-2.241869" lat="53.114424"><ele>125.354874</ele><time>2022-03-04T11:09:34Z</time><extensions><speed>0.441954</speed><course>44.496250</course><hAcc>1.715183</hAcc><vAcc>0.825448</vAcc></extensions></trkpt>
      <trkpt lon="-2.241864" lat="53.114427"><ele>125.338699</ele><time>2022-03-04T11:09:35Z</time><extensions><speed>0.588330</speed><course>35.167862</course><hAcc>1.715677</hAcc><vAcc>0.825361</vAcc></extensions></trkpt>
      <trkpt lon="-2.241859" lat="53.114433"><ele>125.317444</ele><time>2022-03-04T11:09:36Z</time><extensions><speed>0.882795</speed><course>27.375507</course><hAcc>1.724435</hAcc><vAcc>0.825284</vAcc></extensions></trkpt>
      <trkpt lon="-2.241853" lat="53.114440"><ele>125.296364</ele><time>2022-03-04T11:09:37Z</time><extensions><speed>0.931387</speed><course>23.948412</course><hAcc>1.722315</hAcc><vAcc>0.825231</vAcc></extensions></trkpt>
      <trkpt lon="-2.241848" lat="53.114448"><ele>125.261864</ele><time>2022-03-04T11:09:38Z</time><extensions><speed>0.837569</speed><course>14.917567</course><hAcc>1.714930</hAcc><vAcc>0.825188</vAcc></extensions></trkpt>
      <trkpt lon="-2.241847" lat="53.114454"><ele>125.248741</ele><time>2022-03-04T11:09:39Z</time><extensions><speed>0.574777</speed><course>0.097961</course><hAcc>1.700352</hAcc><vAcc>0.825154</vAcc></extensions></trkpt>
      <trkpt lon="-2.241847" lat="53.114458"><ele>125.235962</ele><time>2022-03-04T11:09:40Z</time><extensions><speed>0.421205</speed><course>350.152496</course><hAcc>1.683888</hAcc><vAcc>0.825160</vAcc></extensions></trkpt>
      <trkpt lon="-2.241848" lat="53.114462"><ele>125.228035</ele><time>2022-03-04T11:09:41Z</time><extensions><speed>0.510409</speed><course>353.553650</course><hAcc>1.661574</hAcc><vAcc>0.825187</vAcc></extensions></trkpt>
      <trkpt lon="-2.241849" lat="53.114466"><ele>125.239609</ele><time>2022-03-04T11:09:42Z</time><extensions><speed>0.318434</speed><course>349.568604</course><hAcc>1.660127</hAcc><vAcc>0.825228</vAcc></extensions></trkpt>
      <trkpt lon="-2.241850" lat="53.114468"><ele>125.245354</ele><time>2022-03-04T11:09:44Z</time><extensions><speed>0.099894</speed><course>324.944275</course><hAcc>1.697307</hAcc><vAcc>0.825300</vAcc></extensions></trkpt>
      <trkpt lon="-2.241851" lat="53.114469"><ele>125.257202</ele><time>2022-03-04T11:09:45Z</time><extensions><speed>0.059468</speed><course>322.179077</course><hAcc>1.700565</hAcc><vAcc>0.825399</vAcc></extensions></trkpt>
      <trkpt lon="-2.241851" lat="53.114469"><ele>125.291748</ele><time>2022-03-04T11:09:46Z</time><extensions><speed>0.132774</speed><course>357.078369</course><hAcc>1.667948</hAcc><vAcc>0.825525</vAcc></extensions></trkpt>
      <trkpt lon="-2.241851" lat="53.114471"><ele>125.339371</ele><time>2022-03-04T11:09:47Z</time><extensions><speed>0.301734</speed><course>9.188807</course><hAcc>1.656490</hAcc><vAcc>0.825656</vAcc></extensions></trkpt>
      <trkpt lon="-2.241849" lat="53.114475"><ele>125.384430</ele><time>2022-03-04T11:09:48Z</time><extensions><speed>0.608851</speed><course>12.394521</course><hAcc>1.657190</hAcc><vAcc>0.825789</vAcc></extensions></trkpt>
      <trkpt lon="-2.241848" lat="53.114481"><ele>125.434372</ele><time>2022-03-04T11:09:49Z</time><extensions><speed>0.777362</speed><course>9.703954</course><hAcc>1.680104</hAcc><vAcc>0.825925</vAcc></extensions></trkpt>
      <trkpt lon="-2.241846" lat="53.114488"><ele>125.500916</ele><time>2022-03-04T11:09:50Z</time><extensions><speed>0.783908</speed><course>7.593143</course><hAcc>1.689694</hAcc><vAcc>0.826045</vAcc></extensions></trkpt>
      <trkpt lon="-2.241845" lat="53.114495"><ele>125.572617</ele><time>2022-03-04T11:09:51Z</time><extensions><speed>0.768115</speed><course>5.203002</course><hAcc>1.695246</hAcc><vAcc>0.826138</vAcc></extensions></trkpt>
      <trkpt lon="-2.241844" lat="53.114502"><ele>125.638809</ele><time>2022-03-04T11:09:52Z</time><extensions><speed>0.691159</speed><course>4.585624</course><hAcc>1.698285</hAcc><vAcc>0.826194</vAcc></extensions></trkpt>
      <trkpt lon="-2.241842" lat="53.114508"><ele>125.704346</ele><time>2022-03-04T11:09:53Z</time><extensions><speed>0.629604</speed><course>11.598370</course><hAcc>1.699083</hAcc><vAcc>0.826228</vAcc></extensions></trkpt>
      <trkpt lon="-2.241840" lat="53.114513"><ele>125.768898</ele><time>2022-03-04T11:09:54Z</time><extensions><speed>0.599676</speed><course>18.661070</course><hAcc>1.694245</hAcc><vAcc>0.826225</vAcc></extensions></trkpt>
      <trkpt lon="-2.241837" lat="53.114518"><ele>125.840660</ele><time>2022-03-04T11:09:55Z</time><extensions><speed>0.636122</speed><course>18.566639</course><hAcc>1.706619</hAcc><vAcc>0.826169</vAcc></extensions></trkpt>
      <trkpt lon="-2.241834" lat="53.114524"><ele>125.905380</ele><time>2022-03-04T11:09:56Z</time><extensions><speed>0.652948</speed><course>13.681051</course><hAcc>1.720119</hAcc><vAcc>0.826087</vAcc></extensions></trkpt>
      <trkpt lon="-2.241833" lat="53.114529"><ele>125.963699</ele><time>2022-03-04T11:09:57Z</time><extensions><speed>0.512396</speed><course>3.661487</course><hAcc>1.724196</hAcc><vAcc>0.825989</vAcc></extensions></trkpt>
      <trkpt lon="-2.241833" lat="53.114533"><ele>126.013664</ele><time>2022-03-04T11:09:58Z</time><extensions><speed>0.328694</speed><course>354.901306</course><hAcc>1.731194</hAcc><vAcc>0.825883</vAcc></extensions></trkpt>
      <trkpt lon="-2.241833" lat="53.114536"><ele>126.052109</ele><time>2022-03-04T11:09:59Z</time><extensions><speed>0.251006</speed><course>354.115173</course><hAcc>1.735690</hAcc><vAcc>0.825781</vAcc></extensions></trkpt>
      <trkpt lon="-2.241833" lat="53.114538"><ele>126.091286</ele><time>2022-03-04T11:10:00Z</time><extensions><speed>0.203079</speed><course>1.085748</course><hAcc>1.741828</hAcc><vAcc>0.825686</vAcc></extensions></trkpt>
      <trkpt lon="-2.241833" lat="53.114539"><ele>126.129074</ele><time>2022-03-04T11:10:01Z</time><extensions><speed>0.179561</speed><course>12.177925</course><hAcc>1.746182</hAcc><vAcc>0.825612</vAcc></extensions></trkpt>
      <trkpt lon="-2.241832" lat="53.114541"><ele>126.165848</ele><time>2022-03-04T11:10:02Z</time><extensions><speed>0.177415</speed><course>23.592491</course><hAcc>1.748640</hAcc><vAcc>0.825572</vAcc></extensions></trkpt>
      <trkpt lon="-2.241831" lat="53.114542"><ele>126.192589</ele><time>2022-03-04T11:10:03Z</time><extensions><speed>0.189769</speed><course>34.445465</course><hAcc>1.754984</hAcc><vAcc>0.825562</vAcc></extensions></trkpt>
      <trkpt lon="-2.241829" lat="53.114544"><ele>126.215439</ele><time>2022-03-04T11:10:04Z</time><extensions><speed>0.224726</speed><course>43.402626</course><hAcc>1.757409</hAcc><vAcc>0.825594</vAcc></extensions></trkpt>
      <trkpt lon="-2.241826" lat="53.114545"><ele>126.253632</ele><time>2022-03-04T11:10:05Z</time><extensions><speed>0.283394</speed><course>50.726086</course><hAcc>1.751233</hAcc><vAcc>0.825661</vAcc></extensions></trkpt>
      <trkpt lon="-2.241822" lat="53.114547"><ele>126.290398</ele><time>2022-03-04T11:10:06Z</time><extensions><speed>0.349765</speed><course>56.317661</course><hAcc>1.747074</hAcc><vAcc>0.825774</vAcc></extensions></trkpt>
      <trkpt lon="-2.241817" lat="53.114549"><ele>126.314232</ele><time>2022-03-04T11:10:07Z</time><extensions><speed>0.431708</speed><course>59.879276</course><hAcc>1.746175</hAcc><vAcc>0.825918</vAcc></extensions></trkpt>
      <trkpt lon="-2.241811" lat="53.114551"><ele>126.337860</ele><time>2022-03-04T11:10:08Z</time><extensions><speed>0.547373</speed><course>60.958878</course><hAcc>1.744139</hAcc><vAcc>0.826079</vAcc></extensions></trkpt>
      <trkpt lon="-2.241802" lat="53.114554"><ele>126.353813</ele><time>2022-03-04T11:10:09Z</time><extensions><speed>0.745479</speed><course>60.334393</course><hAcc>1.737707</hAcc><vAcc>0.826285</vAcc></extensions></trkpt>
      <trkpt lon="-2.241790" lat="53.114558"><ele>126.373093</ele><time>2022-03-04T11:10:10Z</time><extensions><speed>1.094205</speed><course>59.037140</course><hAcc>1.731498</hAcc><vAcc>0.826490</vAcc></extensions></trkpt>
      <trkpt lon="-2.241775" lat="53.114564"><ele>126.392067</ele><time>2022-03-04T11:10:11Z</time><extensions><speed>1.278695</speed><course>58.928516</course><hAcc>1.729658</hAcc><vAcc>0.826715</vAcc></extensions></trkpt>
      <trkpt lon="-2.241759" lat="53.114570"><ele>126.402237</ele><time>2022-03-04T11:10:12Z</time><extensions><speed>1.290548</speed><course>58.581028</course><hAcc>1.723136</hAcc><vAcc>0.826921</vAcc></extensions></trkpt>
      <trkpt lon="-2.241742" lat="53.114575"><ele>126.417015</ele><time>2022-03-04T11:10:13Z</time><extensions><speed>1.259838</speed><course>58.580093</course><hAcc>1.711646</hAcc><vAcc>0.827118</vAcc></extensions></trkpt>
      <trkpt lon="-2.241726" lat="53.114581"><ele>126.426552</ele><time>2022-03-04T11:10:14Z</time><extensions><speed>1.250062</speed><course>58.525814</course><hAcc>1.693016</hAcc><vAcc>0.827297</vAcc></extensions></trkpt>
      <trkpt lon="-2.241710" lat="53.114588"><ele>126.428787</ele><time>2022-03-04T11:10:15Z</time><extensions><speed>1.333527</speed><course>55.842800</course><hAcc>1.670707</hAcc><vAcc>0.827471</vAcc></extensions></trkpt>
      <trkpt lon="-2.241693" lat="53.114595"><ele>126.425240</ele><time>2022-03-04T11:10:16Z</time><extensions><speed>1.418723</speed><course>51.414959</course><hAcc>1.646761</hAcc><vAcc>0.827619</vAcc></extensions></trkpt>
      <trkpt lon="-2.241677" lat="53.114603"><ele>126.409462</ele><time>2022-03-04T11:10:17Z</time><extensions><speed>1.391500</speed><course>48.085293</course><hAcc>1.625002</hAcc><vAcc>0.827735</vAcc></extensions></trkpt>
      <trkpt lon="-2.241662" lat="53.114611"><ele>126.393997</ele><time>2022-03-04T11:10:18Z</time><extensions><speed>1.290570</speed><course>45.903416</course><hAcc>1.632687</hAcc><vAcc>0.827833</vAcc></extensions></trkpt>
      <trkpt lon="-2.241649" lat="53.114619"><ele>126.387672</ele><time>2022-03-04T11:10:19Z</time><extensions><speed>1.229548</speed><course>44.774872</course><hAcc>1.665766</hAcc><vAcc>0.827913</vAcc></extensions></trkpt>
      <trkpt lon="-2.241636" lat="53.114626"><ele>126.369225</ele><time>2022-03-04T11:10:20Z</time><extensions><speed>1.160814</speed><course>51.349735</course><hAcc>1.601457</hAcc><vAcc>0.827950</vAcc></extensions></trkpt>
      <trkpt lon="-2.241622" lat="53.114632"><ele>126.347206</ele><time>2022-03-04T11:10:21Z</time><extensions><speed>1.097956</speed><course>58.462528</course><hAcc>1.559474</hAcc><vAcc>0.827964</vAcc></extensions></trkpt>
      <trkpt lon="-2.241607" lat="53.114637"><ele>126.337769</ele><time>2022-03-04T11:10:22Z</time><extensions><speed>1.065885</speed><course>66.372116</course><hAcc>1.561931</hAcc><vAcc>0.827961</vAcc></extensions></trkpt>
      <trkpt lon="-2.241592" lat="53.114641"><ele>126.323181</ele><time>2022-03-04T11:10:23Z</time><extensions><speed>1.111104</speed><course>69.899590</course><hAcc>1.603934</hAcc><vAcc>0.827937</vAcc></extensions></trkpt>
      <trkpt lon="-2.241576" lat="53.114644"><ele>126.306755</ele><time>2022-03-04T11:10:24Z</time><extensions><speed>1.259345</speed><course>70.842186</course><hAcc>1.608881</hAcc><vAcc>0.827883</vAcc></extensions></trkpt>
      <trkpt lon="-2.241557" lat="53.114648"><ele>126.302155</ele><time>2022-03-04T11:10:25Z</time><extensions><speed>1.362654</speed><course>71.402290</course><hAcc>1.615548</hAcc><vAcc>0.827804</vAcc></extensions></trkpt>
      <trkpt lon="-2.241537" lat="53.114652"><ele>126.294914</ele><time>2022-03-04T11:10:26Z</time><extensions><speed>1.486818</speed><course>70.620926</course><hAcc>1.588649</hAcc><vAcc>0.827675</vAcc></extensions></trkpt>
      <trkpt lon="-2.241515" lat="53.114657"><ele>126.289459</ele><time>2022-03-04T11:10:27Z</time><extensions><speed>1.584113</speed><course>68.292809</course><hAcc>1.591676</hAcc><vAcc>0.827522</vAcc></extensions></trkpt>
      <trkpt lon="-2.241493" lat="53.114662"><ele>126.300140</ele><time>2022-03-04T11:10:28Z</time><extensions><speed>1.612268</speed><course>65.891212</course><hAcc>1.618782</hAcc><vAcc>0.827339</vAcc></extensions></trkpt>
      <trkpt lon="-2.241471" lat="53.114669"><ele>126.291115</ele><time>2022-03-04T11:10:29Z</time><extensions><speed>1.591019</speed><course>62.703098</course><hAcc>1.646970</hAcc><vAcc>0.827151</vAcc></extensions></trkpt>
      <trkpt lon="-2.241451" lat="53.114676"><ele>126.298210</ele><time>2022-03-04T11:10:30Z</time><extensions><speed>1.596779</speed><course>58.610882</course><hAcc>1.639836</hAcc><vAcc>0.826962</vAcc></extensions></trkpt>
      <trkpt lon="-2.241431" lat="53.114683"><ele>126.303345</ele><time>2022-03-04T11:10:31Z</time><extensions><speed>1.570659</speed><course>57.746029</course><hAcc>1.635572</hAcc><vAcc>0.826798</vAcc></extensions></trkpt>
      <trkpt lon="-2.241411" lat="53.114690"><ele>126.305321</ele><time>2022-03-04T11:10:32Z</time><extensions><speed>1.538966</speed><course>59.872387</course><hAcc>1.644789</hAcc><vAcc>0.826652</vAcc></extensions></trkpt>
      <trkpt lon="-2.241390" lat="53.114697"><ele>126.314209</ele><time>2022-03-04T11:10:33Z</time><extensions><speed>1.512477</speed><course>63.636250</course><hAcc>1.659657</hAcc><vAcc>0.826535</vAcc></extensions></trkpt>
      <trkpt lon="-2.241369" lat="53.114702"><ele>126.323784</ele><time>2022-03-04T11:10:34Z</time><extensions><speed>1.550080</speed><course>67.434052</course><hAcc>1.634406</hAcc><vAcc>0.826434</vAcc></extensions></trkpt>
      <trkpt lon="-2.241347" lat="53.114708"><ele>126.335938</ele><time>2022-03-04T11:10:35Z</time><extensions><speed>1.604441</speed><course>70.229736</course><hAcc>1.622117</hAcc><vAcc>0.826374</vAcc></extensions></trkpt>
      <trkpt lon="-2.241325" lat="53.114713"><ele>126.354912</ele><time>2022-03-04T11:10:36Z</time><extensions><speed>1.613215</speed><course>69.104576</course><hAcc>1.636975</hAcc><vAcc>0.826355</vAcc></extensions></trkpt>
      <trkpt lon="-2.241303" lat="53.114718"><ele>126.381599</ele><time>2022-03-04T11:10:36Z</time><extensions><speed>1.532209</speed><course>65.352867</course><hAcc>1.663476</hAcc><vAcc>0.826382</vAcc></extensions></trkpt>
      <trkpt lon="-2.241282" lat="53.114724"><ele>126.419670</ele><time>2022-03-04T11:10:37Z</time><extensions><speed>1.461633</speed><course>64.407478</course><hAcc>1.639509</hAcc><vAcc>0.826452</vAcc></extensions></trkpt>
      <trkpt lon="-2.241264" lat="53.114729"><ele>126.463364</ele><time>2022-03-04T11:10:38Z</time><extensions><speed>1.325447</speed><course>63.160015</course><hAcc>1.629720</hAcc><vAcc>0.826556</vAcc></extensions></trkpt>
      <trkpt lon="-2.241247" lat="53.114734"><ele>126.515709</ele><time>2022-03-04T11:10:39Z</time><extensions><speed>1.215195</speed><course>64.749557</course><hAcc>1.620133</hAcc><vAcc>0.826692</vAcc></extensions></trkpt>
      <trkpt lon="-2.241230" lat="53.114739"><ele>126.579086</ele><time>2022-03-04T11:10:40Z</time><extensions><speed>1.202922</speed><course>66.583870</course><hAcc>1.609508</hAcc><vAcc>0.826838</vAcc></extensions></trkpt>
      <trkpt lon="-2.241213" lat="53.114743"><ele>126.642166</ele><time>2022-03-04T11:10:41Z</time><extensions><speed>1.325516</speed><course>68.490295</course><hAcc>1.586619</hAcc><vAcc>0.826981</vAcc></extensions></trkpt>
      <trkpt lon="-2.241193" lat="53.114747"><ele>126.732063</ele><time>2022-03-04T11:10:42Z</time><extensions><speed>1.506896</speed><course>68.736893</course><hAcc>1.541746</hAcc><vAcc>0.827126</vAcc></extensions></trkpt>
      <trkpt lon="-2.241171" lat="53.114753"><ele>126.834404</ele><time>2022-03-04T11:10:43Z</time><extensions><speed>1.662099</speed><course>68.428642</course><hAcc>1.493765</hAcc><vAcc>0.827259</vAcc></extensions></trkpt>
      <trkpt lon="-2.241149" lat="53.114758"><ele>126.936516</ele><time>2022-03-04T11:10:44Z</time><extensions><speed>1.654152</speed><course>64.617424</course><hAcc>1.501320</hAcc><vAcc>0.827382</vAcc></extensions></trkpt>
      <trkpt lon="-2.241127" lat="53.114765"><ele>127.035332</ele><time>2022-03-04T11:10:45Z</time><extensions><speed>1.646957</speed><course>64.656273</course><hAcc>1.475159</hAcc><vAcc>0.827500</vAcc></extensions></trkpt>
      <trkpt lon="-2.241105" lat="53.114771"><ele>127.137611</ele><time>2022-03-04T11:10:46Z</time><extensions><speed>1.639468</speed><course>66.455391</course><hAcc>1.444050</hAcc><vAcc>0.827603</vAcc></extensions></trkpt>
      <trkpt lon="-2.241083" lat="53.114777"><ele>127.237991</ele><time>2022-03-04T11:10:47Z</time><extensions><speed>1.609999</speed><course>62.223789</course><hAcc>1.426629</hAcc><vAcc>0.827689</vAcc></extensions></trkpt>
      <trkpt lon="-2.241062" lat="53.114784"><ele>127.330353</ele><time>2022-03-04T11:10:48Z</time><extensions><speed>1.585077</speed><course>61.418449</course><hAcc>1.401421</hAcc><vAcc>0.827768</vAcc></extensions></trkpt>
      <trkpt lon="-2.241042" lat="53.114790"><ele>127.424583</ele><time>2022-03-04T11:10:49Z</time><extensions><speed>1.534595</speed><course>60.543148</course><hAcc>1.376449</hAcc><vAcc>0.827838</vAcc></extensions></trkpt>
      <trkpt lon="-2.241023" lat="53.114797"><ele>127.508728</ele><time>2022-03-04T11:10:50Z</time><extensions><speed>1.506571</speed><course>59.522018</course><hAcc>1.370284</hAcc><vAcc>0.827915</vAcc></extensions></trkpt>
      <trkpt lon="-2.241004" lat="53.114804"><ele>127.591576</ele><time>2022-03-04T11:10:51Z</time><extensions><speed>1.528380</speed><course>60.742382</course><hAcc>1.377086</hAcc><vAcc>0.827966</vAcc></extensions></trkpt>
      <trkpt lon="-2.240984" lat="53.114810"><ele>127.662766</ele><time>2022-03-04T11:10:52Z</time><extensions><speed>1.498173</speed><course>61.614655</course><hAcc>1.374362</hAcc><vAcc>0.828020</vAcc></extensions></trkpt>
      <trkpt lon="-2.240965" lat="53.114816"><ele>127.728859</ele><time>2022-03-04T11:10:53Z</time><extensions><speed>1.473603</speed><course>61.670124</course><hAcc>1.366148</hAcc><vAcc>0.828061</vAcc></extensions></trkpt>
      <trkpt lon="-2.240946" lat="53.114823"><ele>127.798454</ele><time>2022-03-04T11:10:54Z</time><extensions><speed>1.460300</speed><course>61.371979</course><hAcc>1.356916</hAcc><vAcc>0.828097</vAcc></extensions></trkpt>
      <trkpt lon="-2.240927" lat="53.114829"><ele>127.864914</ele><time>2022-03-04T11:10:55Z</time><extensions><speed>1.433979</speed><course>65.041252</course><hAcc>1.347614</hAcc><vAcc>0.828135</vAcc></extensions></trkpt>
      <trkpt lon="-2.240909" lat="53.114834"><ele>127.935341</ele><time>2022-03-04T11:10:56Z</time><extensions><speed>1.436649</speed><course>64.654892</course><hAcc>1.350264</hAcc><vAcc>0.828179</vAcc></extensions></trkpt>
      <trkpt lon="-2.240890" lat="53.114840"><ele>127.990463</ele><time>2022-03-04T11:10:57Z</time><extensions><speed>1.444224</speed><course>62.470646</course><hAcc>1.355816</hAcc><vAcc>0.828217</vAcc></extensions></trkpt>
      <trkpt lon="-2.240871" lat="53.114846"><ele>128.031693</ele><time>2022-03-04T11:10:58Z</time><extensions><speed>1.478059</speed><course>60.250328</course><hAcc>1.356763</hAcc><vAcc>0.828259</vAcc></extensions></trkpt>
      <trkpt lon="-2.240853" lat="53.114853"><ele>128.066635</ele><time>2022-03-04T11:10:59Z</time><extensions><speed>1.463054</speed><course>57.941574</course><hAcc>1.354604</hAcc><vAcc>0.828306</vAcc></extensions></trkpt>
      <trkpt lon="-2.240835" lat="53.114859"><ele>128.093292</ele><time>2022-03-04T11:11:00Z</time><extensions><speed>1.413213</speed><course>56.834538</course><hAcc>1.352239</hAcc><vAcc>0.828347</vAcc></extensions></trkpt>
      <trkpt lon="-2.240817" lat="53.114866"><ele>128.113785</ele><time>2022-03-04T11:11:01Z</time><extensions><speed>1.453337</speed><course>60.239315</course><hAcc>1.367348</hAcc><vAcc>0.828395</vAcc></extensions></trkpt>
      <trkpt lon="-2.240798" lat="53.114872"><ele>128.115845</ele><time>2022-03-04T11:11:02Z</time><extensions><speed>1.421086</speed><course>63.900883</course><hAcc>1.370760</hAcc><vAcc>0.828446</vAcc></extensions></trkpt>
      <trkpt lon="-2.240779" lat="53.114878"><ele>128.110870</ele><time>2022-03-04T11:11:03Z</time><extensions><speed>1.415071</speed><course>62.273777</course><hAcc>1.388494</hAcc><vAcc>0.828481</vAcc></extensions></trkpt>
      <trkpt lon="-2.240761" lat="53.114884"><ele>128.093246</ele><time>2022-03-04T11:11:04Z</time><extensions><speed>1.365467</speed><course>59.332634</course><hAcc>1.409989</hAcc><vAcc>0.828511</vAcc></extensions></trkpt>
      <trkpt lon="-2.240744" lat="53.114890"><ele>128.077606</ele><time>2022-03-04T11:11:05Z</time><extensions><speed>1.336294</speed><course>55.815582</course><hAcc>1.430050</hAcc><vAcc>0.828538</vAcc></extensions></trkpt>
      <trkpt lon="-2.240728" lat="53.114897"><ele>128.057510</ele><time>2022-03-04T11:11:06Z</time><extensions><speed>1.233084</speed><course>56.467930</course><hAcc>1.446444</hAcc><vAcc>0.828554</vAcc></extensions></trkpt>
      <trkpt lon="-2.240713" lat="53.114902"><ele>128.028000</ele><time>2022-03-04T11:11:07Z</time><extensions><speed>1.098814</speed><course>58.904358</course><hAcc>1.477940</hAcc><vAcc>0.828570</vAcc></extensions></trkpt>
      <trkpt lon="-2.240700" lat="53.114907"><ele>127.976181</ele><time>2022-03-04T11:11:08Z</time><extensions><speed>0.992957</speed><course>61.727474</course><hAcc>1.523890</hAcc><vAcc>0.828580</vAcc></extensions></trkpt>
      <trkpt lon="-2.240687" lat="53.114911"><ele>127.918823</ele><time>2022-03-04T11:11:09Z</time><extensions><speed>0.952105</speed><course>63.024456</course><hAcc>1.529624</hAcc><vAcc>0.828599</vAcc></extensions></trkpt>
      <trkpt lon="-2.240673" lat="53.114915"><ele>127.856834</ele><time>2022-03-04T11:11:10Z</time><extensions><speed>1.017438</speed><course>65.000488</course><hAcc>1.568239</hAcc><vAcc>0.828609</vAcc></extensions></trkpt>
      <trkpt lon="-2.240659" lat="53.114919"><ele>127.801880</ele><time>2022-03-04T11:11:11Z</time><extensions><speed>1.111025</speed><course>66.587677</course><hAcc>1.621557</hAcc><vAcc>0.828613</vAcc></extensions></trkpt>
      <trkpt lon="-2.240643" lat="53.114922"><ele>127.749992</ele><time>2022-03-04T11:11:12Z</time><extensions><speed>1.160908</speed><course>74.144112</course><hAcc>1.622319</hAcc><vAcc>0.828606</vAcc></extensions></trkpt>
      <trkpt lon="-2.240625" lat="53.114925"><ele>127.703552</ele><time>2022-03-04T11:11:13Z</time><extensions><speed>1.224309</speed><course>78.198929</course><hAcc>1.634245</hAcc><vAcc>0.828595</vAcc></extensions></trkpt>
      <trkpt lon="-2.240607" lat="53.114927"><ele>127.659904</ele><time>2022-03-04T11:11:14Z</time><extensions><speed>1.303089</speed><course>77.898247</course><hAcc>1.635008</hAcc><vAcc>0.828578</vAcc></extensions></trkpt>
      <trkpt lon="-2.240587" lat="53.114930"><ele>127.618904</ele><time>2022-03-04T11:11:15Z</time><extensions><speed>1.363603</speed><course>76.228951</course><hAcc>1.619571</hAcc><vAcc>0.828555</vAcc></extensions></trkpt>
      <trkpt lon="-2.240567" lat="53.114933"><ele>127.591751</ele><time>2022-03-04T11:11:16Z</time><extensions><speed>1.411159</speed><course>73.624290</course><hAcc>1.607856</hAcc><vAcc>0.828527</vAcc></extensions></trkpt>
      <trkpt lon="-2.240548" lat="53.114937"><ele>127.578239</ele><time>2022-03-04T11:11:17Z</time><extensions><speed>1.364506</speed><course>71.083344</course><hAcc>1.611582</hAcc><vAcc>0.828492</vAcc></extensions></trkpt>
      <trkpt lon="-2.240530" lat="53.114941"><ele>127.577782</ele><time>2022-03-04T11:11:18Z</time><extensions><speed>1.228705</speed><course>67.851418</course><hAcc>1.603408</hAcc><vAcc>0.828450</vAcc></extensions></trkpt>
      <trkpt lon="-2.240512" lat="53.114945"><ele>127.588326</ele><time>2022-03-04T11:11:19Z</time><extensions><speed>1.293757</speed><course>70.987846</course><hAcc>1.551343</hAcc><vAcc>0.828399</vAcc></extensions></trkpt>
      <trkpt lon="-2.240492" lat="53.114949"><ele>127.593651</ele><time>2022-03-04T11:11:20Z</time><extensions><speed>1.490929</speed><course>72.104263</course><hAcc>1.525427</hAcc><vAcc>0.828348</vAcc></extensions></trkpt>
      <trkpt lon="-2.240471" lat="53.114953"><ele>127.603699</ele><time>2022-03-04T11:11:21Z</time><extensions><speed>1.596356</speed><course>72.663620</course><hAcc>1.531914</hAcc><vAcc>0.828288</vAcc></extensions></trkpt>
      <trkpt lon="-2.240448" lat="53.114957"><ele>127.618103</ele><time>2022-03-04T11:11:22Z</time><extensions><speed>1.617813</speed><course>74.648445</course><hAcc>1.488635</hAcc><vAcc>0.828225</vAcc></extensions></trkpt>
      <trkpt lon="-2.240425" lat="53.114960"><ele>127.651077</ele><time>2022-03-04T11:11:23Z</time><extensions><speed>1.604003</speed><course>76.625069</course><hAcc>1.451825</hAcc><vAcc>0.828169</vAcc></extensions></trkpt>
      <trkpt lon="-2.240402" lat="53.114963"><ele>127.683197</ele><time>2022-03-04T11:11:24Z</time><extensions><speed>1.574692</speed><course>78.511833</course><hAcc>1.444760</hAcc><vAcc>0.828113</vAcc></extensions></trkpt>
      <trkpt lon="-2.240379" lat="53.114965"><ele>127.720528</ele><time>2022-03-04T11:11:25Z</time><extensions><speed>1.549158</speed><course>81.769211</course><hAcc>1.435964</hAcc><vAcc>0.828071</vAcc></extensions></trkpt>
      <trkpt lon="-2.240357" lat="53.114968"><ele>127.753906</ele><time>2022-03-04T11:11:26Z</time><extensions><speed>1.526971</speed><course>80.003799</course><hAcc>1.418925</hAcc><vAcc>0.828033</vAcc></extensions></trkpt>
      <trkpt lon="-2.240335" lat="53.114970"><ele>127.796486</ele><time>2022-03-04T11:11:27Z</time><extensions><speed>1.498917</speed><course>79.712257</course><hAcc>1.408635</hAcc><vAcc>0.828008</vAcc></extensions></trkpt>
      <trkpt lon="-2.240313" lat="53.114973"><ele>127.835991</ele><time>2022-03-04T11:11:28Z</time><extensions><speed>1.492119</speed><course>77.124893</course><hAcc>1.416223</hAcc><vAcc>0.827993</vAcc></extensions></trkpt>
      <trkpt lon="-2.240291" lat="53.114976"><ele>127.877151</ele><time>2022-03-04T11:11:29Z</time><extensions><speed>1.478413</speed><course>76.190460</course><hAcc>1.428026</hAcc><vAcc>0.827980</vAcc></extensions></trkpt>
      <trkpt lon="-2.240270" lat="53.114978"><ele>127.920586</ele><time>2022-03-04T11:11:30Z</time><extensions><speed>1.423457</speed><course>77.374512</course><hAcc>1.439402</hAcc><vAcc>0.827976</vAcc></extensions></trkpt>
      <trkpt lon="-2.240249" lat="53.114980"><ele>127.969032</ele><time>2022-03-04T11:11:31Z</time><extensions><speed>1.386957</speed><course>83.587814</course><hAcc>1.450204</hAcc><vAcc>0.827987</vAcc></extensions></trkpt>
      <trkpt lon="-2.240229" lat="53.114981"><ele>128.006775</ele><time>2022-03-04T11:11:32Z</time><extensions><speed>1.298740</speed><course>90.827133</course><hAcc>1.454227</hAcc><vAcc>0.828003</vAcc></extensions></trkpt>
      <trkpt lon="-2.240211" lat="53.114980"><ele>128.048462</ele><time>2022-03-04T11:11:33Z</time><extensions><speed>1.183812</speed><course>95.519569</course><hAcc>1.471767</hAcc><vAcc>0.828019</vAcc></extensions></trkpt>
      <trkpt lon="-2.240194" lat="53.114979"><ele>128.091003</ele><time>2022-03-04T11:11:34Z</time><extensions><speed>1.061688</speed><course>97.689499</course><hAcc>1.516052</hAcc><vAcc>0.828037</vAcc></extensions></trkpt>
      <trkpt lon="-2.240178" lat="53.114978"><ele>128.131241</ele><time>2022-03-04T11:11:35Z</time><extensions><speed>1.072685</speed><course>98.293739</course><hAcc>1.551555</hAcc><vAcc>0.828056</vAcc></extensions></trkpt>
      <trkpt lon="-2.240162" lat="53.114976"><ele>128.171631</ele><time>2022-03-04T11:11:36Z</time><extensions><speed>1.069670</speed><course>98.857674</course><hAcc>1.561414</hAcc><vAcc>0.828067</vAcc></extensions></trkpt>
      <trkpt lon="-2.240147" lat="53.114975"><ele>128.189392</ele><time>2022-03-04T11:11:37Z</time><extensions><speed>1.066322</speed><course>100.497795</course><hAcc>1.574852</hAcc><vAcc>0.828074</vAcc></extensions></trkpt>
      <trkpt lon="-2.240132" lat="53.114973"><ele>128.214432</ele><time>2022-03-04T11:11:38Z</time><extensions><speed>1.027447</speed><course>104.732178</course><hAcc>1.570573</hAcc><vAcc>0.828074</vAcc></extensions></trkpt>
      <trkpt lon="-2.240117" lat="53.114970"><ele>128.246109</ele><time>2022-03-04T11:11:39Z</time><extensions><speed>1.048175</speed><course>108.652824</course><hAcc>1.594014</hAcc><vAcc>0.828067</vAcc></extensions></trkpt>
      <trkpt lon="-2.240102" lat="53.114966"><ele>128.277069</ele><time>2022-03-04T11:11:40Z</time><extensions><speed>1.118549</speed><course>111.776772</course><hAcc>1.608208</hAcc><vAcc>0.828043</vAcc></extensions></trkpt>
      <trkpt lon="-2.240085" lat="53.114963"><ele>128.300629</ele><time>2022-03-04T11:11:41Z</time><extensions><speed>1.201866</speed><course>110.696465</course><hAcc>1.596899</hAcc><vAcc>0.828004</vAcc></extensions></trkpt>
      <trkpt lon="-2.240068" lat="53.114959"><ele>128.323593</ele><time>2022-03-04T11:11:42Z</time><extensions><speed>1.252100</speed><course>106.316353</course><hAcc>1.624885</hAcc><vAcc>0.827954</vAcc></extensions></trkpt>
      <trkpt lon="-2.240050" lat="53.114956"><ele>128.356186</ele><time>2022-03-04T11:11:43Z</time><extensions><speed>1.267845</speed><course>100.698036</course><hAcc>1.646599</hAcc><vAcc>0.827892</vAcc></extensions></trkpt>
      <trkpt lon="-2.240031" lat="53.114954"><ele>128.372910</ele><time>2022-03-04T11:11:44Z</time><extensions><speed>1.297103</speed><course>106.616241</course><hAcc>1.615643</hAcc><vAcc>0.827825</vAcc></extensions></trkpt>
      <trkpt lon="-2.240013" lat="53.114950"><ele>128.395493</ele><time>2022-03-04T11:11:45Z</time><extensions><speed>1.303617</speed><course>112.154228</course><hAcc>1.611705</hAcc><vAcc>0.827756</vAcc></extensions></trkpt>
      <trkpt lon="-2.239995" lat="53.114945"><ele>128.422318</ele><time>2022-03-04T11:11:46Z</time><extensions><speed>1.277751</speed><course>114.980476</course><hAcc>1.637295</hAcc><vAcc>0.827671</vAcc></extensions></trkpt>
      <trkpt lon="-2.239978" lat="53.114940"><ele>128.456055</ele><time>2022-03-04T11:11:47Z</time><extensions><speed>1.242313</speed><course>115.335281</course><hAcc>1.667555</hAcc><vAcc>0.827578</vAcc></extensions></trkpt>
      <trkpt lon="-2.239962" lat="53.114935"><ele>128.490311</ele><time>2022-03-04T11:11:48Z</time><extensions><speed>1.187126</speed><course>122.053062</course><hAcc>1.638627</hAcc><vAcc>0.827478</vAcc></extensions></trkpt>
      <trkpt lon="-2.239947" lat="53.114929"><ele>128.524628</ele><time>2022-03-04T11:11:50Z</time><extensions><speed>1.221443</speed><course>127.153526</course><hAcc>1.625633</hAcc><vAcc>0.827393</vAcc></extensions></trkpt>
      <trkpt lon="-2.239933" lat="53.114922"><ele>128.577972</ele><time>2022-03-04T11:11:51Z</time><extensions><speed>1.288873</speed><course>127.993477</course><hAcc>1.626648</hAcc><vAcc>0.827308</vAcc></extensions></trkpt>
      <trkpt lon="-2.239917" lat="53.114915"><ele>128.634476</ele><time>2022-03-04T11:11:52Z</time><extensions><speed>1.358843</speed><course>126.722687</course><hAcc>1.587782</hAcc><vAcc>0.827260</vAcc></extensions></trkpt>
      <trkpt lon="-2.239900" lat="53.114907"><ele>128.707626</ele><time>2022-03-04T11:11:53Z</time><extensions><speed>1.450626</speed><course>123.721031</course><hAcc>1.567828</hAcc><vAcc>0.827220</vAcc></extensions></trkpt>
      <trkpt lon="-2.239881" lat="53.114900"><ele>128.782043</ele><time>2022-03-04T11:11:54Z</time><extensions><speed>1.501112</speed><course>121.149155</course><hAcc>1.599127</hAcc><vAcc>0.827211</vAcc></extensions></trkpt>
      <trkpt lon="-2.239861" lat="53.114894"><ele>128.868744</ele><time>2022-03-04T11:11:55Z</time><extensions><speed>1.508742</speed><course>116.744690</course><hAcc>1.617596</hAcc><vAcc>0.827229</vAcc></extensions></trkpt>
      <trkpt lon="-2.239841" lat="53.114887"><ele>128.946777</ele><time>2022-03-04T11:11:56Z</time><extensions><speed>1.496993</speed><course>118.040565</course><hAcc>1.593412</hAcc><vAcc>0.827262</vAcc></extensions></trkpt>
      <trkpt lon="-2.239822" lat="53.114881"><ele>129.049820</ele><time>2022-03-04T11:11:57Z</time><extensions><speed>1.447807</speed><course>117.852547</course><hAcc>1.566527</hAcc><vAcc>0.827300</vAcc></extensions></trkpt>
      <trkpt lon="-2.239803" lat="53.114875"><ele>129.145523</ele><time>2022-03-04T11:11:58Z</time><extensions><speed>1.393199</speed><course>118.031639</course><hAcc>1.571168</hAcc><vAcc>0.827349</vAcc></extensions></trkpt>
      <trkpt lon="-2.239785" lat="53.114869"><ele>129.227081</ele><time>2022-03-04T11:11:59Z</time><extensions><speed>1.304530</speed><course>118.004372</course><hAcc>1.593846</hAcc><vAcc>0.827396</vAcc></extensions></trkpt>
      <trkpt lon="-2.239768" lat="53.114864"><ele>129.318558</ele><time>2022-03-04T11:12:00Z</time><extensions><speed>1.239974</speed><course>117.183022</course><hAcc>1.629956</hAcc><vAcc>0.827442</vAcc></extensions></trkpt>
      <trkpt lon="-2.239751" lat="53.114859"><ele>129.413712</ele><time>2022-03-04T11:12:01Z</time><extensions><speed>1.253989</speed><course>117.470490</course><hAcc>1.614255</hAcc><vAcc>0.827487</vAcc></extensions></trkpt>
      <trkpt lon="-2.239734" lat="53.114853"><ele>129.529053</ele><time>2022-03-04T11:12:02Z</time><extensions><speed>1.286635</speed><course>117.139252</course><hAcc>1.620629</hAcc><vAcc>0.827567</vAcc></extensions></trkpt>
      <trkpt lon="-2.239717" lat="53.114848"><ele>129.674652</ele><time>2022-03-04T11:12:03Z</time><extensions><speed>1.342114</speed><course>117.211472</course><hAcc>1.640316</hAcc><vAcc>0.827619</vAcc></extensions></trkpt>
      <trkpt lon="-2.239699" lat="53.114842"><ele>129.807449</ele><time>2022-03-04T11:12:04Z</time><extensions><speed>1.365021</speed><course>118.042305</course><hAcc>1.633250</hAcc><vAcc>0.827649</vAcc></extensions></trkpt>
      <trkpt lon="-2.239681" lat="53.114836"><ele>129.931107</ele><time>2022-03-04T11:12:05Z</time><extensions><speed>1.308792</speed><course>117.161949</course><hAcc>1.644603</hAcc><vAcc>0.827667</vAcc></extensions></trkpt>
      <trkpt lon="-2.239663" lat="53.114831"><ele>130.059311</ele><time>2022-03-04T11:12:06Z</time><extensions><speed>1.359551</speed><course>115.611313</course><hAcc>1.656032</hAcc><vAcc>0.827643</vAcc></extensions></trkpt>
      <trkpt lon="-2.239644" lat="53.114825"><ele>130.203323</ele><time>2022-03-04T11:12:07Z</time><extensions><speed>1.490181</speed><course>118.296974</course><hAcc>1.632471</hAcc><vAcc>0.827595</vAcc></extensions></trkpt>
      <trkpt lon="-2.239625" lat="53.114818"><ele>130.337494</ele><time>2022-03-04T11:12:08Z</time><extensions><speed>1.470759</speed><course>119.973679</course><hAcc>1.615319</hAcc><vAcc>0.827501</vAcc></extensions></trkpt>
      <trkpt lon="-2.239606" lat="53.114812"><ele>130.476746</ele><time>2022-03-04T11:12:09Z</time><extensions><speed>1.343783</speed><course>121.205849</course><hAcc>1.605817</hAcc><vAcc>0.827347</vAcc></extensions></trkpt>
      <trkpt lon="-2.239590" lat="53.114805"><ele>130.620758</ele><time>2022-03-04T11:12:10Z</time><extensions><speed>1.305209</speed><course>122.966614</course><hAcc>1.601535</hAcc><vAcc>0.827119</vAcc></extensions></trkpt>
      <trkpt lon="-2.239574" lat="53.114799"><ele>130.777863</ele><time>2022-03-04T11:12:11Z</time><extensions><speed>1.264481</speed><course>122.241959</course><hAcc>1.631744</hAcc><vAcc>0.826741</vAcc></extensions></trkpt>
      <trkpt lon="-2.239559" lat="53.114793"><ele>130.924042</ele><time>2022-03-04T11:12:12Z</time><extensions><speed>1.141595</speed><course>125.481331</course><hAcc>1.642969</hAcc><vAcc>0.826314</vAcc></extensions></trkpt>
      <trkpt lon="-2.239545" lat="53.114786"><ele>131.047623</ele><time>2022-03-04T11:12:13Z</time><extensions><speed>1.161495</speed><course>128.324554</course><hAcc>1.614009</hAcc><vAcc>0.825803</vAcc></extensions></trkpt>
      <trkpt lon="-2.239532" lat="53.114780"><ele>131.164917</ele><time>2022-03-04T11:12:14Z</time><extensions><speed>1.089411</speed><course>126.436592</course><hAcc>1.625666</hAcc><vAcc>0.825273</vAcc></extensions></trkpt>
      <trkpt lon="-2.239519" lat="53.114774"><ele>131.274750</ele><time>2022-03-04T11:12:15Z</time><extensions><speed>1.078844</speed><course>131.956406</course><hAcc>1.611357</hAcc><vAcc>0.824686</vAcc></extensions></trkpt>
      <trkpt lon="-2.239508" lat="53.114767"><ele>131.409256</ele><time>2022-03-04T11:12:16Z</time><extensions><speed>1.007881</speed><course>134.855865</course><hAcc>1.617707</hAcc><vAcc>0.824048</vAcc></extensions></trkpt>
      <trkpt lon="-2.239497" lat="53.114760"><ele>131.542175</ele><time>2022-03-04T11:12:17Z</time><extensions><speed>0.983832</speed><course>135.769592</course><hAcc>1.630123</hAcc><vAcc>0.823410</vAcc></extensions></trkpt>
      <trkpt lon="-2.239487" lat="53.114753"><ele>131.674637</ele><time>2022-03-04T11:12:18Z</time><extensions><speed>1.114312</speed><course>140.783737</course><hAcc>1.633587</hAcc><vAcc>0.822804</vAcc></extensions></trkpt>
      <trkpt lon="-2.239476" lat="53.114745"><ele>131.796005</ele><time>2022-03-04T11:12:19Z</time><extensions><speed>1.238626</speed><course>144.213333</course><hAcc>1.635110</hAcc><vAcc>0.822247</vAcc></extensions></trkpt>
      <trkpt lon="-2.239464" lat="53.114735"><ele>131.904800</ele><time>2022-03-04T11:12:20Z</time><extensions><speed>1.307912</speed><course>143.127640</course><hAcc>1.638153</hAcc><vAcc>0.821793</vAcc></extensions></trkpt>
      <trkpt lon="-2.239451" lat="53.114724"><ele>132.017654</ele><time>2022-03-04T11:12:21Z</time><extensions><speed>1.613210</speed><course>146.357880</course><hAcc>1.597989</hAcc><vAcc>0.821452</vAcc></extensions></trkpt>
      <trkpt lon="-2.239437" lat="53.114711"><ele>132.114288</ele><time>2022-03-04T11:12:22Z</time><extensions><speed>1.806056</speed><course>146.527069</course><hAcc>1.580181</hAcc><vAcc>0.821256</vAcc></extensions></trkpt>
      <trkpt lon="-2.239421" lat="53.114698"><ele>132.222519</ele><time>2022-03-04T11:12:23Z</time><extensions><speed>1.906916</speed><course>145.691849</course><hAcc>1.588472</hAcc><vAcc>0.821203</vAcc></extensions></trkpt>
      <trkpt lon="-2.239405" lat="53.114684"><ele>132.332352</ele><time>2022-03-04T11:12:24Z</time><extensions><speed>1.760386</speed><course>143.129456</course><hAcc>1.617985</hAcc><vAcc>0.821301</vAcc></extensions></trkpt>
      <trkpt lon="-2.239389" lat="53.114671"><ele>132.428482</ele><time>2022-03-04T11:12:25Z</time><extensions><speed>1.867315</speed><course>142.175919</course><hAcc>1.595065</hAcc><vAcc>0.821515</vAcc></extensions></trkpt>
      <trkpt lon="-2.239371" lat="53.114658"><ele>132.523956</ele><time>2022-03-04T11:12:26Z</time><extensions><speed>1.958527</speed><course>138.665466</course><hAcc>1.572177</hAcc><vAcc>0.821818</vAcc></extensions></trkpt>
      <trkpt lon="-2.239351" lat="53.114645"><ele>132.622772</ele><time>2022-03-04T11:12:27Z</time><extensions><speed>1.867848</speed><course>134.626801</course><hAcc>1.592295</hAcc><vAcc>0.822169</vAcc></extensions></trkpt>
      <trkpt lon="-2.239331" lat="53.114634"><ele>132.706009</ele><time>2022-03-04T11:12:28Z</time><extensions><speed>1.787965</speed><course>130.607742</course><hAcc>1.606756</hAcc><vAcc>0.822559</vAcc></extensions></trkpt>
      <trkpt lon="-2.239311" lat="53.114625"><ele>132.782135</ele><time>2022-03-04T11:12:29Z</time><extensions><speed>1.644216</speed><course>129.012482</course><hAcc>1.610616</hAcc><vAcc>0.822963</vAcc></extensions></trkpt>
      <trkpt lon="-2.239293" lat="53.114616"><ele>132.858047</ele><time>2022-03-04T11:12:30Z</time><extensions><speed>1.485113</speed><course>129.958252</course><hAcc>1.630566</hAcc><vAcc>0.823364</vAcc></extensions></trkpt>
      <trkpt lon="-2.239277" lat="53.114607"><ele>132.934082</ele><time>2022-03-04T11:12:31Z</time><extensions><speed>1.450173</speed><course>130.943817</course><hAcc>1.628221</hAcc><vAcc>0.823747</vAcc></extensions></trkpt>
      <trkpt lon="-2.239260" lat="53.114598"><ele>132.996872</ele><time>2022-03-04T11:12:32Z</time><extensions><speed>1.440138</speed><course>131.553574</course><hAcc>1.634495</hAcc><vAcc>0.824104</vAcc></extensions></trkpt>
      <trkpt lon="-2.239244" lat="53.114590"><ele>133.058502</ele><time>2022-03-04T11:12:33Z</time><extensions><speed>1.454623</speed><course>133.049652</course><hAcc>1.640858</hAcc><vAcc>0.824413</vAcc></extensions></trkpt>
      <trkpt lon="-2.239229" lat="53.114581"><ele>133.121674</ele><time>2022-03-04T11:12:34Z</time><extensions><speed>1.363109</speed><course>134.808044</course><hAcc>1.645998</hAcc><vAcc>0.824677</vAcc></extensions></trkpt>
      <trkpt lon="-2.239215" lat="53.114573"><ele>133.174698</ele><time>2022-03-04T11:12:35Z</time><extensions><speed>1.310844</speed><course>133.299301</course><hAcc>1.647274</hAcc><vAcc>0.824913</vAcc></extensions></trkpt>
      <trkpt lon="-2.239201" lat="53.114565"><ele>133.223221</ele><time>2022-03-04T11:12:36Z</time><extensions><speed>1.206018</speed><course>132.291306</course><hAcc>1.651222</hAcc><vAcc>0.825123</vAcc></extensions></trkpt>
      <trkpt lon="-2.239188" lat="53.114558"><ele>133.270279</ele><time>2022-03-04T11:12:37Z</time><extensions><speed>1.098452</speed><course>133.927582</course><hAcc>1.636122</hAcc><vAcc>0.825282</vAcc></extensions></trkpt>
      <trkpt lon="-2.239176" lat="53.114551"><ele>133.315979</ele><time>2022-03-04T11:12:38Z</time><extensions><speed>1.126570</speed><course>134.025345</course><hAcc>1.628020</hAcc><vAcc>0.825409</vAcc></extensions></trkpt>
      <trkpt lon="-2.239164" lat="53.114544"><ele>133.352005</ele><time>2022-03-04T11:12:39Z</time><extensions><speed>1.204241</speed><course>134.288528</course><hAcc>1.627591</hAcc><vAcc>0.825487</vAcc></extensions></trkpt>
      <trkpt lon="-2.239151" lat="53.114536"><ele>133.400635</ele><time>2022-03-04T11:12:40Z</time><extensions><speed>1.248165</speed><course>134.457321</course><hAcc>1.626769</hAcc><vAcc>0.825524</vAcc></extensions></trkpt>
      <trkpt lon="-2.239138" lat="53.114528"><ele>133.447433</ele><time>2022-03-04T11:12:41Z</time><extensions><speed>1.214027</speed><course>134.695877</course><hAcc>1.635150</hAcc><vAcc>0.825563</vAcc></extensions></trkpt>
      <trkpt lon="-2.239125" lat="53.114521"><ele>133.484787</ele><time>2022-03-04T11:12:42Z</time><extensions><speed>1.186602</speed><course>136.214859</course><hAcc>1.633022</hAcc><vAcc>0.825569</vAcc></extensions></trkpt>
      <trkpt lon="-2.239113" lat="53.114513"><ele>133.528442</ele><time>2022-03-04T11:12:43Z</time><extensions><speed>1.198836</speed><course>136.325699</course><hAcc>1.586531</hAcc><vAcc>0.825550</vAcc></extensions></trkpt>
      <trkpt lon="-2.239100" lat="53.114505"><ele>133.584549</ele><time>2022-03-04T11:12:44Z</time><extensions><speed>1.237639</speed><course>135.780014</course><hAcc>1.562313</hAcc><vAcc>0.825512</vAcc></extensions></trkpt>
      <trkpt lon="-2.239087" lat="53.114497"><ele>133.636841</ele><time>2022-03-04T11:12:45Z</time><extensions><speed>1.276281</speed><course>135.706116</course><hAcc>1.578164</hAcc><vAcc>0.825469</vAcc></extensions></trkpt>
      <trkpt lon="-2.239074" lat="53.114488"><ele>133.690674</ele><time>2022-03-04T11:12:45Z</time><extensions><speed>1.308426</speed><course>138.089722</course><hAcc>1.620231</hAcc><vAcc>0.825457</vAcc></extensions></trkpt>
      <trkpt lon="-2.239061" lat="53.114479"><ele>133.730988</ele><time>2022-03-04T11:12:46Z</time><extensions><speed>1.363810</speed><course>139.863693</course><hAcc>1.607782</hAcc><vAcc>0.825430</vAcc></extensions></trkpt>
      <trkpt lon="-2.239047" lat="53.114470"><ele>133.784821</ele><time>2022-03-04T11:12:47Z</time><extensions><speed>1.339839</speed><course>138.054047</course><hAcc>1.590958</hAcc><vAcc>0.825374</vAcc></extensions></trkpt>
      <trkpt lon="-2.239034" lat="53.114462"><ele>133.832718</ele><time>2022-03-04T11:12:48Z</time><extensions><speed>1.249049</speed><course>136.150833</course><hAcc>1.583473</hAcc><vAcc>0.825313</vAcc></extensions></trkpt>
      <trkpt lon="-2.239022" lat="53.114454"><ele>133.885941</ele><time>2022-03-04T11:12:49Z</time><extensions><speed>1.161851</speed><course>133.576218</course><hAcc>1.602448</hAcc><vAcc>0.825243</vAcc></extensions></trkpt>
      <trkpt lon="-2.239009" lat="53.114447"><ele>133.933609</ele><time>2022-03-04T11:12:50Z</time><extensions><speed>1.171227</speed><course>134.843445</course><hAcc>1.637151</hAcc><vAcc>0.825175</vAcc></extensions></trkpt>
      <trkpt lon="-2.238997" lat="53.114439"><ele>133.977631</ele><time>2022-03-04T11:12:51Z</time><extensions><speed>1.179781</speed><course>137.292160</course><hAcc>1.633212</hAcc><vAcc>0.825096</vAcc></extensions></trkpt>
      <trkpt lon="-2.238985" lat="53.114431"><ele>134.029602</ele><time>2022-03-04T11:12:52Z</time><extensions><speed>1.261750</speed><course>140.363998</course><hAcc>1.629588</hAcc><vAcc>0.825008</vAcc></extensions></trkpt>
      <trkpt lon="-2.238973" lat="53.114422"><ele>134.078888</ele><time>2022-03-04T11:12:53Z</time><extensions><speed>1.358542</speed><course>142.601883</course><hAcc>1.636797</hAcc><vAcc>0.824913</vAcc></extensions></trkpt>
      <trkpt lon="-2.238960" lat="53.114412"><ele>134.135345</ele><time>2022-03-04T11:12:54Z</time><extensions><speed>1.408292</speed><course>143.296997</course><hAcc>1.651901</hAcc><vAcc>0.824819</vAcc></extensions></trkpt>
      <trkpt lon="-2.238948" lat="53.114402"><ele>134.196808</ele><time>2022-03-04T11:12:55Z</time><extensions><speed>1.407614</speed><course>142.983109</course><hAcc>1.657427</hAcc><vAcc>0.824696</vAcc></extensions></trkpt>
      <trkpt lon="-2.238935" lat="53.114392"><ele>134.252411</ele><time>2022-03-04T11:12:56Z</time><extensions><speed>1.347348</speed><course>141.778137</course><hAcc>1.639097</hAcc><vAcc>0.824570</vAcc></extensions></trkpt>
      <trkpt lon="-2.238923" lat="53.114382"><ele>134.289886</ele><time>2022-03-04T11:12:57Z</time><extensions><speed>1.305435</speed><course>141.170898</course><hAcc>1.613018</hAcc><vAcc>0.824436</vAcc></extensions></trkpt>
      <trkpt lon="-2.238910" lat="53.114373"><ele>134.337753</ele><time>2022-03-04T11:12:58Z</time><extensions><speed>1.313591</speed><course>140.282791</course><hAcc>1.602451</hAcc><vAcc>0.824290</vAcc></extensions></trkpt>
      <trkpt lon="-2.238898" lat="53.114364"><ele>134.387634</ele><time>2022-03-04T11:12:59Z</time><extensions><speed>1.351176</speed><course>140.271561</course><hAcc>1.600330</hAcc><vAcc>0.824135</vAcc></extensions></trkpt>
      <trkpt lon="-2.238885" lat="53.114354"><ele>134.443329</ele><time>2022-03-04T11:13:00Z</time><extensions><speed>1.419623</speed><course>141.263657</course><hAcc>1.606456</hAcc><vAcc>0.824005</vAcc></extensions></trkpt>
      <trkpt lon="-2.238872" lat="53.114344"><ele>134.500870</ele><time>2022-03-04T11:13:01Z</time><extensions><speed>1.406756</speed><course>142.490173</course><hAcc>1.590230</hAcc><vAcc>0.823870</vAcc></extensions></trkpt>
      <trkpt lon="-2.238859" lat="53.114334"><ele>134.555618</ele><time>2022-03-04T11:13:02Z</time><extensions><speed>1.379769</speed><course>142.607071</course><hAcc>1.579855</hAcc><vAcc>0.823733</vAcc></extensions></trkpt>
      <trkpt lon="-2.238846" lat="53.114325"><ele>134.608734</ele><time>2022-03-04T11:13:03Z</time><extensions><speed>1.388769</speed><course>140.219910</course><hAcc>1.595986</hAcc><vAcc>0.823601</vAcc></extensions></trkpt>
      <trkpt lon="-2.238833" lat="53.114315"><ele>134.679459</ele><time>2022-03-04T11:13:04Z</time><extensions><speed>1.385927</speed><course>138.943710</course><hAcc>1.622758</hAcc><vAcc>0.823478</vAcc></extensions></trkpt>
      <trkpt lon="-2.238820" lat="53.114305"><ele>134.743652</ele><time>2022-03-04T11:13:05Z</time><extensions><speed>1.368169</speed><course>141.971909</course><hAcc>1.590234</hAcc><vAcc>0.823356</vAcc></extensions></trkpt>
      <trkpt lon="-2.238807" lat="53.114296"><ele>134.809738</ele><time>2022-03-04T11:13:06Z</time><extensions><speed>1.353007</speed><course>143.252289</course><hAcc>1.592614</hAcc><vAcc>0.823259</vAcc></extensions></trkpt>
      <trkpt lon="-2.238796" lat="53.114286"><ele>134.869888</ele><time>2022-03-04T11:13:07Z</time><extensions><speed>1.329361</speed><course>144.540787</course><hAcc>1.614856</hAcc><vAcc>0.823175</vAcc></extensions></trkpt>
      <trkpt lon="-2.238784" lat="53.114276"><ele>134.915451</ele><time>2022-03-04T11:13:08Z</time><extensions><speed>1.321151</speed><course>145.261490</course><hAcc>1.622928</hAcc><vAcc>0.823114</vAcc></extensions></trkpt>
      <trkpt lon="-2.238773" lat="53.114266"><ele>134.970367</ele><time>2022-03-04T11:13:09Z</time><extensions><speed>1.357626</speed><course>144.401505</course><hAcc>1.628271</hAcc><vAcc>0.823052</vAcc></extensions></trkpt>
      <trkpt lon="-2.238761" lat="53.114256"><ele>135.044266</ele><time>2022-03-04T11:13:10Z</time><extensions><speed>1.396102</speed><course>143.573318</course><hAcc>1.644050</hAcc><vAcc>0.823018</vAcc></extensions></trkpt>
      <trkpt lon="-2.238748" lat="53.114246"><ele>135.119949</ele><time>2022-03-04T11:13:11Z</time><extensions><speed>1.401959</speed><course>141.582214</course><hAcc>1.658181</hAcc><vAcc>0.823003</vAcc></extensions></trkpt>
      <trkpt lon="-2.238735" lat="53.114236"><ele>135.202255</ele><time>2022-03-04T11:13:12Z</time><extensions><speed>1.399670</speed><course>141.827515</course><hAcc>1.651871</hAcc><vAcc>0.822985</vAcc></extensions></trkpt>
      <trkpt lon="-2.238722" lat="53.114226"><ele>135.285294</ele><time>2022-03-04T11:13:13Z</time><extensions><speed>1.406317</speed><course>141.734467</course><hAcc>1.627886</hAcc><vAcc>0.822981</vAcc></extensions></trkpt>
      <trkpt lon="-2.238709" lat="53.114216"><ele>135.363815</ele><time>2022-03-04T11:13:14Z</time><extensions><speed>1.420864</speed><course>145.293808</course><hAcc>1.619199</hAcc><vAcc>0.823009</vAcc></extensions></trkpt>
      <trkpt lon="-2.238698" lat="53.114205"><ele>135.449234</ele><time>2022-03-04T11:13:15Z</time><extensions><speed>1.417102</speed><course>147.910675</course><hAcc>1.617887</hAcc><vAcc>0.823042</vAcc></extensions></trkpt>
      <trkpt lon="-2.238687" lat="53.114194"><ele>135.532166</ele><time>2022-03-04T11:13:16Z</time><extensions><speed>1.424135</speed><course>149.963181</course><hAcc>1.616388</hAcc><vAcc>0.823086</vAcc></extensions></trkpt>
      <trkpt lon="-2.238676" lat="53.114183"><ele>135.632034</ele><time>2022-03-04T11:13:17Z</time><extensions><speed>1.405562</speed><course>149.519043</course><hAcc>1.636123</hAcc><vAcc>0.823138</vAcc></extensions></trkpt>
      <trkpt lon="-2.238665" lat="53.114173"><ele>135.724823</ele><time>2022-03-04T11:13:18Z</time><extensions><speed>1.339830</speed><course>146.022797</course><hAcc>1.650629</hAcc><vAcc>0.823197</vAcc></extensions></trkpt>
      <trkpt lon="-2.238654" lat="53.114163"><ele>135.819473</ele><time>2022-03-04T11:13:19Z</time><extensions><speed>1.412817</speed><course>148.356964</course><hAcc>1.606681</hAcc><vAcc>0.823263</vAcc></extensions></trkpt>
      <trkpt lon="-2.238643" lat="53.114151"><ele>135.904831</ele><time>2022-03-04T11:13:20Z</time><extensions><speed>1.444662</speed><course>151.448441</course><hAcc>1.582475</hAcc><vAcc>0.823322</vAcc></extensions></trkpt>
      <trkpt lon="-2.238633" lat="53.114140"><ele>135.993942</ele><time>2022-03-04T11:13:21Z</time><extensions><speed>1.461304</speed><course>150.943649</course><hAcc>1.577842</hAcc><vAcc>0.823387</vAcc></extensions></trkpt>
      <trkpt lon="-2.238622" lat="53.114129"><ele>136.084457</ele><time>2022-03-04T11:13:22Z</time><extensions><speed>1.450866</speed><course>149.704697</course><hAcc>1.581043</hAcc><vAcc>0.823450</vAcc></extensions></trkpt>
      <trkpt lon="-2.238611" lat="53.114118"><ele>136.174393</ele><time>2022-03-04T11:13:23Z</time><extensions><speed>1.387125</speed><course>149.016357</course><hAcc>1.608358</hAcc><vAcc>0.823521</vAcc></extensions></trkpt>
      <trkpt lon="-2.238601" lat="53.114108"><ele>136.262878</ele><time>2022-03-04T11:13:24Z</time><extensions><speed>1.166267</speed><course>143.398346</course><hAcc>1.635764</hAcc><vAcc>0.823626</vAcc></extensions></trkpt>
      <trkpt lon="-2.238590" lat="53.114099"><ele>136.345016</ele><time>2022-03-04T11:13:25Z</time><extensions><speed>1.267743</speed><course>142.257172</course><hAcc>1.579441</hAcc><vAcc>0.823758</vAcc></extensions></trkpt>
      <trkpt lon="-2.238578" lat="53.114090"><ele>136.425827</ele><time>2022-03-04T11:13:26Z</time><extensions><speed>1.309790</speed><course>141.597382</course><hAcc>1.561191</hAcc><vAcc>0.823901</vAcc></extensions></trkpt>
      <trkpt lon="-2.238566" lat="53.114081"><ele>136.508438</ele><time>2022-03-04T11:13:27Z</time><extensions><speed>1.283653</speed><course>140.314178</course><hAcc>1.579894</hAcc><vAcc>0.824079</vAcc></extensions></trkpt>
      <trkpt lon="-2.238554" lat="53.114072"><ele>136.590958</ele><time>2022-03-04T11:13:28Z</time><extensions><speed>1.262241</speed><course>140.480804</course><hAcc>1.601950</hAcc><vAcc>0.824244</vAcc></extensions></trkpt>
      <trkpt lon="-2.238542" lat="53.114063"><ele>136.676178</ele><time>2022-03-04T11:13:29Z</time><extensions><speed>1.347553</speed><course>143.117477</course><hAcc>1.601016</hAcc><vAcc>0.824440</vAcc></extensions></trkpt>
      <trkpt lon="-2.238530" lat="53.114053"><ele>136.755829</ele><time>2022-03-04T11:13:30Z</time><extensions><speed>1.369665</speed><course>146.998306</course><hAcc>1.568484</hAcc><vAcc>0.824642</vAcc></extensions></trkpt>
      <trkpt lon="-2.238519" lat="53.114042"><ele>136.839828</ele><time>2022-03-04T11:13:31Z</time><extensions><speed>1.384282</speed><course>148.739868</course><hAcc>1.547540</hAcc><vAcc>0.824865</vAcc></extensions></trkpt>
      <trkpt lon="-2.238509" lat="53.114031"><ele>136.927002</ele><time>2022-03-04T11:13:32Z</time><extensions><speed>1.480671</speed><course>149.627411</course><hAcc>1.497166</hAcc><vAcc>0.825123</vAcc></extensions></trkpt>
      <trkpt lon="-2.238497" lat="53.114020"><ele>137.027771</ele><time>2022-03-04T11:13:33Z</time><extensions><speed>1.546668</speed><course>150.411957</course><hAcc>1.471224</hAcc><vAcc>0.825378</vAcc></extensions></trkpt>
      <trkpt lon="-2.238486" lat="53.114008"><ele>137.138046</ele><time>2022-03-04T11:13:34Z</time><extensions><speed>1.543688</speed><course>146.732635</course><hAcc>1.491797</hAcc><vAcc>0.825601</vAcc></extensions></trkpt>
      <trkpt lon="-2.238473" lat="53.113996"><ele>137.243546</ele><time>2022-03-04T11:13:35Z</time><extensions><speed>1.555873</speed><course>146.591049</course><hAcc>1.469584</hAcc><vAcc>0.825804</vAcc></extensions></trkpt>
      <trkpt lon="-2.238460" lat="53.113985"><ele>137.336899</ele><time>2022-03-04T11:13:36Z</time><extensions><speed>1.515353</speed><course>147.513885</course><hAcc>1.464683</hAcc><vAcc>0.825973</vAcc></extensions></trkpt>
      <trkpt lon="-2.238448" lat="53.113974"><ele>137.442825</ele><time>2022-03-04T11:13:37Z</time><extensions><speed>1.479934</speed><course>146.477646</course><hAcc>1.439874</hAcc><vAcc>0.826079</vAcc></extensions></trkpt>
      <trkpt lon="-2.238437" lat="53.113963"><ele>137.533310</ele><time>2022-03-04T11:13:38Z</time><extensions><speed>1.407295</speed><course>148.434891</course><hAcc>1.388635</hAcc><vAcc>0.826138</vAcc></extensions></trkpt>
      <trkpt lon="-2.238426" lat="53.113952"><ele>137.630188</ele><time>2022-03-04T11:13:39Z</time><extensions><speed>1.434408</speed><course>149.912918</course><hAcc>1.404083</hAcc><vAcc>0.826159</vAcc></extensions></trkpt>
      <trkpt lon="-2.238415" lat="53.113940"><ele>137.721069</ele><time>2022-03-04T11:13:40Z</time><extensions><speed>1.477768</speed><course>149.780472</course><hAcc>1.444232</hAcc><vAcc>0.826145</vAcc></extensions></trkpt>
      <trkpt lon="-2.238403" lat="53.113929"><ele>137.816666</ele><time>2022-03-04T11:13:41Z</time><extensions><speed>1.487839</speed><course>147.200302</course><hAcc>1.457952</hAcc><vAcc>0.826084</vAcc></extensions></trkpt>
      <trkpt lon="-2.238391" lat="53.113918"><ele>137.898651</ele><time>2022-03-04T11:13:42Z</time><extensions><speed>1.440880</speed><course>147.108780</course><hAcc>1.451440</hAcc><vAcc>0.825953</vAcc></extensions></trkpt>
      <trkpt lon="-2.238380" lat="53.113907"><ele>137.984619</ele><time>2022-03-04T11:13:43Z</time><extensions><speed>1.381266</speed><course>144.219330</course><hAcc>1.459608</hAcc><vAcc>0.825794</vAcc></extensions></trkpt>
      <trkpt lon="-2.238368" lat="53.113898"><ele>138.064484</ele><time>2022-03-04T11:13:44Z</time><extensions><speed>1.236966</speed><course>143.182892</course><hAcc>1.458649</hAcc><vAcc>0.825577</vAcc></extensions></trkpt>
      <trkpt lon="-2.238357" lat="53.113889"><ele>138.137650</ele><time>2022-03-04T11:13:45Z</time><extensions><speed>1.167181</speed><course>143.345184</course><hAcc>1.511155</hAcc><vAcc>0.825344</vAcc></extensions></trkpt>
      <trkpt lon="-2.238347" lat="53.113881"><ele>138.210632</ele><time>2022-03-04T11:13:46Z</time><extensions><speed>1.203764</speed><course>142.989960</course><hAcc>1.551005</hAcc><vAcc>0.825085</vAcc></extensions></trkpt>
      <trkpt lon="-2.238336" lat="53.113872"><ele>138.263397</ele><time>2022-03-04T11:13:47Z</time><extensions><speed>1.233371</speed><course>142.971710</course><hAcc>1.551904</hAcc><vAcc>0.824834</vAcc></extensions></trkpt>
      <trkpt lon="-2.238324" lat="53.113863"><ele>138.312698</ele><time>2022-03-04T11:13:48Z</time><extensions><speed>1.296733</speed><course>144.294205</course><hAcc>1.581055</hAcc><vAcc>0.824611</vAcc></extensions></trkpt>
      <trkpt lon="-2.238313" lat="53.113853"><ele>138.363922</ele><time>2022-03-04T11:13:49Z</time><extensions><speed>1.299844</speed><course>144.734192</course><hAcc>1.603709</hAcc><vAcc>0.824420</vAcc></extensions></trkpt>
      <trkpt lon="-2.238302" lat="53.113844"><ele>138.398926</ele><time>2022-03-04T11:13:50Z</time><extensions><speed>1.312532</speed><course>143.965591</course><hAcc>1.627741</hAcc><vAcc>0.824267</vAcc></extensions></trkpt>
      <trkpt lon="-2.238290" lat="53.113834"><ele>138.441193</ele><time>2022-03-04T11:13:51Z</time><extensions><speed>1.343092</speed><course>143.301056</course><hAcc>1.615770</hAcc><vAcc>0.824175</vAcc></extensions></trkpt>
      <trkpt lon="-2.238278" lat="53.113825"><ele>138.486526</ele><time>2022-03-04T11:13:52Z</time><extensions><speed>1.307067</speed><course>142.302933</course><hAcc>1.607789</hAcc><vAcc>0.824133</vAcc></extensions></trkpt>
      <trkpt lon="-2.238266" lat="53.113816"><ele>138.534164</ele><time>2022-03-04T11:13:53Z</time><extensions><speed>1.250334</speed><course>142.158569</course><hAcc>1.603814</hAcc><vAcc>0.824153</vAcc></extensions></trkpt>
      <trkpt lon="-2.238255" lat="53.113807"><ele>138.582306</ele><time>2022-03-04T11:13:54Z</time><extensions><speed>1.242436</speed><course>143.143738</course><hAcc>1.577337</hAcc><vAcc>0.824242</vAcc></extensions></trkpt>
      <trkpt lon="-2.238244" lat="53.113798"><ele>138.638321</ele><time>2022-03-04T11:13:56Z</time><extensions><speed>1.267582</speed><course>143.670746</course><hAcc>1.557817</hAcc><vAcc>0.824416</vAcc></extensions></trkpt>
      <trkpt lon="-2.238233" lat="53.113789"><ele>138.696442</ele><time>2022-03-04T11:13:57Z</time><extensions><speed>1.309154</speed><course>142.015930</course><hAcc>1.501431</hAcc><vAcc>0.824642</vAcc></extensions></trkpt>
      <trkpt lon="-2.238220" lat="53.113780"><ele>138.766434</ele><time>2022-03-04T11:13:58Z</time><extensions><speed>1.408949</speed><course>142.934143</course><hAcc>1.484593</hAcc><vAcc>0.824941</vAcc></extensions></trkpt>
      <trkpt lon="-2.238208" lat="53.113770"><ele>138.837662</ele><time>2022-03-04T11:13:59Z</time><extensions><speed>1.428087</speed><course>142.237610</course><hAcc>1.447563</hAcc><vAcc>0.825291</vAcc></extensions></trkpt>
      <trkpt lon="-2.238195" lat="53.113759"><ele>138.910156</ele><time>2022-03-04T11:14:00Z</time><extensions><speed>1.479909</speed><course>145.959229</course><hAcc>1.437164</hAcc><vAcc>0.825670</vAcc></extensions></trkpt>
      <trkpt lon="-2.238183" lat="53.113748"><ele>139.002426</ele><time>2022-03-04T11:14:01Z</time><extensions><speed>1.465727</speed><course>147.677246</course><hAcc>1.413095</hAcc><vAcc>0.826034</vAcc></extensions></trkpt>
      <trkpt lon="-2.238172" lat="53.113737"><ele>139.098679</ele><time>2022-03-04T11:14:02Z</time><extensions><speed>1.464402</speed><course>150.880554</course><hAcc>1.398137</hAcc><vAcc>0.826373</vAcc></extensions></trkpt>
      <trkpt lon="-2.238161" lat="53.113726"><ele>139.213455</ele><time>2022-03-04T11:14:03Z</time><extensions><speed>1.465888</speed><course>148.474930</course><hAcc>1.394956</hAcc><vAcc>0.826706</vAcc></extensions></trkpt>
      <trkpt lon="-2.238150" lat="53.113715"><ele>139.332642</ele><time>2022-03-04T11:14:04Z</time><extensions><speed>1.421582</speed><course>147.950165</course><hAcc>1.382025</hAcc><vAcc>0.826991</vAcc></extensions></trkpt>
      <trkpt lon="-2.238138" lat="53.113704"><ele>139.455063</ele><time>2022-03-04T11:14:05Z</time><extensions><speed>1.461542</speed><course>149.768478</course><hAcc>1.408231</hAcc><vAcc>0.827194</vAcc></extensions></trkpt>
      <trkpt lon="-2.238128" lat="53.113692"><ele>139.571045</ele><time>2022-03-04T11:14:06Z</time><extensions><speed>1.461726</speed><course>152.897522</course><hAcc>1.428350</hAcc><vAcc>0.827313</vAcc></extensions></trkpt>
      <trkpt lon="-2.238118" lat="53.113681"><ele>139.695312</ele><time>2022-03-04T11:14:07Z</time><extensions><speed>1.437823</speed><course>150.887451</course><hAcc>1.443498</hAcc><vAcc>0.827345</vAcc></extensions></trkpt>
      <trkpt lon="-2.238107" lat="53.113670"><ele>139.821045</ele><time>2022-03-04T11:14:08Z</time><extensions><speed>1.333260</speed><course>148.927399</course><hAcc>1.452361</hAcc><vAcc>0.827276</vAcc></extensions></trkpt>
      <trkpt lon="-2.238097" lat="53.113660"><ele>139.961456</ele><time>2022-03-04T11:14:09Z</time><extensions><speed>1.213502</speed><course>147.019913</course><hAcc>1.482019</hAcc><vAcc>0.827150</vAcc></extensions></trkpt>
      <trkpt lon="-2.238088" lat="53.113652"><ele>140.098251</ele><time>2022-03-04T11:14:10Z</time><extensions><speed>1.039188</speed><course>145.466766</course><hAcc>1.523290</hAcc><vAcc>0.826939</vAcc></extensions></trkpt>
      <trkpt lon="-2.238079" lat="53.113644"><ele>140.233246</ele><time>2022-03-04T11:14:11Z</time><extensions><speed>1.052591</speed><course>144.545822</course><hAcc>1.555970</hAcc><vAcc>0.826695</vAcc></extensions></trkpt>
      <trkpt lon="-2.238069" lat="53.113636"><ele>140.368851</ele><time>2022-03-04T11:14:12Z</time><extensions><speed>1.246550</speed><course>146.029648</course><hAcc>1.595067</hAcc><vAcc>0.826404</vAcc></extensions></trkpt>
      <trkpt lon="-2.238058" lat="53.113626"><ele>140.506546</ele><time>2022-03-04T11:14:13Z</time><extensions><speed>1.333075</speed><course>146.140015</course><hAcc>1.643878</hAcc><vAcc>0.826088</vAcc></extensions></trkpt>
      <trkpt lon="-2.238047" lat="53.113616"><ele>140.636642</ele><time>2022-03-04T11:14:14Z</time><extensions><speed>1.289262</speed><course>145.747711</course><hAcc>1.653147</hAcc><vAcc>0.825775</vAcc></extensions></trkpt>
      <trkpt lon="-2.238036" lat="53.113607"><ele>140.759811</ele><time>2022-03-04T11:14:15Z</time><extensions><speed>1.251630</speed><course>143.589142</course><hAcc>1.635966</hAcc><vAcc>0.825442</vAcc></extensions></trkpt>
      <trkpt lon="-2.238025" lat="53.113598"><ele>140.891327</ele><time>2022-03-04T11:14:16Z</time><extensions><speed>1.208322</speed><course>140.612518</course><hAcc>1.629873</hAcc><vAcc>0.825052</vAcc></extensions></trkpt>
      <trkpt lon="-2.238013" lat="53.113590"><ele>141.023758</ele><time>2022-03-04T11:14:17Z</time><extensions><speed>1.138780</speed><course>137.434738</course><hAcc>1.626375</hAcc><vAcc>0.824702</vAcc></extensions></trkpt>
      <trkpt lon="-2.238002" lat="53.113583"><ele>141.158325</ele><time>2022-03-04T11:14:18Z</time><extensions><speed>1.080405</speed><course>138.251968</course><hAcc>1.619880</hAcc><vAcc>0.824409</vAcc></extensions></trkpt>
      <trkpt lon="-2.237992" lat="53.113575"><ele>141.293198</ele><time>2022-03-04T11:14:19Z</time><extensions><speed>0.964386</speed><course>141.458511</course><hAcc>1.620534</hAcc><vAcc>0.824183</vAcc></extensions></trkpt>
      <trkpt lon="-2.237984" lat="53.113568"><ele>141.428024</ele><time>2022-03-04T11:14:20Z</time><extensions><speed>0.976880</speed><course>145.828186</course><hAcc>1.618999</hAcc><vAcc>0.824008</vAcc></extensions></trkpt>
      <trkpt lon="-2.237976" lat="53.113561"><ele>141.580063</ele><time>2022-03-04T11:14:21Z</time><extensions><speed>1.038320</speed><course>147.807648</course><hAcc>1.652602</hAcc><vAcc>0.823866</vAcc></extensions></trkpt>
      <trkpt lon="-2.237967" lat="53.113552"><ele>141.717133</ele><time>2022-03-04T11:14:22Z</time><extensions><speed>1.178120</speed><course>145.984024</course><hAcc>1.608255</hAcc><vAcc>0.823698</vAcc></extensions></trkpt>
      <trkpt lon="-2.237956" lat="53.113543"><ele>141.868851</ele><time>2022-03-04T11:14:23Z</time><extensions><speed>1.259323</speed><course>143.653152</course><hAcc>1.610175</hAcc><vAcc>0.823545</vAcc></extensions></trkpt>
      <trkpt lon="-2.237945" lat="53.113534"><ele>142.029877</ele><time>2022-03-04T11:14:24Z</time><extensions><speed>1.309646</speed><course>141.607101</course><hAcc>1.625362</hAcc><vAcc>0.823383</vAcc></extensions></trkpt>
      <trkpt lon="-2.237933" lat="53.113524"><ele>142.189026</ele><time>2022-03-04T11:14:25Z</time><extensions><speed>1.404676</speed><course>144.527588</course><hAcc>1.606630</hAcc><vAcc>0.823255</vAcc></extensions></trkpt>
      <trkpt lon="-2.237921" lat="53.113514"><ele>142.340897</ele><time>2022-03-04T11:14:26Z</time><extensions><speed>1.497708</speed><course>147.368530</course><hAcc>1.585643</hAcc><vAcc>0.823153</vAcc></extensions></trkpt>
      <trkpt lon="-2.237909" lat="53.113502"><ele>142.468781</ele><time>2022-03-04T11:14:27Z</time><extensions><speed>1.577971</speed><course>149.278687</course><hAcc>1.580736</hAcc><vAcc>0.823074</vAcc></extensions></trkpt>
      <trkpt lon="-2.237896" lat="53.113489"><ele>142.591705</ele><time>2022-03-04T11:14:28Z</time><extensions><speed>1.657354</speed><course>149.138138</course><hAcc>1.604941</hAcc><vAcc>0.823035</vAcc></extensions></trkpt>
      <trkpt lon="-2.237884" lat="53.113477"><ele>142.678482</ele><time>2022-03-04T11:14:29Z</time><extensions><speed>1.541376</speed><course>147.168976</course><hAcc>1.658298</hAcc><vAcc>0.823029</vAcc></extensions></trkpt>
      <trkpt lon="-2.237872" lat="53.113465"><ele>142.761322</ele><time>2022-03-04T11:14:30Z</time><extensions><speed>1.479194</speed><course>150.849457</course><hAcc>1.648234</hAcc><vAcc>0.823022</vAcc></extensions></trkpt>
      <trkpt lon="-2.237862" lat="53.113454"><ele>142.837173</ele><time>2022-03-04T11:14:31Z</time><extensions><speed>1.412960</speed><course>153.957657</course><hAcc>1.613251</hAcc><vAcc>0.823031</vAcc></extensions></trkpt>
      <trkpt lon="-2.237852" lat="53.113443"><ele>142.928101</ele><time>2022-03-04T11:14:32Z</time><extensions><speed>1.364424</speed><course>150.847076</course><hAcc>1.614248</hAcc><vAcc>0.823056</vAcc></extensions></trkpt>
      <trkpt lon="-2.237842" lat="53.113432"><ele>143.013901</ele><time>2022-03-04T11:14:33Z</time><extensions><speed>1.318694</speed><course>151.593140</course><hAcc>1.639789</hAcc><vAcc>0.823076</vAcc></extensions></trkpt>
      <trkpt lon="-2.237833" lat="53.113422"><ele>143.099426</ele><time>2022-03-04T11:14:34Z</time><extensions><speed>1.256773</speed><course>149.515778</course><hAcc>1.657266</hAcc><vAcc>0.823108</vAcc></extensions></trkpt>
      <trkpt lon="-2.237823" lat="53.113412"><ele>143.181976</ele><time>2022-03-04T11:14:35Z</time><extensions><speed>1.274910</speed><course>147.310028</course><hAcc>1.660733</hAcc><vAcc>0.823156</vAcc></extensions></trkpt>
      <trkpt lon="-2.237812" lat="53.113403"><ele>143.270538</ele><time>2022-03-04T11:14:36Z</time><extensions><speed>1.291347</speed><course>143.921173</course><hAcc>1.650565</hAcc><vAcc>0.823211</vAcc></extensions></trkpt>
      <trkpt lon="-2.237800" lat="53.113393"><ele>143.371643</ele><time>2022-03-04T11:14:37Z</time><extensions><speed>1.265562</speed><course>139.871674</course><hAcc>1.632761</hAcc><vAcc>0.823258</vAcc></extensions></trkpt>
      <trkpt lon="-2.237788" lat="53.113385"><ele>143.482666</ele><time>2022-03-04T11:14:38Z</time><extensions><speed>1.207986</speed><course>136.865616</course><hAcc>1.619802</hAcc><vAcc>0.823294</vAcc></extensions></trkpt>
      <trkpt lon="-2.237776" lat="53.113378"><ele>143.595367</ele><time>2022-03-04T11:14:39Z</time><extensions><speed>1.027525</speed><course>131.670319</course><hAcc>1.612556</hAcc><vAcc>0.823332</vAcc></extensions></trkpt>
      <trkpt lon="-2.237765" lat="53.113371"><ele>143.706558</ele><time>2022-03-04T11:14:40Z</time><extensions><speed>1.058942</speed><course>135.131668</course><hAcc>1.609279</hAcc><vAcc>0.823373</vAcc></extensions></trkpt>
      <trkpt lon="-2.237754" lat="53.113364"><ele>143.841599</ele><time>2022-03-04T11:14:41Z</time><extensions><speed>1.129561</speed><course>139.164993</course><hAcc>1.662106</hAcc><vAcc>0.823414</vAcc></extensions></trkpt>
      <trkpt lon="-2.237743" lat="53.113355"><ele>143.986206</ele><time>2022-03-04T11:14:42Z</time><extensions><speed>1.304908</speed><course>143.571915</course><hAcc>1.615881</hAcc><vAcc>0.823431</vAcc></extensions></trkpt>
      <trkpt lon="-2.237731" lat="53.113345"><ele>144.134109</ele><time>2022-03-04T11:14:43Z</time><extensions><speed>1.419301</speed><course>147.362411</course><hAcc>1.596768</hAcc><vAcc>0.823433</vAcc></extensions></trkpt>
      <trkpt lon="-2.237720" lat="53.113334"><ele>144.294281</ele><time>2022-03-04T11:14:44Z</time><extensions><speed>1.489015</speed><course>149.986328</course><hAcc>1.617459</hAcc><vAcc>0.823438</vAcc></extensions></trkpt>
      <trkpt lon="-2.237709" lat="53.113322"><ele>144.453781</ele><time>2022-03-04T11:14:45Z</time><extensions><speed>1.510784</speed><course>152.522415</course><hAcc>1.636698</hAcc><vAcc>0.823433</vAcc></extensions></trkpt>
      <trkpt lon="-2.237699" lat="53.113310"><ele>144.620560</ele><time>2022-03-04T11:14:46Z</time><extensions><speed>1.505839</speed><course>154.690033</course><hAcc>1.637714</hAcc><vAcc>0.823424</vAcc></extensions></trkpt>
      <trkpt lon="-2.237689" lat="53.113297"><ele>144.802505</ele><time>2022-03-04T11:14:47Z</time><extensions><speed>1.578788</speed><course>156.547516</course><hAcc>1.617502</hAcc><vAcc>0.823477</vAcc></extensions></trkpt>
      <trkpt lon="-2.237680" lat="53.113284"><ele>144.989792</ele><time>2022-03-04T11:14:48Z</time><extensions><speed>1.695715</speed><course>156.122360</course><hAcc>1.595672</hAcc><vAcc>0.823541</vAcc></extensions></trkpt>
      <trkpt lon="-2.237669" lat="53.113270"><ele>145.195404</ele><time>2022-03-04T11:14:48Z</time><extensions><speed>1.699451</speed><course>153.474258</course><hAcc>1.601784</hAcc><vAcc>0.823662</vAcc></extensions></trkpt>
      <trkpt lon="-2.237657" lat="53.113257"><ele>145.389496</ele><time>2022-03-04T11:14:49Z</time><extensions><speed>1.608184</speed><course>148.640839</course><hAcc>1.637481</hAcc><vAcc>0.823847</vAcc></extensions></trkpt>
      <trkpt lon="-2.237644" lat="53.113244"><ele>145.590363</ele><time>2022-03-04T11:14:50Z</time><extensions><speed>1.596347</speed><course>148.794891</course><hAcc>1.621224</hAcc><vAcc>0.824009</vAcc></extensions></trkpt>
      <trkpt lon="-2.237633" lat="53.113232"><ele>145.796783</ele><time>2022-03-04T11:14:51Z</time><extensions><speed>1.560297</speed><course>150.335129</course><hAcc>1.590266</hAcc><vAcc>0.824169</vAcc></extensions></trkpt>
      <trkpt lon="-2.237622" lat="53.113220"><ele>145.998474</ele><time>2022-03-04T11:14:52Z</time><extensions><speed>1.524299</speed><course>152.382126</course><hAcc>1.584405</hAcc><vAcc>0.824314</vAcc></extensions></trkpt>
      <trkpt lon="-2.237611" lat="53.113207"><ele>146.205978</ele><time>2022-03-04T11:14:53Z</time><extensions><speed>1.525050</speed><course>153.089066</course><hAcc>1.595153</hAcc><vAcc>0.824439</vAcc></extensions></trkpt>
      <trkpt lon="-2.237601" lat="53.113195"><ele>146.437469</ele><time>2022-03-04T11:14:54Z</time><extensions><speed>1.536098</speed><course>153.467392</course><hAcc>1.607850</hAcc><vAcc>0.824574</vAcc></extensions></trkpt>
      <trkpt lon="-2.237591" lat="53.113183"><ele>146.666473</ele><time>2022-03-04T11:14:55Z</time><extensions><speed>1.507660</speed><course>153.415771</course><hAcc>1.634087</hAcc><vAcc>0.824703</vAcc></extensions></trkpt>
      <trkpt lon="-2.237581" lat="53.113171"><ele>146.911057</ele><time>2022-03-04T11:14:56Z</time><extensions><speed>1.425960</speed><course>152.139587</course><hAcc>1.674396</hAcc><vAcc>0.824847</vAcc></extensions></trkpt>
      <trkpt lon="-2.237572" lat="53.113160"><ele>147.148087</ele><time>2022-03-04T11:14:57Z</time><extensions><speed>1.385607</speed><course>155.054779</course><hAcc>1.655822</hAcc><vAcc>0.825006</vAcc></extensions></trkpt>
      <trkpt lon="-2.237563" lat="53.113148"><ele>147.368576</ele><time>2022-03-04T11:14:58Z</time><extensions><speed>1.355004</speed><course>157.034515</course><hAcc>1.654714</hAcc><vAcc>0.825157</vAcc></extensions></trkpt>
      <trkpt lon="-2.237556" lat="53.113137"><ele>147.592316</ele><time>2022-03-04T11:14:59Z</time><extensions><speed>1.300160</speed><course>157.031464</course><hAcc>1.666899</hAcc><vAcc>0.825315</vAcc></extensions></trkpt>
      <trkpt lon="-2.237548" lat="53.113127"><ele>147.803192</ele><time>2022-03-04T11:15:00Z</time><extensions><speed>1.276613</speed><course>157.984131</course><hAcc>1.672282</hAcc><vAcc>0.825481</vAcc></extensions></trkpt>
      <trkpt lon="-2.237541" lat="53.113116"><ele>147.992859</ele><time>2022-03-04T11:15:01Z</time><extensions><speed>1.342863</speed><course>158.056503</course><hAcc>1.679036</hAcc><vAcc>0.825640</vAcc></extensions></trkpt>
      <trkpt lon="-2.237533" lat="53.113105"><ele>148.179321</ele><time>2022-03-04T11:15:02Z</time><extensions><speed>1.335031</speed><course>157.568039</course><hAcc>1.686240</hAcc><vAcc>0.825814</vAcc></extensions></trkpt>
      <trkpt lon="-2.237525" lat="53.113094"><ele>148.347855</ele><time>2022-03-04T11:15:03Z</time><extensions><speed>1.314734</speed><course>157.003769</course><hAcc>1.687684</hAcc><vAcc>0.825984</vAcc></extensions></trkpt>
      <trkpt lon="-2.237518" lat="53.113083"><ele>148.489578</ele><time>2022-03-04T11:15:04Z</time><extensions><speed>1.349726</speed><course>155.848328</course><hAcc>1.685895</hAcc><vAcc>0.826153</vAcc></extensions></trkpt>
      <trkpt lon="-2.237509" lat="53.113072"><ele>148.631989</ele><time>2022-03-04T11:15:05Z</time><extensions><speed>1.334491</speed><course>151.450119</course><hAcc>1.678547</hAcc><vAcc>0.826334</vAcc></extensions></trkpt>
      <trkpt lon="-2.237499" lat="53.113062"><ele>148.750656</ele><time>2022-03-04T11:15:06Z</time><extensions><speed>1.267806</speed><course>146.608994</course><hAcc>1.674591</hAcc><vAcc>0.826503</vAcc></extensions></trkpt>
      <trkpt lon="-2.237488" lat="53.113053"><ele>148.854309</ele><time>2022-03-04T11:15:07Z</time><extensions><speed>1.193653</speed><course>141.051315</course><hAcc>1.675265</hAcc><vAcc>0.826622</vAcc></extensions></trkpt>
      <trkpt lon="-2.237477" lat="53.113046"><ele>148.962128</ele><time>2022-03-04T11:15:08Z</time><extensions><speed>1.085165</speed><course>135.424744</course><hAcc>1.649549</hAcc><vAcc>0.826705</vAcc></extensions></trkpt>
      <trkpt lon="-2.237465" lat="53.113039"><ele>149.039566</ele><time>2022-03-04T11:15:09Z</time><extensions><speed>1.078982</speed><course>132.352234</course><hAcc>1.625565</hAcc><vAcc>0.826753</vAcc></extensions></trkpt>
      <trkpt lon="-2.237452" lat="53.113032"><ele>149.108887</ele><time>2022-03-04T11:15:10Z</time><extensions><speed>1.153502</speed><course>128.882843</course><hAcc>1.614201</hAcc><vAcc>0.826768</vAcc></extensions></trkpt>
      <trkpt lon="-2.237439" lat="53.113026"><ele>149.173355</ele><time>2022-03-04T11:15:11Z</time><extensions><speed>1.120418</speed><course>127.088242</course><hAcc>1.610271</hAcc><vAcc>0.826697</vAcc></extensions></trkpt>
      <trkpt lon="-2.237426" lat="53.113020"><ele>149.241165</ele><time>2022-03-04T11:15:12Z</time><extensions><speed>1.096621</speed><course>129.635574</course><hAcc>1.640907</hAcc><vAcc>0.826570</vAcc></extensions></trkpt>
      <trkpt lon="-2.237414" lat="53.113014"><ele>149.288712</ele><time>2022-03-04T11:15:13Z</time><extensions><speed>1.051987</speed><course>130.352280</course><hAcc>1.618082</hAcc><vAcc>0.826341</vAcc></extensions></trkpt>
      <trkpt lon="-2.237402" lat="53.113008"><ele>149.330597</ele><time>2022-03-04T11:15:14Z</time><extensions><speed>0.970189</speed><course>131.736938</course><hAcc>1.611296</hAcc><vAcc>0.826025</vAcc></extensions></trkpt>
      <trkpt lon="-2.237392" lat="53.113002"><ele>149.361710</ele><time>2022-03-04T11:15:15Z</time><extensions><speed>0.936825</speed><course>132.942261</course><hAcc>1.631451</hAcc><vAcc>0.825663</vAcc></extensions></trkpt>
      <trkpt lon="-2.237381" lat="53.112996"><ele>149.376877</ele><time>2022-03-04T11:15:16Z</time><extensions><speed>0.971424</speed><course>134.134430</course><hAcc>1.629677</hAcc><vAcc>0.825231</vAcc></extensions></trkpt>
      <trkpt lon="-2.237371" lat="53.112990"><ele>149.408585</ele><time>2022-03-04T11:15:17Z</time><extensions><speed>1.011600</speed><course>134.792618</course><hAcc>1.632609</hAcc><vAcc>0.824774</vAcc></extensions></trkpt>
      <trkpt lon="-2.237359" lat="53.112983"><ele>149.438217</ele><time>2022-03-04T11:15:18Z</time><extensions><speed>1.156790</speed><course>135.988998</course><hAcc>1.652678</hAcc><vAcc>0.824274</vAcc></extensions></trkpt>
      <trkpt lon="-2.237347" lat="53.112975"><ele>149.464600</ele><time>2022-03-04T11:15:19Z</time><extensions><speed>1.190539</speed><course>135.684753</course><hAcc>1.678324</hAcc><vAcc>0.823756</vAcc></extensions></trkpt>
      <trkpt lon="-2.237335" lat="53.112968"><ele>149.501511</ele><time>2022-03-04T11:15:20Z</time><extensions><speed>1.213371</speed><course>136.884872</course><hAcc>1.697623</hAcc><vAcc>0.823263</vAcc></extensions></trkpt>
      <trkpt lon="-2.237322" lat="53.112960"><ele>149.533905</ele><time>2022-03-04T11:15:21Z</time><extensions><speed>1.229013</speed><course>135.534943</course><hAcc>1.688508</hAcc><vAcc>0.822780</vAcc></extensions></trkpt>
      <trkpt lon="-2.237309" lat="53.112952"><ele>149.548538</ele><time>2022-03-04T11:15:22Z</time><extensions><speed>1.215820</speed><course>134.856476</course><hAcc>1.683708</hAcc><vAcc>0.822331</vAcc></extensions></trkpt>
      <trkpt lon="-2.237296" lat="53.112944"><ele>149.566101</ele><time>2022-03-04T11:15:23Z</time><extensions><speed>1.198229</speed><course>133.013702</course><hAcc>1.677807</hAcc><vAcc>0.821938</vAcc></extensions></trkpt>
      <trkpt lon="-2.237283" lat="53.112937"><ele>149.598068</ele><time>2022-03-04T11:15:24Z</time><extensions><speed>1.215842</speed><course>132.470520</course><hAcc>1.668187</hAcc><vAcc>0.821598</vAcc></extensions></trkpt>
      <trkpt lon="-2.237269" lat="53.112930"><ele>149.621170</ele><time>2022-03-04T11:15:25Z</time><extensions><speed>1.266104</speed><course>130.352493</course><hAcc>1.658387</hAcc><vAcc>0.821315</vAcc></extensions></trkpt>
      <trkpt lon="-2.237254" lat="53.112923"><ele>149.641983</ele><time>2022-03-04T11:15:26Z</time><extensions><speed>1.264513</speed><course>129.429337</course><hAcc>1.654583</hAcc><vAcc>0.821109</vAcc></extensions></trkpt>
      <trkpt lon="-2.237240" lat="53.112915"><ele>149.662506</ele><time>2022-03-04T11:15:27Z</time><extensions><speed>1.269577</speed><course>130.643173</course><hAcc>1.666400</hAcc><vAcc>0.820960</vAcc></extensions></trkpt>
      <trkpt lon="-2.237225" lat="53.112908"><ele>149.699539</ele><time>2022-03-04T11:15:28Z</time><extensions><speed>1.250355</speed><course>127.788437</course><hAcc>1.642632</hAcc><vAcc>0.820865</vAcc></extensions></trkpt>
      <trkpt lon="-2.237210" lat="53.112902"><ele>149.749954</ele><time>2022-03-04T11:15:29Z</time><extensions><speed>1.200360</speed><course>124.732109</course><hAcc>1.648362</hAcc><vAcc>0.820799</vAcc></extensions></trkpt>
      <trkpt lon="-2.237195" lat="53.112896"><ele>149.793015</ele><time>2022-03-04T11:15:30Z</time><extensions><speed>1.199650</speed><course>122.503265</course><hAcc>1.652025</hAcc><vAcc>0.820762</vAcc></extensions></trkpt>
      <trkpt lon="-2.237180" lat="53.112891"><ele>149.834763</ele><time>2022-03-04T11:15:31Z</time><extensions><speed>1.114083</speed><course>115.538239</course><hAcc>1.628852</hAcc><vAcc>0.820763</vAcc></extensions></trkpt>
      <trkpt lon="-2.237165" lat="53.112886"><ele>149.904938</ele><time>2022-03-04T11:15:32Z</time><extensions><speed>1.092690</speed><course>113.573799</course><hAcc>1.633992</hAcc><vAcc>0.820765</vAcc></extensions></trkpt>
      <trkpt lon="-2.237150" lat="53.112882"><ele>149.964951</ele><time>2022-03-04T11:15:33Z</time><extensions><speed>1.148694</speed><course>114.538147</course><hAcc>1.656533</hAcc><vAcc>0.820757</vAcc></extensions></trkpt>
      <trkpt lon="-2.237134" lat="53.112878"><ele>150.046631</ele><time>2022-03-04T11:15:34Z</time><extensions><speed>1.221118</speed><course>114.751816</course><hAcc>1.638379</hAcc><vAcc>0.820744</vAcc></extensions></trkpt>
      <trkpt lon="-2.237117" lat="53.112873"><ele>150.134888</ele><time>2022-03-04T11:15:35Z</time><extensions><speed>1.238846</speed><course>113.893211</course><hAcc>1.642575</hAcc><vAcc>0.820714</vAcc></extensions></trkpt>
      <trkpt lon="-2.237101" lat="53.112869"><ele>150.225708</ele><time>2022-03-04T11:15:36Z</time><extensions><speed>1.211075</speed><course>114.792091</course><hAcc>1.676713</hAcc><vAcc>0.820662</vAcc></extensions></trkpt>
      <trkpt lon="-2.237084" lat="53.112864"><ele>150.320816</ele><time>2022-03-04T11:15:37Z</time><extensions><speed>1.229509</speed><course>115.267189</course><hAcc>1.681901</hAcc><vAcc>0.820581</vAcc></extensions></trkpt>
      <trkpt lon="-2.237068" lat="53.112859"><ele>150.427612</ele><time>2022-03-04T11:15:38Z</time><extensions><speed>1.173177</speed><course>117.176598</course><hAcc>1.661821</hAcc><vAcc>0.820469</vAcc></extensions></trkpt>
      <trkpt lon="-2.237053" lat="53.112854"><ele>150.527634</ele><time>2022-03-04T11:15:39Z</time><extensions><speed>1.151357</speed><course>118.818085</course><hAcc>1.662281</hAcc><vAcc>0.820352</vAcc></extensions></trkpt>
      <trkpt lon="-2.237037" lat="53.112849"><ele>150.644592</ele><time>2022-03-04T11:15:40Z</time><extensions><speed>1.214826</speed><course>118.112663</course><hAcc>1.672312</hAcc><vAcc>0.820241</vAcc></extensions></trkpt>
      <trkpt lon="-2.237021" lat="53.112844"><ele>150.764053</ele><time>2022-03-04T11:15:41Z</time><extensions><speed>1.260525</speed><course>118.198090</course><hAcc>1.682235</hAcc><vAcc>0.820114</vAcc></extensions></trkpt>
      <trkpt lon="-2.237005" lat="53.112838"><ele>150.887100</ele><time>2022-03-04T11:15:42Z</time><extensions><speed>1.238890</speed><course>122.511749</course><hAcc>1.676999</hAcc><vAcc>0.820011</vAcc></extensions></trkpt>
      <trkpt lon="-2.236990" lat="53.112832"><ele>151.000992</ele><time>2022-03-04T11:15:43Z</time><extensions><speed>1.203207</speed><course>125.380493</course><hAcc>1.670011</hAcc><vAcc>0.819924</vAcc></extensions></trkpt>
      <trkpt lon="-2.236975" lat="53.112826"><ele>151.116104</ele><time>2022-03-04T11:15:44Z</time><extensions><speed>1.214725</speed><course>129.068375</course><hAcc>1.676848</hAcc><vAcc>0.819868</vAcc></extensions></trkpt>
      <trkpt lon="-2.236961" lat="53.112819"><ele>151.246994</ele><time>2022-03-04T11:15:45Z</time><extensions><speed>1.222348</speed><course>127.555855</course><hAcc>1.700681</hAcc><vAcc>0.819854</vAcc></extensions></trkpt>
      <trkpt lon="-2.236946" lat="53.112812"><ele>151.355377</ele><time>2022-03-04T11:15:46Z</time><extensions><speed>1.187236</speed><course>125.590225</course><hAcc>1.680227</hAcc><vAcc>0.819884</vAcc></extensions></trkpt>
      <trkpt lon="-2.236932" lat="53.112807"><ele>151.471039</ele><time>2022-03-04T11:15:47Z</time><extensions><speed>1.134084</speed><course>122.842636</course><hAcc>1.661535</hAcc><vAcc>0.819959</vAcc></extensions></trkpt>
      <trkpt lon="-2.236918" lat="53.112801"><ele>151.570251</ele><time>2022-03-04T11:15:48Z</time><extensions><speed>1.095378</speed><course>120.176613</course><hAcc>1.661918</hAcc><vAcc>0.820085</vAcc></extensions></trkpt>
      <trkpt lon="-2.236903" lat="53.112797"><ele>151.683670</ele><time>2022-03-04T11:15:49Z</time><extensions><speed>1.111165</speed><course>117.353180</course><hAcc>1.677553</hAcc><vAcc>0.820266</vAcc></extensions></trkpt>
      <trkpt lon="-2.236888" lat="53.112792"><ele>151.801285</ele><time>2022-03-04T11:15:50Z</time><extensions><speed>1.184734</speed><course>117.914307</course><hAcc>1.703063</hAcc><vAcc>0.820488</vAcc></extensions></trkpt>
      <trkpt lon="-2.236872" lat="53.112786"><ele>151.897858</ele><time>2022-03-04T11:15:51Z</time><extensions><speed>1.251502</speed><course>119.919937</course><hAcc>1.688701</hAcc><vAcc>0.820740</vAcc></extensions></trkpt>
      <trkpt lon="-2.236856" lat="53.112781"><ele>151.996674</ele><time>2022-03-04T11:15:52Z</time><extensions><speed>1.252401</speed><course>121.082153</course><hAcc>1.685694</hAcc><vAcc>0.821014</vAcc></extensions></trkpt>
      <trkpt lon="-2.236840" lat="53.112775"><ele>152.124954</ele><time>2022-03-04T11:15:53Z</time><extensions><speed>1.244359</speed><course>118.799484</course><hAcc>1.694800</hAcc><vAcc>0.821293</vAcc></extensions></trkpt>
      <trkpt lon="-2.236824" lat="53.112770"><ele>152.237518</ele><time>2022-03-04T11:15:54Z</time><extensions><speed>1.235519</speed><course>116.893051</course><hAcc>1.710405</hAcc><vAcc>0.821579</vAcc></extensions></trkpt>
      <trkpt lon="-2.236807" lat="53.112765"><ele>152.354065</ele><time>2022-03-04T11:15:55Z</time><extensions><speed>1.154483</speed><course>114.943695</course><hAcc>1.716414</hAcc><vAcc>0.821855</vAcc></extensions></trkpt>
      <trkpt lon="-2.236792" lat="53.112761"><ele>152.470001</ele><time>2022-03-04T11:15:56Z</time><extensions><speed>1.096724</speed><course>111.027855</course><hAcc>1.715894</hAcc><vAcc>0.822130</vAcc></extensions></trkpt>
      <trkpt lon="-2.236776" lat="53.112758"><ele>152.586197</ele><time>2022-03-04T11:15:57Z</time><extensions><speed>1.188490</speed><course>108.483398</course><hAcc>1.717540</hAcc><vAcc>0.822406</vAcc></extensions></trkpt>
      <trkpt lon="-2.236758" lat="53.112755"><ele>152.690491</ele><time>2022-03-04T11:15:58Z</time><extensions><speed>1.277473</speed><course>106.449509</course><hAcc>1.723303</hAcc><vAcc>0.822677</vAcc></extensions></trkpt>
      <trkpt lon="-2.236740" lat="53.112751"><ele>152.801254</ele><time>2022-03-04T11:15:59Z</time><extensions><speed>1.311574</speed><course>106.135956</course><hAcc>1.728220</hAcc><vAcc>0.822933</vAcc></extensions></trkpt>
      <trkpt lon="-2.236721" lat="53.112748"><ele>152.912704</ele><time>2022-03-04T11:16:00Z</time><extensions><speed>1.310771</speed><course>106.495865</course><hAcc>1.729267</hAcc><vAcc>0.823160</vAcc></extensions></trkpt>
      <trkpt lon="-2.236702" lat="53.112745"><ele>153.035934</ele><time>2022-03-04T11:16:02Z</time><extensions><speed>1.325448</speed><course>106.342300</course><hAcc>1.727566</hAcc><vAcc>0.823353</vAcc></extensions></trkpt>
      <trkpt lon="-2.236683" lat="53.112741"><ele>153.168228</ele><time>2022-03-04T11:16:03Z</time><extensions><speed>1.342262</speed><course>108.002670</course><hAcc>1.729275</hAcc><vAcc>0.823507</vAcc></extensions></trkpt>
      <trkpt lon="-2.236664" lat="53.112737"><ele>153.308807</ele><time>2022-03-04T11:16:04Z</time><extensions><speed>1.340967</speed><course>109.417725</course><hAcc>1.731780</hAcc><vAcc>0.823636</vAcc></extensions></trkpt>
      <trkpt lon="-2.236645" lat="53.112734"><ele>153.434906</ele><time>2022-03-04T11:16:05Z</time><extensions><speed>1.338853</speed><course>105.787308</course><hAcc>1.726107</hAcc><vAcc>0.823752</vAcc></extensions></trkpt>
      <trkpt lon="-2.236626" lat="53.112731"><ele>153.590820</ele><time>2022-03-04T11:16:06Z</time><extensions><speed>1.290281</speed><course>102.291222</course><hAcc>1.718691</hAcc><vAcc>0.823851</vAcc></extensions></trkpt>
      <trkpt lon="-2.236607" lat="53.112728"><ele>153.742722</ele><time>2022-03-04T11:16:07Z</time><extensions><speed>1.246859</speed><course>98.728371</course><hAcc>1.715458</hAcc><vAcc>0.823935</vAcc></extensions></trkpt>
      <trkpt lon="-2.236589" lat="53.112727"><ele>153.895279</ele><time>2022-03-04T11:16:08Z</time><extensions><speed>1.220515</speed><course>97.737747</course><hAcc>1.720090</hAcc><vAcc>0.824007</vAcc></extensions></trkpt>
      <trkpt lon="-2.236571" lat="53.112725"><ele>154.050064</ele><time>2022-03-04T11:16:09Z</time><extensions><speed>1.198267</speed><course>97.544060</course><hAcc>1.731735</hAcc><vAcc>0.824100</vAcc></extensions></trkpt>
      <trkpt lon="-2.236553" lat="53.112724"><ele>154.206573</ele><time>2022-03-04T11:16:10Z</time><extensions><speed>1.207929</speed><course>98.681160</course><hAcc>1.712863</hAcc><vAcc>0.824194</vAcc></extensions></trkpt>
      <trkpt lon="-2.236535" lat="53.112722"><ele>154.363937</ele><time>2022-03-04T11:16:11Z</time><extensions><speed>1.196339</speed><course>100.418388</course><hAcc>1.699583</hAcc><vAcc>0.824274</vAcc></extensions></trkpt>
      <trkpt lon="-2.236518" lat="53.112720"><ele>154.521057</ele><time>2022-03-04T11:16:12Z</time><extensions><speed>1.184504</speed><course>101.493431</course><hAcc>1.692348</hAcc><vAcc>0.824340</vAcc></extensions></trkpt>
      <trkpt lon="-2.236501" lat="53.112718"><ele>154.651886</ele><time>2022-03-04T11:16:13Z</time><extensions><speed>1.154774</speed><course>100.389397</course><hAcc>1.685623</hAcc><vAcc>0.824420</vAcc></extensions></trkpt>
      <trkpt lon="-2.236484" lat="53.112716"><ele>154.784805</ele><time>2022-03-04T11:16:14Z</time><extensions><speed>1.161365</speed><course>98.388023</course><hAcc>1.670709</hAcc><vAcc>0.824473</vAcc></extensions></trkpt>
      <trkpt lon="-2.236467" lat="53.112715"><ele>154.917725</ele><time>2022-03-04T11:16:15Z</time><extensions><speed>1.182221</speed><course>97.948303</course><hAcc>1.665395</hAcc><vAcc>0.824525</vAcc></extensions></trkpt>
      <trkpt lon="-2.236449" lat="53.112713"><ele>155.045456</ele><time>2022-03-04T11:16:16Z</time><extensions><speed>1.217313</speed><course>99.448158</course><hAcc>1.677935</hAcc><vAcc>0.824533</vAcc></extensions></trkpt>
      <trkpt lon="-2.236431" lat="53.112712"><ele>155.161270</ele><time>2022-03-04T11:16:17Z</time><extensions><speed>1.186640</speed><course>98.867081</course><hAcc>1.638483</hAcc><vAcc>0.824512</vAcc></extensions></trkpt>
      <trkpt lon="-2.236414" lat="53.112710"><ele>155.266068</ele><time>2022-03-04T11:16:18Z</time><extensions><speed>1.116216</speed><course>97.118973</course><hAcc>1.637481</hAcc><vAcc>0.824471</vAcc></extensions></trkpt>
      <trkpt lon="-2.236398" lat="53.112709"><ele>155.366058</ele><time>2022-03-04T11:16:19Z</time><extensions><speed>0.985736</speed><course>98.264244</course><hAcc>1.658483</hAcc><vAcc>0.824410</vAcc></extensions></trkpt>
      <trkpt lon="-2.236386" lat="53.112707"><ele>155.450989</ele><time>2022-03-04T11:16:20Z</time><extensions><speed>0.754451</speed><course>106.484238</course><hAcc>1.637866</hAcc><vAcc>0.824325</vAcc></extensions></trkpt>
      <trkpt lon="-2.236377" lat="53.112705"><ele>155.540787</ele><time>2022-03-04T11:16:21Z</time><extensions><speed>0.581483</speed><course>128.425873</course><hAcc>1.627063</hAcc><vAcc>0.824235</vAcc></extensions></trkpt>
      <trkpt lon="-2.236370" lat="53.112701"><ele>155.612274</ele><time>2022-03-04T11:16:22Z</time><extensions><speed>0.705104</speed><course>140.662903</course><hAcc>1.632045</hAcc><vAcc>0.824141</vAcc></extensions></trkpt>
      <trkpt lon="-2.236363" lat="53.112696"><ele>155.666901</ele><time>2022-03-04T11:16:23Z</time><extensions><speed>0.783132</speed><course>139.401993</course><hAcc>1.647686</hAcc><vAcc>0.824036</vAcc></extensions></trkpt>
      <trkpt lon="-2.236355" lat="53.112691"><ele>155.720184</ele><time>2022-03-04T11:16:24Z</time><extensions><speed>0.830632</speed><course>132.545517</course><hAcc>1.651977</hAcc><vAcc>0.823958</vAcc></extensions></trkpt>
      <trkpt lon="-2.236345" lat="53.112686"><ele>155.766693</ele><time>2022-03-04T11:16:25Z</time><extensions><speed>0.816142</speed><course>126.342369</course><hAcc>1.675567</hAcc><vAcc>0.823908</vAcc></extensions></trkpt>
      <trkpt lon="-2.236334" lat="53.112682"><ele>155.815536</ele><time>2022-03-04T11:16:26Z</time><extensions><speed>0.895950</speed><course>115.030151</course><hAcc>1.667681</hAcc><vAcc>0.823872</vAcc></extensions></trkpt>
      <trkpt lon="-2.236321" lat="53.112679"><ele>155.877991</ele><time>2022-03-04T11:16:27Z</time><extensions><speed>0.881748</speed><course>104.688568</course><hAcc>1.682320</hAcc><vAcc>0.823884</vAcc></extensions></trkpt>
      <trkpt lon="-2.236308" lat="53.112678"><ele>155.950211</ele><time>2022-03-04T11:16:28Z</time><extensions><speed>0.887493</speed><course>94.776054</course><hAcc>1.686952</hAcc><vAcc>0.823923</vAcc></extensions></trkpt>
      <trkpt lon="-2.236295" lat="53.112678"><ele>156.020309</ele><time>2022-03-04T11:16:29Z</time><extensions><speed>0.866488</speed><course>84.726631</course><hAcc>1.699502</hAcc><vAcc>0.824005</vAcc></extensions></trkpt>
      <trkpt lon="-2.236282" lat="53.112679"><ele>156.101044</ele><time>2022-03-04T11:16:30Z</time><extensions><speed>0.920020</speed><course>77.429893</course><hAcc>1.711275</hAcc><vAcc>0.824082</vAcc></extensions></trkpt>
      <trkpt lon="-2.236268" lat="53.112682"><ele>156.178680</ele><time>2022-03-04T11:16:31Z</time><extensions><speed>1.050422</speed><course>74.819206</course><hAcc>1.719878</hAcc><vAcc>0.824138</vAcc></extensions></trkpt>
      <trkpt lon="-2.236252" lat="53.112684"><ele>156.278839</ele><time>2022-03-04T11:16:32Z</time><extensions><speed>1.101228</speed><course>73.880844</course><hAcc>1.722545</hAcc><vAcc>0.824198</vAcc></extensions></trkpt>
      <trkpt lon="-2.236236" lat="53.112687"><ele>156.372589</ele><time>2022-03-04T11:16:33Z</time><extensions><speed>1.148455</speed><course>74.472321</course><hAcc>1.720653</hAcc><vAcc>0.824233</vAcc></extensions></trkpt>
      <trkpt lon="-2.236219" lat="53.112690"><ele>156.468109</ele><time>2022-03-04T11:16:34Z</time><extensions><speed>1.266255</speed><course>75.375214</course><hAcc>1.708502</hAcc><vAcc>0.824284</vAcc></extensions></trkpt>
      <trkpt lon="-2.236200" lat="53.112693"><ele>156.565643</ele><time>2022-03-04T11:16:35Z</time><extensions><speed>1.297396</speed><course>74.973625</course><hAcc>1.690979</hAcc><vAcc>0.824332</vAcc></extensions></trkpt>
      <trkpt lon="-2.236182" lat="53.112696"><ele>156.675751</ele><time>2022-03-04T11:16:36Z</time><extensions><speed>1.249396</speed><course>73.881416</course><hAcc>1.678382</hAcc><vAcc>0.824386</vAcc></extensions></trkpt>
      <trkpt lon="-2.236165" lat="53.112699"><ele>156.793243</ele><time>2022-03-04T11:16:37Z</time><extensions><speed>1.177441</speed><course>72.158333</course><hAcc>1.675040</hAcc><vAcc>0.824394</vAcc></extensions></trkpt>
      <trkpt lon="-2.236148" lat="53.112703"><ele>156.902985</ele><time>2022-03-04T11:16:38Z</time><extensions><speed>1.216781</speed><course>68.139496</course><hAcc>1.676430</hAcc><vAcc>0.824391</vAcc></extensions></trkpt>
      <trkpt lon="-2.236131" lat="53.112707"><ele>157.006195</ele><time>2022-03-04T11:16:39Z</time><extensions><speed>1.198833</speed><course>67.137527</course><hAcc>1.708625</hAcc><vAcc>0.824387</vAcc></extensions></trkpt>
      <trkpt lon="-2.236114" lat="53.112711"><ele>157.116241</ele><time>2022-03-04T11:16:40Z</time><extensions><speed>1.187219</speed><course>70.111267</course><hAcc>1.669068</hAcc><vAcc>0.824382</vAcc></extensions></trkpt>
      <trkpt lon="-2.236098" lat="53.112714"><ele>157.219147</ele><time>2022-03-04T11:16:41Z</time><extensions><speed>1.193585</speed><course>71.508339</course><hAcc>1.657910</hAcc><vAcc>0.824378</vAcc></extensions></trkpt>
      <trkpt lon="-2.236081" lat="53.112717"><ele>157.337433</ele><time>2022-03-04T11:16:42Z</time><extensions><speed>1.196100</speed><course>72.997475</course><hAcc>1.667933</hAcc><vAcc>0.824394</vAcc></extensions></trkpt>
      <trkpt lon="-2.236063" lat="53.112720"><ele>157.463867</ele><time>2022-03-04T11:16:43Z</time><extensions><speed>1.210859</speed><course>73.996376</course><hAcc>1.670094</hAcc><vAcc>0.824438</vAcc></extensions></trkpt>
      <trkpt lon="-2.236046" lat="53.112723"><ele>157.602081</ele><time>2022-03-04T11:16:44Z</time><extensions><speed>1.165069</speed><course>74.158424</course><hAcc>1.677922</hAcc><vAcc>0.824475</vAcc></extensions></trkpt>
      <trkpt lon="-2.236030" lat="53.112726"><ele>157.732758</ele><time>2022-03-04T11:16:45Z</time><extensions><speed>1.139757</speed><course>73.525307</course><hAcc>1.695008</hAcc><vAcc>0.824510</vAcc></extensions></trkpt>
      <trkpt lon="-2.236014" lat="53.112729"><ele>157.865753</ele><time>2022-03-04T11:16:46Z</time><extensions><speed>1.117097</speed><course>73.310150</course><hAcc>1.689511</hAcc><vAcc>0.824536</vAcc></extensions></trkpt>
      <trkpt lon="-2.235997" lat="53.112732"><ele>157.987396</ele><time>2022-03-04T11:16:47Z</time><extensions><speed>1.135085</speed><course>76.365097</course><hAcc>1.683727</hAcc><vAcc>0.824543</vAcc></extensions></trkpt>
      <trkpt lon="-2.235981" lat="53.112734"><ele>158.119415</ele><time>2022-03-04T11:16:48Z</time><extensions><speed>1.136635</speed><course>79.074440</course><hAcc>1.699441</hAcc><vAcc>0.824536</vAcc></extensions></trkpt>
      <trkpt lon="-2.235964" lat="53.112736"><ele>158.247574</ele><time>2022-03-04T11:16:48Z</time><extensions><speed>1.086275</speed><course>76.948769</course><hAcc>1.686682</hAcc><vAcc>0.824497</vAcc></extensions></trkpt>
      <trkpt lon="-2.235948" lat="53.112738"><ele>158.388153</ele><time>2022-03-04T11:16:49Z</time><extensions><speed>1.123715</speed><course>75.711548</course><hAcc>1.680065</hAcc><vAcc>0.824435</vAcc></extensions></trkpt>
      <trkpt lon="-2.235931" lat="53.112741"><ele>158.531097</ele><time>2022-03-04T11:16:50Z</time><extensions><speed>1.231242</speed><course>75.300232</course><hAcc>1.683278</hAcc><vAcc>0.824329</vAcc></extensions></trkpt>
      <trkpt lon="-2.235913" lat="53.112744"><ele>158.684189</ele><time>2022-03-04T11:16:51Z</time><extensions><speed>1.319874</speed><course>73.766487</course><hAcc>1.700100</hAcc><vAcc>0.824201</vAcc></extensions></trkpt>
      <trkpt lon="-2.235894" lat="53.112747"><ele>158.834045</ele><time>2022-03-04T11:16:52Z</time><extensions><speed>1.323395</speed><course>74.318855</course><hAcc>1.724310</hAcc><vAcc>0.824040</vAcc></extensions></trkpt>
      <trkpt lon="-2.235875" lat="53.112751"><ele>158.990768</ele><time>2022-03-04T11:16:53Z</time><extensions><speed>1.264884</speed><course>74.762962</course><hAcc>1.708282</hAcc><vAcc>0.823874</vAcc></extensions></trkpt>
      <trkpt lon="-2.235857" lat="53.112753"><ele>159.141235</ele><time>2022-03-04T11:16:54Z</time><extensions><speed>1.203693</speed><course>76.907616</course><hAcc>1.702445</hAcc><vAcc>0.823724</vAcc></extensions></trkpt>
      <trkpt lon="-2.235840" lat="53.112755"><ele>159.294144</ele><time>2022-03-04T11:16:55Z</time><extensions><speed>1.222828</speed><course>80.158974</course><hAcc>1.709617</hAcc><vAcc>0.823603</vAcc></extensions></trkpt>
      <trkpt lon="-2.235822" lat="53.112757"><ele>159.456665</ele><time>2022-03-04T11:16:56Z</time><extensions><speed>1.192086</speed><course>79.684654</course><hAcc>1.708823</hAcc><vAcc>0.823500</vAcc></extensions></trkpt>
      <trkpt lon="-2.235804" lat="53.112759"><ele>159.611954</ele><time>2022-03-04T11:16:57Z</time><extensions><speed>1.212831</speed><course>78.387802</course><hAcc>1.705815</hAcc><vAcc>0.823399</vAcc></extensions></trkpt>
      <trkpt lon="-2.235787" lat="53.112762"><ele>159.764755</ele><time>2022-03-04T11:16:58Z</time><extensions><speed>1.106635</speed><course>76.226379</course><hAcc>1.709553</hAcc><vAcc>0.823330</vAcc></extensions></trkpt>
      <trkpt lon="-2.235774" lat="53.112764"><ele>159.918381</ele><time>2022-03-04T11:16:59Z</time><extensions><speed>0.753688</speed><course>74.699936</course><hAcc>1.709503</hAcc><vAcc>0.823296</vAcc></extensions></trkpt>
      <trkpt lon="-2.235761" lat="53.112766"><ele>160.095596</ele><time>2022-03-04T11:17:00Z</time><extensions><speed>1.053252</speed><course>74.427277</course><hAcc>1.666319</hAcc><vAcc>0.823313</vAcc></extensions></trkpt>
      <trkpt lon="-2.235744" lat="53.112769"><ele>160.266769</ele><time>2022-03-04T11:17:01Z</time><extensions><speed>1.291669</speed><course>72.201263</course><hAcc>1.643963</hAcc><vAcc>0.823369</vAcc></extensions></trkpt>
      <trkpt lon="-2.235724" lat="53.112773"><ele>160.439346</ele><time>2022-03-04T11:17:02Z</time><extensions><speed>1.440229</speed><course>70.268570</course><hAcc>1.656661</hAcc><vAcc>0.823478</vAcc></extensions></trkpt>
      <trkpt lon="-2.235704" lat="53.112777"><ele>160.628708</ele><time>2022-03-04T11:17:03Z</time><extensions><speed>1.443006</speed><course>68.798630</course><hAcc>1.695884</hAcc><vAcc>0.823633</vAcc></extensions></trkpt>
      <trkpt lon="-2.235684" lat="53.112782"><ele>160.797089</ele><time>2022-03-04T11:17:04Z</time><extensions><speed>1.386519</speed><course>72.729271</course><hAcc>1.652617</hAcc><vAcc>0.823828</vAcc></extensions></trkpt>
      <trkpt lon="-2.235665" lat="53.112785"><ele>160.980881</ele><time>2022-03-04T11:17:05Z</time><extensions><speed>1.314010</speed><course>74.369675</course><hAcc>1.651201</hAcc><vAcc>0.824040</vAcc></extensions></trkpt>
      <trkpt lon="-2.235647" lat="53.112788"><ele>161.165054</ele><time>2022-03-04T11:17:06Z</time><extensions><speed>1.244432</speed><course>75.219521</course><hAcc>1.664796</hAcc><vAcc>0.824254</vAcc></extensions></trkpt>
      <trkpt lon="-2.235629" lat="53.112791"><ele>161.348877</ele><time>2022-03-04T11:17:07Z</time><extensions><speed>1.183907</speed><course>75.694046</course><hAcc>1.664777</hAcc><vAcc>0.824470</vAcc></extensions></trkpt>
      <trkpt lon="-2.235612" lat="53.112793"><ele>161.537704</ele><time>2022-03-04T11:17:08Z</time><extensions><speed>1.175456</speed><course>75.919014</course><hAcc>1.676872</hAcc><vAcc>0.824664</vAcc></extensions></trkpt>
      <trkpt lon="-2.235595" lat="53.112796"><ele>161.723526</ele><time>2022-03-04T11:17:09Z</time><extensions><speed>1.161120</speed><course>76.468681</course><hAcc>1.694158</hAcc><vAcc>0.824822</vAcc></extensions></trkpt>
      <trkpt lon="-2.235578" lat="53.112799"><ele>161.897476</ele><time>2022-03-04T11:17:10Z</time><extensions><speed>1.205199</speed><course>74.674973</course><hAcc>1.707008</hAcc><vAcc>0.824930</vAcc></extensions></trkpt>
      <trkpt lon="-2.235561" lat="53.112802"><ele>162.057877</ele><time>2022-03-04T11:17:11Z</time><extensions><speed>1.176690</speed><course>72.179359</course><hAcc>1.716638</hAcc><vAcc>0.824997</vAcc></extensions></trkpt>
      <trkpt lon="-2.235544" lat="53.112805"><ele>162.216751</ele><time>2022-03-04T11:17:12Z</time><extensions><speed>1.201567</speed><course>71.229980</course><hAcc>1.719532</hAcc><vAcc>0.825034</vAcc></extensions></trkpt>
      <trkpt lon="-2.235527" lat="53.112808"><ele>162.384628</ele><time>2022-03-04T11:17:13Z</time><extensions><speed>1.217845</speed><course>72.992264</course><hAcc>1.720715</hAcc><vAcc>0.825031</vAcc></extensions></trkpt>
      <trkpt lon="-2.235509" lat="53.112811"><ele>162.540344</ele><time>2022-03-04T11:17:14Z</time><extensions><speed>1.232299</speed><course>77.626579</course><hAcc>1.719113</hAcc><vAcc>0.824973</vAcc></extensions></trkpt>
      <trkpt lon="-2.235490" lat="53.112813"><ele>162.686584</ele><time>2022-03-04T11:17:15Z</time><extensions><speed>1.284658</speed><course>80.226234</course><hAcc>1.722954</hAcc><vAcc>0.824865</vAcc></extensions></trkpt>
      <trkpt lon="-2.235471" lat="53.112815"><ele>162.824158</ele><time>2022-03-04T11:17:16Z</time><extensions><speed>1.334113</speed><course>81.036591</course><hAcc>1.729757</hAcc><vAcc>0.824723</vAcc></extensions></trkpt>
      <trkpt lon="-2.235452" lat="53.112817"><ele>162.948013</ele><time>2022-03-04T11:17:17Z</time><extensions><speed>1.286202</speed><course>81.021996</course><hAcc>1.720311</hAcc><vAcc>0.824518</vAcc></extensions></trkpt>
      <trkpt lon="-2.235433" lat="53.112819"><ele>163.057587</ele><time>2022-03-04T11:17:18Z</time><extensions><speed>1.209505</speed><course>78.024422</course><hAcc>1.719508</hAcc><vAcc>0.824226</vAcc></extensions></trkpt>
      <trkpt lon="-2.235416" lat="53.112822"><ele>163.163879</ele><time>2022-03-04T11:17:19Z</time><extensions><speed>1.131702</speed><course>73.629570</course><hAcc>1.725713</hAcc><vAcc>0.823874</vAcc></extensions></trkpt>
      <trkpt lon="-2.235400" lat="53.112825"><ele>163.283737</ele><time>2022-03-04T11:17:20Z</time><extensions><speed>1.186144</speed><course>73.004753</course><hAcc>1.729628</hAcc><vAcc>0.823485</vAcc></extensions></trkpt>
      <trkpt lon="-2.235383" lat="53.112828"><ele>163.394516</ele><time>2022-03-04T11:17:21Z</time><extensions><speed>1.195376</speed><course>74.275490</course><hAcc>1.731042</hAcc><vAcc>0.823076</vAcc></extensions></trkpt>
      <trkpt lon="-2.235366" lat="53.112831"><ele>163.505981</ele><time>2022-03-04T11:17:22Z</time><extensions><speed>1.192898</speed><course>74.490356</course><hAcc>1.734138</hAcc><vAcc>0.822656</vAcc></extensions></trkpt>
      <trkpt lon="-2.235348" lat="53.112834"><ele>163.608597</ele><time>2022-03-04T11:17:23Z</time><extensions><speed>1.213168</speed><course>74.061325</course><hAcc>1.733859</hAcc><vAcc>0.822274</vAcc></extensions></trkpt>
      <trkpt lon="-2.235331" lat="53.112837"><ele>163.727676</ele><time>2022-03-04T11:17:24Z</time><extensions><speed>1.197455</speed><course>73.876335</course><hAcc>1.734711</hAcc><vAcc>0.821935</vAcc></extensions></trkpt>
      <trkpt lon="-2.235314" lat="53.112839"><ele>163.849228</ele><time>2022-03-04T11:17:25Z</time><extensions><speed>1.158966</speed><course>75.582886</course><hAcc>1.734741</hAcc><vAcc>0.821667</vAcc></extensions></trkpt>
      <trkpt lon="-2.235297" lat="53.112842"><ele>163.942780</ele><time>2022-03-04T11:17:26Z</time><extensions><speed>1.191550</speed><course>76.709618</course><hAcc>1.733904</hAcc><vAcc>0.821469</vAcc></extensions></trkpt>
      <trkpt lon="-2.235279" lat="53.112844"><ele>164.036530</ele><time>2022-03-04T11:17:27Z</time><extensions><speed>1.236577</speed><course>76.638245</course><hAcc>1.724873</hAcc><vAcc>0.821342</vAcc></extensions></trkpt>
      <trkpt lon="-2.235262" lat="53.112847"><ele>164.147736</ele><time>2022-03-04T11:17:28Z</time><extensions><speed>1.219347</speed><course>75.497894</course><hAcc>1.713202</hAcc><vAcc>0.821330</vAcc></extensions></trkpt>
      <trkpt lon="-2.235244" lat="53.112850"><ele>164.233566</ele><time>2022-03-04T11:17:29Z</time><extensions><speed>1.292812</speed><course>73.955330</course><hAcc>1.703715</hAcc><vAcc>0.821422</vAcc></extensions></trkpt>
      <trkpt lon="-2.235224" lat="53.112853"><ele>164.332748</ele><time>2022-03-04T11:17:30Z</time><extensions><speed>1.435018</speed><course>72.779175</course><hAcc>1.711540</hAcc><vAcc>0.821613</vAcc></extensions></trkpt>
      <trkpt lon="-2.235204" lat="53.112857"><ele>164.426575</ele><time>2022-03-04T11:17:31Z</time><extensions><speed>1.337969</speed><course>73.420059</course><hAcc>1.725928</hAcc><vAcc>0.821911</vAcc></extensions></trkpt>
      <trkpt lon="-2.235186" lat="53.112860"><ele>164.514008</ele><time>2022-03-04T11:17:32Z</time><extensions><speed>1.171564</speed><course>73.654823</course><hAcc>1.704718</hAcc><vAcc>0.822287</vAcc></extensions></trkpt>
      <trkpt lon="-2.235170" lat="53.112863"><ele>164.618286</ele><time>2022-03-04T11:17:33Z</time><extensions><speed>1.110548</speed><course>76.746826</course><hAcc>1.698569</hAcc><vAcc>0.822715</vAcc></extensions></trkpt>
      <trkpt lon="-2.235154" lat="53.112865"><ele>164.714203</ele><time>2022-03-04T11:17:34Z</time><extensions><speed>1.102661</speed><course>79.968750</course><hAcc>1.708819</hAcc><vAcc>0.823174</vAcc></extensions></trkpt>
      <trkpt lon="-2.235137" lat="53.112866"><ele>164.790009</ele><time>2022-03-04T11:17:35Z</time><extensions><speed>1.142200</speed><course>83.344673</course><hAcc>1.708874</hAcc><vAcc>0.823628</vAcc></extensions></trkpt>
      <trkpt lon="-2.235120" lat="53.112867"><ele>164.873871</ele><time>2022-03-04T11:17:36Z</time><extensions><speed>1.160871</speed><course>86.272285</course><hAcc>1.707250</hAcc><vAcc>0.824051</vAcc></extensions></trkpt>
      <trkpt lon="-2.235103" lat="53.112868"><ele>164.927414</ele><time>2022-03-04T11:17:37Z</time><extensions><speed>1.142489</speed><course>87.682678</course><hAcc>1.709536</hAcc><vAcc>0.824435</vAcc></extensions></trkpt>
      <trkpt lon="-2.235085" lat="53.112868"><ele>164.994095</ele><time>2022-03-04T11:17:38Z</time><extensions><speed>1.213753</speed><course>87.444809</course><hAcc>1.705984</hAcc><vAcc>0.824740</vAcc></extensions></trkpt>
      <trkpt lon="-2.235066" lat="53.112869"><ele>165.077789</ele><time>2022-03-04T11:17:39Z</time><extensions><speed>1.314846</speed><course>86.869225</course><hAcc>1.701844</hAcc><vAcc>0.824983</vAcc></extensions></trkpt>
      <trkpt lon="-2.235046" lat="53.112869"><ele>165.163971</ele><time>2022-03-04T11:17:40Z</time><extensions><speed>1.432793</speed><course>86.643440</course><hAcc>1.712689</hAcc><vAcc>0.825149</vAcc></extensions></trkpt>
      <trkpt lon="-2.235024" lat="53.112870"><ele>165.250732</ele><time>2022-03-04T11:17:41Z</time><extensions><speed>1.402080</speed><course>86.178833</course><hAcc>1.733185</hAcc><vAcc>0.825226</vAcc></extensions></trkpt>
      <trkpt lon="-2.235004" lat="53.112871"><ele>165.339081</ele><time>2022-03-04T11:17:42Z</time><extensions><speed>1.332353</speed><course>83.579659</course><hAcc>1.709047</hAcc><vAcc>0.825203</vAcc></extensions></trkpt>
      <trkpt lon="-2.234985" lat="53.112873"><ele>165.430359</ele><time>2022-03-04T11:17:43Z</time><extensions><speed>1.277708</speed><course>81.973679</course><hAcc>1.698799</hAcc><vAcc>0.825085</vAcc></extensions></trkpt>
      <trkpt lon="-2.234966" lat="53.112875"><ele>165.523376</ele><time>2022-03-04T11:17:44Z</time><extensions><speed>1.219046</speed><course>80.431046</course><hAcc>1.702716</hAcc><vAcc>0.824884</vAcc></extensions></trkpt>
      <trkpt lon="-2.234950" lat="53.112876"><ele>165.637314</ele><time>2022-03-04T11:17:45Z</time><extensions><speed>1.038343</speed><course>82.114609</course><hAcc>1.711034</hAcc><vAcc>0.824609</vAcc></extensions></trkpt>
      <trkpt lon="-2.234935" lat="53.112877"><ele>165.762512</ele><time>2022-03-04T11:17:46Z</time><extensions><speed>0.986706</speed><course>89.816879</course><hAcc>1.718912</hAcc><vAcc>0.824271</vAcc></extensions></trkpt>
      <trkpt lon="-2.234920" lat="53.112877"><ele>165.887100</ele><time>2022-03-04T11:17:47Z</time><extensions><speed>0.969626</speed><course>94.795906</course><hAcc>1.727357</hAcc><vAcc>0.823896</vAcc></extensions></trkpt>
      <trkpt lon="-2.234905" lat="53.112876"><ele>166.021286</ele><time>2022-03-04T11:17:48Z</time><extensions><speed>1.103727</speed><course>88.630020</course><hAcc>1.724310</hAcc><vAcc>0.823494</vAcc></extensions></trkpt>
      <trkpt lon="-2.234887" lat="53.112877"><ele>166.154587</ele><time>2022-03-04T11:17:49Z</time><extensions><speed>1.232007</speed><course>79.964455</course><hAcc>1.721973</hAcc><vAcc>0.823102</vAcc></extensions></trkpt>
      <trkpt lon="-2.234869" lat="53.112880"><ele>166.305817</ele><time>2022-03-04T11:17:50Z</time><extensions><speed>1.295960</speed><course>73.027809</course><hAcc>1.724982</hAcc><vAcc>0.822736</vAcc></extensions></trkpt>
      <trkpt lon="-2.234851" lat="53.112884"><ele>166.471802</ele><time>2022-03-04T11:17:51Z</time><extensions><speed>1.306191</speed><course>69.807747</course><hAcc>1.729036</hAcc><vAcc>0.822437</vAcc></extensions></trkpt>
      <trkpt lon="-2.234833" lat="53.112887"><ele>166.617294</ele><time>2022-03-04T11:17:52Z</time><extensions><speed>1.238612</speed><course>72.240280</course><hAcc>1.728602</hAcc><vAcc>0.822200</vAcc></extensions></trkpt>
      <trkpt lon="-2.234815" lat="53.112891"><ele>166.764297</ele><time>2022-03-04T11:17:53Z</time><extensions><speed>1.248250</speed><course>73.368904</course><hAcc>1.733138</hAcc><vAcc>0.822046</vAcc></extensions></trkpt>
      <trkpt lon="-2.234797" lat="53.112894"><ele>166.910248</ele><time>2022-03-04T11:17:54Z</time><extensions><speed>1.170313</speed><course>75.248253</course><hAcc>1.734947</hAcc><vAcc>0.821998</vAcc></extensions></trkpt>
      <trkpt lon="-2.234781" lat="53.112896"><ele>167.057831</ele><time>2022-03-04T11:17:55Z</time><extensions><speed>1.114632</speed><course>80.004639</course><hAcc>1.735736</hAcc><vAcc>0.822025</vAcc></extensions></trkpt>
      <trkpt lon="-2.234764" lat="53.112897"><ele>167.217865</ele><time>2022-03-04T11:17:56Z</time><extensions><speed>1.174173</speed><course>85.493797</course><hAcc>1.736602</hAcc><vAcc>0.822068</vAcc></extensions></trkpt>
      <trkpt lon="-2.234746" lat="53.112898"><ele>167.342758</ele><time>2022-03-04T11:17:57Z</time><extensions><speed>1.222185</speed><course>89.616280</course><hAcc>1.735581</hAcc><vAcc>0.822089</vAcc></extensions></trkpt>
      <trkpt lon="-2.234728" lat="53.112898"><ele>167.490875</ele><time>2022-03-04T11:17:58Z</time><extensions><speed>1.241356</speed><course>88.724678</course><hAcc>1.733826</hAcc><vAcc>0.821977</vAcc></extensions></trkpt>
      <trkpt lon="-2.234709" lat="53.112898"><ele>167.641998</ele><time>2022-03-04T11:17:59Z</time><extensions><speed>1.202453</speed><course>86.485405</course><hAcc>1.733271</hAcc><vAcc>0.821695</vAcc></extensions></trkpt>
      <trkpt lon="-2.234692" lat="53.112899"><ele>167.791779</ele><time>2022-03-04T11:18:00Z</time><extensions><speed>1.163689</speed><course>85.761505</course><hAcc>1.734861</hAcc><vAcc>0.821138</vAcc></extensions></trkpt>
      <trkpt lon="-2.234675" lat="53.112900"><ele>167.936523</ele><time>2022-03-04T11:18:01Z</time><extensions><speed>1.086371</speed><course>83.187668</course><hAcc>1.734830</hAcc><vAcc>0.820412</vAcc></extensions></trkpt>
      <trkpt lon="-2.234660" lat="53.112901"><ele>168.066513</ele><time>2022-03-04T11:18:02Z</time><extensions><speed>0.989204</speed><course>78.679504</course><hAcc>1.733081</hAcc><vAcc>0.819620</vAcc></extensions></trkpt>
      <trkpt lon="-2.234645" lat="53.112904"><ele>168.211411</ele><time>2022-03-04T11:18:03Z</time><extensions><speed>0.972832</speed><course>71.237358</course><hAcc>1.732421</hAcc><vAcc>0.818687</vAcc></extensions></trkpt>
      <trkpt lon="-2.234632" lat="53.112907"><ele>168.317749</ele><time>2022-03-04T11:18:04Z</time><extensions><speed>0.965170</speed><course>63.746643</course><hAcc>1.734924</hAcc><vAcc>0.817608</vAcc></extensions></trkpt>
      <trkpt lon="-2.234618" lat="53.112911"><ele>168.441177</ele><time>2022-03-04T11:18:05Z</time><extensions><speed>1.089124</speed><course>59.402157</course><hAcc>1.737434</hAcc><vAcc>0.816394</vAcc></extensions></trkpt>
      <trkpt lon="-2.234604" lat="53.112917"><ele>168.578613</ele><time>2022-03-04T11:18:06Z</time><extensions><speed>1.212578</speed><course>58.780464</course><hAcc>1.737268</hAcc><vAcc>0.815084</vAcc></extensions></trkpt>
      <trkpt lon="-2.234588" lat="53.112922"><ele>168.728531</ele><time>2022-03-04T11:18:08Z</time><extensions><speed>1.240093</speed><course>58.399113</course><hAcc>1.739714</hAcc><vAcc>0.813766</vAcc></extensions></trkpt>
      <trkpt lon="-2.234572" lat="53.112928"><ele>168.879669</ele><time>2022-03-04T11:18:09Z</time><extensions><speed>1.310464</speed><course>59.221207</course><hAcc>1.745832</hAcc><vAcc>0.812523</vAcc></extensions></trkpt>
      <trkpt lon="-2.234554" lat="53.112935"><ele>169.023560</ele><time>2022-03-04T11:18:10Z</time><extensions><speed>1.377652</speed><course>60.080742</course><hAcc>1.750099</hAcc><vAcc>0.811493</vAcc></extensions></trkpt>
      <trkpt lon="-2.234536" lat="53.112941"><ele>169.179810</ele><time>2022-03-04T11:18:11Z</time><extensions><speed>1.379302</speed><course>60.871792</course><hAcc>1.750212</hAcc><vAcc>0.810761</vAcc></extensions></trkpt>
      <trkpt lon="-2.234519" lat="53.112946"><ele>169.345886</ele><time>2022-03-04T11:18:12Z</time><extensions><speed>1.321772</speed><course>62.606213</course><hAcc>1.748850</hAcc><vAcc>0.810363</vAcc></extensions></trkpt>
      <trkpt lon="-2.234502" lat="53.112951"><ele>169.502670</ele><time>2022-03-04T11:18:13Z</time><extensions><speed>1.201698</speed><course>63.427364</course><hAcc>1.747268</hAcc><vAcc>0.810311</vAcc></extensions></trkpt>
      <trkpt lon="-2.234486" lat="53.112956"><ele>169.660202</ele><time>2022-03-04T11:18:14Z</time><extensions><speed>1.101648</speed><course>66.145638</course><hAcc>1.744242</hAcc><vAcc>0.810552</vAcc></extensions></trkpt>
      <trkpt lon="-2.234471" lat="53.112960"><ele>169.811295</ele><time>2022-03-04T11:18:15Z</time><extensions><speed>1.053413</speed><course>69.322029</course><hAcc>1.742963</hAcc><vAcc>0.811024</vAcc></extensions></trkpt>
      <trkpt lon="-2.234456" lat="53.112963"><ele>169.979965</ele><time>2022-03-04T11:18:16Z</time><extensions><speed>1.141450</speed><course>71.024300</course><hAcc>1.742224</hAcc><vAcc>0.811673</vAcc></extensions></trkpt>
      <trkpt lon="-2.234439" lat="53.112966"><ele>170.155533</ele><time>2022-03-04T11:18:17Z</time><extensions><speed>1.247658</speed><course>73.205307</course><hAcc>1.741591</hAcc><vAcc>0.812430</vAcc></extensions></trkpt>
      <trkpt lon="-2.234421" lat="53.112969"><ele>170.331177</ele><time>2022-03-04T11:18:18Z</time><extensions><speed>1.300092</speed><course>75.330734</course><hAcc>1.743764</hAcc><vAcc>0.813279</vAcc></extensions></trkpt>
      <trkpt lon="-2.234402" lat="53.112972"><ele>170.507263</ele><time>2022-03-04T11:18:19Z</time><extensions><speed>1.244333</speed><course>76.635216</course><hAcc>1.743748</hAcc><vAcc>0.814170</vAcc></extensions></trkpt>
      <trkpt lon="-2.234384" lat="53.112974"><ele>170.683228</ele><time>2022-03-04T11:18:20Z</time><extensions><speed>1.230185</speed><course>78.790604</course><hAcc>1.743270</hAcc><vAcc>0.815067</vAcc></extensions></trkpt>
      <trkpt lon="-2.234366" lat="53.112976"><ele>170.838165</ele><time>2022-03-04T11:18:21Z</time><extensions><speed>1.220732</speed><course>79.878464</course><hAcc>1.744637</hAcc><vAcc>0.815933</vAcc></extensions></trkpt>
      <trkpt lon="-2.234349" lat="53.112978"><ele>170.994171</ele><time>2022-03-04T11:18:22Z</time><extensions><speed>1.157023</speed><course>80.442986</course><hAcc>1.747589</hAcc><vAcc>0.816756</vAcc></extensions></trkpt>
      <trkpt lon="-2.234331" lat="53.112980"><ele>171.143845</ele><time>2022-03-04T11:18:23Z</time><extensions><speed>1.188757</speed><course>81.825455</course><hAcc>1.748191</hAcc><vAcc>0.817517</vAcc></extensions></trkpt>
      <trkpt lon="-2.234314" lat="53.112981"><ele>171.295166</ele><time>2022-03-04T11:18:24Z</time><extensions><speed>1.184467</speed><course>81.279984</course><hAcc>1.746852</hAcc><vAcc>0.818227</vAcc></extensions></trkpt>
      <trkpt lon="-2.234296" lat="53.112983"><ele>171.429062</ele><time>2022-03-04T11:18:25Z</time><extensions><speed>1.166582</speed><course>81.365875</course><hAcc>1.746169</hAcc><vAcc>0.818869</vAcc></extensions></trkpt>
      <trkpt lon="-2.234279" lat="53.112985"><ele>171.559235</ele><time>2022-03-04T11:18:26Z</time><extensions><speed>1.250713</speed><course>81.400551</course><hAcc>1.745880</hAcc><vAcc>0.819443</vAcc></extensions></trkpt>
      <trkpt lon="-2.234260" lat="53.112986"><ele>171.683167</ele><time>2022-03-04T11:18:27Z</time><extensions><speed>1.262729</speed><course>80.504074</course><hAcc>1.744949</hAcc><vAcc>0.819955</vAcc></extensions></trkpt>
      <trkpt lon="-2.234242" lat="53.112989"><ele>171.799896</ele><time>2022-03-04T11:18:28Z</time><extensions><speed>1.249167</speed><course>75.781670</course><hAcc>1.742822</hAcc><vAcc>0.820417</vAcc></extensions></trkpt>
      <trkpt lon="-2.234224" lat="53.112992"><ele>171.906021</ele><time>2022-03-04T11:18:29Z</time><extensions><speed>1.199005</speed><course>70.063301</course><hAcc>1.740460</hAcc><vAcc>0.820837</vAcc></extensions></trkpt>
      <trkpt lon="-2.234208" lat="53.112996"><ele>171.992844</ele><time>2022-03-04T11:18:30Z</time><extensions><speed>1.168530</speed><course>66.727348</course><hAcc>1.738337</hAcc><vAcc>0.821237</vAcc></extensions></trkpt>
      <trkpt lon="-2.234192" lat="53.113000"><ele>172.069397</ele><time>2022-03-04T11:18:31Z</time><extensions><speed>1.120657</speed><course>67.385208</course><hAcc>1.738515</hAcc><vAcc>0.821604</vAcc></extensions></trkpt>
      <trkpt lon="-2.234176" lat="53.113004"><ele>172.135162</ele><time>2022-03-04T11:18:32Z</time><extensions><speed>1.235144</speed><course>69.469528</course><hAcc>1.737348</hAcc><vAcc>0.821970</vAcc></extensions></trkpt>
      <trkpt lon="-2.234157" lat="53.113008"><ele>172.184158</ele><time>2022-03-04T11:18:33Z</time><extensions><speed>1.328954</speed><course>70.408463</course><hAcc>1.737092</hAcc><vAcc>0.822332</vAcc></extensions></trkpt>
      <trkpt lon="-2.234139" lat="53.113012"><ele>172.223206</ele><time>2022-03-04T11:18:34Z</time><extensions><speed>1.348185</speed><course>71.961975</course><hAcc>1.736317</hAcc><vAcc>0.822715</vAcc></extensions></trkpt>
      <trkpt lon="-2.234120" lat="53.113015"><ele>172.232651</ele><time>2022-03-04T11:18:35Z</time><extensions><speed>1.331822</speed><course>71.491707</course><hAcc>1.737140</hAcc><vAcc>0.823117</vAcc></extensions></trkpt>
      <trkpt lon="-2.234101" lat="53.113019"><ele>172.235794</ele><time>2022-03-04T11:18:36Z</time><extensions><speed>1.349728</speed><course>70.728294</course><hAcc>1.736802</hAcc><vAcc>0.823515</vAcc></extensions></trkpt>
      <trkpt lon="-2.234081" lat="53.113023"><ele>172.240814</ele><time>2022-03-04T11:18:37Z</time><extensions><speed>1.336419</speed><course>71.509529</course><hAcc>1.735823</hAcc><vAcc>0.823915</vAcc></extensions></trkpt>
      <trkpt lon="-2.234063" lat="53.113027"><ele>172.235123</ele><time>2022-03-04T11:18:38Z</time><extensions><speed>1.303645</speed><course>72.226768</course><hAcc>1.736071</hAcc><vAcc>0.824288</vAcc></extensions></trkpt>
      <trkpt lon="-2.234044" lat="53.113030"><ele>172.231781</ele><time>2022-03-04T11:18:39Z</time><extensions><speed>1.277920</speed><course>72.724358</course><hAcc>1.733422</hAcc><vAcc>0.824628</vAcc></extensions></trkpt>
      <trkpt lon="-2.234026" lat="53.113034"><ele>172.225815</ele><time>2022-03-04T11:18:40Z</time><extensions><speed>1.232736</speed><course>72.230377</course><hAcc>1.733811</hAcc><vAcc>0.824936</vAcc></extensions></trkpt>
      <trkpt lon="-2.234008" lat="53.113037"><ele>172.210999</ele><time>2022-03-04T11:18:41Z</time><extensions><speed>1.287311</speed><course>72.720375</course><hAcc>1.731016</hAcc><vAcc>0.825181</vAcc></extensions></trkpt>
      <trkpt lon="-2.233990" lat="53.113041"><ele>172.191666</ele><time>2022-03-04T11:18:42Z</time><extensions><speed>1.321709</speed><course>74.337959</course><hAcc>1.721550</hAcc><vAcc>0.825391</vAcc></extensions></trkpt>
      <trkpt lon="-2.233971" lat="53.113044"><ele>172.165039</ele><time>2022-03-04T11:18:43Z</time><extensions><speed>1.228532</speed><course>72.810036</course><hAcc>1.716392</hAcc><vAcc>0.825559</vAcc></extensions></trkpt>
      <trkpt lon="-2.233953" lat="53.113047"><ele>172.130081</ele><time>2022-03-04T11:18:44Z</time><extensions><speed>1.344510</speed><course>73.422203</course><hAcc>1.708854</hAcc><vAcc>0.825677</vAcc></extensions></trkpt>
      <trkpt lon="-2.233933" lat="53.113051"><ele>172.086548</ele><time>2022-03-04T11:18:45Z</time><extensions><speed>1.491024</speed><course>73.355942</course><hAcc>1.711444</hAcc><vAcc>0.825756</vAcc></extensions></trkpt>
      <trkpt lon="-2.233911" lat="53.113055"><ele>172.052872</ele><time>2022-03-04T11:18:46Z</time><extensions><speed>1.489092</speed><course>73.071068</course><hAcc>1.729409</hAcc><vAcc>0.825790</vAcc></extensions></trkpt>
      <trkpt lon="-2.233890" lat="53.113058"><ele>172.018616</ele><time>2022-03-04T11:18:47Z</time><extensions><speed>1.431176</speed><course>74.604324</course><hAcc>1.715309</hAcc><vAcc>0.825796</vAcc></extensions></trkpt>
      <trkpt lon="-2.233870" lat="53.113061"><ele>171.997009</ele><time>2022-03-04T11:18:48Z</time><extensions><speed>1.367930</speed><course>77.429512</course><hAcc>1.707710</hAcc><vAcc>0.825785</vAcc></extensions></trkpt>
      <trkpt lon="-2.233850" lat="53.113064"><ele>171.979630</ele><time>2022-03-04T11:18:49Z</time><extensions><speed>1.361834</speed><course>77.881660</course><hAcc>1.711865</hAcc><vAcc>0.825779</vAcc></extensions></trkpt>
      <trkpt lon="-2.233831" lat="53.113066"><ele>171.969589</ele><time>2022-03-04T11:18:50Z</time><extensions><speed>1.345158</speed><course>77.918823</course><hAcc>1.717605</hAcc><vAcc>0.825799</vAcc></extensions></trkpt>
      <trkpt lon="-2.233811" lat="53.113069"><ele>171.969223</ele><time>2022-03-04T11:18:51Z</time><extensions><speed>1.324160</speed><course>79.378387</course><hAcc>1.722259</hAcc><vAcc>0.825866</vAcc></extensions></trkpt>
      <trkpt lon="-2.233792" lat="53.113071"><ele>171.980240</ele><time>2022-03-04T11:18:52Z</time><extensions><speed>1.288511</speed><course>81.087898</course><hAcc>1.722268</hAcc><vAcc>0.825973</vAcc></extensions></trkpt>
      <trkpt lon="-2.233773" lat="53.113072"><ele>172.003769</ele><time>2022-03-04T11:18:53Z</time><extensions><speed>1.305646</speed><course>82.504539</course><hAcc>1.716578</hAcc><vAcc>0.826112</vAcc></extensions></trkpt>
      <trkpt lon="-2.233753" lat="53.113074"><ele>172.048279</ele><time>2022-03-04T11:18:54Z</time><extensions><speed>1.367792</speed><course>82.199318</course><hAcc>1.713146</hAcc><vAcc>0.826286</vAcc></extensions></trkpt>
      <trkpt lon="-2.233732" lat="53.113076"><ele>172.122620</ele><time>2022-03-04T11:18:55Z</time><extensions><speed>1.432730</speed><course>83.214508</course><hAcc>1.718373</hAcc><vAcc>0.826486</vAcc></extensions></trkpt>
      <trkpt lon="-2.233711" lat="53.113077"><ele>172.189560</ele><time>2022-03-04T11:18:56Z</time><extensions><speed>1.416210</speed><course>84.754951</course><hAcc>1.731943</hAcc><vAcc>0.826690</vAcc></extensions></trkpt>
      <trkpt lon="-2.233690" lat="53.113078"><ele>172.257690</ele><time>2022-03-04T11:18:57Z</time><extensions><speed>1.341250</speed><course>87.140961</course><hAcc>1.719130</hAcc><vAcc>0.826913</vAcc></extensions></trkpt>
      <trkpt lon="-2.233671" lat="53.113078"><ele>172.337296</ele><time>2022-03-04T11:18:58Z</time><extensions><speed>1.284567</speed><course>89.401199</course><hAcc>1.711497</hAcc><vAcc>0.827133</vAcc></extensions></trkpt>
      <trkpt lon="-2.233652" lat="53.113078"><ele>172.403290</ele><time>2022-03-04T11:18:59Z</time><extensions><speed>1.246391</speed><course>89.687592</course><hAcc>1.711309</hAcc><vAcc>0.827334</vAcc></extensions></trkpt>
      <trkpt lon="-2.233633" lat="53.113078"><ele>172.490707</ele><time>2022-03-04T11:18:59Z</time><extensions><speed>1.215846</speed><course>90.218513</course><hAcc>1.707115</hAcc><vAcc>0.827517</vAcc></extensions></trkpt>
      <trkpt lon="-2.233615" lat="53.113078"><ele>172.584274</ele><time>2022-03-04T11:19:00Z</time><extensions><speed>1.232838</speed><course>90.135513</course><hAcc>1.695112</hAcc><vAcc>0.827671</vAcc></extensions></trkpt>
      <trkpt lon="-2.233595" lat="53.113078"><ele>172.678085</ele><time>2022-03-04T11:19:01Z</time><extensions><speed>1.367997</speed><course>88.196678</course><hAcc>1.677086</hAcc><vAcc>0.827788</vAcc></extensions></trkpt>
      <trkpt lon="-2.233574" lat="53.113079"><ele>172.769318</ele><time>2022-03-04T11:19:02Z</time><extensions><speed>1.449718</speed><course>87.056099</course><hAcc>1.660923</hAcc><vAcc>0.827875</vAcc></extensions></trkpt>
      <trkpt lon="-2.233553" lat="53.113080"><ele>172.847153</ele><time>2022-03-04T11:19:03Z</time><extensions><speed>1.455544</speed><course>86.300621</course><hAcc>1.678761</hAcc><vAcc>0.827930</vAcc></extensions></trkpt>
      <trkpt lon="-2.233531" lat="53.113081"><ele>172.918152</ele><time>2022-03-04T11:19:04Z</time><extensions><speed>1.397313</speed><course>84.478683</course><hAcc>1.730265</hAcc><vAcc>0.827969</vAcc></extensions></trkpt>
      <trkpt lon="-2.233511" lat="53.113082"><ele>172.994049</ele><time>2022-03-04T11:19:05Z</time><extensions><speed>1.285768</speed><course>86.693192</course><hAcc>1.679948</hAcc><vAcc>0.827977</vAcc></extensions></trkpt>
      <trkpt lon="-2.233492" lat="53.113082"><ele>173.085663</ele><time>2022-03-04T11:19:06Z</time><extensions><speed>1.258416</speed><course>88.379181</course><hAcc>1.660855</hAcc><vAcc>0.827962</vAcc></extensions></trkpt>
      <trkpt lon="-2.233473" lat="53.113082"><ele>173.176773</ele><time>2022-03-04T11:19:07Z</time><extensions><speed>1.303231</speed><course>90.509354</course><hAcc>1.677235</hAcc><vAcc>0.827923</vAcc></extensions></trkpt>
      <trkpt lon="-2.233454" lat="53.113082"><ele>173.256393</ele><time>2022-03-04T11:19:08Z</time><extensions><speed>1.321213</speed><course>93.344604</course><hAcc>1.700277</hAcc><vAcc>0.827865</vAcc></extensions></trkpt>
      <trkpt lon="-2.233433" lat="53.113081"><ele>173.329056</ele><time>2022-03-04T11:19:09Z</time><extensions><speed>1.388852</speed><course>95.807732</course><hAcc>1.714435</hAcc><vAcc>0.827816</vAcc></extensions></trkpt>
      <trkpt lon="-2.233412" lat="53.113080"><ele>173.393463</ele><time>2022-03-04T11:19:10Z</time><extensions><speed>1.435493</speed><course>95.668251</course><hAcc>1.722135</hAcc><vAcc>0.827758</vAcc></extensions></trkpt>
      <trkpt lon="-2.233391" lat="53.113078"><ele>173.454071</ele><time>2022-03-04T11:19:11Z</time><extensions><speed>1.433490</speed><course>95.901100</course><hAcc>1.725702</hAcc><vAcc>0.827703</vAcc></extensions></trkpt>
      <trkpt lon="-2.233370" lat="53.113077"><ele>173.516464</ele><time>2022-03-04T11:19:12Z</time><extensions><speed>1.370084</speed><course>95.388771</course><hAcc>1.721352</hAcc><vAcc>0.827661</vAcc></extensions></trkpt>
      <trkpt lon="-2.233350" lat="53.113076"><ele>173.562714</ele><time>2022-03-04T11:19:13Z</time><extensions><speed>1.412232</speed><course>94.837082</course><hAcc>1.704809</hAcc><vAcc>0.827627</vAcc></extensions></trkpt>
      <trkpt lon="-2.233328" lat="53.113075"><ele>173.604111</ele><time>2022-03-04T11:19:14Z</time><extensions><speed>1.497638</speed><course>95.280930</course><hAcc>1.679322</hAcc><vAcc>0.827604</vAcc></extensions></trkpt>
      <trkpt lon="-2.233306" lat="53.113073"><ele>173.649872</ele><time>2022-03-04T11:19:15Z</time><extensions><speed>1.520808</speed><course>97.446609</course><hAcc>1.650983</hAcc><vAcc>0.827592</vAcc></extensions></trkpt>
      <trkpt lon="-2.233283" lat="53.113071"><ele>173.688202</ele><time>2022-03-04T11:19:16Z</time><extensions><speed>1.516044</speed><course>99.488869</course><hAcc>1.640193</hAcc><vAcc>0.827605</vAcc></extensions></trkpt>
      <trkpt lon="-2.233261" lat="53.113069"><ele>173.731796</ele><time>2022-03-04T11:19:17Z</time><extensions><speed>1.483911</speed><course>100.694427</course><hAcc>1.662009</hAcc><vAcc>0.827647</vAcc></extensions></trkpt>
      <trkpt lon="-2.233239" lat="53.113067"><ele>173.777725</ele><time>2022-03-04T11:19:18Z</time><extensions><speed>1.489583</speed><course>97.382423</course><hAcc>1.657083</hAcc><vAcc>0.827696</vAcc></extensions></trkpt>
      <trkpt lon="-2.233217" lat="53.113065"><ele>173.810013</ele><time>2022-03-04T11:19:19Z</time><extensions><speed>1.451387</speed><course>94.717522</course><hAcc>1.674777</hAcc><vAcc>0.827750</vAcc></extensions></trkpt>
      <trkpt lon="-2.233197" lat="53.113064"><ele>173.841583</ele><time>2022-03-04T11:19:20Z</time><extensions><speed>1.350749</speed><course>95.077614</course><hAcc>1.637034</hAcc><vAcc>0.827806</vAcc></extensions></trkpt>
      <trkpt lon="-2.233177" lat="53.113063"><ele>173.881516</ele><time>2022-03-04T11:19:21Z</time><extensions><speed>1.272808</speed><course>95.662712</course><hAcc>1.638456</hAcc><vAcc>0.827843</vAcc></extensions></trkpt>
      <trkpt lon="-2.233158" lat="53.113062"><ele>173.925995</ele><time>2022-03-04T11:19:22Z</time><extensions><speed>1.235370</speed><course>94.289047</course><hAcc>1.666361</hAcc><vAcc>0.827866</vAcc></extensions></trkpt>
      <trkpt lon="-2.233141" lat="53.113062"><ele>173.984497</ele><time>2022-03-04T11:19:23Z</time><extensions><speed>1.157537</speed><course>92.370331</course><hAcc>1.691634</hAcc><vAcc>0.827885</vAcc></extensions></trkpt>
      <trkpt lon="-2.233123" lat="53.113061"><ele>174.033371</ele><time>2022-03-04T11:19:24Z</time><extensions><speed>1.138520</speed><course>92.451538</course><hAcc>1.707752</hAcc><vAcc>0.827899</vAcc></extensions></trkpt>
      <trkpt lon="-2.233107" lat="53.113060"><ele>174.081131</ele><time>2022-03-04T11:19:25Z</time><extensions><speed>1.072591</speed><course>95.492493</course><hAcc>1.714892</hAcc><vAcc>0.827906</vAcc></extensions></trkpt>
      <trkpt lon="-2.233091" lat="53.113059"><ele>174.130692</ele><time>2022-03-04T11:19:26Z</time><extensions><speed>1.002223</speed><course>98.549820</course><hAcc>1.714097</hAcc><vAcc>0.827909</vAcc></extensions></trkpt>
      <trkpt lon="-2.233077" lat="53.113058"><ele>174.182388</ele><time>2022-03-04T11:19:27Z</time><extensions><speed>0.977964</speed><course>103.084282</course><hAcc>1.710138</hAcc><vAcc>0.827869</vAcc></extensions></trkpt>
      <trkpt lon="-2.233064" lat="53.113055"><ele>174.239807</ele><time>2022-03-04T11:19:28Z</time><extensions><speed>0.815975</speed><course>111.679085</course><hAcc>1.711019</hAcc><vAcc>0.827806</vAcc></extensions></trkpt>
      <trkpt lon="-2.233055" lat="53.113053"><ele>174.301727</ele><time>2022-03-04T11:19:29Z</time><extensions><speed>0.546599</speed><course>121.335403</course><hAcc>1.719887</hAcc><vAcc>0.827729</vAcc></extensions></trkpt>
      <trkpt lon="-2.233050" lat="53.113051"><ele>174.362015</ele><time>2022-03-04T11:19:30Z</time><extensions><speed>0.323867</speed><course>121.124557</course><hAcc>1.723582</hAcc><vAcc>0.827646</vAcc></extensions></trkpt>
      <trkpt lon="-2.233045" lat="53.113049"><ele>174.417786</ele><time>2022-03-04T11:19:31Z</time><extensions><speed>0.401667</speed><course>113.082039</course><hAcc>1.709817</hAcc><vAcc>0.827563</vAcc></extensions></trkpt>
      <trkpt lon="-2.233037" lat="53.113048"><ele>174.468277</ele><time>2022-03-04T11:19:32Z</time><extensions><speed>0.666526</speed><course>107.960968</course><hAcc>1.706400</hAcc><vAcc>0.827480</vAcc></extensions></trkpt>
      <trkpt lon="-2.233027" lat="53.113046"><ele>174.513916</ele><time>2022-03-04T11:19:33Z</time><extensions><speed>0.746216</speed><course>105.999382</course><hAcc>1.715574</hAcc><vAcc>0.827410</vAcc></extensions></trkpt>
      <trkpt lon="-2.233016" lat="53.113044"><ele>174.547546</ele><time>2022-03-04T11:19:34Z</time><extensions><speed>0.730796</speed><course>99.745773</course><hAcc>1.719600</hAcc><vAcc>0.827380</vAcc></extensions></trkpt>
      <trkpt lon="-2.233007" lat="53.113044"><ele>174.582413</ele><time>2022-03-04T11:19:35Z</time><extensions><speed>0.593660</speed><course>89.080429</course><hAcc>1.720489</hAcc><vAcc>0.827348</vAcc></extensions></trkpt>
      <trkpt lon="-2.233000" lat="53.113044"><ele>174.609818</ele><time>2022-03-04T11:19:36Z</time><extensions><speed>0.354263</speed><course>68.838806</course><hAcc>1.716513</hAcc><vAcc>0.827325</vAcc></extensions></trkpt>
      <trkpt lon="-2.232996" lat="53.113046"><ele>174.617477</ele><time>2022-03-04T11:19:37Z</time><extensions><speed>0.174283</speed><course>41.283928</course><hAcc>1.714293</hAcc><vAcc>0.827316</vAcc></extensions></trkpt>
      <trkpt lon="-2.232995" lat="53.113047"><ele>174.618866</ele><time>2022-03-04T11:19:38Z</time><extensions><speed>0.112885</speed><course>22.069782</course><hAcc>1.724216</hAcc><vAcc>0.827321</vAcc></extensions></trkpt>
      <trkpt lon="-2.232994" lat="53.113047"><ele>174.617584</ele><time>2022-03-04T11:19:39Z</time><extensions><speed>0.071724</speed><course>55.175854</course><hAcc>1.744496</hAcc><vAcc>0.827342</vAcc></extensions></trkpt>
      <trkpt lon="-2.232992" lat="53.113047"><ele>174.617447</ele><time>2022-03-04T11:19:40Z</time><extensions><speed>0.175395</speed><course>104.660225</course><hAcc>1.725679</hAcc><vAcc>0.827375</vAcc></extensions></trkpt>
      <trkpt lon="-2.232989" lat="53.113046"><ele>174.622208</ele><time>2022-03-04T11:19:41Z</time><extensions><speed>0.384774</speed><course>115.082138</course><hAcc>1.714000</hAcc><vAcc>0.827415</vAcc></extensions></trkpt>
      <trkpt lon="-2.232981" lat="53.113044"><ele>174.629257</ele><time>2022-03-04T11:19:42Z</time><extensions><speed>0.727759</speed><course>116.856827</course><hAcc>1.709258</hAcc><vAcc>0.827471</vAcc></extensions></trkpt>
      <trkpt lon="-2.232970" lat="53.113040"><ele>174.636414</ele><time>2022-03-04T11:19:43Z</time><extensions><speed>0.981135</speed><course>118.869118</course><hAcc>1.727364</hAcc><vAcc>0.827529</vAcc></extensions></trkpt>
      <trkpt lon="-2.232955" lat="53.113036"><ele>174.651215</ele><time>2022-03-04T11:19:44Z</time><extensions><speed>1.188392</speed><course>117.713539</course><hAcc>1.730208</hAcc><vAcc>0.827577</vAcc></extensions></trkpt>
      <trkpt lon="-2.232939" lat="53.113031"><ele>174.683060</ele><time>2022-03-04T11:19:45Z</time><extensions><speed>1.345365</speed><course>115.878502</course><hAcc>1.722221</hAcc><vAcc>0.827604</vAcc></extensions></trkpt>
      <trkpt lon="-2.232920" lat="53.113026"><ele>174.705063</ele><time>2022-03-04T11:19:46Z</time><extensions><speed>1.346068</speed><course>114.298775</course><hAcc>1.717563</hAcc><vAcc>0.827622</vAcc></extensions></trkpt>
      <trkpt lon="-2.232903" lat="53.113021"><ele>174.738159</ele><time>2022-03-04T11:19:47Z</time><extensions><speed>1.207374</speed><course>111.985115</course><hAcc>1.716151</hAcc><vAcc>0.827617</vAcc></extensions></trkpt>
      <trkpt lon="-2.232885" lat="53.113017"><ele>174.772110</ele><time>2022-03-04T11:19:48Z</time><extensions><speed>1.319509</speed><course>111.166161</course><hAcc>1.717479</hAcc><vAcc>0.827591</vAcc></extensions></trkpt>
      <trkpt lon="-2.232866" lat="53.113012"><ele>174.799698</ele><time>2022-03-04T11:19:49Z</time><extensions><speed>1.453311</speed><course>111.351990</course><hAcc>1.719015</hAcc><vAcc>0.827563</vAcc></extensions></trkpt>
      <trkpt lon="-2.232845" lat="53.113007"><ele>174.832657</ele><time>2022-03-04T11:19:50Z</time><extensions><speed>1.470057</speed><course>111.688072</course><hAcc>1.719062</hAcc><vAcc>0.827524</vAcc></extensions></trkpt>
      <trkpt lon="-2.232826" lat="53.113003"><ele>174.869171</ele><time>2022-03-04T11:19:51Z</time><extensions><speed>1.388644</speed><course>111.544861</course><hAcc>1.718258</hAcc><vAcc>0.827482</vAcc></extensions></trkpt>
      <trkpt lon="-2.232806" lat="53.112998"><ele>174.908432</ele><time>2022-03-04T11:19:52Z</time><extensions><speed>1.341790</speed><course>110.389542</course><hAcc>1.714336</hAcc><vAcc>0.827437</vAcc></extensions></trkpt>
      <trkpt lon="-2.232788" lat="53.112994"><ele>174.974289</ele><time>2022-03-04T11:19:53Z</time><extensions><speed>1.261045</speed><course>111.005684</course><hAcc>1.712867</hAcc><vAcc>0.827403</vAcc></extensions></trkpt>
      <trkpt lon="-2.232771" lat="53.112990"><ele>175.023849</ele><time>2022-03-04T11:19:54Z</time><extensions><speed>1.223925</speed><course>111.049820</course><hAcc>1.706339</hAcc><vAcc>0.827381</vAcc></extensions></trkpt>
      <trkpt lon="-2.232753" lat="53.112986"><ele>175.064880</ele><time>2022-03-04T11:19:55Z</time><extensions><speed>1.236860</speed><course>112.420883</course><hAcc>1.687199</hAcc><vAcc>0.827375</vAcc></extensions></trkpt>
      <trkpt lon="-2.232736" lat="53.112981"><ele>175.101852</ele><time>2022-03-04T11:19:56Z</time><extensions><speed>1.239629</speed><course>112.215340</course><hAcc>1.657995</hAcc><vAcc>0.827384</vAcc></extensions></trkpt>
      <trkpt lon="-2.232720" lat="53.112977"><ele>175.129761</ele><time>2022-03-04T11:19:57Z</time><extensions><speed>1.155020</speed><course>111.530869</course><hAcc>1.630509</hAcc><vAcc>0.827401</vAcc></extensions></trkpt>
      <trkpt lon="-2.232704" lat="53.112974"><ele>175.145233</ele><time>2022-03-04T11:19:58Z</time><extensions><speed>0.991187</speed><course>110.190269</course><hAcc>1.641173</hAcc><vAcc>0.827424</vAcc></extensions></trkpt>
      <trkpt lon="-2.232692" lat="53.112971"><ele>175.161880</ele><time>2022-03-04T11:19:59Z</time><extensions><speed>0.790557</speed><course>105.979637</course><hAcc>1.690811</hAcc><vAcc>0.827460</vAcc></extensions></trkpt>
      <trkpt lon="-2.232680" lat="53.112969"><ele>175.178375</ele><time>2022-03-04T11:20:00Z</time><extensions><speed>0.868148</speed><course>106.840012</course><hAcc>1.651653</hAcc><vAcc>0.827502</vAcc></extensions></trkpt>
      <trkpt lon="-2.232666" lat="53.112967"><ele>175.191452</ele><time>2022-03-04T11:20:01Z</time><extensions><speed>0.982658</speed><course>105.917648</course><hAcc>1.604882</hAcc><vAcc>0.827537</vAcc></extensions></trkpt>
      <trkpt lon="-2.232651" lat="53.112964"><ele>175.192032</ele><time>2022-03-04T11:20:02Z</time><extensions><speed>1.125235</speed><course>107.415596</course><hAcc>1.594436</hAcc><vAcc>0.827597</vAcc></extensions></trkpt>
      <trkpt lon="-2.232634" lat="53.112960"><ele>175.194244</ele><time>2022-03-04T11:20:03Z</time><extensions><speed>1.252925</speed><course>113.420326</course><hAcc>1.597159</hAcc><vAcc>0.827643</vAcc></extensions></trkpt>
      <trkpt lon="-2.232617" lat="53.112955"><ele>175.182465</ele><time>2022-03-04T11:20:04Z</time><extensions><speed>1.278157</speed><course>119.181282</course><hAcc>1.602940</hAcc><vAcc>0.827677</vAcc></extensions></trkpt>
      <trkpt lon="-2.232602" lat="53.112949"><ele>175.177780</ele><time>2022-03-04T11:20:05Z</time><extensions><speed>1.216014</speed><course>127.557625</course><hAcc>1.626245</hAcc><vAcc>0.827701</vAcc></extensions></trkpt>
      <trkpt lon="-2.232588" lat="53.112942"><ele>175.170944</ele><time>2022-03-04T11:20:06Z</time><extensions><speed>1.175496</speed><course>136.827438</course><hAcc>1.630610</hAcc><vAcc>0.827722</vAcc></extensions></trkpt>
      <trkpt lon="-2.232575" lat="53.112934"><ele>175.171127</ele><time>2022-03-04T11:20:07Z</time><extensions><speed>1.255386</speed><course>130.282593</course><hAcc>1.583988</hAcc><vAcc>0.827742</vAcc></extensions></trkpt>
      <trkpt lon="-2.232559" lat="53.112928"><ele>175.159409</ele><time>2022-03-04T11:20:08Z</time><extensions><speed>1.404181</speed><course>119.390190</course><hAcc>1.547124</hAcc><vAcc>0.827757</vAcc></extensions></trkpt>
      <trkpt lon="-2.232539" lat="53.112922"><ele>175.173996</ele><time>2022-03-04T11:20:09Z</time><extensions><speed>1.526492</speed><course>109.744652</course><hAcc>1.558416</hAcc><vAcc>0.827776</vAcc></extensions></trkpt>
      <trkpt lon="-2.232517" lat="53.112918"><ele>175.164764</ele><time>2022-03-04T11:20:10Z</time><extensions><speed>1.513261</speed><course>102.871895</course><hAcc>1.611284</hAcc><vAcc>0.827796</vAcc></extensions></trkpt>
      <trkpt lon="-2.232495" lat="53.112915"><ele>175.150085</ele><time>2022-03-04T11:20:11Z</time><extensions><speed>1.556434</speed><course>104.241501</course><hAcc>1.582913</hAcc><vAcc>0.827813</vAcc></extensions></trkpt>
      <trkpt lon="-2.232473" lat="53.112911"><ele>175.137283</ele><time>2022-03-04T11:20:12Z</time><extensions><speed>1.460932</speed><course>106.783348</course><hAcc>1.594452</hAcc><vAcc>0.827839</vAcc></extensions></trkpt>
      <trkpt lon="-2.232454" lat="53.112907"><ele>175.131668</ele><time>2022-03-04T11:20:14Z</time><extensions><speed>1.301935</speed><course>112.574982</course><hAcc>1.588143</hAcc><vAcc>0.827858</vAcc></extensions></trkpt>
      <trkpt lon="-2.232436" lat="53.112902"><ele>175.128937</ele><time>2022-03-04T11:20:15Z</time><extensions><speed>1.308911</speed><course>116.494507</course><hAcc>1.572502</hAcc><vAcc>0.827843</vAcc></extensions></trkpt>
      <trkpt lon="-2.232418" lat="53.112897"><ele>175.120789</ele><time>2022-03-04T11:20:16Z</time><extensions><speed>1.338394</speed><course>120.607101</course><hAcc>1.584634</hAcc><vAcc>0.827830</vAcc></extensions></trkpt>
      <trkpt lon="-2.232402" lat="53.112890"><ele>175.117966</ele><time>2022-03-04T11:20:17Z</time><extensions><speed>1.282365</speed><course>123.277252</course><hAcc>1.616889</hAcc><vAcc>0.827813</vAcc></extensions></trkpt>
      <trkpt lon="-2.232386" lat="53.112884"><ele>175.107895</ele><time>2022-03-04T11:20:18Z</time><extensions><speed>1.276736</speed><course>125.534477</course><hAcc>1.651247</hAcc><vAcc>0.827786</vAcc></extensions></trkpt>
      <trkpt lon="-2.232370" lat="53.112878"><ele>175.111343</ele><time>2022-03-04T11:20:19Z</time><extensions><speed>1.311622</speed><course>121.153854</course><hAcc>1.638559</hAcc><vAcc>0.827750</vAcc></extensions></trkpt>
      <trkpt lon="-2.232352" lat="53.112872"><ele>175.108017</ele><time>2022-03-04T11:20:20Z</time><extensions><speed>1.343433</speed><course>119.306503</course><hAcc>1.627143</hAcc><vAcc>0.827709</vAcc></extensions></trkpt>
      <trkpt lon="-2.232335" lat="53.112866"><ele>175.094269</ele><time>2022-03-04T11:20:21Z</time><extensions><speed>1.277509</speed><course>118.083229</course><hAcc>1.643947</hAcc><vAcc>0.827651</vAcc></extensions></trkpt>
      <trkpt lon="-2.232319" lat="53.112861"><ele>175.111496</ele><time>2022-03-04T11:20:22Z</time><extensions><speed>1.222267</speed><course>117.637192</course><hAcc>1.670373</hAcc><vAcc>0.827585</vAcc></extensions></trkpt>
      <trkpt lon="-2.232301" lat="53.112855"><ele>175.135330</ele><time>2022-03-04T11:20:23Z</time><extensions><speed>1.354068</speed><course>115.331467</course><hAcc>1.661190</hAcc><vAcc>0.827498</vAcc></extensions></trkpt>
      <trkpt lon="-2.232283" lat="53.112850"><ele>175.159454</ele><time>2022-03-04T11:20:24Z</time><extensions><speed>1.365749</speed><course>112.750656</course><hAcc>1.665705</hAcc><vAcc>0.827418</vAcc></extensions></trkpt>
      <trkpt lon="-2.232264" lat="53.112846"><ele>175.189316</ele><time>2022-03-04T11:20:25Z</time><extensions><speed>1.324791</speed><course>111.453377</course><hAcc>1.675349</hAcc><vAcc>0.827333</vAcc></extensions></trkpt>
      <trkpt lon="-2.232246" lat="53.112842"><ele>175.220734</ele><time>2022-03-04T11:20:26Z</time><extensions><speed>1.323377</speed><course>107.834557</course><hAcc>1.678052</hAcc><vAcc>0.827238</vAcc></extensions></trkpt>
      <trkpt lon="-2.232227" lat="53.112838"><ele>175.266098</ele><time>2022-03-04T11:20:27Z</time><extensions><speed>1.335372</speed><course>109.323639</course><hAcc>1.680351</hAcc><vAcc>0.827131</vAcc></extensions></trkpt>
      <trkpt lon="-2.232208" lat="53.112834"><ele>175.318207</ele><time>2022-03-04T11:20:28Z</time><extensions><speed>1.386572</speed><course>110.637726</course><hAcc>1.677919</hAcc><vAcc>0.827047</vAcc></extensions></trkpt>
      <trkpt lon="-2.232188" lat="53.112829"><ele>175.371063</ele><time>2022-03-04T11:20:29Z</time><extensions><speed>1.388632</speed><course>111.619705</course><hAcc>1.680872</hAcc><vAcc>0.826968</vAcc></extensions></trkpt>
      <trkpt lon="-2.232168" lat="53.112825"><ele>175.439621</ele><time>2022-03-04T11:20:30Z</time><extensions><speed>1.456541</speed><course>111.528389</course><hAcc>1.665749</hAcc><vAcc>0.826912</vAcc></extensions></trkpt>
      <trkpt lon="-2.232148" lat="53.112820"><ele>175.502228</ele><time>2022-03-04T11:20:31Z</time><extensions><speed>1.526985</speed><course>111.691681</course><hAcc>1.645139</hAcc><vAcc>0.826874</vAcc></extensions></trkpt>
      <trkpt lon="-2.232126" lat="53.112814"><ele>175.542923</ele><time>2022-03-04T11:20:32Z</time><extensions><speed>1.553276</speed><course>114.270210</course><hAcc>1.621174</hAcc><vAcc>0.826858</vAcc></extensions></trkpt>
      <trkpt lon="-2.232105" lat="53.112808"><ele>175.574249</ele><time>2022-03-04T11:20:33Z</time><extensions><speed>1.584013</speed><course>118.283371</course><hAcc>1.609389</hAcc><vAcc>0.826891</vAcc></extensions></trkpt>
      <trkpt lon="-2.232085" lat="53.112801"><ele>175.622040</ele><time>2022-03-04T11:20:34Z</time><extensions><speed>1.524488</speed><course>120.674370</course><hAcc>1.619296</hAcc><vAcc>0.826947</vAcc></extensions></trkpt>
      <trkpt lon="-2.232066" lat="53.112794"><ele>175.661087</ele><time>2022-03-04T11:20:35Z</time><extensions><speed>1.447819</speed><course>121.588081</course><hAcc>1.595065</hAcc><vAcc>0.827028</vAcc></extensions></trkpt>
      <trkpt lon="-2.232048" lat="53.112787"><ele>175.701294</ele><time>2022-03-04T11:20:36Z</time><extensions><speed>1.430045</speed><course>119.976418</course><hAcc>1.544186</hAcc><vAcc>0.827110</vAcc></extensions></trkpt>
      <trkpt lon="-2.232029" lat="53.112781"><ele>175.740494</ele><time>2022-03-04T11:20:37Z</time><extensions><speed>1.507352</speed><course>118.642288</course><hAcc>1.509354</hAcc><vAcc>0.827210</vAcc></extensions></trkpt>
      <trkpt lon="-2.232009" lat="53.112775"><ele>175.778442</ele><time>2022-03-04T11:20:38Z</time><extensions><speed>1.505237</speed><course>116.221863</course><hAcc>1.531877</hAcc><vAcc>0.827320</vAcc></extensions></trkpt>
      <trkpt lon="-2.231989" lat="53.112769"><ele>175.791870</ele><time>2022-03-04T11:20:39Z</time><extensions><speed>1.485680</speed><course>114.958534</course><hAcc>1.549561</hAcc><vAcc>0.827428</vAcc></extensions></trkpt>
      <trkpt lon="-2.231969" lat="53.112763"><ele>175.804779</ele><time>2022-03-04T11:20:40Z</time><extensions><speed>1.473695</speed><course>114.468140</course><hAcc>1.519110</hAcc><vAcc>0.827529</vAcc></extensions></trkpt>
      <trkpt lon="-2.231948" lat="53.112758"><ele>175.810471</ele><time>2022-03-04T11:20:41Z</time><extensions><speed>1.472526</speed><course>113.230019</course><hAcc>1.533037</hAcc><vAcc>0.827603</vAcc></extensions></trkpt>
      <trkpt lon="-2.231928" lat="53.112753"><ele>175.815857</ele><time>2022-03-04T11:20:42Z</time><extensions><speed>1.445390</speed><course>113.321983</course><hAcc>1.525670</hAcc><vAcc>0.827665</vAcc></extensions></trkpt>
      <trkpt lon="-2.231909" lat="53.112748"><ele>175.818039</ele><time>2022-03-04T11:20:43Z</time><extensions><speed>1.383492</speed><course>115.841995</course><hAcc>1.546970</hAcc><vAcc>0.827702</vAcc></extensions></trkpt>
      <trkpt lon="-2.231891" lat="53.112742"><ele>175.810364</ele><time>2022-03-04T11:20:44Z</time><extensions><speed>1.291446</speed><course>118.787521</course><hAcc>1.561663</hAcc><vAcc>0.827720</vAcc></extensions></trkpt>
      <trkpt lon="-2.231875" lat="53.112737"><ele>175.791779</ele><time>2022-03-04T11:20:45Z</time><extensions><speed>1.201383</speed><course>120.005135</course><hAcc>1.591522</hAcc><vAcc>0.827726</vAcc></extensions></trkpt>
      <trkpt lon="-2.231860" lat="53.112732"><ele>175.772644</ele><time>2022-03-04T11:20:46Z</time><extensions><speed>1.121386</speed><course>114.144089</course><hAcc>1.598630</hAcc><vAcc>0.827725</vAcc></extensions></trkpt>
      <trkpt lon="-2.231844" lat="53.112728"><ele>175.749619</ele><time>2022-03-04T11:20:47Z</time><extensions><speed>1.091462</speed><course>108.525093</course><hAcc>1.617673</hAcc><vAcc>0.827733</vAcc></extensions></trkpt>
      <trkpt lon="-2.231829" lat="53.112725"><ele>175.726425</ele><time>2022-03-04T11:20:48Z</time><extensions><speed>1.049974</speed><course>106.684448</course><hAcc>1.639077</hAcc><vAcc>0.827753</vAcc></extensions></trkpt>
      <trkpt lon="-2.231813" lat="53.112722"><ele>175.694290</ele><time>2022-03-04T11:20:49Z</time><extensions><speed>1.145769</speed><course>110.850189</course><hAcc>1.635667</hAcc><vAcc>0.827785</vAcc></extensions></trkpt>
      <trkpt lon="-2.231797" lat="53.112718"><ele>175.654297</ele><time>2022-03-04T11:20:50Z</time><extensions><speed>1.274993</speed><course>114.876785</course><hAcc>1.639023</hAcc><vAcc>0.827828</vAcc></extensions></trkpt>
      <trkpt lon="-2.231779" lat="53.112713"><ele>175.613693</ele><time>2022-03-04T11:20:51Z</time><extensions><speed>1.308308</speed><course>116.799370</course><hAcc>1.663167</hAcc><vAcc>0.827872</vAcc></extensions></trkpt>
      <trkpt lon="-2.231762" lat="53.112707"><ele>175.580505</ele><time>2022-03-04T11:20:52Z</time><extensions><speed>1.342188</speed><course>118.641830</course><hAcc>1.657702</hAcc><vAcc>0.827926</vAcc></extensions></trkpt>
      <trkpt lon="-2.231745" lat="53.112702"><ele>175.546280</ele><time>2022-03-04T11:20:53Z</time><extensions><speed>1.268278</speed><course>117.549362</course><hAcc>1.618344</hAcc><vAcc>0.827995</vAcc></extensions></trkpt>
      <trkpt lon="-2.231728" lat="53.112696"><ele>175.514526</ele><time>2022-03-04T11:20:54Z</time><extensions><speed>1.246738</speed><course>115.548271</course><hAcc>1.583053</hAcc><vAcc>0.828106</vAcc></extensions></trkpt>
      <trkpt lon="-2.231710" lat="53.112692"><ele>175.481461</ele><time>2022-03-04T11:20:55Z</time><extensions><speed>1.325722</speed><course>114.432259</course><hAcc>1.551201</hAcc><vAcc>0.828238</vAcc></extensions></trkpt>
      <trkpt lon="-2.231692" lat="53.112686"><ele>175.472809</ele><time>2022-03-04T11:20:56Z</time><extensions><speed>1.456284</speed><course>115.173454</course><hAcc>1.544910</hAcc><vAcc>0.828389</vAcc></extensions></trkpt>
      <trkpt lon="-2.231672" lat="53.112680"><ele>175.456589</ele><time>2022-03-04T11:20:57Z</time><extensions><speed>1.491267</speed><course>116.446098</course><hAcc>1.584351</hAcc><vAcc>0.828543</vAcc></extensions></trkpt>
      <trkpt lon="-2.231652" lat="53.112674"><ele>175.456924</ele><time>2022-03-04T11:20:58Z</time><extensions><speed>1.504529</speed><course>115.431007</course><hAcc>1.576977</hAcc><vAcc>0.828680</vAcc></extensions></trkpt>
      <trkpt lon="-2.231631" lat="53.112669"><ele>175.463287</ele><time>2022-03-04T11:20:59Z</time><extensions><speed>1.503695</speed><course>113.555626</course><hAcc>1.541271</hAcc><vAcc>0.828804</vAcc></extensions></trkpt>
      <trkpt lon="-2.231611" lat="53.112663"><ele>175.473740</ele><time>2022-03-04T11:21:00Z</time><extensions><speed>1.463491</speed><course>115.088722</course><hAcc>1.526102</hAcc><vAcc>0.828924</vAcc></extensions></trkpt>
      <trkpt lon="-2.231592" lat="53.112658"><ele>175.482758</ele><time>2022-03-04T11:21:01Z</time><extensions><speed>1.373694</speed><course>116.985054</course><hAcc>1.490125</hAcc><vAcc>0.829038</vAcc></extensions></trkpt>
      <trkpt lon="-2.231574" lat="53.112652"><ele>175.494843</ele><time>2022-03-04T11:21:02Z</time><extensions><speed>1.377413</speed><course>118.525398</course><hAcc>1.468365</hAcc><vAcc>0.829124</vAcc></extensions></trkpt>
      <trkpt lon="-2.231555" lat="53.112646"><ele>175.501663</ele><time>2022-03-04T11:21:03Z</time><extensions><speed>1.482726</speed><course>116.686005</course><hAcc>1.486322</hAcc><vAcc>0.829196</vAcc></extensions></trkpt>
      <trkpt lon="-2.231534" lat="53.112640"><ele>175.512878</ele><time>2022-03-04T11:21:04Z</time><extensions><speed>1.509630</speed><course>114.094650</course><hAcc>1.534706</hAcc><vAcc>0.829241</vAcc></extensions></trkpt>
      <trkpt lon="-2.231514" lat="53.112635"><ele>175.538757</ele><time>2022-03-04T11:21:04Z</time><extensions><speed>1.505849</speed><course>112.308914</course><hAcc>1.528030</hAcc><vAcc>0.829270</vAcc></extensions></trkpt>
      <trkpt lon="-2.231493" lat="53.112629"><ele>175.560287</ele><time>2022-03-04T11:21:05Z</time><extensions><speed>1.488435</speed><course>117.672798</course><hAcc>1.501791</hAcc><vAcc>0.829281</vAcc></extensions></trkpt>
      <trkpt lon="-2.231474" lat="53.112623"><ele>175.590027</ele><time>2022-03-04T11:21:06Z</time><extensions><speed>1.454980</speed><course>116.957962</course><hAcc>1.512790</hAcc><vAcc>0.829252</vAcc></extensions></trkpt>
      <trkpt lon="-2.231455" lat="53.112618"><ele>175.611435</ele><time>2022-03-04T11:21:07Z</time><extensions><speed>1.299335</speed><course>115.511429</course><hAcc>1.499815</hAcc><vAcc>0.829201</vAcc></extensions></trkpt>
      <trkpt lon="-2.231438" lat="53.112613"><ele>175.635422</ele><time>2022-03-04T11:21:08Z</time><extensions><speed>1.199557</speed><course>111.958611</course><hAcc>1.535326</hAcc><vAcc>0.829130</vAcc></extensions></trkpt>
      <trkpt lon="-2.231421" lat="53.112609"><ele>175.663834</ele><time>2022-03-04T11:21:09Z</time><extensions><speed>1.246429</speed><course>111.540001</course><hAcc>1.570829</hAcc><vAcc>0.829040</vAcc></extensions></trkpt>
      <trkpt lon="-2.231403" lat="53.112605"><ele>175.686050</ele><time>2022-03-04T11:21:10Z</time><extensions><speed>1.356884</speed><course>111.471596</course><hAcc>1.582027</hAcc><vAcc>0.828938</vAcc></extensions></trkpt>
      <trkpt lon="-2.231384" lat="53.112600"><ele>175.712296</ele><time>2022-03-04T11:21:11Z</time><extensions><speed>1.386022</speed><course>111.038559</course><hAcc>1.605666</hAcc><vAcc>0.828835</vAcc></extensions></trkpt>
      <trkpt lon="-2.231365" lat="53.112596"><ele>175.739990</ele><time>2022-03-04T11:21:12Z</time><extensions><speed>1.306043</speed><course>107.847496</course><hAcc>1.609104</hAcc><vAcc>0.828748</vAcc></extensions></trkpt>
      <trkpt lon="-2.231347" lat="53.112593"><ele>175.764786</ele><time>2022-03-04T11:21:13Z</time><extensions><speed>1.262300</speed><course>108.352905</course><hAcc>1.617752</hAcc><vAcc>0.828666</vAcc></extensions></trkpt>
      <trkpt lon="-2.231329" lat="53.112589"><ele>175.793045</ele><time>2022-03-04T11:21:14Z</time><extensions><speed>1.326869</speed><course>113.521400</course><hAcc>1.613539</hAcc><vAcc>0.828584</vAcc></extensions></trkpt>
      <trkpt lon="-2.231310" lat="53.112583"><ele>175.824890</ele><time>2022-03-04T11:21:15Z</time><extensions><speed>1.393480</speed><course>117.210754</course><hAcc>1.608583</hAcc><vAcc>0.828506</vAcc></extensions></trkpt>
      <trkpt lon="-2.231292" lat="53.112577"><ele>175.857452</ele><time>2022-03-04T11:21:16Z</time><extensions><speed>1.413563</speed><course>119.921707</course><hAcc>1.625516</hAcc><vAcc>0.828432</vAcc></extensions></trkpt>
      <trkpt lon="-2.231274" lat="53.112571"><ele>175.881668</ele><time>2022-03-04T11:21:17Z</time><extensions><speed>1.401973</speed><course>120.862465</course><hAcc>1.668214</hAcc><vAcc>0.828368</vAcc></extensions></trkpt>
      <trkpt lon="-2.231257" lat="53.112564"><ele>175.903244</ele><time>2022-03-04T11:21:18Z</time><extensions><speed>1.314766</speed><course>125.676056</course><hAcc>1.633930</hAcc><vAcc>0.828303</vAcc></extensions></trkpt>
      <trkpt lon="-2.231242" lat="53.112557"><ele>175.926010</ele><time>2022-03-04T11:21:19Z</time><extensions><speed>1.220751</speed><course>127.979591</course><hAcc>1.612118</hAcc><vAcc>0.828246</vAcc></extensions></trkpt>
      <trkpt lon="-2.231227" lat="53.112551"><ele>175.960892</ele><time>2022-03-04T11:21:20Z</time><extensions><speed>1.117816</speed><course>123.675522</course><hAcc>1.609192</hAcc><vAcc>0.828204</vAcc></extensions></trkpt>
      <trkpt lon="-2.231213" lat="53.112547"><ele>176.003647</ele><time>2022-03-04T11:21:21Z</time><extensions><speed>1.017640</speed><course>110.235832</course><hAcc>1.589276</hAcc><vAcc>0.828184</vAcc></extensions></trkpt>
      <trkpt lon="-2.231198" lat="53.112544"><ele>176.038635</ele><time>2022-03-04T11:21:22Z</time><extensions><speed>1.112906</speed><course>101.192200</course><hAcc>1.563991</hAcc><vAcc>0.828185</vAcc></extensions></trkpt>
      <trkpt lon="-2.231181" lat="53.112542"><ele>176.071503</ele><time>2022-03-04T11:21:23Z</time><extensions><speed>1.191045</speed><course>99.471077</course><hAcc>1.557845</hAcc><vAcc>0.828197</vAcc></extensions></trkpt>
      <trkpt lon="-2.231165" lat="53.112540"><ele>176.143188</ele><time>2022-03-04T11:21:24Z</time><extensions><speed>1.037389</speed><course>105.711014</course><hAcc>1.554239</hAcc><vAcc>0.828229</vAcc></extensions></trkpt>
      <trkpt lon="-2.231151" lat="53.112537"><ele>176.220734</ele><time>2022-03-04T11:21:25Z</time><extensions><speed>0.981676</speed><course>117.603462</course><hAcc>1.552037</hAcc><vAcc>0.828267</vAcc></extensions></trkpt>
      <trkpt lon="-2.231137" lat="53.112532"><ele>176.285492</ele><time>2022-03-04T11:21:26Z</time><extensions><speed>1.096480</speed><course>120.832726</course><hAcc>1.521616</hAcc><vAcc>0.828315</vAcc></extensions></trkpt>
      <trkpt lon="-2.231122" lat="53.112527"><ele>176.355759</ele><time>2022-03-04T11:21:27Z</time><extensions><speed>1.239760</speed><course>120.510048</course><hAcc>1.521158</hAcc><vAcc>0.828369</vAcc></extensions></trkpt>
      <trkpt lon="-2.231105" lat="53.112521"><ele>176.431854</ele><time>2022-03-04T11:21:28Z</time><extensions><speed>1.344311</speed><course>121.339935</course><hAcc>1.505222</hAcc><vAcc>0.828426</vAcc></extensions></trkpt>
      <trkpt lon="-2.231088" lat="53.112514"><ele>176.512634</ele><time>2022-03-04T11:21:29Z</time><extensions><speed>1.389230</speed><course>120.505585</course><hAcc>1.534827</hAcc><vAcc>0.828463</vAcc></extensions></trkpt>
      <trkpt lon="-2.231070" lat="53.112508"><ele>176.597809</ele><time>2022-03-04T11:21:30Z</time><extensions><speed>1.352313</speed><course>119.936058</course><hAcc>1.531140</hAcc><vAcc>0.828487</vAcc></extensions></trkpt>
      <trkpt lon="-2.231053" lat="53.112502"><ele>176.695175</ele><time>2022-03-04T11:21:31Z</time><extensions><speed>1.246629</speed><course>120.186951</course><hAcc>1.565233</hAcc><vAcc>0.828515</vAcc></extensions></trkpt>
      <trkpt lon="-2.231036" lat="53.112496"><ele>176.780518</ele><time>2022-03-04T11:21:32Z</time><extensions><speed>1.332700</speed><course>121.233391</course><hAcc>1.555382</hAcc><vAcc>0.828516</vAcc></extensions></trkpt>
      <trkpt lon="-2.231019" lat="53.112490"><ele>176.869339</ele><time>2022-03-04T11:21:33Z</time><extensions><speed>1.388974</speed><course>121.994987</course><hAcc>1.565003</hAcc><vAcc>0.828505</vAcc></extensions></trkpt>
      <trkpt lon="-2.231002" lat="53.112483"><ele>176.955215</ele><time>2022-03-04T11:21:34Z</time><extensions><speed>1.381846</speed><course>123.649109</course><hAcc>1.588209</hAcc><vAcc>0.828464</vAcc></extensions></trkpt>
      <trkpt lon="-2.230985" lat="53.112476"><ele>177.027206</ele><time>2022-03-04T11:21:35Z</time><extensions><speed>1.314449</speed><course>121.650780</course><hAcc>1.590320</hAcc><vAcc>0.828405</vAcc></extensions></trkpt>
      <trkpt lon="-2.230968" lat="53.112471"><ele>177.099533</ele><time>2022-03-04T11:21:36Z</time><extensions><speed>1.238646</speed><course>119.385849</course><hAcc>1.568252</hAcc><vAcc>0.828348</vAcc></extensions></trkpt>
      <trkpt lon="-2.230952" lat="53.112465"><ele>177.174728</ele><time>2022-03-04T11:21:37Z</time><extensions><speed>1.200127</speed><course>118.259941</course><hAcc>1.574835</hAcc><vAcc>0.828291</vAcc></extensions></trkpt>
      <trkpt lon="-2.230936" lat="53.112460"><ele>177.239578</ele><time>2022-03-04T11:21:38Z</time><extensions><speed>1.177894</speed><course>117.012962</course><hAcc>1.603053</hAcc><vAcc>0.828228</vAcc></extensions></trkpt>
      <trkpt lon="-2.230920" lat="53.112455"><ele>177.296112</ele><time>2022-03-04T11:21:39Z</time><extensions><speed>1.373001</speed><course>121.770226</course><hAcc>1.557479</hAcc><vAcc>0.828169</vAcc></extensions></trkpt>
      <trkpt lon="-2.230901" lat="53.112448"><ele>177.346420</ele><time>2022-03-04T11:21:40Z</time><extensions><speed>1.547606</speed><course>124.017838</course><hAcc>1.540122</hAcc><vAcc>0.828129</vAcc></extensions></trkpt>
      <trkpt lon="-2.230882" lat="53.112440"><ele>177.401642</ele><time>2022-03-04T11:21:41Z</time><extensions><speed>1.545218</speed><course>121.821251</course><hAcc>1.577474</hAcc><vAcc>0.828089</vAcc></extensions></trkpt>
      <trkpt lon="-2.230862" lat="53.112433"><ele>177.456253</ele><time>2022-03-04T11:21:42Z</time><extensions><speed>1.529342</speed><course>118.626816</course><hAcc>1.568773</hAcc><vAcc>0.828052</vAcc></extensions></trkpt>
      <trkpt lon="-2.230843" lat="53.112427"><ele>177.496719</ele><time>2022-03-04T11:21:43Z</time><extensions><speed>1.424978</speed><course>117.087082</course><hAcc>1.561878</hAcc><vAcc>0.828028</vAcc></extensions></trkpt>
      <trkpt lon="-2.230825" lat="53.112422"><ele>177.526978</ele><time>2022-03-04T11:21:44Z</time><extensions><speed>1.237518</speed><course>115.215172</course><hAcc>1.547605</hAcc><vAcc>0.828033</vAcc></extensions></trkpt>
      <trkpt lon="-2.230808" lat="53.112417"><ele>177.566925</ele><time>2022-03-04T11:21:45Z</time><extensions><speed>1.165885</speed><course>114.090828</course><hAcc>1.575809</hAcc><vAcc>0.828028</vAcc></extensions></trkpt>
      <trkpt lon="-2.230792" lat="53.112413"><ele>177.599838</ele><time>2022-03-04T11:21:46Z</time><extensions><speed>1.160005</speed><course>114.951378</course><hAcc>1.625496</hAcc><vAcc>0.828040</vAcc></extensions></trkpt>
      <trkpt lon="-2.230777" lat="53.112408"><ele>177.636780</ele><time>2022-03-04T11:21:47Z</time><extensions><speed>1.147832</speed><course>114.645630</course><hAcc>1.608226</hAcc><vAcc>0.828065</vAcc></extensions></trkpt>
      <trkpt lon="-2.230761" lat="53.112404"><ele>177.681946</ele><time>2022-03-04T11:21:48Z</time><extensions><speed>1.072688</speed><course>111.775063</course><hAcc>1.577488</hAcc><vAcc>0.828089</vAcc></extensions></trkpt>
      <trkpt lon="-2.230746" lat="53.112400"><ele>177.713776</ele><time>2022-03-04T11:21:49Z</time><extensions><speed>1.158365</speed><course>113.489494</course><hAcc>1.574200</hAcc><vAcc>0.828115</vAcc></extensions></trkpt>
      <trkpt lon="-2.230729" lat="53.112396"><ele>177.743637</ele><time>2022-03-04T11:21:50Z</time><extensions><speed>1.236347</speed><course>115.448044</course><hAcc>1.599480</hAcc><vAcc>0.828141</vAcc></extensions></trkpt>
      <trkpt lon="-2.230713" lat="53.112391"><ele>177.783798</ele><time>2022-03-04T11:21:51Z</time><extensions><speed>1.153056</speed><course>117.123672</course><hAcc>1.616663</hAcc><vAcc>0.828172</vAcc></extensions></trkpt>
      <trkpt lon="-2.230697" lat="53.112386"><ele>177.822662</ele><time>2022-03-04T11:21:52Z</time><extensions><speed>1.251216</speed><course>117.284897</course><hAcc>1.589570</hAcc><vAcc>0.828202</vAcc></extensions></trkpt>
      <trkpt lon="-2.230680" lat="53.112381"><ele>177.875244</ele><time>2022-03-04T11:21:53Z</time><extensions><speed>1.270606</speed><course>116.951637</course><hAcc>1.612877</hAcc><vAcc>0.828230</vAcc></extensions></trkpt>
      <trkpt lon="-2.230663" lat="53.112376"><ele>177.920013</ele><time>2022-03-04T11:21:54Z</time><extensions><speed>1.356174</speed><course>116.613304</course><hAcc>1.585511</hAcc><vAcc>0.828255</vAcc></extensions></trkpt>
      <trkpt lon="-2.230645" lat="53.112370"><ele>177.977646</ele><time>2022-03-04T11:21:55Z</time><extensions><speed>1.392133</speed><course>116.818169</course><hAcc>1.580167</hAcc><vAcc>0.828284</vAcc></extensions></trkpt>
      <trkpt lon="-2.230626" lat="53.112365"><ele>178.025848</ele><time>2022-03-04T11:21:56Z</time><extensions><speed>1.342762</speed><course>113.816444</course><hAcc>1.596649</hAcc><vAcc>0.828305</vAcc></extensions></trkpt>
      <trkpt lon="-2.230608" lat="53.112361"><ele>178.095200</ele><time>2022-03-04T11:21:57Z</time><extensions><speed>1.232610</speed><course>110.058960</course><hAcc>1.630159</hAcc><vAcc>0.828314</vAcc></extensions></trkpt>
      <trkpt lon="-2.230590" lat="53.112357"><ele>178.144547</ele><time>2022-03-04T11:21:58Z</time><extensions><speed>1.268434</speed><course>108.147385</course><hAcc>1.594240</hAcc><vAcc>0.828319</vAcc></extensions></trkpt>
      <trkpt lon="-2.230572" lat="53.112353"><ele>178.202469</ele><time>2022-03-04T11:21:59Z</time><extensions><speed>1.308408</speed><course>106.955841</course><hAcc>1.577666</hAcc><vAcc>0.828330</vAcc></extensions></trkpt>
      <trkpt lon="-2.230553" lat="53.112350"><ele>178.261551</ele><time>2022-03-04T11:22:00Z</time><extensions><speed>1.289253</speed><course>106.715981</course><hAcc>1.588166</hAcc><vAcc>0.828342</vAcc></extensions></trkpt>
      <trkpt lon="-2.230535" lat="53.112346"><ele>178.314148</ele><time>2022-03-04T11:22:01Z</time><extensions><speed>1.242156</speed><course>108.986244</course><hAcc>1.582430</hAcc><vAcc>0.828358</vAcc></extensions></trkpt>
      <trkpt lon="-2.230518" lat="53.112342"><ele>178.371353</ele><time>2022-03-04T11:22:02Z</time><extensions><speed>1.183296</speed><course>109.605377</course><hAcc>1.562112</hAcc><vAcc>0.828366</vAcc></extensions></trkpt>
      <trkpt lon="-2.230502" lat="53.112339"><ele>178.434814</ele><time>2022-03-04T11:22:03Z</time><extensions><speed>1.060953</speed><course>108.452293</course><hAcc>1.583214</hAcc><vAcc>0.828369</vAcc></extensions></trkpt>
      <trkpt lon="-2.230488" lat="53.112337"><ele>178.494034</ele><time>2022-03-04T11:22:04Z</time><extensions><speed>0.932181</speed><course>101.629662</course><hAcc>1.584433</hAcc><vAcc>0.828368</vAcc></extensions></trkpt>
      <trkpt lon="-2.230474" lat="53.112335"><ele>178.566559</ele><time>2022-03-04T11:22:05Z</time><extensions><speed>0.970682</speed><course>106.103256</course><hAcc>1.536976</hAcc><vAcc>0.828372</vAcc></extensions></trkpt>
      <trkpt lon="-2.230459" lat="53.112332"><ele>178.631851</ele><time>2022-03-04T11:22:06Z</time><extensions><speed>1.121146</speed><course>109.793129</course><hAcc>1.540717</hAcc><vAcc>0.828375</vAcc></extensions></trkpt>
      <trkpt lon="-2.230442" lat="53.112327"><ele>178.709732</ele><time>2022-03-04T11:22:07Z</time><extensions><speed>1.376507</speed><course>114.942398</course><hAcc>1.552113</hAcc><vAcc>0.828374</vAcc></extensions></trkpt>
      <trkpt lon="-2.230423" lat="53.112321"><ele>178.773224</ele><time>2022-03-04T11:22:08Z</time><extensions><speed>1.568701</speed><course>124.604538</course><hAcc>1.534731</hAcc><vAcc>0.828368</vAcc></extensions></trkpt>
      <trkpt lon="-2.230403" lat="53.112312"><ele>178.837143</ele><time>2022-03-04T11:22:09Z</time><extensions><speed>1.609941</speed><course>128.018036</course><hAcc>1.542713</hAcc><vAcc>0.828361</vAcc></extensions></trkpt>
      <trkpt lon="-2.230384" lat="53.112304"><ele>178.891785</ele><time>2022-03-04T11:22:10Z</time><extensions><speed>1.594930</speed><course>126.090073</course><hAcc>1.568861</hAcc><vAcc>0.828351</vAcc></extensions></trkpt>
      <trkpt lon="-2.230365" lat="53.112296"><ele>178.938889</ele><time>2022-03-04T11:22:11Z</time><extensions><speed>1.511527</speed><course>121.363297</course><hAcc>1.602900</hAcc><vAcc>0.828349</vAcc></extensions></trkpt>
      <trkpt lon="-2.230345" lat="53.112289"><ele>179.005402</ele><time>2022-03-04T11:22:12Z</time><extensions><speed>1.476815</speed><course>116.067062</course><hAcc>1.572623</hAcc><vAcc>0.828342</vAcc></extensions></trkpt>
      <trkpt lon="-2.230325" lat="53.112284"><ele>179.070404</ele><time>2022-03-04T11:22:13Z</time><extensions><speed>1.489693</speed><course>113.136169</course><hAcc>1.584409</hAcc><vAcc>0.828324</vAcc></extensions></trkpt>
      <trkpt lon="-2.230305" lat="53.112279"><ele>179.135803</ele><time>2022-03-04T11:22:14Z</time><extensions><speed>1.458162</speed><course>113.288597</course><hAcc>1.606151</hAcc><vAcc>0.828294</vAcc></extensions></trkpt>
      <trkpt lon="-2.230286" lat="53.112273"><ele>179.189041</ele><time>2022-03-04T11:22:15Z</time><extensions><speed>1.387187</speed><course>116.529465</course><hAcc>1.634294</hAcc><vAcc>0.828268</vAcc></extensions></trkpt>
      <trkpt lon="-2.230267" lat="53.112268"><ele>179.246643</ele><time>2022-03-04T11:22:16Z</time><extensions><speed>1.371823</speed><course>116.650948</course><hAcc>1.657499</hAcc><vAcc>0.828252</vAcc></extensions></trkpt>
      <trkpt lon="-2.230249" lat="53.112262"><ele>179.330215</ele><time>2022-03-04T11:22:17Z</time><extensions><speed>1.382949</speed><course>116.237267</course><hAcc>1.674432</hAcc><vAcc>0.828242</vAcc></extensions></trkpt>
      <trkpt lon="-2.230230" lat="53.112257"><ele>179.413574</ele><time>2022-03-04T11:22:18Z</time><extensions><speed>1.411146</speed><course>112.214684</course><hAcc>1.678117</hAcc><vAcc>0.828243</vAcc></extensions></trkpt>
      <trkpt lon="-2.230210" lat="53.112253"><ele>179.510269</ele><time>2022-03-04T11:22:20Z</time><extensions><speed>1.422230</speed><course>107.706467</course><hAcc>1.679932</hAcc><vAcc>0.828253</vAcc></extensions></trkpt>
      <trkpt lon="-2.230190" lat="53.112249"><ele>179.602493</ele><time>2022-03-04T11:22:21Z</time><extensions><speed>1.405238</speed><course>105.871460</course><hAcc>1.685293</hAcc><vAcc>0.828263</vAcc></extensions></trkpt>
      <trkpt lon="-2.230170" lat="53.112245"><ele>179.703918</ele><time>2022-03-04T11:22:22Z</time><extensions><speed>1.344577</speed><course>108.327919</course><hAcc>1.688496</hAcc><vAcc>0.828297</vAcc></extensions></trkpt>
      <trkpt lon="-2.230151" lat="53.112241"><ele>179.793472</ele><time>2022-03-04T11:22:23Z</time><extensions><speed>1.343675</speed><course>112.072662</course><hAcc>1.677604</hAcc><vAcc>0.828365</vAcc></extensions></trkpt>
      <trkpt lon="-2.230132" lat="53.112236"><ele>179.892578</ele><time>2022-03-04T11:22:24Z</time><extensions><speed>1.366479</speed><course>111.288994</course><hAcc>1.669065</hAcc><vAcc>0.828420</vAcc></extensions></trkpt>
      <trkpt lon="-2.230113" lat="53.112232"><ele>180.005676</ele><time>2022-03-04T11:22:25Z</time><extensions><speed>1.372451</speed><course>109.477547</course><hAcc>1.665347</hAcc><vAcc>0.828511</vAcc></extensions></trkpt>
      <trkpt lon="-2.230094" lat="53.112228"><ele>180.126801</ele><time>2022-03-04T11:22:26Z</time><extensions><speed>1.318674</speed><course>109.292091</course><hAcc>1.645210</hAcc><vAcc>0.828611</vAcc></extensions></trkpt>
      <trkpt lon="-2.230076" lat="53.112224"><ele>180.253296</ele><time>2022-03-04T11:22:27Z</time><extensions><speed>1.241361</speed><course>110.503082</course><hAcc>1.628972</hAcc><vAcc>0.828718</vAcc></extensions></trkpt>
      <trkpt lon="-2.230060" lat="53.112221"><ele>180.372269</ele><time>2022-03-04T11:22:28Z</time><extensions><speed>1.051139</speed><course>109.787270</course><hAcc>1.616675</hAcc><vAcc>0.828837</vAcc></extensions></trkpt>
      <trkpt lon="-2.230044" lat="53.112217"><ele>180.493790</ele><time>2022-03-04T11:22:29Z</time><extensions><speed>1.189458</speed><course>110.658737</course><hAcc>1.592743</hAcc><vAcc>0.828954</vAcc></extensions></trkpt>
      <trkpt lon="-2.230026" lat="53.112213"><ele>180.634338</ele><time>2022-03-04T11:22:30Z</time><extensions><speed>1.418547</speed><course>109.876122</course><hAcc>1.577041</hAcc><vAcc>0.829061</vAcc></extensions></trkpt>
      <trkpt lon="-2.230005" lat="53.112209"><ele>180.755341</ele><time>2022-03-04T11:22:31Z</time><extensions><speed>1.494587</speed><course>106.728531</course><hAcc>1.620318</hAcc><vAcc>0.829158</vAcc></extensions></trkpt>
      <trkpt lon="-2.229984" lat="53.112205"><ele>180.880722</ele><time>2022-03-04T11:22:32Z</time><extensions><speed>1.483526</speed><course>105.302849</course><hAcc>1.622756</hAcc><vAcc>0.829229</vAcc></extensions></trkpt>
      <trkpt lon="-2.229962" lat="53.112201"><ele>181.024765</ele><time>2022-03-04T11:22:33Z</time><extensions><speed>1.494738</speed><course>107.943893</course><hAcc>1.571246</hAcc><vAcc>0.829266</vAcc></extensions></trkpt>
      <trkpt lon="-2.229941" lat="53.112197"><ele>181.153519</ele><time>2022-03-04T11:22:34Z</time><extensions><speed>1.475286</speed><course>110.750069</course><hAcc>1.573871</hAcc><vAcc>0.829268</vAcc></extensions></trkpt>
      <trkpt lon="-2.229921" lat="53.112192"><ele>181.291931</ele><time>2022-03-04T11:22:35Z</time><extensions><speed>1.390448</speed><course>111.790039</course><hAcc>1.612938</hAcc><vAcc>0.829248</vAcc></extensions></trkpt>
      <trkpt lon="-2.229903" lat="53.112188"><ele>181.444565</ele><time>2022-03-04T11:22:36Z</time><extensions><speed>1.240953</speed><course>109.545601</course><hAcc>1.605312</hAcc><vAcc>0.829209</vAcc></extensions></trkpt>
      <trkpt lon="-2.229885" lat="53.112185"><ele>181.589630</ele><time>2022-03-04T11:22:37Z</time><extensions><speed>1.242077</speed><course>107.831673</course><hAcc>1.607444</hAcc><vAcc>0.829141</vAcc></extensions></trkpt>
      <trkpt lon="-2.229866" lat="53.112181"><ele>181.724243</ele><time>2022-03-04T11:22:38Z</time><extensions><speed>1.451829</speed><course>106.144135</course><hAcc>1.638736</hAcc><vAcc>0.829067</vAcc></extensions></trkpt>
      <trkpt lon="-2.229845" lat="53.112178"><ele>181.838715</ele><time>2022-03-04T11:22:39Z</time><extensions><speed>1.475331</speed><course>104.490044</course><hAcc>1.697255</hAcc><vAcc>0.828980</vAcc></extensions></trkpt>
      <trkpt lon="-2.229824" lat="53.112175"><ele>181.970764</ele><time>2022-03-04T11:22:40Z</time><extensions><speed>1.422796</speed><course>102.737907</course><hAcc>1.663827</hAcc><vAcc>0.828880</vAcc></extensions></trkpt>
      <trkpt lon="-2.229804" lat="53.112172"><ele>182.102020</ele><time>2022-03-04T11:22:41Z</time><extensions><speed>1.361413</speed><course>99.548813</course><hAcc>1.650489</hAcc><vAcc>0.828787</vAcc></extensions></trkpt>
      <trkpt lon="-2.229784" lat="53.112170"><ele>182.208481</ele><time>2022-03-04T11:22:42Z</time><extensions><speed>1.336422</speed><course>98.538055</course><hAcc>1.668112</hAcc><vAcc>0.828711</vAcc></extensions></trkpt>
      <trkpt lon="-2.229765" lat="53.112169"><ele>182.309906</ele><time>2022-03-04T11:22:43Z</time><extensions><speed>1.250329</speed><course>98.785019</course><hAcc>1.690570</hAcc><vAcc>0.828643</vAcc></extensions></trkpt>
      <trkpt lon="-2.229747" lat="53.112167"><ele>182.391006</ele><time>2022-03-04T11:22:44Z</time><extensions><speed>1.146856</speed><course>96.535637</course><hAcc>1.702000</hAcc><vAcc>0.828578</vAcc></extensions></trkpt>
      <trkpt lon="-2.229730" lat="53.112166"><ele>182.477875</ele><time>2022-03-04T11:22:45Z</time><extensions><speed>1.139640</speed><course>96.303932</course><hAcc>1.703767</hAcc><vAcc>0.828531</vAcc></extensions></trkpt>
      <trkpt lon="-2.229713" lat="53.112165"><ele>182.560440</ele><time>2022-03-04T11:22:46Z</time><extensions><speed>1.135359</speed><course>95.709686</course><hAcc>1.696406</hAcc><vAcc>0.828493</vAcc></extensions></trkpt>
      <trkpt lon="-2.229696" lat="53.112164"><ele>182.643768</ele><time>2022-03-04T11:22:47Z</time><extensions><speed>1.109078</speed><course>95.994377</course><hAcc>1.674781</hAcc><vAcc>0.828459</vAcc></extensions></trkpt>
      <trkpt lon="-2.229679" lat="53.112163"><ele>182.711014</ele><time>2022-03-04T11:22:48Z</time><extensions><speed>1.213201</speed><course>95.468147</course><hAcc>1.651754</hAcc><vAcc>0.828421</vAcc></extensions></trkpt>
      <trkpt lon="-2.229660" lat="53.112162"><ele>182.775970</ele><time>2022-03-04T11:22:49Z</time><extensions><speed>1.340292</speed><course>96.308182</course><hAcc>1.658060</hAcc><vAcc>0.828360</vAcc></extensions></trkpt>
      <trkpt lon="-2.229640" lat="53.112160"><ele>182.807297</ele><time>2022-03-04T11:22:50Z</time><extensions><speed>1.360719</speed><course>100.878738</course><hAcc>1.694156</hAcc><vAcc>0.828281</vAcc></extensions></trkpt>
      <trkpt lon="-2.229621" lat="53.112159"><ele>182.847061</ele><time>2022-03-04T11:22:51Z</time><extensions><speed>1.239974</speed><course>90.555382</course><hAcc>1.660152</hAcc><vAcc>0.828181</vAcc></extensions></trkpt>
      <trkpt lon="-2.229603" lat="53.112159"><ele>182.909195</ele><time>2022-03-04T11:22:52Z</time><extensions><speed>1.110524</speed><course>85.139618</course><hAcc>1.659701</hAcc><vAcc>0.828050</vAcc></extensions></trkpt>
      <trkpt lon="-2.229587" lat="53.112160"><ele>182.961517</ele><time>2022-03-04T11:22:53Z</time><extensions><speed>1.101658</speed><course>84.450249</course><hAcc>1.635152</hAcc><vAcc>0.827889</vAcc></extensions></trkpt>
      <trkpt lon="-2.229571" lat="53.112161"><ele>183.015411</ele><time>2022-03-04T11:22:54Z</time><extensions><speed>1.107116</speed><course>86.598297</course><hAcc>1.633659</hAcc><vAcc>0.827709</vAcc></extensions></trkpt>
      <trkpt lon="-2.229554" lat="53.112161"><ele>183.062912</ele><time>2022-03-04T11:22:55Z</time><extensions><speed>1.073224</speed><course>89.732506</course><hAcc>1.652774</hAcc><vAcc>0.827508</vAcc></extensions></trkpt>
      <trkpt lon="-2.229538" lat="53.112161"><ele>183.103180</ele><time>2022-03-04T11:22:56Z</time><extensions><speed>1.090797</speed><course>93.557365</course><hAcc>1.669105</hAcc><vAcc>0.827279</vAcc></extensions></trkpt>
      <trkpt lon="-2.229522" lat="53.112160"><ele>183.158432</ele><time>2022-03-04T11:22:57Z</time><extensions><speed>1.123352</speed><course>97.133926</course><hAcc>1.655543</hAcc><vAcc>0.827024</vAcc></extensions></trkpt>
      <trkpt lon="-2.229505" lat="53.112158"><ele>183.215790</ele><time>2022-03-04T11:22:58Z</time><extensions><speed>1.119192</speed><course>100.865410</course><hAcc>1.666860</hAcc><vAcc>0.826757</vAcc></extensions></trkpt>
      <trkpt lon="-2.229489" lat="53.112155"><ele>183.277267</ele><time>2022-03-04T11:22:59Z</time><extensions><speed>1.137029</speed><course>107.423836</course><hAcc>1.670942</hAcc><vAcc>0.826476</vAcc></extensions></trkpt>
      <trkpt lon="-2.229473" lat="53.112152"><ele>183.321259</ele><time>2022-03-04T11:23:00Z</time><extensions><speed>1.162373</speed><course>113.971725</course><hAcc>1.644828</hAcc><vAcc>0.826203</vAcc></extensions></trkpt>
      <trkpt lon="-2.229456" lat="53.112147"><ele>183.360489</ele><time>2022-03-04T11:23:01Z</time><extensions><speed>1.242959</speed><course>117.695740</course><hAcc>1.632995</hAcc><vAcc>0.825967</vAcc></extensions></trkpt>
      <trkpt lon="-2.229439" lat="53.112142"><ele>183.401337</ele><time>2022-03-04T11:23:02Z</time><extensions><speed>1.357560</speed><course>116.856941</course><hAcc>1.640329</hAcc><vAcc>0.825766</vAcc></extensions></trkpt>
      <trkpt lon="-2.229420" lat="53.112136"><ele>183.451187</ele><time>2022-03-04T11:23:03Z</time><extensions><speed>1.480220</speed><course>115.585052</course><hAcc>1.649770</hAcc><vAcc>0.825603</vAcc></extensions></trkpt>
      <trkpt lon="-2.229400" lat="53.112131"><ele>183.501633</ele><time>2022-03-04T11:23:04Z</time><extensions><speed>1.422320</speed><course>113.390312</course><hAcc>1.642672</hAcc><vAcc>0.825462</vAcc></extensions></trkpt>
      <trkpt lon="-2.229381" lat="53.112126"><ele>183.544312</ele><time>2022-03-04T11:23:05Z</time><extensions><speed>1.284424</speed><course>113.055435</course><hAcc>1.622103</hAcc><vAcc>0.825360</vAcc></extensions></trkpt>
      <trkpt lon="-2.229365" lat="53.112122"><ele>183.567352</ele><time>2022-03-04T11:23:06Z</time><extensions><speed>1.151647</speed><course>112.180168</course><hAcc>1.649704</hAcc><vAcc>0.825263</vAcc></extensions></trkpt>
      <trkpt lon="-2.229349" lat="53.112118"><ele>183.584045</ele><time>2022-03-04T11:23:07Z</time><extensions><speed>1.111876</speed><course>111.953598</course><hAcc>1.671027</hAcc><vAcc>0.825175</vAcc></extensions></trkpt>
      <trkpt lon="-2.229333" lat="53.112114"><ele>183.604904</ele><time>2022-03-04T11:23:08Z</time><extensions><speed>1.248742</speed><course>114.122231</course><hAcc>1.652177</hAcc><vAcc>0.825098</vAcc></extensions></trkpt>
      <trkpt lon="-2.229315" lat="53.112109"><ele>183.635605</ele><time>2022-03-04T11:23:09Z</time><extensions><speed>1.352393</speed><course>112.610664</course><hAcc>1.650185</hAcc><vAcc>0.825032</vAcc></extensions></trkpt>
      <trkpt lon="-2.229296" lat="53.112104"><ele>183.671890</ele><time>2022-03-04T11:23:10Z</time><extensions><speed>1.333244</speed><course>111.827835</course><hAcc>1.666154</hAcc><vAcc>0.824969</vAcc></extensions></trkpt>
      <trkpt lon="-2.229278" lat="53.112100"><ele>183.698181</ele><time>2022-03-04T11:23:10Z</time><extensions><speed>1.292042</speed><course>111.756340</course><hAcc>1.684250</hAcc><vAcc>0.824851</vAcc></extensions></trkpt>
      <trkpt lon="-2.229261" lat="53.112096"><ele>183.741592</ele><time>2022-03-04T11:23:11Z</time><extensions><speed>1.241098</speed><course>112.489655</course><hAcc>1.694740</hAcc><vAcc>0.824733</vAcc></extensions></trkpt>
      <trkpt lon="-2.229243" lat="53.112091"><ele>183.796341</ele><time>2022-03-04T11:23:12Z</time><extensions><speed>1.256398</speed><course>113.848465</course><hAcc>1.699229</hAcc><vAcc>0.824583</vAcc></extensions></trkpt>
      <trkpt lon="-2.229226" lat="53.112087"><ele>183.845413</ele><time>2022-03-04T11:23:13Z</time><extensions><speed>1.298908</speed><course>113.573967</course><hAcc>1.697902</hAcc><vAcc>0.824425</vAcc></extensions></trkpt>
      <trkpt lon="-2.229208" lat="53.112082"><ele>183.896027</ele><time>2022-03-04T11:23:14Z</time><extensions><speed>1.253934</speed><course>111.536530</course><hAcc>1.702865</hAcc><vAcc>0.824270</vAcc></extensions></trkpt>
      <trkpt lon="-2.229191" lat="53.112078"><ele>183.938019</ele><time>2022-03-04T11:23:15Z</time><extensions><speed>1.185047</speed><course>110.946320</course><hAcc>1.702570</hAcc><vAcc>0.824120</vAcc></extensions></trkpt>
      <trkpt lon="-2.229175" lat="53.112074"><ele>183.983505</ele><time>2022-03-04T11:23:16Z</time><extensions><speed>1.125469</speed><course>111.479057</course><hAcc>1.700505</hAcc><vAcc>0.824004</vAcc></extensions></trkpt>
      <trkpt lon="-2.229160" lat="53.112071"><ele>184.045242</ele><time>2022-03-04T11:23:17Z</time><extensions><speed>1.120418</speed><course>112.864975</course><hAcc>1.695989</hAcc><vAcc>0.823926</vAcc></extensions></trkpt>
      <trkpt lon="-2.229144" lat="53.112066"><ele>184.128693</ele><time>2022-03-04T11:23:18Z</time><extensions><speed>1.172768</speed><course>115.060371</course><hAcc>1.701150</hAcc><vAcc>0.823896</vAcc></extensions></trkpt>
      <trkpt lon="-2.229127" lat="53.112062"><ele>184.216492</ele><time>2022-03-04T11:23:19Z</time><extensions><speed>1.271590</speed><course>115.325821</course><hAcc>1.701147</hAcc><vAcc>0.823916</vAcc></extensions></trkpt>
      <trkpt lon="-2.229110" lat="53.112057"><ele>184.302063</ele><time>2022-03-04T11:23:20Z</time><extensions><speed>1.282918</speed><course>113.302582</course><hAcc>1.709772</hAcc><vAcc>0.823998</vAcc></extensions></trkpt>
      <trkpt lon="-2.229092" lat="53.112052"><ele>184.388916</ele><time>2022-03-04T11:23:21Z</time><extensions><speed>1.308563</speed><course>110.206474</course><hAcc>1.710241</hAcc><vAcc>0.824137</vAcc></extensions></trkpt>
      <trkpt lon="-2.229073" lat="53.112049"><ele>184.480087</ele><time>2022-03-04T11:23:22Z</time><extensions><speed>1.299246</speed><course>105.210632</course><hAcc>1.715204</hAcc><vAcc>0.824332</vAcc></extensions></trkpt>
      <trkpt lon="-2.229055" lat="53.112046"><ele>184.574921</ele><time>2022-03-04T11:23:23Z</time><extensions><speed>1.280469</speed><course>104.619003</course><hAcc>1.714793</hAcc><vAcc>0.824564</vAcc></extensions></trkpt>
      <trkpt lon="-2.229036" lat="53.112043"><ele>184.668457</ele><time>2022-03-04T11:23:24Z</time><extensions><speed>1.271135</speed><course>105.809067</course><hAcc>1.713197</hAcc><vAcc>0.824822</vAcc></extensions></trkpt>
      <trkpt lon="-2.229018" lat="53.112040"><ele>184.771118</ele><time>2022-03-04T11:23:25Z</time><extensions><speed>1.309655</speed><course>107.782112</course><hAcc>1.712919</hAcc><vAcc>0.825087</vAcc></extensions></trkpt>
      <trkpt lon="-2.228999" lat="53.112036"><ele>184.882660</ele><time>2022-03-04T11:23:26Z</time><extensions><speed>1.385165</speed><course>109.632744</course><hAcc>1.708557</hAcc><vAcc>0.825335</vAcc></extensions></trkpt>
      <trkpt lon="-2.228979" lat="53.112031"><ele>184.990646</ele><time>2022-03-04T11:23:27Z</time><extensions><speed>1.399651</speed><course>110.441391</course><hAcc>1.696725</hAcc><vAcc>0.825544</vAcc></extensions></trkpt>
      <trkpt lon="-2.228960" lat="53.112027"><ele>185.080109</ele><time>2022-03-04T11:23:28Z</time><extensions><speed>1.361451</speed><course>111.856857</course><hAcc>1.685892</hAcc><vAcc>0.825736</vAcc></extensions></trkpt>
      <trkpt lon="-2.228941" lat="53.112022"><ele>185.165237</ele><time>2022-03-04T11:23:29Z</time><extensions><speed>1.339891</speed><course>113.567810</course><hAcc>1.683987</hAcc><vAcc>0.825887</vAcc></extensions></trkpt>
      <trkpt lon="-2.228923" lat="53.112018"><ele>185.277420</ele><time>2022-03-04T11:23:30Z</time><extensions><speed>1.369659</speed><course>112.965492</course><hAcc>1.693422</hAcc><vAcc>0.825975</vAcc></extensions></trkpt>
      <trkpt lon="-2.228904" lat="53.112013"><ele>185.380920</ele><time>2022-03-04T11:23:31Z</time><extensions><speed>1.337762</speed><course>111.146011</course><hAcc>1.698168</hAcc><vAcc>0.826005</vAcc></extensions></trkpt>
      <trkpt lon="-2.228885" lat="53.112009"><ele>185.477737</ele><time>2022-03-04T11:23:32Z</time><extensions><speed>1.375351</speed><course>109.963806</course><hAcc>1.668447</hAcc><vAcc>0.825947</vAcc></extensions></trkpt>
      <trkpt lon="-2.228866" lat="53.112005"><ele>185.587708</ele><time>2022-03-04T11:23:33Z</time><extensions><speed>1.341916</speed><course>107.565041</course><hAcc>1.654230</hAcc><vAcc>0.825825</vAcc></extensions></trkpt>
      <trkpt lon="-2.228846" lat="53.112001"><ele>185.699524</ele><time>2022-03-04T11:23:34Z</time><extensions><speed>1.422866</speed><course>106.066048</course><hAcc>1.654043</hAcc><vAcc>0.825641</vAcc></extensions></trkpt>
      <trkpt lon="-2.228825" lat="53.111998"><ele>185.814102</ele><time>2022-03-04T11:23:35Z</time><extensions><speed>1.487116</speed><course>102.741226</course><hAcc>1.662779</hAcc><vAcc>0.825411</vAcc></extensions></trkpt>
      <trkpt lon="-2.228802" lat="53.111995"><ele>185.918564</ele><time>2022-03-04T11:23:36Z</time><extensions><speed>1.635852</speed><course>102.397209</course><hAcc>1.685464</hAcc><vAcc>0.825154</vAcc></extensions></trkpt>
      <trkpt lon="-2.228780" lat="53.111992"><ele>186.017548</ele><time>2022-03-04T11:23:37Z</time><extensions><speed>1.423422</speed><course>100.555115</course><hAcc>1.699394</hAcc><vAcc>0.824878</vAcc></extensions></trkpt>
      <trkpt lon="-2.228760" lat="53.111990"><ele>186.096039</ele><time>2022-03-04T11:23:38Z</time><extensions><speed>1.263793</speed><course>100.992065</course><hAcc>1.676059</hAcc><vAcc>0.824584</vAcc></extensions></trkpt>
      <trkpt lon="-2.228742" lat="53.111988"><ele>186.209076</ele><time>2022-03-04T11:23:39Z</time><extensions><speed>1.209382</speed><course>102.768219</course><hAcc>1.670220</hAcc><vAcc>0.824273</vAcc></extensions></trkpt>
      <trkpt lon="-2.228725" lat="53.111985"><ele>186.306976</ele><time>2022-03-04T11:23:40Z</time><extensions><speed>1.150510</speed><course>105.184860</course><hAcc>1.681570</hAcc><vAcc>0.823951</vAcc></extensions></trkpt>
      <trkpt lon="-2.228709" lat="53.111983"><ele>186.413147</ele><time>2022-03-04T11:23:41Z</time><extensions><speed>1.028861</speed><course>104.202232</course><hAcc>1.695543</hAcc><vAcc>0.823620</vAcc></extensions></trkpt>
      <trkpt lon="-2.228694" lat="53.111980"><ele>186.518631</ele><time>2022-03-04T11:23:42Z</time><extensions><speed>1.000613</speed><course>102.648483</course><hAcc>1.712539</hAcc><vAcc>0.823299</vAcc></extensions></trkpt>
      <trkpt lon="-2.228680" lat="53.111978"><ele>186.628754</ele><time>2022-03-04T11:23:43Z</time><extensions><speed>0.976898</speed><course>102.438927</course><hAcc>1.708156</hAcc><vAcc>0.822983</vAcc></extensions></trkpt>
      <trkpt lon="-2.228665" lat="53.111977"><ele>186.742004</ele><time>2022-03-04T11:23:44Z</time><extensions><speed>1.009538</speed><course>100.327850</course><hAcc>1.701985</hAcc><vAcc>0.822707</vAcc></extensions></trkpt>
      <trkpt lon="-2.228651" lat="53.111975"><ele>186.843796</ele><time>2022-03-04T11:23:45Z</time><extensions><speed>0.973638</speed><course>101.558922</course><hAcc>1.698326</hAcc><vAcc>0.822460</vAcc></extensions></trkpt>
      <trkpt lon="-2.228637" lat="53.111973"><ele>186.945343</ele><time>2022-03-04T11:23:46Z</time><extensions><speed>0.927998</speed><course>104.872261</course><hAcc>1.696783</hAcc><vAcc>0.822249</vAcc></extensions></trkpt>
      <trkpt lon="-2.228624" lat="53.111971"><ele>187.031769</ele><time>2022-03-04T11:23:47Z</time><extensions><speed>0.900111</speed><course>109.550293</course><hAcc>1.705467</hAcc><vAcc>0.822030</vAcc></extensions></trkpt>
      <trkpt lon="-2.228612" lat="53.111968"><ele>187.140457</ele><time>2022-03-04T11:23:48Z</time><extensions><speed>0.852366</speed><course>116.216232</course><hAcc>1.712634</hAcc><vAcc>0.821806</vAcc></extensions></trkpt>
      <trkpt lon="-2.228601" lat="53.111964"><ele>187.243454</ele><time>2022-03-04T11:23:49Z</time><extensions><speed>0.824681</speed><course>120.362778</course><hAcc>1.692008</hAcc><vAcc>0.821626</vAcc></extensions></trkpt>
      <trkpt lon="-2.228590" lat="53.111960"><ele>187.325317</ele><time>2022-03-04T11:23:50Z</time><extensions><speed>0.827608</speed><course>120.827713</course><hAcc>1.678491</hAcc><vAcc>0.821478</vAcc></extensions></trkpt>
      <trkpt lon="-2.228580" lat="53.111956"><ele>187.420959</ele><time>2022-03-04T11:23:51Z</time><extensions><speed>0.771465</speed><course>124.776810</course><hAcc>1.682842</hAcc><vAcc>0.821376</vAcc></extensions></trkpt>
      <trkpt lon="-2.228570" lat="53.111952"><ele>187.507950</ele><time>2022-03-04T11:23:52Z</time><extensions><speed>0.774315</speed><course>128.642151</course><hAcc>1.696280</hAcc><vAcc>0.821312</vAcc></extensions></trkpt>
      <trkpt lon="-2.228559" lat="53.111948"><ele>187.588882</ele><time>2022-03-04T11:23:53Z</time><extensions><speed>0.971655</speed><course>115.547462</course><hAcc>1.687559</hAcc><vAcc>0.821288</vAcc></extensions></trkpt>
      <trkpt lon="-2.228544" lat="53.111944"><ele>187.660675</ele><time>2022-03-04T11:23:54Z</time><extensions><speed>1.170047</speed><course>108.664940</course><hAcc>1.670617</hAcc><vAcc>0.821305</vAcc></extensions></trkpt>
      <trkpt lon="-2.228526" lat="53.111941"><ele>187.721786</ele><time>2022-03-04T11:23:55Z</time><extensions><speed>1.274481</speed><course>104.756714</course><hAcc>1.678368</hAcc><vAcc>0.821385</vAcc></extensions></trkpt>
      <trkpt lon="-2.228508" lat="53.111939"><ele>187.821869</ele><time>2022-03-04T11:23:56Z</time><extensions><speed>1.246019</speed><course>103.093582</course><hAcc>1.707169</hAcc><vAcc>0.821503</vAcc></extensions></trkpt>
      <trkpt lon="-2.228489" lat="53.111936"><ele>187.906708</ele><time>2022-03-04T11:23:57Z</time><extensions><speed>1.281157</speed><course>101.584785</course><hAcc>1.684442</hAcc><vAcc>0.821656</vAcc></extensions></trkpt>
      <trkpt lon="-2.228471" lat="53.111934"><ele>187.984268</ele><time>2022-03-04T11:23:58Z</time><extensions><speed>1.291195</speed><course>101.587051</course><hAcc>1.676923</hAcc><vAcc>0.821838</vAcc></extensions></trkpt>
      <trkpt lon="-2.228452" lat="53.111931"><ele>188.054520</ele><time>2022-03-04T11:23:59Z</time><extensions><speed>1.249911</speed><course>103.782219</course><hAcc>1.691018</hAcc><vAcc>0.822046</vAcc></extensions></trkpt>
      <trkpt lon="-2.228434" lat="53.111928"><ele>188.134384</ele><time>2022-03-04T11:24:00Z</time><extensions><speed>1.210387</speed><course>105.705292</course><hAcc>1.703445</hAcc><vAcc>0.822267</vAcc></extensions></trkpt>
      <trkpt lon="-2.228416" lat="53.111925"><ele>188.215057</ele><time>2022-03-04T11:24:01Z</time><extensions><speed>1.255741</speed><course>106.406883</course><hAcc>1.694174</hAcc><vAcc>0.822469</vAcc></extensions></trkpt>
      <trkpt lon="-2.228398" lat="53.111922"><ele>188.307373</ele><time>2022-03-04T11:24:02Z</time><extensions><speed>1.288817</speed><course>105.600258</course><hAcc>1.687419</hAcc><vAcc>0.822613</vAcc></extensions></trkpt>
      <trkpt lon="-2.228379" lat="53.111919"><ele>188.412292</ele><time>2022-03-04T11:24:03Z</time><extensions><speed>1.336452</speed><course>104.647102</course><hAcc>1.699081</hAcc><vAcc>0.822721</vAcc></extensions></trkpt>
      <trkpt lon="-2.228360" lat="53.111916"><ele>188.519913</ele><time>2022-03-04T11:24:04Z</time><extensions><speed>1.308892</speed><course>103.770355</course><hAcc>1.722132</hAcc><vAcc>0.822774</vAcc></extensions></trkpt>
      <trkpt lon="-2.228341" lat="53.111914"><ele>188.633209</ele><time>2022-03-04T11:24:05Z</time><extensions><speed>1.223391</speed><course>101.609032</course><hAcc>1.707869</hAcc><vAcc>0.822767</vAcc></extensions></trkpt>
      <trkpt lon="-2.228324" lat="53.111912"><ele>188.747665</ele><time>2022-03-04T11:24:06Z</time><extensions><speed>1.080962</speed><course>98.930428</course><hAcc>1.704609</hAcc><vAcc>0.822705</vAcc></extensions></trkpt>
      <trkpt lon="-2.228309" lat="53.111911"><ele>188.884995</ele><time>2022-03-04T11:24:07Z</time><extensions><speed>0.954636</speed><course>92.598328</course><hAcc>1.713842</hAcc><vAcc>0.822582</vAcc></extensions></trkpt>
      <trkpt lon="-2.228295" lat="53.111911"><ele>189.015930</ele><time>2022-03-04T11:24:08Z</time><extensions><speed>0.967121</speed><course>90.616547</course><hAcc>1.715636</hAcc><vAcc>0.822413</vAcc></extensions></trkpt>
      <trkpt lon="-2.228280" lat="53.111910"><ele>189.165375</ele><time>2022-03-04T11:24:09Z</time><extensions><speed>1.006395</speed><course>91.690659</course><hAcc>1.722554</hAcc><vAcc>0.822215</vAcc></extensions></trkpt>
      <trkpt lon="-2.228265" lat="53.111910"><ele>189.311951</ele><time>2022-03-04T11:24:10Z</time><extensions><speed>1.022247</speed><course>94.016899</course><hAcc>1.735491</hAcc><vAcc>0.822014</vAcc></extensions></trkpt>
      <trkpt lon="-2.228250" lat="53.111909"><ele>189.452927</ele><time>2022-03-04T11:24:11Z</time><extensions><speed>1.011899</speed><course>97.174339</course><hAcc>1.734935</hAcc><vAcc>0.821796</vAcc></extensions></trkpt>
      <trkpt lon="-2.228234" lat="53.111908"><ele>189.582550</ele><time>2022-03-04T11:24:12Z</time><extensions><speed>1.083434</speed><course>99.775917</course><hAcc>1.734978</hAcc><vAcc>0.821594</vAcc></extensions></trkpt>
      <trkpt lon="-2.228218" lat="53.111906"><ele>189.737274</ele><time>2022-03-04T11:24:13Z</time><extensions><speed>1.171197</speed><course>100.060066</course><hAcc>1.737062</hAcc><vAcc>0.821421</vAcc></extensions></trkpt>
      <trkpt lon="-2.228200" lat="53.111904"><ele>189.907898</ele><time>2022-03-04T11:24:14Z</time><extensions><speed>1.281065</speed><course>100.806465</course><hAcc>1.740087</hAcc><vAcc>0.821280</vAcc></extensions></trkpt>
      <trkpt lon="-2.228180" lat="53.111902"><ele>190.077698</ele><time>2022-03-04T11:24:15Z</time><extensions><speed>1.378942</speed><course>100.901840</course><hAcc>1.741257</hAcc><vAcc>0.821173</vAcc></extensions></trkpt>
      <trkpt lon="-2.228159" lat="53.111899"><ele>190.246246</ele><time>2022-03-04T11:24:16Z</time><extensions><speed>1.431536</speed><course>102.344078</course><hAcc>1.740455</hAcc><vAcc>0.821103</vAcc></extensions></trkpt>
      <trkpt lon="-2.228138" lat="53.111896"><ele>190.418579</ele><time>2022-03-04T11:24:17Z</time><extensions><speed>1.440094</speed><course>103.701859</course><hAcc>1.738454</hAcc><vAcc>0.821069</vAcc></extensions></trkpt>
      <trkpt lon="-2.228118" lat="53.111893"><ele>190.592041</ele><time>2022-03-04T11:24:18Z</time><extensions><speed>1.340077</speed><course>103.536713</course><hAcc>1.739617</hAcc><vAcc>0.821063</vAcc></extensions></trkpt>
      <trkpt lon="-2.228099" lat="53.111890"><ele>190.725693</ele><time>2022-03-04T11:24:19Z</time><extensions><speed>1.253860</speed><course>105.433533</course><hAcc>1.737786</hAcc><vAcc>0.821098</vAcc></extensions></trkpt>
      <trkpt lon="-2.228082" lat="53.111887"><ele>190.835281</ele><time>2022-03-04T11:24:20Z</time><extensions><speed>1.189380</speed><course>106.236755</course><hAcc>1.734392</hAcc><vAcc>0.821163</vAcc></extensions></trkpt>
      <trkpt lon="-2.228065" lat="53.111884"><ele>190.938354</ele><time>2022-03-04T11:24:21Z</time><extensions><speed>1.099993</speed><course>105.586998</course><hAcc>1.735660</hAcc><vAcc>0.821272</vAcc></extensions></trkpt>
      <trkpt lon="-2.228050" lat="53.111881"><ele>191.047882</ele><time>2022-03-04T11:24:22Z</time><extensions><speed>1.077234</speed><course>107.590218</course><hAcc>1.737658</hAcc><vAcc>0.821430</vAcc></extensions></trkpt>
      <trkpt lon="-2.228033" lat="53.111878"><ele>191.156876</ele><time>2022-03-04T11:24:23Z</time><extensions><speed>1.228382</speed><course>108.225182</course><hAcc>1.732366</hAcc><vAcc>0.821627</vAcc></extensions></trkpt>
      <trkpt lon="-2.228016" lat="53.111875"><ele>191.250748</ele><time>2022-03-04T11:24:24Z</time><extensions><speed>1.225605</speed><course>108.927193</course><hAcc>1.723753</hAcc><vAcc>0.821874</vAcc></extensions></trkpt>
      <trkpt lon="-2.227999" lat="53.111871"><ele>191.355759</ele><time>2022-03-04T11:24:26Z</time><extensions><speed>1.099970</speed><course>109.573914</course><hAcc>1.712897</hAcc><vAcc>0.822155</vAcc></extensions></trkpt>
      <trkpt lon="-2.227984" lat="53.111868"><ele>191.457962</ele><time>2022-03-04T11:24:27Z</time><extensions><speed>1.059397</speed><course>110.513351</course><hAcc>1.699198</hAcc><vAcc>0.822452</vAcc></extensions></trkpt>
      <trkpt lon="-2.227969" lat="53.111865"><ele>191.550705</ele><time>2022-03-04T11:24:28Z</time><extensions><speed>1.081526</speed><course>109.631508</course><hAcc>1.696152</hAcc><vAcc>0.822775</vAcc></extensions></trkpt>
      <trkpt lon="-2.227953" lat="53.111862"><ele>191.639709</ele><time>2022-03-04T11:24:29Z</time><extensions><speed>1.105484</speed><course>102.678406</course><hAcc>1.713337</hAcc><vAcc>0.823120</vAcc></extensions></trkpt>
      <trkpt lon="-2.227938" lat="53.111861"><ele>191.734497</ele><time>2022-03-04T11:24:30Z</time><extensions><speed>0.906288</speed><course>83.364288</course><hAcc>1.721167</hAcc><vAcc>0.823475</vAcc></extensions></trkpt>
      <trkpt lon="-2.227924" lat="53.111862"><ele>191.827377</ele><time>2022-03-04T11:24:31Z</time><extensions><speed>1.036623</speed><course>88.660606</course><hAcc>1.701014</hAcc><vAcc>0.823824</vAcc></extensions></trkpt>
      <trkpt lon="-2.227908" lat="53.111861"><ele>191.921402</ele><time>2022-03-04T11:24:32Z</time><extensions><speed>1.073918</speed><course>97.601730</course><hAcc>1.688866</hAcc><vAcc>0.824167</vAcc></extensions></trkpt>
      <trkpt lon="-2.227892" lat="53.111859"><ele>192.018860</ele><time>2022-03-04T11:24:33Z</time><extensions><speed>1.081162</speed><course>104.916107</course><hAcc>1.685097</hAcc><vAcc>0.824492</vAcc></extensions></trkpt>
      <trkpt lon="-2.227876" lat="53.111856"><ele>192.107346</ele><time>2022-03-04T11:24:34Z</time><extensions><speed>1.181701</speed><course>107.521629</course><hAcc>1.701724</hAcc><vAcc>0.824772</vAcc></extensions></trkpt>
      <trkpt lon="-2.227859" lat="53.111853"><ele>192.200882</ele><time>2022-03-04T11:24:35Z</time><extensions><speed>1.232181</speed><course>107.712341</course><hAcc>1.718894</hAcc><vAcc>0.825000</vAcc></extensions></trkpt>
      <trkpt lon="-2.227841" lat="53.111849"><ele>192.305344</ele><time>2022-03-04T11:24:36Z</time><extensions><speed>1.325151</speed><course>109.250473</course><hAcc>1.717689</hAcc><vAcc>0.825186</vAcc></extensions></trkpt>
      <trkpt lon="-2.227822" lat="53.111846"><ele>192.425293</ele><time>2022-03-04T11:24:37Z</time><extensions><speed>1.254821</speed><course>107.541992</course><hAcc>1.708489</hAcc><vAcc>0.825334</vAcc></extensions></trkpt>
      <trkpt lon="-2.227805" lat="53.111843"><ele>192.538940</ele><time>2022-03-04T11:24:38Z</time><extensions><speed>1.229740</speed><course>105.658524</course><hAcc>1.696318</hAcc><vAcc>0.825453</vAcc></extensions></trkpt>
      <trkpt lon="-2.227787" lat="53.111840"><ele>192.657272</ele><time>2022-03-04T11:24:39Z</time><extensions><speed>1.267054</speed><course>105.978592</course><hAcc>1.685476</hAcc><vAcc>0.825544</vAcc></extensions></trkpt>
      <trkpt lon="-2.227768" lat="53.111836"><ele>192.761490</ele><time>2022-03-04T11:24:40Z</time><extensions><speed>1.300348</speed><course>107.268639</course><hAcc>1.678269</hAcc><vAcc>0.825619</vAcc></extensions></trkpt>
      <trkpt lon="-2.227751" lat="53.111833"><ele>192.868759</ele><time>2022-03-04T11:24:41Z</time><extensions><speed>1.158106</speed><course>107.884186</course><hAcc>1.690370</hAcc><vAcc>0.825687</vAcc></extensions></trkpt>
      <trkpt lon="-2.227736" lat="53.111830"><ele>192.974213</ele><time>2022-03-04T11:24:42Z</time><extensions><speed>0.959274</speed><course>106.210373</course><hAcc>1.723839</hAcc><vAcc>0.825772</vAcc></extensions></trkpt>
      <trkpt lon="-2.227721" lat="53.111828"><ele>193.083664</ele><time>2022-03-04T11:24:43Z</time><extensions><speed>1.025934</speed><course>106.948837</course><hAcc>1.684000</hAcc><vAcc>0.825854</vAcc></extensions></trkpt>
      <trkpt lon="-2.227706" lat="53.111825"><ele>193.198029</ele><time>2022-03-04T11:24:44Z</time><extensions><speed>1.139043</speed><course>106.551453</course><hAcc>1.667935</hAcc><vAcc>0.825938</vAcc></extensions></trkpt>
      <trkpt lon="-2.227689" lat="53.111822"><ele>193.309280</ele><time>2022-03-04T11:24:45Z</time><extensions><speed>1.206636</speed><course>105.962852</course><hAcc>1.683867</hAcc><vAcc>0.826040</vAcc></extensions></trkpt>
      <trkpt lon="-2.227672" lat="53.111819"><ele>193.429779</ele><time>2022-03-04T11:24:46Z</time><extensions><speed>1.216330</speed><course>106.364166</course><hAcc>1.707464</hAcc><vAcc>0.826161</vAcc></extensions></trkpt>
      <trkpt lon="-2.227655" lat="53.111816"><ele>193.542282</ele><time>2022-03-04T11:24:47Z</time><extensions><speed>1.135522</speed><course>106.065361</course><hAcc>1.707043</hAcc><vAcc>0.826309</vAcc></extensions></trkpt>
      <trkpt lon="-2.227640" lat="53.111814"><ele>193.657501</ele><time>2022-03-04T11:24:48Z</time><extensions><speed>0.967459</speed><course>101.800789</course><hAcc>1.706027</hAcc><vAcc>0.826468</vAcc></extensions></trkpt>
      <trkpt lon="-2.227627" lat="53.111812"><ele>193.761566</ele><time>2022-03-04T11:24:49Z</time><extensions><speed>0.823769</speed><course>96.311234</course><hAcc>1.711737</hAcc><vAcc>0.826647</vAcc></extensions></trkpt>
      <trkpt lon="-2.227615" lat="53.111812"><ele>193.847260</ele><time>2022-03-04T11:24:50Z</time><extensions><speed>0.762224</speed><course>90.899231</course><hAcc>1.719484</hAcc><vAcc>0.826836</vAcc></extensions></trkpt>
      <trkpt lon="-2.227603" lat="53.111812"><ele>193.947815</ele><time>2022-03-04T11:24:51Z</time><extensions><speed>0.777343</speed><course>93.668221</course><hAcc>1.720218</hAcc><vAcc>0.827029</vAcc></extensions></trkpt>
      <trkpt lon="-2.227591" lat="53.111811"><ele>194.026596</ele><time>2022-03-04T11:24:52Z</time><extensions><speed>0.859890</speed><course>98.469208</course><hAcc>1.721959</hAcc><vAcc>0.827220</vAcc></extensions></trkpt>
      <trkpt lon="-2.227578" lat="53.111809"><ele>194.106476</ele><time>2022-03-04T11:24:53Z</time><extensions><speed>0.935756</speed><course>101.111290</course><hAcc>1.724047</hAcc><vAcc>0.827387</vAcc></extensions></trkpt>
      <trkpt lon="-2.227564" lat="53.111808"><ele>194.186600</ele><time>2022-03-04T11:24:54Z</time><extensions><speed>1.006075</speed><course>102.732742</course><hAcc>1.728213</hAcc><vAcc>0.827534</vAcc></extensions></trkpt>
      <trkpt lon="-2.227549" lat="53.111806"><ele>194.255615</ele><time>2022-03-04T11:24:55Z</time><extensions><speed>0.973457</speed><course>103.442604</course><hAcc>1.726560</hAcc><vAcc>0.827692</vAcc></extensions></trkpt>
      <trkpt lon="-2.227535" lat="53.111803"><ele>194.318680</ele><time>2022-03-04T11:24:56Z</time><extensions><speed>0.957451</speed><course>104.749969</course><hAcc>1.726283</hAcc><vAcc>0.827827</vAcc></extensions></trkpt>
      <trkpt lon="-2.227522" lat="53.111801"><ele>194.393326</ele><time>2022-03-04T11:24:57Z</time><extensions><speed>0.950603</speed><course>104.188164</course><hAcc>1.729136</hAcc><vAcc>0.827944</vAcc></extensions></trkpt>
      <trkpt lon="-2.227507" lat="53.111799"><ele>194.477722</ele><time>2022-03-04T11:24:58Z</time><extensions><speed>1.017253</speed><course>104.017830</course><hAcc>1.732860</hAcc><vAcc>0.828035</vAcc></extensions></trkpt>
      <trkpt lon="-2.227492" lat="53.111797"><ele>194.554901</ele><time>2022-03-04T11:24:59Z</time><extensions><speed>1.039232</speed><course>103.471931</course><hAcc>1.735381</hAcc><vAcc>0.828107</vAcc></extensions></trkpt>
      <trkpt lon="-2.227478" lat="53.111795"><ele>194.624573</ele><time>2022-03-04T11:25:00Z</time><extensions><speed>0.928678</speed><course>102.111206</course><hAcc>1.737912</hAcc><vAcc>0.828216</vAcc></extensions></trkpt>
      <trkpt lon="-2.227466" lat="53.111793"><ele>194.697876</ele><time>2022-03-04T11:25:01Z</time><extensions><speed>0.768322</speed><course>102.917946</course><hAcc>1.734068</hAcc><vAcc>0.828332</vAcc></extensions></trkpt>
      <trkpt lon="-2.227455" lat="53.111792"><ele>194.765228</ele><time>2022-03-04T11:25:02Z</time><extensions><speed>0.672001</speed><course>105.555176</course><hAcc>1.726379</hAcc><vAcc>0.828412</vAcc></extensions></trkpt>
      <trkpt lon="-2.227445" lat="53.111790"><ele>194.843430</ele><time>2022-03-04T11:25:03Z</time><extensions><speed>0.732530</speed><course>109.367149</course><hAcc>1.728952</hAcc><vAcc>0.828473</vAcc></extensions></trkpt>
      <trkpt lon="-2.227434" lat="53.111787"><ele>194.928482</ele><time>2022-03-04T11:25:04Z</time><extensions><speed>0.851947</speed><course>111.398781</course><hAcc>1.735319</hAcc><vAcc>0.828505</vAcc></extensions></trkpt>
      <trkpt lon="-2.227421" lat="53.111785"><ele>195.026428</ele><time>2022-03-04T11:25:05Z</time><extensions><speed>0.960151</speed><course>109.817757</course><hAcc>1.731449</hAcc><vAcc>0.828485</vAcc></extensions></trkpt>
      <trkpt lon="-2.227407" lat="53.111782"><ele>195.122253</ele><time>2022-03-04T11:25:06Z</time><extensions><speed>1.093790</speed><course>107.446358</course><hAcc>1.721101</hAcc><vAcc>0.828428</vAcc></extensions></trkpt>
      <trkpt lon="-2.227390" lat="53.111779"><ele>195.209259</ele><time>2022-03-04T11:25:07Z</time><extensions><speed>1.188313</speed><course>105.550308</course><hAcc>1.714042</hAcc><vAcc>0.828304</vAcc></extensions></trkpt>
      <trkpt lon="-2.227373" lat="53.111776"><ele>195.299362</ele><time>2022-03-04T11:25:08Z</time><extensions><speed>1.172327</speed><course>103.978233</course><hAcc>1.710725</hAcc><vAcc>0.828087</vAcc></extensions></trkpt>
      <trkpt lon="-2.227356" lat="53.111774"><ele>195.390289</ele><time>2022-03-04T11:25:09Z</time><extensions><speed>1.149555</speed><course>102.029839</course><hAcc>1.708801</hAcc><vAcc>0.827701</vAcc></extensions></trkpt>
      <trkpt lon="-2.227340" lat="53.111772"><ele>195.479340</ele><time>2022-03-04T11:25:10Z</time><extensions><speed>1.059340</speed><course>99.907555</course><hAcc>1.711578</hAcc><vAcc>0.827023</vAcc></extensions></trkpt>
      <trkpt lon="-2.227326" lat="53.111770"><ele>195.577362</ele><time>2022-03-04T11:25:11Z</time><extensions><speed>0.919182</speed><course>98.078812</course><hAcc>1.725473</hAcc><vAcc>0.826340</vAcc></extensions></trkpt>
      <trkpt lon="-2.227312" lat="53.111769"><ele>195.671417</ele><time>2022-03-04T11:25:12Z</time><extensions><speed>0.863887</speed><course>95.765457</course><hAcc>1.712485</hAcc><vAcc>0.825487</vAcc></extensions></trkpt>
      <trkpt lon="-2.227300" lat="53.111769"><ele>195.775253</ele><time>2022-03-04T11:25:13Z</time><extensions><speed>0.785662</speed><course>92.401550</course><hAcc>1.702957</hAcc><vAcc>0.824433</vAcc></extensions></trkpt>
      <trkpt lon="-2.227288" lat="53.111769"><ele>195.884827</ele><time>2022-03-04T11:25:14Z</time><extensions><speed>0.815512</speed><course>87.901459</course><hAcc>1.696855</hAcc><vAcc>0.823319</vAcc></extensions></trkpt>
      <trkpt lon="-2.227275" lat="53.111769"><ele>196.000626</ele><time>2022-03-04T11:25:15Z</time><extensions><speed>0.850205</speed><course>85.479553</course><hAcc>1.724196</hAcc><vAcc>0.822015</vAcc></extensions></trkpt>
      <trkpt lon="-2.227264" lat="53.111770"><ele>196.120148</ele><time>2022-03-04T11:25:16Z</time><extensions><speed>0.744853</speed><course>87.818855</course><hAcc>1.756429</hAcc><vAcc>0.820650</vAcc></extensions></trkpt>
      <trkpt lon="-2.227254" lat="53.111770"><ele>196.222305</ele><time>2022-03-04T11:25:17Z</time><extensions><speed>0.548609</speed><course>90.514046</course><hAcc>1.739261</hAcc><vAcc>0.819247</vAcc></extensions></trkpt>
      <trkpt lon="-2.227247" lat="53.111770"><ele>196.325821</ele><time>2022-03-04T11:25:18Z</time><extensions><speed>0.371710</speed><course>95.401291</course><hAcc>1.743823</hAcc><vAcc>0.817869</vAcc></extensions></trkpt>
      <trkpt lon="-2.227241" lat="53.111769"><ele>196.428772</ele><time>2022-03-04T11:25:18Z</time><extensions><speed>0.378118</speed><course>100.437790</course><hAcc>1.740954</hAcc><vAcc>0.816538</vAcc></extensions></trkpt>
      <trkpt lon="-2.227235" lat="53.111768"><ele>196.532547</ele><time>2022-03-04T11:25:19Z</time><extensions><speed>0.508125</speed><course>101.358803</course><hAcc>1.714463</hAcc><vAcc>0.815298</vAcc></extensions></trkpt>
      <trkpt lon="-2.227228" lat="53.111767"><ele>196.627609</ele><time>2022-03-04T11:25:20Z</time><extensions><speed>0.483340</speed><course>101.712082</course><hAcc>1.718387</hAcc><vAcc>0.814239</vAcc></extensions></trkpt>
      <trkpt lon="-2.227222" lat="53.111767"><ele>196.724930</ele><time>2022-03-04T11:25:21Z</time><extensions><speed>0.279205</speed><course>104.360275</course><hAcc>1.741579</hAcc><vAcc>0.813447</vAcc></extensions></trkpt>
      <trkpt lon="-2.227219" lat="53.111766"><ele>196.824524</ele><time>2022-03-04T11:25:22Z</time><extensions><speed>0.204401</speed><course>106.047272</course><hAcc>1.748695</hAcc><vAcc>0.812862</vAcc></extensions></trkpt>
      <trkpt lon="-2.227216" lat="53.111766"><ele>196.907043</ele><time>2022-03-04T11:25:23Z</time><extensions><speed>0.152845</speed><course>109.633720</course><hAcc>1.770618</hAcc><vAcc>0.812521</vAcc></extensions></trkpt>
      <trkpt lon="-2.227213" lat="53.111765"><ele>196.980545</ele><time>2022-03-04T11:25:24Z</time><extensions><speed>0.245310</speed><course>113.646019</course><hAcc>1.737483</hAcc><vAcc>0.812405</vAcc></extensions></trkpt>
      <trkpt lon="-2.227209" lat="53.111764"><ele>197.048569</ele><time>2022-03-04T11:25:25Z</time><extensions><speed>0.367746</speed><course>114.397461</course><hAcc>1.713837</hAcc><vAcc>0.812456</vAcc></extensions></trkpt>
      <trkpt lon="-2.227204" lat="53.111763"><ele>197.102539</ele><time>2022-03-04T11:25:26Z</time><extensions><speed>0.326364</speed><course>112.968941</course><hAcc>1.727529</hAcc><vAcc>0.812687</vAcc></extensions></trkpt>
      <trkpt lon="-2.227201" lat="53.111762"><ele>197.168106</ele><time>2022-03-04T11:25:27Z</time><extensions><speed>0.196051</speed><course>102.793625</course><hAcc>1.747074</hAcc><vAcc>0.813109</vAcc></extensions></trkpt>
      <trkpt lon="-2.227198" lat="53.111762"><ele>197.213913</ele><time>2022-03-04T11:25:28Z</time><extensions><speed>0.151117</speed><course>90.117325</course><hAcc>1.753881</hAcc><vAcc>0.813684</vAcc></extensions></trkpt>
      <trkpt lon="-2.227196" lat="53.111762"><ele>197.254608</ele><time>2022-03-04T11:25:29Z</time><extensions><speed>0.146439</speed><course>81.351852</course><hAcc>1.751782</hAcc><vAcc>0.814384</vAcc></extensions></trkpt>
      <trkpt lon="-2.227193" lat="53.111762"><ele>197.300980</ele><time>2022-03-04T11:25:30Z</time><extensions><speed>0.159914</speed><course>81.228256</course><hAcc>1.753095</hAcc><vAcc>0.815191</vAcc></extensions></trkpt>
      <trkpt lon="-2.227191" lat="53.111762"><ele>197.322433</ele><time>2022-03-04T11:25:31Z</time><extensions><speed>0.189414</speed><course>88.804863</course><hAcc>1.761631</hAcc><vAcc>0.816053</vAcc></extensions></trkpt>
      <trkpt lon="-2.227187" lat="53.111762"><ele>197.350281</ele><time>2022-03-04T11:25:32Z</time><extensions><speed>0.274804</speed><course>96.902771</course><hAcc>1.752678</hAcc><vAcc>0.816948</vAcc></extensions></trkpt>
      <trkpt lon="-2.227182" lat="53.111761"><ele>197.366653</ele><time>2022-03-04T11:25:33Z</time><extensions><speed>0.402289</speed><course>101.268791</course><hAcc>1.748745</hAcc><vAcc>0.817840</vAcc></extensions></trkpt>
      <trkpt lon="-2.227176" lat="53.111761"><ele>197.392059</ele><time>2022-03-04T11:25:34Z</time><extensions><speed>0.395184</speed><course>94.535873</course><hAcc>1.759803</hAcc><vAcc>0.818717</vAcc></extensions></trkpt>
      <trkpt lon="-2.227169" lat="53.111761"><ele>197.411819</ele><time>2022-03-04T11:25:35Z</time><extensions><speed>0.567357</speed><course>90.314034</course><hAcc>1.748786</hAcc><vAcc>0.819562</vAcc></extensions></trkpt>
      <trkpt lon="-2.227158" lat="53.111761"><ele>197.438202</ele><time>2022-03-04T11:25:36Z</time><extensions><speed>0.915996</speed><course>88.958778</course><hAcc>1.726587</hAcc><vAcc>0.820379</vAcc></extensions></trkpt>
      <trkpt lon="-2.227143" lat="53.111761"><ele>197.462418</ele><time>2022-03-04T11:25:37Z</time><extensions><speed>1.140088</speed><course>89.994949</course><hAcc>1.733417</hAcc><vAcc>0.821167</vAcc></extensions></trkpt>
      <trkpt lon="-2.227125" lat="53.111760"><ele>197.487717</ele><time>2022-03-04T11:25:38Z</time><extensions><speed>1.287366</speed><course>100.637756</course><hAcc>1.735979</hAcc><vAcc>0.821919</vAcc></extensions></trkpt>
      <trkpt lon="-2.227106" lat="53.111756"><ele>197.506454</ele><time>2022-03-04T11:25:39Z</time><extensions><speed>1.349613</speed><course>109.783287</course><hAcc>1.738706</hAcc><vAcc>0.822627</vAcc></extensions></trkpt>
      <trkpt lon="-2.227087" lat="53.111751"><ele>197.530106</ele><time>2022-03-04T11:25:40Z</time><extensions><speed>1.367411</speed><course>118.746887</course><hAcc>1.728978</hAcc><vAcc>0.823291</vAcc></extensions></trkpt>
      <trkpt lon="-2.227070" lat="53.111745"><ele>197.561096</ele><time>2022-03-04T11:25:41Z</time><extensions><speed>1.295202</speed><course>124.700424</course><hAcc>1.717812</hAcc><vAcc>0.823898</vAcc></extensions></trkpt>
      <trkpt lon="-2.227055" lat="53.111739"><ele>197.593719</ele><time>2022-03-04T11:25:42Z</time><extensions><speed>1.214967</speed><course>125.406403</course><hAcc>1.711433</hAcc><vAcc>0.824453</vAcc></extensions></trkpt>
      <trkpt lon="-2.227041" lat="53.111733"><ele>197.630646</ele><time>2022-03-04T11:25:43Z</time><extensions><speed>1.117358</speed><course>122.165321</course><hAcc>1.710561</hAcc><vAcc>0.824948</vAcc></extensions></trkpt>
      <trkpt lon="-2.227026" lat="53.111728"><ele>197.663971</ele><time>2022-03-04T11:25:44Z</time><extensions><speed>1.071975</speed><course>116.374321</course><hAcc>1.710967</hAcc><vAcc>0.825391</vAcc></extensions></trkpt>
      <trkpt lon="-2.227012" lat="53.111724"><ele>197.696838</ele><time>2022-03-04T11:25:45Z</time><extensions><speed>1.025236</speed><course>113.361359</course><hAcc>1.714548</hAcc><vAcc>0.825772</vAcc></extensions></trkpt>
      <trkpt lon="-2.226998" lat="53.111721"><ele>197.743622</ele><time>2022-03-04T11:25:46Z</time><extensions><speed>1.036301</speed><course>109.626190</course><hAcc>1.716995</hAcc><vAcc>0.826106</vAcc></extensions></trkpt>
      <trkpt lon="-2.226983" lat="53.111718"><ele>197.792923</ele><time>2022-03-04T11:25:47Z</time><extensions><speed>1.089786</speed><course>106.904091</course><hAcc>1.720377</hAcc><vAcc>0.826401</vAcc></extensions></trkpt>
      <trkpt lon="-2.226967" lat="53.111715"><ele>197.842361</ele><time>2022-03-04T11:25:48Z</time><extensions><speed>1.128296</speed><course>104.425583</course><hAcc>1.713759</hAcc><vAcc>0.826642</vAcc></extensions></trkpt>
      <trkpt lon="-2.226950" lat="53.111713"><ele>197.895569</ele><time>2022-03-04T11:25:49Z</time><extensions><speed>1.133644</speed><course>101.209991</course><hAcc>1.711991</hAcc><vAcc>0.826842</vAcc></extensions></trkpt>
      <trkpt lon="-2.226934" lat="53.111711"><ele>197.962540</ele><time>2022-03-04T11:25:50Z</time><extensions><speed>1.105745</speed><course>98.347946</course><hAcc>1.716321</hAcc><vAcc>0.826998</vAcc></extensions></trkpt>
      <trkpt lon="-2.226917" lat="53.111710"><ele>198.033295</ele><time>2022-03-04T11:25:51Z</time><extensions><speed>1.096772</speed><course>95.676491</course><hAcc>1.714501</hAcc><vAcc>0.827135</vAcc></extensions></trkpt>
      <trkpt lon="-2.226901" lat="53.111709"><ele>198.103485</ele><time>2022-03-04T11:25:52Z</time><extensions><speed>1.088501</speed><course>94.125694</course><hAcc>1.710740</hAcc><vAcc>0.827247</vAcc></extensions></trkpt>
      <trkpt lon="-2.226885" lat="53.111709"><ele>198.182358</ele><time>2022-03-04T11:25:53Z</time><extensions><speed>1.075465</speed><course>92.845482</course><hAcc>1.711269</hAcc><vAcc>0.827342</vAcc></extensions></trkpt>
      <trkpt lon="-2.226869" lat="53.111708"><ele>198.267029</ele><time>2022-03-04T11:25:54Z</time><extensions><speed>1.016985</speed><course>93.464684</course><hAcc>1.717312</hAcc><vAcc>0.827425</vAcc></extensions></trkpt>
      <trkpt lon="-2.226855" lat="53.111707"><ele>198.355499</ele><time>2022-03-04T11:25:55Z</time><extensions><speed>0.919955</speed><course>96.663094</course><hAcc>1.707293</hAcc><vAcc>0.827493</vAcc></extensions></trkpt>
      <trkpt lon="-2.226841" lat="53.111706"><ele>198.446045</ele><time>2022-03-04T11:25:56Z</time><extensions><speed>0.986350</speed><course>100.193741</course><hAcc>1.700156</hAcc><vAcc>0.827552</vAcc></extensions></trkpt>
      <trkpt lon="-2.226826" lat="53.111704"><ele>198.548340</ele><time>2022-03-04T11:25:57Z</time><extensions><speed>1.057135</speed><course>103.150818</course><hAcc>1.705459</hAcc><vAcc>0.827603</vAcc></extensions></trkpt>
      <trkpt lon="-2.226810" lat="53.111702"><ele>198.645477</ele><time>2022-03-04T11:25:58Z</time><extensions><speed>1.120751</speed><course>104.044838</course><hAcc>1.706885</hAcc><vAcc>0.827649</vAcc></extensions></trkpt>
      <trkpt lon="-2.226794" lat="53.111699"><ele>198.757080</ele><time>2022-03-04T11:25:59Z</time><extensions><speed>1.163419</speed><course>103.293198</course><hAcc>1.697680</hAcc><vAcc>0.827683</vAcc></extensions></trkpt>
      <trkpt lon="-2.226776" lat="53.111697"><ele>198.882416</ele><time>2022-03-04T11:26:00Z</time><extensions><speed>1.177794</speed><course>100.352180</course><hAcc>1.696685</hAcc><vAcc>0.827730</vAcc></extensions></trkpt>
      <trkpt lon="-2.226760" lat="53.111695"><ele>199.006119</ele><time>2022-03-04T11:26:01Z</time><extensions><speed>1.116978</speed><course>99.168579</course><hAcc>1.702456</hAcc><vAcc>0.827758</vAcc></extensions></trkpt>
      <trkpt lon="-2.226744" lat="53.111694"><ele>199.141769</ele><time>2022-03-04T11:26:02Z</time><extensions><speed>1.063659</speed><course>100.860512</course><hAcc>1.693283</hAcc><vAcc>0.827775</vAcc></extensions></trkpt>
      <trkpt lon="-2.226728" lat="53.111692"><ele>199.295746</ele><time>2022-03-04T11:26:03Z</time><extensions><speed>1.053006</speed><course>103.083008</course><hAcc>1.685387</hAcc><vAcc>0.827778</vAcc></extensions></trkpt>
      <trkpt lon="-2.226713" lat="53.111689"><ele>199.450333</ele><time>2022-03-04T11:26:04Z</time><extensions><speed>1.066913</speed><course>105.421753</course><hAcc>1.670950</hAcc><vAcc>0.827776</vAcc></extensions></trkpt>
      <trkpt lon="-2.226698" lat="53.111687"><ele>199.596344</ele><time>2022-03-04T11:26:05Z</time><extensions><speed>1.028552</speed><course>106.455940</course><hAcc>1.661630</hAcc><vAcc>0.827769</vAcc></extensions></trkpt>
      <trkpt lon="-2.226684" lat="53.111684"><ele>199.740402</ele><time>2022-03-04T11:26:06Z</time><extensions><speed>0.914250</speed><course>105.082245</course><hAcc>1.660849</hAcc><vAcc>0.827763</vAcc></extensions></trkpt>
      <trkpt lon="-2.226670" lat="53.111682"><ele>199.893890</ele><time>2022-03-04T11:26:07Z</time><extensions><speed>0.918307</speed><course>104.600838</course><hAcc>1.687972</hAcc><vAcc>0.827756</vAcc></extensions></trkpt>
      <trkpt lon="-2.226657" lat="53.111680"><ele>200.047668</ele><time>2022-03-04T11:26:08Z</time><extensions><speed>0.920533</speed><course>103.225838</course><hAcc>1.698107</hAcc><vAcc>0.827739</vAcc></extensions></trkpt>
      <trkpt lon="-2.226643" lat="53.111678"><ele>200.196106</ele><time>2022-03-04T11:26:09Z</time><extensions><speed>1.009082</speed><course>106.259155</course><hAcc>1.666485</hAcc><vAcc>0.827724</vAcc></extensions></trkpt>
      <trkpt lon="-2.226629" lat="53.111675"><ele>200.337189</ele><time>2022-03-04T11:26:10Z</time><extensions><speed>1.023369</speed><course>107.258133</course><hAcc>1.662415</hAcc><vAcc>0.827702</vAcc></extensions></trkpt>
      <trkpt lon="-2.226614" lat="53.111673"><ele>200.487366</ele><time>2022-03-04T11:26:11Z</time><extensions><speed>1.049388</speed><course>108.138901</course><hAcc>1.678946</hAcc><vAcc>0.827687</vAcc></extensions></trkpt>
      <trkpt lon="-2.226599" lat="53.111670"><ele>200.649628</ele><time>2022-03-04T11:26:12Z</time><extensions><speed>1.067774</speed><course>107.472275</course><hAcc>1.696567</hAcc><vAcc>0.827663</vAcc></extensions></trkpt>
      <trkpt lon="-2.226583" lat="53.111667"><ele>200.809402</ele><time>2022-03-04T11:26:13Z</time><extensions><speed>1.064721</speed><course>104.719696</course><hAcc>1.706000</hAcc><vAcc>0.827643</vAcc></extensions></trkpt>
      <trkpt lon="-2.226568" lat="53.111665"><ele>200.971161</ele><time>2022-03-04T11:26:14Z</time><extensions><speed>1.048367</speed><course>101.956841</course><hAcc>1.711043</hAcc><vAcc>0.827618</vAcc></extensions></trkpt>
      <trkpt lon="-2.226553" lat="53.111663"><ele>201.131027</ele><time>2022-03-04T11:26:15Z</time><extensions><speed>1.020159</speed><course>100.059288</course><hAcc>1.701280</hAcc><vAcc>0.827592</vAcc></extensions></trkpt>
      <trkpt lon="-2.226538" lat="53.111661"><ele>201.285004</ele><time>2022-03-04T11:26:16Z</time><extensions><speed>1.063351</speed><course>100.199120</course><hAcc>1.690954</hAcc><vAcc>0.827564</vAcc></extensions></trkpt>
      <trkpt lon="-2.226522" lat="53.111660"><ele>201.444016</ele><time>2022-03-04T11:26:17Z</time><extensions><speed>1.111134</speed><course>101.832253</course><hAcc>1.679649</hAcc><vAcc>0.827543</vAcc></extensions></trkpt>
      <trkpt lon="-2.226506" lat="53.111657"><ele>201.602829</ele><time>2022-03-04T11:26:18Z</time><extensions><speed>1.086946</speed><course>104.066811</course><hAcc>1.675460</hAcc><vAcc>0.827528</vAcc></extensions></trkpt>
      <trkpt lon="-2.226491" lat="53.111655"><ele>201.760193</ele><time>2022-03-04T11:26:19Z</time><extensions><speed>1.025344</speed><course>106.372971</course><hAcc>1.676480</hAcc><vAcc>0.827505</vAcc></extensions></trkpt>
      <trkpt lon="-2.226476" lat="53.111652"><ele>201.910812</ele><time>2022-03-04T11:26:20Z</time><extensions><speed>1.006613</speed><course>109.576332</course><hAcc>1.646568</hAcc><vAcc>0.827480</vAcc></extensions></trkpt>
      <trkpt lon="-2.226462" lat="53.111649"><ele>202.053833</ele><time>2022-03-04T11:26:21Z</time><extensions><speed>1.064619</speed><course>110.727905</course><hAcc>1.633837</hAcc><vAcc>0.827454</vAcc></extensions></trkpt>
      <trkpt lon="-2.226446" lat="53.111645"><ele>202.204987</ele><time>2022-03-04T11:26:22Z</time><extensions><speed>1.243192</speed><course>111.558945</course><hAcc>1.614614</hAcc><vAcc>0.827435</vAcc></extensions></trkpt>
      <trkpt lon="-2.226428" lat="53.111641"><ele>202.359344</ele><time>2022-03-04T11:26:23Z</time><extensions><speed>1.299430</speed><course>110.829803</course><hAcc>1.624856</hAcc><vAcc>0.827415</vAcc></extensions></trkpt>
      <trkpt lon="-2.226410" lat="53.111637"><ele>202.511536</ele><time>2022-03-04T11:26:24Z</time><extensions><speed>1.303059</speed><course>111.395714</course><hAcc>1.628154</hAcc><vAcc>0.827392</vAcc></extensions></trkpt>
      <trkpt lon="-2.226392" lat="53.111633"><ele>202.655289</ele><time>2022-03-04T11:26:25Z</time><extensions><speed>1.268141</speed><course>111.173904</course><hAcc>1.670323</hAcc><vAcc>0.827383</vAcc></extensions></trkpt>
      <trkpt lon="-2.226376" lat="53.111629"><ele>202.798325</ele><time>2022-03-04T11:26:26Z</time><extensions><speed>1.073098</speed><course>106.605576</course><hAcc>1.632664</hAcc><vAcc>0.827381</vAcc></extensions></trkpt>
      <trkpt lon="-2.226360" lat="53.111627"><ele>202.935730</ele><time>2022-03-04T11:26:27Z</time><extensions><speed>1.020857</speed><course>104.475327</course><hAcc>1.629689</hAcc><vAcc>0.827380</vAcc></extensions></trkpt>
      <trkpt lon="-2.226346" lat="53.111625"><ele>203.072495</ele><time>2022-03-04T11:26:28Z</time><extensions><speed>1.025406</speed><course>104.147713</course><hAcc>1.653330</hAcc><vAcc>0.827388</vAcc></extensions></trkpt>
      <trkpt lon="-2.226331" lat="53.111623"><ele>203.200623</ele><time>2022-03-04T11:26:29Z</time><extensions><speed>0.972646</speed><course>101.957962</course><hAcc>1.676062</hAcc><vAcc>0.827409</vAcc></extensions></trkpt>
      <trkpt lon="-2.226317" lat="53.111621"><ele>203.323563</ele><time>2022-03-04T11:26:30Z</time><extensions><speed>0.978565</speed><course>101.114372</course><hAcc>1.682264</hAcc><vAcc>0.827436</vAcc></extensions></trkpt>
      <trkpt lon="-2.226302" lat="53.111619"><ele>203.438782</ele><time>2022-03-04T11:26:32Z</time><extensions><speed>0.991378</speed><course>100.994904</course><hAcc>1.673115</hAcc><vAcc>0.827464</vAcc></extensions></trkpt>
      <trkpt lon="-2.226288" lat="53.111617"><ele>203.551422</ele><time>2022-03-04T11:26:33Z</time><extensions><speed>1.012137</speed><course>103.362198</course><hAcc>1.658764</hAcc><vAcc>0.827480</vAcc></extensions></trkpt>
      <trkpt lon="-2.226273" lat="53.111615"><ele>203.668900</ele><time>2022-03-04T11:26:34Z</time><extensions><speed>1.008902</speed><course>104.722969</course><hAcc>1.664333</hAcc><vAcc>0.827489</vAcc></extensions></trkpt>
      <trkpt lon="-2.226258" lat="53.111613"><ele>203.763794</ele><time>2022-03-04T11:26:35Z</time><extensions><speed>1.025111</speed><course>105.663734</course><hAcc>1.693793</hAcc><vAcc>0.827499</vAcc></extensions></trkpt>
      <trkpt lon="-2.226244" lat="53.111610"><ele>203.861786</ele><time>2022-03-04T11:26:36Z</time><extensions><speed>0.999711</speed><course>102.748466</course><hAcc>1.660486</hAcc><vAcc>0.827499</vAcc></extensions></trkpt>
      <trkpt lon="-2.226229" lat="53.111608"><ele>203.953918</ele><time>2022-03-04T11:26:37Z</time><extensions><speed>1.064199</speed><course>103.568375</course><hAcc>1.619195</hAcc><vAcc>0.827508</vAcc></extensions></trkpt>
      <trkpt lon="-2.226213" lat="53.111606"><ele>204.047424</ele><time>2022-03-04T11:26:38Z</time><extensions><speed>1.036444</speed><course>103.527161</course><hAcc>1.613090</hAcc><vAcc>0.827514</vAcc></extensions></trkpt>
      <trkpt lon="-2.226199" lat="53.111604"><ele>204.141098</ele><time>2022-03-04T11:26:39Z</time><extensions><speed>0.971889</speed><course>104.738609</course><hAcc>1.642323</hAcc><vAcc>0.827528</vAcc></extensions></trkpt>
      <trkpt lon="-2.226186" lat="53.111602"><ele>204.232773</ele><time>2022-03-04T11:26:40Z</time><extensions><speed>0.868847</speed><course>106.326263</course><hAcc>1.659980</hAcc><vAcc>0.827547</vAcc></extensions></trkpt>
      <trkpt lon="-2.226173" lat="53.111599"><ele>204.324921</ele><time>2022-03-04T11:26:41Z</time><extensions><speed>0.899239</speed><course>106.764381</course><hAcc>1.651249</hAcc><vAcc>0.827553</vAcc></extensions></trkpt>
      <trkpt lon="-2.226159" lat="53.111597"><ele>204.425446</ele><time>2022-03-04T11:26:42Z</time><extensions><speed>1.024548</speed><course>106.840477</course><hAcc>1.630394</hAcc><vAcc>0.827560</vAcc></extensions></trkpt>
      <trkpt lon="-2.226144" lat="53.111594"><ele>204.518005</ele><time>2022-03-04T11:26:43Z</time><extensions><speed>1.046025</speed><course>108.426331</course><hAcc>1.636984</hAcc><vAcc>0.827556</vAcc></extensions></trkpt>
      <trkpt lon="-2.226130" lat="53.111591"><ele>204.602142</ele><time>2022-03-04T11:26:44Z</time><extensions><speed>1.008349</speed><course>106.930595</course><hAcc>1.634047</hAcc><vAcc>0.827553</vAcc></extensions></trkpt>
      <trkpt lon="-2.226116" lat="53.111589"><ele>204.690140</ele><time>2022-03-04T11:26:45Z</time><extensions><speed>0.935982</speed><course>104.579163</course><hAcc>1.633144</hAcc><vAcc>0.827555</vAcc></extensions></trkpt>
      <trkpt lon="-2.226103" lat="53.111587"><ele>204.780045</ele><time>2022-03-04T11:26:46Z</time><extensions><speed>0.884948</speed><course>103.034645</course><hAcc>1.633571</hAcc><vAcc>0.827557</vAcc></extensions></trkpt>
      <trkpt lon="-2.226089" lat="53.111585"><ele>204.868973</ele><time>2022-03-04T11:26:47Z</time><extensions><speed>0.915933</speed><course>101.582329</course><hAcc>1.649532</hAcc><vAcc>0.827564</vAcc></extensions></trkpt>
      <trkpt lon="-2.226076" lat="53.111584"><ele>204.955811</ele><time>2022-03-04T11:26:48Z</time><extensions><speed>0.989151</speed><course>102.696487</course><hAcc>1.636739</hAcc><vAcc>0.827579</vAcc></extensions></trkpt>
      <trkpt lon="-2.226061" lat="53.111582"><ele>205.040268</ele><time>2022-03-04T11:26:49Z</time><extensions><speed>1.028696</speed><course>104.823181</course><hAcc>1.657981</hAcc><vAcc>0.827600</vAcc></extensions></trkpt>
      <trkpt lon="-2.226046" lat="53.111579"><ele>205.123199</ele><time>2022-03-04T11:26:50Z</time><extensions><speed>1.009094</speed><course>102.588333</course><hAcc>1.625500</hAcc><vAcc>0.827642</vAcc></extensions></trkpt>
      <trkpt lon="-2.226031" lat="53.111577"><ele>205.202087</ele><time>2022-03-04T11:26:51Z</time><extensions><speed>1.048595</speed><course>100.598930</course><hAcc>1.593211</hAcc><vAcc>0.827666</vAcc></extensions></trkpt>
      <trkpt lon="-2.226015" lat="53.111576"><ele>205.282166</ele><time>2022-03-04T11:26:52Z</time><extensions><speed>1.095903</speed><course>99.625786</course><hAcc>1.580841</hAcc><vAcc>0.827698</vAcc></extensions></trkpt>
      <trkpt lon="-2.225999" lat="53.111574"><ele>205.350433</ele><time>2022-03-04T11:26:53Z</time><extensions><speed>1.081480</speed><course>99.821228</course><hAcc>1.601669</hAcc><vAcc>0.827753</vAcc></extensions></trkpt>
      <trkpt lon="-2.225984" lat="53.111572"><ele>205.422272</ele><time>2022-03-04T11:26:54Z</time><extensions><speed>1.003816</speed><course>101.215424</course><hAcc>1.652402</hAcc><vAcc>0.827802</vAcc></extensions></trkpt>
      <trkpt lon="-2.225969" lat="53.111571"><ele>205.502090</ele><time>2022-03-04T11:26:55Z</time><extensions><speed>0.993263</speed><course>100.783112</course><hAcc>1.597966</hAcc><vAcc>0.827850</vAcc></extensions></trkpt>
      <trkpt lon="-2.225955" lat="53.111569"><ele>205.590317</ele><time>2022-03-04T11:26:56Z</time><extensions><speed>1.012905</speed><course>100.635826</course><hAcc>1.589108</hAcc><vAcc>0.827891</vAcc></extensions></trkpt>
      <trkpt lon="-2.225939" lat="53.111567"><ele>205.681366</ele><time>2022-03-04T11:26:57Z</time><extensions><speed>1.057638</speed><course>100.394814</course><hAcc>1.584469</hAcc><vAcc>0.827934</vAcc></extensions></trkpt>
      <trkpt lon="-2.225924" lat="53.111566"><ele>205.781372</ele><time>2022-03-04T11:26:58Z</time><extensions><speed>1.067908</speed><course>101.350723</course><hAcc>1.627883</hAcc><vAcc>0.827968</vAcc></extensions></trkpt>
      <trkpt lon="-2.225908" lat="53.111563"><ele>205.882675</ele><time>2022-03-04T11:26:59Z</time><extensions><speed>1.054550</speed><course>104.159187</course><hAcc>1.648468</hAcc><vAcc>0.828007</vAcc></extensions></trkpt>
      <trkpt lon="-2.225894" lat="53.111561"><ele>205.994766</ele><time>2022-03-04T11:27:00Z</time><extensions><speed>0.967149</speed><course>107.065552</course><hAcc>1.637097</hAcc><vAcc>0.828047</vAcc></extensions></trkpt>
      <trkpt lon="-2.225880" lat="53.111559"><ele>206.104797</ele><time>2022-03-04T11:27:01Z</time><extensions><speed>0.900527</speed><course>106.595680</course><hAcc>1.644147</hAcc><vAcc>0.828080</vAcc></extensions></trkpt>
      <trkpt lon="-2.225867" lat="53.111556"><ele>206.214218</ele><time>2022-03-04T11:27:02Z</time><extensions><speed>0.957233</speed><course>105.955605</course><hAcc>1.669010</hAcc><vAcc>0.828102</vAcc></extensions></trkpt>
      <trkpt lon="-2.225853" lat="53.111554"><ele>206.336548</ele><time>2022-03-04T11:27:03Z</time><extensions><speed>0.992510</speed><course>104.869888</course><hAcc>1.693844</hAcc><vAcc>0.828123</vAcc></extensions></trkpt>
      <trkpt lon="-2.225839" lat="53.111552"><ele>206.474823</ele><time>2022-03-04T11:27:04Z</time><extensions><speed>0.986395</speed><course>104.558380</course><hAcc>1.712977</hAcc><vAcc>0.828143</vAcc></extensions></trkpt>
      <trkpt lon="-2.225824" lat="53.111549"><ele>206.609314</ele><time>2022-03-04T11:27:05Z</time><extensions><speed>1.027654</speed><course>104.276230</course><hAcc>1.724022</hAcc><vAcc>0.828156</vAcc></extensions></trkpt>
      <trkpt lon="-2.225809" lat="53.111547"><ele>206.749451</ele><time>2022-03-04T11:27:06Z</time><extensions><speed>1.074203</speed><course>104.604668</course><hAcc>1.727600</hAcc><vAcc>0.828161</vAcc></extensions></trkpt>
      <trkpt lon="-2.225794" lat="53.111545"><ele>206.888855</ele><time>2022-03-04T11:27:07Z</time><extensions><speed>1.015716</speed><course>103.527977</course><hAcc>1.724061</hAcc><vAcc>0.828173</vAcc></extensions></trkpt>
      <trkpt lon="-2.225780" lat="53.111543"><ele>207.025574</ele><time>2022-03-04T11:27:08Z</time><extensions><speed>0.929233</speed><course>103.289093</course><hAcc>1.719099</hAcc><vAcc>0.828180</vAcc></extensions></trkpt>
      <trkpt lon="-2.225767" lat="53.111541"><ele>207.171158</ele><time>2022-03-04T11:27:09Z</time><extensions><speed>0.880362</speed><course>102.574570</course><hAcc>1.709915</hAcc><vAcc>0.828183</vAcc></extensions></trkpt>
      <trkpt lon="-2.225753" lat="53.111539"><ele>207.298111</ele><time>2022-03-04T11:27:10Z</time><extensions><speed>0.929600</speed><course>103.049904</course><hAcc>1.691508</hAcc><vAcc>0.828178</vAcc></extensions></trkpt>
      <trkpt lon="-2.225739" lat="53.111537"><ele>207.428940</ele><time>2022-03-04T11:27:11Z</time><extensions><speed>1.030687</speed><course>102.212967</course><hAcc>1.671634</hAcc><vAcc>0.828175</vAcc></extensions></trkpt>
      <trkpt lon="-2.225724" lat="53.111535"><ele>207.563797</ele><time>2022-03-04T11:27:12Z</time><extensions><speed>1.076178</speed><course>99.658501</course><hAcc>1.666973</hAcc><vAcc>0.828169</vAcc></extensions></trkpt>
      <trkpt lon="-2.225707" lat="53.111534"><ele>207.698898</ele><time>2022-03-04T11:27:13Z</time><extensions><speed>1.145658</speed><course>97.292572</course><hAcc>1.690159</hAcc><vAcc>0.828151</vAcc></extensions></trkpt>
      <trkpt lon="-2.225691" lat="53.111533"><ele>207.835999</ele><time>2022-03-04T11:27:14Z</time><extensions><speed>1.107702</speed><course>95.736069</course><hAcc>1.701438</hAcc><vAcc>0.828121</vAcc></extensions></trkpt>
      <trkpt lon="-2.225675" lat="53.111532"><ele>207.971771</ele><time>2022-03-04T11:27:15Z</time><extensions><speed>1.038851</speed><course>93.051270</course><hAcc>1.660951</hAcc><vAcc>0.828087</vAcc></extensions></trkpt>
      <trkpt lon="-2.225659" lat="53.111532"><ele>208.105118</ele><time>2022-03-04T11:27:16Z</time><extensions><speed>0.998643</speed><course>91.691872</course><hAcc>1.649350</hAcc><vAcc>0.828047</vAcc></extensions></trkpt>
      <trkpt lon="-2.225645" lat="53.111531"><ele>208.240112</ele><time>2022-03-04T11:27:17Z</time><extensions><speed>0.935021</speed><course>91.745529</course><hAcc>1.655652</hAcc><vAcc>0.828003</vAcc></extensions></trkpt>
      <trkpt lon="-2.225631" lat="53.111531"><ele>208.368057</ele><time>2022-03-04T11:27:18Z</time><extensions><speed>0.868020</speed><course>90.727592</course><hAcc>1.656004</hAcc><vAcc>0.827960</vAcc></extensions></trkpt>
      <trkpt lon="-2.225619" lat="53.111531"><ele>208.493820</ele><time>2022-03-04T11:27:19Z</time><extensions><speed>0.828567</speed><course>90.076584</course><hAcc>1.651599</hAcc><vAcc>0.827917</vAcc></extensions></trkpt>
      <trkpt lon="-2.225607" lat="53.111531"><ele>208.620239</ele><time>2022-03-04T11:27:20Z</time><extensions><speed>0.811492</speed><course>91.865143</course><hAcc>1.645858</hAcc><vAcc>0.827870</vAcc></extensions></trkpt>
      <trkpt lon="-2.225594" lat="53.111531"><ele>208.732285</ele><time>2022-03-04T11:27:21Z</time><extensions><speed>0.808616</speed><course>95.786232</course><hAcc>1.666301</hAcc><vAcc>0.827813</vAcc></extensions></trkpt>
      <trkpt lon="-2.225582" lat="53.111530"><ele>208.850677</ele><time>2022-03-04T11:27:22Z</time><extensions><speed>0.839398</speed><course>97.758835</course><hAcc>1.702538</hAcc><vAcc>0.827760</vAcc></extensions></trkpt>
      <trkpt lon="-2.225570" lat="53.111528"><ele>208.972855</ele><time>2022-03-04T11:27:23Z</time><extensions><speed>0.833730</speed><course>100.865013</course><hAcc>1.657437</hAcc><vAcc>0.827703</vAcc></extensions></trkpt>
      <trkpt lon="-2.225557" lat="53.111527"><ele>209.108032</ele><time>2022-03-04T11:27:24Z</time><extensions><speed>0.867130</speed><course>103.330849</course><hAcc>1.639951</hAcc><vAcc>0.827652</vAcc></extensions></trkpt>
      <trkpt lon="-2.225544" lat="53.111525"><ele>209.233215</ele><time>2022-03-04T11:27:25Z</time><extensions><speed>0.925806</speed><course>104.164452</course><hAcc>1.648439</hAcc><vAcc>0.827601</vAcc></extensions></trkpt>
      <trkpt lon="-2.225531" lat="53.111523"><ele>209.370651</ele><time>2022-03-04T11:27:25Z</time><extensions><speed>0.914373</speed><course>104.410576</course><hAcc>1.664381</hAcc><vAcc>0.827560</vAcc></extensions></trkpt>
      <trkpt lon="-2.225518" lat="53.111521"><ele>209.516098</ele><time>2022-03-04T11:27:26Z</time><extensions><speed>0.867490</speed><course>105.229416</course><hAcc>1.679413</hAcc><vAcc>0.827542</vAcc></extensions></trkpt>
      <trkpt lon="-2.225506" lat="53.111518"><ele>209.648453</ele><time>2022-03-04T11:27:27Z</time><extensions><speed>0.876783</speed><course>110.359039</course><hAcc>1.663269</hAcc><vAcc>0.827538</vAcc></extensions></trkpt>
      <trkpt lon="-2.225494" lat="53.111515"><ele>209.788498</ele><time>2022-03-04T11:27:28Z</time><extensions><speed>0.900654</speed><course>114.239548</course><hAcc>1.670955</hAcc><vAcc>0.827544</vAcc></extensions></trkpt>
      <trkpt lon="-2.225481" lat="53.111512"><ele>209.931229</ele><time>2022-03-04T11:27:29Z</time><extensions><speed>0.901358</speed><course>116.102676</course><hAcc>1.698783</hAcc><vAcc>0.827560</vAcc></extensions></trkpt>
      <trkpt lon="-2.225469" lat="53.111508"><ele>210.074524</ele><time>2022-03-04T11:27:30Z</time><extensions><speed>0.942540</speed><course>115.694717</course><hAcc>1.670797</hAcc><vAcc>0.827586</vAcc></extensions></trkpt>
      <trkpt lon="-2.225456" lat="53.111505"><ele>210.223221</ele><time>2022-03-04T11:27:31Z</time><extensions><speed>0.946332</speed><course>113.101318</course><hAcc>1.660661</hAcc><vAcc>0.827627</vAcc></extensions></trkpt>
      <trkpt lon="-2.225443" lat="53.111502"><ele>210.364105</ele><time>2022-03-04T11:27:32Z</time><extensions><speed>0.954658</speed><course>110.592934</course><hAcc>1.662267</hAcc><vAcc>0.827689</vAcc></extensions></trkpt>
      <trkpt lon="-2.225429" lat="53.111499"><ele>210.506287</ele><time>2022-03-04T11:27:33Z</time><extensions><speed>0.953793</speed><course>106.991051</course><hAcc>1.652525</hAcc><vAcc>0.827753</vAcc></extensions></trkpt>
      <trkpt lon="-2.225416" lat="53.111497"><ele>210.643402</ele><time>2022-03-04T11:27:34Z</time><extensions><speed>0.917732</speed><course>103.735657</course><hAcc>1.640952</hAcc><vAcc>0.827807</vAcc></extensions></trkpt>
      <trkpt lon="-2.225402" lat="53.111494"><ele>210.778427</ele><time>2022-03-04T11:27:35Z</time><extensions><speed>0.971213</speed><course>104.848289</course><hAcc>1.641278</hAcc><vAcc>0.827860</vAcc></extensions></trkpt>
      <trkpt lon="-2.225388" lat="53.111492"><ele>210.907639</ele><time>2022-03-04T11:27:36Z</time><extensions><speed>0.940888</speed><course>107.519073</course><hAcc>1.656488</hAcc><vAcc>0.827904</vAcc></extensions></trkpt>
      <trkpt lon="-2.225375" lat="53.111489"><ele>211.032654</ele><time>2022-03-04T11:27:37Z</time><extensions><speed>0.911610</speed><course>110.294258</course><hAcc>1.615780</hAcc><vAcc>0.827936</vAcc></extensions></trkpt>
      <trkpt lon="-2.225362" lat="53.111486"><ele>211.147873</ele><time>2022-03-04T11:27:38Z</time><extensions><speed>0.914717</speed><course>109.262596</course><hAcc>1.618406</hAcc><vAcc>0.827960</vAcc></extensions></trkpt>
      <trkpt lon="-2.225349" lat="53.111484"><ele>211.270325</ele><time>2022-03-04T11:27:39Z</time><extensions><speed>0.948267</speed><course>104.394852</course><hAcc>1.644440</hAcc><vAcc>0.827984</vAcc></extensions></trkpt>
      <trkpt lon="-2.225334" lat="53.111482"><ele>211.382614</ele><time>2022-03-04T11:27:40Z</time><extensions><speed>1.062872</speed><course>104.784851</course><hAcc>1.608149</hAcc><vAcc>0.827994</vAcc></extensions></trkpt>
      <trkpt lon="-2.225319" lat="53.111479"><ele>211.480331</ele><time>2022-03-04T11:27:41Z</time><extensions><speed>1.086289</speed><course>103.254852</course><hAcc>1.604137</hAcc><vAcc>0.827999</vAcc></extensions></trkpt>
      <trkpt lon="-2.225304" lat="53.111477"><ele>211.583206</ele><time>2022-03-04T11:27:42Z</time><extensions><speed>1.019301</speed><course>101.750175</course><hAcc>1.625328</hAcc><vAcc>0.828010</vAcc></extensions></trkpt>
      <trkpt lon="-2.225289" lat="53.111476"><ele>211.685394</ele><time>2022-03-04T11:27:43Z</time><extensions><speed>1.022239</speed><course>99.824089</course><hAcc>1.671320</hAcc><vAcc>0.828008</vAcc></extensions></trkpt>
      <trkpt lon="-2.225273" lat="53.111474"><ele>211.784302</ele><time>2022-03-04T11:27:44Z</time><extensions><speed>1.083248</speed><course>99.511887</course><hAcc>1.649788</hAcc><vAcc>0.828028</vAcc></extensions></trkpt>
      <trkpt lon="-2.225257" lat="53.111472"><ele>211.883774</ele><time>2022-03-04T11:27:45Z</time><extensions><speed>1.117183</speed><course>102.111801</course><hAcc>1.652622</hAcc><vAcc>0.828055</vAcc></extensions></trkpt>
      <trkpt lon="-2.225241" lat="53.111470"><ele>211.983765</ele><time>2022-03-04T11:27:46Z</time><extensions><speed>1.087662</speed><course>105.343651</course><hAcc>1.674629</hAcc><vAcc>0.828073</vAcc></extensions></trkpt>
      <trkpt lon="-2.225226" lat="53.111467"><ele>212.073914</ele><time>2022-03-04T11:27:47Z</time><extensions><speed>0.993481</speed><course>107.991257</course><hAcc>1.685346</hAcc><vAcc>0.828094</vAcc></extensions></trkpt>
      <trkpt lon="-2.225212" lat="53.111465"><ele>212.177505</ele><time>2022-03-04T11:27:48Z</time><extensions><speed>0.922605</speed><course>106.518295</course><hAcc>1.692318</hAcc><vAcc>0.828127</vAcc></extensions></trkpt>
      <trkpt lon="-2.225200" lat="53.111463"><ele>212.288544</ele><time>2022-03-04T11:27:49Z</time><extensions><speed>0.866325</speed><course>104.039062</course><hAcc>1.699123</hAcc><vAcc>0.828160</vAcc></extensions></trkpt>
      <trkpt lon="-2.225187" lat="53.111461"><ele>212.392883</ele><time>2022-03-04T11:27:50Z</time><extensions><speed>0.842292</speed><course>104.011116</course><hAcc>1.706162</hAcc><vAcc>0.828193</vAcc></extensions></trkpt>
      <trkpt lon="-2.225175" lat="53.111459"><ele>212.504669</ele><time>2022-03-04T11:27:51Z</time><extensions><speed>0.847093</speed><course>106.092278</course><hAcc>1.705624</hAcc><vAcc>0.828215</vAcc></extensions></trkpt>
      <trkpt lon="-2.225162" lat="53.111456"><ele>212.616196</ele><time>2022-03-04T11:27:52Z</time><extensions><speed>0.951494</speed><course>108.438766</course><hAcc>1.709310</hAcc><vAcc>0.828230</vAcc></extensions></trkpt>
      <trkpt lon="-2.225148" lat="53.111453"><ele>212.729675</ele><time>2022-03-04T11:27:53Z</time><extensions><speed>1.064554</speed><course>109.631256</course><hAcc>1.700674</hAcc><vAcc>0.828237</vAcc></extensions></trkpt>
      <trkpt lon="-2.225133" lat="53.111450"><ele>212.836121</ele><time>2022-03-04T11:27:54Z</time><extensions><speed>1.085939</speed><course>110.067551</course><hAcc>1.692511</hAcc><vAcc>0.828234</vAcc></extensions></trkpt>
      <trkpt lon="-2.225118" lat="53.111447"><ele>212.947144</ele><time>2022-03-04T11:27:55Z</time><extensions><speed>1.041128</speed><course>111.572495</course><hAcc>1.695148</hAcc><vAcc>0.828223</vAcc></extensions></trkpt>
      <trkpt lon="-2.225104" lat="53.111443"><ele>213.061737</ele><time>2022-03-04T11:27:56Z</time><extensions><speed>0.899043</speed><course>111.919365</course><hAcc>1.689157</hAcc><vAcc>0.828182</vAcc></extensions></trkpt>
      <trkpt lon="-2.225092" lat="53.111441"><ele>213.175598</ele><time>2022-03-04T11:27:57Z</time><extensions><speed>0.838255</speed><course>108.194992</course><hAcc>1.687961</hAcc><vAcc>0.828123</vAcc></extensions></trkpt>
      <trkpt lon="-2.225080" lat="53.111438"><ele>213.289551</ele><time>2022-03-04T11:27:58Z</time><extensions><speed>0.882753</speed><course>106.813377</course><hAcc>1.699709</hAcc><vAcc>0.828056</vAcc></extensions></trkpt>
      <trkpt lon="-2.225067" lat="53.111436"><ele>213.405136</ele><time>2022-03-04T11:27:59Z</time><extensions><speed>0.930065</speed><course>104.246475</course><hAcc>1.690711</hAcc><vAcc>0.827975</vAcc></extensions></trkpt>
      <trkpt lon="-2.225053" lat="53.111434"><ele>213.516525</ele><time>2022-03-04T11:28:00Z</time><extensions><speed>0.944231</speed><course>104.446243</course><hAcc>1.688328</hAcc><vAcc>0.827887</vAcc></extensions></trkpt>
      <trkpt lon="-2.225040" lat="53.111432"><ele>213.621643</ele><time>2022-03-04T11:28:01Z</time><extensions><speed>0.886088</speed><course>105.227409</course><hAcc>1.699087</hAcc><vAcc>0.827789</vAcc></extensions></trkpt>
      <trkpt lon="-2.225028" lat="53.111430"><ele>213.723297</ele><time>2022-03-04T11:28:02Z</time><extensions><speed>0.750966</speed><course>102.771835</course><hAcc>1.704459</hAcc><vAcc>0.827687</vAcc></extensions></trkpt>
      <trkpt lon="-2.225018" lat="53.111429"><ele>213.821762</ele><time>2022-03-04T11:28:03Z</time><extensions><speed>0.591396</speed><course>97.577240</course><hAcc>1.705803</hAcc><vAcc>0.827571</vAcc></extensions></trkpt>
      <trkpt lon="-2.225011" lat="53.111429"><ele>213.916367</ele><time>2022-03-04T11:28:04Z</time><extensions><speed>0.451710</speed><course>93.394081</course><hAcc>1.716063</hAcc><vAcc>0.827445</vAcc></extensions></trkpt>
      <trkpt lon="-2.225005" lat="53.111429"><ele>214.002045</ele><time>2022-03-04T11:28:05Z</time><extensions><speed>0.244765</speed><course>85.988731</course><hAcc>1.729427</hAcc><vAcc>0.827322</vAcc></extensions></trkpt>
      <trkpt lon="-2.225002" lat="53.111429"><ele>214.082092</ele><time>2022-03-04T11:28:06Z</time><extensions><speed>0.186354</speed><course>80.433960</course><hAcc>1.730215</hAcc><vAcc>0.827198</vAcc></extensions></trkpt>
      <trkpt lon="-2.224999" lat="53.111429"><ele>214.154770</ele><time>2022-03-04T11:28:07Z</time><extensions><speed>0.169532</speed><course>79.218643</course><hAcc>1.734336</hAcc><vAcc>0.827076</vAcc></extensions></trkpt>
      <trkpt lon="-2.224997" lat="53.111429"><ele>214.229172</ele><time>2022-03-04T11:28:08Z</time><extensions><speed>0.167625</speed><course>80.907928</course><hAcc>1.741081</hAcc><vAcc>0.826967</vAcc></extensions></trkpt>
      <trkpt lon="-2.224994" lat="53.111430"><ele>214.306442</ele><time>2022-03-04T11:28:09Z</time><extensions><speed>0.171012</speed><course>82.971100</course><hAcc>1.744766</hAcc><vAcc>0.826877</vAcc></extensions></trkpt>
      <trkpt lon="-2.224992" lat="53.111430"><ele>214.379288</ele><time>2022-03-04T11:28:10Z</time><extensions><speed>0.171101</speed><course>83.828995</course><hAcc>1.746783</hAcc><vAcc>0.826796</vAcc></extensions></trkpt>
      <trkpt lon="-2.224989" lat="53.111430"><ele>214.456223</ele><time>2022-03-04T11:28:11Z</time><extensions><speed>0.165050</speed><course>85.573128</course><hAcc>1.748927</hAcc><vAcc>0.826727</vAcc></extensions></trkpt>
      <trkpt lon="-2.224987" lat="53.111430"><ele>214.513443</ele><time>2022-03-04T11:28:12Z</time><extensions><speed>0.156594</speed><course>88.486847</course><hAcc>1.751116</hAcc><vAcc>0.826664</vAcc></extensions></trkpt>
      <trkpt lon="-2.224985" lat="53.111430"><ele>214.565659</ele><time>2022-03-04T11:28:13Z</time><extensions><speed>0.154775</speed><course>93.048683</course><hAcc>1.750547</hAcc><vAcc>0.826612</vAcc></extensions></trkpt>
      <trkpt lon="-2.224982" lat="53.111430"><ele>214.617706</ele><time>2022-03-04T11:28:14Z</time><extensions><speed>0.159769</speed><course>100.171921</course><hAcc>1.748438</hAcc><vAcc>0.826555</vAcc></extensions></trkpt>
      <trkpt lon="-2.224980" lat="53.111429"><ele>214.671860</ele><time>2022-03-04T11:28:15Z</time><extensions><speed>0.167258</speed><course>109.356735</course><hAcc>1.748120</hAcc><vAcc>0.826535</vAcc></extensions></trkpt>
      <trkpt lon="-2.224978" lat="53.111429"><ele>214.720840</ele><time>2022-03-04T11:28:16Z</time><extensions><speed>0.176550</speed><course>119.522011</course><hAcc>1.748043</hAcc><vAcc>0.826538</vAcc></extensions></trkpt>
      <trkpt lon="-2.224975" lat="53.111428"><ele>214.756668</ele><time>2022-03-04T11:28:17Z</time><extensions><speed>0.182947</speed><course>126.598480</course><hAcc>1.747823</hAcc><vAcc>0.826569</vAcc></extensions></trkpt>
      <trkpt lon="-2.224973" lat="53.111427"><ele>214.791992</ele><time>2022-03-04T11:28:18Z</time><extensions><speed>0.185936</speed><course>127.796516</course><hAcc>1.746605</hAcc><vAcc>0.826625</vAcc></extensions></trkpt>
      <trkpt lon="-2.224971" lat="53.111426"><ele>214.833435</ele><time>2022-03-04T11:28:19Z</time><extensions><speed>0.188004</speed><course>124.264442</course><hAcc>1.746541</hAcc><vAcc>0.826693</vAcc></extensions></trkpt>
      <trkpt lon="-2.224968" lat="53.111425"><ele>214.875137</ele><time>2022-03-04T11:28:20Z</time><extensions><speed>0.206156</speed><course>118.523209</course><hAcc>1.745085</hAcc><vAcc>0.826775</vAcc></extensions></trkpt>
      <trkpt lon="-2.224965" lat="53.111424"><ele>214.922806</ele><time>2022-03-04T11:28:21Z</time><extensions><speed>0.257645</speed><course>114.433403</course><hAcc>1.743141</hAcc><vAcc>0.826878</vAcc></extensions></trkpt>
      <trkpt lon="-2.224961" lat="53.111423"><ele>214.959747</ele><time>2022-03-04T11:28:22Z</time><extensions><speed>0.358960</speed><course>112.942032</course><hAcc>1.740671</hAcc><vAcc>0.826994</vAcc></extensions></trkpt>
      <trkpt lon="-2.224955" lat="53.111421"><ele>214.992798</ele><time>2022-03-04T11:28:23Z</time><extensions><speed>0.538203</speed><course>111.039078</course><hAcc>1.736860</hAcc><vAcc>0.827138</vAcc></extensions></trkpt>
      <trkpt lon="-2.224945" lat="53.111419"><ele>215.028214</ele><time>2022-03-04T11:28:24Z</time><extensions><speed>0.867683</speed><course>108.216873</course><hAcc>1.730644</hAcc><vAcc>0.827299</vAcc></extensions></trkpt>
      <trkpt lon="-2.224931" lat="53.111417"><ele>215.071198</ele><time>2022-03-04T11:28:25Z</time><extensions><speed>1.052526</speed><course>105.117302</course><hAcc>1.726841</hAcc><vAcc>0.827473</vAcc></extensions></trkpt>
      <trkpt lon="-2.224915" lat="53.111415"><ele>215.111618</ele><time>2022-03-04T11:28:26Z</time><extensions><speed>1.090596</speed><course>99.554016</course><hAcc>1.714882</hAcc><vAcc>0.827622</vAcc></extensions></trkpt>
      <trkpt lon="-2.224899" lat="53.111414"><ele>215.175018</ele><time>2022-03-04T11:28:27Z</time><extensions><speed>1.114177</speed><course>96.691452</course><hAcc>1.693283</hAcc><vAcc>0.827783</vAcc></extensions></trkpt>
      <trkpt lon="-2.224882" lat="53.111412"><ele>215.231628</ele><time>2022-03-04T11:28:28Z</time><extensions><speed>1.169073</speed><course>95.976707</course><hAcc>1.671204</hAcc><vAcc>0.827923</vAcc></extensions></trkpt>
      <trkpt lon="-2.224865" lat="53.111411"><ele>215.290054</ele><time>2022-03-04T11:28:29Z</time><extensions><speed>1.166721</speed><course>98.584061</course><hAcc>1.672659</hAcc><vAcc>0.828026</vAcc></extensions></trkpt>
      <trkpt lon="-2.224848" lat="53.111409"><ele>215.353760</ele><time>2022-03-04T11:28:30Z</time><extensions><speed>1.111392</speed><course>104.516960</course><hAcc>1.702205</hAcc><vAcc>0.828105</vAcc></extensions></trkpt>
      <trkpt lon="-2.224833" lat="53.111406"><ele>215.428665</ele><time>2022-03-04T11:28:31Z</time><extensions><speed>0.917270</speed><course>108.459183</course><hAcc>1.690036</hAcc><vAcc>0.828156</vAcc></extensions></trkpt>
      <trkpt lon="-2.224822" lat="53.111404"><ele>215.505051</ele><time>2022-03-04T11:28:32Z</time><extensions><speed>0.661672</speed><course>105.565170</course><hAcc>1.663087</hAcc><vAcc>0.828182</vAcc></extensions></trkpt>
      <trkpt lon="-2.224814" lat="53.111403"><ele>215.587463</ele><time>2022-03-04T11:28:33Z</time><extensions><speed>0.510192</speed><course>99.640961</course><hAcc>1.658463</hAcc><vAcc>0.828185</vAcc></extensions></trkpt>
      <trkpt lon="-2.224807" lat="53.111403"><ele>215.683899</ele><time>2022-03-04T11:28:34Z</time><extensions><speed>0.404888</speed><course>95.445190</course><hAcc>1.671042</hAcc><vAcc>0.828169</vAcc></extensions></trkpt>
      <trkpt lon="-2.224802" lat="53.111402"><ele>215.801620</ele><time>2022-03-04T11:28:35Z</time><extensions><speed>0.244248</speed><course>98.547318</course><hAcc>1.687580</hAcc><vAcc>0.828137</vAcc></extensions></trkpt>
      <trkpt lon="-2.224798" lat="53.111402"><ele>215.921341</ele><time>2022-03-04T11:28:36Z</time><extensions><speed>0.261935</speed><course>104.336639</course><hAcc>1.682405</hAcc><vAcc>0.828096</vAcc></extensions></trkpt>
      <trkpt lon="-2.224794" lat="53.111401"><ele>216.051147</ele><time>2022-03-04T11:28:38Z</time><extensions><speed>0.367473</speed><course>108.413986</course><hAcc>1.685490</hAcc><vAcc>0.828047</vAcc></extensions></trkpt>
      <trkpt lon="-2.224788" lat="53.111400"><ele>216.178452</ele><time>2022-03-04T11:28:39Z</time><extensions><speed>0.339178</speed><course>105.706810</course><hAcc>1.712951</hAcc><vAcc>0.827971</vAcc></extensions></trkpt>
      <trkpt lon="-2.224782" lat="53.111399"><ele>216.309097</ele><time>2022-03-04T11:28:40Z</time><extensions><speed>0.540065</speed><course>107.308113</course><hAcc>1.702043</hAcc><vAcc>0.827905</vAcc></extensions></trkpt>
      <trkpt lon="-2.224772" lat="53.111397"><ele>216.434998</ele><time>2022-03-04T11:28:41Z</time><extensions><speed>0.904632</speed><course>109.157700</course><hAcc>1.690939</hAcc><vAcc>0.827858</vAcc></extensions></trkpt>
      <trkpt lon="-2.224757" lat="53.111394"><ele>216.572235</ele><time>2022-03-04T11:28:42Z</time><extensions><speed>1.176351</speed><course>105.065186</course><hAcc>1.691332</hAcc><vAcc>0.827823</vAcc></extensions></trkpt>
      <trkpt lon="-2.224739" lat="53.111391"><ele>216.714249</ele><time>2022-03-04T11:28:43Z</time><extensions><speed>1.296476</speed><course>102.745506</course><hAcc>1.687647</hAcc><vAcc>0.827803</vAcc></extensions></trkpt>
      <trkpt lon="-2.224720" lat="53.111389"><ele>216.855408</ele><time>2022-03-04T11:28:44Z</time><extensions><speed>1.320803</speed><course>102.491737</course><hAcc>1.678833</hAcc><vAcc>0.827803</vAcc></extensions></trkpt>
      <trkpt lon="-2.224701" lat="53.111386"><ele>217.001923</ele><time>2022-03-04T11:28:45Z</time><extensions><speed>1.235898</speed><course>102.491119</course><hAcc>1.670430</hAcc><vAcc>0.827808</vAcc></extensions></trkpt>
      <trkpt lon="-2.224684" lat="53.111384"><ele>217.132980</ele><time>2022-03-04T11:28:46Z</time><extensions><speed>1.066144</speed><course>103.175056</course><hAcc>1.669717</hAcc><vAcc>0.827824</vAcc></extensions></trkpt>
      <trkpt lon="-2.224668" lat="53.111382"><ele>217.258484</ele><time>2022-03-04T11:28:47Z</time><extensions><speed>1.151131</speed><course>104.973320</course><hAcc>1.670653</hAcc><vAcc>0.827852</vAcc></extensions></trkpt>
      <trkpt lon="-2.224652" lat="53.111379"><ele>217.390427</ele><time>2022-03-04T11:28:48Z</time><extensions><speed>1.175772</speed><course>106.947884</course><hAcc>1.657827</hAcc><vAcc>0.827896</vAcc></extensions></trkpt>
      <trkpt lon="-2.224634" lat="53.111376"><ele>217.516785</ele><time>2022-03-04T11:28:49Z</time><extensions><speed>1.254495</speed><course>107.351433</course><hAcc>1.636792</hAcc><vAcc>0.827934</vAcc></extensions></trkpt>
      <trkpt lon="-2.224617" lat="53.111372"><ele>217.639206</ele><time>2022-03-04T11:28:50Z</time><extensions><speed>1.212985</speed><course>105.201218</course><hAcc>1.655217</hAcc><vAcc>0.827967</vAcc></extensions></trkpt>
      <trkpt lon="-2.224600" lat="53.111370"><ele>217.751633</ele><time>2022-03-04T11:28:51Z</time><extensions><speed>1.132962</speed><course>103.569328</course><hAcc>1.674922</hAcc><vAcc>0.828001</vAcc></extensions></trkpt>
      <trkpt lon="-2.224583" lat="53.111367"><ele>217.851913</ele><time>2022-03-04T11:28:52Z</time><extensions><speed>1.111950</speed><course>104.781204</course><hAcc>1.649218</hAcc><vAcc>0.828037</vAcc></extensions></trkpt>
      <trkpt lon="-2.224567" lat="53.111365"><ele>217.950760</ele><time>2022-03-04T11:28:53Z</time><extensions><speed>1.115004</speed><course>105.598137</course><hAcc>1.642030</hAcc><vAcc>0.828074</vAcc></extensions></trkpt>
      <trkpt lon="-2.224551" lat="53.111362"><ele>218.044968</ele><time>2022-03-04T11:28:54Z</time><extensions><speed>1.117661</speed><course>103.741249</course><hAcc>1.645193</hAcc><vAcc>0.828108</vAcc></extensions></trkpt>
      <trkpt lon="-2.224535" lat="53.111360"><ele>218.137665</ele><time>2022-03-04T11:28:55Z</time><extensions><speed>1.114870</speed><course>102.337929</course><hAcc>1.666001</hAcc><vAcc>0.828136</vAcc></extensions></trkpt>
      <trkpt lon="-2.224519" lat="53.111358"><ele>218.219345</ele><time>2022-03-04T11:28:56Z</time><extensions><speed>1.102588</speed><course>103.610397</course><hAcc>1.696710</hAcc><vAcc>0.828159</vAcc></extensions></trkpt>
      <trkpt lon="-2.224503" lat="53.111355"><ele>218.308121</ele><time>2022-03-04T11:28:57Z</time><extensions><speed>1.035652</speed><course>105.305206</course><hAcc>1.666547</hAcc><vAcc>0.828173</vAcc></extensions></trkpt>
      <trkpt lon="-2.224488" lat="53.111353"><ele>218.398468</ele><time>2022-03-04T11:28:58Z</time><extensions><speed>1.049772</speed><course>106.866676</course><hAcc>1.646513</hAcc><vAcc>0.828191</vAcc></extensions></trkpt>
      <trkpt lon="-2.224473" lat="53.111350"><ele>218.489624</ele><time>2022-03-04T11:28:59Z</time><extensions><speed>1.099068</speed><course>107.682404</course><hAcc>1.638405</hAcc><vAcc>0.828202</vAcc></extensions></trkpt>
      <trkpt lon="-2.224458" lat="53.111347"><ele>218.588058</ele><time>2022-03-04T11:29:00Z</time><extensions><speed>1.095000</speed><course>107.044945</course><hAcc>1.653433</hAcc><vAcc>0.828216</vAcc></extensions></trkpt>
      <trkpt lon="-2.224442" lat="53.111344"><ele>218.683228</ele><time>2022-03-04T11:29:01Z</time><extensions><speed>1.053595</speed><course>104.372879</course><hAcc>1.685991</hAcc><vAcc>0.828227</vAcc></extensions></trkpt>
      <trkpt lon="-2.224427" lat="53.111342"><ele>218.780594</ele><time>2022-03-04T11:29:02Z</time><extensions><speed>0.967116</speed><course>101.673393</course><hAcc>1.637828</hAcc><vAcc>0.828235</vAcc></extensions></trkpt>
      <trkpt lon="-2.224413" lat="53.111341"><ele>218.883194</ele><time>2022-03-04T11:29:03Z</time><extensions><speed>0.938409</speed><course>99.400116</course><hAcc>1.609010</hAcc><vAcc>0.828233</vAcc></extensions></trkpt>
      <trkpt lon="-2.224399" lat="53.111339"><ele>218.991806</ele><time>2022-03-04T11:29:04Z</time><extensions><speed>0.958690</speed><course>97.789093</course><hAcc>1.609202</hAcc><vAcc>0.828231</vAcc></extensions></trkpt>
      <trkpt lon="-2.224385" lat="53.111338"><ele>219.090698</ele><time>2022-03-04T11:29:05Z</time><extensions><speed>1.006823</speed><course>98.691299</course><hAcc>1.628947</hAcc><vAcc>0.828230</vAcc></extensions></trkpt>
      <trkpt lon="-2.224370" lat="53.111337"><ele>219.195389</ele><time>2022-03-04T11:29:06Z</time><extensions><speed>1.015328</speed><course>101.152344</course><hAcc>1.636476</hAcc><vAcc>0.828225</vAcc></extensions></trkpt>
      <trkpt lon="-2.224355" lat="53.111335"><ele>219.310089</ele><time>2022-03-04T11:29:07Z</time><extensions><speed>1.040860</speed><course>103.188843</course><hAcc>1.589139</hAcc><vAcc>0.828215</vAcc></extensions></trkpt>
      <trkpt lon="-2.224340" lat="53.111332"><ele>219.438507</ele><time>2022-03-04T11:29:08Z</time><extensions><speed>1.001489</speed><course>104.962379</course><hAcc>1.588864</hAcc><vAcc>0.828210</vAcc></extensions></trkpt>
      <trkpt lon="-2.224326" lat="53.111330"><ele>219.572922</ele><time>2022-03-04T11:29:09Z</time><extensions><speed>0.965449</speed><course>107.115479</course><hAcc>1.633903</hAcc><vAcc>0.828196</vAcc></extensions></trkpt>
      <trkpt lon="-2.224312" lat="53.111327"><ele>219.710556</ele><time>2022-03-04T11:29:10Z</time><extensions><speed>0.929555</speed><course>106.600388</course><hAcc>1.604030</hAcc><vAcc>0.828187</vAcc></extensions></trkpt>
      <trkpt lon="-2.224299" lat="53.111325"><ele>219.841751</ele><time>2022-03-04T11:29:11Z</time><extensions><speed>0.961110</speed><course>105.363983</course><hAcc>1.578505</hAcc><vAcc>0.828167</vAcc></extensions></trkpt>
      <trkpt lon="-2.224284" lat="53.111323"><ele>219.967926</ele><time>2022-03-04T11:29:12Z</time><extensions><speed>1.021378</speed><course>103.539276</course><hAcc>1.591804</hAcc><vAcc>0.828152</vAcc></extensions></trkpt>
      <trkpt lon="-2.224269" lat="53.111321"><ele>220.097534</ele><time>2022-03-04T11:29:13Z</time><extensions><speed>1.081693</speed><course>103.830612</course><hAcc>1.624534</hAcc><vAcc>0.828126</vAcc></extensions></trkpt>
      <trkpt lon="-2.224254" lat="53.111319"><ele>220.232773</ele><time>2022-03-04T11:29:14Z</time><extensions><speed>1.021263</speed><course>103.178223</course><hAcc>1.627149</hAcc><vAcc>0.828099</vAcc></extensions></trkpt>
      <trkpt lon="-2.224239" lat="53.111316"><ele>220.367661</ele><time>2022-03-04T11:29:15Z</time><extensions><speed>1.018302</speed><course>104.889709</course><hAcc>1.602778</hAcc><vAcc>0.828071</vAcc></extensions></trkpt>
      <trkpt lon="-2.224224" lat="53.111314"><ele>220.494171</ele><time>2022-03-04T11:29:16Z</time><extensions><speed>1.030861</speed><course>106.476494</course><hAcc>1.615074</hAcc><vAcc>0.828035</vAcc></extensions></trkpt>
      <trkpt lon="-2.224209" lat="53.111311"><ele>220.614365</ele><time>2022-03-04T11:29:17Z</time><extensions><speed>1.114628</speed><course>106.755096</course><hAcc>1.602392</hAcc><vAcc>0.828000</vAcc></extensions></trkpt>
      <trkpt lon="-2.224193" lat="53.111308"><ele>220.738022</ele><time>2022-03-04T11:29:18Z</time><extensions><speed>1.124618</speed><course>106.023773</course><hAcc>1.605883</hAcc><vAcc>0.827969</vAcc></extensions></trkpt>
      <trkpt lon="-2.224177" lat="53.111305"><ele>220.859848</ele><time>2022-03-04T11:29:19Z</time><extensions><speed>1.099796</speed><course>105.245712</course><hAcc>1.602467</hAcc><vAcc>0.827928</vAcc></extensions></trkpt>
      <trkpt lon="-2.224161" lat="53.111303"><ele>220.981461</ele><time>2022-03-04T11:29:20Z</time><extensions><speed>1.066426</speed><course>105.221802</course><hAcc>1.611693</hAcc><vAcc>0.827891</vAcc></extensions></trkpt>
      <trkpt lon="-2.224146" lat="53.111300"><ele>221.098618</ele><time>2022-03-04T11:29:21Z</time><extensions><speed>1.000066</speed><course>106.241577</course><hAcc>1.616901</hAcc><vAcc>0.827853</vAcc></extensions></trkpt>
      <trkpt lon="-2.224133" lat="53.111298"><ele>221.208008</ele><time>2022-03-04T11:29:22Z</time><extensions><speed>0.913114</speed><course>107.779160</course><hAcc>1.665968</hAcc><vAcc>0.827807</vAcc></extensions></trkpt>
      <trkpt lon="-2.224120" lat="53.111296"><ele>221.316254</ele><time>2022-03-04T11:29:23Z</time><extensions><speed>0.895005</speed><course>104.801193</course><hAcc>1.622711</hAcc><vAcc>0.827768</vAcc></extensions></trkpt>
      <trkpt lon="-2.224106" lat="53.111294"><ele>221.424469</ele><time>2022-03-04T11:29:24Z</time><extensions><speed>0.942662</speed><course>103.251976</course><hAcc>1.609113</hAcc><vAcc>0.827747</vAcc></extensions></trkpt>
      <trkpt lon="-2.224092" lat="53.111292"><ele>221.533630</ele><time>2022-03-04T11:29:25Z</time><extensions><speed>1.020793</speed><course>103.377579</course><hAcc>1.619400</hAcc><vAcc>0.827735</vAcc></extensions></trkpt>
      <trkpt lon="-2.224077" lat="53.111290"><ele>221.633621</ele><time>2022-03-04T11:29:26Z</time><extensions><speed>1.010422</speed><course>102.943085</course><hAcc>1.628783</hAcc><vAcc>0.827730</vAcc></extensions></trkpt>
      <trkpt lon="-2.224063" lat="53.111288"><ele>221.737152</ele><time>2022-03-04T11:29:27Z</time><extensions><speed>1.023935</speed><course>103.341034</course><hAcc>1.644536</hAcc><vAcc>0.827733</vAcc></extensions></trkpt>
      <trkpt lon="-2.224047" lat="53.111285"><ele>221.831406</ele><time>2022-03-04T11:29:28Z</time><extensions><speed>1.061967</speed><course>104.143066</course><hAcc>1.681500</hAcc><vAcc>0.827750</vAcc></extensions></trkpt>
      <trkpt lon="-2.224031" lat="53.111283"><ele>221.927246</ele><time>2022-03-04T11:29:29Z</time><extensions><speed>1.157171</speed><course>104.513283</course><hAcc>1.681829</hAcc><vAcc>0.827777</vAcc></extensions></trkpt>
      <trkpt lon="-2.224015" lat="53.111280"><ele>222.030182</ele><time>2022-03-04T11:29:30Z</time><extensions><speed>1.139144</speed><course>103.822639</course><hAcc>1.641696</hAcc><vAcc>0.827817</vAcc></extensions></trkpt>
      <trkpt lon="-2.223999" lat="53.111278"><ele>222.132004</ele><time>2022-03-04T11:29:30Z</time><extensions><speed>1.087014</speed><course>102.975868</course><hAcc>1.629974</hAcc><vAcc>0.827863</vAcc></extensions></trkpt>
      <trkpt lon="-2.223983" lat="53.111276"><ele>222.237549</ele><time>2022-03-04T11:29:31Z</time><extensions><speed>0.999404</speed><course>101.754715</course><hAcc>1.648222</hAcc><vAcc>0.827906</vAcc></extensions></trkpt>
      <trkpt lon="-2.223969" lat="53.111274"><ele>222.344513</ele><time>2022-03-04T11:29:32Z</time><extensions><speed>0.971711</speed><course>101.818321</course><hAcc>1.677997</hAcc><vAcc>0.827966</vAcc></extensions></trkpt>
      <trkpt lon="-2.223955" lat="53.111272"><ele>222.455185</ele><time>2022-03-04T11:29:33Z</time><extensions><speed>0.967634</speed><course>101.713440</course><hAcc>1.652626</hAcc><vAcc>0.828018</vAcc></extensions></trkpt>
      <trkpt lon="-2.223941" lat="53.111271"><ele>222.561935</ele><time>2022-03-04T11:29:34Z</time><extensions><speed>0.930060</speed><course>100.224709</course><hAcc>1.644818</hAcc><vAcc>0.828068</vAcc></extensions></trkpt>
      <trkpt lon="-2.223928" lat="53.111269"><ele>222.680084</ele><time>2022-03-04T11:29:35Z</time><extensions><speed>0.866379</speed><course>100.142380</course><hAcc>1.659927</hAcc><vAcc>0.828118</vAcc></extensions></trkpt>
      <trkpt lon="-2.223915" lat="53.111268"><ele>222.800903</ele><time>2022-03-04T11:29:36Z</time><extensions><speed>0.832123</speed><course>101.503677</course><hAcc>1.653686</hAcc><vAcc>0.828157</vAcc></extensions></trkpt>
      <trkpt lon="-2.223903" lat="53.111266"><ele>222.921112</ele><time>2022-03-04T11:29:37Z</time><extensions><speed>0.830895</speed><course>104.241898</course><hAcc>1.627469</hAcc><vAcc>0.828191</vAcc></extensions></trkpt>
      <trkpt lon="-2.223890" lat="53.111264"><ele>223.039566</ele><time>2022-03-04T11:29:38Z</time><extensions><speed>0.902479</speed><course>106.199081</course><hAcc>1.608355</hAcc><vAcc>0.828215</vAcc></extensions></trkpt>
      <trkpt lon="-2.223877" lat="53.111262"><ele>223.169891</ele><time>2022-03-04T11:29:39Z</time><extensions><speed>0.918341</speed><course>108.458466</course><hAcc>1.608549</hAcc><vAcc>0.828229</vAcc></extensions></trkpt>
      <trkpt lon="-2.223864" lat="53.111259"><ele>223.302551</ele><time>2022-03-04T11:29:40Z</time><extensions><speed>0.958813</speed><course>111.265030</course><hAcc>1.596269</hAcc><vAcc>0.828236</vAcc></extensions></trkpt>
      <trkpt lon="-2.223851" lat="53.111256"><ele>223.448471</ele><time>2022-03-04T11:29:41Z</time><extensions><speed>0.950559</speed><course>112.023064</course><hAcc>1.613079</hAcc><vAcc>0.828238</vAcc></extensions></trkpt>
      <trkpt lon="-2.223838" lat="53.111253"><ele>223.591141</ele><time>2022-03-04T11:29:42Z</time><extensions><speed>0.843117</speed><course>109.159805</course><hAcc>1.651985</hAcc><vAcc>0.828226</vAcc></extensions></trkpt>
      <trkpt lon="-2.223826" lat="53.111251"><ele>223.733932</ele><time>2022-03-04T11:29:43Z</time><extensions><speed>0.843352</speed><course>105.875984</course><hAcc>1.594101</hAcc><vAcc>0.828201</vAcc></extensions></trkpt>
      <trkpt lon="-2.223814" lat="53.111249"><ele>223.880692</ele><time>2022-03-04T11:29:44Z</time><extensions><speed>0.905349</speed><course>103.030701</course><hAcc>1.579428</hAcc><vAcc>0.828174</vAcc></extensions></trkpt>
      <trkpt lon="-2.223800" lat="53.111247"><ele>224.028275</ele><time>2022-03-04T11:29:45Z</time><extensions><speed>0.906988</speed><course>101.919304</course><hAcc>1.622130</hAcc><vAcc>0.828136</vAcc></extensions></trkpt>
      <trkpt lon="-2.223787" lat="53.111245"><ele>224.184189</ele><time>2022-03-04T11:29:46Z</time><extensions><speed>0.862475</speed><course>100.061371</course><hAcc>1.663889</hAcc><vAcc>0.828095</vAcc></extensions></trkpt>
      <trkpt lon="-2.223774" lat="53.111244"><ele>224.344223</ele><time>2022-03-04T11:29:47Z</time><extensions><speed>0.914257</speed><course>98.728058</course><hAcc>1.644560</hAcc><vAcc>0.828056</vAcc></extensions></trkpt>
      <trkpt lon="-2.223761" lat="53.111243"><ele>224.496979</ele><time>2022-03-04T11:29:48Z</time><extensions><speed>0.921648</speed><course>99.658058</course><hAcc>1.634663</hAcc><vAcc>0.828003</vAcc></extensions></trkpt>
      <trkpt lon="-2.223747" lat="53.111241"><ele>224.652802</ele><time>2022-03-04T11:29:49Z</time><extensions><speed>0.952950</speed><course>103.687851</course><hAcc>1.636835</hAcc><vAcc>0.827949</vAcc></extensions></trkpt>
      <trkpt lon="-2.223733" lat="53.111239"><ele>224.795563</ele><time>2022-03-04T11:29:50Z</time><extensions><speed>0.982320</speed><course>106.409012</course><hAcc>1.642034</hAcc><vAcc>0.827900</vAcc></extensions></trkpt>
      <trkpt lon="-2.223719" lat="53.111236"><ele>224.931488</ele><time>2022-03-04T11:29:51Z</time><extensions><speed>1.006067</speed><course>107.030060</course><hAcc>1.649431</hAcc><vAcc>0.827852</vAcc></extensions></trkpt>
      <trkpt lon="-2.223704" lat="53.111233"><ele>225.055786</ele><time>2022-03-04T11:29:52Z</time><extensions><speed>0.997205</speed><course>106.938164</course><hAcc>1.664876</hAcc><vAcc>0.827812</vAcc></extensions></trkpt>
      <trkpt lon="-2.223691" lat="53.111231"><ele>225.183762</ele><time>2022-03-04T11:29:53Z</time><extensions><speed>0.875308</speed><course>102.142899</course><hAcc>1.661967</hAcc><vAcc>0.827775</vAcc></extensions></trkpt>
      <trkpt lon="-2.223678" lat="53.111230"><ele>225.308624</ele><time>2022-03-04T11:29:54Z</time><extensions><speed>0.890651</speed><course>102.941246</course><hAcc>1.625584</hAcc><vAcc>0.827740</vAcc></extensions></trkpt>
      <trkpt lon="-2.223664" lat="53.111228"><ele>225.417648</ele><time>2022-03-04T11:29:55Z</time><extensions><speed>0.972098</speed><course>104.165443</course><hAcc>1.624426</hAcc><vAcc>0.827705</vAcc></extensions></trkpt>
      <trkpt lon="-2.223650" lat="53.111225"><ele>225.527420</ele><time>2022-03-04T11:29:56Z</time><extensions><speed>1.068702</speed><course>105.147865</course><hAcc>1.655167</hAcc><vAcc>0.827686</vAcc></extensions></trkpt>
      <trkpt lon="-2.223634" lat="53.111223"><ele>225.635101</ele><time>2022-03-04T11:29:57Z</time><extensions><speed>1.075220</speed><course>104.317528</course><hAcc>1.661501</hAcc><vAcc>0.827669</vAcc></extensions></trkpt>
      <trkpt lon="-2.223619" lat="53.111221"><ele>225.739075</ele><time>2022-03-04T11:29:58Z</time><extensions><speed>1.022544</speed><course>102.175797</course><hAcc>1.634705</hAcc><vAcc>0.827658</vAcc></extensions></trkpt>
      <trkpt lon="-2.223604" lat="53.111219"><ele>225.838791</ele><time>2022-03-04T11:29:59Z</time><extensions><speed>0.974976</speed><course>101.464165</course><hAcc>1.622695</hAcc><vAcc>0.827658</vAcc></extensions></trkpt>
      <trkpt lon="-2.223590" lat="53.111217"><ele>225.929398</ele><time>2022-03-04T11:30:00Z</time><extensions><speed>0.920745</speed><course>101.313911</course><hAcc>1.627472</hAcc><vAcc>0.827672</vAcc></extensions></trkpt>
      <trkpt lon="-2.223577" lat="53.111216"><ele>226.017715</ele><time>2022-03-04T11:30:01Z</time><extensions><speed>0.872119</speed><course>100.997406</course><hAcc>1.636605</hAcc><vAcc>0.827686</vAcc></extensions></trkpt>
      <trkpt lon="-2.223564" lat="53.111214"><ele>226.112350</ele><time>2022-03-04T11:30:02Z</time><extensions><speed>0.850798</speed><course>101.532570</course><hAcc>1.635267</hAcc><vAcc>0.827715</vAcc></extensions></trkpt>
      <trkpt lon="-2.223551" lat="53.111213"><ele>226.205383</ele><time>2022-03-04T11:30:03Z</time><extensions><speed>0.933632</speed><course>99.677086</course><hAcc>1.593203</hAcc><vAcc>0.827742</vAcc></extensions></trkpt>
      <trkpt lon="-2.223537" lat="53.111211"><ele>226.297562</ele><time>2022-03-04T11:30:04Z</time><extensions><speed>0.956277</speed><course>98.099846</course><hAcc>1.605626</hAcc><vAcc>0.827774</vAcc></extensions></trkpt>
      <trkpt lon="-2.223524" lat="53.111210"><ele>226.385117</ele><time>2022-03-04T11:30:05Z</time><extensions><speed>0.875326</speed><course>98.430656</course><hAcc>1.661661</hAcc><vAcc>0.827813</vAcc></extensions></trkpt>
      <trkpt lon="-2.223511" lat="53.111209"><ele>226.478363</ele><time>2022-03-04T11:30:06Z</time><extensions><speed>0.902677</speed><course>99.162537</course><hAcc>1.602486</hAcc><vAcc>0.827851</vAcc></extensions></trkpt>
      <trkpt lon="-2.223497" lat="53.111207"><ele>226.582748</ele><time>2022-03-04T11:30:07Z</time><extensions><speed>0.923112</speed><course>101.403687</course><hAcc>1.575138</hAcc><vAcc>0.827898</vAcc></extensions></trkpt>
      <trkpt lon="-2.223484" lat="53.111206"><ele>226.694366</ele><time>2022-03-04T11:30:08Z</time><extensions><speed>0.935360</speed><course>102.933311</course><hAcc>1.581078</hAcc><vAcc>0.827945</vAcc></extensions></trkpt>
      <trkpt lon="-2.223470" lat="53.111204"><ele>226.813828</ele><time>2022-03-04T11:30:09Z</time><extensions><speed>0.951345</speed><course>103.875069</course><hAcc>1.590079</hAcc><vAcc>0.828008</vAcc></extensions></trkpt>
      <trkpt lon="-2.223456" lat="53.111202"><ele>226.934677</ele><time>2022-03-04T11:30:10Z</time><extensions><speed>0.910051</speed><course>105.323257</course><hAcc>1.623803</hAcc><vAcc>0.828059</vAcc></extensions></trkpt>
      <trkpt lon="-2.223444" lat="53.111199"><ele>227.063568</ele><time>2022-03-04T11:30:11Z</time><extensions><speed>0.821429</speed><course>112.871849</course><hAcc>1.624804</hAcc><vAcc>0.828115</vAcc></extensions></trkpt>
      <trkpt lon="-2.223433" lat="53.111196"><ele>227.187592</ele><time>2022-03-04T11:30:12Z</time><extensions><speed>0.806193</speed><course>116.388557</course><hAcc>1.622835</hAcc><vAcc>0.828178</vAcc></extensions></trkpt>
      <trkpt lon="-2.223422" lat="53.111193"><ele>227.318680</ele><time>2022-03-04T11:30:13Z</time><extensions><speed>0.844103</speed><course>113.681419</course><hAcc>1.610257</hAcc><vAcc>0.828234</vAcc></extensions></trkpt>
      <trkpt lon="-2.223410" lat="53.111190"><ele>227.457870</ele><time>2022-03-04T11:30:14Z</time><extensions><speed>0.860482</speed><course>109.703239</course><hAcc>1.631396</hAcc><vAcc>0.828280</vAcc></extensions></trkpt>
      <trkpt lon="-2.223398" lat="53.111188"><ele>227.599091</ele><time>2022-03-04T11:30:15Z</time><extensions><speed>0.847815</speed><course>105.708725</course><hAcc>1.630311</hAcc><vAcc>0.828329</vAcc></extensions></trkpt>
      <trkpt lon="-2.223385" lat="53.111186"><ele>227.741211</ele><time>2022-03-04T11:30:16Z</time><extensions><speed>0.896293</speed><course>105.465187</course><hAcc>1.639555</hAcc><vAcc>0.828377</vAcc></extensions></trkpt>
      <trkpt lon="-2.223372" lat="53.111183"><ele>227.890091</ele><time>2022-03-04T11:30:17Z</time><extensions><speed>0.929950</speed><course>106.702690</course><hAcc>1.661821</hAcc><vAcc>0.828438</vAcc></extensions></trkpt>
      <trkpt lon="-2.223359" lat="53.111181"><ele>228.041580</ele><time>2022-03-04T11:30:18Z</time><extensions><speed>0.941365</speed><course>106.711945</course><hAcc>1.682212</hAcc><vAcc>0.828506</vAcc></extensions></trkpt>
      <trkpt lon="-2.223345" lat="53.111178"><ele>228.199707</ele><time>2022-03-04T11:30:19Z</time><extensions><speed>0.969766</speed><course>107.013939</course><hAcc>1.668877</hAcc><vAcc>0.828583</vAcc></extensions></trkpt>
      <trkpt lon="-2.223331" lat="53.111176"><ele>228.351074</ele><time>2022-03-04T11:30:20Z</time><extensions><speed>0.919954</speed><course>104.274612</course><hAcc>1.657350</hAcc><vAcc>0.828647</vAcc></extensions></trkpt>
      <trkpt lon="-2.223318" lat="53.111174"><ele>228.495682</ele><time>2022-03-04T11:30:21Z</time><extensions><speed>0.906571</speed><course>103.156303</course><hAcc>1.669085</hAcc><vAcc>0.828703</vAcc></extensions></trkpt>
      <trkpt lon="-2.223305" lat="53.111172"><ele>228.638412</ele><time>2022-03-04T11:30:22Z</time><extensions><speed>0.902150</speed><course>102.194183</course><hAcc>1.691051</hAcc><vAcc>0.828761</vAcc></extensions></trkpt>
      <trkpt lon="-2.223292" lat="53.111170"><ele>228.794464</ele><time>2022-03-04T11:30:23Z</time><extensions><speed>0.885538</speed><course>105.270302</course><hAcc>1.669393</hAcc><vAcc>0.828814</vAcc></extensions></trkpt>
      <trkpt lon="-2.223279" lat="53.111168"><ele>228.960800</ele><time>2022-03-04T11:30:24Z</time><extensions><speed>0.892476</speed><course>108.618484</course><hAcc>1.661418</hAcc><vAcc>0.828834</vAcc></extensions></trkpt>
      <trkpt lon="-2.223267" lat="53.111165"><ele>229.126297</ele><time>2022-03-04T11:30:25Z</time><extensions><speed>0.887046</speed><course>109.451721</course><hAcc>1.662458</hAcc><vAcc>0.828845</vAcc></extensions></trkpt>
      <trkpt lon="-2.223254" lat="53.111163"><ele>229.270142</ele><time>2022-03-04T11:30:26Z</time><extensions><speed>0.898964</speed><course>107.084160</course><hAcc>1.667987</hAcc><vAcc>0.828833</vAcc></extensions></trkpt>
      <trkpt lon="-2.223240" lat="53.111161"><ele>229.411713</ele><time>2022-03-04T11:30:27Z</time><extensions><speed>1.029331</speed><course>104.460365</course><hAcc>1.675922</hAcc><vAcc>0.828792</vAcc></extensions></trkpt>
      <trkpt lon="-2.223224" lat="53.111158"><ele>229.554626</ele><time>2022-03-04T11:30:28Z</time><extensions><speed>1.121310</speed><course>103.009789</course><hAcc>1.702033</hAcc><vAcc>0.828711</vAcc></extensions></trkpt>
      <trkpt lon="-2.223209" lat="53.111156"><ele>229.687485</ele><time>2022-03-04T11:30:29Z</time><extensions><speed>1.049120</speed><course>103.830460</course><hAcc>1.678849</hAcc><vAcc>0.828607</vAcc></extensions></trkpt>
      <trkpt lon="-2.223194" lat="53.111154"><ele>229.807892</ele><time>2022-03-04T11:30:30Z</time><extensions><speed>0.916137</speed><course>104.166260</course><hAcc>1.672412</hAcc><vAcc>0.828485</vAcc></extensions></trkpt>
      <trkpt lon="-2.223182" lat="53.111152"><ele>229.938171</ele><time>2022-03-04T11:30:31Z</time><extensions><speed>0.765622</speed><course>102.857758</course><hAcc>1.667520</hAcc><vAcc>0.828349</vAcc></extensions></trkpt>
      <trkpt lon="-2.223171" lat="53.111151"><ele>230.058350</ele><time>2022-03-04T11:30:32Z</time><extensions><speed>0.723659</speed><course>100.890007</course><hAcc>1.663202</hAcc><vAcc>0.828197</vAcc></extensions></trkpt>
      <trkpt lon="-2.223160" lat="53.111150"><ele>230.184570</ele><time>2022-03-04T11:30:33Z</time><extensions><speed>0.724219</speed><course>98.928986</course><hAcc>1.662323</hAcc><vAcc>0.828046</vAcc></extensions></trkpt>
      <trkpt lon="-2.223149" lat="53.111149"><ele>230.303391</ele><time>2022-03-04T11:30:34Z</time><extensions><speed>0.763125</speed><course>97.449913</course><hAcc>1.681609</hAcc><vAcc>0.827906</vAcc></extensions></trkpt>
      <trkpt lon="-2.223138" lat="53.111148"><ele>230.429291</ele><time>2022-03-04T11:30:35Z</time><extensions><speed>0.822573</speed><course>95.778046</course><hAcc>1.714269</hAcc><vAcc>0.827786</vAcc></extensions></trkpt>
      <trkpt lon="-2.223125" lat="53.111148"><ele>230.543823</ele><time>2022-03-04T11:30:36Z</time><extensions><speed>0.878298</speed><course>90.152596</course><hAcc>1.683632</hAcc><vAcc>0.827699</vAcc></extensions></trkpt>
      <trkpt lon="-2.223112" lat="53.111148"><ele>230.653397</ele><time>2022-03-04T11:30:37Z</time><extensions><speed>0.877125</speed><course>85.447289</course><hAcc>1.679855</hAcc><vAcc>0.827650</vAcc></extensions></trkpt>
      <trkpt lon="-2.223099" lat="53.111149"><ele>230.745071</ele><time>2022-03-04T11:30:38Z</time><extensions><speed>0.832880</speed><course>80.900551</course><hAcc>1.687521</hAcc><vAcc>0.827629</vAcc></extensions></trkpt>
      <trkpt lon="-2.223087" lat="53.111150"><ele>230.837677</ele><time>2022-03-04T11:30:39Z</time><extensions><speed>0.836726</speed><course>79.344864</course><hAcc>1.700868</hAcc><vAcc>0.827645</vAcc></extensions></trkpt>
      <trkpt lon="-2.223074" lat="53.111151"><ele>230.950424</ele><time>2022-03-04T11:30:40Z</time><extensions><speed>0.829406</speed><course>82.219101</course><hAcc>1.712669</hAcc><vAcc>0.827689</vAcc></extensions></trkpt>
      <trkpt lon="-2.223062" lat="53.111152"><ele>231.072586</ele><time>2022-03-04T11:30:41Z</time><extensions><speed>0.843594</speed><course>86.936226</course><hAcc>1.722810</hAcc><vAcc>0.827752</vAcc></extensions></trkpt>
      <trkpt lon="-2.223049" lat="53.111152"><ele>231.202301</ele><time>2022-03-04T11:30:42Z</time><extensions><speed>0.854276</speed><course>91.864647</course><hAcc>1.727028</hAcc><vAcc>0.827840</vAcc></extensions></trkpt>
      <trkpt lon="-2.223036" lat="53.111152"><ele>231.334534</ele><time>2022-03-04T11:30:44Z</time><extensions><speed>0.904771</speed><course>93.149750</course><hAcc>1.723678</hAcc><vAcc>0.827920</vAcc></extensions></trkpt>
      <trkpt lon="-2.223023" lat="53.111151"><ele>231.466370</ele><time>2022-03-04T11:30:45Z</time><extensions><speed>0.891601</speed><course>92.784096</course><hAcc>1.718421</hAcc><vAcc>0.827982</vAcc></extensions></trkpt>
      <trkpt lon="-2.223009" lat="53.111151"><ele>231.610153</ele><time>2022-03-04T11:30:46Z</time><extensions><speed>0.936760</speed><course>91.566856</course><hAcc>1.716741</hAcc><vAcc>0.828040</vAcc></extensions></trkpt>
      <trkpt lon="-2.222995" lat="53.111150"><ele>231.753708</ele><time>2022-03-04T11:30:47Z</time><extensions><speed>0.974860</speed><course>93.122368</course><hAcc>1.719128</hAcc><vAcc>0.828084</vAcc></extensions></trkpt>
      <trkpt lon="-2.222980" lat="53.111150"><ele>231.900238</ele><time>2022-03-04T11:30:48Z</time><extensions><speed>0.977246</speed><course>98.276985</course><hAcc>1.716250</hAcc><vAcc>0.828125</vAcc></extensions></trkpt>
      <trkpt lon="-2.222965" lat="53.111148"><ele>232.052490</ele><time>2022-03-04T11:30:49Z</time><extensions><speed>1.023141</speed><course>103.754303</course><hAcc>1.700281</hAcc><vAcc>0.828140</vAcc></extensions></trkpt>
      <trkpt lon="-2.222950" lat="53.111145"><ele>232.212509</ele><time>2022-03-04T11:30:50Z</time><extensions><speed>1.107581</speed><course>107.589401</course><hAcc>1.685526</hAcc><vAcc>0.828140</vAcc></extensions></trkpt>
      <trkpt lon="-2.222933" lat="53.111142"><ele>232.384476</ele><time>2022-03-04T11:30:51Z</time><extensions><speed>1.226427</speed><course>108.713028</course><hAcc>1.671025</hAcc><vAcc>0.828137</vAcc></extensions></trkpt>
      <trkpt lon="-2.222915" lat="53.111138"><ele>232.559113</ele><time>2022-03-04T11:30:52Z</time><extensions><speed>1.310274</speed><course>107.612488</course><hAcc>1.676409</hAcc><vAcc>0.828113</vAcc></extensions></trkpt>
      <trkpt lon="-2.222897" lat="53.111135"><ele>232.731506</ele><time>2022-03-04T11:30:53Z</time><extensions><speed>1.243355</speed><course>105.291283</course><hAcc>1.699643</hAcc><vAcc>0.828088</vAcc></extensions></trkpt>
      <trkpt lon="-2.222880" lat="53.111132"><ele>232.913162</ele><time>2022-03-04T11:30:54Z</time><extensions><speed>1.095406</speed><course>105.863876</course><hAcc>1.658357</hAcc><vAcc>0.828070</vAcc></extensions></trkpt>
      <trkpt lon="-2.222866" lat="53.111130"><ele>233.079086</ele><time>2022-03-04T11:30:55Z</time><extensions><speed>0.955637</speed><course>105.374260</course><hAcc>1.629530</hAcc><vAcc>0.828057</vAcc></extensions></trkpt>
      <trkpt lon="-2.222852" lat="53.111127"><ele>233.243408</ele><time>2022-03-04T11:30:56Z</time><extensions><speed>0.872537</speed><course>107.847992</course><hAcc>1.613154</hAcc><vAcc>0.828052</vAcc></extensions></trkpt>
      <trkpt lon="-2.222840" lat="53.111125"><ele>233.403900</ele><time>2022-03-04T11:30:57Z</time><extensions><speed>0.841519</speed><course>108.882248</course><hAcc>1.629042</hAcc><vAcc>0.828059</vAcc></extensions></trkpt>
      <trkpt lon="-2.222828" lat="53.111123"><ele>233.558182</ele><time>2022-03-04T11:30:58Z</time><extensions><speed>0.833762</speed><course>107.600182</course><hAcc>1.672570</hAcc><vAcc>0.828074</vAcc></extensions></trkpt>
      <trkpt lon="-2.222815" lat="53.111120"><ele>233.706772</ele><time>2022-03-04T11:30:59Z</time><extensions><speed>0.996968</speed><course>109.091682</course><hAcc>1.622501</hAcc><vAcc>0.828080</vAcc></extensions></trkpt>
      <trkpt lon="-2.222801" lat="53.111117"><ele>233.851349</ele><time>2022-03-04T11:31:00Z</time><extensions><speed>1.038846</speed><course>110.842628</course><hAcc>1.620544</hAcc><vAcc>0.828097</vAcc></extensions></trkpt>
      <trkpt lon="-2.222787" lat="53.111113"><ele>233.984787</ele><time>2022-03-04T11:31:01Z</time><extensions><speed>1.006048</speed><course>112.093781</course><hAcc>1.665709</hAcc><vAcc>0.828110</vAcc></extensions></trkpt>
      <trkpt lon="-2.222773" lat="53.111110"><ele>234.111969</ele><time>2022-03-04T11:31:02Z</time><extensions><speed>0.984619</speed><course>110.052368</course><hAcc>1.650757</hAcc><vAcc>0.828126</vAcc></extensions></trkpt>
      <trkpt lon="-2.222760" lat="53.111107"><ele>234.242203</ele><time>2022-03-04T11:31:03Z</time><extensions><speed>0.913520</speed><course>107.694321</course><hAcc>1.657361</hAcc><vAcc>0.828127</vAcc></extensions></trkpt>
      <trkpt lon="-2.222747" lat="53.111105"><ele>234.371170</ele><time>2022-03-04T11:31:04Z</time><extensions><speed>0.840681</speed><course>108.078278</course><hAcc>1.680137</hAcc><vAcc>0.828148</vAcc></extensions></trkpt>
      <trkpt lon="-2.222736" lat="53.111103"><ele>234.506149</ele><time>2022-03-04T11:31:05Z</time><extensions><speed>0.780209</speed><course>107.429596</course><hAcc>1.698040</hAcc><vAcc>0.828166</vAcc></extensions></trkpt>
      <trkpt lon="-2.222725" lat="53.111101"><ele>234.631805</ele><time>2022-03-04T11:31:06Z</time><extensions><speed>0.765529</speed><course>106.426971</course><hAcc>1.711228</hAcc><vAcc>0.828170</vAcc></extensions></trkpt>
      <trkpt lon="-2.222713" lat="53.111099"><ele>234.769257</ele><time>2022-03-04T11:31:07Z</time><extensions><speed>0.823572</speed><course>107.738441</course><hAcc>1.719161</hAcc><vAcc>0.828177</vAcc></extensions></trkpt>
      <trkpt lon="-2.222701" lat="53.111096"><ele>234.919830</ele><time>2022-03-04T11:31:08Z</time><extensions><speed>0.839906</speed><course>107.506454</course><hAcc>1.723942</hAcc><vAcc>0.828182</vAcc></extensions></trkpt>
      <trkpt lon="-2.222689" lat="53.111094"><ele>235.084900</ele><time>2022-03-04T11:31:09Z</time><extensions><speed>0.860638</speed><course>105.844627</course><hAcc>1.728932</hAcc><vAcc>0.828185</vAcc></extensions></trkpt>
      <trkpt lon="-2.222677" lat="53.111092"><ele>235.241562</ele><time>2022-03-04T11:31:10Z</time><extensions><speed>0.834257</speed><course>107.845116</course><hAcc>1.729242</hAcc><vAcc>0.828194</vAcc></extensions></trkpt>
      <trkpt lon="-2.222665" lat="53.111090"><ele>235.396210</ele><time>2022-03-04T11:31:11Z</time><extensions><speed>0.906154</speed><course>108.519241</course><hAcc>1.727968</hAcc><vAcc>0.828197</vAcc></extensions></trkpt>
      <trkpt lon="-2.222651" lat="53.111087"><ele>235.565567</ele><time>2022-03-04T11:31:12Z</time><extensions><speed>0.988116</speed><course>107.509857</course><hAcc>1.725950</hAcc><vAcc>0.828211</vAcc></extensions></trkpt>
      <trkpt lon="-2.222637" lat="53.111085"><ele>235.746719</ele><time>2022-03-04T11:31:13Z</time><extensions><speed>1.009850</speed><course>105.113785</course><hAcc>1.725798</hAcc><vAcc>0.828223</vAcc></extensions></trkpt>
      <trkpt lon="-2.222622" lat="53.111082"><ele>235.934982</ele><time>2022-03-04T11:31:14Z</time><extensions><speed>1.008809</speed><course>103.331749</course><hAcc>1.722147</hAcc><vAcc>0.828229</vAcc></extensions></trkpt>
      <trkpt lon="-2.222608" lat="53.111080"><ele>236.129959</ele><time>2022-03-04T11:31:15Z</time><extensions><speed>0.986557</speed><course>102.918930</course><hAcc>1.717431</hAcc><vAcc>0.828226</vAcc></extensions></trkpt>
      <trkpt lon="-2.222594" lat="53.111079"><ele>236.328201</ele><time>2022-03-04T11:31:16Z</time><extensions><speed>0.881739</speed><course>95.560112</course><hAcc>1.705579</hAcc><vAcc>0.828237</vAcc></extensions></trkpt>
      <trkpt lon="-2.222581" lat="53.111079"><ele>236.518845</ele><time>2022-03-04T11:31:17Z</time><extensions><speed>0.842483</speed><course>89.883202</course><hAcc>1.691238</hAcc><vAcc>0.828245</vAcc></extensions></trkpt>
      <trkpt lon="-2.222569" lat="53.111079"><ele>236.697449</ele><time>2022-03-04T11:31:18Z</time><extensions><speed>0.820621</speed><course>84.276260</course><hAcc>1.685158</hAcc><vAcc>0.828246</vAcc></extensions></trkpt>
      <trkpt lon="-2.222556" lat="53.111080"><ele>236.883072</ele><time>2022-03-04T11:31:19Z</time><extensions><speed>0.877607</speed><course>81.178268</course><hAcc>1.699036</hAcc><vAcc>0.828230</vAcc></extensions></trkpt>
      <trkpt lon="-2.222543" lat="53.111081"><ele>237.060532</ele><time>2022-03-04T11:31:20Z</time><extensions><speed>0.923580</speed><course>82.732643</course><hAcc>1.724696</hAcc><vAcc>0.828217</vAcc></extensions></trkpt>
      <trkpt lon="-2.222528" lat="53.111082"><ele>237.229492</ele><time>2022-03-04T11:31:21Z</time><extensions><speed>0.992746</speed><course>86.717926</course><hAcc>1.694638</hAcc><vAcc>0.828204</vAcc></extensions></trkpt>
      <trkpt lon="-2.222513" lat="53.111082"><ele>237.370224</ele><time>2022-03-04T11:31:22Z</time><extensions><speed>1.018346</speed><course>93.313126</course><hAcc>1.683241</hAcc><vAcc>0.828199</vAcc></extensions></trkpt>
      <trkpt lon="-2.222499" lat="53.111081"><ele>237.524017</ele><time>2022-03-04T11:31:23Z</time><extensions><speed>0.998006</speed><course>99.323959</course><hAcc>1.695053</hAcc><vAcc>0.828195</vAcc></extensions></trkpt>
      <trkpt lon="-2.222485" lat="53.111079"><ele>237.661835</ele><time>2022-03-04T11:31:24Z</time><extensions><speed>0.887741</speed><course>104.874901</course><hAcc>1.709790</hAcc><vAcc>0.828175</vAcc></extensions></trkpt>
      <trkpt lon="-2.222473" lat="53.111076"><ele>237.792450</ele><time>2022-03-04T11:31:25Z</time><extensions><speed>0.829935</speed><course>111.395073</course><hAcc>1.717255</hAcc><vAcc>0.828160</vAcc></extensions></trkpt>
      <trkpt lon="-2.222461" lat="53.111073"><ele>237.923111</ele><time>2022-03-04T11:31:26Z</time><extensions><speed>0.872704</speed><course>119.379135</course><hAcc>1.715153</hAcc><vAcc>0.828146</vAcc></extensions></trkpt>
      <trkpt lon="-2.222449" lat="53.111069"><ele>238.039200</ele><time>2022-03-04T11:31:27Z</time><extensions><speed>1.049820</speed><course>119.900391</course><hAcc>1.717316</hAcc><vAcc>0.828130</vAcc></extensions></trkpt>
      <trkpt lon="-2.222434" lat="53.111064"><ele>238.156555</ele><time>2022-03-04T11:31:28Z</time><extensions><speed>1.129243</speed><course>118.302856</course><hAcc>1.720258</hAcc><vAcc>0.828114</vAcc></extensions></trkpt>
      <trkpt lon="-2.222420" lat="53.111060"><ele>238.279114</ele><time>2022-03-04T11:31:29Z</time><extensions><speed>1.046785</speed><course>117.527298</course><hAcc>1.719555</hAcc><vAcc>0.828095</vAcc></extensions></trkpt>
      <trkpt lon="-2.222407" lat="53.111056"><ele>238.407745</ele><time>2022-03-04T11:31:30Z</time><extensions><speed>0.927385</speed><course>115.564194</course><hAcc>1.710968</hAcc><vAcc>0.828091</vAcc></extensions></trkpt>
      <trkpt lon="-2.222394" lat="53.111052"><ele>238.530624</ele><time>2022-03-04T11:31:31Z</time><extensions><speed>0.888845</speed><course>113.119011</course><hAcc>1.700292</hAcc><vAcc>0.828080</vAcc></extensions></trkpt>
      <trkpt lon="-2.222382" lat="53.111049"><ele>238.655930</ele><time>2022-03-04T11:31:32Z</time><extensions><speed>0.878221</speed><course>111.007423</course><hAcc>1.692872</hAcc><vAcc>0.828067</vAcc></extensions></trkpt>
      <trkpt lon="-2.222369" lat="53.111046"><ele>238.794922</ele><time>2022-03-04T11:31:33Z</time><extensions><speed>0.968362</speed><course>109.166290</course><hAcc>1.700653</hAcc><vAcc>0.828050</vAcc></extensions></trkpt>
      <trkpt lon="-2.222355" lat="53.111044"><ele>238.934464</ele><time>2022-03-04T11:31:34Z</time><extensions><speed>1.012738</speed><course>104.639084</course><hAcc>1.719061</hAcc><vAcc>0.828030</vAcc></extensions></trkpt>
      <trkpt lon="-2.222341" lat="53.111042"><ele>239.071915</ele><time>2022-03-04T11:31:35Z</time><extensions><speed>0.980559</speed><course>99.499825</course><hAcc>1.708040</hAcc><vAcc>0.828017</vAcc></extensions></trkpt>
      <trkpt lon="-2.222327" lat="53.111041"><ele>239.212631</ele><time>2022-03-04T11:31:36Z</time><extensions><speed>0.907806</speed><course>98.898804</course><hAcc>1.698723</hAcc><vAcc>0.828000</vAcc></extensions></trkpt>
      <trkpt lon="-2.222313" lat="53.111039"><ele>239.357208</ele><time>2022-03-04T11:31:37Z</time><extensions><speed>0.884390</speed><course>97.630112</course><hAcc>1.702384</hAcc><vAcc>0.827987</vAcc></extensions></trkpt>
      <trkpt lon="-2.222299" lat="53.111038"><ele>239.504196</ele><time>2022-03-04T11:31:38Z</time><extensions><speed>1.000918</speed><course>98.122658</course><hAcc>1.712319</hAcc><vAcc>0.827971</vAcc></extensions></trkpt>
      <trkpt lon="-2.222284" lat="53.111037"><ele>239.653030</ele><time>2022-03-04T11:31:39Z</time><extensions><speed>1.106694</speed><course>98.173409</course><hAcc>1.720243</hAcc><vAcc>0.827952</vAcc></extensions></trkpt>
      <trkpt lon="-2.222267" lat="53.111035"><ele>239.800369</ele><time>2022-03-04T11:31:40Z</time><extensions><speed>1.132290</speed><course>98.687080</course><hAcc>1.722545</hAcc><vAcc>0.827940</vAcc></extensions></trkpt>
      <trkpt lon="-2.222251" lat="53.111034"><ele>239.936951</ele><time>2022-03-04T11:31:40Z</time><extensions><speed>1.089625</speed><course>97.695175</course><hAcc>1.724106</hAcc><vAcc>0.827933</vAcc></extensions></trkpt>
      <trkpt lon="-2.222235" lat="53.111033"><ele>240.069550</ele><time>2022-03-04T11:31:41Z</time><extensions><speed>1.036096</speed><course>97.371902</course><hAcc>1.726557</hAcc><vAcc>0.827918</vAcc></extensions></trkpt>
      <trkpt lon="-2.222220" lat="53.111032"><ele>240.189102</ele><time>2022-03-04T11:31:42Z</time><extensions><speed>0.952604</speed><course>98.419724</course><hAcc>1.730328</hAcc><vAcc>0.827911</vAcc></extensions></trkpt>
      <trkpt lon="-2.222207" lat="53.111030"><ele>240.305313</ele><time>2022-03-04T11:31:43Z</time><extensions><speed>0.929364</speed><course>99.911949</course><hAcc>1.729361</hAcc><vAcc>0.827904</vAcc></extensions></trkpt>
      <trkpt lon="-2.222193" lat="53.111029"><ele>240.428970</ele><time>2022-03-04T11:31:44Z</time><extensions><speed>0.906673</speed><course>99.548058</course><hAcc>1.723686</hAcc><vAcc>0.827898</vAcc></extensions></trkpt>
      <trkpt lon="-2.222180" lat="53.111027"><ele>240.537766</ele><time>2022-03-04T11:31:45Z</time><extensions><speed>0.906631</speed><course>99.688805</course><hAcc>1.718928</hAcc><vAcc>0.827900</vAcc></extensions></trkpt>
      <trkpt lon="-2.222166" lat="53.111026"><ele>240.668625</ele><time>2022-03-04T11:31:46Z</time><extensions><speed>0.924203</speed><course>100.233360</course><hAcc>1.712844</hAcc><vAcc>0.827902</vAcc></extensions></trkpt>
      <trkpt lon="-2.222153" lat="53.111025"><ele>240.786346</ele><time>2022-03-04T11:31:47Z</time><extensions><speed>0.898865</speed><course>100.162460</course><hAcc>1.703387</hAcc><vAcc>0.827903</vAcc></extensions></trkpt>
      <trkpt lon="-2.222140" lat="53.111023"><ele>240.913528</ele><time>2022-03-04T11:31:48Z</time><extensions><speed>0.865021</speed><course>100.007355</course><hAcc>1.696279</hAcc><vAcc>0.827909</vAcc></extensions></trkpt>
      <trkpt lon="-2.222127" lat="53.111022"><ele>241.037979</ele><time>2022-03-04T11:31:49Z</time><extensions><speed>0.850697</speed><course>103.111931</course><hAcc>1.693121</hAcc><vAcc>0.827911</vAcc></extensions></trkpt>
      <trkpt lon="-2.222115" lat="53.111020"><ele>241.162323</ele><time>2022-03-04T11:31:50Z</time><extensions><speed>0.871741</speed><course>104.451813</course><hAcc>1.676258</hAcc><vAcc>0.827915</vAcc></extensions></trkpt>
      <trkpt lon="-2.222102" lat="53.111018"><ele>241.290970</ele><time>2022-03-04T11:31:51Z</time><extensions><speed>0.846837</speed><course>105.280518</course><hAcc>1.642706</hAcc><vAcc>0.827918</vAcc></extensions></trkpt>
      <trkpt lon="-2.222090" lat="53.111016"><ele>241.408966</ele><time>2022-03-04T11:31:52Z</time><extensions><speed>0.875456</speed><course>105.566833</course><hAcc>1.636812</hAcc><vAcc>0.827920</vAcc></extensions></trkpt>
      <trkpt lon="-2.222077" lat="53.111013"><ele>241.525696</ele><time>2022-03-04T11:31:53Z</time><extensions><speed>0.904912</speed><course>106.473175</course><hAcc>1.661860</hAcc><vAcc>0.827925</vAcc></extensions></trkpt>
      <trkpt lon="-2.222063" lat="53.111011"><ele>241.658310</ele><time>2022-03-04T11:31:54Z</time><extensions><speed>1.047420</speed><course>105.430878</course><hAcc>1.637071</hAcc><vAcc>0.827927</vAcc></extensions></trkpt>
      <trkpt lon="-2.222048" lat="53.111009"><ele>241.782089</ele><time>2022-03-04T11:31:55Z</time><extensions><speed>1.065292</speed><course>103.773476</course><hAcc>1.641559</hAcc><vAcc>0.827931</vAcc></extensions></trkpt>
      <trkpt lon="-2.222033" lat="53.111006"><ele>241.912018</ele><time>2022-03-04T11:31:56Z</time><extensions><speed>0.972316</speed><course>105.573616</course><hAcc>1.612738</hAcc><vAcc>0.827938</vAcc></extensions></trkpt>
      <trkpt lon="-2.222020" lat="53.111004"><ele>242.042694</ele><time>2022-03-04T11:31:57Z</time><extensions><speed>0.897685</speed><course>109.457321</course><hAcc>1.612241</hAcc><vAcc>0.827939</vAcc></extensions></trkpt>
      <trkpt lon="-2.222007" lat="53.111001"><ele>242.168884</ele><time>2022-03-04T11:31:58Z</time><extensions><speed>0.858762</speed><course>111.625534</course><hAcc>1.648808</hAcc><vAcc>0.827926</vAcc></extensions></trkpt>
      <trkpt lon="-2.221996" lat="53.110998"><ele>242.296860</ele><time>2022-03-04T11:31:59Z</time><extensions><speed>0.794965</speed><course>111.275154</course><hAcc>1.674058</hAcc><vAcc>0.827910</vAcc></extensions></trkpt>
      <trkpt lon="-2.221985" lat="53.110996"><ele>242.420273</ele><time>2022-03-04T11:32:00Z</time><extensions><speed>0.774234</speed><course>108.685204</course><hAcc>1.649844</hAcc><vAcc>0.827886</vAcc></extensions></trkpt>
      <trkpt lon="-2.221974" lat="53.110993"><ele>242.537048</ele><time>2022-03-04T11:32:01Z</time><extensions><speed>0.762636</speed><course>107.985291</course><hAcc>1.644296</hAcc><vAcc>0.827854</vAcc></extensions></trkpt>
      <trkpt lon="-2.221963" lat="53.110991"><ele>242.662277</ele><time>2022-03-04T11:32:02Z</time><extensions><speed>0.797532</speed><course>112.004684</course><hAcc>1.659269</hAcc><vAcc>0.827821</vAcc></extensions></trkpt>
      <trkpt lon="-2.221952" lat="53.110988"><ele>242.790115</ele><time>2022-03-04T11:32:03Z</time><extensions><speed>0.831705</speed><course>116.731941</course><hAcc>1.676088</hAcc><vAcc>0.827777</vAcc></extensions></trkpt>
      <trkpt lon="-2.221941" lat="53.110985"><ele>242.913925</ele><time>2022-03-04T11:32:04Z</time><extensions><speed>0.801381</speed><course>121.340935</course><hAcc>1.662477</hAcc><vAcc>0.827728</vAcc></extensions></trkpt>
      <trkpt lon="-2.221931" lat="53.110980"><ele>243.036896</ele><time>2022-03-04T11:32:05Z</time><extensions><speed>0.881739</speed><course>123.612724</course><hAcc>1.664983</hAcc><vAcc>0.827667</vAcc></extensions></trkpt>
      <trkpt lon="-2.221919" lat="53.110976"><ele>243.169937</ele><time>2022-03-04T11:32:06Z</time><extensions><speed>0.923416</speed><course>123.278732</course><hAcc>1.679447</hAcc><vAcc>0.827614</vAcc></extensions></trkpt>
      <trkpt lon="-2.221908" lat="53.110972"><ele>243.296158</ele><time>2022-03-04T11:32:07Z</time><extensions><speed>0.939321</speed><course>121.094208</course><hAcc>1.690248</hAcc><vAcc>0.827550</vAcc></extensions></trkpt>
      <trkpt lon="-2.221895" lat="53.110967"><ele>243.420624</ele><time>2022-03-04T11:32:08Z</time><extensions><speed>0.970111</speed><course>117.308365</course><hAcc>1.668665</hAcc><vAcc>0.827493</vAcc></extensions></trkpt>
      <trkpt lon="-2.221882" lat="53.110964"><ele>243.550659</ele><time>2022-03-04T11:32:09Z</time><extensions><speed>0.992801</speed><course>113.960693</course><hAcc>1.663214</hAcc><vAcc>0.827453</vAcc></extensions></trkpt>
      <trkpt lon="-2.221868" lat="53.110960"><ele>243.670105</ele><time>2022-03-04T11:32:10Z</time><extensions><speed>0.979731</speed><course>111.829582</course><hAcc>1.663799</hAcc><vAcc>0.827417</vAcc></extensions></trkpt>
      <trkpt lon="-2.221855" lat="53.110957"><ele>243.785019</ele><time>2022-03-04T11:32:11Z</time><extensions><speed>0.903498</speed><course>107.931221</course><hAcc>1.669174</hAcc><vAcc>0.827375</vAcc></extensions></trkpt>
      <trkpt lon="-2.221843" lat="53.110955"><ele>243.896362</ele><time>2022-03-04T11:32:12Z</time><extensions><speed>0.831337</speed><course>105.945480</course><hAcc>1.675258</hAcc><vAcc>0.827302</vAcc></extensions></trkpt>
      <trkpt lon="-2.221831" lat="53.110953"><ele>244.004425</ele><time>2022-03-04T11:32:13Z</time><extensions><speed>0.753697</speed><course>103.940895</course><hAcc>1.653304</hAcc><vAcc>0.827212</vAcc></extensions></trkpt>
      <trkpt lon="-2.221820" lat="53.110952"><ele>244.101669</ele><time>2022-03-04T11:32:14Z</time><extensions><speed>0.763124</speed><course>106.032234</course><hAcc>1.639743</hAcc><vAcc>0.827156</vAcc></extensions></trkpt>
      <trkpt lon="-2.221809" lat="53.110950"><ele>244.194458</ele><time>2022-03-04T11:32:15Z</time><extensions><speed>0.794933</speed><course>107.078125</course><hAcc>1.662156</hAcc><vAcc>0.827116</vAcc></extensions></trkpt>
      <trkpt lon="-2.221798" lat="53.110948"><ele>244.278625</ele><time>2022-03-04T11:32:16Z</time><extensions><speed>0.773072</speed><course>105.783058</course><hAcc>1.709038</hAcc><vAcc>0.827066</vAcc></extensions></trkpt>
      <trkpt lon="-2.221788" lat="53.110946"><ele>244.352661</ele><time>2022-03-04T11:32:17Z</time><extensions><speed>0.614434</speed><course>96.998375</course><hAcc>1.665243</hAcc><vAcc>0.827015</vAcc></extensions></trkpt>
      <trkpt lon="-2.221780" lat="53.110946"><ele>244.418259</ele><time>2022-03-04T11:32:18Z</time><extensions><speed>0.466506</speed><course>88.817169</course><hAcc>1.651840</hAcc><vAcc>0.826962</vAcc></extensions></trkpt>
      <trkpt lon="-2.221774" lat="53.110946"><ele>244.474396</ele><time>2022-03-04T11:32:19Z</time><extensions><speed>0.311507</speed><course>80.762993</course><hAcc>1.672689</hAcc><vAcc>0.826921</vAcc></extensions></trkpt>
      <trkpt lon="-2.221771" lat="53.110947"><ele>244.541763</ele><time>2022-03-04T11:32:20Z</time><extensions><speed>0.154632</speed><course>48.750080</course><hAcc>1.697378</hAcc><vAcc>0.826892</vAcc></extensions></trkpt>
      <trkpt lon="-2.221770" lat="53.110948"><ele>244.613571</ele><time>2022-03-04T11:32:21Z</time><extensions><speed>0.140319</speed><course>24.115105</course><hAcc>1.709589</hAcc><vAcc>0.826886</vAcc></extensions></trkpt>
      <trkpt lon="-2.221769" lat="53.110949"><ele>244.664398</ele><time>2022-03-04T11:32:22Z</time><extensions><speed>0.137709</speed><course>22.318375</course><hAcc>1.721624</hAcc><vAcc>0.826874</vAcc></extensions></trkpt>
      <trkpt lon="-2.221768" lat="53.110950"><ele>244.718048</ele><time>2022-03-04T11:32:23Z</time><extensions><speed>0.135999</speed><course>36.143791</course><hAcc>1.734056</hAcc><vAcc>0.826896</vAcc></extensions></trkpt>
      <trkpt lon="-2.221766" lat="53.110951"><ele>244.767944</ele><time>2022-03-04T11:32:24Z</time><extensions><speed>0.172668</speed><course>59.144859</course><hAcc>1.739425</hAcc><vAcc>0.826933</vAcc></extensions></trkpt>
      <trkpt lon="-2.221763" lat="53.110952"><ele>244.807190</ele><time>2022-03-04T11:32:25Z</time><extensions><speed>0.287264</speed><course>74.104836</course><hAcc>1.733956</hAcc><vAcc>0.826972</vAcc></extensions></trkpt>
      <trkpt lon="-2.221757" lat="53.110953"><ele>244.860962</ele><time>2022-03-04T11:32:26Z</time><extensions><speed>0.511469</speed><course>78.504478</course><hAcc>1.719450</hAcc><vAcc>0.827043</vAcc></extensions></trkpt>
      <trkpt lon="-2.221749" lat="53.110954"><ele>244.908478</ele><time>2022-03-04T11:32:27Z</time><extensions><speed>0.627070</speed><course>73.748161</course><hAcc>1.729778</hAcc><vAcc>0.827098</vAcc></extensions></trkpt>
      <trkpt lon="-2.221739" lat="53.110957"><ele>244.957840</ele><time>2022-03-04T11:32:28Z</time><extensions><speed>0.786708</speed><course>59.158882</course><hAcc>1.729353</hAcc><vAcc>0.827166</vAcc></extensions></trkpt>
      <trkpt lon="-2.221729" lat="53.110962"><ele>245.002518</ele><time>2022-03-04T11:32:29Z</time><extensions><speed>1.044731</speed><course>46.836201</course><hAcc>1.718371</hAcc><vAcc>0.827218</vAcc></extensions></trkpt>
      <trkpt lon="-2.221718" lat="53.110970"><ele>245.055420</ele><time>2022-03-04T11:32:30Z</time><extensions><speed>1.229826</speed><course>34.026970</course><hAcc>1.707158</hAcc><vAcc>0.827225</vAcc></extensions></trkpt>
      <trkpt lon="-2.221709" lat="53.110980"><ele>245.110153</ele><time>2022-03-04T11:32:31Z</time><extensions><speed>1.353384</speed><course>21.818342</course><hAcc>1.697279</hAcc><vAcc>0.827221</vAcc></extensions></trkpt>
      <trkpt lon="-2.221703" lat="53.110992"><ele>245.162689</ele><time>2022-03-04T11:32:32Z</time><extensions><speed>1.394007</speed><course>11.444510</course><hAcc>1.686960</hAcc><vAcc>0.827226</vAcc></extensions></trkpt>
      <trkpt lon="-2.221700" lat="53.111004"><ele>245.222885</ele><time>2022-03-04T11:32:33Z</time><extensions><speed>1.360507</speed><course>6.961958</course><hAcc>1.672218</hAcc><vAcc>0.827214</vAcc></extensions></trkpt>
      <trkpt lon="-2.221697" lat="53.111016"><ele>245.285812</ele><time>2022-03-04T11:32:34Z</time><extensions><speed>1.378072</speed><course>8.039865</course><hAcc>1.659939</hAcc><vAcc>0.827214</vAcc></extensions></trkpt>
      <trkpt lon="-2.221694" lat="53.111028"><ele>245.338989</ele><time>2022-03-04T11:32:35Z</time><extensions><speed>1.340756</speed><course>10.953207</course><hAcc>1.647253</hAcc><vAcc>0.827224</vAcc></extensions></trkpt>
      <trkpt lon="-2.221689" lat="53.111040"><ele>245.381973</ele><time>2022-03-04T11:32:36Z</time><extensions><speed>1.336232</speed><course>13.943795</course><hAcc>1.640429</hAcc><vAcc>0.827216</vAcc></extensions></trkpt>
      <trkpt lon="-2.221684" lat="53.111052"><ele>245.429138</ele><time>2022-03-04T11:32:37Z</time><extensions><speed>1.382138</speed><course>16.226406</course><hAcc>1.625073</hAcc><vAcc>0.827229</vAcc></extensions></trkpt>
      <trkpt lon="-2.221678" lat="53.111064"><ele>245.466858</ele><time>2022-03-04T11:32:38Z</time><extensions><speed>1.398980</speed><course>18.070997</course><hAcc>1.613998</hAcc><vAcc>0.827258</vAcc></extensions></trkpt>
      <trkpt lon="-2.221671" lat="53.111076"><ele>245.517960</ele><time>2022-03-04T11:32:39Z</time><extensions><speed>1.428992</speed><course>18.556843</course><hAcc>1.573543</hAcc><vAcc>0.827298</vAcc></extensions></trkpt>
      <trkpt lon="-2.221664" lat="53.111088"><ele>245.560806</ele><time>2022-03-04T11:32:40Z</time><extensions><speed>1.471298</speed><course>18.631010</course><hAcc>1.542642</hAcc><vAcc>0.827384</vAcc></extensions></trkpt>
      <trkpt lon="-2.221657" lat="53.111101"><ele>245.593033</ele><time>2022-03-04T11:32:41Z</time><extensions><speed>1.523538</speed><course>17.545488</course><hAcc>1.553553</hAcc><vAcc>0.827498</vAcc></extensions></trkpt>
      <trkpt lon="-2.221651" lat="53.111114"><ele>245.623810</ele><time>2022-03-04T11:32:42Z</time><extensions><speed>1.440147</speed><course>15.312313</course><hAcc>1.575317</hAcc><vAcc>0.827628</vAcc></extensions></trkpt>
      <trkpt lon="-2.221646" lat="53.111125"><ele>245.653793</ele><time>2022-03-04T11:32:43Z</time><extensions><speed>1.256052</speed><course>15.454147</course><hAcc>1.530982</hAcc><vAcc>0.827760</vAcc></extensions></trkpt>
      <trkpt lon="-2.221641" lat="53.111136"><ele>245.685898</ele><time>2022-03-04T11:32:44Z</time><extensions><speed>1.176726</speed><course>14.796795</course><hAcc>1.542521</hAcc><vAcc>0.827869</vAcc></extensions></trkpt>
      <trkpt lon="-2.221637" lat="53.111146"><ele>245.711563</ele><time>2022-03-04T11:32:45Z</time><extensions><speed>1.114199</speed><course>13.166389</course><hAcc>1.556935</hAcc><vAcc>0.828003</vAcc></extensions></trkpt>
      <trkpt lon="-2.221632" lat="53.111156"><ele>245.726181</ele><time>2022-03-04T11:32:46Z</time><extensions><speed>1.263070</speed><course>13.292761</course><hAcc>1.520424</hAcc><vAcc>0.828140</vAcc></extensions></trkpt>
      <trkpt lon="-2.221628" lat="53.111168"><ele>245.743073</ele><time>2022-03-04T11:32:47Z</time><extensions><speed>1.408412</speed><course>13.767631</course><hAcc>1.509354</hAcc><vAcc>0.828279</vAcc></extensions></trkpt>
      <trkpt lon="-2.221623" lat="53.111181"><ele>245.767792</ele><time>2022-03-04T11:32:48Z</time><extensions><speed>1.460047</speed><course>13.532297</course><hAcc>1.506005</hAcc><vAcc>0.828413</vAcc></extensions></trkpt>
      <trkpt lon="-2.221617" lat="53.111193"><ele>245.798737</ele><time>2022-03-04T11:32:50Z</time><extensions><speed>1.479632</speed><course>14.644506</course><hAcc>1.505252</hAcc><vAcc>0.828530</vAcc></extensions></trkpt>
      <trkpt lon="-2.221612" lat="53.111206"><ele>245.837753</ele><time>2022-03-04T11:32:51Z</time><extensions><speed>1.428481</speed><course>15.094451</course><hAcc>1.530470</hAcc><vAcc>0.828609</vAcc></extensions></trkpt>
      <trkpt lon="-2.221606" lat="53.111218"><ele>245.864059</ele><time>2022-03-04T11:32:52Z</time><extensions><speed>1.279073</speed><course>16.656925</course><hAcc>1.486682</hAcc><vAcc>0.828673</vAcc></extensions></trkpt>
      <trkpt lon="-2.221601" lat="53.111228"><ele>245.888123</ele><time>2022-03-04T11:32:53Z</time><extensions><speed>1.163266</speed><course>13.933712</course><hAcc>1.487739</hAcc><vAcc>0.828685</vAcc></extensions></trkpt>
      <trkpt lon="-2.221596" lat="53.111239"><ele>245.916367</ele><time>2022-03-04T11:32:54Z</time><extensions><speed>1.207523</speed><course>18.166145</course><hAcc>1.478951</hAcc><vAcc>0.828683</vAcc></extensions></trkpt>
      <trkpt lon="-2.221590" lat="53.111250"><ele>245.961105</ele><time>2022-03-04T11:32:55Z</time><extensions><speed>1.415422</speed><course>19.808628</course><hAcc>1.447916</hAcc><vAcc>0.828664</vAcc></extensions></trkpt>
      <trkpt lon="-2.221583" lat="53.111262"><ele>246.004410</ele><time>2022-03-04T11:32:56Z</time><extensions><speed>1.442700</speed><course>17.792974</course><hAcc>1.483234</hAcc><vAcc>0.828629</vAcc></extensions></trkpt>
      <trkpt lon="-2.221577" lat="53.111274"><ele>246.047241</ele><time>2022-03-04T11:32:57Z</time><extensions><speed>1.393357</speed><course>15.519137</course><hAcc>1.455579</hAcc><vAcc>0.828544</vAcc></extensions></trkpt>
      <trkpt lon="-2.221572" lat="53.111286"><ele>246.095978</ele><time>2022-03-04T11:32:58Z</time><extensions><speed>1.288486</speed><course>14.034263</course><hAcc>1.462223</hAcc><vAcc>0.828463</vAcc></extensions></trkpt>
      <trkpt lon="-2.221567" lat="53.111297"><ele>246.146484</ele><time>2022-03-04T11:32:59Z</time><extensions><speed>1.299163</speed><course>16.133804</course><hAcc>1.480781</hAcc><vAcc>0.828341</vAcc></extensions></trkpt>
      <trkpt lon="-2.221561" lat="53.111308"><ele>246.213455</ele><time>2022-03-04T11:33:00Z</time><extensions><speed>1.338740</speed><course>17.836855</course><hAcc>1.470644</hAcc><vAcc>0.828223</vAcc></extensions></trkpt>
      <trkpt lon="-2.221555" lat="53.111320"><ele>246.268051</ele><time>2022-03-04T11:33:01Z</time><extensions><speed>1.329085</speed><course>19.406359</course><hAcc>1.503580</hAcc><vAcc>0.828105</vAcc></extensions></trkpt>
      <trkpt lon="-2.221548" lat="53.111331"><ele>246.318665</ele><time>2022-03-04T11:33:02Z</time><extensions><speed>1.290946</speed><course>19.118225</course><hAcc>1.523617</hAcc><vAcc>0.827967</vAcc></extensions></trkpt>
      <trkpt lon="-2.221542" lat="53.111342"><ele>246.384811</ele><time>2022-03-04T11:33:03Z</time><extensions><speed>1.268184</speed><course>18.157621</course><hAcc>1.485552</hAcc><vAcc>0.827836</vAcc></extensions></trkpt>
      <trkpt lon="-2.221536" lat="53.111353"><ele>246.442993</ele><time>2022-03-04T11:33:04Z</time><extensions><speed>1.237028</speed><course>17.656307</course><hAcc>1.486323</hAcc><vAcc>0.827723</vAcc></extensions></trkpt>
      <trkpt lon="-2.221531" lat="53.111363"><ele>246.517319</ele><time>2022-03-04T11:33:05Z</time><extensions><speed>1.229868</speed><course>17.709837</course><hAcc>1.515240</hAcc><vAcc>0.827633</vAcc></extensions></trkpt>
      <trkpt lon="-2.221525" lat="53.111374"><ele>246.593201</ele><time>2022-03-04T11:33:06Z</time><extensions><speed>1.277878</speed><course>18.302559</course><hAcc>1.551492</hAcc><vAcc>0.827558</vAcc></extensions></trkpt>
      <trkpt lon="-2.221519" lat="53.111385"><ele>246.668655</ele><time>2022-03-04T11:33:07Z</time><extensions><speed>1.297117</speed><course>18.892071</course><hAcc>1.525575</hAcc><vAcc>0.827475</vAcc></extensions></trkpt>
      <trkpt lon="-2.221512" lat="53.111396"><ele>246.760559</ele><time>2022-03-04T11:33:08Z</time><extensions><speed>1.300722</speed><course>19.559185</course><hAcc>1.550485</hAcc><vAcc>0.827398</vAcc></extensions></trkpt>
      <trkpt lon="-2.221506" lat="53.111407"><ele>246.867798</ele><time>2022-03-04T11:33:09Z</time><extensions><speed>1.297933</speed><course>17.874918</course><hAcc>1.526017</hAcc><vAcc>0.827327</vAcc></extensions></trkpt>
      <trkpt lon="-2.221500" lat="53.111418"><ele>246.971176</ele><time>2022-03-04T11:33:10Z</time><extensions><speed>1.301637</speed><course>17.654310</course><hAcc>1.548208</hAcc><vAcc>0.827310</vAcc></extensions></trkpt>
      <trkpt lon="-2.221494" lat="53.111429"><ele>247.073151</ele><time>2022-03-04T11:33:11Z</time><extensions><speed>1.279281</speed><course>16.569660</course><hAcc>1.562785</hAcc><vAcc>0.827319</vAcc></extensions></trkpt>
      <trkpt lon="-2.221489" lat="53.111440"><ele>247.181213</ele><time>2022-03-04T11:33:12Z</time><extensions><speed>1.272231</speed><course>16.881002</course><hAcc>1.539161</hAcc><vAcc>0.827337</vAcc></extensions></trkpt>
      <trkpt lon="-2.221483" lat="53.111452"><ele>247.294815</ele><time>2022-03-04T11:33:13Z</time><extensions><speed>1.328541</speed><course>17.323212</course><hAcc>1.536577</hAcc><vAcc>0.827377</vAcc></extensions></trkpt>
      <trkpt lon="-2.221478" lat="53.111463"><ele>247.397018</ele><time>2022-03-04T11:33:14Z</time><extensions><speed>1.325887</speed><course>16.420116</course><hAcc>1.549220</hAcc><vAcc>0.827425</vAcc></extensions></trkpt>
      <trkpt lon="-2.221472" lat="53.111475"><ele>247.484390</ele><time>2022-03-04T11:33:15Z</time><extensions><speed>1.302752</speed><course>15.938091</course><hAcc>1.569701</hAcc><vAcc>0.827470</vAcc></extensions></trkpt>
      <trkpt lon="-2.221466" lat="53.111486"><ele>247.585236</ele><time>2022-03-04T11:33:16Z</time><extensions><speed>1.279292</speed><course>18.744467</course><hAcc>1.580662</hAcc><vAcc>0.827526</vAcc></extensions></trkpt>
      <trkpt lon="-2.221460" lat="53.111497"><ele>247.666275</ele><time>2022-03-04T11:33:17Z</time><extensions><speed>1.282746</speed><course>18.238180</course><hAcc>1.520526</hAcc><vAcc>0.827608</vAcc></extensions></trkpt>
      <trkpt lon="-2.221455" lat="53.111508"><ele>247.741928</ele><time>2022-03-04T11:33:18Z</time><extensions><speed>1.294225</speed><course>15.884005</course><hAcc>1.474701</hAcc><vAcc>0.827690</vAcc></extensions></trkpt>
      <trkpt lon="-2.221450" lat="53.111519"><ele>247.813477</ele><time>2022-03-04T11:33:19Z</time><extensions><speed>1.274617</speed><course>14.012472</course><hAcc>1.466972</hAcc><vAcc>0.827764</vAcc></extensions></trkpt>
      <trkpt lon="-2.221445" lat="53.111530"><ele>247.863846</ele><time>2022-03-04T11:33:20Z</time><extensions><speed>1.183264</speed><course>13.885938</course><hAcc>1.504184</hAcc><vAcc>0.827841</vAcc></extensions></trkpt>
      <trkpt lon="-2.221441" lat="53.111541"><ele>247.913559</ele><time>2022-03-04T11:33:21Z</time><extensions><speed>1.254117</speed><course>13.339280</course><hAcc>1.477459</hAcc><vAcc>0.827900</vAcc></extensions></trkpt>
      <trkpt lon="-2.221437" lat="53.111552"><ele>247.963837</ele><time>2022-03-04T11:33:22Z</time><extensions><speed>1.223002</speed><course>13.027289</course><hAcc>1.483166</hAcc><vAcc>0.827958</vAcc></extensions></trkpt>
      <trkpt lon="-2.221432" lat="53.111563"><ele>247.997833</ele><time>2022-03-04T11:33:23Z</time><extensions><speed>1.357132</speed><course>12.035740</course><hAcc>1.481091</hAcc><vAcc>0.827960</vAcc></extensions></trkpt>
      <trkpt lon="-2.221428" lat="53.111575"><ele>248.034332</ele><time>2022-03-04T11:33:24Z</time><extensions><speed>1.438526</speed><course>9.891319</course><hAcc>1.447997</hAcc><vAcc>0.827953</vAcc></extensions></trkpt>
      <trkpt lon="-2.221425" lat="53.111588"><ele>248.064499</ele><time>2022-03-04T11:33:25Z</time><extensions><speed>1.416220</speed><course>9.765005</course><hAcc>1.433680</hAcc><vAcc>0.827919</vAcc></extensions></trkpt>
      <trkpt lon="-2.221421" lat="53.111600"><ele>248.085129</ele><time>2022-03-04T11:33:26Z</time><extensions><speed>1.299468</speed><course>12.088514</course><hAcc>1.456724</hAcc><vAcc>0.827862</vAcc></extensions></trkpt>
      <trkpt lon="-2.221417" lat="53.111610"><ele>248.094376</ele><time>2022-03-04T11:33:27Z</time><extensions><speed>1.064722</speed><course>15.429103</course><hAcc>1.506549</hAcc><vAcc>0.827799</vAcc></extensions></trkpt>
      <trkpt lon="-2.221412" lat="53.111619"><ele>248.090347</ele><time>2022-03-04T11:33:28Z</time><extensions><speed>0.956317</speed><course>17.614426</course><hAcc>1.549884</hAcc><vAcc>0.827724</vAcc></extensions></trkpt>
      <trkpt lon="-2.221408" lat="53.111628"><ele>248.092728</ele><time>2022-03-04T11:33:29Z</time><extensions><speed>1.218782</speed><course>15.373191</course><hAcc>1.489851</hAcc><vAcc>0.827619</vAcc></extensions></trkpt>
      <trkpt lon="-2.221403" lat="53.111640"><ele>248.089905</ele><time>2022-03-04T11:33:30Z</time><extensions><speed>1.384353</speed><course>13.391562</course><hAcc>1.482761</hAcc><vAcc>0.827524</vAcc></extensions></trkpt>
      <trkpt lon="-2.221398" lat="53.111652"><ele>248.092712</ele><time>2022-03-04T11:33:31Z</time><extensions><speed>1.446632</speed><course>14.261970</course><hAcc>1.522611</hAcc><vAcc>0.827418</vAcc></extensions></trkpt>
      <trkpt lon="-2.221392" lat="53.111665"><ele>248.086868</ele><time>2022-03-04T11:33:32Z</time><extensions><speed>1.433528</speed><course>16.222845</course><hAcc>1.582701</hAcc><vAcc>0.827351</vAcc></extensions></trkpt>
      <trkpt lon="-2.221386" lat="53.111677"><ele>248.061142</ele><time>2022-03-04T11:33:33Z</time><extensions><speed>1.474716</speed><course>16.160820</course><hAcc>1.543403</hAcc><vAcc>0.827268</vAcc></extensions></trkpt>
      <trkpt lon="-2.221380" lat="53.111690"><ele>248.035965</ele><time>2022-03-04T11:33:34Z</time><extensions><speed>1.430437</speed><course>16.477995</course><hAcc>1.533578</hAcc><vAcc>0.827213</vAcc></extensions></trkpt>
      <trkpt lon="-2.221374" lat="53.111702"><ele>248.028778</ele><time>2022-03-04T11:33:35Z</time><extensions><speed>1.346626</speed><course>16.040298</course><hAcc>1.542820</hAcc><vAcc>0.827187</vAcc></extensions></trkpt>
      <trkpt lon="-2.221369" lat="53.111713"><ele>248.013596</ele><time>2022-03-04T11:33:36Z</time><extensions><speed>1.246931</speed><course>15.687821</course><hAcc>1.567797</hAcc><vAcc>0.827171</vAcc></extensions></trkpt>
      <trkpt lon="-2.221364" lat="53.111724"><ele>247.993759</ele><time>2022-03-04T11:33:37Z</time><extensions><speed>1.194583</speed><course>16.053255</course><hAcc>1.599693</hAcc><vAcc>0.827167</vAcc></extensions></trkpt>
      <trkpt lon="-2.221359" lat="53.111734"><ele>247.982071</ele><time>2022-03-04T11:33:38Z</time><extensions><speed>1.250281</speed><course>17.653862</course><hAcc>1.574552</hAcc><vAcc>0.827142</vAcc></extensions></trkpt>
      <trkpt lon="-2.221353" lat="53.111745"><ele>247.960846</ele><time>2022-03-04T11:33:39Z</time><extensions><speed>1.308673</speed><course>17.592941</course><hAcc>1.551734</hAcc><vAcc>0.827127</vAcc></extensions></trkpt>
      <trkpt lon="-2.221347" lat="53.111756"><ele>247.944000</ele><time>2022-03-04T11:33:40Z</time><extensions><speed>1.283227</speed><course>16.255001</course><hAcc>1.560379</hAcc><vAcc>0.827135</vAcc></extensions></trkpt>
      <trkpt lon="-2.221343" lat="53.111767"><ele>247.932556</ele><time>2022-03-04T11:33:41Z</time><extensions><speed>1.176877</speed><course>13.907740</course><hAcc>1.582348</hAcc><vAcc>0.827131</vAcc></extensions></trkpt>
      <trkpt lon="-2.221339" lat="53.111777"><ele>247.932968</ele><time>2022-03-04T11:33:41Z</time><extensions><speed>1.070800</speed><course>13.540555</course><hAcc>1.616722</hAcc><vAcc>0.827158</vAcc></extensions></trkpt>
      <trkpt lon="-2.221335" lat="53.111786"><ele>247.936661</ele><time>2022-03-04T11:33:42Z</time><extensions><speed>1.009941</speed><course>16.623938</course><hAcc>1.579870</hAcc><vAcc>0.827202</vAcc></extensions></trkpt>
      <trkpt lon="-2.221330" lat="53.111795"><ele>247.950638</ele><time>2022-03-04T11:33:43Z</time><extensions><speed>1.105058</speed><course>18.588604</course><hAcc>1.566030</hAcc><vAcc>0.827216</vAcc></extensions></trkpt>
      <trkpt lon="-2.221324" lat="53.111805"><ele>247.943054</ele><time>2022-03-04T11:33:44Z</time><extensions><speed>1.258051</speed><course>17.054024</course><hAcc>1.584785</hAcc><vAcc>0.827269</vAcc></extensions></trkpt>
      <trkpt lon="-2.221319" lat="53.111816"><ele>247.963379</ele><time>2022-03-04T11:33:45Z</time><extensions><speed>1.292541</speed><course>15.919032</course><hAcc>1.615666</hAcc><vAcc>0.827321</vAcc></extensions></trkpt>
      <trkpt lon="-2.221313" lat="53.111827"><ele>247.998627</ele><time>2022-03-04T11:33:46Z</time><extensions><speed>1.310064</speed><course>16.204166</course><hAcc>1.611882</hAcc><vAcc>0.827376</vAcc></extensions></trkpt>
      <trkpt lon="-2.221308" lat="53.111839"><ele>248.036896</ele><time>2022-03-04T11:33:47Z</time><extensions><speed>1.326315</speed><course>16.202991</course><hAcc>1.583114</hAcc><vAcc>0.827397</vAcc></extensions></trkpt>
      <trkpt lon="-2.221302" lat="53.111850"><ele>248.077499</ele><time>2022-03-04T11:33:48Z</time><extensions><speed>1.332418</speed><course>16.718607</course><hAcc>1.569541</hAcc><vAcc>0.827424</vAcc></extensions></trkpt>
      <trkpt lon="-2.221296" lat="53.111862"><ele>248.139389</ele><time>2022-03-04T11:33:49Z</time><extensions><speed>1.323070</speed><course>17.231779</course><hAcc>1.558813</hAcc><vAcc>0.827472</vAcc></extensions></trkpt>
      <trkpt lon="-2.221290" lat="53.111873"><ele>248.200912</ele><time>2022-03-04T11:33:50Z</time><extensions><speed>1.328513</speed><course>16.044460</course><hAcc>1.546669</hAcc><vAcc>0.827481</vAcc></extensions></trkpt>
      <trkpt lon="-2.221285" lat="53.111884"><ele>248.276367</ele><time>2022-03-04T11:33:51Z</time><extensions><speed>1.316295</speed><course>14.868253</course><hAcc>1.567716</hAcc><vAcc>0.827491</vAcc></extensions></trkpt>
      <trkpt lon="-2.221280" lat="53.111895"><ele>248.358795</ele><time>2022-03-04T11:33:52Z</time><extensions><speed>1.213278</speed><course>13.851892</course><hAcc>1.594476</hAcc><vAcc>0.827506</vAcc></extensions></trkpt>
      <trkpt lon="-2.221276" lat="53.111906"><ele>248.460052</ele><time>2022-03-04T11:33:53Z</time><extensions><speed>1.184966</speed><course>15.428400</course><hAcc>1.547695</hAcc><vAcc>0.827505</vAcc></extensions></trkpt>
      <trkpt lon="-2.221271" lat="53.111915"><ele>248.557999</ele><time>2022-03-04T11:33:54Z</time><extensions><speed>1.054356</speed><course>17.023697</course><hAcc>1.558319</hAcc><vAcc>0.827492</vAcc></extensions></trkpt>
      <trkpt lon="-2.221266" lat="53.111924"><ele>248.663330</ele><time>2022-03-04T11:33:55Z</time><extensions><speed>1.002922</speed><course>22.344629</course><hAcc>1.566247</hAcc><vAcc>0.827460</vAcc></extensions></trkpt>
      <trkpt lon="-2.221259" lat="53.111932"><ele>248.786118</ele><time>2022-03-04T11:33:56Z</time><extensions><speed>0.986323</speed><course>27.093166</course><hAcc>1.590255</hAcc><vAcc>0.827413</vAcc></extensions></trkpt>
      <trkpt lon="-2.221252" lat="53.111940"><ele>248.909332</ele><time>2022-03-04T11:33:57Z</time><extensions><speed>1.040907</speed><course>34.170353</course><hAcc>1.592634</hAcc><vAcc>0.827373</vAcc></extensions></trkpt>
      <trkpt lon="-2.221243" lat="53.111947"><ele>249.043930</ele><time>2022-03-04T11:33:58Z</time><extensions><speed>0.950906</speed><course>39.748440</course><hAcc>1.617708</hAcc><vAcc>0.827339</vAcc></extensions></trkpt>
      <trkpt lon="-2.221233" lat="53.111953"><ele>249.198395</ele><time>2022-03-04T11:33:59Z</time><extensions><speed>0.836893</speed><course>48.960571</course><hAcc>1.649938</hAcc><vAcc>0.827312</vAcc></extensions></trkpt>
      <trkpt lon="-2.221223" lat="53.111957"><ele>249.346695</ele><time>2022-03-04T11:34:00Z</time><extensions><speed>0.785818</speed><course>65.664490</course><hAcc>1.668036</hAcc><vAcc>0.827304</vAcc></extensions></trkpt>
      <trkpt lon="-2.221213" lat="53.111958"><ele>249.500854</ele><time>2022-03-04T11:34:01Z</time><extensions><speed>0.723266</speed><course>87.460579</course><hAcc>1.678978</hAcc><vAcc>0.827311</vAcc></extensions></trkpt>
      <trkpt lon="-2.221202" lat="53.111957"><ele>249.655334</ele><time>2022-03-04T11:34:02Z</time><extensions><speed>0.783963</speed><course>109.425247</course><hAcc>1.683366</hAcc><vAcc>0.827349</vAcc></extensions></trkpt>
      <trkpt lon="-2.221190" lat="53.111954"><ele>249.820221</ele><time>2022-03-04T11:34:03Z</time><extensions><speed>0.960497</speed><course>121.103165</course><hAcc>1.694443</hAcc><vAcc>0.827406</vAcc></extensions></trkpt>
      <trkpt lon="-2.221177" lat="53.111949"><ele>249.984024</ele><time>2022-03-04T11:34:04Z</time><extensions><speed>1.052160</speed><course>126.562584</course><hAcc>1.712360</hAcc><vAcc>0.827497</vAcc></extensions></trkpt>
      <trkpt lon="-2.221164" lat="53.111943"><ele>250.138626</ele><time>2022-03-04T11:34:05Z</time><extensions><speed>1.129467</speed><course>125.910919</course><hAcc>1.709879</hAcc><vAcc>0.827597</vAcc></extensions></trkpt>
      <trkpt lon="-2.221151" lat="53.111937"><ele>250.298050</ele><time>2022-03-04T11:34:06Z</time><extensions><speed>1.075430</speed><course>123.013771</course><hAcc>1.704350</hAcc><vAcc>0.827718</vAcc></extensions></trkpt>
      <trkpt lon="-2.221137" lat="53.111932"><ele>250.451981</ele><time>2022-03-04T11:34:07Z</time><extensions><speed>1.034505</speed><course>118.204437</course><hAcc>1.702266</hAcc><vAcc>0.827855</vAcc></extensions></trkpt>
      <trkpt lon="-2.221123" lat="53.111928"><ele>250.610306</ele><time>2022-03-04T11:34:08Z</time><extensions><speed>1.070223</speed><course>115.479492</course><hAcc>1.694776</hAcc><vAcc>0.827983</vAcc></extensions></trkpt>
      <trkpt lon="-2.221108" lat="53.111924"><ele>250.774109</ele><time>2022-03-04T11:34:09Z</time><extensions><speed>1.138124</speed><course>114.047012</course><hAcc>1.689332</hAcc><vAcc>0.828101</vAcc></extensions></trkpt>
      <trkpt lon="-2.221092" lat="53.111920"><ele>250.943741</ele><time>2022-03-04T11:34:10Z</time><extensions><speed>1.142936</speed><course>110.986732</course><hAcc>1.682654</hAcc><vAcc>0.828207</vAcc></extensions></trkpt>
      <trkpt lon="-2.221077" lat="53.111917"><ele>251.116577</ele><time>2022-03-04T11:34:11Z</time><extensions><speed>1.107536</speed><course>108.546387</course><hAcc>1.693340</hAcc><vAcc>0.828296</vAcc></extensions></trkpt>
      <trkpt lon="-2.221061" lat="53.111914"><ele>251.277588</ele><time>2022-03-04T11:34:12Z</time><extensions><speed>1.091143</speed><course>106.562393</course><hAcc>1.721023</hAcc><vAcc>0.828373</vAcc></extensions></trkpt>
      <trkpt lon="-2.221045" lat="53.111911"><ele>251.436981</ele><time>2022-03-04T11:34:13Z</time><extensions><speed>1.100118</speed><course>105.071098</course><hAcc>1.692819</hAcc><vAcc>0.828431</vAcc></extensions></trkpt>
      <trkpt lon="-2.221029" lat="53.111909"><ele>251.601959</ele><time>2022-03-04T11:34:14Z</time><extensions><speed>1.065263</speed><course>104.113052</course><hAcc>1.675445</hAcc><vAcc>0.828480</vAcc></extensions></trkpt>
      <trkpt lon="-2.221014" lat="53.111906"><ele>251.771500</ele><time>2022-03-04T11:34:15Z</time><extensions><speed>0.995326</speed><course>103.194191</course><hAcc>1.676403</hAcc><vAcc>0.828507</vAcc></extensions></trkpt>
      <trkpt lon="-2.221000" lat="53.111904"><ele>251.939774</ele><time>2022-03-04T11:34:16Z</time><extensions><speed>1.067740</speed><course>104.449158</course><hAcc>1.679189</hAcc><vAcc>0.828520</vAcc></extensions></trkpt>
      <trkpt lon="-2.220984" lat="53.111902"><ele>252.116302</ele><time>2022-03-04T11:34:17Z</time><extensions><speed>1.110853</speed><course>104.295868</course><hAcc>1.675952</hAcc><vAcc>0.828524</vAcc></extensions></trkpt>
      <trkpt lon="-2.220967" lat="53.111899"><ele>252.293945</ele><time>2022-03-04T11:34:18Z</time><extensions><speed>1.170745</speed><course>104.466782</course><hAcc>1.669032</hAcc><vAcc>0.828510</vAcc></extensions></trkpt>
      <trkpt lon="-2.220950" lat="53.111896"><ele>252.460556</ele><time>2022-03-04T11:34:19Z</time><extensions><speed>1.252216</speed><course>104.405533</course><hAcc>1.684980</hAcc><vAcc>0.828505</vAcc></extensions></trkpt>
      <trkpt lon="-2.220932" lat="53.111894"><ele>252.634537</ele><time>2022-03-04T11:34:20Z</time><extensions><speed>1.138530</speed><course>101.419807</course><hAcc>1.669085</hAcc><vAcc>0.828500</vAcc></extensions></trkpt>
      <trkpt lon="-2.220916" lat="53.111892"><ele>252.810410</ele><time>2022-03-04T11:34:21Z</time><extensions><speed>1.040899</speed><course>97.179955</course><hAcc>1.661776</hAcc><vAcc>0.828508</vAcc></extensions></trkpt>
      <trkpt lon="-2.220901" lat="53.111892"><ele>252.991760</ele><time>2022-03-04T11:34:22Z</time><extensions><speed>0.972239</speed><course>91.345970</course><hAcc>1.685266</hAcc><vAcc>0.828525</vAcc></extensions></trkpt>
      <trkpt lon="-2.220887" lat="53.111892"><ele>253.176956</ele><time>2022-03-04T11:34:23Z</time><extensions><speed>0.950973</speed><course>90.553925</course><hAcc>1.684866</hAcc><vAcc>0.828555</vAcc></extensions></trkpt>
      <trkpt lon="-2.220873" lat="53.111891"><ele>253.360184</ele><time>2022-03-04T11:34:24Z</time><extensions><speed>0.977837</speed><course>92.856155</course><hAcc>1.682059</hAcc><vAcc>0.828588</vAcc></extensions></trkpt>
      <trkpt lon="-2.220858" lat="53.111891"><ele>253.556778</ele><time>2022-03-04T11:34:25Z</time><extensions><speed>0.997747</speed><course>94.449364</course><hAcc>1.691093</hAcc><vAcc>0.828628</vAcc></extensions></trkpt>
      <trkpt lon="-2.220843" lat="53.111890"><ele>253.766785</ele><time>2022-03-04T11:34:26Z</time><extensions><speed>0.918373</speed><course>93.307610</course><hAcc>1.704549</hAcc><vAcc>0.828672</vAcc></extensions></trkpt>
      <trkpt lon="-2.220830" lat="53.111890"><ele>253.968491</ele><time>2022-03-04T11:34:27Z</time><extensions><speed>0.848217</speed><course>91.993324</course><hAcc>1.718593</hAcc><vAcc>0.828728</vAcc></extensions></trkpt>
      <trkpt lon="-2.220818" lat="53.111890"><ele>254.177063</ele><time>2022-03-04T11:34:28Z</time><extensions><speed>0.799141</speed><course>89.895142</course><hAcc>1.726107</hAcc><vAcc>0.828765</vAcc></extensions></trkpt>
      <trkpt lon="-2.220806" lat="53.111890"><ele>254.413376</ele><time>2022-03-04T11:34:29Z</time><extensions><speed>0.736190</speed><course>89.095131</course><hAcc>1.726228</hAcc><vAcc>0.828798</vAcc></extensions></trkpt>
      <trkpt lon="-2.220795" lat="53.111889"><ele>254.656952</ele><time>2022-03-04T11:34:30Z</time><extensions><speed>0.781407</speed><course>93.374832</course><hAcc>1.718783</hAcc><vAcc>0.828802</vAcc></extensions></trkpt>
      <trkpt lon="-2.220782" lat="53.111889"><ele>254.911514</ele><time>2022-03-04T11:34:31Z</time><extensions><speed>0.917919</speed><course>93.921829</course><hAcc>1.718352</hAcc><vAcc>0.828791</vAcc></extensions></trkpt>
      <trkpt lon="-2.220768" lat="53.111889"><ele>255.169861</ele><time>2022-03-04T11:34:32Z</time><extensions><speed>0.983943</speed><course>92.575119</course><hAcc>1.718571</hAcc><vAcc>0.828770</vAcc></extensions></trkpt>
      <trkpt lon="-2.220753" lat="53.111888"><ele>255.432831</ele><time>2022-03-04T11:34:33Z</time><extensions><speed>1.053769</speed><course>91.822777</course><hAcc>1.716825</hAcc><vAcc>0.828729</vAcc></extensions></trkpt>
      <trkpt lon="-2.220737" lat="53.111888"><ele>255.683533</ele><time>2022-03-04T11:34:34Z</time><extensions><speed>1.053892</speed><course>91.763435</course><hAcc>1.714916</hAcc><vAcc>0.828664</vAcc></extensions></trkpt>
      <trkpt lon="-2.220722" lat="53.111888"><ele>255.942245</ele><time>2022-03-04T11:34:35Z</time><extensions><speed>0.966549</speed><course>92.288918</course><hAcc>1.712173</hAcc><vAcc>0.828584</vAcc></extensions></trkpt>
      <trkpt lon="-2.220708" lat="53.111887"><ele>256.203064</ele><time>2022-03-04T11:34:36Z</time><extensions><speed>0.943618</speed><course>94.230423</course><hAcc>1.701691</hAcc><vAcc>0.828502</vAcc></extensions></trkpt>
      <trkpt lon="-2.220693" lat="53.111886"><ele>256.467224</ele><time>2022-03-04T11:34:37Z</time><extensions><speed>1.051634</speed><course>95.800209</course><hAcc>1.682463</hAcc><vAcc>0.828411</vAcc></extensions></trkpt>
      <trkpt lon="-2.220677" lat="53.111885"><ele>256.719910</ele><time>2022-03-04T11:34:38Z</time><extensions><speed>1.114117</speed><course>98.899353</course><hAcc>1.675236</hAcc><vAcc>0.828307</vAcc></extensions></trkpt>
      <trkpt lon="-2.220660" lat="53.111883"><ele>256.961761</ele><time>2022-03-04T11:34:39Z</time><extensions><speed>1.241345</speed><course>102.615097</course><hAcc>1.691172</hAcc><vAcc>0.828207</vAcc></extensions></trkpt>
      <trkpt lon="-2.220643" lat="53.111881"><ele>257.203125</ele><time>2022-03-04T11:34:40Z</time><extensions><speed>1.149694</speed><course>104.157539</course><hAcc>1.722956</hAcc><vAcc>0.828110</vAcc></extensions></trkpt>
      <trkpt lon="-2.220627" lat="53.111879"><ele>257.435089</ele><time>2022-03-04T11:34:41Z</time><extensions><speed>0.950198</speed><course>97.341972</course><hAcc>1.693473</hAcc><vAcc>0.828022</vAcc></extensions></trkpt>
      <trkpt lon="-2.220614" lat="53.111878"><ele>257.672058</ele><time>2022-03-04T11:34:42Z</time><extensions><speed>0.824818</speed><course>87.789566</course><hAcc>1.681786</hAcc><vAcc>0.827949</vAcc></extensions></trkpt>
      <trkpt lon="-2.220603" lat="53.111879"><ele>257.893555</ele><time>2022-03-04T11:34:43Z</time><extensions><speed>0.734476</speed><course>80.139282</course><hAcc>1.694614</hAcc><vAcc>0.827886</vAcc></extensions></trkpt>
      <trkpt lon="-2.220592" lat="53.111881"><ele>258.107239</ele><time>2022-03-04T11:34:44Z</time><extensions><speed>0.653546</speed><course>74.270805</course><hAcc>1.707128</hAcc><vAcc>0.827827</vAcc></extensions></trkpt>
      <trkpt lon="-2.220583" lat="53.111882"><ele>258.312378</ele><time>2022-03-04T11:34:45Z</time><extensions><speed>0.651846</speed><course>74.690170</course><hAcc>1.714435</hAcc><vAcc>0.827774</vAcc></extensions></trkpt>
      <trkpt lon="-2.220573" lat="53.111884"><ele>258.503998</ele><time>2022-03-04T11:34:46Z</time><extensions><speed>0.660880</speed><course>77.350266</course><hAcc>1.718745</hAcc><vAcc>0.827747</vAcc></extensions></trkpt>
      <trkpt lon="-2.220564" lat="53.111885"><ele>258.681061</ele><time>2022-03-04T11:34:47Z</time><extensions><speed>0.600485</speed><course>78.226845</course><hAcc>1.723203</hAcc><vAcc>0.827723</vAcc></extensions></trkpt>
      <trkpt lon="-2.220556" lat="53.111886"><ele>258.868958</ele><time>2022-03-04T11:34:48Z</time><extensions><speed>0.566003</speed><course>80.126755</course><hAcc>1.724544</hAcc><vAcc>0.827698</vAcc></extensions></trkpt>
      <trkpt lon="-2.220547" lat="53.111887"><ele>259.053406</ele><time>2022-03-04T11:34:49Z</time><extensions><speed>0.611748</speed><course>79.927673</course><hAcc>1.724349</hAcc><vAcc>0.827674</vAcc></extensions></trkpt>
      <trkpt lon="-2.220537" lat="53.111888"><ele>259.237640</ele><time>2022-03-04T11:34:50Z</time><extensions><speed>0.674280</speed><course>81.570847</course><hAcc>1.723425</hAcc><vAcc>0.827663</vAcc></extensions></trkpt>
      <trkpt lon="-2.220527" lat="53.111889"><ele>259.408295</ele><time>2022-03-04T11:34:51Z</time><extensions><speed>0.688964</speed><course>80.902145</course><hAcc>1.723609</hAcc><vAcc>0.827654</vAcc></extensions></trkpt>
      <trkpt lon="-2.220517" lat="53.111890"><ele>259.590820</ele><time>2022-03-04T11:34:52Z</time><extensions><speed>0.707413</speed><course>80.423233</course><hAcc>1.725380</hAcc><vAcc>0.827663</vAcc></extensions></trkpt>
      <trkpt lon="-2.220506" lat="53.111891"><ele>259.764374</ele><time>2022-03-04T11:34:53Z</time><extensions><speed>0.735263</speed><course>79.370796</course><hAcc>1.724887</hAcc><vAcc>0.827676</vAcc></extensions></trkpt>
      <trkpt lon="-2.220496" lat="53.111892"><ele>259.941681</ele><time>2022-03-04T11:34:54Z</time><extensions><speed>0.754656</speed><course>77.138725</course><hAcc>1.724129</hAcc><vAcc>0.827700</vAcc></extensions></trkpt>
      <trkpt lon="-2.220484" lat="53.111894"><ele>260.117310</ele><time>2022-03-04T11:34:56Z</time><extensions><speed>0.803995</speed><course>77.427818</course><hAcc>1.721687</hAcc><vAcc>0.827727</vAcc></extensions></trkpt>
      <trkpt lon="-2.220472" lat="53.111896"><ele>260.287659</ele><time>2022-03-04T11:34:57Z</time><extensions><speed>0.831094</speed><course>75.737862</course><hAcc>1.718496</hAcc><vAcc>0.827734</vAcc></extensions></trkpt>
      <trkpt lon="-2.220460" lat="53.111898"><ele>260.457092</ele><time>2022-03-04T11:34:58Z</time><extensions><speed>0.855415</speed><course>73.716614</course><hAcc>1.720436</hAcc><vAcc>0.827747</vAcc></extensions></trkpt>
      <trkpt lon="-2.220448" lat="53.111900"><ele>260.621582</ele><time>2022-03-04T11:34:59Z</time><extensions><speed>0.872908</speed><course>73.198227</course><hAcc>1.724981</hAcc><vAcc>0.827769</vAcc></extensions></trkpt>
      <trkpt lon="-2.220435" lat="53.111902"><ele>260.795715</ele><time>2022-03-04T11:35:00Z</time><extensions><speed>0.855367</speed><course>72.857544</course><hAcc>1.725242</hAcc><vAcc>0.827806</vAcc></extensions></trkpt>
      <trkpt lon="-2.220423" lat="53.111904"><ele>260.941498</ele><time>2022-03-04T11:35:01Z</time><extensions><speed>0.856061</speed><course>74.395950</course><hAcc>1.722714</hAcc><vAcc>0.827838</vAcc></extensions></trkpt>
      <trkpt lon="-2.220411" lat="53.111906"><ele>261.088867</ele><time>2022-03-04T11:35:02Z</time><extensions><speed>0.868704</speed><course>75.924644</course><hAcc>1.722513</hAcc><vAcc>0.827879</vAcc></extensions></trkpt>
      <trkpt lon="-2.220398" lat="53.111908"><ele>261.237488</ele><time>2022-03-04T11:35:03Z</time><extensions><speed>0.858030</speed><course>76.809921</course><hAcc>1.724732</hAcc><vAcc>0.827915</vAcc></extensions></trkpt>
      <trkpt lon="-2.220385" lat="53.111910"><ele>261.392639</ele><time>2022-03-04T11:35:04Z</time><extensions><speed>0.871100</speed><course>75.109894</course><hAcc>1.725108</hAcc><vAcc>0.827942</vAcc></extensions></trkpt>
      <trkpt lon="-2.220373" lat="53.111912"><ele>261.541901</ele><time>2022-03-04T11:35:05Z</time><extensions><speed>0.854301</speed><course>72.425720</course><hAcc>1.725369</hAcc><vAcc>0.827973</vAcc></extensions></trkpt>
      <trkpt lon="-2.220361" lat="53.111915"><ele>261.695038</ele><time>2022-03-04T11:35:06Z</time><extensions><speed>0.841750</speed><course>69.855560</course><hAcc>1.725240</hAcc><vAcc>0.828001</vAcc></extensions></trkpt>
      <trkpt lon="-2.220350" lat="53.111917"><ele>261.842712</ele><time>2022-03-04T11:35:07Z</time><extensions><speed>0.819077</speed><course>68.631714</course><hAcc>1.725535</hAcc><vAcc>0.828022</vAcc></extensions></trkpt>
      <trkpt lon="-2.220338" lat="53.111920"><ele>261.989044</ele><time>2022-03-04T11:35:08Z</time><extensions><speed>0.808483</speed><course>69.708282</course><hAcc>1.723964</hAcc><vAcc>0.828033</vAcc></extensions></trkpt>
      <trkpt lon="-2.220326" lat="53.111922"><ele>262.142273</ele><time>2022-03-04T11:35:09Z</time><extensions><speed>0.859651</speed><course>72.166885</course><hAcc>1.723423</hAcc><vAcc>0.828039</vAcc></extensions></trkpt>
      <trkpt lon="-2.220314" lat="53.111924"><ele>262.284607</ele><time>2022-03-04T11:35:10Z</time><extensions><speed>0.860874</speed><course>74.728416</course><hAcc>1.724696</hAcc><vAcc>0.828036</vAcc></extensions></trkpt>
      <trkpt lon="-2.220302" lat="53.111926"><ele>262.428345</ele><time>2022-03-04T11:35:11Z</time><extensions><speed>0.834721</speed><course>78.398880</course><hAcc>1.725292</hAcc><vAcc>0.828018</vAcc></extensions></trkpt>
      <trkpt lon="-2.220290" lat="53.111928"><ele>262.569336</ele><time>2022-03-04T11:35:12Z</time><extensions><speed>0.804401</speed><course>81.306831</course><hAcc>1.718220</hAcc><vAcc>0.828006</vAcc></extensions></trkpt>
      <trkpt lon="-2.220278" lat="53.111929"><ele>262.699463</ele><time>2022-03-04T11:35:13Z</time><extensions><speed>0.758529</speed><course>81.051956</course><hAcc>1.716915</hAcc><vAcc>0.827989</vAcc></extensions></trkpt>
      <trkpt lon="-2.220267" lat="53.111930"><ele>262.836090</ele><time>2022-03-04T11:35:14Z</time><extensions><speed>0.770914</speed><course>82.138878</course><hAcc>1.718882</hAcc><vAcc>0.827971</vAcc></extensions></trkpt>
      <trkpt lon="-2.220256" lat="53.111930"><ele>262.972931</ele><time>2022-03-04T11:35:15Z</time><extensions><speed>0.717683</speed><course>83.106415</course><hAcc>1.717685</hAcc><vAcc>0.827949</vAcc></extensions></trkpt>
      <trkpt lon="-2.220246" lat="53.111931"><ele>263.097534</ele><time>2022-03-04T11:35:16Z</time><extensions><speed>0.636344</speed><course>82.386604</course><hAcc>1.721595</hAcc><vAcc>0.827926</vAcc></extensions></trkpt>
      <trkpt lon="-2.220236" lat="53.111932"><ele>263.219299</ele><time>2022-03-04T11:35:17Z</time><extensions><speed>0.683786</speed><course>82.632675</course><hAcc>1.719186</hAcc><vAcc>0.827915</vAcc></extensions></trkpt>
      <trkpt lon="-2.220225" lat="53.111933"><ele>263.347900</ele><time>2022-03-04T11:35:18Z</time><extensions><speed>0.759839</speed><course>82.443932</course><hAcc>1.719396</hAcc><vAcc>0.827906</vAcc></extensions></trkpt>
      <trkpt lon="-2.220213" lat="53.111934"><ele>263.471954</ele><time>2022-03-04T11:35:19Z</time><extensions><speed>0.839450</speed><course>82.831184</course><hAcc>1.721434</hAcc><vAcc>0.827905</vAcc></extensions></trkpt>
      <trkpt lon="-2.220201" lat="53.111935"><ele>263.600433</ele><time>2022-03-04T11:35:20Z</time><extensions><speed>0.888500</speed><course>83.363693</course><hAcc>1.721530</hAcc><vAcc>0.827917</vAcc></extensions></trkpt>
      <trkpt lon="-2.220188" lat="53.111935"><ele>263.733826</ele><time>2022-03-04T11:35:21Z</time><extensions><speed>0.824284</speed><course>84.336823</course><hAcc>1.722044</hAcc><vAcc>0.827937</vAcc></extensions></trkpt>
      <trkpt lon="-2.220176" lat="53.111936"><ele>263.860718</ele><time>2022-03-04T11:35:22Z</time><extensions><speed>0.765557</speed><course>85.887054</course><hAcc>1.722471</hAcc><vAcc>0.827964</vAcc></extensions></trkpt>
      <trkpt lon="-2.220165" lat="53.111936"><ele>263.974396</ele><time>2022-03-04T11:35:23Z</time><extensions><speed>0.767233</speed><course>85.972717</course><hAcc>1.723037</hAcc><vAcc>0.827994</vAcc></extensions></trkpt>
      <trkpt lon="-2.220152" lat="53.111937"><ele>264.088104</ele><time>2022-03-04T11:35:24Z</time><extensions><speed>0.905832</speed><course>85.075348</course><hAcc>1.721044</hAcc><vAcc>0.828028</vAcc></extensions></trkpt>
      <trkpt lon="-2.220138" lat="53.111938"><ele>264.217072</ele><time>2022-03-04T11:35:25Z</time><extensions><speed>1.042074</speed><course>85.620026</course><hAcc>1.714660</hAcc><vAcc>0.828060</vAcc></extensions></trkpt>
      <trkpt lon="-2.220122" lat="53.111938"><ele>264.333344</ele><time>2022-03-04T11:35:26Z</time><extensions><speed>1.035251</speed><course>87.155144</course><hAcc>1.702347</hAcc><vAcc>0.828087</vAcc></extensions></trkpt>
      <trkpt lon="-2.220107" lat="53.111939"><ele>264.457794</ele><time>2022-03-04T11:35:27Z</time><extensions><speed>1.007239</speed><course>88.623947</course><hAcc>1.684019</hAcc><vAcc>0.828120</vAcc></extensions></trkpt>
      <trkpt lon="-2.220092" lat="53.111939"><ele>264.565399</ele><time>2022-03-04T11:35:28Z</time><extensions><speed>0.953963</speed><course>90.876442</course><hAcc>1.672342</hAcc><vAcc>0.828156</vAcc></extensions></trkpt>
      <trkpt lon="-2.220078" lat="53.111939"><ele>264.667786</ele><time>2022-03-04T11:35:29Z</time><extensions><speed>0.885548</speed><course>92.136848</course><hAcc>1.685096</hAcc><vAcc>0.828193</vAcc></extensions></trkpt>
      <trkpt lon="-2.220066" lat="53.111938"><ele>264.782928</ele><time>2022-03-04T11:35:30Z</time><extensions><speed>0.850877</speed><course>92.694969</course><hAcc>1.708813</hAcc><vAcc>0.828211</vAcc></extensions></trkpt>
      <trkpt lon="-2.220052" lat="53.111938"><ele>264.892853</ele><time>2022-03-04T11:35:31Z</time><extensions><speed>0.921215</speed><course>92.425896</course><hAcc>1.671376</hAcc><vAcc>0.828222</vAcc></extensions></trkpt>
      <trkpt lon="-2.220038" lat="53.111938"><ele>265.004700</ele><time>2022-03-04T11:35:32Z</time><extensions><speed>0.932246</speed><course>90.423096</course><hAcc>1.664165</hAcc><vAcc>0.828229</vAcc></extensions></trkpt>
      <trkpt lon="-2.220025" lat="53.111938"><ele>265.121552</ele><time>2022-03-04T11:35:33Z</time><extensions><speed>0.899504</speed><course>89.287277</course><hAcc>1.688668</hAcc><vAcc>0.828224</vAcc></extensions></trkpt>
      <trkpt lon="-2.220011" lat="53.111938"><ele>265.228180</ele><time>2022-03-04T11:35:34Z</time><extensions><speed>0.977951</speed><course>89.016541</course><hAcc>1.685573</hAcc><vAcc>0.828209</vAcc></extensions></trkpt>
      <trkpt lon="-2.219996" lat="53.111938"><ele>265.348267</ele><time>2022-03-04T11:35:35Z</time><extensions><speed>0.949112</speed><course>88.778542</course><hAcc>1.689574</hAcc><vAcc>0.828176</vAcc></extensions></trkpt>
      <trkpt lon="-2.219983" lat="53.111938"><ele>265.477234</ele><time>2022-03-04T11:35:36Z</time><extensions><speed>0.839111</speed><course>86.189873</course><hAcc>1.694773</hAcc><vAcc>0.828146</vAcc></extensions></trkpt>
      <trkpt lon="-2.219971" lat="53.111939"><ele>265.604492</ele><time>2022-03-04T11:35:37Z</time><extensions><speed>0.750846</speed><course>84.526581</course><hAcc>1.694578</hAcc><vAcc>0.828109</vAcc></extensions></trkpt>
      <trkpt lon="-2.219960" lat="53.111939"><ele>265.737152</ele><time>2022-03-04T11:35:38Z</time><extensions><speed>0.757172</speed><course>80.508972</course><hAcc>1.690647</hAcc><vAcc>0.828079</vAcc></extensions></trkpt>
      <trkpt lon="-2.219948" lat="53.111940"><ele>265.869293</ele><time>2022-03-04T11:35:39Z</time><extensions><speed>0.877507</speed><course>82.247276</course><hAcc>1.679923</hAcc><vAcc>0.828045</vAcc></extensions></trkpt>
      <trkpt lon="-2.219934" lat="53.111941"><ele>266.005493</ele><time>2022-03-04T11:35:40Z</time><extensions><speed>0.970498</speed><course>87.853485</course><hAcc>1.686558</hAcc><vAcc>0.828008</vAcc></extensions></trkpt>
      <trkpt lon="-2.219920" lat="53.111941"><ele>266.143555</ele><time>2022-03-04T11:35:41Z</time><extensions><speed>0.944760</speed><course>96.086273</course><hAcc>1.708894</hAcc><vAcc>0.827978</vAcc></extensions></trkpt>
      <trkpt lon="-2.219905" lat="53.111939"><ele>266.295471</ele><time>2022-03-04T11:35:42Z</time><extensions><speed>1.077455</speed><course>108.645226</course><hAcc>1.675984</hAcc><vAcc>0.827947</vAcc></extensions></trkpt>
      <trkpt lon="-2.219889" lat="53.111935"><ele>266.450500</ele><time>2022-03-04T11:35:43Z</time><extensions><speed>1.292151</speed><course>115.500526</course><hAcc>1.653400</hAcc><vAcc>0.827933</vAcc></extensions></trkpt>
      <trkpt lon="-2.219871" lat="53.111929"><ele>266.615845</ele><time>2022-03-04T11:35:44Z</time><extensions><speed>1.385197</speed><course>120.456963</course><hAcc>1.641800</hAcc><vAcc>0.827934</vAcc></extensions></trkpt>
      <trkpt lon="-2.219854" lat="53.111923"><ele>266.777161</ele><time>2022-03-04T11:35:45Z</time><extensions><speed>1.330050</speed><course>123.280258</course><hAcc>1.639042</hAcc><vAcc>0.827936</vAcc></extensions></trkpt>
      <trkpt lon="-2.219838" lat="53.111916"><ele>266.941437</ele><time>2022-03-04T11:35:46Z</time><extensions><speed>1.192869</speed><course>123.591103</course><hAcc>1.655989</hAcc><vAcc>0.827944</vAcc></extensions></trkpt>
      <trkpt lon="-2.219824" lat="53.111911"><ele>267.120422</ele><time>2022-03-04T11:35:47Z</time><extensions><speed>1.043191</speed><course>120.997040</course><hAcc>1.671816</hAcc><vAcc>0.827958</vAcc></extensions></trkpt>
      <trkpt lon="-2.219810" lat="53.111906"><ele>267.309052</ele><time>2022-03-04T11:35:48Z</time><extensions><speed>1.131255</speed><course>119.101700</course><hAcc>1.640796</hAcc><vAcc>0.827976</vAcc></extensions></trkpt>
      <trkpt lon="-2.219795" lat="53.111901"><ele>267.492004</ele><time>2022-03-04T11:35:49Z</time><extensions><speed>1.108879</speed><course>117.136932</course><hAcc>1.644624</hAcc><vAcc>0.827996</vAcc></extensions></trkpt>
      <trkpt lon="-2.219780" lat="53.111897"><ele>267.663513</ele><time>2022-03-04T11:35:49Z</time><extensions><speed>1.062060</speed><course>116.224297</course><hAcc>1.642776</hAcc><vAcc>0.828008</vAcc></extensions></trkpt>
      <trkpt lon="-2.219766" lat="53.111893"><ele>267.833496</ele><time>2022-03-04T11:35:50Z</time><extensions><speed>1.014770</speed><course>115.436287</course><hAcc>1.644385</hAcc><vAcc>0.828041</vAcc></extensions></trkpt>
      <trkpt lon="-2.219753" lat="53.111889"><ele>268.027344</ele><time>2022-03-04T11:35:51Z</time><extensions><speed>1.044828</speed><course>116.275291</course><hAcc>1.638813</hAcc><vAcc>0.828076</vAcc></extensions></trkpt>
      <trkpt lon="-2.219738" lat="53.111885"><ele>268.196869</ele><time>2022-03-04T11:35:52Z</time><extensions><speed>1.089869</speed><course>117.527008</course><hAcc>1.642770</hAcc><vAcc>0.828110</vAcc></extensions></trkpt>
      <trkpt lon="-2.219724" lat="53.111880"><ele>268.374969</ele><time>2022-03-04T11:35:53Z</time><extensions><speed>1.134304</speed><course>120.226082</course><hAcc>1.653579</hAcc><vAcc>0.828146</vAcc></extensions></trkpt>
      <trkpt lon="-2.219709" lat="53.111875"><ele>268.547791</ele><time>2022-03-04T11:35:54Z</time><extensions><speed>1.213750</speed><course>119.363289</course><hAcc>1.614660</hAcc><vAcc>0.828181</vAcc></extensions></trkpt>
      <trkpt lon="-2.219693" lat="53.111869"><ele>268.720459</ele><time>2022-03-04T11:35:55Z</time><extensions><speed>1.235652</speed><course>119.562477</course><hAcc>1.586752</hAcc><vAcc>0.828210</vAcc></extensions></trkpt>
      <trkpt lon="-2.219676" lat="53.111863"><ele>268.895325</ele><time>2022-03-04T11:35:56Z</time><extensions><speed>1.344841</speed><course>120.694542</course><hAcc>1.603318</hAcc><vAcc>0.828243</vAcc></extensions></trkpt>
      <trkpt lon="-2.219659" lat="53.111857"><ele>269.067047</ele><time>2022-03-04T11:35:57Z</time><extensions><speed>1.229940</speed><course>120.178879</course><hAcc>1.645770</hAcc><vAcc>0.828261</vAcc></extensions></trkpt>
      <trkpt lon="-2.219645" lat="53.111852"><ele>269.226440</ele><time>2022-03-04T11:35:58Z</time><extensions><speed>1.064199</speed><course>117.126518</course><hAcc>1.584543</hAcc><vAcc>0.828282</vAcc></extensions></trkpt>
      <trkpt lon="-2.219631" lat="53.111848"><ele>269.383362</ele><time>2022-03-04T11:35:59Z</time><extensions><speed>0.991918</speed><course>114.755341</course><hAcc>1.579441</hAcc><vAcc>0.828290</vAcc></extensions></trkpt>
      <trkpt lon="-2.219617" lat="53.111845"><ele>269.538544</ele><time>2022-03-04T11:36:00Z</time><extensions><speed>0.976008</speed><course>114.279633</course><hAcc>1.627877</hAcc><vAcc>0.828291</vAcc></extensions></trkpt>
      <trkpt lon="-2.219604" lat="53.111841"><ele>269.686432</ele><time>2022-03-04T11:36:01Z</time><extensions><speed>1.078965</speed><course>117.591019</course><hAcc>1.592856</hAcc><vAcc>0.828277</vAcc></extensions></trkpt>
      <trkpt lon="-2.219589" lat="53.111836"><ele>269.816650</ele><time>2022-03-04T11:36:02Z</time><extensions><speed>1.153983</speed><course>118.805054</course><hAcc>1.579998</hAcc><vAcc>0.828259</vAcc></extensions></trkpt>
      <trkpt lon="-2.219573" lat="53.111831"><ele>269.949829</ele><time>2022-03-04T11:36:03Z</time><extensions><speed>1.249717</speed><course>120.624329</course><hAcc>1.594164</hAcc><vAcc>0.828225</vAcc></extensions></trkpt>
      <trkpt lon="-2.219557" lat="53.111825"><ele>270.078735</ele><time>2022-03-04T11:36:04Z</time><extensions><speed>1.312766</speed><course>122.620132</course><hAcc>1.609947</hAcc><vAcc>0.828194</vAcc></extensions></trkpt>
      <trkpt lon="-2.219541" lat="53.111818"><ele>270.188080</ele><time>2022-03-04T11:36:05Z</time><extensions><speed>1.346534</speed><course>123.624207</course><hAcc>1.604508</hAcc><vAcc>0.828147</vAcc></extensions></trkpt>
      <trkpt lon="-2.219525" lat="53.111812"><ele>270.288971</ele><time>2022-03-04T11:36:06Z</time><extensions><speed>1.198089</speed><course>123.121887</course><hAcc>1.617006</hAcc><vAcc>0.828102</vAcc></extensions></trkpt>
      <trkpt lon="-2.219511" lat="53.111807"><ele>270.383606</ele><time>2022-03-04T11:36:07Z</time><extensions><speed>1.005669</speed><course>120.145103</course><hAcc>1.614813</hAcc><vAcc>0.828069</vAcc></extensions></trkpt>
      <trkpt lon="-2.219498" lat="53.111802"><ele>270.473267</ele><time>2022-03-04T11:36:08Z</time><extensions><speed>0.969289</speed><course>117.670959</course><hAcc>1.651000</hAcc><vAcc>0.828039</vAcc></extensions></trkpt>
      <trkpt lon="-2.219485" lat="53.111799"><ele>270.557190</ele><time>2022-03-04T11:36:09Z</time><extensions><speed>0.901236</speed><course>117.179420</course><hAcc>1.624263</hAcc><vAcc>0.828012</vAcc></extensions></trkpt>
      <trkpt lon="-2.219474" lat="53.111795"><ele>270.637939</ele><time>2022-03-04T11:36:10Z</time><extensions><speed>0.853164</speed><course>117.829521</course><hAcc>1.625430</hAcc><vAcc>0.827986</vAcc></extensions></trkpt>
      <trkpt lon="-2.219463" lat="53.111791"><ele>270.715515</ele><time>2022-03-04T11:36:11Z</time><extensions><speed>0.829572</speed><course>119.049652</course><hAcc>1.650104</hAcc><vAcc>0.827977</vAcc></extensions></trkpt>
      <trkpt lon="-2.219452" lat="53.111788"><ele>270.785400</ele><time>2022-03-04T11:36:12Z</time><extensions><speed>0.835691</speed><course>120.141632</course><hAcc>1.671086</hAcc><vAcc>0.827973</vAcc></extensions></trkpt>
      <trkpt lon="-2.219441" lat="53.111783"><ele>270.855499</ele><time>2022-03-04T11:36:13Z</time><extensions><speed>0.934059</speed><course>121.909904</course><hAcc>1.682212</hAcc><vAcc>0.827979</vAcc></extensions></trkpt>
      <trkpt lon="-2.219429" lat="53.111779"><ele>270.927246</ele><time>2022-03-04T11:36:14Z</time><extensions><speed>0.982474</speed><course>121.932343</course><hAcc>1.685683</hAcc><vAcc>0.827998</vAcc></extensions></trkpt>
      <trkpt lon="-2.219416" lat="53.111774"><ele>271.011475</ele><time>2022-03-04T11:36:15Z</time><extensions><speed>0.970279</speed><course>119.499138</course><hAcc>1.681845</hAcc><vAcc>0.828025</vAcc></extensions></trkpt>
      <trkpt lon="-2.219404" lat="53.111770"><ele>271.109222</ele><time>2022-03-04T11:36:16Z</time><extensions><speed>0.918464</speed><course>119.433578</course><hAcc>1.672075</hAcc><vAcc>0.828058</vAcc></extensions></trkpt>
      <trkpt lon="-2.219392" lat="53.111766"><ele>271.217834</ele><time>2022-03-04T11:36:17Z</time><extensions><speed>0.975103</speed><course>120.457840</course><hAcc>1.663594</hAcc><vAcc>0.828097</vAcc></extensions></trkpt>
      <trkpt lon="-2.219379" lat="53.111761"><ele>271.309235</ele><time>2022-03-04T11:36:18Z</time><extensions><speed>1.083873</speed><course>120.714981</course><hAcc>1.657626</hAcc><vAcc>0.828136</vAcc></extensions></trkpt>
      <trkpt lon="-2.219364" lat="53.111756"><ele>271.417023</ele><time>2022-03-04T11:36:19Z</time><extensions><speed>1.142097</speed><course>121.698875</course><hAcc>1.629665</hAcc><vAcc>0.828179</vAcc></extensions></trkpt>
      <trkpt lon="-2.219350" lat="53.111751"><ele>271.531769</ele><time>2022-03-04T11:36:20Z</time><extensions><speed>1.115493</speed><course>123.764488</course><hAcc>1.628435</hAcc><vAcc>0.828217</vAcc></extensions></trkpt>
      <trkpt lon="-2.219337" lat="53.111745"><ele>271.641998</ele><time>2022-03-04T11:36:21Z</time><extensions><speed>1.091349</speed><course>124.207428</course><hAcc>1.655484</hAcc><vAcc>0.828248</vAcc></extensions></trkpt>
      <trkpt lon="-2.219324" lat="53.111740"><ele>271.750763</ele><time>2022-03-04T11:36:22Z</time><extensions><speed>1.005802</speed><course>124.930122</course><hAcc>1.609950</hAcc><vAcc>0.828271</vAcc></extensions></trkpt>
      <trkpt lon="-2.219311" lat="53.111734"><ele>271.860779</ele><time>2022-03-04T11:36:23Z</time><extensions><speed>1.057720</speed><course>124.175835</course><hAcc>1.601087</hAcc><vAcc>0.828279</vAcc></extensions></trkpt>
      <trkpt lon="-2.219298" lat="53.111729"><ele>271.974548</ele><time>2022-03-04T11:36:24Z</time><extensions><speed>1.055409</speed><course>123.194992</course><hAcc>1.639396</hAcc><vAcc>0.828297</vAcc></extensions></trkpt>
      <trkpt lon="-2.219286" lat="53.111724"><ele>272.084137</ele><time>2022-03-04T11:36:25Z</time><extensions><speed>0.884463</speed><course>126.114845</course><hAcc>1.651001</hAcc><vAcc>0.828284</vAcc></extensions></trkpt>
      <trkpt lon="-2.219275" lat="53.111720"><ele>272.186066</ele><time>2022-03-04T11:36:26Z</time><extensions><speed>0.863039</speed><course>125.014076</course><hAcc>1.633638</hAcc><vAcc>0.828280</vAcc></extensions></trkpt>
      <trkpt lon="-2.219265" lat="53.111715"><ele>272.312927</ele><time>2022-03-04T11:36:27Z</time><extensions><speed>0.827342</speed><course>125.923447</course><hAcc>1.637690</hAcc><vAcc>0.828260</vAcc></extensions></trkpt>
      <trkpt lon="-2.219254" lat="53.111710"><ele>272.419830</ele><time>2022-03-04T11:36:28Z</time><extensions><speed>0.928051</speed><course>128.968857</course><hAcc>1.657009</hAcc><vAcc>0.828250</vAcc></extensions></trkpt>
      <trkpt lon="-2.219243" lat="53.111705"><ele>272.523865</ele><time>2022-03-04T11:36:29Z</time><extensions><speed>1.037191</speed><course>131.643707</course><hAcc>1.669998</hAcc><vAcc>0.828259</vAcc></extensions></trkpt>
      <trkpt lon="-2.219231" lat="53.111698"><ele>272.624512</ele><time>2022-03-04T11:36:30Z</time><extensions><speed>1.128315</speed><course>132.579956</course><hAcc>1.674488</hAcc><vAcc>0.828257</vAcc></extensions></trkpt>
      <trkpt lon="-2.219219" lat="53.111691"><ele>272.723480</ele><time>2022-03-04T11:36:31Z</time><extensions><speed>1.094236</speed><course>132.539749</course><hAcc>1.666076</hAcc><vAcc>0.828271</vAcc></extensions></trkpt>
      <trkpt lon="-2.219208" lat="53.111685"><ele>272.821198</ele><time>2022-03-04T11:36:32Z</time><extensions><speed>1.010700</speed><course>132.527618</course><hAcc>1.648121</hAcc><vAcc>0.828310</vAcc></extensions></trkpt>
      <trkpt lon="-2.219196" lat="53.111679"><ele>272.914185</ele><time>2022-03-04T11:36:33Z</time><extensions><speed>1.069179</speed><course>132.602295</course><hAcc>1.629522</hAcc><vAcc>0.828367</vAcc></extensions></trkpt>
      <trkpt lon="-2.219184" lat="53.111672"><ele>273.009247</ele><time>2022-03-04T11:36:34Z</time><extensions><speed>1.193915</speed><course>134.653671</course><hAcc>1.616935</hAcc><vAcc>0.828446</vAcc></extensions></trkpt>
      <trkpt lon="-2.219170" lat="53.111663"><ele>273.109985</ele><time>2022-03-04T11:36:35Z</time><extensions><speed>1.402075</speed><course>136.728058</course><hAcc>1.607692</hAcc><vAcc>0.828538</vAcc></extensions></trkpt>
      <trkpt lon="-2.219156" lat="53.111654"><ele>273.213654</ele><time>2022-03-04T11:36:36Z</time><extensions><speed>1.434443</speed><course>139.095901</course><hAcc>1.630585</hAcc><vAcc>0.828641</vAcc></extensions></trkpt>
      <trkpt lon="-2.219142" lat="53.111644"><ele>273.310608</ele><time>2022-03-04T11:36:37Z</time><extensions><speed>1.434031</speed><course>139.333862</course><hAcc>1.598404</hAcc><vAcc>0.828763</vAcc></extensions></trkpt>
      <trkpt lon="-2.219128" lat="53.111635"><ele>273.404755</ele><time>2022-03-04T11:36:38Z</time><extensions><speed>1.327533</speed><course>137.197876</course><hAcc>1.611264</hAcc><vAcc>0.828859</vAcc></extensions></trkpt>
      <trkpt lon="-2.219115" lat="53.111627"><ele>273.502075</ele><time>2022-03-04T11:36:39Z</time><extensions><speed>1.176545</speed><course>134.250977</course><hAcc>1.615227</hAcc><vAcc>0.828941</vAcc></extensions></trkpt>
      <trkpt lon="-2.219103" lat="53.111619"><ele>273.605377</ele><time>2022-03-04T11:36:40Z</time><extensions><speed>1.152856</speed><course>134.668900</course><hAcc>1.609113</hAcc><vAcc>0.828999</vAcc></extensions></trkpt>
      <trkpt lon="-2.219091" lat="53.111612"><ele>273.721588</ele><time>2022-03-04T11:36:41Z</time><extensions><speed>1.113706</speed><course>134.552628</course><hAcc>1.625191</hAcc><vAcc>0.829050</vAcc></extensions></trkpt>
      <trkpt lon="-2.219079" lat="53.111605"><ele>273.839874</ele><time>2022-03-04T11:36:42Z</time><extensions><speed>1.101449</speed><course>133.100662</course><hAcc>1.643542</hAcc><vAcc>0.829062</vAcc></extensions></trkpt>
      <trkpt lon="-2.219066" lat="53.111598"><ele>273.952545</ele><time>2022-03-04T11:36:43Z</time><extensions><speed>1.175529</speed><course>131.349899</course><hAcc>1.659023</hAcc><vAcc>0.829042</vAcc></extensions></trkpt>
      <trkpt lon="-2.219053" lat="53.111591"><ele>274.070312</ele><time>2022-03-04T11:36:44Z</time><extensions><speed>1.167914</speed><course>130.814865</course><hAcc>1.664584</hAcc><vAcc>0.829023</vAcc></extensions></trkpt>
      <trkpt lon="-2.219040" lat="53.111584"><ele>274.192596</ele><time>2022-03-04T11:36:45Z</time><extensions><speed>1.236113</speed><course>133.028000</course><hAcc>1.664979</hAcc><vAcc>0.828988</vAcc></extensions></trkpt>
      <trkpt lon="-2.219026" lat="53.111577"><ele>274.316162</ele><time>2022-03-04T11:36:46Z</time><extensions><speed>1.268424</speed><course>133.458694</course><hAcc>1.666878</hAcc><vAcc>0.828920</vAcc></extensions></trkpt>
      <trkpt lon="-2.219012" lat="53.111569"><ele>274.444733</ele><time>2022-03-04T11:36:47Z</time><extensions><speed>1.285410</speed><course>132.949478</course><hAcc>1.666594</hAcc><vAcc>0.828828</vAcc></extensions></trkpt>
      <trkpt lon="-2.218998" lat="53.111561"><ele>274.582703</ele><time>2022-03-04T11:36:48Z</time><extensions><speed>1.298773</speed><course>131.077591</course><hAcc>1.647405</hAcc><vAcc>0.828725</vAcc></extensions></trkpt>
      <trkpt lon="-2.218983" lat="53.111553"><ele>274.709717</ele><time>2022-03-04T11:36:49Z</time><extensions><speed>1.287054</speed><course>130.602005</course><hAcc>1.632067</hAcc><vAcc>0.828621</vAcc></extensions></trkpt>
      <trkpt lon="-2.218969" lat="53.111546"><ele>274.842834</ele><time>2022-03-04T11:36:50Z</time><extensions><speed>1.251857</speed><course>131.012955</course><hAcc>1.639036</hAcc><vAcc>0.828521</vAcc></extensions></trkpt>
      <trkpt lon="-2.218955" lat="53.111538"><ele>274.976532</ele><time>2022-03-04T11:36:51Z</time><extensions><speed>1.233159</speed><course>132.937180</course><hAcc>1.670325</hAcc><vAcc>0.828441</vAcc></extensions></trkpt>
      <trkpt lon="-2.218942" lat="53.111531"><ele>275.115509</ele><time>2022-03-04T11:36:52Z</time><extensions><speed>1.173961</speed><course>131.574692</course><hAcc>1.632597</hAcc><vAcc>0.828366</vAcc></extensions></trkpt>
      <trkpt lon="-2.218929" lat="53.111524"><ele>275.239960</ele><time>2022-03-04T11:36:53Z</time><extensions><speed>1.091991</speed><course>130.540726</course><hAcc>1.616474</hAcc><vAcc>0.828302</vAcc></extensions></trkpt>
      <trkpt lon="-2.218916" lat="53.111518"><ele>275.356171</ele><time>2022-03-04T11:36:54Z</time><extensions><speed>1.086024</speed><course>130.394653</course><hAcc>1.634785</hAcc><vAcc>0.828259</vAcc></extensions></trkpt>
      <trkpt lon="-2.218904" lat="53.111512"><ele>275.457642</ele><time>2022-03-04T11:36:55Z</time><extensions><speed>1.139547</speed><course>130.440002</course><hAcc>1.664487</hAcc><vAcc>0.828228</vAcc></extensions></trkpt>
      <trkpt lon="-2.218890" lat="53.111505"><ele>275.558777</ele><time>2022-03-04T11:36:56Z</time><extensions><speed>1.222670</speed><course>129.751053</course><hAcc>1.650393</hAcc><vAcc>0.828213</vAcc></extensions></trkpt>
      <trkpt lon="-2.218876" lat="53.111498"><ele>275.663879</ele><time>2022-03-04T11:36:57Z</time><extensions><speed>1.164635</speed><course>129.844040</course><hAcc>1.645676</hAcc><vAcc>0.828215</vAcc></extensions></trkpt>
      <trkpt lon="-2.218864" lat="53.111491"><ele>275.778015</ele><time>2022-03-04T11:36:58Z</time><extensions><speed>1.088465</speed><course>130.155273</course><hAcc>1.650631</hAcc><vAcc>0.828243</vAcc></extensions></trkpt>
      <trkpt lon="-2.218851" lat="53.111485"><ele>275.890808</ele><time>2022-03-04T11:36:59Z</time><extensions><speed>1.066548</speed><course>129.129257</course><hAcc>1.652827</hAcc><vAcc>0.828280</vAcc></extensions></trkpt>
      <trkpt lon="-2.218839" lat="53.111479"><ele>276.000916</ele><time>2022-03-04T11:37:00Z</time><extensions><speed>1.014819</speed><course>128.858597</course><hAcc>1.646590</hAcc><vAcc>0.828341</vAcc></extensions></trkpt>
      <trkpt lon="-2.218826" lat="53.111474"><ele>276.124939</ele><time>2022-03-04T11:37:02Z</time><extensions><speed>1.071613</speed><course>126.252045</course><hAcc>1.635527</hAcc><vAcc>0.828400</vAcc></extensions></trkpt>
      <trkpt lon="-2.218814" lat="53.111468"><ele>276.228149</ele><time>2022-03-04T11:37:03Z</time><extensions><speed>1.059898</speed><course>126.555527</course><hAcc>1.643475</hAcc><vAcc>0.828456</vAcc></extensions></trkpt>
      <trkpt lon="-2.218801" lat="53.111462"><ele>276.332458</ele><time>2022-03-04T11:37:04Z</time><extensions><speed>1.046166</speed><course>126.525284</course><hAcc>1.673310</hAcc><vAcc>0.828519</vAcc></extensions></trkpt>
      <trkpt lon="-2.218788" lat="53.111457"><ele>276.439819</ele><time>2022-03-04T11:37:05Z</time><extensions><speed>1.042725</speed><course>126.261406</course><hAcc>1.663349</hAcc><vAcc>0.828572</vAcc></extensions></trkpt>
      <trkpt lon="-2.218776" lat="53.111451"><ele>276.557343</ele><time>2022-03-04T11:37:06Z</time><extensions><speed>1.038530</speed><course>123.598541</course><hAcc>1.635166</hAcc><vAcc>0.828605</vAcc></extensions></trkpt>
      <trkpt lon="-2.218762" lat="53.111446"><ele>276.665558</ele><time>2022-03-04T11:37:07Z</time><extensions><speed>1.134492</speed><course>122.017136</course><hAcc>1.626461</hAcc><vAcc>0.828610</vAcc></extensions></trkpt>
      <trkpt lon="-2.218747" lat="53.111440"><ele>276.780640</ele><time>2022-03-04T11:37:08Z</time><extensions><speed>1.198045</speed><course>122.177216</course><hAcc>1.630487</hAcc><vAcc>0.828598</vAcc></extensions></trkpt>
      <trkpt lon="-2.218732" lat="53.111434"><ele>276.894623</ele><time>2022-03-04T11:37:09Z</time><extensions><speed>1.268917</speed><course>124.426262</course><hAcc>1.631056</hAcc><vAcc>0.828553</vAcc></extensions></trkpt>
      <trkpt lon="-2.218716" lat="53.111428"><ele>277.002319</ele><time>2022-03-04T11:37:10Z</time><extensions><speed>1.296180</speed><course>125.183990</course><hAcc>1.633842</hAcc><vAcc>0.828458</vAcc></extensions></trkpt>
      <trkpt lon="-2.218700" lat="53.111421"><ele>277.102661</ele><time>2022-03-04T11:37:11Z</time><extensions><speed>1.319892</speed><course>125.038460</course><hAcc>1.638492</hAcc><vAcc>0.828343</vAcc></extensions></trkpt>
      <trkpt lon="-2.218684" lat="53.111414"><ele>277.193573</ele><time>2022-03-04T11:37:12Z</time><extensions><speed>1.308759</speed><course>125.237160</course><hAcc>1.612416</hAcc><vAcc>0.828214</vAcc></extensions></trkpt>
      <trkpt lon="-2.218669" lat="53.111408"><ele>277.276337</ele><time>2022-03-04T11:37:13Z</time><extensions><speed>1.197996</speed><course>125.918839</course><hAcc>1.618475</hAcc><vAcc>0.828056</vAcc></extensions></trkpt>
      <trkpt lon="-2.218655" lat="53.111402"><ele>277.359558</ele><time>2022-03-04T11:37:14Z</time><extensions><speed>1.128234</speed><course>125.662766</course><hAcc>1.630394</hAcc><vAcc>0.827862</vAcc></extensions></trkpt>
      <trkpt lon="-2.218640" lat="53.111396"><ele>277.445892</ele><time>2022-03-04T11:37:15Z</time><extensions><speed>1.199179</speed><course>125.335510</course><hAcc>1.590806</hAcc><vAcc>0.827647</vAcc></extensions></trkpt>
      <trkpt lon="-2.218626" lat="53.111390"><ele>277.528625</ele><time>2022-03-04T11:37:16Z</time><extensions><speed>1.216125</speed><course>126.548286</course><hAcc>1.576471</hAcc><vAcc>0.827413</vAcc></extensions></trkpt>
      <trkpt lon="-2.218610" lat="53.111382"><ele>277.609283</ele><time>2022-03-04T11:37:17Z</time><extensions><speed>1.373836</speed><course>129.645721</course><hAcc>1.602540</hAcc><vAcc>0.827181</vAcc></extensions></trkpt>
      <trkpt lon="-2.218595" lat="53.111374"><ele>277.682129</ele><time>2022-03-04T11:37:18Z</time><extensions><speed>1.378290</speed><course>130.493225</course><hAcc>1.647040</hAcc><vAcc>0.826941</vAcc></extensions></trkpt>
      <trkpt lon="-2.218579" lat="53.111367"><ele>277.765198</ele><time>2022-03-04T11:37:19Z</time><extensions><speed>1.226209</speed><course>125.574821</course><hAcc>1.618875</hAcc><vAcc>0.826687</vAcc></extensions></trkpt>
      <trkpt lon="-2.218565" lat="53.111362"><ele>277.854034</ele><time>2022-03-04T11:37:20Z</time><extensions><speed>1.087663</speed><course>121.762924</course><hAcc>1.603423</hAcc><vAcc>0.826439</vAcc></extensions></trkpt>
      <trkpt lon="-2.218551" lat="53.111357"><ele>277.947998</ele><time>2022-03-04T11:37:21Z</time><extensions><speed>1.081826</speed><course>118.727173</course><hAcc>1.612644</hAcc><vAcc>0.826154</vAcc></extensions></trkpt>
      <trkpt lon="-2.218537" lat="53.111352"><ele>278.035706</ele><time>2022-03-04T11:37:22Z</time><extensions><speed>1.112090</speed><course>119.153976</course><hAcc>1.635760</hAcc><vAcc>0.825826</vAcc></extensions></trkpt>
      <trkpt lon="-2.218522" lat="53.111347"><ele>278.124268</ele><time>2022-03-04T11:37:23Z</time><extensions><speed>1.147071</speed><course>120.942673</course><hAcc>1.643080</hAcc><vAcc>0.825537</vAcc></extensions></trkpt>
      <trkpt lon="-2.218507" lat="53.111342"><ele>278.221985</ele><time>2022-03-04T11:37:24Z</time><extensions><speed>1.165250</speed><course>118.478554</course><hAcc>1.626697</hAcc><vAcc>0.825244</vAcc></extensions></trkpt>
      <trkpt lon="-2.218492" lat="53.111337"><ele>278.323303</ele><time>2022-03-04T11:37:25Z</time><extensions><speed>1.170407</speed><course>117.534073</course><hAcc>1.621148</hAcc><vAcc>0.824977</vAcc></extensions></trkpt>
      <trkpt lon="-2.218476" lat="53.111332"><ele>278.429016</ele><time>2022-03-04T11:37:26Z</time><extensions><speed>1.148555</speed><course>118.331299</course><hAcc>1.637085</hAcc><vAcc>0.824724</vAcc></extensions></trkpt>
      <trkpt lon="-2.218461" lat="53.111327"><ele>278.552307</ele><time>2022-03-04T11:37:27Z</time><extensions><speed>1.135662</speed><course>121.019829</course><hAcc>1.667282</hAcc><vAcc>0.824481</vAcc></extensions></trkpt>
      <trkpt lon="-2.218447" lat="53.111322"><ele>278.693268</ele><time>2022-03-04T11:37:28Z</time><extensions><speed>1.151201</speed><course>119.122879</course><hAcc>1.636772</hAcc><vAcc>0.824278</vAcc></extensions></trkpt>
      <trkpt lon="-2.218432" lat="53.111317"><ele>278.842072</ele><time>2022-03-04T11:37:29Z</time><extensions><speed>1.164602</speed><course>117.927811</course><hAcc>1.632120</hAcc><vAcc>0.824083</vAcc></extensions></trkpt>
      <trkpt lon="-2.218416" lat="53.111312"><ele>278.983948</ele><time>2022-03-04T11:37:30Z</time><extensions><speed>1.180030</speed><course>118.739853</course><hAcc>1.652775</hAcc><vAcc>0.823943</vAcc></extensions></trkpt>
      <trkpt lon="-2.218401" lat="53.111307"><ele>279.138062</ele><time>2022-03-04T11:37:31Z</time><extensions><speed>1.145453</speed><course>120.124344</course><hAcc>1.634863</hAcc><vAcc>0.823865</vAcc></extensions></trkpt>
      <trkpt lon="-2.218387" lat="53.111301"><ele>279.280945</ele><time>2022-03-04T11:37:32Z</time><extensions><speed>1.117284</speed><course>122.432480</course><hAcc>1.634283</hAcc><vAcc>0.823860</vAcc></extensions></trkpt>
      <trkpt lon="-2.218373" lat="53.111296"><ele>279.435883</ele><time>2022-03-04T11:37:33Z</time><extensions><speed>1.100923</speed><course>123.868233</course><hAcc>1.649870</hAcc><vAcc>0.823932</vAcc></extensions></trkpt>
      <trkpt lon="-2.218359" lat="53.111290"><ele>279.589630</ele><time>2022-03-04T11:37:34Z</time><extensions><speed>1.087081</speed><course>125.346786</course><hAcc>1.651470</hAcc><vAcc>0.824066</vAcc></extensions></trkpt>
      <trkpt lon="-2.218346" lat="53.111285"><ele>279.742065</ele><time>2022-03-04T11:37:35Z</time><extensions><speed>1.060082</speed><course>126.907593</course><hAcc>1.669662</hAcc><vAcc>0.824216</vAcc></extensions></trkpt>
      <trkpt lon="-2.218333" lat="53.111278"><ele>279.882263</ele><time>2022-03-04T11:37:36Z</time><extensions><speed>1.212075</speed><course>128.720123</course><hAcc>1.643119</hAcc><vAcc>0.824386</vAcc></extensions></trkpt>
      <trkpt lon="-2.218319" lat="53.111271"><ele>280.020020</ele><time>2022-03-04T11:37:37Z</time><extensions><speed>1.240596</speed><course>131.885147</course><hAcc>1.639235</hAcc><vAcc>0.824571</vAcc></extensions></trkpt>
      <trkpt lon="-2.218306" lat="53.111264"><ele>280.148102</ele><time>2022-03-04T11:37:38Z</time><extensions><speed>1.081840</speed><course>136.365616</course><hAcc>1.657548</hAcc><vAcc>0.824732</vAcc></extensions></trkpt>
      <trkpt lon="-2.218297" lat="53.111258"><ele>280.279816</ele><time>2022-03-04T11:37:39Z</time><extensions><speed>0.762720</speed><course>142.530548</course><hAcc>1.663149</hAcc><vAcc>0.824900</vAcc></extensions></trkpt>
      <trkpt lon="-2.218290" lat="53.111253"><ele>280.402191</ele><time>2022-03-04T11:37:40Z</time><extensions><speed>0.720617</speed><course>134.106125</course><hAcc>1.668130</hAcc><vAcc>0.825058</vAcc></extensions></trkpt>
      <trkpt lon="-2.218281" lat="53.111249"><ele>280.524658</ele><time>2022-03-04T11:37:41Z</time><extensions><speed>0.689472</speed><course>120.803131</course><hAcc>1.661473</hAcc><vAcc>0.825185</vAcc></extensions></trkpt>
      <trkpt lon="-2.218272" lat="53.111246"><ele>280.647400</ele><time>2022-03-04T11:37:42Z</time><extensions><speed>0.722375</speed><course>111.137192</course><hAcc>1.659107</hAcc><vAcc>0.825295</vAcc></extensions></trkpt>
      <trkpt lon="-2.218263" lat="53.111245"><ele>280.765564</ele><time>2022-03-04T11:37:43Z</time><extensions><speed>0.581710</speed><course>102.736191</course><hAcc>1.668437</hAcc><vAcc>0.825387</vAcc></extensions></trkpt>
      <trkpt lon="-2.218256" lat="53.111244"><ele>280.877625</ele><time>2022-03-04T11:37:44Z</time><extensions><speed>0.267807</speed><course>73.136375</course><hAcc>1.688113</hAcc><vAcc>0.825454</vAcc></extensions></trkpt>
      <trkpt lon="-2.218253" lat="53.111245"><ele>280.992706</ele><time>2022-03-04T11:37:45Z</time><extensions><speed>0.226497</speed><course>49.674683</course><hAcc>1.688199</hAcc><vAcc>0.825506</vAcc></extensions></trkpt>
      <trkpt lon="-2.218250" lat="53.111247"><ele>281.118713</ele><time>2022-03-04T11:37:46Z</time><extensions><speed>0.214555</speed><course>54.906540</course><hAcc>1.690886</hAcc><vAcc>0.825561</vAcc></extensions></trkpt>
      <trkpt lon="-2.218247" lat="53.111247"><ele>281.240143</ele><time>2022-03-04T11:37:47Z</time><extensions><speed>0.237677</speed><course>83.283745</course><hAcc>1.696924</hAcc><vAcc>0.825621</vAcc></extensions></trkpt>
      <trkpt lon="-2.218243" lat="53.111247"><ele>281.357178</ele><time>2022-03-04T11:37:48Z</time><extensions><speed>0.378893</speed><course>109.512817</course><hAcc>1.697494</hAcc><vAcc>0.825716</vAcc></extensions></trkpt>
      <trkpt lon="-2.218236" lat="53.111245"><ele>281.484100</ele><time>2022-03-04T11:37:49Z</time><extensions><speed>0.687638</speed><course>120.979202</course><hAcc>1.688028</hAcc><vAcc>0.825844</vAcc></extensions></trkpt>
      <trkpt lon="-2.218226" lat="53.111241"><ele>281.630615</ele><time>2022-03-04T11:37:50Z</time><extensions><speed>0.822298</speed><course>125.025856</course><hAcc>1.701511</hAcc><vAcc>0.825997</vAcc></extensions></trkpt>
      <trkpt lon="-2.218215" lat="53.111236"><ele>281.763275</ele><time>2022-03-04T11:37:51Z</time><extensions><speed>0.954768</speed><course>124.220184</course><hAcc>1.702676</hAcc><vAcc>0.826203</vAcc></extensions></trkpt>
      <trkpt lon="-2.218202" lat="53.111231"><ele>281.897461</ele><time>2022-03-04T11:37:52Z</time><extensions><speed>1.160259</speed><course>124.186722</course><hAcc>1.694103</hAcc><vAcc>0.826418</vAcc></extensions></trkpt>
      <trkpt lon="-2.218187" lat="53.111225"><ele>282.023621</ele><time>2022-03-04T11:37:53Z</time><extensions><speed>1.276390</speed><course>122.133224</course><hAcc>1.686558</hAcc><vAcc>0.826626</vAcc></extensions></trkpt>
      <trkpt lon="-2.218171" lat="53.111219"><ele>282.151550</ele><time>2022-03-04T11:37:54Z</time><extensions><speed>1.318024</speed><course>122.155762</course><hAcc>1.676928</hAcc><vAcc>0.826836</vAcc></extensions></trkpt>
      <trkpt lon="-2.218155" lat="53.111213"><ele>282.273560</ele><time>2022-03-04T11:37:55Z</time><extensions><speed>1.249357</speed><course>123.721214</course><hAcc>1.680879</hAcc><vAcc>0.827047</vAcc></extensions></trkpt>
      <trkpt lon="-2.218140" lat="53.111206"><ele>282.406799</ele><time>2022-03-04T11:37:56Z</time><extensions><speed>1.138523</speed><course>127.604469</course><hAcc>1.679613</hAcc><vAcc>0.827250</vAcc></extensions></trkpt>
      <trkpt lon="-2.218127" lat="53.111200"><ele>282.549652</ele><time>2022-03-04T11:37:57Z</time><extensions><speed>1.109324</speed><course>128.550354</course><hAcc>1.653237</hAcc><vAcc>0.827443</vAcc></extensions></trkpt>
      <trkpt lon="-2.218114" lat="53.111194"><ele>282.666016</ele><time>2022-03-04T11:37:57Z</time><extensions><speed>1.162435</speed><course>128.520721</course><hAcc>1.631271</hAcc><vAcc>0.827612</vAcc></extensions></trkpt>
      <trkpt lon="-2.218100" lat="53.111187"><ele>282.774628</ele><time>2022-03-04T11:37:58Z</time><extensions><speed>1.280434</speed><course>129.029068</course><hAcc>1.623254</hAcc><vAcc>0.827763</vAcc></extensions></trkpt>
      <trkpt lon="-2.218084" lat="53.111179"><ele>282.882294</ele><time>2022-03-04T11:37:59Z</time><extensions><speed>1.419019</speed><course>130.448471</course><hAcc>1.644962</hAcc><vAcc>0.827904</vAcc></extensions></trkpt>
      <trkpt lon="-2.218068" lat="53.111171"><ele>283.013672</ele><time>2022-03-04T11:38:00Z</time><extensions><speed>1.446208</speed><course>130.131897</course><hAcc>1.697503</hAcc><vAcc>0.828017</vAcc></extensions></trkpt>
      <trkpt lon="-2.218053" lat="53.111163"><ele>283.139343</ele><time>2022-03-04T11:38:01Z</time><extensions><speed>1.163943</speed><course>127.676880</course><hAcc>1.656425</hAcc><vAcc>0.828100</vAcc></extensions></trkpt>
      <trkpt lon="-2.218040" lat="53.111158"><ele>283.264313</ele><time>2022-03-04T11:38:02Z</time><extensions><speed>0.965821</speed><course>126.356392</course><hAcc>1.640998</hAcc><vAcc>0.828160</vAcc></extensions></trkpt>
      <trkpt lon="-2.218028" lat="53.111153"><ele>283.377167</ele><time>2022-03-04T11:38:03Z</time><extensions><speed>0.965322</speed><course>124.948517</course><hAcc>1.654431</hAcc><vAcc>0.828191</vAcc></extensions></trkpt>
      <trkpt lon="-2.218016" lat="53.111148"><ele>283.485657</ele><time>2022-03-04T11:38:04Z</time><extensions><speed>1.011964</speed><course>123.070999</course><hAcc>1.670137</hAcc><vAcc>0.828208</vAcc></extensions></trkpt>
      <trkpt lon="-2.218003" lat="53.111143"><ele>283.575928</ele><time>2022-03-04T11:38:05Z</time><extensions><speed>1.075379</speed><course>122.984932</course><hAcc>1.682089</hAcc><vAcc>0.828210</vAcc></extensions></trkpt>
      <trkpt lon="-2.217989" lat="53.111137"><ele>283.681244</ele><time>2022-03-04T11:38:06Z</time><extensions><speed>1.107893</speed><course>122.839066</course><hAcc>1.684609</hAcc><vAcc>0.828201</vAcc></extensions></trkpt>
      <trkpt lon="-2.217976" lat="53.111132"><ele>283.785583</ele><time>2022-03-04T11:38:07Z</time><extensions><speed>1.028867</speed><course>119.296120</course><hAcc>1.677832</hAcc><vAcc>0.828190</vAcc></extensions></trkpt>
      <trkpt lon="-2.217963" lat="53.111128"><ele>283.872101</ele><time>2022-03-04T11:38:08Z</time><extensions><speed>0.999154</speed><course>116.803719</course><hAcc>1.663599</hAcc><vAcc>0.828166</vAcc></extensions></trkpt>
      <trkpt lon="-2.217949" lat="53.111124"><ele>283.967377</ele><time>2022-03-04T11:38:09Z</time><extensions><speed>1.111054</speed><course>117.877708</course><hAcc>1.642512</hAcc><vAcc>0.828137</vAcc></extensions></trkpt>
      <trkpt lon="-2.217933" lat="53.111119"><ele>284.039307</ele><time>2022-03-04T11:38:10Z</time><extensions><speed>1.311725</speed><course>120.334084</course><hAcc>1.658694</hAcc><vAcc>0.828102</vAcc></extensions></trkpt>
      <trkpt lon="-2.217916" lat="53.111113"><ele>284.119812</ele><time>2022-03-04T11:38:11Z</time><extensions><speed>1.324250</speed><course>121.243034</course><hAcc>1.707235</hAcc><vAcc>0.828066</vAcc></extensions></trkpt>
      <trkpt lon="-2.217900" lat="53.111107"><ele>284.197510</ele><time>2022-03-04T11:38:12Z</time><extensions><speed>1.080936</speed><course>117.734642</course><hAcc>1.661395</hAcc><vAcc>0.828030</vAcc></extensions></trkpt>
      <trkpt lon="-2.217887" lat="53.111104"><ele>284.275360</ele><time>2022-03-04T11:38:13Z</time><extensions><speed>0.826299</speed><course>112.419968</course><hAcc>1.623442</hAcc><vAcc>0.828001</vAcc></extensions></trkpt>
      <trkpt lon="-2.217876" lat="53.111101"><ele>284.348907</ele><time>2022-03-04T11:38:14Z</time><extensions><speed>0.885472</speed><course>110.332108</course><hAcc>1.622856</hAcc><vAcc>0.827981</vAcc></extensions></trkpt>
      <trkpt lon="-2.217862" lat="53.111098"><ele>284.426544</ele><time>2022-03-04T11:38:15Z</time><extensions><speed>0.985520</speed><course>109.484657</course><hAcc>1.633116</hAcc><vAcc>0.827967</vAcc></extensions></trkpt>
      <trkpt lon="-2.217847" lat="53.111094"><ele>284.509857</ele><time>2022-03-04T11:38:16Z</time><extensions><speed>1.184737</speed><course>114.298943</course><hAcc>1.662285</hAcc><vAcc>0.827959</vAcc></extensions></trkpt>
      <trkpt lon="-2.217831" lat="53.111089"><ele>284.601715</ele><time>2022-03-04T11:38:17Z</time><extensions><speed>1.278525</speed><course>118.881470</course><hAcc>1.707948</hAcc><vAcc>0.827956</vAcc></extensions></trkpt>
      <trkpt lon="-2.217815" lat="53.111084"><ele>284.692932</ele><time>2022-03-04T11:38:18Z</time><extensions><speed>1.162714</speed><course>115.149010</course><hAcc>1.669384</hAcc><vAcc>0.827954</vAcc></extensions></trkpt>
      <trkpt lon="-2.217799" lat="53.111080"><ele>284.780884</ele><time>2022-03-04T11:38:19Z</time><extensions><speed>1.131460</speed><course>113.138481</course><hAcc>1.652578</hAcc><vAcc>0.827957</vAcc></extensions></trkpt>
      <trkpt lon="-2.217784" lat="53.111077"><ele>284.886871</ele><time>2022-03-04T11:38:20Z</time><extensions><speed>1.121663</speed><course>110.480629</course><hAcc>1.661682</hAcc><vAcc>0.827965</vAcc></extensions></trkpt>
      <trkpt lon="-2.217768" lat="53.111073"><ele>284.975952</ele><time>2022-03-04T11:38:21Z</time><extensions><speed>1.167444</speed><course>108.938774</course><hAcc>1.671895</hAcc><vAcc>0.827978</vAcc></extensions></trkpt>
      <trkpt lon="-2.217751" lat="53.111070"><ele>285.072388</ele><time>2022-03-04T11:38:22Z</time><extensions><speed>1.157653</speed><course>108.278343</course><hAcc>1.670219</hAcc><vAcc>0.827984</vAcc></extensions></trkpt>
      <trkpt lon="-2.217735" lat="53.111067"><ele>285.179535</ele><time>2022-03-04T11:38:23Z</time><extensions><speed>1.110949</speed><course>109.914116</course><hAcc>1.664996</hAcc><vAcc>0.827994</vAcc></extensions></trkpt>
      <trkpt lon="-2.217720" lat="53.111063"><ele>285.269745</ele><time>2022-03-04T11:38:24Z</time><extensions><speed>1.036191</speed><course>113.592293</course><hAcc>1.658021</hAcc><vAcc>0.828018</vAcc></extensions></trkpt>
      <trkpt lon="-2.217706" lat="53.111059"><ele>285.368652</ele><time>2022-03-04T11:38:25Z</time><extensions><speed>1.069031</speed><course>116.562302</course><hAcc>1.634989</hAcc><vAcc>0.828024</vAcc></extensions></trkpt>
      <trkpt lon="-2.217691" lat="53.111054"><ele>285.460205</ele><time>2022-03-04T11:38:26Z</time><extensions><speed>1.281490</speed><course>119.634499</course><hAcc>1.643462</hAcc><vAcc>0.828022</vAcc></extensions></trkpt>
      <trkpt lon="-2.217674" lat="53.111048"><ele>285.546783</ele><time>2022-03-04T11:38:27Z</time><extensions><speed>1.317021</speed><course>121.766777</course><hAcc>1.688195</hAcc><vAcc>0.827992</vAcc></extensions></trkpt>
      <trkpt lon="-2.217658" lat="53.111043"><ele>285.644623</ele><time>2022-03-04T11:38:28Z</time><extensions><speed>1.155233</speed><course>118.453850</course><hAcc>1.659937</hAcc><vAcc>0.827909</vAcc></extensions></trkpt>
      <trkpt lon="-2.217644" lat="53.111038"><ele>285.749634</ele><time>2022-03-04T11:38:29Z</time><extensions><speed>0.969372</speed><course>116.421104</course><hAcc>1.633579</hAcc><vAcc>0.827832</vAcc></extensions></trkpt>
      <trkpt lon="-2.217632" lat="53.111035"><ele>285.851379</ele><time>2022-03-04T11:38:30Z</time><extensions><speed>0.863566</speed><course>115.026756</course><hAcc>1.642132</hAcc><vAcc>0.827762</vAcc></extensions></trkpt>
      <trkpt lon="-2.217621" lat="53.111032"><ele>285.951752</ele><time>2022-03-04T11:38:31Z</time><extensions><speed>0.716639</speed><course>107.876251</course><hAcc>1.658541</hAcc><vAcc>0.827687</vAcc></extensions></trkpt>
      <trkpt lon="-2.217610" lat="53.111030"><ele>286.036102</ele><time>2022-03-04T11:38:32Z</time><extensions><speed>0.728610</speed><course>106.044357</course><hAcc>1.670079</hAcc><vAcc>0.827609</vAcc></extensions></trkpt>
      <trkpt lon="-2.217600" lat="53.111028"><ele>286.122162</ele><time>2022-03-04T11:38:33Z</time><extensions><speed>0.768740</speed><course>107.537498</course><hAcc>1.680334</hAcc><vAcc>0.827542</vAcc></extensions></trkpt>
      <trkpt lon="-2.217589" lat="53.111026"><ele>286.205902</ele><time>2022-03-04T11:38:34Z</time><extensions><speed>0.695590</speed><course>108.446632</course><hAcc>1.696545</hAcc><vAcc>0.827475</vAcc></extensions></trkpt>
      <trkpt lon="-2.217580" lat="53.111024"><ele>286.293457</ele><time>2022-03-04T11:38:35Z</time><extensions><speed>0.564604</speed><course>107.365829</course><hAcc>1.698466</hAcc><vAcc>0.827385</vAcc></extensions></trkpt>
      <trkpt lon="-2.217574" lat="53.111023"><ele>286.379700</ele><time>2022-03-04T11:38:36Z</time><extensions><speed>0.322982</speed><course>102.946960</course><hAcc>1.709607</hAcc><vAcc>0.827280</vAcc></extensions></trkpt>
      <trkpt lon="-2.217568" lat="53.111023"><ele>286.467468</ele><time>2022-03-04T11:38:37Z</time><extensions><speed>0.458617</speed><course>100.948975</course><hAcc>1.691093</hAcc><vAcc>0.827183</vAcc></extensions></trkpt>
      <trkpt lon="-2.217561" lat="53.111021"><ele>286.550110</ele><time>2022-03-04T11:38:38Z</time><extensions><speed>0.528887</speed><course>105.246719</course><hAcc>1.708349</hAcc><vAcc>0.827103</vAcc></extensions></trkpt>
      <trkpt lon="-2.217553" lat="53.111020"><ele>286.634308</ele><time>2022-03-04T11:38:39Z</time><extensions><speed>0.544876</speed><course>104.418335</course><hAcc>1.724098</hAcc><vAcc>0.827051</vAcc></extensions></trkpt>
      <trkpt lon="-2.217545" lat="53.111019"><ele>286.725098</ele><time>2022-03-04T11:38:40Z</time><extensions><speed>0.544785</speed><course>104.623978</course><hAcc>1.727147</hAcc><vAcc>0.827045</vAcc></extensions></trkpt>
      <trkpt lon="-2.217537" lat="53.111018"><ele>286.807709</ele><time>2022-03-04T11:38:41Z</time><extensions><speed>0.577151</speed><course>98.949471</course><hAcc>1.730865</hAcc><vAcc>0.827040</vAcc></extensions></trkpt>
      <trkpt lon="-2.217528" lat="53.111017"><ele>286.900940</ele><time>2022-03-04T11:38:42Z</time><extensions><speed>0.646509</speed><course>94.016853</course><hAcc>1.739892</hAcc><vAcc>0.827028</vAcc></extensions></trkpt>
      <trkpt lon="-2.217518" lat="53.111017"><ele>287.003571</ele><time>2022-03-04T11:38:43Z</time><extensions><speed>0.679679</speed><course>92.164894</course><hAcc>1.740500</hAcc><vAcc>0.827010</vAcc></extensions></trkpt>
      <trkpt lon="-2.217509" lat="53.111017"><ele>287.109406</ele><time>2022-03-04T11:38:44Z</time><extensions><speed>0.581210</speed><course>92.648514</course><hAcc>1.737026</hAcc><vAcc>0.826969</vAcc></extensions></trkpt>
      <trkpt lon="-2.217501" lat="53.111016"><ele>287.227020</ele><time>2022-03-04T11:38:45Z</time><extensions><speed>0.452633</speed><course>99.179970</course><hAcc>1.740187</hAcc><vAcc>0.826907</vAcc></extensions></trkpt>
      <trkpt lon="-2.217494" lat="53.111015"><ele>287.339996</ele><time>2022-03-04T11:38:46Z</time><extensions><speed>0.475011</speed><course>104.808586</course><hAcc>1.737847</hAcc><vAcc>0.826815</vAcc></extensions></trkpt>
      <trkpt lon="-2.217487" lat="53.111014"><ele>287.453339</ele><time>2022-03-04T11:38:47Z</time><extensions><speed>0.588352</speed><course>106.637497</course><hAcc>1.734735</hAcc><vAcc>0.826692</vAcc></extensions></trkpt>
      <trkpt lon="-2.217476" lat="53.111012"><ele>287.571289</ele><time>2022-03-04T11:38:48Z</time><extensions><speed>0.869037</speed><course>105.475571</course><hAcc>1.726877</hAcc><vAcc>0.826554</vAcc></extensions></trkpt>
      <trkpt lon="-2.217463" lat="53.111011"><ele>287.698029</ele><time>2022-03-04T11:38:49Z</time><extensions><speed>0.917232</speed><course>103.089996</course><hAcc>1.732176</hAcc><vAcc>0.826407</vAcc></extensions></trkpt>
      <trkpt lon="-2.217450" lat="53.111009"><ele>287.824463</ele><time>2022-03-04T11:38:50Z</time><extensions><speed>0.926931</speed><course>103.147972</course><hAcc>1.722768</hAcc><vAcc>0.826236</vAcc></extensions></trkpt>
      <trkpt lon="-2.217436" lat="53.111007"><ele>287.948822</ele><time>2022-03-04T11:38:51Z</time><extensions><speed>0.964692</speed><course>102.041725</course><hAcc>1.709902</hAcc><vAcc>0.826041</vAcc></extensions></trkpt>
      <trkpt lon="-2.217423" lat="53.111005"><ele>288.071228</ele><time>2022-03-04T11:38:52Z</time><extensions><speed>0.791643</speed><course>99.196396</course><hAcc>1.694925</hAcc><vAcc>0.825815</vAcc></extensions></trkpt>
      <trkpt lon="-2.217412" lat="53.111005"><ele>288.190369</ele><time>2022-03-04T11:38:53Z</time><extensions><speed>0.701080</speed><course>98.052795</course><hAcc>1.674064</hAcc><vAcc>0.825566</vAcc></extensions></trkpt>
      <trkpt lon="-2.217404" lat="53.111004"><ele>288.296387</ele><time>2022-03-04T11:38:54Z</time><extensions><speed>0.471903</speed><course>93.801422</course><hAcc>1.645061</hAcc><vAcc>0.825308</vAcc></extensions></trkpt>
      <trkpt lon="-2.217399" lat="53.111004"><ele>288.393341</ele><time>2022-03-04T11:38:55Z</time><extensions><speed>0.203825</speed><course>78.343681</course><hAcc>1.621025</hAcc><vAcc>0.825039</vAcc></extensions></trkpt>
      <trkpt lon="-2.217397" lat="53.111005"><ele>288.479187</ele><time>2022-03-04T11:38:56Z</time><extensions><speed>0.095227</speed><course>359.568512</course><hAcc>1.624460</hAcc><vAcc>0.824800</vAcc></extensions></trkpt>
      <trkpt lon="-2.217398" lat="53.111006"><ele>288.553528</ele><time>2022-03-04T11:38:57Z</time><extensions><speed>0.109522</speed><course>333.672424</course><hAcc>1.621012</hAcc><vAcc>0.824587</vAcc></extensions></trkpt>
      <trkpt lon="-2.217398" lat="53.111006"><ele>288.617493</ele><time>2022-03-04T11:38:58Z</time><extensions><speed>0.116446</speed><course>329.405853</course><hAcc>1.594804</hAcc><vAcc>0.824394</vAcc></extensions></trkpt>
      <trkpt lon="-2.217399" lat="53.111007"><ele>288.663727</ele><time>2022-03-04T11:38:59Z</time><extensions><speed>0.106092</speed><course>327.596527</course><hAcc>1.573972</hAcc><vAcc>0.824237</vAcc></extensions></trkpt>
      <trkpt lon="-2.217400" lat="53.111008"><ele>288.700500</ele><time>2022-03-04T11:39:00Z</time><extensions><speed>0.086626</speed><course>326.580048</course><hAcc>1.567055</hAcc><vAcc>0.823987</vAcc></extensions></trkpt>
      <trkpt lon="-2.217401" lat="53.111008"><ele>288.724792</ele><time>2022-03-04T11:39:01Z</time><extensions><speed>0.064675</speed><course>323.280273</course><hAcc>1.566981</hAcc><vAcc>0.823744</vAcc></extensions></trkpt>
      <trkpt lon="-2.217401" lat="53.111009"><ele>288.740265</ele><time>2022-03-04T11:39:02Z</time><extensions><speed>0.041250</speed><course>311.476288</course><hAcc>1.568434</hAcc><vAcc>0.823330</vAcc></extensions></trkpt>
      <trkpt lon="-2.217401" lat="53.111009"><ele>288.739105</ele><time>2022-03-04T11:39:03Z</time><extensions><speed>0.022633</speed><course>269.079407</course><hAcc>1.569360</hAcc><vAcc>0.822316</vAcc></extensions></trkpt>
      <trkpt lon="-2.217401" lat="53.111008"><ele>288.743500</ele><time>2022-03-04T11:39:04Z</time><extensions><speed>0.037133</speed><course>188.911819</course><hAcc>1.570483</hAcc><vAcc>0.821505</vAcc></extensions></trkpt>
      <trkpt lon="-2.217401" lat="53.111008"><ele>288.746643</ele><time>2022-03-04T11:39:05Z</time><extensions><speed>0.081285</speed><course>164.257294</course><hAcc>1.574013</hAcc><vAcc>0.820533</vAcc></extensions></trkpt>
      <trkpt lon="-2.217400" lat="53.111007"><ele>288.757477</ele><time>2022-03-04T11:39:06Z</time><extensions><speed>0.129015</speed><course>154.358337</course><hAcc>1.578540</hAcc><vAcc>0.819484</vAcc></extensions></trkpt>
      <trkpt lon="-2.217399" lat="53.111005"><ele>288.755524</ele><time>2022-03-04T11:39:08Z</time><extensions><speed>0.170185</speed><course>146.824295</course><hAcc>1.585652</hAcc><vAcc>0.818379</vAcc></extensions></trkpt>
      <trkpt lon="-2.217397" lat="53.111004"><ele>288.752625</ele><time>2022-03-04T11:39:09Z</time><extensions><speed>0.199862</speed><course>141.257538</course><hAcc>1.593907</hAcc><vAcc>0.817184</vAcc></extensions></trkpt>
      <trkpt lon="-2.217395" lat="53.111003"><ele>288.754608</ele><time>2022-03-04T11:39:10Z</time><extensions><speed>0.227631</speed><course>137.719009</course><hAcc>1.604862</hAcc><vAcc>0.815976</vAcc></extensions></trkpt>
      <trkpt lon="-2.217393" lat="53.111001"><ele>288.762878</ele><time>2022-03-04T11:39:11Z</time><extensions><speed>0.262170</speed><course>135.603638</course><hAcc>1.622712</hAcc><vAcc>0.814824</vAcc></extensions></trkpt>
      <trkpt lon="-2.217390" lat="53.110999"><ele>288.794861</ele><time>2022-03-04T11:39:12Z</time><extensions><speed>0.315319</speed><course>131.882614</course><hAcc>1.646685</hAcc><vAcc>0.813806</vAcc></extensions></trkpt>
      <trkpt lon="-2.217385" lat="53.110997"><ele>288.791229</ele><time>2022-03-04T11:39:13Z</time><extensions><speed>0.421985</speed><course>125.690338</course><hAcc>1.669042</hAcc><vAcc>0.813016</vAcc></extensions></trkpt>
      <trkpt lon="-2.217378" lat="53.110995"><ele>288.803650</ele><time>2022-03-04T11:39:14Z</time><extensions><speed>0.655501</speed><course>119.969833</course><hAcc>1.677851</hAcc><vAcc>0.812560</vAcc></extensions></trkpt>
      <trkpt lon="-2.217367" lat="53.110991"><ele>288.824066</ele><time>2022-03-04T11:39:15Z</time><extensions><speed>1.103703</speed><course>116.911469</course><hAcc>1.674727</hAcc><vAcc>0.812502</vAcc></extensions></trkpt>
      <trkpt lon="-2.217351" lat="53.110986"><ele>288.861328</ele><time>2022-03-04T11:39:16Z</time><extensions><speed>1.300982</speed><course>116.969780</course><hAcc>1.694217</hAcc><vAcc>0.812827</vAcc></extensions></trkpt>
      <trkpt lon="-2.217335" lat="53.110981"><ele>288.885315</ele><time>2022-03-04T11:39:17Z</time><extensions><speed>1.028283</speed><course>119.992928</course><hAcc>1.722326</hAcc><vAcc>0.813493</vAcc></extensions></trkpt>
      <trkpt lon="-2.217323" lat="53.110978"><ele>288.911835</ele><time>2022-03-04T11:39:18Z</time><extensions><speed>0.803067</speed><course>116.448975</course><hAcc>1.730564</hAcc><vAcc>0.814419</vAcc></extensions></trkpt>
      <trkpt lon="-2.217312" lat="53.110975"><ele>288.937225</ele><time>2022-03-04T11:39:19Z</time><extensions><speed>0.792636</speed><course>110.158875</course><hAcc>1.709876</hAcc><vAcc>0.815511</vAcc></extensions></trkpt>
      <trkpt lon="-2.217300" lat="53.110972"><ele>288.961334</ele><time>2022-03-04T11:39:20Z</time><extensions><speed>0.982668</speed><course>107.212791</course><hAcc>1.697448</hAcc><vAcc>0.816699</vAcc></extensions></trkpt>
      <trkpt lon="-2.217284" lat="53.110969"><ele>288.991119</ele><time>2022-03-04T11:39:21Z</time><extensions><speed>1.173373</speed><course>105.404045</course><hAcc>1.683913</hAcc><vAcc>0.817928</vAcc></extensions></trkpt>
      <trkpt lon="-2.217266" lat="53.110967"><ele>289.018768</ele><time>2022-03-04T11:39:22Z</time><extensions><speed>1.282212</speed><course>104.539673</course><hAcc>1.670281</hAcc><vAcc>0.819135</vAcc></extensions></trkpt>
      <trkpt lon="-2.217247" lat="53.110963"><ele>289.050629</ele><time>2022-03-04T11:39:23Z</time><extensions><speed>1.403449</speed><course>106.526360</course><hAcc>1.679225</hAcc><vAcc>0.820273</vAcc></extensions></trkpt>
      <trkpt lon="-2.217227" lat="53.110960"><ele>289.081848</ele><time>2022-03-04T11:39:24Z</time><extensions><speed>1.391492</speed><course>110.233353</course><hAcc>1.718385</hAcc><vAcc>0.821317</vAcc></extensions></trkpt>
      <trkpt lon="-2.217208" lat="53.110956"><ele>289.114990</ele><time>2022-03-04T11:39:25Z</time><extensions><speed>1.245095</speed><course>104.658325</course><hAcc>1.688546</hAcc><vAcc>0.822238</vAcc></extensions></trkpt>
      <trkpt lon="-2.217192" lat="53.110954"><ele>289.119049</ele><time>2022-03-04T11:39:26Z</time><extensions><speed>1.004743</speed><course>96.958145</course><hAcc>1.671262</hAcc><vAcc>0.822973</vAcc></extensions></trkpt>
      <trkpt lon="-2.217177" lat="53.110953"><ele>289.144440</ele><time>2022-03-04T11:39:27Z</time><extensions><speed>0.955084</speed><course>93.294937</course><hAcc>1.677271</hAcc><vAcc>0.823557</vAcc></extensions></trkpt>
      <trkpt lon="-2.217163" lat="53.110953"><ele>289.172333</ele><time>2022-03-04T11:39:28Z</time><extensions><speed>0.966063</speed><course>87.460205</course><hAcc>1.681296</hAcc><vAcc>0.823997</vAcc></extensions></trkpt>
      <trkpt lon="-2.217147" lat="53.110954"><ele>289.213898</ele><time>2022-03-04T11:39:29Z</time><extensions><speed>1.081548</speed><course>83.150871</course><hAcc>1.691964</hAcc><vAcc>0.824289</vAcc></extensions></trkpt>
      <trkpt lon="-2.217131" lat="53.110956"><ele>289.257202</ele><time>2022-03-04T11:39:30Z</time><extensions><speed>1.126000</speed><course>80.312195</course><hAcc>1.709944</hAcc><vAcc>0.824459</vAcc></extensions></trkpt>
      <trkpt lon="-2.217114" lat="53.110958"><ele>289.316772</ele><time>2022-03-04T11:39:31Z</time><extensions><speed>1.182286</speed><course>72.825638</course><hAcc>1.711400</hAcc><vAcc>0.824528</vAcc></extensions></trkpt>
      <trkpt lon="-2.217097" lat="53.110962"><ele>289.393616</ele><time>2022-03-04T11:39:32Z</time><extensions><speed>1.244851</speed><course>65.836884</course><hAcc>1.694260</hAcc><vAcc>0.824498</vAcc></extensions></trkpt>
      <trkpt lon="-2.217081" lat="53.110967"><ele>289.484802</ele><time>2022-03-04T11:39:33Z</time><extensions><speed>1.163658</speed><course>56.393093</course><hAcc>1.687665</hAcc><vAcc>0.824391</vAcc></extensions></trkpt>
      <trkpt lon="-2.217068" lat="53.110973"><ele>289.592102</ele><time>2022-03-04T11:39:34Z</time><extensions><speed>1.045497</speed><course>44.893948</course><hAcc>1.691436</hAcc><vAcc>0.824210</vAcc></extensions></trkpt>
      <trkpt lon="-2.217057" lat="53.110980"><ele>289.714874</ele><time>2022-03-04T11:39:35Z</time><extensions><speed>1.032154</speed><course>40.919380</course><hAcc>1.684301</hAcc><vAcc>0.824003</vAcc></extensions></trkpt>
      <trkpt lon="-2.217047" lat="53.110988"><ele>289.851685</ele><time>2022-03-04T11:39:36Z</time><extensions><speed>1.086138</speed><course>39.525070</course><hAcc>1.676013</hAcc><vAcc>0.823801</vAcc></extensions></trkpt>
      <trkpt lon="-2.217035" lat="53.110996"><ele>290.010681</ele><time>2022-03-04T11:39:37Z</time><extensions><speed>1.282352</speed><course>41.614529</course><hAcc>1.674624</hAcc><vAcc>0.823623</vAcc></extensions></trkpt>
      <trkpt lon="-2.217021" lat="53.111004"><ele>290.180847</ele><time>2022-03-04T11:39:38Z</time><extensions><speed>1.347477</speed><course>45.919197</course><hAcc>1.672691</hAcc><vAcc>0.823484</vAcc></extensions></trkpt>
      <trkpt lon="-2.217005" lat="53.111013"><ele>290.375763</ele><time>2022-03-04T11:39:39Z</time><extensions><speed>1.492304</speed><course>50.385681</course><hAcc>1.643761</hAcc><vAcc>0.823372</vAcc></extensions></trkpt>
      <trkpt lon="-2.216987" lat="53.111022"><ele>290.576019</ele><time>2022-03-04T11:39:40Z</time><extensions><speed>1.637682</speed><course>50.931034</course><hAcc>1.626739</hAcc><vAcc>0.823323</vAcc></extensions></trkpt>
      <trkpt lon="-2.216968" lat="53.111032"><ele>290.783325</ele><time>2022-03-04T11:39:41Z</time><extensions><speed>1.717403</speed><course>48.892193</course><hAcc>1.633972</hAcc><vAcc>0.823391</vAcc></extensions></trkpt>
      <trkpt lon="-2.216949" lat="53.111042"><ele>290.997650</ele><time>2022-03-04T11:39:42Z</time><extensions><speed>1.716982</speed><course>45.424896</course><hAcc>1.644114</hAcc><vAcc>0.823497</vAcc></extensions></trkpt>
      <trkpt lon="-2.216932" lat="53.111053"><ele>291.221741</ele><time>2022-03-04T11:39:43Z</time><extensions><speed>1.744871</speed><course>41.854183</course><hAcc>1.615005</hAcc><vAcc>0.823671</vAcc></extensions></trkpt>
      <trkpt lon="-2.216915" lat="53.111065"><ele>291.413330</ele><time>2022-03-04T11:39:44Z</time><extensions><speed>1.717776</speed><course>39.260063</course><hAcc>1.598764</hAcc><vAcc>0.823872</vAcc></extensions></trkpt>
      <trkpt lon="-2.216900" lat="53.111077"><ele>291.610504</ele><time>2022-03-04T11:39:45Z</time><extensions><speed>1.594868</speed><course>36.512276</course><hAcc>1.598041</hAcc><vAcc>0.824132</vAcc></extensions></trkpt>
      <trkpt lon="-2.216887" lat="53.111088"><ele>291.806824</ele><time>2022-03-04T11:39:46Z</time><extensions><speed>1.474325</speed><course>34.114864</course><hAcc>1.616833</hAcc><vAcc>0.824359</vAcc></extensions></trkpt>
      <trkpt lon="-2.216875" lat="53.111099"><ele>291.976746</ele><time>2022-03-04T11:39:47Z</time><extensions><speed>1.334204</speed><course>31.135498</course><hAcc>1.624727</hAcc><vAcc>0.824561</vAcc></extensions></trkpt>
      <trkpt lon="-2.216866" lat="53.111109"><ele>292.130951</ele><time>2022-03-04T11:39:48Z</time><extensions><speed>1.207179</speed><course>26.968557</course><hAcc>1.609556</hAcc><vAcc>0.824760</vAcc></extensions></trkpt>
      <trkpt lon="-2.216859" lat="53.111119"><ele>292.273529</ele><time>2022-03-04T11:39:49Z</time><extensions><speed>1.185425</speed><course>24.546398</course><hAcc>1.598212</hAcc><vAcc>0.824916</vAcc></extensions></trkpt>
      <trkpt lon="-2.216852" lat="53.111128"><ele>292.391296</ele><time>2022-03-04T11:39:50Z</time><extensions><speed>1.055108</speed><course>19.699146</course><hAcc>1.617624</hAcc><vAcc>0.825013</vAcc></extensions></trkpt>
      <trkpt lon="-2.216848" lat="53.111136"><ele>292.509735</ele><time>2022-03-04T11:39:51Z</time><extensions><speed>0.952325</speed><course>17.173302</course><hAcc>1.651783</hAcc><vAcc>0.825076</vAcc></extensions></trkpt>
      <trkpt lon="-2.216844" lat="53.111144"><ele>292.631226</ele><time>2022-03-04T11:39:52Z</time><extensions><speed>0.873315</speed><course>14.302790</course><hAcc>1.637177</hAcc><vAcc>0.825104</vAcc></extensions></trkpt>
      <trkpt lon="-2.216841" lat="53.111152"><ele>292.735199</ele><time>2022-03-04T11:39:53Z</time><extensions><speed>0.912111</speed><course>11.128087</course><hAcc>1.630697</hAcc><vAcc>0.825078</vAcc></extensions></trkpt>
      <trkpt lon="-2.216838" lat="53.111161"><ele>292.828461</ele><time>2022-03-04T11:39:54Z</time><extensions><speed>1.002032</speed><course>10.734925</course><hAcc>1.643529</hAcc><vAcc>0.824996</vAcc></extensions></trkpt>
      <trkpt lon="-2.216835" lat="53.111170"><ele>292.905487</ele><time>2022-03-04T11:39:55Z</time><extensions><speed>1.136423</speed><course>11.135447</course><hAcc>1.668504</hAcc><vAcc>0.824856</vAcc></extensions></trkpt>
      <trkpt lon="-2.216833" lat="53.111181"><ele>292.983429</ele><time>2022-03-04T11:39:56Z</time><extensions><speed>1.292565</speed><course>5.852627</course><hAcc>1.659648</hAcc><vAcc>0.824682</vAcc></extensions></trkpt>
      <trkpt lon="-2.216831" lat="53.111193"><ele>293.055481</ele><time>2022-03-04T11:39:57Z</time><extensions><speed>1.333211</speed><course>3.030918</course><hAcc>1.660344</hAcc><vAcc>0.824532</vAcc></extensions></trkpt>
      <trkpt lon="-2.216830" lat="53.111205"><ele>293.105713</ele><time>2022-03-04T11:39:58Z</time><extensions><speed>1.291268</speed><course>2.326337</course><hAcc>1.669214</hAcc><vAcc>0.824381</vAcc></extensions></trkpt>
      <trkpt lon="-2.216829" lat="53.111216"><ele>293.155884</ele><time>2022-03-04T11:39:59Z</time><extensions><speed>1.250075</speed><course>5.186060</course><hAcc>1.674899</hAcc><vAcc>0.824228</vAcc></extensions></trkpt>
      <trkpt lon="-2.216827" lat="53.111227"><ele>293.225647</ele><time>2022-03-04T11:40:00Z</time><extensions><speed>1.302794</speed><course>8.955288</course><hAcc>1.676420</hAcc><vAcc>0.824105</vAcc></extensions></trkpt>
      <trkpt lon="-2.216823" lat="53.111239"><ele>293.274963</ele><time>2022-03-04T11:40:00Z</time><extensions><speed>1.380462</speed><course>12.356000</course><hAcc>1.679404</hAcc><vAcc>0.824042</vAcc></extensions></trkpt>
      <trkpt lon="-2.216818" lat="53.111251"><ele>293.322693</ele><time>2022-03-04T11:40:01Z</time><extensions><speed>1.361291</speed><course>12.912072</course><hAcc>1.678603</hAcc><vAcc>0.824027</vAcc></extensions></trkpt>
      <trkpt lon="-2.216814" lat="53.111263"><ele>293.360992</ele><time>2022-03-04T11:40:02Z</time><extensions><speed>1.387655</speed><course>10.398350</course><hAcc>1.672848</hAcc><vAcc>0.824062</vAcc></extensions></trkpt>
      <trkpt lon="-2.216810" lat="53.111276"><ele>293.389893</ele><time>2022-03-04T11:40:03Z</time><extensions><speed>1.411742</speed><course>11.822378</course><hAcc>1.660548</hAcc><vAcc>0.824125</vAcc></extensions></trkpt>
      <trkpt lon="-2.216805" lat="53.111288"><ele>293.448242</ele><time>2022-03-04T11:40:04Z</time><extensions><speed>1.396651</speed><course>14.969234</course><hAcc>1.649592</hAcc><vAcc>0.824256</vAcc></extensions></trkpt>
      <trkpt lon="-2.216799" lat="53.111300"><ele>293.516510</ele><time>2022-03-04T11:40:05Z</time><extensions><speed>1.404895</speed><course>18.224144</course><hAcc>1.656322</hAcc><vAcc>0.824426</vAcc></extensions></trkpt>
      <trkpt lon="-2.216792" lat="53.111311"><ele>293.586761</ele><time>2022-03-04T11:40:06Z</time><extensions><speed>1.272557</speed><course>21.353928</course><hAcc>1.681445</hAcc><vAcc>0.824574</vAcc></extensions></trkpt>
      <trkpt lon="-2.216786" lat="53.111322"><ele>293.654297</ele><time>2022-03-04T11:40:07Z</time><extensions><speed>1.120257</speed><course>21.007668</course><hAcc>1.664917</hAcc><vAcc>0.824743</vAcc></extensions></trkpt>
      <trkpt lon="-2.216779" lat="53.111331"><ele>293.736664</ele><time>2022-03-04T11:40:08Z</time><extensions><speed>1.164505</speed><course>24.189032</course><hAcc>1.652532</hAcc><vAcc>0.824867</vAcc></extensions></trkpt>
      <trkpt lon="-2.216772" lat="53.111341"><ele>293.831696</ele><time>2022-03-04T11:40:09Z</time><extensions><speed>1.234581</speed><course>27.894533</course><hAcc>1.654297</hAcc><vAcc>0.824955</vAcc></extensions></trkpt>
      <trkpt lon="-2.216763" lat="53.111350"><ele>293.921173</ele><time>2022-03-04T11:40:10Z</time><extensions><speed>1.213580</speed><course>31.712086</course><hAcc>1.658417</hAcc><vAcc>0.825011</vAcc></extensions></trkpt>
      <trkpt lon="-2.216753" lat="53.111359"><ele>294.014771</ele><time>2022-03-04T11:40:11Z</time><extensions><speed>1.135039</speed><course>31.332674</course><hAcc>1.654257</hAcc><vAcc>0.825023</vAcc></extensions></trkpt>
      <trkpt lon="-2.216744" lat="53.111369"><ele>294.112213</ele><time>2022-03-04T11:40:12Z</time><extensions><speed>1.282232</speed><course>30.438520</course><hAcc>1.646501</hAcc><vAcc>0.825047</vAcc></extensions></trkpt>
      <trkpt lon="-2.216734" lat="53.111379"><ele>294.218323</ele><time>2022-03-04T11:40:13Z</time><extensions><speed>1.412250</speed><course>28.703739</course><hAcc>1.643552</hAcc><vAcc>0.825032</vAcc></extensions></trkpt>
      <trkpt lon="-2.216724" lat="53.111391"><ele>294.313446</ele><time>2022-03-04T11:40:14Z</time><extensions><speed>1.520296</speed><course>28.431955</course><hAcc>1.657346</hAcc><vAcc>0.824998</vAcc></extensions></trkpt>
      <trkpt lon="-2.216713" lat="53.111403"><ele>294.403748</ele><time>2022-03-04T11:40:15Z</time><extensions><speed>1.507786</speed><course>26.396322</course><hAcc>1.661130</hAcc><vAcc>0.824956</vAcc></extensions></trkpt>
      <trkpt lon="-2.216704" lat="53.111415"><ele>294.507111</ele><time>2022-03-04T11:40:16Z</time><extensions><speed>1.492386</speed><course>22.736555</course><hAcc>1.638855</hAcc><vAcc>0.824904</vAcc></extensions></trkpt>
      <trkpt lon="-2.216695" lat="53.111427"><ele>294.601135</ele><time>2022-03-04T11:40:17Z</time><extensions><speed>1.451803</speed><course>22.653303</course><hAcc>1.643005</hAcc><vAcc>0.824843</vAcc></extensions></trkpt>
      <trkpt lon="-2.216687" lat="53.111439"><ele>294.682281</ele><time>2022-03-04T11:40:18Z</time><extensions><speed>1.408609</speed><course>24.174259</course><hAcc>1.639960</hAcc><vAcc>0.824790</vAcc></extensions></trkpt>
      <trkpt lon="-2.216678" lat="53.111450"><ele>294.769989</ele><time>2022-03-04T11:40:19Z</time><extensions><speed>1.366912</speed><course>25.648619</course><hAcc>1.638090</hAcc><vAcc>0.824770</vAcc></extensions></trkpt>
      <trkpt lon="-2.216669" lat="53.111461"><ele>294.863953</ele><time>2022-03-04T11:40:20Z</time><extensions><speed>1.319432</speed><course>26.760866</course><hAcc>1.642528</hAcc><vAcc>0.824781</vAcc></extensions></trkpt>
      <trkpt lon="-2.216660" lat="53.111472"><ele>294.957336</ele><time>2022-03-04T11:40:21Z</time><extensions><speed>1.400998</speed><course>29.401134</course><hAcc>1.658054</hAcc><vAcc>0.824811</vAcc></extensions></trkpt>
      <trkpt lon="-2.216649" lat="53.111483"><ele>295.050171</ele><time>2022-03-04T11:40:22Z</time><extensions><speed>1.363154</speed><course>31.371819</course><hAcc>1.683550</hAcc><vAcc>0.824860</vAcc></extensions></trkpt>
      <trkpt lon="-2.216638" lat="53.111493"><ele>295.151031</ele><time>2022-03-04T11:40:23Z</time><extensions><speed>1.293782</speed><course>34.320507</course><hAcc>1.665907</hAcc><vAcc>0.824933</vAcc></extensions></trkpt>
      <trkpt lon="-2.216627" lat="53.111502"><ele>295.250458</ele><time>2022-03-04T11:40:24Z</time><extensions><speed>1.256195</speed><course>36.591568</course><hAcc>1.660951</hAcc><vAcc>0.825013</vAcc></extensions></trkpt>
      <trkpt lon="-2.216616" lat="53.111511"><ele>295.359680</ele><time>2022-03-04T11:40:25Z</time><extensions><speed>1.303804</speed><course>38.144146</course><hAcc>1.669140</hAcc><vAcc>0.825087</vAcc></extensions></trkpt>
      <trkpt lon="-2.216604" lat="53.111521"><ele>295.472321</ele><time>2022-03-04T11:40:26Z</time><extensions><speed>1.335939</speed><course>36.247231</course><hAcc>1.675660</hAcc><vAcc>0.825159</vAcc></extensions></trkpt>
      <trkpt lon="-2.216592" lat="53.111531"><ele>295.592407</ele><time>2022-03-04T11:40:27Z</time><extensions><speed>1.408153</speed><course>35.788284</course><hAcc>1.677658</hAcc><vAcc>0.825255</vAcc></extensions></trkpt>
      <trkpt lon="-2.216579" lat="53.111541"><ele>295.720764</ele><time>2022-03-04T11:40:28Z</time><extensions><speed>1.436192</speed><course>35.593784</course><hAcc>1.678853</hAcc><vAcc>0.825344</vAcc></extensions></trkpt>
      <trkpt lon="-2.216567" lat="53.111551"><ele>295.854431</ele><time>2022-03-04T11:40:29Z</time><extensions><speed>1.419317</speed><course>35.727360</course><hAcc>1.681594</hAcc><vAcc>0.825397</vAcc></extensions></trkpt>
      <trkpt lon="-2.216555" lat="53.111562"><ele>295.980499</ele><time>2022-03-04T11:40:30Z</time><extensions><speed>1.358361</speed><course>34.886318</course><hAcc>1.681976</hAcc><vAcc>0.825425</vAcc></extensions></trkpt>
      <trkpt lon="-2.216544" lat="53.111572"><ele>296.121918</ele><time>2022-03-04T11:40:31Z</time><extensions><speed>1.326600</speed><course>33.273247</course><hAcc>1.672152</hAcc><vAcc>0.825420</vAcc></extensions></trkpt>
      <trkpt lon="-2.216533" lat="53.111582"><ele>296.280457</ele><time>2022-03-04T11:40:32Z</time><extensions><speed>1.398275</speed><course>31.515104</course><hAcc>1.660181</hAcc><vAcc>0.825418</vAcc></extensions></trkpt>
      <trkpt lon="-2.216522" lat="53.111593"><ele>296.418121</ele><time>2022-03-04T11:40:33Z</time><extensions><speed>1.445475</speed><course>29.322332</course><hAcc>1.646900</hAcc><vAcc>0.825443</vAcc></extensions></trkpt>
      <trkpt lon="-2.216512" lat="53.111604"><ele>296.569824</ele><time>2022-03-04T11:40:34Z</time><extensions><speed>1.428465</speed><course>27.092173</course><hAcc>1.625748</hAcc><vAcc>0.825443</vAcc></extensions></trkpt>
      <trkpt lon="-2.216503" lat="53.111616"><ele>296.709106</ele><time>2022-03-04T11:40:35Z</time><extensions><speed>1.375830</speed><course>25.200178</course><hAcc>1.603343</hAcc><vAcc>0.825461</vAcc></extensions></trkpt>
      <trkpt lon="-2.216494" lat="53.111627"><ele>296.847839</ele><time>2022-03-04T11:40:36Z</time><extensions><speed>1.396260</speed><course>25.051414</course><hAcc>1.614804</hAcc><vAcc>0.825519</vAcc></extensions></trkpt>
      <trkpt lon="-2.216485" lat="53.111638"><ele>296.971039</ele><time>2022-03-04T11:40:37Z</time><extensions><speed>1.385639</speed><course>24.784489</course><hAcc>1.660366</hAcc><vAcc>0.825558</vAcc></extensions></trkpt>
      <trkpt lon="-2.216477" lat="53.111649"><ele>297.096802</ele><time>2022-03-04T11:40:38Z</time><extensions><speed>1.218783</speed><course>22.831612</course><hAcc>1.595364</hAcc><vAcc>0.825598</vAcc></extensions></trkpt>
      <trkpt lon="-2.216471" lat="53.111659"><ele>297.214050</ele><time>2022-03-04T11:40:39Z</time><extensions><speed>1.142629</speed><course>20.398331</course><hAcc>1.548354</hAcc><vAcc>0.825653</vAcc></extensions></trkpt>
      <trkpt lon="-2.216465" lat="53.111668"><ele>297.343903</ele><time>2022-03-04T11:40:40Z</time><extensions><speed>1.185779</speed><course>20.562069</course><hAcc>1.529795</hAcc><vAcc>0.825717</vAcc></extensions></trkpt>
      <trkpt lon="-2.216458" lat="53.111679"><ele>297.442902</ele><time>2022-03-04T11:40:41Z</time><extensions><speed>1.287142</speed><course>20.192717</course><hAcc>1.539051</hAcc><vAcc>0.825830</vAcc></extensions></trkpt>
      <trkpt lon="-2.216452" lat="53.111690"><ele>297.548462</ele><time>2022-03-04T11:40:42Z</time><extensions><speed>1.403954</speed><course>16.460833</course><hAcc>1.589429</hAcc><vAcc>0.825966</vAcc></extensions></trkpt>
      <trkpt lon="-2.216446" lat="53.111702"><ele>297.648315</ele><time>2022-03-04T11:40:43Z</time><extensions><speed>1.377897</speed><course>15.537880</course><hAcc>1.587864</hAcc><vAcc>0.826103</vAcc></extensions></trkpt>
      <trkpt lon="-2.216439" lat="53.111714"><ele>297.745270</ele><time>2022-03-04T11:40:44Z</time><extensions><speed>1.351533</speed><course>24.189329</course><hAcc>1.541813</hAcc><vAcc>0.826266</vAcc></extensions></trkpt>
      <trkpt lon="-2.216430" lat="53.111724"><ele>297.828461</ele><time>2022-03-04T11:40:45Z</time><extensions><speed>1.352927</speed><course>29.703527</course><hAcc>1.553985</hAcc><vAcc>0.826408</vAcc></extensions></trkpt>
      <trkpt lon="-2.216420" lat="53.111735"><ele>297.920837</ele><time>2022-03-04T11:40:46Z</time><extensions><speed>1.296800</speed><course>30.660404</course><hAcc>1.577384</hAcc><vAcc>0.826535</vAcc></extensions></trkpt>
      <trkpt lon="-2.216411" lat="53.111744"><ele>298.013611</ele><time>2022-03-04T11:40:47Z</time><extensions><speed>1.159465</speed><course>28.055305</course><hAcc>1.566778</hAcc><vAcc>0.826631</vAcc></extensions></trkpt>
      <trkpt lon="-2.216404" lat="53.111754"><ele>298.080597</ele><time>2022-03-04T11:40:48Z</time><extensions><speed>1.152586</speed><course>26.349806</course><hAcc>1.557492</hAcc><vAcc>0.826700</vAcc></extensions></trkpt>
      <trkpt lon="-2.216396" lat="53.111763"><ele>298.159210</ele><time>2022-03-04T11:40:49Z</time><extensions><speed>1.187392</speed><course>24.923592</course><hAcc>1.550770</hAcc><vAcc>0.826760</vAcc></extensions></trkpt>
      <trkpt lon="-2.216388" lat="53.111773"><ele>298.226654</ele><time>2022-03-04T11:40:50Z</time><extensions><speed>1.316328</speed><course>23.901484</course><hAcc>1.564397</hAcc><vAcc>0.826835</vAcc></extensions></trkpt>
      <trkpt lon="-2.216380" lat="53.111785"><ele>298.305023</ele><time>2022-03-04T11:40:51Z</time><extensions><speed>1.408202</speed><course>22.534246</course><hAcc>1.605504</hAcc><vAcc>0.826900</vAcc></extensions></trkpt>
      <trkpt lon="-2.216372" lat="53.111796"><ele>298.381073</ele><time>2022-03-04T11:40:52Z</time><extensions><speed>1.422986</speed><course>25.365074</course><hAcc>1.573025</hAcc><vAcc>0.826951</vAcc></extensions></trkpt>
      <trkpt lon="-2.216362" lat="53.111808"><ele>298.466217</ele><time>2022-03-04T11:40:53Z</time><extensions><speed>1.436863</speed><course>28.828257</course><hAcc>1.563954</hAcc><vAcc>0.827001</vAcc></extensions></trkpt>
      <trkpt lon="-2.216351" lat="53.111819"><ele>298.567444</ele><time>2022-03-04T11:40:54Z</time><extensions><speed>1.417764</speed><course>30.495422</course><hAcc>1.602170</hAcc><vAcc>0.827035</vAcc></extensions></trkpt>
      <trkpt lon="-2.216341" lat="53.111829"><ele>298.666779</ele><time>2022-03-04T11:40:55Z</time><extensions><speed>1.315839</speed><course>28.509565</course><hAcc>1.579013</hAcc><vAcc>0.827048</vAcc></extensions></trkpt>
      <trkpt lon="-2.216333" lat="53.111840"><ele>298.768097</ele><time>2022-03-04T11:40:56Z</time><extensions><speed>1.244500</speed><course>25.216883</course><hAcc>1.577350</hAcc><vAcc>0.827072</vAcc></extensions></trkpt>
      <trkpt lon="-2.216325" lat="53.111850"><ele>298.869537</ele><time>2022-03-04T11:40:57Z</time><extensions><speed>1.229456</speed><course>23.799637</course><hAcc>1.586339</hAcc><vAcc>0.827090</vAcc></extensions></trkpt>
      <trkpt lon="-2.216318" lat="53.111860"><ele>298.979126</ele><time>2022-03-04T11:40:58Z</time><extensions><speed>1.254553</speed><course>24.331955</course><hAcc>1.588467</hAcc><vAcc>0.827095</vAcc></extensions></trkpt>
      <trkpt lon="-2.216310" lat="53.111870"><ele>299.108673</ele><time>2022-03-04T11:40:59Z</time><extensions><speed>1.300205</speed><course>24.639673</course><hAcc>1.587436</hAcc><vAcc>0.827110</vAcc></extensions></trkpt>
      <trkpt lon="-2.216301" lat="53.111881"><ele>299.247498</ele><time>2022-03-04T11:41:00Z</time><extensions><speed>1.375002</speed><course>26.130421</course><hAcc>1.587110</hAcc><vAcc>0.827125</vAcc></extensions></trkpt>
      <trkpt lon="-2.216292" lat="53.111892"><ele>299.383820</ele><time>2022-03-04T11:41:01Z</time><extensions><speed>1.422789</speed><course>27.314310</course><hAcc>1.551241</hAcc><vAcc>0.827137</vAcc></extensions></trkpt>
      <trkpt lon="-2.216282" lat="53.111904"><ele>299.515228</ele><time>2022-03-04T11:41:02Z</time><extensions><speed>1.459981</speed><course>29.740936</course><hAcc>1.535257</hAcc><vAcc>0.827142</vAcc></extensions></trkpt>
      <trkpt lon="-2.216271" lat="53.111915"><ele>299.642578</ele><time>2022-03-04T11:41:03Z</time><extensions><speed>1.442173</speed><course>32.000698</course><hAcc>1.556875</hAcc><vAcc>0.827135</vAcc></extensions></trkpt>
      <trkpt lon="-2.216259" lat="53.111926"><ele>299.772034</ele><time>2022-03-04T11:41:04Z</time><extensions><speed>1.418346</speed><course>33.647255</course><hAcc>1.557927</hAcc><vAcc>0.827145</vAcc></extensions></trkpt>
      <trkpt lon="-2.216248" lat="53.111936"><ele>299.879700</ele><time>2022-03-04T11:41:05Z</time><extensions><speed>1.396845</speed><course>29.409746</course><hAcc>1.535582</hAcc><vAcc>0.827139</vAcc></extensions></trkpt>
      <trkpt lon="-2.216238" lat="53.111948"><ele>299.989960</ele><time>2022-03-04T11:41:06Z</time><extensions><speed>1.391775</speed><course>24.831266</course><hAcc>1.559438</hAcc><vAcc>0.827123</vAcc></extensions></trkpt>
      <trkpt lon="-2.216230" lat="53.111959"><ele>300.089386</ele><time>2022-03-04T11:41:07Z</time><extensions><speed>1.312518</speed><course>22.291378</course><hAcc>1.565099</hAcc><vAcc>0.827101</vAcc></extensions></trkpt>
      <trkpt lon="-2.216223" lat="53.111969"><ele>300.177856</ele><time>2022-03-04T11:41:08Z</time><extensions><speed>1.199542</speed><course>22.207066</course><hAcc>1.574177</hAcc><vAcc>0.827073</vAcc></extensions></trkpt>
      <trkpt lon="-2.216216" lat="53.111979"><ele>300.251404</ele><time>2022-03-04T11:41:09Z</time><extensions><speed>1.135724</speed><course>22.728128</course><hAcc>1.604983</hAcc><vAcc>0.827041</vAcc></extensions></trkpt>
      <trkpt lon="-2.216210" lat="53.111988"><ele>300.317902</ele><time>2022-03-04T11:41:10Z</time><extensions><speed>1.048257</speed><course>26.085793</course><hAcc>1.634809</hAcc><vAcc>0.827024</vAcc></extensions></trkpt>
      <trkpt lon="-2.216202" lat="53.111995"><ele>300.374451</ele><time>2022-03-04T11:41:11Z</time><extensions><speed>0.942758</speed><course>31.834400</course><hAcc>1.655631</hAcc><vAcc>0.827021</vAcc></extensions></trkpt>
      <trkpt lon="-2.216195" lat="53.112002"><ele>300.415924</ele><time>2022-03-04T11:41:12Z</time><extensions><speed>0.802268</speed><course>38.266430</course><hAcc>1.670677</hAcc><vAcc>0.827032</vAcc></extensions></trkpt>
      <trkpt lon="-2.216188" lat="53.112007"><ele>300.448120</ele><time>2022-03-04T11:41:14Z</time><extensions><speed>0.674233</speed><course>46.230179</course><hAcc>1.679015</hAcc><vAcc>0.827046</vAcc></extensions></trkpt>
      <trkpt lon="-2.216180" lat="53.112011"><ele>300.472321</ele><time>2022-03-04T11:41:15Z</time><extensions><speed>0.638604</speed><course>52.570164</course><hAcc>1.684371</hAcc><vAcc>0.827042</vAcc></extensions></trkpt>
      <trkpt lon="-2.216173" lat="53.112014"><ele>300.488434</ele><time>2022-03-04T11:41:16Z</time><extensions><speed>0.629791</speed><course>56.439762</course><hAcc>1.689278</hAcc><vAcc>0.827031</vAcc></extensions></trkpt>
      <trkpt lon="-2.216165" lat="53.112017"><ele>300.498840</ele><time>2022-03-04T11:41:17Z</time><extensions><speed>0.531022</speed><course>63.986778</course><hAcc>1.691002</hAcc><vAcc>0.827011</vAcc></extensions></trkpt>
      <trkpt lon="-2.216159" lat="53.112018"><ele>300.504944</ele><time>2022-03-04T11:41:18Z</time><extensions><speed>0.403003</speed><course>73.634483</course><hAcc>1.702558</hAcc><vAcc>0.826976</vAcc></extensions></trkpt>
      <trkpt lon="-2.216154" lat="53.112019"><ele>300.504608</ele><time>2022-03-04T11:41:19Z</time><extensions><speed>0.170698</speed><course>83.540115</course><hAcc>1.720534</hAcc><vAcc>0.826927</vAcc></extensions></trkpt>
      <trkpt lon="-2.216152" lat="53.112019"><ele>300.501099</ele><time>2022-03-04T11:41:20Z</time><extensions><speed>0.105347</speed><course>78.448921</course><hAcc>1.710550</hAcc><vAcc>0.826856</vAcc></extensions></trkpt>
      <trkpt lon="-2.216151" lat="53.112019"><ele>300.483490</ele><time>2022-03-04T11:41:21Z</time><extensions><speed>0.089161</speed><course>50.857025</course><hAcc>1.710017</hAcc><vAcc>0.826776</vAcc></extensions></trkpt>
      <trkpt lon="-2.216150" lat="53.112020"><ele>300.460022</ele><time>2022-03-04T11:41:22Z</time><extensions><speed>0.100539</speed><course>27.940540</course><hAcc>1.718304</hAcc><vAcc>0.826696</vAcc></extensions></trkpt>
      <trkpt lon="-2.216149" lat="53.112021"><ele>300.441193</ele><time>2022-03-04T11:41:23Z</time><extensions><speed>0.107301</speed><course>18.404852</course><hAcc>1.729577</hAcc><vAcc>0.826637</vAcc></extensions></trkpt>
      <trkpt lon="-2.216149" lat="53.112022"><ele>300.413422</ele><time>2022-03-04T11:41:24Z</time><extensions><speed>0.105951</speed><course>20.784353</course><hAcc>1.738376</hAcc><vAcc>0.826574</vAcc></extensions></trkpt>
      <trkpt lon="-2.216148" lat="53.112023"><ele>300.383453</ele><time>2022-03-04T11:41:25Z</time><extensions><speed>0.107476</speed><course>31.322390</course><hAcc>1.741246</hAcc><vAcc>0.826510</vAcc></extensions></trkpt>
      <trkpt lon="-2.216147" lat="53.112023"><ele>300.357574</ele><time>2022-03-04T11:41:26Z</time><extensions><speed>0.117140</speed><course>43.688217</course><hAcc>1.740001</hAcc><vAcc>0.826454</vAcc></extensions></trkpt>
      <trkpt lon="-2.216146" lat="53.112024"><ele>300.325073</ele><time>2022-03-04T11:41:27Z</time><extensions><speed>0.128743</speed><course>54.752296</course><hAcc>1.735711</hAcc><vAcc>0.826399</vAcc></extensions></trkpt>
      <trkpt lon="-2.216144" lat="53.112025"><ele>300.287262</ele><time>2022-03-04T11:41:28Z</time><extensions><speed>0.134267</speed><course>63.282135</course><hAcc>1.731063</hAcc><vAcc>0.826339</vAcc></extensions></trkpt>
      <trkpt lon="-2.216142" lat="53.112025"><ele>300.250977</ele><time>2022-03-04T11:41:29Z</time><extensions><speed>0.137446</speed><course>68.352760</course><hAcc>1.727398</hAcc><vAcc>0.826269</vAcc></extensions></trkpt>
      <trkpt lon="-2.216140" lat="53.112026"><ele>300.227051</ele><time>2022-03-04T11:41:30Z</time><extensions><speed>0.135594</speed><course>71.026039</course><hAcc>1.725634</hAcc><vAcc>0.826187</vAcc></extensions></trkpt>
      <trkpt lon="-2.216139" lat="53.112026"><ele>300.205139</ele><time>2022-03-04T11:41:31Z</time><extensions><speed>0.114040</speed><course>74.366898</course><hAcc>1.734933</hAcc><vAcc>0.826107</vAcc></extensions></trkpt>
      <trkpt lon="-2.216137" lat="53.112026"><ele>300.189117</ele><time>2022-03-04T11:41:32Z</time><extensions><speed>0.090169</speed><course>81.726700</course><hAcc>1.740818</hAcc><vAcc>0.826027</vAcc></extensions></trkpt>
      <trkpt lon="-2.216136" lat="53.112026"><ele>300.176758</ele><time>2022-03-04T11:41:33Z</time><extensions><speed>0.087936</speed><course>89.769791</course><hAcc>1.723548</hAcc><vAcc>0.825949</vAcc></extensions></trkpt>
      <trkpt lon="-2.216135" lat="53.112026"><ele>300.168457</ele><time>2022-03-04T11:41:34Z</time><extensions><speed>0.076452</speed><course>99.751610</course><hAcc>1.715005</hAcc><vAcc>0.825872</vAcc></extensions></trkpt>
      <trkpt lon="-2.216134" lat="53.112026"><ele>300.164459</ele><time>2022-03-04T11:41:35Z</time><extensions><speed>0.061168</speed><course>120.626793</course><hAcc>1.710108</hAcc><vAcc>0.825797</vAcc></extensions></trkpt>
      <trkpt lon="-2.216133" lat="53.112026"><ele>300.167206</ele><time>2022-03-04T11:41:36Z</time><extensions><speed>0.056779</speed><course>148.945816</course><hAcc>1.704299</hAcc><vAcc>0.825727</vAcc></extensions></trkpt>
      <trkpt lon="-2.216133" lat="53.112025"><ele>300.167938</ele><time>2022-03-04T11:41:37Z</time><extensions><speed>0.061830</speed><course>173.553772</course><hAcc>1.701382</hAcc><vAcc>0.825660</vAcc></extensions></trkpt>
      <trkpt lon="-2.216133" lat="53.112025"><ele>300.168427</ele><time>2022-03-04T11:41:38Z</time><extensions><speed>0.063924</speed><course>189.020706</course><hAcc>1.710656</hAcc><vAcc>0.825594</vAcc></extensions></trkpt>
      <trkpt lon="-2.216133" lat="53.112024"><ele>300.171204</ele><time>2022-03-04T11:41:39Z</time><extensions><speed>0.062737</speed><course>192.832092</course><hAcc>1.716712</hAcc><vAcc>0.825539</vAcc></extensions></trkpt>
      <trkpt lon="-2.216133" lat="53.112023"><ele>300.175964</ele><time>2022-03-04T11:41:40Z</time><extensions><speed>0.064219</speed><course>189.072540</course><hAcc>1.713479</hAcc><vAcc>0.825492</vAcc></extensions></trkpt>
      <trkpt lon="-2.216133" lat="53.112023"><ele>300.181641</ele><time>2022-03-04T11:41:41Z</time><extensions><speed>0.068273</speed><course>184.367523</course><hAcc>1.709939</hAcc><vAcc>0.825449</vAcc></extensions></trkpt>
      <trkpt lon="-2.216133" lat="53.112022"><ele>300.179260</ele><time>2022-03-04T11:41:42Z</time><extensions><speed>0.075627</speed><course>183.092102</course><hAcc>1.705912</hAcc><vAcc>0.825410</vAcc></extensions></trkpt>
      <trkpt lon="-2.216133" lat="53.112021"><ele>300.173889</ele><time>2022-03-04T11:41:43Z</time><extensions><speed>0.074678</speed><course>184.229980</course><hAcc>1.716854</hAcc><vAcc>0.825388</vAcc></extensions></trkpt>
      <trkpt lon="-2.216133" lat="53.112021"><ele>300.172638</ele><time>2022-03-04T11:41:44Z</time><extensions><speed>0.073174</speed><course>186.502380</course><hAcc>1.729094</hAcc><vAcc>0.825381</vAcc></extensions></trkpt>
      <trkpt lon="-2.216134" lat="53.112020"><ele>300.174652</ele><time>2022-03-04T11:41:45Z</time><extensions><speed>0.069657</speed><course>190.212631</course><hAcc>1.735795</hAcc><vAcc>0.825379</vAcc></extensions></trkpt>
      <trkpt lon="-2.216134" lat="53.112020"><ele>300.171173</ele><time>2022-03-04T11:41:46Z</time><extensions><speed>0.051150</speed><course>198.869751</course><hAcc>1.741622</hAcc><vAcc>0.825380</vAcc></extensions></trkpt>
      <trkpt lon="-2.216134" lat="53.112019"><ele>300.161896</ele><time>2022-03-04T11:41:47Z</time><extensions><speed>0.024644</speed><course>227.228104</course><hAcc>1.743362</hAcc><vAcc>0.825381</vAcc></extensions></trkpt>
      <trkpt lon="-2.216134" lat="53.112019"><ele>300.152130</ele><time>2022-03-04T11:41:48Z</time><extensions><speed>0.016911</speed><course>296.886871</course><hAcc>1.741885</hAcc><vAcc>0.825414</vAcc></extensions></trkpt>
      <trkpt lon="-2.216134" lat="53.112020"><ele>300.141998</ele><time>2022-03-04T11:41:49Z</time><extensions><speed>0.020860</speed><course>338.501556</course><hAcc>1.742196</hAcc><vAcc>0.825462</vAcc></extensions></trkpt>
      <trkpt lon="-2.216134" lat="53.112020"><ele>300.129028</ele><time>2022-03-04T11:41:50Z</time><extensions><speed>0.026132</speed><course>0.550192</course><hAcc>1.743014</hAcc><vAcc>0.825564</vAcc></extensions></trkpt>
      <trkpt lon="-2.216134" lat="53.112020"><ele>300.116486</ele><time>2022-03-04T11:41:51Z</time><extensions><speed>0.039620</speed><course>21.321737</course><hAcc>1.743149</hAcc><vAcc>0.825670</vAcc></extensions></trkpt>
      <trkpt lon="-2.216134" lat="53.112020"><ele>300.120239</ele><time>2022-03-04T11:41:52Z</time><extensions><speed>0.069823</speed><course>34.575394</course><hAcc>1.744819</hAcc><vAcc>0.825783</vAcc></extensions></trkpt>
      <trkpt lon="-2.216133" lat="53.112021"><ele>300.128601</ele><time>2022-03-04T11:41:53Z</time><extensions><speed>0.118569</speed><course>40.332012</course><hAcc>1.744224</hAcc><vAcc>0.825918</vAcc></extensions></trkpt>
      <trkpt lon="-2.216132" lat="53.112022"><ele>300.133209</ele><time>2022-03-04T11:41:54Z</time><extensions><speed>0.174624</speed><course>43.476360</course><hAcc>1.743617</hAcc><vAcc>0.826069</vAcc></extensions></trkpt>
      <trkpt lon="-2.216129" lat="53.112023"><ele>300.153900</ele><time>2022-03-04T11:41:55Z</time><extensions><speed>0.240914</speed><course>48.282078</course><hAcc>1.743461</hAcc><vAcc>0.826242</vAcc></extensions></trkpt>
      <trkpt lon="-2.216126" lat="53.112025"><ele>300.164856</ele><time>2022-03-04T11:41:56Z</time><extensions><speed>0.327797</speed><course>55.952774</course><hAcc>1.743159</hAcc><vAcc>0.826422</vAcc></extensions></trkpt>
      <trkpt lon="-2.216121" lat="53.112027"><ele>300.192017</ele><time>2022-03-04T11:41:57Z</time><extensions><speed>0.465181</speed><course>64.259872</course><hAcc>1.739379</hAcc><vAcc>0.826599</vAcc></extensions></trkpt>
      <trkpt lon="-2.216113" lat="53.112029"><ele>300.253021</ele><time>2022-03-04T11:41:58Z</time><extensions><speed>0.698402</speed><course>70.895699</course><hAcc>1.735490</hAcc><vAcc>0.826771</vAcc></extensions></trkpt>
      <trkpt lon="-2.216103" lat="53.112031"><ele>300.321808</ele><time>2022-03-04T11:41:59Z</time><extensions><speed>0.701188</speed><course>73.423210</course><hAcc>1.736113</hAcc><vAcc>0.826924</vAcc></extensions></trkpt>
      <trkpt lon="-2.216093" lat="53.112032"><ele>300.399109</ele><time>2022-03-04T11:42:00Z</time><extensions><speed>0.596385</speed><course>74.042450</course><hAcc>1.742305</hAcc><vAcc>0.827059</vAcc></extensions></trkpt>
      <trkpt lon="-2.216086" lat="53.112033"><ele>300.483459</ele><time>2022-03-04T11:42:01Z</time><extensions><speed>0.462769</speed><course>82.356087</course><hAcc>1.749176</hAcc><vAcc>0.827175</vAcc></extensions></trkpt>
      <trkpt lon="-2.216077" lat="53.112033"><ele>300.569733</ele><time>2022-03-04T11:42:02Z</time><extensions><speed>0.666942</speed><course>90.393272</course><hAcc>1.728586</hAcc><vAcc>0.827260</vAcc></extensions></trkpt>
      <trkpt lon="-2.216067" lat="53.112033"><ele>300.660889</ele><time>2022-03-04T11:42:03Z</time><extensions><speed>0.766156</speed><course>91.308006</course><hAcc>1.728068</hAcc><vAcc>0.827319</vAcc></extensions></trkpt>
      <trkpt lon="-2.216054" lat="53.112033"><ele>300.760193</ele><time>2022-03-04T11:42:04Z</time><extensions><speed>0.863445</speed><course>90.798531</course><hAcc>1.731409</hAcc><vAcc>0.827356</vAcc></extensions></trkpt>
      <trkpt lon="-2.216041" lat="53.112033"><ele>300.864075</ele><time>2022-03-04T11:42:05Z</time><extensions><speed>0.932286</speed><course>90.203842</course><hAcc>1.730951</hAcc><vAcc>0.827390</vAcc></extensions></trkpt>
      <trkpt lon="-2.216027" lat="53.112033"><ele>300.964569</ele><time>2022-03-04T11:42:06Z</time><extensions><speed>0.909522</speed><course>89.859955</course><hAcc>1.729638</hAcc><vAcc>0.827407</vAcc></extensions></trkpt>
      <trkpt lon="-2.216014" lat="53.112033"><ele>301.076080</ele><time>2022-03-04T11:42:06Z</time><extensions><speed>0.833442</speed><course>90.801788</course><hAcc>1.732562</hAcc><vAcc>0.827429</vAcc></extensions></trkpt>
      <trkpt lon="-2.216001" lat="53.112033"><ele>301.173767</ele><time>2022-03-04T11:42:07Z</time><extensions><speed>0.914972</speed><course>93.316948</course><hAcc>1.738955</hAcc><vAcc>0.827453</vAcc></extensions></trkpt>
      <trkpt lon="-2.215988" lat="53.112033"><ele>301.265411</ele><time>2022-03-04T11:42:08Z</time><extensions><speed>0.836715</speed><course>89.475494</course><hAcc>1.739590</hAcc><vAcc>0.827473</vAcc></extensions></trkpt>
      <trkpt lon="-2.215976" lat="53.112033"><ele>301.332397</ele><time>2022-03-04T11:42:09Z</time><extensions><speed>0.740456</speed><course>82.985237</course><hAcc>1.738059</hAcc><vAcc>0.827489</vAcc></extensions></trkpt>
      <trkpt lon="-2.215966" lat="53.112034"><ele>301.376862</ele><time>2022-03-04T11:42:10Z</time><extensions><speed>0.666006</speed><course>77.402237</course><hAcc>1.735256</hAcc><vAcc>0.827504</vAcc></extensions></trkpt>
      <trkpt lon="-2.215956" lat="53.112036"><ele>301.422607</ele><time>2022-03-04T11:42:11Z</time><extensions><speed>0.685060</speed><course>75.975121</course><hAcc>1.730747</hAcc><vAcc>0.827529</vAcc></extensions></trkpt>
      <trkpt lon="-2.215946" lat="53.112037"><ele>301.459930</ele><time>2022-03-04T11:42:12Z</time><extensions><speed>0.720562</speed><course>80.521759</course><hAcc>1.737771</hAcc><vAcc>0.827561</vAcc></extensions></trkpt>
      <trkpt lon="-2.215935" lat="53.112037"><ele>301.505890</ele><time>2022-03-04T11:42:13Z</time><extensions><speed>0.679365</speed><course>90.143646</course><hAcc>1.735025</hAcc><vAcc>0.827589</vAcc></extensions></trkpt>
      <trkpt lon="-2.215926" lat="53.112036"><ele>301.549164</ele><time>2022-03-04T11:42:14Z</time><extensions><speed>0.675789</speed><course>106.706703</course><hAcc>1.720678</hAcc><vAcc>0.827613</vAcc></extensions></trkpt>
      <trkpt lon="-2.215915" lat="53.112034"><ele>301.602814</ele><time>2022-03-04T11:42:15Z</time><extensions><speed>0.814858</speed><course>121.432266</course><hAcc>1.716970</hAcc><vAcc>0.827631</vAcc></extensions></trkpt>
      <trkpt lon="-2.215905" lat="53.112029"><ele>301.655823</ele><time>2022-03-04T11:42:16Z</time><extensions><speed>0.937434</speed><course>132.565628</course><hAcc>1.716035</hAcc><vAcc>0.827636</vAcc></extensions></trkpt>
      <trkpt lon="-2.215895" lat="53.112023"><ele>301.721649</ele><time>2022-03-04T11:42:17Z</time><extensions><speed>0.892176</speed><course>136.516037</course><hAcc>1.709344</hAcc><vAcc>0.827646</vAcc></extensions></trkpt>
      <trkpt lon="-2.215887" lat="53.112018"><ele>301.795349</ele><time>2022-03-04T11:42:18Z</time><extensions><speed>0.740654</speed><course>135.842438</course><hAcc>1.702479</hAcc><vAcc>0.827660</vAcc></extensions></trkpt>
      <trkpt lon="-2.215880" lat="53.112014"><ele>301.866882</ele><time>2022-03-04T11:42:19Z</time><extensions><speed>0.540116</speed><course>122.790298</course><hAcc>1.703744</hAcc><vAcc>0.827684</vAcc></extensions></trkpt>
      <trkpt lon="-2.215873" lat="53.112013"><ele>301.937469</ele><time>2022-03-04T11:42:20Z</time><extensions><speed>0.476278</speed><course>96.014656</course><hAcc>1.704924</hAcc><vAcc>0.827717</vAcc></extensions></trkpt>
      <trkpt lon="-2.215865" lat="53.112013"><ele>302.038757</ele><time>2022-03-04T11:42:21Z</time><extensions><speed>0.604151</speed><course>80.845558</course><hAcc>1.697896</hAcc><vAcc>0.827763</vAcc></extensions></trkpt>
      <trkpt lon="-2.215855" lat="53.112014"><ele>302.131042</ele><time>2022-03-04T11:42:22Z</time><extensions><speed>0.728959</speed><course>74.920395</course><hAcc>1.696761</hAcc><vAcc>0.827821</vAcc></extensions></trkpt>
      <trkpt lon="-2.215844" lat="53.112016"><ele>302.232269</ele><time>2022-03-04T11:42:23Z</time><extensions><speed>0.827692</speed><course>73.722069</course><hAcc>1.700021</hAcc><vAcc>0.827808</vAcc></extensions></trkpt>
      <trkpt lon="-2.215832" lat="53.112018"><ele>302.324524</ele><time>2022-03-04T11:42:24Z</time><extensions><speed>0.784514</speed><course>74.099701</course><hAcc>1.703461</hAcc><vAcc>0.827760</vAcc></extensions></trkpt>
      <trkpt lon="-2.215821" lat="53.112020"><ele>302.437439</ele><time>2022-03-04T11:42:25Z</time><extensions><speed>0.709307</speed><course>77.276619</course><hAcc>1.708181</hAcc><vAcc>0.827645</vAcc></extensions></trkpt>
      <trkpt lon="-2.215811" lat="53.112021"><ele>302.552521</ele><time>2022-03-04T11:42:26Z</time><extensions><speed>0.650398</speed><course>79.837379</course><hAcc>1.709095</hAcc><vAcc>0.827516</vAcc></extensions></trkpt>
      <trkpt lon="-2.215802" lat="53.112022"><ele>302.662262</ele><time>2022-03-04T11:42:27Z</time><extensions><speed>0.606484</speed><course>81.428513</course><hAcc>1.709674</hAcc><vAcc>0.827320</vAcc></extensions></trkpt>
      <trkpt lon="-2.215793" lat="53.112023"><ele>302.778381</ele><time>2022-03-04T11:42:28Z</time><extensions><speed>0.586477</speed><course>80.746529</course><hAcc>1.704807</hAcc><vAcc>0.827065</vAcc></extensions></trkpt>
      <trkpt lon="-2.215785" lat="53.112024"><ele>302.889099</ele><time>2022-03-04T11:42:29Z</time><extensions><speed>0.554158</speed><course>79.670052</course><hAcc>1.698157</hAcc><vAcc>0.826771</vAcc></extensions></trkpt>
      <trkpt lon="-2.215777" lat="53.112025"><ele>303.000153</ele><time>2022-03-04T11:42:30Z</time><extensions><speed>0.502274</speed><course>77.463654</course><hAcc>1.701990</hAcc><vAcc>0.826390</vAcc></extensions></trkpt>
      <trkpt lon="-2.215770" lat="53.112026"><ele>303.104553</ele><time>2022-03-04T11:42:31Z</time><extensions><speed>0.436440</speed><course>74.104820</course><hAcc>1.721441</hAcc><vAcc>0.825889</vAcc></extensions></trkpt>
      <trkpt lon="-2.215766" lat="53.112027"><ele>303.200256</ele><time>2022-03-04T11:42:32Z</time><extensions><speed>0.272860</speed><course>44.982071</course><hAcc>1.740699</hAcc><vAcc>0.825358</vAcc></extensions></trkpt>
      <trkpt lon="-2.215763" lat="53.112030"><ele>303.302124</ele><time>2022-03-04T11:42:33Z</time><extensions><speed>0.382402</speed><course>23.208393</course><hAcc>1.726546</hAcc><vAcc>0.824771</vAcc></extensions></trkpt>
      <trkpt lon="-2.215761" lat="53.112034"><ele>303.395203</ele><time>2022-03-04T11:42:34Z</time><extensions><speed>0.563755</speed><course>17.455038</course><hAcc>1.720951</hAcc><vAcc>0.824208</vAcc></extensions></trkpt>
      <trkpt lon="-2.215758" lat="53.112039"><ele>303.507629</ele><time>2022-03-04T11:42:35Z</time><extensions><speed>0.587614</speed><course>18.152206</course><hAcc>1.737675</hAcc><vAcc>0.823687</vAcc></extensions></trkpt>
      <trkpt lon="-2.215755" lat="53.112043"><ele>303.602020</ele><time>2022-03-04T11:42:36Z</time><extensions><speed>0.542174</speed><course>19.885523</course><hAcc>1.754413</hAcc><vAcc>0.823227</vAcc></extensions></trkpt>
      <trkpt lon="-2.215752" lat="53.112047"><ele>303.688080</ele><time>2022-03-04T11:42:37Z</time><extensions><speed>0.437031</speed><course>25.923954</course><hAcc>1.761616</hAcc><vAcc>0.822832</vAcc></extensions></trkpt>
      <trkpt lon="-2.215749" lat="53.112050"><ele>303.773041</ele><time>2022-03-04T11:42:38Z</time><extensions><speed>0.287835</speed><course>43.450714</course><hAcc>1.768102</hAcc><vAcc>0.822511</vAcc></extensions></trkpt>
      <trkpt lon="-2.215746" lat="53.112052"><ele>303.866760</ele><time>2022-03-04T11:42:39Z</time><extensions><speed>0.263802</speed><course>62.999317</course><hAcc>1.767416</hAcc><vAcc>0.822264</vAcc></extensions></trkpt>
      <trkpt lon="-2.215742" lat="53.112053"><ele>303.965271</ele><time>2022-03-04T11:42:40Z</time><extensions><speed>0.287401</speed><course>73.091866</course><hAcc>1.766878</hAcc><vAcc>0.822026</vAcc></extensions></trkpt>
      <trkpt lon="-2.215738" lat="53.112053"><ele>304.064087</ele><time>2022-03-04T11:42:41Z</time><extensions><speed>0.319991</speed><course>75.755318</course><hAcc>1.766405</hAcc><vAcc>0.821949</vAcc></extensions></trkpt>
      <trkpt lon="-2.215733" lat="53.112054"><ele>304.161285</ele><time>2022-03-04T11:42:42Z</time><extensions><speed>0.342633</speed><course>75.055351</course><hAcc>1.768532</hAcc><vAcc>0.821963</vAcc></extensions></trkpt>
      <trkpt lon="-2.215728" lat="53.112055"><ele>304.236389</ele><time>2022-03-04T11:42:43Z</time><extensions><speed>0.359604</speed><course>73.225479</course><hAcc>1.770992</hAcc><vAcc>0.822056</vAcc></extensions></trkpt>
      <trkpt lon="-2.215723" lat="53.112056"><ele>304.324280</ele><time>2022-03-04T11:42:44Z</time><extensions><speed>0.379523</speed><course>71.155617</course><hAcc>1.769932</hAcc><vAcc>0.822228</vAcc></extensions></trkpt>
      <trkpt lon="-2.215717" lat="53.112057"><ele>304.410248</ele><time>2022-03-04T11:42:45Z</time><extensions><speed>0.392999</speed><course>67.504631</course><hAcc>1.766812</hAcc><vAcc>0.822420</vAcc></extensions></trkpt>
      <trkpt lon="-2.215712" lat="53.112059"><ele>304.493927</ele><time>2022-03-04T11:42:46Z</time><extensions><speed>0.398862</speed><course>63.140472</course><hAcc>1.761729</hAcc><vAcc>0.822625</vAcc></extensions></trkpt>
      <trkpt lon="-2.215707" lat="53.112060"><ele>304.580872</ele><time>2022-03-04T11:42:47Z</time><extensions><speed>0.387295</speed><course>60.471371</course><hAcc>1.759876</hAcc><vAcc>0.822862</vAcc></extensions></trkpt>
      <trkpt lon="-2.215702" lat="53.112062"><ele>304.670044</ele><time>2022-03-04T11:42:48Z</time><extensions><speed>0.360539</speed><course>61.206158</course><hAcc>1.761689</hAcc><vAcc>0.823105</vAcc></extensions></trkpt>
      <trkpt lon="-2.215697" lat="53.112064"><ele>304.763092</ele><time>2022-03-04T11:42:49Z</time><extensions><speed>0.363989</speed><course>65.115570</course><hAcc>1.752855</hAcc><vAcc>0.823362</vAcc></extensions></trkpt>
      <trkpt lon="-2.215692" lat="53.112065"><ele>304.847595</ele><time>2022-03-04T11:42:50Z</time><extensions><speed>0.388264</speed><course>70.033157</course><hAcc>1.739245</hAcc><vAcc>0.823648</vAcc></extensions></trkpt>
      <trkpt lon="-2.215686" lat="53.112066"><ele>304.926025</ele><time>2022-03-04T11:42:51Z</time><extensions><speed>0.432901</speed><course>74.260437</course><hAcc>1.722707</hAcc><vAcc>0.823934</vAcc></extensions></trkpt>
      <trkpt lon="-2.215679" lat="53.112067"><ele>305.001190</ele><time>2022-03-04T11:42:52Z</time><extensions><speed>0.532177</speed><course>77.340218</course><hAcc>1.702865</hAcc><vAcc>0.824209</vAcc></extensions></trkpt>
      <trkpt lon="-2.215672" lat="53.112068"><ele>305.070129</ele><time>2022-03-04T11:42:53Z</time><extensions><speed>0.400538</speed><course>76.108849</course><hAcc>1.720002</hAcc><vAcc>0.824474</vAcc></extensions></trkpt>
      <trkpt lon="-2.215668" lat="53.112069"><ele>305.137787</ele><time>2022-03-04T11:42:54Z</time><extensions><speed>0.196112</speed><course>70.102486</course><hAcc>1.748324</hAcc><vAcc>0.824716</vAcc></extensions></trkpt>
      <trkpt lon="-2.215665" lat="53.112070"><ele>305.216705</ele><time>2022-03-04T11:42:55Z</time><extensions><speed>0.217129</speed><course>54.345184</course><hAcc>1.715487</hAcc><vAcc>0.824914</vAcc></extensions></trkpt>
      <trkpt lon="-2.215662" lat="53.112071"><ele>305.285339</ele><time>2022-03-04T11:42:56Z</time><extensions><speed>0.261207</speed><course>40.897144</course><hAcc>1.698601</hAcc><vAcc>0.825066</vAcc></extensions></trkpt>
      <trkpt lon="-2.215660" lat="53.112074"><ele>305.337830</ele><time>2022-03-04T11:42:57Z</time><extensions><speed>0.311156</speed><course>31.181770</course><hAcc>1.703423</hAcc><vAcc>0.825184</vAcc></extensions></trkpt>
      <trkpt lon="-2.215658" lat="53.112076"><ele>305.383606</ele><time>2022-03-04T11:42:58Z</time><extensions><speed>0.349210</speed><course>23.336611</course><hAcc>1.715240</hAcc><vAcc>0.825270</vAcc></extensions></trkpt>
      <trkpt lon="-2.215656" lat="53.112079"><ele>305.417389</ele><time>2022-03-04T11:42:59Z</time><extensions><speed>0.383819</speed><course>15.974901</course><hAcc>1.723428</hAcc><vAcc>0.825332</vAcc></extensions></trkpt>
      <trkpt lon="-2.215654" lat="53.112083"><ele>305.440186</ele><time>2022-03-04T11:43:00Z</time><extensions><speed>0.406625</speed><course>10.083445</course><hAcc>1.729928</hAcc><vAcc>0.825395</vAcc></extensions></trkpt>
      <trkpt lon="-2.215654" lat="53.112087"><ele>305.474426</ele><time>2022-03-04T11:43:01Z</time><extensions><speed>0.428654</speed><course>6.708123</course><hAcc>1.732161</hAcc><vAcc>0.825439</vAcc></extensions></trkpt>
      <trkpt lon="-2.215653" lat="53.112091"><ele>305.506622</ele><time>2022-03-04T11:43:02Z</time><extensions><speed>0.455928</speed><course>5.565253</course><hAcc>1.729081</hAcc><vAcc>0.825455</vAcc></extensions></trkpt>
      <trkpt lon="-2.215652" lat="53.112095"><ele>305.546661</ele><time>2022-03-04T11:43:03Z</time><extensions><speed>0.473649</speed><course>5.593719</course><hAcc>1.727045</hAcc><vAcc>0.825480</vAcc></extensions></trkpt>
      <trkpt lon="-2.215651" lat="53.112099"><ele>305.592163</ele><time>2022-03-04T11:43:04Z</time><extensions><speed>0.485049</speed><course>6.525750</course><hAcc>1.726876</hAcc><vAcc>0.825502</vAcc></extensions></trkpt>
      <trkpt lon="-2.215650" lat="53.112104"><ele>305.630310</ele><time>2022-03-04T11:43:05Z</time><extensions><speed>0.490843</speed><course>7.319288</course><hAcc>1.727632</hAcc><vAcc>0.825519</vAcc></extensions></trkpt>
      <trkpt lon="-2.215649" lat="53.112108"><ele>305.674713</ele><time>2022-03-04T11:43:06Z</time><extensions><speed>0.492893</speed><course>7.078803</course><hAcc>1.729563</hAcc><vAcc>0.825549</vAcc></extensions></trkpt>
      <trkpt lon="-2.215649" lat="53.112113"><ele>305.717834</ele><time>2022-03-04T11:43:07Z</time><extensions><speed>0.518368</speed><course>6.361159</course><hAcc>1.727624</hAcc><vAcc>0.825569</vAcc></extensions></trkpt>
      <trkpt lon="-2.215648" lat="53.112118"><ele>305.766113</ele><time>2022-03-04T11:43:08Z</time><extensions><speed>0.551986</speed><course>6.166076</course><hAcc>1.725609</hAcc><vAcc>0.825591</vAcc></extensions></trkpt>
      <trkpt lon="-2.215647" lat="53.112123"><ele>305.825073</ele><time>2022-03-04T11:43:09Z</time><extensions><speed>0.587650</speed><course>7.121568</course><hAcc>1.725398</hAcc><vAcc>0.825609</vAcc></extensions></trkpt>
      <trkpt lon="-2.215645" lat="53.112128"><ele>305.890076</ele><time>2022-03-04T11:43:10Z</time><extensions><speed>0.613756</speed><course>8.963027</course><hAcc>1.728649</hAcc><vAcc>0.825607</vAcc></extensions></trkpt>
      <trkpt lon="-2.215644" lat="53.112134"><ele>305.959961</ele><time>2022-03-04T11:43:11Z</time><extensions><speed>0.620025</speed><course>10.711547</course><hAcc>1.734440</hAcc><vAcc>0.825602</vAcc></extensions></trkpt>
      <trkpt lon="-2.215642" lat="53.112139"><ele>306.050171</ele><time>2022-03-04T11:43:12Z</time><extensions><speed>0.615664</speed><course>11.860989</course><hAcc>1.738679</hAcc><vAcc>0.825584</vAcc></extensions></trkpt>
      <trkpt lon="-2.215640" lat="53.112145"><ele>306.164154</ele><time>2022-03-04T11:43:13Z</time><extensions><speed>0.616310</speed><course>12.893927</course><hAcc>1.739437</hAcc><vAcc>0.825547</vAcc></extensions></trkpt>
      <trkpt lon="-2.215638" lat="53.112150"><ele>306.270233</ele><time>2022-03-04T11:43:14Z</time><extensions><speed>0.615174</speed><course>13.928309</course><hAcc>1.739541</hAcc><vAcc>0.825513</vAcc></extensions></trkpt>
      <trkpt lon="-2.215636" lat="53.112155"><ele>306.386597</ele><time>2022-03-04T11:43:15Z</time><extensions><speed>0.593578</speed><course>14.666682</course><hAcc>1.743382</hAcc><vAcc>0.825482</vAcc></extensions></trkpt>
      <trkpt lon="-2.215633" lat="53.112160"><ele>306.499176</ele><time>2022-03-04T11:43:16Z</time><extensions><speed>0.565794</speed><course>15.326542</course><hAcc>1.747533</hAcc><vAcc>0.825443</vAcc></extensions></trkpt>
      <trkpt lon="-2.215631" lat="53.112165"><ele>306.631439</ele><time>2022-03-04T11:43:17Z</time><extensions><speed>0.538426</speed><course>16.151543</course><hAcc>1.748421</hAcc><vAcc>0.825409</vAcc></extensions></trkpt>
      <trkpt lon="-2.215629" lat="53.112170"><ele>306.755249</ele><time>2022-03-04T11:43:18Z</time><extensions><speed>0.523392</speed><course>17.678219</course><hAcc>1.744128</hAcc><vAcc>0.825381</vAcc></extensions></trkpt>
      <trkpt lon="-2.215626" lat="53.112174"><ele>306.887787</ele><time>2022-03-04T11:43:20Z</time><extensions><speed>0.521973</speed><course>19.701839</course><hAcc>1.738235</hAcc><vAcc>0.825348</vAcc></extensions></trkpt>
      <trkpt lon="-2.215623" lat="53.112179"><ele>307.019653</ele><time>2022-03-04T11:43:21Z</time><extensions><speed>0.553051</speed><course>22.080360</course><hAcc>1.730365</hAcc><vAcc>0.825275</vAcc></extensions></trkpt>
      <trkpt lon="-2.215620" lat="53.112184"><ele>307.141907</ele><time>2022-03-04T11:43:22Z</time><extensions><speed>0.656414</speed><course>25.901779</course><hAcc>1.722990</hAcc><vAcc>0.825189</vAcc></extensions></trkpt>
      <trkpt lon="-2.215615" lat="53.112190"><ele>307.254303</ele><time>2022-03-04T11:43:23Z</time><extensions><speed>0.835593</speed><course>29.714285</course><hAcc>1.728854</hAcc><vAcc>0.825109</vAcc></extensions></trkpt>
      <trkpt lon="-2.215609" lat="53.112196"><ele>307.360657</ele><time>2022-03-04T11:43:24Z</time><extensions><speed>0.890691</speed><course>26.246368</course><hAcc>1.728446</hAcc><vAcc>0.825043</vAcc></extensions></trkpt>
      <trkpt lon="-2.215604" lat="53.112203"><ele>307.458923</ele><time>2022-03-04T11:43:25Z</time><extensions><speed>0.739202</speed><course>18.351707</course><hAcc>1.726057</hAcc><vAcc>0.825004</vAcc></extensions></trkpt>
      <trkpt lon="-2.215601" lat="53.112209"><ele>307.540924</ele><time>2022-03-04T11:43:26Z</time><extensions><speed>0.567099</speed><course>11.763907</course><hAcc>1.719244</hAcc><vAcc>0.824973</vAcc></extensions></trkpt>
      <trkpt lon="-2.215600" lat="53.112213"><ele>307.610352</ele><time>2022-03-04T11:43:27Z</time><extensions><speed>0.455172</speed><course>5.468285</course><hAcc>1.715191</hAcc><vAcc>0.824988</vAcc></extensions></trkpt>
      <trkpt lon="-2.215600" lat="53.112217"><ele>307.668427</ele><time>2022-03-04T11:43:28Z</time><extensions><speed>0.388399</speed><course>359.762482</course><hAcc>1.717024</hAcc><vAcc>0.825025</vAcc></extensions></trkpt>
      <trkpt lon="-2.215600" lat="53.112220"><ele>307.714905</ele><time>2022-03-04T11:43:29Z</time><extensions><speed>0.316310</speed><course>352.960480</course><hAcc>1.726450</hAcc><vAcc>0.825086</vAcc></extensions></trkpt>
      <trkpt lon="-2.215601" lat="53.112222"><ele>307.750031</ele><time>2022-03-04T11:43:30Z</time><extensions><speed>0.188528</speed><course>350.206696</course><hAcc>1.730601</hAcc><vAcc>0.825159</vAcc></extensions></trkpt>
      <trkpt lon="-2.215601" lat="53.112223"><ele>307.785309</ele><time>2022-03-04T11:43:31Z</time><extensions><speed>0.043571</speed><course>291.009216</course><hAcc>1.727422</hAcc><vAcc>0.825262</vAcc></extensions></trkpt>
      <trkpt lon="-2.215602" lat="53.112223"><ele>307.812225</ele><time>2022-03-04T11:43:32Z</time><extensions><speed>0.066508</speed><course>203.279663</course><hAcc>1.722048</hAcc><vAcc>0.825406</vAcc></extensions></trkpt>
      <trkpt lon="-2.215602" lat="53.112223"><ele>307.829651</ele><time>2022-03-04T11:43:33Z</time><extensions><speed>0.080607</speed><course>178.526703</course><hAcc>1.714028</hAcc><vAcc>0.825602</vAcc></extensions></trkpt>
      <trkpt lon="-2.215601" lat="53.112222"><ele>307.840851</ele><time>2022-03-04T11:43:34Z</time><extensions><speed>0.071953</speed><course>152.470474</course><hAcc>1.697166</hAcc><vAcc>0.825830</vAcc></extensions></trkpt>
      <trkpt lon="-2.215601" lat="53.112222"><ele>307.847321</ele><time>2022-03-04T11:43:35Z</time><extensions><speed>0.067191</speed><course>118.452271</course><hAcc>1.675640</hAcc><vAcc>0.826091</vAcc></extensions></trkpt>
      <trkpt lon="-2.215600" lat="53.112221"><ele>307.854370</ele><time>2022-03-04T11:43:36Z</time><extensions><speed>0.067300</speed><course>97.184593</course><hAcc>1.661961</hAcc><vAcc>0.826342</vAcc></extensions></trkpt>
      <trkpt lon="-2.215599" lat="53.112221"><ele>307.859253</ele><time>2022-03-04T11:43:37Z</time><extensions><speed>0.052541</speed><course>86.735428</course><hAcc>1.672246</hAcc><vAcc>0.826599</vAcc></extensions></trkpt>
      <trkpt lon="-2.215598" lat="53.112221"><ele>307.864563</ele><time>2022-03-04T11:43:38Z</time><extensions><speed>0.038374</speed><course>74.960442</course><hAcc>1.689392</hAcc><vAcc>0.826841</vAcc></extensions></trkpt>
      <trkpt lon="-2.215598" lat="53.112222"><ele>307.871368</ele><time>2022-03-04T11:43:39Z</time><extensions><speed>0.033787</speed><course>58.600872</course><hAcc>1.694357</hAcc><vAcc>0.827047</vAcc></extensions></trkpt>
      <trkpt lon="-2.215597" lat="53.112222"><ele>307.873352</ele><time>2022-03-04T11:43:40Z</time><extensions><speed>0.051000</speed><course>44.371929</course><hAcc>1.662253</hAcc><vAcc>0.827239</vAcc></extensions></trkpt>
      <trkpt lon="-2.215597" lat="53.112222"><ele>307.875488</ele><time>2022-03-04T11:43:41Z</time><extensions><speed>0.059052</speed><course>33.919857</course><hAcc>1.662781</hAcc><vAcc>0.827400</vAcc></extensions></trkpt>
      <trkpt lon="-2.215596" lat="53.112223"><ele>307.877747</ele><time>2022-03-04T11:43:42Z</time><extensions><speed>0.057461</speed><course>24.056337</course><hAcc>1.686211</hAcc><vAcc>0.827537</vAcc></extensions></trkpt>
      <trkpt lon="-2.215596" lat="53.112223"><ele>307.885101</ele><time>2022-03-04T11:43:43Z</time><extensions><speed>0.053167</speed><course>11.438871</course><hAcc>1.707764</hAcc><vAcc>0.827618</vAcc></extensions></trkpt>
      <trkpt lon="-2.215596" lat="53.112224"><ele>307.893097</ele><time>2022-03-04T11:43:44Z</time><extensions><speed>0.050555</speed><course>2.600749</course><hAcc>1.721341</hAcc><vAcc>0.827687</vAcc></extensions></trkpt>
      <trkpt lon="-2.215596" lat="53.112224"><ele>307.902435</ele><time>2022-03-04T11:43:45Z</time><extensions><speed>0.052516</speed><course>3.725254</course><hAcc>1.725985</hAcc><vAcc>0.827744</vAcc></extensions></trkpt>
      <trkpt lon="-2.215596" lat="53.112225"><ele>307.919647</ele><time>2022-03-04T11:43:46Z</time><extensions><speed>0.063292</speed><course>10.201062</course><hAcc>1.722366</hAcc><vAcc>0.827781</vAcc></extensions></trkpt>
      <trkpt lon="-2.215596" lat="53.112225"><ele>307.940186</ele><time>2022-03-04T11:43:47Z</time><extensions><speed>0.080720</speed><course>12.628866</course><hAcc>1.715609</hAcc><vAcc>0.827815</vAcc></extensions></trkpt>
      <trkpt lon="-2.215595" lat="53.112226"><ele>307.961884</ele><time>2022-03-04T11:43:48Z</time><extensions><speed>0.098755</speed><course>10.808094</course><hAcc>1.707339</hAcc><vAcc>0.827838</vAcc></extensions></trkpt>
      <trkpt lon="-2.215595" lat="53.112227"><ele>307.991058</ele><time>2022-03-04T11:43:49Z</time><extensions><speed>0.110695</speed><course>8.774926</course><hAcc>1.703675</hAcc><vAcc>0.827859</vAcc></extensions></trkpt>
      <trkpt lon="-2.215595" lat="53.112228"><ele>308.020477</ele><time>2022-03-04T11:43:50Z</time><extensions><speed>0.113273</speed><course>6.825691</course><hAcc>1.709622</hAcc><vAcc>0.827866</vAcc></extensions></trkpt>
      <trkpt lon="-2.215595" lat="53.112229"><ele>308.048340</ele><time>2022-03-04T11:43:51Z</time><extensions><speed>0.119113</speed><course>5.136696</course><hAcc>1.714857</hAcc><vAcc>0.827866</vAcc></extensions></trkpt>
      <trkpt lon="-2.215594" lat="53.112230"><ele>308.079773</ele><time>2022-03-04T11:43:52Z</time><extensions><speed>0.135307</speed><course>5.850454</course><hAcc>1.709649</hAcc><vAcc>0.827861</vAcc></extensions></trkpt>
      <trkpt lon="-2.215594" lat="53.112231"><ele>308.112701</ele><time>2022-03-04T11:43:53Z</time><extensions><speed>0.144725</speed><course>11.090060</course><hAcc>1.697291</hAcc><vAcc>0.827860</vAcc></extensions></trkpt>
      <trkpt lon="-2.215593" lat="53.112233"><ele>308.154175</ele><time>2022-03-04T11:43:54Z</time><extensions><speed>0.125080</speed><course>22.009739</course><hAcc>1.700575</hAcc><vAcc>0.827881</vAcc></extensions></trkpt>
      <trkpt lon="-2.215593" lat="53.112234"><ele>308.197998</ele><time>2022-03-04T11:43:55Z</time><extensions><speed>0.101087</speed><course>34.530510</course><hAcc>1.711671</hAcc><vAcc>0.827894</vAcc></extensions></trkpt>
      <trkpt lon="-2.215592" lat="53.112234"><ele>308.241180</ele><time>2022-03-04T11:43:56Z</time><extensions><speed>0.077924</speed><course>44.429981</course><hAcc>1.721441</hAcc><vAcc>0.827911</vAcc></extensions></trkpt>
      <trkpt lon="-2.215591" lat="53.112235"><ele>308.284668</ele><time>2022-03-04T11:43:57Z</time><extensions><speed>0.063354</speed><course>48.699314</course><hAcc>1.727595</hAcc><vAcc>0.827941</vAcc></extensions></trkpt>
      <trkpt lon="-2.215590" lat="53.112235"><ele>308.327759</ele><time>2022-03-04T11:43:58Z</time><extensions><speed>0.065894</speed><course>40.530560</course><hAcc>1.730945</hAcc><vAcc>0.827988</vAcc></extensions></trkpt>
      <trkpt lon="-2.215590" lat="53.112236"><ele>308.367554</ele><time>2022-03-04T11:43:59Z</time><extensions><speed>0.087488</speed><course>31.235023</course><hAcc>1.733557</hAcc><vAcc>0.828056</vAcc></extensions></trkpt>
      <trkpt lon="-2.215589" lat="53.112236"><ele>308.402252</ele><time>2022-03-04T11:44:00Z</time><extensions><speed>0.125935</speed><course>28.627304</course><hAcc>1.731522</hAcc><vAcc>0.828122</vAcc></extensions></trkpt>
      <trkpt lon="-2.215588" lat="53.112238"><ele>308.435516</ele><time>2022-03-04T11:44:01Z</time><extensions><speed>0.187057</speed><course>27.524813</course><hAcc>1.727566</hAcc><vAcc>0.828217</vAcc></extensions></trkpt>
      <trkpt lon="-2.215587" lat="53.112239"><ele>308.467651</ele><time>2022-03-04T11:44:02Z</time><extensions><speed>0.096785</speed><course>40.889584</course><hAcc>1.749958</hAcc><vAcc>0.828294</vAcc></extensions></trkpt>
      <trkpt lon="-2.215586" lat="53.112239"><ele>308.507233</ele><time>2022-03-04T11:44:03Z</time><extensions><speed>0.068152</speed><course>56.689579</course><hAcc>1.743276</hAcc><vAcc>0.828350</vAcc></extensions></trkpt>
      <trkpt lon="-2.215585" lat="53.112239"><ele>308.548340</ele><time>2022-03-04T11:44:04Z</time><extensions><speed>0.054637</speed><course>68.122833</course><hAcc>1.734675</hAcc><vAcc>0.828396</vAcc></extensions></trkpt>
      <trkpt lon="-2.215584" lat="53.112240"><ele>308.571686</ele><time>2022-03-04T11:44:05Z</time><extensions><speed>0.040866</speed><course>76.092911</course><hAcc>1.733259</hAcc><vAcc>0.828336</vAcc></extensions></trkpt>
      <trkpt lon="-2.215584" lat="53.112240"><ele>308.580200</ele><time>2022-03-04T11:44:06Z</time><extensions><speed>0.024703</speed><course>89.811333</course><hAcc>1.734651</hAcc><vAcc>0.828190</vAcc></extensions></trkpt>
      <trkpt lon="-2.215584" lat="53.112240"><ele>308.573212</ele><time>2022-03-04T11:44:07Z</time><extensions><speed>0.013338</speed><course>138.826523</course><hAcc>1.737546</hAcc><vAcc>0.827987</vAcc></extensions></trkpt>
      <trkpt lon="-2.215584" lat="53.112239"><ele>308.572327</ele><time>2022-03-04T11:44:08Z</time><extensions><speed>0.021127</speed><course>205.085281</course><hAcc>1.743660</hAcc><vAcc>0.827669</vAcc></extensions></trkpt>
      <trkpt lon="-2.215584" lat="53.112239"><ele>308.576324</ele><time>2022-03-04T11:44:09Z</time><extensions><speed>0.041116</speed><course>229.874039</course><hAcc>1.744089</hAcc><vAcc>0.827341</vAcc></extensions></trkpt>
      <trkpt lon="-2.215585" lat="53.112239"><ele>308.576172</ele><time>2022-03-04T11:44:10Z</time><extensions><speed>0.068746</speed><course>239.288712</course><hAcc>1.740829</hAcc><vAcc>0.826970</vAcc></extensions></trkpt>
      <trkpt lon="-2.215586" lat="53.112238"><ele>308.564636</ele><time>2022-03-04T11:44:11Z</time><extensions><speed>0.100573</speed><course>242.369186</course><hAcc>1.738742</hAcc><vAcc>0.826567</vAcc></extensions></trkpt>
      <trkpt lon="-2.215588" lat="53.112238"><ele>308.550110</ele><time>2022-03-04T11:44:11Z</time><extensions><speed>0.131176</speed><course>242.968781</course><hAcc>1.743279</hAcc><vAcc>0.826126</vAcc></extensions></trkpt>
      <trkpt lon="-2.215589" lat="53.112237"><ele>308.531586</ele><time>2022-03-04T11:44:12Z</time><extensions><speed>0.163928</speed><course>241.399200</course><hAcc>1.752652</hAcc><vAcc>0.825675</vAcc></extensions></trkpt>
      <trkpt lon="-2.215592" lat="53.112236"><ele>308.493073</ele><time>2022-03-04T11:44:13Z</time><extensions><speed>0.201615</speed><course>237.620270</course><hAcc>1.762054</hAcc><vAcc>0.825249</vAcc></extensions></trkpt>
      <trkpt lon="-2.215595" lat="53.112235"><ele>308.458344</ele><time>2022-03-04T11:44:14Z</time><extensions><speed>0.271176</speed><course>229.867889</course><hAcc>1.757285</hAcc><vAcc>0.824860</vAcc></extensions></trkpt>
      <trkpt lon="-2.215598" lat="53.112233"><ele>308.412445</ele><time>2022-03-04T11:44:15Z</time><extensions><speed>0.351106</speed><course>219.609955</course><hAcc>1.756891</hAcc><vAcc>0.824552</vAcc></extensions></trkpt>
      <trkpt lon="-2.215601" lat="53.112230"><ele>308.361847</ele><time>2022-03-04T11:44:16Z</time><extensions><speed>0.439323</speed><course>210.340088</course><hAcc>1.760703</hAcc><vAcc>0.824344</vAcc></extensions></trkpt>
      <trkpt lon="-2.215605" lat="53.112226"><ele>308.305847</ele><time>2022-03-04T11:44:17Z</time><extensions><speed>0.523179</speed><course>203.588165</course><hAcc>1.760760</hAcc><vAcc>0.824261</vAcc></extensions></trkpt>
      <trkpt lon="-2.215608" lat="53.112221"><ele>308.244415</ele><time>2022-03-04T11:44:18Z</time><extensions><speed>0.579193</speed><course>199.151154</course><hAcc>1.756720</hAcc><vAcc>0.824298</vAcc></extensions></trkpt>
      <trkpt lon="-2.215610" lat="53.112216"><ele>308.166443</ele><time>2022-03-04T11:44:19Z</time><extensions><speed>0.577769</speed><course>196.943970</course><hAcc>1.756839</hAcc><vAcc>0.824442</vAcc></extensions></trkpt>
      <trkpt lon="-2.215613" lat="53.112212"><ele>308.082794</ele><time>2022-03-04T11:44:20Z</time><extensions><speed>0.555049</speed><course>197.262680</course><hAcc>1.757247</hAcc><vAcc>0.824659</vAcc></extensions></trkpt>
      <trkpt lon="-2.215616" lat="53.112207"><ele>307.994812</ele><time>2022-03-04T11:44:21Z</time><extensions><speed>0.554096</speed><course>200.182266</course><hAcc>1.753485</hAcc><vAcc>0.824920</vAcc></extensions></trkpt>
      <trkpt lon="-2.215619" lat="53.112202"><ele>307.902283</ele><time>2022-03-04T11:44:22Z</time><extensions><speed>0.579184</speed><course>204.734680</course><hAcc>1.750046</hAcc><vAcc>0.825204</vAcc></extensions></trkpt>
      <trkpt lon="-2.215623" lat="53.112197"><ele>307.802765</ele><time>2022-03-04T11:44:23Z</time><extensions><speed>0.625675</speed><course>208.819626</course><hAcc>1.747235</hAcc><vAcc>0.825489</vAcc></extensions></trkpt>
      <trkpt lon="-2.215628" lat="53.112192"><ele>307.696198</ele><time>2022-03-04T11:44:24Z</time><extensions><speed>0.668149</speed><course>210.485809</course><hAcc>1.745032</hAcc><vAcc>0.825759</vAcc></extensions></trkpt>
      <trkpt lon="-2.215633" lat="53.112187"><ele>307.579376</ele><time>2022-03-04T11:44:25Z</time><extensions><speed>0.678656</speed><course>209.111099</course><hAcc>1.745103</hAcc><vAcc>0.825985</vAcc></extensions></trkpt>
      <trkpt lon="-2.215637" lat="53.112181"><ele>307.454498</ele><time>2022-03-04T11:44:26Z</time><extensions><speed>0.659894</speed><course>205.975998</course><hAcc>1.747153</hAcc><vAcc>0.826192</vAcc></extensions></trkpt>
      <trkpt lon="-2.215641" lat="53.112176"><ele>307.318542</ele><time>2022-03-04T11:44:27Z</time><extensions><speed>0.642256</speed><course>202.653122</course><hAcc>1.747407</hAcc><vAcc>0.826374</vAcc></extensions></trkpt>
      <trkpt lon="-2.215645" lat="53.112171"><ele>307.182159</ele><time>2022-03-04T11:44:28Z</time><extensions><speed>0.625277</speed><course>199.817337</course><hAcc>1.746882</hAcc><vAcc>0.826521</vAcc></extensions></trkpt>
      <trkpt lon="-2.215648" lat="53.112165"><ele>307.046143</ele><time>2022-03-04T11:44:29Z</time><extensions><speed>0.608119</speed><course>197.333115</course><hAcc>1.745216</hAcc><vAcc>0.826641</vAcc></extensions></trkpt>
      <trkpt lon="-2.215650" lat="53.112160"><ele>306.904480</ele><time>2022-03-04T11:44:30Z</time><extensions><speed>0.590231</speed><course>194.485641</course><hAcc>1.742070</hAcc><vAcc>0.826731</vAcc></extensions></trkpt>
      <trkpt lon="-2.215652" lat="53.112155"><ele>306.761353</ele><time>2022-03-04T11:44:31Z</time><extensions><speed>0.573883</speed><course>191.426926</course><hAcc>1.741166</hAcc><vAcc>0.826772</vAcc></extensions></trkpt>
      <trkpt lon="-2.215654" lat="53.112150"><ele>306.608185</ele><time>2022-03-04T11:44:32Z</time><extensions><speed>0.555500</speed><course>188.385971</course><hAcc>1.745180</hAcc><vAcc>0.826772</vAcc></extensions></trkpt>
      <trkpt lon="-2.215655" lat="53.112145"><ele>306.450500</ele><time>2022-03-04T11:44:33Z</time><extensions><speed>0.552804</speed><course>185.252121</course><hAcc>1.748168</hAcc><vAcc>0.826747</vAcc></extensions></trkpt>
      <trkpt lon="-2.215655" lat="53.112140"><ele>306.295471</ele><time>2022-03-04T11:44:34Z</time><extensions><speed>0.552045</speed><course>182.741669</course><hAcc>1.750015</hAcc><vAcc>0.826694</vAcc></extensions></trkpt>
      <trkpt lon="-2.215656" lat="53.112135"><ele>306.150452</ele><time>2022-03-04T11:44:35Z</time><extensions><speed>0.553675</speed><course>181.928452</course><hAcc>1.749579</hAcc><vAcc>0.826661</vAcc></extensions></trkpt>
      <trkpt lon="-2.215656" lat="53.112130"><ele>305.990723</ele><time>2022-03-04T11:44:36Z</time><extensions><speed>0.556650</speed><course>182.774033</course><hAcc>1.748252</hAcc><vAcc>0.826607</vAcc></extensions></trkpt>
      <trkpt lon="-2.215656" lat="53.112125"><ele>305.830566</ele><time>2022-03-04T11:44:37Z</time><extensions><speed>0.548467</speed><course>184.396988</course><hAcc>1.749073</hAcc><vAcc>0.826545</vAcc></extensions></trkpt>
      <trkpt lon="-2.215657" lat="53.112120"><ele>305.674042</ele><time>2022-03-04T11:44:38Z</time><extensions><speed>0.528545</speed><course>185.726608</course><hAcc>1.750593</hAcc><vAcc>0.826489</vAcc></extensions></trkpt>
      <trkpt lon="-2.215658" lat="53.112115"><ele>305.521973</ele><time>2022-03-04T11:44:39Z</time><extensions><speed>0.508125</speed><course>185.890930</course><hAcc>1.750199</hAcc><vAcc>0.826436</vAcc></extensions></trkpt>
      <trkpt lon="-2.215659" lat="53.112111"><ele>305.375031</ele><time>2022-03-04T11:44:40Z</time><extensions><speed>0.475671</speed><course>185.110870</course><hAcc>1.751673</hAcc><vAcc>0.826366</vAcc></extensions></trkpt>
      <trkpt lon="-2.215659" lat="53.112107"><ele>305.234009</ele><time>2022-03-04T11:44:41Z</time><extensions><speed>0.441962</speed><course>183.939026</course><hAcc>1.753401</hAcc><vAcc>0.826283</vAcc></extensions></trkpt>
      <trkpt lon="-2.215660" lat="53.112103"><ele>305.099640</ele><time>2022-03-04T11:44:42Z</time><extensions><speed>0.410768</speed><course>182.762695</course><hAcc>1.753895</hAcc><vAcc>0.826190</vAcc></extensions></trkpt>
      <trkpt lon="-2.215660" lat="53.112099"><ele>304.966278</ele><time>2022-03-04T11:44:43Z</time><extensions><speed>0.377975</speed><course>181.586365</course><hAcc>1.753209</hAcc><vAcc>0.826117</vAcc></extensions></trkpt>
      <trkpt lon="-2.215660" lat="53.112096"><ele>304.826874</ele><time>2022-03-04T11:44:44Z</time><extensions><speed>0.339274</speed><course>179.658722</course><hAcc>1.750953</hAcc><vAcc>0.826011</vAcc></extensions></trkpt>
      <trkpt lon="-2.215660" lat="53.112093"><ele>304.694763</ele><time>2022-03-04T11:44:45Z</time><extensions><speed>0.282321</speed><course>175.483261</course><hAcc>1.750879</hAcc><vAcc>0.825911</vAcc></extensions></trkpt>
      <trkpt lon="-2.215659" lat="53.112091"><ele>304.562317</ele><time>2022-03-04T11:44:46Z</time><extensions><speed>0.222207</speed><course>169.501312</course><hAcc>1.752023</hAcc><vAcc>0.825834</vAcc></extensions></trkpt>
      <trkpt lon="-2.215658" lat="53.112089"><ele>304.434570</ele><time>2022-03-04T11:44:47Z</time><extensions><speed>0.172705</speed><course>162.991165</course><hAcc>1.752256</hAcc><vAcc>0.825761</vAcc></extensions></trkpt>
      <trkpt lon="-2.215658" lat="53.112088"><ele>304.313110</ele><time>2022-03-04T11:44:48Z</time><extensions><speed>0.134970</speed><course>154.499466</course><hAcc>1.753089</hAcc><vAcc>0.825634</vAcc></extensions></trkpt>
      <trkpt lon="-2.215657" lat="53.112087"><ele>304.197327</ele><time>2022-03-04T11:44:49Z</time><extensions><speed>0.117576</speed><course>143.388550</course><hAcc>1.751361</hAcc><vAcc>0.825527</vAcc></extensions></trkpt>
      <trkpt lon="-2.215655" lat="53.112086"><ele>304.085480</ele><time>2022-03-04T11:44:50Z</time><extensions><speed>0.117940</speed><course>131.805573</course><hAcc>1.750059</hAcc><vAcc>0.825423</vAcc></extensions></trkpt>
      <trkpt lon="-2.215654" lat="53.112086"><ele>303.993652</ele><time>2022-03-04T11:44:51Z</time><extensions><speed>0.131246</speed><course>123.378670</course><hAcc>1.751532</hAcc><vAcc>0.825312</vAcc></extensions></trkpt>
      <trkpt lon="-2.215652" lat="53.112085"><ele>303.913177</ele><time>2022-03-04T11:44:52Z</time><extensions><speed>0.144527</speed><course>118.407043</course><hAcc>1.758291</hAcc><vAcc>0.825229</vAcc></extensions></trkpt>
      <trkpt lon="-2.215650" lat="53.112085"><ele>303.837769</ele><time>2022-03-04T11:44:53Z</time><extensions><speed>0.146934</speed><course>115.534233</course><hAcc>1.760233</hAcc><vAcc>0.825163</vAcc></extensions></trkpt>
      <trkpt lon="-2.215648" lat="53.112084"><ele>303.770599</ele><time>2022-03-04T11:44:54Z</time><extensions><speed>0.131331</speed><course>109.144531</course><hAcc>1.755438</hAcc><vAcc>0.825117</vAcc></extensions></trkpt>
      <trkpt lon="-2.215647" lat="53.112084"><ele>303.712097</ele><time>2022-03-04T11:44:55Z</time><extensions><speed>0.104215</speed><course>91.865372</course><hAcc>1.755805</hAcc><vAcc>0.825092</vAcc></extensions></trkpt>
      <trkpt lon="-2.215645" lat="53.112084"><ele>303.662567</ele><time>2022-03-04T11:44:56Z</time><extensions><speed>0.089782</speed><course>68.186913</course><hAcc>1.757869</hAcc><vAcc>0.825075</vAcc></extensions></trkpt>
      <trkpt lon="-2.215644" lat="53.112084"><ele>303.622040</ele><time>2022-03-04T11:44:57Z</time><extensions><speed>0.080323</speed><course>49.275383</course><hAcc>1.757796</hAcc><vAcc>0.825065</vAcc></extensions></trkpt>
      <trkpt lon="-2.215643" lat="53.112085"><ele>303.610474</ele><time>2022-03-04T11:44:58Z</time><extensions><speed>0.062635</speed><course>31.370173</course><hAcc>1.755156</hAcc><vAcc>0.825064</vAcc></extensions></trkpt>
      <trkpt lon="-2.215643" lat="53.112085"><ele>303.610229</ele><time>2022-03-04T11:44:59Z</time><extensions><speed>0.042627</speed><course>2.062071</course><hAcc>1.752767</hAcc><vAcc>0.825080</vAcc></extensions></trkpt>
      <trkpt lon="-2.215644" lat="53.112086"><ele>303.620575</ele><time>2022-03-04T11:45:00Z</time><extensions><speed>0.039396</speed><course>306.847900</course><hAcc>1.742898</hAcc><vAcc>0.825095</vAcc></extensions></trkpt>
      <trkpt lon="-2.215644" lat="53.112086"><ele>303.640442</ele><time>2022-03-04T11:45:01Z</time><extensions><speed>0.057851</speed><course>270.590546</course><hAcc>1.727103</hAcc><vAcc>0.825117</vAcc></extensions></trkpt>
      <trkpt lon="-2.215645" lat="53.112085"><ele>303.678619</ele><time>2022-03-04T11:45:02Z</time><extensions><speed>0.071211</speed><course>252.524521</course><hAcc>1.715953</hAcc><vAcc>0.825156</vAcc></extensions></trkpt>
      <trkpt lon="-2.215646" lat="53.112085"><ele>303.718201</ele><time>2022-03-04T11:45:03Z</time><extensions><speed>0.075931</speed><course>240.538742</course><hAcc>1.715766</hAcc><vAcc>0.825198</vAcc></extensions></trkpt>
      <trkpt lon="-2.215647" lat="53.112085"><ele>303.770599</ele><time>2022-03-04T11:45:04Z</time><extensions><speed>0.090321</speed><course>232.881393</course><hAcc>1.700184</hAcc><vAcc>0.825250</vAcc></extensions></trkpt>
      <trkpt lon="-2.215648" lat="53.112084"><ele>303.831573</ele><time>2022-03-04T11:45:05Z</time><extensions><speed>0.116516</speed><course>228.808838</course><hAcc>1.670572</hAcc><vAcc>0.825273</vAcc></extensions></trkpt>
      <trkpt lon="-2.215650" lat="53.112083"><ele>303.900543</ele><time>2022-03-04T11:45:06Z</time><extensions><speed>0.136435</speed><course>226.298340</course><hAcc>1.653458</hAcc><vAcc>0.825280</vAcc></extensions></trkpt>
      <trkpt lon="-2.215651" lat="53.112082"><ele>303.978882</ele><time>2022-03-04T11:45:07Z</time><extensions><speed>0.144636</speed><course>224.106781</course><hAcc>1.658971</hAcc><vAcc>0.825287</vAcc></extensions></trkpt>
      <trkpt lon="-2.215652" lat="53.112082"><ele>304.049774</ele><time>2022-03-04T11:45:08Z</time><extensions><speed>0.108507</speed><course>219.532288</course><hAcc>1.692574</hAcc><vAcc>0.825299</vAcc></extensions></trkpt>
      <trkpt lon="-2.215653" lat="53.112081"><ele>304.123016</ele><time>2022-03-04T11:45:09Z</time><extensions><speed>0.093737</speed><course>207.897079</course><hAcc>1.696311</hAcc><vAcc>0.825317</vAcc></extensions></trkpt>
      <trkpt lon="-2.215654" lat="53.112080"><ele>304.197021</ele><time>2022-03-04T11:45:10Z</time><extensions><speed>0.125216</speed><course>193.174866</course><hAcc>1.659707</hAcc><vAcc>0.825313</vAcc></extensions></trkpt>
      <trkpt lon="-2.215654" lat="53.112079"><ele>304.267181</ele><time>2022-03-04T11:45:11Z</time><extensions><speed>0.131820</speed><course>179.349380</course><hAcc>1.656274</hAcc><vAcc>0.825316</vAcc></extensions></trkpt>
      <trkpt lon="-2.215654" lat="53.112078"><ele>304.329742</ele><time>2022-03-04T11:45:12Z</time><extensions><speed>0.114821</speed><course>163.854813</course><hAcc>1.678184</hAcc><vAcc>0.825350</vAcc></extensions></trkpt>
      <trkpt lon="-2.215653" lat="53.112077"><ele>304.378845</ele><time>2022-03-04T11:45:13Z</time><extensions><speed>0.082015</speed><course>142.864655</course><hAcc>1.711610</hAcc><vAcc>0.825385</vAcc></extensions></trkpt>
      <trkpt lon="-2.215653" lat="53.112076"><ele>304.423889</ele><time>2022-03-04T11:45:14Z</time><extensions><speed>0.051482</speed><course>121.712845</course><hAcc>1.744510</hAcc><vAcc>0.825439</vAcc></extensions></trkpt>
      <trkpt lon="-2.215652" lat="53.112076"><ele>304.463562</ele><time>2022-03-04T11:45:15Z</time><extensions><speed>0.046672</speed><course>125.992111</course><hAcc>1.727631</hAcc><vAcc>0.825524</vAcc></extensions></trkpt>
      <trkpt lon="-2.215652" lat="53.112076"><ele>304.489685</ele><time>2022-03-04T11:45:16Z</time><extensions><speed>0.050746</speed><course>163.479752</course><hAcc>1.723664</hAcc><vAcc>0.825610</vAcc></extensions></trkpt>
      <trkpt lon="-2.215652" lat="53.112075"><ele>304.516266</ele><time>2022-03-04T11:45:17Z</time><extensions><speed>0.083004</speed><course>192.891174</course><hAcc>1.735375</hAcc><vAcc>0.825697</vAcc></extensions></trkpt>
      <trkpt lon="-2.215652" lat="53.112074"><ele>304.536285</ele><time>2022-03-04T11:45:18Z</time><extensions><speed>0.128457</speed><course>205.677597</course><hAcc>1.744816</hAcc><vAcc>0.825788</vAcc></extensions></trkpt>
      <trkpt lon="-2.215654" lat="53.112073"><ele>304.551605</ele><time>2022-03-04T11:45:19Z</time><extensions><speed>0.170310</speed><course>213.801590</course><hAcc>1.744083</hAcc><vAcc>0.825879</vAcc></extensions></trkpt>
      <trkpt lon="-2.215655" lat="53.112072"><ele>304.567596</ele><time>2022-03-04T11:45:20Z</time><extensions><speed>0.187350</speed><course>220.915604</course><hAcc>1.744893</hAcc><vAcc>0.825963</vAcc></extensions></trkpt>
      <trkpt lon="-2.215657" lat="53.112071"><ele>304.571381</ele><time>2022-03-04T11:45:21Z</time><extensions><speed>0.190310</speed><course>226.650635</course><hAcc>1.750696</hAcc><vAcc>0.826016</vAcc></extensions></trkpt>
      <trkpt lon="-2.215659" lat="53.112069"><ele>304.569183</ele><time>2022-03-04T11:45:22Z</time><extensions><speed>0.199666</speed><course>231.260605</course><hAcc>1.756789</hAcc><vAcc>0.826010</vAcc></extensions></trkpt>
      <trkpt lon="-2.215662" lat="53.112068"><ele>304.563965</ele><time>2022-03-04T11:45:23Z</time><extensions><speed>0.234356</speed><course>236.183807</course><hAcc>1.752327</hAcc><vAcc>0.825943</vAcc></extensions></trkpt>
      <trkpt lon="-2.215665" lat="53.112067"><ele>304.559143</ele><time>2022-03-04T11:45:24Z</time><extensions><speed>0.266615</speed><course>241.705109</course><hAcc>1.750302</hAcc><vAcc>0.825843</vAcc></extensions></trkpt>
      <trkpt lon="-2.215669" lat="53.112066"><ele>304.555878</ele><time>2022-03-04T11:45:26Z</time><extensions><speed>0.292163</speed><course>247.552338</course><hAcc>1.752010</hAcc><vAcc>0.825671</vAcc></extensions></trkpt>
      <trkpt lon="-2.215673" lat="53.112065"><ele>304.547913</ele><time>2022-03-04T11:45:27Z</time><extensions><speed>0.316450</speed><course>252.954147</course><hAcc>1.754732</hAcc><vAcc>0.825385</vAcc></extensions></trkpt>
      <trkpt lon="-2.215678" lat="53.112065"><ele>304.536102</ele><time>2022-03-04T11:45:28Z</time><extensions><speed>0.337211</speed><course>257.329315</course><hAcc>1.756719</hAcc><vAcc>0.825029</vAcc></extensions></trkpt>
      <trkpt lon="-2.215683" lat="53.112064"><ele>304.523499</ele><time>2022-03-04T11:45:29Z</time><extensions><speed>0.341247</speed><course>261.327942</course><hAcc>1.757233</hAcc><vAcc>0.824613</vAcc></extensions></trkpt>
      <trkpt lon="-2.215688" lat="53.112064"><ele>304.513428</ele><time>2022-03-04T11:45:30Z</time><extensions><speed>0.314573</speed><course>265.580322</course><hAcc>1.759482</hAcc><vAcc>0.824169</vAcc></extensions></trkpt>
      <trkpt lon="-2.215692" lat="53.112064"><ele>304.503174</ele><time>2022-03-04T11:45:31Z</time><extensions><speed>0.269907</speed><course>271.612152</course><hAcc>1.760862</hAcc><vAcc>0.823702</vAcc></extensions></trkpt>
      <trkpt lon="-2.215696" lat="53.112064"><ele>304.497742</ele><time>2022-03-04T11:45:32Z</time><extensions><speed>0.225870</speed><course>282.268219</course><hAcc>1.761382</hAcc><vAcc>0.823220</vAcc></extensions></trkpt>
      <trkpt lon="-2.215699" lat="53.112064"><ele>304.492371</ele><time>2022-03-04T11:45:33Z</time><extensions><speed>0.198529</speed><course>296.494476</course><hAcc>1.763112</hAcc><vAcc>0.822762</vAcc></extensions></trkpt>
      <trkpt lon="-2.215702" lat="53.112065"><ele>304.485931</ele><time>2022-03-04T11:45:34Z</time><extensions><speed>0.189957</speed><course>307.903442</course><hAcc>1.764304</hAcc><vAcc>0.822344</vAcc></extensions></trkpt>
      <trkpt lon="-2.215704" lat="53.112066"><ele>304.474701</ele><time>2022-03-04T11:45:35Z</time><extensions><speed>0.188082</speed><course>311.766937</course><hAcc>1.765814</hAcc><vAcc>0.821997</vAcc></extensions></trkpt>
      <trkpt lon="-2.215706" lat="53.112068"><ele>304.446014</ele><time>2022-03-04T11:45:36Z</time><extensions><speed>0.192479</speed><course>309.057220</course><hAcc>1.765374</hAcc><vAcc>0.821708</vAcc></extensions></trkpt>
      <trkpt lon="-2.215708" lat="53.112069"><ele>304.418182</ele><time>2022-03-04T11:45:37Z</time><extensions><speed>0.203594</speed><course>304.329041</course><hAcc>1.763849</hAcc><vAcc>0.821508</vAcc></extensions></trkpt>
      <trkpt lon="-2.215711" lat="53.112070"><ele>304.390533</ele><time>2022-03-04T11:45:38Z</time><extensions><speed>0.210818</speed><course>299.437195</course><hAcc>1.766039</hAcc><vAcc>0.821407</vAcc></extensions></trkpt>
      <trkpt lon="-2.215714" lat="53.112070"><ele>304.344666</ele><time>2022-03-04T11:45:39Z</time><extensions><speed>0.217206</speed><course>293.745941</course><hAcc>1.766956</hAcc><vAcc>0.821396</vAcc></extensions></trkpt>
      <trkpt lon="-2.215717" lat="53.112071"><ele>304.281311</ele><time>2022-03-04T11:45:40Z</time><extensions><speed>0.218047</speed><course>287.160675</course><hAcc>1.764575</hAcc><vAcc>0.821472</vAcc></extensions></trkpt>
      <trkpt lon="-2.215720" lat="53.112072"><ele>304.240356</ele><time>2022-03-04T11:45:41Z</time><extensions><speed>0.209100</speed><course>280.087585</course><hAcc>1.762189</hAcc><vAcc>0.821602</vAcc></extensions></trkpt>
      <trkpt lon="-2.215723" lat="53.112072"><ele>304.183441</ele><time>2022-03-04T11:45:42Z</time><extensions><speed>0.193498</speed><course>271.073975</course><hAcc>1.761428</hAcc><vAcc>0.821795</vAcc></extensions></trkpt>
      <trkpt lon="-2.215726" lat="53.112072"><ele>304.128723</ele><time>2022-03-04T11:45:43Z</time><extensions><speed>0.184304</speed><course>259.567810</course><hAcc>1.761034</hAcc><vAcc>0.822035</vAcc></extensions></trkpt>
      <trkpt lon="-2.215729" lat="53.112071"><ele>304.062531</ele><time>2022-03-04T11:45:44Z</time><extensions><speed>0.186200</speed><course>248.694534</course><hAcc>1.761798</hAcc><vAcc>0.822300</vAcc></extensions></trkpt>
      <trkpt lon="-2.215731" lat="53.112070"><ele>303.984344</ele><time>2022-03-04T11:45:45Z</time><extensions><speed>0.200166</speed><course>242.124512</course><hAcc>1.760476</hAcc><vAcc>0.822585</vAcc></extensions></trkpt>
      <trkpt lon="-2.215734" lat="53.112069"><ele>303.891724</ele><time>2022-03-04T11:45:46Z</time><extensions><speed>0.222353</speed><course>240.867554</course><hAcc>1.754581</hAcc><vAcc>0.822871</vAcc></extensions></trkpt>
      <trkpt lon="-2.215737" lat="53.112068"><ele>303.789917</ele><time>2022-03-04T11:45:47Z</time><extensions><speed>0.245909</speed><course>242.542114</course><hAcc>1.746903</hAcc><vAcc>0.823177</vAcc></extensions></trkpt>
      <trkpt lon="-2.215741" lat="53.112067"><ele>303.686981</ele><time>2022-03-04T11:45:48Z</time><extensions><speed>0.268144</speed><course>243.461502</course><hAcc>1.740299</hAcc><vAcc>0.823468</vAcc></extensions></trkpt>
      <trkpt lon="-2.215745" lat="53.112066"><ele>303.584869</ele><time>2022-03-04T11:45:49Z</time><extensions><speed>0.302415</speed><course>241.934723</course><hAcc>1.733189</hAcc><vAcc>0.823743</vAcc></extensions></trkpt>
      <trkpt lon="-2.215749" lat="53.112064"><ele>303.477936</ele><time>2022-03-04T11:45:50Z</time><extensions><speed>0.345594</speed><course>238.282867</course><hAcc>1.731029</hAcc><vAcc>0.824006</vAcc></extensions></trkpt>
      <trkpt lon="-2.215753" lat="53.112062"><ele>303.374298</ele><time>2022-03-04T11:45:51Z</time><extensions><speed>0.353896</speed><course>231.159821</course><hAcc>1.737836</hAcc><vAcc>0.824253</vAcc></extensions></trkpt>
      <trkpt lon="-2.215758" lat="53.112060"><ele>303.272400</ele><time>2022-03-04T11:45:52Z</time><extensions><speed>0.407690</speed><course>222.321564</course><hAcc>1.722710</hAcc><vAcc>0.824486</vAcc></extensions></trkpt>
      <trkpt lon="-2.215762" lat="53.112057"><ele>303.172974</ele><time>2022-03-04T11:45:53Z</time><extensions><speed>0.445150</speed><course>214.520660</course><hAcc>1.709638</hAcc><vAcc>0.824711</vAcc></extensions></trkpt>
      <trkpt lon="-2.215765" lat="53.112053"><ele>303.068787</ele><time>2022-03-04T11:45:54Z</time><extensions><speed>0.474712</speed><course>208.462997</course><hAcc>1.705180</hAcc><vAcc>0.824921</vAcc></extensions></trkpt>
      <trkpt lon="-2.215769" lat="53.112049"><ele>302.968811</ele><time>2022-03-04T11:45:55Z</time><extensions><speed>0.515495</speed><course>205.656586</course><hAcc>1.701941</hAcc><vAcc>0.825106</vAcc></extensions></trkpt>
      <trkpt lon="-2.215773" lat="53.112044"><ele>302.859344</ele><time>2022-03-04T11:45:56Z</time><extensions><speed>0.576616</speed><course>205.641968</course><hAcc>1.696491</hAcc><vAcc>0.825268</vAcc></extensions></trkpt>
      <trkpt lon="-2.215777" lat="53.112039"><ele>302.752960</ele><time>2022-03-04T11:45:57Z</time><extensions><speed>0.646299</speed><course>207.374741</course><hAcc>1.691314</hAcc><vAcc>0.825415</vAcc></extensions></trkpt>
      <trkpt lon="-2.215782" lat="53.112034"><ele>302.654755</ele><time>2022-03-04T11:45:58Z</time><extensions><speed>0.725380</speed><course>209.738678</course><hAcc>1.682555</hAcc><vAcc>0.825529</vAcc></extensions></trkpt>
      <trkpt lon="-2.215788" lat="53.112028"><ele>302.542084</ele><time>2022-03-04T11:45:59Z</time><extensions><speed>0.792829</speed><course>212.322632</course><hAcc>1.670806</hAcc><vAcc>0.825591</vAcc></extensions></trkpt>
      <trkpt lon="-2.215794" lat="53.112022"><ele>302.433807</ele><time>2022-03-04T11:46:00Z</time><extensions><speed>0.803438</speed><course>214.257660</course><hAcc>1.667221</hAcc><vAcc>0.825617</vAcc></extensions></trkpt>
      <trkpt lon="-2.215800" lat="53.112016"><ele>302.316620</ele><time>2022-03-04T11:46:01Z</time><extensions><speed>0.702552</speed><course>214.979568</course><hAcc>1.679873</hAcc><vAcc>0.825632</vAcc></extensions></trkpt>
      <trkpt lon="-2.215806" lat="53.112011"><ele>302.205963</ele><time>2022-03-04T11:46:02Z</time><extensions><speed>0.682791</speed><course>214.147736</course><hAcc>1.681035</hAcc><vAcc>0.825635</vAcc></extensions></trkpt>
      <trkpt lon="-2.215811" lat="53.112006"><ele>302.081390</ele><time>2022-03-04T11:46:03Z</time><extensions><speed>0.680903</speed><course>211.432281</course><hAcc>1.680152</hAcc><vAcc>0.825618</vAcc></extensions></trkpt>
      <trkpt lon="-2.215816" lat="53.112000"><ele>301.950836</ele><time>2022-03-04T11:46:04Z</time><extensions><speed>0.725946</speed><course>206.676025</course><hAcc>1.672306</hAcc><vAcc>0.825577</vAcc></extensions></trkpt>
      <trkpt lon="-2.215822" lat="53.111993"><ele>301.830353</ele><time>2022-03-04T11:46:05Z</time><extensions><speed>0.992099</speed><course>201.413834</course><hAcc>1.646704</hAcc><vAcc>0.825516</vAcc></extensions></trkpt>
      <trkpt lon="-2.215826" lat="53.111984"><ele>301.694794</ele><time>2022-03-04T11:46:06Z</time><extensions><speed>1.074236</speed><course>192.494415</course><hAcc>1.673686</hAcc><vAcc>0.825469</vAcc></extensions></trkpt>
      <trkpt lon="-2.215827" lat="53.111975"><ele>301.559357</ele><time>2022-03-04T11:46:07Z</time><extensions><speed>1.088990</speed><course>173.233673</course><hAcc>1.689829</hAcc><vAcc>0.825414</vAcc></extensions></trkpt>
      <trkpt lon="-2.215822" lat="53.111965"><ele>301.423676</ele><time>2022-03-04T11:46:08Z</time><extensions><speed>1.138209</speed><course>155.652542</course><hAcc>1.682978</hAcc><vAcc>0.825355</vAcc></extensions></trkpt>
      <trkpt lon="-2.215813" lat="53.111956"><ele>301.291107</ele><time>2022-03-04T11:46:09Z</time><extensions><speed>1.171205</speed><course>144.548492</course><hAcc>1.673629</hAcc><vAcc>0.825302</vAcc></extensions></trkpt>
      <trkpt lon="-2.215802" lat="53.111948"><ele>301.156006</ele><time>2022-03-04T11:46:10Z</time><extensions><speed>1.275200</speed><course>138.552032</course><hAcc>1.667506</hAcc><vAcc>0.825254</vAcc></extensions></trkpt>
      <trkpt lon="-2.215789" lat="53.111939"><ele>301.011505</ele><time>2022-03-04T11:46:11Z</time><extensions><speed>1.298185</speed><course>136.800354</course><hAcc>1.669166</hAcc><vAcc>0.825236</vAcc></extensions></trkpt>
      <trkpt lon="-2.215776" lat="53.111931"><ele>300.859589</ele><time>2022-03-04T11:46:12Z</time><extensions><speed>1.292925</speed><course>137.466202</course><hAcc>1.679918</hAcc><vAcc>0.825235</vAcc></extensions></trkpt>
      <trkpt lon="-2.215763" lat="53.111922"><ele>300.720947</ele><time>2022-03-04T11:46:13Z</time><extensions><speed>1.286136</speed><course>136.021408</course><hAcc>1.671512</hAcc><vAcc>0.825261</vAcc></extensions></trkpt>
      <trkpt lon="-2.215749" lat="53.111914"><ele>300.590790</ele><time>2022-03-04T11:46:14Z</time><extensions><speed>1.267684</speed><course>135.227310</course><hAcc>1.672002</hAcc><vAcc>0.825319</vAcc></extensions></trkpt>
      <trkpt lon="-2.215736" lat="53.111906"><ele>300.462433</ele><time>2022-03-04T11:46:15Z</time><extensions><speed>1.236244</speed><course>133.031158</course><hAcc>1.672237</hAcc><vAcc>0.825434</vAcc></extensions></trkpt>
      <trkpt lon="-2.215722" lat="53.111899"><ele>300.339661</ele><time>2022-03-04T11:46:16Z</time><extensions><speed>1.186130</speed><course>131.401001</course><hAcc>1.679426</hAcc><vAcc>0.825582</vAcc></extensions></trkpt>
      <trkpt lon="-2.215709" lat="53.111892"><ele>300.229950</ele><time>2022-03-04T11:46:17Z</time><extensions><speed>1.095077</speed><course>129.097870</course><hAcc>1.688285</hAcc><vAcc>0.825769</vAcc></extensions></trkpt>
      <trkpt lon="-2.215696" lat="53.111886"><ele>300.119049</ele><time>2022-03-04T11:46:18Z</time><extensions><speed>1.057298</speed><course>126.498436</course><hAcc>1.685728</hAcc><vAcc>0.825966</vAcc></extensions></trkpt>
      <trkpt lon="-2.215683" lat="53.111881"><ele>300.026459</ele><time>2022-03-04T11:46:19Z</time><extensions><speed>1.081594</speed><course>123.695976</course><hAcc>1.688790</hAcc><vAcc>0.826154</vAcc></extensions></trkpt>
      <trkpt lon="-2.215670" lat="53.111876"><ele>299.936859</ele><time>2022-03-04T11:46:19Z</time><extensions><speed>1.004638</speed><course>117.294037</course><hAcc>1.696279</hAcc><vAcc>0.826350</vAcc></extensions></trkpt>
      <trkpt lon="-2.215657" lat="53.111873"><ele>299.843536</ele><time>2022-03-04T11:46:20Z</time><extensions><speed>0.916337</speed><course>110.671181</course><hAcc>1.707758</hAcc><vAcc>0.826555</vAcc></extensions></trkpt>
      <trkpt lon="-2.215644" lat="53.111870"><ele>299.755005</ele><time>2022-03-04T11:46:21Z</time><extensions><speed>0.939092</speed><course>107.111221</course><hAcc>1.715565</hAcc><vAcc>0.826764</vAcc></extensions></trkpt>
      <trkpt lon="-2.215630" lat="53.111868"><ele>299.661926</ele><time>2022-03-04T11:46:22Z</time><extensions><speed>0.913107</speed><course>102.293282</course><hAcc>1.720976</hAcc><vAcc>0.826956</vAcc></extensions></trkpt>
      <trkpt lon="-2.215617" lat="53.111867"><ele>299.555847</ele><time>2022-03-04T11:46:23Z</time><extensions><speed>0.841587</speed><course>96.840309</course><hAcc>1.726912</hAcc><vAcc>0.827138</vAcc></extensions></trkpt>
      <trkpt lon="-2.215605" lat="53.111866"><ele>299.432922</ele><time>2022-03-04T11:46:24Z</time><extensions><speed>0.775748</speed><course>91.393059</course><hAcc>1.734530</hAcc><vAcc>0.827302</vAcc></extensions></trkpt>
      <trkpt lon="-2.215595" lat="53.111866"><ele>299.307770</ele><time>2022-03-04T11:46:25Z</time><extensions><speed>0.676011</speed><course>87.073250</course><hAcc>1.744733</hAcc><vAcc>0.827450</vAcc></extensions></trkpt>
      <trkpt lon="-2.215585" lat="53.111867"><ele>299.180878</ele><time>2022-03-04T11:46:26Z</time><extensions><speed>0.570478</speed><course>82.072067</course><hAcc>1.754126</hAcc><vAcc>0.827584</vAcc></extensions></trkpt>
      <trkpt lon="-2.215578" lat="53.111867"><ele>299.050568</ele><time>2022-03-04T11:46:27Z</time><extensions><speed>0.473395</speed><course>80.846169</course><hAcc>1.767177</hAcc><vAcc>0.827707</vAcc></extensions></trkpt>
      <trkpt lon="-2.215570" lat="53.111868"><ele>298.918518</ele><time>2022-03-04T11:46:28Z</time><extensions><speed>0.554512</speed><course>85.135712</course><hAcc>1.757854</hAcc><vAcc>0.827849</vAcc></extensions></trkpt>
      <trkpt lon="-2.215560" lat="53.111868"><ele>298.788055</ele><time>2022-03-04T11:46:29Z</time><extensions><speed>0.765767</speed><course>90.764801</course><hAcc>1.740868</hAcc><vAcc>0.827993</vAcc></extensions></trkpt>
      <trkpt lon="-2.215548" lat="53.111868"><ele>298.643311</ele><time>2022-03-04T11:46:30Z</time><extensions><speed>0.872182</speed><course>96.980522</course><hAcc>1.752215</hAcc><vAcc>0.828122</vAcc></extensions></trkpt>
      <trkpt lon="-2.215534" lat="53.111866"><ele>298.495819</ele><time>2022-03-04T11:46:31Z</time><extensions><speed>0.952030</speed><course>101.546478</course><hAcc>1.751099</hAcc><vAcc>0.828267</vAcc></extensions></trkpt>
      <trkpt lon="-2.215520" lat="53.111864"><ele>298.346985</ele><time>2022-03-04T11:46:32Z</time><extensions><speed>0.967690</speed><course>106.082108</course><hAcc>1.745378</hAcc><vAcc>0.828421</vAcc></extensions></trkpt>
      <trkpt lon="-2.215507" lat="53.111862"><ele>298.170776</ele><time>2022-03-04T11:46:33Z</time><extensions><speed>0.871441</speed><course>102.490257</course><hAcc>1.738898</hAcc><vAcc>0.828589</vAcc></extensions></trkpt>
      <trkpt lon="-2.215495" lat="53.111861"><ele>298.006317</ele><time>2022-03-04T11:46:34Z</time><extensions><speed>0.788531</speed><course>94.744324</course><hAcc>1.737497</hAcc><vAcc>0.828756</vAcc></extensions></trkpt>
      <trkpt lon="-2.215483" lat="53.111861"><ele>297.848724</ele><time>2022-03-04T11:46:35Z</time><extensions><speed>0.810461</speed><course>86.063324</course><hAcc>1.729464</hAcc><vAcc>0.828905</vAcc></extensions></trkpt>
      <trkpt lon="-2.215471" lat="53.111862"><ele>297.684235</ele><time>2022-03-04T11:46:36Z</time><extensions><speed>0.846580</speed><course>78.892235</course><hAcc>1.724129</hAcc><vAcc>0.829055</vAcc></extensions></trkpt>
      <trkpt lon="-2.215458" lat="53.111864"><ele>297.544037</ele><time>2022-03-04T11:46:37Z</time><extensions><speed>0.885565</speed><course>75.534439</course><hAcc>1.724621</hAcc><vAcc>0.829180</vAcc></extensions></trkpt>
      <trkpt lon="-2.215446" lat="53.111866"><ele>297.404907</ele><time>2022-03-04T11:46:38Z</time><extensions><speed>0.739462</speed><course>73.750061</course><hAcc>1.724470</hAcc><vAcc>0.829291</vAcc></extensions></trkpt>
      <trkpt lon="-2.215437" lat="53.111867"><ele>297.268677</ele><time>2022-03-04T11:46:39Z</time><extensions><speed>0.632930</speed><course>72.298965</course><hAcc>1.716791</hAcc><vAcc>0.829376</vAcc></extensions></trkpt>
      <trkpt lon="-2.215428" lat="53.111869"><ele>297.135437</ele><time>2022-03-04T11:46:40Z</time><extensions><speed>0.603805</speed><course>74.397179</course><hAcc>1.722672</hAcc><vAcc>0.829438</vAcc></extensions></trkpt>
      <trkpt lon="-2.215418" lat="53.111871"><ele>297.000305</ele><time>2022-03-04T11:46:41Z</time><extensions><speed>0.788394</speed><course>77.441391</course><hAcc>1.736712</hAcc><vAcc>0.829479</vAcc></extensions></trkpt>
      <trkpt lon="-2.215406" lat="53.111872"><ele>296.871521</ele><time>2022-03-04T11:46:42Z</time><extensions><speed>0.861930</speed><course>76.215019</course><hAcc>1.723214</hAcc><vAcc>0.829507</vAcc></extensions></trkpt>
      <trkpt lon="-2.215393" lat="53.111874"><ele>296.756348</ele><time>2022-03-04T11:46:43Z</time><extensions><speed>0.853570</speed><course>73.504395</course><hAcc>1.715189</hAcc><vAcc>0.829511</vAcc></extensions></trkpt>
      <trkpt lon="-2.215382" lat="53.111877"><ele>296.644104</ele><time>2022-03-04T11:46:44Z</time><extensions><speed>0.816640</speed><course>68.690887</course><hAcc>1.704298</hAcc><vAcc>0.829502</vAcc></extensions></trkpt>
      <trkpt lon="-2.215370" lat="53.111880"><ele>296.542603</ele><time>2022-03-04T11:46:45Z</time><extensions><speed>0.820613</speed><course>65.156593</course><hAcc>1.693063</hAcc><vAcc>0.829465</vAcc></extensions></trkpt>
      <trkpt lon="-2.215359" lat="53.111883"><ele>296.449310</ele><time>2022-03-04T11:46:46Z</time><extensions><speed>0.840343</speed><course>63.635235</course><hAcc>1.685345</hAcc><vAcc>0.829387</vAcc></extensions></trkpt>
      <trkpt lon="-2.215346" lat="53.111886"><ele>296.358978</ele><time>2022-03-04T11:46:47Z</time><extensions><speed>1.085226</speed><course>66.692818</course><hAcc>1.701375</hAcc><vAcc>0.829292</vAcc></extensions></trkpt>
      <trkpt lon="-2.215331" lat="53.111890"><ele>296.274689</ele><time>2022-03-04T11:46:48Z</time><extensions><speed>1.111933</speed><course>69.740021</course><hAcc>1.729397</hAcc><vAcc>0.829180</vAcc></extensions></trkpt>
      <trkpt lon="-2.215317" lat="53.111893"><ele>296.196686</ele><time>2022-03-04T11:46:49Z</time><extensions><speed>0.845687</speed><course>75.721581</course><hAcc>1.696125</hAcc><vAcc>0.829050</vAcc></extensions></trkpt>
      <trkpt lon="-2.215306" lat="53.111894"><ele>296.124847</ele><time>2022-03-04T11:46:50Z</time><extensions><speed>0.670315</speed><course>81.153511</course><hAcc>1.682724</hAcc><vAcc>0.828902</vAcc></extensions></trkpt>
      <trkpt lon="-2.215297" lat="53.111895"><ele>296.057007</ele><time>2022-03-04T11:46:51Z</time><extensions><speed>0.584126</speed><course>83.363731</course><hAcc>1.692845</hAcc><vAcc>0.828742</vAcc></extensions></trkpt>
      <trkpt lon="-2.215288" lat="53.111895"><ele>295.995117</ele><time>2022-03-04T11:46:52Z</time><extensions><speed>0.524276</speed><course>83.388443</course><hAcc>1.703697</hAcc><vAcc>0.828567</vAcc></extensions></trkpt>
      <trkpt lon="-2.215281" lat="53.111896"><ele>295.939789</ele><time>2022-03-04T11:46:53Z</time><extensions><speed>0.494900</speed><course>83.724586</course><hAcc>1.712973</hAcc><vAcc>0.828391</vAcc></extensions></trkpt>
      <trkpt lon="-2.215275" lat="53.111896"><ele>295.888977</ele><time>2022-03-04T11:46:54Z</time><extensions><speed>0.358617</speed><course>82.901115</course><hAcc>1.723229</hAcc><vAcc>0.828222</vAcc></extensions></trkpt>
      <trkpt lon="-2.215271" lat="53.111896"><ele>295.847931</ele><time>2022-03-04T11:46:55Z</time><extensions><speed>0.138427</speed><course>103.834930</course><hAcc>1.722515</hAcc><vAcc>0.828047</vAcc></extensions></trkpt>
      <trkpt lon="-2.215269" lat="53.111896"><ele>295.808929</ele><time>2022-03-04T11:46:56Z</time><extensions><speed>0.091376</speed><course>141.812653</course><hAcc>1.719361</hAcc><vAcc>0.827864</vAcc></extensions></trkpt>
      <trkpt lon="-2.215269" lat="53.111895"><ele>295.776337</ele><time>2022-03-04T11:46:57Z</time><extensions><speed>0.095129</speed><course>153.518509</course><hAcc>1.724682</hAcc><vAcc>0.827712</vAcc></extensions></trkpt>
      <trkpt lon="-2.215268" lat="53.111894"><ele>295.755829</ele><time>2022-03-04T11:46:58Z</time><extensions><speed>0.110472</speed><course>143.441605</course><hAcc>1.730668</hAcc><vAcc>0.827595</vAcc></extensions></trkpt>
      <trkpt lon="-2.215267" lat="53.111894"><ele>295.746704</ele><time>2022-03-04T11:46:59Z</time><extensions><speed>0.141073</speed><course>127.602661</course><hAcc>1.741057</hAcc><vAcc>0.827514</vAcc></extensions></trkpt>
      <trkpt lon="-2.215264" lat="53.111893"><ele>295.746277</ele><time>2022-03-04T11:47:00Z</time><extensions><speed>0.195525</speed><course>113.028381</course><hAcc>1.749315</hAcc><vAcc>0.827488</vAcc></extensions></trkpt>
      <trkpt lon="-2.215261" lat="53.111892"><ele>295.747406</ele><time>2022-03-04T11:47:01Z</time><extensions><speed>0.279118</speed><course>99.456161</course><hAcc>1.744982</hAcc><vAcc>0.827492</vAcc></extensions></trkpt>
      <trkpt lon="-2.215256" lat="53.111892"><ele>295.761688</ele><time>2022-03-04T11:47:02Z</time><extensions><speed>0.428012</speed><course>88.012451</course><hAcc>1.733053</hAcc><vAcc>0.827513</vAcc></extensions></trkpt>
      <trkpt lon="-2.215249" lat="53.111893"><ele>295.767883</ele><time>2022-03-04T11:47:03Z</time><extensions><speed>0.466451</speed><course>82.498756</course><hAcc>1.754723</hAcc><vAcc>0.827541</vAcc></extensions></trkpt>
      <trkpt lon="-2.215242" lat="53.111893"><ele>295.783295</ele><time>2022-03-04T11:47:04Z</time><extensions><speed>0.438105</speed><course>78.549240</course><hAcc>1.768787</hAcc><vAcc>0.827573</vAcc></extensions></trkpt>
      <trkpt lon="-2.215237" lat="53.111894"><ele>295.802216</ele><time>2022-03-04T11:47:05Z</time><extensions><speed>0.377260</speed><course>74.435349</course><hAcc>1.762300</hAcc><vAcc>0.827592</vAcc></extensions></trkpt>
      <trkpt lon="-2.215230" lat="53.111895"><ele>295.829102</ele><time>2022-03-04T11:47:06Z</time><extensions><speed>0.549854</speed><course>73.005486</course><hAcc>1.732479</hAcc><vAcc>0.827598</vAcc></extensions></trkpt>
      <trkpt lon="-2.215221" lat="53.111897"><ele>295.858490</ele><time>2022-03-04T11:47:07Z</time><extensions><speed>0.689606</speed><course>72.654228</course><hAcc>1.738057</hAcc><vAcc>0.827596</vAcc></extensions></trkpt>
      <trkpt lon="-2.215211" lat="53.111899"><ele>295.890656</ele><time>2022-03-04T11:47:08Z</time><extensions><speed>0.731081</speed><course>69.855431</course><hAcc>1.743311</hAcc><vAcc>0.827578</vAcc></extensions></trkpt>
      <trkpt lon="-2.215201" lat="53.111902"><ele>295.916168</ele><time>2022-03-04T11:47:09Z</time><extensions><speed>0.756256</speed><course>65.277939</course><hAcc>1.737887</hAcc><vAcc>0.827544</vAcc></extensions></trkpt>
      <trkpt lon="-2.215191" lat="53.111905"><ele>295.943420</ele><time>2022-03-04T11:47:10Z</time><extensions><speed>0.752470</speed><course>59.060989</course><hAcc>1.727494</hAcc><vAcc>0.827496</vAcc></extensions></trkpt>
      <trkpt lon="-2.215182" lat="53.111908"><ele>295.969788</ele><time>2022-03-04T11:47:11Z</time><extensions><speed>0.723792</speed><course>51.884148</course><hAcc>1.715438</hAcc><vAcc>0.827421</vAcc></extensions></trkpt>
      <trkpt lon="-2.215174" lat="53.111913"><ele>296.014618</ele><time>2022-03-04T11:47:12Z</time><extensions><speed>0.682520</speed><course>43.256115</course><hAcc>1.709941</hAcc><vAcc>0.827294</vAcc></extensions></trkpt>
      <trkpt lon="-2.215168" lat="53.111917"><ele>296.051483</ele><time>2022-03-04T11:47:13Z</time><extensions><speed>0.672232</speed><course>35.988701</course><hAcc>1.709051</hAcc><vAcc>0.827169</vAcc></extensions></trkpt>
      <trkpt lon="-2.215162" lat="53.111922"><ele>296.078094</ele><time>2022-03-04T11:47:14Z</time><extensions><speed>0.684374</speed><course>34.197441</course><hAcc>1.707755</hAcc><vAcc>0.827050</vAcc></extensions></trkpt>
      <trkpt lon="-2.215156" lat="53.111928"><ele>296.104706</ele><time>2022-03-04T11:47:15Z</time><extensions><speed>0.746787</speed><course>35.172626</course><hAcc>1.708722</hAcc><vAcc>0.826946</vAcc></extensions></trkpt>
      <trkpt lon="-2.215149" lat="53.111933"><ele>296.132416</ele><time>2022-03-04T11:47:16Z</time><extensions><speed>0.788568</speed><course>39.657669</course><hAcc>1.709437</hAcc><vAcc>0.826862</vAcc></extensions></trkpt>
      <trkpt lon="-2.215140" lat="53.111938"><ele>296.166290</ele><time>2022-03-04T11:47:17Z</time><extensions><speed>0.761014</speed><course>47.937031</course><hAcc>1.715109</hAcc><vAcc>0.826784</vAcc></extensions></trkpt>
      <trkpt lon="-2.215132" lat="53.111942"><ele>296.200897</ele><time>2022-03-04T11:47:18Z</time><extensions><speed>0.728018</speed><course>58.348228</course><hAcc>1.716051</hAcc><vAcc>0.826669</vAcc></extensions></trkpt>
      <trkpt lon="-2.215122" lat="53.111945"><ele>296.244141</ele><time>2022-03-04T11:47:19Z</time><extensions><speed>0.682480</speed><course>70.354477</course><hAcc>1.716175</hAcc><vAcc>0.826638</vAcc></extensions></trkpt>
      <trkpt lon="-2.215113" lat="53.111946"><ele>296.285339</ele><time>2022-03-04T11:47:20Z</time><extensions><speed>0.572966</speed><course>85.132210</course><hAcc>1.714055</hAcc><vAcc>0.826583</vAcc></extensions></trkpt>
      <trkpt lon="-2.215105" lat="53.111946"><ele>296.316437</ele><time>2022-03-04T11:47:21Z</time><extensions><speed>0.500109</speed><course>98.008034</course><hAcc>1.726540</hAcc><vAcc>0.826492</vAcc></extensions></trkpt>
      <trkpt lon="-2.215096" lat="53.111945"><ele>296.353851</ele><time>2022-03-04T11:47:22Z</time><extensions><speed>0.694182</speed><course>104.497459</course><hAcc>1.725545</hAcc><vAcc>0.826343</vAcc></extensions></trkpt>
      <trkpt lon="-2.215086" lat="53.111944"><ele>296.388885</ele><time>2022-03-04T11:47:23Z</time><extensions><speed>0.730027</speed><course>96.468758</course><hAcc>1.722733</hAcc><vAcc>0.826173</vAcc></extensions></trkpt>
      <trkpt lon="-2.215075" lat="53.111944"><ele>296.414215</ele><time>2022-03-04T11:47:24Z</time><extensions><speed>0.707969</speed><course>89.409523</course><hAcc>1.719252</hAcc><vAcc>0.825953</vAcc></extensions></trkpt>
      <trkpt lon="-2.215065" lat="53.111944"><ele>296.446106</ele><time>2022-03-04T11:47:25Z</time><extensions><speed>0.641029</speed><course>77.853767</course><hAcc>1.713790</hAcc><vAcc>0.825676</vAcc></extensions></trkpt>
      <trkpt lon="-2.215057" lat="53.111946"><ele>296.470276</ele><time>2022-03-04T11:47:26Z</time><extensions><speed>0.556917</speed><course>66.528633</course><hAcc>1.713312</hAcc><vAcc>0.825354</vAcc></extensions></trkpt>
      <trkpt lon="-2.215050" lat="53.111948"><ele>296.494904</ele><time>2022-03-04T11:47:27Z</time><extensions><speed>0.436045</speed><course>49.946259</course><hAcc>1.716884</hAcc><vAcc>0.825006</vAcc></extensions></trkpt>
      <trkpt lon="-2.215045" lat="53.111952"><ele>296.516968</ele><time>2022-03-04T11:47:28Z</time><extensions><speed>0.595165</speed><course>39.156551</course><hAcc>1.703680</hAcc><vAcc>0.824629</vAcc></extensions></trkpt>
      <trkpt lon="-2.215040" lat="53.111956"><ele>296.541626</ele><time>2022-03-04T11:47:29Z</time><extensions><speed>0.592483</speed><course>36.167198</course><hAcc>1.719041</hAcc><vAcc>0.824194</vAcc></extensions></trkpt>
      <trkpt lon="-2.215036" lat="53.111960"><ele>296.556915</ele><time>2022-03-04T11:47:30Z</time><extensions><speed>0.425608</speed><course>27.205807</course><hAcc>1.704236</hAcc><vAcc>0.823755</vAcc></extensions></trkpt>
      <trkpt lon="-2.215034" lat="53.111962"><ele>296.576935</ele><time>2022-03-04T11:47:32Z</time><extensions><speed>0.233017</speed><course>18.381386</course><hAcc>1.700211</hAcc><vAcc>0.823339</vAcc></extensions></trkpt>
      <trkpt lon="-2.215033" lat="53.111964"><ele>296.601318</ele><time>2022-03-04T11:47:33Z</time><extensions><speed>0.167044</speed><course>11.758294</course><hAcc>1.701796</hAcc><vAcc>0.822935</vAcc></extensions></trkpt>
      <trkpt lon="-2.215032" lat="53.111965"><ele>296.622498</ele><time>2022-03-04T11:47:34Z</time><extensions><speed>0.140059</speed><course>12.620579</course><hAcc>1.715564</hAcc><vAcc>0.822565</vAcc></extensions></trkpt>
      <trkpt lon="-2.215032" lat="53.111967"><ele>296.642090</ele><time>2022-03-04T11:47:35Z</time><extensions><speed>0.137439</speed><course>20.240454</course><hAcc>1.728161</hAcc><vAcc>0.822264</vAcc></extensions></trkpt>
      <trkpt lon="-2.215031" lat="53.111968"><ele>296.667877</ele><time>2022-03-04T11:47:36Z</time><extensions><speed>0.152230</speed><course>27.487350</course><hAcc>1.737944</hAcc><vAcc>0.822033</vAcc></extensions></trkpt>
      <trkpt lon="-2.215030" lat="53.111969"><ele>296.696655</ele><time>2022-03-04T11:47:37Z</time><extensions><speed>0.206535</speed><course>27.654932</course><hAcc>1.732584</hAcc><vAcc>0.821778</vAcc></extensions></trkpt>
      <trkpt lon="-2.215028" lat="53.111971"><ele>296.730225</ele><time>2022-03-04T11:47:38Z</time><extensions><speed>0.287069</speed><course>23.696714</course><hAcc>1.732536</hAcc><vAcc>0.821598</vAcc></extensions></trkpt>
      <trkpt lon="-2.215026" lat="53.111973"><ele>296.767792</ele><time>2022-03-04T11:47:39Z</time><extensions><speed>0.224638</speed><course>30.794220</course><hAcc>1.748611</hAcc><vAcc>0.821482</vAcc></extensions></trkpt>
      <trkpt lon="-2.215024" lat="53.111975"><ele>296.812927</ele><time>2022-03-04T11:47:40Z</time><extensions><speed>0.228367</speed><course>36.028187</course><hAcc>1.757679</hAcc><vAcc>0.821350</vAcc></extensions></trkpt>
      <trkpt lon="-2.215022" lat="53.111977"><ele>296.862152</ele><time>2022-03-04T11:47:41Z</time><extensions><speed>0.287963</speed><course>37.225471</course><hAcc>1.759237</hAcc><vAcc>0.821241</vAcc></extensions></trkpt>
      <trkpt lon="-2.215019" lat="53.111979"><ele>296.918274</ele><time>2022-03-04T11:47:42Z</time><extensions><speed>0.414211</speed><course>35.645412</course><hAcc>1.756323</hAcc><vAcc>0.821137</vAcc></extensions></trkpt>
      <trkpt lon="-2.215016" lat="53.111982"><ele>296.977905</ele><time>2022-03-04T11:47:43Z</time><extensions><speed>0.341156</speed><course>32.647034</course><hAcc>1.763308</hAcc><vAcc>0.821027</vAcc></extensions></trkpt>
      <trkpt lon="-2.215014" lat="53.111984"><ele>297.034027</ele><time>2022-03-04T11:47:44Z</time><extensions><speed>0.200261</speed><course>29.623812</course><hAcc>1.763359</hAcc><vAcc>0.820851</vAcc></extensions></trkpt>
      <trkpt lon="-2.215013" lat="53.111986"><ele>297.090118</ele><time>2022-03-04T11:47:45Z</time><extensions><speed>0.142951</speed><course>18.031448</course><hAcc>1.761198</hAcc><vAcc>0.820676</vAcc></extensions></trkpt>
      <trkpt lon="-2.215012" lat="53.111987"><ele>297.150848</ele><time>2022-03-04T11:47:46Z</time><extensions><speed>0.126751</speed><course>359.104523</course><hAcc>1.757049</hAcc><vAcc>0.820420</vAcc></extensions></trkpt>
      <trkpt lon="-2.215013" lat="53.111988"><ele>297.211456</ele><time>2022-03-04T11:47:47Z</time><extensions><speed>0.131102</speed><course>340.625854</course><hAcc>1.750869</hAcc><vAcc>0.820144</vAcc></extensions></trkpt>
      <trkpt lon="-2.215014" lat="53.111989"><ele>297.271179</ele><time>2022-03-04T11:47:48Z</time><extensions><speed>0.142811</speed><course>332.305786</course><hAcc>1.751487</hAcc><vAcc>0.819870</vAcc></extensions></trkpt>
      <trkpt lon="-2.215015" lat="53.111990"><ele>297.329163</ele><time>2022-03-04T11:47:49Z</time><extensions><speed>0.151006</speed><course>331.634277</course><hAcc>1.751345</hAcc><vAcc>0.819508</vAcc></extensions></trkpt>
      <trkpt lon="-2.215016" lat="53.111992"><ele>297.384613</ele><time>2022-03-04T11:47:50Z</time><extensions><speed>0.151665</speed><course>331.954803</course><hAcc>1.741796</hAcc><vAcc>0.819158</vAcc></extensions></trkpt>
      <trkpt lon="-2.215017" lat="53.111993"><ele>297.436859</ele><time>2022-03-04T11:47:51Z</time><extensions><speed>0.140266</speed><course>333.976654</course><hAcc>1.731359</hAcc><vAcc>0.818793</vAcc></extensions></trkpt>
      <trkpt lon="-2.215018" lat="53.111994"><ele>297.485321</ele><time>2022-03-04T11:47:52Z</time><extensions><speed>0.123491</speed><course>336.829956</course><hAcc>1.725342</hAcc><vAcc>0.818381</vAcc></extensions></trkpt>
      <trkpt lon="-2.215018" lat="53.111995"><ele>297.529633</ele><time>2022-03-04T11:47:53Z</time><extensions><speed>0.100102</speed><course>338.171234</course><hAcc>1.722595</hAcc><vAcc>0.817969</vAcc></extensions></trkpt>
      <trkpt lon="-2.215019" lat="53.111996"><ele>297.569702</ele><time>2022-03-04T11:47:54Z</time><extensions><speed>0.097730</speed><course>339.004547</course><hAcc>1.689556</hAcc><vAcc>0.817573</vAcc></extensions></trkpt>
      <trkpt lon="-2.215019" lat="53.111996"><ele>297.605591</ele><time>2022-03-04T11:47:55Z</time><extensions><speed>0.084058</speed><course>340.488495</course><hAcc>1.668741</hAcc><vAcc>0.817191</vAcc></extensions></trkpt>
      <trkpt lon="-2.215019" lat="53.111997"><ele>297.643829</ele><time>2022-03-04T11:47:56Z</time><extensions><speed>0.061700</speed><course>349.438965</course><hAcc>1.671328</hAcc><vAcc>0.816809</vAcc></extensions></trkpt>
      <trkpt lon="-2.215019" lat="53.111998"><ele>297.688446</ele><time>2022-03-04T11:47:57Z</time><extensions><speed>0.043913</speed><course>1.650775</course><hAcc>1.666101</hAcc><vAcc>0.816499</vAcc></extensions></trkpt>
      <trkpt lon="-2.215019" lat="53.111998"><ele>297.732544</ele><time>2022-03-04T11:47:58Z</time><extensions><speed>0.042699</speed><course>17.908096</course><hAcc>1.634418</hAcc><vAcc>0.816203</vAcc></extensions></trkpt>
      <trkpt lon="-2.215018" lat="53.111998"><ele>297.756805</ele><time>2022-03-04T11:47:59Z</time><extensions><speed>0.046517</speed><course>32.958626</course><hAcc>1.628849</hAcc><vAcc>0.816002</vAcc></extensions></trkpt>
      <trkpt lon="-2.215018" lat="53.111999"><ele>297.775757</ele><time>2022-03-04T11:48:00Z</time><extensions><speed>0.035841</speed><course>47.094681</course><hAcc>1.687931</hAcc><vAcc>0.815763</vAcc></extensions></trkpt>
      <trkpt lon="-2.215017" lat="53.111999"><ele>297.778717</ele><time>2022-03-04T11:48:01Z</time><extensions><speed>0.071377</speed><course>55.836639</course><hAcc>1.685069</hAcc><vAcc>0.815453</vAcc></extensions></trkpt>
      <trkpt lon="-2.215016" lat="53.112000"><ele>297.825592</ele><time>2022-03-04T11:48:02Z</time><extensions><speed>0.163939</speed><course>58.268940</course><hAcc>1.654924</hAcc><vAcc>0.814830</vAcc></extensions></trkpt>
      <trkpt lon="-2.215013" lat="53.112001"><ele>297.872559</ele><time>2022-03-04T11:48:03Z</time><extensions><speed>0.253893</speed><course>58.373966</course><hAcc>1.672248</hAcc><vAcc>0.813604</vAcc></extensions></trkpt>
      <trkpt lon="-2.215009" lat="53.112002"><ele>297.924500</ele><time>2022-03-04T11:48:04Z</time><extensions><speed>0.364723</speed><course>57.660934</course><hAcc>1.709225</hAcc><vAcc>0.811939</vAcc></extensions></trkpt>
      <trkpt lon="-2.215004" lat="53.112004"><ele>297.975159</ele><time>2022-03-04T11:48:05Z</time><extensions><speed>0.483279</speed><course>55.740902</course><hAcc>1.741273</hAcc><vAcc>0.810163</vAcc></extensions></trkpt>
      <trkpt lon="-2.214998" lat="53.112007"><ele>298.020111</ele><time>2022-03-04T11:48:06Z</time><extensions><speed>0.591292</speed><course>52.304348</course><hAcc>1.755635</hAcc><vAcc>0.807853</vAcc></extensions></trkpt>
      <trkpt lon="-2.214990" lat="53.112011"><ele>298.069122</ele><time>2022-03-04T11:48:07Z</time><extensions><speed>0.731347</speed><course>46.785336</course><hAcc>1.756349</hAcc><vAcc>0.805048</vAcc></extensions></trkpt>
      <trkpt lon="-2.214983" lat="53.112016"><ele>298.125031</ele><time>2022-03-04T11:48:08Z</time><extensions><speed>0.688246</speed><course>37.627190</course><hAcc>1.771521</hAcc><vAcc>0.801629</vAcc></extensions></trkpt>
      <trkpt lon="-2.214978" lat="53.112020"><ele>298.184784</ele><time>2022-03-04T11:48:09Z</time><extensions><speed>0.590885</speed><course>26.698460</course><hAcc>1.785371</hAcc><vAcc>0.797599</vAcc></extensions></trkpt>
      <trkpt lon="-2.214975" lat="53.112025"><ele>298.241241</ele><time>2022-03-04T11:48:10Z</time><extensions><speed>0.446644</speed><course>14.499122</course><hAcc>1.774741</hAcc><vAcc>0.793146</vAcc></extensions></trkpt>
      <trkpt lon="-2.214974" lat="53.112028"><ele>298.298676</ele><time>2022-03-04T11:48:11Z</time><extensions><speed>0.283285</speed><course>351.971924</course><hAcc>1.775885</hAcc><vAcc>0.788552</vAcc></extensions></trkpt>
      <trkpt lon="-2.214976" lat="53.112030"><ele>298.355499</ele><time>2022-03-04T11:48:12Z</time><extensions><speed>0.278739</speed><course>330.642792</course><hAcc>1.782866</hAcc><vAcc>0.783987</vAcc></extensions></trkpt>
      <trkpt lon="-2.214977" lat="53.112033"><ele>298.410278</ele><time>2022-03-04T11:48:13Z</time><extensions><speed>0.239430</speed><course>342.798706</course><hAcc>1.802598</hAcc><vAcc>0.779684</vAcc></extensions></trkpt>
      <trkpt lon="-2.214978" lat="53.112035"><ele>298.450714</ele><time>2022-03-04T11:48:14Z</time><extensions><speed>0.296653</speed><course>350.886047</course><hAcc>1.800043</hAcc><vAcc>0.775944</vAcc></extensions></trkpt>
      <trkpt lon="-2.214978" lat="53.112037"><ele>298.484619</ele><time>2022-03-04T11:48:15Z</time><extensions><speed>0.250066</speed><course>5.784273</course><hAcc>1.815211</hAcc><vAcc>0.772963</vAcc></extensions></trkpt>
      <trkpt lon="-2.214978" lat="53.112040"><ele>298.505402</ele><time>2022-03-04T11:48:16Z</time><extensions><speed>0.304594</speed><course>13.177300</course><hAcc>1.826305</hAcc><vAcc>0.770865</vAcc></extensions></trkpt>
      <trkpt lon="-2.214976" lat="53.112043"><ele>298.514923</ele><time>2022-03-04T11:48:17Z</time><extensions><speed>0.450004</speed><course>12.297206</course><hAcc>1.820848</hAcc><vAcc>0.769706</vAcc></extensions></trkpt>
      <trkpt lon="-2.214975" lat="53.112048"><ele>298.505585</ele><time>2022-03-04T11:48:18Z</time><extensions><speed>0.678614</speed><course>10.041387</course><hAcc>1.804299</hAcc><vAcc>0.769564</vAcc></extensions></trkpt>
      <trkpt lon="-2.214973" lat="53.112054"><ele>298.494812</ele><time>2022-03-04T11:48:19Z</time><extensions><speed>0.707859</speed><course>8.332771</course><hAcc>1.817916</hAcc><vAcc>0.770468</vAcc></extensions></trkpt>
      <trkpt lon="-2.214971" lat="53.112060"><ele>298.469696</ele><time>2022-03-04T11:48:20Z</time><extensions><speed>0.646364</speed><course>13.822897</course><hAcc>1.835813</hAcc><vAcc>0.772369</vAcc></extensions></trkpt>
      <trkpt lon="-2.214968" lat="53.112067"><ele>298.435272</ele><time>2022-03-04T11:48:21Z</time><extensions><speed>0.857611</speed><course>14.824579</course><hAcc>1.808144</hAcc><vAcc>0.775049</vAcc></extensions></trkpt>
      <trkpt lon="-2.214965" lat="53.112075"><ele>298.392944</ele><time>2022-03-04T11:48:22Z</time><extensions><speed>0.950447</speed><course>16.581282</course><hAcc>1.789237</hAcc><vAcc>0.778325</vAcc></extensions></trkpt>
      <trkpt lon="-2.214960" lat="53.112083"><ele>298.349487</ele><time>2022-03-04T11:48:23Z</time><extensions><speed>0.948238</speed><course>17.513008</course><hAcc>1.789746</hAcc><vAcc>0.781959</vAcc></extensions></trkpt>
      <trkpt lon="-2.214957" lat="53.112090"><ele>298.301453</ele><time>2022-03-04T11:48:23Z</time><extensions><speed>0.811085</speed><course>17.018976</course><hAcc>1.787457</hAcc><vAcc>0.785717</vAcc></extensions></trkpt>
      <trkpt lon="-2.214953" lat="53.112096"><ele>298.259521</ele><time>2022-03-04T11:48:24Z</time><extensions><speed>0.503555</speed><course>19.196756</course><hAcc>1.781337</hAcc><vAcc>0.789479</vAcc></extensions></trkpt>
      <trkpt lon="-2.214951" lat="53.112099"><ele>298.222595</ele><time>2022-03-04T11:48:25Z</time><extensions><speed>0.162195</speed><course>50.029507</course><hAcc>1.774498</hAcc><vAcc>0.793118</vAcc></extensions></trkpt>
      <trkpt lon="-2.214950" lat="53.112099"><ele>298.183228</ele><time>2022-03-04T11:48:26Z</time><extensions><speed>0.118107</speed><course>126.091019</course><hAcc>1.760535</hAcc><vAcc>0.796685</vAcc></extensions></trkpt>
      <trkpt lon="-2.214948" lat="53.112098"><ele>298.147461</ele><time>2022-03-04T11:48:27Z</time><extensions><speed>0.142948</speed><course>154.255112</course><hAcc>1.752807</hAcc><vAcc>0.800093</vAcc></extensions></trkpt>
      <trkpt lon="-2.214948" lat="53.112097"><ele>298.111481</ele><time>2022-03-04T11:48:28Z</time><extensions><speed>0.128687</speed><course>164.663284</course><hAcc>1.749879</hAcc><vAcc>0.803301</vAcc></extensions></trkpt>
      <trkpt lon="-2.214947" lat="53.112096"><ele>298.080078</ele><time>2022-03-04T11:48:29Z</time><extensions><speed>0.113512</speed><course>168.206253</course><hAcc>1.746557</hAcc><vAcc>0.806256</vAcc></extensions></trkpt>
      <trkpt lon="-2.214947" lat="53.112095"><ele>298.053864</ele><time>2022-03-04T11:48:30Z</time><extensions><speed>0.111553</speed><course>166.459457</course><hAcc>1.741895</hAcc><vAcc>0.808947</vAcc></extensions></trkpt>
      <trkpt lon="-2.214946" lat="53.112094"><ele>298.035522</ele><time>2022-03-04T11:48:31Z</time><extensions><speed>0.102658</speed><course>159.115005</course><hAcc>1.743045</hAcc><vAcc>0.811366</vAcc></extensions></trkpt>
      <trkpt lon="-2.214945" lat="53.112093"><ele>298.031769</ele><time>2022-03-04T11:48:32Z</time><extensions><speed>0.102159</speed><course>144.054733</course><hAcc>1.730551</hAcc><vAcc>0.813369</vAcc></extensions></trkpt>
      <trkpt lon="-2.214944" lat="53.112092"><ele>298.020020</ele><time>2022-03-04T11:48:33Z</time><extensions><speed>0.124447</speed><course>128.046677</course><hAcc>1.699367</hAcc><vAcc>0.814688</vAcc></extensions></trkpt>
      <trkpt lon="-2.214942" lat="53.112092"><ele>298.034698</ele><time>2022-03-04T11:48:34Z</time><extensions><speed>0.144102</speed><course>113.359604</course><hAcc>1.679515</hAcc><vAcc>0.815954</vAcc></extensions></trkpt>
      <trkpt lon="-2.214940" lat="53.112092"><ele>298.036926</ele><time>2022-03-04T11:48:35Z</time><extensions><speed>0.161188</speed><course>101.103401</course><hAcc>1.679697</hAcc><vAcc>0.816912</vAcc></extensions></trkpt>
      <trkpt lon="-2.214937" lat="53.112092"><ele>298.044647</ele><time>2022-03-04T11:48:36Z</time><extensions><speed>0.152841</speed><course>86.062813</course><hAcc>1.711456</hAcc><vAcc>0.817619</vAcc></extensions></trkpt>
      <trkpt lon="-2.214934" lat="53.112092"><ele>298.059479</ele><time>2022-03-04T11:48:37Z</time><extensions><speed>0.196549</speed><course>70.818665</course><hAcc>1.718244</hAcc><vAcc>0.818054</vAcc></extensions></trkpt>
      <trkpt lon="-2.214931" lat="53.112093"><ele>298.076569</ele><time>2022-03-04T11:48:38Z</time><extensions><speed>0.364862</speed><course>62.179459</course><hAcc>1.676716</hAcc><vAcc>0.818277</vAcc></extensions></trkpt>
      <trkpt lon="-2.214925" lat="53.112095"><ele>298.092682</ele><time>2022-03-04T11:48:39Z</time><extensions><speed>0.492104</speed><course>56.322872</course><hAcc>1.658452</hAcc><vAcc>0.818306</vAcc></extensions></trkpt>
      <trkpt lon="-2.214918" lat="53.112098"><ele>298.109833</ele><time>2022-03-04T11:48:40Z</time><extensions><speed>0.595118</speed><course>50.421692</course><hAcc>1.663576</hAcc><vAcc>0.818202</vAcc></extensions></trkpt>
      <trkpt lon="-2.214911" lat="53.112102"><ele>298.129028</ele><time>2022-03-04T11:48:41Z</time><extensions><speed>0.706516</speed><course>43.867516</course><hAcc>1.683652</hAcc><vAcc>0.818021</vAcc></extensions></trkpt>
      <trkpt lon="-2.214905" lat="53.112106"><ele>298.137848</ele><time>2022-03-04T11:48:42Z</time><extensions><speed>0.543379</speed><course>43.451817</course><hAcc>1.724996</hAcc><vAcc>0.817837</vAcc></extensions></trkpt>
      <trkpt lon="-2.214898" lat="53.112111"><ele>298.153809</ele><time>2022-03-04T11:48:43Z</time><extensions><speed>0.772500</speed><course>39.479965</course><hAcc>1.703696</hAcc><vAcc>0.817727</vAcc></extensions></trkpt>
      <trkpt lon="-2.214889" lat="53.112118"><ele>298.166656</ele><time>2022-03-04T11:48:44Z</time><extensions><speed>1.152480</speed><course>35.640038</course><hAcc>1.673908</hAcc><vAcc>0.817745</vAcc></extensions></trkpt>
      <trkpt lon="-2.214879" lat="53.112126"><ele>298.179230</ele><time>2022-03-04T11:48:45Z</time><extensions><speed>1.211255</speed><course>32.991936</course><hAcc>1.684231</hAcc><vAcc>0.817897</vAcc></extensions></trkpt>
      <trkpt lon="-2.214870" lat="53.112135"><ele>298.191711</ele><time>2022-03-04T11:48:46Z</time><extensions><speed>1.009913</speed><course>36.393406</course><hAcc>1.705336</hAcc><vAcc>0.818163</vAcc></extensions></trkpt>
      <trkpt lon="-2.214862" lat="53.112140"><ele>298.210663</ele><time>2022-03-04T11:48:47Z</time><extensions><speed>0.564327</speed><course>43.475838</course><hAcc>1.721124</hAcc><vAcc>0.818525</vAcc></extensions></trkpt>
      <trkpt lon="-2.214856" lat="53.112144"><ele>298.219818</ele><time>2022-03-04T11:48:48Z</time><extensions><speed>0.562726</speed><course>49.497196</course><hAcc>1.698826</hAcc><vAcc>0.818961</vAcc></extensions></trkpt>
      <trkpt lon="-2.214849" lat="53.112147"><ele>298.232941</ele><time>2022-03-04T11:48:49Z</time><extensions><speed>0.615996</speed><course>50.194271</course><hAcc>1.689677</hAcc><vAcc>0.819444</vAcc></extensions></trkpt>
      <trkpt lon="-2.214842" lat="53.112151"><ele>298.243835</ele><time>2022-03-04T11:48:50Z</time><extensions><speed>0.709365</speed><course>46.988758</course><hAcc>1.693859</hAcc><vAcc>0.819948</vAcc></extensions></trkpt>
      <trkpt lon="-2.214833" lat="53.112156"><ele>298.256622</ele><time>2022-03-04T11:48:51Z</time><extensions><speed>0.897477</speed><course>41.177124</course><hAcc>1.699342</hAcc><vAcc>0.820465</vAcc></extensions></trkpt>
      <trkpt lon="-2.214824" lat="53.112162"><ele>298.282410</ele><time>2022-03-04T11:48:52Z</time><extensions><speed>0.963177</speed><course>43.115471</course><hAcc>1.702693</hAcc><vAcc>0.820974</vAcc></extensions></trkpt>
      <trkpt lon="-2.214814" lat="53.112169"><ele>298.305450</ele><time>2022-03-04T11:48:53Z</time><extensions><speed>0.993296</speed><course>44.681770</course><hAcc>1.702133</hAcc><vAcc>0.821465</vAcc></extensions></trkpt>
      <trkpt lon="-2.214804" lat="53.112174"><ele>298.327911</ele><time>2022-03-04T11:48:54Z</time><extensions><speed>0.888946</speed><course>47.331158</course><hAcc>1.705224</hAcc><vAcc>0.821944</vAcc></extensions></trkpt>
      <trkpt lon="-2.214794" lat="53.112180"><ele>298.353271</ele><time>2022-03-04T11:48:55Z</time><extensions><speed>0.862687</speed><course>50.652622</course><hAcc>1.697431</hAcc><vAcc>0.822404</vAcc></extensions></trkpt>
      <trkpt lon="-2.214783" lat="53.112184"><ele>298.387543</ele><time>2022-03-04T11:48:56Z</time><extensions><speed>0.844697</speed><course>56.361343</course><hAcc>1.695342</hAcc><vAcc>0.822839</vAcc></extensions></trkpt>
      <trkpt lon="-2.214773" lat="53.112188"><ele>298.424805</ele><time>2022-03-04T11:48:57Z</time><extensions><speed>0.863167</speed><course>61.304283</course><hAcc>1.701920</hAcc><vAcc>0.823258</vAcc></extensions></trkpt>
      <trkpt lon="-2.214762" lat="53.112191"><ele>298.452606</ele><time>2022-03-04T11:48:58Z</time><extensions><speed>0.784004</speed><course>64.953445</course><hAcc>1.713310</hAcc><vAcc>0.823666</vAcc></extensions></trkpt>
      <trkpt lon="-2.214751" lat="53.112194"><ele>298.496185</ele><time>2022-03-04T11:48:59Z</time><extensions><speed>0.744049</speed><course>71.043190</course><hAcc>1.722355</hAcc><vAcc>0.824042</vAcc></extensions></trkpt>
      <trkpt lon="-2.214740" lat="53.112195"><ele>298.553009</ele><time>2022-03-04T11:49:00Z</time><extensions><speed>0.721371</speed><course>83.016586</course><hAcc>1.726352</hAcc><vAcc>0.824404</vAcc></extensions></trkpt>
      <trkpt lon="-2.214729" lat="53.112195"><ele>298.593109</ele><time>2022-03-04T11:49:01Z</time><extensions><speed>0.751449</speed><course>97.519356</course><hAcc>1.726198</hAcc><vAcc>0.824749</vAcc></extensions></trkpt>
      <trkpt lon="-2.214718" lat="53.112194"><ele>298.650604</ele><time>2022-03-04T11:49:02Z</time><extensions><speed>0.847446</speed><course>105.632767</course><hAcc>1.732439</hAcc><vAcc>0.825073</vAcc></extensions></trkpt>
      <trkpt lon="-2.214705" lat="53.112191"><ele>298.715729</ele><time>2022-03-04T11:49:03Z</time><extensions><speed>0.897314</speed><course>110.848732</course><hAcc>1.745156</hAcc><vAcc>0.825387</vAcc></extensions></trkpt>
      <trkpt lon="-2.214693" lat="53.112188"><ele>298.786377</ele><time>2022-03-04T11:49:04Z</time><extensions><speed>0.869050</speed><course>114.989136</course><hAcc>1.748003</hAcc><vAcc>0.825671</vAcc></extensions></trkpt>
      <trkpt lon="-2.214682" lat="53.112185"><ele>298.859558</ele><time>2022-03-04T11:49:05Z</time><extensions><speed>0.809463</speed><course>118.500946</course><hAcc>1.739648</hAcc><vAcc>0.825924</vAcc></extensions></trkpt>
      <trkpt lon="-2.214671" lat="53.112181"><ele>298.942230</ele><time>2022-03-04T11:49:06Z</time><extensions><speed>0.832259</speed><course>119.226326</course><hAcc>1.736214</hAcc><vAcc>0.826162</vAcc></extensions></trkpt>
      <trkpt lon="-2.214660" lat="53.112178"><ele>299.030273</ele><time>2022-03-04T11:49:07Z</time><extensions><speed>0.908212</speed><course>118.007149</course><hAcc>1.741395</hAcc><vAcc>0.826334</vAcc></extensions></trkpt>
      <trkpt lon="-2.214648" lat="53.112174"><ele>299.120636</ele><time>2022-03-04T11:49:08Z</time><extensions><speed>0.898868</speed><course>115.467781</course><hAcc>1.740106</hAcc><vAcc>0.826438</vAcc></extensions></trkpt>
      <trkpt lon="-2.214635" lat="53.112171"><ele>299.212524</ele><time>2022-03-04T11:49:09Z</time><extensions><speed>0.875188</speed><course>112.537796</course><hAcc>1.738801</hAcc><vAcc>0.826451</vAcc></extensions></trkpt>
      <trkpt lon="-2.214623" lat="53.112168"><ele>299.305145</ele><time>2022-03-04T11:49:10Z</time><extensions><speed>0.907436</speed><course>108.600159</course><hAcc>1.738865</hAcc><vAcc>0.826386</vAcc></extensions></trkpt>
      <trkpt lon="-2.214611" lat="53.112166"><ele>299.393158</ele><time>2022-03-04T11:49:11Z</time><extensions><speed>0.805882</speed><course>102.883461</course><hAcc>1.737252</hAcc><vAcc>0.826312</vAcc></extensions></trkpt>
      <trkpt lon="-2.214599" lat="53.112165"><ele>299.486145</ele><time>2022-03-04T11:49:12Z</time><extensions><speed>0.715833</speed><course>95.219322</course><hAcc>1.728370</hAcc><vAcc>0.826199</vAcc></extensions></trkpt>
      <trkpt lon="-2.214589" lat="53.112164"><ele>299.581482</ele><time>2022-03-04T11:49:13Z</time><extensions><speed>0.628450</speed><course>89.794708</course><hAcc>1.710796</hAcc><vAcc>0.826080</vAcc></extensions></trkpt>
      <trkpt lon="-2.214580" lat="53.112164"><ele>299.684753</ele><time>2022-03-04T11:49:14Z</time><extensions><speed>0.567361</speed><course>89.772270</course><hAcc>1.688844</hAcc><vAcc>0.825928</vAcc></extensions></trkpt>
      <trkpt lon="-2.214572" lat="53.112164"><ele>299.785889</ele><time>2022-03-04T11:49:15Z</time><extensions><speed>0.474340</speed><course>93.378571</course><hAcc>1.680039</hAcc><vAcc>0.825749</vAcc></extensions></trkpt>
      <trkpt lon="-2.214567" lat="53.112164"><ele>299.880615</ele><time>2022-03-04T11:49:16Z</time><extensions><speed>0.258849</speed><course>100.257217</course><hAcc>1.670042</hAcc><vAcc>0.825493</vAcc></extensions></trkpt>
      <trkpt lon="-2.214564" lat="53.112164"><ele>299.983551</ele><time>2022-03-04T11:49:17Z</time><extensions><speed>0.182448</speed><course>106.217949</course><hAcc>1.646814</hAcc><vAcc>0.825237</vAcc></extensions></trkpt>
      <trkpt lon="-2.214562" lat="53.112163"><ele>300.080353</ele><time>2022-03-04T11:49:18Z</time><extensions><speed>0.107578</speed><course>110.295822</course><hAcc>1.665439</hAcc><vAcc>0.824942</vAcc></extensions></trkpt>
      <trkpt lon="-2.214560" lat="53.112163"><ele>300.186310</ele><time>2022-03-04T11:49:19Z</time><extensions><speed>0.083153</speed><course>113.172134</course><hAcc>1.679034</hAcc><vAcc>0.824642</vAcc></extensions></trkpt>
      <trkpt lon="-2.214559" lat="53.112163"><ele>300.283875</ele><time>2022-03-04T11:49:20Z</time><extensions><speed>0.120090</speed><course>111.826035</course><hAcc>1.657646</hAcc><vAcc>0.824356</vAcc></extensions></trkpt>
      <trkpt lon="-2.214557" lat="53.112162"><ele>300.380463</ele><time>2022-03-04T11:49:21Z</time><extensions><speed>0.177656</speed><course>106.277435</course><hAcc>1.642387</hAcc><vAcc>0.824090</vAcc></extensions></trkpt>
      <trkpt lon="-2.214554" lat="53.112162"><ele>300.479034</ele><time>2022-03-04T11:49:22Z</time><extensions><speed>0.236328</speed><course>96.185310</course><hAcc>1.656036</hAcc><vAcc>0.823820</vAcc></extensions></trkpt>
      <trkpt lon="-2.214549" lat="53.112162"><ele>300.575745</ele><time>2022-03-04T11:49:23Z</time><extensions><speed>0.328624</speed><course>84.464867</course><hAcc>1.677094</hAcc><vAcc>0.823542</vAcc></extensions></trkpt>
      <trkpt lon="-2.214543" lat="53.112163"><ele>300.675842</ele><time>2022-03-04T11:49:24Z</time><extensions><speed>0.505086</speed><course>76.355347</course><hAcc>1.692709</hAcc><vAcc>0.823264</vAcc></extensions></trkpt>
      <trkpt lon="-2.214536" lat="53.112165"><ele>300.769348</ele><time>2022-03-04T11:49:25Z</time><extensions><speed>0.570351</speed><course>50.092846</course><hAcc>1.708388</hAcc><vAcc>0.822978</vAcc></extensions></trkpt>
      <trkpt lon="-2.214531" lat="53.112169"><ele>300.851868</ele><time>2022-03-04T11:49:26Z</time><extensions><speed>0.641795</speed><course>26.534176</course><hAcc>1.708898</hAcc><vAcc>0.822686</vAcc></extensions></trkpt>
      <trkpt lon="-2.214527" lat="53.112176"><ele>300.940887</ele><time>2022-03-04T11:49:27Z</time><extensions><speed>0.923533</speed><course>16.960205</course><hAcc>1.707649</hAcc><vAcc>0.822392</vAcc></extensions></trkpt>
      <trkpt lon="-2.214523" lat="53.112184"><ele>301.031403</ele><time>2022-03-04T11:49:28Z</time><extensions><speed>1.052441</speed><course>11.193885</course><hAcc>1.711025</hAcc><vAcc>0.822076</vAcc></extensions></trkpt>
      <trkpt lon="-2.214520" lat="53.112194"><ele>301.140656</ele><time>2022-03-04T11:49:29Z</time><extensions><speed>1.055281</speed><course>9.823653</course><hAcc>1.711061</hAcc><vAcc>0.821780</vAcc></extensions></trkpt>
      <trkpt lon="-2.214517" lat="53.112203"><ele>301.256744</ele><time>2022-03-04T11:49:30Z</time><extensions><speed>1.018837</speed><course>12.348733</course><hAcc>1.709006</hAcc><vAcc>0.821522</vAcc></extensions></trkpt>
      <trkpt lon="-2.214514" lat="53.112212"><ele>301.362549</ele><time>2022-03-04T11:49:31Z</time><extensions><speed>1.011280</speed><course>14.708443</course><hAcc>1.707346</hAcc><vAcc>0.821311</vAcc></extensions></trkpt>
      <trkpt lon="-2.214509" lat="53.112220"><ele>301.477570</ele><time>2022-03-04T11:49:32Z</time><extensions><speed>0.947516</speed><course>19.679129</course><hAcc>1.708108</hAcc><vAcc>0.821152</vAcc></extensions></trkpt>
      <trkpt lon="-2.214504" lat="53.112228"><ele>301.602783</ele><time>2022-03-04T11:49:33Z</time><extensions><speed>0.914944</speed><course>26.486944</course><hAcc>1.710275</hAcc><vAcc>0.821022</vAcc></extensions></trkpt>
      <trkpt lon="-2.214497" lat="53.112235"><ele>301.718506</ele><time>2022-03-04T11:49:34Z</time><extensions><speed>0.915916</speed><course>31.705626</course><hAcc>1.713066</hAcc><vAcc>0.820986</vAcc></extensions></trkpt>
      <trkpt lon="-2.214490" lat="53.112242"><ele>301.842712</ele><time>2022-03-04T11:49:35Z</time><extensions><speed>0.824557</speed><course>32.983162</course><hAcc>1.711118</hAcc><vAcc>0.821018</vAcc></extensions></trkpt>
      <trkpt lon="-2.214484" lat="53.112248"><ele>301.966034</ele><time>2022-03-04T11:49:36Z</time><extensions><speed>0.728476</speed><course>30.716076</course><hAcc>1.709290</hAcc><vAcc>0.821131</vAcc></extensions></trkpt>
      <trkpt lon="-2.214479" lat="53.112253"><ele>302.089142</ele><time>2022-03-04T11:49:38Z</time><extensions><speed>0.716126</speed><course>27.643362</course><hAcc>1.713618</hAcc><vAcc>0.821297</vAcc></extensions></trkpt>
      <trkpt lon="-2.214474" lat="53.112259"><ele>302.210693</ele><time>2022-03-04T11:49:39Z</time><extensions><speed>0.697073</speed><course>26.930290</course><hAcc>1.708399</hAcc><vAcc>0.821513</vAcc></extensions></trkpt>
      <trkpt lon="-2.214469" lat="53.112264"><ele>302.329407</ele><time>2022-03-04T11:49:40Z</time><extensions><speed>0.650257</speed><course>28.882654</course><hAcc>1.719928</hAcc><vAcc>0.821796</vAcc></extensions></trkpt>
      <trkpt lon="-2.214465" lat="53.112269"><ele>302.443756</ele><time>2022-03-04T11:49:41Z</time><extensions><speed>0.521133</speed><course>30.943834</course><hAcc>1.733100</hAcc><vAcc>0.822153</vAcc></extensions></trkpt>
      <trkpt lon="-2.214461" lat="53.112272"><ele>302.552338</ele><time>2022-03-04T11:49:42Z</time><extensions><speed>0.267517</speed><course>41.794666</course><hAcc>1.743399</hAcc><vAcc>0.822565</vAcc></extensions></trkpt>
      <trkpt lon="-2.214459" lat="53.112273"><ele>302.654175</ele><time>2022-03-04T11:49:43Z</time><extensions><speed>0.226905</speed><course>59.539055</course><hAcc>1.730079</hAcc><vAcc>0.823021</vAcc></extensions></trkpt>
      <trkpt lon="-2.214455" lat="53.112274"><ele>302.748444</ele><time>2022-03-04T11:49:44Z</time><extensions><speed>0.258331</speed><course>69.715820</course><hAcc>1.727182</hAcc><vAcc>0.823519</vAcc></extensions></trkpt>
      <trkpt lon="-2.214452" lat="53.112274"><ele>302.858856</ele><time>2022-03-04T11:49:45Z</time><extensions><speed>0.166826</speed><course>93.509087</course><hAcc>1.743593</hAcc><vAcc>0.824033</vAcc></extensions></trkpt>
      <trkpt lon="-2.214450" lat="53.112274"><ele>302.969269</ele><time>2022-03-04T11:49:46Z</time><extensions><speed>0.137071</speed><course>113.450172</course><hAcc>1.750798</hAcc><vAcc>0.824556</vAcc></extensions></trkpt>
      <trkpt lon="-2.214448" lat="53.112274"><ele>303.086426</ele><time>2022-03-04T11:49:47Z</time><extensions><speed>0.114300</speed><course>124.874443</course><hAcc>1.753398</hAcc><vAcc>0.825077</vAcc></extensions></trkpt>
      <trkpt lon="-2.214447" lat="53.112273"><ele>303.208527</ele><time>2022-03-04T11:49:48Z</time><extensions><speed>0.097286</speed><course>132.674255</course><hAcc>1.750873</hAcc><vAcc>0.825586</vAcc></extensions></trkpt>
      <trkpt lon="-2.214446" lat="53.112272"><ele>303.322083</ele><time>2022-03-04T11:49:49Z</time><extensions><speed>0.087139</speed><course>138.510925</course><hAcc>1.746378</hAcc><vAcc>0.826075</vAcc></extensions></trkpt>
      <trkpt lon="-2.214445" lat="53.112272"><ele>303.429047</ele><time>2022-03-04T11:49:50Z</time><extensions><speed>0.087847</speed><course>142.249207</course><hAcc>1.738711</hAcc><vAcc>0.826521</vAcc></extensions></trkpt>
      <trkpt lon="-2.214444" lat="53.112271"><ele>303.539337</ele><time>2022-03-04T11:49:51Z</time><extensions><speed>0.102064</speed><course>142.962326</course><hAcc>1.731036</hAcc><vAcc>0.826928</vAcc></extensions></trkpt>
      <trkpt lon="-2.214443" lat="53.112270"><ele>303.634277</ele><time>2022-03-04T11:49:52Z</time><extensions><speed>0.125463</speed><course>141.309738</course><hAcc>1.731384</hAcc><vAcc>0.827267</vAcc></extensions></trkpt>
      <trkpt lon="-2.214442" lat="53.112269"><ele>303.726379</ele><time>2022-03-04T11:49:53Z</time><extensions><speed>0.160490</speed><course>137.041183</course><hAcc>1.743530</hAcc><vAcc>0.827553</vAcc></extensions></trkpt>
      <trkpt lon="-2.214440" lat="53.112268"><ele>303.814545</ele><time>2022-03-04T11:49:54Z</time><extensions><speed>0.218643</speed><course>129.761185</course><hAcc>1.752710</hAcc><vAcc>0.827787</vAcc></extensions></trkpt>
      <trkpt lon="-2.214436" lat="53.112267"><ele>303.897888</ele><time>2022-03-04T11:49:55Z</time><extensions><speed>0.379809</speed><course>120.737709</course><hAcc>1.723082</hAcc><vAcc>0.828006</vAcc></extensions></trkpt>
      <trkpt lon="-2.214430" lat="53.112265"><ele>303.975067</ele><time>2022-03-04T11:49:56Z</time><extensions><speed>0.572939</speed><course>112.200142</course><hAcc>1.706052</hAcc><vAcc>0.828163</vAcc></extensions></trkpt>
      <trkpt lon="-2.214421" lat="53.112263"><ele>304.044861</ele><time>2022-03-04T11:49:57Z</time><extensions><speed>0.646907</speed><course>110.923431</course><hAcc>1.724185</hAcc><vAcc>0.828286</vAcc></extensions></trkpt>
      <trkpt lon="-2.214413" lat="53.112261"><ele>304.101807</ele><time>2022-03-04T11:49:58Z</time><extensions><speed>0.567104</speed><course>116.198112</course><hAcc>1.724617</hAcc><vAcc>0.828372</vAcc></extensions></trkpt>
      <trkpt lon="-2.214406" lat="53.112258"><ele>304.167877</ele><time>2022-03-04T11:49:59Z</time><extensions><speed>0.462693</speed><course>119.486282</course><hAcc>1.701530</hAcc><vAcc>0.828415</vAcc></extensions></trkpt>
      <trkpt lon="-2.214401" lat="53.112256"><ele>304.225433</ele><time>2022-03-04T11:50:00Z</time><extensions><speed>0.345432</speed><course>123.962151</course><hAcc>1.689626</hAcc><vAcc>0.828426</vAcc></extensions></trkpt>
      <trkpt lon="-2.214398" lat="53.112255"><ele>304.269104</ele><time>2022-03-04T11:50:01Z</time><extensions><speed>0.146858</speed><course>141.511597</course><hAcc>1.684387</hAcc><vAcc>0.828410</vAcc></extensions></trkpt>
      <trkpt lon="-2.214397" lat="53.112254"><ele>304.305969</ele><time>2022-03-04T11:50:02Z</time><extensions><speed>0.077381</speed><course>165.925919</course><hAcc>1.674852</hAcc><vAcc>0.828369</vAcc></extensions></trkpt>
      <trkpt lon="-2.214397" lat="53.112254"><ele>304.338013</ele><time>2022-03-04T11:50:03Z</time><extensions><speed>0.038136</speed><course>181.711624</course><hAcc>1.700559</hAcc><vAcc>0.828297</vAcc></extensions></trkpt>
      <trkpt lon="-2.214397" lat="53.112253"><ele>304.367493</ele><time>2022-03-04T11:50:04Z</time><extensions><speed>0.025556</speed><course>166.769470</course><hAcc>1.703404</hAcc><vAcc>0.828186</vAcc></extensions></trkpt>
      <trkpt lon="-2.214397" lat="53.112253"><ele>304.393311</ele><time>2022-03-04T11:50:05Z</time><extensions><speed>0.039608</speed><course>129.841858</course><hAcc>1.678052</hAcc><vAcc>0.828076</vAcc></extensions></trkpt>
      <trkpt lon="-2.214396" lat="53.112253"><ele>304.416138</ele><time>2022-03-04T11:50:06Z</time><extensions><speed>0.067590</speed><course>112.438667</course><hAcc>1.679537</hAcc><vAcc>0.827923</vAcc></extensions></trkpt>
      <trkpt lon="-2.214395" lat="53.112253"><ele>304.436523</ele><time>2022-03-04T11:50:07Z</time><extensions><speed>0.101901</speed><course>106.544235</course><hAcc>1.695660</hAcc><vAcc>0.827768</vAcc></extensions></trkpt>
      <trkpt lon="-2.214393" lat="53.112252"><ele>304.454865</ele><time>2022-03-04T11:50:08Z</time><extensions><speed>0.131192</speed><course>106.198967</course><hAcc>1.710960</hAcc><vAcc>0.827598</vAcc></extensions></trkpt>
      <trkpt lon="-2.214391" lat="53.112252"><ele>304.471283</ele><time>2022-03-04T11:50:09Z</time><extensions><speed>0.138343</speed><course>107.425377</course><hAcc>1.723367</hAcc><vAcc>0.827407</vAcc></extensions></trkpt>
      <trkpt lon="-2.214389" lat="53.112252"><ele>304.485809</ele><time>2022-03-04T11:50:10Z</time><extensions><speed>0.132683</speed><course>108.139946</course><hAcc>1.726946</hAcc><vAcc>0.827182</vAcc></extensions></trkpt>
      <trkpt lon="-2.214387" lat="53.112251"><ele>304.498505</ele><time>2022-03-04T11:50:11Z</time><extensions><speed>0.126498</speed><course>108.055634</course><hAcc>1.721384</hAcc><vAcc>0.826916</vAcc></extensions></trkpt>
      <trkpt lon="-2.214386" lat="53.112251"><ele>304.509613</ele><time>2022-03-04T11:50:12Z</time><extensions><speed>0.112741</speed><course>108.047127</course><hAcc>1.712883</hAcc><vAcc>0.826615</vAcc></extensions></trkpt>
      <trkpt lon="-2.214384" lat="53.112251"><ele>304.519318</ele><time>2022-03-04T11:50:13Z</time><extensions><speed>0.094879</speed><course>108.417252</course><hAcc>1.698573</hAcc><vAcc>0.826288</vAcc></extensions></trkpt>
      <trkpt lon="-2.214383" lat="53.112250"><ele>304.527740</ele><time>2022-03-04T11:50:14Z</time><extensions><speed>0.070198</speed><course>108.369682</course><hAcc>1.684455</hAcc><vAcc>0.825939</vAcc></extensions></trkpt>
      <trkpt lon="-2.214382" lat="53.112250"><ele>304.522827</ele><time>2022-03-04T11:50:15Z</time><extensions><speed>0.053021</speed><course>108.079773</course><hAcc>1.666690</hAcc><vAcc>0.825594</vAcc></extensions></trkpt>
      <trkpt lon="-2.214381" lat="53.112250"><ele>304.514252</ele><time>2022-03-04T11:50:16Z</time><extensions><speed>0.036196</speed><course>107.329353</course><hAcc>1.662840</hAcc><vAcc>0.825259</vAcc></extensions></trkpt>
      <trkpt lon="-2.214381" lat="53.112250"><ele>304.502716</ele><time>2022-03-04T11:50:17Z</time><extensions><speed>0.028307</speed><course>106.197433</course><hAcc>1.654829</hAcc><vAcc>0.824948</vAcc></extensions></trkpt>
      <trkpt lon="-2.214380" lat="53.112250"><ele>304.488342</ele><time>2022-03-04T11:50:18Z</time><extensions><speed>0.024734</speed><course>104.795052</course><hAcc>1.657965</hAcc><vAcc>0.824670</vAcc></extensions></trkpt>
      <trkpt lon="-2.214380" lat="53.112250"><ele>304.471222</ele><time>2022-03-04T11:50:19Z</time><extensions><speed>0.024444</speed><course>103.312561</course><hAcc>1.673638</hAcc><vAcc>0.824423</vAcc></extensions></trkpt>
      <trkpt lon="-2.214380" lat="53.112250"><ele>304.452698</ele><time>2022-03-04T11:50:20Z</time><extensions><speed>0.038276</speed><course>99.277016</course><hAcc>1.664153</hAcc><vAcc>0.824206</vAcc></extensions></trkpt>
      <trkpt lon="-2.214379" lat="53.112250"><ele>304.432007</ele><time>2022-03-04T11:50:21Z</time><extensions><speed>0.065132</speed><course>96.762016</course><hAcc>1.645714</hAcc><vAcc>0.824022</vAcc></extensions></trkpt>
      <trkpt lon="-2.214378" lat="53.112250"><ele>304.409454</ele><time>2022-03-04T11:50:22Z</time><extensions><speed>0.091728</speed><course>95.169899</course><hAcc>1.648449</hAcc><vAcc>0.823870</vAcc></extensions></trkpt>
      <trkpt lon="-2.214376" lat="53.112250"><ele>304.385376</ele><time>2022-03-04T11:50:23Z</time><extensions><speed>0.117377</speed><course>93.902946</course><hAcc>1.657384</hAcc><vAcc>0.823778</vAcc></extensions></trkpt>
      <trkpt lon="-2.214374" lat="53.112250"><ele>304.360352</ele><time>2022-03-04T11:50:24Z</time><extensions><speed>0.134482</speed><course>92.354332</course><hAcc>1.667571</hAcc><vAcc>0.823713</vAcc></extensions></trkpt>
      <trkpt lon="-2.214372" lat="53.112250"><ele>304.335876</ele><time>2022-03-04T11:50:25Z</time><extensions><speed>0.119984</speed><course>89.262886</course><hAcc>1.690337</hAcc><vAcc>0.823693</vAcc></extensions></trkpt>
      <trkpt lon="-2.214371" lat="53.112250"><ele>304.312592</ele><time>2022-03-04T11:50:26Z</time><extensions><speed>0.094082</speed><course>81.829437</course><hAcc>1.701664</hAcc><vAcc>0.823714</vAcc></extensions></trkpt>
      <trkpt lon="-2.214369" lat="53.112250"><ele>304.308716</ele><time>2022-03-04T11:50:27Z</time><extensions><speed>0.107496</speed><course>72.126945</course><hAcc>1.670620</hAcc><vAcc>0.823779</vAcc></extensions></trkpt>
      <trkpt lon="-2.214368" lat="53.112250"><ele>304.303436</ele><time>2022-03-04T11:50:28Z</time><extensions><speed>0.106348</speed><course>63.360767</course><hAcc>1.673775</hAcc><vAcc>0.823871</vAcc></extensions></trkpt>
      <trkpt lon="-2.214366" lat="53.112251"><ele>304.303223</ele><time>2022-03-04T11:50:29Z</time><extensions><speed>0.090247</speed><course>56.327927</course><hAcc>1.706214</hAcc><vAcc>0.823985</vAcc></extensions></trkpt>
      <trkpt lon="-2.214365" lat="53.112251"><ele>304.305817</ele><time>2022-03-04T11:50:30Z</time><extensions><speed>0.102201</speed><course>55.734085</course><hAcc>1.695231</hAcc><vAcc>0.824112</vAcc></extensions></trkpt>
      <trkpt lon="-2.214364" lat="53.112252"><ele>304.308533</ele><time>2022-03-04T11:50:30Z</time><extensions><speed>0.094753</speed><course>62.821442</course><hAcc>1.692951</hAcc><vAcc>0.824249</vAcc></extensions></trkpt>
      <trkpt lon="-2.214363" lat="53.112252"><ele>304.316345</ele><time>2022-03-04T11:50:31Z</time><extensions><speed>0.085404</speed><course>75.818642</course><hAcc>1.704993</hAcc><vAcc>0.824337</vAcc></extensions></trkpt>
      <trkpt lon="-2.214361" lat="53.112252"><ele>304.327026</ele><time>2022-03-04T11:50:32Z</time><extensions><speed>0.086695</speed><course>90.090858</course><hAcc>1.718840</hAcc><vAcc>0.824394</vAcc></extensions></trkpt>
      <trkpt lon="-2.214360" lat="53.112252"><ele>304.345764</ele><time>2022-03-04T11:50:33Z</time><extensions><speed>0.096719</speed><course>99.215248</course><hAcc>1.731843</hAcc><vAcc>0.824433</vAcc></extensions></trkpt>
      <trkpt lon="-2.214358" lat="53.112252"><ele>304.374908</ele><time>2022-03-04T11:50:34Z</time><extensions><speed>0.115960</speed><course>99.008072</course><hAcc>1.733050</hAcc><vAcc>0.824462</vAcc></extensions></trkpt>
      <trkpt lon="-2.214356" lat="53.112252"><ele>304.412903</ele><time>2022-03-04T11:50:35Z</time><extensions><speed>0.134220</speed><course>91.968979</course><hAcc>1.733520</hAcc><vAcc>0.824474</vAcc></extensions></trkpt>
      <trkpt lon="-2.214354" lat="53.112252"><ele>304.461609</ele><time>2022-03-04T11:50:36Z</time><extensions><speed>0.153508</speed><course>81.217583</course><hAcc>1.734440</hAcc><vAcc>0.824466</vAcc></extensions></trkpt>
      <trkpt lon="-2.214352" lat="53.112252"><ele>304.512665</ele><time>2022-03-04T11:50:37Z</time><extensions><speed>0.168304</speed><course>66.461441</course><hAcc>1.737329</hAcc><vAcc>0.824428</vAcc></extensions></trkpt>
      <trkpt lon="-2.214350" lat="53.112253"><ele>304.575073</ele><time>2022-03-04T11:50:38Z</time><extensions><speed>0.190296</speed><course>51.099873</course><hAcc>1.741641</hAcc><vAcc>0.824379</vAcc></extensions></trkpt>
      <trkpt lon="-2.214347" lat="53.112255"><ele>304.656006</ele><time>2022-03-04T11:50:39Z</time><extensions><speed>0.219787</speed><course>41.597370</course><hAcc>1.746612</hAcc><vAcc>0.824325</vAcc></extensions></trkpt>
      <trkpt lon="-2.214345" lat="53.112256"><ele>304.749573</ele><time>2022-03-04T11:50:40Z</time><extensions><speed>0.248395</speed><course>40.328316</course><hAcc>1.750018</hAcc><vAcc>0.824273</vAcc></extensions></trkpt>
      <trkpt lon="-2.214342" lat="53.112258"><ele>304.842804</ele><time>2022-03-04T11:50:41Z</time><extensions><speed>0.278816</speed><course>47.061710</course><hAcc>1.752813</hAcc><vAcc>0.824234</vAcc></extensions></trkpt>
      <trkpt lon="-2.214339" lat="53.112259"><ele>304.941772</ele><time>2022-03-04T11:50:42Z</time><extensions><speed>0.324090</speed><course>61.460873</course><hAcc>1.755754</hAcc><vAcc>0.824217</vAcc></extensions></trkpt>
      <trkpt lon="-2.214333" lat="53.112261"><ele>305.034119</ele><time>2022-03-04T11:50:43Z</time><extensions><speed>0.449479</speed><course>77.351791</course><hAcc>1.746361</hAcc><vAcc>0.824259</vAcc></extensions></trkpt>
      <trkpt lon="-2.214325" lat="53.112261"><ele>305.144287</ele><time>2022-03-04T11:50:44Z</time><extensions><speed>0.697457</speed><course>88.403847</course><hAcc>1.733896</hAcc><vAcc>0.824361</vAcc></extensions></trkpt>
      <trkpt lon="-2.214314" lat="53.112261"><ele>305.248199</ele><time>2022-03-04T11:50:45Z</time><extensions><speed>0.835167</speed><course>93.179344</course><hAcc>1.744588</hAcc><vAcc>0.824496</vAcc></extensions></trkpt>
      <trkpt lon="-2.214301" lat="53.112261"><ele>305.353790</ele><time>2022-03-04T11:50:46Z</time><extensions><speed>0.807299</speed><course>86.269699</course><hAcc>1.739591</hAcc><vAcc>0.824670</vAcc></extensions></trkpt>
      <trkpt lon="-2.214290" lat="53.112262"><ele>305.469818</ele><time>2022-03-04T11:50:47Z</time><extensions><speed>0.755992</speed><course>72.751495</course><hAcc>1.723242</hAcc><vAcc>0.824856</vAcc></extensions></trkpt>
      <trkpt lon="-2.214280" lat="53.112265"><ele>305.579773</ele><time>2022-03-04T11:50:48Z</time><extensions><speed>0.761380</speed><course>57.536388</course><hAcc>1.710799</hAcc><vAcc>0.825055</vAcc></extensions></trkpt>
      <trkpt lon="-2.214271" lat="53.112270"><ele>305.697083</ele><time>2022-03-04T11:50:49Z</time><extensions><speed>0.814073</speed><course>43.418926</course><hAcc>1.713677</hAcc><vAcc>0.825222</vAcc></extensions></trkpt>
      <trkpt lon="-2.214263" lat="53.112276"><ele>305.831818</ele><time>2022-03-04T11:50:50Z</time><extensions><speed>0.869117</speed><course>30.676306</course><hAcc>1.717644</hAcc><vAcc>0.825380</vAcc></extensions></trkpt>
      <trkpt lon="-2.214257" lat="53.112282"><ele>305.956329</ele><time>2022-03-04T11:50:51Z</time><extensions><speed>0.828172</speed><course>24.469210</course><hAcc>1.712022</hAcc><vAcc>0.825519</vAcc></extensions></trkpt>
      <trkpt lon="-2.214252" lat="53.112289"><ele>306.086609</ele><time>2022-03-04T11:50:52Z</time><extensions><speed>0.777836</speed><course>30.124790</course><hAcc>1.697549</hAcc><vAcc>0.825646</vAcc></extensions></trkpt>
      <trkpt lon="-2.214245" lat="53.112294"><ele>306.208893</ele><time>2022-03-04T11:50:53Z</time><extensions><speed>0.783678</speed><course>39.617878</course><hAcc>1.701147</hAcc><vAcc>0.825792</vAcc></extensions></trkpt>
      <trkpt lon="-2.214237" lat="53.112299"><ele>306.321991</ele><time>2022-03-04T11:50:54Z</time><extensions><speed>0.790111</speed><course>49.495811</course><hAcc>1.706706</hAcc><vAcc>0.825961</vAcc></extensions></trkpt>
      <trkpt lon="-2.214228" lat="53.112303"><ele>306.423950</ele><time>2022-03-04T11:50:55Z</time><extensions><speed>0.705889</speed><course>59.990509</course><hAcc>1.709881</hAcc><vAcc>0.826144</vAcc></extensions></trkpt>
      <trkpt lon="-2.214219" lat="53.112306"><ele>306.534943</ele><time>2022-03-04T11:50:56Z</time><extensions><speed>0.559309</speed><course>69.189552</course><hAcc>1.712818</hAcc><vAcc>0.826317</vAcc></extensions></trkpt>
      <trkpt lon="-2.214212" lat="53.112307"><ele>306.627594</ele><time>2022-03-04T11:50:57Z</time><extensions><speed>0.464837</speed><course>79.804588</course><hAcc>1.713919</hAcc><vAcc>0.826473</vAcc></extensions></trkpt>
      <trkpt lon="-2.214206" lat="53.112307"><ele>306.741913</ele><time>2022-03-04T11:50:58Z</time><extensions><speed>0.371481</speed><course>102.857292</course><hAcc>1.713020</hAcc><vAcc>0.826646</vAcc></extensions></trkpt>
      <trkpt lon="-2.214200" lat="53.112306"><ele>306.851990</ele><time>2022-03-04T11:50:59Z</time><extensions><speed>0.489071</speed><course>111.315575</course><hAcc>1.703938</hAcc><vAcc>0.826796</vAcc></extensions></trkpt>
      <trkpt lon="-2.214193" lat="53.112305"><ele>306.936127</ele><time>2022-03-04T11:51:00Z</time><extensions><speed>0.480291</speed><course>101.483238</course><hAcc>1.713246</hAcc><vAcc>0.826911</vAcc></extensions></trkpt>
      <trkpt lon="-2.214186" lat="53.112305"><ele>307.019501</ele><time>2022-03-04T11:51:01Z</time><extensions><speed>0.450713</speed><course>85.126396</course><hAcc>1.723133</hAcc><vAcc>0.826982</vAcc></extensions></trkpt>
      <trkpt lon="-2.214177" lat="53.112306"><ele>307.101654</ele><time>2022-03-04T11:51:02Z</time><extensions><speed>0.722884</speed><course>71.969620</course><hAcc>1.706065</hAcc><vAcc>0.827021</vAcc></extensions></trkpt>
      <trkpt lon="-2.214167" lat="53.112308"><ele>307.177124</ele><time>2022-03-04T11:51:03Z</time><extensions><speed>0.835933</speed><course>62.201881</course><hAcc>1.707311</hAcc><vAcc>0.827026</vAcc></extensions></trkpt>
      <trkpt lon="-2.214156" lat="53.112312"><ele>307.246124</ele><time>2022-03-04T11:51:04Z</time><extensions><speed>0.819351</speed><course>52.231407</course><hAcc>1.712255</hAcc><vAcc>0.826993</vAcc></extensions></trkpt>
      <trkpt lon="-2.214148" lat="53.112317"><ele>307.309174</ele><time>2022-03-04T11:51:05Z</time><extensions><speed>0.709902</speed><course>41.857094</course><hAcc>1.713073</hAcc><vAcc>0.826908</vAcc></extensions></trkpt>
      <trkpt lon="-2.214141" lat="53.112322"><ele>307.354248</ele><time>2022-03-04T11:51:06Z</time><extensions><speed>0.674278</speed><course>35.774094</course><hAcc>1.704893</hAcc><vAcc>0.826784</vAcc></extensions></trkpt>
      <trkpt lon="-2.214135" lat="53.112327"><ele>307.416168</ele><time>2022-03-04T11:51:07Z</time><extensions><speed>0.765944</speed><course>34.969074</course><hAcc>1.708276</hAcc><vAcc>0.826619</vAcc></extensions></trkpt>
      <trkpt lon="-2.214128" lat="53.112333"><ele>307.457642</ele><time>2022-03-04T11:51:08Z</time><extensions><speed>0.747759</speed><course>39.488144</course><hAcc>1.714810</hAcc><vAcc>0.826435</vAcc></extensions></trkpt>
      <trkpt lon="-2.214122" lat="53.112337"><ele>307.488831</ele><time>2022-03-04T11:51:09Z</time><extensions><speed>0.575603</speed><course>46.119099</course><hAcc>1.713441</hAcc><vAcc>0.826251</vAcc></extensions></trkpt>
      <trkpt lon="-2.214117" lat="53.112340"><ele>307.508728</ele><time>2022-03-04T11:51:10Z</time><extensions><speed>0.346019</speed><course>51.574276</course><hAcc>1.704513</hAcc><vAcc>0.826061</vAcc></extensions></trkpt>
      <trkpt lon="-2.214114" lat="53.112341"><ele>307.531097</ele><time>2022-03-04T11:51:11Z</time><extensions><speed>0.131108</speed><course>57.725151</course><hAcc>1.708805</hAcc><vAcc>0.825828</vAcc></extensions></trkpt>
      <trkpt lon="-2.214113" lat="53.112342"><ele>307.553497</ele><time>2022-03-04T11:51:12Z</time><extensions><speed>0.066753</speed><course>60.986931</course><hAcc>1.709877</hAcc><vAcc>0.825479</vAcc></extensions></trkpt>
      <trkpt lon="-2.214112" lat="53.112342"><ele>307.538513</ele><time>2022-03-04T11:51:13Z</time><extensions><speed>0.077742</speed><course>50.131947</course><hAcc>1.711094</hAcc><vAcc>0.825108</vAcc></extensions></trkpt>
      <trkpt lon="-2.214110" lat="53.112343"><ele>307.516205</ele><time>2022-03-04T11:51:14Z</time><extensions><speed>0.143883</speed><course>43.622894</course><hAcc>1.712462</hAcc><vAcc>0.824762</vAcc></extensions></trkpt>
      <trkpt lon="-2.214108" lat="53.112344"><ele>307.497559</ele><time>2022-03-04T11:51:15Z</time><extensions><speed>0.268431</speed><course>42.450851</course><hAcc>1.710699</hAcc><vAcc>0.824428</vAcc></extensions></trkpt>
      <trkpt lon="-2.214104" lat="53.112347"><ele>307.468140</ele><time>2022-03-04T11:51:16Z</time><extensions><speed>0.471884</speed><course>42.942818</course><hAcc>1.707462</hAcc><vAcc>0.824111</vAcc></extensions></trkpt>
      <trkpt lon="-2.214098" lat="53.112351"><ele>307.448120</ele><time>2022-03-04T11:51:17Z</time><extensions><speed>0.835814</speed><course>43.744427</course><hAcc>1.704359</hAcc><vAcc>0.823808</vAcc></extensions></trkpt>
      <trkpt lon="-2.214089" lat="53.112357"><ele>307.413971</ele><time>2022-03-04T11:51:18Z</time><extensions><speed>0.905498</speed><course>44.570740</course><hAcc>1.704598</hAcc><vAcc>0.823502</vAcc></extensions></trkpt>
      <trkpt lon="-2.214080" lat="53.112363"><ele>307.387787</ele><time>2022-03-04T11:51:19Z</time><extensions><speed>0.858302</speed><course>39.156689</course><hAcc>1.704778</hAcc><vAcc>0.823238</vAcc></extensions></trkpt>
      <trkpt lon="-2.214073" lat="53.112369"><ele>307.360931</ele><time>2022-03-04T11:51:20Z</time><extensions><speed>0.762675</speed><course>22.267916</course><hAcc>1.704150</hAcc><vAcc>0.822987</vAcc></extensions></trkpt>
      <trkpt lon="-2.214072" lat="53.112375"><ele>307.339172</ele><time>2022-03-04T11:51:21Z</time><extensions><speed>0.637268</speed><course>345.927429</course><hAcc>1.696447</hAcc><vAcc>0.822759</vAcc></extensions></trkpt>
      <trkpt lon="-2.214074" lat="53.112381"><ele>307.316315</ele><time>2022-03-04T11:51:22Z</time><extensions><speed>0.785105</speed><course>359.392090</course><hAcc>1.683667</hAcc><vAcc>0.822582</vAcc></extensions></trkpt>
      <trkpt lon="-2.214072" lat="53.112389"><ele>307.295593</ele><time>2022-03-04T11:51:23Z</time><extensions><speed>1.039585</speed><course>13.551843</course><hAcc>1.689964</hAcc><vAcc>0.822483</vAcc></extensions></trkpt>
      <trkpt lon="-2.214067" lat="53.112399"><ele>307.278503</ele><time>2022-03-04T11:51:24Z</time><extensions><speed>1.245426</speed><course>19.104740</course><hAcc>1.678436</hAcc><vAcc>0.822463</vAcc></extensions></trkpt>
      <trkpt lon="-2.214060" lat="53.112410"><ele>307.268402</ele><time>2022-03-04T11:51:25Z</time><extensions><speed>1.322935</speed><course>22.184658</course><hAcc>1.670099</hAcc><vAcc>0.822509</vAcc></extensions></trkpt>
      <trkpt lon="-2.214053" lat="53.112420"><ele>307.262390</ele><time>2022-03-04T11:51:26Z</time><extensions><speed>1.220092</speed><course>23.699017</course><hAcc>1.669637</hAcc><vAcc>0.822589</vAcc></extensions></trkpt>
      <trkpt lon="-2.214046" lat="53.112429"><ele>307.265533</ele><time>2022-03-04T11:51:27Z</time><extensions><speed>1.004314</speed><course>22.540209</course><hAcc>1.673882</hAcc><vAcc>0.822711</vAcc></extensions></trkpt>
      <trkpt lon="-2.214041" lat="53.112437"><ele>307.273438</ele><time>2022-03-04T11:51:28Z</time><extensions><speed>0.772798</speed><course>23.116121</course><hAcc>1.667177</hAcc><vAcc>0.822847</vAcc></extensions></trkpt>
      <trkpt lon="-2.214037" lat="53.112442"><ele>307.292114</ele><time>2022-03-04T11:51:29Z</time><extensions><speed>0.530383</speed><course>23.844875</course><hAcc>1.678529</hAcc><vAcc>0.822963</vAcc></extensions></trkpt>
      <trkpt lon="-2.214035" lat="53.112445"><ele>307.319458</ele><time>2022-03-04T11:51:30Z</time><extensions><speed>0.197982</speed><course>28.995495</course><hAcc>1.677132</hAcc><vAcc>0.823069</vAcc></extensions></trkpt>
      <trkpt lon="-2.214034" lat="53.112446"><ele>307.347687</ele><time>2022-03-04T11:51:31Z</time><extensions><speed>0.084929</speed><course>35.049683</course><hAcc>1.660554</hAcc><vAcc>0.823171</vAcc></extensions></trkpt>
      <trkpt lon="-2.214033" lat="53.112447"><ele>307.377686</ele><time>2022-03-04T11:51:32Z</time><extensions><speed>0.042112</speed><course>31.913879</course><hAcc>1.655175</hAcc><vAcc>0.823274</vAcc></extensions></trkpt>
      <trkpt lon="-2.214033" lat="53.112447"><ele>307.414459</ele><time>2022-03-04T11:51:33Z</time><extensions><speed>0.036182</speed><course>13.754191</course><hAcc>1.655134</hAcc><vAcc>0.823360</vAcc></extensions></trkpt>
      <trkpt lon="-2.214033" lat="53.112447"><ele>307.458862</ele><time>2022-03-04T11:51:34Z</time><extensions><speed>0.043902</speed><course>4.127955</course><hAcc>1.676333</hAcc><vAcc>0.823434</vAcc></extensions></trkpt>
      <trkpt lon="-2.214033" lat="53.112448"><ele>307.506165</ele><time>2022-03-04T11:51:35Z</time><extensions><speed>0.042805</speed><course>6.036060</course><hAcc>1.713710</hAcc><vAcc>0.823522</vAcc></extensions></trkpt>
      <trkpt lon="-2.214033" lat="53.112448"><ele>307.564117</ele><time>2022-03-04T11:51:36Z</time><extensions><speed>0.082266</speed><course>11.038002</course><hAcc>1.676938</hAcc><vAcc>0.823595</vAcc></extensions></trkpt>
      <trkpt lon="-2.214032" lat="53.112449"><ele>307.624634</ele><time>2022-03-04T11:51:37Z</time><extensions><speed>0.100165</speed><course>15.208358</course><hAcc>1.679721</hAcc><vAcc>0.823669</vAcc></extensions></trkpt>
      <trkpt lon="-2.214032" lat="53.112450"><ele>307.686981</ele><time>2022-03-04T11:51:38Z</time><extensions><speed>0.121146</speed><course>20.425903</course><hAcc>1.693302</hAcc><vAcc>0.823763</vAcc></extensions></trkpt>
      <trkpt lon="-2.214031" lat="53.112451"><ele>307.752777</ele><time>2022-03-04T11:51:39Z</time><extensions><speed>0.139344</speed><course>27.736359</course><hAcc>1.697194</hAcc><vAcc>0.823880</vAcc></extensions></trkpt>
      <trkpt lon="-2.214030" lat="53.112452"><ele>307.820862</ele><time>2022-03-04T11:51:40Z</time><extensions><speed>0.129838</speed><course>38.457077</course><hAcc>1.709746</hAcc><vAcc>0.824004</vAcc></extensions></trkpt>
      <trkpt lon="-2.214029" lat="53.112453"><ele>307.903656</ele><time>2022-03-04T11:51:41Z</time><extensions><speed>0.110317</speed><course>53.612038</course><hAcc>1.725129</hAcc><vAcc>0.824125</vAcc></extensions></trkpt>
      <trkpt lon="-2.214027" lat="53.112453"><ele>307.984955</ele><time>2022-03-04T11:51:42Z</time><extensions><speed>0.100491</speed><course>68.913429</course><hAcc>1.733763</hAcc><vAcc>0.824268</vAcc></extensions></trkpt>
      <trkpt lon="-2.214026" lat="53.112454"><ele>308.067169</ele><time>2022-03-04T11:51:44Z</time><extensions><speed>0.095800</speed><course>77.512115</course><hAcc>1.735953</hAcc><vAcc>0.824412</vAcc></extensions></trkpt>
      <trkpt lon="-2.214025" lat="53.112454"><ele>308.149323</ele><time>2022-03-04T11:51:45Z</time><extensions><speed>0.086896</speed><course>74.603966</course><hAcc>1.735196</hAcc><vAcc>0.824536</vAcc></extensions></trkpt>
      <trkpt lon="-2.214024" lat="53.112454"><ele>308.222534</ele><time>2022-03-04T11:51:46Z</time><extensions><speed>0.072140</speed><course>57.742538</course><hAcc>1.738691</hAcc><vAcc>0.824636</vAcc></extensions></trkpt>
      <trkpt lon="-2.214023" lat="53.112455"><ele>308.294342</ele><time>2022-03-04T11:51:47Z</time><extensions><speed>0.078049</speed><course>30.057865</course><hAcc>1.731370</hAcc><vAcc>0.824706</vAcc></extensions></trkpt>
      <trkpt lon="-2.214022" lat="53.112456"><ele>308.371582</ele><time>2022-03-04T11:51:48Z</time><extensions><speed>0.104796</speed><course>8.814654</course><hAcc>1.726940</hAcc><vAcc>0.824757</vAcc></extensions></trkpt>
      <trkpt lon="-2.214022" lat="53.112457"><ele>308.438141</ele><time>2022-03-04T11:51:49Z</time><extensions><speed>0.143286</speed><course>358.280426</course><hAcc>1.730440</hAcc><vAcc>0.824763</vAcc></extensions></trkpt>
      <trkpt lon="-2.214023" lat="53.112458"><ele>308.504333</ele><time>2022-03-04T11:51:50Z</time><extensions><speed>0.187244</speed><course>354.849365</course><hAcc>1.732576</hAcc><vAcc>0.824731</vAcc></extensions></trkpt>
      <trkpt lon="-2.214023" lat="53.112460"><ele>308.564209</ele><time>2022-03-04T11:51:51Z</time><extensions><speed>0.251398</speed><course>356.036163</course><hAcc>1.716664</hAcc><vAcc>0.824672</vAcc></extensions></trkpt>
      <trkpt lon="-2.214023" lat="53.112463"><ele>308.630463</ele><time>2022-03-04T11:51:52Z</time><extensions><speed>0.312418</speed><course>359.883362</course><hAcc>1.707131</hAcc><vAcc>0.824599</vAcc></extensions></trkpt>
      <trkpt lon="-2.214023" lat="53.112465"><ele>308.694580</ele><time>2022-03-04T11:51:53Z</time><extensions><speed>0.209800</speed><course>352.319061</course><hAcc>1.713385</hAcc><vAcc>0.824518</vAcc></extensions></trkpt>
      <trkpt lon="-2.214024" lat="53.112467"><ele>308.763458</ele><time>2022-03-04T11:51:54Z</time><extensions><speed>0.163002</speed><course>346.169922</course><hAcc>1.713592</hAcc><vAcc>0.824436</vAcc></extensions></trkpt>
      <trkpt lon="-2.214024" lat="53.112468"><ele>308.833954</ele><time>2022-03-04T11:51:55Z</time><extensions><speed>0.150278</speed><course>343.150726</course><hAcc>1.711034</hAcc><vAcc>0.824353</vAcc></extensions></trkpt>
      <trkpt lon="-2.214025" lat="53.112470"><ele>308.911652</ele><time>2022-03-04T11:51:56Z</time><extensions><speed>0.164652</speed><course>344.427734</course><hAcc>1.708482</hAcc><vAcc>0.824270</vAcc></extensions></trkpt>
      <trkpt lon="-2.214026" lat="53.112471"><ele>308.990082</ele><time>2022-03-04T11:51:57Z</time><extensions><speed>0.197470</speed><course>347.946259</course><hAcc>1.706454</hAcc><vAcc>0.824192</vAcc></extensions></trkpt>
      <trkpt lon="-2.214026" lat="53.112473"><ele>309.066193</ele><time>2022-03-04T11:51:58Z</time><extensions><speed>0.241713</speed><course>352.181458</course><hAcc>1.707609</hAcc><vAcc>0.824133</vAcc></extensions></trkpt>
      <trkpt lon="-2.214026" lat="53.112476"><ele>309.147614</ele><time>2022-03-04T11:51:59Z</time><extensions><speed>0.309532</speed><course>358.132233</course><hAcc>1.710456</hAcc><vAcc>0.824079</vAcc></extensions></trkpt>
      <trkpt lon="-2.214026" lat="53.112479"><ele>309.239685</ele><time>2022-03-04T11:52:00Z</time><extensions><speed>0.442572</speed><course>4.198822</course><hAcc>1.702360</hAcc><vAcc>0.824047</vAcc></extensions></trkpt>
      <trkpt lon="-2.214025" lat="53.112484"><ele>309.329468</ele><time>2022-03-04T11:52:01Z</time><extensions><speed>0.698534</speed><course>8.390152</course><hAcc>1.686669</hAcc><vAcc>0.824014</vAcc></extensions></trkpt>
      <trkpt lon="-2.214024" lat="53.112491"><ele>309.434784</ele><time>2022-03-04T11:52:02Z</time><extensions><speed>0.790394</speed><course>8.894148</course><hAcc>1.698615</hAcc><vAcc>0.824003</vAcc></extensions></trkpt>
      <trkpt lon="-2.214022" lat="53.112498"><ele>309.531647</ele><time>2022-03-04T11:52:03Z</time><extensions><speed>0.864492</speed><course>8.162195</course><hAcc>1.698359</hAcc><vAcc>0.824017</vAcc></extensions></trkpt>
      <trkpt lon="-2.214020" lat="53.112506"><ele>309.627350</ele><time>2022-03-04T11:52:04Z</time><extensions><speed>0.885745</speed><course>5.774833</course><hAcc>1.690840</hAcc><vAcc>0.824039</vAcc></extensions></trkpt>
      <trkpt lon="-2.214019" lat="53.112514"><ele>309.721619</ele><time>2022-03-04T11:52:05Z</time><extensions><speed>0.858657</speed><course>2.092634</course><hAcc>1.682665</hAcc><vAcc>0.824063</vAcc></extensions></trkpt>
      <trkpt lon="-2.214019" lat="53.112521"><ele>309.813263</ele><time>2022-03-04T11:52:06Z</time><extensions><speed>0.842766</speed><course>2.099645</course><hAcc>1.676008</hAcc><vAcc>0.824095</vAcc></extensions></trkpt>
      <trkpt lon="-2.214018" lat="53.112529"><ele>309.901215</ele><time>2022-03-04T11:52:07Z</time><extensions><speed>0.825856</speed><course>2.956287</course><hAcc>1.669718</hAcc><vAcc>0.824135</vAcc></extensions></trkpt>
      <trkpt lon="-2.214018" lat="53.112536"><ele>309.984558</ele><time>2022-03-04T11:52:08Z</time><extensions><speed>0.739057</speed><course>3.403905</course><hAcc>1.665232</hAcc><vAcc>0.824183</vAcc></extensions></trkpt>
      <trkpt lon="-2.214017" lat="53.112542"><ele>310.062531</ele><time>2022-03-04T11:52:09Z</time><extensions><speed>0.687031</speed><course>5.095700</course><hAcc>1.666036</hAcc><vAcc>0.824225</vAcc></extensions></trkpt>
      <trkpt lon="-2.214016" lat="53.112548"><ele>310.134399</ele><time>2022-03-04T11:52:10Z</time><extensions><speed>0.722731</speed><course>6.217109</course><hAcc>1.689157</hAcc><vAcc>0.824280</vAcc></extensions></trkpt>
      <trkpt lon="-2.214014" lat="53.112554"><ele>310.208344</ele><time>2022-03-04T11:52:11Z</time><extensions><speed>0.587967</speed><course>11.779314</course><hAcc>1.682141</hAcc><vAcc>0.824338</vAcc></extensions></trkpt>
      <trkpt lon="-2.214012" lat="53.112559"><ele>310.278625</ele><time>2022-03-04T11:52:12Z</time><extensions><speed>0.423957</speed><course>19.867947</course><hAcc>1.678174</hAcc><vAcc>0.824406</vAcc></extensions></trkpt>
      <trkpt lon="-2.214010" lat="53.112562"><ele>310.347992</ele><time>2022-03-04T11:52:13Z</time><extensions><speed>0.262058</speed><course>25.678204</course><hAcc>1.668406</hAcc><vAcc>0.824489</vAcc></extensions></trkpt>
      <trkpt lon="-2.214009" lat="53.112563"><ele>310.429626</ele><time>2022-03-04T11:52:14Z</time><extensions><speed>0.083757</speed><course>40.114338</course><hAcc>1.664189</hAcc><vAcc>0.824579</vAcc></extensions></trkpt>
      <trkpt lon="-2.214008" lat="53.112563"><ele>310.520447</ele><time>2022-03-04T11:52:15Z</time><extensions><speed>0.024339</speed><course>87.105621</course><hAcc>1.668102</hAcc><vAcc>0.824680</vAcc></extensions></trkpt>
      <trkpt lon="-2.214008" lat="53.112563"><ele>310.611023</ele><time>2022-03-04T11:52:16Z</time><extensions><speed>0.015678</speed><course>121.495514</course><hAcc>1.669433</hAcc><vAcc>0.824779</vAcc></extensions></trkpt>
      <trkpt lon="-2.214008" lat="53.112563"><ele>310.714050</ele><time>2022-03-04T11:52:17Z</time><extensions><speed>0.012524</speed><course>62.797974</course><hAcc>1.677284</hAcc><vAcc>0.824873</vAcc></extensions></trkpt>
      <trkpt lon="-2.214008" lat="53.112563"><ele>310.832611</ele><time>2022-03-04T11:52:18Z</time><extensions><speed>0.035073</speed><course>28.895041</course><hAcc>1.675482</hAcc><vAcc>0.824966</vAcc></extensions></trkpt>
      <trkpt lon="-2.214007" lat="53.112564"><ele>310.954590</ele><time>2022-03-04T11:52:19Z</time><extensions><speed>0.066692</speed><course>23.704151</course><hAcc>1.690988</hAcc><vAcc>0.825052</vAcc></extensions></trkpt>
      <trkpt lon="-2.214007" lat="53.112565"><ele>311.080627</ele><time>2022-03-04T11:52:20Z</time><extensions><speed>0.130223</speed><course>23.999014</course><hAcc>1.690670</hAcc><vAcc>0.825122</vAcc></extensions></trkpt>
      <trkpt lon="-2.214006" lat="53.112566"><ele>311.212585</ele><time>2022-03-04T11:52:21Z</time><extensions><speed>0.241973</speed><course>26.523956</course><hAcc>1.676858</hAcc><vAcc>0.825187</vAcc></extensions></trkpt>
      <trkpt lon="-2.214003" lat="53.112569"><ele>311.350800</ele><time>2022-03-04T11:52:22Z</time><extensions><speed>0.385750</speed><course>28.565119</course><hAcc>1.674974</hAcc><vAcc>0.825236</vAcc></extensions></trkpt>
      <trkpt lon="-2.214000" lat="53.112573"><ele>311.495300</ele><time>2022-03-04T11:52:23Z</time><extensions><speed>0.616926</speed><course>29.011322</course><hAcc>1.677831</hAcc><vAcc>0.825287</vAcc></extensions></trkpt>
      <trkpt lon="-2.213995" lat="53.112578"><ele>311.643402</ele><time>2022-03-04T11:52:24Z</time><extensions><speed>0.734687</speed><course>29.142664</course><hAcc>1.702827</hAcc><vAcc>0.825325</vAcc></extensions></trkpt>
      <trkpt lon="-2.213989" lat="53.112584"><ele>311.791351</ele><time>2022-03-04T11:52:25Z</time><extensions><speed>0.804967</speed><course>28.420195</course><hAcc>1.709549</hAcc><vAcc>0.825345</vAcc></extensions></trkpt>
      <trkpt lon="-2.213984" lat="53.112590"><ele>311.937103</ele><time>2022-03-04T11:52:26Z</time><extensions><speed>0.789822</speed><course>27.691797</course><hAcc>1.704677</hAcc><vAcc>0.825310</vAcc></extensions></trkpt>
      <trkpt lon="-2.213979" lat="53.112596"><ele>312.078766</ele><time>2022-03-04T11:52:27Z</time><extensions><speed>0.727289</speed><course>26.095303</course><hAcc>1.698117</hAcc><vAcc>0.825249</vAcc></extensions></trkpt>
      <trkpt lon="-2.213974" lat="53.112602"><ele>312.214569</ele><time>2022-03-04T11:52:28Z</time><extensions><speed>0.656349</speed><course>20.866381</course><hAcc>1.688138</hAcc><vAcc>0.825159</vAcc></extensions></trkpt>
      <trkpt lon="-2.213972" lat="53.112607"><ele>312.343048</ele><time>2022-03-04T11:52:29Z</time><extensions><speed>0.528287</speed><course>9.224101</course><hAcc>1.672443</hAcc><vAcc>0.825040</vAcc></extensions></trkpt>
      <trkpt lon="-2.213971" lat="53.112612"><ele>312.463104</ele><time>2022-03-04T11:52:30Z</time><extensions><speed>0.480454</speed><course>1.521539</course><hAcc>1.649645</hAcc><vAcc>0.824889</vAcc></extensions></trkpt>
      <trkpt lon="-2.213971" lat="53.112616"><ele>312.574036</ele><time>2022-03-04T11:52:31Z</time><extensions><speed>0.361262</speed><course>357.597961</course><hAcc>1.644235</hAcc><vAcc>0.824715</vAcc></extensions></trkpt>
      <trkpt lon="-2.213972" lat="53.112618"><ele>312.689667</ele><time>2022-03-04T11:52:32Z</time><extensions><speed>0.140519</speed><course>353.055664</course><hAcc>1.658535</hAcc><vAcc>0.824537</vAcc></extensions></trkpt>
      <trkpt lon="-2.213972" lat="53.112619"><ele>312.808411</ele><time>2022-03-04T11:52:33Z</time><extensions><speed>0.061967</speed><course>343.183228</course><hAcc>1.660405</hAcc><vAcc>0.824343</vAcc></extensions></trkpt>
      <trkpt lon="-2.213972" lat="53.112619"><ele>312.915955</ele><time>2022-03-04T11:52:34Z</time><extensions><speed>0.030291</speed><course>328.524139</course><hAcc>1.674743</hAcc><vAcc>0.824142</vAcc></extensions></trkpt>
      <trkpt lon="-2.213973" lat="53.112619"><ele>313.003937</ele><time>2022-03-04T11:52:35Z</time><extensions><speed>0.024238</speed><course>317.758667</course><hAcc>1.677790</hAcc><vAcc>0.823948</vAcc></extensions></trkpt>
      <trkpt lon="-2.213973" lat="53.112619"><ele>313.088043</ele><time>2022-03-04T11:52:36Z</time><extensions><speed>0.035303</speed><course>318.821594</course><hAcc>1.657068</hAcc><vAcc>0.823786</vAcc></extensions></trkpt>
      <trkpt lon="-2.213973" lat="53.112620"><ele>313.184387</ele><time>2022-03-04T11:52:36Z</time><extensions><speed>0.047710</speed><course>325.928802</course><hAcc>1.666966</hAcc><vAcc>0.823653</vAcc></extensions></trkpt>
      <trkpt lon="-2.213973" lat="53.112620"><ele>313.287537</ele><time>2022-03-04T11:52:37Z</time><extensions><speed>0.067472</speed><course>335.800201</course><hAcc>1.691967</hAcc><vAcc>0.823548</vAcc></extensions></trkpt>
      <trkpt lon="-2.213974" lat="53.112621"><ele>313.400635</ele><time>2022-03-04T11:52:38Z</time><extensions><speed>0.099108</speed><course>345.948822</course><hAcc>1.712356</hAcc><vAcc>0.823493</vAcc></extensions></trkpt>
      <trkpt lon="-2.213974" lat="53.112622"><ele>313.520599</ele><time>2022-03-04T11:52:39Z</time><extensions><speed>0.155180</speed><course>355.582550</course><hAcc>1.720452</hAcc><vAcc>0.823493</vAcc></extensions></trkpt>
      <trkpt lon="-2.213974" lat="53.112624"><ele>313.646881</ele><time>2022-03-04T11:52:40Z</time><extensions><speed>0.247054</speed><course>4.931717</course><hAcc>1.721570</hAcc><vAcc>0.823551</vAcc></extensions></trkpt>
      <trkpt lon="-2.213973" lat="53.112627"><ele>313.779480</ele><time>2022-03-04T11:52:41Z</time><extensions><speed>0.413774</speed><course>13.883165</course><hAcc>1.713384</hAcc><vAcc>0.823660</vAcc></extensions></trkpt>
      <trkpt lon="-2.213970" lat="53.112632"><ele>313.910126</ele><time>2022-03-04T11:52:42Z</time><extensions><speed>0.716313</speed><course>18.716127</course><hAcc>1.706038</hAcc><vAcc>0.823804</vAcc></extensions></trkpt>
      <trkpt lon="-2.213966" lat="53.112638"><ele>314.060364</ele><time>2022-03-04T11:52:43Z</time><extensions><speed>0.893284</speed><course>21.159264</course><hAcc>1.704584</hAcc><vAcc>0.823984</vAcc></extensions></trkpt>
      <trkpt lon="-2.213961" lat="53.112646"><ele>314.225250</ele><time>2022-03-04T11:52:44Z</time><extensions><speed>0.944386</speed><course>20.885822</course><hAcc>1.701215</hAcc><vAcc>0.824196</vAcc></extensions></trkpt>
      <trkpt lon="-2.213956" lat="53.112654"><ele>314.419891</ele><time>2022-03-04T11:52:45Z</time><extensions><speed>0.985353</speed><course>24.505339</course><hAcc>1.695296</hAcc><vAcc>0.824433</vAcc></extensions></trkpt>
      <trkpt lon="-2.213948" lat="53.112663"><ele>314.616425</ele><time>2022-03-04T11:52:46Z</time><extensions><speed>1.112304</speed><course>29.409893</course><hAcc>1.686495</hAcc><vAcc>0.824672</vAcc></extensions></trkpt>
      <trkpt lon="-2.213939" lat="53.112671"><ele>314.826874</ele><time>2022-03-04T11:52:47Z</time><extensions><speed>1.228625</speed><course>34.822628</course><hAcc>1.681746</hAcc><vAcc>0.824913</vAcc></extensions></trkpt>
      <trkpt lon="-2.213928" lat="53.112680"><ele>315.037018</ele><time>2022-03-04T11:52:48Z</time><extensions><speed>1.156545</speed><course>39.646652</course><hAcc>1.679818</hAcc><vAcc>0.825145</vAcc></extensions></trkpt>
      <trkpt lon="-2.213917" lat="53.112688"><ele>315.273102</ele><time>2022-03-04T11:52:49Z</time><extensions><speed>1.132948</speed><course>38.985645</course><hAcc>1.674019</hAcc><vAcc>0.825359</vAcc></extensions></trkpt>
      <trkpt lon="-2.213907" lat="53.112696"><ele>315.504761</ele><time>2022-03-04T11:52:50Z</time><extensions><speed>1.196976</speed><course>34.086975</course><hAcc>1.671852</hAcc><vAcc>0.825550</vAcc></extensions></trkpt>
      <trkpt lon="-2.213898" lat="53.112706"><ele>315.732880</ele><time>2022-03-04T11:52:51Z</time><extensions><speed>1.208563</speed><course>27.440041</course><hAcc>1.674599</hAcc><vAcc>0.825705</vAcc></extensions></trkpt>
      <trkpt lon="-2.213890" lat="53.112715"><ele>315.979828</ele><time>2022-03-04T11:52:52Z</time><extensions><speed>1.206450</speed><course>22.658875</course><hAcc>1.673703</hAcc><vAcc>0.825811</vAcc></extensions></trkpt>
      <trkpt lon="-2.213884" lat="53.112726"><ele>316.228516</ele><time>2022-03-04T11:52:53Z</time><extensions><speed>1.223089</speed><course>19.816927</course><hAcc>1.673374</hAcc><vAcc>0.825896</vAcc></extensions></trkpt>
      <trkpt lon="-2.213878" lat="53.112736"><ele>316.481262</ele><time>2022-03-04T11:52:54Z</time><extensions><speed>1.165885</speed><course>20.377260</course><hAcc>1.671049</hAcc><vAcc>0.825959</vAcc></extensions></trkpt>
      <trkpt lon="-2.213872" lat="53.112745"><ele>316.723389</ele><time>2022-03-04T11:52:55Z</time><extensions><speed>1.041340</speed><course>22.124624</course><hAcc>1.671032</hAcc><vAcc>0.825994</vAcc></extensions></trkpt>
      <trkpt lon="-2.213866" lat="53.112753"><ele>316.971069</ele><time>2022-03-04T11:52:56Z</time><extensions><speed>0.941178</speed><course>23.341185</course><hAcc>1.672469</hAcc><vAcc>0.826009</vAcc></extensions></trkpt>
      <trkpt lon="-2.213860" lat="53.112761"><ele>317.217224</ele><time>2022-03-04T11:52:57Z</time><extensions><speed>0.911133</speed><course>22.854015</course><hAcc>1.672036</hAcc><vAcc>0.826005</vAcc></extensions></trkpt>
      <trkpt lon="-2.213855" lat="53.112768"><ele>317.459412</ele><time>2022-03-04T11:52:58Z</time><extensions><speed>0.900935</speed><course>21.626511</course><hAcc>1.671138</hAcc><vAcc>0.825987</vAcc></extensions></trkpt>
      <trkpt lon="-2.213851" lat="53.112776"><ele>317.694489</ele><time>2022-03-04T11:52:59Z</time><extensions><speed>0.930434</speed><course>17.917353</course><hAcc>1.669885</hAcc><vAcc>0.825970</vAcc></extensions></trkpt>
      <trkpt lon="-2.213847" lat="53.112784"><ele>317.927032</ele><time>2022-03-04T11:53:00Z</time><extensions><speed>0.900531</speed><course>11.143186</course><hAcc>1.671012</hAcc><vAcc>0.825940</vAcc></extensions></trkpt>
      <trkpt lon="-2.213845" lat="53.112792"><ele>318.155945</ele><time>2022-03-04T11:53:01Z</time><extensions><speed>0.919448</speed><course>4.558308</course><hAcc>1.670409</hAcc><vAcc>0.825917</vAcc></extensions></trkpt>
      <trkpt lon="-2.213844" lat="53.112801"><ele>318.374451</ele><time>2022-03-04T11:53:02Z</time><extensions><speed>0.991543</speed><course>2.590019</course><hAcc>1.669117</hAcc><vAcc>0.825894</vAcc></extensions></trkpt>
      <trkpt lon="-2.213843" lat="53.112810"><ele>318.593689</ele><time>2022-03-04T11:53:03Z</time><extensions><speed>1.065497</speed><course>6.481813</course><hAcc>1.668465</hAcc><vAcc>0.825886</vAcc></extensions></trkpt>
      <trkpt lon="-2.213840" lat="53.112820"><ele>318.799103</ele><time>2022-03-04T11:53:04Z</time><extensions><speed>1.141715</speed><course>13.687956</course><hAcc>1.667095</hAcc><vAcc>0.825883</vAcc></extensions></trkpt>
      <trkpt lon="-2.213835" lat="53.112829"><ele>318.995850</ele><time>2022-03-04T11:53:05Z</time><extensions><speed>1.165838</speed><course>19.634893</course><hAcc>1.665478</hAcc><vAcc>0.825904</vAcc></extensions></trkpt>
      <trkpt lon="-2.213829" lat="53.112839"><ele>319.196686</ele><time>2022-03-04T11:53:06Z</time><extensions><speed>1.155130</speed><course>25.099962</course><hAcc>1.667322</hAcc><vAcc>0.825941</vAcc></extensions></trkpt>
      <trkpt lon="-2.213821" lat="53.112848"><ele>319.377716</ele><time>2022-03-04T11:53:07Z</time><extensions><speed>1.143012</speed><course>28.064135</course><hAcc>1.666293</hAcc><vAcc>0.825996</vAcc></extensions></trkpt>
      <trkpt lon="-2.213813" lat="53.112857"><ele>319.517853</ele><time>2022-03-04T11:53:08Z</time><extensions><speed>1.114013</speed><course>28.921900</course><hAcc>1.666484</hAcc><vAcc>0.826049</vAcc></extensions></trkpt>
      <trkpt lon="-2.213805" lat="53.112866"><ele>319.665741</ele><time>2022-03-04T11:53:09Z</time><extensions><speed>1.119275</speed><course>28.600899</course><hAcc>1.667731</hAcc><vAcc>0.826088</vAcc></extensions></trkpt>
      <trkpt lon="-2.213797" lat="53.112875"><ele>319.803986</ele><time>2022-03-04T11:53:10Z</time><extensions><speed>1.102127</speed><course>28.730160</course><hAcc>1.667778</hAcc><vAcc>0.826113</vAcc></extensions></trkpt>
      <trkpt lon="-2.213789" lat="53.112883"><ele>319.938721</ele><time>2022-03-04T11:53:11Z</time><extensions><speed>1.047552</speed><course>27.695131</course><hAcc>1.671107</hAcc><vAcc>0.826133</vAcc></extensions></trkpt>
      <trkpt lon="-2.213783" lat="53.112891"><ele>320.068207</ele><time>2022-03-04T11:53:12Z</time><extensions><speed>0.914523</speed><course>24.991629</course><hAcc>1.669582</hAcc><vAcc>0.826089</vAcc></extensions></trkpt>
      <trkpt lon="-2.213778" lat="53.112898"><ele>320.201385</ele><time>2022-03-04T11:53:13Z</time><extensions><speed>0.833054</speed><course>21.366697</course><hAcc>1.669373</hAcc><vAcc>0.825923</vAcc></extensions></trkpt>
      <trkpt lon="-2.213773" lat="53.112905"><ele>320.314056</ele><time>2022-03-04T11:53:14Z</time><extensions><speed>0.791209</speed><course>20.784395</course><hAcc>1.667771</hAcc><vAcc>0.825815</vAcc></extensions></trkpt>
      <trkpt lon="-2.213769" lat="53.112911"><ele>320.430695</ele><time>2022-03-04T11:53:15Z</time><extensions><speed>0.756060</speed><course>21.591013</course><hAcc>1.672873</hAcc><vAcc>0.825703</vAcc></extensions></trkpt>
      <trkpt lon="-2.213765" lat="53.112918"><ele>320.553894</ele><time>2022-03-04T11:53:16Z</time><extensions><speed>0.787615</speed><course>24.815672</course><hAcc>1.680542</hAcc><vAcc>0.825576</vAcc></extensions></trkpt>
      <trkpt lon="-2.213760" lat="53.112924"><ele>320.688660</ele><time>2022-03-04T11:53:17Z</time><extensions><speed>0.800318</speed><course>26.175322</course><hAcc>1.680106</hAcc><vAcc>0.825435</vAcc></extensions></trkpt>
      <trkpt lon="-2.213755" lat="53.112930"><ele>320.841522</ele><time>2022-03-04T11:53:18Z</time><extensions><speed>0.731058</speed><course>28.325041</course><hAcc>1.679857</hAcc><vAcc>0.825279</vAcc></extensions></trkpt>
      <trkpt lon="-2.213750" lat="53.112936"><ele>320.991882</ele><time>2022-03-04T11:53:19Z</time><extensions><speed>0.645551</speed><course>22.717596</course><hAcc>1.687940</hAcc><vAcc>0.825101</vAcc></extensions></trkpt>
      <trkpt lon="-2.213747" lat="53.112941"><ele>321.138702</ele><time>2022-03-04T11:53:20Z</time><extensions><speed>0.629475</speed><course>14.219773</course><hAcc>1.700748</hAcc><vAcc>0.824942</vAcc></extensions></trkpt>
      <trkpt lon="-2.213746" lat="53.112947"><ele>321.278809</ele><time>2022-03-04T11:53:21Z</time><extensions><speed>0.535612</speed><course>357.891083</course><hAcc>1.704732</hAcc><vAcc>0.824813</vAcc></extensions></trkpt>
      <trkpt lon="-2.213748" lat="53.112950"><ele>321.414246</ele><time>2022-03-04T11:53:22Z</time><extensions><speed>0.431833</speed><course>320.445801</course><hAcc>1.698808</hAcc><vAcc>0.824708</vAcc></extensions></trkpt>
      <trkpt lon="-2.213754" lat="53.112953"><ele>321.547424</ele><time>2022-03-04T11:53:23Z</time><extensions><speed>0.521922</speed><course>287.578583</course><hAcc>1.701203</hAcc><vAcc>0.824659</vAcc></extensions></trkpt>
      <trkpt lon="-2.213763" lat="53.112954"><ele>321.673279</ele><time>2022-03-04T11:53:24Z</time><extensions><speed>0.761781</speed><course>280.803833</course><hAcc>1.705048</hAcc><vAcc>0.824667</vAcc></extensions></trkpt>
      <trkpt lon="-2.213775" lat="53.112956"><ele>321.796722</ele><time>2022-03-04T11:53:25Z</time><extensions><speed>0.802362</speed><course>285.008209</course><hAcc>1.700912</hAcc><vAcc>0.824719</vAcc></extensions></trkpt>
      <trkpt lon="-2.213786" lat="53.112958"><ele>321.903534</ele><time>2022-03-04T11:53:26Z</time><extensions><speed>0.713963</speed><course>291.423218</course><hAcc>1.698476</hAcc><vAcc>0.824806</vAcc></extensions></trkpt>
      <trkpt lon="-2.213794" lat="53.112960"><ele>321.999329</ele><time>2022-03-04T11:53:27Z</time><extensions><speed>0.491260</speed><course>300.543213</course><hAcc>1.703961</hAcc><vAcc>0.824898</vAcc></extensions></trkpt>
      <trkpt lon="-2.213798" lat="53.112962"><ele>322.072693</ele><time>2022-03-04T11:53:28Z</time><extensions><speed>0.187032</speed><course>305.232452</course><hAcc>1.713777</hAcc><vAcc>0.824983</vAcc></extensions></trkpt>
      <trkpt lon="-2.213799" lat="53.112962"><ele>322.136597</ele><time>2022-03-04T11:53:29Z</time><extensions><speed>0.055415</speed><course>322.451996</course><hAcc>1.718884</hAcc><vAcc>0.825059</vAcc></extensions></trkpt>
      <trkpt lon="-2.213800" lat="53.112963"><ele>322.186249</ele><time>2022-03-04T11:53:30Z</time><extensions><speed>0.026054</speed><course>34.292255</course><hAcc>1.709451</hAcc><vAcc>0.825124</vAcc></extensions></trkpt>
      <trkpt lon="-2.213799" lat="53.112963"><ele>322.218597</ele><time>2022-03-04T11:53:31Z</time><extensions><speed>0.032396</speed><course>63.660080</course><hAcc>1.715027</hAcc><vAcc>0.825180</vAcc></extensions></trkpt>
      <trkpt lon="-2.213799" lat="53.112963"><ele>322.237518</ele><time>2022-03-04T11:53:32Z</time><extensions><speed>0.027885</speed><course>60.167698</course><hAcc>1.727620</hAcc><vAcc>0.825207</vAcc></extensions></trkpt>
      <trkpt lon="-2.213799" lat="53.112963"><ele>322.244324</ele><time>2022-03-04T11:53:33Z</time><extensions><speed>0.019941</speed><course>34.760750</course><hAcc>1.740461</hAcc><vAcc>0.825216</vAcc></extensions></trkpt>
      <trkpt lon="-2.213798" lat="53.112963"><ele>322.247284</ele><time>2022-03-04T11:53:34Z</time><extensions><speed>0.023186</speed><course>358.193970</course><hAcc>1.746222</hAcc><vAcc>0.825228</vAcc></extensions></trkpt>
      <trkpt lon="-2.213799" lat="53.112964"><ele>322.249695</ele><time>2022-03-04T11:53:35Z</time><extensions><speed>0.031804</speed><course>348.347351</course><hAcc>1.749820</hAcc><vAcc>0.825232</vAcc></extensions></trkpt>
      <trkpt lon="-2.213799" lat="53.112964"><ele>322.247253</ele><time>2022-03-04T11:53:36Z</time><extensions><speed>0.042170</speed><course>352.785828</course><hAcc>1.752772</hAcc><vAcc>0.825213</vAcc></extensions></trkpt>
      <trkpt lon="-2.213799" lat="53.112964"><ele>322.240387</ele><time>2022-03-04T11:53:37Z</time><extensions><speed>0.058176</speed><course>357.149933</course><hAcc>1.751258</hAcc><vAcc>0.825195</vAcc></extensions></trkpt>
      <trkpt lon="-2.213799" lat="53.112965"><ele>322.237122</ele><time>2022-03-04T11:53:38Z</time><extensions><speed>0.075724</speed><course>356.169403</course><hAcc>1.748778</hAcc><vAcc>0.825154</vAcc></extensions></trkpt>
      <trkpt lon="-2.213799" lat="53.112966"><ele>322.234283</ele><time>2022-03-04T11:53:39Z</time><extensions><speed>0.092616</speed><course>353.688324</course><hAcc>1.747162</hAcc><vAcc>0.825102</vAcc></extensions></trkpt>
      <trkpt lon="-2.213799" lat="53.112967"><ele>322.233063</ele><time>2022-03-04T11:53:40Z</time><extensions><speed>0.106906</speed><course>351.527405</course><hAcc>1.747748</hAcc><vAcc>0.825045</vAcc></extensions></trkpt>
      <trkpt lon="-2.213799" lat="53.112968"><ele>322.237030</ele><time>2022-03-04T11:53:41Z</time><extensions><speed>0.119776</speed><course>347.660278</course><hAcc>1.745361</hAcc><vAcc>0.825008</vAcc></extensions></trkpt>
      <trkpt lon="-2.213800" lat="53.112969"><ele>322.234711</ele><time>2022-03-04T11:53:42Z</time><extensions><speed>0.130629</speed><course>343.242126</course><hAcc>1.742046</hAcc><vAcc>0.824980</vAcc></extensions></trkpt>
      <trkpt lon="-2.213801" lat="53.112970"><ele>322.254547</ele><time>2022-03-04T11:53:43Z</time><extensions><speed>0.137547</speed><course>338.585236</course><hAcc>1.742319</hAcc><vAcc>0.824970</vAcc></extensions></trkpt>
      <trkpt lon="-2.213802" lat="53.112971"><ele>322.265717</ele><time>2022-03-04T11:53:44Z</time><extensions><speed>0.142941</speed><course>334.131989</course><hAcc>1.733736</hAcc><vAcc>0.824982</vAcc></extensions></trkpt>
      <trkpt lon="-2.213803" lat="53.112972"><ele>322.286194</ele><time>2022-03-04T11:53:45Z</time><extensions><speed>0.140095</speed><course>327.320953</course><hAcc>1.724657</hAcc><vAcc>0.824997</vAcc></extensions></trkpt>
      <trkpt lon="-2.213804" lat="53.112973"><ele>322.307892</ele><time>2022-03-04T11:53:46Z</time><extensions><speed>0.142842</speed><course>317.496979</course><hAcc>1.717655</hAcc><vAcc>0.825012</vAcc></extensions></trkpt>
      <trkpt lon="-2.213806" lat="53.112974"><ele>322.334229</ele><time>2022-03-04T11:53:47Z</time><extensions><speed>0.148686</speed><course>307.206299</course><hAcc>1.715383</hAcc><vAcc>0.824977</vAcc></extensions></trkpt>
      <trkpt lon="-2.213808" lat="53.112975"><ele>322.354065</ele><time>2022-03-04T11:53:48Z</time><extensions><speed>0.157099</speed><course>298.356750</course><hAcc>1.719623</hAcc><vAcc>0.824894</vAcc></extensions></trkpt>
      <trkpt lon="-2.213810" lat="53.112975"><ele>322.370331</ele><time>2022-03-04T11:53:50Z</time><extensions><speed>0.198776</speed><course>293.953033</course><hAcc>1.715725</hAcc><vAcc>0.824755</vAcc></extensions></trkpt>
      <trkpt lon="-2.213813" lat="53.112976"><ele>322.381714</ele><time>2022-03-04T11:53:51Z</time><extensions><speed>0.286634</speed><course>294.669922</course><hAcc>1.706114</hAcc><vAcc>0.824557</vAcc></extensions></trkpt>
      <trkpt lon="-2.213818" lat="53.112978"><ele>322.371246</ele><time>2022-03-04T11:53:52Z</time><extensions><speed>0.456841</speed><course>299.005798</course><hAcc>1.693913</hAcc><vAcc>0.824323</vAcc></extensions></trkpt>
      <trkpt lon="-2.213826" lat="53.112981"><ele>322.373444</ele><time>2022-03-04T11:53:53Z</time><extensions><speed>0.733214</speed><course>304.345001</course><hAcc>1.698268</hAcc><vAcc>0.824042</vAcc></extensions></trkpt>
      <trkpt lon="-2.213835" lat="53.112985"><ele>322.369690</ele><time>2022-03-04T11:53:54Z</time><extensions><speed>0.892078</speed><course>307.965332</course><hAcc>1.705658</hAcc><vAcc>0.823690</vAcc></extensions></trkpt>
      <trkpt lon="-2.213846" lat="53.112990"><ele>322.362885</ele><time>2022-03-04T11:53:55Z</time><extensions><speed>1.018891</speed><course>309.133575</course><hAcc>1.709380</hAcc><vAcc>0.823281</vAcc></extensions></trkpt>
      <trkpt lon="-2.213858" lat="53.112996"><ele>322.351501</ele><time>2022-03-04T11:53:56Z</time><extensions><speed>1.054821</speed><course>308.574677</course><hAcc>1.709600</hAcc><vAcc>0.822825</vAcc></extensions></trkpt>
      <trkpt lon="-2.213871" lat="53.113002"><ele>322.336243</ele><time>2022-03-04T11:53:57Z</time><extensions><speed>0.985789</speed><course>305.526184</course><hAcc>1.710233</hAcc><vAcc>0.822334</vAcc></extensions></trkpt>
      <trkpt lon="-2.213882" lat="53.113006"><ele>322.317505</ele><time>2022-03-04T11:53:58Z</time><extensions><speed>0.822567</speed><course>301.002655</course><hAcc>1.709579</hAcc><vAcc>0.821819</vAcc></extensions></trkpt>
      <trkpt lon="-2.213891" lat="53.113009"><ele>322.295807</ele><time>2022-03-04T11:53:59Z</time><extensions><speed>0.597586</speed><course>293.036743</course><hAcc>1.704640</hAcc><vAcc>0.821314</vAcc></extensions></trkpt>
      <trkpt lon="-2.213898" lat="53.113010"><ele>322.272064</ele><time>2022-03-04T11:54:00Z</time><extensions><speed>0.407154</speed><course>282.830078</course><hAcc>1.691245</hAcc><vAcc>0.820865</vAcc></extensions></trkpt>
      <trkpt lon="-2.213903" lat="53.113011"><ele>322.247253</ele><time>2022-03-04T11:54:01Z</time><extensions><speed>0.261645</speed><course>268.405945</course><hAcc>1.675458</hAcc><vAcc>0.820484</vAcc></extensions></trkpt>
      <trkpt lon="-2.213906" lat="53.113011"><ele>322.222443</ele><time>2022-03-04T11:54:02Z</time><extensions><speed>0.132351</speed><course>238.398636</course><hAcc>1.664664</hAcc><vAcc>0.820189</vAcc></extensions></trkpt>
      <trkpt lon="-2.213906" lat="53.113010"><ele>322.198425</ele><time>2022-03-04T11:54:03Z</time><extensions><speed>0.039922</speed><course>145.106659</course><hAcc>1.651998</hAcc><vAcc>0.819992</vAcc></extensions></trkpt>
      <trkpt lon="-2.213906" lat="53.113010"><ele>322.186859</ele><time>2022-03-04T11:54:04Z</time><extensions><speed>0.053919</speed><course>87.285645</course><hAcc>1.628840</hAcc><vAcc>0.819882</vAcc></extensions></trkpt>
      <trkpt lon="-2.213906" lat="53.113011"><ele>322.178802</ele><time>2022-03-04T11:54:05Z</time><extensions><speed>0.056503</speed><course>61.768894</course><hAcc>1.597984</hAcc><vAcc>0.819826</vAcc></extensions></trkpt>
      <trkpt lon="-2.213905" lat="53.113011"><ele>322.174194</ele><time>2022-03-04T11:54:06Z</time><extensions><speed>0.050528</speed><course>38.058598</course><hAcc>1.575033</hAcc><vAcc>0.819853</vAcc></extensions></trkpt>
      <trkpt lon="-2.213905" lat="53.113012"><ele>322.173218</ele><time>2022-03-04T11:54:07Z</time><extensions><speed>0.052056</speed><course>13.779374</course><hAcc>1.550228</hAcc><vAcc>0.819939</vAcc></extensions></trkpt>
      <trkpt lon="-2.213905" lat="53.113012"><ele>322.170654</ele><time>2022-03-04T11:54:08Z</time><extensions><speed>0.061961</speed><course>357.447632</course><hAcc>1.524969</hAcc><vAcc>0.820065</vAcc></extensions></trkpt>
      <trkpt lon="-2.213905" lat="53.113013"><ele>322.170776</ele><time>2022-03-04T11:54:09Z</time><extensions><speed>0.062724</speed><course>347.013733</course><hAcc>1.526109</hAcc><vAcc>0.820245</vAcc></extensions></trkpt>
      <trkpt lon="-2.213905" lat="53.113013"><ele>322.171051</ele><time>2022-03-04T11:54:10Z</time><extensions><speed>0.064374</speed><course>340.995483</course><hAcc>1.535694</hAcc><vAcc>0.820456</vAcc></extensions></trkpt>
      <trkpt lon="-2.213905" lat="53.113014"><ele>322.169159</ele><time>2022-03-04T11:54:11Z</time><extensions><speed>0.077627</speed><course>337.462250</course><hAcc>1.541512</hAcc><vAcc>0.820702</vAcc></extensions></trkpt>
      <trkpt lon="-2.213906" lat="53.113015"><ele>322.166534</ele><time>2022-03-04T11:54:12Z</time><extensions><speed>0.126273</speed><course>335.805939</course><hAcc>1.531094</hAcc><vAcc>0.820973</vAcc></extensions></trkpt>
      <trkpt lon="-2.213907" lat="53.113016"><ele>322.168365</ele><time>2022-03-04T11:54:13Z</time><extensions><speed>0.198721</speed><course>336.118164</course><hAcc>1.518019</hAcc><vAcc>0.821254</vAcc></extensions></trkpt>
      <trkpt lon="-2.213908" lat="53.113017"><ele>322.171234</ele><time>2022-03-04T11:54:14Z</time><extensions><speed>0.193210</speed><course>338.939423</course><hAcc>1.535647</hAcc><vAcc>0.821542</vAcc></extensions></trkpt>
      <trkpt lon="-2.213908" lat="53.113019"><ele>322.175446</ele><time>2022-03-04T11:54:15Z</time><extensions><speed>0.138945</speed><course>349.035126</course><hAcc>1.560658</hAcc><vAcc>0.821841</vAcc></extensions></trkpt>
      <trkpt lon="-2.213908" lat="53.113020"><ele>322.171631</ele><time>2022-03-04T11:54:16Z</time><extensions><speed>0.086974</speed><course>20.069925</course><hAcc>1.581933</hAcc><vAcc>0.822158</vAcc></extensions></trkpt>
      <trkpt lon="-2.213906" lat="53.113020"><ele>322.193481</ele><time>2022-03-04T11:54:17Z</time><extensions><speed>0.098515</speed><course>70.718246</course><hAcc>1.593845</hAcc><vAcc>0.822493</vAcc></extensions></trkpt>
      <trkpt lon="-2.213904" lat="53.113021"><ele>322.202362</ele><time>2022-03-04T11:54:18Z</time><extensions><speed>0.164947</speed><course>91.837273</course><hAcc>1.597282</hAcc><vAcc>0.822835</vAcc></extensions></trkpt>
      <trkpt lon="-2.213900" lat="53.113021"><ele>322.220398</ele><time>2022-03-04T11:54:19Z</time><extensions><speed>0.233480</speed><course>98.175301</course><hAcc>1.604747</hAcc><vAcc>0.823172</vAcc></extensions></trkpt>
      <trkpt lon="-2.213896" lat="53.113020"><ele>322.210144</ele><time>2022-03-04T11:54:20Z</time><extensions><speed>0.306860</speed><course>98.610825</course><hAcc>1.608543</hAcc><vAcc>0.823502</vAcc></extensions></trkpt>
      <trkpt lon="-2.213891" lat="53.113020"><ele>322.221527</ele><time>2022-03-04T11:54:21Z</time><extensions><speed>0.373473</speed><course>95.465942</course><hAcc>1.612327</hAcc><vAcc>0.823839</vAcc></extensions></trkpt>
      <trkpt lon="-2.213885" lat="53.113020"><ele>322.224274</ele><time>2022-03-04T11:54:22Z</time><extensions><speed>0.443491</speed><course>90.541092</course><hAcc>1.616762</hAcc><vAcc>0.824150</vAcc></extensions></trkpt>
      <trkpt lon="-2.213877" lat="53.113020"><ele>322.224670</ele><time>2022-03-04T11:54:23Z</time><extensions><speed>0.521733</speed><course>85.532127</course><hAcc>1.622429</hAcc><vAcc>0.824466</vAcc></extensions></trkpt>
      <trkpt lon="-2.213869" lat="53.113020"><ele>322.225098</ele><time>2022-03-04T11:54:24Z</time><extensions><speed>0.585174</speed><course>80.692482</course><hAcc>1.634549</hAcc><vAcc>0.824755</vAcc></extensions></trkpt>
      <trkpt lon="-2.213860" lat="53.113022"><ele>322.219696</ele><time>2022-03-04T11:54:25Z</time><extensions><speed>0.658959</speed><course>75.040726</course><hAcc>1.649263</hAcc><vAcc>0.824994</vAcc></extensions></trkpt>
      <trkpt lon="-2.213850" lat="53.113024"><ele>322.202118</ele><time>2022-03-04T11:54:26Z</time><extensions><speed>0.798875</speed><course>67.580772</course><hAcc>1.660372</hAcc><vAcc>0.825141</vAcc></extensions></trkpt>
      <trkpt lon="-2.213837" lat="53.113028"><ele>322.196136</ele><time>2022-03-04T11:54:27Z</time><extensions><speed>1.202504</speed><course>59.322006</course><hAcc>1.660737</hAcc><vAcc>0.825198</vAcc></extensions></trkpt>
      <trkpt lon="-2.213819" lat="53.113034"><ele>322.192719</ele><time>2022-03-04T11:54:28Z</time><extensions><speed>1.506141</speed><course>57.382973</course><hAcc>1.676250</hAcc><vAcc>0.825231</vAcc></extensions></trkpt>
      <trkpt lon="-2.213800" lat="53.113041"><ele>322.188141</ele><time>2022-03-04T11:54:29Z</time><extensions><speed>1.545615</speed><course>62.291485</course><hAcc>1.695523</hAcc><vAcc>0.825201</vAcc></extensions></trkpt>
      <trkpt lon="-2.213780" lat="53.113047"><ele>322.182739</ele><time>2022-03-04T11:54:30Z</time><extensions><speed>1.404504</speed><course>67.808006</course><hAcc>1.711573</hAcc><vAcc>0.825113</vAcc></extensions></trkpt>
      <trkpt lon="-2.213761" lat="53.113051"><ele>322.164032</ele><time>2022-03-04T11:54:31Z</time><extensions><speed>1.218259</speed><course>72.965263</course><hAcc>1.721287</hAcc><vAcc>0.824974</vAcc></extensions></trkpt>
      <trkpt lon="-2.213745" lat="53.113053"><ele>322.143433</ele><time>2022-03-04T11:54:32Z</time><extensions><speed>0.997995</speed><course>79.118202</course><hAcc>1.726617</hAcc><vAcc>0.824795</vAcc></extensions></trkpt>
      <trkpt lon="-2.213732" lat="53.113054"><ele>322.121399</ele><time>2022-03-04T11:54:33Z</time><extensions><speed>0.762855</speed><course>85.380211</course><hAcc>1.736360</hAcc><vAcc>0.824586</vAcc></extensions></trkpt>
      <trkpt lon="-2.213723" lat="53.113055"><ele>322.098419</ele><time>2022-03-04T11:54:34Z</time><extensions><speed>0.468164</speed><course>91.198227</course><hAcc>1.741832</hAcc><vAcc>0.824362</vAcc></extensions></trkpt>
      <trkpt lon="-2.213719" lat="53.113054"><ele>322.074921</ele><time>2022-03-04T11:54:35Z</time><extensions><speed>0.176200</speed><course>111.207054</course><hAcc>1.742446</hAcc><vAcc>0.824142</vAcc></extensions></trkpt>
      <trkpt lon="-2.213717" lat="53.113054"><ele>322.051331</ele><time>2022-03-04T11:54:36Z</time><extensions><speed>0.078752</speed><course>148.264618</course><hAcc>1.733095</hAcc><vAcc>0.823946</vAcc></extensions></trkpt>
      <trkpt lon="-2.213717" lat="53.113053"><ele>322.027832</ele><time>2022-03-04T11:54:37Z</time><extensions><speed>0.043045</speed><course>188.857269</course><hAcc>1.722961</hAcc><vAcc>0.823786</vAcc></extensions></trkpt>
      <trkpt lon="-2.213717" lat="53.113053"><ele>322.004456</ele><time>2022-03-04T11:54:38Z</time><extensions><speed>0.028334</speed><course>247.972977</course><hAcc>1.714121</hAcc><vAcc>0.823667</vAcc></extensions></trkpt>
      <trkpt lon="-2.213718" lat="53.113053"><ele>321.981049</ele><time>2022-03-04T11:54:39Z</time><extensions><speed>0.038735</speed><course>298.156555</course><hAcc>1.704117</hAcc><vAcc>0.823598</vAcc></extensions></trkpt>
      <trkpt lon="-2.213718" lat="53.113053"><ele>321.957703</ele><time>2022-03-04T11:54:40Z</time><extensions><speed>0.051415</speed><course>317.886780</course><hAcc>1.706449</hAcc><vAcc>0.823570</vAcc></extensions></trkpt>
      <trkpt lon="-2.213718" lat="53.113054"><ele>321.934723</ele><time>2022-03-04T11:54:41Z</time><extensions><speed>0.049362</speed><course>325.237488</course><hAcc>1.722163</hAcc><vAcc>0.823574</vAcc></extensions></trkpt>
      <trkpt lon="-2.213719" lat="53.113054"><ele>321.912567</ele><time>2022-03-04T11:54:41Z</time><extensions><speed>0.040071</speed><course>328.008881</course><hAcc>1.727105</hAcc><vAcc>0.823607</vAcc></extensions></trkpt>
      <trkpt lon="-2.213719" lat="53.113054"><ele>321.891632</ele><time>2022-03-04T11:54:42Z</time><extensions><speed>0.039280</speed><course>329.237549</course><hAcc>1.702093</hAcc><vAcc>0.823669</vAcc></extensions></trkpt>
      <trkpt lon="-2.213719" lat="53.113054"><ele>321.872131</ele><time>2022-03-04T11:54:43Z</time><extensions><speed>0.032431</speed><course>329.778168</course><hAcc>1.696524</hAcc><vAcc>0.823745</vAcc></extensions></trkpt>
      <trkpt lon="-2.213720" lat="53.113055"><ele>321.854309</ele><time>2022-03-04T11:54:44Z</time><extensions><speed>0.024458</speed><course>330.087830</course><hAcc>1.704659</hAcc><vAcc>0.823837</vAcc></extensions></trkpt>
      <trkpt lon="-2.213720" lat="53.113055"><ele>321.838196</ele><time>2022-03-04T11:54:45Z</time><extensions><speed>0.016822</speed><course>330.296265</course><hAcc>1.714161</hAcc><vAcc>0.823942</vAcc></extensions></trkpt>
      <trkpt lon="-2.213720" lat="53.113055"><ele>321.823883</ele><time>2022-03-04T11:54:46Z</time><extensions><speed>0.011084</speed><course>330.454773</course><hAcc>1.715671</hAcc><vAcc>0.824049</vAcc></extensions></trkpt>
      <trkpt lon="-2.213720" lat="53.113055"><ele>321.811279</ele><time>2022-03-04T11:54:47Z</time><extensions><speed>0.006981</speed><course>330.583282</course><hAcc>1.712655</hAcc><vAcc>0.824159</vAcc></extensions></trkpt>
      <trkpt lon="-2.213720" lat="53.113055"><ele>321.808380</ele><time>2022-03-04T11:54:48Z</time><extensions><speed>0.005233</speed><course>326.472687</course><hAcc>1.707406</hAcc><vAcc>0.824271</vAcc></extensions></trkpt>
      <trkpt lon="-2.213720" lat="53.113055"><ele>321.806976</ele><time>2022-03-04T11:54:49Z</time><extensions><speed>0.004667</speed><course>320.684631</course><hAcc>1.698438</hAcc><vAcc>0.824374</vAcc></extensions></trkpt>
      <trkpt lon="-2.213720" lat="53.113055"><ele>321.808014</ele><time>2022-03-04T11:54:50Z</time><extensions><speed>0.005201</speed><course>315.446198</course><hAcc>1.684087</hAcc><vAcc>0.824479</vAcc></extensions></trkpt>
      <trkpt lon="-2.213720" lat="53.113055"><ele>321.811401</ele><time>2022-03-04T11:54:51Z</time><extensions><speed>0.006410</speed><course>312.078461</course><hAcc>1.678719</hAcc><vAcc>0.824580</vAcc></extensions></trkpt>
      <trkpt lon="-2.213720" lat="53.113055"><ele>321.816956</ele><time>2022-03-04T11:54:52Z</time><extensions><speed>0.007984</speed><course>310.199463</course><hAcc>1.696130</hAcc><vAcc>0.824670</vAcc></extensions></trkpt>
      <trkpt lon="-2.213720" lat="53.113055"><ele>321.824524</ele><time>2022-03-04T11:54:53Z</time><extensions><speed>0.010337</speed><course>309.168457</course><hAcc>1.719658</hAcc><vAcc>0.824748</vAcc></extensions></trkpt>
      <trkpt lon="-2.213721" lat="53.113055"><ele>321.833923</ele><time>2022-03-04T11:54:54Z</time><extensions><speed>0.021140</speed><course>308.767975</course><hAcc>1.690929</hAcc><vAcc>0.824802</vAcc></extensions></trkpt>
      <trkpt lon="-2.213721" lat="53.113056"><ele>321.844879</ele><time>2022-03-04T11:54:55Z</time><extensions><speed>0.030866</speed><course>308.615662</course><hAcc>1.689834</hAcc><vAcc>0.824834</vAcc></extensions></trkpt>
      <trkpt lon="-2.213721" lat="53.113056"><ele>321.857117</ele><time>2022-03-04T11:54:56Z</time><extensions><speed>0.041412</speed><course>308.531891</course><hAcc>1.702494</hAcc><vAcc>0.824850</vAcc></extensions></trkpt>
      <trkpt lon="-2.213722" lat="53.113056"><ele>321.870270</ele><time>2022-03-04T11:54:57Z</time><extensions><speed>0.050337</speed><course>308.474823</course><hAcc>1.709669</hAcc><vAcc>0.824856</vAcc></extensions></trkpt>
      <trkpt lon="-2.213722" lat="53.113056"><ele>321.883942</ele><time>2022-03-04T11:54:58Z</time><extensions><speed>0.049375</speed><course>308.406769</course><hAcc>1.714709</hAcc><vAcc>0.824846</vAcc></extensions></trkpt>
      <trkpt lon="-2.213723" lat="53.113056"><ele>321.897644</ele><time>2022-03-04T11:54:59Z</time><extensions><speed>0.037730</speed><course>308.333252</course><hAcc>1.725825</hAcc><vAcc>0.824824</vAcc></extensions></trkpt>
      <trkpt lon="-2.213723" lat="53.113057"><ele>321.911041</ele><time>2022-03-04T11:55:00Z</time><extensions><speed>0.026448</speed><course>308.289215</course><hAcc>1.737020</hAcc><vAcc>0.824802</vAcc></extensions></trkpt>
      <trkpt lon="-2.213724" lat="53.113057"><ele>321.923828</ele><time>2022-03-04T11:55:01Z</time><extensions><speed>0.017478</speed><course>308.259003</course><hAcc>1.743831</hAcc><vAcc>0.824774</vAcc></extensions></trkpt>
      <trkpt lon="-2.213724" lat="53.113057"><ele>321.935822</ele><time>2022-03-04T11:55:02Z</time><extensions><speed>0.013782</speed><course>308.238342</course><hAcc>1.728402</hAcc><vAcc>0.824750</vAcc></extensions></trkpt>
      <trkpt lon="-2.213724" lat="53.113057"><ele>321.926270</ele><time>2022-03-04T11:55:03Z</time><extensions><speed>0.009234</speed><course>289.983673</course><hAcc>1.729234</hAcc><vAcc>0.824745</vAcc></extensions></trkpt>
      <trkpt lon="-2.213724" lat="53.113057"><ele>321.910614</ele><time>2022-03-04T11:55:04Z</time><extensions><speed>0.007921</speed><course>247.020477</course><hAcc>1.739113</hAcc><vAcc>0.824727</vAcc></extensions></trkpt>
      <trkpt lon="-2.213724" lat="53.113057"><ele>321.887756</ele><time>2022-03-04T11:55:05Z</time><extensions><speed>0.013861</speed><course>214.890381</course><hAcc>1.746457</hAcc><vAcc>0.824708</vAcc></extensions></trkpt>
      <trkpt lon="-2.213724" lat="53.113057"><ele>321.854156</ele><time>2022-03-04T11:55:06Z</time><extensions><speed>0.023812</speed><course>206.426514</course><hAcc>1.750762</hAcc><vAcc>0.824699</vAcc></extensions></trkpt>
      <trkpt lon="-2.213725" lat="53.113056"><ele>321.814972</ele><time>2022-03-04T11:55:07Z</time><extensions><speed>0.037546</speed><course>204.235031</course><hAcc>1.754600</hAcc><vAcc>0.824656</vAcc></extensions></trkpt>
      <trkpt lon="-2.213725" lat="53.113056"><ele>321.769287</ele><time>2022-03-04T11:55:08Z</time><extensions><speed>0.056810</speed><course>204.387772</course><hAcc>1.755832</hAcc><vAcc>0.824565</vAcc></extensions></trkpt>
      <trkpt lon="-2.213725" lat="53.113055"><ele>321.722321</ele><time>2022-03-04T11:55:09Z</time><extensions><speed>0.083715</speed><course>205.458847</course><hAcc>1.754349</hAcc><vAcc>0.824443</vAcc></extensions></trkpt>
      <trkpt lon="-2.213726" lat="53.113055"><ele>321.670013</ele><time>2022-03-04T11:55:10Z</time><extensions><speed>0.115250</speed><course>206.818588</course><hAcc>1.753405</hAcc><vAcc>0.824258</vAcc></extensions></trkpt>
      <trkpt lon="-2.213727" lat="53.113054"><ele>321.603485</ele><time>2022-03-04T11:55:11Z</time><extensions><speed>0.150310</speed><course>208.992157</course><hAcc>1.753650</hAcc><vAcc>0.823967</vAcc></extensions></trkpt>
      <trkpt lon="-2.213728" lat="53.113052"><ele>321.563080</ele><time>2022-03-04T11:55:12Z</time><extensions><speed>0.174795</speed><course>212.838043</course><hAcc>1.756583</hAcc><vAcc>0.823561</vAcc></extensions></trkpt>
      <trkpt lon="-2.213730" lat="53.113051"><ele>321.536835</ele><time>2022-03-04T11:55:13Z</time><extensions><speed>0.160063</speed><course>223.123856</course><hAcc>1.759535</hAcc><vAcc>0.822925</vAcc></extensions></trkpt>
      <trkpt lon="-2.213732" lat="53.113051"><ele>321.508423</ele><time>2022-03-04T11:55:14Z</time><extensions><speed>0.127525</speed><course>251.134003</course><hAcc>1.757515</hAcc><vAcc>0.822404</vAcc></extensions></trkpt>
      <trkpt lon="-2.213733" lat="53.113051"><ele>321.520386</ele><time>2022-03-04T11:55:15Z</time><extensions><speed>0.135588</speed><course>297.659424</course><hAcc>1.758163</hAcc><vAcc>0.821877</vAcc></extensions></trkpt>
      <trkpt lon="-2.213735" lat="53.113052"><ele>321.508820</ele><time>2022-03-04T11:55:16Z</time><extensions><speed>0.205690</speed><course>329.953613</course><hAcc>1.759729</hAcc><vAcc>0.821306</vAcc></extensions></trkpt>
      <trkpt lon="-2.213736" lat="53.113054"><ele>321.507904</ele><time>2022-03-04T11:55:17Z</time><extensions><speed>0.305755</speed><course>347.027679</course><hAcc>1.761934</hAcc><vAcc>0.820717</vAcc></extensions></trkpt>
      <trkpt lon="-2.213737" lat="53.113057"><ele>321.508514</ele><time>2022-03-04T11:55:18Z</time><extensions><speed>0.442345</speed><course>358.391815</course><hAcc>1.762619</hAcc><vAcc>0.820153</vAcc></extensions></trkpt>
      <trkpt lon="-2.213736" lat="53.113062"><ele>321.532654</ele><time>2022-03-04T11:55:19Z</time><extensions><speed>0.642002</speed><course>6.811618</course><hAcc>1.761056</hAcc><vAcc>0.819605</vAcc></extensions></trkpt>
      <trkpt lon="-2.213734" lat="53.113069"><ele>321.556030</ele><time>2022-03-04T11:55:20Z</time><extensions><speed>0.947114</speed><course>12.390319</course><hAcc>1.755976</hAcc><vAcc>0.819128</vAcc></extensions></trkpt>
      <trkpt lon="-2.213730" lat="53.113079"><ele>321.572418</ele><time>2022-03-04T11:55:21Z</time><extensions><speed>1.421732</speed><course>16.014469</course><hAcc>1.750161</hAcc><vAcc>0.818818</vAcc></extensions></trkpt>
      <trkpt lon="-2.213723" lat="53.113094"><ele>321.599396</ele><time>2022-03-04T11:55:22Z</time><extensions><speed>1.864982</speed><course>17.842627</course><hAcc>1.743096</hAcc><vAcc>0.818645</vAcc></extensions></trkpt>
      <trkpt lon="-2.213714" lat="53.113110"><ele>321.620728</ele><time>2022-03-04T11:55:23Z</time><extensions><speed>1.846176</speed><course>16.307989</course><hAcc>1.731041</hAcc><vAcc>0.818626</vAcc></extensions></trkpt>
      <trkpt lon="-2.213707" lat="53.113124"><ele>321.663361</ele><time>2022-03-04T11:55:24Z</time><extensions><speed>1.619875</speed><course>16.514090</course><hAcc>1.728804</hAcc><vAcc>0.818770</vAcc></extensions></trkpt>
      <trkpt lon="-2.213700" lat="53.113138"><ele>321.708466</ele><time>2022-03-04T11:55:25Z</time><extensions><speed>1.442237</speed><course>18.717194</course><hAcc>1.722402</hAcc><vAcc>0.819074</vAcc></extensions></trkpt>
      <trkpt lon="-2.213693" lat="53.113149"><ele>321.745697</ele><time>2022-03-04T11:55:26Z</time><extensions><speed>1.332302</speed><course>21.020542</course><hAcc>1.712406</hAcc><vAcc>0.819457</vAcc></extensions></trkpt>
      <trkpt lon="-2.213686" lat="53.113160"><ele>321.778473</ele><time>2022-03-04T11:55:27Z</time><extensions><speed>1.313557</speed><course>22.808117</course><hAcc>1.707515</hAcc><vAcc>0.819818</vAcc></extensions></trkpt>
      <trkpt lon="-2.213678" lat="53.113171"><ele>321.783997</ele><time>2022-03-04T11:55:28Z</time><extensions><speed>1.364955</speed><course>24.632898</course><hAcc>1.701419</hAcc><vAcc>0.820249</vAcc></extensions></trkpt>
      <trkpt lon="-2.213670" lat="53.113183"><ele>321.795227</ele><time>2022-03-04T11:55:29Z</time><extensions><speed>1.376119</speed><course>25.122936</course><hAcc>1.691441</hAcc><vAcc>0.820661</vAcc></extensions></trkpt>
      <trkpt lon="-2.213662" lat="53.113194"><ele>321.806519</ele><time>2022-03-04T11:55:30Z</time><extensions><speed>1.375148</speed><course>23.152079</course><hAcc>1.680580</hAcc><vAcc>0.821057</vAcc></extensions></trkpt>
      <trkpt lon="-2.213654" lat="53.113205"><ele>321.813202</ele><time>2022-03-04T11:55:31Z</time><extensions><speed>1.367912</speed><course>18.058699</course><hAcc>1.666274</hAcc><vAcc>0.821427</vAcc></extensions></trkpt>
      <trkpt lon="-2.213649" lat="53.113217"><ele>321.813354</ele><time>2022-03-04T11:55:32Z</time><extensions><speed>1.374273</speed><course>10.990232</course><hAcc>1.646337</hAcc><vAcc>0.821787</vAcc></extensions></trkpt>
      <trkpt lon="-2.213647" lat="53.113229"><ele>321.823700</ele><time>2022-03-04T11:55:33Z</time><extensions><speed>1.361822</speed><course>2.334029</course><hAcc>1.627999</hAcc><vAcc>0.822122</vAcc></extensions></trkpt>
      <trkpt lon="-2.213648" lat="53.113242"><ele>321.836609</ele><time>2022-03-04T11:55:34Z</time><extensions><speed>1.399192</speed><course>353.175507</course><hAcc>1.639155</hAcc><vAcc>0.822443</vAcc></extensions></trkpt>
      <trkpt lon="-2.213652" lat="53.113254"><ele>321.854828</ele><time>2022-03-04T11:55:35Z</time><extensions><speed>1.300291</speed><course>346.344940</course><hAcc>1.679112</hAcc><vAcc>0.822733</vAcc></extensions></trkpt>
      <trkpt lon="-2.213658" lat="53.113264"><ele>321.885986</ele><time>2022-03-04T11:55:36Z</time><extensions><speed>1.226583</speed><course>334.712891</course><hAcc>1.637390</hAcc><vAcc>0.822984</vAcc></extensions></trkpt>
      <trkpt lon="-2.213667" lat="53.113274"><ele>321.906006</ele><time>2022-03-04T11:55:37Z</time><extensions><speed>1.240764</speed><course>327.817444</course><hAcc>1.610194</hAcc><vAcc>0.823194</vAcc></extensions></trkpt>
      <trkpt lon="-2.213678" lat="53.113284"><ele>321.941895</ele><time>2022-03-04T11:55:38Z</time><extensions><speed>1.332632</speed><course>326.094879</course><hAcc>1.620475</hAcc><vAcc>0.823377</vAcc></extensions></trkpt>
      <trkpt lon="-2.213688" lat="53.113293"><ele>321.977020</ele><time>2022-03-04T11:55:39Z</time><extensions><speed>1.286430</speed><course>326.833160</course><hAcc>1.637347</hAcc><vAcc>0.823516</vAcc></extensions></trkpt>
      <trkpt lon="-2.213699" lat="53.113303"><ele>322.023468</ele><time>2022-03-04T11:55:40Z</time><extensions><speed>1.253195</speed><course>328.791321</course><hAcc>1.645347</hAcc><vAcc>0.823626</vAcc></extensions></trkpt>
      <trkpt lon="-2.213708" lat="53.113313"><ele>322.079559</ele><time>2022-03-04T11:55:41Z</time><extensions><speed>1.230758</speed><course>327.844177</course><hAcc>1.648054</hAcc><vAcc>0.823722</vAcc></extensions></trkpt>
      <trkpt lon="-2.213719" lat="53.113322"><ele>322.128235</ele><time>2022-03-04T11:55:42Z</time><extensions><speed>1.208752</speed><course>323.578644</course><hAcc>1.660657</hAcc><vAcc>0.823813</vAcc></extensions></trkpt>
      <trkpt lon="-2.213730" lat="53.113330"><ele>322.182343</ele><time>2022-03-04T11:55:43Z</time><extensions><speed>1.247910</speed><course>317.553864</course><hAcc>1.668523</hAcc><vAcc>0.823897</vAcc></extensions></trkpt>
      <trkpt lon="-2.213743" lat="53.113338"><ele>322.239136</ele><time>2022-03-04T11:55:44Z</time><extensions><speed>1.260728</speed><course>313.497803</course><hAcc>1.660491</hAcc><vAcc>0.823970</vAcc></extensions></trkpt>
      <trkpt lon="-2.213757" lat="53.113345"><ele>322.296753</ele><time>2022-03-04T11:55:45Z</time><extensions><speed>1.188480</speed><course>311.466064</course><hAcc>1.659802</hAcc><vAcc>0.824045</vAcc></extensions></trkpt>
      <trkpt lon="-2.213769" lat="53.113352"><ele>322.353851</ele><time>2022-03-04T11:55:46Z</time><extensions><speed>1.055047</speed><course>311.550537</course><hAcc>1.664286</hAcc><vAcc>0.824120</vAcc></extensions></trkpt>
      <trkpt lon="-2.213781" lat="53.113359"><ele>322.401398</ele><time>2022-03-04T11:55:47Z</time><extensions><speed>1.105342</speed><course>313.337341</course><hAcc>1.671791</hAcc><vAcc>0.824193</vAcc></extensions></trkpt>
      <trkpt lon="-2.213793" lat="53.113366"><ele>322.445129</ele><time>2022-03-04T11:55:48Z</time><extensions><speed>1.130868</speed><course>315.027405</course><hAcc>1.679112</hAcc><vAcc>0.824270</vAcc></extensions></trkpt>
      <trkpt lon="-2.213805" lat="53.113373"><ele>322.484253</ele><time>2022-03-04T11:55:49Z</time><extensions><speed>1.092170</speed><course>312.674377</course><hAcc>1.679237</hAcc><vAcc>0.824353</vAcc></extensions></trkpt>
      <trkpt lon="-2.213817" lat="53.113379"><ele>322.518158</ele><time>2022-03-04T11:55:50Z</time><extensions><speed>0.988091</speed><course>307.249298</course><hAcc>1.678105</hAcc><vAcc>0.824442</vAcc></extensions></trkpt>
      <trkpt lon="-2.213828" lat="53.113383"><ele>322.546356</ele><time>2022-03-04T11:55:51Z</time><extensions><speed>0.703454</speed><course>297.949860</course><hAcc>1.670403</hAcc><vAcc>0.824535</vAcc></extensions></trkpt>
      <trkpt lon="-2.213835" lat="53.113385"><ele>322.568787</ele><time>2022-03-04T11:55:52Z</time><extensions><speed>0.403048</speed><course>284.634735</course><hAcc>1.661882</hAcc><vAcc>0.824629</vAcc></extensions></trkpt>
      <trkpt lon="-2.213839" lat="53.113385"><ele>322.606934</ele><time>2022-03-04T11:55:53Z</time><extensions><speed>0.141857</speed><course>250.714722</course><hAcc>1.655904</hAcc><vAcc>0.824715</vAcc></extensions></trkpt>
      <trkpt lon="-2.213840" lat="53.113384"><ele>322.634583</ele><time>2022-03-04T11:55:54Z</time><extensions><speed>0.100977</speed><course>204.537369</course><hAcc>1.644626</hAcc><vAcc>0.824793</vAcc></extensions></trkpt>
      <trkpt lon="-2.213841" lat="53.113383"><ele>322.645203</ele><time>2022-03-04T11:55:56Z</time><extensions><speed>0.099693</speed><course>192.808182</course><hAcc>1.628657</hAcc><vAcc>0.824877</vAcc></extensions></trkpt>
      <trkpt lon="-2.213841" lat="53.113382"><ele>322.648193</ele><time>2022-03-04T11:55:57Z</time><extensions><speed>0.087578</speed><course>194.957535</course><hAcc>1.628854</hAcc><vAcc>0.824935</vAcc></extensions></trkpt>
      <trkpt lon="-2.213841" lat="53.113381"><ele>322.655884</ele><time>2022-03-04T11:55:58Z</time><extensions><speed>0.070763</speed><course>194.888672</course><hAcc>1.644374</hAcc><vAcc>0.824935</vAcc></extensions></trkpt>
      <trkpt lon="-2.213841" lat="53.113381"><ele>322.650116</ele><time>2022-03-04T11:55:59Z</time><extensions><speed>0.065564</speed><course>180.518158</course><hAcc>1.660030</hAcc><vAcc>0.824937</vAcc></extensions></trkpt>
      <trkpt lon="-2.213841" lat="53.113380"><ele>322.637085</ele><time>2022-03-04T11:56:00Z</time><extensions><speed>0.099708</speed><course>162.880417</course><hAcc>1.656504</hAcc><vAcc>0.824983</vAcc></extensions></trkpt>
      <trkpt lon="-2.213840" lat="53.113379"><ele>322.617401</ele><time>2022-03-04T11:56:01Z</time><extensions><speed>0.191598</speed><course>153.114883</course><hAcc>1.642880</hAcc><vAcc>0.824992</vAcc></extensions></trkpt>
      <trkpt lon="-2.213838" lat="53.113377"><ele>322.599274</ele><time>2022-03-04T11:56:02Z</time><extensions><speed>0.294500</speed><course>148.177170</course><hAcc>1.663239</hAcc><vAcc>0.824924</vAcc></extensions></trkpt>
      <trkpt lon="-2.213835" lat="53.113374"><ele>322.604614</ele><time>2022-03-04T11:56:03Z</time><extensions><speed>0.431909</speed><course>145.331909</course><hAcc>1.693532</hAcc><vAcc>0.824872</vAcc></extensions></trkpt>
      <trkpt lon="-2.213831" lat="53.113370"><ele>322.572968</ele><time>2022-03-04T11:56:04Z</time><extensions><speed>0.619729</speed><course>143.730804</course><hAcc>1.712074</hAcc><vAcc>0.824808</vAcc></extensions></trkpt>
      <trkpt lon="-2.213824" lat="53.113365"><ele>322.553009</ele><time>2022-03-04T11:56:05Z</time><extensions><speed>0.838002</speed><course>142.733398</course><hAcc>1.719111</hAcc><vAcc>0.824750</vAcc></extensions></trkpt>
      <trkpt lon="-2.213815" lat="53.113358"><ele>322.524384</ele><time>2022-03-04T11:56:06Z</time><extensions><speed>1.080648</speed><course>141.677765</course><hAcc>1.719143</hAcc><vAcc>0.824700</vAcc></extensions></trkpt>
      <trkpt lon="-2.213804" lat="53.113349"><ele>322.496155</ele><time>2022-03-04T11:56:07Z</time><extensions><speed>1.396077</speed><course>140.155716</course><hAcc>1.715736</hAcc><vAcc>0.824664</vAcc></extensions></trkpt>
      <trkpt lon="-2.213787" lat="53.113338"><ele>322.446228</ele><time>2022-03-04T11:56:08Z</time><extensions><speed>1.932426</speed><course>138.320770</course><hAcc>1.712573</hAcc><vAcc>0.824671</vAcc></extensions></trkpt>
      <trkpt lon="-2.213768" lat="53.113325"><ele>322.402740</ele><time>2022-03-04T11:56:09Z</time><extensions><speed>1.942627</speed><course>138.255600</course><hAcc>1.711312</hAcc><vAcc>0.824719</vAcc></extensions></trkpt>
      <trkpt lon="-2.213750" lat="53.113312"><ele>322.333221</ele><time>2022-03-04T11:56:10Z</time><extensions><speed>1.913586</speed><course>143.340332</course><hAcc>1.710362</hAcc><vAcc>0.824765</vAcc></extensions></trkpt>
      <trkpt lon="-2.213734" lat="53.113297"><ele>322.264954</ele><time>2022-03-04T11:56:11Z</time><extensions><speed>1.929767</speed><course>148.000305</course><hAcc>1.693039</hAcc><vAcc>0.824848</vAcc></extensions></trkpt>
      <trkpt lon="-2.213720" lat="53.113283"><ele>322.201935</ele><time>2022-03-04T11:56:12Z</time><extensions><speed>1.861088</speed><course>152.576279</course><hAcc>1.674430</hAcc><vAcc>0.824979</vAcc></extensions></trkpt>
      <trkpt lon="-2.213709" lat="53.113268"><ele>322.128998</ele><time>2022-03-04T11:56:13Z</time><extensions><speed>1.765692</speed><course>153.796524</course><hAcc>1.668001</hAcc><vAcc>0.825161</vAcc></extensions></trkpt>
      <trkpt lon="-2.213698" lat="53.113255"><ele>322.065186</ele><time>2022-03-04T11:56:14Z</time><extensions><speed>1.558588</speed><course>154.187073</course><hAcc>1.652673</hAcc><vAcc>0.825395</vAcc></extensions></trkpt>
      <trkpt lon="-2.213688" lat="53.113242"><ele>322.000885</ele><time>2022-03-04T11:56:15Z</time><extensions><speed>1.484169</speed><course>154.251923</course><hAcc>1.631195</hAcc><vAcc>0.825672</vAcc></extensions></trkpt>
      <trkpt lon="-2.213680" lat="53.113230"><ele>321.905609</ele><time>2022-03-04T11:56:16Z</time><extensions><speed>1.413121</speed><course>156.989136</course><hAcc>1.603310</hAcc><vAcc>0.825978</vAcc></extensions></trkpt>
      <trkpt lon="-2.213673" lat="53.113219"><ele>321.818512</ele><time>2022-03-04T11:56:17Z</time><extensions><speed>1.337662</speed><course>160.870087</course><hAcc>1.588099</hAcc><vAcc>0.826315</vAcc></extensions></trkpt>
      <trkpt lon="-2.213667" lat="53.113207"><ele>321.735840</ele><time>2022-03-04T11:56:18Z</time><extensions><speed>1.304156</speed><course>163.424179</course><hAcc>1.595372</hAcc><vAcc>0.826654</vAcc></extensions></trkpt>
      <trkpt lon="-2.213664" lat="53.113197"><ele>321.651855</ele><time>2022-03-04T11:56:19Z</time><extensions><speed>1.206996</speed><course>171.452942</course><hAcc>1.573330</hAcc><vAcc>0.826973</vAcc></extensions></trkpt>
      <trkpt lon="-2.213665" lat="53.113186"><ele>321.564697</ele><time>2022-03-04T11:56:20Z</time><extensions><speed>1.182237</speed><course>191.946854</course><hAcc>1.503897</hAcc><vAcc>0.827273</vAcc></extensions></trkpt>
      <trkpt lon="-2.213671" lat="53.113175"><ele>321.473907</ele><time>2022-03-04T11:56:21Z</time><extensions><speed>1.411692</speed><course>200.623016</course><hAcc>1.450439</hAcc><vAcc>0.827549</vAcc></extensions></trkpt>
      <trkpt lon="-2.213680" lat="53.113163"><ele>321.378113</ele><time>2022-03-04T11:56:22Z</time><extensions><speed>1.559590</speed><course>204.212646</course><hAcc>1.435402</hAcc><vAcc>0.827803</vAcc></extensions></trkpt>
      <trkpt lon="-2.213690" lat="53.113150"><ele>321.287811</ele><time>2022-03-04T11:56:23Z</time><extensions><speed>1.587875</speed><course>206.609024</course><hAcc>1.441921</hAcc><vAcc>0.828035</vAcc></extensions></trkpt>
      <trkpt lon="-2.213701" lat="53.113138"><ele>321.201019</ele><time>2022-03-04T11:56:24Z</time><extensions><speed>1.547513</speed><course>206.537918</course><hAcc>1.427677</hAcc><vAcc>0.828246</vAcc></extensions></trkpt>
      <trkpt lon="-2.213712" lat="53.113125"><ele>321.110352</ele><time>2022-03-04T11:56:25Z</time><extensions><speed>1.580237</speed><course>207.419479</course><hAcc>1.393343</hAcc><vAcc>0.828429</vAcc></extensions></trkpt>
      <trkpt lon="-2.213724" lat="53.113113"><ele>321.023987</ele><time>2022-03-04T11:56:26Z</time><extensions><speed>1.556988</speed><course>210.111145</course><hAcc>1.376205</hAcc><vAcc>0.828575</vAcc></extensions></trkpt>
      <trkpt lon="-2.213736" lat="53.113101"><ele>320.955322</ele><time>2022-03-04T11:56:27Z</time><extensions><speed>1.569913</speed><course>213.405273</course><hAcc>1.368026</hAcc><vAcc>0.828685</vAcc></extensions></trkpt>
      <trkpt lon="-2.213749" lat="53.113090"><ele>320.904785</ele><time>2022-03-04T11:56:28Z</time><extensions><speed>1.548913</speed><course>214.290146</course><hAcc>1.366692</hAcc><vAcc>0.828761</vAcc></extensions></trkpt>
      <trkpt lon="-2.213764" lat="53.113079"><ele>320.860046</ele><time>2022-03-04T11:56:29Z</time><extensions><speed>1.542998</speed><course>220.292953</course><hAcc>1.353823</hAcc><vAcc>0.828799</vAcc></extensions></trkpt>
      <trkpt lon="-2.213779" lat="53.113069"><ele>320.802521</ele><time>2022-03-04T11:56:30Z</time><extensions><speed>1.546172</speed><course>224.133377</course><hAcc>1.366012</hAcc><vAcc>0.828798</vAcc></extensions></trkpt>
      <trkpt lon="-2.213796" lat="53.113059"><ele>320.757751</ele><time>2022-03-04T11:56:31Z</time><extensions><speed>1.533632</speed><course>226.610641</course><hAcc>1.363066</hAcc><vAcc>0.828753</vAcc></extensions></trkpt>
      <trkpt lon="-2.213813" lat="53.113050"><ele>320.734802</ele><time>2022-03-04T11:56:32Z</time><extensions><speed>1.546258</speed><course>231.856781</course><hAcc>1.375217</hAcc><vAcc>0.828675</vAcc></extensions></trkpt>
      <trkpt lon="-2.213832" lat="53.113042"><ele>320.727203</ele><time>2022-03-04T11:56:33Z</time><extensions><speed>1.538239</speed><course>235.139511</course><hAcc>1.383974</hAcc><vAcc>0.828591</vAcc></extensions></trkpt>
      <trkpt lon="-2.213851" lat="53.113035"><ele>320.742889</ele><time>2022-03-04T11:56:34Z</time><extensions><speed>1.508356</speed><course>236.787170</course><hAcc>1.406192</hAcc><vAcc>0.828471</vAcc></extensions></trkpt>
      <trkpt lon="-2.213869" lat="53.113028"><ele>320.734985</ele><time>2022-03-04T11:56:35Z</time><extensions><speed>1.386977</speed><course>240.317642</course><hAcc>1.427435</hAcc><vAcc>0.828367</vAcc></extensions></trkpt>
      <trkpt lon="-2.213888" lat="53.113022"><ele>320.755035</ele><time>2022-03-04T11:56:36Z</time><extensions><speed>1.427577</speed><course>246.547852</course><hAcc>1.437821</hAcc><vAcc>0.828219</vAcc></extensions></trkpt>
      <trkpt lon="-2.213907" lat="53.113018"><ele>320.798035</ele><time>2022-03-04T11:56:37Z</time><extensions><speed>1.353518</speed><course>247.084412</course><hAcc>1.479405</hAcc><vAcc>0.828071</vAcc></extensions></trkpt>
      <trkpt lon="-2.213926" lat="53.113014"><ele>320.853210</ele><time>2022-03-04T11:56:38Z</time><extensions><speed>1.310990</speed><course>255.053497</course><hAcc>1.469110</hAcc><vAcc>0.827920</vAcc></extensions></trkpt>
      <trkpt lon="-2.213945" lat="53.113012"><ele>320.944122</ele><time>2022-03-04T11:56:39Z</time><extensions><speed>1.254668</speed><course>260.903900</course><hAcc>1.508060</hAcc><vAcc>0.827744</vAcc></extensions></trkpt>
      <trkpt lon="-2.213963" lat="53.113010"><ele>321.052887</ele><time>2022-03-04T11:56:40Z</time><extensions><speed>1.224355</speed><course>263.929504</course><hAcc>1.561150</hAcc><vAcc>0.827499</vAcc></extensions></trkpt>
      <trkpt lon="-2.213981" lat="53.113009"><ele>321.199799</ele><time>2022-03-04T11:56:41Z</time><extensions><speed>1.199760</speed><course>268.372009</course><hAcc>1.588005</hAcc><vAcc>0.827259</vAcc></extensions></trkpt>
      <trkpt lon="-2.214000" lat="53.113010"><ele>321.367340</ele><time>2022-03-04T11:56:42Z</time><extensions><speed>1.287892</speed><course>278.063599</course><hAcc>1.569170</hAcc><vAcc>0.826946</vAcc></extensions></trkpt>
      <trkpt lon="-2.214019" lat="53.113012"><ele>321.574493</ele><time>2022-03-04T11:56:43Z</time><extensions><speed>1.362684</speed><course>286.868591</course><hAcc>1.579936</hAcc><vAcc>0.826600</vAcc></extensions></trkpt>
      <trkpt lon="-2.214038" lat="53.113017"><ele>321.780243</ele><time>2022-03-04T11:56:44Z</time><extensions><speed>1.400763</speed><course>296.910339</course><hAcc>1.603460</hAcc><vAcc>0.826249</vAcc></extensions></trkpt>
      <trkpt lon="-2.214055" lat="53.113023"><ele>321.996094</ele><time>2022-03-04T11:56:45Z</time><extensions><speed>1.360510</speed><course>307.429352</course><hAcc>1.605107</hAcc><vAcc>0.825875</vAcc></extensions></trkpt>
      <trkpt lon="-2.214070" lat="53.113032"><ele>322.224792</ele><time>2022-03-04T11:56:46Z</time><extensions><speed>1.303372</speed><course>319.593536</course><hAcc>1.576448</hAcc><vAcc>0.825478</vAcc></extensions></trkpt>
      <trkpt lon="-2.214081" lat="53.113041"><ele>322.483002</ele><time>2022-03-04T11:56:46Z</time><extensions><speed>1.258490</speed><course>326.193420</course><hAcc>1.593301</hAcc><vAcc>0.825041</vAcc></extensions></trkpt>
      <trkpt lon="-2.214092" lat="53.113049"><ele>322.743866</ele><time>2022-03-04T11:56:47Z</time><extensions><speed>1.185723</speed><course>323.550568</course><hAcc>1.645210</hAcc><vAcc>0.824538</vAcc></extensions></trkpt>
      <trkpt lon="-2.214104" lat="53.113057"><ele>323.016083</ele><time>2022-03-04T11:56:48Z</time><extensions><speed>1.132419</speed><course>310.196350</course><hAcc>1.613537</hAcc><vAcc>0.824023</vAcc></extensions></trkpt>
      <trkpt lon="-2.214118" lat="53.113063"><ele>323.284851</ele><time>2022-03-04T11:56:49Z</time><extensions><speed>1.180254</speed><course>298.577606</course><hAcc>1.612862</hAcc><vAcc>0.823500</vAcc></extensions></trkpt>
      <trkpt lon="-2.214133" lat="53.113067"><ele>323.545532</ele><time>2022-03-04T11:56:50Z</time><extensions><speed>1.032144</speed><course>288.430542</course><hAcc>1.653320</hAcc><vAcc>0.823019</vAcc></extensions></trkpt>
      <trkpt lon="-2.214146" lat="53.113068"><ele>323.795349</ele><time>2022-03-04T11:56:51Z</time><extensions><speed>0.744071</speed><course>271.979034</course><hAcc>1.663734</hAcc><vAcc>0.822590</vAcc></extensions></trkpt>
      <trkpt lon="-2.214155" lat="53.113068"><ele>324.057373</ele><time>2022-03-04T11:56:52Z</time><extensions><speed>0.563419</speed><course>253.646408</course><hAcc>1.679919</hAcc><vAcc>0.822223</vAcc></extensions></trkpt>
      <trkpt lon="-2.214164" lat="53.113066"><ele>324.311584</ele><time>2022-03-04T11:56:53Z</time><extensions><speed>0.723184</speed><course>250.496826</course><hAcc>1.693651</hAcc><vAcc>0.821938</vAcc></extensions></trkpt>
      <trkpt lon="-2.214175" lat="53.113063"><ele>324.535706</ele><time>2022-03-04T11:56:54Z</time><extensions><speed>0.818578</speed><course>243.231659</course><hAcc>1.700779</hAcc><vAcc>0.821664</vAcc></extensions></trkpt>
      <trkpt lon="-2.214186" lat="53.113059"><ele>324.733673</ele><time>2022-03-04T11:56:55Z</time><extensions><speed>0.871601</speed><course>235.072922</course><hAcc>1.712247</hAcc><vAcc>0.821285</vAcc></extensions></trkpt>
      <trkpt lon="-2.214196" lat="53.113054"><ele>324.949371</ele><time>2022-03-04T11:56:56Z</time><extensions><speed>0.942162</speed><course>231.388412</course><hAcc>1.722088</hAcc><vAcc>0.820752</vAcc></extensions></trkpt>
      <trkpt lon="-2.214206" lat="53.113050"><ele>325.142517</ele><time>2022-03-04T11:56:57Z</time><extensions><speed>0.761906</speed><course>229.391403</course><hAcc>1.726562</hAcc><vAcc>0.820244</vAcc></extensions></trkpt>
      <trkpt lon="-2.214214" lat="53.113046"><ele>325.321564</ele><time>2022-03-04T11:56:58Z</time><extensions><speed>0.592099</speed><course>236.374466</course><hAcc>1.726913</hAcc><vAcc>0.819661</vAcc></extensions></trkpt>
      <trkpt lon="-2.214222" lat="53.113043"><ele>325.498230</ele><time>2022-03-04T11:56:59Z</time><extensions><speed>0.584513</speed><course>241.550797</course><hAcc>1.724711</hAcc><vAcc>0.819107</vAcc></extensions></trkpt>
      <trkpt lon="-2.214230" lat="53.113041"><ele>325.657959</ele><time>2022-03-04T11:57:00Z</time><extensions><speed>0.577785</speed><course>245.227158</course><hAcc>1.721761</hAcc><vAcc>0.818490</vAcc></extensions></trkpt>
      <trkpt lon="-2.214238" lat="53.113039"><ele>325.779572</ele><time>2022-03-04T11:57:01Z</time><extensions><speed>0.576405</speed><course>248.652145</course><hAcc>1.719054</hAcc><vAcc>0.817885</vAcc></extensions></trkpt>
      <trkpt lon="-2.214246" lat="53.113037"><ele>325.872559</ele><time>2022-03-04T11:57:02Z</time><extensions><speed>0.581924</speed><course>251.458908</course><hAcc>1.719820</hAcc><vAcc>0.817271</vAcc></extensions></trkpt>
      <trkpt lon="-2.214253" lat="53.113035"><ele>325.949951</ele><time>2022-03-04T11:57:03Z</time><extensions><speed>0.456340</speed><course>253.665375</course><hAcc>1.728862</hAcc><vAcc>0.816697</vAcc></extensions></trkpt>
      <trkpt lon="-2.214260" lat="53.113035"><ele>326.003662</ele><time>2022-03-04T11:57:04Z</time><extensions><speed>0.393421</speed><course>264.540863</course><hAcc>1.739441</hAcc><vAcc>0.816203</vAcc></extensions></trkpt>
      <trkpt lon="-2.214268" lat="53.113034"><ele>326.044769</ele><time>2022-03-04T11:57:05Z</time><extensions><speed>0.683082</speed><course>272.339905</course><hAcc>1.712777</hAcc><vAcc>0.815825</vAcc></extensions></trkpt>
      <trkpt lon="-2.214278" lat="53.113034"><ele>326.077576</ele><time>2022-03-04T11:57:06Z</time><extensions><speed>0.751894</speed><course>266.949951</course><hAcc>1.708856</hAcc><vAcc>0.815590</vAcc></extensions></trkpt>
      <trkpt lon="-2.214289" lat="53.113033"><ele>326.078827</ele><time>2022-03-04T11:57:07Z</time><extensions><speed>0.741680</speed><course>252.224976</course><hAcc>1.713037</hAcc><vAcc>0.815561</vAcc></extensions></trkpt>
      <trkpt lon="-2.214299" lat="53.113031"><ele>326.060516</ele><time>2022-03-04T11:57:08Z</time><extensions><speed>0.733419</speed><course>243.149185</course><hAcc>1.707340</hAcc><vAcc>0.815764</vAcc></extensions></trkpt>
      <trkpt lon="-2.214309" lat="53.113028"><ele>326.026489</ele><time>2022-03-04T11:57:09Z</time><extensions><speed>0.703292</speed><course>244.324829</course><hAcc>1.697572</hAcc><vAcc>0.816159</vAcc></extensions></trkpt>
      <trkpt lon="-2.214318" lat="53.113025"><ele>325.973083</ele><time>2022-03-04T11:57:10Z</time><extensions><speed>0.565916</speed><course>242.584518</course><hAcc>1.706147</hAcc><vAcc>0.816709</vAcc></extensions></trkpt>
      <trkpt lon="-2.214323" lat="53.113023"><ele>325.907074</ele><time>2022-03-04T11:57:11Z</time><extensions><speed>0.304496</speed><course>231.084320</course><hAcc>1.733500</hAcc><vAcc>0.817339</vAcc></extensions></trkpt>
      <trkpt lon="-2.214327" lat="53.113021"><ele>325.816711</ele><time>2022-03-04T11:57:12Z</time><extensions><speed>0.336265</speed><course>228.486710</course><hAcc>1.711334</hAcc><vAcc>0.818028</vAcc></extensions></trkpt>
      <trkpt lon="-2.214331" lat="53.113019"><ele>325.727661</ele><time>2022-03-04T11:57:13Z</time><extensions><speed>0.437409</speed><course>239.129288</course><hAcc>1.688402</hAcc><vAcc>0.818683</vAcc></extensions></trkpt>
      <trkpt lon="-2.214337" lat="53.113018"><ele>325.630524</ele><time>2022-03-04T11:57:14Z</time><extensions><speed>0.373166</speed><course>255.017288</course><hAcc>1.704347</hAcc><vAcc>0.819276</vAcc></extensions></trkpt>
      <trkpt lon="-2.214341" lat="53.113017"><ele>325.539459</ele><time>2022-03-04T11:57:15Z</time><extensions><speed>0.243305</speed><course>255.018295</course><hAcc>1.715401</hAcc><vAcc>0.819808</vAcc></extensions></trkpt>
      <trkpt lon="-2.214345" lat="53.113017"><ele>325.448242</ele><time>2022-03-04T11:57:16Z</time><extensions><speed>0.201849</speed><course>271.173279</course><hAcc>1.716012</hAcc><vAcc>0.820267</vAcc></extensions></trkpt>
      <trkpt lon="-2.214347" lat="53.113017"><ele>325.358826</ele><time>2022-03-04T11:57:17Z</time><extensions><speed>0.076788</speed><course>276.222656</course><hAcc>1.729932</hAcc><vAcc>0.820664</vAcc></extensions></trkpt>
      <trkpt lon="-2.214347" lat="53.113017"><ele>325.251984</ele><time>2022-03-04T11:57:18Z</time><extensions><speed>0.063791</speed><course>341.764313</course><hAcc>1.729919</hAcc><vAcc>0.820980</vAcc></extensions></trkpt>
      <trkpt lon="-2.214347" lat="53.113018"><ele>325.168640</ele><time>2022-03-04T11:57:19Z</time><extensions><speed>0.178254</speed><course>1.181946</course><hAcc>1.722107</hAcc><vAcc>0.821253</vAcc></extensions></trkpt>
      <trkpt lon="-2.214347" lat="53.113021"><ele>325.097717</ele><time>2022-03-04T11:57:20Z</time><extensions><speed>0.400697</speed><course>1.582827</course><hAcc>1.712633</hAcc><vAcc>0.821493</vAcc></extensions></trkpt>
      <trkpt lon="-2.214347" lat="53.113026"><ele>325.034424</ele><time>2022-03-04T11:57:21Z</time><extensions><speed>0.795997</speed><course>1.018599</course><hAcc>1.704098</hAcc><vAcc>0.821725</vAcc></extensions></trkpt>
      <trkpt lon="-2.214347" lat="53.113034"><ele>324.971710</ele><time>2022-03-04T11:57:22Z</time><extensions><speed>0.840832</speed><course>1.900588</course><hAcc>1.705897</hAcc><vAcc>0.821963</vAcc></extensions></trkpt>
      <trkpt lon="-2.214347" lat="53.113041"><ele>324.918213</ele><time>2022-03-04T11:57:23Z</time><extensions><speed>0.810357</speed><course>359.698761</course><hAcc>1.702084</hAcc><vAcc>0.822201</vAcc></extensions></trkpt>
      <trkpt lon="-2.214346" lat="53.113048"><ele>324.877838</ele><time>2022-03-04T11:57:24Z</time><extensions><speed>0.765806</speed><course>1.245411</course><hAcc>1.694167</hAcc><vAcc>0.822487</vAcc></extensions></trkpt>
      <trkpt lon="-2.214346" lat="53.113055"><ele>324.839874</ele><time>2022-03-04T11:57:25Z</time><extensions><speed>0.698455</speed><course>7.087672</course><hAcc>1.689743</hAcc><vAcc>0.822780</vAcc></extensions></trkpt>
      <trkpt lon="-2.214344" lat="53.113061"><ele>324.828827</ele><time>2022-03-04T11:57:26Z</time><extensions><speed>0.642746</speed><course>11.445526</course><hAcc>1.684682</hAcc><vAcc>0.823080</vAcc></extensions></trkpt>
      <trkpt lon="-2.214343" lat="53.113066"><ele>324.834808</ele><time>2022-03-04T11:57:27Z</time><extensions><speed>0.567107</speed><course>7.675542</course><hAcc>1.682679</hAcc><vAcc>0.823375</vAcc></extensions></trkpt>
      <trkpt lon="-2.214342" lat="53.113070"><ele>324.855621</ele><time>2022-03-04T11:57:28Z</time><extensions><speed>0.414042</speed><course>8.507491</course><hAcc>1.686722</hAcc><vAcc>0.823650</vAcc></extensions></trkpt>
      <trkpt lon="-2.214341" lat="53.113073"><ele>324.890961</ele><time>2022-03-04T11:57:29Z</time><extensions><speed>0.159106</speed><course>26.439627</course><hAcc>1.705353</hAcc><vAcc>0.823892</vAcc></extensions></trkpt>
      <trkpt lon="-2.214339" lat="53.113074"><ele>324.935974</ele><time>2022-03-04T11:57:30Z</time><extensions><speed>0.115766</speed><course>42.949715</course><hAcc>1.691335</hAcc><vAcc>0.824099</vAcc></extensions></trkpt>
      <trkpt lon="-2.214338" lat="53.113074"><ele>324.991272</ele><time>2022-03-04T11:57:31Z</time><extensions><speed>0.084508</speed><course>41.730587</course><hAcc>1.697080</hAcc><vAcc>0.824276</vAcc></extensions></trkpt>
      <trkpt lon="-2.214338" lat="53.113075"><ele>325.055664</ele><time>2022-03-04T11:57:32Z</time><extensions><speed>0.057843</speed><course>27.949533</course><hAcc>1.711750</hAcc><vAcc>0.824429</vAcc></extensions></trkpt>
      <trkpt lon="-2.214338" lat="53.113075"><ele>325.132904</ele><time>2022-03-04T11:57:33Z</time><extensions><speed>0.050761</speed><course>6.173362</course><hAcc>1.719273</hAcc><vAcc>0.824573</vAcc></extensions></trkpt>
      <trkpt lon="-2.214338" lat="53.113076"><ele>325.216858</ele><time>2022-03-04T11:57:34Z</time><extensions><speed>0.078408</speed><course>352.894562</course><hAcc>1.724577</hAcc><vAcc>0.824699</vAcc></extensions></trkpt>
      <trkpt lon="-2.214338" lat="53.113076"><ele>325.307220</ele><time>2022-03-04T11:57:35Z</time><extensions><speed>0.062487</speed><course>194.774124</course><hAcc>1.730630</hAcc><vAcc>0.824803</vAcc></extensions></trkpt>
      <trkpt lon="-2.214338" lat="53.113075"><ele>325.393036</ele><time>2022-03-04T11:57:36Z</time><extensions><speed>0.131028</speed><course>185.601761</course><hAcc>1.732115</hAcc><vAcc>0.824899</vAcc></extensions></trkpt>
      <trkpt lon="-2.214338" lat="53.113074"><ele>325.474091</ele><time>2022-03-04T11:57:37Z</time><extensions><speed>0.157520</speed><course>182.718597</course><hAcc>1.731712</hAcc><vAcc>0.824975</vAcc></extensions></trkpt>
      <trkpt lon="-2.214338" lat="53.113073"><ele>325.567596</ele><time>2022-03-04T11:57:38Z</time><extensions><speed>0.156334</speed><course>180.819321</course><hAcc>1.726530</hAcc><vAcc>0.825029</vAcc></extensions></trkpt>
      <trkpt lon="-2.214338" lat="53.113071"><ele>325.654816</ele><time>2022-03-04T11:57:39Z</time><extensions><speed>0.128676</speed><course>179.896576</course><hAcc>1.717244</hAcc><vAcc>0.825099</vAcc></extensions></trkpt>
      <trkpt lon="-2.214338" lat="53.113070"><ele>325.734558</ele><time>2022-03-04T11:57:40Z</time><extensions><speed>0.091110</speed><course>180.870087</course><hAcc>1.702492</hAcc><vAcc>0.825179</vAcc></extensions></trkpt>
      <trkpt lon="-2.214338" lat="53.113070"><ele>325.829926</ele><time>2022-03-04T11:57:41Z</time><extensions><speed>0.047404</speed><course>184.716812</course><hAcc>1.689195</hAcc><vAcc>0.825246</vAcc></extensions></trkpt>
      <trkpt lon="-2.214338" lat="53.113070"><ele>325.941620</ele><time>2022-03-04T11:57:42Z</time><extensions><speed>0.008463</speed><course>220.887375</course><hAcc>1.688470</hAcc><vAcc>0.825293</vAcc></extensions></trkpt>
      <trkpt lon="-2.214338" lat="53.113070"><ele>326.037781</ele><time>2022-03-04T11:57:43Z</time><extensions><speed>0.034954</speed><course>347.087982</course><hAcc>1.713895</hAcc><vAcc>0.825319</vAcc></extensions></trkpt>
      <trkpt lon="-2.214339" lat="53.113070"><ele>326.130371</ele><time>2022-03-04T11:57:44Z</time><extensions><speed>0.079208</speed><course>352.494751</course><hAcc>1.739117</hAcc><vAcc>0.825332</vAcc></extensions></trkpt>
      <trkpt lon="-2.214339" lat="53.113072"><ele>326.237335</ele><time>2022-03-04T11:57:45Z</time><extensions><speed>0.215834</speed><course>355.072815</course><hAcc>1.700248</hAcc><vAcc>0.825323</vAcc></extensions></trkpt>
      <trkpt lon="-2.214339" lat="53.113074"><ele>326.345398</ele><time>2022-03-04T11:57:46Z</time><extensions><speed>0.383359</speed><course>356.766235</course><hAcc>1.681004</hAcc><vAcc>0.825295</vAcc></extensions></trkpt>
      <trkpt lon="-2.214339" lat="53.113078"><ele>326.460541</ele><time>2022-03-04T11:57:47Z</time><extensions><speed>0.389617</speed><course>357.844696</course><hAcc>1.703460</hAcc><vAcc>0.825267</vAcc></extensions></trkpt>
      <trkpt lon="-2.214340" lat="53.113082"><ele>326.582458</ele><time>2022-03-04T11:57:48Z</time><extensions><speed>0.491263</speed><course>357.486908</course><hAcc>1.711977</hAcc><vAcc>0.825251</vAcc></extensions></trkpt>
      <trkpt lon="-2.214340" lat="53.113086"><ele>326.717468</ele><time>2022-03-04T11:57:49Z</time><extensions><speed>0.428691</speed><course>1.808272</course><hAcc>1.725806</hAcc><vAcc>0.825253</vAcc></extensions></trkpt>
      <trkpt lon="-2.214339" lat="53.113090"><ele>326.832367</ele><time>2022-03-04T11:57:50Z</time><extensions><speed>0.538469</speed><course>4.431697</course><hAcc>1.719543</hAcc><vAcc>0.825279</vAcc></extensions></trkpt>
      <trkpt lon="-2.214339" lat="53.113094"><ele>326.941589</ele><time>2022-03-04T11:57:51Z</time><extensions><speed>0.391528</speed><course>4.387753</course><hAcc>1.706533</hAcc><vAcc>0.825337</vAcc></extensions></trkpt>
      <trkpt lon="-2.214338" lat="53.113098"><ele>327.040833</ele><time>2022-03-04T11:57:52Z</time><extensions><speed>0.412401</speed><course>2.576542</course><hAcc>1.706858</hAcc><vAcc>0.825401</vAcc></extensions></trkpt>
      <trkpt lon="-2.214338" lat="53.113101"><ele>327.126862</ele><time>2022-03-04T11:57:53Z</time><extensions><speed>0.196135</speed><course>3.414560</course><hAcc>1.728364</hAcc><vAcc>0.825484</vAcc></extensions></trkpt>
      <trkpt lon="-2.214338" lat="53.113102"><ele>327.202454</ele><time>2022-03-04T11:57:54Z</time><extensions><speed>0.189499</speed><course>2.478144</course><hAcc>1.713475</hAcc><vAcc>0.825584</vAcc></extensions></trkpt>
      <trkpt lon="-2.214338" lat="53.113104"><ele>327.266174</ele><time>2022-03-04T11:57:55Z</time><extensions><speed>0.267424</speed><course>359.919464</course><hAcc>1.700928</hAcc><vAcc>0.825714</vAcc></extensions></trkpt>
      <trkpt lon="-2.214338" lat="53.113106"><ele>327.318756</ele><time>2022-03-04T11:57:56Z</time><extensions><speed>0.156625</speed><course>5.822961</course><hAcc>1.716519</hAcc><vAcc>0.825862</vAcc></extensions></trkpt>
      <trkpt lon="-2.214338" lat="53.113108"><ele>327.359863</ele><time>2022-03-04T11:57:57Z</time><extensions><speed>0.125528</speed><course>10.777862</course><hAcc>1.731064</hAcc><vAcc>0.826037</vAcc></extensions></trkpt>
      <trkpt lon="-2.214337" lat="53.113109"><ele>327.388885</ele><time>2022-03-04T11:57:58Z</time><extensions><speed>0.146576</speed><course>12.140150</course><hAcc>1.732765</hAcc><vAcc>0.826236</vAcc></extensions></trkpt>
      <trkpt lon="-2.214337" lat="53.113110"><ele>327.396301</ele><time>2022-03-04T11:57:59Z</time><extensions><speed>0.222222</speed><course>12.134092</course><hAcc>1.725611</hAcc><vAcc>0.826441</vAcc></extensions></trkpt>
      <trkpt lon="-2.214336" lat="53.113112"><ele>327.389954</ele><time>2022-03-04T11:58:00Z</time><extensions><speed>0.193393</speed><course>21.098812</course><hAcc>1.737797</hAcc><vAcc>0.826653</vAcc></extensions></trkpt>
      <trkpt lon="-2.214335" lat="53.113113"><ele>327.375061</ele><time>2022-03-04T11:58:02Z</time><extensions><speed>0.060149</speed><course>28.484865</course><hAcc>1.742425</hAcc><vAcc>0.826843</vAcc></extensions></trkpt>
      <trkpt lon="-2.214335" lat="53.113113"><ele>327.345886</ele><time>2022-03-04T11:58:03Z</time><extensions><speed>0.013252</speed><course>96.946533</course><hAcc>1.737966</hAcc><vAcc>0.826979</vAcc></extensions></trkpt>
      <trkpt lon="-2.214334" lat="53.113113"><ele>327.302612</ele><time>2022-03-04T11:58:04Z</time><extensions><speed>0.019951</speed><course>154.949142</course><hAcc>1.728876</hAcc><vAcc>0.827052</vAcc></extensions></trkpt>
      <trkpt lon="-2.214334" lat="53.113113"><ele>327.252136</ele><time>2022-03-04T11:58:05Z</time><extensions><speed>0.019510</speed><course>168.971313</course><hAcc>1.719381</hAcc><vAcc>0.827099</vAcc></extensions></trkpt>
      <trkpt lon="-2.214334" lat="53.113113"><ele>327.196259</ele><time>2022-03-04T11:58:06Z</time><extensions><speed>0.021828</speed><course>190.950012</course><hAcc>1.709693</hAcc><vAcc>0.827113</vAcc></extensions></trkpt>
      <trkpt lon="-2.214334" lat="53.113113"><ele>327.142242</ele><time>2022-03-04T11:58:07Z</time><extensions><speed>0.030983</speed><course>203.222855</course><hAcc>1.713799</hAcc><vAcc>0.827092</vAcc></extensions></trkpt>
      <trkpt lon="-2.214335" lat="53.113113"><ele>327.086700</ele><time>2022-03-04T11:58:08Z</time><extensions><speed>0.036258</speed><course>205.761841</course><hAcc>1.729491</hAcc><vAcc>0.827027</vAcc></extensions></trkpt>
      <trkpt lon="-2.214335" lat="53.113112"><ele>327.034668</ele><time>2022-03-04T11:58:09Z</time><extensions><speed>0.043242</speed><course>204.786713</course><hAcc>1.719453</hAcc><vAcc>0.826901</vAcc></extensions></trkpt>
      <trkpt lon="-2.214335" lat="53.113112"><ele>326.983917</ele><time>2022-03-04T11:58:10Z</time><extensions><speed>0.038295</speed><course>199.909988</course><hAcc>1.709911</hAcc><vAcc>0.826751</vAcc></extensions></trkpt>
      <trkpt lon="-2.214335" lat="53.113112"><ele>326.935699</ele><time>2022-03-04T11:58:11Z</time><extensions><speed>0.017551</speed><course>187.804703</course><hAcc>1.713390</hAcc><vAcc>0.826584</vAcc></extensions></trkpt>
      <trkpt lon="-2.214335" lat="53.113112"><ele>326.882446</ele><time>2022-03-04T11:58:12Z</time><extensions><speed>0.010619</speed><course>66.761452</course><hAcc>1.722145</hAcc><vAcc>0.826382</vAcc></extensions></trkpt>
      <trkpt lon="-2.214335" lat="53.113112"><ele>326.827820</ele><time>2022-03-04T11:58:13Z</time><extensions><speed>0.028643</speed><course>48.619331</course><hAcc>1.730798</hAcc><vAcc>0.826139</vAcc></extensions></trkpt>
      <trkpt lon="-2.214335" lat="53.113112"><ele>326.780273</ele><time>2022-03-04T11:58:14Z</time><extensions><speed>0.033841</speed><course>55.724960</course><hAcc>1.734805</hAcc><vAcc>0.825806</vAcc></extensions></trkpt>
      <trkpt lon="-2.214334" lat="53.113112"><ele>326.724945</ele><time>2022-03-04T11:58:15Z</time><extensions><speed>0.029533</speed><course>80.566238</course><hAcc>1.738223</hAcc><vAcc>0.825522</vAcc></extensions></trkpt>
      <trkpt lon="-2.214334" lat="53.113112"><ele>326.668701</ele><time>2022-03-04T11:58:16Z</time><extensions><speed>0.034109</speed><course>111.584991</course><hAcc>1.739659</hAcc><vAcc>0.825263</vAcc></extensions></trkpt>
      <trkpt lon="-2.214333" lat="53.113112"><ele>326.593964</ele><time>2022-03-04T11:58:17Z</time><extensions><speed>0.045890</speed><course>119.306969</course><hAcc>1.740084</hAcc><vAcc>0.825034</vAcc></extensions></trkpt>
      <trkpt lon="-2.214332" lat="53.113111"><ele>326.539520</ele><time>2022-03-04T11:58:18Z</time><extensions><speed>0.061693</speed><course>113.815865</course><hAcc>1.742092</hAcc><vAcc>0.824825</vAcc></extensions></trkpt>
      <trkpt lon="-2.214331" lat="53.113111"><ele>326.476074</ele><time>2022-03-04T11:58:19Z</time><extensions><speed>0.088342</speed><course>111.818718</course><hAcc>1.742817</hAcc><vAcc>0.824633</vAcc></extensions></trkpt>
      <trkpt lon="-2.214330" lat="53.113111"><ele>326.396759</ele><time>2022-03-04T11:58:20Z</time><extensions><speed>0.113660</speed><course>109.886688</course><hAcc>1.742630</hAcc><vAcc>0.824485</vAcc></extensions></trkpt>
      <trkpt lon="-2.214328" lat="53.113110"><ele>326.309570</ele><time>2022-03-04T11:58:21Z</time><extensions><speed>0.130313</speed><course>106.892273</course><hAcc>1.741466</hAcc><vAcc>0.824386</vAcc></extensions></trkpt>
      <trkpt lon="-2.214326" lat="53.113110"><ele>326.214355</ele><time>2022-03-04T11:58:22Z</time><extensions><speed>0.144197</speed><course>107.875580</course><hAcc>1.740163</hAcc><vAcc>0.824329</vAcc></extensions></trkpt>
      <trkpt lon="-2.214324" lat="53.113110"><ele>326.131439</ele><time>2022-03-04T11:58:23Z</time><extensions><speed>0.152421</speed><course>118.008301</course><hAcc>1.738070</hAcc><vAcc>0.824320</vAcc></extensions></trkpt>
      <trkpt lon="-2.214323" lat="53.113109"><ele>326.040070</ele><time>2022-03-04T11:58:24Z</time><extensions><speed>0.168177</speed><course>138.563751</course><hAcc>1.735899</hAcc><vAcc>0.824371</vAcc></extensions></trkpt>
      <trkpt lon="-2.214321" lat="53.113107"><ele>325.933838</ele><time>2022-03-04T11:58:25Z</time><extensions><speed>0.211295</speed><course>158.538849</course><hAcc>1.735444</hAcc><vAcc>0.824486</vAcc></extensions></trkpt>
      <trkpt lon="-2.214320" lat="53.113105"><ele>325.839813</ele><time>2022-03-04T11:58:26Z</time><extensions><speed>0.308729</speed><course>167.559402</course><hAcc>1.719384</hAcc><vAcc>0.824635</vAcc></extensions></trkpt>
      <trkpt lon="-2.214319" lat="53.113102"><ele>325.734589</ele><time>2022-03-04T11:58:27Z</time><extensions><speed>0.463105</speed><course>167.101639</course><hAcc>1.698101</hAcc><vAcc>0.824812</vAcc></extensions></trkpt>
      <trkpt lon="-2.214318" lat="53.113097"><ele>325.620728</ele><time>2022-03-04T11:58:28Z</time><extensions><speed>0.599591</speed><course>176.584518</course><hAcc>1.694644</hAcc><vAcc>0.825035</vAcc></extensions></trkpt>
      <trkpt lon="-2.214318" lat="53.113091"><ele>325.515259</ele><time>2022-03-04T11:58:29Z</time><extensions><speed>0.705308</speed><course>180.763275</course><hAcc>1.692661</hAcc><vAcc>0.825254</vAcc></extensions></trkpt>
      <trkpt lon="-2.214319" lat="53.113085"><ele>325.421844</ele><time>2022-03-04T11:58:30Z</time><extensions><speed>0.746469</speed><course>188.627289</course><hAcc>1.688427</hAcc><vAcc>0.825481</vAcc></extensions></trkpt>
      <trkpt lon="-2.214321" lat="53.113078"><ele>325.319000</ele><time>2022-03-04T11:58:31Z</time><extensions><speed>0.849698</speed><course>194.050186</course><hAcc>1.679341</hAcc><vAcc>0.825694</vAcc></extensions></trkpt>
      <trkpt lon="-2.214325" lat="53.113070"><ele>325.202301</ele><time>2022-03-04T11:58:32Z</time><extensions><speed>0.907111</speed><course>197.434235</course><hAcc>1.670636</hAcc><vAcc>0.825892</vAcc></extensions></trkpt>
      <trkpt lon="-2.214330" lat="53.113062"><ele>325.086853</ele><time>2022-03-04T11:58:33Z</time><extensions><speed>0.914077</speed><course>199.570038</course><hAcc>1.665594</hAcc><vAcc>0.826069</vAcc></extensions></trkpt>
      <trkpt lon="-2.214334" lat="53.113055"><ele>324.973999</ele><time>2022-03-04T11:58:34Z</time><extensions><speed>0.810553</speed><course>200.407715</course><hAcc>1.670296</hAcc><vAcc>0.826211</vAcc></extensions></trkpt>
      <trkpt lon="-2.214338" lat="53.113049"><ele>324.865997</ele><time>2022-03-04T11:58:35Z</time><extensions><speed>0.709876</speed><course>203.868164</course><hAcc>1.673083</hAcc><vAcc>0.826336</vAcc></extensions></trkpt>
      <trkpt lon="-2.214342" lat="53.113043"><ele>324.767853</ele><time>2022-03-04T11:58:36Z</time><extensions><speed>0.646437</speed><course>204.557022</course><hAcc>1.668608</hAcc><vAcc>0.826450</vAcc></extensions></trkpt>
      <trkpt lon="-2.214346" lat="53.113039"><ele>324.659760</ele><time>2022-03-04T11:58:37Z</time><extensions><speed>0.457737</speed><course>199.992615</course><hAcc>1.668564</hAcc><vAcc>0.826544</vAcc></extensions></trkpt>
      <trkpt lon="-2.214347" lat="53.113035"><ele>324.562531</ele><time>2022-03-04T11:58:38Z</time><extensions><speed>0.359996</speed><course>183.276413</course><hAcc>1.677324</hAcc><vAcc>0.826621</vAcc></extensions></trkpt>
      <trkpt lon="-2.214347" lat="53.113031"><ele>324.486328</ele><time>2022-03-04T11:58:39Z</time><extensions><speed>0.518667</speed><course>175.059479</course><hAcc>1.669188</hAcc><vAcc>0.826687</vAcc></extensions></trkpt>
      <trkpt lon="-2.214347" lat="53.113026"><ele>324.406555</ele><time>2022-03-04T11:58:40Z</time><extensions><speed>0.673371</speed><course>183.614914</course><hAcc>1.666379</hAcc><vAcc>0.826745</vAcc></extensions></trkpt>
      <trkpt lon="-2.214349" lat="53.113019"><ele>324.346344</ele><time>2022-03-04T11:58:41Z</time><extensions><speed>0.775254</speed><course>190.591415</course><hAcc>1.666330</hAcc><vAcc>0.826785</vAcc></extensions></trkpt>
      <trkpt lon="-2.214351" lat="53.113012"><ele>324.286102</ele><time>2022-03-04T11:58:42Z</time><extensions><speed>0.819206</speed><course>192.464935</course><hAcc>1.664119</hAcc><vAcc>0.826812</vAcc></extensions></trkpt>
      <trkpt lon="-2.214354" lat="53.113004"><ele>324.224091</ele><time>2022-03-04T11:58:43Z</time><extensions><speed>0.911539</speed><course>192.093903</course><hAcc>1.659629</hAcc><vAcc>0.826824</vAcc></extensions></trkpt>
      <trkpt lon="-2.214357" lat="53.112996"><ele>324.175354</ele><time>2022-03-04T11:58:44Z</time><extensions><speed>0.942257</speed><course>192.175323</course><hAcc>1.653756</hAcc><vAcc>0.826832</vAcc></extensions></trkpt>
      <trkpt lon="-2.214360" lat="53.112988"><ele>324.136780</ele><time>2022-03-04T11:58:45Z</time><extensions><speed>0.952838</speed><course>190.490341</course><hAcc>1.653226</hAcc><vAcc>0.826822</vAcc></extensions></trkpt>
      <trkpt lon="-2.214361" lat="53.112979"><ele>324.082397</ele><time>2022-03-04T11:58:46Z</time><extensions><speed>0.909949</speed><course>183.445602</course><hAcc>1.660748</hAcc><vAcc>0.826799</vAcc></extensions></trkpt>
      <trkpt lon="-2.214363" lat="53.112971"><ele>324.035187</ele><time>2022-03-04T11:58:47Z</time><extensions><speed>1.040936</speed><course>189.530121</course><hAcc>1.659431</hAcc><vAcc>0.826784</vAcc></extensions></trkpt>
      <trkpt lon="-2.214368" lat="53.112961"><ele>323.987152</ele><time>2022-03-04T11:58:48Z</time><extensions><speed>1.248426</speed><course>199.883163</course><hAcc>1.662135</hAcc><vAcc>0.826769</vAcc></extensions></trkpt>
      <trkpt lon="-2.214376" lat="53.112950"><ele>323.946716</ele><time>2022-03-04T11:58:49Z</time><extensions><speed>1.364424</speed><course>206.628830</course><hAcc>1.662540</hAcc><vAcc>0.826747</vAcc></extensions></trkpt>
      <trkpt lon="-2.214385" lat="53.112939"><ele>323.885925</ele><time>2022-03-04T11:58:50Z</time><extensions><speed>1.378175</speed><course>209.925827</course><hAcc>1.667162</hAcc><vAcc>0.826719</vAcc></extensions></trkpt>
      <trkpt lon="-2.214395" lat="53.112929"><ele>323.819855</ele><time>2022-03-04T11:58:51Z</time><extensions><speed>1.223186</speed><course>211.138870</course><hAcc>1.670455</hAcc><vAcc>0.826699</vAcc></extensions></trkpt>
      <trkpt lon="-2.214404" lat="53.112920"><ele>323.741791</ele><time>2022-03-04T11:58:52Z</time><extensions><speed>1.134759</speed><course>209.865204</course><hAcc>1.676938</hAcc><vAcc>0.826686</vAcc></extensions></trkpt>
      <trkpt lon="-2.214412" lat="53.112911"><ele>323.653992</ele><time>2022-03-04T11:58:53Z</time><extensions><speed>1.153797</speed><course>207.584274</course><hAcc>1.685255</hAcc><vAcc>0.826680</vAcc></extensions></trkpt>
      <trkpt lon="-2.214421" lat="53.112902"><ele>323.573608</ele><time>2022-03-04T11:58:54Z</time><extensions><speed>1.147639</speed><course>210.392090</course><hAcc>1.691803</hAcc><vAcc>0.826678</vAcc></extensions></trkpt>
      <trkpt lon="-2.214430" lat="53.112894"><ele>323.444458</ele><time>2022-03-04T11:58:55Z</time><extensions><speed>1.067854</speed><course>222.795700</course><hAcc>1.695673</hAcc><vAcc>0.826669</vAcc></extensions></trkpt>
      <trkpt lon="-2.214442" lat="53.112888"><ele>323.271118</ele><time>2022-03-04T11:58:56Z</time><extensions><speed>1.068126</speed><course>235.676285</course><hAcc>1.691144</hAcc><vAcc>0.826616</vAcc></extensions></trkpt>
      <trkpt lon="-2.214456" lat="53.112883"><ele>323.061859</ele><time>2022-03-04T11:58:56Z</time><extensions><speed>1.148011</speed><course>240.032959</course><hAcc>1.673238</hAcc><vAcc>0.826528</vAcc></extensions></trkpt>
      <trkpt lon="-2.214470" lat="53.112878"><ele>322.845337</ele><time>2022-03-04T11:58:57Z</time><extensions><speed>1.175595</speed><course>239.804626</course><hAcc>1.644740</hAcc><vAcc>0.826463</vAcc></extensions></trkpt>
      <trkpt lon="-2.214485" lat="53.112872"><ele>322.666046</ele><time>2022-03-04T11:58:58Z</time><extensions><speed>1.242329</speed><course>237.902328</course><hAcc>1.601953</hAcc><vAcc>0.826406</vAcc></extensions></trkpt>
      <trkpt lon="-2.214501" lat="53.112866"><ele>322.484314</ele><time>2022-03-04T11:58:59Z</time><extensions><speed>1.311768</speed><course>236.004318</course><hAcc>1.557846</hAcc><vAcc>0.826327</vAcc></extensions></trkpt>
      <trkpt lon="-2.214517" lat="53.112860"><ele>322.315216</ele><time>2022-03-04T11:59:00Z</time><extensions><speed>1.397089</speed><course>234.048141</course><hAcc>1.546020</hAcc><vAcc>0.826252</vAcc></extensions></trkpt>
      <trkpt lon="-2.214534" lat="53.112852"><ele>322.131836</ele><time>2022-03-04T11:59:01Z</time><extensions><speed>1.429066</speed><course>232.937500</course><hAcc>1.556123</hAcc><vAcc>0.826163</vAcc></extensions></trkpt>
      <trkpt lon="-2.214551" lat="53.112845"><ele>321.970490</ele><time>2022-03-04T11:59:02Z</time><extensions><speed>1.352668</speed><course>233.299515</course><hAcc>1.539788</hAcc><vAcc>0.826021</vAcc></extensions></trkpt>
      <trkpt lon="-2.214567" lat="53.112838"><ele>321.818207</ele><time>2022-03-04T11:59:03Z</time><extensions><speed>1.265267</speed><course>239.597397</course><hAcc>1.532286</hAcc><vAcc>0.825849</vAcc></extensions></trkpt>
      <trkpt lon="-2.214581" lat="53.112835"><ele>321.685394</ele><time>2022-03-04T11:59:04Z</time><extensions><speed>0.832703</speed><course>254.903824</course><hAcc>1.518045</hAcc><vAcc>0.825686</vAcc></extensions></trkpt>
      <trkpt lon="-2.214587" lat="53.112833"><ele>321.569427</ele><time>2022-03-04T11:59:05Z</time><extensions><speed>0.128513</speed><course>125.776657</course><hAcc>1.504189</hAcc><vAcc>0.825515</vAcc></extensions></trkpt>
      <trkpt lon="-2.214581" lat="53.112832"><ele>321.463959</ele><time>2022-03-04T11:59:06Z</time><extensions><speed>0.702490</speed><course>112.764900</course><hAcc>1.543080</hAcc><vAcc>0.825350</vAcc></extensions></trkpt>
      <trkpt lon="-2.214570" lat="53.112830"><ele>321.409698</ele><time>2022-03-04T11:59:07Z</time><extensions><speed>0.807129</speed><course>102.478767</course><hAcc>1.565615</hAcc><vAcc>0.825218</vAcc></extensions></trkpt>
      <trkpt lon="-2.214560" lat="53.112829"><ele>321.391296</ele><time>2022-03-04T11:59:08Z</time><extensions><speed>0.515221</speed><course>85.352379</course><hAcc>1.588669</hAcc><vAcc>0.825105</vAcc></extensions></trkpt>
      <trkpt lon="-2.214555" lat="53.112830"><ele>321.392212</ele><time>2022-03-04T11:59:09Z</time><extensions><speed>0.240078</speed><course>45.701359</course><hAcc>1.630557</hAcc><vAcc>0.825019</vAcc></extensions></trkpt>
      <trkpt lon="-2.214554" lat="53.112832"><ele>321.386963</ele><time>2022-03-04T11:59:10Z</time><extensions><speed>0.251419</speed><course>15.422186</course><hAcc>1.637493</hAcc><vAcc>0.824936</vAcc></extensions></trkpt>
      <trkpt lon="-2.214553" lat="53.112834"><ele>321.413208</ele><time>2022-03-04T11:59:11Z</time><extensions><speed>0.239224</speed><course>5.310578</course><hAcc>1.655959</hAcc><vAcc>0.824884</vAcc></extensions></trkpt>
      <trkpt lon="-2.214553" lat="53.112836"><ele>321.440918</ele><time>2022-03-04T11:59:12Z</time><extensions><speed>0.190378</speed><course>0.202556</course><hAcc>1.685164</hAcc><vAcc>0.824843</vAcc></extensions></trkpt>
      <trkpt lon="-2.214553" lat="53.112837"><ele>321.482758</ele><time>2022-03-04T11:59:13Z</time><extensions><speed>0.112527</speed><course>352.153320</course><hAcc>1.709844</hAcc><vAcc>0.824790</vAcc></extensions></trkpt>
      <trkpt lon="-2.214553" lat="53.112838"><ele>321.553925</ele><time>2022-03-04T11:59:14Z</time><extensions><speed>0.042368</speed><course>282.839508</course><hAcc>1.712253</hAcc><vAcc>0.824634</vAcc></extensions></trkpt>
      <trkpt lon="-2.214554" lat="53.112837"><ele>321.634613</ele><time>2022-03-04T11:59:15Z</time><extensions><speed>0.177086</speed><course>210.277939</course><hAcc>1.709318</hAcc><vAcc>0.824516</vAcc></extensions></trkpt>
      <trkpt lon="-2.214556" lat="53.112835"><ele>321.733734</ele><time>2022-03-04T11:59:16Z</time><extensions><speed>0.454683</speed><course>203.303589</course><hAcc>1.706079</hAcc><vAcc>0.824429</vAcc></extensions></trkpt>
      <trkpt lon="-2.214560" lat="53.112829"><ele>321.822906</ele><time>2022-03-04T11:59:17Z</time><extensions><speed>0.871270</speed><course>201.061493</course><hAcc>1.717988</hAcc><vAcc>0.824344</vAcc></extensions></trkpt>
      <trkpt lon="-2.214566" lat="53.112821"><ele>321.905121</ele><time>2022-03-04T11:59:18Z</time><extensions><speed>1.140999</speed><course>204.532791</course><hAcc>1.717891</hAcc><vAcc>0.824267</vAcc></extensions></trkpt>
      <trkpt lon="-2.214575" lat="53.112811"><ele>321.971863</ele><time>2022-03-04T11:59:19Z</time><extensions><speed>1.335823</speed><course>209.721664</course><hAcc>1.712690</hAcc><vAcc>0.824185</vAcc></extensions></trkpt>
      <trkpt lon="-2.214586" lat="53.112800"><ele>322.037933</ele><time>2022-03-04T11:59:20Z</time><extensions><speed>1.456515</speed><course>214.339508</course><hAcc>1.705653</hAcc><vAcc>0.824096</vAcc></extensions></trkpt>
      <trkpt lon="-2.214598" lat="53.112789"><ele>322.086700</ele><time>2022-03-04T11:59:21Z</time><extensions><speed>1.515651</speed><course>215.512482</course><hAcc>1.701116</hAcc><vAcc>0.824005</vAcc></extensions></trkpt>
      <trkpt lon="-2.214611" lat="53.112777"><ele>322.113678</ele><time>2022-03-04T11:59:22Z</time><extensions><speed>1.640498</speed><course>211.433716</course><hAcc>1.700783</hAcc><vAcc>0.823923</vAcc></extensions></trkpt>
      <trkpt lon="-2.214623" lat="53.112765"><ele>322.113770</ele><time>2022-03-04T11:59:23Z</time><extensions><speed>1.478010</speed><course>205.655060</course><hAcc>1.694622</hAcc><vAcc>0.823870</vAcc></extensions></trkpt>
      <trkpt lon="-2.214631" lat="53.112754"><ele>322.120911</ele><time>2022-03-04T11:59:24Z</time><extensions><speed>1.251163</speed><course>202.119385</course><hAcc>1.682834</hAcc><vAcc>0.823910</vAcc></extensions></trkpt>
      <trkpt lon="-2.214637" lat="53.112744"><ele>322.085876</ele><time>2022-03-04T11:59:25Z</time><extensions><speed>1.108168</speed><course>201.875214</course><hAcc>1.685666</hAcc><vAcc>0.824014</vAcc></extensions></trkpt>
      <trkpt lon="-2.214644" lat="53.112735"><ele>322.036316</ele><time>2022-03-04T11:59:26Z</time><extensions><speed>1.085530</speed><course>203.802155</course><hAcc>1.692166</hAcc><vAcc>0.824196</vAcc></extensions></trkpt>
      <trkpt lon="-2.214650" lat="53.112726"><ele>321.980713</ele><time>2022-03-04T11:59:27Z</time><extensions><speed>1.070172</speed><course>201.007187</course><hAcc>1.688971</hAcc><vAcc>0.824468</vAcc></extensions></trkpt>
      <trkpt lon="-2.214655" lat="53.112717"><ele>321.913605</ele><time>2022-03-04T11:59:28Z</time><extensions><speed>1.011581</speed><course>197.457779</course><hAcc>1.697536</hAcc><vAcc>0.824773</vAcc></extensions></trkpt>
      <trkpt lon="-2.214659" lat="53.112709"><ele>321.866852</ele><time>2022-03-04T11:59:29Z</time><extensions><speed>0.783695</speed><course>189.657852</course><hAcc>1.693098</hAcc><vAcc>0.825132</vAcc></extensions></trkpt>
      <trkpt lon="-2.214660" lat="53.112703"><ele>321.823883</ele><time>2022-03-04T11:59:30Z</time><extensions><speed>0.659702</speed><course>184.010284</course><hAcc>1.679814</hAcc><vAcc>0.825505</vAcc></extensions></trkpt>
      <trkpt lon="-2.214661" lat="53.112697"><ele>321.780945</ele><time>2022-03-04T11:59:31Z</time><extensions><speed>0.559004</speed><course>182.680450</course><hAcc>1.682539</hAcc><vAcc>0.825856</vAcc></extensions></trkpt>
      <trkpt lon="-2.214661" lat="53.112693"><ele>321.724152</ele><time>2022-03-04T11:59:32Z</time><extensions><speed>0.523333</speed><course>185.347351</course><hAcc>1.686863</hAcc><vAcc>0.826175</vAcc></extensions></trkpt>
      <trkpt lon="-2.214662" lat="53.112687"><ele>321.676941</ele><time>2022-03-04T11:59:33Z</time><extensions><speed>0.735720</speed><course>183.867020</course><hAcc>1.690512</hAcc><vAcc>0.826443</vAcc></extensions></trkpt>
      <trkpt lon="-2.214663" lat="53.112680"><ele>321.624786</ele><time>2022-03-04T11:59:34Z</time><extensions><speed>0.872137</speed><course>187.863052</course><hAcc>1.701757</hAcc><vAcc>0.826656</vAcc></extensions></trkpt>
      <trkpt lon="-2.214666" lat="53.112672"><ele>321.562134</ele><time>2022-03-04T11:59:35Z</time><extensions><speed>0.800312</speed><course>195.948105</course><hAcc>1.709607</hAcc><vAcc>0.826738</vAcc></extensions></trkpt>
      <trkpt lon="-2.214670" lat="53.112667"><ele>321.503510</ele><time>2022-03-04T11:59:36Z</time><extensions><speed>0.631475</speed><course>209.123154</course><hAcc>1.708370</hAcc><vAcc>0.826495</vAcc></extensions></trkpt>
      <trkpt lon="-2.214675" lat="53.112663"><ele>321.439545</ele><time>2022-03-04T11:59:37Z</time><extensions><speed>0.473615</speed><course>232.874023</course><hAcc>1.700198</hAcc><vAcc>0.826116</vAcc></extensions></trkpt>
      <trkpt lon="-2.214682" lat="53.112661"><ele>321.375549</ele><time>2022-03-04T11:59:38Z</time><extensions><speed>0.596775</speed><course>247.681564</course><hAcc>1.694247</hAcc><vAcc>0.825479</vAcc></extensions></trkpt>
      <trkpt lon="-2.214691" lat="53.112659"><ele>321.306915</ele><time>2022-03-04T11:59:39Z</time><extensions><speed>0.668455</speed><course>260.861938</course><hAcc>1.706698</hAcc><vAcc>0.824678</vAcc></extensions></trkpt>
      <trkpt lon="-2.214701" lat="53.112659"><ele>321.241638</ele><time>2022-03-04T11:59:40Z</time><extensions><speed>0.676315</speed><course>270.995880</course><hAcc>1.710178</hAcc><vAcc>0.823651</vAcc></extensions></trkpt>
      <trkpt lon="-2.214711" lat="53.112659"><ele>321.166534</ele><time>2022-03-04T11:59:41Z</time><extensions><speed>0.683495</speed><course>278.531158</course><hAcc>1.708878</hAcc><vAcc>0.822343</vAcc></extensions></trkpt>
      <trkpt lon="-2.214720" lat="53.112661"><ele>321.093323</ele><time>2022-03-04T11:59:42Z</time><extensions><speed>0.582468</speed><course>289.135895</course><hAcc>1.710155</hAcc><vAcc>0.820793</vAcc></extensions></trkpt>
      <trkpt lon="-2.214727" lat="53.112663"><ele>321.018219</ele><time>2022-03-04T11:59:43Z</time><extensions><speed>0.432379</speed><course>304.849365</course><hAcc>1.722742</hAcc><vAcc>0.819112</vAcc></extensions></trkpt>
      <trkpt lon="-2.214731" lat="53.112665"><ele>320.940033</ele><time>2022-03-04T11:59:44Z</time><extensions><speed>0.310313</speed><course>320.026062</course><hAcc>1.741351</hAcc><vAcc>0.817445</vAcc></extensions></trkpt>
      <trkpt lon="-2.214734" lat="53.112667"><ele>320.862640</ele><time>2022-03-04T11:59:45Z</time><extensions><speed>0.344591</speed><course>328.041870</course><hAcc>1.743371</hAcc><vAcc>0.815825</vAcc></extensions></trkpt>
      <trkpt lon="-2.214737" lat="53.112671"><ele>320.790558</ele><time>2022-03-04T11:59:46Z</time><extensions><speed>0.480371</speed><course>329.184570</course><hAcc>1.733221</hAcc><vAcc>0.814326</vAcc></extensions></trkpt>
      <trkpt lon="-2.214740" lat="53.112674"><ele>320.726562</ele><time>2022-03-04T11:59:47Z</time><extensions><speed>0.427226</speed><course>335.296875</course><hAcc>1.753930</hAcc><vAcc>0.813011</vAcc></extensions></trkpt>
      <trkpt lon="-2.214743" lat="53.112678"><ele>320.672089</ele><time>2022-03-04T11:59:48Z</time><extensions><speed>0.434251</speed><course>339.049072</course><hAcc>1.769309</hAcc><vAcc>0.811948</vAcc></extensions></trkpt>
      <trkpt lon="-2.214745" lat="53.112681"><ele>320.610809</ele><time>2022-03-04T11:59:49Z</time><extensions><speed>0.432607</speed><course>341.324219</course><hAcc>1.780195</hAcc><vAcc>0.811081</vAcc></extensions></trkpt>
      <trkpt lon="-2.214747" lat="53.112685"><ele>320.550873</ele><time>2022-03-04T11:59:50Z</time><extensions><speed>0.425161</speed><course>343.472656</course><hAcc>1.784940</hAcc><vAcc>0.810393</vAcc></extensions></trkpt>
      <trkpt lon="-2.214749" lat="53.112689"><ele>320.513428</ele><time>2022-03-04T11:59:51Z</time><extensions><speed>0.403625</speed><course>345.860565</course><hAcc>1.786710</hAcc><vAcc>0.810084</vAcc></extensions></trkpt>
      <trkpt lon="-2.214750" lat="53.112692"><ele>320.489014</ele><time>2022-03-04T11:59:52Z</time><extensions><speed>0.370069</speed><course>348.090332</course><hAcc>1.787476</hAcc><vAcc>0.810183</vAcc></extensions></trkpt>
      <trkpt lon="-2.214751" lat="53.112695"><ele>320.460846</ele><time>2022-03-04T11:59:53Z</time><extensions><speed>0.325894</speed><course>349.803070</course><hAcc>1.785501</hAcc><vAcc>0.810622</vAcc></extensions></trkpt>
      <trkpt lon="-2.214752" lat="53.112698"><ele>320.433746</ele><time>2022-03-04T11:59:54Z</time><extensions><speed>0.267577</speed><course>351.911377</course><hAcc>1.781557</hAcc><vAcc>0.811257</vAcc></extensions></trkpt>
      <trkpt lon="-2.214752" lat="53.112700"><ele>320.418579</ele><time>2022-03-04T11:59:55Z</time><extensions><speed>0.204622</speed><course>354.225250</course><hAcc>1.775541</hAcc><vAcc>0.811934</vAcc></extensions></trkpt>
      <trkpt lon="-2.214752" lat="53.112701"><ele>320.404419</ele><time>2022-03-04T11:59:56Z</time><extensions><speed>0.145079</speed><course>352.884399</course><hAcc>1.772768</hAcc><vAcc>0.812758</vAcc></extensions></trkpt>
      <trkpt lon="-2.214753" lat="53.112702"><ele>320.405792</ele><time>2022-03-04T11:59:57Z</time><extensions><speed>0.096825</speed><course>343.660706</course><hAcc>1.771847</hAcc><vAcc>0.813589</vAcc></extensions></trkpt>
      <trkpt lon="-2.214753" lat="53.112703"><ele>320.379486</ele><time>2022-03-04T11:59:58Z</time><extensions><speed>0.058891</speed><course>313.940247</course><hAcc>1.769635</hAcc><vAcc>0.814312</vAcc></extensions></trkpt>
      <trkpt lon="-2.214754" lat="53.112703"><ele>320.358795</ele><time>2022-03-04T11:59:59Z</time><extensions><speed>0.054476</speed><course>255.815552</course><hAcc>1.768233</hAcc><vAcc>0.814996</vAcc></extensions></trkpt>
      <trkpt lon="-2.214755" lat="53.112703"><ele>320.310822</ele><time>2022-03-04T12:00:00Z</time><extensions><speed>0.083880</speed><course>213.479858</course><hAcc>1.767295</hAcc><vAcc>0.815679</vAcc></extensions></trkpt>
      <trkpt lon="-2.214755" lat="53.112702"><ele>320.300720</ele><time>2022-03-04T12:00:01Z</time><extensions><speed>0.127435</speed><course>194.352921</course><hAcc>1.763581</hAcc><vAcc>0.816361</vAcc></extensions></trkpt>
      <trkpt lon="-2.214755" lat="53.112700"><ele>320.359741</ele><time>2022-03-04T12:00:02Z</time><extensions><speed>0.165133</speed><course>182.367355</course><hAcc>1.756389</hAcc><vAcc>0.817080</vAcc></extensions></trkpt>
      <trkpt lon="-2.214755" lat="53.112699"><ele>320.446259</ele><time>2022-03-04T12:00:03Z</time><extensions><speed>0.194517</speed><course>173.343552</course><hAcc>1.743411</hAcc><vAcc>0.817830</vAcc></extensions></trkpt>
      <trkpt lon="-2.214755" lat="53.112697"><ele>320.534576</ele><time>2022-03-04T12:00:04Z</time><extensions><speed>0.205645</speed><course>168.008331</course><hAcc>1.732860</hAcc><vAcc>0.818596</vAcc></extensions></trkpt>
      <trkpt lon="-2.214754" lat="53.112695"><ele>320.624542</ele><time>2022-03-04T12:00:05Z</time><extensions><speed>0.182858</speed><course>165.941605</course><hAcc>1.738426</hAcc><vAcc>0.819336</vAcc></extensions></trkpt>
      <trkpt lon="-2.214753" lat="53.112694"><ele>320.731171</ele><time>2022-03-04T12:00:06Z</time><extensions><speed>0.105205</speed><course>168.940933</course><hAcc>1.754479</hAcc><vAcc>0.820070</vAcc></extensions></trkpt>
      <trkpt lon="-2.214754" lat="53.112693"><ele>320.846344</ele><time>2022-03-04T12:00:08Z</time><extensions><speed>0.044312</speed><course>228.898514</course><hAcc>1.718251</hAcc><vAcc>0.820772</vAcc></extensions></trkpt>
      <trkpt lon="-2.214754" lat="53.112693"><ele>320.970856</ele><time>2022-03-04T12:00:09Z</time><extensions><speed>0.047386</speed><course>256.717224</course><hAcc>1.710205</hAcc><vAcc>0.821380</vAcc></extensions></trkpt>
      <trkpt lon="-2.214755" lat="53.112692"><ele>321.077271</ele><time>2022-03-04T12:00:10Z</time><extensions><speed>0.168763</speed><course>204.179626</course><hAcc>1.719165</hAcc><vAcc>0.821999</vAcc></extensions></trkpt>
      <trkpt lon="-2.214757" lat="53.112691"><ele>321.227539</ele><time>2022-03-04T12:00:11Z</time><extensions><speed>0.289288</speed><course>228.868057</course><hAcc>1.720107</hAcc><vAcc>0.822608</vAcc></extensions></trkpt>
      <trkpt lon="-2.214760" lat="53.112689"><ele>321.370789</ele><time>2022-03-04T12:00:12Z</time><extensions><speed>0.210484</speed><course>243.930542</course><hAcc>1.716494</hAcc><vAcc>0.823174</vAcc></extensions></trkpt>
      <trkpt lon="-2.214762" lat="53.112688"><ele>321.520874</ele><time>2022-03-04T12:00:13Z</time><extensions><speed>0.135213</speed><course>179.134033</course><hAcc>1.716579</hAcc><vAcc>0.823668</vAcc></extensions></trkpt>
      <trkpt lon="-2.214761" lat="53.112687"><ele>321.687805</ele><time>2022-03-04T12:00:14Z</time><extensions><speed>0.168658</speed><course>152.578140</course><hAcc>1.725551</hAcc><vAcc>0.824068</vAcc></extensions></trkpt>
      <trkpt lon="-2.214760" lat="53.112686"><ele>321.841675</ele><time>2022-03-04T12:00:15Z</time><extensions><speed>0.190142</speed><course>146.327667</course><hAcc>1.730698</hAcc><vAcc>0.824389</vAcc></extensions></trkpt>
      <trkpt lon="-2.214758" lat="53.112684"><ele>321.991516</ele><time>2022-03-04T12:00:16Z</time><extensions><speed>0.205817</speed><course>146.090439</course><hAcc>1.724661</hAcc><vAcc>0.824642</vAcc></extensions></trkpt>
      <trkpt lon="-2.214756" lat="53.112683"><ele>322.143585</ele><time>2022-03-04T12:00:17Z</time><extensions><speed>0.191504</speed><course>146.412979</course><hAcc>1.725872</hAcc><vAcc>0.824812</vAcc></extensions></trkpt>
      <trkpt lon="-2.214755" lat="53.112681"><ele>322.282990</ele><time>2022-03-04T12:00:18Z</time><extensions><speed>0.164342</speed><course>139.363007</course><hAcc>1.727773</hAcc><vAcc>0.824911</vAcc></extensions></trkpt>
      <trkpt lon="-2.214753" lat="53.112681"><ele>322.413177</ele><time>2022-03-04T12:00:19Z</time><extensions><speed>0.164223</speed><course>105.623505</course><hAcc>1.725307</hAcc><vAcc>0.824944</vAcc></extensions></trkpt>
      <trkpt lon="-2.214750" lat="53.112681"><ele>322.552734</ele><time>2022-03-04T12:00:20Z</time><extensions><speed>0.284056</speed><course>72.142159</course><hAcc>1.721885</hAcc><vAcc>0.824934</vAcc></extensions></trkpt>
      <trkpt lon="-2.214746" lat="53.112681"><ele>322.693359</ele><time>2022-03-04T12:00:21Z</time><extensions><speed>0.228110</speed><course>81.739769</course><hAcc>1.726206</hAcc><vAcc>0.824872</vAcc></extensions></trkpt>
      <trkpt lon="-2.214744" lat="53.112682"><ele>322.823273</ele><time>2022-03-04T12:00:22Z</time><extensions><speed>0.085519</speed><course>107.578423</course><hAcc>1.747894</hAcc><vAcc>0.824763</vAcc></extensions></trkpt>
      <trkpt lon="-2.214743" lat="53.112681"><ele>322.947601</ele><time>2022-03-04T12:00:23Z</time><extensions><speed>0.060972</speed><course>150.465164</course><hAcc>1.740344</hAcc><vAcc>0.824614</vAcc></extensions></trkpt>
      <trkpt lon="-2.214742" lat="53.112681"><ele>323.055725</ele><time>2022-03-04T12:00:24Z</time><extensions><speed>0.064941</speed><course>170.336960</course><hAcc>1.722165</hAcc><vAcc>0.824466</vAcc></extensions></trkpt>
      <trkpt lon="-2.214742" lat="53.112680"><ele>323.161804</ele><time>2022-03-04T12:00:25Z</time><extensions><speed>0.049970</speed><course>179.743164</course><hAcc>1.730639</hAcc><vAcc>0.824328</vAcc></extensions></trkpt>
      <trkpt lon="-2.214742" lat="53.112680"><ele>323.244171</ele><time>2022-03-04T12:00:26Z</time><extensions><speed>0.030512</speed><course>190.699829</course><hAcc>1.739263</hAcc><vAcc>0.824211</vAcc></extensions></trkpt>
      <trkpt lon="-2.214742" lat="53.112680"><ele>323.315369</ele><time>2022-03-04T12:00:27Z</time><extensions><speed>0.015066</speed><course>219.063141</course><hAcc>1.742843</hAcc><vAcc>0.824113</vAcc></extensions></trkpt>
      <trkpt lon="-2.214743" lat="53.112680"><ele>323.394287</ele><time>2022-03-04T12:00:28Z</time><extensions><speed>0.012549</speed><course>297.308777</course><hAcc>1.743582</hAcc><vAcc>0.824058</vAcc></extensions></trkpt>
      <trkpt lon="-2.214743" lat="53.112680"><ele>323.430542</ele><time>2022-03-04T12:00:29Z</time><extensions><speed>0.025090</speed><course>331.395264</course><hAcc>1.741272</hAcc><vAcc>0.824011</vAcc></extensions></trkpt>
      <trkpt lon="-2.214743" lat="53.112680"><ele>323.453705</ele><time>2022-03-04T12:00:30Z</time><extensions><speed>0.029501</speed><course>336.211823</course><hAcc>1.735642</hAcc><vAcc>0.824020</vAcc></extensions></trkpt>
      <trkpt lon="-2.214743" lat="53.112680"><ele>323.472809</ele><time>2022-03-04T12:00:31Z</time><extensions><speed>0.019603</speed><course>323.670929</course><hAcc>1.735041</hAcc><vAcc>0.824089</vAcc></extensions></trkpt>
      <trkpt lon="-2.214743" lat="53.112680"><ele>323.460999</ele><time>2022-03-04T12:00:32Z</time><extensions><speed>0.012412</speed><course>253.752686</course><hAcc>1.746812</hAcc><vAcc>0.824189</vAcc></extensions></trkpt>
      <trkpt lon="-2.214744" lat="53.112680"><ele>323.448364</ele><time>2022-03-04T12:00:33Z</time><extensions><speed>0.027446</speed><course>215.258392</course><hAcc>1.749827</hAcc><vAcc>0.824360</vAcc></extensions></trkpt>
      <trkpt lon="-2.214744" lat="53.112680"><ele>323.405609</ele><time>2022-03-04T12:00:34Z</time><extensions><speed>0.047821</speed><course>213.942749</course><hAcc>1.737194</hAcc><vAcc>0.824586</vAcc></extensions></trkpt>
      <trkpt lon="-2.214745" lat="53.112679"><ele>323.353455</ele><time>2022-03-04T12:00:35Z</time><extensions><speed>0.064395</speed><course>219.481323</course><hAcc>1.736341</hAcc><vAcc>0.824830</vAcc></extensions></trkpt>
      <trkpt lon="-2.214745" lat="53.112679"><ele>323.291229</ele><time>2022-03-04T12:00:36Z</time><extensions><speed>0.080405</speed><course>225.574280</course><hAcc>1.741074</hAcc><vAcc>0.825116</vAcc></extensions></trkpt>
      <trkpt lon="-2.214746" lat="53.112678"><ele>323.200165</ele><time>2022-03-04T12:00:37Z</time><extensions><speed>0.093376</speed><course>232.756287</course><hAcc>1.746078</hAcc><vAcc>0.825411</vAcc></extensions></trkpt>
      <trkpt lon="-2.214748" lat="53.112678"><ele>323.089813</ele><time>2022-03-04T12:00:38Z</time><extensions><speed>0.102611</speed><course>239.385895</course><hAcc>1.750648</hAcc><vAcc>0.825717</vAcc></extensions></trkpt>
      <trkpt lon="-2.214749" lat="53.112677"><ele>322.967529</ele><time>2022-03-04T12:00:39Z</time><extensions><speed>0.112006</speed><course>240.838516</course><hAcc>1.754544</hAcc><vAcc>0.826025</vAcc></extensions></trkpt>
      <trkpt lon="-2.214750" lat="53.112677"><ele>322.841583</ele><time>2022-03-04T12:00:40Z</time><extensions><speed>0.130223</speed><course>238.213776</course><hAcc>1.756195</hAcc><vAcc>0.826356</vAcc></extensions></trkpt>
      <trkpt lon="-2.214752" lat="53.112676"><ele>322.712769</ele><time>2022-03-04T12:00:41Z</time><extensions><speed>0.162171</speed><course>234.348572</course><hAcc>1.755754</hAcc><vAcc>0.826653</vAcc></extensions></trkpt>
      <trkpt lon="-2.214754" lat="53.112675"><ele>322.583008</ele><time>2022-03-04T12:00:42Z</time><extensions><speed>0.197573</speed><course>229.807129</course><hAcc>1.755877</hAcc><vAcc>0.826915</vAcc></extensions></trkpt>
      <trkpt lon="-2.214757" lat="53.112674"><ele>322.454071</ele><time>2022-03-04T12:00:43Z</time><extensions><speed>0.225033</speed><course>224.633667</course><hAcc>1.755692</hAcc><vAcc>0.827139</vAcc></extensions></trkpt>
      <trkpt lon="-2.214759" lat="53.112672"><ele>322.319092</ele><time>2022-03-04T12:00:44Z</time><extensions><speed>0.234450</speed><course>219.217422</course><hAcc>1.756036</hAcc><vAcc>0.827315</vAcc></extensions></trkpt>
      <trkpt lon="-2.214761" lat="53.112671"><ele>322.187622</ele><time>2022-03-04T12:00:45Z</time><extensions><speed>0.211788</speed><course>212.803879</course><hAcc>1.756783</hAcc><vAcc>0.827434</vAcc></extensions></trkpt>
      <trkpt lon="-2.214762" lat="53.112669"><ele>322.065552</ele><time>2022-03-04T12:00:46Z</time><extensions><speed>0.160367</speed><course>203.884537</course><hAcc>1.755382</hAcc><vAcc>0.827534</vAcc></extensions></trkpt>
      <trkpt lon="-2.214763" lat="53.112668"><ele>321.942017</ele><time>2022-03-04T12:00:47Z</time><extensions><speed>0.090118</speed><course>187.235367</course><hAcc>1.755437</hAcc><vAcc>0.827604</vAcc></extensions></trkpt>
      <trkpt lon="-2.214762" lat="53.112668"><ele>321.821686</ele><time>2022-03-04T12:00:48Z</time><extensions><speed>0.055847</speed><course>124.209991</course><hAcc>1.755530</hAcc><vAcc>0.827643</vAcc></extensions></trkpt>
      <trkpt lon="-2.214761" lat="53.112667"><ele>321.709625</ele><time>2022-03-04T12:00:49Z</time><extensions><speed>0.107002</speed><course>81.752647</course><hAcc>1.755250</hAcc><vAcc>0.827651</vAcc></extensions></trkpt>
      <trkpt lon="-2.214759" lat="53.112668"><ele>321.584778</ele><time>2022-03-04T12:00:50Z</time><extensions><speed>0.167076</speed><course>71.176018</course><hAcc>1.754813</hAcc><vAcc>0.827641</vAcc></extensions></trkpt>
      <trkpt lon="-2.214757" lat="53.112668"><ele>321.447418</ele><time>2022-03-04T12:00:51Z</time><extensions><speed>0.217393</speed><course>67.362350</course><hAcc>1.751898</hAcc><vAcc>0.827598</vAcc></extensions></trkpt>
      <trkpt lon="-2.214753" lat="53.112669"><ele>321.320923</ele><time>2022-03-04T12:00:52Z</time><extensions><speed>0.250227</speed><course>65.766411</course><hAcc>1.751868</hAcc><vAcc>0.827539</vAcc></extensions></trkpt>
      <trkpt lon="-2.214750" lat="53.112670"><ele>321.205353</ele><time>2022-03-04T12:00:53Z</time><extensions><speed>0.266243</speed><course>65.785210</course><hAcc>1.753034</hAcc><vAcc>0.827479</vAcc></extensions></trkpt>
      <trkpt lon="-2.214746" lat="53.112671"><ele>321.081909</ele><time>2022-03-04T12:00:54Z</time><extensions><speed>0.259338</speed><course>66.043785</course><hAcc>1.754142</hAcc><vAcc>0.827408</vAcc></extensions></trkpt>
      <trkpt lon="-2.214743" lat="53.112672"><ele>320.968811</ele><time>2022-03-04T12:00:55Z</time><extensions><speed>0.240056</speed><course>65.143684</course><hAcc>1.752858</hAcc><vAcc>0.827332</vAcc></extensions></trkpt>
      <trkpt lon="-2.214740" lat="53.112673"><ele>320.857391</ele><time>2022-03-04T12:00:56Z</time><extensions><speed>0.209869</speed><course>62.006054</course><hAcc>1.751957</hAcc><vAcc>0.827264</vAcc></extensions></trkpt>
      <trkpt lon="-2.214737" lat="53.112674"><ele>320.748566</ele><time>2022-03-04T12:00:57Z</time><extensions><speed>0.170740</speed><course>54.998219</course><hAcc>1.752634</hAcc><vAcc>0.827170</vAcc></extensions></trkpt>
      <trkpt lon="-2.214736" lat="53.112675"><ele>320.638580</ele><time>2022-03-04T12:00:58Z</time><extensions><speed>0.129774</speed><course>41.834606</course><hAcc>1.755223</hAcc><vAcc>0.827087</vAcc></extensions></trkpt>
      <trkpt lon="-2.214735" lat="53.112676"><ele>320.526245</ele><time>2022-03-04T12:00:59Z</time><extensions><speed>0.106837</speed><course>20.662628</course><hAcc>1.758924</hAcc><vAcc>0.826997</vAcc></extensions></trkpt>
      <trkpt lon="-2.214734" lat="53.112677"><ele>320.421783</ele><time>2022-03-04T12:01:00Z</time><extensions><speed>0.116628</speed><course>4.580734</course><hAcc>1.758155</hAcc><vAcc>0.826907</vAcc></extensions></trkpt>
      <trkpt lon="-2.214734" lat="53.112678"><ele>320.322296</ele><time>2022-03-04T12:01:01Z</time><extensions><speed>0.136431</speed><course>4.113455</course><hAcc>1.757357</hAcc><vAcc>0.826808</vAcc></extensions></trkpt>
      <trkpt lon="-2.214734" lat="53.112679"><ele>320.231079</ele><time>2022-03-04T12:01:02Z</time><extensions><speed>0.155900</speed><course>13.885020</course><hAcc>1.759039</hAcc><vAcc>0.826724</vAcc></extensions></trkpt>
      <trkpt lon="-2.214733" lat="53.112681"><ele>320.174530</ele><time>2022-03-04T12:01:03Z</time><extensions><speed>0.184630</speed><course>27.339603</course><hAcc>1.759537</hAcc><vAcc>0.826672</vAcc></extensions></trkpt>
      <trkpt lon="-2.214731" lat="53.112682"><ele>320.135010</ele><time>2022-03-04T12:01:03Z</time><extensions><speed>0.217990</speed><course>41.641064</course><hAcc>1.760760</hAcc><vAcc>0.826632</vAcc></extensions></trkpt>
      <trkpt lon="-2.214728" lat="53.112683"><ele>320.118195</ele><time>2022-03-04T12:01:04Z</time><extensions><speed>0.258350</speed><course>54.563198</course><hAcc>1.762973</hAcc><vAcc>0.826625</vAcc></extensions></trkpt>
      <trkpt lon="-2.214725" lat="53.112685"><ele>320.135468</ele><time>2022-03-04T12:01:05Z</time><extensions><speed>0.309133</speed><course>64.721260</course><hAcc>1.761280</hAcc><vAcc>0.826646</vAcc></extensions></trkpt>
      <trkpt lon="-2.214720" lat="53.112686"><ele>320.164276</ele><time>2022-03-04T12:01:06Z</time><extensions><speed>0.354433</speed><course>73.765038</course><hAcc>1.755804</hAcc><vAcc>0.826678</vAcc></extensions></trkpt>
      <trkpt lon="-2.214715" lat="53.112686"><ele>320.212921</ele><time>2022-03-04T12:01:07Z</time><extensions><speed>0.375668</speed><course>82.714127</course><hAcc>1.751923</hAcc><vAcc>0.826713</vAcc></extensions></trkpt>
      <trkpt lon="-2.214709" lat="53.112686"><ele>320.292480</ele><time>2022-03-04T12:01:08Z</time><extensions><speed>0.368349</speed><course>91.689255</course><hAcc>1.752208</hAcc><vAcc>0.826736</vAcc></extensions></trkpt>
      <trkpt lon="-2.214704" lat="53.112686"><ele>320.361542</ele><time>2022-03-04T12:01:09Z</time><extensions><speed>0.344206</speed><course>99.980392</course><hAcc>1.755055</hAcc><vAcc>0.826676</vAcc></extensions></trkpt>
      <trkpt lon="-2.214699" lat="53.112685"><ele>320.432892</ele><time>2022-03-04T12:01:10Z</time><extensions><speed>0.337007</speed><course>105.927284</course><hAcc>1.752848</hAcc><vAcc>0.826496</vAcc></extensions></trkpt>
      <trkpt lon="-2.214694" lat="53.112685"><ele>320.500214</ele><time>2022-03-04T12:01:11Z</time><extensions><speed>0.333065</speed><course>109.150002</course><hAcc>1.747228</hAcc><vAcc>0.826054</vAcc></extensions></trkpt>
      <trkpt lon="-2.214689" lat="53.112683"><ele>320.571198</ele><time>2022-03-04T12:01:12Z</time><extensions><speed>0.322023</speed><course>111.654747</course><hAcc>1.740485</hAcc><vAcc>0.825330</vAcc></extensions></trkpt>
      <trkpt lon="-2.214685" lat="53.112682"><ele>320.621643</ele><time>2022-03-04T12:01:13Z</time><extensions><speed>0.299494</speed><course>114.186668</course><hAcc>1.735247</hAcc><vAcc>0.824489</vAcc></extensions></trkpt>
      <trkpt lon="-2.214681" lat="53.112681"><ele>320.676697</ele><time>2022-03-04T12:01:14Z</time><extensions><speed>0.273538</speed><course>116.079521</course><hAcc>1.724365</hAcc><vAcc>0.823577</vAcc></extensions></trkpt>
      <trkpt lon="-2.214678" lat="53.112680"><ele>320.702362</ele><time>2022-03-04T12:01:15Z</time><extensions><speed>0.244340</speed><course>119.558739</course><hAcc>1.700709</hAcc><vAcc>0.822520</vAcc></extensions></trkpt>
      <trkpt lon="-2.214675" lat="53.112679"><ele>320.717377</ele><time>2022-03-04T12:01:16Z</time><extensions><speed>0.222645</speed><course>121.984573</course><hAcc>1.656614</hAcc><vAcc>0.821359</vAcc></extensions></trkpt>
      <trkpt lon="-2.214671" lat="53.112678"><ele>320.707001</ele><time>2022-03-04T12:01:17Z</time><extensions><speed>0.207972</speed><course>120.198174</course><hAcc>1.594257</hAcc><vAcc>0.820105</vAcc></extensions></trkpt>
      <trkpt lon="-2.214668" lat="53.112677"><ele>320.688354</ele><time>2022-03-04T12:01:18Z</time><extensions><speed>0.176909</speed><course>117.680023</course><hAcc>1.548677</hAcc><vAcc>0.818833</vAcc></extensions></trkpt>
      <trkpt lon="-2.214666" lat="53.112676"><ele>320.663513</ele><time>2022-03-04T12:01:19Z</time><extensions><speed>0.078689</speed><course>115.839317</course><hAcc>1.570769</hAcc><vAcc>0.817623</vAcc></extensions></trkpt>
      <trkpt lon="-2.214666" lat="53.112676"><ele>320.626190</ele><time>2022-03-04T12:01:20Z</time><extensions><speed>0.034982</speed><course>112.783119</course><hAcc>1.571738</hAcc><vAcc>0.816545</vAcc></extensions></trkpt>
      <trkpt lon="-2.214665" lat="53.112676"><ele>320.578979</ele><time>2022-03-04T12:01:21Z</time><extensions><speed>0.048086</speed><course>114.310806</course><hAcc>1.519343</hAcc><vAcc>0.815673</vAcc></extensions></trkpt>
      <trkpt lon="-2.214664" lat="53.112676"><ele>320.519440</ele><time>2022-03-04T12:01:22Z</time><extensions><speed>0.051683</speed><course>121.459442</course><hAcc>1.497978</hAcc><vAcc>0.815097</vAcc></extensions></trkpt>
      <trkpt lon="-2.214663" lat="53.112676"><ele>320.460236</ele><time>2022-03-04T12:01:23Z</time><extensions><speed>0.067846</speed><course>122.514519</course><hAcc>1.488323</hAcc><vAcc>0.814895</vAcc></extensions></trkpt>
      <trkpt lon="-2.214663" lat="53.112675"><ele>320.399811</ele><time>2022-03-04T12:01:24Z</time><extensions><speed>0.081531</speed><course>117.990204</course><hAcc>1.492429</hAcc><vAcc>0.815047</vAcc></extensions></trkpt>
      <trkpt lon="-2.214662" lat="53.112675"><ele>320.337524</ele><time>2022-03-04T12:01:25Z</time><extensions><speed>0.111957</speed><course>111.954521</course><hAcc>1.482275</hAcc><vAcc>0.815509</vAcc></extensions></trkpt>
      <trkpt lon="-2.214660" lat="53.112675"><ele>320.277100</ele><time>2022-03-04T12:01:26Z</time><extensions><speed>0.119478</speed><course>106.049507</course><hAcc>1.472789</hAcc><vAcc>0.816225</vAcc></extensions></trkpt>
      <trkpt lon="-2.214659" lat="53.112674"><ele>320.219757</ele><time>2022-03-04T12:01:27Z</time><extensions><speed>0.097501</speed><course>101.731941</course><hAcc>1.461770</hAcc><vAcc>0.817133</vAcc></extensions></trkpt>
      <trkpt lon="-2.214658" lat="53.112674"><ele>320.163635</ele><time>2022-03-04T12:01:28Z</time><extensions><speed>0.041585</speed><course>95.596870</course><hAcc>1.462752</hAcc><vAcc>0.818150</vAcc></extensions></trkpt>
      <trkpt lon="-2.214659" lat="53.112675"><ele>320.109070</ele><time>2022-03-04T12:01:29Z</time><extensions><speed>0.007632</speed><course>320.878754</course><hAcc>1.459918</hAcc><vAcc>0.819171</vAcc></extensions></trkpt>
      <trkpt lon="-2.214659" lat="53.112675"><ele>320.068726</ele><time>2022-03-04T12:01:30Z</time><extensions><speed>0.041288</speed><course>282.250366</course><hAcc>1.452259</hAcc><vAcc>0.820178</vAcc></extensions></trkpt>
      <trkpt lon="-2.214660" lat="53.112675"><ele>320.028625</ele><time>2022-03-04T12:01:31Z</time><extensions><speed>0.064880</speed><course>275.656250</course><hAcc>1.452918</hAcc><vAcc>0.821105</vAcc></extensions></trkpt>
      <trkpt lon="-2.214662" lat="53.112675"><ele>320.003143</ele><time>2022-03-04T12:01:32Z</time><extensions><speed>0.098164</speed><course>276.914642</course><hAcc>1.442620</hAcc><vAcc>0.821911</vAcc></extensions></trkpt>
      <trkpt lon="-2.214664" lat="53.112675"><ele>319.988007</ele><time>2022-03-04T12:01:33Z</time><extensions><speed>0.137924</speed><course>280.567749</course><hAcc>1.429209</hAcc><vAcc>0.822630</vAcc></extensions></trkpt>
      <trkpt lon="-2.214666" lat="53.112675"><ele>319.978699</ele><time>2022-03-04T12:01:34Z</time><extensions><speed>0.162594</speed><course>283.613037</course><hAcc>1.423884</hAcc><vAcc>0.823234</vAcc></extensions></trkpt>
      <trkpt lon="-2.214669" lat="53.112676"><ele>319.991180</ele><time>2022-03-04T12:01:35Z</time><extensions><speed>0.177345</speed><course>285.228973</course><hAcc>1.419734</hAcc><vAcc>0.823727</vAcc></extensions></trkpt>
      <trkpt lon="-2.214672" lat="53.112676"><ele>320.012085</ele><time>2022-03-04T12:01:36Z</time><extensions><speed>0.181627</speed><course>286.410339</course><hAcc>1.412534</hAcc><vAcc>0.824111</vAcc></extensions></trkpt>
      <trkpt lon="-2.214674" lat="53.112677"><ele>320.040344</ele><time>2022-03-04T12:01:37Z</time><extensions><speed>0.177116</speed><course>287.721680</course><hAcc>1.403729</hAcc><vAcc>0.824401</vAcc></extensions></trkpt>
      <trkpt lon="-2.214677" lat="53.112677"><ele>320.075653</ele><time>2022-03-04T12:01:38Z</time><extensions><speed>0.143706</speed><course>288.597443</course><hAcc>1.412087</hAcc><vAcc>0.824608</vAcc></extensions></trkpt>
      <trkpt lon="-2.214678" lat="53.112677"><ele>320.117676</ele><time>2022-03-04T12:01:39Z</time><extensions><speed>0.063095</speed><course>287.605530</course><hAcc>1.442178</hAcc><vAcc>0.824723</vAcc></extensions></trkpt>
      <trkpt lon="-2.214680" lat="53.112678"><ele>320.165833</ele><time>2022-03-04T12:01:40Z</time><extensions><speed>0.120239</speed><course>284.452454</course><hAcc>1.405446</hAcc><vAcc>0.824770</vAcc></extensions></trkpt>
      <trkpt lon="-2.214682" lat="53.112678"><ele>320.219177</ele><time>2022-03-04T12:01:41Z</time><extensions><speed>0.124958</speed><course>280.522461</course><hAcc>1.399368</hAcc><vAcc>0.824786</vAcc></extensions></trkpt>
      <trkpt lon="-2.214684" lat="53.112678"><ele>320.276672</ele><time>2022-03-04T12:01:42Z</time><extensions><speed>0.121364</speed><course>275.335510</course><hAcc>1.404169</hAcc><vAcc>0.824764</vAcc></extensions></trkpt>
      <trkpt lon="-2.214685" lat="53.112678"><ele>320.336975</ele><time>2022-03-04T12:01:43Z</time><extensions><speed>0.110260</speed><course>270.735046</course><hAcc>1.407489</hAcc><vAcc>0.824747</vAcc></extensions></trkpt>
      <trkpt lon="-2.214687" lat="53.112678"><ele>320.400452</ele><time>2022-03-04T12:01:44Z</time><extensions><speed>0.097085</speed><course>269.798615</course><hAcc>1.406444</hAcc><vAcc>0.824720</vAcc></extensions></trkpt>
      <trkpt lon="-2.214689" lat="53.112678"><ele>320.459625</ele><time>2022-03-04T12:01:45Z</time><extensions><speed>0.085906</speed><course>271.858765</course><hAcc>1.396989</hAcc><vAcc>0.824672</vAcc></extensions></trkpt>
      <trkpt lon="-2.214690" lat="53.112679"><ele>320.502502</ele><time>2022-03-04T12:01:46Z</time><extensions><speed>0.072232</speed><course>277.431793</course><hAcc>1.387595</hAcc><vAcc>0.824599</vAcc></extensions></trkpt>
      <trkpt lon="-2.214691" lat="53.112679"><ele>320.546478</ele><time>2022-03-04T12:01:47Z</time><extensions><speed>0.052954</speed><course>283.586578</course><hAcc>1.385087</hAcc><vAcc>0.824500</vAcc></extensions></trkpt>
      <trkpt lon="-2.214692" lat="53.112679"><ele>320.584045</ele><time>2022-03-04T12:01:48Z</time><extensions><speed>0.053634</speed><course>292.151825</course><hAcc>1.366683</hAcc><vAcc>0.824446</vAcc></extensions></trkpt>
      <trkpt lon="-2.214692" lat="53.112679"><ele>320.613983</ele><time>2022-03-04T12:01:49Z</time><extensions><speed>0.039447</speed><course>302.287201</course><hAcc>1.370597</hAcc><vAcc>0.824376</vAcc></extensions></trkpt>
      <trkpt lon="-2.214693" lat="53.112680"><ele>320.626587</ele><time>2022-03-04T12:01:50Z</time><extensions><speed>0.042287</speed><course>312.003632</course><hAcc>1.365276</hAcc><vAcc>0.824335</vAcc></extensions></trkpt>
      <trkpt lon="-2.214693" lat="53.112680"><ele>320.636597</ele><time>2022-03-04T12:01:51Z</time><extensions><speed>0.042120</speed><course>319.562866</course><hAcc>1.372162</hAcc><vAcc>0.824279</vAcc></extensions></trkpt>
      <trkpt lon="-2.214694" lat="53.112681"><ele>320.640381</ele><time>2022-03-04T12:01:52Z</time><extensions><speed>0.042175</speed><course>325.988373</course><hAcc>1.382933</hAcc><vAcc>0.824222</vAcc></extensions></trkpt>
      <trkpt lon="-2.214695" lat="53.112681"><ele>320.641571</ele><time>2022-03-04T12:01:53Z</time><extensions><speed>0.096062</speed><course>329.874390</course><hAcc>1.357924</hAcc><vAcc>0.824166</vAcc></extensions></trkpt>
      <trkpt lon="-2.214695" lat="53.112682"><ele>320.639435</ele><time>2022-03-04T12:01:54Z</time><extensions><speed>0.112439</speed><course>332.991669</course><hAcc>1.365289</hAcc><vAcc>0.824120</vAcc></extensions></trkpt>
      <trkpt lon="-2.214696" lat="53.112683"><ele>320.634216</ele><time>2022-03-04T12:01:55Z</time><extensions><speed>0.109074</speed><course>335.182770</course><hAcc>1.378134</hAcc><vAcc>0.824056</vAcc></extensions></trkpt>
      <trkpt lon="-2.214697" lat="53.112684"><ele>320.630981</ele><time>2022-03-04T12:01:56Z</time><extensions><speed>0.105955</speed><course>336.272369</course><hAcc>1.376154</hAcc><vAcc>0.823953</vAcc></extensions></trkpt>
      <trkpt lon="-2.214698" lat="53.112685"><ele>320.614410</ele><time>2022-03-04T12:01:57Z</time><extensions><speed>0.096836</speed><course>338.192200</course><hAcc>1.370686</hAcc><vAcc>0.823833</vAcc></extensions></trkpt>
      <trkpt lon="-2.214698" lat="53.112686"><ele>320.591827</ele><time>2022-03-04T12:01:58Z</time><extensions><speed>0.084994</speed><course>337.685486</course><hAcc>1.370286</hAcc><vAcc>0.823603</vAcc></extensions></trkpt>
      <trkpt lon="-2.214699" lat="53.112686"><ele>320.571198</ele><time>2022-03-04T12:01:59Z</time><extensions><speed>0.042151</speed><course>333.435303</course><hAcc>1.394724</hAcc><vAcc>0.823435</vAcc></extensions></trkpt>
      <trkpt lon="-2.214699" lat="53.112687"><ele>320.540497</ele><time>2022-03-04T12:02:00Z</time><extensions><speed>0.070852</speed><course>328.065308</course><hAcc>1.367697</hAcc><vAcc>0.823250</vAcc></extensions></trkpt>
      <trkpt lon="-2.214700" lat="53.112687"><ele>320.511475</ele><time>2022-03-04T12:02:01Z</time><extensions><speed>0.041387</speed><course>326.181580</course><hAcc>1.385973</hAcc><vAcc>0.823052</vAcc></extensions></trkpt>
      <trkpt lon="-2.214700" lat="53.112688"><ele>320.480438</ele><time>2022-03-04T12:02:02Z</time><extensions><speed>0.073867</speed><course>325.407959</course><hAcc>1.362410</hAcc><vAcc>0.822800</vAcc></extensions></trkpt>
      <trkpt lon="-2.214701" lat="53.112688"><ele>320.446686</ele><time>2022-03-04T12:02:03Z</time><extensions><speed>0.060169</speed><course>326.007751</course><hAcc>1.378952</hAcc><vAcc>0.822419</vAcc></extensions></trkpt>
      <trkpt lon="-2.214702" lat="53.112689"><ele>320.408051</ele><time>2022-03-04T12:02:04Z</time><extensions><speed>0.073999</speed><course>326.662903</course><hAcc>1.376575</hAcc><vAcc>0.821816</vAcc></extensions></trkpt>
      <trkpt lon="-2.214702" lat="53.112690"><ele>320.362671</ele><time>2022-03-04T12:02:05Z</time><extensions><speed>0.077073</speed><course>327.685486</course><hAcc>1.386130</hAcc><vAcc>0.821020</vAcc></extensions></trkpt>
      <trkpt lon="-2.214703" lat="53.112690"><ele>320.315155</ele><time>2022-03-04T12:02:06Z</time><extensions><speed>0.077021</speed><course>328.934875</course><hAcc>1.404440</hAcc><vAcc>0.820020</vAcc></extensions></trkpt>
      <trkpt lon="-2.214704" lat="53.112691"><ele>320.265747</ele><time>2022-03-04T12:02:07Z</time><extensions><speed>0.068503</speed><course>327.764618</course><hAcc>1.425698</hAcc><vAcc>0.818800</vAcc></extensions></trkpt>
      <trkpt lon="-2.214704" lat="53.112692"><ele>320.216339</ele><time>2022-03-04T12:02:08Z</time><extensions><speed>0.081987</speed><course>328.128693</course><hAcc>1.426087</hAcc><vAcc>0.817337</vAcc></extensions></trkpt>
      <trkpt lon="-2.214705" lat="53.112692"><ele>320.169769</ele><time>2022-03-04T12:02:09Z</time><extensions><speed>0.086821</speed><course>329.077087</course><hAcc>1.433922</hAcc><vAcc>0.816014</vAcc></extensions></trkpt>
      <trkpt lon="-2.214706" lat="53.112693"><ele>320.120361</ele><time>2022-03-04T12:02:10Z</time><extensions><speed>0.086423</speed><course>329.507843</course><hAcc>1.443288</hAcc><vAcc>0.814662</vAcc></extensions></trkpt>
      <trkpt lon="-2.214706" lat="53.112694"><ele>320.075317</ele><time>2022-03-04T12:02:11Z</time><extensions><speed>0.082069</speed><course>330.413452</course><hAcc>1.452769</hAcc><vAcc>0.813236</vAcc></extensions></trkpt>
      <trkpt lon="-2.214707" lat="53.112695"><ele>320.032166</ele><time>2022-03-04T12:02:12Z</time><extensions><speed>0.077729</speed><course>332.278412</course><hAcc>1.463873</hAcc><vAcc>0.811818</vAcc></extensions></trkpt>
      <trkpt lon="-2.214707" lat="53.112695"><ele>319.991455</ele><time>2022-03-04T12:02:14Z</time><extensions><speed>0.084854</speed><course>335.748413</course><hAcc>1.470174</hAcc><vAcc>0.810462</vAcc></extensions></trkpt>
      <trkpt lon="-2.214708" lat="53.112696"><ele>319.953918</ele><time>2022-03-04T12:02:15Z</time><extensions><speed>0.095696</speed><course>339.776337</course><hAcc>1.472730</hAcc><vAcc>0.809277</vAcc></extensions></trkpt>
      <trkpt lon="-2.214708" lat="53.112697"><ele>319.920044</ele><time>2022-03-04T12:02:16Z</time><extensions><speed>0.103133</speed><course>344.715393</course><hAcc>1.470654</hAcc><vAcc>0.808356</vAcc></extensions></trkpt>
      <trkpt lon="-2.214709" lat="53.112698"><ele>319.890228</ele><time>2022-03-04T12:02:17Z</time><extensions><speed>0.099410</speed><course>350.474579</course><hAcc>1.470791</hAcc><vAcc>0.807803</vAcc></extensions></trkpt>
      <trkpt lon="-2.214709" lat="53.112699"><ele>319.864716</ele><time>2022-03-04T12:02:18Z</time><extensions><speed>0.091395</speed><course>356.301697</course><hAcc>1.467604</hAcc><vAcc>0.807687</vAcc></extensions></trkpt>
      <trkpt lon="-2.214709" lat="53.112700"><ele>319.843475</ele><time>2022-03-04T12:02:19Z</time><extensions><speed>0.087889</speed><course>0.571804</course><hAcc>1.447889</hAcc><vAcc>0.807931</vAcc></extensions></trkpt>
      <trkpt lon="-2.214709" lat="53.112700"><ele>319.826233</ele><time>2022-03-04T12:02:20Z</time><extensions><speed>0.072988</speed><course>3.892015</course><hAcc>1.423229</hAcc><vAcc>0.808497</vAcc></extensions></trkpt>
      <trkpt lon="-2.214709" lat="53.112701"><ele>319.812683</ele><time>2022-03-04T12:02:21Z</time><extensions><speed>0.057539</speed><course>7.057801</course><hAcc>1.393601</hAcc><vAcc>0.809308</vAcc></extensions></trkpt>
      <trkpt lon="-2.214708" lat="53.112701"><ele>319.802368</ele><time>2022-03-04T12:02:22Z</time><extensions><speed>0.040326</speed><course>8.899006</course><hAcc>1.369707</hAcc><vAcc>0.810191</vAcc></extensions></trkpt>
      <trkpt lon="-2.214708" lat="53.112702"><ele>319.794861</ele><time>2022-03-04T12:02:23Z</time><extensions><speed>0.025135</speed><course>9.578633</course><hAcc>1.355555</hAcc><vAcc>0.811180</vAcc></extensions></trkpt>
      <trkpt lon="-2.214708" lat="53.112702"><ele>319.789673</ele><time>2022-03-04T12:02:24Z</time><extensions><speed>0.014169</speed><course>9.812517</course><hAcc>1.349057</hAcc><vAcc>0.812168</vAcc></extensions></trkpt>
      <trkpt lon="-2.214708" lat="53.112702"><ele>319.786469</ele><time>2022-03-04T12:02:25Z</time><extensions><speed>0.011090</speed><course>9.875890</course><hAcc>1.337141</hAcc><vAcc>0.813112</vAcc></extensions></trkpt>
      <trkpt lon="-2.214708" lat="53.112702"><ele>319.784851</ele><time>2022-03-04T12:02:26Z</time><extensions><speed>0.008560</speed><course>9.887455</course><hAcc>1.332869</hAcc><vAcc>0.814000</vAcc></extensions></trkpt>
      <trkpt lon="-2.214708" lat="53.112702"><ele>319.784485</ele><time>2022-03-04T12:02:27Z</time><extensions><speed>0.008344</speed><course>9.889411</course><hAcc>1.325341</hAcc><vAcc>0.814816</vAcc></extensions></trkpt>
      <trkpt lon="-2.214708" lat="53.112702"><ele>319.785095</ele><time>2022-03-04T12:02:28Z</time><extensions><speed>0.014899</speed><course>9.889670</course><hAcc>1.292178</hAcc><vAcc>0.815568</vAcc></extensions></trkpt>
      <trkpt lon="-2.214708" lat="53.112702"><ele>319.786438</ele><time>2022-03-04T12:02:29Z</time><extensions><speed>0.012955</speed><course>9.889705</course><hAcc>1.307653</hAcc><vAcc>0.816269</vAcc></extensions></trkpt>
      <trkpt lon="-2.214708" lat="53.112703"><ele>319.788361</ele><time>2022-03-04T12:02:30Z</time><extensions><speed>0.004657</speed><course>9.889716</course><hAcc>1.358335</hAcc><vAcc>0.816978</vAcc></extensions></trkpt>
      <trkpt lon="-2.214708" lat="53.112703"><ele>319.790588</ele><time>2022-03-04T12:02:31Z</time><extensions><speed>0.006049</speed><course>9.889720</course><hAcc>1.347580</hAcc><vAcc>0.817689</vAcc></extensions></trkpt>
      <trkpt lon="-2.214708" lat="53.112703"><ele>319.793060</ele><time>2022-03-04T12:02:32Z</time><extensions><speed>0.005846</speed><course>9.889721</course><hAcc>1.352028</hAcc><vAcc>0.818423</vAcc></extensions></trkpt>
      <trkpt lon="-2.214708" lat="53.112703"><ele>319.792419</ele><time>2022-03-04T12:02:33Z</time><extensions><speed>0.002633</speed><course>321.205963</course><hAcc>1.362799</hAcc><vAcc>0.819172</vAcc></extensions></trkpt>
      <trkpt lon="-2.214709" lat="53.112702"><ele>319.782562</ele><time>2022-03-04T12:02:34Z</time><extensions><speed>0.006404</speed><course>249.097168</course><hAcc>1.371651</hAcc><vAcc>0.819910</vAcc></extensions></trkpt>
      <trkpt lon="-2.214709" lat="53.112702"><ele>319.770386</ele><time>2022-03-04T12:02:35Z</time><extensions><speed>0.012720</speed><course>235.935120</course><hAcc>1.386737</hAcc><vAcc>0.820644</vAcc></extensions></trkpt>
      <trkpt lon="-2.214709" lat="53.112702"><ele>319.756226</ele><time>2022-03-04T12:02:36Z</time><extensions><speed>0.018291</speed><course>231.112152</course><hAcc>1.407105</hAcc><vAcc>0.821373</vAcc></extensions></trkpt>
      <trkpt lon="-2.214709" lat="53.112702"><ele>319.740082</ele><time>2022-03-04T12:02:37Z</time><extensions><speed>0.024194</speed><course>228.596985</course><hAcc>1.423968</hAcc><vAcc>0.822074</vAcc></extensions></trkpt>
      <trkpt lon="-2.214710" lat="53.112702"><ele>319.721924</ele><time>2022-03-04T12:02:38Z</time><extensions><speed>0.030617</speed><course>227.127625</course><hAcc>1.439187</hAcc><vAcc>0.822727</vAcc></extensions></trkpt>
      <trkpt lon="-2.214710" lat="53.112702"><ele>319.701843</ele><time>2022-03-04T12:02:39Z</time><extensions><speed>0.039343</speed><course>226.256699</course><hAcc>1.455013</hAcc><vAcc>0.823316</vAcc></extensions></trkpt>
      <trkpt lon="-2.214711" lat="53.112701"><ele>319.679932</ele><time>2022-03-04T12:02:40Z</time><extensions><speed>0.045145</speed><course>225.763458</course><hAcc>1.484542</hAcc><vAcc>0.823826</vAcc></extensions></trkpt>
      <trkpt lon="-2.214711" lat="53.112701"><ele>319.656494</ele><time>2022-03-04T12:02:41Z</time><extensions><speed>0.054467</speed><course>225.656204</course><hAcc>1.517666</hAcc><vAcc>0.824245</vAcc></extensions></trkpt>
      <trkpt lon="-2.214712" lat="53.112701"><ele>319.631805</ele><time>2022-03-04T12:02:42Z</time><extensions><speed>0.076264</speed><course>226.225021</course><hAcc>1.540863</hAcc><vAcc>0.824590</vAcc></extensions></trkpt>
      <trkpt lon="-2.214713" lat="53.112700"><ele>319.606354</ele><time>2022-03-04T12:02:43Z</time><extensions><speed>0.130815</speed><course>227.820892</course><hAcc>1.538022</hAcc><vAcc>0.824853</vAcc></extensions></trkpt>
      <trkpt lon="-2.214714" lat="53.112699"><ele>319.580750</ele><time>2022-03-04T12:02:44Z</time><extensions><speed>0.137490</speed><course>229.384186</course><hAcc>1.572968</hAcc><vAcc>0.825053</vAcc></extensions></trkpt>
      <trkpt lon="-2.214716" lat="53.112699"><ele>319.555634</ele><time>2022-03-04T12:02:45Z</time><extensions><speed>0.114560</speed><course>230.144348</course><hAcc>1.629301</hAcc><vAcc>0.825198</vAcc></extensions></trkpt>
      <trkpt lon="-2.214717" lat="53.112698"><ele>319.531525</ele><time>2022-03-04T12:02:46Z</time><extensions><speed>0.085446</speed><course>230.567215</course><hAcc>1.672735</hAcc><vAcc>0.825297</vAcc></extensions></trkpt>
      <trkpt lon="-2.214718" lat="53.112698"><ele>319.508820</ele><time>2022-03-04T12:02:47Z</time><extensions><speed>0.060173</speed><course>230.844070</course><hAcc>1.694579</hAcc><vAcc>0.825346</vAcc></extensions></trkpt>
      <trkpt lon="-2.214718" lat="53.112697"><ele>319.510437</ele><time>2022-03-04T12:02:48Z</time><extensions><speed>0.040049</speed><course>224.132675</course><hAcc>1.701114</hAcc><vAcc>0.825361</vAcc></extensions></trkpt>
      <trkpt lon="-2.214719" lat="53.112697"><ele>319.508545</ele><time>2022-03-04T12:02:49Z</time><extensions><speed>0.026892</speed><course>209.261612</course><hAcc>1.696062</hAcc><vAcc>0.825323</vAcc></extensions></trkpt>
      <trkpt lon="-2.214719" lat="53.112697"><ele>319.510651</ele><time>2022-03-04T12:02:50Z</time><extensions><speed>0.021862</speed><course>183.132889</course><hAcc>1.683497</hAcc><vAcc>0.825243</vAcc></extensions></trkpt>
      <trkpt lon="-2.214718" lat="53.112696"><ele>319.516785</ele><time>2022-03-04T12:02:51Z</time><extensions><speed>0.024236</speed><course>158.214233</course><hAcc>1.670604</hAcc><vAcc>0.825128</vAcc></extensions></trkpt>
      <trkpt lon="-2.214718" lat="53.112696"><ele>319.526764</ele><time>2022-03-04T12:02:52Z</time><extensions><speed>0.031101</speed><course>144.342010</course><hAcc>1.661551</hAcc><vAcc>0.825004</vAcc></extensions></trkpt>
      <trkpt lon="-2.214718" lat="53.112696"><ele>319.540497</ele><time>2022-03-04T12:02:53Z</time><extensions><speed>0.038238</speed><course>137.661942</course><hAcc>1.661531</hAcc><vAcc>0.824855</vAcc></extensions></trkpt>
      <trkpt lon="-2.214717" lat="53.112696"><ele>319.557648</ele><time>2022-03-04T12:02:54Z</time><extensions><speed>0.054404</speed><course>134.656494</course><hAcc>1.645493</hAcc><vAcc>0.824713</vAcc></extensions></trkpt>
      <trkpt lon="-2.214717" lat="53.112695"><ele>319.577850</ele><time>2022-03-04T12:02:55Z</time><extensions><speed>0.072708</speed><course>133.367294</course><hAcc>1.636145</hAcc><vAcc>0.824549</vAcc></extensions></trkpt>
      <trkpt lon="-2.214716" lat="53.112695"><ele>319.600525</ele><time>2022-03-04T12:02:56Z</time><extensions><speed>0.085551</speed><course>132.699722</course><hAcc>1.655100</hAcc><vAcc>0.824368</vAcc></extensions></trkpt>
      <trkpt lon="-2.214715" lat="53.112694"><ele>319.625000</ele><time>2022-03-04T12:02:57Z</time><extensions><speed>0.080775</speed><course>132.155258</course><hAcc>1.688990</hAcc><vAcc>0.824166</vAcc></extensions></trkpt>
      <trkpt lon="-2.214714" lat="53.112694"><ele>319.650330</ele><time>2022-03-04T12:02:58Z</time><extensions><speed>0.125570</speed><course>131.564835</course><hAcc>1.653754</hAcc><vAcc>0.823944</vAcc></extensions></trkpt>
      <trkpt lon="-2.214712" lat="53.112693"><ele>319.675659</ele><time>2022-03-04T12:02:59Z</time><extensions><speed>0.118647</speed><course>131.093552</course><hAcc>1.645166</hAcc><vAcc>0.823697</vAcc></extensions></trkpt>
      <trkpt lon="-2.214711" lat="53.112692"><ele>319.700226</ele><time>2022-03-04T12:03:00Z</time><extensions><speed>0.093407</speed><course>130.871307</course><hAcc>1.658711</hAcc><vAcc>0.823454</vAcc></extensions></trkpt>
      <trkpt lon="-2.214710" lat="53.112692"><ele>319.723541</ele><time>2022-03-04T12:03:01Z</time><extensions><speed>0.066930</speed><course>130.735931</course><hAcc>1.664685</hAcc><vAcc>0.823197</vAcc></extensions></trkpt>
      <trkpt lon="-2.214710" lat="53.112692"><ele>319.745331</ele><time>2022-03-04T12:03:02Z</time><extensions><speed>0.044289</speed><course>130.641357</course><hAcc>1.656755</hAcc><vAcc>0.822952</vAcc></extensions></trkpt>
      <trkpt lon="-2.214709" lat="53.112691"><ele>319.765350</ele><time>2022-03-04T12:03:03Z</time><extensions><speed>0.029198</speed><course>130.571732</course><hAcc>1.638953</hAcc><vAcc>0.822723</vAcc></extensions></trkpt>
      <trkpt lon="-2.214709" lat="53.112691"><ele>319.783508</ele><time>2022-03-04T12:03:04Z</time><extensions><speed>0.016416</speed><course>130.519318</course><hAcc>1.640126</hAcc><vAcc>0.822520</vAcc></extensions></trkpt>
      <trkpt lon="-2.214709" lat="53.112691"><ele>319.799713</ele><time>2022-03-04T12:03:05Z</time><extensions><speed>0.008752</speed><course>130.475220</course><hAcc>1.644188</hAcc><vAcc>0.822343</vAcc></extensions></trkpt>
      <trkpt lon="-2.214709" lat="53.112691"><ele>319.813995</ele><time>2022-03-04T12:03:06Z</time><extensions><speed>0.006398</speed><course>130.443741</course><hAcc>1.632354</hAcc><vAcc>0.822191</vAcc></extensions></trkpt>
      <trkpt lon="-2.214709" lat="53.112691"><ele>319.826447</ele><time>2022-03-04T12:03:07Z</time><extensions><speed>0.003881</speed><course>130.426498</course><hAcc>1.653806</hAcc><vAcc>0.822051</vAcc></extensions></trkpt>
      <trkpt lon="-2.214709" lat="53.112691"><ele>319.837158</ele><time>2022-03-04T12:03:08Z</time><extensions><speed>0.002853</speed><course>130.416092</course><hAcc>1.664595</hAcc><vAcc>0.821937</vAcc></extensions></trkpt>
      <trkpt lon="-2.214709" lat="53.112691"><ele>319.846191</ele><time>2022-03-04T12:03:08Z</time><extensions><speed>0.003121</speed><course>130.411469</course><hAcc>1.646012</hAcc><vAcc>0.821877</vAcc></extensions></trkpt>
      <trkpt lon="-2.214709" lat="53.112691"><ele>319.853760</ele><time>2022-03-04T12:03:09Z</time><extensions><speed>0.002649</speed><course>130.409698</course><hAcc>1.665639</hAcc><vAcc>0.821875</vAcc></extensions></trkpt>
      <trkpt lon="-2.214709" lat="53.112691"><ele>319.846680</ele><time>2022-03-04T12:03:10Z</time><extensions><speed>0.002668</speed><course>355.030823</course><hAcc>1.700984</hAcc><vAcc>0.821903</vAcc></extensions></trkpt>
      <trkpt lon="-2.214709" lat="53.112691"><ele>319.836334</ele><time>2022-03-04T12:03:11Z</time><extensions><speed>0.009310</speed><course>339.709290</course><hAcc>1.729978</hAcc><vAcc>0.821966</vAcc></extensions></trkpt>
      <trkpt lon="-2.214709" lat="53.112691"><ele>319.822906</ele><time>2022-03-04T12:03:12Z</time><extensions><speed>0.018808</speed><course>337.178070</course><hAcc>1.745596</hAcc><vAcc>0.822069</vAcc></extensions></trkpt>
      <trkpt lon="-2.214709" lat="53.112692"><ele>319.806519</ele><time>2022-03-04T12:03:13Z</time><extensions><speed>0.031924</speed><course>336.386169</course><hAcc>1.751740</hAcc><vAcc>0.822212</vAcc></extensions></trkpt>
      <trkpt lon="-2.214709" lat="53.112692"><ele>319.787384</ele><time>2022-03-04T12:03:14Z</time><extensions><speed>0.050660</speed><course>336.094879</course><hAcc>1.747962</hAcc><vAcc>0.822378</vAcc></extensions></trkpt>
      <trkpt lon="-2.214710" lat="53.112692"><ele>319.765656</ele><time>2022-03-04T12:03:15Z</time><extensions><speed>0.075403</speed><course>335.981232</course><hAcc>1.738938</hAcc><vAcc>0.822565</vAcc></extensions></trkpt>
      <trkpt lon="-2.214710" lat="53.112693"><ele>319.741608</ele><time>2022-03-04T12:03:16Z</time><extensions><speed>0.106127</speed><course>335.935028</course><hAcc>1.727494</hAcc><vAcc>0.822760</vAcc></extensions></trkpt>
      <trkpt lon="-2.214711" lat="53.112694"><ele>319.715515</ele><time>2022-03-04T12:03:17Z</time><extensions><speed>0.139704</speed><course>335.915741</course><hAcc>1.716951</hAcc><vAcc>0.822957</vAcc></extensions></trkpt>
      <trkpt lon="-2.214712" lat="53.112695"><ele>319.687866</ele><time>2022-03-04T12:03:18Z</time><extensions><speed>0.173803</speed><course>335.907593</course><hAcc>1.709808</hAcc><vAcc>0.823136</vAcc></extensions></trkpt>
      <trkpt lon="-2.214713" lat="53.112697"><ele>319.659119</ele><time>2022-03-04T12:03:19Z</time><extensions><speed>0.191704</speed><course>335.904175</course><hAcc>1.721223</hAcc><vAcc>0.823295</vAcc></extensions></trkpt>
      <trkpt lon="-2.214714" lat="53.112698"><ele>319.630005</ele><time>2022-03-04T12:03:20Z</time><extensions><speed>0.150615</speed><course>335.902679</course><hAcc>1.746779</hAcc><vAcc>0.823440</vAcc></extensions></trkpt>
      <trkpt lon="-2.214715" lat="53.112700"><ele>319.601288</ele><time>2022-03-04T12:03:21Z</time><extensions><speed>0.170091</speed><course>335.902069</course><hAcc>1.712209</hAcc><vAcc>0.823548</vAcc></extensions></trkpt>
      <trkpt lon="-2.214716" lat="53.112701"><ele>319.573608</ele><time>2022-03-04T12:03:22Z</time><extensions><speed>0.146318</speed><course>335.901855</course><hAcc>1.700225</hAcc><vAcc>0.823611</vAcc></extensions></trkpt>
      <trkpt lon="-2.214717" lat="53.112702"><ele>319.547485</ele><time>2022-03-04T12:03:23Z</time><extensions><speed>0.109951</speed><course>335.901733</course><hAcc>1.710251</hAcc><vAcc>0.823682</vAcc></extensions></trkpt>
      <trkpt lon="-2.214717" lat="53.112703"><ele>319.523224</ele><time>2022-03-04T12:03:24Z</time><extensions><speed>0.077746</speed><course>335.901642</course><hAcc>1.716358</hAcc><vAcc>0.823753</vAcc></extensions></trkpt>
      <trkpt lon="-2.214718" lat="53.112703"><ele>319.501038</ele><time>2022-03-04T12:03:25Z</time><extensions><speed>0.051995</speed><course>335.901581</course><hAcc>1.715053</hAcc><vAcc>0.823823</vAcc></extensions></trkpt>
      <trkpt lon="-2.214718" lat="53.112704"><ele>319.481049</ele><time>2022-03-04T12:03:26Z</time><extensions><speed>0.032850</speed><course>335.901550</course><hAcc>1.709529</hAcc><vAcc>0.823884</vAcc></extensions></trkpt>
      <trkpt lon="-2.214718" lat="53.112704"><ele>319.463257</ele><time>2022-03-04T12:03:27Z</time><extensions><speed>0.020173</speed><course>335.901489</course><hAcc>1.700746</hAcc><vAcc>0.823931</vAcc></extensions></trkpt>
      <trkpt lon="-2.214718" lat="53.112704"><ele>319.447632</ele><time>2022-03-04T12:03:28Z</time><extensions><speed>0.011866</speed><course>335.901459</course><hAcc>1.691778</hAcc><vAcc>0.823977</vAcc></extensions></trkpt>
      <trkpt lon="-2.214718" lat="53.112704"><ele>319.434082</ele><time>2022-03-04T12:03:29Z</time><extensions><speed>0.007232</speed><course>335.901428</course><hAcc>1.672734</hAcc><vAcc>0.824003</vAcc></extensions></trkpt>
      <trkpt lon="-2.214718" lat="53.112704"><ele>319.422516</ele><time>2022-03-04T12:03:30Z</time><extensions><speed>0.004766</speed><course>335.901398</course><hAcc>1.641840</hAcc><vAcc>0.824013</vAcc></extensions></trkpt>
      <trkpt lon="-2.214718" lat="53.112704"><ele>319.412720</ele><time>2022-03-04T12:03:31Z</time><extensions><speed>0.003154</speed><course>335.901398</course><hAcc>1.619638</hAcc><vAcc>0.824003</vAcc></extensions></trkpt>
      <trkpt lon="-2.214718" lat="53.112704"><ele>319.404602</ele><time>2022-03-04T12:03:32Z</time><extensions><speed>0.001622</speed><course>335.901367</course><hAcc>1.621234</hAcc><vAcc>0.823994</vAcc></extensions></trkpt>
      <trkpt lon="-2.214718" lat="53.112704"><ele>319.397980</ele><time>2022-03-04T12:03:33Z</time><extensions><speed>0.001244</speed><course>335.901367</course><hAcc>1.591082</hAcc><vAcc>0.823988</vAcc></extensions></trkpt>
      <trkpt lon="-2.214718" lat="53.112704"><ele>319.392670</ele><time>2022-03-04T12:03:34Z</time><extensions><speed>0.000600</speed><course>335.901367</course><hAcc>1.615249</hAcc><vAcc>0.823992</vAcc></extensions></trkpt>
      <trkpt lon="-2.214718" lat="53.112704"><ele>319.388519</ele><time>2022-03-04T12:03:35Z</time><extensions><speed>0.000391</speed><course>335.901337</course><hAcc>1.627296</hAcc><vAcc>0.823998</vAcc></extensions></trkpt>
      <trkpt lon="-2.214718" lat="53.112704"><ele>319.401581</ele><time>2022-03-04T12:03:36Z</time><extensions><speed>0.000495</speed><course>87.917480</course><hAcc>1.643815</hAcc><vAcc>0.823973</vAcc></extensions></trkpt>
      <trkpt lon="-2.214718" lat="53.112704"><ele>319.417999</ele><time>2022-03-04T12:03:37Z</time><extensions><speed>0.002575</speed><course>103.450813</course><hAcc>1.609372</hAcc><vAcc>0.823905</vAcc></extensions></trkpt>
      <trkpt lon="-2.214718" lat="53.112704"><ele>319.437561</ele><time>2022-03-04T12:03:38Z</time><extensions><speed>0.005303</speed><course>106.371063</course><hAcc>1.623433</hAcc><vAcc>0.823790</vAcc></extensions></trkpt>
      <trkpt lon="-2.214718" lat="53.112704"><ele>319.460144</ele><time>2022-03-04T12:03:39Z</time><extensions><speed>0.008894</speed><course>107.590485</course><hAcc>1.665488</hAcc><vAcc>0.823642</vAcc></extensions></trkpt>
      <trkpt lon="-2.214718" lat="53.112704"><ele>319.485565</ele><time>2022-03-04T12:03:40Z</time><extensions><speed>0.014094</speed><course>108.155136</course><hAcc>1.696787</hAcc><vAcc>0.823470</vAcc></extensions></trkpt>
      <trkpt lon="-2.214718" lat="53.112704"><ele>319.513672</ele><time>2022-03-04T12:03:41Z</time><extensions><speed>0.022062</speed><course>108.409691</course><hAcc>1.705696</hAcc><vAcc>0.823259</vAcc></extensions></trkpt>
      <trkpt lon="-2.214717" lat="53.112704"><ele>319.544220</ele><time>2022-03-04T12:03:42Z</time><extensions><speed>0.031947</speed><course>108.524284</course><hAcc>1.703181</hAcc><vAcc>0.823009</vAcc></extensions></trkpt>
      <trkpt lon="-2.214717" lat="53.112704"><ele>319.576904</ele><time>2022-03-04T12:03:43Z</time><extensions><speed>0.042876</speed><course>108.577927</course><hAcc>1.693804</hAcc><vAcc>0.822720</vAcc></extensions></trkpt>
      <trkpt lon="-2.214716" lat="53.112704"><ele>319.611206</ele><time>2022-03-04T12:03:44Z</time><extensions><speed>0.052876</speed><course>108.603447</course><hAcc>1.682611</hAcc><vAcc>0.822390</vAcc></extensions></trkpt>
      <trkpt lon="-2.214715" lat="53.112704"><ele>319.646576</ele><time>2022-03-04T12:03:45Z</time><extensions><speed>0.057601</speed><course>108.615517</course><hAcc>1.686328</hAcc><vAcc>0.822034</vAcc></extensions></trkpt>
      <trkpt lon="-2.214715" lat="53.112703"><ele>319.682190</ele><time>2022-03-04T12:03:46Z</time><extensions><speed>0.042796</speed><course>108.621078</course><hAcc>1.719284</hAcc><vAcc>0.821683</vAcc></extensions></trkpt>
      <trkpt lon="-2.214714" lat="53.112703"><ele>319.717194</ele><time>2022-03-04T12:03:47Z</time><extensions><speed>0.033398</speed><course>108.623688</course><hAcc>1.723139</hAcc><vAcc>0.821333</vAcc></extensions></trkpt>
      <trkpt lon="-2.214714" lat="53.112703"><ele>319.750763</ele><time>2022-03-04T12:03:48Z</time><extensions><speed>0.036542</speed><course>108.624779</course><hAcc>1.687820</hAcc><vAcc>0.821006</vAcc></extensions></trkpt>
      <trkpt lon="-2.214713" lat="53.112703"><ele>319.782349</ele><time>2022-03-04T12:03:49Z</time><extensions><speed>0.030917</speed><course>108.625191</course><hAcc>1.687193</hAcc><vAcc>0.820731</vAcc></extensions></trkpt>
      <trkpt lon="-2.214713" lat="53.112703"><ele>319.811584</ele><time>2022-03-04T12:03:50Z</time><extensions><speed>0.023563</speed><course>108.625420</course><hAcc>1.707551</hAcc><vAcc>0.820516</vAcc></extensions></trkpt>
      <trkpt lon="-2.214712" lat="53.112703"><ele>319.838226</ele><time>2022-03-04T12:03:51Z</time><extensions><speed>0.016596</speed><course>108.625572</course><hAcc>1.727559</hAcc><vAcc>0.820374</vAcc></extensions></trkpt>
      <trkpt lon="-2.214712" lat="53.112703"><ele>319.862183</ele><time>2022-03-04T12:03:52Z</time><extensions><speed>0.011218</speed><course>108.625679</course><hAcc>1.738102</hAcc><vAcc>0.820319</vAcc></extensions></trkpt>
      <trkpt lon="-2.214712" lat="53.112703"><ele>319.883423</ele><time>2022-03-04T12:03:53Z</time><extensions><speed>0.007362</speed><course>108.625763</course><hAcc>1.738960</hAcc><vAcc>0.820365</vAcc></extensions></trkpt>
      <trkpt lon="-2.214712" lat="53.112703"><ele>319.902039</ele><time>2022-03-04T12:03:54Z</time><extensions><speed>0.004784</speed><course>108.625839</course><hAcc>1.730652</hAcc><vAcc>0.820487</vAcc></extensions></trkpt>
      <trkpt lon="-2.214712" lat="53.112703"><ele>319.888580</ele><time>2022-03-04T12:03:55Z</time><extensions><speed>0.003638</speed><course>156.929886</course><hAcc>1.716380</hAcc><vAcc>0.820690</vAcc></extensions></trkpt>
      <trkpt lon="-2.214712" lat="53.112703"><ele>319.868195</ele><time>2022-03-04T12:03:56Z</time><extensions><speed>0.005995</speed><course>193.011505</course><hAcc>1.693432</hAcc><vAcc>0.820940</vAcc></extensions></trkpt>
      <trkpt lon="-2.214712" lat="53.112703"><ele>319.841125</ele><time>2022-03-04T12:03:57Z</time><extensions><speed>0.009424</speed><course>204.109528</course><hAcc>1.669606</hAcc><vAcc>0.821234</vAcc></extensions></trkpt>
      <trkpt lon="-2.214712" lat="53.112703"><ele>319.807556</ele><time>2022-03-04T12:03:58Z</time><extensions><speed>0.012503</speed><course>208.017593</course><hAcc>1.653042</hAcc><vAcc>0.821550</vAcc></extensions></trkpt>
      <trkpt lon="-2.214712" lat="53.112702"><ele>319.767761</ele><time>2022-03-04T12:03:59Z</time><extensions><speed>0.015644</speed><course>209.591492</course><hAcc>1.639390</hAcc><vAcc>0.821868</vAcc></extensions></trkpt>
      <trkpt lon="-2.214712" lat="53.112702"><ele>319.722137</ele><time>2022-03-04T12:04:00Z</time><extensions><speed>0.019077</speed><course>210.248962</course><hAcc>1.632594</hAcc><vAcc>0.822202</vAcc></extensions></trkpt>
      <trkpt lon="-2.214713" lat="53.112702"><ele>319.671143</ele><time>2022-03-04T12:04:01Z</time><extensions><speed>0.023406</speed><course>210.535568</course><hAcc>1.635151</hAcc><vAcc>0.822505</vAcc></extensions></trkpt>
      <trkpt lon="-2.214713" lat="53.112702"><ele>319.615479</ele><time>2022-03-04T12:04:02Z</time><extensions><speed>0.032628</speed><course>210.663269</course><hAcc>1.628008</hAcc><vAcc>0.822809</vAcc></extensions></trkpt>
      <trkpt lon="-2.214713" lat="53.112702"><ele>319.556061</ele><time>2022-03-04T12:04:03Z</time><extensions><speed>0.063281</speed><course>210.709717</course><hAcc>1.575262</hAcc><vAcc>0.823102</vAcc></extensions></trkpt>
      <trkpt lon="-2.214714" lat="53.112701"><ele>319.494049</ele><time>2022-03-04T12:04:04Z</time><extensions><speed>0.076463</speed><course>210.728333</course><hAcc>1.563763</hAcc><vAcc>0.823382</vAcc></extensions></trkpt>
      <trkpt lon="-2.214714" lat="53.112700"><ele>319.431000</ele><time>2022-03-04T12:04:05Z</time><extensions><speed>0.057996</speed><course>210.737686</course><hAcc>1.604196</hAcc><vAcc>0.823643</vAcc></extensions></trkpt>
      <trkpt lon="-2.214715" lat="53.112700"><ele>319.368591</ele><time>2022-03-04T12:04:06Z</time><extensions><speed>0.038634</speed><course>210.742004</course><hAcc>1.636171</hAcc><vAcc>0.823882</vAcc></extensions></trkpt>
      <trkpt lon="-2.214715" lat="53.112700"><ele>319.308319</ele><time>2022-03-04T12:04:07Z</time><extensions><speed>0.026859</speed><course>210.744171</course><hAcc>1.652875</hAcc><vAcc>0.824086</vAcc></extensions></trkpt>
      <trkpt lon="-2.214715" lat="53.112700"><ele>319.251282</ele><time>2022-03-04T12:04:08Z</time><extensions><speed>0.026678</speed><course>210.745117</course><hAcc>1.642347</hAcc><vAcc>0.824259</vAcc></extensions></trkpt>
      <trkpt lon="-2.214715" lat="53.112699"><ele>319.198212</ele><time>2022-03-04T12:04:09Z</time><extensions><speed>0.028298</speed><course>210.745438</course><hAcc>1.631675</hAcc><vAcc>0.824421</vAcc></extensions></trkpt>
      <trkpt lon="-2.214715" lat="53.112699"><ele>319.149597</ele><time>2022-03-04T12:04:10Z</time><extensions><speed>0.023691</speed><course>210.745560</course><hAcc>1.657044</hAcc><vAcc>0.824557</vAcc></extensions></trkpt>
      <trkpt lon="-2.214716" lat="53.112699"><ele>319.105682</ele><time>2022-03-04T12:04:11Z</time><extensions><speed>0.017876</speed><course>210.745636</course><hAcc>1.689375</hAcc><vAcc>0.824681</vAcc></extensions></trkpt>
      <trkpt lon="-2.214716" lat="53.112699"><ele>319.066559</ele><time>2022-03-04T12:04:12Z</time><extensions><speed>0.012447</speed><course>210.745682</course><hAcc>1.710425</hAcc><vAcc>0.824802</vAcc></extensions></trkpt>
      <trkpt lon="-2.214716" lat="53.112699"><ele>319.032135</ele><time>2022-03-04T12:04:13Z</time><extensions><speed>0.008236</speed><course>210.745712</course><hAcc>1.715075</hAcc><vAcc>0.824885</vAcc></extensions></trkpt>
      <trkpt lon="-2.214716" lat="53.112699"><ele>319.002258</ele><time>2022-03-04T12:04:14Z</time><extensions><speed>0.005330</speed><course>210.745743</course><hAcc>1.703151</hAcc><vAcc>0.824973</vAcc></extensions></trkpt>
      <trkpt lon="-2.214716" lat="53.112699"><ele>318.976624</ele><time>2022-03-04T12:04:15Z</time><extensions><speed>0.003380</speed><course>210.745773</course><hAcc>1.679383</hAcc><vAcc>0.825070</vAcc></extensions></trkpt>
      <trkpt lon="-2.214716" lat="53.112699"><ele>318.954956</ele><time>2022-03-04T12:04:16Z</time><extensions><speed>0.002091</speed><course>210.745789</course><hAcc>1.653778</hAcc><vAcc>0.825149</vAcc></extensions></trkpt>
      <trkpt lon="-2.214716" lat="53.112699"><ele>318.936951</ele><time>2022-03-04T12:04:17Z</time><extensions><speed>0.001133</speed><course>210.745804</course><hAcc>1.642537</hAcc><vAcc>0.825215</vAcc></extensions></trkpt>
      <trkpt lon="-2.214716" lat="53.112699"><ele>318.922180</ele><time>2022-03-04T12:04:18Z</time><extensions><speed>0.000629</speed><course>210.745834</course><hAcc>1.634004</hAcc><vAcc>0.825281</vAcc></extensions></trkpt>
      <trkpt lon="-2.214716" lat="53.112699"><ele>318.931519</ele><time>2022-03-04T12:04:20Z</time><extensions><speed>0.000625</speed><course>324.169647</course><hAcc>1.642157</hAcc><vAcc>0.825326</vAcc></extensions></trkpt>
      <trkpt lon="-2.214716" lat="53.112699"><ele>318.946564</ele><time>2022-03-04T12:04:21Z</time><extensions><speed>0.001680</speed><course>340.760040</course><hAcc>1.649591</hAcc><vAcc>0.825327</vAcc></extensions></trkpt>
      <trkpt lon="-2.214716" lat="53.112699"><ele>318.967010</ele><time>2022-03-04T12:04:22Z</time><extensions><speed>0.003401</speed><course>343.970276</course><hAcc>1.658466</hAcc><vAcc>0.825300</vAcc></extensions></trkpt>
      <trkpt lon="-2.214716" lat="53.112699"><ele>318.992401</ele><time>2022-03-04T12:04:23Z</time><extensions><speed>0.009272</speed><course>344.828461</course><hAcc>1.626671</hAcc><vAcc>0.825282</vAcc></extensions></trkpt>
      <trkpt lon="-2.214716" lat="53.112699"><ele>319.022461</ele><time>2022-03-04T12:04:24Z</time><extensions><speed>0.015598</speed><course>345.134338</course><hAcc>1.633170</hAcc><vAcc>0.825260</vAcc></extensions></trkpt>
      <trkpt lon="-2.214716" lat="53.112699"><ele>319.056824</ele><time>2022-03-04T12:04:25Z</time><extensions><speed>0.022965</speed><course>345.292725</course><hAcc>1.659345</hAcc><vAcc>0.825233</vAcc></extensions></trkpt>
      <trkpt lon="-2.214716" lat="53.112699"><ele>319.095032</ele><time>2022-03-04T12:04:26Z</time><extensions><speed>0.031955</speed><course>345.375824</course><hAcc>1.676271</hAcc><vAcc>0.825198</vAcc></extensions></trkpt>
      <trkpt lon="-2.214716" lat="53.112700"><ele>319.136566</ele><time>2022-03-04T12:04:27Z</time><extensions><speed>0.041303</speed><course>345.418762</course><hAcc>1.683002</hAcc><vAcc>0.825128</vAcc></extensions></trkpt>
      <trkpt lon="-2.214717" lat="53.112700"><ele>319.180725</ele><time>2022-03-04T12:04:28Z</time><extensions><speed>0.051332</speed><course>345.440552</course><hAcc>1.673591</hAcc><vAcc>0.825057</vAcc></extensions></trkpt>
      <trkpt lon="-2.214717" lat="53.112701"><ele>319.226593</ele><time>2022-03-04T12:04:29Z</time><extensions><speed>0.064373</speed><course>345.450470</course><hAcc>1.643674</hAcc><vAcc>0.824983</vAcc></extensions></trkpt>
      <trkpt lon="-2.214717" lat="53.112701"><ele>319.273041</ele><time>2022-03-04T12:04:30Z</time><extensions><speed>0.057107</speed><course>345.454468</course><hAcc>1.636490</hAcc><vAcc>0.824910</vAcc></extensions></trkpt>
      <trkpt lon="-2.214717" lat="53.112702"><ele>319.318909</ele><time>2022-03-04T12:04:31Z</time><extensions><speed>0.039179</speed><course>345.456238</course><hAcc>1.644163</hAcc><vAcc>0.824851</vAcc></extensions></trkpt>
      <trkpt lon="-2.214717" lat="53.112702"><ele>319.363098</ele><time>2022-03-04T12:04:32Z</time><extensions><speed>0.027777</speed><course>345.457153</course><hAcc>1.648850</hAcc><vAcc>0.824811</vAcc></extensions></trkpt>
      <trkpt lon="-2.214717" lat="53.112702"><ele>319.404816</ele><time>2022-03-04T12:04:33Z</time><extensions><speed>0.017827</speed><course>345.457672</course><hAcc>1.664797</hAcc><vAcc>0.824796</vAcc></extensions></trkpt>
      <trkpt lon="-2.214718" lat="53.112702"><ele>319.443573</ele><time>2022-03-04T12:04:34Z</time><extensions><speed>0.015666</speed><course>345.457916</course><hAcc>1.658505</hAcc><vAcc>0.824790</vAcc></extensions></trkpt>
      <trkpt lon="-2.214718" lat="53.112702"><ele>319.479004</ele><time>2022-03-04T12:04:35Z</time><extensions><speed>0.016169</speed><course>345.458008</course><hAcc>1.643639</hAcc><vAcc>0.824808</vAcc></extensions></trkpt>
      <trkpt lon="-2.214718" lat="53.112703"><ele>319.510956</ele><time>2022-03-04T12:04:36Z</time><extensions><speed>0.013362</speed><course>345.458069</course><hAcc>1.662932</hAcc><vAcc>0.824839</vAcc></extensions></trkpt>
      <trkpt lon="-2.214718" lat="53.112703"><ele>319.539398</ele><time>2022-03-04T12:04:37Z</time><extensions><speed>0.010156</speed><course>345.458099</course><hAcc>1.689204</hAcc><vAcc>0.824879</vAcc></extensions></trkpt>
      <trkpt lon="-2.214718" lat="53.112703"><ele>319.564362</ele><time>2022-03-04T12:04:38Z</time><extensions><speed>0.007195</speed><course>345.458099</course><hAcc>1.706485</hAcc><vAcc>0.824921</vAcc></extensions></trkpt>
      <trkpt lon="-2.214718" lat="53.112703"><ele>319.586029</ele><time>2022-03-04T12:04:39Z</time><extensions><speed>0.004772</speed><course>345.458099</course><hAcc>1.713499</hAcc><vAcc>0.824961</vAcc></extensions></trkpt>
      <trkpt lon="-2.214718" lat="53.112703"><ele>319.604553</ele><time>2022-03-04T12:04:40Z</time><extensions><speed>0.003011</speed><course>345.458130</course><hAcc>1.709022</hAcc><vAcc>0.824996</vAcc></extensions></trkpt>
      <trkpt lon="-2.214718" lat="53.112703"><ele>319.620178</ele><time>2022-03-04T12:04:41Z</time><extensions><speed>0.001913</speed><course>345.458130</course><hAcc>1.690875</hAcc><vAcc>0.825026</vAcc></extensions></trkpt>
      <trkpt lon="-2.214718" lat="53.112703"><ele>319.633179</ele><time>2022-03-04T12:04:42Z</time><extensions><speed>0.001173</speed><course>345.458130</course><hAcc>1.673207</hAcc><vAcc>0.825082</vAcc></extensions></trkpt>
      <trkpt lon="-2.214718" lat="53.112703"><ele>319.643799</ele><time>2022-03-04T12:04:43Z</time><extensions><speed>0.000656</speed><course>345.458130</course><hAcc>1.662619</hAcc><vAcc>0.825131</vAcc></extensions></trkpt>
      <trkpt lon="-2.214718" lat="53.112703"><ele>319.652313</ele><time>2022-03-04T12:04:44Z</time><extensions><speed>0.000400</speed><course>345.458160</course><hAcc>1.643460</hAcc><vAcc>0.825188</vAcc></extensions></trkpt>
      <trkpt lon="-2.214718" lat="53.112703"><ele>319.658966</ele><time>2022-03-04T12:04:45Z</time><extensions><speed>0.000227</speed><course>345.458160</course><hAcc>1.637571</hAcc><vAcc>0.825254</vAcc></extensions></trkpt>
      <trkpt lon="-2.214718" lat="53.112703"><ele>319.664032</ele><time>2022-03-04T12:04:46Z</time><extensions><speed>0.000142</speed><course>345.458160</course><hAcc>1.632233</hAcc><vAcc>0.825329</vAcc></extensions></trkpt>
      <trkpt lon="-2.214718" lat="53.112703"><ele>319.667694</ele><time>2022-03-04T12:04:47Z</time><extensions><speed>0.000091</speed><course>345.458160</course><hAcc>1.639971</hAcc><vAcc>0.825409</vAcc></extensions></trkpt>
      <trkpt lon="-2.214718" lat="53.112703"><ele>319.670258</ele><time>2022-03-04T12:04:48Z</time><extensions><speed>0.000057</speed><course>345.458160</course><hAcc>1.659077</hAcc><vAcc>0.825500</vAcc></extensions></trkpt>
      <trkpt lon="-2.214718" lat="53.112703"><ele>319.671814</ele><time>2022-03-04T12:04:49Z</time><extensions><speed>0.000047</speed><course>345.458130</course><hAcc>1.657632</hAcc><vAcc>0.825605</vAcc></extensions></trkpt>
      <trkpt lon="-2.214718" lat="53.112703"><ele>319.672638</ele><time>2022-03-04T12:04:50Z</time><extensions><speed>0.000045</speed><course>345.458130</course><hAcc>1.650696</hAcc><vAcc>0.825719</vAcc></extensions></trkpt>
      <trkpt lon="-2.214718" lat="53.112703"><ele>319.672821</ele><time>2022-03-04T12:04:51Z</time><extensions><speed>0.000036</speed><course>345.458130</course><hAcc>1.672392</hAcc><vAcc>0.825838</vAcc></extensions></trkpt>
      <trkpt lon="-2.214718" lat="53.112703"><ele>319.672729</ele><time>2022-03-04T12:04:52Z</time><extensions><speed>0.001728</speed><course>278.957428</course><hAcc>1.700120</hAcc><vAcc>0.825956</vAcc></extensions></trkpt>
      <trkpt lon="-2.214718" lat="53.112703"><ele>319.673187</ele><time>2022-03-04T12:04:53Z</time><extensions><speed>0.004215</speed><course>277.873840</course><hAcc>1.720237</hAcc><vAcc>0.826063</vAcc></extensions></trkpt>
      <trkpt lon="-2.214718" lat="53.112703"><ele>319.673523</ele><time>2022-03-04T12:04:54Z</time><extensions><speed>0.007550</speed><course>277.573914</course><hAcc>1.731276</hAcc><vAcc>0.826164</vAcc></extensions></trkpt>
      <trkpt lon="-2.214718" lat="53.112703"><ele>319.673859</ele><time>2022-03-04T12:04:55Z</time><extensions><speed>0.012347</speed><course>277.457886</course><hAcc>1.730107</hAcc><vAcc>0.826257</vAcc></extensions></trkpt>
      <trkpt lon="-2.214718" lat="53.112703"><ele>319.674225</ele><time>2022-03-04T12:04:56Z</time><extensions><speed>0.018756</speed><course>277.406738</course><hAcc>1.721998</hAcc><vAcc>0.826335</vAcc></extensions></trkpt>
      <trkpt lon="-2.214719" lat="53.112703"><ele>319.674713</ele><time>2022-03-04T12:04:57Z</time><extensions><speed>0.026702</speed><course>277.380249</course><hAcc>1.711469</hAcc><vAcc>0.826395</vAcc></extensions></trkpt>
      <trkpt lon="-2.214719" lat="53.112703"><ele>319.675323</ele><time>2022-03-04T12:04:58Z</time><extensions><speed>0.035991</speed><course>277.361786</course><hAcc>1.700151</hAcc><vAcc>0.826452</vAcc></extensions></trkpt>
      <trkpt lon="-2.214720" lat="53.112703"><ele>319.676117</ele><time>2022-03-04T12:04:59Z</time><extensions><speed>0.046443</speed><course>277.341614</course><hAcc>1.691127</hAcc><vAcc>0.826494</vAcc></extensions></trkpt>
      <trkpt lon="-2.214721" lat="53.112703"><ele>319.677063</ele><time>2022-03-04T12:05:00Z</time><extensions><speed>0.054525</speed><course>277.307953</course><hAcc>1.691992</hAcc><vAcc>0.826531</vAcc></extensions></trkpt>
      <trkpt lon="-2.214721" lat="53.112703"><ele>319.678192</ele><time>2022-03-04T12:05:01Z</time><extensions><speed>0.064182</speed><course>277.238312</course><hAcc>1.688231</hAcc><vAcc>0.826557</vAcc></extensions></trkpt>
      <trkpt lon="-2.214722" lat="53.112703"><ele>319.667236</ele><time>2022-03-04T12:05:02Z</time><extensions><speed>0.065129</speed><course>277.280914</course><hAcc>1.688895</hAcc><vAcc>0.826561</vAcc></extensions></trkpt>
      <trkpt lon="-2.214723" lat="53.112703"><ele>319.654572</ele><time>2022-03-04T12:05:03Z</time><extensions><speed>0.046841</speed><course>277.534698</course><hAcc>1.706611</hAcc><vAcc>0.826545</vAcc></extensions></trkpt>
      <trkpt lon="-2.214724" lat="53.112703"><ele>319.640106</ele><time>2022-03-04T12:05:04Z</time><extensions><speed>0.043242</speed><course>278.556885</course><hAcc>1.689540</hAcc><vAcc>0.826484</vAcc></extensions></trkpt>
      <trkpt lon="-2.214724" lat="53.112703"><ele>319.641541</ele><time>2022-03-04T12:05:05Z</time><extensions><speed>0.031292</speed><course>282.587524</course><hAcc>1.691050</hAcc><vAcc>0.826392</vAcc></extensions></trkpt>
      <trkpt lon="-2.214725" lat="53.112703"><ele>319.645447</ele><time>2022-03-04T12:05:06Z</time><extensions><speed>0.017652</speed><course>295.635010</course><hAcc>1.706517</hAcc><vAcc>0.826260</vAcc></extensions></trkpt>
      <trkpt lon="-2.214725" lat="53.112704"><ele>319.651154</ele><time>2022-03-04T12:05:07Z</time><extensions><speed>0.010070</speed><course>355.240265</course><hAcc>1.719638</hAcc><vAcc>0.826152</vAcc></extensions></trkpt>
      <trkpt lon="-2.214725" lat="53.112704"><ele>319.654022</ele><time>2022-03-04T12:05:08Z</time><extensions><speed>0.020663</speed><course>46.210728</course><hAcc>1.723272</hAcc><vAcc>0.826017</vAcc></extensions></trkpt>
      <trkpt lon="-2.214724" lat="53.112704"><ele>319.669708</ele><time>2022-03-04T12:05:09Z</time><extensions><speed>0.036378</speed><course>58.281708</course><hAcc>1.720826</hAcc><vAcc>0.825832</vAcc></extensions></trkpt>
      <trkpt lon="-2.214724" lat="53.112704"><ele>319.676971</ele><time>2022-03-04T12:05:10Z</time><extensions><speed>0.050652</speed><course>62.686344</course><hAcc>1.716766</hAcc><vAcc>0.825629</vAcc></extensions></trkpt>
      <trkpt lon="-2.214723" lat="53.112704"><ele>319.679596</ele><time>2022-03-04T12:05:11Z</time><extensions><speed>0.064677</speed><course>63.274082</course><hAcc>1.715465</hAcc><vAcc>0.825445</vAcc></extensions></trkpt>
      <trkpt lon="-2.214722" lat="53.112705"><ele>319.682587</ele><time>2022-03-04T12:05:12Z</time><extensions><speed>0.073583</speed><course>61.816349</course><hAcc>1.714354</hAcc><vAcc>0.825263</vAcc></extensions></trkpt>
      <trkpt lon="-2.214721" lat="53.112705"><ele>319.686432</ele><time>2022-03-04T12:05:13Z</time><extensions><speed>0.069925</speed><course>59.104252</course><hAcc>1.725138</hAcc><vAcc>0.825097</vAcc></extensions></trkpt>
      <trkpt lon="-2.214720" lat="53.112705"><ele>319.691040</ele><time>2022-03-04T12:05:14Z</time><extensions><speed>0.069482</speed><course>56.700226</course><hAcc>1.723752</hAcc><vAcc>0.824957</vAcc></extensions></trkpt>
      <trkpt lon="-2.214719" lat="53.112706"><ele>319.695923</ele><time>2022-03-04T12:05:15Z</time><extensions><speed>0.062703</speed><course>56.611446</course><hAcc>1.711034</hAcc><vAcc>0.824851</vAcc></extensions></trkpt>
      <trkpt lon="-2.214719" lat="53.112706"><ele>319.700409</ele><time>2022-03-04T12:05:15Z</time><extensions><speed>0.030921</speed><course>70.233589</course><hAcc>1.714095</hAcc><vAcc>0.824791</vAcc></extensions></trkpt>
      <trkpt lon="-2.214719" lat="53.112706"><ele>319.703857</ele><time>2022-03-04T12:05:16Z</time><extensions><speed>0.038631</speed><course>184.406799</course><hAcc>1.715451</hAcc><vAcc>0.824782</vAcc></extensions></trkpt>
      <trkpt lon="-2.214719" lat="53.112705"><ele>319.705780</ele><time>2022-03-04T12:05:17Z</time><extensions><speed>0.132345</speed><course>201.348358</course><hAcc>1.709731</hAcc><vAcc>0.824812</vAcc></extensions></trkpt>
      <trkpt lon="-2.214720" lat="53.112703"><ele>319.705902</ele><time>2022-03-04T12:05:18Z</time><extensions><speed>0.268523</speed><course>203.845413</course><hAcc>1.712606</hAcc><vAcc>0.824877</vAcc></extensions></trkpt>
      <trkpt lon="-2.214721" lat="53.112702"><ele>319.704193</ele><time>2022-03-04T12:05:19Z</time><extensions><speed>0.051113</speed><course>198.458984</course><hAcc>1.729370</hAcc><vAcc>0.824971</vAcc></extensions></trkpt>
      <trkpt lon="-2.214721" lat="53.112702"><ele>319.700928</ele><time>2022-03-04T12:05:20Z</time><extensions><speed>0.035229</speed><course>40.982899</course><hAcc>1.706613</hAcc><vAcc>0.825091</vAcc></extensions></trkpt>
      <trkpt lon="-2.214721" lat="53.112702"><ele>319.696442</ele><time>2022-03-04T12:05:21Z</time><extensions><speed>0.059049</speed><course>33.170219</course><hAcc>1.681197</hAcc><vAcc>0.825221</vAcc></extensions></trkpt>
      <trkpt lon="-2.214720" lat="53.112703"><ele>319.691162</ele><time>2022-03-04T12:05:22Z</time><extensions><speed>0.055350</speed><course>31.516024</course><hAcc>1.669527</hAcc><vAcc>0.825347</vAcc></extensions></trkpt>
      <trkpt lon="-2.214720" lat="53.112703"><ele>319.685425</ele><time>2022-03-04T12:05:23Z</time><extensions><speed>0.040651</speed><course>30.773462</course><hAcc>1.670679</hAcc><vAcc>0.825461</vAcc></extensions></trkpt>
      <trkpt lon="-2.214720" lat="53.112703"><ele>319.679443</ele><time>2022-03-04T12:05:24Z</time><extensions><speed>0.028101</speed><course>30.337440</course><hAcc>1.669687</hAcc><vAcc>0.825561</vAcc></extensions></trkpt>
      <trkpt lon="-2.214719" lat="53.112703"><ele>319.684662</ele><time>2022-03-04T12:05:25Z</time><extensions><speed>0.018297</speed><course>34.681889</course><hAcc>1.669101</hAcc><vAcc>0.825647</vAcc></extensions></trkpt>
      <trkpt lon="-2.214719" lat="53.112703"><ele>319.695007</ele><time>2022-03-04T12:05:26Z</time><extensions><speed>0.010892</speed><course>48.120373</course><hAcc>1.678028</hAcc><vAcc>0.825724</vAcc></extensions></trkpt>
      <trkpt lon="-2.214719" lat="53.112704"><ele>319.695892</ele><time>2022-03-04T12:05:27Z</time><extensions><speed>0.007284</speed><course>88.951683</course><hAcc>1.689226</hAcc><vAcc>0.825770</vAcc></extensions></trkpt>
      <trkpt lon="-2.214719" lat="53.112703"><ele>319.700409</ele><time>2022-03-04T12:05:28Z</time><extensions><speed>0.013775</speed><course>131.384979</course><hAcc>1.672866</hAcc><vAcc>0.825797</vAcc></extensions></trkpt>
      <trkpt lon="-2.214719" lat="53.112703"><ele>319.702759</ele><time>2022-03-04T12:05:29Z</time><extensions><speed>0.024563</speed><course>146.034805</course><hAcc>1.680418</hAcc><vAcc>0.825750</vAcc></extensions></trkpt>
      <trkpt lon="-2.214718" lat="53.112703"><ele>319.695221</ele><time>2022-03-04T12:05:30Z</time><extensions><speed>0.039421</speed><course>153.223679</course><hAcc>1.704030</hAcc><vAcc>0.825676</vAcc></extensions></trkpt>
      <trkpt lon="-2.214718" lat="53.112703"><ele>319.689667</ele><time>2022-03-04T12:05:31Z</time><extensions><speed>0.059558</speed><course>156.240036</course><hAcc>1.722407</hAcc><vAcc>0.825596</vAcc></extensions></trkpt>
      <trkpt lon="-2.214718" lat="53.112702"><ele>319.700592</ele><time>2022-03-04T12:05:32Z</time><extensions><speed>0.084723</speed><course>157.051147</course><hAcc>1.735390</hAcc><vAcc>0.825502</vAcc></extensions></trkpt>
      <trkpt lon="-2.214717" lat="53.112701"><ele>319.713135</ele><time>2022-03-04T12:05:33Z</time><extensions><speed>0.113969</speed><course>157.200104</course><hAcc>1.742052</hAcc><vAcc>0.825396</vAcc></extensions></trkpt>
      <trkpt lon="-2.214716" lat="53.112700"><ele>319.727020</ele><time>2022-03-04T12:05:34Z</time><extensions><speed>0.137595</speed><course>156.928955</course><hAcc>1.744807</hAcc><vAcc>0.825280</vAcc></extensions></trkpt>
      <trkpt lon="-2.214716" lat="53.112699"><ele>319.758514</ele><time>2022-03-04T12:05:35Z</time><extensions><speed>0.138313</speed><course>155.400269</course><hAcc>1.743360</hAcc><vAcc>0.825158</vAcc></extensions></trkpt>
      <trkpt lon="-2.214715" lat="53.112698"><ele>319.783844</ele><time>2022-03-04T12:05:36Z</time><extensions><speed>0.104917</speed><course>150.968582</course><hAcc>1.745617</hAcc><vAcc>0.825002</vAcc></extensions></trkpt>
      <trkpt lon="-2.214714" lat="53.112697"><ele>319.810791</ele><time>2022-03-04T12:05:37Z</time><extensions><speed>0.072924</speed><course>141.135727</course><hAcc>1.742781</hAcc><vAcc>0.824835</vAcc></extensions></trkpt>
      <trkpt lon="-2.214713" lat="53.112697"><ele>319.839447</ele><time>2022-03-04T12:05:38Z</time><extensions><speed>0.054272</speed><course>126.781708</course><hAcc>1.736663</hAcc><vAcc>0.824659</vAcc></extensions></trkpt>
      <trkpt lon="-2.214713" lat="53.112697"><ele>319.869934</ele><time>2022-03-04T12:05:39Z</time><extensions><speed>0.053232</speed><course>115.408127</course><hAcc>1.722399</hAcc><vAcc>0.824489</vAcc></extensions></trkpt>
      <trkpt lon="-2.214712" lat="53.112697"><ele>319.902344</ele><time>2022-03-04T12:05:40Z</time><extensions><speed>0.064442</speed><course>107.401512</course><hAcc>1.703840</hAcc><vAcc>0.824327</vAcc></extensions></trkpt>
      <trkpt lon="-2.214711" lat="53.112696"><ele>319.936584</ele><time>2022-03-04T12:05:41Z</time><extensions><speed>0.080069</speed><course>103.245468</course><hAcc>1.694873</hAcc><vAcc>0.824195</vAcc></extensions></trkpt>
      <trkpt lon="-2.214710" lat="53.112696"><ele>319.972168</ele><time>2022-03-04T12:05:42Z</time><extensions><speed>0.077715</speed><course>103.816643</course><hAcc>1.711109</hAcc><vAcc>0.824069</vAcc></extensions></trkpt>
      <trkpt lon="-2.214708" lat="53.112696"><ele>320.008240</ele><time>2022-03-04T12:05:43Z</time><extensions><speed>0.075815</speed><course>105.484253</course><hAcc>1.720832</hAcc><vAcc>0.823932</vAcc></extensions></trkpt>
      <trkpt lon="-2.214707" lat="53.112696"><ele>320.043945</ele><time>2022-03-04T12:05:44Z</time><extensions><speed>0.078281</speed><course>107.366104</course><hAcc>1.719755</hAcc><vAcc>0.823784</vAcc></extensions></trkpt>
      <trkpt lon="-2.214706" lat="53.112696"><ele>320.078400</ele><time>2022-03-04T12:05:45Z</time><extensions><speed>0.089696</speed><course>108.786613</course><hAcc>1.697770</hAcc><vAcc>0.823622</vAcc></extensions></trkpt>
      <trkpt lon="-2.214705" lat="53.112695"><ele>320.110901</ele><time>2022-03-04T12:05:46Z</time><extensions><speed>0.076792</speed><course>109.625748</course><hAcc>1.701132</hAcc><vAcc>0.823454</vAcc></extensions></trkpt>
      <trkpt lon="-2.214704" lat="53.112695"><ele>320.140961</ele><time>2022-03-04T12:05:47Z</time><extensions><speed>0.058708</speed><course>110.002052</course><hAcc>1.718732</hAcc><vAcc>0.823291</vAcc></extensions></trkpt>
      <trkpt lon="-2.214703" lat="53.112695"><ele>320.168396</ele><time>2022-03-04T12:05:48Z</time><extensions><speed>0.041593</speed><course>110.247826</course><hAcc>1.734015</hAcc><vAcc>0.823143</vAcc></extensions></trkpt>
      <trkpt lon="-2.214703" lat="53.112695"><ele>320.193024</ele><time>2022-03-04T12:05:49Z</time><extensions><speed>0.028180</speed><course>110.428978</course><hAcc>1.740266</hAcc><vAcc>0.823018</vAcc></extensions></trkpt>
      <trkpt lon="-2.214702" lat="53.112695"><ele>320.214874</ele><time>2022-03-04T12:05:50Z</time><extensions><speed>0.018495</speed><course>110.573059</course><hAcc>1.738251</hAcc><vAcc>0.822915</vAcc></extensions></trkpt>
      <trkpt lon="-2.214702" lat="53.112695"><ele>320.234009</ele><time>2022-03-04T12:05:51Z</time><extensions><speed>0.011740</speed><course>110.694382</course><hAcc>1.731712</hAcc><vAcc>0.822840</vAcc></extensions></trkpt>
      <trkpt lon="-2.214702" lat="53.112695"><ele>320.250549</ele><time>2022-03-04T12:05:52Z</time><extensions><speed>0.007091</speed><course>110.803345</course><hAcc>1.721951</hAcc><vAcc>0.822784</vAcc></extensions></trkpt>
      <trkpt lon="-2.214702" lat="53.112695"><ele>320.264679</ele><time>2022-03-04T12:05:53Z</time><extensions><speed>0.004332</speed><course>110.905563</course><hAcc>1.701800</hAcc><vAcc>0.822765</vAcc></extensions></trkpt>
      <trkpt lon="-2.214702" lat="53.112695"><ele>320.276520</ele><time>2022-03-04T12:05:54Z</time><extensions><speed>0.002550</speed><course>111.001244</course><hAcc>1.679750</hAcc><vAcc>0.822762</vAcc></extensions></trkpt>
      <trkpt lon="-2.214702" lat="53.112695"><ele>320.286346</ele><time>2022-03-04T12:05:55Z</time><extensions><speed>0.001456</speed><course>111.093384</course><hAcc>1.657510</hAcc><vAcc>0.822782</vAcc></extensions></trkpt>
      <trkpt lon="-2.214702" lat="53.112695"><ele>320.294312</ele><time>2022-03-04T12:05:56Z</time><extensions><speed>0.000830</speed><course>111.180161</course><hAcc>1.641270</hAcc><vAcc>0.822819</vAcc></extensions></trkpt>
      <trkpt lon="-2.214702" lat="53.112695"><ele>320.300659</ele><time>2022-03-04T12:05:57Z</time><extensions><speed>0.000403</speed><course>111.262337</course><hAcc>1.647568</hAcc><vAcc>0.822893</vAcc></extensions></trkpt>
      <trkpt lon="-2.214702" lat="53.112695"><ele>320.305603</ele><time>2022-03-04T12:05:58Z</time><extensions><speed>0.000227</speed><course>111.341080</course><hAcc>1.645623</hAcc><vAcc>0.822990</vAcc></extensions></trkpt>
      <trkpt lon="-2.214702" lat="53.112695"><ele>320.309326</ele><time>2022-03-04T12:05:59Z</time><extensions><speed>0.000143</speed><course>111.400078</course><hAcc>1.640552</hAcc><vAcc>0.823107</vAcc></extensions></trkpt>
      <trkpt lon="-2.214702" lat="53.112695"><ele>320.312012</ele><time>2022-03-04T12:06:00Z</time><extensions><speed>0.000128</speed><course>111.432938</course><hAcc>1.629215</hAcc><vAcc>0.823241</vAcc></extensions></trkpt>
      <trkpt lon="-2.214702" lat="53.112695"><ele>320.313812</ele><time>2022-03-04T12:06:01Z</time><extensions><speed>0.000074</speed><course>111.449516</course><hAcc>1.667987</hAcc><vAcc>0.823387</vAcc></extensions></trkpt>
      <trkpt lon="-2.214702" lat="53.112695"><ele>320.314880</ele><time>2022-03-04T12:06:02Z</time><extensions><speed>0.000074</speed><course>111.459702</course><hAcc>1.655363</hAcc><vAcc>0.823542</vAcc></extensions></trkpt>
      <trkpt lon="-2.214702" lat="53.112695"><ele>320.315369</ele><time>2022-03-04T12:06:03Z</time><extensions><speed>0.000060</speed><course>111.464111</course><hAcc>1.666217</hAcc><vAcc>0.823707</vAcc></extensions></trkpt>
      <trkpt lon="-2.214702" lat="53.112695"><ele>320.315430</ele><time>2022-03-04T12:06:04Z</time><extensions><speed>0.000044</speed><course>111.466682</course><hAcc>1.690872</hAcc><vAcc>0.823878</vAcc></extensions></trkpt>
      <trkpt lon="-2.214702" lat="53.112695"><ele>320.315094</ele><time>2022-03-04T12:06:05Z</time><extensions><speed>0.000031</speed><course>111.468430</course><hAcc>1.706843</hAcc><vAcc>0.824048</vAcc></extensions></trkpt>
      <trkpt lon="-2.214702" lat="53.112695"><ele>320.314514</ele><time>2022-03-04T12:06:06Z</time><extensions><speed>0.000022</speed><course>111.469749</course><hAcc>1.707893</hAcc><vAcc>0.824208</vAcc></extensions></trkpt>
      <trkpt lon="-2.214702" lat="53.112695"><ele>320.313721</ele><time>2022-03-04T12:06:07Z</time><extensions><speed>0.000014</speed><course>111.470856</course><hAcc>1.699648</hAcc><vAcc>0.824358</vAcc></extensions></trkpt>
      <trkpt lon="-2.214702" lat="53.112695"><ele>320.312805</ele><time>2022-03-04T12:06:08Z</time><extensions><speed>0.000009</speed><course>111.471970</course><hAcc>1.685235</hAcc><vAcc>0.824496</vAcc></extensions></trkpt>
      <trkpt lon="-2.214702" lat="53.112695"><ele>320.311829</ele><time>2022-03-04T12:06:09Z</time><extensions><speed>0.000005</speed><course>111.473198</course><hAcc>1.666767</hAcc><vAcc>0.824614</vAcc></extensions></trkpt>
      <trkpt lon="-2.214702" lat="53.112695"><ele>320.310822</ele><time>2022-03-04T12:06:10Z</time><extensions><speed>0.000003</speed><course>111.474571</course><hAcc>1.652492</hAcc><vAcc>0.824711</vAcc></extensions></trkpt>
      <trkpt lon="-2.214702" lat="53.112695"><ele>320.309814</ele><time>2022-03-04T12:06:11Z</time><extensions><speed>0.000002</speed><course>111.476219</course><hAcc>1.648484</hAcc><vAcc>0.824786</vAcc></extensions></trkpt>
      <trkpt lon="-2.214702" lat="53.112695"><ele>320.308838</ele><time>2022-03-04T12:06:12Z</time><extensions><speed>0.000001</speed><course>111.478088</course><hAcc>1.637041</hAcc><vAcc>0.824850</vAcc></extensions></trkpt>
      <trkpt lon="-2.214702" lat="53.112695"><ele>320.307892</ele><time>2022-03-04T12:06:13Z</time><extensions><speed>0.000001</speed><course>111.479477</course><hAcc>1.640676</hAcc><vAcc>0.824898</vAcc></extensions></trkpt>
      <trkpt lon="-2.214702" lat="53.112695"><ele>320.307007</ele><time>2022-03-04T12:06:14Z</time><extensions><speed>0.000000</speed><course>111.478958</course><hAcc>1.656893</hAcc><vAcc>0.824934</vAcc></extensions></trkpt>
      <trkpt lon="-2.214702" lat="53.112695"><ele>320.306213</ele><time>2022-03-04T12:06:15Z</time><extensions><speed>0.000000</speed><course>111.473274</course><hAcc>1.661564</hAcc><vAcc>0.824966</vAcc></extensions></trkpt>
      <trkpt lon="-2.214702" lat="53.112695"><ele>320.305481</ele><time>2022-03-04T12:06:16Z</time><extensions><speed>0.000000</speed><course>111.462517</course><hAcc>1.646518</hAcc><vAcc>0.824992</vAcc></extensions></trkpt>
      <trkpt lon="-2.214702" lat="53.112695"><ele>320.304840</ele><time>2022-03-04T12:06:17Z</time><extensions><speed>0.000000</speed><course>111.450813</course><hAcc>1.663131</hAcc><vAcc>0.825016</vAcc></extensions></trkpt>
      <trkpt lon="-2.214702" lat="53.112695"><ele>320.271881</ele><time>2022-03-04T12:06:18Z</time><extensions><speed>0.004008</speed><course>277.117981</course><hAcc>1.690902</hAcc><vAcc>0.825025</vAcc></extensions></trkpt>
      <trkpt lon="-2.214702" lat="53.112695"><ele>320.234253</ele><time>2022-03-04T12:06:19Z</time><extensions><speed>0.009485</speed><course>277.118408</course><hAcc>1.707969</hAcc><vAcc>0.825032</vAcc></extensions></trkpt>
      <trkpt lon="-2.214703" lat="53.112695"><ele>320.193420</ele><time>2022-03-04T12:06:20Z</time><extensions><speed>0.017187</speed><course>271.152161</course><hAcc>1.713604</hAcc><vAcc>0.825028</vAcc></extensions></trkpt>
      <trkpt lon="-2.214703" lat="53.112695"><ele>320.144379</ele><time>2022-03-04T12:06:21Z</time><extensions><speed>0.026897</speed><course>269.836609</course><hAcc>1.712081</hAcc><vAcc>0.825029</vAcc></extensions></trkpt>
      <trkpt lon="-2.214703" lat="53.112695"><ele>320.090363</ele><time>2022-03-04T12:06:22Z</time><extensions><speed>0.039276</speed><course>269.256927</course><hAcc>1.702279</hAcc><vAcc>0.825022</vAcc></extensions></trkpt>
      <trkpt lon="-2.214704" lat="53.112695"><ele>320.031464</ele><time>2022-03-04T12:06:23Z</time><extensions><speed>0.054372</speed><course>268.931274</course><hAcc>1.688419</hAcc><vAcc>0.825002</vAcc></extensions></trkpt>
      <trkpt lon="-2.214705" lat="53.112695"><ele>319.968048</ele><time>2022-03-04T12:06:24Z</time><extensions><speed>0.071443</speed><course>268.709290</course><hAcc>1.672673</hAcc><vAcc>0.824981</vAcc></extensions></trkpt>
      <trkpt lon="-2.214706" lat="53.112695"><ele>319.900482</ele><time>2022-03-04T12:06:26Z</time><extensions><speed>0.094437</speed><course>268.474854</course><hAcc>1.651412</hAcc><vAcc>0.824946</vAcc></extensions></trkpt>
      <trkpt lon="-2.214708" lat="53.112695"><ele>319.829773</ele><time>2022-03-04T12:06:27Z</time><extensions><speed>0.108763</speed><course>268.096161</course><hAcc>1.647272</hAcc><vAcc>0.824884</vAcc></extensions></trkpt>
      <trkpt lon="-2.214710" lat="53.112695"><ele>319.756927</ele><time>2022-03-04T12:06:28Z</time><extensions><speed>0.114676</speed><course>267.201569</course><hAcc>1.658350</hAcc><vAcc>0.824815</vAcc></extensions></trkpt>
      <trkpt lon="-2.214711" lat="53.112695"><ele>319.683441</ele><time>2022-03-04T12:06:29Z</time><extensions><speed>0.102274</speed><course>264.183502</course><hAcc>1.666055</hAcc><vAcc>0.824739</vAcc></extensions></trkpt>
      <trkpt lon="-2.214713" lat="53.112694"><ele>319.611084</ele><time>2022-03-04T12:06:30Z</time><extensions><speed>0.136454</speed><course>259.784363</course><hAcc>1.617059</hAcc><vAcc>0.824665</vAcc></extensions></trkpt>
      <trkpt lon="-2.214715" lat="53.112694"><ele>319.541321</ele><time>2022-03-04T12:06:31Z</time><extensions><speed>0.122961</speed><course>257.309387</course><hAcc>1.601568</hAcc><vAcc>0.824593</vAcc></extensions></trkpt>
      <trkpt lon="-2.214716" lat="53.112694"><ele>319.479004</ele><time>2022-03-04T12:06:32Z</time><extensions><speed>0.084097</speed><course>256.784363</course><hAcc>1.618599</hAcc><vAcc>0.824511</vAcc></extensions></trkpt>
      <trkpt lon="-2.214718" lat="53.112694"><ele>319.425201</ele><time>2022-03-04T12:06:33Z</time><extensions><speed>0.060171</speed><course>255.632553</course><hAcc>1.622354</hAcc><vAcc>0.824438</vAcc></extensions></trkpt>
      <trkpt lon="-2.214718" lat="53.112694"><ele>319.377655</ele><time>2022-03-04T12:06:34Z</time><extensions><speed>0.036751</speed><course>253.148407</course><hAcc>1.632784</hAcc><vAcc>0.824361</vAcc></extensions></trkpt>
      <trkpt lon="-2.214719" lat="53.112693"><ele>319.340515</ele><time>2022-03-04T12:06:35Z</time><extensions><speed>0.027325</speed><course>247.124512</course><hAcc>1.624991</hAcc><vAcc>0.824275</vAcc></extensions></trkpt>
      <trkpt lon="-2.214719" lat="53.112693"><ele>319.310577</ele><time>2022-03-04T12:06:36Z</time><extensions><speed>0.018579</speed><course>235.154999</course><hAcc>1.633349</hAcc><vAcc>0.824163</vAcc></extensions></trkpt>
      <trkpt lon="-2.214719" lat="53.112693"><ele>319.287689</ele><time>2022-03-04T12:06:37Z</time><extensions><speed>0.015482</speed><course>212.640015</course><hAcc>1.645541</hAcc><vAcc>0.824042</vAcc></extensions></trkpt>
      <trkpt lon="-2.214719" lat="53.112693"><ele>319.271576</ele><time>2022-03-04T12:06:38Z</time><extensions><speed>0.015705</speed><course>182.857605</course><hAcc>1.667656</hAcc><vAcc>0.823901</vAcc></extensions></trkpt>
      <trkpt lon="-2.214719" lat="53.112693"><ele>319.261871</ele><time>2022-03-04T12:06:39Z</time><extensions><speed>0.028098</speed><course>163.568787</course><hAcc>1.649409</hAcc><vAcc>0.823752</vAcc></extensions></trkpt>
      <trkpt lon="-2.214719" lat="53.112693"><ele>319.258026</ele><time>2022-03-04T12:06:40Z</time><extensions><speed>0.037341</speed><course>153.196304</course><hAcc>1.650523</hAcc><vAcc>0.823596</vAcc></extensions></trkpt>
      <trkpt lon="-2.214719" lat="53.112692"><ele>319.259430</ele><time>2022-03-04T12:06:41Z</time><extensions><speed>0.039271</speed><course>143.398804</course><hAcc>1.660398</hAcc><vAcc>0.823431</vAcc></extensions></trkpt>
      <trkpt lon="-2.214718" lat="53.112692"><ele>319.265320</ele><time>2022-03-04T12:06:42Z</time><extensions><speed>0.037549</speed><course>130.806824</course><hAcc>1.667540</hAcc><vAcc>0.823254</vAcc></extensions></trkpt>
      <trkpt lon="-2.214718" lat="53.112692"><ele>319.274780</ele><time>2022-03-04T12:06:43Z</time><extensions><speed>0.035555</speed><course>118.928215</course><hAcc>1.685676</hAcc><vAcc>0.823073</vAcc></extensions></trkpt>
      <trkpt lon="-2.214717" lat="53.112692"><ele>319.286987</ele><time>2022-03-04T12:06:44Z</time><extensions><speed>0.035639</speed><course>111.118797</course><hAcc>1.698989</hAcc><vAcc>0.822888</vAcc></extensions></trkpt>
      <trkpt lon="-2.214717" lat="53.112692"><ele>319.301056</ele><time>2022-03-04T12:06:45Z</time><extensions><speed>0.036427</speed><course>107.729195</course><hAcc>1.690226</hAcc><vAcc>0.822697</vAcc></extensions></trkpt>
      <trkpt lon="-2.214716" lat="53.112692"><ele>319.316223</ele><time>2022-03-04T12:06:46Z</time><extensions><speed>0.036075</speed><course>106.621048</course><hAcc>1.674608</hAcc><vAcc>0.822516</vAcc></extensions></trkpt>
      <trkpt lon="-2.214716" lat="53.112692"><ele>319.331848</ele><time>2022-03-04T12:06:47Z</time><extensions><speed>0.024693</speed><course>106.135384</course><hAcc>1.696283</hAcc><vAcc>0.822344</vAcc></extensions></trkpt>
      <trkpt lon="-2.214715" lat="53.112691"><ele>319.347382</ele><time>2022-03-04T12:06:48Z</time><extensions><speed>0.021961</speed><course>105.854729</course><hAcc>1.687180</hAcc><vAcc>0.822190</vAcc></extensions></trkpt>
      <trkpt lon="-2.214715" lat="53.112691"><ele>319.362457</ele><time>2022-03-04T12:06:49Z</time><extensions><speed>0.016772</speed><course>105.711548</course><hAcc>1.691987</hAcc><vAcc>0.822054</vAcc></extensions></trkpt>
      <trkpt lon="-2.214715" lat="53.112691"><ele>319.376801</ele><time>2022-03-04T12:06:50Z</time><extensions><speed>0.012018</speed><course>105.620949</course><hAcc>1.701669</hAcc><vAcc>0.821940</vAcc></extensions></trkpt>
      <trkpt lon="-2.214715" lat="53.112691"><ele>319.390198</ele><time>2022-03-04T12:06:51Z</time><extensions><speed>0.008277</speed><course>105.557198</course><hAcc>1.701761</hAcc><vAcc>0.821873</vAcc></extensions></trkpt>
      <trkpt lon="-2.214715" lat="53.112691"><ele>319.402496</ele><time>2022-03-04T12:06:52Z</time><extensions><speed>0.005666</speed><course>105.509819</course><hAcc>1.688030</hAcc><vAcc>0.821831</vAcc></extensions></trkpt>
      <trkpt lon="-2.214715" lat="53.112691"><ele>319.413605</ele><time>2022-03-04T12:06:53Z</time><extensions><speed>0.003680</speed><course>105.473701</course><hAcc>1.673191</hAcc><vAcc>0.821811</vAcc></extensions></trkpt>
      <trkpt lon="-2.214715" lat="53.112691"><ele>319.423553</ele><time>2022-03-04T12:06:54Z</time><extensions><speed>0.002178</speed><course>105.444359</course><hAcc>1.669403</hAcc><vAcc>0.821797</vAcc></extensions></trkpt>
      <trkpt lon="-2.214715" lat="53.112691"><ele>319.432343</ele><time>2022-03-04T12:06:55Z</time><extensions><speed>0.001153</speed><course>105.417969</course><hAcc>1.672692</hAcc><vAcc>0.821795</vAcc></extensions></trkpt>
      <trkpt lon="-2.214715" lat="53.112691"><ele>319.439972</ele><time>2022-03-04T12:06:56Z</time><extensions><speed>0.000727</speed><course>105.394661</course><hAcc>1.658342</hAcc><vAcc>0.821804</vAcc></extensions></trkpt>
      <trkpt lon="-2.214715" lat="53.112691"><ele>319.446503</ele><time>2022-03-04T12:06:57Z</time><extensions><speed>0.000468</speed><course>105.377983</course><hAcc>1.648345</hAcc><vAcc>0.821833</vAcc></extensions></trkpt>
      <trkpt lon="-2.214715" lat="53.112691"><ele>319.452057</ele><time>2022-03-04T12:06:58Z</time><extensions><speed>0.000345</speed><course>105.367218</course><hAcc>1.638375</hAcc><vAcc>0.821871</vAcc></extensions></trkpt>
      <trkpt lon="-2.214715" lat="53.112691"><ele>319.456696</ele><time>2022-03-04T12:06:59Z</time><extensions><speed>0.000235</speed><course>105.360909</course><hAcc>1.646300</hAcc><vAcc>0.821922</vAcc></extensions></trkpt>
      <trkpt lon="-2.214715" lat="53.112691"><ele>319.460510</ele><time>2022-03-04T12:07:00Z</time><extensions><speed>0.000170</speed><course>105.357048</course><hAcc>1.654989</hAcc><vAcc>0.821984</vAcc></extensions></trkpt>
      <trkpt lon="-2.214715" lat="53.112691"><ele>319.463562</ele><time>2022-03-04T12:07:01Z</time><extensions><speed>0.000124</speed><course>105.354805</course><hAcc>1.667736</hAcc><vAcc>0.822051</vAcc></extensions></trkpt>
      <trkpt lon="-2.214715" lat="53.112691"><ele>319.465973</ele><time>2022-03-04T12:07:02Z</time><extensions><speed>0.000091</speed><course>105.353477</course><hAcc>1.684601</hAcc><vAcc>0.822121</vAcc></extensions></trkpt>
      <trkpt lon="-2.214715" lat="53.112691"><ele>319.467834</ele><time>2022-03-04T12:07:03Z</time><extensions><speed>0.000069</speed><course>105.352684</course><hAcc>1.695302</hAcc><vAcc>0.822186</vAcc></extensions></trkpt>
      <trkpt lon="-2.214715" lat="53.112691"><ele>319.469208</ele><time>2022-03-04T12:07:04Z</time><extensions><speed>0.000055</speed><course>105.352211</course><hAcc>1.701058</hAcc><vAcc>0.822219</vAcc></extensions></trkpt>
      <trkpt lon="-2.214715" lat="53.112691"><ele>319.470154</ele><time>2022-03-04T12:07:05Z</time><extensions><speed>0.000040</speed><course>105.351906</course><hAcc>1.716871</hAcc><vAcc>0.822259</vAcc></extensions></trkpt>
      <trkpt lon="-2.214715" lat="53.112691"><ele>319.470764</ele><time>2022-03-04T12:07:06Z</time><extensions><speed>0.000028</speed><course>105.351662</course><hAcc>1.733406</hAcc><vAcc>0.822298</vAcc></extensions></trkpt>
      <trkpt lon="-2.214715" lat="53.112691"><ele>319.471100</ele><time>2022-03-04T12:07:07Z</time><extensions><speed>0.000018</speed><course>105.351448</course><hAcc>1.743392</hAcc><vAcc>0.822336</vAcc></extensions></trkpt>
      <trkpt lon="-2.214715" lat="53.112691"><ele>319.471222</ele><time>2022-03-04T12:07:08Z</time><extensions><speed>0.000012</speed><course>105.351265</course><hAcc>1.745664</hAcc><vAcc>0.822370</vAcc></extensions></trkpt>
      <trkpt lon="-2.214715" lat="53.112691"><ele>319.471161</ele><time>2022-03-04T12:07:09Z</time><extensions><speed>0.000007</speed><course>105.351158</course><hAcc>1.744313</hAcc><vAcc>0.822402</vAcc></extensions></trkpt>
      <trkpt lon="-2.214715" lat="53.112691"><ele>319.456390</ele><time>2022-03-04T12:07:10Z</time><extensions><speed>0.005194</speed><course>2.794641</course><hAcc>1.742217</hAcc><vAcc>0.822444</vAcc></extensions></trkpt>
      <trkpt lon="-2.214715" lat="53.112692"><ele>319.439362</ele><time>2022-03-04T12:07:11Z</time><extensions><speed>0.011693</speed><course>2.759768</course><hAcc>1.736426</hAcc><vAcc>0.822495</vAcc></extensions></trkpt>
      <trkpt lon="-2.214715" lat="53.112692"><ele>319.420044</ele><time>2022-03-04T12:07:12Z</time><extensions><speed>0.020489</speed><course>2.751715</course><hAcc>1.721936</hAcc><vAcc>0.822548</vAcc></extensions></trkpt>
      <trkpt lon="-2.214714" lat="53.112692"><ele>319.398468</ele><time>2022-03-04T12:07:13Z</time><extensions><speed>0.030965</speed><course>2.749156</course><hAcc>1.707793</hAcc><vAcc>0.822592</vAcc></extensions></trkpt>
      <trkpt lon="-2.214714" lat="53.112692"><ele>319.374695</ele><time>2022-03-04T12:07:14Z</time><extensions><speed>0.043319</speed><course>2.748206</course><hAcc>1.696893</hAcc><vAcc>0.822631</vAcc></extensions></trkpt>
      <trkpt lon="-2.214714" lat="53.112693"><ele>319.357178</ele><time>2022-03-04T12:07:15Z</time><extensions><speed>0.056051</speed><course>2.305510</course><hAcc>1.695361</hAcc><vAcc>0.822678</vAcc></extensions></trkpt>
      <trkpt lon="-2.214714" lat="53.112693"><ele>319.340881</ele><time>2022-03-04T12:07:16Z</time><extensions><speed>0.070312</speed><course>2.016526</course><hAcc>1.698996</hAcc><vAcc>0.822757</vAcc></extensions></trkpt>
      <trkpt lon="-2.214714" lat="53.112694"><ele>319.320770</ele><time>2022-03-04T12:07:17Z</time><extensions><speed>0.101275</speed><course>1.754092</course><hAcc>1.688734</hAcc><vAcc>0.822840</vAcc></extensions></trkpt>
      <trkpt lon="-2.214714" lat="53.112695"><ele>319.300323</ele><time>2022-03-04T12:07:18Z</time><extensions><speed>0.129396</speed><course>1.486357</course><hAcc>1.693862</hAcc><vAcc>0.822937</vAcc></extensions></trkpt>
      <trkpt lon="-2.214714" lat="53.112696"><ele>319.280029</ele><time>2022-03-04T12:07:19Z</time><extensions><speed>0.152281</speed><course>1.038373</course><hAcc>1.704694</hAcc><vAcc>0.823037</vAcc></extensions></trkpt>
      <trkpt lon="-2.214714" lat="53.112698"><ele>319.260498</ele><time>2022-03-04T12:07:19Z</time><extensions><speed>0.178709</speed><course>0.060826</course><hAcc>1.693383</hAcc><vAcc>0.823142</vAcc></extensions></trkpt>
      <trkpt lon="-2.214714" lat="53.112699"><ele>319.242462</ele><time>2022-03-04T12:07:20Z</time><extensions><speed>0.152453</speed><course>357.909210</course><hAcc>1.697613</hAcc><vAcc>0.823253</vAcc></extensions></trkpt>
      <trkpt lon="-2.214714" lat="53.112701"><ele>319.226410</ele><time>2022-03-04T12:07:21Z</time><extensions><speed>0.107875</speed><course>353.151642</course><hAcc>1.714400</hAcc><vAcc>0.823362</vAcc></extensions></trkpt>
      <trkpt lon="-2.214715" lat="53.112701"><ele>319.212677</ele><time>2022-03-04T12:07:22Z</time><extensions><speed>0.068017</speed><course>341.961823</course><hAcc>1.727908</hAcc><vAcc>0.823459</vAcc></extensions></trkpt>
      <trkpt lon="-2.214715" lat="53.112702"><ele>319.201294</ele><time>2022-03-04T12:07:23Z</time><extensions><speed>0.040946</speed><course>316.453857</course><hAcc>1.739138</hAcc><vAcc>0.823549</vAcc></extensions></trkpt>
      <trkpt lon="-2.214716" lat="53.112702"><ele>319.192078</ele><time>2022-03-04T12:07:24Z</time><extensions><speed>0.031679</speed><course>283.743591</course><hAcc>1.746974</hAcc><vAcc>0.823635</vAcc></extensions></trkpt>
      <trkpt lon="-2.214716" lat="53.112702"><ele>319.184753</ele><time>2022-03-04T12:07:25Z</time><extensions><speed>0.029306</speed><course>266.634186</course><hAcc>1.746307</hAcc><vAcc>0.823709</vAcc></extensions></trkpt>
      <trkpt lon="-2.214716" lat="53.112702"><ele>319.178986</ele><time>2022-03-04T12:07:26Z</time><extensions><speed>0.025306</speed><course>260.095734</course><hAcc>1.743781</hAcc><vAcc>0.823796</vAcc></extensions></trkpt>
      <trkpt lon="-2.214717" lat="53.112702"><ele>319.174530</ele><time>2022-03-04T12:07:27Z</time><extensions><speed>0.019403</speed><course>256.583893</course><hAcc>1.744996</hAcc><vAcc>0.823872</vAcc></extensions></trkpt>
      <trkpt lon="-2.214717" lat="53.112702"><ele>319.171204</ele><time>2022-03-04T12:07:28Z</time><extensions><speed>0.013800</speed><course>254.307297</course><hAcc>1.747338</hAcc><vAcc>0.823928</vAcc></extensions></trkpt>
      <trkpt lon="-2.214717" lat="53.112702"><ele>319.168884</ele><time>2022-03-04T12:07:29Z</time><extensions><speed>0.009225</speed><course>252.634827</course><hAcc>1.749255</hAcc><vAcc>0.823972</vAcc></extensions></trkpt>
      <trkpt lon="-2.214717" lat="53.112702"><ele>319.167358</ele><time>2022-03-04T12:07:30Z</time><extensions><speed>0.005977</speed><course>251.288162</course><hAcc>1.747013</hAcc><vAcc>0.823991</vAcc></extensions></trkpt>
      <trkpt lon="-2.214717" lat="53.112702"><ele>319.176453</ele><time>2022-03-04T12:07:31Z</time><extensions><speed>0.004829</speed><course>235.202072</course><hAcc>1.739930</hAcc><vAcc>0.823998</vAcc></extensions></trkpt>
      <trkpt lon="-2.214717" lat="53.112702"><ele>319.186829</ele><time>2022-03-04T12:07:32Z</time><extensions><speed>0.005247</speed><course>216.230331</course><hAcc>1.732890</hAcc><vAcc>0.823990</vAcc></extensions></trkpt>
      <trkpt lon="-2.214717" lat="53.112702"><ele>319.199005</ele><time>2022-03-04T12:07:33Z</time><extensions><speed>0.006986</speed><course>204.070206</course><hAcc>1.725880</hAcc><vAcc>0.823960</vAcc></extensions></trkpt>
      <trkpt lon="-2.214717" lat="53.112702"><ele>319.210938</ele><time>2022-03-04T12:07:34Z</time><extensions><speed>0.012120</speed><course>192.397827</course><hAcc>1.714946</hAcc><vAcc>0.823880</vAcc></extensions></trkpt>
      <trkpt lon="-2.214717" lat="53.112701"><ele>319.220001</ele><time>2022-03-04T12:07:35Z</time><extensions><speed>0.018492</speed><course>189.441528</course><hAcc>1.702752</hAcc><vAcc>0.823824</vAcc></extensions></trkpt>
      <trkpt lon="-2.214718" lat="53.112701"><ele>319.230896</ele><time>2022-03-04T12:07:36Z</time><extensions><speed>0.026700</speed><course>188.020889</course><hAcc>1.688205</hAcc><vAcc>0.823756</vAcc></extensions></trkpt>
      <trkpt lon="-2.214718" lat="53.112701"><ele>319.242401</ele><time>2022-03-04T12:07:37Z</time><extensions><speed>0.034523</speed><course>187.312393</course><hAcc>1.687911</hAcc><vAcc>0.823684</vAcc></extensions></trkpt>
      <trkpt lon="-2.214718" lat="53.112701"><ele>319.254303</ele><time>2022-03-04T12:07:38Z</time><extensions><speed>0.043930</speed><course>186.793549</course><hAcc>1.694068</hAcc><vAcc>0.823608</vAcc></extensions></trkpt>
      <trkpt lon="-2.214718" lat="53.112700"><ele>319.266327</ele><time>2022-03-04T12:07:39Z</time><extensions><speed>0.061233</speed><course>186.211121</course><hAcc>1.690039</hAcc><vAcc>0.823542</vAcc></extensions></trkpt>
      <trkpt lon="-2.214718" lat="53.112699"><ele>319.278229</ele><time>2022-03-04T12:07:40Z</time><extensions><speed>0.084714</speed><course>185.340271</course><hAcc>1.679140</hAcc><vAcc>0.823490</vAcc></extensions></trkpt>
      <trkpt lon="-2.214718" lat="53.112699"><ele>319.289520</ele><time>2022-03-04T12:07:41Z</time><extensions><speed>0.109061</speed><course>183.756210</course><hAcc>1.668207</hAcc><vAcc>0.823429</vAcc></extensions></trkpt>
      <trkpt lon="-2.214718" lat="53.112698"><ele>319.299896</ele><time>2022-03-04T12:07:42Z</time><extensions><speed>0.107925</speed><course>181.415131</course><hAcc>1.688311</hAcc><vAcc>0.823400</vAcc></extensions></trkpt>
      <trkpt lon="-2.214718" lat="53.112697"><ele>319.308990</ele><time>2022-03-04T12:07:43Z</time><extensions><speed>0.102442</speed><course>179.087677</course><hAcc>1.709178</hAcc><vAcc>0.823410</vAcc></extensions></trkpt>
      <trkpt lon="-2.214718" lat="53.112696"><ele>319.316742</ele><time>2022-03-04T12:07:44Z</time><extensions><speed>0.105474</speed><course>178.187027</course><hAcc>1.705930</hAcc><vAcc>0.823462</vAcc></extensions></trkpt>
      <trkpt lon="-2.214718" lat="53.112695"><ele>319.323181</ele><time>2022-03-04T12:07:45Z</time><extensions><speed>0.079696</speed><course>177.855530</course><hAcc>1.720433</hAcc><vAcc>0.823536</vAcc></extensions></trkpt>
      <trkpt lon="-2.214718" lat="53.112694"><ele>319.328461</ele><time>2022-03-04T12:07:46Z</time><extensions><speed>0.064657</speed><course>177.035263</course><hAcc>1.721073</hAcc><vAcc>0.823633</vAcc></extensions></trkpt>
      <trkpt lon="-2.214718" lat="53.112694"><ele>319.332703</ele><time>2022-03-04T12:07:47Z</time><extensions><speed>0.047171</speed><course>176.546158</course><hAcc>1.729590</hAcc><vAcc>0.823737</vAcc></extensions></trkpt>
      <trkpt lon="-2.214718" lat="53.112693"><ele>319.336060</ele><time>2022-03-04T12:07:48Z</time><extensions><speed>0.032551</speed><course>176.204041</course><hAcc>1.740901</hAcc><vAcc>0.823844</vAcc></extensions></trkpt>
      <trkpt lon="-2.214718" lat="53.112693"><ele>319.338593</ele><time>2022-03-04T12:07:49Z</time><extensions><speed>0.021638</speed><course>175.941055</course><hAcc>1.748243</hAcc><vAcc>0.823942</vAcc></extensions></trkpt>
      <trkpt lon="-2.214718" lat="53.112693"><ele>319.340485</ele><time>2022-03-04T12:07:50Z</time><extensions><speed>0.014065</speed><course>175.725067</course><hAcc>1.749851</hAcc><vAcc>0.824019</vAcc></extensions></trkpt>
      <trkpt lon="-2.214718" lat="53.112693"><ele>319.341797</ele><time>2022-03-04T12:07:51Z</time><extensions><speed>0.009004</speed><course>175.539764</course><hAcc>1.747819</hAcc><vAcc>0.824069</vAcc></extensions></trkpt>
      <trkpt lon="-2.214718" lat="53.112693"><ele>319.342651</ele><time>2022-03-04T12:07:52Z</time><extensions><speed>0.005495</speed><course>175.372696</course><hAcc>1.747445</hAcc><vAcc>0.824090</vAcc></extensions></trkpt>
      <trkpt lon="-2.214718" lat="53.112693"><ele>319.343109</ele><time>2022-03-04T12:07:53Z</time><extensions><speed>0.003254</speed><course>175.210693</course><hAcc>1.743989</hAcc><vAcc>0.824068</vAcc></extensions></trkpt>
      <trkpt lon="-2.214718" lat="53.112693"><ele>319.343262</ele><time>2022-03-04T12:07:54Z</time><extensions><speed>0.001917</speed><course>175.047028</course><hAcc>1.733551</hAcc><vAcc>0.824020</vAcc></extensions></trkpt>
      <trkpt lon="-2.214718" lat="53.112693"><ele>319.343140</ele><time>2022-03-04T12:07:55Z</time><extensions><speed>0.001099</speed><course>174.877609</course><hAcc>1.719877</hAcc><vAcc>0.823937</vAcc></extensions></trkpt>
      <trkpt lon="-2.214718" lat="53.112693"><ele>319.342865</ele><time>2022-03-04T12:07:56Z</time><extensions><speed>0.000611</speed><course>174.694351</course><hAcc>1.702525</hAcc><vAcc>0.823852</vAcc></extensions></trkpt>
      <trkpt lon="-2.214718" lat="53.112693"><ele>319.342438</ele><time>2022-03-04T12:07:57Z</time><extensions><speed>0.000331</speed><course>174.488754</course><hAcc>1.679943</hAcc><vAcc>0.823762</vAcc></extensions></trkpt>
      <trkpt lon="-2.214718" lat="53.112693"><ele>319.341949</ele><time>2022-03-04T12:07:58Z</time><extensions><speed>0.000174</speed><course>174.253281</course><hAcc>1.655730</hAcc><vAcc>0.823681</vAcc></extensions></trkpt>
      <trkpt lon="-2.214718" lat="53.112693"><ele>319.341370</ele><time>2022-03-04T12:07:59Z</time><extensions><speed>0.000088</speed><course>173.980118</course><hAcc>1.635238</hAcc><vAcc>0.823626</vAcc></extensions></trkpt>
      <trkpt lon="-2.214718" lat="53.112693"><ele>319.321350</ele><time>2022-03-04T12:08:00Z</time><extensions><speed>0.000108</speed><course>67.418243</course><hAcc>1.627073</hAcc><vAcc>0.823595</vAcc></extensions></trkpt>
      <trkpt lon="-2.214718" lat="53.112693"><ele>319.295135</ele><time>2022-03-04T12:08:01Z</time><extensions><speed>0.000280</speed><course>139.841415</course><hAcc>1.640805</hAcc><vAcc>0.823586</vAcc></extensions></trkpt>
      <trkpt lon="-2.214718" lat="53.112693"><ele>319.265167</ele><time>2022-03-04T12:08:02Z</time><extensions><speed>0.000453</speed><course>124.617943</course><hAcc>1.643509</hAcc><vAcc>0.823601</vAcc></extensions></trkpt>
      <trkpt lon="-2.214718" lat="53.112693"><ele>319.231506</ele><time>2022-03-04T12:08:03Z</time><extensions><speed>0.001033</speed><course>117.883194</course><hAcc>1.621052</hAcc><vAcc>0.823635</vAcc></extensions></trkpt>
      <trkpt lon="-2.214718" lat="53.112693"><ele>319.194489</ele><time>2022-03-04T12:08:04Z</time><extensions><speed>0.001396</speed><course>114.646744</course><hAcc>1.655565</hAcc><vAcc>0.823704</vAcc></extensions></trkpt>
      <trkpt lon="-2.214718" lat="53.112693"><ele>319.154144</ele><time>2022-03-04T12:08:05Z</time><extensions><speed>0.003181</speed><course>112.946495</course><hAcc>1.644363</hAcc><vAcc>0.823801</vAcc></extensions></trkpt>
      <trkpt lon="-2.214718" lat="53.112693"><ele>319.110718</ele><time>2022-03-04T12:08:06Z</time><extensions><speed>0.005039</speed><course>112.063156</course><hAcc>1.659251</hAcc><vAcc>0.823888</vAcc></extensions></trkpt>
      <trkpt lon="-2.214718" lat="53.112693"><ele>319.064575</ele><time>2022-03-04T12:08:07Z</time><extensions><speed>0.007330</speed><course>111.449760</course><hAcc>1.686265</hAcc><vAcc>0.823996</vAcc></extensions></trkpt>
      <trkpt lon="-2.214717" lat="53.112693"><ele>319.016205</ele><time>2022-03-04T12:08:08Z</time><extensions><speed>0.010026</speed><course>110.898170</course><hAcc>1.704558</hAcc><vAcc>0.824074</vAcc></extensions></trkpt>
      <trkpt lon="-2.214717" lat="53.112693"><ele>318.966400</ele><time>2022-03-04T12:08:09Z</time><extensions><speed>0.012739</speed><course>110.207603</course><hAcc>1.710663</hAcc><vAcc>0.824116</vAcc></extensions></trkpt>
      <trkpt lon="-2.214717" lat="53.112692"><ele>318.915894</ele><time>2022-03-04T12:08:10Z</time><extensions><speed>0.013805</speed><course>116.756142</course><hAcc>1.710404</hAcc><vAcc>0.824122</vAcc></extensions></trkpt>
      <trkpt lon="-2.214717" lat="53.112692"><ele>318.866089</ele><time>2022-03-04T12:08:11Z</time><extensions><speed>0.011860</speed><course>113.906418</course><hAcc>1.704663</hAcc><vAcc>0.824087</vAcc></extensions></trkpt>
      <trkpt lon="-2.214717" lat="53.112692"><ele>318.818115</ele><time>2022-03-04T12:08:12Z</time><extensions><speed>0.008469</speed><course>111.488487</course><hAcc>1.692719</hAcc><vAcc>0.824012</vAcc></extensions></trkpt>
      <trkpt lon="-2.214717" lat="53.112692"><ele>318.772736</ele><time>2022-03-04T12:08:13Z</time><extensions><speed>0.005923</speed><course>144.367569</course><hAcc>1.692343</hAcc><vAcc>0.823904</vAcc></extensions></trkpt>
      <trkpt lon="-2.214717" lat="53.112692"><ele>318.730560</ele><time>2022-03-04T12:08:14Z</time><extensions><speed>0.008480</speed><course>187.875122</course><hAcc>1.709107</hAcc><vAcc>0.823768</vAcc></extensions></trkpt>
      <trkpt lon="-2.214717" lat="53.112692"><ele>318.691895</ele><time>2022-03-04T12:08:15Z</time><extensions><speed>0.015717</speed><course>203.295837</course><hAcc>1.722091</hAcc><vAcc>0.823602</vAcc></extensions></trkpt>
      <trkpt lon="-2.214717" lat="53.112692"><ele>318.656982</ele><time>2022-03-04T12:08:16Z</time><extensions><speed>0.035073</speed><course>207.326996</course><hAcc>1.692062</hAcc><vAcc>0.823414</vAcc></extensions></trkpt>
      <trkpt lon="-2.214717" lat="53.112692"><ele>318.625793</ele><time>2022-03-04T12:08:17Z</time><extensions><speed>0.054661</speed><course>208.640030</course><hAcc>1.683511</hAcc><vAcc>0.823248</vAcc></extensions></trkpt>
      <trkpt lon="-2.214718" lat="53.112691"><ele>318.598328</ele><time>2022-03-04T12:08:18Z</time><extensions><speed>0.074058</speed><course>209.249146</course><hAcc>1.688056</hAcc><vAcc>0.823089</vAcc></extensions></trkpt>
      <trkpt lon="-2.214718" lat="53.112690"><ele>318.574402</ele><time>2022-03-04T12:08:19Z</time><extensions><speed>0.089147</speed><course>209.543747</course><hAcc>1.686977</hAcc><vAcc>0.822949</vAcc></extensions></trkpt>
      <trkpt lon="-2.214719" lat="53.112690"><ele>318.553864</ele><time>2022-03-04T12:08:20Z</time><extensions><speed>0.083471</speed><course>209.674072</course><hAcc>1.685186</hAcc><vAcc>0.822842</vAcc></extensions></trkpt>
      <trkpt lon="-2.214720" lat="53.112689"><ele>318.536438</ele><time>2022-03-04T12:08:21Z</time><extensions><speed>0.063137</speed><course>209.732101</course><hAcc>1.680974</hAcc><vAcc>0.822776</vAcc></extensions></trkpt>
      <trkpt lon="-2.214720" lat="53.112689"><ele>318.521912</ele><time>2022-03-04T12:08:22Z</time><extensions><speed>0.043578</speed><course>209.765564</course><hAcc>1.673918</hAcc><vAcc>0.822758</vAcc></extensions></trkpt>
      <trkpt lon="-2.214720" lat="53.112688"><ele>318.509979</ele><time>2022-03-04T12:08:23Z</time><extensions><speed>0.029786</speed><course>209.786575</course><hAcc>1.663139</hAcc><vAcc>0.822786</vAcc></extensions></trkpt>
      <trkpt lon="-2.214720" lat="53.112688"><ele>318.500366</ele><time>2022-03-04T12:08:24Z</time><extensions><speed>0.021499</speed><course>209.799408</course><hAcc>1.650769</hAcc><vAcc>0.822847</vAcc></extensions></trkpt>
      <trkpt lon="-2.214721" lat="53.112688"><ele>318.492767</ele><time>2022-03-04T12:08:25Z</time><extensions><speed>0.014918</speed><course>209.806900</course><hAcc>1.651850</hAcc><vAcc>0.822947</vAcc></extensions></trkpt>
      <trkpt lon="-2.214721" lat="53.112688"><ele>318.486969</ele><time>2022-03-04T12:08:26Z</time><extensions><speed>0.010420</speed><course>209.811340</course><hAcc>1.665673</hAcc><vAcc>0.823079</vAcc></extensions></trkpt>
      <trkpt lon="-2.214721" lat="53.112688"><ele>318.482666</ele><time>2022-03-04T12:08:27Z</time><extensions><speed>0.006611</speed><course>209.814102</course><hAcc>1.686739</hAcc><vAcc>0.823233</vAcc></extensions></trkpt>
      <trkpt lon="-2.214721" lat="53.112688"><ele>318.479645</ele><time>2022-03-04T12:08:28Z</time><extensions><speed>0.006359</speed><course>209.815704</course><hAcc>1.669013</hAcc><vAcc>0.823396</vAcc></extensions></trkpt>
      <trkpt lon="-2.214721" lat="53.112688"><ele>318.477692</ele><time>2022-03-04T12:08:29Z</time><extensions><speed>0.005063</speed><course>209.816422</course><hAcc>1.679074</hAcc><vAcc>0.823552</vAcc></extensions></trkpt>
      <trkpt lon="-2.214721" lat="53.112688"><ele>318.476624</ele><time>2022-03-04T12:08:30Z</time><extensions><speed>0.003731</speed><course>209.816864</course><hAcc>1.703213</hAcc><vAcc>0.823691</vAcc></extensions></trkpt>
      <trkpt lon="-2.214721" lat="53.112688"><ele>318.476257</ele><time>2022-03-04T12:08:32Z</time><extensions><speed>0.002613</speed><course>209.817154</course><hAcc>1.722633</hAcc><vAcc>0.823809</vAcc></extensions></trkpt>
      <trkpt lon="-2.214721" lat="53.112688"><ele>318.476440</ele><time>2022-03-04T12:08:33Z</time><extensions><speed>0.001772</speed><course>209.817368</course><hAcc>1.733576</hAcc><vAcc>0.823889</vAcc></extensions></trkpt>
      <trkpt lon="-2.214721" lat="53.112688"><ele>318.477051</ele><time>2022-03-04T12:08:34Z</time><extensions><speed>0.001159</speed><course>209.817551</course><hAcc>1.738754</hAcc><vAcc>0.823953</vAcc></extensions></trkpt>
      <trkpt lon="-2.214721" lat="53.112688"><ele>318.477966</ele><time>2022-03-04T12:08:35Z</time><extensions><speed>0.000745</speed><course>209.817688</course><hAcc>1.738897</hAcc><vAcc>0.824019</vAcc></extensions></trkpt>
      <trkpt lon="-2.214721" lat="53.112688"><ele>318.479065</ele><time>2022-03-04T12:08:36Z</time><extensions><speed>0.000462</speed><course>209.817810</course><hAcc>1.738650</hAcc><vAcc>0.824081</vAcc></extensions></trkpt>
      <trkpt lon="-2.214721" lat="53.112688"><ele>318.472290</ele><time>2022-03-04T12:08:37Z</time><extensions><speed>0.003230</speed><course>157.841797</course><hAcc>1.736990</hAcc><vAcc>0.824154</vAcc></extensions></trkpt>
      <trkpt lon="-2.214721" lat="53.112688"><ele>318.462036</ele><time>2022-03-04T12:08:38Z</time><extensions><speed>0.007065</speed><course>156.417282</course><hAcc>1.730809</hAcc><vAcc>0.824250</vAcc></extensions></trkpt>
      <trkpt lon="-2.214721" lat="53.112687"><ele>318.454041</ele><time>2022-03-04T12:08:39Z</time><extensions><speed>0.012220</speed><course>156.406631</course><hAcc>1.724326</hAcc><vAcc>0.824375</vAcc></extensions></trkpt>
      <trkpt lon="-2.214721" lat="53.112687"><ele>318.438751</ele><time>2022-03-04T12:08:40Z</time><extensions><speed>0.019207</speed><course>155.032288</course><hAcc>1.717111</hAcc><vAcc>0.824530</vAcc></extensions></trkpt>
      <trkpt lon="-2.214720" lat="53.112687"><ele>318.430603</ele><time>2022-03-04T12:08:41Z</time><extensions><speed>0.028994</speed><course>155.351196</course><hAcc>1.711261</hAcc><vAcc>0.824723</vAcc></extensions></trkpt>
      <trkpt lon="-2.214720" lat="53.112687"><ele>318.418304</ele><time>2022-03-04T12:08:42Z</time><extensions><speed>0.040784</speed><course>155.562378</course><hAcc>1.711407</hAcc><vAcc>0.824937</vAcc></extensions></trkpt>
      <trkpt lon="-2.214720" lat="53.112686"><ele>318.398315</ele><time>2022-03-04T12:08:43Z</time><extensions><speed>0.058361</speed><course>155.930511</course><hAcc>1.708844</hAcc><vAcc>0.825166</vAcc></extensions></trkpt>
      <trkpt lon="-2.214719" lat="53.112686"><ele>318.376434</ele><time>2022-03-04T12:08:44Z</time><extensions><speed>0.082129</speed><course>156.217117</course><hAcc>1.707064</hAcc><vAcc>0.825393</vAcc></extensions></trkpt>
      <trkpt lon="-2.214719" lat="53.112685"><ele>318.352905</ele><time>2022-03-04T12:08:45Z</time><extensions><speed>0.109916</speed><course>156.517166</course><hAcc>1.712059</hAcc><vAcc>0.825622</vAcc></extensions></trkpt>
      <trkpt lon="-2.214718" lat="53.112684"><ele>318.327972</ele><time>2022-03-04T12:08:46Z</time><extensions><speed>0.135317</speed><course>156.975815</course><hAcc>1.718619</hAcc><vAcc>0.825842</vAcc></extensions></trkpt>
      <trkpt lon="-2.214717" lat="53.112683"><ele>318.302032</ele><time>2022-03-04T12:08:47Z</time><extensions><speed>0.162319</speed><course>157.853989</course><hAcc>1.706014</hAcc><vAcc>0.826034</vAcc></extensions></trkpt>
      <trkpt lon="-2.214716" lat="53.112681"><ele>318.275635</ele><time>2022-03-04T12:08:48Z</time><extensions><speed>0.153068</speed><course>159.075409</course><hAcc>1.702003</hAcc><vAcc>0.826193</vAcc></extensions></trkpt>
      <trkpt lon="-2.214716" lat="53.112680"><ele>318.249146</ele><time>2022-03-04T12:08:49Z</time><extensions><speed>0.133342</speed><course>160.800995</course><hAcc>1.696722</hAcc><vAcc>0.826313</vAcc></extensions></trkpt>
      <trkpt lon="-2.214715" lat="53.112679"><ele>318.222961</ele><time>2022-03-04T12:08:50Z</time><extensions><speed>0.112611</speed><course>164.725555</course><hAcc>1.677279</hAcc><vAcc>0.826390</vAcc></extensions></trkpt>
      <trkpt lon="-2.214715" lat="53.112678"><ele>318.197327</ele><time>2022-03-04T12:08:51Z</time><extensions><speed>0.088677</speed><course>170.516174</course><hAcc>1.648446</hAcc><vAcc>0.826423</vAcc></extensions></trkpt>
      <trkpt lon="-2.214715" lat="53.112678"><ele>318.172516</ele><time>2022-03-04T12:08:52Z</time><extensions><speed>0.061338</speed><course>176.564072</course><hAcc>1.630719</hAcc><vAcc>0.826406</vAcc></extensions></trkpt>
      <trkpt lon="-2.214715" lat="53.112677"><ele>318.148804</ele><time>2022-03-04T12:08:53Z</time><extensions><speed>0.033962</speed><course>182.272781</course><hAcc>1.642215</hAcc><vAcc>0.826351</vAcc></extensions></trkpt>
      <trkpt lon="-2.214715" lat="53.112677"><ele>318.126526</ele><time>2022-03-04T12:08:54Z</time><extensions><speed>0.017601</speed><course>186.665039</course><hAcc>1.655389</hAcc><vAcc>0.826275</vAcc></extensions></trkpt>
      <trkpt lon="-2.214715" lat="53.112677"><ele>318.105896</ele><time>2022-03-04T12:08:55Z</time><extensions><speed>0.013591</speed><course>189.462372</course><hAcc>1.647370</hAcc><vAcc>0.826179</vAcc></extensions></trkpt>
      <trkpt lon="-2.214715" lat="53.112677"><ele>318.087128</ele><time>2022-03-04T12:08:56Z</time><extensions><speed>0.010085</speed><course>190.732925</course><hAcc>1.651603</hAcc><vAcc>0.826077</vAcc></extensions></trkpt>
      <trkpt lon="-2.214715" lat="53.112677"><ele>318.070282</ele><time>2022-03-04T12:08:57Z</time><extensions><speed>0.011292</speed><course>191.268707</course><hAcc>1.631409</hAcc><vAcc>0.825968</vAcc></extensions></trkpt>
      <trkpt lon="-2.214715" lat="53.112677"><ele>318.061249</ele><time>2022-03-04T12:08:58Z</time><extensions><speed>0.006804</speed><course>205.605820</course><hAcc>1.648506</hAcc><vAcc>0.825871</vAcc></extensions></trkpt>
      <trkpt lon="-2.214715" lat="53.112677"><ele>318.059357</ele><time>2022-03-04T12:08:59Z</time><extensions><speed>0.003926</speed><course>297.422577</course><hAcc>1.683380</hAcc><vAcc>0.825783</vAcc></extensions></trkpt>
      <trkpt lon="-2.214715" lat="53.112677"><ele>318.062439</ele><time>2022-03-04T12:09:00Z</time><extensions><speed>0.013265</speed><course>340.876770</course><hAcc>1.708960</hAcc><vAcc>0.825715</vAcc></extensions></trkpt>
      <trkpt lon="-2.214715" lat="53.112677"><ele>318.074097</ele><time>2022-03-04T12:09:01Z</time><extensions><speed>0.026676</speed><course>347.982697</course><hAcc>1.722663</hAcc><vAcc>0.825658</vAcc></extensions></trkpt>
      <trkpt lon="-2.214715" lat="53.112677"><ele>318.095276</ele><time>2022-03-04T12:09:02Z</time><extensions><speed>0.044491</speed><course>350.742157</course><hAcc>1.726456</hAcc><vAcc>0.825625</vAcc></extensions></trkpt>
      <trkpt lon="-2.214715" lat="53.112678"><ele>318.121155</ele><time>2022-03-04T12:09:03Z</time><extensions><speed>0.067077</speed><course>351.965363</course><hAcc>1.728585</hAcc><vAcc>0.825615</vAcc></extensions></trkpt>
      <trkpt lon="-2.214715" lat="53.112679"><ele>318.151550</ele><time>2022-03-04T12:09:04Z</time><extensions><speed>0.094697</speed><course>352.689423</course><hAcc>1.734017</hAcc><vAcc>0.825632</vAcc></extensions></trkpt>
      <trkpt lon="-2.214716" lat="53.112680"><ele>318.206512</ele><time>2022-03-04T12:09:05Z</time><extensions><speed>0.132816</speed><course>353.434235</course><hAcc>1.735390</hAcc><vAcc>0.825671</vAcc></extensions></trkpt>
      <trkpt lon="-2.214716" lat="53.112681"><ele>318.268250</ele><time>2022-03-04T12:09:06Z</time><extensions><speed>0.189069</speed><course>354.253876</course><hAcc>1.728355</hAcc><vAcc>0.825729</vAcc></extensions></trkpt>
      <trkpt lon="-2.214716" lat="53.112683"><ele>318.336243</ele><time>2022-03-04T12:09:07Z</time><extensions><speed>0.234846</speed><course>355.509705</course><hAcc>1.729493</hAcc><vAcc>0.825800</vAcc></extensions></trkpt>
      <trkpt lon="-2.214716" lat="53.112685"><ele>318.409729</ele><time>2022-03-04T12:09:08Z</time><extensions><speed>0.260216</speed><course>358.095245</course><hAcc>1.729548</hAcc><vAcc>0.825887</vAcc></extensions></trkpt>
      <trkpt lon="-2.214716" lat="53.112687"><ele>318.496796</ele><time>2022-03-04T12:09:09Z</time><extensions><speed>0.240414</speed><course>1.915044</course><hAcc>1.732293</hAcc><vAcc>0.825965</vAcc></extensions></trkpt>
      <trkpt lon="-2.214716" lat="53.112689"><ele>318.590363</ele><time>2022-03-04T12:09:10Z</time><extensions><speed>0.209252</speed><course>6.356790</course><hAcc>1.729794</hAcc><vAcc>0.826038</vAcc></extensions></trkpt>
      <trkpt lon="-2.214716" lat="53.112691"><ele>318.687805</ele><time>2022-03-04T12:09:11Z</time><extensions><speed>0.166021</speed><course>11.413771</course><hAcc>1.728373</hAcc><vAcc>0.826095</vAcc></extensions></trkpt>
      <trkpt lon="-2.214715" lat="53.112692"><ele>318.787811</ele><time>2022-03-04T12:09:12Z</time><extensions><speed>0.130322</speed><course>16.310320</course><hAcc>1.722591</hAcc><vAcc>0.826141</vAcc></extensions></trkpt>
      <trkpt lon="-2.214715" lat="53.112693"><ele>318.889069</ele><time>2022-03-04T12:09:13Z</time><extensions><speed>0.098042</speed><course>20.657698</course><hAcc>1.719014</hAcc><vAcc>0.826177</vAcc></extensions></trkpt>
      <trkpt lon="-2.214714" lat="53.112694"><ele>318.993469</ele><time>2022-03-04T12:09:14Z</time><extensions><speed>0.072788</speed><course>24.449316</course><hAcc>1.714723</hAcc><vAcc>0.826200</vAcc></extensions></trkpt>
      <trkpt lon="-2.214714" lat="53.112695"><ele>319.099121</ele><time>2022-03-04T12:09:15Z</time><extensions><speed>0.055146</speed><course>26.469858</course><hAcc>1.704244</hAcc><vAcc>0.826199</vAcc></extensions></trkpt>
      <trkpt lon="-2.214713" lat="53.112695"><ele>319.192596</ele><time>2022-03-04T12:09:16Z</time><extensions><speed>0.038965</speed><course>22.690514</course><hAcc>1.699576</hAcc><vAcc>0.826178</vAcc></extensions></trkpt>
      <trkpt lon="-2.214713" lat="53.112695"><ele>319.279572</ele><time>2022-03-04T12:09:17Z</time><extensions><speed>0.026118</speed><course>12.136545</course><hAcc>1.697375</hAcc><vAcc>0.826167</vAcc></extensions></trkpt>
      <trkpt lon="-2.214713" lat="53.112695"><ele>319.380981</ele><time>2022-03-04T12:09:18Z</time><extensions><speed>0.020993</speed><course>358.908386</course><hAcc>1.669737</hAcc><vAcc>0.826149</vAcc></extensions></trkpt>
      <trkpt lon="-2.214713" lat="53.112696"><ele>319.478516</ele><time>2022-03-04T12:09:19Z</time><extensions><speed>0.014540</speed><course>342.900665</course><hAcc>1.644005</hAcc><vAcc>0.826126</vAcc></extensions></trkpt>
      <trkpt lon="-2.214713" lat="53.112696"><ele>319.571442</ele><time>2022-03-04T12:09:20Z</time><extensions><speed>0.007179</speed><course>294.940460</course><hAcc>1.649495</hAcc><vAcc>0.826100</vAcc></extensions></trkpt>
      <trkpt lon="-2.214714" lat="53.112696"><ele>319.659393</ele><time>2022-03-04T12:09:21Z</time><extensions><speed>0.010899</speed><course>234.433640</course><hAcc>1.665626</hAcc><vAcc>0.826069</vAcc></extensions></trkpt>
      <trkpt lon="-2.214714" lat="53.112695"><ele>319.737213</ele><time>2022-03-04T12:09:22Z</time><extensions><speed>0.020948</speed><course>219.131516</course><hAcc>1.668105</hAcc><vAcc>0.826031</vAcc></extensions></trkpt>
      <trkpt lon="-2.214714" lat="53.112695"><ele>319.808044</ele><time>2022-03-04T12:09:23Z</time><extensions><speed>0.025194</speed><course>213.381409</course><hAcc>1.693170</hAcc><vAcc>0.825985</vAcc></extensions></trkpt>
      <trkpt lon="-2.214714" lat="53.112695"><ele>319.872833</ele><time>2022-03-04T12:09:24Z</time><extensions><speed>0.045860</speed><course>209.623718</course><hAcc>1.659190</hAcc><vAcc>0.825916</vAcc></extensions></trkpt>
      <trkpt lon="-2.214714" lat="53.112695"><ele>319.931793</ele><time>2022-03-04T12:09:25Z</time><extensions><speed>0.049196</speed><course>204.986130</course><hAcc>1.655507</hAcc><vAcc>0.825853</vAcc></extensions></trkpt>
      <trkpt lon="-2.214715" lat="53.112694"><ele>319.985107</ele><time>2022-03-04T12:09:25Z</time><extensions><speed>0.044039</speed><course>188.178284</course><hAcc>1.676146</hAcc><vAcc>0.825784</vAcc></extensions></trkpt>
      <trkpt lon="-2.214715" lat="53.112694"><ele>320.033020</ele><time>2022-03-04T12:09:26Z</time><extensions><speed>0.045060</speed><course>158.211166</course><hAcc>1.697151</hAcc><vAcc>0.825717</vAcc></extensions></trkpt>
      <trkpt lon="-2.214714" lat="53.112693"><ele>320.075531</ele><time>2022-03-04T12:09:27Z</time><extensions><speed>0.050028</speed><course>141.734802</course><hAcc>1.709695</hAcc><vAcc>0.825644</vAcc></extensions></trkpt>
      <trkpt lon="-2.214714" lat="53.112693"><ele>320.112549</ele><time>2022-03-04T12:09:28Z</time><extensions><speed>0.049378</speed><course>137.395523</course><hAcc>1.719444</hAcc><vAcc>0.825561</vAcc></extensions></trkpt>
      <trkpt lon="-2.214713" lat="53.112693"><ele>320.144012</ele><time>2022-03-04T12:09:29Z</time><extensions><speed>0.045888</speed><course>137.213013</course><hAcc>1.727231</hAcc><vAcc>0.825468</vAcc></extensions></trkpt>
      <trkpt lon="-2.214713" lat="53.112692"><ele>320.170135</ele><time>2022-03-04T12:09:30Z</time><extensions><speed>0.053043</speed><course>138.209381</course><hAcc>1.702512</hAcc><vAcc>0.825365</vAcc></extensions></trkpt>
      <trkpt lon="-2.214712" lat="53.112692"><ele>320.191254</ele><time>2022-03-04T12:09:31Z</time><extensions><speed>0.050154</speed><course>138.274567</course><hAcc>1.686204</hAcc><vAcc>0.825249</vAcc></extensions></trkpt>
      <trkpt lon="-2.214712" lat="53.112692"><ele>320.207977</ele><time>2022-03-04T12:09:32Z</time><extensions><speed>0.038062</speed><course>137.553284</course><hAcc>1.680347</hAcc><vAcc>0.825121</vAcc></extensions></trkpt>
      <trkpt lon="-2.214711" lat="53.112692"><ele>320.220795</ele><time>2022-03-04T12:09:33Z</time><extensions><speed>0.027812</speed><course>137.113449</course><hAcc>1.664357</hAcc><vAcc>0.824995</vAcc></extensions></trkpt>
      <trkpt lon="-2.214711" lat="53.112691"><ele>320.230316</ele><time>2022-03-04T12:09:34Z</time><extensions><speed>0.017781</speed><course>136.820969</course><hAcc>1.656529</hAcc><vAcc>0.824867</vAcc></extensions></trkpt>
      <trkpt lon="-2.214711" lat="53.112691"><ele>320.237000</ele><time>2022-03-04T12:09:35Z</time><extensions><speed>0.010569</speed><course>136.600845</course><hAcc>1.654820</hAcc><vAcc>0.824731</vAcc></extensions></trkpt>
      <trkpt lon="-2.214711" lat="53.112691"><ele>320.241364</ele><time>2022-03-04T12:09:36Z</time><extensions><speed>0.006557</speed><course>136.436966</course><hAcc>1.655321</hAcc><vAcc>0.824581</vAcc></extensions></trkpt>
      <trkpt lon="-2.214711" lat="53.112691"><ele>320.243805</ele><time>2022-03-04T12:09:37Z</time><extensions><speed>0.003879</speed><course>136.324646</course><hAcc>1.671466</hAcc><vAcc>0.824434</vAcc></extensions></trkpt>
      <trkpt lon="-2.214711" lat="53.112691"><ele>320.244690</ele><time>2022-03-04T12:09:38Z</time><extensions><speed>0.002580</speed><course>136.249268</course><hAcc>1.679942</hAcc><vAcc>0.824293</vAcc></extensions></trkpt>
      <trkpt lon="-2.214711" lat="53.112691"><ele>320.244385</ele><time>2022-03-04T12:09:39Z</time><extensions><speed>0.002743</speed><course>136.211395</course><hAcc>1.652970</hAcc><vAcc>0.824154</vAcc></extensions></trkpt>
      <trkpt lon="-2.214711" lat="53.112691"><ele>320.243134</ele><time>2022-03-04T12:09:40Z</time><extensions><speed>0.002329</speed><course>136.196411</course><hAcc>1.660081</hAcc><vAcc>0.824014</vAcc></extensions></trkpt>
      <trkpt lon="-2.214711" lat="53.112691"><ele>320.241180</ele><time>2022-03-04T12:09:41Z</time><extensions><speed>0.001766</speed><course>136.188126</course><hAcc>1.685483</hAcc><vAcc>0.823858</vAcc></extensions></trkpt>
      <trkpt lon="-2.214711" lat="53.112691"><ele>320.238770</ele><time>2022-03-04T12:09:42Z</time><extensions><speed>0.001247</speed><course>136.182648</course><hAcc>1.704449</hAcc><vAcc>0.823706</vAcc></extensions></trkpt>
      <trkpt lon="-2.214711" lat="53.112691"><ele>320.236053</ele><time>2022-03-04T12:09:43Z</time><extensions><speed>0.000823</speed><course>136.178604</course><hAcc>1.714154</hAcc><vAcc>0.823545</vAcc></extensions></trkpt>
      <trkpt lon="-2.214711" lat="53.112691"><ele>320.233185</ele><time>2022-03-04T12:09:44Z</time><extensions><speed>0.000511</speed><course>136.175278</course><hAcc>1.715434</hAcc><vAcc>0.823388</vAcc></extensions></trkpt>
      <trkpt lon="-2.214711" lat="53.112691"><ele>320.230255</ele><time>2022-03-04T12:09:45Z</time><extensions><speed>0.000322</speed><course>136.172424</course><hAcc>1.704468</hAcc><vAcc>0.823223</vAcc></extensions></trkpt>
      <trkpt lon="-2.214711" lat="53.112691"><ele>320.227356</ele><time>2022-03-04T12:09:46Z</time><extensions><speed>0.000200</speed><course>136.170013</course><hAcc>1.692758</hAcc><vAcc>0.823079</vAcc></extensions></trkpt>
      <trkpt lon="-2.214711" lat="53.112691"><ele>320.224579</ele><time>2022-03-04T12:09:47Z</time><extensions><speed>0.000118</speed><course>136.167923</course><hAcc>1.684615</hAcc><vAcc>0.822956</vAcc></extensions></trkpt>
      <trkpt lon="-2.214711" lat="53.112691"><ele>320.221924</ele><time>2022-03-04T12:09:48Z</time><extensions><speed>0.000075</speed><course>136.166138</course><hAcc>1.671841</hAcc><vAcc>0.822849</vAcc></extensions></trkpt>
      <trkpt lon="-2.214711" lat="53.112691"><ele>320.219482</ele><time>2022-03-04T12:09:49Z</time><extensions><speed>0.000045</speed><course>136.164703</course><hAcc>1.670412</hAcc><vAcc>0.822763</vAcc></extensions></trkpt>
      <trkpt lon="-2.214711" lat="53.112691"><ele>320.217255</ele><time>2022-03-04T12:09:50Z</time><extensions><speed>0.000027</speed><course>136.163559</course><hAcc>1.671825</hAcc><vAcc>0.822708</vAcc></extensions></trkpt>
      <trkpt lon="-2.214711" lat="53.112691"><ele>320.215240</ele><time>2022-03-04T12:09:51Z</time><extensions><speed>0.000020</speed><course>136.162735</course><hAcc>1.669227</hAcc><vAcc>0.822695</vAcc></extensions></trkpt>
      <trkpt lon="-2.214711" lat="53.112691"><ele>320.213440</ele><time>2022-03-04T12:09:52Z</time><extensions><speed>0.000010</speed><course>136.162155</course><hAcc>1.706800</hAcc><vAcc>0.822710</vAcc></extensions></trkpt>
      <trkpt lon="-2.214711" lat="53.112691"><ele>320.172699</ele><time>2022-03-04T12:09:53Z</time><extensions><speed>0.002728</speed><course>203.082397</course><hAcc>1.681569</hAcc><vAcc>0.822750</vAcc></extensions></trkpt>
      <trkpt lon="-2.214711" lat="53.112691"><ele>320.126282</ele><time>2022-03-04T12:09:54Z</time><extensions><speed>0.007055</speed><course>203.207336</course><hAcc>1.677617</hAcc><vAcc>0.822836</vAcc></extensions></trkpt>
      <trkpt lon="-2.214711" lat="53.112691"><ele>320.074158</ele><time>2022-03-04T12:09:55Z</time><extensions><speed>0.012752</speed><course>203.240341</course><hAcc>1.690692</hAcc><vAcc>0.822961</vAcc></extensions></trkpt>
      <trkpt lon="-2.214711" lat="53.112691"><ele>320.016266</ele><time>2022-03-04T12:09:56Z</time><extensions><speed>0.019891</speed><course>203.252960</course><hAcc>1.698522</hAcc><vAcc>0.823112</vAcc></extensions></trkpt>
      <trkpt lon="-2.214711" lat="53.112691"><ele>319.952698</ele><time>2022-03-04T12:09:57Z</time><extensions><speed>0.028923</speed><course>203.258347</course><hAcc>1.691824</hAcc><vAcc>0.823291</vAcc></extensions></trkpt>
      <trkpt lon="-2.214711" lat="53.112690"><ele>319.883698</ele><time>2022-03-04T12:09:58Z</time><extensions><speed>0.039113</speed><course>203.260757</course><hAcc>1.676321</hAcc><vAcc>0.823484</vAcc></extensions></trkpt>
      <trkpt lon="-2.214712" lat="53.112690"><ele>319.809601</ele><time>2022-03-04T12:09:59Z</time><extensions><speed>0.048458</speed><course>203.261871</course><hAcc>1.661831</hAcc><vAcc>0.823683</vAcc></extensions></trkpt>
      <trkpt lon="-2.214712" lat="53.112689"><ele>319.731079</ele><time>2022-03-04T12:10:00Z</time><extensions><speed>0.058306</speed><course>203.262405</course><hAcc>1.652288</hAcc><vAcc>0.823873</vAcc></extensions></trkpt>
      <trkpt lon="-2.214712" lat="53.112689"><ele>319.649017</ele><time>2022-03-04T12:10:01Z</time><extensions><speed>0.060287</speed><course>203.262665</course><hAcc>1.662384</hAcc><vAcc>0.824048</vAcc></extensions></trkpt>
      <trkpt lon="-2.214713" lat="53.112688"><ele>319.564758</ele><time>2022-03-04T12:10:02Z</time><extensions><speed>0.072779</speed><course>203.262787</course><hAcc>1.653838</hAcc><vAcc>0.824192</vAcc></extensions></trkpt>
      <trkpt lon="-2.214713" lat="53.112688"><ele>319.480133</ele><time>2022-03-04T12:10:03Z</time><extensions><speed>0.093327</speed><course>203.262833</course><hAcc>1.629998</hAcc><vAcc>0.824305</vAcc></extensions></trkpt>
      <trkpt lon="-2.214714" lat="53.112687"><ele>319.397186</ele><time>2022-03-04T12:10:04Z</time><extensions><speed>0.064194</speed><course>203.262833</course><hAcc>1.663142</hAcc><vAcc>0.824388</vAcc></extensions></trkpt>
      <trkpt lon="-2.214714" lat="53.112687"><ele>319.317688</ele><time>2022-03-04T12:10:05Z</time><extensions><speed>0.052119</speed><course>203.262848</course><hAcc>1.675163</hAcc><vAcc>0.824454</vAcc></extensions></trkpt>
      <trkpt lon="-2.214714" lat="53.112686"><ele>319.231140</ele><time>2022-03-04T12:10:06Z</time><extensions><speed>0.050637</speed><course>204.031387</course><hAcc>1.663934</hAcc><vAcc>0.824477</vAcc></extensions></trkpt>
      <trkpt lon="-2.214715" lat="53.112686"><ele>319.148438</ele><time>2022-03-04T12:10:07Z</time><extensions><speed>0.040379</speed><course>205.668808</course><hAcc>1.679479</hAcc><vAcc>0.824466</vAcc></extensions></trkpt>
      <trkpt lon="-2.214715" lat="53.112686"><ele>319.070129</ele><time>2022-03-04T12:10:08Z</time><extensions><speed>0.028544</speed><course>209.453751</course><hAcc>1.706183</hAcc><vAcc>0.824417</vAcc></extensions></trkpt>
      <trkpt lon="-2.214715" lat="53.112685"><ele>318.996429</ele><time>2022-03-04T12:10:09Z</time><extensions><speed>0.018562</speed><course>219.145554</course><hAcc>1.724457</hAcc><vAcc>0.824357</vAcc></extensions></trkpt>
      <trkpt lon="-2.214715" lat="53.112685"><ele>318.927216</ele><time>2022-03-04T12:10:10Z</time><extensions><speed>0.012422</speed><course>240.664139</course><hAcc>1.734227</hAcc><vAcc>0.824288</vAcc></extensions></trkpt>
      <trkpt lon="-2.214715" lat="53.112685"><ele>318.862610</ele><time>2022-03-04T12:10:11Z</time><extensions><speed>0.011256</speed><course>276.776245</course><hAcc>1.741640</hAcc><vAcc>0.824207</vAcc></extensions></trkpt>
      <trkpt lon="-2.214716" lat="53.112685"><ele>318.802399</ele><time>2022-03-04T12:10:12Z</time><extensions><speed>0.015719</speed><course>301.386047</course><hAcc>1.742411</hAcc><vAcc>0.824120</vAcc></extensions></trkpt>
      <trkpt lon="-2.214716" lat="53.112685"><ele>318.746399</ele><time>2022-03-04T12:10:13Z</time><extensions><speed>0.022327</speed><course>310.778259</course><hAcc>1.743123</hAcc><vAcc>0.824017</vAcc></extensions></trkpt>
      <trkpt lon="-2.214716" lat="53.112686"><ele>318.694489</ele><time>2022-03-04T12:10:14Z</time><extensions><speed>0.029653</speed><course>313.116272</course><hAcc>1.743139</hAcc><vAcc>0.823894</vAcc></extensions></trkpt>
      <trkpt lon="-2.214716" lat="53.112686"><ele>318.646545</ele><time>2022-03-04T12:10:15Z</time><extensions><speed>0.033150</speed><course>311.096619</course><hAcc>1.747431</hAcc><vAcc>0.823777</vAcc></extensions></trkpt>
      <trkpt lon="-2.214717" lat="53.112686"><ele>318.602631</ele><time>2022-03-04T12:10:16Z</time><extensions><speed>0.029592</speed><course>300.581665</course><hAcc>1.743646</hAcc><vAcc>0.823677</vAcc></extensions></trkpt>
      <trkpt lon="-2.214717" lat="53.112686"><ele>318.561096</ele><time>2022-03-04T12:10:17Z</time><extensions><speed>0.020966</speed><course>259.957794</course><hAcc>1.743769</hAcc><vAcc>0.823581</vAcc></extensions></trkpt>
      <trkpt lon="-2.214717" lat="53.112686"><ele>318.514282</ele><time>2022-03-04T12:10:18Z</time><extensions><speed>0.029696</speed><course>211.188751</course><hAcc>1.743325</hAcc><vAcc>0.823508</vAcc></extensions></trkpt>
      <trkpt lon="-2.214718" lat="53.112685"><ele>318.470032</ele><time>2022-03-04T12:10:19Z</time><extensions><speed>0.046188</speed><course>193.640808</course><hAcc>1.740416</hAcc><vAcc>0.823460</vAcc></extensions></trkpt>
      <trkpt lon="-2.214718" lat="53.112685"><ele>318.428162</ele><time>2022-03-04T12:10:20Z</time><extensions><speed>0.054153</speed><course>188.623596</course><hAcc>1.733479</hAcc><vAcc>0.823432</vAcc></extensions></trkpt>
      <trkpt lon="-2.214718" lat="53.112685"><ele>318.388458</ele><time>2022-03-04T12:10:21Z</time><extensions><speed>0.050960</speed><course>188.077072</course><hAcc>1.726264</hAcc><vAcc>0.823425</vAcc></extensions></trkpt>
      <trkpt lon="-2.214718" lat="53.112684"><ele>318.350708</ele><time>2022-03-04T12:10:22Z</time><extensions><speed>0.046361</speed><course>189.778030</course><hAcc>1.715763</hAcc><vAcc>0.823441</vAcc></extensions></trkpt>
      <trkpt lon="-2.214718" lat="53.112684"><ele>318.314636</ele><time>2022-03-04T12:10:23Z</time><extensions><speed>0.045055</speed><course>192.736755</course><hAcc>1.701730</hAcc><vAcc>0.823473</vAcc></extensions></trkpt>
      <trkpt lon="-2.214718" lat="53.112683"><ele>318.280090</ele><time>2022-03-04T12:10:24Z</time><extensions><speed>0.043412</speed><course>196.093567</course><hAcc>1.698883</hAcc><vAcc>0.823523</vAcc></extensions></trkpt>
      <trkpt lon="-2.214719" lat="53.112683"><ele>318.246887</ele><time>2022-03-04T12:10:25Z</time><extensions><speed>0.046414</speed><course>199.209305</course><hAcc>1.697720</hAcc><vAcc>0.823585</vAcc></extensions></trkpt>
      <trkpt lon="-2.214719" lat="53.112683"><ele>318.215057</ele><time>2022-03-04T12:10:26Z</time><extensions><speed>0.044147</speed><course>202.494308</course><hAcc>1.704718</hAcc><vAcc>0.823653</vAcc></extensions></trkpt>
      <trkpt lon="-2.214719" lat="53.112682"><ele>318.184662</ele><time>2022-03-04T12:10:27Z</time><extensions><speed>0.050592</speed><course>207.433655</course><hAcc>1.671294</hAcc><vAcc>0.823729</vAcc></extensions></trkpt>
      <trkpt lon="-2.214719" lat="53.112682"><ele>318.155975</ele><time>2022-03-04T12:10:28Z</time><extensions><speed>0.040474</speed><course>212.686584</course><hAcc>1.660078</hAcc><vAcc>0.823801</vAcc></extensions></trkpt>
      <trkpt lon="-2.214720" lat="53.112682"><ele>318.129272</ele><time>2022-03-04T12:10:29Z</time><extensions><speed>0.028717</speed><course>215.638885</course><hAcc>1.666411</hAcc><vAcc>0.823864</vAcc></extensions></trkpt>
      <trkpt lon="-2.214720" lat="53.112681"><ele>318.104797</ele><time>2022-03-04T12:10:30Z</time><extensions><speed>0.019891</speed><course>217.508774</course><hAcc>1.675185</hAcc><vAcc>0.823917</vAcc></extensions></trkpt>
      <trkpt lon="-2.214720" lat="53.112681"><ele>318.082672</ele><time>2022-03-04T12:10:31Z</time><extensions><speed>0.012316</speed><course>218.759506</course><hAcc>1.696899</hAcc><vAcc>0.823964</vAcc></extensions></trkpt>
      <trkpt lon="-2.214720" lat="53.112681"><ele>318.062988</ele><time>2022-03-04T12:10:32Z</time><extensions><speed>0.007893</speed><course>219.678299</course><hAcc>1.708562</hAcc><vAcc>0.823976</vAcc></extensions></trkpt>
      <trkpt lon="-2.214720" lat="53.112681"><ele>318.045654</ele><time>2022-03-04T12:10:33Z</time><extensions><speed>0.006909</speed><course>220.254028</course><hAcc>1.689663</hAcc><vAcc>0.823977</vAcc></extensions></trkpt>
      <trkpt lon="-2.214720" lat="53.112681"><ele>318.035309</ele><time>2022-03-04T12:10:34Z</time><extensions><speed>0.004249</speed><course>228.038712</course><hAcc>1.693258</hAcc><vAcc>0.823968</vAcc></extensions></trkpt>
      <trkpt lon="-2.214720" lat="53.112681"><ele>318.027802</ele><time>2022-03-04T12:10:35Z</time><extensions><speed>0.001705</speed><course>272.903748</course><hAcc>1.712089</hAcc><vAcc>0.823952</vAcc></extensions></trkpt>
      <trkpt lon="-2.214720" lat="53.112681"><ele>318.023010</ele><time>2022-03-04T12:10:36Z</time><extensions><speed>0.003554</speed><course>356.013092</course><hAcc>1.725877</hAcc><vAcc>0.823925</vAcc></extensions></trkpt>
      <trkpt lon="-2.214720" lat="53.112681"><ele>318.020752</ele><time>2022-03-04T12:10:38Z</time><extensions><speed>0.007926</speed><course>9.419944</course><hAcc>1.732047</hAcc><vAcc>0.823886</vAcc></extensions></trkpt>
      <trkpt lon="-2.214720" lat="53.112681"><ele>318.020844</ele><time>2022-03-04T12:10:39Z</time><extensions><speed>0.013600</speed><course>12.897695</course><hAcc>1.732324</hAcc><vAcc>0.823816</vAcc></extensions></trkpt>
      <trkpt lon="-2.214720" lat="53.112681"><ele>318.023041</ele><time>2022-03-04T12:10:40Z</time><extensions><speed>0.020728</speed><course>14.142347</course><hAcc>1.730281</hAcc><vAcc>0.823757</vAcc></extensions></trkpt>
      <trkpt lon="-2.214720" lat="53.112682"><ele>318.023132</ele><time>2022-03-04T12:10:41Z</time><extensions><speed>0.030246</speed><course>13.806488</course><hAcc>1.725478</hAcc><vAcc>0.823695</vAcc></extensions></trkpt>
      <trkpt lon="-2.214720" lat="53.112682"><ele>318.023926</ele><time>2022-03-04T12:10:42Z</time><extensions><speed>0.041885</speed><course>13.517906</course><hAcc>1.716795</hAcc><vAcc>0.823668</vAcc></extensions></trkpt>
      <trkpt lon="-2.214720" lat="53.112682"><ele>318.025452</ele><time>2022-03-04T12:10:43Z</time><extensions><speed>0.055428</speed><course>13.248916</course><hAcc>1.704056</hAcc><vAcc>0.823656</vAcc></extensions></trkpt>
      <trkpt lon="-2.214720" lat="53.112683"><ele>318.027374</ele><time>2022-03-04T12:10:44Z</time><extensions><speed>0.064914</speed><course>12.868240</course><hAcc>1.695857</hAcc><vAcc>0.823670</vAcc></extensions></trkpt>
      <trkpt lon="-2.214719" lat="53.112684"><ele>318.029388</ele><time>2022-03-04T12:10:45Z</time><extensions><speed>0.063679</speed><course>11.986665</course><hAcc>1.691012</hAcc><vAcc>0.823709</vAcc></extensions></trkpt>
      <trkpt lon="-2.214719" lat="53.112684"><ele>318.031097</ele><time>2022-03-04T12:10:46Z</time><extensions><speed>0.052814</speed><course>10.024405</course><hAcc>1.693864</hAcc><vAcc>0.823771</vAcc></extensions></trkpt>
      <trkpt lon="-2.214719" lat="53.112684"><ele>318.032257</ele><time>2022-03-04T12:10:47Z</time><extensions><speed>0.039579</speed><course>6.200704</course><hAcc>1.709414</hAcc><vAcc>0.823845</vAcc></extensions></trkpt>
      <trkpt lon="-2.214719" lat="53.112685"><ele>318.032654</ele><time>2022-03-04T12:10:48Z</time><extensions><speed>0.034771</speed><course>359.824188</course><hAcc>1.712035</hAcc><vAcc>0.823945</vAcc></extensions></trkpt>
      <trkpt lon="-2.214719" lat="53.112685"><ele>318.032227</ele><time>2022-03-04T12:10:49Z</time><extensions><speed>0.039976</speed><course>352.961823</course><hAcc>1.694066</hAcc><vAcc>0.824057</vAcc></extensions></trkpt>
      <trkpt lon="-2.214719" lat="53.112686"><ele>318.030975</ele><time>2022-03-04T12:10:50Z</time><extensions><speed>0.041445</speed><course>347.545258</course><hAcc>1.696061</hAcc><vAcc>0.824181</vAcc></extensions></trkpt>
      <trkpt lon="-2.214719" lat="53.112686"><ele>318.029053</ele><time>2022-03-04T12:10:51Z</time><extensions><speed>0.037429</speed><course>344.135986</course><hAcc>1.710903</hAcc><vAcc>0.824305</vAcc></extensions></trkpt>
      <trkpt lon="-2.214720" lat="53.112686"><ele>318.026581</ele><time>2022-03-04T12:10:52Z</time><extensions><speed>0.028432</speed><course>342.312531</course><hAcc>1.725824</hAcc><vAcc>0.824423</vAcc></extensions></trkpt>
      <trkpt lon="-2.214720" lat="53.112686"><ele>318.023773</ele><time>2022-03-04T12:10:53Z</time><extensions><speed>0.020460</speed><course>341.164978</course><hAcc>1.729701</hAcc><vAcc>0.824518</vAcc></extensions></trkpt>
      <trkpt lon="-2.214720" lat="53.112686"><ele>318.020752</ele><time>2022-03-04T12:10:54Z</time><extensions><speed>0.014144</speed><course>340.370758</course><hAcc>1.726194</hAcc><vAcc>0.824600</vAcc></extensions></trkpt>
      <trkpt lon="-2.214720" lat="53.112687"><ele>318.017700</ele><time>2022-03-04T12:10:55Z</time><extensions><speed>0.009550</speed><course>339.784180</course><hAcc>1.718792</hAcc><vAcc>0.824656</vAcc></extensions></trkpt>
      <trkpt lon="-2.214720" lat="53.112687"><ele>318.014648</ele><time>2022-03-04T12:10:56Z</time><extensions><speed>0.006217</speed><course>339.328461</course><hAcc>1.710192</hAcc><vAcc>0.824695</vAcc></extensions></trkpt>
      <trkpt lon="-2.214720" lat="53.112687"><ele>318.011719</ele><time>2022-03-04T12:10:57Z</time><extensions><speed>0.004011</speed><course>338.959534</course><hAcc>1.698114</hAcc><vAcc>0.824713</vAcc></extensions></trkpt>
      <trkpt lon="-2.214720" lat="53.112687"><ele>318.008911</ele><time>2022-03-04T12:10:58Z</time><extensions><speed>0.002509</speed><course>338.657166</course><hAcc>1.688797</hAcc><vAcc>0.824717</vAcc></extensions></trkpt>
      <trkpt lon="-2.214720" lat="53.112687"><ele>318.006317</ele><time>2022-03-04T12:10:59Z</time><extensions><speed>0.001473</speed><course>338.398499</course><hAcc>1.685619</hAcc><vAcc>0.824713</vAcc></extensions></trkpt>
      <trkpt lon="-2.214720" lat="53.112687"><ele>318.003937</ele><time>2022-03-04T12:11:00Z</time><extensions><speed>0.000901</speed><course>338.173431</course><hAcc>1.678150</hAcc><vAcc>0.824712</vAcc></extensions></trkpt>
      <trkpt lon="-2.214720" lat="53.112687"><ele>318.001770</ele><time>2022-03-04T12:11:01Z</time><extensions><speed>0.000555</speed><course>337.990906</course><hAcc>1.674209</hAcc><vAcc>0.824706</vAcc></extensions></trkpt>
      <trkpt lon="-2.214720" lat="53.112687"><ele>317.999847</ele><time>2022-03-04T12:11:02Z</time><extensions><speed>0.000349</speed><course>337.847839</course><hAcc>1.671871</hAcc><vAcc>0.824703</vAcc></extensions></trkpt>
      <trkpt lon="-2.214720" lat="53.112687"><ele>317.998169</ele><time>2022-03-04T12:11:03Z</time><extensions><speed>0.000259</speed><course>337.749329</course><hAcc>1.670223</hAcc><vAcc>0.824704</vAcc></extensions></trkpt>
      <trkpt lon="-2.214720" lat="53.112687"><ele>317.996704</ele><time>2022-03-04T12:11:04Z</time><extensions><speed>0.000136</speed><course>337.681244</course><hAcc>1.704874</hAcc><vAcc>0.824700</vAcc></extensions></trkpt>
      <trkpt lon="-2.214720" lat="53.112687"><ele>317.995453</ele><time>2022-03-04T12:11:05Z</time><extensions><speed>0.000121</speed><course>337.629608</course><hAcc>1.682645</hAcc><vAcc>0.824711</vAcc></extensions></trkpt>
      <trkpt lon="-2.214720" lat="53.112687"><ele>317.994385</ele><time>2022-03-04T12:11:06Z</time><extensions><speed>0.000093</speed><course>337.603271</course><hAcc>1.680453</hAcc><vAcc>0.824726</vAcc></extensions></trkpt>
      <trkpt lon="-2.214720" lat="53.112687"><ele>317.993500</ele><time>2022-03-04T12:11:07Z</time><extensions><speed>0.000066</speed><course>337.586517</course><hAcc>1.695507</hAcc><vAcc>0.824751</vAcc></extensions></trkpt>
      <trkpt lon="-2.214720" lat="53.112687"><ele>317.992767</ele><time>2022-03-04T12:11:08Z</time><extensions><speed>0.000045</speed><course>337.574463</course><hAcc>1.704952</hAcc><vAcc>0.824778</vAcc></extensions></trkpt>
      <trkpt lon="-2.214720" lat="53.112687"><ele>317.994873</ele><time>2022-03-04T12:11:09Z</time><extensions><speed>0.005878</speed><course>183.263779</course><hAcc>1.703075</hAcc><vAcc>0.824788</vAcc></extensions></trkpt>
      <trkpt lon="-2.214720" lat="53.112686"><ele>317.996979</ele><time>2022-03-04T12:11:10Z</time><extensions><speed>0.012606</speed><course>183.453262</course><hAcc>1.694465</hAcc><vAcc>0.824829</vAcc></extensions></trkpt>
      <trkpt lon="-2.214720" lat="53.112686"><ele>317.992584</ele><time>2022-03-04T12:11:11Z</time><extensions><speed>0.020101</speed><course>183.670944</course><hAcc>1.680783</hAcc><vAcc>0.824880</vAcc></extensions></trkpt>
      <trkpt lon="-2.214720" lat="53.112686"><ele>317.987549</ele><time>2022-03-04T12:11:12Z</time><extensions><speed>0.028791</speed><course>183.766495</course><hAcc>1.661430</hAcc><vAcc>0.824936</vAcc></extensions></trkpt>
      <trkpt lon="-2.214720" lat="53.112686"><ele>317.981873</ele><time>2022-03-04T12:11:13Z</time><extensions><speed>0.037829</speed><course>183.812744</course><hAcc>1.643451</hAcc><vAcc>0.824992</vAcc></extensions></trkpt>
      <trkpt lon="-2.214720" lat="53.112685"><ele>317.975525</ele><time>2022-03-04T12:11:14Z</time><extensions><speed>0.045653</speed><course>183.838806</course><hAcc>1.637858</hAcc><vAcc>0.825056</vAcc></extensions></trkpt>
      <trkpt lon="-2.214720" lat="53.112685"><ele>317.968475</ele><time>2022-03-04T12:11:15Z</time><extensions><speed>0.052801</speed><course>183.863922</course><hAcc>1.651138</hAcc><vAcc>0.825128</vAcc></extensions></trkpt>
      <trkpt lon="-2.214720" lat="53.112684"><ele>317.960693</ele><time>2022-03-04T12:11:16Z</time><extensions><speed>0.057721</speed><course>183.907486</course><hAcc>1.676677</hAcc><vAcc>0.825199</vAcc></extensions></trkpt>
      <trkpt lon="-2.214720" lat="53.112684"><ele>317.968109</ele><time>2022-03-04T12:11:17Z</time><extensions><speed>0.109428</speed><course>183.888824</course><hAcc>1.650820</hAcc><vAcc>0.825252</vAcc></extensions></trkpt>
      <trkpt lon="-2.214720" lat="53.112683"><ele>317.975281</ele><time>2022-03-04T12:11:18Z</time><extensions><speed>0.166227</speed><course>184.027512</course><hAcc>1.624090</hAcc><vAcc>0.825321</vAcc></extensions></trkpt>
      <trkpt lon="-2.214721" lat="53.112681"><ele>317.983856</ele><time>2022-03-04T12:11:19Z</time><extensions><speed>0.165693</speed><course>184.302841</course><hAcc>1.628986</hAcc><vAcc>0.825399</vAcc></extensions></trkpt>
      <trkpt lon="-2.214721" lat="53.112680"><ele>317.994019</ele><time>2022-03-04T12:11:20Z</time><extensions><speed>0.123450</speed><course>184.795410</course><hAcc>1.635727</hAcc><vAcc>0.825475</vAcc></extensions></trkpt>
      <trkpt lon="-2.214721" lat="53.112679"><ele>318.020508</ele><time>2022-03-04T12:11:21Z</time><extensions><speed>0.071482</speed><course>184.699432</course><hAcc>1.636592</hAcc><vAcc>0.825547</vAcc></extensions></trkpt>
      <trkpt lon="-2.214721" lat="53.112679"><ele>318.051147</ele><time>2022-03-04T12:11:22Z</time><extensions><speed>0.016146</speed><course>183.015671</course><hAcc>1.657365</hAcc><vAcc>0.825604</vAcc></extensions></trkpt>
      <trkpt lon="-2.214721" lat="53.112679"><ele>318.091125</ele><time>2022-03-04T12:11:23Z</time><extensions><speed>0.025227</speed><course>6.933471</course><hAcc>1.670396</hAcc><vAcc>0.825649</vAcc></extensions></trkpt>
      <trkpt lon="-2.214721" lat="53.112679"><ele>318.136108</ele><time>2022-03-04T12:11:24Z</time><extensions><speed>0.071785</speed><course>6.327593</course><hAcc>1.655851</hAcc><vAcc>0.825664</vAcc></extensions></trkpt>
      <trkpt lon="-2.214721" lat="53.112680"><ele>318.185822</ele><time>2022-03-04T12:11:25Z</time><extensions><speed>0.117697</speed><course>6.356021</course><hAcc>1.648829</hAcc><vAcc>0.825674</vAcc></extensions></trkpt>
      <trkpt lon="-2.214720" lat="53.112681"><ele>318.239807</ele><time>2022-03-04T12:11:26Z</time><extensions><speed>0.193882</speed><course>6.573561</course><hAcc>1.626644</hAcc><vAcc>0.825667</vAcc></extensions></trkpt>
      <trkpt lon="-2.214720" lat="53.112683"><ele>318.297333</ele><time>2022-03-04T12:11:27Z</time><extensions><speed>0.195569</speed><course>7.197470</course><hAcc>1.653388</hAcc><vAcc>0.825660</vAcc></extensions></trkpt>
      <trkpt lon="-2.214720" lat="53.112685"><ele>318.357391</ele><time>2022-03-04T12:11:28Z</time><extensions><speed>0.120259</speed><course>9.747797</course><hAcc>1.709007</hAcc><vAcc>0.825654</vAcc></extensions></trkpt>
      <trkpt lon="-2.214719" lat="53.112686"><ele>318.418976</ele><time>2022-03-04T12:11:29Z</time><extensions><speed>0.126760</speed><course>15.311165</course><hAcc>1.690516</hAcc><vAcc>0.825641</vAcc></extensions></trkpt>
      <trkpt lon="-2.214719" lat="53.112687"><ele>318.481018</ele><time>2022-03-04T12:11:30Z</time><extensions><speed>0.110978</speed><course>22.001921</course><hAcc>1.688680</hAcc><vAcc>0.825628</vAcc></extensions></trkpt>
      <trkpt lon="-2.214718" lat="53.112687"><ele>318.542389</ele><time>2022-03-04T12:11:31Z</time><extensions><speed>0.086853</speed><course>27.859251</course><hAcc>1.706997</hAcc><vAcc>0.825614</vAcc></extensions></trkpt>
      <trkpt lon="-2.214718" lat="53.112688"><ele>318.601990</ele><time>2022-03-04T12:11:31Z</time><extensions><speed>0.062764</speed><course>31.312187</course><hAcc>1.722597</hAcc><vAcc>0.825591</vAcc></extensions></trkpt>
      <trkpt lon="-2.214717" lat="53.112688"><ele>318.658752</ele><time>2022-03-04T12:11:32Z</time><extensions><speed>0.042997</speed><course>33.673405</course><hAcc>1.729763</hAcc><vAcc>0.825553</vAcc></extensions></trkpt>
      <trkpt lon="-2.214717" lat="53.112689"><ele>318.711914</ele><time>2022-03-04T12:11:33Z</time><extensions><speed>0.028361</speed><course>35.507526</course><hAcc>1.730792</hAcc><vAcc>0.825526</vAcc></extensions></trkpt>
      <trkpt lon="-2.214717" lat="53.112689"><ele>318.760864</ele><time>2022-03-04T12:11:34Z</time><extensions><speed>0.017928</speed><course>37.031311</course><hAcc>1.728377</hAcc><vAcc>0.825493</vAcc></extensions></trkpt>
      <trkpt lon="-2.214716" lat="53.112689"><ele>318.805298</ele><time>2022-03-04T12:11:35Z</time><extensions><speed>0.011048</speed><course>38.375706</course><hAcc>1.720498</hAcc><vAcc>0.825444</vAcc></extensions></trkpt>
      <trkpt lon="-2.214716" lat="53.112689"><ele>318.845093</ele><time>2022-03-04T12:11:36Z</time><extensions><speed>0.006818</speed><course>39.589363</course><hAcc>1.706529</hAcc><vAcc>0.825380</vAcc></extensions></trkpt>
      <trkpt lon="-2.214716" lat="53.112689"><ele>318.866119</ele><time>2022-03-04T12:11:37Z</time><extensions><speed>0.006087</speed><course>34.554142</course><hAcc>1.694948</hAcc><vAcc>0.825313</vAcc></extensions></trkpt>
      <trkpt lon="-2.214716" lat="53.112689"><ele>318.880585</ele><time>2022-03-04T12:11:38Z</time><extensions><speed>0.006805</speed><course>29.014149</course><hAcc>1.686519</hAcc><vAcc>0.825248</vAcc></extensions></trkpt>
      <trkpt lon="-2.214716" lat="53.112689"><ele>318.888672</ele><time>2022-03-04T12:11:39Z</time><extensions><speed>0.008706</speed><course>25.718815</course><hAcc>1.681753</hAcc><vAcc>0.825174</vAcc></extensions></trkpt>
      <trkpt lon="-2.214716" lat="53.112689"><ele>318.890686</ele><time>2022-03-04T12:11:40Z</time><extensions><speed>0.010741</speed><course>23.937338</course><hAcc>1.703326</hAcc><vAcc>0.825104</vAcc></extensions></trkpt>
      <trkpt lon="-2.214716" lat="53.112689"><ele>318.886993</ele><time>2022-03-04T12:11:41Z</time><extensions><speed>0.016275</speed><course>23.065531</course><hAcc>1.715223</hAcc><vAcc>0.825030</vAcc></extensions></trkpt>
      <trkpt lon="-2.214716" lat="53.112690"><ele>318.877960</ele><time>2022-03-04T12:11:42Z</time><extensions><speed>0.034430</speed><course>22.767925</course><hAcc>1.685586</hAcc><vAcc>0.824935</vAcc></extensions></trkpt>
      <trkpt lon="-2.214716" lat="53.112690"><ele>318.864105</ele><time>2022-03-04T12:11:43Z</time><extensions><speed>0.053171</speed><course>22.659580</course><hAcc>1.682592</hAcc><vAcc>0.824841</vAcc></extensions></trkpt>
      <trkpt lon="-2.214715" lat="53.112691"><ele>318.846008</ele><time>2022-03-04T12:11:44Z</time><extensions><speed>0.076044</speed><course>22.607309</course><hAcc>1.690597</hAcc><vAcc>0.824736</vAcc></extensions></trkpt>
      <trkpt lon="-2.214715" lat="53.112691"><ele>318.824371</ele><time>2022-03-04T12:11:45Z</time><extensions><speed>0.098701</speed><course>22.581482</course><hAcc>1.694069</hAcc><vAcc>0.824620</vAcc></extensions></trkpt>
      <trkpt lon="-2.214714" lat="53.112692"><ele>318.799957</ele><time>2022-03-04T12:11:46Z</time><extensions><speed>0.115267</speed><course>22.568867</course><hAcc>1.693175</hAcc><vAcc>0.824496</vAcc></extensions></trkpt>
      <trkpt lon="-2.214714" lat="53.112693"><ele>318.773712</ele><time>2022-03-04T12:11:47Z</time><extensions><speed>0.104102</speed><course>22.563364</course><hAcc>1.714775</hAcc><vAcc>0.824367</vAcc></extensions></trkpt>
      <trkpt lon="-2.214713" lat="53.112694"><ele>318.746674</ele><time>2022-03-04T12:11:48Z</time><extensions><speed>0.055951</speed><course>22.560581</course><hAcc>1.757942</hAcc><vAcc>0.824220</vAcc></extensions></trkpt>
      <trkpt lon="-2.214713" lat="53.112694"><ele>318.719727</ele><time>2022-03-04T12:11:49Z</time><extensions><speed>0.059438</speed><course>22.558847</course><hAcc>1.718085</hAcc><vAcc>0.824050</vAcc></extensions></trkpt>
      <trkpt lon="-2.214712" lat="53.112695"><ele>318.693542</ele><time>2022-03-04T12:11:50Z</time><extensions><speed>0.049932</speed><course>22.558159</course><hAcc>1.700303</hAcc><vAcc>0.823871</vAcc></extensions></trkpt>
      <trkpt lon="-2.214712" lat="53.112695"><ele>318.668640</ele><time>2022-03-04T12:11:51Z</time><extensions><speed>0.038160</speed><course>22.557775</course><hAcc>1.707263</hAcc><vAcc>0.823690</vAcc></extensions></trkpt>
      <trkpt lon="-2.214712" lat="53.112695"><ele>318.664764</ele><time>2022-03-04T12:11:52Z</time><extensions><speed>0.023968</speed><course>23.300375</course><hAcc>1.719493</hAcc><vAcc>0.823521</vAcc></extensions></trkpt>
      <trkpt lon="-2.214712" lat="53.112695"><ele>318.671356</ele><time>2022-03-04T12:11:53Z</time><extensions><speed>0.011102</speed><course>25.496161</course><hAcc>1.728343</hAcc><vAcc>0.823361</vAcc></extensions></trkpt>
      <trkpt lon="-2.214712" lat="53.112695"><ele>318.683014</ele><time>2022-03-04T12:11:54Z</time><extensions><speed>0.001295</speed><course>144.790390</course><hAcc>1.726662</hAcc><vAcc>0.823201</vAcc></extensions></trkpt>
      <trkpt lon="-2.214712" lat="53.112695"><ele>318.705078</ele><time>2022-03-04T12:11:55Z</time><extensions><speed>0.011815</speed><course>190.710541</course><hAcc>1.719779</hAcc><vAcc>0.823043</vAcc></extensions></trkpt>
      <trkpt lon="-2.214712" lat="53.112695"><ele>318.733429</ele><time>2022-03-04T12:11:56Z</time><extensions><speed>0.023373</speed><course>192.491318</course><hAcc>1.706045</hAcc><vAcc>0.822918</vAcc></extensions></trkpt>
      <trkpt lon="-2.214712" lat="53.112695"><ele>318.768005</ele><time>2022-03-04T12:11:57Z</time><extensions><speed>0.035987</speed><course>192.891830</course><hAcc>1.689100</hAcc><vAcc>0.822814</vAcc></extensions></trkpt>
      <trkpt lon="-2.214712" lat="53.112694"><ele>318.808441</ele><time>2022-03-04T12:11:58Z</time><extensions><speed>0.049147</speed><course>192.939423</course><hAcc>1.678264</hAcc><vAcc>0.822747</vAcc></extensions></trkpt>
      <trkpt lon="-2.214712" lat="53.112694"><ele>318.854248</ele><time>2022-03-04T12:11:59Z</time><extensions><speed>0.058438</speed><course>192.773178</course><hAcc>1.691323</hAcc><vAcc>0.822732</vAcc></extensions></trkpt>
      <trkpt lon="-2.214713" lat="53.112693"><ele>318.920532</ele><time>2022-03-04T12:12:00Z</time><extensions><speed>0.065239</speed><course>192.566132</course><hAcc>1.716514</hAcc><vAcc>0.822751</vAcc></extensions></trkpt>
      <trkpt lon="-2.214713" lat="53.112693"><ele>318.995758</ele><time>2022-03-04T12:12:01Z</time><extensions><speed>0.096392</speed><course>191.827240</course><hAcc>1.707827</hAcc><vAcc>0.822803</vAcc></extensions></trkpt>
      <trkpt lon="-2.214713" lat="53.112692"><ele>319.059875</ele><time>2022-03-04T12:12:02Z</time><extensions><speed>0.128309</speed><course>190.268677</course><hAcc>1.688872</hAcc><vAcc>0.822887</vAcc></extensions></trkpt>
      <trkpt lon="-2.214713" lat="53.112691"><ele>319.123596</ele><time>2022-03-04T12:12:03Z</time><extensions><speed>0.128659</speed><course>187.609634</course><hAcc>1.695014</hAcc><vAcc>0.823005</vAcc></extensions></trkpt>
      <trkpt lon="-2.214714" lat="53.112690"><ele>319.186707</ele><time>2022-03-04T12:12:04Z</time><extensions><speed>0.115665</speed><course>184.597443</course><hAcc>1.711021</hAcc><vAcc>0.823136</vAcc></extensions></trkpt>
      <trkpt lon="-2.214714" lat="53.112689"><ele>319.229401</ele><time>2022-03-04T12:12:05Z</time><extensions><speed>0.095292</speed><course>184.861893</course><hAcc>1.722248</hAcc><vAcc>0.823277</vAcc></extensions></trkpt>
      <trkpt lon="-2.214714" lat="53.112688"><ele>319.277588</ele><time>2022-03-04T12:12:06Z</time><extensions><speed>0.079132</speed><course>190.233658</course><hAcc>1.721251</hAcc><vAcc>0.823413</vAcc></extensions></trkpt>
      <trkpt lon="-2.214714" lat="53.112687"><ele>319.304382</ele><time>2022-03-04T12:12:07Z</time><extensions><speed>0.069574</speed><course>200.823807</course><hAcc>1.708698</hAcc><vAcc>0.823432</vAcc></extensions></trkpt>
      <trkpt lon="-2.214715" lat="53.112687"><ele>319.326752</ele><time>2022-03-04T12:12:08Z</time><extensions><speed>0.064573</speed><course>213.185364</course><hAcc>1.698092</hAcc><vAcc>0.823409</vAcc></extensions></trkpt>
      <trkpt lon="-2.214715" lat="53.112686"><ele>319.335388</ele><time>2022-03-04T12:12:09Z</time><extensions><speed>0.057639</speed><course>225.545166</course><hAcc>1.708696</hAcc><vAcc>0.823323</vAcc></extensions></trkpt>
      <trkpt lon="-2.214716" lat="53.112686"><ele>319.334686</ele><time>2022-03-04T12:12:10Z</time><extensions><speed>0.035053</speed><course>247.942322</course><hAcc>1.733817</hAcc><vAcc>0.823148</vAcc></extensions></trkpt>
      <trkpt lon="-2.214716" lat="53.112686"><ele>319.324646</ele><time>2022-03-04T12:12:11Z</time><extensions><speed>0.044883</speed><course>291.086731</course><hAcc>1.688034</hAcc><vAcc>0.822951</vAcc></extensions></trkpt>
      <trkpt lon="-2.214717" lat="53.112686"><ele>319.305420</ele><time>2022-03-04T12:12:12Z</time><extensions><speed>0.061621</speed><course>319.789642</course><hAcc>1.674530</hAcc><vAcc>0.822712</vAcc></extensions></trkpt>
      <trkpt lon="-2.214718" lat="53.112687"><ele>319.298584</ele><time>2022-03-04T12:12:13Z</time><extensions><speed>0.077754</speed><course>336.282104</course><hAcc>1.701058</hAcc><vAcc>0.822426</vAcc></extensions></trkpt>
      <trkpt lon="-2.214718" lat="53.112688"><ele>319.297882</ele><time>2022-03-04T12:12:14Z</time><extensions><speed>0.096491</speed><course>346.319427</course><hAcc>1.723940</hAcc><vAcc>0.822123</vAcc></extensions></trkpt>
      <trkpt lon="-2.214718" lat="53.112689"><ele>319.287933</ele><time>2022-03-04T12:12:15Z</time><extensions><speed>0.139162</speed><course>352.212891</course><hAcc>1.709092</hAcc><vAcc>0.821836</vAcc></extensions></trkpt>
      <trkpt lon="-2.214718" lat="53.112690"><ele>319.277649</ele><time>2022-03-04T12:12:16Z</time><extensions><speed>0.161793</speed><course>355.110870</course><hAcc>1.702559</hAcc><vAcc>0.821569</vAcc></extensions></trkpt>
      <trkpt lon="-2.214719" lat="53.112692"><ele>319.268555</ele><time>2022-03-04T12:12:17Z</time><extensions><speed>0.168069</speed><course>356.873657</course><hAcc>1.700897</hAcc><vAcc>0.821361</vAcc></extensions></trkpt>
      <trkpt lon="-2.214719" lat="53.112693"><ele>319.262146</ele><time>2022-03-04T12:12:18Z</time><extensions><speed>0.150113</speed><course>0.054025</course><hAcc>1.701695</hAcc><vAcc>0.821231</vAcc></extensions></trkpt>
      <trkpt lon="-2.214719" lat="53.112694"><ele>319.259308</ele><time>2022-03-04T12:12:19Z</time><extensions><speed>0.117549</speed><course>6.238595</course><hAcc>1.708960</hAcc><vAcc>0.821196</vAcc></extensions></trkpt>
      <trkpt lon="-2.214718" lat="53.112695"><ele>319.260742</ele><time>2022-03-04T12:12:20Z</time><extensions><speed>0.091061</speed><course>17.444910</course><hAcc>1.715273</hAcc><vAcc>0.821265</vAcc></extensions></trkpt>
      <trkpt lon="-2.214718" lat="53.112696"><ele>319.270905</ele><time>2022-03-04T12:12:21Z</time><extensions><speed>0.088527</speed><course>31.239737</course><hAcc>1.709787</hAcc><vAcc>0.821385</vAcc></extensions></trkpt>
      <trkpt lon="-2.214717" lat="53.112697"><ele>319.297333</ele><time>2022-03-04T12:12:22Z</time><extensions><speed>0.087946</speed><course>42.765995</course><hAcc>1.714986</hAcc><vAcc>0.821594</vAcc></extensions></trkpt>
      <trkpt lon="-2.214716" lat="53.112697"><ele>319.322144</ele><time>2022-03-04T12:12:23Z</time><extensions><speed>0.089750</speed><course>50.559761</course><hAcc>1.711847</hAcc><vAcc>0.821850</vAcc></extensions></trkpt>
      <trkpt lon="-2.214715" lat="53.112697"><ele>319.352905</ele><time>2022-03-04T12:12:24Z</time><extensions><speed>0.083797</speed><course>57.930176</course><hAcc>1.703782</hAcc><vAcc>0.822147</vAcc></extensions></trkpt>
      <trkpt lon="-2.214714" lat="53.112698"><ele>319.397552</ele><time>2022-03-04T12:12:25Z</time><extensions><speed>0.066235</speed><course>74.368713</course><hAcc>1.714253</hAcc><vAcc>0.822439</vAcc></extensions></trkpt>
      <trkpt lon="-2.214713" lat="53.112698"><ele>319.445923</ele><time>2022-03-04T12:12:26Z</time><extensions><speed>0.059659</speed><course>104.268677</course><hAcc>1.727885</hAcc><vAcc>0.822693</vAcc></extensions></trkpt>
      <trkpt lon="-2.214712" lat="53.112697"><ele>319.497345</ele><time>2022-03-04T12:12:27Z</time><extensions><speed>0.068687</speed><course>130.388748</course><hAcc>1.738795</hAcc><vAcc>0.822919</vAcc></extensions></trkpt>
      <trkpt lon="-2.214711" lat="53.112697"><ele>319.551208</ele><time>2022-03-04T12:12:28Z</time><extensions><speed>0.087468</speed><course>145.698227</course><hAcc>1.748511</hAcc><vAcc>0.823085</vAcc></extensions></trkpt>
      <trkpt lon="-2.214711" lat="53.112696"><ele>319.606964</ele><time>2022-03-04T12:12:29Z</time><extensions><speed>0.117923</speed><course>153.702530</course><hAcc>1.752090</hAcc><vAcc>0.823190</vAcc></extensions></trkpt>
      <trkpt lon="-2.214710" lat="53.112695"><ele>319.663940</ele><time>2022-03-04T12:12:30Z</time><extensions><speed>0.154591</speed><course>157.689880</course><hAcc>1.753311</hAcc><vAcc>0.823242</vAcc></extensions></trkpt>
      <trkpt lon="-2.214709" lat="53.112694"><ele>319.721497</ele><time>2022-03-04T12:12:31Z</time><extensions><speed>0.189374</speed><course>159.849380</course><hAcc>1.752473</hAcc><vAcc>0.823241</vAcc></extensions></trkpt>
      <trkpt lon="-2.214708" lat="53.112692"><ele>319.778748</ele><time>2022-03-04T12:12:32Z</time><extensions><speed>0.206633</speed><course>161.203247</course><hAcc>1.754063</hAcc><vAcc>0.823202</vAcc></extensions></trkpt>
      <trkpt lon="-2.214707" lat="53.112690"><ele>319.834900</ele><time>2022-03-04T12:12:33Z</time><extensions><speed>0.206959</speed><course>162.269531</course><hAcc>1.753503</hAcc><vAcc>0.823116</vAcc></extensions></trkpt>
      <trkpt lon="-2.214706" lat="53.112688"><ele>319.889221</ele><time>2022-03-04T12:12:34Z</time><extensions><speed>0.187965</speed><course>162.801376</course><hAcc>1.746489</hAcc><vAcc>0.822990</vAcc></extensions></trkpt>
      <trkpt lon="-2.214705" lat="53.112687"><ele>319.940918</ele><time>2022-03-04T12:12:35Z</time><extensions><speed>0.148927</speed><course>162.760818</course><hAcc>1.736878</hAcc><vAcc>0.822824</vAcc></extensions></trkpt>
      <trkpt lon="-2.214705" lat="53.112686"><ele>319.989349</ele><time>2022-03-04T12:12:36Z</time><extensions><speed>0.107580</speed><course>162.735901</course><hAcc>1.724634</hAcc><vAcc>0.822652</vAcc></extensions></trkpt>
      <trkpt lon="-2.214704" lat="53.112685"><ele>320.033997</ele><time>2022-03-04T12:12:37Z</time><extensions><speed>0.071705</speed><course>162.718155</course><hAcc>1.708953</hAcc><vAcc>0.822461</vAcc></extensions></trkpt>
      <trkpt lon="-2.214704" lat="53.112685"><ele>320.074524</ele><time>2022-03-04T12:12:38Z</time><extensions><speed>0.046870</speed><course>162.704300</course><hAcc>1.683216</hAcc><vAcc>0.822262</vAcc></extensions></trkpt>
      <trkpt lon="-2.214704" lat="53.112684"><ele>320.063873</ele><time>2022-03-04T12:12:39Z</time><extensions><speed>0.027998</speed><course>168.158310</course><hAcc>1.654192</hAcc><vAcc>0.822082</vAcc></extensions></trkpt>
      <trkpt lon="-2.214704" lat="53.112684"><ele>320.041779</ele><time>2022-03-04T12:12:40Z</time><extensions><speed>0.015555</speed><course>180.392609</course><hAcc>1.636802</hAcc><vAcc>0.821905</vAcc></extensions></trkpt>
      <trkpt lon="-2.214704" lat="53.112684"><ele>320.008392</ele><time>2022-03-04T12:12:41Z</time><extensions><speed>0.007507</speed><course>210.412231</course><hAcc>1.645483</hAcc><vAcc>0.821742</vAcc></extensions></trkpt>
      <trkpt lon="-2.214704" lat="53.112684"><ele>319.963959</ele><time>2022-03-04T12:12:42Z</time><extensions><speed>0.007994</speed><course>252.463654</course><hAcc>1.642899</hAcc><vAcc>0.821591</vAcc></extensions></trkpt>
      <trkpt lon="-2.214704" lat="53.112684"><ele>319.908783</ele><time>2022-03-04T12:12:44Z</time><extensions><speed>0.011190</speed><course>273.752167</course><hAcc>1.661736</hAcc><vAcc>0.821465</vAcc></extensions></trkpt>
      <trkpt lon="-2.214705" lat="53.112684"><ele>319.843506</ele><time>2022-03-04T12:12:45Z</time><extensions><speed>0.022181</speed><course>281.874939</course><hAcc>1.665190</hAcc><vAcc>0.821335</vAcc></extensions></trkpt>
      <trkpt lon="-2.214705" lat="53.112684"><ele>319.768860</ele><time>2022-03-04T12:12:46Z</time><extensions><speed>0.052724</speed><course>284.392761</course><hAcc>1.641495</hAcc><vAcc>0.821213</vAcc></extensions></trkpt>
      <trkpt lon="-2.214706" lat="53.112684"><ele>319.685974</ele><time>2022-03-04T12:12:47Z</time><extensions><speed>0.081656</speed><course>285.431763</course><hAcc>1.661779</hAcc><vAcc>0.821100</vAcc></extensions></trkpt>
      <trkpt lon="-2.214707" lat="53.112684"><ele>319.572815</ele><time>2022-03-04T12:12:48Z</time><extensions><speed>0.112324</speed><course>285.810822</course><hAcc>1.700498</hAcc><vAcc>0.820978</vAcc></extensions></trkpt>
      <trkpt lon="-2.214709" lat="53.112685"><ele>319.451752</ele><time>2022-03-04T12:12:49Z</time><extensions><speed>0.136799</speed><course>286.486938</course><hAcc>1.731005</hAcc><vAcc>0.820867</vAcc></extensions></trkpt>
      <trkpt lon="-2.214711" lat="53.112685"><ele>319.335754</ele><time>2022-03-04T12:12:50Z</time><extensions><speed>0.136691</speed><course>287.057831</course><hAcc>1.747471</hAcc><vAcc>0.820737</vAcc></extensions></trkpt>
      <trkpt lon="-2.214713" lat="53.112685"><ele>319.218994</ele><time>2022-03-04T12:12:51Z</time><extensions><speed>0.111137</speed><course>287.944672</course><hAcc>1.754505</hAcc><vAcc>0.820576</vAcc></extensions></trkpt>
      <trkpt lon="-2.214714" lat="53.112686"><ele>319.103424</ele><time>2022-03-04T12:12:52Z</time><extensions><speed>0.081626</speed><course>289.817291</course><hAcc>1.754690</hAcc><vAcc>0.820399</vAcc></extensions></trkpt>
      <trkpt lon="-2.214715" lat="53.112686"><ele>318.990997</ele><time>2022-03-04T12:12:53Z</time><extensions><speed>0.055467</speed><course>294.090088</course><hAcc>1.752607</hAcc><vAcc>0.820183</vAcc></extensions></trkpt>
      <trkpt lon="-2.214716" lat="53.112686"><ele>318.883118</ele><time>2022-03-04T12:12:54Z</time><extensions><speed>0.035609</speed><course>304.323853</course><hAcc>1.750496</hAcc><vAcc>0.819964</vAcc></extensions></trkpt>
      <trkpt lon="-2.214716" lat="53.112686"><ele>318.780975</ele><time>2022-03-04T12:12:55Z</time><extensions><speed>0.023969</speed><course>328.171448</course><hAcc>1.746387</hAcc><vAcc>0.819742</vAcc></extensions></trkpt>
      <trkpt lon="-2.214716" lat="53.112687"><ele>318.685425</ele><time>2022-03-04T12:12:56Z</time><extensions><speed>0.023836</speed><course>4.253725</course><hAcc>1.737454</hAcc><vAcc>0.819522</vAcc></extensions></trkpt>
      <trkpt lon="-2.214716" lat="53.112687"><ele>318.597321</ele><time>2022-03-04T12:12:57Z</time><extensions><speed>0.033092</speed><course>30.957975</course><hAcc>1.730864</hAcc><vAcc>0.819310</vAcc></extensions></trkpt>
      <trkpt lon="-2.214716" lat="53.112687"><ele>318.517365</ele><time>2022-03-04T12:12:58Z</time><extensions><speed>0.049760</speed><course>47.909004</course><hAcc>1.728413</hAcc><vAcc>0.819097</vAcc></extensions></trkpt>
      <trkpt lon="-2.214715" lat="53.112687"><ele>318.446136</ele><time>2022-03-04T12:12:59Z</time><extensions><speed>0.054968</speed><course>61.091263</course><hAcc>1.740121</hAcc><vAcc>0.818928</vAcc></extensions></trkpt>
      <trkpt lon="-2.214714" lat="53.112688"><ele>318.400879</ele><time>2022-03-04T12:13:00Z</time><extensions><speed>0.057806</speed><course>66.803284</course><hAcc>1.723026</hAcc><vAcc>0.818807</vAcc></extensions></trkpt>
      <trkpt lon="-2.214714" lat="53.112688"><ele>318.374603</ele><time>2022-03-04T12:13:01Z</time><extensions><speed>0.046044</speed><course>66.208015</course><hAcc>1.713980</hAcc><vAcc>0.818717</vAcc></extensions></trkpt>
      <trkpt lon="-2.214713" lat="53.112688"><ele>318.360168</ele><time>2022-03-04T12:13:02Z</time><extensions><speed>0.032542</speed><course>57.501572</course><hAcc>1.708484</hAcc><vAcc>0.818689</vAcc></extensions></trkpt>
      <trkpt lon="-2.214713" lat="53.112688"><ele>318.357086</ele><time>2022-03-04T12:13:03Z</time><extensions><speed>0.022559</speed><course>34.077084</course><hAcc>1.698600</hAcc><vAcc>0.818685</vAcc></extensions></trkpt>
      <trkpt lon="-2.214713" lat="53.112688"><ele>318.364594</ele><time>2022-03-04T12:13:04Z</time><extensions><speed>0.022493</speed><course>358.856628</course><hAcc>1.677508</hAcc><vAcc>0.818713</vAcc></extensions></trkpt>
      <trkpt lon="-2.214713" lat="53.112689"><ele>318.381714</ele><time>2022-03-04T12:13:05Z</time><extensions><speed>0.029398</speed><course>336.133606</course><hAcc>1.659520</hAcc><vAcc>0.818810</vAcc></extensions></trkpt>
      <trkpt lon="-2.214713" lat="53.112689"><ele>318.407623</ele><time>2022-03-04T12:13:06Z</time><extensions><speed>0.035748</speed><course>325.475525</course><hAcc>1.656495</hAcc><vAcc>0.818960</vAcc></extensions></trkpt>
      <trkpt lon="-2.214714" lat="53.112689"><ele>318.449890</ele><time>2022-03-04T12:13:07Z</time><extensions><speed>0.046586</speed><course>322.442383</course><hAcc>1.657437</hAcc><vAcc>0.819154</vAcc></extensions></trkpt>
      <trkpt lon="-2.214714" lat="53.112690"><ele>318.496002</ele><time>2022-03-04T12:13:08Z</time><extensions><speed>0.047357</speed><course>321.296478</course><hAcc>1.686174</hAcc><vAcc>0.819361</vAcc></extensions></trkpt>
      <trkpt lon="-2.214714" lat="53.112690"><ele>318.547913</ele><time>2022-03-04T12:13:09Z</time><extensions><speed>0.064904</speed><course>321.400909</course><hAcc>1.686955</hAcc><vAcc>0.819603</vAcc></extensions></trkpt>
      <trkpt lon="-2.214715" lat="53.112691"><ele>318.604034</ele><time>2022-03-04T12:13:10Z</time><extensions><speed>0.099270</speed><course>322.978760</course><hAcc>1.656444</hAcc><vAcc>0.819844</vAcc></extensions></trkpt>
      <trkpt lon="-2.214716" lat="53.112691"><ele>318.662537</ele><time>2022-03-04T12:13:11Z</time><extensions><speed>0.102920</speed><course>327.899017</course><hAcc>1.664427</hAcc><vAcc>0.820083</vAcc></extensions></trkpt>
      <trkpt lon="-2.214717" lat="53.112692"><ele>318.721710</ele><time>2022-03-04T12:13:12Z</time><extensions><speed>0.107811</speed><course>336.581360</course><hAcc>1.691996</hAcc><vAcc>0.820296</vAcc></extensions></trkpt>
      <trkpt lon="-2.214717" lat="53.112693"><ele>318.783691</ele><time>2022-03-04T12:13:13Z</time><extensions><speed>0.120855</speed><course>345.996185</course><hAcc>1.713862</hAcc><vAcc>0.820504</vAcc></extensions></trkpt>
      <trkpt lon="-2.214718" lat="53.112694"><ele>318.844360</ele><time>2022-03-04T12:13:14Z</time><extensions><speed>0.143690</speed><course>353.321838</course><hAcc>1.723359</hAcc><vAcc>0.820701</vAcc></extensions></trkpt>
      <trkpt lon="-2.214718" lat="53.112696"><ele>318.902893</ele><time>2022-03-04T12:13:15Z</time><extensions><speed>0.174985</speed><course>357.818176</course><hAcc>1.715593</hAcc><vAcc>0.820875</vAcc></extensions></trkpt>
      <trkpt lon="-2.214718" lat="53.112697"><ele>318.958618</ele><time>2022-03-04T12:13:16Z</time><extensions><speed>0.204296</speed><course>0.158127</course><hAcc>1.691568</hAcc><vAcc>0.821023</vAcc></extensions></trkpt>
      <trkpt lon="-2.214718" lat="53.112699"><ele>319.011017</ele><time>2022-03-04T12:13:17Z</time><extensions><speed>0.192642</speed><course>1.193698</course><hAcc>1.667575</hAcc><vAcc>0.821157</vAcc></extensions></trkpt>
      <trkpt lon="-2.214718" lat="53.112701"><ele>319.059631</ele><time>2022-03-04T12:13:18Z</time><extensions><speed>0.133795</speed><course>2.330356</course><hAcc>1.656191</hAcc><vAcc>0.821270</vAcc></extensions></trkpt>
      <trkpt lon="-2.214718" lat="53.112702"><ele>319.104309</ele><time>2022-03-04T12:13:19Z</time><extensions><speed>0.082741</speed><course>5.450301</course><hAcc>1.644820</hAcc><vAcc>0.821337</vAcc></extensions></trkpt>
      <trkpt lon="-2.214717" lat="53.112702"><ele>319.145020</ele><time>2022-03-04T12:13:20Z</time><extensions><speed>0.041914</speed><course>14.151627</course><hAcc>1.639978</hAcc><vAcc>0.821400</vAcc></extensions></trkpt>
      <trkpt lon="-2.214717" lat="53.112702"><ele>319.181793</ele><time>2022-03-04T12:13:21Z</time><extensions><speed>0.021428</speed><course>43.200489</course><hAcc>1.621023</hAcc><vAcc>0.821435</vAcc></extensions></trkpt>
      <trkpt lon="-2.214717" lat="53.112703"><ele>319.214661</ele><time>2022-03-04T12:13:22Z</time><extensions><speed>0.021776</speed><course>93.384056</course><hAcc>1.600804</hAcc><vAcc>0.821441</vAcc></extensions></trkpt>
      <trkpt lon="-2.214717" lat="53.112702"><ele>319.248932</ele><time>2022-03-04T12:13:23Z</time><extensions><speed>0.016738</speed><course>118.470123</course><hAcc>1.651059</hAcc><vAcc>0.821442</vAcc></extensions></trkpt>
      <trkpt lon="-2.214717" lat="53.112702"><ele>319.268921</ele><time>2022-03-04T12:13:24Z</time><extensions><speed>0.015219</speed><course>129.495499</course><hAcc>1.664191</hAcc><vAcc>0.821407</vAcc></extensions></trkpt>
      <trkpt lon="-2.214716" lat="53.112702"><ele>319.284027</ele><time>2022-03-04T12:13:25Z</time><extensions><speed>0.019384</speed><course>137.583206</course><hAcc>1.634641</hAcc><vAcc>0.821374</vAcc></extensions></trkpt>
      <trkpt lon="-2.214716" lat="53.112702"><ele>319.294830</ele><time>2022-03-04T12:13:26Z</time><extensions><speed>0.016775</speed><course>148.903580</course><hAcc>1.650533</hAcc><vAcc>0.821336</vAcc></extensions></trkpt>
      <trkpt lon="-2.214716" lat="53.112702"><ele>319.301605</ele><time>2022-03-04T12:13:27Z</time><extensions><speed>0.013564</speed><course>171.696274</course><hAcc>1.688757</hAcc><vAcc>0.821298</vAcc></extensions></trkpt>
      <trkpt lon="-2.214716" lat="53.112702"><ele>319.304596</ele><time>2022-03-04T12:13:28Z</time><extensions><speed>0.014514</speed><course>204.978165</course><hAcc>1.719198</hAcc><vAcc>0.821276</vAcc></extensions></trkpt>
      <trkpt lon="-2.214716" lat="53.112702"><ele>319.304138</ele><time>2022-03-04T12:13:29Z</time><extensions><speed>0.021123</speed><course>228.443680</course><hAcc>1.737830</hAcc><vAcc>0.821257</vAcc></extensions></trkpt>
      <trkpt lon="-2.214717" lat="53.112702"><ele>319.300507</ele><time>2022-03-04T12:13:30Z</time><extensions><speed>0.032339</speed><course>239.792343</course><hAcc>1.746116</hAcc><vAcc>0.821266</vAcc></extensions></trkpt>
      <trkpt lon="-2.214717" lat="53.112702"><ele>319.299469</ele><time>2022-03-04T12:13:31Z</time><extensions><speed>0.045054</speed><course>246.467255</course><hAcc>1.751163</hAcc><vAcc>0.821285</vAcc></extensions></trkpt>
      <trkpt lon="-2.214718" lat="53.112701"><ele>319.295135</ele><time>2022-03-04T12:13:32Z</time><extensions><speed>0.059722</speed><course>252.113510</course><hAcc>1.752425</hAcc><vAcc>0.821300</vAcc></extensions></trkpt>
      <trkpt lon="-2.214719" lat="53.112701"><ele>319.289154</ele><time>2022-03-04T12:13:33Z</time><extensions><speed>0.069140</speed><course>259.892181</course><hAcc>1.754655</hAcc><vAcc>0.821312</vAcc></extensions></trkpt>
      <trkpt lon="-2.214720" lat="53.112701"><ele>319.282166</ele><time>2022-03-04T12:13:34Z</time><extensions><speed>0.068425</speed><course>267.759705</course><hAcc>1.751746</hAcc><vAcc>0.821345</vAcc></extensions></trkpt>
      <trkpt lon="-2.214721" lat="53.112701"><ele>319.274750</ele><time>2022-03-04T12:13:35Z</time><extensions><speed>0.052568</speed><course>275.869293</course><hAcc>1.752499</hAcc><vAcc>0.821385</vAcc></extensions></trkpt>
      <trkpt lon="-2.214721" lat="53.112701"><ele>319.267487</ele><time>2022-03-04T12:13:36Z</time><extensions><speed>0.034864</speed><course>291.833771</course><hAcc>1.752526</hAcc><vAcc>0.821421</vAcc></extensions></trkpt>
      <trkpt lon="-2.214722" lat="53.112701"><ele>319.260742</ele><time>2022-03-04T12:13:37Z</time><extensions><speed>0.024797</speed><course>329.229095</course><hAcc>1.751969</hAcc><vAcc>0.821446</vAcc></extensions></trkpt>
      <trkpt lon="-2.214722" lat="53.112702"><ele>319.254822</ele><time>2022-03-04T12:13:38Z</time><extensions><speed>0.031365</speed><course>10.014922</course><hAcc>1.753894</hAcc><vAcc>0.821465</vAcc></extensions></trkpt>
      <trkpt lon="-2.214722" lat="53.112702"><ele>319.249847</ele><time>2022-03-04T12:13:38Z</time><extensions><speed>0.046103</speed><course>27.326187</course><hAcc>1.758989</hAcc><vAcc>0.821478</vAcc></extensions></trkpt>
      <trkpt lon="-2.214721" lat="53.112702"><ele>319.245880</ele><time>2022-03-04T12:13:39Z</time><extensions><speed>0.060756</speed><course>33.076878</course><hAcc>1.757049</hAcc><vAcc>0.821472</vAcc></extensions></trkpt>
      <trkpt lon="-2.214721" lat="53.112703"><ele>319.242798</ele><time>2022-03-04T12:13:40Z</time><extensions><speed>0.064950</speed><course>33.280327</course><hAcc>1.745430</hAcc><vAcc>0.821462</vAcc></extensions></trkpt>
      <trkpt lon="-2.214720" lat="53.112703"><ele>319.240509</ele><time>2022-03-04T12:13:41Z</time><extensions><speed>0.053385</speed><course>31.339001</course><hAcc>1.741715</hAcc><vAcc>0.821451</vAcc></extensions></trkpt>
      <trkpt lon="-2.214720" lat="53.112704"><ele>319.238831</ele><time>2022-03-04T12:13:42Z</time><extensions><speed>0.037006</speed><course>29.896870</course><hAcc>1.749419</hAcc><vAcc>0.821412</vAcc></extensions></trkpt>
      <trkpt lon="-2.214720" lat="53.112704"><ele>319.237732</ele><time>2022-03-04T12:13:43Z</time><extensions><speed>0.024893</speed><course>28.828371</course><hAcc>1.749179</hAcc><vAcc>0.821347</vAcc></extensions></trkpt>
      <trkpt lon="-2.214720" lat="53.112704"><ele>319.237030</ele><time>2022-03-04T12:13:44Z</time><extensions><speed>0.016355</speed><course>27.993605</course><hAcc>1.743023</hAcc><vAcc>0.821242</vAcc></extensions></trkpt>
      <trkpt lon="-2.214719" lat="53.112704"><ele>319.236725</ele><time>2022-03-04T12:13:45Z</time><extensions><speed>0.010547</speed><course>27.313637</course><hAcc>1.735336</hAcc><vAcc>0.821161</vAcc></extensions></trkpt>
      <trkpt lon="-2.214719" lat="53.112704"><ele>319.235504</ele><time>2022-03-04T12:13:46Z</time><extensions><speed>0.006290</speed><course>41.453247</course><hAcc>1.727851</hAcc><vAcc>0.821092</vAcc></extensions></trkpt>
      <trkpt lon="-2.214719" lat="53.112704"><ele>319.234680</ele><time>2022-03-04T12:13:47Z</time><extensions><speed>0.004420</speed><course>78.446228</course><hAcc>1.723362</hAcc><vAcc>0.821012</vAcc></extensions></trkpt>
      <trkpt lon="-2.214719" lat="53.112704"><ele>319.233887</ele><time>2022-03-04T12:13:48Z</time><extensions><speed>0.005855</speed><course>115.019363</course><hAcc>1.716612</hAcc><vAcc>0.820923</vAcc></extensions></trkpt>
      <trkpt lon="-2.214719" lat="53.112704"><ele>319.233063</ele><time>2022-03-04T12:13:49Z</time><extensions><speed>0.009263</speed><course>129.544128</course><hAcc>1.707794</hAcc><vAcc>0.820836</vAcc></extensions></trkpt>
      <trkpt lon="-2.214719" lat="53.112704"><ele>319.232208</ele><time>2022-03-04T12:13:50Z</time><extensions><speed>0.013333</speed><course>134.916260</course><hAcc>1.703575</hAcc><vAcc>0.820755</vAcc></extensions></trkpt>
      <trkpt lon="-2.214719" lat="53.112704"><ele>319.231293</ele><time>2022-03-04T12:13:51Z</time><extensions><speed>0.020275</speed><course>136.959564</course><hAcc>1.694435</hAcc><vAcc>0.820684</vAcc></extensions></trkpt>
      <trkpt lon="-2.214719" lat="53.112704"><ele>319.230286</ele><time>2022-03-04T12:13:52Z</time><extensions><speed>0.024063</speed><course>137.841370</course><hAcc>1.723525</hAcc><vAcc>0.820624</vAcc></extensions></trkpt>
      <trkpt lon="-2.214718" lat="53.112704"><ele>319.229187</ele><time>2022-03-04T12:13:53Z</time><extensions><speed>0.034383</speed><course>138.245377</course><hAcc>1.735942</hAcc><vAcc>0.820561</vAcc></extensions></trkpt>
      <trkpt lon="-2.214718" lat="53.112703"><ele>319.227997</ele><time>2022-03-04T12:13:54Z</time><extensions><speed>0.059541</speed><course>138.374588</course><hAcc>1.713275</hAcc><vAcc>0.820496</vAcc></extensions></trkpt>
      <trkpt lon="-2.214717" lat="53.112703"><ele>319.226715</ele><time>2022-03-04T12:13:55Z</time><extensions><speed>0.077732</speed><course>138.400177</course><hAcc>1.711167</hAcc><vAcc>0.820403</vAcc></extensions></trkpt>
      <trkpt lon="-2.214716" lat="53.112702"><ele>319.225433</ele><time>2022-03-04T12:13:56Z</time><extensions><speed>0.078624</speed><course>138.358093</course><hAcc>1.725939</hAcc><vAcc>0.820324</vAcc></extensions></trkpt>
      <trkpt lon="-2.214716" lat="53.112702"><ele>319.224152</ele><time>2022-03-04T12:13:57Z</time><extensions><speed>0.065048</speed><course>138.289917</course><hAcc>1.736160</hAcc><vAcc>0.820229</vAcc></extensions></trkpt>
      <trkpt lon="-2.214715" lat="53.112701"><ele>319.205536</ele><time>2022-03-04T12:13:58Z</time><extensions><speed>0.046103</speed><course>141.182114</course><hAcc>1.734114</hAcc><vAcc>0.820096</vAcc></extensions></trkpt>
      <trkpt lon="-2.214715" lat="53.112701"><ele>319.184357</ele><time>2022-03-04T12:13:59Z</time><extensions><speed>0.028701</speed><course>148.464508</course><hAcc>1.724395</hAcc><vAcc>0.819935</vAcc></extensions></trkpt>
      <trkpt lon="-2.214715" lat="53.112701"><ele>319.160614</ele><time>2022-03-04T12:14:00Z</time><extensions><speed>0.014661</speed><course>170.979309</course><hAcc>1.717470</hAcc><vAcc>0.819719</vAcc></extensions></trkpt>
      <trkpt lon="-2.214715" lat="53.112701"><ele>319.134369</ele><time>2022-03-04T12:14:01Z</time><extensions><speed>0.011208</speed><course>230.208939</course><hAcc>1.710137</hAcc><vAcc>0.819486</vAcc></extensions></trkpt>
      <trkpt lon="-2.214715" lat="53.112701"><ele>319.105652</ele><time>2022-03-04T12:14:02Z</time><extensions><speed>0.019001</speed><course>263.533997</course><hAcc>1.702456</hAcc><vAcc>0.819234</vAcc></extensions></trkpt>
      <trkpt lon="-2.214715" lat="53.112701"><ele>319.074493</ele><time>2022-03-04T12:14:03Z</time><extensions><speed>0.029098</speed><course>273.356384</course><hAcc>1.700932</hAcc><vAcc>0.818966</vAcc></extensions></trkpt>
      <trkpt lon="-2.214716" lat="53.112701"><ele>319.041077</ele><time>2022-03-04T12:14:04Z</time><extensions><speed>0.046119</speed><course>276.683319</course><hAcc>1.690971</hAcc><vAcc>0.818680</vAcc></extensions></trkpt>
      <trkpt lon="-2.214717" lat="53.112701"><ele>319.005707</ele><time>2022-03-04T12:14:05Z</time><extensions><speed>0.061729</speed><course>277.981018</course><hAcc>1.701339</hAcc><vAcc>0.818409</vAcc></extensions></trkpt>
      <trkpt lon="-2.214718" lat="53.112701"><ele>318.968750</ele><time>2022-03-04T12:14:06Z</time><extensions><speed>0.084733</speed><course>278.558655</course><hAcc>1.714298</hAcc><vAcc>0.818154</vAcc></extensions></trkpt>
      <trkpt lon="-2.214719" lat="53.112701"><ele>318.930878</ele><time>2022-03-04T12:14:07Z</time><extensions><speed>0.110481</speed><course>278.808167</course><hAcc>1.722162</hAcc><vAcc>0.817952</vAcc></extensions></trkpt>
      <trkpt lon="-2.214721" lat="53.112701"><ele>318.892853</ele><time>2022-03-04T12:14:08Z</time><extensions><speed>0.133462</speed><course>278.899719</course><hAcc>1.715655</hAcc><vAcc>0.817786</vAcc></extensions></trkpt>
      <trkpt lon="-2.214723" lat="53.112702"><ele>318.855621</ele><time>2022-03-04T12:14:09Z</time><extensions><speed>0.116038</speed><course>278.931610</course><hAcc>1.728974</hAcc><vAcc>0.817705</vAcc></extensions></trkpt>
      <trkpt lon="-2.214724" lat="53.112702"><ele>318.827576</ele><time>2022-03-04T12:14:10Z</time><extensions><speed>0.086455</speed><course>278.244812</course><hAcc>1.746616</hAcc><vAcc>0.817697</vAcc></extensions></trkpt>
      <trkpt lon="-2.214725" lat="53.112702"><ele>318.802917</ele><time>2022-03-04T12:14:11Z</time><extensions><speed>0.055700</speed><course>276.382294</course><hAcc>1.759339</hAcc><vAcc>0.817744</vAcc></extensions></trkpt>
      <trkpt lon="-2.214726" lat="53.112702"><ele>318.782013</ele><time>2022-03-04T12:14:12Z</time><extensions><speed>0.029784</speed><course>270.259186</course><hAcc>1.763006</hAcc><vAcc>0.817862</vAcc></extensions></trkpt>
      <trkpt lon="-2.214726" lat="53.112702"><ele>318.765076</ele><time>2022-03-04T12:14:13Z</time><extensions><speed>0.009834</speed><course>230.912643</course><hAcc>1.760181</hAcc><vAcc>0.818053</vAcc></extensions></trkpt>
      <trkpt lon="-2.214726" lat="53.112702"><ele>318.752228</ele><time>2022-03-04T12:14:14Z</time><extensions><speed>0.017801</speed><course>138.866989</course><hAcc>1.746038</hAcc><vAcc>0.818271</vAcc></extensions></trkpt>
      <trkpt lon="-2.214726" lat="53.112701"><ele>318.743378</ele><time>2022-03-04T12:14:15Z</time><extensions><speed>0.036752</speed><course>125.247963</course><hAcc>1.732615</hAcc><vAcc>0.818515</vAcc></extensions></trkpt>
      <trkpt lon="-2.214725" lat="53.112701"><ele>318.738403</ele><time>2022-03-04T12:14:16Z</time><extensions><speed>0.057381</speed><course>121.851128</course><hAcc>1.717120</hAcc><vAcc>0.818821</vAcc></extensions></trkpt>
      <trkpt lon="-2.214724" lat="53.112701"><ele>318.737030</ele><time>2022-03-04T12:14:17Z</time><extensions><speed>0.077962</speed><course>120.666870</course><hAcc>1.703991</hAcc><vAcc>0.819143</vAcc></extensions></trkpt>
      <trkpt lon="-2.214723" lat="53.112701"><ele>318.738892</ele><time>2022-03-04T12:14:18Z</time><extensions><speed>0.094620</speed><course>120.194473</course><hAcc>1.701668</hAcc><vAcc>0.819450</vAcc></extensions></trkpt>
      <trkpt lon="-2.214722" lat="53.112700"><ele>318.743500</ele><time>2022-03-04T12:14:19Z</time><extensions><speed>0.103089</speed><course>119.994186</course><hAcc>1.708628</hAcc><vAcc>0.819756</vAcc></extensions></trkpt>
      <trkpt lon="-2.214721" lat="53.112700"><ele>318.750336</ele><time>2022-03-04T12:14:20Z</time><extensions><speed>0.100918</speed><course>119.916016</course><hAcc>1.703139</hAcc><vAcc>0.820055</vAcc></extensions></trkpt>
      <trkpt lon="-2.214719" lat="53.112699"><ele>318.758728</ele><time>2022-03-04T12:14:21Z</time><extensions><speed>0.107336</speed><course>119.889366</course><hAcc>1.669352</hAcc><vAcc>0.820321</vAcc></extensions></trkpt>
      <trkpt lon="-2.214718" lat="53.112699"><ele>318.790161</ele><time>2022-03-04T12:14:22Z</time><extensions><speed>0.086117</speed><course>119.971809</course><hAcc>1.685709</hAcc><vAcc>0.820560</vAcc></extensions></trkpt>
      <trkpt lon="-2.214717" lat="53.112698"><ele>318.823883</ele><time>2022-03-04T12:14:23Z</time><extensions><speed>0.049392</speed><course>120.263008</course><hAcc>1.737246</hAcc><vAcc>0.820804</vAcc></extensions></trkpt>
      <trkpt lon="-2.214716" lat="53.112698"><ele>318.868988</ele><time>2022-03-04T12:14:24Z</time><extensions><speed>0.055890</speed><course>121.746178</course><hAcc>1.715779</hAcc><vAcc>0.821066</vAcc></extensions></trkpt>
      <trkpt lon="-2.214716" lat="53.112698"><ele>318.923828</ele><time>2022-03-04T12:14:25Z</time><extensions><speed>0.062641</speed><course>124.385201</course><hAcc>1.706400</hAcc><vAcc>0.821339</vAcc></extensions></trkpt>
      <trkpt lon="-2.214715" lat="53.112697"><ele>318.974182</ele><time>2022-03-04T12:14:26Z</time><extensions><speed>0.071232</speed><course>127.539413</course><hAcc>1.720727</hAcc><vAcc>0.821623</vAcc></extensions></trkpt>
      <trkpt lon="-2.214714" lat="53.112697"><ele>319.027924</ele><time>2022-03-04T12:14:27Z</time><extensions><speed>0.087531</speed><course>130.434982</course><hAcc>1.735986</hAcc><vAcc>0.821934</vAcc></extensions></trkpt>
      <trkpt lon="-2.214713" lat="53.112696"><ele>319.084839</ele><time>2022-03-04T12:14:28Z</time><extensions><speed>0.115017</speed><course>132.392578</course><hAcc>1.743056</hAcc><vAcc>0.822266</vAcc></extensions></trkpt>
      <trkpt lon="-2.214711" lat="53.112695"><ele>319.144165</ele><time>2022-03-04T12:14:29Z</time><extensions><speed>0.149761</speed><course>133.888260</course><hAcc>1.748116</hAcc><vAcc>0.822619</vAcc></extensions></trkpt>
      <trkpt lon="-2.214710" lat="53.112694"><ele>319.205200</ele><time>2022-03-04T12:14:30Z</time><extensions><speed>0.199993</speed><course>135.316360</course><hAcc>1.744987</hAcc><vAcc>0.822996</vAcc></extensions></trkpt>
      <trkpt lon="-2.214707" lat="53.112693"><ele>319.267120</ele><time>2022-03-04T12:14:31Z</time><extensions><speed>0.246603</speed><course>137.243011</course><hAcc>1.743661</hAcc><vAcc>0.823389</vAcc></extensions></trkpt>
      <trkpt lon="-2.214705" lat="53.112691"><ele>319.328735</ele><time>2022-03-04T12:14:32Z</time><extensions><speed>0.265618</speed><course>141.050797</course><hAcc>1.741834</hAcc><vAcc>0.823797</vAcc></extensions></trkpt>
      <trkpt lon="-2.214702" lat="53.112689"><ele>319.388733</ele><time>2022-03-04T12:14:33Z</time><extensions><speed>0.265482</speed><course>147.598221</course><hAcc>1.727877</hAcc><vAcc>0.824211</vAcc></extensions></trkpt>
      <trkpt lon="-2.214701" lat="53.112687"><ele>319.445831</ele><time>2022-03-04T12:14:34Z</time><extensions><speed>0.229933</speed><course>156.254990</course><hAcc>1.714629</hAcc><vAcc>0.824629</vAcc></extensions></trkpt>
      <trkpt lon="-2.214700" lat="53.112686"><ele>319.497162</ele><time>2022-03-04T12:14:35Z</time><extensions><speed>0.173739</speed><course>166.757263</course><hAcc>1.707176</hAcc><vAcc>0.825036</vAcc></extensions></trkpt>
      <trkpt lon="-2.214699" lat="53.112684"><ele>319.547180</ele><time>2022-03-04T12:14:36Z</time><extensions><speed>0.116118</speed><course>177.286255</course><hAcc>1.718797</hAcc><vAcc>0.825441</vAcc></extensions></trkpt>
      <trkpt lon="-2.214700" lat="53.112684"><ele>319.596283</ele><time>2022-03-04T12:14:37Z</time><extensions><speed>0.055878</speed><course>189.772202</course><hAcc>1.748006</hAcc><vAcc>0.825807</vAcc></extensions></trkpt>
      <trkpt lon="-2.214700" lat="53.112683"><ele>319.650635</ele><time>2022-03-04T12:14:38Z</time><extensions><speed>0.040716</speed><course>214.286011</course><hAcc>1.719523</hAcc><vAcc>0.826152</vAcc></extensions></trkpt>
      <trkpt lon="-2.214700" lat="53.112683"><ele>319.718262</ele><time>2022-03-04T12:14:39Z</time><extensions><speed>0.034345</speed><course>254.320786</course><hAcc>1.708422</hAcc><vAcc>0.826443</vAcc></extensions></trkpt>
      <trkpt lon="-2.214701" lat="53.112683"><ele>319.794769</ele><time>2022-03-04T12:14:40Z</time><extensions><speed>0.047658</speed><course>290.056000</course><hAcc>1.714582</hAcc><vAcc>0.826709</vAcc></extensions></trkpt>
      <trkpt lon="-2.214702" lat="53.112683"><ele>319.875824</ele><time>2022-03-04T12:14:41Z</time><extensions><speed>0.074166</speed><course>306.319855</course><hAcc>1.723507</hAcc><vAcc>0.826949</vAcc></extensions></trkpt>
      <trkpt lon="-2.214703" lat="53.112684"><ele>319.959229</ele><time>2022-03-04T12:14:42Z</time><extensions><speed>0.108248</speed><course>313.076233</course><hAcc>1.729465</hAcc><vAcc>0.827152</vAcc></extensions></trkpt>
      <trkpt lon="-2.214704" lat="53.112685"><ele>320.060455</ele><time>2022-03-04T12:14:43Z</time><extensions><speed>0.143436</speed><course>316.056213</course><hAcc>1.734167</hAcc><vAcc>0.827327</vAcc></extensions></trkpt>
      <trkpt lon="-2.214705" lat="53.112686"><ele>320.174805</ele><time>2022-03-04T12:14:44Z</time><extensions><speed>0.166733</speed><course>317.605042</course><hAcc>1.739065</hAcc><vAcc>0.827469</vAcc></extensions></trkpt>
      <trkpt lon="-2.214707" lat="53.112687"><ele>320.295044</ele><time>2022-03-04T12:14:45Z</time><extensions><speed>0.160290</speed><course>318.979980</course><hAcc>1.736663</hAcc><vAcc>0.827575</vAcc></extensions></trkpt>
      <trkpt lon="-2.214708" lat="53.112688"><ele>320.436615</ele><time>2022-03-04T12:14:46Z</time><extensions><speed>0.109308</speed><course>321.143433</course><hAcc>1.733428</hAcc><vAcc>0.827645</vAcc></extensions></trkpt>
      <trkpt lon="-2.214709" lat="53.112688"><ele>320.581116</ele><time>2022-03-04T12:14:47Z</time><extensions><speed>0.036796</speed><course>329.828125</course><hAcc>1.732933</hAcc><vAcc>0.827680</vAcc></extensions></trkpt>
      <trkpt lon="-2.214709" lat="53.112688"><ele>320.735260</ele><time>2022-03-04T12:14:48Z</time><extensions><speed>0.037407</speed><course>122.762566</course><hAcc>1.730079</hAcc><vAcc>0.827681</vAcc></extensions></trkpt>
      <trkpt lon="-2.214708" lat="53.112688"><ele>320.893707</ele><time>2022-03-04T12:14:50Z</time><extensions><speed>0.090370</speed><course>129.574600</course><hAcc>1.724095</hAcc><vAcc>0.827642</vAcc></extensions></trkpt>
      <trkpt lon="-2.214707" lat="53.112687"><ele>321.054016</ele><time>2022-03-04T12:14:51Z</time><extensions><speed>0.122855</speed><course>132.233261</course><hAcc>1.711162</hAcc><vAcc>0.827556</vAcc></extensions></trkpt>
      <trkpt lon="-2.214705" lat="53.112686"><ele>321.214355</ele><time>2022-03-04T12:14:52Z</time><extensions><speed>0.142925</speed><course>136.516800</course><hAcc>1.693497</hAcc><vAcc>0.827448</vAcc></extensions></trkpt>
      <trkpt lon="-2.214704" lat="53.112685"><ele>321.372681</ele><time>2022-03-04T12:14:53Z</time><extensions><speed>0.151591</speed><course>141.477219</course><hAcc>1.684869</hAcc><vAcc>0.827323</vAcc></extensions></trkpt>
      <trkpt lon="-2.214703" lat="53.112684"><ele>321.527100</ele><time>2022-03-04T12:14:54Z</time><extensions><speed>0.133511</speed><course>146.112000</course><hAcc>1.699651</hAcc><vAcc>0.827192</vAcc></extensions></trkpt>
      <trkpt lon="-2.214702" lat="53.112683"><ele>321.690125</ele><time>2022-03-04T12:14:55Z</time><extensions><speed>0.115150</speed><course>151.373337</course><hAcc>1.705433</hAcc><vAcc>0.827053</vAcc></extensions></trkpt>
      <trkpt lon="-2.214701" lat="53.112682"><ele>321.837250</ele><time>2022-03-04T12:14:56Z</time><extensions><speed>0.142420</speed><course>156.438293</course><hAcc>1.668877</hAcc><vAcc>0.826917</vAcc></extensions></trkpt>
      <trkpt lon="-2.214700" lat="53.112681"><ele>321.975861</ele><time>2022-03-04T12:14:57Z</time><extensions><speed>0.133585</speed><course>161.667603</course><hAcc>1.670437</hAcc><vAcc>0.826789</vAcc></extensions></trkpt>
      <trkpt lon="-2.214700" lat="53.112680"><ele>322.105896</ele><time>2022-03-04T12:14:58Z</time><extensions><speed>0.099372</speed><course>168.592728</course><hAcc>1.701054</hAcc><vAcc>0.826664</vAcc></extensions></trkpt>
      <trkpt lon="-2.214700" lat="53.112679"><ele>322.229004</ele><time>2022-03-04T12:14:59Z</time><extensions><speed>0.106100</speed><course>174.590759</course><hAcc>1.687769</hAcc><vAcc>0.826542</vAcc></extensions></trkpt>
      <trkpt lon="-2.214699" lat="53.112678"><ele>322.340302</ele><time>2022-03-04T12:15:00Z</time><extensions><speed>0.102600</speed><course>178.458313</course><hAcc>1.683728</hAcc><vAcc>0.826431</vAcc></extensions></trkpt>
      <trkpt lon="-2.214699" lat="53.112677"><ele>322.441101</ele><time>2022-03-04T12:15:01Z</time><extensions><speed>0.104160</speed><course>181.663666</course><hAcc>1.681858</hAcc><vAcc>0.826319</vAcc></extensions></trkpt>
      <trkpt lon="-2.214700" lat="53.112676"><ele>322.531799</ele><time>2022-03-04T12:15:02Z</time><extensions><speed>0.109673</speed><course>184.299286</course><hAcc>1.676430</hAcc><vAcc>0.826224</vAcc></extensions></trkpt>
      <trkpt lon="-2.214700" lat="53.112675"><ele>322.610016</ele><time>2022-03-04T12:15:03Z</time><extensions><speed>0.115585</speed><course>186.355804</course><hAcc>1.670728</hAcc><vAcc>0.826134</vAcc></extensions></trkpt>
      <trkpt lon="-2.214700" lat="53.112674"><ele>322.682373</ele><time>2022-03-04T12:15:04Z</time><extensions><speed>0.114731</speed><course>187.897980</course><hAcc>1.664733</hAcc><vAcc>0.826052</vAcc></extensions></trkpt>
      <trkpt lon="-2.214700" lat="53.112673"><ele>322.745819</ele><time>2022-03-04T12:15:05Z</time><extensions><speed>0.114163</speed><course>189.435211</course><hAcc>1.652251</hAcc><vAcc>0.825977</vAcc></extensions></trkpt>
      <trkpt lon="-2.214700" lat="53.112672"><ele>322.797546</ele><time>2022-03-04T12:15:06Z</time><extensions><speed>0.073895</speed><course>191.168457</course><hAcc>1.683639</hAcc><vAcc>0.825914</vAcc></extensions></trkpt>
      <trkpt lon="-2.214701" lat="53.112672"><ele>322.841217</ele><time>2022-03-04T12:15:07Z</time><extensions><speed>0.055853</speed><course>192.461578</course><hAcc>1.698363</hAcc><vAcc>0.825862</vAcc></extensions></trkpt>
      <trkpt lon="-2.214701" lat="53.112671"><ele>322.880646</ele><time>2022-03-04T12:15:08Z</time><extensions><speed>0.079362</speed><course>192.864075</course><hAcc>1.659173</hAcc><vAcc>0.825817</vAcc></extensions></trkpt>
      <trkpt lon="-2.214701" lat="53.112670"><ele>322.909210</ele><time>2022-03-04T12:15:09Z</time><extensions><speed>0.080544</speed><course>193.527100</course><hAcc>1.657055</hAcc><vAcc>0.825759</vAcc></extensions></trkpt>
      <trkpt lon="-2.214701" lat="53.112670"><ele>322.931458</ele><time>2022-03-04T12:15:10Z</time><extensions><speed>0.071284</speed><course>195.721298</course><hAcc>1.679245</hAcc><vAcc>0.825703</vAcc></extensions></trkpt>
      <trkpt lon="-2.214702" lat="53.112669"><ele>322.948883</ele><time>2022-03-04T12:15:11Z</time><extensions><speed>0.060104</speed><course>199.477066</course><hAcc>1.696113</hAcc><vAcc>0.825670</vAcc></extensions></trkpt>
      <trkpt lon="-2.214702" lat="53.112669"><ele>322.948456</ele><time>2022-03-04T12:15:12Z</time><extensions><speed>0.051440</speed><course>205.158707</course><hAcc>1.700587</hAcc><vAcc>0.825650</vAcc></extensions></trkpt>
      <trkpt lon="-2.214702" lat="53.112668"><ele>322.939209</ele><time>2022-03-04T12:15:13Z</time><extensions><speed>0.043463</speed><course>210.120987</course><hAcc>1.700115</hAcc><vAcc>0.825641</vAcc></extensions></trkpt>
      <trkpt lon="-2.214703" lat="53.112668"><ele>322.924500</ele><time>2022-03-04T12:15:14Z</time><extensions><speed>0.034494</speed><course>214.402786</course><hAcc>1.703635</hAcc><vAcc>0.825642</vAcc></extensions></trkpt>
      <trkpt lon="-2.214703" lat="53.112668"><ele>322.908295</ele><time>2022-03-04T12:15:15Z</time><extensions><speed>0.027993</speed><course>218.242752</course><hAcc>1.703918</hAcc><vAcc>0.825644</vAcc></extensions></trkpt>
      <trkpt lon="-2.214703" lat="53.112668"><ele>322.887360</ele><time>2022-03-04T12:15:16Z</time><extensions><speed>0.024322</speed><course>216.726044</course><hAcc>1.692273</hAcc><vAcc>0.825633</vAcc></extensions></trkpt>
      <trkpt lon="-2.214703" lat="53.112667"><ele>322.851807</ele><time>2022-03-04T12:15:17Z</time><extensions><speed>0.021798</speed><course>213.358383</course><hAcc>1.678289</hAcc><vAcc>0.825638</vAcc></extensions></trkpt>
      <trkpt lon="-2.214704" lat="53.112667"><ele>322.811646</ele><time>2022-03-04T12:15:18Z</time><extensions><speed>0.023143</speed><course>218.505814</course><hAcc>1.664957</hAcc><vAcc>0.825633</vAcc></extensions></trkpt>
      <trkpt lon="-2.214704" lat="53.112667"><ele>322.767731</ele><time>2022-03-04T12:15:19Z</time><extensions><speed>0.023518</speed><course>230.926239</course><hAcc>1.682158</hAcc><vAcc>0.825623</vAcc></extensions></trkpt>
      <trkpt lon="-2.214704" lat="53.112667"><ele>322.723694</ele><time>2022-03-04T12:15:20Z</time><extensions><speed>0.025594</speed><course>244.926010</course><hAcc>1.700576</hAcc><vAcc>0.825627</vAcc></extensions></trkpt>
      <trkpt lon="-2.214705" lat="53.112667"><ele>322.685699</ele><time>2022-03-04T12:15:21Z</time><extensions><speed>0.038936</speed><course>261.529572</course><hAcc>1.678258</hAcc><vAcc>0.825632</vAcc></extensions></trkpt>
      <trkpt lon="-2.214705" lat="53.112667"><ele>322.641357</ele><time>2022-03-04T12:15:22Z</time><extensions><speed>0.039916</speed><course>283.196381</course><hAcc>1.683401</hAcc><vAcc>0.825649</vAcc></extensions></trkpt>
      <trkpt lon="-2.214706" lat="53.112667"><ele>322.597229</ele><time>2022-03-04T12:15:23Z</time><extensions><speed>0.044874</speed><course>310.047699</course><hAcc>1.684577</hAcc><vAcc>0.825648</vAcc></extensions></trkpt>
      <trkpt lon="-2.214706" lat="53.112667"><ele>322.554230</ele><time>2022-03-04T12:15:24Z</time><extensions><speed>0.054968</speed><course>326.590698</course><hAcc>1.687143</hAcc><vAcc>0.825640</vAcc></extensions></trkpt>
      <trkpt lon="-2.214707" lat="53.112668"><ele>322.513031</ele><time>2022-03-04T12:15:25Z</time><extensions><speed>0.059613</speed><course>331.487366</course><hAcc>1.707022</hAcc><vAcc>0.825623</vAcc></extensions></trkpt>
      <trkpt lon="-2.214707" lat="53.112668"><ele>322.474243</ele><time>2022-03-04T12:15:26Z</time><extensions><speed>0.057994</speed><course>330.872772</course><hAcc>1.730592</hAcc><vAcc>0.825602</vAcc></extensions></trkpt>
      <trkpt lon="-2.214708" lat="53.112669"><ele>322.438354</ele><time>2022-03-04T12:15:27Z</time><extensions><speed>0.063709</speed><course>331.488007</course><hAcc>1.721964</hAcc><vAcc>0.825589</vAcc></extensions></trkpt>
      <trkpt lon="-2.214708" lat="53.112669"><ele>322.405792</ele><time>2022-03-04T12:15:28Z</time><extensions><speed>0.056189</speed><course>336.503052</course><hAcc>1.721978</hAcc><vAcc>0.825579</vAcc></extensions></trkpt>
      <trkpt lon="-2.214708" lat="53.112670"><ele>322.376862</ele><time>2022-03-04T12:15:29Z</time><extensions><speed>0.047649</speed><course>341.492188</course><hAcc>1.726455</hAcc><vAcc>0.825570</vAcc></extensions></trkpt>
      <trkpt lon="-2.214709" lat="53.112670"><ele>322.345245</ele><time>2022-03-04T12:15:30Z</time><extensions><speed>0.042517</speed><course>343.710388</course><hAcc>1.733359</hAcc><vAcc>0.825569</vAcc></extensions></trkpt>
      <trkpt lon="-2.214709" lat="53.112671"><ele>322.318939</ele><time>2022-03-04T12:15:31Z</time><extensions><speed>0.040435</speed><course>344.250275</course><hAcc>1.741198</hAcc><vAcc>0.825589</vAcc></extensions></trkpt>
      <trkpt lon="-2.214709" lat="53.112671"><ele>322.294891</ele><time>2022-03-04T12:15:32Z</time><extensions><speed>0.038672</speed><course>343.771576</course><hAcc>1.744666</hAcc><vAcc>0.825617</vAcc></extensions></trkpt>
      <trkpt lon="-2.214709" lat="53.112671"><ele>322.273132</ele><time>2022-03-04T12:15:33Z</time><extensions><speed>0.035876</speed><course>343.200562</course><hAcc>1.746494</hAcc><vAcc>0.825639</vAcc></extensions></trkpt>
      <trkpt lon="-2.214709" lat="53.112672"><ele>322.259033</ele><time>2022-03-04T12:15:34Z</time><extensions><speed>0.035485</speed><course>342.432526</course><hAcc>1.746789</hAcc><vAcc>0.825656</vAcc></extensions></trkpt>
      <trkpt lon="-2.214709" lat="53.112672"><ele>322.247650</ele><time>2022-03-04T12:15:35Z</time><extensions><speed>0.039424</speed><course>341.634552</course><hAcc>1.745702</hAcc><vAcc>0.825676</vAcc></extensions></trkpt>
      <trkpt lon="-2.214710" lat="53.112672"><ele>322.238708</ele><time>2022-03-04T12:15:36Z</time><extensions><speed>0.047752</speed><course>340.964569</course><hAcc>1.745614</hAcc><vAcc>0.825698</vAcc></extensions></trkpt>
      <trkpt lon="-2.214710" lat="53.112673"><ele>322.236053</ele><time>2022-03-04T12:15:37Z</time><extensions><speed>0.059844</speed><course>340.529938</course><hAcc>1.746179</hAcc><vAcc>0.825727</vAcc></extensions></trkpt>
      <trkpt lon="-2.214710" lat="53.112673"><ele>322.238983</ele><time>2022-03-04T12:15:38Z</time><extensions><speed>0.073811</speed><course>340.133728</course><hAcc>1.747297</hAcc><vAcc>0.825740</vAcc></extensions></trkpt>
      <trkpt lon="-2.214711" lat="53.112674"><ele>322.244202</ele><time>2022-03-04T12:15:39Z</time><extensions><speed>0.083793</speed><course>339.588562</course><hAcc>1.747792</hAcc><vAcc>0.825726</vAcc></extensions></trkpt>
      <trkpt lon="-2.214711" lat="53.112675"><ele>322.248779</ele><time>2022-03-04T12:15:40Z</time><extensions><speed>0.076188</speed><course>338.367126</course><hAcc>1.746781</hAcc><vAcc>0.825722</vAcc></extensions></trkpt>
      <trkpt lon="-2.214711" lat="53.112675"><ele>322.259796</ele><time>2022-03-04T12:15:40Z</time><extensions><speed>0.050813</speed><course>336.401031</course><hAcc>1.745672</hAcc><vAcc>0.825699</vAcc></extensions></trkpt>
      <trkpt lon="-2.214712" lat="53.112675"><ele>322.273773</ele><time>2022-03-04T12:15:41Z</time><extensions><speed>0.022818</speed><course>333.694122</course><hAcc>1.744342</hAcc><vAcc>0.825642</vAcc></extensions></trkpt>
      <trkpt lon="-2.214712" lat="53.112675"><ele>322.281952</ele><time>2022-03-04T12:15:42Z</time><extensions><speed>0.002548</speed><course>179.570755</course><hAcc>1.745903</hAcc><vAcc>0.825581</vAcc></extensions></trkpt>
      <trkpt lon="-2.214712" lat="53.112675"><ele>322.293854</ele><time>2022-03-04T12:15:43Z</time><extensions><speed>0.022024</speed><course>154.734390</course><hAcc>1.742226</hAcc><vAcc>0.825509</vAcc></extensions></trkpt>
      <trkpt lon="-2.214711" lat="53.112675"><ele>322.305450</ele><time>2022-03-04T12:15:44Z</time><extensions><speed>0.036634</speed><course>150.500870</course><hAcc>1.736547</hAcc><vAcc>0.825430</vAcc></extensions></trkpt>
      <trkpt lon="-2.214711" lat="53.112675"><ele>322.317139</ele><time>2022-03-04T12:15:45Z</time><extensions><speed>0.047406</speed><course>148.014374</course><hAcc>1.731175</hAcc><vAcc>0.825347</vAcc></extensions></trkpt>
      <trkpt lon="-2.214711" lat="53.112674"><ele>322.327057</ele><time>2022-03-04T12:15:46Z</time><extensions><speed>0.052670</speed><course>145.989609</course><hAcc>1.721217</hAcc><vAcc>0.825273</vAcc></extensions></trkpt>
      <trkpt lon="-2.214710" lat="53.112674"><ele>322.332397</ele><time>2022-03-04T12:15:47Z</time><extensions><speed>0.050542</speed><course>144.208267</course><hAcc>1.714092</hAcc><vAcc>0.825205</vAcc></extensions></trkpt>
      <trkpt lon="-2.214710" lat="53.112674"><ele>322.336914</ele><time>2022-03-04T12:15:48Z</time><extensions><speed>0.042864</speed><course>142.708221</course><hAcc>1.710246</hAcc><vAcc>0.825149</vAcc></extensions></trkpt>
      <trkpt lon="-2.214709" lat="53.112673"><ele>322.339539</ele><time>2022-03-04T12:15:49Z</time><extensions><speed>0.039975</speed><course>144.006119</course><hAcc>1.690421</hAcc><vAcc>0.825110</vAcc></extensions></trkpt>
      <trkpt lon="-2.214709" lat="53.112673"><ele>322.343597</ele><time>2022-03-04T12:15:50Z</time><extensions><speed>0.034722</speed><course>151.087540</course><hAcc>1.698918</hAcc><vAcc>0.825088</vAcc></extensions></trkpt>
      <trkpt lon="-2.214709" lat="53.112673"><ele>322.343475</ele><time>2022-03-04T12:15:51Z</time><extensions><speed>0.025786</speed><course>165.011322</course><hAcc>1.734900</hAcc><vAcc>0.825083</vAcc></extensions></trkpt>
      <trkpt lon="-2.214709" lat="53.112672"><ele>322.343140</ele><time>2022-03-04T12:15:52Z</time><extensions><speed>0.045479</speed><course>176.290253</course><hAcc>1.703116</hAcc><vAcc>0.825090</vAcc></extensions></trkpt>
      <trkpt lon="-2.214709" lat="53.112672"><ele>322.342285</ele><time>2022-03-04T12:15:53Z</time><extensions><speed>0.060404</speed><course>181.164902</course><hAcc>1.696331</hAcc><vAcc>0.825103</vAcc></extensions></trkpt>
      <trkpt lon="-2.214709" lat="53.112671"><ele>322.338501</ele><time>2022-03-04T12:15:54Z</time><extensions><speed>0.065639</speed><course>186.829529</course><hAcc>1.711786</hAcc><vAcc>0.825149</vAcc></extensions></trkpt>
      <trkpt lon="-2.214709" lat="53.112671"><ele>322.334869</ele><time>2022-03-04T12:15:55Z</time><extensions><speed>0.064881</speed><course>192.881393</course><hAcc>1.724190</hAcc><vAcc>0.825205</vAcc></extensions></trkpt>
      <trkpt lon="-2.214709" lat="53.112670"><ele>322.321442</ele><time>2022-03-04T12:15:56Z</time><extensions><speed>0.059533</speed><course>198.289444</course><hAcc>1.735057</hAcc><vAcc>0.825277</vAcc></extensions></trkpt>
      <trkpt lon="-2.214710" lat="53.112670"><ele>322.302063</ele><time>2022-03-04T12:15:57Z</time><extensions><speed>0.055869</speed><course>200.018539</course><hAcc>1.743051</hAcc><vAcc>0.825348</vAcc></extensions></trkpt>
      <trkpt lon="-2.214710" lat="53.112669"><ele>322.287109</ele><time>2022-03-04T12:15:58Z</time><extensions><speed>0.056539</speed><course>198.269745</course><hAcc>1.746503</hAcc><vAcc>0.825417</vAcc></extensions></trkpt>
      <trkpt lon="-2.214710" lat="53.112669"><ele>322.274902</ele><time>2022-03-04T12:15:59Z</time><extensions><speed>0.058690</speed><course>196.441650</course><hAcc>1.745156</hAcc><vAcc>0.825486</vAcc></extensions></trkpt>
      <trkpt lon="-2.214710" lat="53.112668"><ele>322.259796</ele><time>2022-03-04T12:16:00Z</time><extensions><speed>0.054149</speed><course>196.449478</course><hAcc>1.742703</hAcc><vAcc>0.825527</vAcc></extensions></trkpt>
      <trkpt lon="-2.214711" lat="53.112668"><ele>322.237427</ele><time>2022-03-04T12:16:01Z</time><extensions><speed>0.044335</speed><course>197.930222</course><hAcc>1.740097</hAcc><vAcc>0.825544</vAcc></extensions></trkpt>
      <trkpt lon="-2.214711" lat="53.112668"><ele>322.210693</ele><time>2022-03-04T12:16:02Z</time><extensions><speed>0.030297</speed><course>198.555542</course><hAcc>1.744447</hAcc><vAcc>0.825571</vAcc></extensions></trkpt>
      <trkpt lon="-2.214711" lat="53.112667"><ele>322.179718</ele><time>2022-03-04T12:16:03Z</time><extensions><speed>0.014837</speed><course>210.656616</course><hAcc>1.750745</hAcc><vAcc>0.825579</vAcc></extensions></trkpt>
      <trkpt lon="-2.214711" lat="53.112667"><ele>322.150543</ele><time>2022-03-04T12:16:04Z</time><extensions><speed>0.010380</speed><course>266.587372</course><hAcc>1.741199</hAcc><vAcc>0.825579</vAcc></extensions></trkpt>
      <trkpt lon="-2.214711" lat="53.112667"><ele>322.114960</ele><time>2022-03-04T12:16:05Z</time><extensions><speed>0.018097</speed><course>294.031891</course><hAcc>1.737082</hAcc><vAcc>0.825571</vAcc></extensions></trkpt>
      <trkpt lon="-2.214712" lat="53.112668"><ele>322.069489</ele><time>2022-03-04T12:16:06Z</time><extensions><speed>0.021207</speed><course>297.943085</course><hAcc>1.741138</hAcc><vAcc>0.825512</vAcc></extensions></trkpt>
      <trkpt lon="-2.214712" lat="53.112668"><ele>322.018341</ele><time>2022-03-04T12:16:07Z</time><extensions><speed>0.019013</speed><course>296.432159</course><hAcc>1.743221</hAcc><vAcc>0.825415</vAcc></extensions></trkpt>
      <trkpt lon="-2.214712" lat="53.112668"><ele>321.954895</ele><time>2022-03-04T12:16:08Z</time><extensions><speed>0.021328</speed><course>300.273621</course><hAcc>1.744280</hAcc><vAcc>0.825301</vAcc></extensions></trkpt>
      <trkpt lon="-2.214713" lat="53.112668"><ele>321.880432</ele><time>2022-03-04T12:16:09Z</time><extensions><speed>0.035965</speed><course>308.773773</course><hAcc>1.742838</hAcc><vAcc>0.825092</vAcc></extensions></trkpt>
      <trkpt lon="-2.214713" lat="53.112668"><ele>321.801727</ele><time>2022-03-04T12:16:10Z</time><extensions><speed>0.059781</speed><course>313.074951</course><hAcc>1.746395</hAcc><vAcc>0.824846</vAcc></extensions></trkpt>
      <trkpt lon="-2.214714" lat="53.112669"><ele>321.719879</ele><time>2022-03-04T12:16:11Z</time><extensions><speed>0.089378</speed><course>315.799042</course><hAcc>1.748955</hAcc><vAcc>0.824534</vAcc></extensions></trkpt>
      <trkpt lon="-2.214715" lat="53.112669"><ele>321.630005</ele><time>2022-03-04T12:16:12Z</time><extensions><speed>0.125099</speed><course>318.634186</course><hAcc>1.745733</hAcc><vAcc>0.824144</vAcc></extensions></trkpt>
      <trkpt lon="-2.214716" lat="53.112670"><ele>321.539612</ele><time>2022-03-04T12:16:13Z</time><extensions><speed>0.156853</speed><course>323.359650</course><hAcc>1.746036</hAcc><vAcc>0.823523</vAcc></extensions></trkpt>
      <trkpt lon="-2.214718" lat="53.112672"><ele>321.448059</ele><time>2022-03-04T12:16:14Z</time><extensions><speed>0.184593</speed><course>328.429871</course><hAcc>1.749794</hAcc><vAcc>0.822712</vAcc></extensions></trkpt>
      <trkpt lon="-2.214719" lat="53.112673"><ele>321.355743</ele><time>2022-03-04T12:16:15Z</time><extensions><speed>0.207073</speed><course>333.274994</course><hAcc>1.755580</hAcc><vAcc>0.821665</vAcc></extensions></trkpt>
      <trkpt lon="-2.214721" lat="53.112675"><ele>321.263733</ele><time>2022-03-04T12:16:16Z</time><extensions><speed>0.238755</speed><course>338.394226</course><hAcc>1.752517</hAcc><vAcc>0.820428</vAcc></extensions></trkpt>
      <trkpt lon="-2.214722" lat="53.112677"><ele>321.168976</ele><time>2022-03-04T12:16:17Z</time><extensions><speed>0.258359</speed><course>341.885406</course><hAcc>1.753029</hAcc><vAcc>0.819117</vAcc></extensions></trkpt>
      <trkpt lon="-2.214723" lat="53.112680"><ele>321.066498</ele><time>2022-03-04T12:16:18Z</time><extensions><speed>0.266920</speed><course>342.203186</course><hAcc>1.756092</hAcc><vAcc>0.817666</vAcc></extensions></trkpt>
      <trkpt lon="-2.214724" lat="53.112682"><ele>320.966034</ele><time>2022-03-04T12:16:19Z</time><extensions><speed>0.273178</speed><course>340.166931</course><hAcc>1.753899</hAcc><vAcc>0.816051</vAcc></extensions></trkpt>
      <trkpt lon="-2.214726" lat="53.112684"><ele>320.868683</ele><time>2022-03-04T12:16:20Z</time><extensions><speed>0.267210</speed><course>337.891632</course><hAcc>1.754633</hAcc><vAcc>0.814277</vAcc></extensions></trkpt>
      <trkpt lon="-2.214727" lat="53.112686"><ele>320.775299</ele><time>2022-03-04T12:16:21Z</time><extensions><speed>0.256053</speed><course>336.523376</course><hAcc>1.754641</hAcc><vAcc>0.812406</vAcc></extensions></trkpt>
      <trkpt lon="-2.214729" lat="53.112688"><ele>320.686371</ele><time>2022-03-04T12:16:22Z</time><extensions><speed>0.233144</speed><course>335.208038</course><hAcc>1.748738</hAcc><vAcc>0.810595</vAcc></extensions></trkpt>
      <trkpt lon="-2.214730" lat="53.112690"><ele>320.602234</ele><time>2022-03-04T12:16:23Z</time><extensions><speed>0.186792</speed><course>333.317413</course><hAcc>1.739436</hAcc><vAcc>0.808963</vAcc></extensions></trkpt>
      <trkpt lon="-2.214731" lat="53.112691"><ele>320.536133</ele><time>2022-03-04T12:16:24Z</time><extensions><speed>0.116150</speed><course>328.695587</course><hAcc>1.729496</hAcc><vAcc>0.807579</vAcc></extensions></trkpt>
      <trkpt lon="-2.214732" lat="53.112692"><ele>320.474579</ele><time>2022-03-04T12:16:25Z</time><extensions><speed>0.053011</speed><course>316.927307</course><hAcc>1.717458</hAcc><vAcc>0.806367</vAcc></extensions></trkpt>
      <trkpt lon="-2.214732" lat="53.112692"><ele>320.421173</ele><time>2022-03-04T12:16:26Z</time><extensions><speed>0.020072</speed><course>242.882721</course><hAcc>1.704249</hAcc><vAcc>0.805373</vAcc></extensions></trkpt>
      <trkpt lon="-2.214732" lat="53.112691"><ele>320.369202</ele><time>2022-03-04T12:16:27Z</time><extensions><speed>0.037324</speed><course>190.914322</course><hAcc>1.702233</hAcc><vAcc>0.804805</vAcc></extensions></trkpt>
      <trkpt lon="-2.214733" lat="53.112691"><ele>320.327942</ele><time>2022-03-04T12:16:28Z</time><extensions><speed>0.046084</speed><course>182.011871</course><hAcc>1.719679</hAcc><vAcc>0.804607</vAcc></extensions></trkpt>
      <trkpt lon="-2.214733" lat="53.112691"><ele>320.287079</ele><time>2022-03-04T12:16:29Z</time><extensions><speed>0.060947</speed><course>178.760574</course><hAcc>1.722008</hAcc><vAcc>0.804720</vAcc></extensions></trkpt>
      <trkpt lon="-2.214733" lat="53.112690"><ele>320.252441</ele><time>2022-03-04T12:16:30Z</time><extensions><speed>0.101907</speed><course>177.679825</course><hAcc>1.700467</hAcc><vAcc>0.805106</vAcc></extensions></trkpt>
      <trkpt lon="-2.214732" lat="53.112689"><ele>320.223663</ele><time>2022-03-04T12:16:31Z</time><extensions><speed>0.126715</speed><course>177.358154</course><hAcc>1.714948</hAcc><vAcc>0.805727</vAcc></extensions></trkpt>
      <trkpt lon="-2.214732" lat="53.112688"><ele>320.191956</ele><time>2022-03-04T12:16:32Z</time><extensions><speed>0.174334</speed><course>177.185989</course><hAcc>1.719228</hAcc><vAcc>0.806574</vAcc></extensions></trkpt>
      <trkpt lon="-2.214732" lat="53.112686"><ele>320.163788</ele><time>2022-03-04T12:16:33Z</time><extensions><speed>0.191585</speed><course>177.415222</course><hAcc>1.731717</hAcc><vAcc>0.807482</vAcc></extensions></trkpt>
      <trkpt lon="-2.214732" lat="53.112684"><ele>320.138092</ele><time>2022-03-04T12:16:34Z</time><extensions><speed>0.149021</speed><course>178.807709</course><hAcc>1.743482</hAcc><vAcc>0.808373</vAcc></extensions></trkpt>
      <trkpt lon="-2.214732" lat="53.112683"><ele>320.113953</ele><time>2022-03-04T12:16:35Z</time><extensions><speed>0.070247</speed><course>192.105530</course><hAcc>1.751094</hAcc><vAcc>0.809246</vAcc></extensions></trkpt>
      <trkpt lon="-2.214733" lat="53.112683"><ele>320.090576</ele><time>2022-03-04T12:16:36Z</time><extensions><speed>0.037227</speed><course>266.527069</course><hAcc>1.760414</hAcc><vAcc>0.809958</vAcc></extensions></trkpt>
      <trkpt lon="-2.214733" lat="53.112683"><ele>320.075043</ele><time>2022-03-04T12:16:37Z</time><extensions><speed>0.062973</speed><course>302.395477</course><hAcc>1.753044</hAcc><vAcc>0.810627</vAcc></extensions></trkpt>
      <trkpt lon="-2.214734" lat="53.112684"><ele>320.055817</ele><time>2022-03-04T12:16:38Z</time><extensions><speed>0.073178</speed><course>311.611664</course><hAcc>1.745763</hAcc><vAcc>0.811204</vAcc></extensions></trkpt>
      <trkpt lon="-2.214735" lat="53.112684"><ele>320.036102</ele><time>2022-03-04T12:16:39Z</time><extensions><speed>0.067673</speed><course>323.007263</course><hAcc>1.743302</hAcc><vAcc>0.811620</vAcc></extensions></trkpt>
      <trkpt lon="-2.214735" lat="53.112685"><ele>320.011536</ele><time>2022-03-04T12:16:40Z</time><extensions><speed>0.057711</speed><course>341.604187</course><hAcc>1.742665</hAcc><vAcc>0.811870</vAcc></extensions></trkpt>
      <trkpt lon="-2.214735" lat="53.112685"><ele>319.980347</ele><time>2022-03-04T12:16:41Z</time><extensions><speed>0.055830</speed><course>3.914772</course><hAcc>1.733220</hAcc><vAcc>0.811963</vAcc></extensions></trkpt>
      <trkpt lon="-2.214735" lat="53.112686"><ele>319.948120</ele><time>2022-03-04T12:16:42Z</time><extensions><speed>0.055424</speed><course>17.744654</course><hAcc>1.714945</hAcc><vAcc>0.811861</vAcc></extensions></trkpt>
      <trkpt lon="-2.214735" lat="53.112686"><ele>319.915100</ele><time>2022-03-04T12:16:43Z</time><extensions><speed>0.040703</speed><course>25.490499</course><hAcc>1.714923</hAcc><vAcc>0.811410</vAcc></extensions></trkpt>
      <trkpt lon="-2.214735" lat="53.112686"><ele>319.881805</ele><time>2022-03-04T12:16:44Z</time><extensions><speed>0.026100</speed><course>32.239723</course><hAcc>1.717596</hAcc><vAcc>0.810808</vAcc></extensions></trkpt>
      <trkpt lon="-2.214735" lat="53.112686"><ele>319.848389</ele><time>2022-03-04T12:16:45Z</time><extensions><speed>0.015420</speed><course>36.503441</course><hAcc>1.724705</hAcc><vAcc>0.810209</vAcc></extensions></trkpt>
      <trkpt lon="-2.214734" lat="53.112687"><ele>319.814880</ele><time>2022-03-04T12:16:46Z</time><extensions><speed>0.011283</speed><course>16.414593</course><hAcc>1.736649</hAcc><vAcc>0.809563</vAcc></extensions></trkpt>
      <trkpt lon="-2.214734" lat="53.112687"><ele>319.781250</ele><time>2022-03-04T12:16:47Z</time><extensions><speed>0.031009</speed><course>352.740570</course><hAcc>1.713611</hAcc><vAcc>0.808906</vAcc></extensions></trkpt>
      <trkpt lon="-2.214735" lat="53.112687"><ele>319.747620</ele><time>2022-03-04T12:16:48Z</time><extensions><speed>0.058206</speed><course>351.012421</course><hAcc>1.718869</hAcc><vAcc>0.808191</vAcc></extensions></trkpt>
      <trkpt lon="-2.214735" lat="53.112688"><ele>319.720276</ele><time>2022-03-04T12:16:49Z</time><extensions><speed>0.079828</speed><course>354.363220</course><hAcc>1.741010</hAcc><vAcc>0.807441</vAcc></extensions></trkpt>
      <trkpt lon="-2.214735" lat="53.112689"><ele>319.694611</ele><time>2022-03-04T12:16:50Z</time><extensions><speed>0.095288</speed><course>0.549746</course><hAcc>1.752299</hAcc><vAcc>0.806637</vAcc></extensions></trkpt>
      <trkpt lon="-2.214735" lat="53.112689"><ele>319.671112</ele><time>2022-03-04T12:16:51Z</time><extensions><speed>0.098920</speed><course>5.515621</course><hAcc>1.754946</hAcc><vAcc>0.805837</vAcc></extensions></trkpt>
      <trkpt lon="-2.214734" lat="53.112690"><ele>319.650391</ele><time>2022-03-04T12:16:52Z</time><extensions><speed>0.087253</speed><course>6.666918</course><hAcc>1.763612</hAcc><vAcc>0.805011</vAcc></extensions></trkpt>
      <trkpt lon="-2.214734" lat="53.112691"><ele>319.630493</ele><time>2022-03-04T12:16:53Z</time><extensions><speed>0.076137</speed><course>5.406715</course><hAcc>1.771625</hAcc><vAcc>0.804295</vAcc></extensions></trkpt>
      <trkpt lon="-2.214734" lat="53.112692"><ele>319.613281</ele><time>2022-03-04T12:16:54Z</time><extensions><speed>0.067829</speed><course>2.177480</course><hAcc>1.781469</hAcc><vAcc>0.803644</vAcc></extensions></trkpt>
      <trkpt lon="-2.214734" lat="53.112692"><ele>319.599060</ele><time>2022-03-04T12:16:56Z</time><extensions><speed>0.068401</speed><course>357.761261</course><hAcc>1.785823</hAcc><vAcc>0.803237</vAcc></extensions></trkpt>
      <trkpt lon="-2.214734" lat="53.112693"><ele>319.587799</ele><time>2022-03-04T12:16:57Z</time><extensions><speed>0.077610</speed><course>353.634125</course><hAcc>1.786089</hAcc><vAcc>0.802977</vAcc></extensions></trkpt>
      <trkpt lon="-2.214735" lat="53.112694"><ele>319.585480</ele><time>2022-03-04T12:16:58Z</time><extensions><speed>0.091287</speed><course>349.733826</course><hAcc>1.787929</hAcc><vAcc>0.802895</vAcc></extensions></trkpt>
      <trkpt lon="-2.214735" lat="53.112695"><ele>319.576752</ele><time>2022-03-04T12:16:59Z</time><extensions><speed>0.103126</speed><course>346.041870</course><hAcc>1.789209</hAcc><vAcc>0.802939</vAcc></extensions></trkpt>
      <trkpt lon="-2.214735" lat="53.112695"><ele>319.569458</ele><time>2022-03-04T12:17:00Z</time><extensions><speed>0.100269</speed><course>340.059937</course><hAcc>1.784904</hAcc><vAcc>0.803163</vAcc></extensions></trkpt>
      <trkpt lon="-2.214736" lat="53.112696"><ele>319.562958</ele><time>2022-03-04T12:17:01Z</time><extensions><speed>0.078703</speed><course>326.964905</course><hAcc>1.783104</hAcc><vAcc>0.803424</vAcc></extensions></trkpt>
      <trkpt lon="-2.214737" lat="53.112697"><ele>319.556915</ele><time>2022-03-04T12:17:02Z</time><extensions><speed>0.061327</speed><course>300.867584</course><hAcc>1.784364</hAcc><vAcc>0.803756</vAcc></extensions></trkpt>
      <trkpt lon="-2.214737" lat="53.112697"><ele>319.551147</ele><time>2022-03-04T12:17:03Z</time><extensions><speed>0.060320</speed><course>268.407379</course><hAcc>1.782116</hAcc><vAcc>0.804137</vAcc></extensions></trkpt>
      <trkpt lon="-2.214738" lat="53.112697"><ele>319.547699</ele><time>2022-03-04T12:17:04Z</time><extensions><speed>0.068999</speed><course>250.507141</course><hAcc>1.773501</hAcc><vAcc>0.804708</vAcc></extensions></trkpt>
      <trkpt lon="-2.214739" lat="53.112696"><ele>319.541046</ele><time>2022-03-04T12:17:05Z</time><extensions><speed>0.071948</speed><course>243.488358</course><hAcc>1.762490</hAcc><vAcc>0.805349</vAcc></extensions></trkpt>
      <trkpt lon="-2.214740" lat="53.112696"><ele>319.536621</ele><time>2022-03-04T12:17:06Z</time><extensions><speed>0.072393</speed><course>239.048111</course><hAcc>1.751843</hAcc><vAcc>0.805920</vAcc></extensions></trkpt>
      <trkpt lon="-2.214741" lat="53.112696"><ele>319.532104</ele><time>2022-03-04T12:17:07Z</time><extensions><speed>0.067803</speed><course>233.960022</course><hAcc>1.743101</hAcc><vAcc>0.806550</vAcc></extensions></trkpt>
      <trkpt lon="-2.214742" lat="53.112695"><ele>319.528473</ele><time>2022-03-04T12:17:08Z</time><extensions><speed>0.058007</speed><course>220.950729</course><hAcc>1.730107</hAcc><vAcc>0.807157</vAcc></extensions></trkpt>
      <trkpt lon="-2.214742" lat="53.112695"><ele>319.524994</ele><time>2022-03-04T12:17:09Z</time><extensions><speed>0.046621</speed><course>190.998154</course><hAcc>1.736302</hAcc><vAcc>0.807727</vAcc></extensions></trkpt>
      <trkpt lon="-2.214742" lat="53.112694"><ele>319.521851</ele><time>2022-03-04T12:17:10Z</time><extensions><speed>0.046811</speed><course>151.318390</course><hAcc>1.767381</hAcc><vAcc>0.808229</vAcc></extensions></trkpt>
      <trkpt lon="-2.214741" lat="53.112694"><ele>319.519226</ele><time>2022-03-04T12:17:11Z</time><extensions><speed>0.096774</speed><course>133.757187</course><hAcc>1.737091</hAcc><vAcc>0.808683</vAcc></extensions></trkpt>
      <trkpt lon="-2.214740" lat="53.112693"><ele>319.517303</ele><time>2022-03-04T12:17:12Z</time><extensions><speed>0.132254</speed><course>128.397522</course><hAcc>1.727088</hAcc><vAcc>0.809138</vAcc></extensions></trkpt>
      <trkpt lon="-2.214738" lat="53.112692"><ele>319.516113</ele><time>2022-03-04T12:17:13Z</time><extensions><speed>0.133178</speed><course>126.881035</course><hAcc>1.739315</hAcc><vAcc>0.809546</vAcc></extensions></trkpt>
      <trkpt lon="-2.214737" lat="53.112692"><ele>319.515656</ele><time>2022-03-04T12:17:14Z</time><extensions><speed>0.109732</speed><course>131.177475</course><hAcc>1.754013</hAcc><vAcc>0.809884</vAcc></extensions></trkpt>
      <trkpt lon="-2.214736" lat="53.112691"><ele>319.515900</ele><time>2022-03-04T12:17:15Z</time><extensions><speed>0.096815</speed><course>145.958374</course><hAcc>1.762695</hAcc><vAcc>0.810108</vAcc></extensions></trkpt>
      <trkpt lon="-2.214735" lat="53.112690"><ele>319.516785</ele><time>2022-03-04T12:17:16Z</time><extensions><speed>0.094645</speed><course>162.676880</course><hAcc>1.768024</hAcc><vAcc>0.810241</vAcc></extensions></trkpt>
      <trkpt lon="-2.214735" lat="53.112690"><ele>319.518188</ele><time>2022-03-04T12:17:17Z</time><extensions><speed>0.093424</speed><course>173.862274</course><hAcc>1.769164</hAcc><vAcc>0.810280</vAcc></extensions></trkpt>
      <trkpt lon="-2.214735" lat="53.112689"><ele>319.519989</ele><time>2022-03-04T12:17:18Z</time><extensions><speed>0.083135</speed><course>180.132477</course><hAcc>1.769585</hAcc><vAcc>0.810163</vAcc></extensions></trkpt>
      <trkpt lon="-2.214735" lat="53.112688"><ele>319.522034</ele><time>2022-03-04T12:17:19Z</time><extensions><speed>0.065250</speed><course>183.324097</course><hAcc>1.767200</hAcc><vAcc>0.810014</vAcc></extensions></trkpt>
      <trkpt lon="-2.214735" lat="53.112688"><ele>319.524231</ele><time>2022-03-04T12:17:20Z</time><extensions><speed>0.047402</speed><course>185.311905</course><hAcc>1.762607</hAcc><vAcc>0.809796</vAcc></extensions></trkpt>
      <trkpt lon="-2.214735" lat="53.112687"><ele>319.526489</ele><time>2022-03-04T12:17:21Z</time><extensions><speed>0.032443</speed><course>186.723694</course><hAcc>1.755548</hAcc><vAcc>0.809556</vAcc></extensions></trkpt>
      <trkpt lon="-2.214735" lat="53.112687"><ele>319.513153</ele><time>2022-03-04T12:17:22Z</time><extensions><speed>0.024364</speed><course>188.702118</course><hAcc>1.743084</hAcc><vAcc>0.809191</vAcc></extensions></trkpt>
      <trkpt lon="-2.214735" lat="53.112687"><ele>319.497864</ele><time>2022-03-04T12:17:23Z</time><extensions><speed>0.018359</speed><course>194.540787</course><hAcc>1.730325</hAcc><vAcc>0.808785</vAcc></extensions></trkpt>
      <trkpt lon="-2.214736" lat="53.112687"><ele>319.480530</ele><time>2022-03-04T12:17:24Z</time><extensions><speed>0.015842</speed><course>203.269058</course><hAcc>1.713696</hAcc><vAcc>0.808377</vAcc></extensions></trkpt>
      <trkpt lon="-2.214736" lat="53.112686"><ele>319.465118</ele><time>2022-03-04T12:17:25Z</time><extensions><speed>0.015110</speed><course>211.454239</course><hAcc>1.713647</hAcc><vAcc>0.808047</vAcc></extensions></trkpt>
      <trkpt lon="-2.214736" lat="53.112686"><ele>319.439911</ele><time>2022-03-04T12:17:26Z</time><extensions><speed>0.014077</speed><course>219.874756</course><hAcc>1.745506</hAcc><vAcc>0.807737</vAcc></extensions></trkpt>
      <trkpt lon="-2.214736" lat="53.112686"><ele>319.410553</ele><time>2022-03-04T12:17:27Z</time><extensions><speed>0.020006</speed><course>226.421982</course><hAcc>1.750582</hAcc><vAcc>0.807428</vAcc></extensions></trkpt>
      <trkpt lon="-2.214736" lat="53.112686"><ele>319.378143</ele><time>2022-03-04T12:17:28Z</time><extensions><speed>0.038098</speed><course>230.415115</course><hAcc>1.721602</hAcc><vAcc>0.807224</vAcc></extensions></trkpt>
      <trkpt lon="-2.214737" lat="53.112686"><ele>319.342926</ele><time>2022-03-04T12:17:29Z</time><extensions><speed>0.055782</speed><course>233.780075</course><hAcc>1.721697</hAcc><vAcc>0.807088</vAcc></extensions></trkpt>
      <trkpt lon="-2.214738" lat="53.112686"><ele>319.305298</ele><time>2022-03-04T12:17:30Z</time><extensions><speed>0.073849</speed><course>238.120728</course><hAcc>1.740541</hAcc><vAcc>0.807083</vAcc></extensions></trkpt>
      <trkpt lon="-2.214739" lat="53.112685"><ele>319.265808</ele><time>2022-03-04T12:17:31Z</time><extensions><speed>0.086965</speed><course>245.447586</course><hAcc>1.760059</hAcc><vAcc>0.807177</vAcc></extensions></trkpt>
      <trkpt lon="-2.214740" lat="53.112685"><ele>319.225220</ele><time>2022-03-04T12:17:32Z</time><extensions><speed>0.089678</speed><course>261.792786</course><hAcc>1.768665</hAcc><vAcc>0.807374</vAcc></extensions></trkpt>
      <trkpt lon="-2.214741" lat="53.112685"><ele>319.184479</ele><time>2022-03-04T12:17:33Z</time><extensions><speed>0.086136</speed><course>284.773804</course><hAcc>1.766129</hAcc><vAcc>0.807683</vAcc></extensions></trkpt>
      <trkpt lon="-2.214742" lat="53.112685"><ele>319.144348</ele><time>2022-03-04T12:17:34Z</time><extensions><speed>0.080368</speed><course>306.332581</course><hAcc>1.755967</hAcc><vAcc>0.808062</vAcc></extensions></trkpt>
      <trkpt lon="-2.214743" lat="53.112686"><ele>319.105499</ele><time>2022-03-04T12:17:35Z</time><extensions><speed>0.076220</speed><course>322.806000</course><hAcc>1.739762</hAcc><vAcc>0.808372</vAcc></extensions></trkpt>
      <trkpt lon="-2.214744" lat="53.112686"><ele>319.068390</ele><time>2022-03-04T12:17:36Z</time><extensions><speed>0.065575</speed><course>331.631958</course><hAcc>1.727825</hAcc><vAcc>0.808627</vAcc></extensions></trkpt>
      <trkpt lon="-2.214744" lat="53.112687"><ele>319.033539</ele><time>2022-03-04T12:17:37Z</time><extensions><speed>0.046679</speed><course>336.320831</course><hAcc>1.732211</hAcc><vAcc>0.808828</vAcc></extensions></trkpt>
      <trkpt lon="-2.214744" lat="53.112687"><ele>319.001343</ele><time>2022-03-04T12:17:38Z</time><extensions><speed>0.029046</speed><course>339.423279</course><hAcc>1.747160</hAcc><vAcc>0.809004</vAcc></extensions></trkpt>
      <trkpt lon="-2.214744" lat="53.112687"><ele>318.972046</ele><time>2022-03-04T12:17:39Z</time><extensions><speed>0.019254</speed><course>341.704865</course><hAcc>1.747251</hAcc><vAcc>0.809080</vAcc></extensions></trkpt>
      <trkpt lon="-2.214745" lat="53.112687"><ele>318.945740</ele><time>2022-03-04T12:17:40Z</time><extensions><speed>0.016150</speed><course>343.148254</course><hAcc>1.724718</hAcc><vAcc>0.809087</vAcc></extensions></trkpt>
      <trkpt lon="-2.214745" lat="53.112688"><ele>318.922485</ele><time>2022-03-04T12:17:41Z</time><extensions><speed>0.012297</speed><course>343.948303</course><hAcc>1.722475</hAcc><vAcc>0.809025</vAcc></extensions></trkpt>
      <trkpt lon="-2.214745" lat="53.112688"><ele>318.902191</ele><time>2022-03-04T12:17:42Z</time><extensions><speed>0.008952</speed><course>344.465118</course><hAcc>1.732421</hAcc><vAcc>0.808907</vAcc></extensions></trkpt>
      <trkpt lon="-2.214745" lat="53.112688"><ele>318.884705</ele><time>2022-03-04T12:17:43Z</time><extensions><speed>0.006094</speed><course>344.834442</course><hAcc>1.745734</hAcc><vAcc>0.808721</vAcc></extensions></trkpt>
      <trkpt lon="-2.214745" lat="53.112688"><ele>318.869843</ele><time>2022-03-04T12:17:43Z</time><extensions><speed>0.003974</speed><course>345.127106</course><hAcc>1.754568</hAcc><vAcc>0.808464</vAcc></extensions></trkpt>
      <trkpt lon="-2.214745" lat="53.112688"><ele>318.857422</ele><time>2022-03-04T12:17:44Z</time><extensions><speed>0.002540</speed><course>345.374390</course><hAcc>1.756465</hAcc><vAcc>0.808237</vAcc></extensions></trkpt>
      <trkpt lon="-2.214745" lat="53.112688"><ele>318.847168</ele><time>2022-03-04T12:17:45Z</time><extensions><speed>0.001572</speed><course>345.593140</course><hAcc>1.753869</hAcc><vAcc>0.808065</vAcc></extensions></trkpt>
      <trkpt lon="-2.214745" lat="53.112688"><ele>318.838898</ele><time>2022-03-04T12:17:46Z</time><extensions><speed>0.000970</speed><course>345.794556</course><hAcc>1.744096</hAcc><vAcc>0.807868</vAcc></extensions></trkpt>
      <trkpt lon="-2.214745" lat="53.112688"><ele>318.832367</ele><time>2022-03-04T12:17:47Z</time><extensions><speed>0.000590</speed><course>345.982300</course><hAcc>1.729946</hAcc><vAcc>0.807662</vAcc></extensions></trkpt>
      <trkpt lon="-2.214745" lat="53.112688"><ele>318.827332</ele><time>2022-03-04T12:17:48Z</time><extensions><speed>0.000347</speed><course>346.162506</course><hAcc>1.713934</hAcc><vAcc>0.807441</vAcc></extensions></trkpt>
      <trkpt lon="-2.214744" lat="53.112688"><ele>318.820862</ele><time>2022-03-04T12:17:49Z</time><extensions><speed>0.006701</speed><course>102.999870</course><hAcc>1.693314</hAcc><vAcc>0.807271</vAcc></extensions></trkpt>
      <trkpt lon="-2.214744" lat="53.112688"><ele>318.812378</ele><time>2022-03-04T12:17:50Z</time><extensions><speed>0.011915</speed><course>102.038620</course><hAcc>1.676256</hAcc><vAcc>0.806926</vAcc></extensions></trkpt>
      <trkpt lon="-2.214744" lat="53.112688"><ele>318.823029</ele><time>2022-03-04T12:17:51Z</time><extensions><speed>0.022230</speed><course>93.110283</course><hAcc>1.661564</hAcc><vAcc>0.806622</vAcc></extensions></trkpt>
      <trkpt lon="-2.214743" lat="53.112688"><ele>318.836639</ele><time>2022-03-04T12:17:52Z</time><extensions><speed>0.033166</speed><course>90.238342</course><hAcc>1.648950</hAcc><vAcc>0.806291</vAcc></extensions></trkpt>
      <trkpt lon="-2.214742" lat="53.112688"><ele>318.853119</ele><time>2022-03-04T12:17:53Z</time><extensions><speed>0.043349</speed><course>88.989677</course><hAcc>1.641256</hAcc><vAcc>0.805922</vAcc></extensions></trkpt>
      <trkpt lon="-2.214741" lat="53.112688"><ele>318.872345</ele><time>2022-03-04T12:17:54Z</time><extensions><speed>0.069681</speed><course>88.383171</course><hAcc>1.612803</hAcc><vAcc>0.805548</vAcc></extensions></trkpt>
      <trkpt lon="-2.214740" lat="53.112688"><ele>318.894196</ele><time>2022-03-04T12:17:55Z</time><extensions><speed>0.077979</speed><course>87.986847</course><hAcc>1.619873</hAcc><vAcc>0.805187</vAcc></extensions></trkpt>
      <trkpt lon="-2.214739" lat="53.112688"><ele>318.918610</ele><time>2022-03-04T12:17:56Z</time><extensions><speed>0.115873</speed><course>87.591995</course><hAcc>1.609478</hAcc><vAcc>0.804839</vAcc></extensions></trkpt>
      <trkpt lon="-2.214737" lat="53.112688"><ele>318.945374</ele><time>2022-03-04T12:17:57Z</time><extensions><speed>0.137219</speed><course>86.927437</course><hAcc>1.623555</hAcc><vAcc>0.804564</vAcc></extensions></trkpt>
      <trkpt lon="-2.214734" lat="53.112688"><ele>318.979553</ele><time>2022-03-04T12:17:58Z</time><extensions><speed>0.159205</speed><course>84.026451</course><hAcc>1.637169</hAcc><vAcc>0.804354</vAcc></extensions></trkpt>
      <trkpt lon="-2.214731" lat="53.112689"><ele>319.016418</ele><time>2022-03-04T12:17:59Z</time><extensions><speed>0.251872</speed><course>79.782112</course><hAcc>1.608848</hAcc><vAcc>0.804212</vAcc></extensions></trkpt>
      <trkpt lon="-2.214728" lat="53.112689"><ele>319.055542</ele><time>2022-03-04T12:18:00Z</time><extensions><speed>0.242619</speed><course>74.878181</course><hAcc>1.633638</hAcc><vAcc>0.804136</vAcc></extensions></trkpt>
      <trkpt lon="-2.214725" lat="53.112690"><ele>319.096191</ele><time>2022-03-04T12:18:01Z</time><extensions><speed>0.173222</speed><course>69.142555</course><hAcc>1.684488</hAcc><vAcc>0.804077</vAcc></extensions></trkpt>
      <trkpt lon="-2.214723" lat="53.112690"><ele>319.137451</ele><time>2022-03-04T12:18:02Z</time><extensions><speed>0.161037</speed><course>59.645061</course><hAcc>1.689824</hAcc><vAcc>0.804067</vAcc></extensions></trkpt>
      <trkpt lon="-2.214721" lat="53.112691"><ele>319.178436</ele><time>2022-03-04T12:18:03Z</time><extensions><speed>0.153827</speed><course>44.222233</course><hAcc>1.687993</hAcc><vAcc>0.804086</vAcc></extensions></trkpt>
      <trkpt lon="-2.214720" lat="53.112692"><ele>319.218536</ele><time>2022-03-04T12:18:04Z</time><extensions><speed>0.169464</speed><course>24.167103</course><hAcc>1.687498</hAcc><vAcc>0.804119</vAcc></extensions></trkpt>
      <trkpt lon="-2.214719" lat="53.112694"><ele>319.257233</ele><time>2022-03-04T12:18:05Z</time><extensions><speed>0.193467</speed><course>5.696658</course><hAcc>1.699888</hAcc><vAcc>0.804136</vAcc></extensions></trkpt>
      <trkpt lon="-2.214719" lat="53.112696"><ele>319.294159</ele><time>2022-03-04T12:18:06Z</time><extensions><speed>0.235604</speed><course>353.186127</course><hAcc>1.704318</hAcc><vAcc>0.804160</vAcc></extensions></trkpt>
      <trkpt lon="-2.214720" lat="53.112698"><ele>319.328949</ele><time>2022-03-04T12:18:07Z</time><extensions><speed>0.264181</speed><course>346.350433</course><hAcc>1.704392</hAcc><vAcc>0.804231</vAcc></extensions></trkpt>
      <trkpt lon="-2.214721" lat="53.112700"><ele>319.361298</ele><time>2022-03-04T12:18:08Z</time><extensions><speed>0.231413</speed><course>343.100739</course><hAcc>1.704192</hAcc><vAcc>0.804249</vAcc></extensions></trkpt>
      <trkpt lon="-2.214722" lat="53.112702"><ele>319.390900</ele><time>2022-03-04T12:18:09Z</time><extensions><speed>0.196120</speed><course>341.677429</course><hAcc>1.682669</hAcc><vAcc>0.804195</vAcc></extensions></trkpt>
      <trkpt lon="-2.214722" lat="53.112704"><ele>319.417572</ele><time>2022-03-04T12:18:10Z</time><extensions><speed>0.139331</speed><course>340.972290</course><hAcc>1.680484</hAcc><vAcc>0.804023</vAcc></extensions></trkpt>
      <trkpt lon="-2.214723" lat="53.112705"><ele>319.441345</ele><time>2022-03-04T12:18:11Z</time><extensions><speed>0.081976</speed><course>340.532501</course><hAcc>1.700791</hAcc><vAcc>0.803894</vAcc></extensions></trkpt>
      <trkpt lon="-2.214723" lat="53.112705"><ele>319.462250</ele><time>2022-03-04T12:18:12Z</time><extensions><speed>0.059460</speed><course>340.241608</course><hAcc>1.705011</hAcc><vAcc>0.803811</vAcc></extensions></trkpt>
      <trkpt lon="-2.214724" lat="53.112706"><ele>319.480316</ele><time>2022-03-04T12:18:13Z</time><extensions><speed>0.044802</speed><course>340.082245</course><hAcc>1.707668</hAcc><vAcc>0.803741</vAcc></extensions></trkpt>
      <trkpt lon="-2.214724" lat="53.112706"><ele>319.495789</ele><time>2022-03-04T12:18:14Z</time><extensions><speed>0.043706</speed><course>340.003113</course><hAcc>1.691582</hAcc><vAcc>0.803684</vAcc></extensions></trkpt>
      <trkpt lon="-2.214724" lat="53.112706"><ele>319.508820</ele><time>2022-03-04T12:18:15Z</time><extensions><speed>0.035633</speed><course>339.966949</course><hAcc>1.705247</hAcc><vAcc>0.803719</vAcc></extensions></trkpt>
      <trkpt lon="-2.214724" lat="53.112707"><ele>319.519623</ele><time>2022-03-04T12:18:16Z</time><extensions><speed>0.025649</speed><course>339.944977</course><hAcc>1.735611</hAcc><vAcc>0.803750</vAcc></extensions></trkpt>
      <trkpt lon="-2.214724" lat="53.112707"><ele>319.528412</ele><time>2022-03-04T12:18:17Z</time><extensions><speed>0.017671</speed><course>339.929169</course><hAcc>1.756946</hAcc><vAcc>0.803809</vAcc></extensions></trkpt>
      <trkpt lon="-2.214724" lat="53.112707"><ele>319.535431</ele><time>2022-03-04T12:18:18Z</time><extensions><speed>0.011604</speed><course>339.916809</course><hAcc>1.769275</hAcc><vAcc>0.803850</vAcc></extensions></trkpt>
      <trkpt lon="-2.214724" lat="53.112707"><ele>319.540894</ele><time>2022-03-04T12:18:19Z</time><extensions><speed>0.007407</speed><course>339.906311</course><hAcc>1.772102</hAcc><vAcc>0.803918</vAcc></extensions></trkpt>
      <trkpt lon="-2.214724" lat="53.112707"><ele>319.545013</ele><time>2022-03-04T12:18:20Z</time><extensions><speed>0.004786</speed><course>339.897003</course><hAcc>1.763869</hAcc><vAcc>0.803997</vAcc></extensions></trkpt>
      <trkpt lon="-2.214724" lat="53.112707"><ele>319.548004</ele><time>2022-03-04T12:18:21Z</time><extensions><speed>0.002964</speed><course>339.888672</course><hAcc>1.756294</hAcc><vAcc>0.804134</vAcc></extensions></trkpt>
      <trkpt lon="-2.214724" lat="53.112707"><ele>319.550018</ele><time>2022-03-04T12:18:22Z</time><extensions><speed>0.001693</speed><course>339.880493</course><hAcc>1.749691</hAcc><vAcc>0.804367</vAcc></extensions></trkpt>
      <trkpt lon="-2.214725" lat="53.112707"><ele>319.551270</ele><time>2022-03-04T12:18:23Z</time><extensions><speed>0.001008</speed><course>339.872009</course><hAcc>1.729915</hAcc><vAcc>0.804653</vAcc></extensions></trkpt>
      <trkpt lon="-2.214725" lat="53.112707"><ele>319.551849</ele><time>2022-03-04T12:18:24Z</time><extensions><speed>0.000541</speed><course>339.863129</course><hAcc>1.716265</hAcc><vAcc>0.804997</vAcc></extensions></trkpt>
      <trkpt lon="-2.214725" lat="53.112707"><ele>319.551941</ele><time>2022-03-04T12:18:25Z</time><extensions><speed>0.000301</speed><course>339.853333</course><hAcc>1.696913</hAcc><vAcc>0.805361</vAcc></extensions></trkpt>
      <trkpt lon="-2.214725" lat="53.112707"><ele>319.551636</ele><time>2022-03-04T12:18:26Z</time><extensions><speed>0.000155</speed><course>339.842896</course><hAcc>1.690782</hAcc><vAcc>0.805742</vAcc></extensions></trkpt>
      <trkpt lon="-2.214725" lat="53.112707"><ele>319.551056</ele><time>2022-03-04T12:18:27Z</time><extensions><speed>0.000079</speed><course>339.831360</course><hAcc>1.692691</hAcc><vAcc>0.806183</vAcc></extensions></trkpt>
      <trkpt lon="-2.214725" lat="53.112707"><ele>319.550232</ele><time>2022-03-04T12:18:28Z</time><extensions><speed>0.000044</speed><course>339.819702</course><hAcc>1.697884</hAcc><vAcc>0.806605</vAcc></extensions></trkpt>
      <trkpt lon="-2.214725" lat="53.112707"><ele>319.549286</ele><time>2022-03-04T12:18:29Z</time><extensions><speed>0.000024</speed><course>339.809082</course><hAcc>1.712099</hAcc><vAcc>0.807000</vAcc></extensions></trkpt>
      <trkpt lon="-2.214725" lat="53.112707"><ele>319.548248</ele><time>2022-03-04T12:18:30Z</time><extensions><speed>0.000019</speed><course>339.800964</course><hAcc>1.695870</hAcc><vAcc>0.807373</vAcc></extensions></trkpt>
      <trkpt lon="-2.214725" lat="53.112707"><ele>319.547180</ele><time>2022-03-04T12:18:31Z</time><extensions><speed>0.000016</speed><course>339.796570</course><hAcc>1.692774</hAcc><vAcc>0.807721</vAcc></extensions></trkpt>
      <trkpt lon="-2.214725" lat="53.112707"><ele>319.546143</ele><time>2022-03-04T12:18:32Z</time><extensions><speed>0.000012</speed><course>339.793976</course><hAcc>1.710700</hAcc><vAcc>0.808046</vAcc></extensions></trkpt>
      <trkpt lon="-2.214725" lat="53.112707"><ele>319.545105</ele><time>2022-03-04T12:18:33Z</time><extensions><speed>0.000008</speed><course>339.792236</course><hAcc>1.731788</hAcc><vAcc>0.808297</vAcc></extensions></trkpt>
      <trkpt lon="-2.214725" lat="53.112707"><ele>319.544098</ele><time>2022-03-04T12:18:34Z</time><extensions><speed>0.000005</speed><course>339.790955</course><hAcc>1.745397</hAcc><vAcc>0.808469</vAcc></extensions></trkpt>
      <trkpt lon="-2.214725" lat="53.112707"><ele>319.543182</ele><time>2022-03-04T12:18:35Z</time><extensions><speed>0.000003</speed><course>339.789917</course><hAcc>1.749565</hAcc><vAcc>0.808555</vAcc></extensions></trkpt>
      <trkpt lon="-2.214725" lat="53.112707"><ele>319.511505</ele><time>2022-03-04T12:18:36Z</time><extensions><speed>0.004883</speed><course>210.268631</course><hAcc>1.746985</hAcc><vAcc>0.808567</vAcc></extensions></trkpt>
      <trkpt lon="-2.214725" lat="53.112707"><ele>319.512665</ele><time>2022-03-04T12:18:37Z</time><extensions><speed>0.013035</speed><course>202.542374</course><hAcc>1.741102</hAcc><vAcc>0.808583</vAcc></extensions></trkpt>
      <trkpt lon="-2.214725" lat="53.112707"><ele>319.522308</ele><time>2022-03-04T12:18:38Z</time><extensions><speed>0.022453</speed><course>198.308868</course><hAcc>1.732703</hAcc><vAcc>0.808605</vAcc></extensions></trkpt>
      <trkpt lon="-2.214725" lat="53.112706"><ele>319.534393</ele><time>2022-03-04T12:18:39Z</time><extensions><speed>0.035815</speed><course>196.528839</course><hAcc>1.713587</hAcc><vAcc>0.808650</vAcc></extensions></trkpt>
      <trkpt lon="-2.214725" lat="53.112706"><ele>319.564362</ele><time>2022-03-04T12:18:40Z</time><extensions><speed>0.053965</speed><course>194.499496</course><hAcc>1.703778</hAcc><vAcc>0.808755</vAcc></extensions></trkpt>
      <trkpt lon="-2.214725" lat="53.112705"><ele>319.599487</ele><time>2022-03-04T12:18:41Z</time><extensions><speed>0.076284</speed><course>193.525085</course><hAcc>1.690379</hAcc><vAcc>0.808956</vAcc></extensions></trkpt>
      <trkpt lon="-2.214726" lat="53.112704"><ele>319.639862</ele><time>2022-03-04T12:18:42Z</time><extensions><speed>0.101404</speed><course>192.966690</course><hAcc>1.675396</hAcc><vAcc>0.809298</vAcc></extensions></trkpt>
      <trkpt lon="-2.214726" lat="53.112703"><ele>319.682190</ele><time>2022-03-04T12:18:43Z</time><extensions><speed>0.130495</speed><course>192.117447</course><hAcc>1.664992</hAcc><vAcc>0.809747</vAcc></extensions></trkpt>
      <trkpt lon="-2.214726" lat="53.112702"><ele>319.730652</ele><time>2022-03-04T12:18:44Z</time><extensions><speed>0.162744</speed><course>191.245544</course><hAcc>1.666194</hAcc><vAcc>0.810296</vAcc></extensions></trkpt>
      <trkpt lon="-2.214727" lat="53.112700"><ele>319.764984</ele><time>2022-03-04T12:18:45Z</time><extensions><speed>0.160794</speed><course>189.593338</course><hAcc>1.684574</hAcc><vAcc>0.810951</vAcc></extensions></trkpt>
      <trkpt lon="-2.214727" lat="53.112698"><ele>319.807983</ele><time>2022-03-04T12:18:46Z</time><extensions><speed>0.284281</speed><course>186.707947</course><hAcc>1.633405</hAcc><vAcc>0.811570</vAcc></extensions></trkpt>
      <trkpt lon="-2.214728" lat="53.112696"><ele>319.839935</ele><time>2022-03-04T12:18:47Z</time><extensions><speed>0.295762</speed><course>183.692551</course><hAcc>1.623270</hAcc><vAcc>0.811819</vAcc></extensions></trkpt>
      <trkpt lon="-2.214728" lat="53.112693"><ele>319.869354</ele><time>2022-03-04T12:18:48Z</time><extensions><speed>0.253932</speed><course>181.906921</course><hAcc>1.646335</hAcc><vAcc>0.811541</vAcc></extensions></trkpt>
      <trkpt lon="-2.214728" lat="53.112691"><ele>319.901978</ele><time>2022-03-04T12:18:49Z</time><extensions><speed>0.267314</speed><course>181.229431</course><hAcc>1.651588</hAcc><vAcc>0.810141</vAcc></extensions></trkpt>
      <trkpt lon="-2.214728" lat="53.112688"><ele>319.914459</ele><time>2022-03-04T12:18:50Z</time><extensions><speed>0.231103</speed><course>180.759750</course><hAcc>1.675863</hAcc><vAcc>0.809384</vAcc></extensions></trkpt>
      <trkpt lon="-2.214728" lat="53.112686"><ele>319.930481</ele><time>2022-03-04T12:18:51Z</time><extensions><speed>0.199013</speed><course>180.079895</course><hAcc>1.694393</hAcc><vAcc>0.808474</vAcc></extensions></trkpt>
      <trkpt lon="-2.214728" lat="53.112684"><ele>319.943054</ele><time>2022-03-04T12:18:52Z</time><extensions><speed>0.253460</speed><course>179.153381</course><hAcc>1.674982</hAcc><vAcc>0.807331</vAcc></extensions></trkpt>
      <trkpt lon="-2.214728" lat="53.112682"><ele>319.956818</ele><time>2022-03-04T12:18:53Z</time><extensions><speed>0.249841</speed><course>178.140320</course><hAcc>1.686542</hAcc><vAcc>0.805982</vAcc></extensions></trkpt>
      <trkpt lon="-2.214728" lat="53.112680"><ele>319.972473</ele><time>2022-03-04T12:18:54Z</time><extensions><speed>0.218152</speed><course>176.463882</course><hAcc>1.719241</hAcc><vAcc>0.804514</vAcc></extensions></trkpt>
      <trkpt lon="-2.214727" lat="53.112678"><ele>319.989014</ele><time>2022-03-04T12:18:55Z</time><extensions><speed>0.204392</speed><course>173.052094</course><hAcc>1.745788</hAcc><vAcc>0.803081</vAcc></extensions></trkpt>
      <trkpt lon="-2.214727" lat="53.112676"><ele>320.000488</ele><time>2022-03-04T12:18:56Z</time><extensions><speed>0.216276</speed><course>168.086029</course><hAcc>1.763517</hAcc><vAcc>0.801856</vAcc></extensions></trkpt>
      <trkpt lon="-2.214726" lat="53.112674"><ele>320.002014</ele><time>2022-03-04T12:18:57Z</time><extensions><speed>0.225220</speed><course>162.708542</course><hAcc>1.780660</hAcc><vAcc>0.801051</vAcc></extensions></trkpt>
      <trkpt lon="-2.214725" lat="53.112672"><ele>320.015289</ele><time>2022-03-04T12:18:58Z</time><extensions><speed>0.217420</speed><course>157.101028</course><hAcc>1.794456</hAcc><vAcc>0.800877</vAcc></extensions></trkpt>
      <trkpt lon="-2.214724" lat="53.112671"><ele>320.034241</ele><time>2022-03-04T12:18:59Z</time><extensions><speed>0.193103</speed><course>151.303818</course><hAcc>1.794852</hAcc><vAcc>0.801545</vAcc></extensions></trkpt>
      <trkpt lon="-2.214722" lat="53.112669"><ele>320.056641</ele><time>2022-03-04T12:19:00Z</time><extensions><speed>0.155872</speed><course>143.987808</course><hAcc>1.788049</hAcc><vAcc>0.803024</vAcc></extensions></trkpt>
      <trkpt lon="-2.214721" lat="53.112669"><ele>320.091248</ele><time>2022-03-04T12:19:02Z</time><extensions><speed>0.138787</speed><course>130.512802</course><hAcc>1.779225</hAcc><vAcc>0.805097</vAcc></extensions></trkpt>
      <trkpt lon="-2.214719" lat="53.112668"><ele>320.136963</ele><time>2022-03-04T12:19:03Z</time><extensions><speed>0.142764</speed><course>112.676758</course><hAcc>1.773236</hAcc><vAcc>0.807458</vAcc></extensions></trkpt>
      <trkpt lon="-2.214717" lat="53.112668"><ele>320.170990</ele><time>2022-03-04T12:19:04Z</time><extensions><speed>0.160841</speed><course>97.372330</course><hAcc>1.766994</hAcc><vAcc>0.809883</vAcc></extensions></trkpt>
      <trkpt lon="-2.214714" lat="53.112667"><ele>320.209564</ele><time>2022-03-04T12:19:05Z</time><extensions><speed>0.180667</speed><course>87.295364</course><hAcc>1.765064</hAcc><vAcc>0.812232</vAcc></extensions></trkpt>
      <trkpt lon="-2.214711" lat="53.112668"><ele>320.253632</ele><time>2022-03-04T12:19:06Z</time><extensions><speed>0.185255</speed><course>83.480621</course><hAcc>1.766720</hAcc><vAcc>0.814312</vAcc></extensions></trkpt>
      <trkpt lon="-2.214709" lat="53.112668"><ele>320.305939</ele><time>2022-03-04T12:19:07Z</time><extensions><speed>0.169644</speed><course>83.915802</course><hAcc>1.764081</hAcc><vAcc>0.816132</vAcc></extensions></trkpt>
      <trkpt lon="-2.214707" lat="53.112668"><ele>320.361176</ele><time>2022-03-04T12:19:08Z</time><extensions><speed>0.132146</speed><course>89.614006</course><hAcc>1.758575</hAcc><vAcc>0.817645</vAcc></extensions></trkpt>
      <trkpt lon="-2.214705" lat="53.112668"><ele>320.415375</ele><time>2022-03-04T12:19:09Z</time><extensions><speed>0.089667</speed><course>105.219162</course><hAcc>1.750038</hAcc><vAcc>0.818857</vAcc></extensions></trkpt>
      <trkpt lon="-2.214704" lat="53.112667"><ele>320.470398</ele><time>2022-03-04T12:19:10Z</time><extensions><speed>0.060897</speed><course>131.424850</course><hAcc>1.742053</hAcc><vAcc>0.819820</vAcc></extensions></trkpt>
      <trkpt lon="-2.214704" lat="53.112667"><ele>320.526276</ele><time>2022-03-04T12:19:11Z</time><extensions><speed>0.051445</speed><course>159.444626</course><hAcc>1.731783</hAcc><vAcc>0.820525</vAcc></extensions></trkpt>
      <trkpt lon="-2.214703" lat="53.112667"><ele>320.580933</ele><time>2022-03-04T12:19:12Z</time><extensions><speed>0.055977</speed><course>183.587326</course><hAcc>1.725001</hAcc><vAcc>0.821012</vAcc></extensions></trkpt>
      <trkpt lon="-2.214704" lat="53.112666"><ele>320.649628</ele><time>2022-03-04T12:19:13Z</time><extensions><speed>0.060754</speed><course>196.388153</course><hAcc>1.730986</hAcc><vAcc>0.821348</vAcc></extensions></trkpt>
      <trkpt lon="-2.214704" lat="53.112665"><ele>320.701782</ele><time>2022-03-04T12:19:14Z</time><extensions><speed>0.068802</speed><course>198.570175</course><hAcc>1.718072</hAcc><vAcc>0.821580</vAcc></extensions></trkpt>
      <trkpt lon="-2.214704" lat="53.112665"><ele>320.767792</ele><time>2022-03-04T12:19:15Z</time><extensions><speed>0.071630</speed><course>197.984131</course><hAcc>1.708026</hAcc><vAcc>0.821716</vAcc></extensions></trkpt>
      <trkpt lon="-2.214705" lat="53.112664"><ele>320.816956</ele><time>2022-03-04T12:19:16Z</time><extensions><speed>0.060057</speed><course>199.035690</course><hAcc>1.724616</hAcc><vAcc>0.821811</vAcc></extensions></trkpt>
      <trkpt lon="-2.214705" lat="53.112664"><ele>320.861755</ele><time>2022-03-04T12:19:17Z</time><extensions><speed>0.078335</speed><course>200.226044</course><hAcc>1.700232</hAcc><vAcc>0.821853</vAcc></extensions></trkpt>
      <trkpt lon="-2.214705" lat="53.112663"><ele>320.906738</ele><time>2022-03-04T12:19:18Z</time><extensions><speed>0.097447</speed><course>199.887863</course><hAcc>1.684397</hAcc><vAcc>0.821859</vAcc></extensions></trkpt>
      <trkpt lon="-2.214706" lat="53.112662"><ele>320.943665</ele><time>2022-03-04T12:19:19Z</time><extensions><speed>0.112491</speed><course>198.312454</course><hAcc>1.681803</hAcc><vAcc>0.821867</vAcc></extensions></trkpt>
      <trkpt lon="-2.214706" lat="53.112661"><ele>320.976227</ele><time>2022-03-04T12:19:20Z</time><extensions><speed>0.111698</speed><course>196.548965</course><hAcc>1.699457</hAcc><vAcc>0.821851</vAcc></extensions></trkpt>
      <trkpt lon="-2.214707" lat="53.112660"><ele>321.004242</ele><time>2022-03-04T12:19:21Z</time><extensions><speed>0.087412</speed><course>195.157150</course><hAcc>1.733590</hAcc><vAcc>0.821826</vAcc></extensions></trkpt>
      <trkpt lon="-2.214707" lat="53.112659"><ele>321.027527</ele><time>2022-03-04T12:19:22Z</time><extensions><speed>0.100204</speed><course>193.481064</course><hAcc>1.720733</hAcc><vAcc>0.821786</vAcc></extensions></trkpt>
      <trkpt lon="-2.214707" lat="53.112658"><ele>321.045929</ele><time>2022-03-04T12:19:23Z</time><extensions><speed>0.115626</speed><course>190.420395</course><hAcc>1.704600</hAcc><vAcc>0.821744</vAcc></extensions></trkpt>
      <trkpt lon="-2.214708" lat="53.112657"><ele>321.056396</ele><time>2022-03-04T12:19:24Z</time><extensions><speed>0.104196</speed><course>183.922348</course><hAcc>1.717346</hAcc><vAcc>0.821705</vAcc></extensions></trkpt>
      <trkpt lon="-2.214708" lat="53.112656"><ele>321.048004</ele><time>2022-03-04T12:19:25Z</time><extensions><speed>0.095390</speed><course>175.438950</course><hAcc>1.727410</hAcc><vAcc>0.821688</vAcc></extensions></trkpt>
      <trkpt lon="-2.214707" lat="53.112656"><ele>321.045990</ele><time>2022-03-04T12:19:26Z</time><extensions><speed>0.083025</speed><course>167.834244</course><hAcc>1.737473</hAcc><vAcc>0.821696</vAcc></extensions></trkpt>
      <trkpt lon="-2.214707" lat="53.112655"><ele>321.037903</ele><time>2022-03-04T12:19:27Z</time><extensions><speed>0.063282</speed><course>156.335861</course><hAcc>1.746275</hAcc><vAcc>0.821718</vAcc></extensions></trkpt>
      <trkpt lon="-2.214707" lat="53.112655"><ele>321.031494</ele><time>2022-03-04T12:19:28Z</time><extensions><speed>0.044511</speed><course>136.008560</course><hAcc>1.750485</hAcc><vAcc>0.821744</vAcc></extensions></trkpt>
      <trkpt lon="-2.214706" lat="53.112654"><ele>321.019989</ele><time>2022-03-04T12:19:29Z</time><extensions><speed>0.034531</speed><course>109.963745</course><hAcc>1.750632</hAcc><vAcc>0.821773</vAcc></extensions></trkpt>
      <trkpt lon="-2.214706" lat="53.112654"><ele>321.020172</ele><time>2022-03-04T12:19:30Z</time><extensions><speed>0.029601</speed><course>87.692162</course><hAcc>1.750530</hAcc><vAcc>0.821791</vAcc></extensions></trkpt>
      <trkpt lon="-2.214705" lat="53.112654"><ele>321.008545</ele><time>2022-03-04T12:19:31Z</time><extensions><speed>0.025370</speed><course>68.518288</course><hAcc>1.753010</hAcc><vAcc>0.821818</vAcc></extensions></trkpt>
      <trkpt lon="-2.214705" lat="53.112655"><ele>321.000092</ele><time>2022-03-04T12:19:32Z</time><extensions><speed>0.020921</speed><course>45.595642</course><hAcc>1.757686</hAcc><vAcc>0.821895</vAcc></extensions></trkpt>
      <trkpt lon="-2.214705" lat="53.112655"><ele>320.987244</ele><time>2022-03-04T12:19:33Z</time><extensions><speed>0.017407</speed><course>355.776459</course><hAcc>1.758750</hAcc><vAcc>0.822010</vAcc></extensions></trkpt>
      <trkpt lon="-2.214705" lat="53.112655"><ele>320.959808</ele><time>2022-03-04T12:19:34Z</time><extensions><speed>0.039703</speed><course>292.128448</course><hAcc>1.750088</hAcc><vAcc>0.822120</vAcc></extensions></trkpt>
      <trkpt lon="-2.214706" lat="53.112655"><ele>320.924072</ele><time>2022-03-04T12:19:35Z</time><extensions><speed>0.088035</speed><course>277.379364</course><hAcc>1.749840</hAcc><vAcc>0.822312</vAcc></extensions></trkpt>
      <trkpt lon="-2.214708" lat="53.112655"><ele>320.897736</ele><time>2022-03-04T12:19:36Z</time><extensions><speed>0.136648</speed><course>274.948730</course><hAcc>1.753798</hAcc><vAcc>0.822523</vAcc></extensions></trkpt>
      <trkpt lon="-2.214711" lat="53.112655"><ele>320.871643</ele><time>2022-03-04T12:19:37Z</time><extensions><speed>0.181040</speed><course>272.962341</course><hAcc>1.753935</hAcc><vAcc>0.822756</vAcc></extensions></trkpt>
      <trkpt lon="-2.214713" lat="53.112655"><ele>320.838501</ele><time>2022-03-04T12:19:38Z</time><extensions><speed>0.213705</speed><course>270.695404</course><hAcc>1.753903</hAcc><vAcc>0.823002</vAcc></extensions></trkpt>
      <trkpt lon="-2.214717" lat="53.112655"><ele>320.808746</ele><time>2022-03-04T12:19:39Z</time><extensions><speed>0.236073</speed><course>269.535706</course><hAcc>1.754708</hAcc><vAcc>0.823227</vAcc></extensions></trkpt>
      <trkpt lon="-2.214720" lat="53.112655"><ele>320.773895</ele><time>2022-03-04T12:19:40Z</time><extensions><speed>0.248197</speed><course>271.692444</course><hAcc>1.758037</hAcc><vAcc>0.823452</vAcc></extensions></trkpt>
      <trkpt lon="-2.214724" lat="53.112656"><ele>320.738312</ele><time>2022-03-04T12:19:41Z</time><extensions><speed>0.234523</speed><course>279.676270</course><hAcc>1.763370</hAcc><vAcc>0.823666</vAcc></extensions></trkpt>
      <trkpt lon="-2.214727" lat="53.112656"><ele>320.699127</ele><time>2022-03-04T12:19:42Z</time><extensions><speed>0.235190</speed><course>293.011932</course><hAcc>1.754152</hAcc><vAcc>0.823894</vAcc></extensions></trkpt>
      <trkpt lon="-2.214730" lat="53.112657"><ele>320.664124</ele><time>2022-03-04T12:19:43Z</time><extensions><speed>0.228072</speed><course>307.778534</course><hAcc>1.749462</hAcc><vAcc>0.824114</vAcc></extensions></trkpt>
      <trkpt lon="-2.214733" lat="53.112659"><ele>320.632782</ele><time>2022-03-04T12:19:44Z</time><extensions><speed>0.213400</speed><course>322.712463</course><hAcc>1.751565</hAcc><vAcc>0.824339</vAcc></extensions></trkpt>
      <trkpt lon="-2.214734" lat="53.112660"><ele>320.614471</ele><time>2022-03-04T12:19:45Z</time><extensions><speed>0.197512</speed><course>337.635040</course><hAcc>1.753422</hAcc><vAcc>0.824556</vAcc></extensions></trkpt>
      <trkpt lon="-2.214735" lat="53.112662"><ele>320.603851</ele><time>2022-03-04T12:19:46Z</time><extensions><speed>0.189309</speed><course>350.722412</course><hAcc>1.751421</hAcc><vAcc>0.824793</vAcc></extensions></trkpt>
      <trkpt lon="-2.214735" lat="53.112664"><ele>320.601562</ele><time>2022-03-04T12:19:47Z</time><extensions><speed>0.187755</speed><course>0.186658</course><hAcc>1.748964</hAcc><vAcc>0.825024</vAcc></extensions></trkpt>
      <trkpt lon="-2.214735" lat="53.112665"><ele>320.604309</ele><time>2022-03-04T12:19:48Z</time><extensions><speed>0.179909</speed><course>7.644854</course><hAcc>1.752181</hAcc><vAcc>0.825248</vAcc></extensions></trkpt>
      <trkpt lon="-2.214734" lat="53.112667"><ele>320.611359</ele><time>2022-03-04T12:19:49Z</time><extensions><speed>0.167548</speed><course>16.277948</course><hAcc>1.754998</hAcc><vAcc>0.825474</vAcc></extensions></trkpt>
      <trkpt lon="-2.214733" lat="53.112668"><ele>320.614624</ele><time>2022-03-04T12:19:49Z</time><extensions><speed>0.163688</speed><course>27.993593</course><hAcc>1.748119</hAcc><vAcc>0.825708</vAcc></extensions></trkpt>
      <trkpt lon="-2.214732" lat="53.112669"><ele>320.610779</ele><time>2022-03-04T12:19:50Z</time><extensions><speed>0.153721</speed><course>43.613621</course><hAcc>1.745739</hAcc><vAcc>0.825926</vAcc></extensions></trkpt>
      <trkpt lon="-2.214730" lat="53.112670"><ele>320.604279</ele><time>2022-03-04T12:19:51Z</time><extensions><speed>0.144492</speed><course>63.763908</course><hAcc>1.751435</hAcc><vAcc>0.826126</vAcc></extensions></trkpt>
      <trkpt lon="-2.214728" lat="53.112670"><ele>320.606720</ele><time>2022-03-04T12:19:52Z</time><extensions><speed>0.148299</speed><course>82.545631</course><hAcc>1.755432</hAcc><vAcc>0.826338</vAcc></extensions></trkpt>
      <trkpt lon="-2.214726" lat="53.112670"><ele>320.624390</ele><time>2022-03-04T12:19:53Z</time><extensions><speed>0.159348</speed><course>93.765396</course><hAcc>1.754665</hAcc><vAcc>0.826544</vAcc></extensions></trkpt>
      <trkpt lon="-2.214723" lat="53.112670"><ele>320.633209</ele><time>2022-03-04T12:19:54Z</time><extensions><speed>0.165734</speed><course>97.336838</course><hAcc>1.754588</hAcc><vAcc>0.826728</vAcc></extensions></trkpt>
      <trkpt lon="-2.214721" lat="53.112670"><ele>320.649750</ele><time>2022-03-04T12:19:55Z</time><extensions><speed>0.156385</speed><course>96.567894</course><hAcc>1.757752</hAcc><vAcc>0.826904</vAcc></extensions></trkpt>
      <trkpt lon="-2.214719" lat="53.112670"><ele>320.672882</ele><time>2022-03-04T12:19:56Z</time><extensions><speed>0.130369</speed><course>90.816719</course><hAcc>1.758979</hAcc><vAcc>0.827048</vAcc></extensions></trkpt>
      <trkpt lon="-2.214717" lat="53.112670"><ele>320.682159</ele><time>2022-03-04T12:19:57Z</time><extensions><speed>0.100705</speed><course>75.763268</course><hAcc>1.757887</hAcc><vAcc>0.827121</vAcc></extensions></trkpt>
      <trkpt lon="-2.214716" lat="53.112670"><ele>320.683502</ele><time>2022-03-04T12:19:58Z</time><extensions><speed>0.090329</speed><course>59.001263</course><hAcc>1.759108</hAcc><vAcc>0.827154</vAcc></extensions></trkpt>
      <trkpt lon="-2.214715" lat="53.112671"><ele>320.682190</ele><time>2022-03-04T12:19:59Z</time><extensions><speed>0.095593</speed><course>61.265690</course><hAcc>1.761825</hAcc><vAcc>0.827161</vAcc></extensions></trkpt>
      <trkpt lon="-2.214713" lat="53.112671"><ele>320.684052</ele><time>2022-03-04T12:20:00Z</time><extensions><speed>0.120837</speed><course>79.022179</course><hAcc>1.761996</hAcc><vAcc>0.827175</vAcc></extensions></trkpt>
      <trkpt lon="-2.214711" lat="53.112671"><ele>320.678650</ele><time>2022-03-04T12:20:01Z</time><extensions><speed>0.158665</speed><course>91.877327</course><hAcc>1.761058</hAcc><vAcc>0.827182</vAcc></extensions></trkpt>
      <trkpt lon="-2.214708" lat="53.112671"><ele>320.675293</ele><time>2022-03-04T12:20:02Z</time><extensions><speed>0.181488</speed><course>97.974380</course><hAcc>1.757507</hAcc><vAcc>0.827177</vAcc></extensions></trkpt>
      <trkpt lon="-2.214706" lat="53.112671"><ele>320.664642</ele><time>2022-03-04T12:20:03Z</time><extensions><speed>0.180783</speed><course>101.337494</course><hAcc>1.752511</hAcc><vAcc>0.827127</vAcc></extensions></trkpt>
      <trkpt lon="-2.214703" lat="53.112671"><ele>320.651855</ele><time>2022-03-04T12:20:04Z</time><extensions><speed>0.165245</speed><course>103.509483</course><hAcc>1.745906</hAcc><vAcc>0.827051</vAcc></extensions></trkpt>
      <trkpt lon="-2.214701" lat="53.112670"><ele>320.652771</ele><time>2022-03-04T12:20:05Z</time><extensions><speed>0.142982</speed><course>103.848824</course><hAcc>1.735311</hAcc><vAcc>0.826991</vAcc></extensions></trkpt>
      <trkpt lon="-2.214699" lat="53.112670"><ele>320.648102</ele><time>2022-03-04T12:20:06Z</time><extensions><speed>0.121311</speed><course>101.357185</course><hAcc>1.721841</hAcc><vAcc>0.826934</vAcc></extensions></trkpt>
      <trkpt lon="-2.214697" lat="53.112670"><ele>320.654572</ele><time>2022-03-04T12:20:07Z</time><extensions><speed>0.103452</speed><course>96.437538</course><hAcc>1.722637</hAcc><vAcc>0.826874</vAcc></extensions></trkpt>
      <trkpt lon="-2.214696" lat="53.112670"><ele>320.673615</ele><time>2022-03-04T12:20:08Z</time><extensions><speed>0.091840</speed><course>92.406242</course><hAcc>1.738594</hAcc><vAcc>0.826831</vAcc></extensions></trkpt>
      <trkpt lon="-2.214694" lat="53.112670"><ele>320.697540</ele><time>2022-03-04T12:20:09Z</time><extensions><speed>0.107649</speed><course>91.874138</course><hAcc>1.731183</hAcc><vAcc>0.826785</vAcc></extensions></trkpt>
      <trkpt lon="-2.214692" lat="53.112670"><ele>320.733551</ele><time>2022-03-04T12:20:10Z</time><extensions><speed>0.144966</speed><course>92.307793</course><hAcc>1.703216</hAcc><vAcc>0.826748</vAcc></extensions></trkpt>
      <trkpt lon="-2.214690" lat="53.112670"><ele>320.784149</ele><time>2022-03-04T12:20:11Z</time><extensions><speed>0.172197</speed><course>92.560318</course><hAcc>1.692500</hAcc><vAcc>0.826684</vAcc></extensions></trkpt>
      <trkpt lon="-2.214687" lat="53.112670"><ele>320.841919</ele><time>2022-03-04T12:20:12Z</time><extensions><speed>0.190901</speed><course>92.239975</course><hAcc>1.701529</hAcc><vAcc>0.826601</vAcc></extensions></trkpt>
      <trkpt lon="-2.214684" lat="53.112669"><ele>320.906738</ele><time>2022-03-04T12:20:13Z</time><extensions><speed>0.188815</speed><course>90.879555</course><hAcc>1.726376</hAcc><vAcc>0.826516</vAcc></extensions></trkpt>
      <trkpt lon="-2.214681" lat="53.112669"><ele>320.978394</ele><time>2022-03-04T12:20:14Z</time><extensions><speed>0.193616</speed><course>89.152214</course><hAcc>1.740404</hAcc><vAcc>0.826421</vAcc></extensions></trkpt>
      <trkpt lon="-2.214678" lat="53.112669"><ele>321.056091</ele><time>2022-03-04T12:20:15Z</time><extensions><speed>0.257131</speed><course>88.573196</course><hAcc>1.718585</hAcc><vAcc>0.826310</vAcc></extensions></trkpt>
      <trkpt lon="-2.214674" lat="53.112670"><ele>321.138672</ele><time>2022-03-04T12:20:16Z</time><extensions><speed>0.283793</speed><course>88.905365</course><hAcc>1.714886</hAcc><vAcc>0.826181</vAcc></extensions></trkpt>
      <trkpt lon="-2.214670" lat="53.112670"><ele>321.227783</ele><time>2022-03-04T12:20:17Z</time><extensions><speed>0.277876</speed><course>89.408493</course><hAcc>1.727087</hAcc><vAcc>0.826036</vAcc></extensions></trkpt>
      <trkpt lon="-2.214666" lat="53.112670"><ele>321.314972</ele><time>2022-03-04T12:20:18Z</time><extensions><speed>0.248393</speed><course>90.046364</course><hAcc>1.735508</hAcc><vAcc>0.825910</vAcc></extensions></trkpt>
      <trkpt lon="-2.214662" lat="53.112670"><ele>321.403107</ele><time>2022-03-04T12:20:19Z</time><extensions><speed>0.211699</speed><course>91.949417</course><hAcc>1.732195</hAcc><vAcc>0.825756</vAcc></extensions></trkpt>
      <trkpt lon="-2.214659" lat="53.112669"><ele>321.489441</ele><time>2022-03-04T12:20:20Z</time><extensions><speed>0.164421</speed><course>94.705399</course><hAcc>1.728658</hAcc><vAcc>0.825588</vAcc></extensions></trkpt>
      <trkpt lon="-2.214657" lat="53.112669"><ele>321.569397</ele><time>2022-03-04T12:20:21Z</time><extensions><speed>0.112567</speed><course>99.099922</course><hAcc>1.730957</hAcc><vAcc>0.825469</vAcc></extensions></trkpt>
      <trkpt lon="-2.214656" lat="53.112669"><ele>321.642639</ele><time>2022-03-04T12:20:22Z</time><extensions><speed>0.071570</speed><course>109.477615</course><hAcc>1.732205</hAcc><vAcc>0.825380</vAcc></extensions></trkpt>
      <trkpt lon="-2.214655" lat="53.112669"><ele>321.698853</ele><time>2022-03-04T12:20:23Z</time><extensions><speed>0.049742</speed><course>132.977020</course><hAcc>1.726175</hAcc><vAcc>0.825317</vAcc></extensions></trkpt>
      <trkpt lon="-2.214655" lat="53.112668"><ele>321.736603</ele><time>2022-03-04T12:20:24Z</time><extensions><speed>0.047233</speed><course>166.541290</course><hAcc>1.722662</hAcc><vAcc>0.825289</vAcc></extensions></trkpt>
      <trkpt lon="-2.214655" lat="53.112668"><ele>321.768188</ele><time>2022-03-04T12:20:25Z</time><extensions><speed>0.062723</speed><course>188.560440</course><hAcc>1.716310</hAcc><vAcc>0.825292</vAcc></extensions></trkpt>
      <trkpt lon="-2.214655" lat="53.112667"><ele>321.792206</ele><time>2022-03-04T12:20:26Z</time><extensions><speed>0.076725</speed><course>199.827988</course><hAcc>1.718259</hAcc><vAcc>0.825339</vAcc></extensions></trkpt>
      <trkpt lon="-2.214656" lat="53.112667"><ele>321.807648</ele><time>2022-03-04T12:20:27Z</time><extensions><speed>0.075014</speed><course>210.143250</course><hAcc>1.724177</hAcc><vAcc>0.825392</vAcc></extensions></trkpt>
      <trkpt lon="-2.214656" lat="53.112666"><ele>321.818817</ele><time>2022-03-04T12:20:28Z</time><extensions><speed>0.069839</speed><course>222.226242</course><hAcc>1.718263</hAcc><vAcc>0.825472</vAcc></extensions></trkpt>
      <trkpt lon="-2.214657" lat="53.112666"><ele>321.821899</ele><time>2022-03-04T12:20:29Z</time><extensions><speed>0.059960</speed><course>233.527832</course><hAcc>1.725557</hAcc><vAcc>0.825572</vAcc></extensions></trkpt>
      <trkpt lon="-2.214658" lat="53.112666"><ele>321.825043</ele><time>2022-03-04T12:20:30Z</time><extensions><speed>0.050303</speed><course>243.759583</course><hAcc>1.733564</hAcc><vAcc>0.825678</vAcc></extensions></trkpt>
      <trkpt lon="-2.214658" lat="53.112665"><ele>321.826477</ele><time>2022-03-04T12:20:31Z</time><extensions><speed>0.036183</speed><course>251.057541</course><hAcc>1.727371</hAcc><vAcc>0.825780</vAcc></extensions></trkpt>
      <trkpt lon="-2.214659" lat="53.112665"><ele>321.815521</ele><time>2022-03-04T12:20:32Z</time><extensions><speed>0.010071</speed><course>266.570740</course><hAcc>1.728104</hAcc><vAcc>0.825870</vAcc></extensions></trkpt>
      <trkpt lon="-2.214658" lat="53.112666"><ele>321.809998</ele><time>2022-03-04T12:20:33Z</time><extensions><speed>0.023062</speed><course>52.778721</course><hAcc>1.734173</hAcc><vAcc>0.825930</vAcc></extensions></trkpt>
      <trkpt lon="-2.214658" lat="53.112666"><ele>321.802032</ele><time>2022-03-04T12:20:34Z</time><extensions><speed>0.058906</speed><course>53.475006</course><hAcc>1.738233</hAcc><vAcc>0.825977</vAcc></extensions></trkpt>
      <trkpt lon="-2.214657" lat="53.112666"><ele>321.800079</ele><time>2022-03-04T12:20:35Z</time><extensions><speed>0.091315</speed><course>46.801460</course><hAcc>1.747187</hAcc><vAcc>0.825991</vAcc></extensions></trkpt>
      <trkpt lon="-2.214656" lat="53.112667"><ele>321.802826</ele><time>2022-03-04T12:20:36Z</time><extensions><speed>0.129131</speed><course>41.156345</course><hAcc>1.745162</hAcc><vAcc>0.825989</vAcc></extensions></trkpt>
      <trkpt lon="-2.214654" lat="53.112668"><ele>321.807251</ele><time>2022-03-04T12:20:37Z</time><extensions><speed>0.163638</speed><course>40.795704</course><hAcc>1.745855</hAcc><vAcc>0.825977</vAcc></extensions></trkpt>
      <trkpt lon="-2.214653" lat="53.112669"><ele>321.827423</ele><time>2022-03-04T12:20:38Z</time><extensions><speed>0.199551</speed><course>43.650780</course><hAcc>1.749372</hAcc><vAcc>0.825953</vAcc></extensions></trkpt>
      <trkpt lon="-2.214650" lat="53.112671"><ele>321.839478</ele><time>2022-03-04T12:20:39Z</time><extensions><speed>0.244687</speed><course>46.392174</course><hAcc>1.749474</hAcc><vAcc>0.825903</vAcc></extensions></trkpt>
      <trkpt lon="-2.214647" lat="53.112672"><ele>321.854675</ele><time>2022-03-04T12:20:40Z</time><extensions><speed>0.282338</speed><course>48.260086</course><hAcc>1.751244</hAcc><vAcc>0.825837</vAcc></extensions></trkpt>
      <trkpt lon="-2.214644" lat="53.112674"><ele>321.839630</ele><time>2022-03-04T12:20:41Z</time><extensions><speed>0.293621</speed><course>49.740166</course><hAcc>1.755470</hAcc><vAcc>0.825747</vAcc></extensions></trkpt>
      <trkpt lon="-2.214641" lat="53.112676"><ele>321.819794</ele><time>2022-03-04T12:20:42Z</time><extensions><speed>0.276527</speed><course>50.234097</course><hAcc>1.759978</hAcc><vAcc>0.825657</vAcc></extensions></trkpt>
      <trkpt lon="-2.214638" lat="53.112677"><ele>321.823151</ele><time>2022-03-04T12:20:43Z</time><extensions><speed>0.253562</speed><course>47.977455</course><hAcc>1.759777</hAcc><vAcc>0.825584</vAcc></extensions></trkpt>
      <trkpt lon="-2.214635" lat="53.112679"><ele>321.839508</ele><time>2022-03-04T12:20:44Z</time><extensions><speed>0.240162</speed><course>41.811878</course><hAcc>1.758031</hAcc><vAcc>0.825504</vAcc></extensions></trkpt>
      <trkpt lon="-2.214633" lat="53.112681"><ele>321.872711</ele><time>2022-03-04T12:20:45Z</time><extensions><speed>0.248907</speed><course>32.483406</course><hAcc>1.757034</hAcc><vAcc>0.825421</vAcc></extensions></trkpt>
      <trkpt lon="-2.214631" lat="53.112683"><ele>321.913574</ele><time>2022-03-04T12:20:46Z</time><extensions><speed>0.286855</speed><course>21.714170</course><hAcc>1.754269</hAcc><vAcc>0.825324</vAcc></extensions></trkpt>
      <trkpt lon="-2.214630" lat="53.112686"><ele>321.950836</ele><time>2022-03-04T12:20:47Z</time><extensions><speed>0.362153</speed><course>11.081612</course><hAcc>1.749205</hAcc><vAcc>0.825226</vAcc></extensions></trkpt>
      <trkpt lon="-2.214629" lat="53.112689"><ele>322.000244</ele><time>2022-03-04T12:20:48Z</time><extensions><speed>0.506389</speed><course>2.711889</course><hAcc>1.736851</hAcc><vAcc>0.825131</vAcc></extensions></trkpt>
      <trkpt lon="-2.214629" lat="53.112695"><ele>322.055267</ele><time>2022-03-04T12:20:49Z</time><extensions><speed>0.747209</speed><course>357.493835</course><hAcc>1.725131</hAcc><vAcc>0.825030</vAcc></extensions></trkpt>
      <trkpt lon="-2.214630" lat="53.112702"><ele>322.128540</ele><time>2022-03-04T12:20:50Z</time><extensions><speed>0.884455</speed><course>352.732239</course><hAcc>1.728894</hAcc><vAcc>0.824942</vAcc></extensions></trkpt>
      <trkpt lon="-2.214631" lat="53.112711"><ele>322.203949</ele><time>2022-03-04T12:20:51Z</time><extensions><speed>0.922200</speed><course>352.479156</course><hAcc>1.716205</hAcc><vAcc>0.824873</vAcc></extensions></trkpt>
      <trkpt lon="-2.214633" lat="53.112719"><ele>322.286133</ele><time>2022-03-04T12:20:52Z</time><extensions><speed>0.945279</speed><course>356.802856</course><hAcc>1.703026</hAcc><vAcc>0.824837</vAcc></extensions></trkpt>
      <trkpt lon="-2.214632" lat="53.112728"><ele>322.376343</ele><time>2022-03-04T12:20:53Z</time><extensions><speed>1.054062</speed><course>5.903198</course><hAcc>1.694966</hAcc><vAcc>0.824839</vAcc></extensions></trkpt>
      <trkpt lon="-2.214629" lat="53.112738"><ele>322.486328</ele><time>2022-03-04T12:20:54Z</time><extensions><speed>1.201063</speed><course>13.482545</course><hAcc>1.686028</hAcc><vAcc>0.824887</vAcc></extensions></trkpt>
      <trkpt lon="-2.214624" lat="53.112749"><ele>322.596802</ele><time>2022-03-04T12:20:55Z</time><extensions><speed>1.302629</speed><course>18.909000</course><hAcc>1.677034</hAcc><vAcc>0.824963</vAcc></extensions></trkpt>
      <trkpt lon="-2.214617" lat="53.112760"><ele>322.719391</ele><time>2022-03-04T12:20:56Z</time><extensions><speed>1.282066</speed><course>22.429300</course><hAcc>1.669309</hAcc><vAcc>0.825061</vAcc></extensions></trkpt>
      <trkpt lon="-2.214610" lat="53.112770"><ele>322.848389</ele><time>2022-03-04T12:20:57Z</time><extensions><speed>1.240109</speed><course>24.442213</course><hAcc>1.668193</hAcc><vAcc>0.825195</vAcc></extensions></trkpt>
      <trkpt lon="-2.214602" lat="53.112780"><ele>322.992340</ele><time>2022-03-04T12:20:58Z</time><extensions><speed>1.150013</speed><course>26.872677</course><hAcc>1.673627</hAcc><vAcc>0.825326</vAcc></extensions></trkpt>
      <trkpt lon="-2.214594" lat="53.112788"><ele>323.141052</ele><time>2022-03-04T12:20:59Z</time><extensions><speed>1.048149</speed><course>28.517841</course><hAcc>1.674596</hAcc><vAcc>0.825444</vAcc></extensions></trkpt>
      <trkpt lon="-2.214587" lat="53.112796"><ele>323.296936</ele><time>2022-03-04T12:21:00Z</time><extensions><speed>0.979841</speed><course>28.993273</course><hAcc>1.672329</hAcc><vAcc>0.825559</vAcc></extensions></trkpt>
      <trkpt lon="-2.214580" lat="53.112804"><ele>323.458405</ele><time>2022-03-04T12:21:01Z</time><extensions><speed>0.942270</speed><course>28.744009</course><hAcc>1.668934</hAcc><vAcc>0.825661</vAcc></extensions></trkpt>
      <trkpt lon="-2.214574" lat="53.112811"><ele>323.619507</ele><time>2022-03-04T12:21:02Z</time><extensions><speed>0.946286</speed><course>27.743494</course><hAcc>1.670736</hAcc><vAcc>0.825748</vAcc></extensions></trkpt>
      <trkpt lon="-2.214567" lat="53.112819"><ele>323.779144</ele><time>2022-03-04T12:21:03Z</time><extensions><speed>0.993510</speed><course>25.927727</course><hAcc>1.673988</hAcc><vAcc>0.825817</vAcc></extensions></trkpt>
      <trkpt lon="-2.214560" lat="53.112827"><ele>323.926208</ele><time>2022-03-04T12:21:04Z</time><extensions><speed>1.038070</speed><course>26.318665</course><hAcc>1.674919</hAcc><vAcc>0.825863</vAcc></extensions></trkpt>
      <trkpt lon="-2.214554" lat="53.112835"><ele>324.076111</ele><time>2022-03-04T12:21:05Z</time><extensions><speed>0.959700</speed><course>25.923910</course><hAcc>1.672981</hAcc><vAcc>0.825883</vAcc></extensions></trkpt>
      <trkpt lon="-2.214548" lat="53.112843"><ele>324.229248</ele><time>2022-03-04T12:21:06Z</time><extensions><speed>0.863549</speed><course>24.568558</course><hAcc>1.675152</hAcc><vAcc>0.825916</vAcc></extensions></trkpt>
      <trkpt lon="-2.214544" lat="53.112850"><ele>324.354309</ele><time>2022-03-04T12:21:08Z</time><extensions><speed>0.738755</speed><course>17.973364</course><hAcc>1.681552</hAcc><vAcc>0.825901</vAcc></extensions></trkpt>
      <trkpt lon="-2.214542" lat="53.112856"><ele>324.483551</ele><time>2022-03-04T12:21:09Z</time><extensions><speed>0.644947</speed><course>7.964779</course><hAcc>1.679676</hAcc><vAcc>0.825865</vAcc></extensions></trkpt>
      <trkpt lon="-2.214541" lat="53.112861"><ele>324.610260</ele><time>2022-03-04T12:21:10Z</time><extensions><speed>0.653847</speed><course>2.101969</course><hAcc>1.676379</hAcc><vAcc>0.825840</vAcc></extensions></trkpt>
      <trkpt lon="-2.214541" lat="53.112867"><ele>324.723511</ele><time>2022-03-04T12:21:11Z</time><extensions><speed>0.665698</speed><course>359.726776</course><hAcc>1.678586</hAcc><vAcc>0.825797</vAcc></extensions></trkpt>
      <trkpt lon="-2.214541" lat="53.112873"><ele>324.819427</ele><time>2022-03-04T12:21:12Z</time><extensions><speed>0.621739</speed><course>358.265961</course><hAcc>1.674415</hAcc><vAcc>0.825741</vAcc></extensions></trkpt>
      <trkpt lon="-2.214541" lat="53.112879"><ele>324.896515</ele><time>2022-03-04T12:21:13Z</time><extensions><speed>0.593474</speed><course>358.345703</course><hAcc>1.663537</hAcc><vAcc>0.825742</vAcc></extensions></trkpt>
      <trkpt lon="-2.214541" lat="53.112884"><ele>324.970764</ele><time>2022-03-04T12:21:14Z</time><extensions><speed>0.626820</speed><course>0.290089</course><hAcc>1.663265</hAcc><vAcc>0.825730</vAcc></extensions></trkpt>
      <trkpt lon="-2.214542" lat="53.112890"><ele>325.039368</ele><time>2022-03-04T12:21:15Z</time><extensions><speed>0.649383</speed><course>357.929016</course><hAcc>1.661345</hAcc><vAcc>0.825738</vAcc></extensions></trkpt>
      <trkpt lon="-2.214542" lat="53.112896"><ele>325.090973</ele><time>2022-03-04T12:21:16Z</time><extensions><speed>0.701457</speed><course>356.681885</course><hAcc>1.668728</hAcc><vAcc>0.825774</vAcc></extensions></trkpt>
      <trkpt lon="-2.214543" lat="53.112902"><ele>325.134705</ele><time>2022-03-04T12:21:17Z</time><extensions><speed>0.696597</speed><course>353.747375</course><hAcc>1.688744</hAcc><vAcc>0.825820</vAcc></extensions></trkpt>
      <trkpt lon="-2.214545" lat="53.112908"><ele>325.167938</ele><time>2022-03-04T12:21:18Z</time><extensions><speed>0.523431</speed><course>341.283325</course><hAcc>1.653636</hAcc><vAcc>0.825844</vAcc></extensions></trkpt>
      <trkpt lon="-2.214548" lat="53.112911"><ele>325.192902</ele><time>2022-03-04T12:21:19Z</time><extensions><speed>0.327443</speed><course>330.269531</course><hAcc>1.639838</hAcc><vAcc>0.825882</vAcc></extensions></trkpt>
      <trkpt lon="-2.214550" lat="53.112914"><ele>325.216736</ele><time>2022-03-04T12:21:20Z</time><extensions><speed>0.349207</speed><course>329.411163</course><hAcc>1.602240</hAcc><vAcc>0.825930</vAcc></extensions></trkpt>
      <trkpt lon="-2.214553" lat="53.112917"><ele>325.231293</ele><time>2022-03-04T12:21:21Z</time><extensions><speed>0.426178</speed><course>336.771698</course><hAcc>1.563176</hAcc><vAcc>0.825940</vAcc></extensions></trkpt>
      <trkpt lon="-2.214555" lat="53.112922"><ele>325.244598</ele><time>2022-03-04T12:21:22Z</time><extensions><speed>0.566429</speed><course>347.173981</course><hAcc>1.560428</hAcc><vAcc>0.825966</vAcc></extensions></trkpt>
      <trkpt lon="-2.214556" lat="53.112928"><ele>325.251312</ele><time>2022-03-04T12:21:23Z</time><extensions><speed>0.820538</speed><course>358.382385</course><hAcc>1.601721</hAcc><vAcc>0.825983</vAcc></extensions></trkpt>
      <trkpt lon="-2.214558" lat="53.112936"><ele>325.260132</ele><time>2022-03-04T12:21:24Z</time><extensions><speed>1.058545</speed><course>349.159607</course><hAcc>1.529074</hAcc><vAcc>0.825968</vAcc></extensions></trkpt>
      <trkpt lon="-2.214562" lat="53.112945"><ele>325.269470</ele><time>2022-03-04T12:21:25Z</time><extensions><speed>1.064524</speed><course>340.413086</course><hAcc>1.510785</hAcc><vAcc>0.825930</vAcc></extensions></trkpt>
      <trkpt lon="-2.214568" lat="53.112954"><ele>325.279144</ele><time>2022-03-04T12:21:26Z</time><extensions><speed>0.974807</speed><course>328.208588</course><hAcc>1.535524</hAcc><vAcc>0.825854</vAcc></extensions></trkpt>
      <trkpt lon="-2.214577" lat="53.112961"><ele>325.289032</ele><time>2022-03-04T12:21:27Z</time><extensions><speed>1.016512</speed><course>325.402252</course><hAcc>1.557554</hAcc><vAcc>0.825748</vAcc></extensions></trkpt>
      <trkpt lon="-2.214585" lat="53.112969"><ele>325.304199</ele><time>2022-03-04T12:21:28Z</time><extensions><speed>1.074673</speed><course>326.955414</course><hAcc>1.508995</hAcc><vAcc>0.825625</vAcc></extensions></trkpt>
      <trkpt lon="-2.214594" lat="53.112977"><ele>325.318268</ele><time>2022-03-04T12:21:29Z</time><extensions><speed>1.048993</speed><course>328.783539</course><hAcc>1.528126</hAcc><vAcc>0.825507</vAcc></extensions></trkpt>
      <trkpt lon="-2.214602" lat="53.112985"><ele>325.331543</ele><time>2022-03-04T12:21:30Z</time><extensions><speed>1.051332</speed><course>330.521973</course><hAcc>1.575943</hAcc><vAcc>0.825392</vAcc></extensions></trkpt>
      <trkpt lon="-2.214609" lat="53.112993"><ele>325.346252</ele><time>2022-03-04T12:21:31Z</time><extensions><speed>0.980870</speed><course>332.467651</course><hAcc>1.584890</hAcc><vAcc>0.825266</vAcc></extensions></trkpt>
      <trkpt lon="-2.214615" lat="53.113001"><ele>325.357452</ele><time>2022-03-04T12:21:32Z</time><extensions><speed>0.858853</speed><course>336.110992</course><hAcc>1.618300</hAcc><vAcc>0.825163</vAcc></extensions></trkpt>
      <trkpt lon="-2.214619" lat="53.113007"><ele>325.372162</ele><time>2022-03-04T12:21:33Z</time><extensions><speed>0.639734</speed><course>342.765015</course><hAcc>1.657591</hAcc><vAcc>0.825057</vAcc></extensions></trkpt>
      <trkpt lon="-2.214620" lat="53.113011"><ele>325.394623</ele><time>2022-03-04T12:21:34Z</time><extensions><speed>0.298801</speed><course>358.859100</course><hAcc>1.675088</hAcc><vAcc>0.824942</vAcc></extensions></trkpt>
      <trkpt lon="-2.214620" lat="53.113013"><ele>325.438934</ele><time>2022-03-04T12:21:35Z</time><extensions><speed>0.224678</speed><course>18.949963</course><hAcc>1.674129</hAcc><vAcc>0.824861</vAcc></extensions></trkpt>
      <trkpt lon="-2.214618" lat="53.113015"><ele>325.485321</ele><time>2022-03-04T12:21:36Z</time><extensions><speed>0.199291</speed><course>30.945908</course><hAcc>1.681086</hAcc><vAcc>0.824789</vAcc></extensions></trkpt>
      <trkpt lon="-2.214617" lat="53.113017"><ele>325.542999</ele><time>2022-03-04T12:21:37Z</time><extensions><speed>0.177333</speed><course>38.087803</course><hAcc>1.688315</hAcc><vAcc>0.824733</vAcc></extensions></trkpt>
      <trkpt lon="-2.214615" lat="53.113018"><ele>325.587799</ele><time>2022-03-04T12:21:38Z</time><extensions><speed>0.153527</speed><course>42.201015</course><hAcc>1.696000</hAcc><vAcc>0.824700</vAcc></extensions></trkpt>
      <trkpt lon="-2.214614" lat="53.113019"><ele>325.625214</ele><time>2022-03-04T12:21:39Z</time><extensions><speed>0.130172</speed><course>41.524372</course><hAcc>1.715455</hAcc><vAcc>0.824657</vAcc></extensions></trkpt>
      <trkpt lon="-2.214613" lat="53.113020"><ele>325.670074</ele><time>2022-03-04T12:21:40Z</time><extensions><speed>0.111951</speed><course>31.923800</course><hAcc>1.739176</hAcc><vAcc>0.824616</vAcc></extensions></trkpt>
      <trkpt lon="-2.214612" lat="53.113021"><ele>325.711151</ele><time>2022-03-04T12:21:41Z</time><extensions><speed>0.179954</speed><course>17.773905</course><hAcc>1.708323</hAcc><vAcc>0.824590</vAcc></extensions></trkpt>
      <trkpt lon="-2.214611" lat="53.113023"><ele>325.751770</ele><time>2022-03-04T12:21:42Z</time><extensions><speed>0.255187</speed><course>5.884173</course><hAcc>1.699317</hAcc><vAcc>0.824569</vAcc></extensions></trkpt>
      <trkpt lon="-2.214611" lat="53.113026"><ele>325.791412</ele><time>2022-03-04T12:21:43Z</time><extensions><speed>0.389655</speed><course>357.992096</course><hAcc>1.705178</hAcc><vAcc>0.824529</vAcc></extensions></trkpt>
      <trkpt lon="-2.214612" lat="53.113030"><ele>325.827881</ele><time>2022-03-04T12:21:44Z</time><extensions><speed>0.601045</speed><course>354.262238</course><hAcc>1.722764</hAcc><vAcc>0.824468</vAcc></extensions></trkpt>
      <trkpt lon="-2.214613" lat="53.113036"><ele>325.854523</ele><time>2022-03-04T12:21:45Z</time><extensions><speed>0.627743</speed><course>350.250366</course><hAcc>1.742826</hAcc><vAcc>0.824404</vAcc></extensions></trkpt>
      <trkpt lon="-2.214615" lat="53.113041"><ele>325.867767</ele><time>2022-03-04T12:21:46Z</time><extensions><speed>0.530544</speed><course>339.724213</course><hAcc>1.739417</hAcc><vAcc>0.824346</vAcc></extensions></trkpt>
      <trkpt lon="-2.214619" lat="53.113045"><ele>325.876648</ele><time>2022-03-04T12:21:47Z</time><extensions><speed>0.489469</speed><course>329.890015</course><hAcc>1.730355</hAcc><vAcc>0.824285</vAcc></extensions></trkpt>
      <trkpt lon="-2.214622" lat="53.113048"><ele>325.880127</ele><time>2022-03-04T12:21:48Z</time><extensions><speed>0.350693</speed><course>319.070282</course><hAcc>1.743278</hAcc><vAcc>0.824227</vAcc></extensions></trkpt>
      <trkpt lon="-2.214626" lat="53.113050"><ele>325.862915</ele><time>2022-03-04T12:21:49Z</time><extensions><speed>0.310622</speed><course>312.774261</course><hAcc>1.749418</hAcc><vAcc>0.824155</vAcc></extensions></trkpt>
      <trkpt lon="-2.214629" lat="53.113052"><ele>325.832886</ele><time>2022-03-04T12:21:50Z</time><extensions><speed>0.307614</speed><course>310.139343</course><hAcc>1.748906</hAcc><vAcc>0.824100</vAcc></extensions></trkpt>
      <trkpt lon="-2.214633" lat="53.113054"><ele>325.794861</ele><time>2022-03-04T12:21:51Z</time><extensions><speed>0.321355</speed><course>308.401825</course><hAcc>1.752200</hAcc><vAcc>0.824047</vAcc></extensions></trkpt>
      <trkpt lon="-2.214637" lat="53.113056"><ele>325.752411</ele><time>2022-03-04T12:21:52Z</time><extensions><speed>0.368134</speed><course>307.074066</course><hAcc>1.755166</hAcc><vAcc>0.823979</vAcc></extensions></trkpt>
      <trkpt lon="-2.214642" lat="53.113058"><ele>325.718201</ele><time>2022-03-04T12:21:53Z</time><extensions><speed>0.461230</speed><course>306.896576</course><hAcc>1.751183</hAcc><vAcc>0.823891</vAcc></extensions></trkpt>
      <trkpt lon="-2.214648" lat="53.113061"><ele>325.688263</ele><time>2022-03-04T12:21:54Z</time><extensions><speed>0.625235</speed><course>308.103119</course><hAcc>1.741646</hAcc><vAcc>0.823805</vAcc></extensions></trkpt>
      <trkpt lon="-2.214655" lat="53.113064"><ele>325.633484</ele><time>2022-03-04T12:21:55Z</time><extensions><speed>0.595589</speed><course>307.868530</course><hAcc>1.744353</hAcc><vAcc>0.823698</vAcc></extensions></trkpt>
      <trkpt lon="-2.214662" lat="53.113067"><ele>325.576263</ele><time>2022-03-04T12:21:56Z</time><extensions><speed>0.501920</speed><course>310.686371</course><hAcc>1.755141</hAcc><vAcc>0.823572</vAcc></extensions></trkpt>
      <trkpt lon="-2.214667" lat="53.113070"><ele>325.532684</ele><time>2022-03-04T12:21:57Z</time><extensions><speed>0.385636</speed><course>313.712402</course><hAcc>1.761240</hAcc><vAcc>0.823457</vAcc></extensions></trkpt>
      <trkpt lon="-2.214671" lat="53.113073"><ele>325.500549</ele><time>2022-03-04T12:21:58Z</time><extensions><speed>0.445515</speed><course>320.261230</course><hAcc>1.743404</hAcc><vAcc>0.823373</vAcc></extensions></trkpt>
      <trkpt lon="-2.214676" lat="53.113077"><ele>325.451813</ele><time>2022-03-04T12:21:59Z</time><extensions><speed>0.643394</speed><course>325.498566</course><hAcc>1.722829</hAcc><vAcc>0.823294</vAcc></extensions></trkpt>
      <trkpt lon="-2.214681" lat="53.113082"><ele>325.417206</ele><time>2022-03-04T12:22:00Z</time><extensions><speed>0.739970</speed><course>331.451050</course><hAcc>1.729843</hAcc><vAcc>0.823245</vAcc></extensions></trkpt>
      <trkpt lon="-2.214685" lat="53.113088"><ele>325.367859</ele><time>2022-03-04T12:22:01Z</time><extensions><speed>0.784558</speed><course>341.544586</course><hAcc>1.722274</hAcc><vAcc>0.823210</vAcc></extensions></trkpt>
      <trkpt lon="-2.214688" lat="53.113095"><ele>325.327332</ele><time>2022-03-04T12:22:02Z</time><extensions><speed>0.855595</speed><course>351.510468</course><hAcc>1.719573</hAcc><vAcc>0.823209</vAcc></extensions></trkpt>
      <trkpt lon="-2.214689" lat="53.113103"><ele>325.289978</ele><time>2022-03-04T12:22:02Z</time><extensions><speed>0.904361</speed><course>2.483385</course><hAcc>1.713080</hAcc><vAcc>0.823248</vAcc></extensions></trkpt>
      <trkpt lon="-2.214687" lat="53.113111"><ele>325.249878</ele><time>2022-03-04T12:22:03Z</time><extensions><speed>0.979933</speed><course>13.550093</course><hAcc>1.705703</hAcc><vAcc>0.823323</vAcc></extensions></trkpt>
      <trkpt lon="-2.214682" lat="53.113120"><ele>325.206909</ele><time>2022-03-04T12:22:04Z</time><extensions><speed>1.028532</speed><course>23.569523</course><hAcc>1.698300</hAcc><vAcc>0.823425</vAcc></extensions></trkpt>
      <trkpt lon="-2.214675" lat="53.113128"><ele>325.166351</ele><time>2022-03-04T12:22:05Z</time><extensions><speed>1.063411</speed><course>28.925459</course><hAcc>1.693673</hAcc><vAcc>0.823544</vAcc></extensions></trkpt>
      <trkpt lon="-2.214668" lat="53.113136"><ele>325.123322</ele><time>2022-03-04T12:22:06Z</time><extensions><speed>1.020479</speed><course>29.938753</course><hAcc>1.694969</hAcc><vAcc>0.823690</vAcc></extensions></trkpt>
      <trkpt lon="-2.214661" lat="53.113143"><ele>325.078247</ele><time>2022-03-04T12:22:07Z</time><extensions><speed>0.896453</speed><course>29.207220</course><hAcc>1.699752</hAcc><vAcc>0.823841</vAcc></extensions></trkpt>
      <trkpt lon="-2.214655" lat="53.113149"><ele>325.039551</ele><time>2022-03-04T12:22:08Z</time><extensions><speed>0.675678</speed><course>27.840635</course><hAcc>1.705853</hAcc><vAcc>0.824006</vAcc></extensions></trkpt>
      <trkpt lon="-2.214652" lat="53.113154"><ele>325.005585</ele><time>2022-03-04T12:22:09Z</time><extensions><speed>0.385862</speed><course>21.456223</course><hAcc>1.713266</hAcc><vAcc>0.824176</vAcc></extensions></trkpt>
      <trkpt lon="-2.214652" lat="53.113155"><ele>324.961029</ele><time>2022-03-04T12:22:10Z</time><extensions><speed>0.107113</speed><course>222.417709</course><hAcc>1.713050</hAcc><vAcc>0.824346</vAcc></extensions></trkpt>
      <trkpt lon="-2.214654" lat="53.113152"><ele>324.899658</ele><time>2022-03-04T12:22:11Z</time><extensions><speed>0.525682</speed><course>207.670685</course><hAcc>1.719539</hAcc><vAcc>0.824513</vAcc></extensions></trkpt>
      <trkpt lon="-2.214659" lat="53.113147"><ele>324.839172</ele><time>2022-03-04T12:22:12Z</time><extensions><speed>0.783814</speed><course>208.401337</course><hAcc>1.728889</hAcc><vAcc>0.824680</vAcc></extensions></trkpt>
      <trkpt lon="-2.214665" lat="53.113140"><ele>324.759735</ele><time>2022-03-04T12:22:13Z</time><extensions><speed>0.954998</speed><course>210.368103</course><hAcc>1.732966</hAcc><vAcc>0.824834</vAcc></extensions></trkpt>
      <trkpt lon="-2.214673" lat="53.113133"><ele>324.679199</ele><time>2022-03-04T12:22:14Z</time><extensions><speed>1.052851</speed><course>212.557312</course><hAcc>1.733223</hAcc><vAcc>0.824955</vAcc></extensions></trkpt>
      <trkpt lon="-2.214682" lat="53.113125"><ele>324.597168</ele><time>2022-03-04T12:22:15Z</time><extensions><speed>1.061534</speed><course>214.516617</course><hAcc>1.734132</hAcc><vAcc>0.825042</vAcc></extensions></trkpt>
      <trkpt lon="-2.214691" lat="53.113117"><ele>324.500214</ele><time>2022-03-04T12:22:16Z</time><extensions><speed>0.988924</speed><course>216.803101</course><hAcc>1.735412</hAcc><vAcc>0.825078</vAcc></extensions></trkpt>
      <trkpt lon="-2.214699" lat="53.113111"><ele>324.394287</ele><time>2022-03-04T12:22:17Z</time><extensions><speed>0.854110</speed><course>221.134247</course><hAcc>1.734997</hAcc><vAcc>0.825067</vAcc></extensions></trkpt>
      <trkpt lon="-2.214708" lat="53.113106"><ele>324.272369</ele><time>2022-03-04T12:22:18Z</time><extensions><speed>0.693310</speed><course>230.454880</course><hAcc>1.730057</hAcc><vAcc>0.825005</vAcc></extensions></trkpt>
      <trkpt lon="-2.214715" lat="53.113103"><ele>324.126953</ele><time>2022-03-04T12:22:19Z</time><extensions><speed>0.531437</speed><course>252.248276</course><hAcc>1.722729</hAcc><vAcc>0.824899</vAcc></extensions></trkpt>
      <trkpt lon="-2.214723" lat="53.113103"><ele>323.965729</ele><time>2022-03-04T12:22:20Z</time><extensions><speed>0.568627</speed><course>290.677612</course><hAcc>1.714598</hAcc><vAcc>0.824755</vAcc></extensions></trkpt>
      <trkpt lon="-2.214731" lat="53.113106"><ele>323.815704</ele><time>2022-03-04T12:22:21Z</time><extensions><speed>0.689506</speed><course>314.588806</course><hAcc>1.724232</hAcc><vAcc>0.824591</vAcc></extensions></trkpt>
      <trkpt lon="-2.214738" lat="53.113112"><ele>323.639069</ele><time>2022-03-04T12:22:22Z</time><extensions><speed>0.764093</speed><course>327.403534</course><hAcc>1.730962</hAcc><vAcc>0.824409</vAcc></extensions></trkpt>
      <trkpt lon="-2.214744" lat="53.113117"><ele>323.452209</ele><time>2022-03-04T12:22:23Z</time><extensions><speed>0.777299</speed><course>329.468445</course><hAcc>1.731946</hAcc><vAcc>0.824225</vAcc></extensions></trkpt>
      <trkpt lon="-2.214749" lat="53.113122"><ele>323.264771</ele><time>2022-03-04T12:22:24Z</time><extensions><speed>0.570122</speed><course>322.447968</course><hAcc>1.723541</hAcc><vAcc>0.824035</vAcc></extensions></trkpt>
      <trkpt lon="-2.214755" lat="53.113126"><ele>323.032959</ele><time>2022-03-04T12:22:25Z</time><extensions><speed>0.490261</speed><course>310.228394</course><hAcc>1.715702</hAcc><vAcc>0.823858</vAcc></extensions></trkpt>
      <trkpt lon="-2.214761" lat="53.113129"><ele>322.819519</ele><time>2022-03-04T12:22:26Z</time><extensions><speed>0.643596</speed><course>307.047089</course><hAcc>1.709608</hAcc><vAcc>0.823687</vAcc></extensions></trkpt>
      <trkpt lon="-2.214769" lat="53.113133"><ele>322.594696</ele><time>2022-03-04T12:22:27Z</time><extensions><speed>0.705160</speed><course>307.604279</course><hAcc>1.724549</hAcc><vAcc>0.823541</vAcc></extensions></trkpt>
      <trkpt lon="-2.214778" lat="53.113137"><ele>322.373077</ele><time>2022-03-04T12:22:28Z</time><extensions><speed>0.757339</speed><course>307.809967</course><hAcc>1.728973</hAcc><vAcc>0.823418</vAcc></extensions></trkpt>
      <trkpt lon="-2.214787" lat="53.113141"><ele>322.149353</ele><time>2022-03-04T12:22:29Z</time><extensions><speed>0.774766</speed><course>307.749237</course><hAcc>1.724456</hAcc><vAcc>0.823334</vAcc></extensions></trkpt>
      <trkpt lon="-2.214796" lat="53.113145"><ele>321.940918</ele><time>2022-03-04T12:22:30Z</time><extensions><speed>0.769037</speed><course>305.597168</course><hAcc>1.720098</hAcc><vAcc>0.823279</vAcc></extensions></trkpt>
      <trkpt lon="-2.214806" lat="53.113149"><ele>321.737701</ele><time>2022-03-04T12:22:31Z</time><extensions><speed>0.752328</speed><course>302.014832</course><hAcc>1.715100</hAcc><vAcc>0.823240</vAcc></extensions></trkpt>
      <trkpt lon="-2.214815" lat="53.113152"><ele>321.538940</ele><time>2022-03-04T12:22:32Z</time><extensions><speed>0.698676</speed><course>296.671600</course><hAcc>1.715154</hAcc><vAcc>0.823204</vAcc></extensions></trkpt>
      <trkpt lon="-2.214825" lat="53.113155"><ele>321.355377</ele><time>2022-03-04T12:22:33Z</time><extensions><speed>0.711530</speed><course>297.979462</course><hAcc>1.713370</hAcc><vAcc>0.823205</vAcc></extensions></trkpt>
      <trkpt lon="-2.214833" lat="53.113158"><ele>321.178619</ele><time>2022-03-04T12:22:34Z</time><extensions><speed>0.626729</speed><course>304.093384</course><hAcc>1.715459</hAcc><vAcc>0.823213</vAcc></extensions></trkpt>
      <trkpt lon="-2.214840" lat="53.113162"><ele>321.011414</ele><time>2022-03-04T12:22:35Z</time><extensions><speed>0.516314</speed><course>311.477966</course><hAcc>1.717792</hAcc><vAcc>0.823227</vAcc></extensions></trkpt>
      <trkpt lon="-2.214846" lat="53.113165"><ele>320.860382</ele><time>2022-03-04T12:22:36Z</time><extensions><speed>0.707971</speed><course>315.794586</course><hAcc>1.710246</hAcc><vAcc>0.823281</vAcc></extensions></trkpt>
      <trkpt lon="-2.214855" lat="53.113171"><ele>320.713348</ele><time>2022-03-04T12:22:37Z</time><extensions><speed>0.938111</speed><course>316.236938</course><hAcc>1.708403</hAcc><vAcc>0.823347</vAcc></extensions></trkpt>
      <trkpt lon="-2.214865" lat="53.113177"><ele>320.575470</ele><time>2022-03-04T12:22:38Z</time><extensions><speed>1.061338</speed><course>320.904480</course><hAcc>1.707560</hAcc><vAcc>0.823417</vAcc></extensions></trkpt>
      <trkpt lon="-2.214874" lat="53.113185"><ele>320.458832</ele><time>2022-03-04T12:22:39Z</time><extensions><speed>1.090949</speed><course>328.857727</course><hAcc>1.706003</hAcc><vAcc>0.823515</vAcc></extensions></trkpt>
      <trkpt lon="-2.214881" lat="53.113194"><ele>320.351990</ele><time>2022-03-04T12:22:40Z</time><extensions><speed>1.098605</speed><course>338.530121</course><hAcc>1.705323</hAcc><vAcc>0.823606</vAcc></extensions></trkpt>
      <trkpt lon="-2.214886" lat="53.113204"><ele>320.257690</ele><time>2022-03-04T12:22:41Z</time><extensions><speed>1.173129</speed><course>343.359863</course><hAcc>1.699767</hAcc><vAcc>0.823712</vAcc></extensions></trkpt>
      <trkpt lon="-2.214891" lat="53.113213"><ele>320.175232</ele><time>2022-03-04T12:22:42Z</time><extensions><speed>1.052056</speed><course>342.918152</course><hAcc>1.693914</hAcc><vAcc>0.823822</vAcc></extensions></trkpt>
      <trkpt lon="-2.214896" lat="53.113222"><ele>320.101929</ele><time>2022-03-04T12:22:43Z</time><extensions><speed>0.925226</speed><course>338.585144</course><hAcc>1.687962</hAcc><vAcc>0.823946</vAcc></extensions></trkpt>
      <trkpt lon="-2.214901" lat="53.113229"><ele>320.037689</ele><time>2022-03-04T12:22:44Z</time><extensions><speed>0.915188</speed><course>336.626923</course><hAcc>1.679788</hAcc><vAcc>0.824083</vAcc></extensions></trkpt>
      <trkpt lon="-2.214906" lat="53.113237"><ele>319.981995</ele><time>2022-03-04T12:22:45Z</time><extensions><speed>0.907000</speed><course>338.168884</course><hAcc>1.680038</hAcc><vAcc>0.824228</vAcc></extensions></trkpt>
      <trkpt lon="-2.214910" lat="53.113244"><ele>319.940857</ele><time>2022-03-04T12:22:46Z</time><extensions><speed>0.881707</speed><course>343.382324</course><hAcc>1.684701</hAcc><vAcc>0.824377</vAcc></extensions></trkpt>
      <trkpt lon="-2.214913" lat="53.113252"><ele>319.907410</ele><time>2022-03-04T12:22:47Z</time><extensions><speed>0.823802</speed><course>355.437683</course><hAcc>1.675679</hAcc><vAcc>0.824525</vAcc></extensions></trkpt>
      <trkpt lon="-2.214912" lat="53.113259"><ele>319.881836</ele><time>2022-03-04T12:22:48Z</time><extensions><speed>0.792510</speed><course>9.373863</course><hAcc>1.674031</hAcc><vAcc>0.824666</vAcc></extensions></trkpt>
      <trkpt lon="-2.214909" lat="53.113266"><ele>319.857697</ele><time>2022-03-04T12:22:49Z</time><extensions><speed>0.766454</speed><course>21.044710</course><hAcc>1.678359</hAcc><vAcc>0.824804</vAcc></extensions></trkpt>
      <trkpt lon="-2.214905" lat="53.113271"><ele>319.840912</ele><time>2022-03-04T12:22:50Z</time><extensions><speed>0.569362</speed><course>34.106998</course><hAcc>1.689742</hAcc><vAcc>0.824945</vAcc></extensions></trkpt>
      <trkpt lon="-2.214901" lat="53.113274"><ele>319.818573</ele><time>2022-03-04T12:22:51Z</time><extensions><speed>0.268104</speed><course>65.092514</course><hAcc>1.710588</hAcc><vAcc>0.825081</vAcc></extensions></trkpt>
      <trkpt lon="-2.214897" lat="53.113274"><ele>319.795532</ele><time>2022-03-04T12:22:52Z</time><extensions><speed>0.252702</speed><course>91.618782</course><hAcc>1.699017</hAcc><vAcc>0.825227</vAcc></extensions></trkpt>
      <trkpt lon="-2.214893" lat="53.113274"><ele>319.780640</ele><time>2022-03-04T12:22:53Z</time><extensions><speed>0.229069</speed><course>100.149582</course><hAcc>1.704326</hAcc><vAcc>0.825370</vAcc></extensions></trkpt>
      <trkpt lon="-2.214890" lat="53.113274"><ele>319.770813</ele><time>2022-03-04T12:22:54Z</time><extensions><speed>0.190482</speed><course>99.531555</course><hAcc>1.722027</hAcc><vAcc>0.825503</vAcc></extensions></trkpt>
      <trkpt lon="-2.214887" lat="53.113274"><ele>319.759827</ele><time>2022-03-04T12:22:55Z</time><extensions><speed>0.156661</speed><course>91.309647</course><hAcc>1.735280</hAcc><vAcc>0.825602</vAcc></extensions></trkpt>
      <trkpt lon="-2.214885" lat="53.113274"><ele>319.746643</ele><time>2022-03-04T12:22:56Z</time><extensions><speed>0.140759</speed><course>76.418793</course><hAcc>1.742726</hAcc><vAcc>0.825687</vAcc></extensions></trkpt>
      <trkpt lon="-2.214883" lat="53.113274"><ele>319.733093</ele><time>2022-03-04T12:22:57Z</time><extensions><speed>0.152269</speed><course>63.175205</course><hAcc>1.747780</hAcc><vAcc>0.825746</vAcc></extensions></trkpt>
      <trkpt lon="-2.214881" lat="53.113275"><ele>319.718781</ele><time>2022-03-04T12:22:58Z</time><extensions><speed>0.184048</speed><course>57.001369</course><hAcc>1.749083</hAcc><vAcc>0.825774</vAcc></extensions></trkpt>
      <trkpt lon="-2.214878" lat="53.113276"><ele>319.703735</ele><time>2022-03-04T12:22:59Z</time><extensions><speed>0.217744</speed><course>54.785110</course><hAcc>1.745255</hAcc><vAcc>0.825783</vAcc></extensions></trkpt>
      <trkpt lon="-2.214876" lat="53.113277"><ele>319.688110</ele><time>2022-03-04T12:23:00Z</time><extensions><speed>0.234627</speed><course>54.576191</course><hAcc>1.736954</hAcc><vAcc>0.825763</vAcc></extensions></trkpt>
      <trkpt lon="-2.214873" lat="53.113278"><ele>319.672211</ele><time>2022-03-04T12:23:01Z</time><extensions><speed>0.233219</speed><course>55.544174</course><hAcc>1.728593</hAcc><vAcc>0.825716</vAcc></extensions></trkpt>
      <trkpt lon="-2.214870" lat="53.113280"><ele>319.656494</ele><time>2022-03-04T12:23:02Z</time><extensions><speed>0.211405</speed><course>57.138279</course><hAcc>1.729958</hAcc><vAcc>0.825637</vAcc></extensions></trkpt>
      <trkpt lon="-2.214868" lat="53.113280"><ele>319.641266</ele><time>2022-03-04T12:23:03Z</time><extensions><speed>0.157455</speed><course>59.422905</course><hAcc>1.738614</hAcc><vAcc>0.825540</vAcc></extensions></trkpt>
      <trkpt lon="-2.214866" lat="53.113281"><ele>319.626617</ele><time>2022-03-04T12:23:04Z</time><extensions><speed>0.140867</speed><course>61.308842</course><hAcc>1.711897</hAcc><vAcc>0.825439</vAcc></extensions></trkpt>
      <trkpt lon="-2.214864" lat="53.113282"><ele>319.602295</ele><time>2022-03-04T12:23:05Z</time><extensions><speed>0.115524</speed><course>61.601055</course><hAcc>1.692871</hAcc><vAcc>0.825290</vAcc></extensions></trkpt>
      <trkpt lon="-2.214863" lat="53.113282"><ele>319.578156</ele><time>2022-03-04T12:23:06Z</time><extensions><speed>0.087520</speed><course>61.626713</course><hAcc>1.683042</hAcc><vAcc>0.825129</vAcc></extensions></trkpt>
      <trkpt lon="-2.214862" lat="53.113282"><ele>319.557770</ele><time>2022-03-04T12:23:07Z</time><extensions><speed>0.063763</speed><course>60.941288</course><hAcc>1.672450</hAcc><vAcc>0.824955</vAcc></extensions></trkpt>
      <trkpt lon="-2.214861" lat="53.113283"><ele>319.537842</ele><time>2022-03-04T12:23:08Z</time><extensions><speed>0.045398</speed><course>59.617313</course><hAcc>1.663318</hAcc><vAcc>0.824773</vAcc></extensions></trkpt>
      <trkpt lon="-2.214860" lat="53.113283"><ele>319.516998</ele><time>2022-03-04T12:23:09Z</time><extensions><speed>0.034447</speed><course>57.525646</course><hAcc>1.650935</hAcc><vAcc>0.824600</vAcc></extensions></trkpt>
      <trkpt lon="-2.214860" lat="53.113283"><ele>319.501862</ele><time>2022-03-04T12:23:10Z</time><extensions><speed>0.031548</speed><course>54.352535</course><hAcc>1.631624</hAcc><vAcc>0.824456</vAcc></extensions></trkpt>
      <trkpt lon="-2.214860" lat="53.113283"><ele>319.490692</ele><time>2022-03-04T12:23:11Z</time><extensions><speed>0.032165</speed><course>49.545040</course><hAcc>1.624181</hAcc><vAcc>0.824320</vAcc></extensions></trkpt>
      <trkpt lon="-2.214859" lat="53.113284"><ele>319.490417</ele><time>2022-03-04T12:23:12Z</time><extensions><speed>0.031597</speed><course>43.917908</course><hAcc>1.641286</hAcc><vAcc>0.824196</vAcc></extensions></trkpt>
      <trkpt lon="-2.214859" lat="53.113284"><ele>319.487274</ele><time>2022-03-04T12:23:14Z</time><extensions><speed>0.040071</speed><course>37.941368</course><hAcc>1.652744</hAcc><vAcc>0.824083</vAcc></extensions></trkpt>
      <trkpt lon="-2.214859" lat="53.113284"><ele>319.487122</ele><time>2022-03-04T12:23:15Z</time><extensions><speed>0.053132</speed><course>31.244175</course><hAcc>1.664752</hAcc><vAcc>0.823970</vAcc></extensions></trkpt>
      <trkpt lon="-2.214858" lat="53.113285"><ele>319.494263</ele><time>2022-03-04T12:23:16Z</time><extensions><speed>0.092590</speed><course>23.245958</course><hAcc>1.646848</hAcc><vAcc>0.823889</vAcc></extensions></trkpt>
      <trkpt lon="-2.214858" lat="53.113286"><ele>319.502167</ele><time>2022-03-04T12:23:17Z</time><extensions><speed>0.122631</speed><course>14.840797</course><hAcc>1.662723</hAcc><vAcc>0.823870</vAcc></extensions></trkpt>
      <trkpt lon="-2.214857" lat="53.113287"><ele>319.507111</ele><time>2022-03-04T12:23:18Z</time><extensions><speed>0.159854</speed><course>8.344293</course><hAcc>1.693138</hAcc><vAcc>0.823898</vAcc></extensions></trkpt>
      <trkpt lon="-2.214857" lat="53.113289"><ele>319.520325</ele><time>2022-03-04T12:23:19Z</time><extensions><speed>0.208746</speed><course>4.075677</course><hAcc>1.718426</hAcc><vAcc>0.823969</vAcc></extensions></trkpt>
      <trkpt lon="-2.214857" lat="53.113291"><ele>319.537872</ele><time>2022-03-04T12:23:20Z</time><extensions><speed>0.271436</speed><course>1.576495</course><hAcc>1.733973</hAcc><vAcc>0.824076</vAcc></extensions></trkpt>
      <trkpt lon="-2.214857" lat="53.113294"><ele>319.553040</ele><time>2022-03-04T12:23:21Z</time><extensions><speed>0.348055</speed><course>0.330230</course><hAcc>1.737940</hAcc><vAcc>0.824214</vAcc></extensions></trkpt>
      <trkpt lon="-2.214856" lat="53.113297"><ele>319.561096</ele><time>2022-03-04T12:23:22Z</time><extensions><speed>0.412912</speed><course>0.867353</course><hAcc>1.737620</hAcc><vAcc>0.824380</vAcc></extensions></trkpt>
      <trkpt lon="-2.214856" lat="53.113301"><ele>319.569458</ele><time>2022-03-04T12:23:23Z</time><extensions><speed>0.456046</speed><course>5.064851</course><hAcc>1.735255</hAcc><vAcc>0.824564</vAcc></extensions></trkpt>
      <trkpt lon="-2.214855" lat="53.113305"><ele>319.588531</ele><time>2022-03-04T12:23:24Z</time><extensions><speed>0.508930</speed><course>14.935131</course><hAcc>1.726792</hAcc><vAcc>0.824776</vAcc></extensions></trkpt>
      <trkpt lon="-2.214851" lat="53.113310"><ele>319.613983</ele><time>2022-03-04T12:23:25Z</time><extensions><speed>0.633735</speed><course>29.077179</course><hAcc>1.715388</hAcc><vAcc>0.825033</vAcc></extensions></trkpt>
      <trkpt lon="-2.214845" lat="53.113316"><ele>319.653961</ele><time>2022-03-04T12:23:26Z</time><extensions><speed>0.896117</speed><course>41.808815</course><hAcc>1.714339</hAcc><vAcc>0.825284</vAcc></extensions></trkpt>
      <trkpt lon="-2.214834" lat="53.113321"><ele>319.691498</ele><time>2022-03-04T12:23:27Z</time><extensions><speed>1.011922</speed><course>51.951099</course><hAcc>1.714680</hAcc><vAcc>0.825542</vAcc></extensions></trkpt>
      <trkpt lon="-2.214821" lat="53.113327"><ele>319.743256</ele><time>2022-03-04T12:23:28Z</time><extensions><speed>1.166971</speed><course>57.712273</course><hAcc>1.699540</hAcc><vAcc>0.825787</vAcc></extensions></trkpt>
      <trkpt lon="-2.214806" lat="53.113333"><ele>319.809631</ele><time>2022-03-04T12:23:29Z</time><extensions><speed>1.223723</speed><course>57.772396</course><hAcc>1.697269</hAcc><vAcc>0.826015</vAcc></extensions></trkpt>
      <trkpt lon="-2.214790" lat="53.113339"><ele>319.886139</ele><time>2022-03-04T12:23:30Z</time><extensions><speed>1.241854</speed><course>56.141399</course><hAcc>1.691427</hAcc><vAcc>0.826218</vAcc></extensions></trkpt>
      <trkpt lon="-2.214775" lat="53.113345"><ele>319.974792</ele><time>2022-03-04T12:23:31Z</time><extensions><speed>1.181037</speed><course>54.514969</course><hAcc>1.686189</hAcc><vAcc>0.826420</vAcc></extensions></trkpt>
      <trkpt lon="-2.214762" lat="53.113351"><ele>320.070038</ele><time>2022-03-04T12:23:32Z</time><extensions><speed>1.005263</speed><course>54.036091</course><hAcc>1.685732</hAcc><vAcc>0.826571</vAcc></extensions></trkpt>
      <trkpt lon="-2.214750" lat="53.113356"><ele>320.171173</ele><time>2022-03-04T12:23:33Z</time><extensions><speed>1.059385</speed><course>56.390968</course><hAcc>1.673851</hAcc><vAcc>0.826675</vAcc></extensions></trkpt>
      <trkpt lon="-2.214736" lat="53.113362"><ele>320.276978</ele><time>2022-03-04T12:23:34Z</time><extensions><speed>1.177229</speed><course>57.385597</course><hAcc>1.668751</hAcc><vAcc>0.826752</vAcc></extensions></trkpt>
      <trkpt lon="-2.214721" lat="53.113367"><ele>320.401825</ele><time>2022-03-04T12:23:35Z</time><extensions><speed>1.184309</speed><course>56.053852</course><hAcc>1.670327</hAcc><vAcc>0.826808</vAcc></extensions></trkpt>
      <trkpt lon="-2.214706" lat="53.113374"><ele>320.527313</ele><time>2022-03-04T12:23:36Z</time><extensions><speed>1.214474</speed><course>54.688309</course><hAcc>1.661257</hAcc><vAcc>0.826843</vAcc></extensions></trkpt>
      <trkpt lon="-2.214692" lat="53.113380"><ele>320.667786</ele><time>2022-03-04T12:23:37Z</time><extensions><speed>1.163233</speed><course>52.038586</course><hAcc>1.651645</hAcc><vAcc>0.826872</vAcc></extensions></trkpt>
      <trkpt lon="-2.214679" lat="53.113386"><ele>320.804779</ele><time>2022-03-04T12:23:38Z</time><extensions><speed>1.146289</speed><course>50.495499</course><hAcc>1.629455</hAcc><vAcc>0.826848</vAcc></extensions></trkpt>
      <trkpt lon="-2.214666" lat="53.113393"><ele>320.942963</ele><time>2022-03-04T12:23:39Z</time><extensions><speed>1.058976</speed><course>48.238556</course><hAcc>1.626993</hAcc><vAcc>0.826825</vAcc></extensions></trkpt>
      <trkpt lon="-2.214654" lat="53.113399"><ele>321.072479</ele><time>2022-03-04T12:23:40Z</time><extensions><speed>1.054658</speed><course>45.743389</course><hAcc>1.626664</hAcc><vAcc>0.826789</vAcc></extensions></trkpt>
      <trkpt lon="-2.214644" lat="53.113406"><ele>321.200958</ele><time>2022-03-04T12:23:41Z</time><extensions><speed>1.001759</speed><course>40.741867</course><hAcc>1.650089</hAcc><vAcc>0.826763</vAcc></extensions></trkpt>
      <trkpt lon="-2.214635" lat="53.113413"><ele>321.326874</ele><time>2022-03-04T12:23:42Z</time><extensions><speed>0.946677</speed><course>32.812046</course><hAcc>1.607598</hAcc><vAcc>0.826745</vAcc></extensions></trkpt>
      <trkpt lon="-2.214628" lat="53.113420"><ele>321.445923</ele><time>2022-03-04T12:23:43Z</time><extensions><speed>0.963920</speed><course>29.385675</course><hAcc>1.577056</hAcc><vAcc>0.826743</vAcc></extensions></trkpt>
      <trkpt lon="-2.214621" lat="53.113428"><ele>321.560059</ele><time>2022-03-04T12:23:44Z</time><extensions><speed>0.956698</speed><course>28.515963</course><hAcc>1.570196</hAcc><vAcc>0.826757</vAcc></extensions></trkpt>
      <trkpt lon="-2.214614" lat="53.113436"><ele>321.681244</ele><time>2022-03-04T12:23:45Z</time><extensions><speed>0.974067</speed><course>28.124968</course><hAcc>1.594501</hAcc><vAcc>0.826788</vAcc></extensions></trkpt>
      <trkpt lon="-2.214607" lat="53.113443"><ele>321.791534</ele><time>2022-03-04T12:23:46Z</time><extensions><speed>1.000342</speed><course>27.996920</course><hAcc>1.639002</hAcc><vAcc>0.826834</vAcc></extensions></trkpt>
      <trkpt lon="-2.214600" lat="53.113451"><ele>321.890167</ele><time>2022-03-04T12:23:47Z</time><extensions><speed>0.954281</speed><course>28.601814</course><hAcc>1.626923</hAcc><vAcc>0.826896</vAcc></extensions></trkpt>
      <trkpt lon="-2.214593" lat="53.113458"><ele>321.987366</ele><time>2022-03-04T12:23:48Z</time><extensions><speed>0.878664</speed><course>35.863258</course><hAcc>1.598046</hAcc><vAcc>0.826976</vAcc></extensions></trkpt>
      <trkpt lon="-2.214584" lat="53.113464"><ele>322.089294</ele><time>2022-03-04T12:23:49Z</time><extensions><speed>0.851427</speed><course>43.582569</course><hAcc>1.611687</hAcc><vAcc>0.827100</vAcc></extensions></trkpt>
      <trkpt lon="-2.214575" lat="53.113469"><ele>322.172516</ele><time>2022-03-04T12:23:50Z</time><extensions><speed>0.887996</speed><course>48.595390</course><hAcc>1.635470</hAcc><vAcc>0.827218</vAcc></extensions></trkpt>
      <trkpt lon="-2.214565" lat="53.113474"><ele>322.258667</ele><time>2022-03-04T12:23:51Z</time><extensions><speed>0.875522</speed><course>52.319714</course><hAcc>1.656076</hAcc><vAcc>0.827331</vAcc></extensions></trkpt>
      <trkpt lon="-2.214554" lat="53.113479"><ele>322.332336</ele><time>2022-03-04T12:23:52Z</time><extensions><speed>0.859013</speed><course>55.059574</course><hAcc>1.669014</hAcc><vAcc>0.827450</vAcc></extensions></trkpt>
      <trkpt lon="-2.214544" lat="53.113483"><ele>322.407715</ele><time>2022-03-04T12:23:53Z</time><extensions><speed>0.879093</speed><course>54.844227</course><hAcc>1.668164</hAcc><vAcc>0.827556</vAcc></extensions></trkpt>
      <trkpt lon="-2.214533" lat="53.113488"><ele>322.473541</ele><time>2022-03-04T12:23:54Z</time><extensions><speed>0.944162</speed><course>54.217419</course><hAcc>1.654619</hAcc><vAcc>0.827657</vAcc></extensions></trkpt>
      <trkpt lon="-2.214521" lat="53.113493"><ele>322.546417</ele><time>2022-03-04T12:23:55Z</time><extensions><speed>0.942171</speed><course>54.628250</course><hAcc>1.629347</hAcc><vAcc>0.827734</vAcc></extensions></trkpt>
      <trkpt lon="-2.214510" lat="53.113498"><ele>322.607117</ele><time>2022-03-04T12:23:56Z</time><extensions><speed>0.919527</speed><course>54.480705</course><hAcc>1.614415</hAcc><vAcc>0.827784</vAcc></extensions></trkpt>
      <trkpt lon="-2.214499" lat="53.113503"><ele>322.663788</ele><time>2022-03-04T12:23:57Z</time><extensions><speed>0.872722</speed><course>53.526737</course><hAcc>1.637887</hAcc><vAcc>0.827797</vAcc></extensions></trkpt>
      <trkpt lon="-2.214489" lat="53.113508"><ele>322.721558</ele><time>2022-03-04T12:23:58Z</time><extensions><speed>0.868477</speed><course>52.658386</course><hAcc>1.672212</hAcc><vAcc>0.827765</vAcc></extensions></trkpt>
      <trkpt lon="-2.214478" lat="53.113512"><ele>322.777588</ele><time>2022-03-04T12:23:59Z</time><extensions><speed>0.909799</speed><course>56.148758</course><hAcc>1.637580</hAcc><vAcc>0.827682</vAcc></extensions></trkpt>
      <trkpt lon="-2.214467" lat="53.113517"><ele>322.825439</ele><time>2022-03-04T12:24:00Z</time><extensions><speed>0.904033</speed><course>56.641521</course><hAcc>1.617737</hAcc><vAcc>0.827572</vAcc></extensions></trkpt>
      <trkpt lon="-2.214455" lat="53.113521"><ele>322.870514</ele><time>2022-03-04T12:24:01Z</time><extensions><speed>0.899875</speed><course>55.923264</course><hAcc>1.626729</hAcc><vAcc>0.827435</vAcc></extensions></trkpt>
      <trkpt lon="-2.214445" lat="53.113526"><ele>322.907227</ele><time>2022-03-04T12:24:02Z</time><extensions><speed>0.880784</speed><course>51.860218</course><hAcc>1.649411</hAcc><vAcc>0.827249</vAcc></extensions></trkpt>
      <trkpt lon="-2.214435" lat="53.113531"><ele>322.943848</ele><time>2022-03-04T12:24:03Z</time><extensions><speed>0.893215</speed><course>46.915012</course><hAcc>1.671880</hAcc><vAcc>0.827038</vAcc></extensions></trkpt>
      <trkpt lon="-2.214425" lat="53.113537"><ele>322.992645</ele><time>2022-03-04T12:24:04Z</time><extensions><speed>0.874064</speed><course>41.228497</course><hAcc>1.683639</hAcc><vAcc>0.826816</vAcc></extensions></trkpt>
      <trkpt lon="-2.214417" lat="53.113543"><ele>323.028137</ele><time>2022-03-04T12:24:04Z</time><extensions><speed>0.870933</speed><course>36.761707</course><hAcc>1.688083</hAcc><vAcc>0.826594</vAcc></extensions></trkpt>
      <trkpt lon="-2.214410" lat="53.113549"><ele>323.070984</ele><time>2022-03-04T12:24:05Z</time><extensions><speed>0.846746</speed><course>31.383299</course><hAcc>1.687192</hAcc><vAcc>0.826387</vAcc></extensions></trkpt>
      <trkpt lon="-2.214404" lat="53.113556"><ele>323.119293</ele><time>2022-03-04T12:24:06Z</time><extensions><speed>0.881155</speed><course>25.317650</course><hAcc>1.684195</hAcc><vAcc>0.826216</vAcc></extensions></trkpt>
      <trkpt lon="-2.214399" lat="53.113564"><ele>323.159790</ele><time>2022-03-04T12:24:07Z</time><extensions><speed>0.929444</speed><course>20.959831</course><hAcc>1.677806</hAcc><vAcc>0.826059</vAcc></extensions></trkpt>
      <trkpt lon="-2.214394" lat="53.113571"><ele>323.200775</ele><time>2022-03-04T12:24:08Z</time><extensions><speed>0.904897</speed><course>18.348261</course><hAcc>1.674654</hAcc><vAcc>0.825957</vAcc></extensions></trkpt>
      <trkpt lon="-2.214390" lat="53.113579"><ele>323.243073</ele><time>2022-03-04T12:24:09Z</time><extensions><speed>0.805424</speed><course>19.020115</course><hAcc>1.685286</hAcc><vAcc>0.825861</vAcc></extensions></trkpt>
      <trkpt lon="-2.214386" lat="53.113585"><ele>323.288757</ele><time>2022-03-04T12:24:10Z</time><extensions><speed>0.716839</speed><course>22.613985</course><hAcc>1.700488</hAcc><vAcc>0.825806</vAcc></extensions></trkpt>
      <trkpt lon="-2.214381" lat="53.113591"><ele>323.340210</ele><time>2022-03-04T12:24:11Z</time><extensions><speed>0.696830</speed><course>26.662203</course><hAcc>1.672649</hAcc><vAcc>0.825754</vAcc></extensions></trkpt>
      <trkpt lon="-2.214376" lat="53.113597"><ele>323.386047</ele><time>2022-03-04T12:24:12Z</time><extensions><speed>0.741825</speed><course>30.220428</course><hAcc>1.669072</hAcc><vAcc>0.825713</vAcc></extensions></trkpt>
      <trkpt lon="-2.214370" lat="53.113603"><ele>323.431061</ele><time>2022-03-04T12:24:13Z</time><extensions><speed>0.820195</speed><course>32.879406</course><hAcc>1.671429</hAcc><vAcc>0.825679</vAcc></extensions></trkpt>
      <trkpt lon="-2.214363" lat="53.113609"><ele>323.473236</ele><time>2022-03-04T12:24:14Z</time><extensions><speed>0.917004</speed><course>31.507744</course><hAcc>1.661767</hAcc><vAcc>0.825653</vAcc></extensions></trkpt>
      <trkpt lon="-2.214356" lat="53.113617"><ele>323.514618</ele><time>2022-03-04T12:24:15Z</time><extensions><speed>0.993687</speed><course>27.599073</course><hAcc>1.644686</hAcc><vAcc>0.825640</vAcc></extensions></trkpt>
      <trkpt lon="-2.214350" lat="53.113625"><ele>323.554260</ele><time>2022-03-04T12:24:16Z</time><extensions><speed>0.977451</speed><course>21.717611</course><hAcc>1.629757</hAcc><vAcc>0.825664</vAcc></extensions></trkpt>
      <trkpt lon="-2.214345" lat="53.113633"><ele>323.587830</ele><time>2022-03-04T12:24:17Z</time><extensions><speed>0.888371</speed><course>15.400978</course><hAcc>1.641269</hAcc><vAcc>0.825663</vAcc></extensions></trkpt>
      <trkpt lon="-2.214343" lat="53.113640"><ele>323.625458</ele><time>2022-03-04T12:24:18Z</time><extensions><speed>0.859506</speed><course>9.455797</course><hAcc>1.680697</hAcc><vAcc>0.825638</vAcc></extensions></trkpt>
      <trkpt lon="-2.214340" lat="53.113648"><ele>323.654602</ele><time>2022-03-04T12:24:19Z</time><extensions><speed>0.934794</speed><course>12.121161</course><hAcc>1.635574</hAcc><vAcc>0.825601</vAcc></extensions></trkpt>
      <trkpt lon="-2.214337" lat="53.113657"><ele>323.690430</ele><time>2022-03-04T12:24:20Z</time><extensions><speed>0.994954</speed><course>15.932710</course><hAcc>1.617392</hAcc><vAcc>0.825567</vAcc></extensions></trkpt>
      <trkpt lon="-2.214332" lat="53.113666"><ele>323.715668</ele><time>2022-03-04T12:24:21Z</time><extensions><speed>1.092707</speed><course>18.328678</course><hAcc>1.617826</hAcc><vAcc>0.825573</vAcc></extensions></trkpt>
      <trkpt lon="-2.214327" lat="53.113675"><ele>323.746429</ele><time>2022-03-04T12:24:22Z</time><extensions><speed>1.114473</speed><course>19.954142</course><hAcc>1.614311</hAcc><vAcc>0.825559</vAcc></extensions></trkpt>
      <trkpt lon="-2.214321" lat="53.113685"><ele>323.772552</ele><time>2022-03-04T12:24:23Z</time><extensions><speed>1.087333</speed><course>20.944714</course><hAcc>1.600979</hAcc><vAcc>0.825526</vAcc></extensions></trkpt>
      <trkpt lon="-2.214315" lat="53.113693"><ele>323.797424</ele><time>2022-03-04T12:24:24Z</time><extensions><speed>1.038075</speed><course>21.608433</course><hAcc>1.585375</hAcc><vAcc>0.825538</vAcc></extensions></trkpt>
      <trkpt lon="-2.214309" lat="53.113702"><ele>323.820038</ele><time>2022-03-04T12:24:25Z</time><extensions><speed>0.969194</speed><course>22.475691</course><hAcc>1.605092</hAcc><vAcc>0.825572</vAcc></extensions></trkpt>
      <trkpt lon="-2.214304" lat="53.113709"><ele>323.831573</ele><time>2022-03-04T12:24:26Z</time><extensions><speed>0.850358</speed><course>23.158735</course><hAcc>1.661883</hAcc><vAcc>0.825573</vAcc></extensions></trkpt>
      <trkpt lon="-2.214299" lat="53.113717"><ele>323.841644</ele><time>2022-03-04T12:24:27Z</time><extensions><speed>0.954901</speed><course>23.627611</course><hAcc>1.593497</hAcc><vAcc>0.825594</vAcc></extensions></trkpt>
      <trkpt lon="-2.214293" lat="53.113725"><ele>323.859131</ele><time>2022-03-04T12:24:28Z</time><extensions><speed>1.114356</speed><course>22.939955</course><hAcc>1.550681</hAcc><vAcc>0.825630</vAcc></extensions></trkpt>
      <trkpt lon="-2.214286" lat="53.113735"><ele>323.869781</ele><time>2022-03-04T12:24:29Z</time><extensions><speed>1.226645</speed><course>19.906427</course><hAcc>1.548105</hAcc><vAcc>0.825675</vAcc></extensions></trkpt>
      <trkpt lon="-2.214281" lat="53.113746"><ele>323.866730</ele><time>2022-03-04T12:24:30Z</time><extensions><speed>1.238176</speed><course>15.617408</course><hAcc>1.584282</hAcc><vAcc>0.825710</vAcc></extensions></trkpt>
      <trkpt lon="-2.214276" lat="53.113756"><ele>323.874847</ele><time>2022-03-04T12:24:31Z</time><extensions><speed>1.168096</speed><course>12.199653</course><hAcc>1.645276</hAcc><vAcc>0.825724</vAcc></extensions></trkpt>
      <trkpt lon="-2.214273" lat="53.113767"><ele>323.876648</ele><time>2022-03-04T12:24:32Z</time><extensions><speed>1.161455</speed><course>11.878031</course><hAcc>1.591535</hAcc><vAcc>0.825745</vAcc></extensions></trkpt>
      <trkpt lon="-2.214269" lat="53.113776"><ele>323.889069</ele><time>2022-03-04T12:24:33Z</time><extensions><speed>1.080566</speed><course>12.898111</course><hAcc>1.573736</hAcc><vAcc>0.825757</vAcc></extensions></trkpt>
      <trkpt lon="-2.214265" lat="53.113785"><ele>323.910980</ele><time>2022-03-04T12:24:34Z</time><extensions><speed>0.973860</speed><course>14.862033</course><hAcc>1.615821</hAcc><vAcc>0.825756</vAcc></extensions></trkpt>
      <trkpt lon="-2.214261" lat="53.113793"><ele>323.919128</ele><time>2022-03-04T12:24:35Z</time><extensions><speed>0.821852</speed><course>18.636969</course><hAcc>1.666338</hAcc><vAcc>0.825771</vAcc></extensions></trkpt>
      <trkpt lon="-2.214257" lat="53.113800"><ele>323.941650</ele><time>2022-03-04T12:24:36Z</time><extensions><speed>0.726716</speed><course>27.442457</course><hAcc>1.653203</hAcc><vAcc>0.825842</vAcc></extensions></trkpt>
      <trkpt lon="-2.214252" lat="53.113805"><ele>323.961609</ele><time>2022-03-04T12:24:37Z</time><extensions><speed>0.647880</speed><course>32.448616</course><hAcc>1.664523</hAcc><vAcc>0.825870</vAcc></extensions></trkpt>
      <trkpt lon="-2.214247" lat="53.113810"><ele>323.990265</ele><time>2022-03-04T12:24:38Z</time><extensions><speed>0.571411</speed><course>31.840755</course><hAcc>1.690179</hAcc><vAcc>0.825867</vAcc></extensions></trkpt>
      <trkpt lon="-2.214243" lat="53.113814"><ele>324.016479</ele><time>2022-03-04T12:24:39Z</time><extensions><speed>0.545421</speed><course>24.587429</course><hAcc>1.709794</hAcc><vAcc>0.825864</vAcc></extensions></trkpt>
      <trkpt lon="-2.214239" lat="53.113819"><ele>324.042908</ele><time>2022-03-04T12:24:40Z</time><extensions><speed>0.717555</speed><course>22.172218</course><hAcc>1.706908</hAcc><vAcc>0.825812</vAcc></extensions></trkpt>
      <trkpt lon="-2.214235" lat="53.113826"><ele>324.083374</ele><time>2022-03-04T12:24:41Z</time><extensions><speed>0.803126</speed><course>19.064713</course><hAcc>1.712462</hAcc><vAcc>0.825722</vAcc></extensions></trkpt>
      <trkpt lon="-2.214232" lat="53.113833"><ele>324.125824</ele><time>2022-03-04T12:24:42Z</time><extensions><speed>0.822275</speed><course>16.229994</course><hAcc>1.711061</hAcc><vAcc>0.825654</vAcc></extensions></trkpt>
      <trkpt lon="-2.214228" lat="53.113840"><ele>324.179688</ele><time>2022-03-04T12:24:43Z</time><extensions><speed>0.884387</speed><course>16.329458</course><hAcc>1.698381</hAcc><vAcc>0.825564</vAcc></extensions></trkpt>
      <trkpt lon="-2.214224" lat="53.113848"><ele>324.221680</ele><time>2022-03-04T12:24:44Z</time><extensions><speed>0.936331</speed><course>15.915625</course><hAcc>1.677747</hAcc><vAcc>0.825461</vAcc></extensions></trkpt>
      <trkpt lon="-2.214221" lat="53.113856"><ele>324.272156</ele><time>2022-03-04T12:24:45Z</time><extensions><speed>0.915487</speed><course>12.302795</course><hAcc>1.680225</hAcc><vAcc>0.825351</vAcc></extensions></trkpt>
      <trkpt lon="-2.214218" lat="53.113865"><ele>324.334198</ele><time>2022-03-04T12:24:46Z</time><extensions><speed>0.971877</speed><course>9.847123</course><hAcc>1.703023</hAcc><vAcc>0.825251</vAcc></extensions></trkpt>
      <trkpt lon="-2.214216" lat="53.113874"><ele>324.395020</ele><time>2022-03-04T12:24:47Z</time><extensions><speed>1.176322</speed><course>7.058856</course><hAcc>1.668746</hAcc><vAcc>0.825129</vAcc></extensions></trkpt>
      <trkpt lon="-2.214214" lat="53.113885"><ele>324.456573</ele><time>2022-03-04T12:24:48Z</time><extensions><speed>1.210356</speed><course>4.191898</course><hAcc>1.658393</hAcc><vAcc>0.824967</vAcc></extensions></trkpt>
      <trkpt lon="-2.214214" lat="53.113896"><ele>324.513000</ele><time>2022-03-04T12:24:49Z</time><extensions><speed>1.210718</speed><course>0.562346</course><hAcc>1.666240</hAcc><vAcc>0.824786</vAcc></extensions></trkpt>
      <trkpt lon="-2.214214" lat="53.113906"><ele>324.563080</ele><time>2022-03-04T12:24:50Z</time><extensions><speed>1.178644</speed><course>357.799713</course><hAcc>1.674845</hAcc><vAcc>0.824615</vAcc></extensions></trkpt>
      <trkpt lon="-2.214215" lat="53.113917"><ele>324.608734</ele><time>2022-03-04T12:24:51Z</time><extensions><speed>1.185620</speed><course>355.845245</course><hAcc>1.680699</hAcc><vAcc>0.824481</vAcc></extensions></trkpt>
      <trkpt lon="-2.214216" lat="53.113927"><ele>324.648529</ele><time>2022-03-04T12:24:52Z</time><extensions><speed>1.130941</speed><course>354.689392</course><hAcc>1.683570</hAcc><vAcc>0.824396</vAcc></extensions></trkpt>
      <trkpt lon="-2.214218" lat="53.113937"><ele>324.678162</ele><time>2022-03-04T12:24:53Z</time><extensions><speed>0.987010</speed><course>354.071167</course><hAcc>1.682985</hAcc><vAcc>0.824335</vAcc></extensions></trkpt>
      <trkpt lon="-2.214219" lat="53.113945"><ele>324.697876</ele><time>2022-03-04T12:24:54Z</time><extensions><speed>0.799825</speed><course>351.611725</course><hAcc>1.684347</hAcc><vAcc>0.824305</vAcc></extensions></trkpt>
      <trkpt lon="-2.214221" lat="53.113952"><ele>324.715912</ele><time>2022-03-04T12:24:55Z</time><extensions><speed>0.760630</speed><course>349.827606</course><hAcc>1.696167</hAcc><vAcc>0.824307</vAcc></extensions></trkpt>
      <trkpt lon="-2.214223" lat="53.113958"><ele>324.740509</ele><time>2022-03-04T12:24:56Z</time><extensions><speed>0.693947</speed><course>349.566498</course><hAcc>1.710623</hAcc><vAcc>0.824325</vAcc></extensions></trkpt>
      <trkpt lon="-2.214224" lat="53.113964"><ele>324.762848</ele><time>2022-03-04T12:24:57Z</time><extensions><speed>0.528729</speed><course>354.747620</course><hAcc>1.694847</hAcc><vAcc>0.824345</vAcc></extensions></trkpt>
      <trkpt lon="-2.214225" lat="53.113968"><ele>324.776642</ele><time>2022-03-04T12:24:58Z</time><extensions><speed>0.442216</speed><course>358.114594</course><hAcc>1.681063</hAcc><vAcc>0.824379</vAcc></extensions></trkpt>
      <trkpt lon="-2.214225" lat="53.113973"><ele>324.790161</ele><time>2022-03-04T12:24:59Z</time><extensions><speed>0.591278</speed><course>357.067505</course><hAcc>1.679272</hAcc><vAcc>0.824429</vAcc></extensions></trkpt>
      <trkpt lon="-2.214225" lat="53.113978"><ele>324.801636</ele><time>2022-03-04T12:25:00Z</time><extensions><speed>0.671128</speed><course>358.472870</course><hAcc>1.702315</hAcc><vAcc>0.824497</vAcc></extensions></trkpt>
      <trkpt lon="-2.214225" lat="53.113984"><ele>324.811066</ele><time>2022-03-04T12:25:01Z</time><extensions><speed>0.692074</speed><course>8.309555</course><hAcc>1.707485</hAcc><vAcc>0.824587</vAcc></extensions></trkpt>
      <trkpt lon="-2.214222" lat="53.113991"><ele>324.812561</ele><time>2022-03-04T12:25:02Z</time><extensions><speed>0.750789</speed><course>16.580595</course><hAcc>1.700662</hAcc><vAcc>0.824692</vAcc></extensions></trkpt>
      <trkpt lon="-2.214219" lat="53.113997"><ele>324.802063</ele><time>2022-03-04T12:25:03Z</time><extensions><speed>0.848794</speed><course>21.046202</course><hAcc>1.693314</hAcc><vAcc>0.824808</vAcc></extensions></trkpt>
      <trkpt lon="-2.214214" lat="53.114005"><ele>324.781342</ele><time>2022-03-04T12:25:04Z</time><extensions><speed>0.904067</speed><course>23.255514</course><hAcc>1.688772</hAcc><vAcc>0.824974</vAcc></extensions></trkpt>
      <trkpt lon="-2.214208" lat="53.114012"><ele>324.770142</ele><time>2022-03-04T12:25:05Z</time><extensions><speed>0.939917</speed><course>24.500114</course><hAcc>1.690338</hAcc><vAcc>0.825122</vAcc></extensions></trkpt>
      <trkpt lon="-2.214202" lat="53.114020"><ele>324.744812</ele><time>2022-03-04T12:25:06Z</time><extensions><speed>1.001886</speed><course>22.010984</course><hAcc>1.696894</hAcc><vAcc>0.825276</vAcc></extensions></trkpt>
      <trkpt lon="-2.214197" lat="53.114028"><ele>324.713379</ele><time>2022-03-04T12:25:07Z</time><extensions><speed>0.913457</speed><course>18.469711</course><hAcc>1.705697</hAcc><vAcc>0.825442</vAcc></extensions></trkpt>
      <trkpt lon="-2.214194" lat="53.114035"><ele>324.664917</ele><time>2022-03-04T12:25:08Z</time><extensions><speed>0.729793</speed><course>16.357868</course><hAcc>1.712494</hAcc><vAcc>0.825588</vAcc></extensions></trkpt>
      <trkpt lon="-2.214192" lat="53.114040"><ele>324.624420</ele><time>2022-03-04T12:25:09Z</time><extensions><speed>0.399041</speed><course>14.754785</course><hAcc>1.709358</hAcc><vAcc>0.825729</vAcc></extensions></trkpt>
      <trkpt lon="-2.214191" lat="53.114043"><ele>324.588684</ele><time>2022-03-04T12:25:10Z</time><extensions><speed>0.175071</speed><course>10.282772</course><hAcc>1.705793</hAcc><vAcc>0.825890</vAcc></extensions></trkpt>
      <trkpt lon="-2.214190" lat="53.114044"><ele>324.542786</ele><time>2022-03-04T12:25:11Z</time><extensions><speed>0.174353</speed><course>359.280762</course><hAcc>1.691485</hAcc><vAcc>0.826014</vAcc></extensions></trkpt>
      <trkpt lon="-2.214191" lat="53.114047"><ele>324.489441</ele><time>2022-03-04T12:25:12Z</time><extensions><speed>0.336351</speed><course>356.323486</course><hAcc>1.663909</hAcc><vAcc>0.826100</vAcc></extensions></trkpt>
      <trkpt lon="-2.214191" lat="53.114051"><ele>324.420441</ele><time>2022-03-04T12:25:13Z</time><extensions><speed>0.663261</speed><course>357.224182</course><hAcc>1.641768</hAcc><vAcc>0.826168</vAcc></extensions></trkpt>
      <trkpt lon="-2.214191" lat="53.114058"><ele>324.347137</ele><time>2022-03-04T12:25:14Z</time><extensions><speed>0.938280</speed><course>357.557861</course><hAcc>1.667155</hAcc><vAcc>0.826172</vAcc></extensions></trkpt>
      <trkpt lon="-2.214193" lat="53.114068"><ele>324.285095</ele><time>2022-03-04T12:25:15Z</time><extensions><speed>1.232133</speed><course>352.953613</course><hAcc>1.657242</hAcc><vAcc>0.826145</vAcc></extensions></trkpt>
      <trkpt lon="-2.214196" lat="53.114080"><ele>324.224121</ele><time>2022-03-04T12:25:16Z</time><extensions><speed>1.364625</speed><course>348.318695</course><hAcc>1.639850</hAcc><vAcc>0.826070</vAcc></extensions></trkpt>
      <trkpt lon="-2.214200" lat="53.114092"><ele>324.176239</ele><time>2022-03-04T12:25:17Z</time><extensions><speed>1.420986</speed><course>347.490997</course><hAcc>1.641662</hAcc><vAcc>0.825945</vAcc></extensions></trkpt>
      <trkpt lon="-2.214205" lat="53.114105"><ele>324.114258</ele><time>2022-03-04T12:25:18Z</time><extensions><speed>1.463135</speed><course>349.308685</course><hAcc>1.619258</hAcc><vAcc>0.825754</vAcc></extensions></trkpt>
      <trkpt lon="-2.214208" lat="53.114118"><ele>324.049469</ele><time>2022-03-04T12:25:20Z</time><extensions><speed>1.501638</speed><course>350.973541</course><hAcc>1.616151</hAcc><vAcc>0.825587</vAcc></extensions></trkpt>
      <trkpt lon="-2.214211" lat="53.114131"><ele>323.999969</ele><time>2022-03-04T12:25:21Z</time><extensions><speed>1.459068</speed><course>353.206238</course><hAcc>1.632873</hAcc><vAcc>0.825385</vAcc></extensions></trkpt>
      <trkpt lon="-2.214213" lat="53.114144"><ele>323.950134</ele><time>2022-03-04T12:25:22Z</time><extensions><speed>1.393932</speed><course>357.165039</course><hAcc>1.643321</hAcc><vAcc>0.825153</vAcc></extensions></trkpt>
      <trkpt lon="-2.214213" lat="53.114156"><ele>323.899933</ele><time>2022-03-04T12:25:23Z</time><extensions><speed>1.248478</speed><course>1.948661</course><hAcc>1.656481</hAcc><vAcc>0.824943</vAcc></extensions></trkpt>
      <trkpt lon="-2.214212" lat="53.114166"><ele>323.849792</ele><time>2022-03-04T12:25:24Z</time><extensions><speed>1.115945</speed><course>8.423334</course><hAcc>1.666554</hAcc><vAcc>0.824760</vAcc></extensions></trkpt>
      <trkpt lon="-2.214208" lat="53.114177"><ele>323.798492</ele><time>2022-03-04T12:25:25Z</time><extensions><speed>1.246976</speed><course>14.751442</course><hAcc>1.660009</hAcc><vAcc>0.824583</vAcc></extensions></trkpt>
      <trkpt lon="-2.214203" lat="53.114188"><ele>323.743164</ele><time>2022-03-04T12:25:26Z</time><extensions><speed>1.385222</speed><course>16.688375</course><hAcc>1.656392</hAcc><vAcc>0.824429</vAcc></extensions></trkpt>
      <trkpt lon="-2.214197" lat="53.114200"><ele>323.691803</ele><time>2022-03-04T12:25:27Z</time><extensions><speed>1.403695</speed><course>15.224381</course><hAcc>1.651195</hAcc><vAcc>0.824307</vAcc></extensions></trkpt>
      <trkpt lon="-2.214192" lat="53.114212"><ele>323.635406</ele><time>2022-03-04T12:25:28Z</time><extensions><speed>1.413209</speed><course>13.345152</course><hAcc>1.639545</hAcc><vAcc>0.824217</vAcc></extensions></trkpt>
      <trkpt lon="-2.214187" lat="53.114225"><ele>323.590790</ele><time>2022-03-04T12:25:29Z</time><extensions><speed>1.391162</speed><course>13.125916</course><hAcc>1.620171</hAcc><vAcc>0.824172</vAcc></extensions></trkpt>
      <trkpt lon="-2.214182" lat="53.114237"><ele>323.539093</ele><time>2022-03-04T12:25:30Z</time><extensions><speed>1.342284</speed><course>14.716862</course><hAcc>1.603407</hAcc><vAcc>0.824137</vAcc></extensions></trkpt>
      <trkpt lon="-2.214176" lat="53.114248"><ele>323.489075</ele><time>2022-03-04T12:25:31Z</time><extensions><speed>1.341923</speed><course>17.017147</course><hAcc>1.577147</hAcc><vAcc>0.824130</vAcc></extensions></trkpt>
      <trkpt lon="-2.214169" lat="53.114260"><ele>323.440338</ele><time>2022-03-04T12:25:32Z</time><extensions><speed>1.411875</speed><course>18.383896</course><hAcc>1.558706</hAcc><vAcc>0.824153</vAcc></extensions></trkpt>
      <trkpt lon="-2.214162" lat="53.114272"><ele>323.401123</ele><time>2022-03-04T12:25:33Z</time><extensions><speed>1.368965</speed><course>20.136566</course><hAcc>1.569948</hAcc><vAcc>0.824194</vAcc></extensions></trkpt>
      <trkpt lon="-2.214155" lat="53.114283"><ele>323.369904</ele><time>2022-03-04T12:25:34Z</time><extensions><speed>1.283624</speed><course>23.465406</course><hAcc>1.539839</hAcc><vAcc>0.824260</vAcc></extensions></trkpt>
      <trkpt lon="-2.214147" lat="53.114293"><ele>323.337585</ele><time>2022-03-04T12:25:35Z</time><extensions><speed>1.175599</speed><course>27.310053</course><hAcc>1.537580</hAcc><vAcc>0.824358</vAcc></extensions></trkpt>
      <trkpt lon="-2.214138" lat="53.114302"><ele>323.307678</ele><time>2022-03-04T12:25:36Z</time><extensions><speed>1.184718</speed><course>31.645945</course><hAcc>1.501540</hAcc><vAcc>0.824477</vAcc></extensions></trkpt>
      <trkpt lon="-2.214128" lat="53.114311"><ele>323.288849</ele><time>2022-03-04T12:25:37Z</time><extensions><speed>1.255591</speed><course>33.207626</course><hAcc>1.517163</hAcc><vAcc>0.824649</vAcc></extensions></trkpt>
      <trkpt lon="-2.214118" lat="53.114320"><ele>323.285767</ele><time>2022-03-04T12:25:38Z</time><extensions><speed>1.212440</speed><course>36.355373</course><hAcc>1.560846</hAcc><vAcc>0.824822</vAcc></extensions></trkpt>
      <trkpt lon="-2.214107" lat="53.114328"><ele>323.291046</ele><time>2022-03-04T12:25:39Z</time><extensions><speed>1.180588</speed><course>40.934814</course><hAcc>1.598607</hAcc><vAcc>0.825022</vAcc></extensions></trkpt>
      <trkpt lon="-2.214094" lat="53.114336"><ele>323.306824</ele><time>2022-03-04T12:25:40Z</time><extensions><speed>1.182352</speed><course>51.552826</course><hAcc>1.559998</hAcc><vAcc>0.825241</vAcc></extensions></trkpt>
      <trkpt lon="-2.214079" lat="53.114342"><ele>323.321320</ele><time>2022-03-04T12:25:41Z</time><extensions><speed>1.176334</speed><course>58.921329</course><hAcc>1.571887</hAcc><vAcc>0.825477</vAcc></extensions></trkpt>
      <trkpt lon="-2.214064" lat="53.114347"><ele>323.326996</ele><time>2022-03-04T12:25:42Z</time><extensions><speed>1.182754</speed><course>63.728130</course><hAcc>1.609807</hAcc><vAcc>0.825723</vAcc></extensions></trkpt>
      <trkpt lon="-2.214048" lat="53.114351"><ele>323.355530</ele><time>2022-03-04T12:25:43Z</time><extensions><speed>1.153709</speed><course>67.771118</course><hAcc>1.647715</hAcc><vAcc>0.825977</vAcc></extensions></trkpt>
      <trkpt lon="-2.214032" lat="53.114355"><ele>323.378632</ele><time>2022-03-04T12:25:44Z</time><extensions><speed>1.142146</speed><course>71.618797</course><hAcc>1.666950</hAcc><vAcc>0.826244</vAcc></extensions></trkpt>
      <trkpt lon="-2.214015" lat="53.114358"><ele>323.409637</ele><time>2022-03-04T12:25:45Z</time><extensions><speed>1.139233</speed><course>76.133362</course><hAcc>1.670198</hAcc><vAcc>0.826509</vAcc></extensions></trkpt>
      <trkpt lon="-2.213998" lat="53.114360"><ele>323.442474</ele><time>2022-03-04T12:25:46Z</time><extensions><speed>1.194902</speed><course>78.036148</course><hAcc>1.673166</hAcc><vAcc>0.826763</vAcc></extensions></trkpt>
      <trkpt lon="-2.213981" lat="53.114362"><ele>323.497345</ele><time>2022-03-04T12:25:47Z</time><extensions><speed>1.242432</speed><course>76.782349</course><hAcc>1.697136</hAcc><vAcc>0.826989</vAcc></extensions></trkpt>
      <trkpt lon="-2.213963" lat="53.114365"><ele>323.572571</ele><time>2022-03-04T12:25:48Z</time><extensions><speed>1.262265</speed><course>74.285675</course><hAcc>1.718133</hAcc><vAcc>0.827186</vAcc></extensions></trkpt>
      <trkpt lon="-2.213944" lat="53.114369"><ele>323.657257</ele><time>2022-03-04T12:25:49Z</time><extensions><speed>1.303715</speed><course>72.473877</course><hAcc>1.691046</hAcc><vAcc>0.827322</vAcc></extensions></trkpt>
      <trkpt lon="-2.213926" lat="53.114372"><ele>323.748901</ele><time>2022-03-04T12:25:50Z</time><extensions><speed>1.223204</speed><course>72.746010</course><hAcc>1.684626</hAcc><vAcc>0.827428</vAcc></extensions></trkpt>
      <trkpt lon="-2.213910" lat="53.114375"><ele>323.845673</ele><time>2022-03-04T12:25:51Z</time><extensions><speed>1.091255</speed><course>74.869957</course><hAcc>1.694376</hAcc><vAcc>0.827495</vAcc></extensions></trkpt>
      <trkpt lon="-2.213894" lat="53.114378"><ele>323.952637</ele><time>2022-03-04T12:25:52Z</time><extensions><speed>1.141261</speed><course>75.550026</course><hAcc>1.703582</hAcc><vAcc>0.827452</vAcc></extensions></trkpt>
      <trkpt lon="-2.213877" lat="53.114380"><ele>324.067383</ele><time>2022-03-04T12:25:53Z</time><extensions><speed>1.119550</speed><course>74.273834</course><hAcc>1.708899</hAcc><vAcc>0.827304</vAcc></extensions></trkpt>
      <trkpt lon="-2.213862" lat="53.114383"><ele>324.203369</ele><time>2022-03-04T12:25:54Z</time><extensions><speed>1.057317</speed><course>70.520424</course><hAcc>1.706342</hAcc><vAcc>0.827158</vAcc></extensions></trkpt>
      <trkpt lon="-2.213847" lat="53.114387"><ele>324.329651</ele><time>2022-03-04T12:25:55Z</time><extensions><speed>1.032389</speed><course>65.028008</course><hAcc>1.689729</hAcc><vAcc>0.826973</vAcc></extensions></trkpt>
      <trkpt lon="-2.213834" lat="53.114391"><ele>324.465668</ele><time>2022-03-04T12:25:56Z</time><extensions><speed>0.975662</speed><course>56.398151</course><hAcc>1.667689</hAcc><vAcc>0.826615</vAcc></extensions></trkpt>
      <trkpt lon="-2.213823" lat="53.114397"><ele>324.606445</ele><time>2022-03-04T12:25:57Z</time><extensions><speed>0.935897</speed><course>43.962036</course><hAcc>1.656927</hAcc><vAcc>0.826177</vAcc></extensions></trkpt>
      <trkpt lon="-2.213815" lat="53.114404"><ele>324.748535</ele><time>2022-03-04T12:25:58Z</time><extensions><speed>0.983903</speed><course>33.043453</course><hAcc>1.661689</hAcc><vAcc>0.825579</vAcc></extensions></trkpt>
      <trkpt lon="-2.213808" lat="53.114412"><ele>324.908417</ele><time>2022-03-04T12:25:59Z</time><extensions><speed>1.027540</speed><course>22.936375</course><hAcc>1.637509</hAcc><vAcc>0.824840</vAcc></extensions></trkpt>
      <trkpt lon="-2.213802" lat="53.114421"><ele>325.048187</ele><time>2022-03-04T12:26:00Z</time><extensions><speed>1.124413</speed><course>18.641047</course><hAcc>1.624231</hAcc><vAcc>0.824024</vAcc></extensions></trkpt>
      <trkpt lon="-2.213797" lat="53.114431"><ele>325.187988</ele><time>2022-03-04T12:26:01Z</time><extensions><speed>1.277366</speed><course>16.629173</course><hAcc>1.627877</hAcc><vAcc>0.823168</vAcc></extensions></trkpt>
      <trkpt lon="-2.213791" lat="53.114443"><ele>325.346100</ele><time>2022-03-04T12:26:02Z</time><extensions><speed>1.404496</speed><course>14.868401</course><hAcc>1.593281</hAcc><vAcc>0.822329</vAcc></extensions></trkpt>
      <trkpt lon="-2.213786" lat="53.114455"><ele>325.489594</ele><time>2022-03-04T12:26:03Z</time><extensions><speed>1.420284</speed><course>15.256218</course><hAcc>1.614548</hAcc><vAcc>0.821513</vAcc></extensions></trkpt>
      <trkpt lon="-2.213780" lat="53.114467"><ele>325.627838</ele><time>2022-03-04T12:26:04Z</time><extensions><speed>1.362332</speed><course>18.167637</course><hAcc>1.685022</hAcc><vAcc>0.820725</vAcc></extensions></trkpt>
      <trkpt lon="-2.213774" lat="53.114479"><ele>325.751648</ele><time>2022-03-04T12:26:05Z</time><extensions><speed>1.408184</speed><course>13.592754</course><hAcc>1.647828</hAcc><vAcc>0.820024</vAcc></extensions></trkpt>
      <trkpt lon="-2.213770" lat="53.114492"><ele>325.867889</ele><time>2022-03-04T12:26:06Z</time><extensions><speed>1.378141</speed><course>8.911900</course><hAcc>1.635771</hAcc><vAcc>0.819428</vAcc></extensions></trkpt>
      <trkpt lon="-2.213768" lat="53.114504"><ele>325.962311</ele><time>2022-03-04T12:26:07Z</time><extensions><speed>1.340199</speed><course>4.919602</course><hAcc>1.664611</hAcc><vAcc>0.818939</vAcc></extensions></trkpt>
      <trkpt lon="-2.213767" lat="53.114515"><ele>326.048828</ele><time>2022-03-04T12:26:08Z</time><extensions><speed>1.289198</speed><course>0.758217</course><hAcc>1.693098</hAcc><vAcc>0.818583</vAcc></extensions></trkpt>
      <trkpt lon="-2.213768" lat="53.114527"><ele>326.113831</ele><time>2022-03-04T12:26:09Z</time><extensions><speed>1.270869</speed><course>355.539337</course><hAcc>1.711489</hAcc><vAcc>0.818400</vAcc></extensions></trkpt>
      <trkpt lon="-2.213771" lat="53.114538"><ele>326.187775</ele><time>2022-03-04T12:26:10Z</time><extensions><speed>1.310937</speed><course>349.263947</course><hAcc>1.719411</hAcc><vAcc>0.818391</vAcc></extensions></trkpt>
      <trkpt lon="-2.213775" lat="53.114550"><ele>326.253571</ele><time>2022-03-04T12:26:11Z</time><extensions><speed>1.314877</speed><course>343.462128</course><hAcc>1.721873</hAcc><vAcc>0.818566</vAcc></extensions></trkpt>
      <trkpt lon="-2.213782" lat="53.114561"><ele>326.273865</ele><time>2022-03-04T12:26:12Z</time><extensions><speed>1.248295</speed><course>334.596954</course><hAcc>1.720514</hAcc><vAcc>0.818880</vAcc></extensions></trkpt>
      <trkpt lon="-2.213792" lat="53.114570"><ele>326.287231</ele><time>2022-03-04T12:26:12Z</time><extensions><speed>1.174106</speed><course>320.904053</course><hAcc>1.702472</hAcc><vAcc>0.819281</vAcc></extensions></trkpt>
      <trkpt lon="-2.213805" lat="53.114577"><ele>326.317444</ele><time>2022-03-04T12:26:13Z</time><extensions><speed>1.227217</speed><course>308.870056</course><hAcc>1.692320</hAcc><vAcc>0.819715</vAcc></extensions></trkpt>
      <trkpt lon="-2.213820" lat="53.114584"><ele>326.303894</ele><time>2022-03-04T12:26:14Z</time><extensions><speed>1.244967</speed><course>304.039673</course><hAcc>1.697250</hAcc><vAcc>0.820156</vAcc></extensions></trkpt>
      <trkpt lon="-2.213836" lat="53.114590"><ele>326.272217</ele><time>2022-03-04T12:26:15Z</time><extensions><speed>1.262035</speed><course>296.657013</course><hAcc>1.691645</hAcc><vAcc>0.820586</vAcc></extensions></trkpt>
      <trkpt lon="-2.213855" lat="53.114594"><ele>326.216431</ele><time>2022-03-04T12:26:16Z</time><extensions><speed>1.389332</speed><course>290.314972</course><hAcc>1.655833</hAcc><vAcc>0.820998</vAcc></extensions></trkpt>
      <trkpt lon="-2.213875" lat="53.114598"><ele>326.142548</ele><time>2022-03-04T12:26:17Z</time><extensions><speed>1.405897</speed><course>287.293976</course><hAcc>1.637474</hAcc><vAcc>0.821389</vAcc></extensions></trkpt>
      <trkpt lon="-2.213894" lat="53.114602"><ele>326.050415</ele><time>2022-03-04T12:26:18Z</time><extensions><speed>1.349178</speed><course>285.447815</course><hAcc>1.654193</hAcc><vAcc>0.821761</vAcc></extensions></trkpt>
      <trkpt lon="-2.213912" lat="53.114605"><ele>325.949951</ele><time>2022-03-04T12:26:19Z</time><extensions><speed>1.048638</speed><course>285.560669</course><hAcc>1.692320</hAcc><vAcc>0.822104</vAcc></extensions></trkpt>
      <trkpt lon="-2.213928" lat="53.114607"><ele>325.822937</ele><time>2022-03-04T12:26:20Z</time><extensions><speed>1.139977</speed><course>279.582825</course><hAcc>1.653164</hAcc><vAcc>0.822430</vAcc></extensions></trkpt>
      <trkpt lon="-2.213945" lat="53.114608"><ele>325.682098</ele><time>2022-03-04T12:26:21Z</time><extensions><speed>1.154302</speed><course>277.838928</course><hAcc>1.646587</hAcc><vAcc>0.822730</vAcc></extensions></trkpt>
      <trkpt lon="-2.213963" lat="53.114610"><ele>325.534821</ele><time>2022-03-04T12:26:22Z</time><extensions><speed>1.378267</speed><course>281.281494</course><hAcc>1.661219</hAcc><vAcc>0.823003</vAcc></extensions></trkpt>
      <trkpt lon="-2.213984" lat="53.114613"><ele>325.390747</ele><time>2022-03-04T12:26:23Z</time><extensions><speed>1.504850</speed><course>281.771118</course><hAcc>1.665900</hAcc><vAcc>0.823240</vAcc></extensions></trkpt>
      <trkpt lon="-2.214006" lat="53.114615"><ele>325.232727</ele><time>2022-03-04T12:26:24Z</time><extensions><speed>1.460839</speed><course>278.236816</course><hAcc>1.679299</hAcc><vAcc>0.823477</vAcc></extensions></trkpt>
      <trkpt lon="-2.214027" lat="53.114617"><ele>325.068817</ele><time>2022-03-04T12:26:25Z</time><extensions><speed>1.325762</speed><course>275.895050</course><hAcc>1.679467</hAcc><vAcc>0.823681</vAcc></extensions></trkpt>
      <trkpt lon="-2.214045" lat="53.114618"><ele>324.894775</ele><time>2022-03-04T12:26:26Z</time><extensions><speed>1.187475</speed><course>277.706818</course><hAcc>1.667805</hAcc><vAcc>0.823860</vAcc></extensions></trkpt>
      <trkpt lon="-2.214062" lat="53.114620"><ele>324.721893</ele><time>2022-03-04T12:26:27Z</time><extensions><speed>1.155310</speed><course>283.348877</course><hAcc>1.658680</hAcc><vAcc>0.824024</vAcc></extensions></trkpt>
      <trkpt lon="-2.214079" lat="53.114623"><ele>324.535797</ele><time>2022-03-04T12:26:28Z</time><extensions><speed>1.183721</speed><course>288.636261</course><hAcc>1.640045</hAcc><vAcc>0.824165</vAcc></extensions></trkpt>
      <trkpt lon="-2.214096" lat="53.114627"><ele>324.350586</ele><time>2022-03-04T12:26:29Z</time><extensions><speed>1.228788</speed><course>290.561371</course><hAcc>1.631465</hAcc><vAcc>0.824272</vAcc></extensions></trkpt>
      <trkpt lon="-2.214113" lat="53.114631"><ele>324.172607</ele><time>2022-03-04T12:26:30Z</time><extensions><speed>1.185583</speed><course>290.160919</course><hAcc>1.659160</hAcc><vAcc>0.824382</vAcc></extensions></trkpt>
      <trkpt lon="-2.214129" lat="53.114635"><ele>324.003784</ele><time>2022-03-04T12:26:31Z</time><extensions><speed>1.211563</speed><course>295.508759</course><hAcc>1.637552</hAcc><vAcc>0.824467</vAcc></extensions></trkpt>
      <trkpt lon="-2.214144" lat="53.114641"><ele>323.851593</ele><time>2022-03-04T12:26:32Z</time><extensions><speed>1.254741</speed><course>305.553253</course><hAcc>1.585662</hAcc><vAcc>0.824534</vAcc></extensions></trkpt>
      <trkpt lon="-2.214159" lat="53.114648"><ele>323.706940</ele><time>2022-03-04T12:26:33Z</time><extensions><speed>1.319836</speed><course>311.940033</course><hAcc>1.579168</hAcc><vAcc>0.824585</vAcc></extensions></trkpt>
      <trkpt lon="-2.214173" lat="53.114656"><ele>323.562103</ele><time>2022-03-04T12:26:34Z</time><extensions><speed>1.293603</speed><course>312.303253</course><hAcc>1.600924</hAcc><vAcc>0.824617</vAcc></extensions></trkpt>
      <trkpt lon="-2.214185" lat="53.114663"><ele>323.422974</ele><time>2022-03-04T12:26:35Z</time><extensions><speed>1.040755</speed><course>319.233063</course><hAcc>1.566510</hAcc><vAcc>0.824636</vAcc></extensions></trkpt>
      <trkpt lon="-2.214194" lat="53.114670"><ele>323.290985</ele><time>2022-03-04T12:26:36Z</time><extensions><speed>0.859706</speed><course>320.046204</course><hAcc>1.570032</hAcc><vAcc>0.824630</vAcc></extensions></trkpt>
      <trkpt lon="-2.214202" lat="53.114676"><ele>323.169250</ele><time>2022-03-04T12:26:37Z</time><extensions><speed>0.824323</speed><course>318.764282</course><hAcc>1.596902</hAcc><vAcc>0.824619</vAcc></extensions></trkpt>
      <trkpt lon="-2.214210" lat="53.114681"><ele>323.058960</ele><time>2022-03-04T12:26:38Z</time><extensions><speed>0.767315</speed><course>317.211609</course><hAcc>1.622305</hAcc><vAcc>0.824593</vAcc></extensions></trkpt>
      <trkpt lon="-2.214216" lat="53.114686"><ele>322.946106</ele><time>2022-03-04T12:26:39Z</time><extensions><speed>0.676489</speed><course>339.294312</course><hAcc>1.585341</hAcc><vAcc>0.824546</vAcc></extensions></trkpt>
      <trkpt lon="-2.214217" lat="53.114692"><ele>322.850067</ele><time>2022-03-04T12:26:40Z</time><extensions><speed>0.705155</speed><course>1.172154</course><hAcc>1.592887</hAcc><vAcc>0.824490</vAcc></extensions></trkpt>
      <trkpt lon="-2.214216" lat="53.114699"><ele>322.762207</ele><time>2022-03-04T12:26:41Z</time><extensions><speed>0.818401</speed><course>15.221580</course><hAcc>1.622694</hAcc><vAcc>0.824431</vAcc></extensions></trkpt>
      <trkpt lon="-2.214211" lat="53.114706"><ele>322.683746</ele><time>2022-03-04T12:26:42Z</time><extensions><speed>0.910196</speed><course>23.990622</course><hAcc>1.649608</hAcc><vAcc>0.824409</vAcc></extensions></trkpt>
      <trkpt lon="-2.214205" lat="53.114714"><ele>322.611664</ele><time>2022-03-04T12:26:43Z</time><extensions><speed>1.025472</speed><course>28.287300</course><hAcc>1.666392</hAcc><vAcc>0.824424</vAcc></extensions></trkpt>
      <trkpt lon="-2.214197" lat="53.114722"><ele>322.527161</ele><time>2022-03-04T12:26:44Z</time><extensions><speed>1.083848</speed><course>30.948750</course><hAcc>1.675319</hAcc><vAcc>0.824442</vAcc></extensions></trkpt>
      <trkpt lon="-2.214188" lat="53.114731"><ele>322.468170</ele><time>2022-03-04T12:26:45Z</time><extensions><speed>1.107677</speed><course>30.543055</course><hAcc>1.684974</hAcc><vAcc>0.824486</vAcc></extensions></trkpt>
      <trkpt lon="-2.214180" lat="53.114739"><ele>322.416016</ele><time>2022-03-04T12:26:46Z</time><extensions><speed>1.072365</speed><course>29.298723</course><hAcc>1.696682</hAcc><vAcc>0.824503</vAcc></extensions></trkpt>
      <trkpt lon="-2.214173" lat="53.114748"><ele>322.381927</ele><time>2022-03-04T12:26:47Z</time><extensions><speed>1.005888</speed><course>29.691814</course><hAcc>1.704934</hAcc><vAcc>0.824510</vAcc></extensions></trkpt>
      <trkpt lon="-2.214165" lat="53.114755"><ele>322.353088</ele><time>2022-03-04T12:26:48Z</time><extensions><speed>0.960694</speed><course>31.644176</course><hAcc>1.706050</hAcc><vAcc>0.824558</vAcc></extensions></trkpt>
      <trkpt lon="-2.214157" lat="53.114762"><ele>322.328308</ele><time>2022-03-04T12:26:49Z</time><extensions><speed>0.889109</speed><course>36.833759</course><hAcc>1.697815</hAcc><vAcc>0.824599</vAcc></extensions></trkpt>
      <trkpt lon="-2.214149" lat="53.114768"><ele>322.312775</ele><time>2022-03-04T12:26:50Z</time><extensions><speed>0.884873</speed><course>38.854229</course><hAcc>1.704379</hAcc><vAcc>0.824632</vAcc></extensions></trkpt>
      <trkpt lon="-2.214140" lat="53.114775"><ele>322.304993</ele><time>2022-03-04T12:26:51Z</time><extensions><speed>0.924232</speed><course>40.277107</course><hAcc>1.706103</hAcc><vAcc>0.824672</vAcc></extensions></trkpt>
      <trkpt lon="-2.214131" lat="53.114781"><ele>322.285278</ele><time>2022-03-04T12:26:52Z</time><extensions><speed>0.897967</speed><course>41.875637</course><hAcc>1.707429</hAcc><vAcc>0.824733</vAcc></extensions></trkpt>
      <trkpt lon="-2.214123" lat="53.114787"><ele>322.266968</ele><time>2022-03-04T12:26:53Z</time><extensions><speed>0.818305</speed><course>41.398689</course><hAcc>1.710452</hAcc><vAcc>0.824774</vAcc></extensions></trkpt>
      <trkpt lon="-2.214115" lat="53.114792"><ele>322.258362</ele><time>2022-03-04T12:26:54Z</time><extensions><speed>0.700773</speed><course>35.707989</course><hAcc>1.702511</hAcc><vAcc>0.824769</vAcc></extensions></trkpt>
      <trkpt lon="-2.214110" lat="53.114797"><ele>322.256165</ele><time>2022-03-04T12:26:55Z</time><extensions><speed>0.711738</speed><course>25.585611</course><hAcc>1.690978</hAcc><vAcc>0.824714</vAcc></extensions></trkpt>
      <trkpt lon="-2.214106" lat="53.114803"><ele>322.260437</ele><time>2022-03-04T12:26:56Z</time><extensions><speed>0.771326</speed><course>16.355328</course><hAcc>1.697414</hAcc><vAcc>0.824573</vAcc></extensions></trkpt>
      <trkpt lon="-2.214102" lat="53.114811"><ele>322.272949</ele><time>2022-03-04T12:26:57Z</time><extensions><speed>0.881064</speed><course>17.211693</course><hAcc>1.701607</hAcc><vAcc>0.824443</vAcc></extensions></trkpt>
      <trkpt lon="-2.214098" lat="53.114818"><ele>322.295929</ele><time>2022-03-04T12:26:58Z</time><extensions><speed>0.893504</speed><course>24.837591</course><hAcc>1.707009</hAcc><vAcc>0.824326</vAcc></extensions></trkpt>
      <trkpt lon="-2.214091" lat="53.114825"><ele>322.335358</ele><time>2022-03-04T12:26:59Z</time><extensions><speed>0.885342</speed><course>40.104607</course><hAcc>1.708668</hAcc><vAcc>0.824180</vAcc></extensions></trkpt>
      <trkpt lon="-2.214081" lat="53.114830"><ele>322.376770</ele><time>2022-03-04T12:27:00Z</time><extensions><speed>0.906771</speed><course>55.919697</course><hAcc>1.711642</hAcc><vAcc>0.823997</vAcc></extensions></trkpt>
      <trkpt lon="-2.214069" lat="53.114834"><ele>322.418701</ele><time>2022-03-04T12:27:01Z</time><extensions><speed>0.939702</speed><course>68.692566</course><hAcc>1.715546</hAcc><vAcc>0.823784</vAcc></extensions></trkpt>
      <trkpt lon="-2.214055" lat="53.114836"><ele>322.476318</ele><time>2022-03-04T12:27:02Z</time><extensions><speed>0.904011</speed><course>77.115303</course><hAcc>1.718593</hAcc><vAcc>0.823526</vAcc></extensions></trkpt>
      <trkpt lon="-2.214043" lat="53.114838"><ele>322.533386</ele><time>2022-03-04T12:27:03Z</time><extensions><speed>0.808376</speed><course>77.883728</course><hAcc>1.717394</hAcc><vAcc>0.823230</vAcc></extensions></trkpt>
      <trkpt lon="-2.214031" lat="53.114840"><ele>322.597351</ele><time>2022-03-04T12:27:04Z</time><extensions><speed>0.853431</speed><course>68.950188</course><hAcc>1.714414</hAcc><vAcc>0.822919</vAcc></extensions></trkpt>
      <trkpt lon="-2.214019" lat="53.114843"><ele>322.672852</ele><time>2022-03-04T12:27:05Z</time><extensions><speed>0.903543</speed><course>60.656185</course><hAcc>1.725350</hAcc><vAcc>0.822598</vAcc></extensions></trkpt>
      <trkpt lon="-2.214008" lat="53.114848"><ele>322.754669</ele><time>2022-03-04T12:27:06Z</time><extensions><speed>0.912005</speed><course>52.010944</course><hAcc>1.723462</hAcc><vAcc>0.822291</vAcc></extensions></trkpt>
      <trkpt lon="-2.213998" lat="53.114853"><ele>322.868408</ele><time>2022-03-04T12:27:07Z</time><extensions><speed>0.861841</speed><course>43.299320</course><hAcc>1.720043</hAcc><vAcc>0.822010</vAcc></extensions></trkpt>
      <trkpt lon="-2.213990" lat="53.114859"><ele>322.992615</ele><time>2022-03-04T12:27:08Z</time><extensions><speed>0.894599</speed><course>37.139019</course><hAcc>1.719605</hAcc><vAcc>0.821752</vAcc></extensions></trkpt>
      <trkpt lon="-2.213982" lat="53.114866"><ele>323.111450</ele><time>2022-03-04T12:27:09Z</time><extensions><speed>0.853856</speed><course>37.652313</course><hAcc>1.717850</hAcc><vAcc>0.821534</vAcc></extensions></trkpt>
      <trkpt lon="-2.213974" lat="53.114871"><ele>323.237457</ele><time>2022-03-04T12:27:10Z</time><extensions><speed>0.749988</speed><course>45.273083</course><hAcc>1.716320</hAcc><vAcc>0.821344</vAcc></extensions></trkpt>
      <trkpt lon="-2.213967" lat="53.114875"><ele>323.367126</ele><time>2022-03-04T12:27:11Z</time><extensions><speed>0.659659</speed><course>46.803814</course><hAcc>1.714661</hAcc><vAcc>0.821199</vAcc></extensions></trkpt>
      <trkpt lon="-2.213960" lat="53.114879"><ele>323.493469</ele><time>2022-03-04T12:27:12Z</time><extensions><speed>0.599070</speed><course>44.735134</course><hAcc>1.716103</hAcc><vAcc>0.821090</vAcc></extensions></trkpt>
      <trkpt lon="-2.213954" lat="53.114883"><ele>323.618896</ele><time>2022-03-04T12:27:13Z</time><extensions><speed>0.530750</speed><course>40.534782</course><hAcc>1.709029</hAcc><vAcc>0.821018</vAcc></extensions></trkpt>
      <trkpt lon="-2.213949" lat="53.114887"><ele>323.742462</ele><time>2022-03-04T12:27:14Z</time><extensions><speed>0.513848</speed><course>36.955360</course><hAcc>1.701240</hAcc><vAcc>0.820986</vAcc></extensions></trkpt>
      <trkpt lon="-2.213945" lat="53.114890"><ele>323.850098</ele><time>2022-03-04T12:27:15Z</time><extensions><speed>0.512640</speed><course>39.079239</course><hAcc>1.690421</hAcc><vAcc>0.820976</vAcc></extensions></trkpt>
      <trkpt lon="-2.213940" lat="53.114894"><ele>323.948334</ele><time>2022-03-04T12:27:16Z</time><extensions><speed>0.513561</speed><course>41.710609</course><hAcc>1.675748</hAcc><vAcc>0.820978</vAcc></extensions></trkpt>
      <trkpt lon="-2.213935" lat="53.114897"><ele>324.043640</ele><time>2022-03-04T12:27:17Z</time><extensions><speed>0.482310</speed><course>43.211845</course><hAcc>1.643678</hAcc><vAcc>0.820986</vAcc></extensions></trkpt>
      <trkpt lon="-2.213931" lat="53.114900"><ele>324.122894</ele><time>2022-03-04T12:27:18Z</time><extensions><speed>0.258869</speed><course>44.311180</course><hAcc>1.613317</hAcc><vAcc>0.820986</vAcc></extensions></trkpt>
      <trkpt lon="-2.213930" lat="53.114901"><ele>324.188019</ele><time>2022-03-04T12:27:19Z</time><extensions><speed>0.048659</speed><course>13.855074</course><hAcc>1.592523</hAcc><vAcc>0.820978</vAcc></extensions></trkpt>
      <trkpt lon="-2.213930" lat="53.114901"><ele>324.230865</ele><time>2022-03-04T12:27:20Z</time><extensions><speed>0.044541</speed><course>281.646698</course><hAcc>1.554126</hAcc><vAcc>0.820964</vAcc></extensions></trkpt>
      <trkpt lon="-2.213931" lat="53.114901"><ele>324.277283</ele><time>2022-03-04T12:27:21Z</time><extensions><speed>0.050950</speed><course>275.818848</course><hAcc>1.533345</hAcc><vAcc>0.820893</vAcc></extensions></trkpt>
      <trkpt lon="-2.213931" lat="53.114901"><ele>324.306915</ele><time>2022-03-04T12:27:22Z</time><extensions><speed>0.032168</speed><course>282.554260</course><hAcc>1.553555</hAcc><vAcc>0.820699</vAcc></extensions></trkpt>
      <trkpt lon="-2.213932" lat="53.114901"><ele>324.324860</ele><time>2022-03-04T12:27:23Z</time><extensions><speed>0.026447</speed><course>295.283661</course><hAcc>1.558109</hAcc><vAcc>0.820560</vAcc></extensions></trkpt>
      <trkpt lon="-2.213932" lat="53.114902"><ele>324.327301</ele><time>2022-03-04T12:27:24Z</time><extensions><speed>0.047359</speed><course>304.243286</course><hAcc>1.522207</hAcc><vAcc>0.820438</vAcc></extensions></trkpt>
      <trkpt lon="-2.213933" lat="53.114902"><ele>324.323547</ele><time>2022-03-04T12:27:26Z</time><extensions><speed>0.053351</speed><course>311.483673</course><hAcc>1.520807</hAcc><vAcc>0.820309</vAcc></extensions></trkpt>
      <trkpt lon="-2.213933" lat="53.114902"><ele>324.301605</ele><time>2022-03-04T12:27:27Z</time><extensions><speed>0.050304</speed><course>325.460785</course><hAcc>1.545540</hAcc><vAcc>0.820174</vAcc></extensions></trkpt>
      <trkpt lon="-2.213933" lat="53.114903"><ele>324.288177</ele><time>2022-03-04T12:27:28Z</time><extensions><speed>0.046729</speed><course>351.848663</course><hAcc>1.575495</hAcc><vAcc>0.820052</vAcc></extensions></trkpt>
      <trkpt lon="-2.213933" lat="53.114903"><ele>324.284393</ele><time>2022-03-04T12:27:29Z</time><extensions><speed>0.063620</speed><course>23.186987</course><hAcc>1.608546</hAcc><vAcc>0.819987</vAcc></extensions></trkpt>
      <trkpt lon="-2.213932" lat="53.114904"><ele>324.288055</ele><time>2022-03-04T12:27:30Z</time><extensions><speed>0.120644</speed><course>35.649952</course><hAcc>1.644678</hAcc><vAcc>0.819987</vAcc></extensions></trkpt>
      <trkpt lon="-2.213930" lat="53.114905"><ele>324.278015</ele><time>2022-03-04T12:27:31Z</time><extensions><speed>0.258169</speed><course>38.606510</course><hAcc>1.659922</hAcc><vAcc>0.820060</vAcc></extensions></trkpt>
      <trkpt lon="-2.213926" lat="53.114908"><ele>324.262665</ele><time>2022-03-04T12:27:32Z</time><extensions><speed>0.543715</speed><course>40.312794</course><hAcc>1.651420</hAcc><vAcc>0.820257</vAcc></extensions></trkpt>
      <trkpt lon="-2.213920" lat="53.114912"><ele>324.238739</ele><time>2022-03-04T12:27:33Z</time><extensions><speed>0.715936</speed><course>39.388733</course><hAcc>1.677093</hAcc><vAcc>0.820568</vAcc></extensions></trkpt>
      <trkpt lon="-2.213913" lat="53.114918"><ele>324.217773</ele><time>2022-03-04T12:27:34Z</time><extensions><speed>0.826589</speed><course>42.684093</course><hAcc>1.709484</hAcc><vAcc>0.821001</vAcc></extensions></trkpt>
      <trkpt lon="-2.213903" lat="53.114924"><ele>324.188965</ele><time>2022-03-04T12:27:35Z</time><extensions><speed>1.150088</speed><course>43.511684</course><hAcc>1.724246</hAcc><vAcc>0.821531</vAcc></extensions></trkpt>
      <trkpt lon="-2.213889" lat="53.114932"><ele>324.180664</ele><time>2022-03-04T12:27:36Z</time><extensions><speed>1.362965</speed><course>47.789459</course><hAcc>1.729185</hAcc><vAcc>0.822148</vAcc></extensions></trkpt>
      <trkpt lon="-2.213873" lat="53.114940"><ele>324.161377</ele><time>2022-03-04T12:27:37Z</time><extensions><speed>1.443020</speed><course>54.098675</course><hAcc>1.722134</hAcc><vAcc>0.822797</vAcc></extensions></trkpt>
      <trkpt lon="-2.213854" lat="53.114947"><ele>324.135071</ele><time>2022-03-04T12:27:38Z</time><extensions><speed>1.568886</speed><course>60.304996</course><hAcc>1.712982</hAcc><vAcc>0.823440</vAcc></extensions></trkpt>
      <trkpt lon="-2.213833" lat="53.114954"><ele>324.105438</ele><time>2022-03-04T12:27:39Z</time><extensions><speed>1.616325</speed><course>65.243568</course><hAcc>1.708441</hAcc><vAcc>0.824071</vAcc></extensions></trkpt>
      <trkpt lon="-2.213811" lat="53.114959"><ele>324.070221</ele><time>2022-03-04T12:27:40Z</time><extensions><speed>1.569796</speed><course>66.537376</course><hAcc>1.703044</hAcc><vAcc>0.824670</vAcc></extensions></trkpt>
      <trkpt lon="-2.213790" lat="53.114965"><ele>324.020935</ele><time>2022-03-04T12:27:41Z</time><extensions><speed>1.472463</speed><course>66.943077</course><hAcc>1.701619</hAcc><vAcc>0.825212</vAcc></extensions></trkpt>
      <trkpt lon="-2.213770" lat="53.114970"><ele>323.986511</ele><time>2022-03-04T12:27:42Z</time><extensions><speed>1.401264</speed><course>69.592384</course><hAcc>1.702032</hAcc><vAcc>0.825675</vAcc></extensions></trkpt>
      <trkpt lon="-2.213751" lat="53.114974"><ele>323.961243</ele><time>2022-03-04T12:27:43Z</time><extensions><speed>1.310220</speed><course>73.314178</course><hAcc>1.696806</hAcc><vAcc>0.826082</vAcc></extensions></trkpt>
      <trkpt lon="-2.213733" lat="53.114977"><ele>323.939514</ele><time>2022-03-04T12:27:44Z</time><extensions><speed>1.256845</speed><course>73.729721</course><hAcc>1.688486</hAcc><vAcc>0.826417</vAcc></extensions></trkpt>
      <trkpt lon="-2.213715" lat="53.114980"><ele>323.930389</ele><time>2022-03-04T12:27:45Z</time><extensions><speed>1.232621</speed><course>70.788025</course><hAcc>1.689717</hAcc><vAcc>0.826686</vAcc></extensions></trkpt>
      <trkpt lon="-2.213698" lat="53.114984"><ele>323.928223</ele><time>2022-03-04T12:27:46Z</time><extensions><speed>1.239894</speed><course>67.663879</course><hAcc>1.693423</hAcc><vAcc>0.826894</vAcc></extensions></trkpt>
      <trkpt lon="-2.213680" lat="53.114989"><ele>323.926788</ele><time>2022-03-04T12:27:47Z</time><extensions><speed>1.305759</speed><course>67.683289</course><hAcc>1.689665</hAcc><vAcc>0.827020</vAcc></extensions></trkpt>
      <trkpt lon="-2.213662" lat="53.114993"><ele>323.944733</ele><time>2022-03-04T12:27:48Z</time><extensions><speed>1.313726</speed><course>65.971184</course><hAcc>1.687129</hAcc><vAcc>0.827149</vAcc></extensions></trkpt>
      <trkpt lon="-2.213645" lat="53.114998"><ele>323.971527</ele><time>2022-03-04T12:27:49Z</time><extensions><speed>1.238686</speed><course>60.525700</course><hAcc>1.689672</hAcc><vAcc>0.827188</vAcc></extensions></trkpt>
      <trkpt lon="-2.213630" lat="53.115004"><ele>324.022705</ele><time>2022-03-04T12:27:50Z</time><extensions><speed>1.179378</speed><course>53.484348</course><hAcc>1.687225</hAcc><vAcc>0.827176</vAcc></extensions></trkpt>
      <trkpt lon="-2.213617" lat="53.115011"><ele>324.080872</ele><time>2022-03-04T12:27:51Z</time><extensions><speed>1.157348</speed><course>48.848701</course><hAcc>1.686797</hAcc><vAcc>0.827093</vAcc></extensions></trkpt>
      <trkpt lon="-2.213605" lat="53.115018"><ele>324.142700</ele><time>2022-03-04T12:27:52Z</time><extensions><speed>1.081967</speed><course>42.598103</course><hAcc>1.692698</hAcc><vAcc>0.826994</vAcc></extensions></trkpt>
      <trkpt lon="-2.213594" lat="53.115025"><ele>324.202148</ele><time>2022-03-04T12:27:53Z</time><extensions><speed>1.041973</speed><course>39.658501</course><hAcc>1.686843</hAcc><vAcc>0.826848</vAcc></extensions></trkpt>
      <trkpt lon="-2.213585" lat="53.115032"><ele>324.276428</ele><time>2022-03-04T12:27:54Z</time><extensions><speed>0.994527</speed><course>39.664261</course><hAcc>1.677742</hAcc><vAcc>0.826659</vAcc></extensions></trkpt>
      <trkpt lon="-2.213576" lat="53.115039"><ele>324.375122</ele><time>2022-03-04T12:27:55Z</time><extensions><speed>0.939186</speed><course>39.879360</course><hAcc>1.665079</hAcc><vAcc>0.826464</vAcc></extensions></trkpt>
      <trkpt lon="-2.213566" lat="53.115046"><ele>324.479828</ele><time>2022-03-04T12:27:56Z</time><extensions><speed>0.991001</speed><course>40.129826</course><hAcc>1.653222</hAcc><vAcc>0.826246</vAcc></extensions></trkpt>
      <trkpt lon="-2.213557" lat="53.115053"><ele>324.585022</ele><time>2022-03-04T12:27:57Z</time><extensions><speed>1.026867</speed><course>39.373287</course><hAcc>1.664912</hAcc><vAcc>0.825999</vAcc></extensions></trkpt>
      <trkpt lon="-2.213547" lat="53.115060"><ele>324.685760</ele><time>2022-03-04T12:27:58Z</time><extensions><speed>1.073801</speed><course>34.774658</course><hAcc>1.700358</hAcc><vAcc>0.825739</vAcc></extensions></trkpt>
      <trkpt lon="-2.213539" lat="53.115068"><ele>324.791321</ele><time>2022-03-04T12:27:59Z</time><extensions><speed>1.016201</speed><course>27.146086</course><hAcc>1.667626</hAcc><vAcc>0.825490</vAcc></extensions></trkpt>
      <trkpt lon="-2.213533" lat="53.115076"><ele>324.888885</ele><time>2022-03-04T12:28:00Z</time><extensions><speed>1.002986</speed><course>23.985865</course><hAcc>1.652986</hAcc><vAcc>0.825247</vAcc></extensions></trkpt>
      <trkpt lon="-2.213526" lat="53.115085"><ele>324.980713</ele><time>2022-03-04T12:28:01Z</time><extensions><speed>1.038874</speed><course>23.967020</course><hAcc>1.656623</hAcc><vAcc>0.825034</vAcc></extensions></trkpt>
      <trkpt lon="-2.213520" lat="53.115094"><ele>325.079071</ele><time>2022-03-04T12:28:02Z</time><extensions><speed>1.127534</speed><course>25.183397</course><hAcc>1.671683</hAcc><vAcc>0.824841</vAcc></extensions></trkpt>
      <trkpt lon="-2.213512" lat="53.115103"><ele>325.203094</ele><time>2022-03-04T12:28:03Z</time><extensions><speed>1.155176</speed><course>25.302473</course><hAcc>1.682844</hAcc><vAcc>0.824681</vAcc></extensions></trkpt>
      <trkpt lon="-2.213505" lat="53.115112"><ele>325.323700</ele><time>2022-03-04T12:28:04Z</time><extensions><speed>1.132883</speed><course>26.146851</course><hAcc>1.686618</hAcc><vAcc>0.824555</vAcc></extensions></trkpt>
      <trkpt lon="-2.213497" lat="53.115121"><ele>325.439148</ele><time>2022-03-04T12:28:05Z</time><extensions><speed>1.130141</speed><course>28.805500</course><hAcc>1.686937</hAcc><vAcc>0.824435</vAcc></extensions></trkpt>
      <trkpt lon="-2.213488" lat="53.115129"><ele>325.561646</ele><time>2022-03-04T12:28:06Z</time><extensions><speed>1.066891</speed><course>37.451283</course><hAcc>1.682453</hAcc><vAcc>0.824322</vAcc></extensions></trkpt>
      <trkpt lon="-2.213478" lat="53.115136"><ele>325.681519</ele><time>2022-03-04T12:28:07Z</time><extensions><speed>1.031355</speed><course>48.199505</course><hAcc>1.682370</hAcc><vAcc>0.824236</vAcc></extensions></trkpt>
      <trkpt lon="-2.213466" lat="53.115142"><ele>325.798950</ele><time>2022-03-04T12:28:08Z</time><extensions><speed>1.002049</speed><course>55.394653</course><hAcc>1.690285</hAcc><vAcc>0.824162</vAcc></extensions></trkpt>
      <trkpt lon="-2.213454" lat="53.115146"><ele>325.917480</ele><time>2022-03-04T12:28:09Z</time><extensions><speed>0.952252</speed><course>61.478104</course><hAcc>1.699126</hAcc><vAcc>0.824181</vAcc></extensions></trkpt>
      <trkpt lon="-2.213441" lat="53.115150"><ele>326.035614</ele><time>2022-03-04T12:28:10Z</time><extensions><speed>0.898466</speed><course>65.585281</course><hAcc>1.691110</hAcc><vAcc>0.824187</vAcc></extensions></trkpt>
      <trkpt lon="-2.213430" lat="53.115153"><ele>326.151886</ele><time>2022-03-04T12:28:11Z</time><extensions><speed>0.741584</speed><course>74.969528</course><hAcc>1.688060</hAcc><vAcc>0.824211</vAcc></extensions></trkpt>
      <trkpt lon="-2.213420" lat="53.115154"><ele>326.265564</ele><time>2022-03-04T12:28:12Z</time><extensions><speed>0.544247</speed><course>86.562325</course><hAcc>1.696688</hAcc><vAcc>0.824250</vAcc></extensions></trkpt>
      <trkpt lon="-2.213414" lat="53.115153"><ele>326.343353</ele><time>2022-03-04T12:28:13Z</time><extensions><speed>0.315006</speed><course>103.181747</course><hAcc>1.713054</hAcc><vAcc>0.824324</vAcc></extensions></trkpt>
      <trkpt lon="-2.213411" lat="53.115153"><ele>326.398560</ele><time>2022-03-04T12:28:14Z</time><extensions><speed>0.108732</speed><course>137.878067</course><hAcc>1.704425</hAcc><vAcc>0.824407</vAcc></extensions></trkpt>
      <trkpt lon="-2.213411" lat="53.115152"><ele>326.437469</ele><time>2022-03-04T12:28:15Z</time><extensions><speed>0.071719</speed><course>193.756256</course><hAcc>1.702378</hAcc><vAcc>0.824504</vAcc></extensions></trkpt>
      <trkpt lon="-2.213411" lat="53.115152"><ele>326.473145</ele><time>2022-03-04T12:28:16Z</time><extensions><speed>0.068057</speed><course>220.083267</course><hAcc>1.713029</hAcc><vAcc>0.824575</vAcc></extensions></trkpt>
      <trkpt lon="-2.213412" lat="53.115151"><ele>326.499146</ele><time>2022-03-04T12:28:17Z</time><extensions><speed>0.068811</speed><course>234.673080</course><hAcc>1.701814</hAcc><vAcc>0.824593</vAcc></extensions></trkpt>
      <trkpt lon="-2.213413" lat="53.115151"><ele>326.493378</ele><time>2022-03-04T12:28:18Z</time><extensions><speed>0.061030</speed><course>253.996353</course><hAcc>1.687948</hAcc><vAcc>0.824588</vAcc></extensions></trkpt>
      <trkpt lon="-2.213414" lat="53.115151"><ele>326.461212</ele><time>2022-03-04T12:28:18Z</time><extensions><speed>0.055471</speed><course>280.068390</course><hAcc>1.684629</hAcc><vAcc>0.824508</vAcc></extensions></trkpt>
      <trkpt lon="-2.213415" lat="53.115151"><ele>326.424957</ele><time>2022-03-04T12:28:19Z</time><extensions><speed>0.058343</speed><course>305.473846</course><hAcc>1.701295</hAcc><vAcc>0.824533</vAcc></extensions></trkpt>
      <trkpt lon="-2.213416" lat="53.115152"><ele>326.372925</ele><time>2022-03-04T12:28:20Z</time><extensions><speed>0.076592</speed><course>321.205688</course><hAcc>1.715709</hAcc><vAcc>0.824469</vAcc></extensions></trkpt>
      <trkpt lon="-2.213416" lat="53.115152"><ele>326.301819</ele><time>2022-03-04T12:28:21Z</time><extensions><speed>0.117005</speed><course>327.676666</course><hAcc>1.712554</hAcc><vAcc>0.824140</vAcc></extensions></trkpt>
      <trkpt lon="-2.213418" lat="53.115154"><ele>326.232056</ele><time>2022-03-04T12:28:22Z</time><extensions><speed>0.186929</speed><course>328.873871</course><hAcc>1.692807</hAcc><vAcc>0.823924</vAcc></extensions></trkpt>
      <trkpt lon="-2.213419" lat="53.115155"><ele>326.158173</ele><time>2022-03-04T12:28:23Z</time><extensions><speed>0.225806</speed><course>328.354126</course><hAcc>1.698611</hAcc><vAcc>0.823671</vAcc></extensions></trkpt>
      <trkpt lon="-2.213421" lat="53.115157"><ele>326.083008</ele><time>2022-03-04T12:28:24Z</time><extensions><speed>0.229501</speed><course>328.974365</course><hAcc>1.715078</hAcc><vAcc>0.823408</vAcc></extensions></trkpt>
      <trkpt lon="-2.213423" lat="53.115159"><ele>326.004730</ele><time>2022-03-04T12:28:25Z</time><extensions><speed>0.193307</speed><course>333.960846</course><hAcc>1.723410</hAcc><vAcc>0.823153</vAcc></extensions></trkpt>
      <trkpt lon="-2.213423" lat="53.115160"><ele>325.928192</ele><time>2022-03-04T12:28:26Z</time><extensions><speed>0.103868</speed><course>2.893217</course><hAcc>1.731266</hAcc><vAcc>0.822942</vAcc></extensions></trkpt>
      <trkpt lon="-2.213422" lat="53.115160"><ele>325.856171</ele><time>2022-03-04T12:28:27Z</time><extensions><speed>0.171063</speed><course>102.133514</course><hAcc>1.741014</hAcc><vAcc>0.822787</vAcc></extensions></trkpt>
      <trkpt lon="-2.213420" lat="53.115160"><ele>325.794739</ele><time>2022-03-04T12:28:28Z</time><extensions><speed>0.100431</speed><course>116.395561</course><hAcc>1.745610</hAcc><vAcc>0.822710</vAcc></extensions></trkpt>
      <trkpt lon="-2.213421" lat="53.115160"><ele>325.729980</ele><time>2022-03-04T12:28:29Z</time><extensions><speed>0.194837</speed><course>303.294434</course><hAcc>1.744370</hAcc><vAcc>0.822712</vAcc></extensions></trkpt>
      <trkpt lon="-2.213424" lat="53.115161"><ele>325.677948</ele><time>2022-03-04T12:28:30Z</time><extensions><speed>0.316185</speed><course>295.016785</course><hAcc>1.734276</hAcc><vAcc>0.822856</vAcc></extensions></trkpt>
      <trkpt lon="-2.213429" lat="53.115162"><ele>325.628632</ele><time>2022-03-04T12:28:31Z</time><extensions><speed>0.347257</speed><course>286.515015</course><hAcc>1.729255</hAcc><vAcc>0.823068</vAcc></extensions></trkpt>
      <trkpt lon="-2.213434" lat="53.115163"><ele>325.586029</ele><time>2022-03-04T12:28:32Z</time><extensions><speed>0.335026</speed><course>278.969849</course><hAcc>1.727566</hAcc><vAcc>0.823358</vAcc></extensions></trkpt>
      <trkpt lon="-2.213438" lat="53.115163"><ele>325.549652</ele><time>2022-03-04T12:28:33Z</time><extensions><speed>0.295148</speed><course>273.439575</course><hAcc>1.725975</hAcc><vAcc>0.823726</vAcc></extensions></trkpt>
      <trkpt lon="-2.213442" lat="53.115163"><ele>325.521027</ele><time>2022-03-04T12:28:34Z</time><extensions><speed>0.237082</speed><course>268.687164</course><hAcc>1.728705</hAcc><vAcc>0.824129</vAcc></extensions></trkpt>
      <trkpt lon="-2.213446" lat="53.115163"><ele>325.495514</ele><time>2022-03-04T12:28:35Z</time><extensions><speed>0.180969</speed><course>264.255188</course><hAcc>1.732327</hAcc><vAcc>0.824542</vAcc></extensions></trkpt>
      <trkpt lon="-2.213448" lat="53.115163"><ele>325.468567</ele><time>2022-03-04T12:28:36Z</time><extensions><speed>0.146449</speed><course>260.310669</course><hAcc>1.721788</hAcc><vAcc>0.824924</vAcc></extensions></trkpt>
      <trkpt lon="-2.213450" lat="53.115163"><ele>325.449768</ele><time>2022-03-04T12:28:37Z</time><extensions><speed>0.105178</speed><course>257.109314</course><hAcc>1.713726</hAcc><vAcc>0.825268</vAcc></extensions></trkpt>
      <trkpt lon="-2.213451" lat="53.115163"><ele>325.425995</ele><time>2022-03-04T12:28:38Z</time><extensions><speed>0.060272</speed><course>252.155777</course><hAcc>1.713131</hAcc><vAcc>0.825572</vAcc></extensions></trkpt>
      <trkpt lon="-2.213451" lat="53.115163"><ele>325.409546</ele><time>2022-03-04T12:28:39Z</time><extensions><speed>0.025344</speed><course>222.506531</course><hAcc>1.717485</hAcc><vAcc>0.825834</vAcc></extensions></trkpt>
      <trkpt lon="-2.213451" lat="53.115162"><ele>325.394043</ele><time>2022-03-04T12:28:40Z</time><extensions><speed>0.022720</speed><course>114.932777</course><hAcc>1.726499</hAcc><vAcc>0.826079</vAcc></extensions></trkpt>
      <trkpt lon="-2.213450" lat="53.115163"><ele>325.384796</ele><time>2022-03-04T12:28:41Z</time><extensions><speed>0.069959</speed><course>75.569580</course><hAcc>1.717852</hAcc><vAcc>0.826274</vAcc></extensions></trkpt>
      <trkpt lon="-2.213448" lat="53.115163"><ele>325.379181</ele><time>2022-03-04T12:28:42Z</time><extensions><speed>0.139631</speed><course>65.349831</course><hAcc>1.707904</hAcc><vAcc>0.826416</vAcc></extensions></trkpt>
      <trkpt lon="-2.213446" lat="53.115164"><ele>325.374268</ele><time>2022-03-04T12:28:43Z</time><extensions><speed>0.229779</speed><course>62.340012</course><hAcc>1.704206</hAcc><vAcc>0.826530</vAcc></extensions></trkpt>
      <trkpt lon="-2.213442" lat="53.115165"><ele>325.369385</ele><time>2022-03-04T12:28:44Z</time><extensions><speed>0.332968</speed><course>62.482628</course><hAcc>1.713814</hAcc><vAcc>0.826612</vAcc></extensions></trkpt>
      <trkpt lon="-2.213436" lat="53.115167"><ele>325.378448</ele><time>2022-03-04T12:28:45Z</time><extensions><speed>0.429904</speed><course>63.415733</course><hAcc>1.732035</hAcc><vAcc>0.826658</vAcc></extensions></trkpt>
      <trkpt lon="-2.213429" lat="53.115169"><ele>325.389435</ele><time>2022-03-04T12:28:46Z</time><extensions><speed>0.659964</speed><course>63.759983</course><hAcc>1.717345</hAcc><vAcc>0.826692</vAcc></extensions></trkpt>
      <trkpt lon="-2.213419" lat="53.115172"><ele>325.398285</ele><time>2022-03-04T12:28:47Z</time><extensions><speed>0.840761</speed><course>63.460354</course><hAcc>1.710454</hAcc><vAcc>0.826708</vAcc></extensions></trkpt>
      <trkpt lon="-2.213406" lat="53.115176"><ele>325.412659</ele><time>2022-03-04T12:28:48Z</time><extensions><speed>0.950277</speed><course>62.998219</course><hAcc>1.716448</hAcc><vAcc>0.826734</vAcc></extensions></trkpt>
      <trkpt lon="-2.213393" lat="53.115180"><ele>325.426880</ele><time>2022-03-04T12:28:49Z</time><extensions><speed>1.021164</speed><course>62.453148</course><hAcc>1.723423</hAcc><vAcc>0.826744</vAcc></extensions></trkpt>
      <trkpt lon="-2.213380" lat="53.115184"><ele>325.441437</ele><time>2022-03-04T12:28:50Z</time><extensions><speed>1.060000</speed><course>61.842228</course><hAcc>1.728069</hAcc><vAcc>0.826739</vAcc></extensions></trkpt>
      <trkpt lon="-2.213366" lat="53.115189"><ele>325.458984</ele><time>2022-03-04T12:28:51Z</time><extensions><speed>1.073547</speed><course>61.505032</course><hAcc>1.730671</hAcc><vAcc>0.826729</vAcc></extensions></trkpt>
      <trkpt lon="-2.213351" lat="53.115193"><ele>325.485809</ele><time>2022-03-04T12:28:52Z</time><extensions><speed>1.068353</speed><course>61.799332</course><hAcc>1.732992</hAcc><vAcc>0.826683</vAcc></extensions></trkpt>
      <trkpt lon="-2.213338" lat="53.115198"><ele>325.522675</ele><time>2022-03-04T12:28:53Z</time><extensions><speed>1.031562</speed><course>62.629219</course><hAcc>1.735551</hAcc><vAcc>0.826668</vAcc></extensions></trkpt>
      <trkpt lon="-2.213324" lat="53.115202"><ele>325.562866</ele><time>2022-03-04T12:28:54Z</time><extensions><speed>0.962266</speed><course>63.757416</course><hAcc>1.735561</hAcc><vAcc>0.826648</vAcc></extensions></trkpt>
      <trkpt lon="-2.213312" lat="53.115205"><ele>325.614532</ele><time>2022-03-04T12:28:55Z</time><extensions><speed>0.844089</speed><course>65.497200</course><hAcc>1.734330</hAcc><vAcc>0.826635</vAcc></extensions></trkpt>
      <trkpt lon="-2.213302" lat="53.115208"><ele>325.668610</ele><time>2022-03-04T12:28:56Z</time><extensions><speed>0.671813</speed><course>68.236824</course><hAcc>1.734700</hAcc><vAcc>0.826624</vAcc></extensions></trkpt>
      <trkpt lon="-2.213294" lat="53.115209"><ele>325.726471</ele><time>2022-03-04T12:28:57Z</time><extensions><speed>0.467158</speed><course>72.143585</course><hAcc>1.735682</hAcc><vAcc>0.826622</vAcc></extensions></trkpt>
      <trkpt lon="-2.213289" lat="53.115210"><ele>325.790253</ele><time>2022-03-04T12:28:58Z</time><extensions><speed>0.261238</speed><course>79.048332</course><hAcc>1.735557</hAcc><vAcc>0.826611</vAcc></extensions></trkpt>
      <trkpt lon="-2.213286" lat="53.115210"><ele>325.863953</ele><time>2022-03-04T12:28:59Z</time><extensions><speed>0.088862</speed><course>111.463516</course><hAcc>1.737287</hAcc><vAcc>0.826641</vAcc></extensions></trkpt>
      <trkpt lon="-2.213286" lat="53.115210"><ele>325.947144</ele><time>2022-03-04T12:29:00Z</time><extensions><speed>0.126315</speed><course>204.684967</course><hAcc>1.738151</hAcc><vAcc>0.826651</vAcc></extensions></trkpt>
      <trkpt lon="-2.213288" lat="53.115208"><ele>326.046875</ele><time>2022-03-04T12:29:01Z</time><extensions><speed>0.264596</speed><course>216.007217</course><hAcc>1.736537</hAcc><vAcc>0.826658</vAcc></extensions></trkpt>
      <trkpt lon="-2.213291" lat="53.115206"><ele>326.143860</ele><time>2022-03-04T12:29:02Z</time><extensions><speed>0.411894</speed><course>214.276962</course><hAcc>1.732126</hAcc><vAcc>0.826678</vAcc></extensions></trkpt>
      <trkpt lon="-2.213294" lat="53.115202"><ele>326.241089</ele><time>2022-03-04T12:29:03Z</time><extensions><speed>0.589042</speed><course>207.354889</course><hAcc>1.718406</hAcc><vAcc>0.826718</vAcc></extensions></trkpt>
      <trkpt lon="-2.213298" lat="53.115196"><ele>326.341187</ele><time>2022-03-04T12:29:04Z</time><extensions><speed>0.888202</speed><course>198.214859</course><hAcc>1.695674</hAcc><vAcc>0.826760</vAcc></extensions></trkpt>
      <trkpt lon="-2.213302" lat="53.115187"><ele>326.441772</ele><time>2022-03-04T12:29:05Z</time><extensions><speed>1.039916</speed><course>189.733841</course><hAcc>1.703672</hAcc><vAcc>0.826787</vAcc></extensions></trkpt>
      <trkpt lon="-2.213303" lat="53.115178"><ele>326.541382</ele><time>2022-03-04T12:29:06Z</time><extensions><speed>1.106172</speed><course>180.975403</course><hAcc>1.699962</hAcc><vAcc>0.826799</vAcc></extensions></trkpt>
      <trkpt lon="-2.213303" lat="53.115168"><ele>326.638947</ele><time>2022-03-04T12:29:07Z</time><extensions><speed>1.092586</speed><course>176.114014</course><hAcc>1.690434</hAcc><vAcc>0.826820</vAcc></extensions></trkpt>
      <trkpt lon="-2.213302" lat="53.115158"><ele>326.721344</ele><time>2022-03-04T12:29:08Z</time><extensions><speed>1.034858</speed><course>178.827637</course><hAcc>1.681823</hAcc><vAcc>0.826827</vAcc></extensions></trkpt>
      <trkpt lon="-2.213302" lat="53.115150"><ele>326.797089</ele><time>2022-03-04T12:29:09Z</time><extensions><speed>0.837335</speed><course>185.543488</course><hAcc>1.685301</hAcc><vAcc>0.826788</vAcc></extensions></trkpt>
      <trkpt lon="-2.213303" lat="53.115144"><ele>326.859467</ele><time>2022-03-04T12:29:10Z</time><extensions><speed>0.534922</speed><course>185.078629</course><hAcc>1.680452</hAcc><vAcc>0.826737</vAcc></extensions></trkpt>
      <trkpt lon="-2.213303" lat="53.115141"><ele>326.912750</ele><time>2022-03-04T12:29:11Z</time><extensions><speed>0.161240</speed><course>162.816879</course><hAcc>1.681595</hAcc><vAcc>0.826644</vAcc></extensions></trkpt>
      <trkpt lon="-2.213302" lat="53.115140"><ele>326.956238</ele><time>2022-03-04T12:29:12Z</time><extensions><speed>0.097883</speed><course>91.245193</course><hAcc>1.668385</hAcc><vAcc>0.826525</vAcc></extensions></trkpt>
      <trkpt lon="-2.213300" lat="53.115140"><ele>326.989746</ele><time>2022-03-04T12:29:13Z</time><extensions><speed>0.125075</speed><course>63.949528</course><hAcc>1.665304</hAcc><vAcc>0.826380</vAcc></extensions></trkpt>
      <trkpt lon="-2.213299" lat="53.115141"><ele>327.013428</ele><time>2022-03-04T12:29:14Z</time><extensions><speed>0.120978</speed><course>58.724522</course><hAcc>1.684534</hAcc><vAcc>0.826221</vAcc></extensions></trkpt>
      <trkpt lon="-2.213298" lat="53.115141"><ele>327.027740</ele><time>2022-03-04T12:29:15Z</time><extensions><speed>0.089146</speed><course>59.639118</course><hAcc>1.721168</hAcc><vAcc>0.826055</vAcc></extensions></trkpt>
      <trkpt lon="-2.213296" lat="53.115142"><ele>327.033356</ele><time>2022-03-04T12:29:16Z</time><extensions><speed>0.093981</speed><course>63.843384</course><hAcc>1.713293</hAcc><vAcc>0.825886</vAcc></extensions></trkpt>
      <trkpt lon="-2.213295" lat="53.115142"><ele>326.998993</ele><time>2022-03-04T12:29:17Z</time><extensions><speed>0.104394</speed><course>68.123039</course><hAcc>1.693225</hAcc><vAcc>0.825750</vAcc></extensions></trkpt>
      <trkpt lon="-2.213294" lat="53.115142"><ele>326.953461</ele><time>2022-03-04T12:29:18Z</time><extensions><speed>0.090103</speed><course>70.890213</course><hAcc>1.691057</hAcc><vAcc>0.825611</vAcc></extensions></trkpt>
      <trkpt lon="-2.213293" lat="53.115143"><ele>326.893402</ele><time>2022-03-04T12:29:19Z</time><extensions><speed>0.056113</speed><course>73.369484</course><hAcc>1.694486</hAcc><vAcc>0.825480</vAcc></extensions></trkpt>
      <trkpt lon="-2.213292" lat="53.115143"><ele>326.826508</ele><time>2022-03-04T12:29:20Z</time><extensions><speed>0.028450</speed><course>79.742073</course><hAcc>1.689155</hAcc><vAcc>0.825385</vAcc></extensions></trkpt>
      <trkpt lon="-2.213291" lat="53.115143"><ele>326.760315</ele><time>2022-03-04T12:29:21Z</time><extensions><speed>0.014791</speed><course>93.376389</course><hAcc>1.684518</hAcc><vAcc>0.825313</vAcc></extensions></trkpt>
      <trkpt lon="-2.213291" lat="53.115143"><ele>326.683380</ele><time>2022-03-04T12:29:22Z</time><extensions><speed>0.009336</speed><course>102.762550</course><hAcc>1.680486</hAcc><vAcc>0.825248</vAcc></extensions></trkpt>
      <trkpt lon="-2.213291" lat="53.115143"><ele>326.602295</ele><time>2022-03-04T12:29:23Z</time><extensions><speed>0.008683</speed><course>94.471642</course><hAcc>1.670764</hAcc><vAcc>0.825147</vAcc></extensions></trkpt>
      <trkpt lon="-2.213291" lat="53.115143"><ele>326.528107</ele><time>2022-03-04T12:29:24Z</time><extensions><speed>0.010253</speed><course>79.801910</course><hAcc>1.691775</hAcc><vAcc>0.824951</vAcc></extensions></trkpt>
      <trkpt lon="-2.213291" lat="53.115143"><ele>326.453400</ele><time>2022-03-04T12:29:25Z</time><extensions><speed>0.019905</speed><course>65.385208</course><hAcc>1.695924</hAcc><vAcc>0.824888</vAcc></extensions></trkpt>
      <trkpt lon="-2.213290" lat="53.115143"><ele>326.389343</ele><time>2022-03-04T12:29:26Z</time><extensions><speed>0.044273</speed><course>56.321461</course><hAcc>1.685901</hAcc><vAcc>0.824811</vAcc></extensions></trkpt>
      <trkpt lon="-2.213289" lat="53.115144"><ele>326.321625</ele><time>2022-03-04T12:29:27Z</time><extensions><speed>0.091553</speed><course>48.995697</course><hAcc>1.677876</hAcc><vAcc>0.824685</vAcc></extensions></trkpt>
      <trkpt lon="-2.213288" lat="53.115144"><ele>326.266052</ele><time>2022-03-04T12:29:28Z</time><extensions><speed>0.149291</speed><course>43.327213</course><hAcc>1.692689</hAcc><vAcc>0.824590</vAcc></extensions></trkpt>
      <trkpt lon="-2.213286" lat="53.115145"><ele>326.211243</ele><time>2022-03-04T12:29:29Z</time><extensions><speed>0.203561</speed><course>38.417576</course><hAcc>1.715600</hAcc><vAcc>0.824503</vAcc></extensions></trkpt>
      <trkpt lon="-2.213285" lat="53.115147"><ele>326.162109</ele><time>2022-03-04T12:29:30Z</time><extensions><speed>0.237913</speed><course>33.881092</course><hAcc>1.735899</hAcc><vAcc>0.824418</vAcc></extensions></trkpt>
      <trkpt lon="-2.213283" lat="53.115149"><ele>326.128754</ele><time>2022-03-04T12:29:32Z</time><extensions><speed>0.255179</speed><course>29.349173</course><hAcc>1.747613</hAcc><vAcc>0.824341</vAcc></extensions></trkpt>
      <trkpt lon="-2.213281" lat="53.115151"><ele>326.104218</ele><time>2022-03-04T12:29:33Z</time><extensions><speed>0.251998</speed><course>26.636736</course><hAcc>1.752433</hAcc><vAcc>0.824259</vAcc></extensions></trkpt>
      <trkpt lon="-2.213279" lat="53.115153"><ele>326.086426</ele><time>2022-03-04T12:29:34Z</time><extensions><speed>0.219943</speed><course>27.042173</course><hAcc>1.754433</hAcc><vAcc>0.824213</vAcc></extensions></trkpt>
      <trkpt lon="-2.213278" lat="53.115154"><ele>326.079529</ele><time>2022-03-04T12:29:35Z</time><extensions><speed>0.158325</speed><course>26.615749</course><hAcc>1.757222</hAcc><vAcc>0.824213</vAcc></extensions></trkpt>
      <trkpt lon="-2.213277" lat="53.115155"><ele>326.080078</ele><time>2022-03-04T12:29:36Z</time><extensions><speed>0.072238</speed><course>11.702850</course><hAcc>1.760321</hAcc><vAcc>0.824247</vAcc></extensions></trkpt>
      <trkpt lon="-2.213278" lat="53.115155"><ele>326.093140</ele><time>2022-03-04T12:29:37Z</time><extensions><speed>0.058668</speed><course>259.513672</course><hAcc>1.760844</hAcc><vAcc>0.824332</vAcc></extensions></trkpt>
      <trkpt lon="-2.213279" lat="53.115155"><ele>326.109375</ele><time>2022-03-04T12:29:38Z</time><extensions><speed>0.145021</speed><course>232.761719</course><hAcc>1.760219</hAcc><vAcc>0.824478</vAcc></extensions></trkpt>
      <trkpt lon="-2.213281" lat="53.115154"><ele>326.126434</ele><time>2022-03-04T12:29:39Z</time><extensions><speed>0.207227</speed><course>224.136063</course><hAcc>1.759001</hAcc><vAcc>0.824660</vAcc></extensions></trkpt>
      <trkpt lon="-2.213283" lat="53.115153"><ele>326.147736</ele><time>2022-03-04T12:29:40Z</time><extensions><speed>0.237723</speed><course>217.431442</course><hAcc>1.756374</hAcc><vAcc>0.824859</vAcc></extensions></trkpt>
      <trkpt lon="-2.213285" lat="53.115151"><ele>326.177216</ele><time>2022-03-04T12:29:41Z</time><extensions><speed>0.222789</speed><course>206.993103</course><hAcc>1.754904</hAcc><vAcc>0.825040</vAcc></extensions></trkpt>
      <trkpt lon="-2.213286" lat="53.115149"><ele>326.206726</ele><time>2022-03-04T12:29:42Z</time><extensions><speed>0.165500</speed><course>184.688034</course><hAcc>1.754581</hAcc><vAcc>0.825241</vAcc></extensions></trkpt>
      <trkpt lon="-2.213285" lat="53.115148"><ele>326.247467</ele><time>2022-03-04T12:29:43Z</time><extensions><speed>0.136373</speed><course>136.410873</course><hAcc>1.752766</hAcc><vAcc>0.825436</vAcc></extensions></trkpt>
      <trkpt lon="-2.213283" lat="53.115147"><ele>326.295380</ele><time>2022-03-04T12:29:44Z</time><extensions><speed>0.187137</speed><course>97.451630</course><hAcc>1.751352</hAcc><vAcc>0.825616</vAcc></extensions></trkpt>
      <trkpt lon="-2.213280" lat="53.115148"><ele>326.335388</ele><time>2022-03-04T12:29:45Z</time><extensions><speed>0.245216</speed><course>79.957512</course><hAcc>1.752783</hAcc><vAcc>0.825786</vAcc></extensions></trkpt>
      <trkpt lon="-2.213276" lat="53.115148"><ele>326.372009</ele><time>2022-03-04T12:29:46Z</time><extensions><speed>0.282924</speed><course>70.288094</course><hAcc>1.752665</hAcc><vAcc>0.825952</vAcc></extensions></trkpt>
      <trkpt lon="-2.213272" lat="53.115149"><ele>326.411957</ele><time>2022-03-04T12:29:47Z</time><extensions><speed>0.289835</speed><course>63.313816</course><hAcc>1.753083</hAcc><vAcc>0.826093</vAcc></extensions></trkpt>
      <trkpt lon="-2.213268" lat="53.115150"><ele>326.451660</ele><time>2022-03-04T12:29:48Z</time><extensions><speed>0.272181</speed><course>59.146500</course><hAcc>1.752345</hAcc><vAcc>0.826188</vAcc></extensions></trkpt>
      <trkpt lon="-2.213265" lat="53.115152"><ele>326.490143</ele><time>2022-03-04T12:29:49Z</time><extensions><speed>0.226696</speed><course>57.939907</course><hAcc>1.754089</hAcc><vAcc>0.826232</vAcc></extensions></trkpt>
      <trkpt lon="-2.213262" lat="53.115153"><ele>326.527130</ele><time>2022-03-04T12:29:50Z</time><extensions><speed>0.183369</speed><course>57.694473</course><hAcc>1.756626</hAcc><vAcc>0.826236</vAcc></extensions></trkpt>
      <trkpt lon="-2.213260" lat="53.115153"><ele>326.562286</ele><time>2022-03-04T12:29:51Z</time><extensions><speed>0.160372</speed><course>56.043575</course><hAcc>1.759660</hAcc><vAcc>0.826194</vAcc></extensions></trkpt>
      <trkpt lon="-2.213258" lat="53.115154"><ele>326.595184</ele><time>2022-03-04T12:29:52Z</time><extensions><speed>0.165740</speed><course>51.381531</course><hAcc>1.758661</hAcc><vAcc>0.826106</vAcc></extensions></trkpt>
      <trkpt lon="-2.213256" lat="53.115155"><ele>326.625458</ele><time>2022-03-04T12:29:53Z</time><extensions><speed>0.185062</speed><course>43.248131</course><hAcc>1.758006</hAcc><vAcc>0.825958</vAcc></extensions></trkpt>
      <trkpt lon="-2.213255" lat="53.115157"><ele>326.652832</ele><time>2022-03-04T12:29:54Z</time><extensions><speed>0.203798</speed><course>35.068035</course><hAcc>1.757308</hAcc><vAcc>0.825754</vAcc></extensions></trkpt>
      <trkpt lon="-2.213253" lat="53.115158"><ele>326.677124</ele><time>2022-03-04T12:29:55Z</time><extensions><speed>0.199605</speed><course>30.825014</course><hAcc>1.754072</hAcc><vAcc>0.825493</vAcc></extensions></trkpt>
      <trkpt lon="-2.213252" lat="53.115160"><ele>326.703918</ele><time>2022-03-04T12:29:56Z</time><extensions><speed>0.164125</speed><course>26.473372</course><hAcc>1.750133</hAcc><vAcc>0.825219</vAcc></extensions></trkpt>
      <trkpt lon="-2.213251" lat="53.115161"><ele>326.725006</ele><time>2022-03-04T12:29:57Z</time><extensions><speed>0.123213</speed><course>19.457912</course><hAcc>1.745383</hAcc><vAcc>0.824947</vAcc></extensions></trkpt>
      <trkpt lon="-2.213251" lat="53.115162"><ele>326.753510</ele><time>2022-03-04T12:29:58Z</time><extensions><speed>0.096234</speed><course>7.521930</course><hAcc>1.734959</hAcc><vAcc>0.824624</vAcc></extensions></trkpt>
      <trkpt lon="-2.213251" lat="53.115163"><ele>326.760895</ele><time>2022-03-04T12:29:59Z</time><extensions><speed>0.085813</speed><course>350.189392</course><hAcc>1.720893</hAcc><vAcc>0.824299</vAcc></extensions></trkpt>
      <trkpt lon="-2.213251" lat="53.115164"><ele>326.774811</ele><time>2022-03-04T12:30:00Z</time><extensions><speed>0.095353</speed><course>334.199341</course><hAcc>1.707191</hAcc><vAcc>0.823991</vAcc></extensions></trkpt>
      <trkpt lon="-2.213252" lat="53.115165"><ele>326.787140</ele><time>2022-03-04T12:30:01Z</time><extensions><speed>0.119254</speed><course>325.838257</course><hAcc>1.696623</hAcc><vAcc>0.823741</vAcc></extensions></trkpt>
      <trkpt lon="-2.213253" lat="53.115166"><ele>326.796844</ele><time>2022-03-04T12:30:02Z</time><extensions><speed>0.146638</speed><course>323.367249</course><hAcc>1.698717</hAcc><vAcc>0.823509</vAcc></extensions></trkpt>
      <trkpt lon="-2.213255" lat="53.115167"><ele>326.815582</ele><time>2022-03-04T12:30:03Z</time><extensions><speed>0.191531</speed><course>322.857300</course><hAcc>1.704296</hAcc><vAcc>0.823373</vAcc></extensions></trkpt>
      <trkpt lon="-2.213257" lat="53.115169"><ele>326.824829</ele><time>2022-03-04T12:30:04Z</time><extensions><speed>0.256444</speed><course>324.219452</course><hAcc>1.711692</hAcc><vAcc>0.823304</vAcc></extensions></trkpt>
      <trkpt lon="-2.213259" lat="53.115171"><ele>326.836609</ele><time>2022-03-04T12:30:05Z</time><extensions><speed>0.396414</speed><course>327.173126</course><hAcc>1.700655</hAcc><vAcc>0.823292</vAcc></extensions></trkpt>
      <trkpt lon="-2.213263" lat="53.115175"><ele>326.845551</ele><time>2022-03-04T12:30:06Z</time><extensions><speed>0.547855</speed><course>332.269958</course><hAcc>1.692433</hAcc><vAcc>0.823333</vAcc></extensions></trkpt>
      <trkpt lon="-2.213266" lat="53.115180"><ele>326.857819</ele><time>2022-03-04T12:30:07Z</time><extensions><speed>0.612809</speed><course>338.230408</course><hAcc>1.706266</hAcc><vAcc>0.823416</vAcc></extensions></trkpt>
      <trkpt lon="-2.213269" lat="53.115185"><ele>326.862122</ele><time>2022-03-04T12:30:08Z</time><extensions><speed>0.645759</speed><course>344.380127</course><hAcc>1.718580</hAcc><vAcc>0.823322</vAcc></extensions></trkpt>
      <trkpt lon="-2.213271" lat="53.115191"><ele>326.856445</ele><time>2022-03-04T12:30:09Z</time><extensions><speed>0.663536</speed><course>352.255890</course><hAcc>1.719156</hAcc><vAcc>0.822805</vAcc></extensions></trkpt>
      <trkpt lon="-2.213272" lat="53.115197"><ele>326.853119</ele><time>2022-03-04T12:30:10Z</time><extensions><speed>0.643448</speed><course>2.179660</course><hAcc>1.714453</hAcc><vAcc>0.822626</vAcc></extensions></trkpt>
      <trkpt lon="-2.213271" lat="53.115202"><ele>326.849091</ele><time>2022-03-04T12:30:11Z</time><extensions><speed>0.582367</speed><course>12.417130</course><hAcc>1.706284</hAcc><vAcc>0.822436</vAcc></extensions></trkpt>
      <trkpt lon="-2.213268" lat="53.115207"><ele>326.844543</ele><time>2022-03-04T12:30:12Z</time><extensions><speed>0.482241</speed><course>21.242785</course><hAcc>1.703972</hAcc><vAcc>0.822211</vAcc></extensions></trkpt>
      <trkpt lon="-2.213266" lat="53.115210"><ele>326.833649</ele><time>2022-03-04T12:30:13Z</time><extensions><speed>0.322214</speed><course>30.324877</course><hAcc>1.719476</hAcc><vAcc>0.821943</vAcc></extensions></trkpt>
      <trkpt lon="-2.213263" lat="53.115213"><ele>326.813782</ele><time>2022-03-04T12:30:14Z</time><extensions><speed>0.300854</speed><course>38.602173</course><hAcc>1.702293</hAcc><vAcc>0.821647</vAcc></extensions></trkpt>
      <trkpt lon="-2.213260" lat="53.115215"><ele>326.793488</ele><time>2022-03-04T12:30:15Z</time><extensions><speed>0.284092</speed><course>41.250599</course><hAcc>1.690960</hAcc><vAcc>0.821326</vAcc></extensions></trkpt>
      <trkpt lon="-2.213258" lat="53.115217"><ele>326.763367</ele><time>2022-03-04T12:30:16Z</time><extensions><speed>0.268925</speed><course>38.205624</course><hAcc>1.693572</hAcc><vAcc>0.821011</vAcc></extensions></trkpt>
      <trkpt lon="-2.213255" lat="53.115219"><ele>326.731018</ele><time>2022-03-04T12:30:17Z</time><extensions><speed>0.272871</speed><course>32.996613</course><hAcc>1.696686</hAcc><vAcc>0.820750</vAcc></extensions></trkpt>
      <trkpt lon="-2.213253" lat="53.115221"><ele>326.695831</ele><time>2022-03-04T12:30:18Z</time><extensions><speed>0.287587</speed><course>27.927607</course><hAcc>1.695908</hAcc><vAcc>0.820597</vAcc></extensions></trkpt>
      <trkpt lon="-2.213251" lat="53.115223"><ele>326.658356</ele><time>2022-03-04T12:30:19Z</time><extensions><speed>0.312713</speed><course>21.956852</course><hAcc>1.689965</hAcc><vAcc>0.820617</vAcc></extensions></trkpt>
      <trkpt lon="-2.213250" lat="53.115226"><ele>326.619232</ele><time>2022-03-04T12:30:20Z</time><extensions><speed>0.282767</speed><course>14.927877</course><hAcc>1.694463</hAcc><vAcc>0.820828</vAcc></extensions></trkpt>
      <trkpt lon="-2.213249" lat="53.115228"><ele>326.578979</ele><time>2022-03-04T12:30:20Z</time><extensions><speed>0.232907</speed><course>9.150722</course><hAcc>1.689828</hAcc><vAcc>0.821204</vAcc></extensions></trkpt>
      <trkpt lon="-2.213249" lat="53.115230"><ele>326.538177</ele><time>2022-03-04T12:30:21Z</time><extensions><speed>0.160906</speed><course>7.783537</course><hAcc>1.680796</hAcc><vAcc>0.821692</vAcc></extensions></trkpt>
      <trkpt lon="-2.213248" lat="53.115231"><ele>326.505829</ele><time>2022-03-04T12:30:22Z</time><extensions><speed>0.085137</speed><course>17.303251</course><hAcc>1.671964</hAcc><vAcc>0.822246</vAcc></extensions></trkpt>
      <trkpt lon="-2.213248" lat="53.115231"><ele>326.470886</ele><time>2022-03-04T12:30:23Z</time><extensions><speed>0.037490</speed><course>59.660992</course><hAcc>1.669470</hAcc><vAcc>0.822829</vAcc></extensions></trkpt>
      <trkpt lon="-2.213247" lat="53.115231"><ele>326.435883</ele><time>2022-03-04T12:30:24Z</time><extensions><speed>0.037210</speed><course>123.421844</course><hAcc>1.677833</hAcc><vAcc>0.823379</vAcc></extensions></trkpt>
      <trkpt lon="-2.213247" lat="53.115231"><ele>326.404785</ele><time>2022-03-04T12:30:25Z</time><extensions><speed>0.057547</speed><course>142.707062</course><hAcc>1.665441</hAcc><vAcc>0.823887</vAcc></extensions></trkpt>
      <trkpt lon="-2.213246" lat="53.115230"><ele>326.378265</ele><time>2022-03-04T12:30:26Z</time><extensions><speed>0.070725</speed><course>146.315277</course><hAcc>1.657959</hAcc><vAcc>0.824371</vAcc></extensions></trkpt>
      <trkpt lon="-2.213245" lat="53.115230"><ele>326.360657</ele><time>2022-03-04T12:30:27Z</time><extensions><speed>0.077827</speed><course>146.238647</course><hAcc>1.658472</hAcc><vAcc>0.824794</vAcc></extensions></trkpt>
      <trkpt lon="-2.213245" lat="53.115229"><ele>326.352356</ele><time>2022-03-04T12:30:28Z</time><extensions><speed>0.087173</speed><course>144.909988</course><hAcc>1.660921</hAcc><vAcc>0.825145</vAcc></extensions></trkpt>
      <trkpt lon="-2.213244" lat="53.115228"><ele>326.341522</ele><time>2022-03-04T12:30:29Z</time><extensions><speed>0.103991</speed><course>143.882309</course><hAcc>1.661084</hAcc><vAcc>0.825463</vAcc></extensions></trkpt>
      <trkpt lon="-2.213243" lat="53.115227"><ele>326.343262</ele><time>2022-03-04T12:30:30Z</time><extensions><speed>0.125840</speed><course>143.424911</course><hAcc>1.664695</hAcc><vAcc>0.825724</vAcc></extensions></trkpt>
      <trkpt lon="-2.213241" lat="53.115226"><ele>326.351746</ele><time>2022-03-04T12:30:31Z</time><extensions><speed>0.151230</speed><course>143.849319</course><hAcc>1.671011</hAcc><vAcc>0.825943</vAcc></extensions></trkpt>
      <trkpt lon="-2.213240" lat="53.115225"><ele>326.370575</ele><time>2022-03-04T12:30:32Z</time><extensions><speed>0.179388</speed><course>146.012070</course><hAcc>1.673984</hAcc><vAcc>0.826130</vAcc></extensions></trkpt>
      <trkpt lon="-2.213238" lat="53.115224"><ele>326.392670</ele><time>2022-03-04T12:30:33Z</time><extensions><speed>0.213448</speed><course>148.454330</course><hAcc>1.675240</hAcc><vAcc>0.826292</vAcc></extensions></trkpt>
      <trkpt lon="-2.213236" lat="53.115222"><ele>326.430145</ele><time>2022-03-04T12:30:34Z</time><extensions><speed>0.259468</speed><course>148.241333</course><hAcc>1.678114</hAcc><vAcc>0.826428</vAcc></extensions></trkpt>
      <trkpt lon="-2.213234" lat="53.115220"><ele>326.470123</ele><time>2022-03-04T12:30:35Z</time><extensions><speed>0.308620</speed><course>144.626221</course><hAcc>1.685749</hAcc><vAcc>0.826551</vAcc></extensions></trkpt>
      <trkpt lon="-2.213231" lat="53.115217"><ele>326.530090</ele><time>2022-03-04T12:30:36Z</time><extensions><speed>0.354541</speed><course>138.231171</course><hAcc>1.699325</hAcc><vAcc>0.826649</vAcc></extensions></trkpt>
      <trkpt lon="-2.213227" lat="53.115215"><ele>326.599274</ele><time>2022-03-04T12:30:37Z</time><extensions><speed>0.451830</speed><course>131.033218</course><hAcc>1.704620</hAcc><vAcc>0.826728</vAcc></extensions></trkpt>
      <trkpt lon="-2.213220" lat="53.115212"><ele>326.674133</ele><time>2022-03-04T12:30:38Z</time><extensions><speed>0.685432</speed><course>125.883987</course><hAcc>1.698432</hAcc><vAcc>0.826821</vAcc></extensions></trkpt>
      <trkpt lon="-2.213211" lat="53.115208"><ele>326.751587</ele><time>2022-03-04T12:30:39Z</time><extensions><speed>0.793527</speed><course>121.965836</course><hAcc>1.711759</hAcc><vAcc>0.826881</vAcc></extensions></trkpt>
      <trkpt lon="-2.213200" lat="53.115204"><ele>326.859375</ele><time>2022-03-04T12:30:40Z</time><extensions><speed>0.857047</speed><course>119.025230</course><hAcc>1.722367</hAcc><vAcc>0.826939</vAcc></extensions></trkpt>
      <trkpt lon="-2.213188" lat="53.115201"><ele>326.983734</ele><time>2022-03-04T12:30:41Z</time><extensions><speed>0.928513</speed><course>115.976425</course><hAcc>1.727434</hAcc><vAcc>0.826979</vAcc></extensions></trkpt>
      <trkpt lon="-2.213175" lat="53.115197"><ele>327.118713</ele><time>2022-03-04T12:30:42Z</time><extensions><speed>1.066533</speed><course>113.218346</course><hAcc>1.730774</hAcc><vAcc>0.827003</vAcc></extensions></trkpt>
      <trkpt lon="-2.213159" lat="53.115193"><ele>327.269806</ele><time>2022-03-04T12:30:43Z</time><extensions><speed>1.193386</speed><course>110.468887</course><hAcc>1.735864</hAcc><vAcc>0.827025</vAcc></extensions></trkpt>
      <trkpt lon="-2.213142" lat="53.115190"><ele>327.416077</ele><time>2022-03-04T12:30:44Z</time><extensions><speed>1.164492</speed><course>104.731659</course><hAcc>1.737313</hAcc><vAcc>0.827054</vAcc></extensions></trkpt>
      <trkpt lon="-2.213126" lat="53.115188"><ele>327.577209</ele><time>2022-03-04T12:30:45Z</time><extensions><speed>1.078187</speed><course>99.609825</course><hAcc>1.734793</hAcc><vAcc>0.827099</vAcc></extensions></trkpt>
      <trkpt lon="-2.213111" lat="53.115186"><ele>327.761597</ele><time>2022-03-04T12:30:46Z</time><extensions><speed>0.913133</speed><course>100.220062</course><hAcc>1.738120</hAcc><vAcc>0.827199</vAcc></extensions></trkpt>
      <trkpt lon="-2.213099" lat="53.115185"><ele>327.926300</ele><time>2022-03-04T12:30:47Z</time><extensions><speed>0.814941</speed><course>103.943764</course><hAcc>1.739641</hAcc><vAcc>0.827296</vAcc></extensions></trkpt>
      <trkpt lon="-2.213088" lat="53.115183"><ele>328.118744</ele><time>2022-03-04T12:30:48Z</time><extensions><speed>0.641324</speed><course>108.712814</course><hAcc>1.736303</hAcc><vAcc>0.827408</vAcc></extensions></trkpt>
      <trkpt lon="-2.213080" lat="53.115181"><ele>328.312714</ele><time>2022-03-04T12:30:49Z</time><extensions><speed>0.588868</speed><course>114.427994</course><hAcc>1.730603</hAcc><vAcc>0.827537</vAcc></extensions></trkpt>
      <trkpt lon="-2.213072" lat="53.115178"><ele>328.510040</ele><time>2022-03-04T12:30:50Z</time><extensions><speed>0.590566</speed><course>121.966980</course><hAcc>1.725569</hAcc><vAcc>0.827674</vAcc></extensions></trkpt>
      <trkpt lon="-2.213065" lat="53.115175"><ele>328.703156</ele><time>2022-03-04T12:30:51Z</time><extensions><speed>0.609138</speed><course>130.436600</course><hAcc>1.721577</hAcc><vAcc>0.827812</vAcc></extensions></trkpt>
      <trkpt lon="-2.213059" lat="53.115171"><ele>328.890717</ele><time>2022-03-04T12:30:52Z</time><extensions><speed>0.556848</speed><course>136.161377</course><hAcc>1.718810</hAcc><vAcc>0.827935</vAcc></extensions></trkpt>
      <trkpt lon="-2.213053" lat="53.115168"><ele>329.086884</ele><time>2022-03-04T12:30:53Z</time><extensions><speed>0.563945</speed><course>139.235291</course><hAcc>1.713078</hAcc><vAcc>0.828040</vAcc></extensions></trkpt>
      <trkpt lon="-2.213047" lat="53.115163"><ele>329.282196</ele><time>2022-03-04T12:30:54Z</time><extensions><speed>0.673361</speed><course>143.133713</course><hAcc>1.705362</hAcc><vAcc>0.828114</vAcc></extensions></trkpt>
      <trkpt lon="-2.213041" lat="53.115158"><ele>329.468994</ele><time>2022-03-04T12:30:55Z</time><extensions><speed>0.738990</speed><course>148.397171</course><hAcc>1.702551</hAcc><vAcc>0.828194</vAcc></extensions></trkpt>
      <trkpt lon="-2.213036" lat="53.115152"><ele>329.629395</ele><time>2022-03-04T12:30:56Z</time><extensions><speed>0.746125</speed><course>151.562576</course><hAcc>1.699393</hAcc><vAcc>0.828239</vAcc></extensions></trkpt>
      <trkpt lon="-2.213030" lat="53.115147"><ele>329.788483</ele><time>2022-03-04T12:30:57Z</time><extensions><speed>0.718276</speed><course>151.584503</course><hAcc>1.698075</hAcc><vAcc>0.828260</vAcc></extensions></trkpt>
      <trkpt lon="-2.213025" lat="53.115141"><ele>329.945740</ele><time>2022-03-04T12:30:58Z</time><extensions><speed>0.664458</speed><course>147.023666</course><hAcc>1.691558</hAcc><vAcc>0.828250</vAcc></extensions></trkpt>
      <trkpt lon="-2.213020" lat="53.115137"><ele>330.089294</ele><time>2022-03-04T12:30:59Z</time><extensions><speed>0.506098</speed><course>137.404083</course><hAcc>1.688773</hAcc><vAcc>0.828211</vAcc></extensions></trkpt>
      <trkpt lon="-2.213015" lat="53.115134"><ele>330.240204</ele><time>2022-03-04T12:31:00Z</time><extensions><speed>0.329481</speed><course>124.914558</course><hAcc>1.692936</hAcc><vAcc>0.828156</vAcc></extensions></trkpt>
      <trkpt lon="-2.213012" lat="53.115133"><ele>330.374451</ele><time>2022-03-04T12:31:01Z</time><extensions><speed>0.191014</speed><course>120.718155</course><hAcc>1.713257</hAcc><vAcc>0.828097</vAcc></extensions></trkpt>
      <trkpt lon="-2.213009" lat="53.115132"><ele>330.507812</ele><time>2022-03-04T12:31:02Z</time><extensions><speed>0.229707</speed><course>121.755440</course><hAcc>1.708432</hAcc><vAcc>0.828054</vAcc></extensions></trkpt>
      <trkpt lon="-2.213005" lat="53.115130"><ele>330.637360</ele><time>2022-03-04T12:31:03Z</time><extensions><speed>0.437265</speed><course>122.997360</course><hAcc>1.683452</hAcc><vAcc>0.828017</vAcc></extensions></trkpt>
      <trkpt lon="-2.212999" lat="53.115128"><ele>330.770386</ele><time>2022-03-04T12:31:04Z</time><extensions><speed>0.566242</speed><course>126.224136</course><hAcc>1.697171</hAcc><vAcc>0.828000</vAcc></extensions></trkpt>
      <trkpt lon="-2.212992" lat="53.115125"><ele>330.884125</ele><time>2022-03-04T12:31:05Z</time><extensions><speed>0.614458</speed><course>129.721878</course><hAcc>1.710616</hAcc><vAcc>0.827989</vAcc></extensions></trkpt>
      <trkpt lon="-2.212985" lat="53.115121"><ele>330.999542</ele><time>2022-03-04T12:31:06Z</time><extensions><speed>0.609101</speed><course>136.384476</course><hAcc>1.715780</hAcc><vAcc>0.828007</vAcc></extensions></trkpt>
      <trkpt lon="-2.212980" lat="53.115117"><ele>331.102234</ele><time>2022-03-04T12:31:07Z</time><extensions><speed>0.559876</speed><course>147.491165</course><hAcc>1.716299</hAcc><vAcc>0.828014</vAcc></extensions></trkpt>
      <trkpt lon="-2.212976" lat="53.115112"><ele>331.202881</ele><time>2022-03-04T12:31:08Z</time><extensions><speed>0.517013</speed><course>150.872589</course><hAcc>1.714090</hAcc><vAcc>0.828052</vAcc></extensions></trkpt>
      <trkpt lon="-2.212972" lat="53.115109"><ele>331.284760</ele><time>2022-03-04T12:31:09Z</time><extensions><speed>0.463705</speed><course>148.314606</course><hAcc>1.714506</hAcc><vAcc>0.828059</vAcc></extensions></trkpt>
      <trkpt lon="-2.212968" lat="53.115105"><ele>331.364929</ele><time>2022-03-04T12:31:10Z</time><extensions><speed>0.591121</speed><course>145.920776</course><hAcc>1.707272</hAcc><vAcc>0.828059</vAcc></extensions></trkpt>
      <trkpt lon="-2.212963" lat="53.115100"><ele>331.442291</ele><time>2022-03-04T12:31:11Z</time><extensions><speed>0.694701</speed><course>147.013245</course><hAcc>1.711626</hAcc><vAcc>0.828046</vAcc></extensions></trkpt>
      <trkpt lon="-2.212958" lat="53.115094"><ele>331.543182</ele><time>2022-03-04T12:31:12Z</time><extensions><speed>0.670789</speed><course>150.924698</course><hAcc>1.696155</hAcc><vAcc>0.828020</vAcc></extensions></trkpt>
      <trkpt lon="-2.212954" lat="53.115090"><ele>331.651825</ele><time>2022-03-04T12:31:13Z</time><extensions><speed>0.534638</speed><course>160.525070</course><hAcc>1.669610</hAcc><vAcc>0.827995</vAcc></extensions></trkpt>
      <trkpt lon="-2.212953" lat="53.115086"><ele>331.757782</ele><time>2022-03-04T12:31:14Z</time><extensions><speed>0.387154</speed><course>177.395584</course><hAcc>1.661701</hAcc><vAcc>0.827944</vAcc></extensions></trkpt>
      <trkpt lon="-2.212953" lat="53.115083"><ele>331.861603</ele><time>2022-03-04T12:31:15Z</time><extensions><speed>0.223188</speed><course>201.575256</course><hAcc>1.672526</hAcc><vAcc>0.827875</vAcc></extensions></trkpt>
      <trkpt lon="-2.212955" lat="53.115081"><ele>331.960358</ele><time>2022-03-04T12:31:16Z</time><extensions><speed>0.205873</speed><course>218.227386</course><hAcc>1.658137</hAcc><vAcc>0.827802</vAcc></extensions></trkpt>
      <trkpt lon="-2.212957" lat="53.115080"><ele>332.055725</ele><time>2022-03-04T12:31:17Z</time><extensions><speed>0.202764</speed><course>223.047073</course><hAcc>1.645628</hAcc><vAcc>0.827716</vAcc></extensions></trkpt>
      <trkpt lon="-2.212959" lat="53.115078"><ele>332.168579</ele><time>2022-03-04T12:31:18Z</time><extensions><speed>0.194934</speed><course>223.264496</course><hAcc>1.644023</hAcc><vAcc>0.827630</vAcc></extensions></trkpt>
      <trkpt lon="-2.212961" lat="53.115077"><ele>332.289612</ele><time>2022-03-04T12:31:19Z</time><extensions><speed>0.177680</speed><course>222.439636</course><hAcc>1.652789</hAcc><vAcc>0.827542</vAcc></extensions></trkpt>
      <trkpt lon="-2.212962" lat="53.115076"><ele>332.424530</ele><time>2022-03-04T12:31:20Z</time><extensions><speed>0.157862</speed><course>221.455475</course><hAcc>1.670301</hAcc><vAcc>0.827468</vAcc></extensions></trkpt>
      <trkpt lon="-2.212964" lat="53.115075"><ele>332.583557</ele><time>2022-03-04T12:31:21Z</time><extensions><speed>0.149608</speed><course>216.333649</course><hAcc>1.681632</hAcc><vAcc>0.827390</vAcc></extensions></trkpt>
      <trkpt lon="-2.212965" lat="53.115074"><ele>332.740570</ele><time>2022-03-04T12:31:22Z</time><extensions><speed>0.192956</speed><course>204.210815</course><hAcc>1.668214</hAcc><vAcc>0.827335</vAcc></extensions></trkpt>
      <trkpt lon="-2.212966" lat="53.115072"><ele>332.907440</ele><time>2022-03-04T12:31:23Z</time><extensions><speed>0.141394</speed><course>195.730057</course><hAcc>1.693169</hAcc><vAcc>0.827300</vAcc></extensions></trkpt>
      <trkpt lon="-2.212966" lat="53.115071"><ele>333.060883</ele><time>2022-03-04T12:31:24Z</time><extensions><speed>0.137625</speed><course>174.441971</course><hAcc>1.715595</hAcc><vAcc>0.827273</vAcc></extensions></trkpt>
      <trkpt lon="-2.212965" lat="53.115070"><ele>333.214447</ele><time>2022-03-04T12:31:25Z</time><extensions><speed>0.178039</speed><course>155.394714</course><hAcc>1.727109</hAcc><vAcc>0.827262</vAcc></extensions></trkpt>
      <trkpt lon="-2.212964" lat="53.115068"><ele>333.369049</ele><time>2022-03-04T12:31:26Z</time><extensions><speed>0.260304</speed><course>145.688126</course><hAcc>1.728331</hAcc><vAcc>0.827259</vAcc></extensions></trkpt>
      <trkpt lon="-2.212961" lat="53.115066"><ele>333.514740</ele><time>2022-03-04T12:31:27Z</time><extensions><speed>0.394281</speed><course>143.059937</course><hAcc>1.718364</hAcc><vAcc>0.827267</vAcc></extensions></trkpt>
      <trkpt lon="-2.212956" lat="53.115062"><ele>333.655853</ele><time>2022-03-04T12:31:28Z</time><extensions><speed>0.611941</speed><course>144.011368</course><hAcc>1.706332</hAcc><vAcc>0.827273</vAcc></extensions></trkpt>
      <trkpt lon="-2.212951" lat="53.115057"><ele>333.779755</ele><time>2022-03-04T12:31:29Z</time><extensions><speed>0.727471</speed><course>153.631668</course><hAcc>1.715313</hAcc><vAcc>0.827276</vAcc></extensions></trkpt>
      <trkpt lon="-2.212948" lat="53.115051"><ele>333.903778</ele><time>2022-03-04T12:31:30Z</time><extensions><speed>0.762116</speed><course>166.085220</course><hAcc>1.706494</hAcc><vAcc>0.827285</vAcc></extensions></trkpt>
      <trkpt lon="-2.212945" lat="53.115044"><ele>334.014008</ele><time>2022-03-04T12:31:31Z</time><extensions><speed>0.765512</speed><course>170.309128</course><hAcc>1.682785</hAcc><vAcc>0.827276</vAcc></extensions></trkpt>
      <trkpt lon="-2.212944" lat="53.115038"><ele>334.107971</ele><time>2022-03-04T12:31:32Z</time><extensions><speed>0.639188</speed><course>175.375732</course><hAcc>1.658382</hAcc><vAcc>0.827258</vAcc></extensions></trkpt>
      <trkpt lon="-2.212944" lat="53.115033"><ele>334.185181</ele><time>2022-03-04T12:31:33Z</time><extensions><speed>0.380817</speed><course>184.683517</course><hAcc>1.631546</hAcc><vAcc>0.827226</vAcc></extensions></trkpt>
      <trkpt lon="-2.212945" lat="53.115031"><ele>334.242859</ele><time>2022-03-04T12:31:34Z</time><extensions><speed>0.136522</speed><course>221.186188</course><hAcc>1.618607</hAcc><vAcc>0.827203</vAcc></extensions></trkpt>
      <trkpt lon="-2.212947" lat="53.115031"><ele>334.267303</ele><time>2022-03-04T12:31:35Z</time><extensions><speed>0.125184</speed><course>268.247925</course><hAcc>1.581218</hAcc><vAcc>0.827170</vAcc></extensions></trkpt>
      <trkpt lon="-2.212948" lat="53.115031"><ele>334.253113</ele><time>2022-03-04T12:31:36Z</time><extensions><speed>0.090226</speed><course>287.142822</course><hAcc>1.584571</hAcc><vAcc>0.827140</vAcc></extensions></trkpt>
      <trkpt lon="-2.212949" lat="53.115031"><ele>334.216644</ele><time>2022-03-04T12:31:38Z</time><extensions><speed>0.079731</speed><course>298.563995</course><hAcc>1.568513</hAcc><vAcc>0.827124</vAcc></extensions></trkpt>
      <trkpt lon="-2.212950" lat="53.115031"><ele>334.189697</ele><time>2022-03-04T12:31:39Z</time><extensions><speed>0.069329</speed><course>306.297607</course><hAcc>1.553532</hAcc><vAcc>0.827113</vAcc></extensions></trkpt>
      <trkpt lon="-2.212951" lat="53.115032"><ele>334.151367</ele><time>2022-03-04T12:31:40Z</time><extensions><speed>0.063306</speed><course>314.120514</course><hAcc>1.544534</hAcc><vAcc>0.827088</vAcc></extensions></trkpt>
      <trkpt lon="-2.212952" lat="53.115032"><ele>334.105774</ele><time>2022-03-04T12:31:41Z</time><extensions><speed>0.056262</speed><course>320.446136</course><hAcc>1.545860</hAcc><vAcc>0.827063</vAcc></extensions></trkpt>
      <trkpt lon="-2.212952" lat="53.115032"><ele>334.051514</ele><time>2022-03-04T12:31:42Z</time><extensions><speed>0.046726</speed><course>324.646942</course><hAcc>1.558429</hAcc><vAcc>0.827010</vAcc></extensions></trkpt>
      <trkpt lon="-2.212952" lat="53.115033"><ele>333.997284</ele><time>2022-03-04T12:31:43Z</time><extensions><speed>0.033265</speed><course>334.728333</course><hAcc>1.580547</hAcc><vAcc>0.826966</vAcc></extensions></trkpt>
      <trkpt lon="-2.212952" lat="53.115033"><ele>333.940674</ele><time>2022-03-04T12:31:44Z</time><extensions><speed>0.024393</speed><course>10.579368</course><hAcc>1.592609</hAcc><vAcc>0.826917</vAcc></extensions></trkpt>
      <trkpt lon="-2.212952" lat="53.115033"><ele>333.883453</ele><time>2022-03-04T12:31:45Z</time><extensions><speed>0.047679</speed><course>62.746750</course><hAcc>1.584055</hAcc><vAcc>0.826853</vAcc></extensions></trkpt>
      <trkpt lon="-2.212951" lat="53.115033"><ele>333.822266</ele><time>2022-03-04T12:31:46Z</time><extensions><speed>0.085804</speed><course>84.569359</course><hAcc>1.613461</hAcc><vAcc>0.826780</vAcc></extensions></trkpt>
      <trkpt lon="-2.212949" lat="53.115033"><ele>333.769836</ele><time>2022-03-04T12:31:47Z</time><extensions><speed>0.118176</speed><course>97.488350</course><hAcc>1.661714</hAcc><vAcc>0.826708</vAcc></extensions></trkpt>
      <trkpt lon="-2.212947" lat="53.115033"><ele>333.722290</ele><time>2022-03-04T12:31:48Z</time><extensions><speed>0.162016</speed><course>104.894318</course><hAcc>1.693177</hAcc><vAcc>0.826635</vAcc></extensions></trkpt>
      <trkpt lon="-2.212944" lat="53.115032"><ele>333.697723</ele><time>2022-03-04T12:31:49Z</time><extensions><speed>0.244883</speed><course>106.456863</course><hAcc>1.699448</hAcc><vAcc>0.826556</vAcc></extensions></trkpt>
      <trkpt lon="-2.212940" lat="53.115032"><ele>333.690765</ele><time>2022-03-04T12:31:50Z</time><extensions><speed>0.339045</speed><course>106.062759</course><hAcc>1.703881</hAcc><vAcc>0.826500</vAcc></extensions></trkpt>
      <trkpt lon="-2.212934" lat="53.115031"><ele>333.689819</ele><time>2022-03-04T12:31:51Z</time><extensions><speed>0.404277</speed><course>105.301865</course><hAcc>1.718977</hAcc><vAcc>0.826463</vAcc></extensions></trkpt>
      <trkpt lon="-2.212928" lat="53.115030"><ele>333.708588</ele><time>2022-03-04T12:31:52Z</time><extensions><speed>0.463081</speed><course>103.827026</course><hAcc>1.726514</hAcc><vAcc>0.826422</vAcc></extensions></trkpt>
      <trkpt lon="-2.212921" lat="53.115029"><ele>333.720703</ele><time>2022-03-04T12:31:53Z</time><extensions><speed>0.520302</speed><course>101.873505</course><hAcc>1.720611</hAcc><vAcc>0.826399</vAcc></extensions></trkpt>
      <trkpt lon="-2.212913" lat="53.115028"><ele>333.729309</ele><time>2022-03-04T12:31:54Z</time><extensions><speed>0.581488</speed><course>100.780075</course><hAcc>1.714380</hAcc><vAcc>0.826401</vAcc></extensions></trkpt>
      <trkpt lon="-2.212905" lat="53.115027"><ele>333.760986</ele><time>2022-03-04T12:31:55Z</time><extensions><speed>0.446818</speed><course>95.747314</course><hAcc>1.737221</hAcc><vAcc>0.826420</vAcc></extensions></trkpt>
      <trkpt lon="-2.212899" lat="53.115027"><ele>333.802460</ele><time>2022-03-04T12:31:56Z</time><extensions><speed>0.363820</speed><course>91.271355</course><hAcc>1.759987</hAcc><vAcc>0.826463</vAcc></extensions></trkpt>
      <trkpt lon="-2.212893" lat="53.115027"><ele>333.848267</ele><time>2022-03-04T12:31:57Z</time><extensions><speed>0.477287</speed><course>89.053299</course><hAcc>1.729518</hAcc><vAcc>0.826520</vAcc></extensions></trkpt>
      <trkpt lon="-2.212885" lat="53.115027"><ele>333.887115</ele><time>2022-03-04T12:31:58Z</time><extensions><speed>0.614744</speed><course>88.963417</course><hAcc>1.705419</hAcc><vAcc>0.826592</vAcc></extensions></trkpt>
      <trkpt lon="-2.212876" lat="53.115027"><ele>333.944702</ele><time>2022-03-04T12:31:59Z</time><extensions><speed>0.556535</speed><course>93.011505</course><hAcc>1.718430</hAcc><vAcc>0.826677</vAcc></extensions></trkpt>
      <trkpt lon="-2.212870" lat="53.115026"><ele>333.990326</ele><time>2022-03-04T12:32:00Z</time><extensions><speed>0.313146</speed><course>109.228836</course><hAcc>1.732697</hAcc><vAcc>0.826740</vAcc></extensions></trkpt>
      <trkpt lon="-2.212868" lat="53.115025"><ele>334.041443</ele><time>2022-03-04T12:32:01Z</time><extensions><speed>0.157274</speed><course>187.134613</course><hAcc>1.753308</hAcc><vAcc>0.826768</vAcc></extensions></trkpt>
      <trkpt lon="-2.212870" lat="53.115023"><ele>334.093964</ele><time>2022-03-04T12:32:02Z</time><extensions><speed>0.343656</speed><course>220.764664</course><hAcc>1.736745</hAcc><vAcc>0.826769</vAcc></extensions></trkpt>
      <trkpt lon="-2.212874" lat="53.115020"><ele>334.155975</ele><time>2022-03-04T12:32:03Z</time><extensions><speed>0.496669</speed><course>222.468842</course><hAcc>1.727536</hAcc><vAcc>0.826737</vAcc></extensions></trkpt>
      <trkpt lon="-2.212879" lat="53.115016"><ele>334.229065</ele><time>2022-03-04T12:32:04Z</time><extensions><speed>0.612496</speed><course>216.564163</course><hAcc>1.721537</hAcc><vAcc>0.826689</vAcc></extensions></trkpt>
      <trkpt lon="-2.212885" lat="53.115011"><ele>334.299744</ele><time>2022-03-04T12:32:05Z</time><extensions><speed>0.771998</speed><course>207.158875</course><hAcc>1.708517</hAcc><vAcc>0.826627</vAcc></extensions></trkpt>
      <trkpt lon="-2.212889" lat="53.115005"><ele>334.369690</ele><time>2022-03-04T12:32:06Z</time><extensions><speed>0.822667</speed><course>198.826599</course><hAcc>1.718499</hAcc><vAcc>0.826553</vAcc></extensions></trkpt>
      <trkpt lon="-2.212893" lat="53.114997"><ele>334.435394</ele><time>2022-03-04T12:32:07Z</time><extensions><speed>0.874292</speed><course>190.991364</course><hAcc>1.716014</hAcc><vAcc>0.826466</vAcc></extensions></trkpt>
      <trkpt lon="-2.212895" lat="53.114989"><ele>334.497498</ele><time>2022-03-04T12:32:08Z</time><extensions><speed>0.976958</speed><course>185.802933</course><hAcc>1.707560</hAcc><vAcc>0.826369</vAcc></extensions></trkpt>
      <trkpt lon="-2.212896" lat="53.114980"><ele>334.561096</ele><time>2022-03-04T12:32:09Z</time><extensions><speed>1.087486</speed><course>183.342758</course><hAcc>1.700401</hAcc><vAcc>0.826264</vAcc></extensions></trkpt>
      <trkpt lon="-2.212897" lat="53.114970"><ele>334.633270</ele><time>2022-03-04T12:32:10Z</time><extensions><speed>1.138472</speed><course>184.956131</course><hAcc>1.696327</hAcc><vAcc>0.826152</vAcc></extensions></trkpt>
      <trkpt lon="-2.212899" lat="53.114960"><ele>334.708649</ele><time>2022-03-04T12:32:11Z</time><extensions><speed>1.078892</speed><course>190.653320</course><hAcc>1.697533</hAcc><vAcc>0.826039</vAcc></extensions></trkpt>
      <trkpt lon="-2.212903" lat="53.114951"><ele>334.782806</ele><time>2022-03-04T12:32:12Z</time><extensions><speed>0.987435</speed><course>197.946503</course><hAcc>1.703039</hAcc><vAcc>0.825930</vAcc></extensions></trkpt>
      <trkpt lon="-2.212908" lat="53.114943"><ele>334.852325</ele><time>2022-03-04T12:32:13Z</time><extensions><speed>0.897563</speed><course>204.773300</course><hAcc>1.704589</hAcc><vAcc>0.825833</vAcc></extensions></trkpt>
      <trkpt lon="-2.212914" lat="53.114937"><ele>334.930511</ele><time>2022-03-04T12:32:14Z</time><extensions><speed>0.749537</speed><course>211.816864</course><hAcc>1.699569</hAcc><vAcc>0.825760</vAcc></extensions></trkpt>
      <trkpt lon="-2.212920" lat="53.114930"><ele>334.988922</ele><time>2022-03-04T12:32:15Z</time><extensions><speed>0.839651</speed><course>211.443268</course><hAcc>1.693253</hAcc><vAcc>0.825706</vAcc></extensions></trkpt>
      <trkpt lon="-2.212927" lat="53.114923"><ele>335.040649</ele><time>2022-03-04T12:32:16Z</time><extensions><speed>0.950649</speed><course>208.628799</course><hAcc>1.708266</hAcc><vAcc>0.825670</vAcc></extensions></trkpt>
      <trkpt lon="-2.212934" lat="53.114916"><ele>335.091553</ele><time>2022-03-04T12:32:17Z</time><extensions><speed>0.967703</speed><course>207.363907</course><hAcc>1.713038</hAcc><vAcc>0.825640</vAcc></extensions></trkpt>
      <trkpt lon="-2.212940" lat="53.114908"><ele>335.139160</ele><time>2022-03-04T12:32:18Z</time><extensions><speed>0.978943</speed><course>205.721649</course><hAcc>1.709604</hAcc><vAcc>0.825629</vAcc></extensions></trkpt>
      <trkpt lon="-2.212947" lat="53.114900"><ele>335.175476</ele><time>2022-03-04T12:32:19Z</time><extensions><speed>0.961902</speed><course>206.053802</course><hAcc>1.703559</hAcc><vAcc>0.825643</vAcc></extensions></trkpt>
      <trkpt lon="-2.212953" lat="53.114893"><ele>335.199615</ele><time>2022-03-04T12:32:20Z</time><extensions><speed>0.935611</speed><course>208.844162</course><hAcc>1.698862</hAcc><vAcc>0.825675</vAcc></extensions></trkpt>
      <trkpt lon="-2.212960" lat="53.114886"><ele>335.218842</ele><time>2022-03-04T12:32:21Z</time><extensions><speed>0.837819</speed><course>213.343002</course><hAcc>1.695454</hAcc><vAcc>0.825727</vAcc></extensions></trkpt>
      <trkpt lon="-2.212967" lat="53.114880"><ele>335.236328</ele><time>2022-03-04T12:32:22Z</time><extensions><speed>0.713395</speed><course>218.598785</course><hAcc>1.690607</hAcc><vAcc>0.825786</vAcc></extensions></trkpt>
      <trkpt lon="-2.212973" lat="53.114876"><ele>335.239258</ele><time>2022-03-04T12:32:23Z</time><extensions><speed>0.599019</speed><course>222.790451</course><hAcc>1.678170</hAcc><vAcc>0.825848</vAcc></extensions></trkpt>
      <trkpt lon="-2.212979" lat="53.114872"><ele>335.235260</ele><time>2022-03-04T12:32:24Z</time><extensions><speed>0.469689</speed><course>227.511292</course><hAcc>1.664159</hAcc><vAcc>0.825913</vAcc></extensions></trkpt>
      <trkpt lon="-2.212983" lat="53.114870"><ele>335.216888</ele><time>2022-03-04T12:32:25Z</time><extensions><speed>0.308402</speed><course>231.613159</course><hAcc>1.687107</hAcc><vAcc>0.825963</vAcc></extensions></trkpt>
      <trkpt lon="-2.212985" lat="53.114869"><ele>335.182892</ele><time>2022-03-04T12:32:26Z</time><extensions><speed>0.097594</speed><course>231.033340</course><hAcc>1.730658</hAcc><vAcc>0.825999</vAcc></extensions></trkpt>
      <trkpt lon="-2.212986" lat="53.114868"><ele>335.140015</ele><time>2022-03-04T12:32:27Z</time><extensions><speed>0.073441</speed><course>216.737152</course><hAcc>1.695735</hAcc><vAcc>0.826030</vAcc></extensions></trkpt>
      <trkpt lon="-2.212987" lat="53.114868"><ele>335.094696</ele><time>2022-03-04T12:32:28Z</time><extensions><speed>0.066222</speed><course>197.508606</course><hAcc>1.683793</hAcc><vAcc>0.826059</vAcc></extensions></trkpt>
      <trkpt lon="-2.212987" lat="53.114867"><ele>335.040802</ele><time>2022-03-04T12:32:28Z</time><extensions><speed>0.062478</speed><course>175.232788</course><hAcc>1.699800</hAcc><vAcc>0.826076</vAcc></extensions></trkpt>
      <trkpt lon="-2.212987" lat="53.114867"><ele>334.978058</ele><time>2022-03-04T12:32:29Z</time><extensions><speed>0.067174</speed><course>153.741531</course><hAcc>1.716445</hAcc><vAcc>0.826090</vAcc></extensions></trkpt>
      <trkpt lon="-2.212986" lat="53.114866"><ele>334.919250</ele><time>2022-03-04T12:32:30Z</time><extensions><speed>0.072456</speed><course>139.482559</course><hAcc>1.731004</hAcc><vAcc>0.826096</vAcc></extensions></trkpt>
      <trkpt lon="-2.212985" lat="53.114865"><ele>334.853027</ele><time>2022-03-04T12:32:31Z</time><extensions><speed>0.072861</speed><course>132.155548</course><hAcc>1.742109</hAcc><vAcc>0.826099</vAcc></extensions></trkpt>
      <trkpt lon="-2.212984" lat="53.114865"><ele>334.766449</ele><time>2022-03-04T12:32:32Z</time><extensions><speed>0.073412</speed><course>129.062683</course><hAcc>1.748940</hAcc><vAcc>0.826102</vAcc></extensions></trkpt>
      <trkpt lon="-2.212984" lat="53.114865"><ele>334.688721</ele><time>2022-03-04T12:32:33Z</time><extensions><speed>0.084563</speed><course>131.383698</course><hAcc>1.748716</hAcc><vAcc>0.826101</vAcc></extensions></trkpt>
      <trkpt lon="-2.212983" lat="53.114864"><ele>334.615936</ele><time>2022-03-04T12:32:34Z</time><extensions><speed>0.105495</speed><course>141.138412</course><hAcc>1.748655</hAcc><vAcc>0.826104</vAcc></extensions></trkpt>
      <trkpt lon="-2.212982" lat="53.114863"><ele>334.552338</ele><time>2022-03-04T12:32:35Z</time><extensions><speed>0.138909</speed><course>154.476013</course><hAcc>1.749923</hAcc><vAcc>0.826104</vAcc></extensions></trkpt>
      <trkpt lon="-2.212981" lat="53.114862"><ele>334.489990</ele><time>2022-03-04T12:32:36Z</time><extensions><speed>0.192021</speed><course>166.402115</course><hAcc>1.750064</hAcc><vAcc>0.826095</vAcc></extensions></trkpt>
      <trkpt lon="-2.212980" lat="53.114860"><ele>334.438751</ele><time>2022-03-04T12:32:37Z</time><extensions><speed>0.256935</speed><course>174.617462</course><hAcc>1.752168</hAcc><vAcc>0.826066</vAcc></extensions></trkpt>
      <trkpt lon="-2.212980" lat="53.114857"><ele>334.411743</ele><time>2022-03-04T12:32:38Z</time><extensions><speed>0.322953</speed><course>180.973679</course><hAcc>1.754115</hAcc><vAcc>0.826029</vAcc></extensions></trkpt>
      <trkpt lon="-2.212981" lat="53.114854"><ele>334.394287</ele><time>2022-03-04T12:32:39Z</time><extensions><speed>0.384025</speed><course>186.421234</course><hAcc>1.751231</hAcc><vAcc>0.825953</vAcc></extensions></trkpt>
      <trkpt lon="-2.212982" lat="53.114850"><ele>334.385071</ele><time>2022-03-04T12:32:40Z</time><extensions><speed>0.428528</speed><course>192.496933</course><hAcc>1.746552</hAcc><vAcc>0.825883</vAcc></extensions></trkpt>
      <trkpt lon="-2.212984" lat="53.114846"><ele>334.376129</ele><time>2022-03-04T12:32:41Z</time><extensions><speed>0.487947</speed><course>200.415878</course><hAcc>1.738598</hAcc><vAcc>0.825778</vAcc></extensions></trkpt>
      <trkpt lon="-2.212987" lat="53.114842"><ele>334.397797</ele><time>2022-03-04T12:32:42Z</time><extensions><speed>0.615074</speed><course>208.569077</course><hAcc>1.733070</hAcc><vAcc>0.825665</vAcc></extensions></trkpt>
      <trkpt lon="-2.212992" lat="53.114837"><ele>334.397797</ele><time>2022-03-04T12:32:43Z</time><extensions><speed>0.672093</speed><course>212.098770</course><hAcc>1.737517</hAcc><vAcc>0.825565</vAcc></extensions></trkpt>
      <trkpt lon="-2.212996" lat="53.114832"><ele>334.404205</ele><time>2022-03-04T12:32:44Z</time><extensions><speed>0.506603</speed><course>211.282181</course><hAcc>1.724440</hAcc><vAcc>0.825462</vAcc></extensions></trkpt>
      <trkpt lon="-2.212999" lat="53.114829"><ele>334.414276</ele><time>2022-03-04T12:32:45Z</time><extensions><speed>0.317050</speed><course>204.154343</course><hAcc>1.719988</hAcc><vAcc>0.825366</vAcc></extensions></trkpt>
      <trkpt lon="-2.213000" lat="53.114827"><ele>334.430756</ele><time>2022-03-04T12:32:46Z</time><extensions><speed>0.134635</speed><course>184.872208</course><hAcc>1.723143</hAcc><vAcc>0.825271</vAcc></extensions></trkpt>
      <trkpt lon="-2.213000" lat="53.114826"><ele>334.450073</ele><time>2022-03-04T12:32:47Z</time><extensions><speed>0.083029</speed><course>149.453964</course><hAcc>1.721106</hAcc><vAcc>0.825198</vAcc></extensions></trkpt>
      <trkpt lon="-2.212999" lat="53.114826"><ele>334.469696</ele><time>2022-03-04T12:32:48Z</time><extensions><speed>0.087728</speed><course>132.572922</course><hAcc>1.722071</hAcc><vAcc>0.825156</vAcc></extensions></trkpt>
      <trkpt lon="-2.212998" lat="53.114825"><ele>334.488007</ele><time>2022-03-04T12:32:49Z</time><extensions><speed>0.104336</speed><course>137.333237</course><hAcc>1.728652</hAcc><vAcc>0.825154</vAcc></extensions></trkpt>
      <trkpt lon="-2.212997" lat="53.114824"><ele>334.503784</ele><time>2022-03-04T12:32:50Z</time><extensions><speed>0.127532</speed><course>145.672516</course><hAcc>1.731009</hAcc><vAcc>0.825180</vAcc></extensions></trkpt>
      <trkpt lon="-2.212996" lat="53.114823"><ele>334.516418</ele><time>2022-03-04T12:32:51Z</time><extensions><speed>0.165814</speed><course>154.676392</course><hAcc>1.720945</hAcc><vAcc>0.825241</vAcc></extensions></trkpt>
      <trkpt lon="-2.212995" lat="53.114822"><ele>334.525635</ele><time>2022-03-04T12:32:52Z</time><extensions><speed>0.142459</speed><course>120.594872</course><hAcc>1.732164</hAcc><vAcc>0.825348</vAcc></extensions></trkpt>
      <trkpt lon="-2.212993" lat="53.114822"><ele>334.531616</ele><time>2022-03-04T12:32:53Z</time><extensions><speed>0.140026</speed><course>97.943886</course><hAcc>1.744485</hAcc><vAcc>0.825500</vAcc></extensions></trkpt>
      <trkpt lon="-2.212991" lat="53.114822"><ele>334.534973</ele><time>2022-03-04T12:32:54Z</time><extensions><speed>0.141255</speed><course>86.652985</course><hAcc>1.744459</hAcc><vAcc>0.825673</vAcc></extensions></trkpt>
      <trkpt lon="-2.212989" lat="53.114822"><ele>334.536346</ele><time>2022-03-04T12:32:55Z</time><extensions><speed>0.130147</speed><course>81.157730</course><hAcc>1.739243</hAcc><vAcc>0.825847</vAcc></extensions></trkpt>
      <trkpt lon="-2.212987" lat="53.114822"><ele>334.536316</ele><time>2022-03-04T12:32:56Z</time><extensions><speed>0.107001</speed><course>78.127464</course><hAcc>1.733356</hAcc><vAcc>0.826004</vAcc></extensions></trkpt>
      <trkpt lon="-2.212985" lat="53.114822"><ele>334.535217</ele><time>2022-03-04T12:32:57Z</time><extensions><speed>0.078358</speed><course>76.434578</course><hAcc>1.728354</hAcc><vAcc>0.826141</vAcc></extensions></trkpt>
      <trkpt lon="-2.212984" lat="53.114822"><ele>334.524109</ele><time>2022-03-04T12:32:58Z</time><extensions><speed>0.058168</speed><course>76.830109</course><hAcc>1.719194</hAcc><vAcc>0.826286</vAcc></extensions></trkpt>
      <trkpt lon="-2.212983" lat="53.114822"><ele>334.502960</ele><time>2022-03-04T12:32:59Z</time><extensions><speed>0.044239</speed><course>79.005074</course><hAcc>1.706590</hAcc><vAcc>0.826393</vAcc></extensions></trkpt>
      <trkpt lon="-2.212983" lat="53.114822"><ele>334.486908</ele><time>2022-03-04T12:33:00Z</time><extensions><speed>0.036743</speed><course>82.706726</course><hAcc>1.694654</hAcc><vAcc>0.826464</vAcc></extensions></trkpt>
      <trkpt lon="-2.212982" lat="53.114822"><ele>334.475769</ele><time>2022-03-04T12:33:01Z</time><extensions><speed>0.034775</speed><course>84.976425</course><hAcc>1.689951</hAcc><vAcc>0.826516</vAcc></extensions></trkpt>
      <trkpt lon="-2.212982" lat="53.114822"><ele>334.467102</ele><time>2022-03-04T12:33:02Z</time><extensions><speed>0.038027</speed><course>84.347977</course><hAcc>1.692331</hAcc><vAcc>0.826547</vAcc></extensions></trkpt>
      <trkpt lon="-2.212981" lat="53.114823"><ele>334.453278</ele><time>2022-03-04T12:33:03Z</time><extensions><speed>0.050545</speed><course>81.678780</course><hAcc>1.683962</hAcc><vAcc>0.826570</vAcc></extensions></trkpt>
      <trkpt lon="-2.212980" lat="53.114823"><ele>334.432373</ele><time>2022-03-04T12:33:04Z</time><extensions><speed>0.082398</speed><course>78.609413</course><hAcc>1.650120</hAcc><vAcc>0.826590</vAcc></extensions></trkpt>
      <trkpt lon="-2.212978" lat="53.114823"><ele>334.419067</ele><time>2022-03-04T12:33:05Z</time><extensions><speed>0.105952</speed><course>76.771103</course><hAcc>1.651824</hAcc><vAcc>0.826588</vAcc></extensions></trkpt>
      <trkpt lon="-2.212977" lat="53.114823"><ele>334.377533</ele><time>2022-03-04T12:33:06Z</time><extensions><speed>0.109724</speed><course>73.520416</course><hAcc>1.693988</hAcc><vAcc>0.826505</vAcc></extensions></trkpt>
      <trkpt lon="-2.212975" lat="53.114824"><ele>334.347870</ele><time>2022-03-04T12:33:07Z</time><extensions><speed>0.142326</speed><course>67.255119</course><hAcc>1.706958</hAcc><vAcc>0.826429</vAcc></extensions></trkpt>
      <trkpt lon="-2.212973" lat="53.114825"><ele>334.332794</ele><time>2022-03-04T12:33:08Z</time><extensions><speed>0.226123</speed><course>58.043308</course><hAcc>1.683378</hAcc><vAcc>0.826356</vAcc></extensions></trkpt>
      <trkpt lon="-2.212970" lat="53.114826"><ele>334.300354</ele><time>2022-03-04T12:33:09Z</time><extensions><speed>0.284773</speed><course>47.019169</course><hAcc>1.685437</hAcc><vAcc>0.826169</vAcc></extensions></trkpt>
      <trkpt lon="-2.212967" lat="53.114828"><ele>334.267273</ele><time>2022-03-04T12:33:10Z</time><extensions><speed>0.347132</speed><course>37.140778</course><hAcc>1.705086</hAcc><vAcc>0.825855</vAcc></extensions></trkpt>
      <trkpt lon="-2.212963" lat="53.114831"><ele>334.233673</ele><time>2022-03-04T12:33:11Z</time><extensions><speed>0.413254</speed><course>29.547293</course><hAcc>1.720806</hAcc><vAcc>0.825349</vAcc></extensions></trkpt>
      <trkpt lon="-2.212961" lat="53.114834"><ele>334.199677</ele><time>2022-03-04T12:33:12Z</time><extensions><speed>0.470076</speed><course>23.394396</course><hAcc>1.725611</hAcc><vAcc>0.824758</vAcc></extensions></trkpt>
      <trkpt lon="-2.212958" lat="53.114839"><ele>334.165283</ele><time>2022-03-04T12:33:13Z</time><extensions><speed>0.510017</speed><course>17.136089</course><hAcc>1.723100</hAcc><vAcc>0.824085</vAcc></extensions></trkpt>
      <trkpt lon="-2.212956" lat="53.114843"><ele>334.089630</ele><time>2022-03-04T12:33:14Z</time><extensions><speed>0.541846</speed><course>9.967538</course><hAcc>1.723217</hAcc><vAcc>0.823293</vAcc></extensions></trkpt>
      <trkpt lon="-2.212955" lat="53.114848"><ele>334.024475</ele><time>2022-03-04T12:33:15Z</time><extensions><speed>0.633057</speed><course>2.437181</course><hAcc>1.727444</hAcc><vAcc>0.822520</vAcc></extensions></trkpt>
      <trkpt lon="-2.212956" lat="53.114853"><ele>333.959930</ele><time>2022-03-04T12:33:16Z</time><extensions><speed>0.431160</speed><course>353.002838</course><hAcc>1.730062</hAcc><vAcc>0.821757</vAcc></extensions></trkpt>
      <trkpt lon="-2.212956" lat="53.114856"><ele>333.904327</ele><time>2022-03-04T12:33:17Z</time><extensions><speed>0.158500</speed><course>343.090942</course><hAcc>1.747309</hAcc><vAcc>0.820945</vAcc></extensions></trkpt>
      <trkpt lon="-2.212957" lat="53.114857"><ele>333.855286</ele><time>2022-03-04T12:33:18Z</time><extensions><speed>0.072158</speed><course>311.014923</course><hAcc>1.729657</hAcc><vAcc>0.820132</vAcc></extensions></trkpt>
      <trkpt lon="-2.212958" lat="53.114857"><ele>333.802582</ele><time>2022-03-04T12:33:19Z</time><extensions><speed>0.059956</speed><course>261.474243</course><hAcc>1.726580</hAcc><vAcc>0.819382</vAcc></extensions></trkpt>
      <trkpt lon="-2.212959" lat="53.114857"><ele>333.784332</ele><time>2022-03-04T12:33:20Z</time><extensions><speed>0.069357</speed><course>238.364288</course><hAcc>1.742771</hAcc><vAcc>0.818731</vAcc></extensions></trkpt>
      <trkpt lon="-2.212960" lat="53.114856"><ele>333.751343</ele><time>2022-03-04T12:33:21Z</time><extensions><speed>0.084026</speed><course>231.246185</course><hAcc>1.755311</hAcc><vAcc>0.818262</vAcc></extensions></trkpt>
      <trkpt lon="-2.212961" lat="53.114856"><ele>333.719910</ele><time>2022-03-04T12:33:22Z</time><extensions><speed>0.103709</speed><course>229.890335</course><hAcc>1.761220</hAcc><vAcc>0.817990</vAcc></extensions></trkpt>
      <trkpt lon="-2.212962" lat="53.114855"><ele>333.688507</ele><time>2022-03-04T12:33:23Z</time><extensions><speed>0.126700</speed><course>231.135803</course><hAcc>1.766482</hAcc><vAcc>0.817996</vAcc></extensions></trkpt>
      <trkpt lon="-2.212964" lat="53.114854"><ele>333.698059</ele><time>2022-03-04T12:33:24Z</time><extensions><speed>0.154686</speed><course>234.408844</course><hAcc>1.764178</hAcc><vAcc>0.818256</vAcc></extensions></trkpt>
      <trkpt lon="-2.212966" lat="53.114853"><ele>333.739563</ele><time>2022-03-04T12:33:25Z</time><extensions><speed>0.158681</speed><course>237.654846</course><hAcc>1.765250</hAcc><vAcc>0.818721</vAcc></extensions></trkpt>
      <trkpt lon="-2.212968" lat="53.114853"><ele>333.782410</ele><time>2022-03-04T12:33:26Z</time><extensions><speed>0.124360</speed><course>239.730743</course><hAcc>1.768892</hAcc><vAcc>0.819300</vAcc></extensions></trkpt>
      <trkpt lon="-2.212969" lat="53.114852"><ele>333.847931</ele><time>2022-03-04T12:33:27Z</time><extensions><speed>0.072018</speed><course>246.638382</course><hAcc>1.766372</hAcc><vAcc>0.819962</vAcc></extensions></trkpt>
      <trkpt lon="-2.212970" lat="53.114852"><ele>333.936859</ele><time>2022-03-04T12:33:28Z</time><extensions><speed>0.036258</speed><course>311.859650</course><hAcc>1.763912</hAcc><vAcc>0.820634</vAcc></extensions></trkpt>
      <trkpt lon="-2.212970" lat="53.114853"><ele>334.039246</ele><time>2022-03-04T12:33:29Z</time><extensions><speed>0.114581</speed><course>0.265202</course><hAcc>1.759837</hAcc><vAcc>0.821319</vAcc></extensions></trkpt>
      <trkpt lon="-2.212970" lat="53.114855"><ele>334.144867</ele><time>2022-03-04T12:33:30Z</time><extensions><speed>0.259385</speed><course>2.699380</course><hAcc>1.749895</hAcc><vAcc>0.821968</vAcc></extensions></trkpt>
      <trkpt lon="-2.212969" lat="53.114857"><ele>334.248322</ele><time>2022-03-04T12:33:31Z</time><extensions><speed>0.318497</speed><course>14.739133</course><hAcc>1.749468</hAcc><vAcc>0.822576</vAcc></extensions></trkpt>
      <trkpt lon="-2.212968" lat="53.114861"><ele>334.347626</ele><time>2022-03-04T12:33:32Z</time><extensions><speed>0.473543</speed><course>17.388103</course><hAcc>1.739203</hAcc><vAcc>0.823124</vAcc></extensions></trkpt>
      <trkpt lon="-2.212965" lat="53.114866"><ele>334.434814</ele><time>2022-03-04T12:33:33Z</time><extensions><speed>0.701983</speed><course>16.761520</course><hAcc>1.731911</hAcc><vAcc>0.823606</vAcc></extensions></trkpt>
      <trkpt lon="-2.212963" lat="53.114872"><ele>334.531708</ele><time>2022-03-04T12:33:34Z</time><extensions><speed>0.729215</speed><course>10.339975</course><hAcc>1.731582</hAcc><vAcc>0.823992</vAcc></extensions></trkpt>
      <trkpt lon="-2.212962" lat="53.114877"><ele>334.624847</ele><time>2022-03-04T12:33:35Z</time><extensions><speed>0.440584</speed><course>356.157410</course><hAcc>1.724185</hAcc><vAcc>0.824292</vAcc></extensions></trkpt>
      <trkpt lon="-2.212964" lat="53.114879"><ele>334.694977</ele><time>2022-03-04T12:33:36Z</time><extensions><speed>0.220608</speed><course>301.502014</course><hAcc>1.703047</hAcc><vAcc>0.824519</vAcc></extensions></trkpt>
      <trkpt lon="-2.212967" lat="53.114880"><ele>334.763184</ele><time>2022-03-04T12:33:37Z</time><extensions><speed>0.274043</speed><course>265.053650</course><hAcc>1.677108</hAcc><vAcc>0.824665</vAcc></extensions></trkpt>
      <trkpt lon="-2.212971" lat="53.114880"><ele>334.805267</ele><time>2022-03-04T12:33:38Z</time><extensions><speed>0.281683</speed><course>256.168793</course><hAcc>1.677441</hAcc><vAcc>0.824738</vAcc></extensions></trkpt>
      <trkpt lon="-2.212974" lat="53.114879"><ele>334.866516</ele><time>2022-03-04T12:33:39Z</time><extensions><speed>0.182347</speed><course>252.874420</course><hAcc>1.713436</hAcc><vAcc>0.824769</vAcc></extensions></trkpt>
      <trkpt lon="-2.212977" lat="53.114878"><ele>334.902130</ele><time>2022-03-04T12:33:40Z</time><extensions><speed>0.160968</speed><course>249.918640</course><hAcc>1.698264</hAcc><vAcc>0.824756</vAcc></extensions></trkpt>
      <trkpt lon="-2.212979" lat="53.114878"><ele>334.944672</ele><time>2022-03-04T12:33:41Z</time><extensions><speed>0.122307</speed><course>245.392090</course><hAcc>1.681487</hAcc><vAcc>0.824763</vAcc></extensions></trkpt>
      <trkpt lon="-2.212980" lat="53.114878"><ele>334.989685</ele><time>2022-03-04T12:33:42Z</time><extensions><speed>0.087480</speed><course>237.313232</course><hAcc>1.667980</hAcc><vAcc>0.824800</vAcc></extensions></trkpt>
      <trkpt lon="-2.212980" lat="53.114877"><ele>335.027222</ele><time>2022-03-04T12:33:44Z</time><extensions><speed>0.037696</speed><course>217.942200</course><hAcc>1.681623</hAcc><vAcc>0.824865</vAcc></extensions></trkpt>
      <trkpt lon="-2.212980" lat="53.114877"><ele>335.048492</ele><time>2022-03-04T12:33:45Z</time><extensions><speed>0.028363</speed><course>98.933647</course><hAcc>1.707583</hAcc><vAcc>0.824948</vAcc></extensions></trkpt>
      <trkpt lon="-2.212979" lat="53.114877"><ele>335.086700</ele><time>2022-03-04T12:33:46Z</time><extensions><speed>0.093432</speed><course>76.299515</course><hAcc>1.700947</hAcc><vAcc>0.825102</vAcc></extensions></trkpt>
      <trkpt lon="-2.212977" lat="53.114878"><ele>335.118713</ele><time>2022-03-04T12:33:47Z</time><extensions><speed>0.177710</speed><course>72.603775</course><hAcc>1.675226</hAcc><vAcc>0.825287</vAcc></extensions></trkpt>
      <trkpt lon="-2.212974" lat="53.114878"><ele>335.129456</ele><time>2022-03-04T12:33:48Z</time><extensions><speed>0.247145</speed><course>71.547264</course><hAcc>1.655498</hAcc><vAcc>0.825511</vAcc></extensions></trkpt>
      <trkpt lon="-2.212970" lat="53.114879"><ele>335.128754</ele><time>2022-03-04T12:33:49Z</time><extensions><speed>0.286771</speed><course>70.207245</course><hAcc>1.638455</hAcc><vAcc>0.825754</vAcc></extensions></trkpt>
      <trkpt lon="-2.212966" lat="53.114880"><ele>335.134033</ele><time>2022-03-04T12:33:50Z</time><extensions><speed>0.283441</speed><course>68.407013</course><hAcc>1.640712</hAcc><vAcc>0.826009</vAcc></extensions></trkpt>
      <trkpt lon="-2.212963" lat="53.114881"><ele>335.115997</ele><time>2022-03-04T12:33:51Z</time><extensions><speed>0.181560</speed><course>66.131859</course><hAcc>1.685309</hAcc><vAcc>0.826260</vAcc></extensions></trkpt>
      <trkpt lon="-2.212961" lat="53.114882"><ele>335.100952</ele><time>2022-03-04T12:33:52Z</time><extensions><speed>0.207839</speed><course>61.820538</course><hAcc>1.686714</hAcc><vAcc>0.826488</vAcc></extensions></trkpt>
      <trkpt lon="-2.212957" lat="53.114883"><ele>335.079803</ele><time>2022-03-04T12:33:53Z</time><extensions><speed>0.305333</speed><course>56.705254</course><hAcc>1.674067</hAcc><vAcc>0.826667</vAcc></extensions></trkpt>
      <trkpt lon="-2.212952" lat="53.114885"><ele>335.039490</ele><time>2022-03-04T12:33:54Z</time><extensions><speed>0.607326</speed><course>52.521805</course><hAcc>1.641018</hAcc><vAcc>0.826801</vAcc></extensions></trkpt>
      <trkpt lon="-2.212944" lat="53.114889"><ele>334.976929</ele><time>2022-03-04T12:33:55Z</time><extensions><speed>0.689450</speed><course>44.500439</course><hAcc>1.664618</hAcc><vAcc>0.826853</vAcc></extensions></trkpt>
      <trkpt lon="-2.212937" lat="53.114894"><ele>334.923309</ele><time>2022-03-04T12:33:56Z</time><extensions><speed>0.713052</speed><course>39.353302</course><hAcc>1.695380</hAcc><vAcc>0.826831</vAcc></extensions></trkpt>
      <trkpt lon="-2.212931" lat="53.114899"><ele>334.869995</ele><time>2022-03-04T12:33:57Z</time><extensions><speed>0.661995</speed><course>34.822311</course><hAcc>1.717045</hAcc><vAcc>0.826747</vAcc></extensions></trkpt>
      <trkpt lon="-2.212926" lat="53.114904"><ele>334.806885</ele><time>2022-03-04T12:33:58Z</time><extensions><speed>0.655205</speed><course>31.250183</course><hAcc>1.723016</hAcc><vAcc>0.826623</vAcc></extensions></trkpt>
      <trkpt lon="-2.212921" lat="53.114909"><ele>334.763306</ele><time>2022-03-04T12:33:59Z</time><extensions><speed>0.726015</speed><course>28.544283</course><hAcc>1.719304</hAcc><vAcc>0.826494</vAcc></extensions></trkpt>
      <trkpt lon="-2.212916" lat="53.114915"><ele>334.717346</ele><time>2022-03-04T12:34:00Z</time><extensions><speed>0.835579</speed><course>26.032272</course><hAcc>1.718751</hAcc><vAcc>0.826351</vAcc></extensions></trkpt>
      <trkpt lon="-2.212910" lat="53.114923"><ele>334.680054</ele><time>2022-03-04T12:34:01Z</time><extensions><speed>0.937893</speed><course>23.596807</course><hAcc>1.716041</hAcc><vAcc>0.826236</vAcc></extensions></trkpt>
      <trkpt lon="-2.212904" lat="53.114931"><ele>334.629456</ele><time>2022-03-04T12:34:02Z</time><extensions><speed>0.978310</speed><course>22.239111</course><hAcc>1.711468</hAcc><vAcc>0.826132</vAcc></extensions></trkpt>
      <trkpt lon="-2.212899" lat="53.114939"><ele>334.577332</ele><time>2022-03-04T12:34:03Z</time><extensions><speed>0.940479</speed><course>22.203070</course><hAcc>1.707901</hAcc><vAcc>0.826042</vAcc></extensions></trkpt>
      <trkpt lon="-2.212894" lat="53.114946"><ele>334.542603</ele><time>2022-03-04T12:34:04Z</time><extensions><speed>0.866051</speed><course>20.320280</course><hAcc>1.708528</hAcc><vAcc>0.825974</vAcc></extensions></trkpt>
      <trkpt lon="-2.212890" lat="53.114953"><ele>334.490631</ele><time>2022-03-04T12:34:05Z</time><extensions><speed>0.723426</speed><course>16.255480</course><hAcc>1.705834</hAcc><vAcc>0.825928</vAcc></extensions></trkpt>
      <trkpt lon="-2.212888" lat="53.114959"><ele>334.455139</ele><time>2022-03-04T12:34:06Z</time><extensions><speed>0.617229</speed><course>12.935288</course><hAcc>1.706137</hAcc><vAcc>0.825906</vAcc></extensions></trkpt>
      <trkpt lon="-2.212886" lat="53.114964"><ele>334.420074</ele><time>2022-03-04T12:34:07Z</time><extensions><speed>0.570079</speed><course>10.386055</course><hAcc>1.715299</hAcc><vAcc>0.825932</vAcc></extensions></trkpt>
      <trkpt lon="-2.212885" lat="53.114969"><ele>334.386658</ele><time>2022-03-04T12:34:08Z</time><extensions><speed>0.499403</speed><course>6.968978</course><hAcc>1.712048</hAcc><vAcc>0.825963</vAcc></extensions></trkpt>
      <trkpt lon="-2.212884" lat="53.114973"><ele>334.359772</ele><time>2022-03-04T12:34:09Z</time><extensions><speed>0.383388</speed><course>2.135513</course><hAcc>1.710473</hAcc><vAcc>0.825999</vAcc></extensions></trkpt>
      <trkpt lon="-2.212884" lat="53.114976"><ele>334.321930</ele><time>2022-03-04T12:34:10Z</time><extensions><speed>0.262682</speed><course>352.883514</course><hAcc>1.699740</hAcc><vAcc>0.826033</vAcc></extensions></trkpt>
      <trkpt lon="-2.212885" lat="53.114978"><ele>334.287506</ele><time>2022-03-04T12:34:11Z</time><extensions><speed>0.254303</speed><course>348.723541</course><hAcc>1.677851</hAcc><vAcc>0.826051</vAcc></extensions></trkpt>
      <trkpt lon="-2.212886" lat="53.114981"><ele>334.255188</ele><time>2022-03-04T12:34:12Z</time><extensions><speed>0.278021</speed><course>350.327087</course><hAcc>1.660288</hAcc><vAcc>0.826033</vAcc></extensions></trkpt>
      <trkpt lon="-2.212886" lat="53.114983"><ele>334.215271</ele><time>2022-03-04T12:34:13Z</time><extensions><speed>0.284270</speed><course>353.917664</course><hAcc>1.658159</hAcc><vAcc>0.825945</vAcc></extensions></trkpt>
      <trkpt lon="-2.212887" lat="53.114986"><ele>334.168243</ele><time>2022-03-04T12:34:14Z</time><extensions><speed>0.371605</speed><course>356.997681</course><hAcc>1.651159</hAcc><vAcc>0.825824</vAcc></extensions></trkpt>
      <trkpt lon="-2.212887" lat="53.114988"><ele>334.123962</ele><time>2022-03-04T12:34:15Z</time><extensions><speed>0.182781</speed><course>356.557556</course><hAcc>1.693882</hAcc><vAcc>0.825670</vAcc></extensions></trkpt>
      <trkpt lon="-2.212887" lat="53.114990"><ele>334.071991</ele><time>2022-03-04T12:34:16Z</time><extensions><speed>0.246381</speed><course>356.563477</course><hAcc>1.681987</hAcc><vAcc>0.825479</vAcc></extensions></trkpt>
      <trkpt lon="-2.212888" lat="53.114994"><ele>334.013947</ele><time>2022-03-04T12:34:17Z</time><extensions><speed>0.544748</speed><course>356.551727</course><hAcc>1.634606</hAcc><vAcc>0.825219</vAcc></extensions></trkpt>
      <trkpt lon="-2.212888" lat="53.114999"><ele>333.958191</ele><time>2022-03-04T12:34:18Z</time><extensions><speed>0.662977</speed><course>355.875366</course><hAcc>1.648012</hAcc><vAcc>0.824920</vAcc></extensions></trkpt>
      <trkpt lon="-2.212889" lat="53.115005"><ele>333.906616</ele><time>2022-03-04T12:34:19Z</time><extensions><speed>0.708670</speed><course>354.599579</course><hAcc>1.690193</hAcc><vAcc>0.824577</vAcc></extensions></trkpt>
      <trkpt lon="-2.212890" lat="53.115012"><ele>333.861084</ele><time>2022-03-04T12:34:20Z</time><extensions><speed>0.667669</speed><course>353.447449</course><hAcc>1.715708</hAcc><vAcc>0.824241</vAcc></extensions></trkpt>
      <trkpt lon="-2.212891" lat="53.115016"><ele>333.812958</ele><time>2022-03-04T12:34:21Z</time><extensions><speed>0.418217</speed><course>352.408844</course><hAcc>1.723803</hAcc><vAcc>0.823881</vAcc></extensions></trkpt>
      <trkpt lon="-2.212892" lat="53.115019"><ele>333.763763</ele><time>2022-03-04T12:34:22Z</time><extensions><speed>0.162362</speed><course>340.415802</course><hAcc>1.732736</hAcc><vAcc>0.823530</vAcc></extensions></trkpt>
      <trkpt lon="-2.212893" lat="53.115020"><ele>333.716858</ele><time>2022-03-04T12:34:23Z</time><extensions><speed>0.084747</speed><course>308.278961</course><hAcc>1.741063</hAcc><vAcc>0.823215</vAcc></extensions></trkpt>
      <trkpt lon="-2.212894" lat="53.115020"><ele>333.679047</ele><time>2022-03-04T12:34:24Z</time><extensions><speed>0.093798</speed><course>296.677917</course><hAcc>1.747900</hAcc><vAcc>0.822941</vAcc></extensions></trkpt>
      <trkpt lon="-2.212895" lat="53.115021"><ele>333.635193</ele><time>2022-03-04T12:34:25Z</time><extensions><speed>0.130888</speed><course>306.364929</course><hAcc>1.753368</hAcc><vAcc>0.822701</vAcc></extensions></trkpt>
      <trkpt lon="-2.212897" lat="53.115021"><ele>333.589264</ele><time>2022-03-04T12:34:26Z</time><extensions><speed>0.062182</speed><course>238.612244</course><hAcc>1.761136</hAcc><vAcc>0.822523</vAcc></extensions></trkpt>
      <trkpt lon="-2.212897" lat="53.115021"><ele>333.549225</ele><time>2022-03-04T12:34:27Z</time><extensions><speed>0.092630</speed><course>195.528046</course><hAcc>1.757997</hAcc><vAcc>0.822425</vAcc></extensions></trkpt>
      <trkpt lon="-2.212897" lat="53.115020"><ele>333.492950</ele><time>2022-03-04T12:34:28Z</time><extensions><speed>0.098089</speed><course>186.909866</course><hAcc>1.757019</hAcc><vAcc>0.822381</vAcc></extensions></trkpt>
      <trkpt lon="-2.212898" lat="53.115019"><ele>333.428558</ele><time>2022-03-04T12:34:29Z</time><extensions><speed>0.074890</speed><course>186.093826</course><hAcc>1.756081</hAcc><vAcc>0.822401</vAcc></extensions></trkpt>
      <trkpt lon="-2.212898" lat="53.115018"><ele>333.372986</ele><time>2022-03-04T12:34:30Z</time><extensions><speed>0.048017</speed><course>187.487610</course><hAcc>1.748699</hAcc><vAcc>0.822478</vAcc></extensions></trkpt>
      <trkpt lon="-2.212898" lat="53.115018"><ele>333.310089</ele><time>2022-03-04T12:34:31Z</time><extensions><speed>0.025310</speed><course>198.120026</course><hAcc>1.743765</hAcc><vAcc>0.822592</vAcc></extensions></trkpt>
      <trkpt lon="-2.212898" lat="53.115018"><ele>333.222412</ele><time>2022-03-04T12:34:32Z</time><extensions><speed>0.017518</speed><course>274.902283</course><hAcc>1.741256</hAcc><vAcc>0.822714</vAcc></extensions></trkpt>
      <trkpt lon="-2.212898" lat="53.115018"><ele>333.091888</ele><time>2022-03-04T12:34:33Z</time><extensions><speed>0.048767</speed><course>314.542175</course><hAcc>1.745860</hAcc><vAcc>0.822847</vAcc></extensions></trkpt>
      <trkpt lon="-2.212899" lat="53.115019"><ele>332.966492</ele><time>2022-03-04T12:34:34Z</time><extensions><speed>0.102012</speed><course>324.537415</course><hAcc>1.748675</hAcc><vAcc>0.823001</vAcc></extensions></trkpt>
      <trkpt lon="-2.212900" lat="53.115020"><ele>332.858673</ele><time>2022-03-04T12:34:35Z</time><extensions><speed>0.194905</speed><course>329.669006</course><hAcc>1.734138</hAcc><vAcc>0.823155</vAcc></extensions></trkpt>
      <trkpt lon="-2.212902" lat="53.115022"><ele>332.742889</ele><time>2022-03-04T12:34:35Z</time><extensions><speed>0.329048</speed><course>332.574554</course><hAcc>1.718843</hAcc><vAcc>0.823328</vAcc></extensions></trkpt>
      <trkpt lon="-2.212905" lat="53.115025"><ele>332.618561</ele><time>2022-03-04T12:34:36Z</time><extensions><speed>0.530337</speed><course>333.903198</course><hAcc>1.712280</hAcc><vAcc>0.823484</vAcc></extensions></trkpt>
      <trkpt lon="-2.212909" lat="53.115030"><ele>332.505859</ele><time>2022-03-04T12:34:37Z</time><extensions><speed>0.621892</speed><course>335.534698</course><hAcc>1.722055</hAcc><vAcc>0.823638</vAcc></extensions></trkpt>
      <trkpt lon="-2.212912" lat="53.115036"><ele>332.390625</ele><time>2022-03-04T12:34:38Z</time><extensions><speed>0.687127</speed><course>339.932861</course><hAcc>1.720923</hAcc><vAcc>0.823787</vAcc></extensions></trkpt>
      <trkpt lon="-2.212916" lat="53.115042"><ele>332.274261</ele><time>2022-03-04T12:34:39Z</time><extensions><speed>0.770124</speed><course>342.541656</course><hAcc>1.715004</hAcc><vAcc>0.823922</vAcc></extensions></trkpt>
      <trkpt lon="-2.212920" lat="53.115048"><ele>332.140930</ele><time>2022-03-04T12:34:40Z</time><extensions><speed>0.775697</speed><course>339.872498</course><hAcc>1.709624</hAcc><vAcc>0.824041</vAcc></extensions></trkpt>
      <trkpt lon="-2.212924" lat="53.115055"><ele>332.017548</ele><time>2022-03-04T12:34:41Z</time><extensions><speed>0.786042</speed><course>333.757050</course><hAcc>1.707685</hAcc><vAcc>0.824154</vAcc></extensions></trkpt>
      <trkpt lon="-2.212930" lat="53.115061"><ele>331.890045</ele><time>2022-03-04T12:34:42Z</time><extensions><speed>0.812844</speed><course>329.210175</course><hAcc>1.708404</hAcc><vAcc>0.824256</vAcc></extensions></trkpt>
      <trkpt lon="-2.212936" lat="53.115067"><ele>331.771362</ele><time>2022-03-04T12:34:43Z</time><extensions><speed>0.796043</speed><course>329.851349</course><hAcc>1.710586</hAcc><vAcc>0.824340</vAcc></extensions></trkpt>
      <trkpt lon="-2.212941" lat="53.115073"><ele>331.650787</ele><time>2022-03-04T12:34:44Z</time><extensions><speed>0.727274</speed><course>334.322174</course><hAcc>1.712681</hAcc><vAcc>0.824393</vAcc></extensions></trkpt>
      <trkpt lon="-2.212945" lat="53.115079"><ele>331.518585</ele><time>2022-03-04T12:34:45Z</time><extensions><speed>0.698288</speed><course>341.740845</course><hAcc>1.706187</hAcc><vAcc>0.824434</vAcc></extensions></trkpt>
      <trkpt lon="-2.212948" lat="53.115085"><ele>331.388855</ele><time>2022-03-04T12:34:46Z</time><extensions><speed>0.683969</speed><course>347.973511</course><hAcc>1.710925</hAcc><vAcc>0.824453</vAcc></extensions></trkpt>
      <trkpt lon="-2.212950" lat="53.115092"><ele>331.276398</ele><time>2022-03-04T12:34:47Z</time><extensions><speed>0.712661</speed><course>348.564850</course><hAcc>1.719382</hAcc><vAcc>0.824450</vAcc></extensions></trkpt>
      <trkpt lon="-2.212953" lat="53.115098"><ele>331.134918</ele><time>2022-03-04T12:34:48Z</time><extensions><speed>0.680396</speed><course>340.351654</course><hAcc>1.716303</hAcc><vAcc>0.824408</vAcc></extensions></trkpt>
      <trkpt lon="-2.212957" lat="53.115103"><ele>330.988708</ele><time>2022-03-04T12:34:49Z</time><extensions><speed>0.693571</speed><course>329.535156</course><hAcc>1.725538</hAcc><vAcc>0.824354</vAcc></extensions></trkpt>
      <trkpt lon="-2.212964" lat="53.115108"><ele>330.829559</ele><time>2022-03-04T12:34:50Z</time><extensions><speed>0.725608</speed><course>320.947021</course><hAcc>1.729939</hAcc><vAcc>0.824311</vAcc></extensions></trkpt>
      <trkpt lon="-2.212971" lat="53.115113"><ele>330.661743</ele><time>2022-03-04T12:34:51Z</time><extensions><speed>0.676082</speed><course>313.480682</course><hAcc>1.732817</hAcc><vAcc>0.824272</vAcc></extensions></trkpt>
      <trkpt lon="-2.212978" lat="53.115117"><ele>330.487640</ele><time>2022-03-04T12:34:52Z</time><extensions><speed>0.548001</speed><course>309.103790</course><hAcc>1.729473</hAcc><vAcc>0.824241</vAcc></extensions></trkpt>
      <trkpt lon="-2.212983" lat="53.115119"><ele>330.307190</ele><time>2022-03-04T12:34:53Z</time><extensions><speed>0.421246</speed><course>310.896912</course><hAcc>1.728344</hAcc><vAcc>0.824210</vAcc></extensions></trkpt>
      <trkpt lon="-2.212988" lat="53.115122"><ele>330.129608</ele><time>2022-03-04T12:34:54Z</time><extensions><speed>0.517247</speed><course>315.660309</course><hAcc>1.717563</hAcc><vAcc>0.824185</vAcc></extensions></trkpt>
      <trkpt lon="-2.212994" lat="53.115126"><ele>329.955902</ele><time>2022-03-04T12:34:55Z</time><extensions><speed>0.554969</speed><course>320.368042</course><hAcc>1.732539</hAcc><vAcc>0.824173</vAcc></extensions></trkpt>
      <trkpt lon="-2.212999" lat="53.115129"><ele>329.782532</ele><time>2022-03-04T12:34:56Z</time><extensions><speed>0.457289</speed><course>310.494720</course><hAcc>1.732846</hAcc><vAcc>0.824170</vAcc></extensions></trkpt>
      <trkpt lon="-2.213004" lat="53.115131"><ele>329.612793</ele><time>2022-03-04T12:34:57Z</time><extensions><speed>0.349168</speed><course>296.320190</course><hAcc>1.729182</hAcc><vAcc>0.824158</vAcc></extensions></trkpt>
      <trkpt lon="-2.213009" lat="53.115133"><ele>329.436798</ele><time>2022-03-04T12:34:58Z</time><extensions><speed>0.464053</speed><course>289.415192</course><hAcc>1.714212</hAcc><vAcc>0.824170</vAcc></extensions></trkpt>
      <trkpt lon="-2.213017" lat="53.115134"><ele>329.234192</ele><time>2022-03-04T12:34:59Z</time><extensions><speed>0.557185</speed><course>290.743195</course><hAcc>1.709493</hAcc><vAcc>0.824196</vAcc></extensions></trkpt>
      <trkpt lon="-2.213025" lat="53.115137"><ele>329.049194</ele><time>2022-03-04T12:35:00Z</time><extensions><speed>0.604987</speed><course>298.217468</course><hAcc>1.705282</hAcc><vAcc>0.824232</vAcc></extensions></trkpt>
      <trkpt lon="-2.213033" lat="53.115140"><ele>328.882996</ele><time>2022-03-04T12:35:01Z</time><extensions><speed>0.730698</speed><course>306.662476</course><hAcc>1.701460</hAcc><vAcc>0.824263</vAcc></extensions></trkpt>
      <trkpt lon="-2.213041" lat="53.115144"><ele>328.718109</ele><time>2022-03-04T12:35:02Z</time><extensions><speed>0.782253</speed><course>315.226440</course><hAcc>1.697694</hAcc><vAcc>0.824292</vAcc></extensions></trkpt>
      <trkpt lon="-2.213049" lat="53.115150"><ele>328.543274</ele><time>2022-03-04T12:35:03Z</time><extensions><speed>0.743625</speed><course>323.484467</course><hAcc>1.697906</hAcc><vAcc>0.824306</vAcc></extensions></trkpt>
      <trkpt lon="-2.213055" lat="53.115155"><ele>328.372498</ele><time>2022-03-04T12:35:04Z</time><extensions><speed>0.635264</speed><course>329.184418</course><hAcc>1.706710</hAcc><vAcc>0.824307</vAcc></extensions></trkpt>
      <trkpt lon="-2.213059" lat="53.115159"><ele>328.203583</ele><time>2022-03-04T12:35:05Z</time><extensions><speed>0.442518</speed><course>327.797638</course><hAcc>1.725138</hAcc><vAcc>0.824333</vAcc></extensions></trkpt>
      <trkpt lon="-2.213064" lat="53.115163"><ele>328.028168</ele><time>2022-03-04T12:35:06Z</time><extensions><speed>0.680033</speed><course>324.121765</course><hAcc>1.689231</hAcc><vAcc>0.824353</vAcc></extensions></trkpt>
      <trkpt lon="-2.213071" lat="53.115168"><ele>327.848267</ele><time>2022-03-04T12:35:07Z</time><extensions><speed>0.809491</speed><course>319.522186</course><hAcc>1.696594</hAcc><vAcc>0.824383</vAcc></extensions></trkpt>
      <trkpt lon="-2.213079" lat="53.115174"><ele>327.678955</ele><time>2022-03-04T12:35:08Z</time><extensions><speed>0.834450</speed><course>315.797394</course><hAcc>1.719997</hAcc><vAcc>0.824441</vAcc></extensions></trkpt>
      <trkpt lon="-2.213088" lat="53.115179"><ele>327.523193</ele><time>2022-03-04T12:35:09Z</time><extensions><speed>0.773833</speed><course>308.183105</course><hAcc>1.725744</hAcc><vAcc>0.824523</vAcc></extensions></trkpt>
      <trkpt lon="-2.213097" lat="53.115183"><ele>327.363281</ele><time>2022-03-04T12:35:10Z</time><extensions><speed>0.786885</speed><course>303.437714</course><hAcc>1.723704</hAcc><vAcc>0.824616</vAcc></extensions></trkpt>
      <trkpt lon="-2.213107" lat="53.115186"><ele>327.233124</ele><time>2022-03-04T12:35:11Z</time><extensions><speed>0.790435</speed><course>297.698853</course><hAcc>1.720906</hAcc><vAcc>0.824709</vAcc></extensions></trkpt>
      <trkpt lon="-2.213118" lat="53.115189"><ele>327.098785</ele><time>2022-03-04T12:35:12Z</time><extensions><speed>0.753380</speed><course>288.958099</course><hAcc>1.717707</hAcc><vAcc>0.824810</vAcc></extensions></trkpt>
      <trkpt lon="-2.213129" lat="53.115191"><ele>326.964691</ele><time>2022-03-04T12:35:13Z</time><extensions><speed>0.826685</speed><course>284.057343</course><hAcc>1.724392</hAcc><vAcc>0.824910</vAcc></extensions></trkpt>
      <trkpt lon="-2.213142" lat="53.115193"><ele>326.830383</ele><time>2022-03-04T12:35:14Z</time><extensions><speed>0.955790</speed><course>283.244415</course><hAcc>1.728644</hAcc><vAcc>0.825011</vAcc></extensions></trkpt>
      <trkpt lon="-2.213157" lat="53.115195"><ele>326.697693</ele><time>2022-03-04T12:35:15Z</time><extensions><speed>1.066920</speed><course>284.104462</course><hAcc>1.725743</hAcc><vAcc>0.825107</vAcc></extensions></trkpt>
      <trkpt lon="-2.213172" lat="53.115198"><ele>326.577026</ele><time>2022-03-04T12:35:16Z</time><extensions><speed>1.018273</speed><course>286.670258</course><hAcc>1.727409</hAcc><vAcc>0.825196</vAcc></extensions></trkpt>
      <trkpt lon="-2.213186" lat="53.115200"><ele>326.473236</ele><time>2022-03-04T12:35:17Z</time><extensions><speed>0.952125</speed><course>288.693481</course><hAcc>1.726868</hAcc><vAcc>0.825270</vAcc></extensions></trkpt>
      <trkpt lon="-2.213200" lat="53.115203"><ele>326.379181</ele><time>2022-03-04T12:35:18Z</time><extensions><speed>1.014643</speed><course>290.643280</course><hAcc>1.720397</hAcc><vAcc>0.825327</vAcc></extensions></trkpt>
      <trkpt lon="-2.213214" lat="53.115207"><ele>326.297607</ele><time>2022-03-04T12:35:19Z</time><extensions><speed>1.018113</speed><course>292.788269</course><hAcc>1.716735</hAcc><vAcc>0.825371</vAcc></extensions></trkpt>
      <trkpt lon="-2.213226" lat="53.115210"><ele>326.214325</ele><time>2022-03-04T12:35:20Z</time><extensions><speed>0.905189</speed><course>296.269409</course><hAcc>1.715515</hAcc><vAcc>0.825392</vAcc></extensions></trkpt>
      <trkpt lon="-2.213238" lat="53.115214"><ele>326.147247</ele><time>2022-03-04T12:35:21Z</time><extensions><speed>0.883654</speed><course>300.972229</course><hAcc>1.710011</hAcc><vAcc>0.825391</vAcc></extensions></trkpt>
      <trkpt lon="-2.213248" lat="53.115219"><ele>326.051788</ele><time>2022-03-04T12:35:22Z</time><extensions><speed>0.833387</speed><course>308.412323</course><hAcc>1.699056</hAcc><vAcc>0.825381</vAcc></extensions></trkpt>
      <trkpt lon="-2.213257" lat="53.115224"><ele>325.989746</ele><time>2022-03-04T12:35:23Z</time><extensions><speed>0.817700</speed><course>322.552521</course><hAcc>1.695588</hAcc><vAcc>0.825361</vAcc></extensions></trkpt>
      <trkpt lon="-2.213263" lat="53.115231"><ele>325.935150</ele><time>2022-03-04T12:35:24Z</time><extensions><speed>0.901081</speed><course>343.433563</course><hAcc>1.698088</hAcc><vAcc>0.825331</vAcc></extensions></trkpt>
      <trkpt lon="-2.213265" lat="53.115240"><ele>325.889099</ele><time>2022-03-04T12:35:25Z</time><extensions><speed>1.125058</speed><course>357.183014</course><hAcc>1.691250</hAcc><vAcc>0.825313</vAcc></extensions></trkpt>
      <trkpt lon="-2.213263" lat="53.115250"><ele>325.853119</ele><time>2022-03-04T12:35:26Z</time><extensions><speed>1.272366</speed><course>10.629322</course><hAcc>1.686843</hAcc><vAcc>0.825292</vAcc></extensions></trkpt>
      <trkpt lon="-2.213258" lat="53.115261"><ele>325.827209</ele><time>2022-03-04T12:35:27Z</time><extensions><speed>1.304430</speed><course>24.021095</course><hAcc>1.684130</hAcc><vAcc>0.825281</vAcc></extensions></trkpt>
      <trkpt lon="-2.213248" lat="53.115272"><ele>325.804565</ele><time>2022-03-04T12:35:28Z</time><extensions><speed>1.328040</speed><course>32.371937</course><hAcc>1.683082</hAcc><vAcc>0.825297</vAcc></extensions></trkpt>
      <trkpt lon="-2.213237" lat="53.115281"><ele>325.794586</ele><time>2022-03-04T12:35:29Z</time><extensions><speed>1.321002</speed><course>37.099747</course><hAcc>1.682027</hAcc><vAcc>0.825350</vAcc></extensions></trkpt>
      <trkpt lon="-2.213225" lat="53.115291"><ele>325.784729</ele><time>2022-03-04T12:35:30Z</time><extensions><speed>1.290519</speed><course>40.201340</course><hAcc>1.679992</hAcc><vAcc>0.825406</vAcc></extensions></trkpt>
      <trkpt lon="-2.213212" lat="53.115299"><ele>325.789856</ele><time>2022-03-04T12:35:31Z</time><extensions><speed>1.193119</speed><course>41.889580</course><hAcc>1.678277</hAcc><vAcc>0.825489</vAcc></extensions></trkpt>
      <trkpt lon="-2.213201" lat="53.115306"><ele>325.785187</ele><time>2022-03-04T12:35:32Z</time><extensions><speed>1.103966</speed><course>42.629242</course><hAcc>1.676903</hAcc><vAcc>0.825576</vAcc></extensions></trkpt>
      <trkpt lon="-2.213190" lat="53.115314"><ele>325.794403</ele><time>2022-03-04T12:35:33Z</time><extensions><speed>1.136492</speed><course>40.408791</course><hAcc>1.680449</hAcc><vAcc>0.825684</vAcc></extensions></trkpt>
      <trkpt lon="-2.213178" lat="53.115322"><ele>325.812073</ele><time>2022-03-04T12:35:34Z</time><extensions><speed>1.154102</speed><course>42.557365</course><hAcc>1.677239</hAcc><vAcc>0.825774</vAcc></extensions></trkpt>
      <trkpt lon="-2.213167" lat="53.115329"><ele>325.835571</ele><time>2022-03-04T12:35:35Z</time><extensions><speed>1.104501</speed><course>44.904209</course><hAcc>1.678708</hAcc><vAcc>0.825820</vAcc></extensions></trkpt>
      <trkpt lon="-2.213155" lat="53.115336"><ele>325.862427</ele><time>2022-03-04T12:35:36Z</time><extensions><speed>1.076166</speed><course>48.385323</course><hAcc>1.669054</hAcc><vAcc>0.825815</vAcc></extensions></trkpt>
      <trkpt lon="-2.213142" lat="53.115342"><ele>325.891663</ele><time>2022-03-04T12:35:37Z</time><extensions><speed>1.128381</speed><course>54.631607</course><hAcc>1.662068</hAcc><vAcc>0.825769</vAcc></extensions></trkpt>
      <trkpt lon="-2.213128" lat="53.115347"><ele>325.922424</ele><time>2022-03-04T12:35:38Z</time><extensions><speed>1.075513</speed><course>59.006905</course><hAcc>1.672617</hAcc><vAcc>0.825712</vAcc></extensions></trkpt>
      <trkpt lon="-2.213115" lat="53.115352"><ele>325.954681</ele><time>2022-03-04T12:35:39Z</time><extensions><speed>0.968148</speed><course>61.175205</course><hAcc>1.700447</hAcc><vAcc>0.825608</vAcc></extensions></trkpt>
      <trkpt lon="-2.213103" lat="53.115354"><ele>325.987915</ele><time>2022-03-04T12:35:40Z</time><extensions><speed>0.696180</speed><course>81.885315</course><hAcc>1.692782</hAcc><vAcc>0.825457</vAcc></extensions></trkpt>
      <trkpt lon="-2.213095" lat="53.115354"><ele>326.015625</ele><time>2022-03-04T12:35:41Z</time><extensions><speed>0.453847</speed><course>105.124512</course><hAcc>1.697397</hAcc><vAcc>0.825256</vAcc></extensions></trkpt>
      <trkpt lon="-2.213090" lat="53.115353"><ele>326.039429</ele><time>2022-03-04T12:35:42Z</time><extensions><speed>0.303036</speed><course>120.629753</course><hAcc>1.702912</hAcc><vAcc>0.824985</vAcc></extensions></trkpt>
      <trkpt lon="-2.213087" lat="53.115352"><ele>326.058136</ele><time>2022-03-04T12:35:43Z</time><extensions><speed>0.220358</speed><course>134.662048</course><hAcc>1.717278</hAcc><vAcc>0.824670</vAcc></extensions></trkpt>
      <trkpt lon="-2.213085" lat="53.115350"><ele>326.074646</ele><time>2022-03-04T12:35:44Z</time><extensions><speed>0.178546</speed><course>147.127441</course><hAcc>1.729058</hAcc><vAcc>0.824322</vAcc></extensions></trkpt>
      <trkpt lon="-2.213084" lat="53.115349"><ele>326.085968</ele><time>2022-03-04T12:35:45Z</time><extensions><speed>0.154846</speed><course>157.845032</course><hAcc>1.734715</hAcc><vAcc>0.823964</vAcc></extensions></trkpt>
      <trkpt lon="-2.213083" lat="53.115348"><ele>326.093170</ele><time>2022-03-04T12:35:46Z</time><extensions><speed>0.138728</speed><course>167.011963</course><hAcc>1.736710</hAcc><vAcc>0.823624</vAcc></extensions></trkpt>
      <trkpt lon="-2.213083" lat="53.115346"><ele>326.106049</ele><time>2022-03-04T12:35:47Z</time><extensions><speed>0.130830</speed><course>174.632507</course><hAcc>1.733717</hAcc><vAcc>0.823328</vAcc></extensions></trkpt>
      <trkpt lon="-2.213083" lat="53.115345"><ele>326.114441</ele><time>2022-03-04T12:35:48Z</time><extensions><speed>0.126498</speed><course>179.843796</course><hAcc>1.728089</hAcc><vAcc>0.823054</vAcc></extensions></trkpt>
      <trkpt lon="-2.213083" lat="53.115344"><ele>326.119324</ele><time>2022-03-04T12:35:50Z</time><extensions><speed>0.107728</speed><course>182.464096</course><hAcc>1.734762</hAcc><vAcc>0.822805</vAcc></extensions></trkpt>
      <trkpt lon="-2.213083" lat="53.115343"><ele>326.121704</ele><time>2022-03-04T12:35:51Z</time><extensions><speed>0.062772</speed><course>183.668518</course><hAcc>1.757920</hAcc><vAcc>0.822562</vAcc></extensions></trkpt>
      <trkpt lon="-2.213083" lat="53.115343"><ele>326.122040</ele><time>2022-03-04T12:35:52Z</time><extensions><speed>0.042369</speed><course>188.895462</course><hAcc>1.734803</hAcc><vAcc>0.822342</vAcc></extensions></trkpt>
      <trkpt lon="-2.213083" lat="53.115343"><ele>326.121857</ele><time>2022-03-04T12:35:53Z</time><extensions><speed>0.017558</speed><course>220.007324</course><hAcc>1.725635</hAcc><vAcc>0.822150</vAcc></extensions></trkpt>
      <trkpt lon="-2.213083" lat="53.115343"><ele>326.115662</ele><time>2022-03-04T12:35:54Z</time><extensions><speed>0.023484</speed><course>320.035858</course><hAcc>1.732903</hAcc><vAcc>0.821993</vAcc></extensions></trkpt>
      <trkpt lon="-2.213083" lat="53.115343"><ele>326.109436</ele><time>2022-03-04T12:35:55Z</time><extensions><speed>0.052286</speed><course>336.379059</course><hAcc>1.741161</hAcc><vAcc>0.821856</vAcc></extensions></trkpt>
      <trkpt lon="-2.213084" lat="53.115344"><ele>326.104523</ele><time>2022-03-04T12:35:56Z</time><extensions><speed>0.076469</speed><course>336.350830</course><hAcc>1.744772</hAcc><vAcc>0.821744</vAcc></extensions></trkpt>
      <trkpt lon="-2.213084" lat="53.115344"><ele>326.099670</ele><time>2022-03-04T12:35:57Z</time><extensions><speed>0.093208</speed><course>334.056122</course><hAcc>1.743822</hAcc><vAcc>0.821644</vAcc></extensions></trkpt>
      <trkpt lon="-2.213085" lat="53.115345"><ele>326.090332</ele><time>2022-03-04T12:35:58Z</time><extensions><speed>0.096483</speed><course>331.940826</course><hAcc>1.736802</hAcc><vAcc>0.821552</vAcc></extensions></trkpt>
      <trkpt lon="-2.213086" lat="53.115346"><ele>326.076782</ele><time>2022-03-04T12:35:59Z</time><extensions><speed>0.084977</speed><course>329.625763</course><hAcc>1.728377</hAcc><vAcc>0.821459</vAcc></extensions></trkpt>
      <trkpt lon="-2.213086" lat="53.115346"><ele>326.063721</ele><time>2022-03-04T12:36:00Z</time><extensions><speed>0.068075</speed><course>327.951599</course><hAcc>1.735830</hAcc><vAcc>0.821376</vAcc></extensions></trkpt>
      <trkpt lon="-2.213087" lat="53.115347"><ele>326.047668</ele><time>2022-03-04T12:36:01Z</time><extensions><speed>0.048681</speed><course>328.626617</course><hAcc>1.758601</hAcc><vAcc>0.821284</vAcc></extensions></trkpt>
      <trkpt lon="-2.213087" lat="53.115347"><ele>326.027313</ele><time>2022-03-04T12:36:02Z</time><extensions><speed>0.053693</speed><course>331.891846</course><hAcc>1.736617</hAcc><vAcc>0.821174</vAcc></extensions></trkpt>
      <trkpt lon="-2.213087" lat="53.115348"><ele>326.008331</ele><time>2022-03-04T12:36:03Z</time><extensions><speed>0.055605</speed><course>337.784088</course><hAcc>1.725676</hAcc><vAcc>0.821035</vAcc></extensions></trkpt>
      <trkpt lon="-2.213088" lat="53.115348"><ele>325.997131</ele><time>2022-03-04T12:36:04Z</time><extensions><speed>0.059470</speed><course>344.328156</course><hAcc>1.728094</hAcc><vAcc>0.820941</vAcc></extensions></trkpt>
      <trkpt lon="-2.213088" lat="53.115349"><ele>325.984344</ele><time>2022-03-04T12:36:05Z</time><extensions><speed>0.065292</speed><course>346.804535</course><hAcc>1.733438</hAcc><vAcc>0.820858</vAcc></extensions></trkpt>
      <trkpt lon="-2.213088" lat="53.115349"><ele>325.973969</ele><time>2022-03-04T12:36:06Z</time><extensions><speed>0.066589</speed><course>347.239532</course><hAcc>1.736910</hAcc><vAcc>0.820796</vAcc></extensions></trkpt>
      <trkpt lon="-2.213088" lat="53.115350"><ele>325.970734</ele><time>2022-03-04T12:36:07Z</time><extensions><speed>0.067237</speed><course>348.052368</course><hAcc>1.727757</hAcc><vAcc>0.820765</vAcc></extensions></trkpt>
      <trkpt lon="-2.213088" lat="53.115351"><ele>325.967834</ele><time>2022-03-04T12:36:08Z</time><extensions><speed>0.059138</speed><course>350.616791</course><hAcc>1.717808</hAcc><vAcc>0.820785</vAcc></extensions></trkpt>
      <trkpt lon="-2.213088" lat="53.115351"><ele>325.971497</ele><time>2022-03-04T12:36:09Z</time><extensions><speed>0.038761</speed><course>358.902130</course><hAcc>1.729133</hAcc><vAcc>0.820853</vAcc></extensions></trkpt>
      <trkpt lon="-2.213088" lat="53.115351"><ele>325.978455</ele><time>2022-03-04T12:36:10Z</time><extensions><speed>0.017354</speed><course>33.503483</course><hAcc>1.758193</hAcc><vAcc>0.820986</vAcc></extensions></trkpt>
      <trkpt lon="-2.213088" lat="53.115351"><ele>325.988922</ele><time>2022-03-04T12:36:11Z</time><extensions><speed>0.026654</speed><course>65.538902</course><hAcc>1.730258</hAcc><vAcc>0.821182</vAcc></extensions></trkpt>
      <trkpt lon="-2.213088" lat="53.115352"><ele>326.002960</ele><time>2022-03-04T12:36:12Z</time><extensions><speed>0.041833</speed><course>50.011967</course><hAcc>1.715399</hAcc><vAcc>0.821429</vAcc></extensions></trkpt>
      <trkpt lon="-2.213087" lat="53.115352"><ele>326.020325</ele><time>2022-03-04T12:36:13Z</time><extensions><speed>0.062504</speed><course>29.458908</course><hAcc>1.719242</hAcc><vAcc>0.821750</vAcc></extensions></trkpt>
      <trkpt lon="-2.213087" lat="53.115353"><ele>326.040680</ele><time>2022-03-04T12:36:14Z</time><extensions><speed>0.082302</speed><course>16.283648</course><hAcc>1.718705</hAcc><vAcc>0.822127</vAcc></extensions></trkpt>
      <trkpt lon="-2.213087" lat="53.115353"><ele>326.063324</ele><time>2022-03-04T12:36:15Z</time><extensions><speed>0.095117</speed><course>9.063716</course><hAcc>1.701455</hAcc><vAcc>0.822542</vAcc></extensions></trkpt>
      <trkpt lon="-2.213086" lat="53.115354"><ele>326.087616</ele><time>2022-03-04T12:36:16Z</time><extensions><speed>0.098500</speed><course>5.666455</course><hAcc>1.671947</hAcc><vAcc>0.822985</vAcc></extensions></trkpt>
      <trkpt lon="-2.213086" lat="53.115355"><ele>326.112854</ele><time>2022-03-04T12:36:17Z</time><extensions><speed>0.085111</speed><course>3.796348</course><hAcc>1.653315</hAcc><vAcc>0.823440</vAcc></extensions></trkpt>
      <trkpt lon="-2.213086" lat="53.115356"><ele>326.138306</ele><time>2022-03-04T12:36:18Z</time><extensions><speed>0.053586</speed><course>1.960899</course><hAcc>1.661267</hAcc><vAcc>0.823889</vAcc></extensions></trkpt>
      <trkpt lon="-2.213086" lat="53.115356"><ele>326.163361</ele><time>2022-03-04T12:36:19Z</time><extensions><speed>0.038596</speed><course>359.971069</course><hAcc>1.654198</hAcc><vAcc>0.824323</vAcc></extensions></trkpt>
      <trkpt lon="-2.213086" lat="53.115356"><ele>326.187469</ele><time>2022-03-04T12:36:20Z</time><extensions><speed>0.025442</speed><course>358.929962</course><hAcc>1.663563</hAcc><vAcc>0.824730</vAcc></extensions></trkpt>
      <trkpt lon="-2.213086" lat="53.115356"><ele>326.210236</ele><time>2022-03-04T12:36:21Z</time><extensions><speed>0.015574</speed><course>358.324493</course><hAcc>1.679632</hAcc><vAcc>0.825101</vAcc></extensions></trkpt>
      <trkpt lon="-2.213086" lat="53.115357"><ele>326.231354</ele><time>2022-03-04T12:36:22Z</time><extensions><speed>0.018813</speed><course>358.036072</course><hAcc>1.644706</hAcc><vAcc>0.825428</vAcc></extensions></trkpt>
      <trkpt lon="-2.213086" lat="53.115357"><ele>326.250671</ele><time>2022-03-04T12:36:23Z</time><extensions><speed>0.016533</speed><course>357.940674</course><hAcc>1.651139</hAcc><vAcc>0.825732</vAcc></extensions></trkpt>
      <trkpt lon="-2.213086" lat="53.115357"><ele>326.268066</ele><time>2022-03-04T12:36:24Z</time><extensions><speed>0.012866</speed><course>357.891510</course><hAcc>1.681854</hAcc><vAcc>0.825996</vAcc></extensions></trkpt>
      <trkpt lon="-2.213086" lat="53.115357"><ele>326.283539</ele><time>2022-03-04T12:36:25Z</time><extensions><speed>0.009364</speed><course>357.860779</course><hAcc>1.707101</hAcc><vAcc>0.826235</vAcc></extensions></trkpt>
      <trkpt lon="-2.213086" lat="53.115357"><ele>326.297150</ele><time>2022-03-04T12:36:26Z</time><extensions><speed>0.006422</speed><course>357.839111</course><hAcc>1.721139</hAcc><vAcc>0.826449</vAcc></extensions></trkpt>
      <trkpt lon="-2.213086" lat="53.115357"><ele>326.308929</ele><time>2022-03-04T12:36:27Z</time><extensions><speed>0.004231</speed><course>357.822296</course><hAcc>1.723777</hAcc><vAcc>0.826620</vAcc></extensions></trkpt>
      <trkpt lon="-2.213086" lat="53.115357"><ele>326.319000</ele><time>2022-03-04T12:36:28Z</time><extensions><speed>0.002701</speed><course>357.808350</course><hAcc>1.716745</hAcc><vAcc>0.826769</vAcc></extensions></trkpt>
      <trkpt lon="-2.213086" lat="53.115357"><ele>326.346649</ele><time>2022-03-04T12:36:29Z</time><extensions><speed>0.005101</speed><course>11.377455</course><hAcc>1.702586</hAcc><vAcc>0.826892</vAcc></extensions></trkpt>
      <trkpt lon="-2.213086" lat="53.115357"><ele>326.374603</ele><time>2022-03-04T12:36:30Z</time><extensions><speed>0.006730</speed><course>17.312601</course><hAcc>1.687658</hAcc><vAcc>0.826952</vAcc></extensions></trkpt>
      <trkpt lon="-2.213086" lat="53.115357"><ele>326.406525</ele><time>2022-03-04T12:36:31Z</time><extensions><speed>0.008204</speed><course>15.496291</course><hAcc>1.671712</hAcc><vAcc>0.826917</vAcc></extensions></trkpt>
      <trkpt lon="-2.213086" lat="53.115357"><ele>326.434479</ele><time>2022-03-04T12:36:32Z</time><extensions><speed>0.009635</speed><course>11.234800</course><hAcc>1.660928</hAcc><vAcc>0.826848</vAcc></extensions></trkpt>
      <trkpt lon="-2.213086" lat="53.115358"><ele>326.461365</ele><time>2022-03-04T12:36:33Z</time><extensions><speed>0.011449</speed><course>8.112133</course><hAcc>1.649840</hAcc><vAcc>0.826732</vAcc></extensions></trkpt>
      <trkpt lon="-2.213086" lat="53.115358"><ele>326.486938</ele><time>2022-03-04T12:36:34Z</time><extensions><speed>0.013056</speed><course>6.419594</course><hAcc>1.658176</hAcc><vAcc>0.826562</vAcc></extensions></trkpt>
      <trkpt lon="-2.213086" lat="53.115358"><ele>326.507996</ele><time>2022-03-04T12:36:35Z</time><extensions><speed>0.016522</speed><course>5.126077</course><hAcc>1.673080</hAcc><vAcc>0.826341</vAcc></extensions></trkpt>
      <trkpt lon="-2.213086" lat="53.115358"><ele>326.527740</ele><time>2022-03-04T12:36:36Z</time><extensions><speed>0.024239</speed><course>3.808620</course><hAcc>1.677091</hAcc><vAcc>0.826050</vAcc></extensions></trkpt>
      <trkpt lon="-2.213086" lat="53.115358"><ele>326.540253</ele><time>2022-03-04T12:36:37Z</time><extensions><speed>0.040855</speed><course>1.329076</course><hAcc>1.658786</hAcc><vAcc>0.825687</vAcc></extensions></trkpt>
      <trkpt lon="-2.213086" lat="53.115359"><ele>326.549805</ele><time>2022-03-04T12:36:38Z</time><extensions><speed>0.045709</speed><course>356.360077</course><hAcc>1.674055</hAcc><vAcc>0.825300</vAcc></extensions></trkpt>
      <trkpt lon="-2.213086" lat="53.115359"><ele>326.557556</ele><time>2022-03-04T12:36:39Z</time><extensions><speed>0.032833</speed><course>335.820892</course><hAcc>1.703851</hAcc><vAcc>0.824867</vAcc></extensions></trkpt>
      <trkpt lon="-2.213086" lat="53.115359"><ele>326.562958</ele><time>2022-03-04T12:36:40Z</time><extensions><speed>0.026170</speed><course>276.626923</course><hAcc>1.727790</hAcc><vAcc>0.824417</vAcc></extensions></trkpt>
      <trkpt lon="-2.213087" lat="53.115359"><ele>326.566071</ele><time>2022-03-04T12:36:41Z</time><extensions><speed>0.030346</speed><course>240.934235</course><hAcc>1.740976</hAcc><vAcc>0.823962</vAcc></extensions></trkpt>
      <trkpt lon="-2.213087" lat="53.115359"><ele>326.563019</ele><time>2022-03-04T12:36:42Z</time><extensions><speed>0.018896</speed><course>197.378738</course><hAcc>1.750231</hAcc><vAcc>0.823518</vAcc></extensions></trkpt>
      <trkpt lon="-2.213087" lat="53.115359"><ele>326.565033</ele><time>2022-03-04T12:36:43Z</time><extensions><speed>0.035445</speed><course>92.397964</course><hAcc>1.754462</hAcc><vAcc>0.823110</vAcc></extensions></trkpt>
      <trkpt lon="-2.213086" lat="53.115359"><ele>326.556793</ele><time>2022-03-04T12:36:43Z</time><extensions><speed>0.094199</speed><course>70.300835</course><hAcc>1.758194</hAcc><vAcc>0.822732</vAcc></extensions></trkpt>
      <trkpt lon="-2.213084" lat="53.115360"><ele>326.552887</ele><time>2022-03-04T12:36:44Z</time><extensions><speed>0.162110</speed><course>64.283485</course><hAcc>1.761448</hAcc><vAcc>0.822420</vAcc></extensions></trkpt>
      <trkpt lon="-2.213081" lat="53.115361"><ele>326.547516</ele><time>2022-03-04T12:36:45Z</time><extensions><speed>0.237218</speed><course>61.669682</course><hAcc>1.760169</hAcc><vAcc>0.822156</vAcc></extensions></trkpt>
      <trkpt lon="-2.213077" lat="53.115362"><ele>326.541656</ele><time>2022-03-04T12:36:46Z</time><extensions><speed>0.319997</speed><course>59.711590</course><hAcc>1.758749</hAcc><vAcc>0.821948</vAcc></extensions></trkpt>
      <trkpt lon="-2.213073" lat="53.115364"><ele>326.534637</ele><time>2022-03-04T12:36:47Z</time><extensions><speed>0.407559</speed><course>57.971397</course><hAcc>1.760167</hAcc><vAcc>0.821817</vAcc></extensions></trkpt>
      <trkpt lon="-2.213067" lat="53.115366"><ele>326.523865</ele><time>2022-03-04T12:36:48Z</time><extensions><speed>0.505238</speed><course>56.457272</course><hAcc>1.759982</hAcc><vAcc>0.821752</vAcc></extensions></trkpt>
      <trkpt lon="-2.213060" lat="53.115369"><ele>326.514343</ele><time>2022-03-04T12:36:49Z</time><extensions><speed>0.600133</speed><course>54.877041</course><hAcc>1.759736</hAcc><vAcc>0.821727</vAcc></extensions></trkpt>
      <trkpt lon="-2.213052" lat="53.115372"><ele>326.505219</ele><time>2022-03-04T12:36:50Z</time><extensions><speed>0.683290</speed><course>53.010227</course><hAcc>1.759932</hAcc><vAcc>0.821747</vAcc></extensions></trkpt>
      <trkpt lon="-2.213044" lat="53.115376"><ele>326.493011</ele><time>2022-03-04T12:36:51Z</time><extensions><speed>0.743695</speed><course>51.219387</course><hAcc>1.760436</hAcc><vAcc>0.821809</vAcc></extensions></trkpt>
      <trkpt lon="-2.213035" lat="53.115381"><ele>326.479553</ele><time>2022-03-04T12:36:52Z</time><extensions><speed>0.785530</speed><course>49.495941</course><hAcc>1.758301</hAcc><vAcc>0.821900</vAcc></extensions></trkpt>
      <trkpt lon="-2.213026" lat="53.115385"><ele>326.462646</ele><time>2022-03-04T12:36:53Z</time><extensions><speed>0.801026</speed><course>47.210247</course><hAcc>1.754949</hAcc><vAcc>0.822004</vAcc></extensions></trkpt>
      <trkpt lon="-2.213017" lat="53.115390"><ele>326.440857</ele><time>2022-03-04T12:36:54Z</time><extensions><speed>0.777812</speed><course>44.591244</course><hAcc>1.754142</hAcc><vAcc>0.822118</vAcc></extensions></trkpt>
      <trkpt lon="-2.213010" lat="53.115395"><ele>326.420776</ele><time>2022-03-04T12:36:55Z</time><extensions><speed>0.722045</speed><course>42.104206</course><hAcc>1.755148</hAcc><vAcc>0.822221</vAcc></extensions></trkpt>
      <trkpt lon="-2.213003" lat="53.115400"><ele>326.400330</ele><time>2022-03-04T12:36:56Z</time><extensions><speed>0.666121</speed><course>40.027409</course><hAcc>1.754625</hAcc><vAcc>0.822317</vAcc></extensions></trkpt>
      <trkpt lon="-2.212997" lat="53.115404"><ele>326.374756</ele><time>2022-03-04T12:36:57Z</time><extensions><speed>0.606479</speed><course>38.692795</course><hAcc>1.754910</hAcc><vAcc>0.822397</vAcc></extensions></trkpt>
      <trkpt lon="-2.212991" lat="53.115408"><ele>326.345184</ele><time>2022-03-04T12:36:58Z</time><extensions><speed>0.561249</speed><course>37.924259</course><hAcc>1.753230</hAcc><vAcc>0.822474</vAcc></extensions></trkpt>
      <trkpt lon="-2.212987" lat="53.115412"><ele>326.314697</ele><time>2022-03-04T12:36:59Z</time><extensions><speed>0.521968</speed><course>36.983765</course><hAcc>1.752362</hAcc><vAcc>0.822525</vAcc></extensions></trkpt>
      <trkpt lon="-2.212982" lat="53.115416"><ele>326.284210</ele><time>2022-03-04T12:37:00Z</time><extensions><speed>0.480926</speed><course>35.655842</course><hAcc>1.753683</hAcc><vAcc>0.822559</vAcc></extensions></trkpt>
      <trkpt lon="-2.212978" lat="53.115419"><ele>326.250519</ele><time>2022-03-04T12:37:01Z</time><extensions><speed>0.432126</speed><course>34.145985</course><hAcc>1.755985</hAcc><vAcc>0.822591</vAcc></extensions></trkpt>
      <trkpt lon="-2.212975" lat="53.115422"><ele>326.220642</ele><time>2022-03-04T12:37:02Z</time><extensions><speed>0.391278</speed><course>32.356926</course><hAcc>1.755512</hAcc><vAcc>0.822638</vAcc></extensions></trkpt>
      <trkpt lon="-2.212972" lat="53.115425"><ele>326.180176</ele><time>2022-03-04T12:37:03Z</time><extensions><speed>0.349291</speed><course>30.309811</course><hAcc>1.755927</hAcc><vAcc>0.822686</vAcc></extensions></trkpt>
      <trkpt lon="-2.212969" lat="53.115428"><ele>326.153748</ele><time>2022-03-04T12:37:04Z</time><extensions><speed>0.297743</speed><course>28.106506</course><hAcc>1.758050</hAcc><vAcc>0.822747</vAcc></extensions></trkpt>
      <trkpt lon="-2.212968" lat="53.115430"><ele>326.130585</ele><time>2022-03-04T12:37:05Z</time><extensions><speed>0.233044</speed><course>27.280451</course><hAcc>1.760025</hAcc><vAcc>0.822834</vAcc></extensions></trkpt>
      <trkpt lon="-2.212966" lat="53.115432"><ele>326.099915</ele><time>2022-03-04T12:37:06Z</time><extensions><speed>0.178505</speed><course>31.938229</course><hAcc>1.758147</hAcc><vAcc>0.822929</vAcc></extensions></trkpt>
      <trkpt lon="-2.212964" lat="53.115433"><ele>326.072845</ele><time>2022-03-04T12:37:07Z</time><extensions><speed>0.157340</speed><course>47.248798</course><hAcc>1.758420</hAcc><vAcc>0.823021</vAcc></extensions></trkpt>
      <trkpt lon="-2.212962" lat="53.115434"><ele>326.044983</ele><time>2022-03-04T12:37:08Z</time><extensions><speed>0.191911</speed><course>65.103165</course><hAcc>1.762262</hAcc><vAcc>0.823129</vAcc></extensions></trkpt>
      <trkpt lon="-2.212959" lat="53.115434"><ele>326.029388</ele><time>2022-03-04T12:37:09Z</time><extensions><speed>0.271724</speed><course>76.201675</course><hAcc>1.765655</hAcc><vAcc>0.823233</vAcc></extensions></trkpt>
      <trkpt lon="-2.212954" lat="53.115435"><ele>326.026733</ele><time>2022-03-04T12:37:10Z</time><extensions><speed>0.381544</speed><course>83.747444</course><hAcc>1.765772</hAcc><vAcc>0.823345</vAcc></extensions></trkpt>
      <trkpt lon="-2.212947" lat="53.115435"><ele>326.035614</ele><time>2022-03-04T12:37:11Z</time><extensions><speed>0.532458</speed><course>91.079292</course><hAcc>1.756821</hAcc><vAcc>0.823447</vAcc></extensions></trkpt>
      <trkpt lon="-2.212938" lat="53.115434"><ele>326.058533</ele><time>2022-03-04T12:37:12Z</time><extensions><speed>0.767810</speed><course>98.707672</course><hAcc>1.744246</hAcc><vAcc>0.823572</vAcc></extensions></trkpt>
      <trkpt lon="-2.212925" lat="53.115433"><ele>326.098145</ele><time>2022-03-04T12:37:13Z</time><extensions><speed>0.922442</speed><course>100.237610</course><hAcc>1.755812</hAcc><vAcc>0.823702</vAcc></extensions></trkpt>
      <trkpt lon="-2.212910" lat="53.115432"><ele>326.135040</ele><time>2022-03-04T12:37:14Z</time><extensions><speed>1.094583</speed><course>99.124756</course><hAcc>1.755745</hAcc><vAcc>0.823866</vAcc></extensions></trkpt>
      <trkpt lon="-2.212894" lat="53.115430"><ele>326.189728</ele><time>2022-03-04T12:37:15Z</time><extensions><speed>1.105252</speed><course>95.546135</course><hAcc>1.749130</hAcc><vAcc>0.824002</vAcc></extensions></trkpt>
      <trkpt lon="-2.212878" lat="53.115430"><ele>326.244202</ele><time>2022-03-04T12:37:16Z</time><extensions><speed>1.083315</speed><course>91.373352</course><hAcc>1.740329</hAcc><vAcc>0.824138</vAcc></extensions></trkpt>
      <trkpt lon="-2.212861" lat="53.115430"><ele>326.312836</ele><time>2022-03-04T12:37:17Z</time><extensions><speed>1.076688</speed><course>88.211311</course><hAcc>1.735156</hAcc><vAcc>0.824276</vAcc></extensions></trkpt>
      <trkpt lon="-2.212845" lat="53.115431"><ele>326.382477</ele><time>2022-03-04T12:37:18Z</time><extensions><speed>1.061939</speed><course>84.267876</course><hAcc>1.732362</hAcc><vAcc>0.824412</vAcc></extensions></trkpt>
      <trkpt lon="-2.212829" lat="53.115432"><ele>326.469177</ele><time>2022-03-04T12:37:19Z</time><extensions><speed>1.144451</speed><course>81.600784</course><hAcc>1.727929</hAcc><vAcc>0.824549</vAcc></extensions></trkpt>
      <trkpt lon="-2.212812" lat="53.115433"><ele>326.553345</ele><time>2022-03-04T12:37:20Z</time><extensions><speed>1.210009</speed><course>79.385338</course><hAcc>1.725826</hAcc><vAcc>0.824669</vAcc></extensions></trkpt>
      <trkpt lon="-2.212794" lat="53.115436"><ele>326.626984</ele><time>2022-03-04T12:37:21Z</time><extensions><speed>1.263565</speed><course>77.919418</course><hAcc>1.723214</hAcc><vAcc>0.824773</vAcc></extensions></trkpt>
      <trkpt lon="-2.212775" lat="53.115438"><ele>326.700836</ele><time>2022-03-04T12:37:22Z</time><extensions><speed>1.209518</speed><course>75.329636</course><hAcc>1.724250</hAcc><vAcc>0.824857</vAcc></extensions></trkpt>
      <trkpt lon="-2.212758" lat="53.115441"><ele>326.786072</ele><time>2022-03-04T12:37:23Z</time><extensions><speed>1.172942</speed><course>74.341179</course><hAcc>1.710847</hAcc><vAcc>0.824902</vAcc></extensions></trkpt>
      <trkpt lon="-2.212741" lat="53.115444"><ele>326.874969</ele><time>2022-03-04T12:37:24Z</time><extensions><speed>1.143955</speed><course>75.819595</course><hAcc>1.698402</hAcc><vAcc>0.824905</vAcc></extensions></trkpt>
      <trkpt lon="-2.212725" lat="53.115446"><ele>326.956085</ele><time>2022-03-04T12:37:25Z</time><extensions><speed>1.120069</speed><course>77.464729</course><hAcc>1.691269</hAcc><vAcc>0.824882</vAcc></extensions></trkpt>
      <trkpt lon="-2.212709" lat="53.115448"><ele>327.024384</ele><time>2022-03-04T12:37:26Z</time><extensions><speed>1.091174</speed><course>79.404144</course><hAcc>1.688047</hAcc><vAcc>0.824828</vAcc></extensions></trkpt>
      <trkpt lon="-2.212693" lat="53.115450"><ele>327.084167</ele><time>2022-03-04T12:37:27Z</time><extensions><speed>1.077596</speed><course>78.887909</course><hAcc>1.674009</hAcc><vAcc>0.824732</vAcc></extensions></trkpt>
      <trkpt lon="-2.212677" lat="53.115452"><ele>327.147217</ele><time>2022-03-04T12:37:28Z</time><extensions><speed>1.070876</speed><course>78.085609</course><hAcc>1.670776</hAcc><vAcc>0.824594</vAcc></extensions></trkpt>
      <trkpt lon="-2.212661" lat="53.115454"><ele>327.202728</ele><time>2022-03-04T12:37:29Z</time><extensions><speed>1.072102</speed><course>76.962082</course><hAcc>1.692608</hAcc><vAcc>0.824453</vAcc></extensions></trkpt>
      <trkpt lon="-2.212645" lat="53.115456"><ele>327.252747</ele><time>2022-03-04T12:37:30Z</time><extensions><speed>1.140544</speed><course>78.856514</course><hAcc>1.672105</hAcc><vAcc>0.824297</vAcc></extensions></trkpt>
      <trkpt lon="-2.212628" lat="53.115458"><ele>327.303680</ele><time>2022-03-04T12:37:31Z</time><extensions><speed>1.236379</speed><course>79.631493</course><hAcc>1.678058</hAcc><vAcc>0.824125</vAcc></extensions></trkpt>
      <trkpt lon="-2.212609" lat="53.115460"><ele>327.328735</ele><time>2022-03-04T12:37:32Z</time><extensions><speed>1.304955</speed><course>80.925102</course><hAcc>1.669929</hAcc><vAcc>0.823953</vAcc></extensions></trkpt>
      <trkpt lon="-2.212590" lat="53.115462"><ele>327.367401</ele><time>2022-03-04T12:37:33Z</time><extensions><speed>1.321872</speed><course>78.939240</course><hAcc>1.671866</hAcc><vAcc>0.823803</vAcc></extensions></trkpt>
      <trkpt lon="-2.212570" lat="53.115465"><ele>327.396851</ele><time>2022-03-04T12:37:34Z</time><extensions><speed>1.295367</speed><course>75.858925</course><hAcc>1.680082</hAcc><vAcc>0.823664</vAcc></extensions></trkpt>
      <trkpt lon="-2.212552" lat="53.115468"><ele>327.422455</ele><time>2022-03-04T12:37:35Z</time><extensions><speed>1.258286</speed><course>72.516434</course><hAcc>1.684044</hAcc><vAcc>0.823538</vAcc></extensions></trkpt>
      <trkpt lon="-2.212535" lat="53.115471"><ele>327.460754</ele><time>2022-03-04T12:37:36Z</time><extensions><speed>1.188305</speed><course>69.699974</course><hAcc>1.695573</hAcc><vAcc>0.823422</vAcc></extensions></trkpt>
      <trkpt lon="-2.212519" lat="53.115475"><ele>327.500000</ele><time>2022-03-04T12:37:37Z</time><extensions><speed>1.136823</speed><course>68.922173</course><hAcc>1.699238</hAcc><vAcc>0.823322</vAcc></extensions></trkpt>
      <trkpt lon="-2.212503" lat="53.115479"><ele>327.517853</ele><time>2022-03-04T12:37:38Z</time><extensions><speed>1.097764</speed><course>68.962723</course><hAcc>1.678337</hAcc><vAcc>0.823246</vAcc></extensions></trkpt>
      <trkpt lon="-2.212487" lat="53.115482"><ele>327.520996</ele><time>2022-03-04T12:37:39Z</time><extensions><speed>1.150217</speed><course>69.933754</course><hAcc>1.664988</hAcc><vAcc>0.823236</vAcc></extensions></trkpt>
      <trkpt lon="-2.212471" lat="53.115486"><ele>327.523193</ele><time>2022-03-04T12:37:40Z</time><extensions><speed>1.190801</speed><course>68.416702</course><hAcc>1.664835</hAcc><vAcc>0.823271</vAcc></extensions></trkpt>
      <trkpt lon="-2.212454" lat="53.115490"><ele>327.514618</ele><time>2022-03-04T12:37:41Z</time><extensions><speed>1.178451</speed><course>68.405373</course><hAcc>1.672067</hAcc><vAcc>0.823352</vAcc></extensions></trkpt>
      <trkpt lon="-2.212438" lat="53.115494"><ele>327.521423</ele><time>2022-03-04T12:37:42Z</time><extensions><speed>1.103373</speed><course>68.158974</course><hAcc>1.696429</hAcc><vAcc>0.823469</vAcc></extensions></trkpt>
      <trkpt lon="-2.212423" lat="53.115497"><ele>327.519775</ele><time>2022-03-04T12:37:43Z</time><extensions><speed>1.072950</speed><course>65.817413</course><hAcc>1.661529</hAcc><vAcc>0.823607</vAcc></extensions></trkpt>
      <trkpt lon="-2.212409" lat="53.115501"><ele>327.511383</ele><time>2022-03-04T12:37:44Z</time><extensions><speed>1.030674</speed><course>65.019257</course><hAcc>1.648829</hAcc><vAcc>0.823782</vAcc></extensions></trkpt>
      <trkpt lon="-2.212395" lat="53.115505"><ele>327.507477</ele><time>2022-03-04T12:37:45Z</time><extensions><speed>1.035245</speed><course>66.733498</course><hAcc>1.655093</hAcc><vAcc>0.823974</vAcc></extensions></trkpt>
      <trkpt lon="-2.212380" lat="53.115509"><ele>327.506958</ele><time>2022-03-04T12:37:46Z</time><extensions><speed>1.067984</speed><course>66.229645</course><hAcc>1.643045</hAcc><vAcc>0.824152</vAcc></extensions></trkpt>
      <trkpt lon="-2.212365" lat="53.115513"><ele>327.504547</ele><time>2022-03-04T12:37:47Z</time><extensions><speed>1.060677</speed><course>68.141205</course><hAcc>1.646241</hAcc><vAcc>0.824326</vAcc></extensions></trkpt>
      <trkpt lon="-2.212351" lat="53.115516"><ele>327.499481</ele><time>2022-03-04T12:37:48Z</time><extensions><speed>0.990199</speed><course>70.849663</course><hAcc>1.646780</hAcc><vAcc>0.824471</vAcc></extensions></trkpt>
      <trkpt lon="-2.212337" lat="53.115518"><ele>327.485046</ele><time>2022-03-04T12:37:49Z</time><extensions><speed>0.993542</speed><course>73.360321</course><hAcc>1.609203</hAcc><vAcc>0.824576</vAcc></extensions></trkpt>
      <trkpt lon="-2.212322" lat="53.115521"><ele>327.473450</ele><time>2022-03-04T12:37:50Z</time><extensions><speed>1.025058</speed><course>72.910400</course><hAcc>1.607316</hAcc><vAcc>0.824626</vAcc></extensions></trkpt>
      <trkpt lon="-2.212308" lat="53.115524"><ele>327.473022</ele><time>2022-03-04T12:37:51Z</time><extensions><speed>0.994674</speed><course>68.702728</course><hAcc>1.652383</hAcc><vAcc>0.824613</vAcc></extensions></trkpt>
      <trkpt lon="-2.212293" lat="53.115528"><ele>327.473114</ele><time>2022-03-04T12:37:52Z</time><extensions><speed>1.089795</speed><course>65.469261</course><hAcc>1.636524</hAcc><vAcc>0.824552</vAcc></extensions></trkpt>
      <trkpt lon="-2.212278" lat="53.115532"><ele>327.476837</ele><time>2022-03-04T12:37:53Z</time><extensions><speed>1.178621</speed><course>67.444191</course><hAcc>1.634073</hAcc><vAcc>0.824456</vAcc></extensions></trkpt>
      <trkpt lon="-2.212260" lat="53.115536"><ele>327.479279</ele><time>2022-03-04T12:37:54Z</time><extensions><speed>1.388080</speed><course>70.428970</course><hAcc>1.619646</hAcc><vAcc>0.824323</vAcc></extensions></trkpt>
      <trkpt lon="-2.212240" lat="53.115540"><ele>327.485596</ele><time>2022-03-04T12:37:56Z</time><extensions><speed>1.466428</speed><course>72.846596</course><hAcc>1.627526</hAcc><vAcc>0.824172</vAcc></extensions></trkpt>
      <trkpt lon="-2.212219" lat="53.115544"><ele>327.451965</ele><time>2022-03-04T12:37:57Z</time><extensions><speed>1.477781</speed><course>72.168152</course><hAcc>1.654467</hAcc><vAcc>0.824014</vAcc></extensions></trkpt>
      <trkpt lon="-2.212198" lat="53.115548"><ele>327.417267</ele><time>2022-03-04T12:37:58Z</time><extensions><speed>1.460936</speed><course>70.772392</course><hAcc>1.682975</hAcc><vAcc>0.823906</vAcc></extensions></trkpt>
      <trkpt lon="-2.212177" lat="53.115552"><ele>327.379852</ele><time>2022-03-04T12:37:59Z</time><extensions><speed>1.482761</speed><course>70.530258</course><hAcc>1.664542</hAcc><vAcc>0.823852</vAcc></extensions></trkpt>
      <trkpt lon="-2.212156" lat="53.115557"><ele>327.342957</ele><time>2022-03-04T12:38:00Z</time><extensions><speed>1.474659</speed><course>68.284706</course><hAcc>1.651247</hAcc><vAcc>0.823882</vAcc></extensions></trkpt>
      <trkpt lon="-2.212136" lat="53.115562"><ele>327.298798</ele><time>2022-03-04T12:38:01Z</time><extensions><speed>1.432694</speed><course>67.248070</course><hAcc>1.644976</hAcc><vAcc>0.823988</vAcc></extensions></trkpt>
      <trkpt lon="-2.212117" lat="53.115567"><ele>327.247192</ele><time>2022-03-04T12:38:02Z</time><extensions><speed>1.360369</speed><course>66.611473</course><hAcc>1.647317</hAcc><vAcc>0.824167</vAcc></extensions></trkpt>
      <trkpt lon="-2.212099" lat="53.115572"><ele>327.189606</ele><time>2022-03-04T12:38:03Z</time><extensions><speed>1.308990</speed><course>66.263817</course><hAcc>1.666212</hAcc><vAcc>0.824436</vAcc></extensions></trkpt>
      <trkpt lon="-2.212081" lat="53.115576"><ele>327.126160</ele><time>2022-03-04T12:38:04Z</time><extensions><speed>1.292348</speed><course>65.694183</course><hAcc>1.670234</hAcc><vAcc>0.824752</vAcc></extensions></trkpt>
      <trkpt lon="-2.212063" lat="53.115581"><ele>327.047363</ele><time>2022-03-04T12:38:05Z</time><extensions><speed>1.320760</speed><course>64.773468</course><hAcc>1.628789</hAcc><vAcc>0.825106</vAcc></extensions></trkpt>
      <trkpt lon="-2.212046" lat="53.115587"><ele>326.968201</ele><time>2022-03-04T12:38:06Z</time><extensions><speed>1.329485</speed><course>62.296844</course><hAcc>1.613659</hAcc><vAcc>0.825452</vAcc></extensions></trkpt>
      <trkpt lon="-2.212028" lat="53.115592"><ele>326.884308</ele><time>2022-03-04T12:38:07Z</time><extensions><speed>1.293869</speed><course>60.652214</course><hAcc>1.618943</hAcc><vAcc>0.825801</vAcc></extensions></trkpt>
      <trkpt lon="-2.212011" lat="53.115598"><ele>326.791229</ele><time>2022-03-04T12:38:08Z</time><extensions><speed>1.338102</speed><course>58.703491</course><hAcc>1.638050</hAcc><vAcc>0.826126</vAcc></extensions></trkpt>
      <trkpt lon="-2.211994" lat="53.115604"><ele>326.696777</ele><time>2022-03-04T12:38:09Z</time><extensions><speed>1.338344</speed><course>58.721989</course><hAcc>1.654709</hAcc><vAcc>0.826407</vAcc></extensions></trkpt>
      <trkpt lon="-2.211978" lat="53.115610"><ele>326.613129</ele><time>2022-03-04T12:38:10Z</time><extensions><speed>1.234359</speed><course>57.883644</course><hAcc>1.633146</hAcc><vAcc>0.826627</vAcc></extensions></trkpt>
      <trkpt lon="-2.211963" lat="53.115616"><ele>326.523499</ele><time>2022-03-04T12:38:11Z</time><extensions><speed>1.092307</speed><course>55.551254</course><hAcc>1.626220</hAcc><vAcc>0.826723</vAcc></extensions></trkpt>
      <trkpt lon="-2.211950" lat="53.115622"><ele>326.451324</ele><time>2022-03-04T12:38:12Z</time><extensions><speed>1.044323</speed><course>56.148209</course><hAcc>1.622047</hAcc><vAcc>0.826721</vAcc></extensions></trkpt>
      <trkpt lon="-2.211937" lat="53.115627"><ele>326.361237</ele><time>2022-03-04T12:38:13Z</time><extensions><speed>1.028879</speed><course>55.836319</course><hAcc>1.637949</hAcc><vAcc>0.826602</vAcc></extensions></trkpt>
      <trkpt lon="-2.211924" lat="53.115632"><ele>326.281952</ele><time>2022-03-04T12:38:14Z</time><extensions><speed>1.096214</speed><course>56.554466</course><hAcc>1.659562</hAcc><vAcc>0.826390</vAcc></extensions></trkpt>
      <trkpt lon="-2.211909" lat="53.115638"><ele>326.199005</ele><time>2022-03-04T12:38:15Z</time><extensions><speed>1.231876</speed><course>58.279942</course><hAcc>1.659992</hAcc><vAcc>0.826095</vAcc></extensions></trkpt>
      <trkpt lon="-2.211894" lat="53.115643"><ele>326.117279</ele><time>2022-03-04T12:38:16Z</time><extensions><speed>1.222438</speed><course>58.711575</course><hAcc>1.646528</hAcc><vAcc>0.825694</vAcc></extensions></trkpt>
      <trkpt lon="-2.211878" lat="53.115649"><ele>326.039764</ele><time>2022-03-04T12:38:17Z</time><extensions><speed>1.217254</speed><course>57.707832</course><hAcc>1.647948</hAcc><vAcc>0.825227</vAcc></extensions></trkpt>
      <trkpt lon="-2.211863" lat="53.115655"><ele>325.968018</ele><time>2022-03-04T12:38:18Z</time><extensions><speed>1.175446</speed><course>56.470306</course><hAcc>1.656405</hAcc><vAcc>0.824700</vAcc></extensions></trkpt>
      <trkpt lon="-2.211848" lat="53.115661"><ele>325.902466</ele><time>2022-03-04T12:38:19Z</time><extensions><speed>1.203023</speed><course>57.775070</course><hAcc>1.657752</hAcc><vAcc>0.824133</vAcc></extensions></trkpt>
      <trkpt lon="-2.211832" lat="53.115667"><ele>325.807678</ele><time>2022-03-04T12:38:20Z</time><extensions><speed>1.256671</speed><course>59.158947</course><hAcc>1.665630</hAcc><vAcc>0.823586</vAcc></extensions></trkpt>
      <trkpt lon="-2.211816" lat="53.115673"><ele>325.745636</ele><time>2022-03-04T12:38:21Z</time><extensions><speed>1.342305</speed><course>57.779716</course><hAcc>1.646219</hAcc><vAcc>0.823049</vAcc></extensions></trkpt>
      <trkpt lon="-2.211799" lat="53.115680"><ele>325.678619</ele><time>2022-03-04T12:38:22Z</time><extensions><speed>1.385726</speed><course>55.940475</course><hAcc>1.637591</hAcc><vAcc>0.822548</vAcc></extensions></trkpt>
      <trkpt lon="-2.211782" lat="53.115686"><ele>325.620758</ele><time>2022-03-04T12:38:23Z</time><extensions><speed>1.358252</speed><course>56.615044</course><hAcc>1.630419</hAcc><vAcc>0.822118</vAcc></extensions></trkpt>
      <trkpt lon="-2.211765" lat="53.115693"><ele>325.550049</ele><time>2022-03-04T12:38:24Z</time><extensions><speed>1.368897</speed><course>54.815861</course><hAcc>1.628608</hAcc><vAcc>0.821776</vAcc></extensions></trkpt>
      <trkpt lon="-2.211748" lat="53.115701"><ele>325.483276</ele><time>2022-03-04T12:38:25Z</time><extensions><speed>1.362475</speed><course>53.518726</course><hAcc>1.651908</hAcc><vAcc>0.821506</vAcc></extensions></trkpt>
      <trkpt lon="-2.211731" lat="53.115708"><ele>325.408997</ele><time>2022-03-04T12:38:26Z</time><extensions><speed>1.418279</speed><course>54.617596</course><hAcc>1.633660</hAcc><vAcc>0.821305</vAcc></extensions></trkpt>
      <trkpt lon="-2.211714" lat="53.115715"><ele>325.354156</ele><time>2022-03-04T12:38:27Z</time><extensions><speed>1.404136</speed><course>57.049896</course><hAcc>1.644749</hAcc><vAcc>0.821176</vAcc></extensions></trkpt>
      <trkpt lon="-2.211697" lat="53.115721"><ele>325.296326</ele><time>2022-03-04T12:38:28Z</time><extensions><speed>1.275975</speed><course>59.877800</course><hAcc>1.625659</hAcc><vAcc>0.821113</vAcc></extensions></trkpt>
      <trkpt lon="-2.211680" lat="53.115727"><ele>325.230133</ele><time>2022-03-04T12:38:29Z</time><extensions><speed>1.255109</speed><course>60.775517</course><hAcc>1.619364</hAcc><vAcc>0.821125</vAcc></extensions></trkpt>
      <trkpt lon="-2.211663" lat="53.115732"><ele>325.189362</ele><time>2022-03-04T12:38:30Z</time><extensions><speed>1.277670</speed><course>60.833511</course><hAcc>1.618843</hAcc><vAcc>0.821202</vAcc></extensions></trkpt>
      <trkpt lon="-2.211646" lat="53.115738"><ele>325.148804</ele><time>2022-03-04T12:38:31Z</time><extensions><speed>1.330217</speed><course>58.711391</course><hAcc>1.618530</hAcc><vAcc>0.821339</vAcc></extensions></trkpt>
      <trkpt lon="-2.211629" lat="53.115744"><ele>325.097046</ele><time>2022-03-04T12:38:32Z</time><extensions><speed>1.348073</speed><course>59.789009</course><hAcc>1.618136</hAcc><vAcc>0.821542</vAcc></extensions></trkpt>
      <trkpt lon="-2.211612" lat="53.115750"><ele>325.062439</ele><time>2022-03-04T12:38:33Z</time><extensions><speed>1.322641</speed><course>62.406734</course><hAcc>1.625046</hAcc><vAcc>0.821775</vAcc></extensions></trkpt>
      <trkpt lon="-2.211594" lat="53.115755"><ele>325.038422</ele><time>2022-03-04T12:38:34Z</time><extensions><speed>1.281764</speed><course>68.277000</course><hAcc>1.623715</hAcc><vAcc>0.822035</vAcc></extensions></trkpt>
      <trkpt lon="-2.211576" lat="53.115759"><ele>325.010529</ele><time>2022-03-04T12:38:35Z</time><extensions><speed>1.275495</speed><course>73.978828</course><hAcc>1.587156</hAcc><vAcc>0.822320</vAcc></extensions></trkpt>
      <trkpt lon="-2.211558" lat="53.115762"><ele>324.982941</ele><time>2022-03-04T12:38:36Z</time><extensions><speed>1.282604</speed><course>76.279404</course><hAcc>1.587287</hAcc><vAcc>0.822614</vAcc></extensions></trkpt>
      <trkpt lon="-2.211539" lat="53.115764"><ele>324.958984</ele><time>2022-03-04T12:38:37Z</time><extensions><speed>1.253532</speed><course>77.060654</course><hAcc>1.630811</hAcc><vAcc>0.822900</vAcc></extensions></trkpt>
      <trkpt lon="-2.211520" lat="53.115766"><ele>324.939697</ele><time>2022-03-04T12:38:38Z</time><extensions><speed>1.309441</speed><course>83.959824</course><hAcc>1.621202</hAcc><vAcc>0.823182</vAcc></extensions></trkpt>
      <trkpt lon="-2.211501" lat="53.115767"><ele>324.919922</ele><time>2022-03-04T12:38:39Z</time><extensions><speed>1.317430</speed><course>86.744865</course><hAcc>1.620963</hAcc><vAcc>0.823403</vAcc></extensions></trkpt>
      <trkpt lon="-2.211482" lat="53.115768"><ele>324.903168</ele><time>2022-03-04T12:38:40Z</time><extensions><speed>1.228393</speed><course>83.641060</course><hAcc>1.621692</hAcc><vAcc>0.823537</vAcc></extensions></trkpt>
      <trkpt lon="-2.211466" lat="53.115770"><ele>324.875397</ele><time>2022-03-04T12:38:41Z</time><extensions><speed>1.036456</speed><course>74.923203</course><hAcc>1.653388</hAcc><vAcc>0.823633</vAcc></extensions></trkpt>
      <trkpt lon="-2.211453" lat="53.115773"><ele>324.849213</ele><time>2022-03-04T12:38:42Z</time><extensions><speed>0.759623</speed><course>61.076641</course><hAcc>1.665782</hAcc><vAcc>0.823680</vAcc></extensions></trkpt>
      <trkpt lon="-2.211445" lat="53.115776"><ele>324.832275</ele><time>2022-03-04T12:38:43Z</time><extensions><speed>0.576848</speed><course>44.582817</course><hAcc>1.676663</hAcc><vAcc>0.823659</vAcc></extensions></trkpt>
      <trkpt lon="-2.211441" lat="53.115780"><ele>324.810364</ele><time>2022-03-04T12:38:44Z</time><extensions><speed>0.495898</speed><course>27.394577</course><hAcc>1.686979</hAcc><vAcc>0.823574</vAcc></extensions></trkpt>
      <trkpt lon="-2.211438" lat="53.115784"><ele>324.783844</ele><time>2022-03-04T12:38:45Z</time><extensions><speed>0.407684</speed><course>9.038127</course><hAcc>1.687301</hAcc><vAcc>0.823425</vAcc></extensions></trkpt>
      <trkpt lon="-2.211439" lat="53.115787"><ele>324.755585</ele><time>2022-03-04T12:38:46Z</time><extensions><speed>0.341793</speed><course>347.574677</course><hAcc>1.696002</hAcc><vAcc>0.823228</vAcc></extensions></trkpt>
      <trkpt lon="-2.211440" lat="53.115790"><ele>324.713776</ele><time>2022-03-04T12:38:47Z</time><extensions><speed>0.264320</speed><course>323.035828</course><hAcc>1.704692</hAcc><vAcc>0.823017</vAcc></extensions></trkpt>
      <trkpt lon="-2.211443" lat="53.115792"><ele>324.674530</ele><time>2022-03-04T12:38:48Z</time><extensions><speed>0.254023</speed><course>312.216309</course><hAcc>1.708235</hAcc><vAcc>0.822793</vAcc></extensions></trkpt>
      <trkpt lon="-2.211446" lat="53.115793"><ele>324.619446</ele><time>2022-03-04T12:38:49Z</time><extensions><speed>0.270448</speed><course>312.039429</course><hAcc>1.707400</hAcc><vAcc>0.822591</vAcc></extensions></trkpt>
      <trkpt lon="-2.211449" lat="53.115795"><ele>324.579041</ele><time>2022-03-04T12:38:50Z</time><extensions><speed>0.343669</speed><course>317.567993</course><hAcc>1.703066</hAcc><vAcc>0.822444</vAcc></extensions></trkpt>
      <trkpt lon="-2.211453" lat="53.115798"><ele>324.532990</ele><time>2022-03-04T12:38:51Z</time><extensions><speed>0.513310</speed><course>324.443512</course><hAcc>1.699110</hAcc><vAcc>0.822372</vAcc></extensions></trkpt>
      <trkpt lon="-2.211459" lat="53.115803"><ele>324.473907</ele><time>2022-03-04T12:38:52Z</time><extensions><speed>0.858338</speed><course>329.716522</course><hAcc>1.696480</hAcc><vAcc>0.822405</vAcc></extensions></trkpt>
      <trkpt lon="-2.211466" lat="53.115811"><ele>324.422424</ele><time>2022-03-04T12:38:53Z</time><extensions><speed>1.082397</speed><course>331.672791</course><hAcc>1.697260</hAcc><vAcc>0.822482</vAcc></extensions></trkpt>
      <trkpt lon="-2.211474" lat="53.115820"><ele>324.367310</ele><time>2022-03-04T12:38:53Z</time><extensions><speed>1.208023</speed><course>331.885101</course><hAcc>1.694009</hAcc><vAcc>0.822614</vAcc></extensions></trkpt>
      <trkpt lon="-2.211482" lat="53.115830"><ele>324.300659</ele><time>2022-03-04T12:38:54Z</time><extensions><speed>1.233899</speed><course>332.210052</course><hAcc>1.687090</hAcc><vAcc>0.822789</vAcc></extensions></trkpt>
      <trkpt lon="-2.211491" lat="53.115840"><ele>324.231110</ele><time>2022-03-04T12:38:55Z</time><extensions><speed>1.237192</speed><course>332.889069</course><hAcc>1.681243</hAcc><vAcc>0.822990</vAcc></extensions></trkpt>
      <trkpt lon="-2.211499" lat="53.115850"><ele>324.163483</ele><time>2022-03-04T12:38:56Z</time><extensions><speed>1.211761</speed><course>334.004761</course><hAcc>1.671599</hAcc><vAcc>0.823208</vAcc></extensions></trkpt>
      <trkpt lon="-2.211507" lat="53.115859"><ele>324.095276</ele><time>2022-03-04T12:38:57Z</time><extensions><speed>1.179818</speed><course>335.569794</course><hAcc>1.658767</hAcc><vAcc>0.823461</vAcc></extensions></trkpt>
      <trkpt lon="-2.211514" lat="53.115869"><ele>324.019165</ele><time>2022-03-04T12:38:58Z</time><extensions><speed>1.164088</speed><course>336.439880</course><hAcc>1.642051</hAcc><vAcc>0.823708</vAcc></extensions></trkpt>
      <trkpt lon="-2.211521" lat="53.115879"><ele>323.945618</ele><time>2022-03-04T12:38:59Z</time><extensions><speed>1.232447</speed><course>337.630707</course><hAcc>1.625134</hAcc><vAcc>0.823954</vAcc></extensions></trkpt>
      <trkpt lon="-2.211528" lat="53.115889"><ele>323.865601</ele><time>2022-03-04T12:39:00Z</time><extensions><speed>1.224885</speed><course>338.900299</course><hAcc>1.626390</hAcc><vAcc>0.824183</vAcc></extensions></trkpt>
      <trkpt lon="-2.211533" lat="53.115900"><ele>323.790558</ele><time>2022-03-04T12:39:01Z</time><extensions><speed>1.175937</speed><course>342.290405</course><hAcc>1.638399</hAcc><vAcc>0.824401</vAcc></extensions></trkpt>
      <trkpt lon="-2.211539" lat="53.115910"><ele>323.718170</ele><time>2022-03-04T12:39:02Z</time><extensions><speed>1.295947</speed><course>341.650208</course><hAcc>1.579407</hAcc><vAcc>0.824584</vAcc></extensions></trkpt>
      <trkpt lon="-2.211546" lat="53.115922"><ele>323.650146</ele><time>2022-03-04T12:39:03Z</time><extensions><speed>1.377301</speed><course>339.865631</course><hAcc>1.536370</hAcc><vAcc>0.824750</vAcc></extensions></trkpt>
      <trkpt lon="-2.211553" lat="53.115933"><ele>323.564056</ele><time>2022-03-04T12:39:04Z</time><extensions><speed>1.416588</speed><course>337.702728</course><hAcc>1.525712</hAcc><vAcc>0.824915</vAcc></extensions></trkpt>
      <trkpt lon="-2.211561" lat="53.115945"><ele>323.490417</ele><time>2022-03-04T12:39:05Z</time><extensions><speed>1.392443</speed><course>335.679016</course><hAcc>1.530757</hAcc><vAcc>0.825036</vAcc></extensions></trkpt>
      <trkpt lon="-2.211570" lat="53.115957"><ele>323.414825</ele><time>2022-03-04T12:39:06Z</time><extensions><speed>1.427410</speed><course>336.030701</course><hAcc>1.547866</hAcc><vAcc>0.825146</vAcc></extensions></trkpt>
      <trkpt lon="-2.211578" lat="53.115968"><ele>323.337036</ele><time>2022-03-04T12:39:07Z</time><extensions><speed>1.372308</speed><course>337.507935</course><hAcc>1.532363</hAcc><vAcc>0.825246</vAcc></extensions></trkpt>
      <trkpt lon="-2.211586" lat="53.115980"><ele>323.272980</ele><time>2022-03-04T12:39:08Z</time><extensions><speed>1.375420</speed><course>340.652710</course><hAcc>1.507911</hAcc><vAcc>0.825300</vAcc></extensions></trkpt>
      <trkpt lon="-2.211591" lat="53.115991"><ele>323.200104</ele><time>2022-03-04T12:39:09Z</time><extensions><speed>1.306876</speed><course>344.469147</course><hAcc>1.520457</hAcc><vAcc>0.825343</vAcc></extensions></trkpt>
      <trkpt lon="-2.211596" lat="53.116002"><ele>323.128601</ele><time>2022-03-04T12:39:10Z</time><extensions><speed>1.260944</speed><course>345.359375</course><hAcc>1.526900</hAcc><vAcc>0.825369</vAcc></extensions></trkpt>
      <trkpt lon="-2.211601" lat="53.116013"><ele>323.059296</ele><time>2022-03-04T12:39:11Z</time><extensions><speed>1.268098</speed><course>345.642395</course><hAcc>1.553711</hAcc><vAcc>0.825375</vAcc></extensions></trkpt>
      <trkpt lon="-2.211605" lat="53.116024"><ele>322.996216</ele><time>2022-03-04T12:39:12Z</time><extensions><speed>1.240668</speed><course>348.220642</course><hAcc>1.539442</hAcc><vAcc>0.825393</vAcc></extensions></trkpt>
      <trkpt lon="-2.211609" lat="53.116035"><ele>322.927185</ele><time>2022-03-04T12:39:13Z</time><extensions><speed>1.184243</speed><course>349.959381</course><hAcc>1.554816</hAcc><vAcc>0.825405</vAcc></extensions></trkpt>
      <trkpt lon="-2.211611" lat="53.116045"><ele>322.841949</ele><time>2022-03-04T12:39:14Z</time><extensions><speed>1.041943</speed><course>352.429871</course><hAcc>1.588549</hAcc><vAcc>0.825394</vAcc></extensions></trkpt>
      <trkpt lon="-2.211613" lat="53.116054"><ele>322.762146</ele><time>2022-03-04T12:39:15Z</time><extensions><speed>1.078137</speed><course>354.256317</course><hAcc>1.581500</hAcc><vAcc>0.825370</vAcc></extensions></trkpt>
      <trkpt lon="-2.211615" lat="53.116064"><ele>322.683472</ele><time>2022-03-04T12:39:16Z</time><extensions><speed>1.068993</speed><course>353.269623</course><hAcc>1.605221</hAcc><vAcc>0.825350</vAcc></extensions></trkpt>
      <trkpt lon="-2.211617" lat="53.116073"><ele>322.600922</ele><time>2022-03-04T12:39:17Z</time><extensions><speed>1.059299</speed><course>354.190735</course><hAcc>1.618419</hAcc><vAcc>0.825349</vAcc></extensions></trkpt>
      <trkpt lon="-2.211618" lat="53.116083"><ele>322.515411</ele><time>2022-03-04T12:39:18Z</time><extensions><speed>1.092479</speed><course>355.697418</course><hAcc>1.604866</hAcc><vAcc>0.825320</vAcc></extensions></trkpt>
      <trkpt lon="-2.211619" lat="53.116093"><ele>322.432159</ele><time>2022-03-04T12:39:19Z</time><extensions><speed>1.038775</speed><course>357.707306</course><hAcc>1.610731</hAcc><vAcc>0.825278</vAcc></extensions></trkpt>
      <trkpt lon="-2.211619" lat="53.116102"><ele>322.347656</ele><time>2022-03-04T12:39:20Z</time><extensions><speed>1.012653</speed><course>358.779449</course><hAcc>1.617410</hAcc><vAcc>0.825239</vAcc></extensions></trkpt>
      <trkpt lon="-2.211620" lat="53.116111"><ele>322.269714</ele><time>2022-03-04T12:39:21Z</time><extensions><speed>0.939596</speed><course>358.628815</course><hAcc>1.634418</hAcc><vAcc>0.825238</vAcc></extensions></trkpt>
      <trkpt lon="-2.211620" lat="53.116119"><ele>322.186249</ele><time>2022-03-04T12:39:22Z</time><extensions><speed>0.919023</speed><course>357.509399</course><hAcc>1.661504</hAcc><vAcc>0.825241</vAcc></extensions></trkpt>
      <trkpt lon="-2.211621" lat="53.116127"><ele>322.100159</ele><time>2022-03-04T12:39:23Z</time><extensions><speed>0.850771</speed><course>358.541840</course><hAcc>1.652867</hAcc><vAcc>0.825281</vAcc></extensions></trkpt>
      <trkpt lon="-2.211621" lat="53.116134"><ele>322.012726</ele><time>2022-03-04T12:39:24Z</time><extensions><speed>0.769264</speed><course>0.840258</course><hAcc>1.648554</hAcc><vAcc>0.825337</vAcc></extensions></trkpt>
      <trkpt lon="-2.211620" lat="53.116141"><ele>321.923340</ele><time>2022-03-04T12:39:25Z</time><extensions><speed>0.789928</speed><course>5.060660</course><hAcc>1.654246</hAcc><vAcc>0.825381</vAcc></extensions></trkpt>
      <trkpt lon="-2.211619" lat="53.116148"><ele>321.826355</ele><time>2022-03-04T12:39:26Z</time><extensions><speed>0.810555</speed><course>7.322027</course><hAcc>1.665424</hAcc><vAcc>0.825442</vAcc></extensions></trkpt>
      <trkpt lon="-2.211617" lat="53.116156"><ele>321.721619</ele><time>2022-03-04T12:39:27Z</time><extensions><speed>0.811876</speed><course>7.610779</course><hAcc>1.669899</hAcc><vAcc>0.825513</vAcc></extensions></trkpt>
      <trkpt lon="-2.211616" lat="53.116163"><ele>321.614075</ele><time>2022-03-04T12:39:28Z</time><extensions><speed>0.789146</speed><course>6.554195</course><hAcc>1.660556</hAcc><vAcc>0.825628</vAcc></extensions></trkpt>
      <trkpt lon="-2.211615" lat="53.116170"><ele>321.521698</ele><time>2022-03-04T12:39:29Z</time><extensions><speed>0.816438</speed><course>4.038578</course><hAcc>1.650549</hAcc><vAcc>0.825718</vAcc></extensions></trkpt>
      <trkpt lon="-2.211614" lat="53.116178"><ele>321.434357</ele><time>2022-03-04T12:39:30Z</time><extensions><speed>0.896943</speed><course>2.325832</course><hAcc>1.641221</hAcc><vAcc>0.825808</vAcc></extensions></trkpt>
      <trkpt lon="-2.211614" lat="53.116186"><ele>321.343842</ele><time>2022-03-04T12:39:31Z</time><extensions><speed>0.972291</speed><course>1.971441</course><hAcc>1.625787</hAcc><vAcc>0.825891</vAcc></extensions></trkpt>
      <trkpt lon="-2.211613" lat="53.116195"><ele>321.250305</ele><time>2022-03-04T12:39:32Z</time><extensions><speed>1.006671</speed><course>1.251380</course><hAcc>1.617768</hAcc><vAcc>0.825979</vAcc></extensions></trkpt>
      <trkpt lon="-2.211613" lat="53.116204"><ele>321.158630</ele><time>2022-03-04T12:39:33Z</time><extensions><speed>1.004123</speed><course>0.286182</course><hAcc>1.634210</hAcc><vAcc>0.826032</vAcc></extensions></trkpt>
      <trkpt lon="-2.211613" lat="53.116213"><ele>321.064667</ele><time>2022-03-04T12:39:34Z</time><extensions><speed>0.979155</speed><course>358.080597</course><hAcc>1.656253</hAcc><vAcc>0.826058</vAcc></extensions></trkpt>
      <trkpt lon="-2.211614" lat="53.116222"><ele>320.971405</ele><time>2022-03-04T12:39:35Z</time><extensions><speed>1.073023</speed><course>357.522491</course><hAcc>1.613983</hAcc><vAcc>0.826057</vAcc></extensions></trkpt>
      <trkpt lon="-2.211614" lat="53.116232"><ele>320.877899</ele><time>2022-03-04T12:39:36Z</time><extensions><speed>1.113621</speed><course>357.830597</course><hAcc>1.598980</hAcc><vAcc>0.826058</vAcc></extensions></trkpt>
      <trkpt lon="-2.211615" lat="53.116242"><ele>320.782379</ele><time>2022-03-04T12:39:37Z</time><extensions><speed>1.181716</speed><course>357.564392</course><hAcc>1.613530</hAcc><vAcc>0.826031</vAcc></extensions></trkpt>
      <trkpt lon="-2.211616" lat="53.116253"><ele>320.690033</ele><time>2022-03-04T12:39:38Z</time><extensions><speed>1.222395</speed><course>357.998932</course><hAcc>1.626817</hAcc><vAcc>0.825980</vAcc></extensions></trkpt>
      <trkpt lon="-2.211616" lat="53.116265"><ele>320.584503</ele><time>2022-03-04T12:39:39Z</time><extensions><speed>1.296241</speed><course>359.854004</course><hAcc>1.611296</hAcc><vAcc>0.825948</vAcc></extensions></trkpt>
      <trkpt lon="-2.211616" lat="53.116276"><ele>320.481873</ele><time>2022-03-04T12:39:40Z</time><extensions><speed>1.306353</speed><course>359.476166</course><hAcc>1.599830</hAcc><vAcc>0.825870</vAcc></extensions></trkpt>
      <trkpt lon="-2.211616" lat="53.116288"><ele>320.363770</ele><time>2022-03-04T12:39:41Z</time><extensions><speed>1.204437</speed><course>359.345215</course><hAcc>1.610476</hAcc><vAcc>0.825796</vAcc></extensions></trkpt>
      <trkpt lon="-2.211617" lat="53.116298"><ele>320.254974</ele><time>2022-03-04T12:39:42Z</time><extensions><speed>1.125799</speed><course>359.995056</course><hAcc>1.641422</hAcc><vAcc>0.825731</vAcc></extensions></trkpt>
      <trkpt lon="-2.211617" lat="53.116308"><ele>320.145264</ele><time>2022-03-04T12:39:43Z</time><extensions><speed>1.147627</speed><course>358.027191</course><hAcc>1.601510</hAcc><vAcc>0.825657</vAcc></extensions></trkpt>
      <trkpt lon="-2.211618" lat="53.116319"><ele>320.028137</ele><time>2022-03-04T12:39:44Z</time><extensions><speed>1.111182</speed><course>355.127533</course><hAcc>1.586763</hAcc><vAcc>0.825594</vAcc></extensions></trkpt>
      <trkpt lon="-2.211620" lat="53.116329"><ele>319.919312</ele><time>2022-03-04T12:39:45Z</time><extensions><speed>1.140789</speed><course>353.954620</course><hAcc>1.585981</hAcc><vAcc>0.825534</vAcc></extensions></trkpt>
      <trkpt lon="-2.211622" lat="53.116339"><ele>319.805603</ele><time>2022-03-04T12:39:46Z</time><extensions><speed>1.146848</speed><course>352.439148</course><hAcc>1.607601</hAcc><vAcc>0.825488</vAcc></extensions></trkpt>
      <trkpt lon="-2.211623" lat="53.116349"><ele>319.694122</ele><time>2022-03-04T12:39:47Z</time><extensions><speed>1.141533</speed><course>355.405823</course><hAcc>1.603572</hAcc><vAcc>0.825463</vAcc></extensions></trkpt>
      <trkpt lon="-2.211625" lat="53.116359"><ele>319.569214</ele><time>2022-03-04T12:39:48Z</time><extensions><speed>1.146417</speed><course>357.060760</course><hAcc>1.620371</hAcc><vAcc>0.825416</vAcc></extensions></trkpt>
      <trkpt lon="-2.211625" lat="53.116369"><ele>319.444275</ele><time>2022-03-04T12:39:49Z</time><extensions><speed>1.048085</speed><course>359.644257</course><hAcc>1.634090</hAcc><vAcc>0.825391</vAcc></extensions></trkpt>
      <trkpt lon="-2.211625" lat="53.116379"><ele>319.322052</ele><time>2022-03-04T12:39:50Z</time><extensions><speed>1.129328</speed><course>0.315860</course><hAcc>1.618269</hAcc><vAcc>0.825360</vAcc></extensions></trkpt>
      <trkpt lon="-2.211625" lat="53.116389"><ele>319.204041</ele><time>2022-03-04T12:39:51Z</time><extensions><speed>1.137516</speed><course>359.538391</course><hAcc>1.626119</hAcc><vAcc>0.825331</vAcc></extensions></trkpt>
      <trkpt lon="-2.211626" lat="53.116400"><ele>319.076050</ele><time>2022-03-04T12:39:52Z</time><extensions><speed>1.167848</speed><course>358.381470</course><hAcc>1.641986</hAcc><vAcc>0.825313</vAcc></extensions></trkpt>
      <trkpt lon="-2.211626" lat="53.116410"><ele>318.948853</ele><time>2022-03-04T12:39:53Z</time><extensions><speed>1.207734</speed><course>356.510376</course><hAcc>1.651413</hAcc><vAcc>0.825282</vAcc></extensions></trkpt>
      <trkpt lon="-2.211628" lat="53.116421"><ele>318.831573</ele><time>2022-03-04T12:39:54Z</time><extensions><speed>1.194988</speed><course>353.807861</course><hAcc>1.659047</hAcc><vAcc>0.825280</vAcc></extensions></trkpt>
      <trkpt lon="-2.211630" lat="53.116432"><ele>318.696777</ele><time>2022-03-04T12:39:55Z</time><extensions><speed>1.214131</speed><course>351.742645</course><hAcc>1.666938</hAcc><vAcc>0.825275</vAcc></extensions></trkpt>
      <trkpt lon="-2.211633" lat="53.116443"><ele>318.567596</ele><time>2022-03-04T12:39:56Z</time><extensions><speed>1.205565</speed><course>351.968719</course><hAcc>1.665872</hAcc><vAcc>0.825279</vAcc></extensions></trkpt>
      <trkpt lon="-2.211635" lat="53.116453"><ele>318.445770</ele><time>2022-03-04T12:39:57Z</time><extensions><speed>1.189463</speed><course>353.018829</course><hAcc>1.668108</hAcc><vAcc>0.825289</vAcc></extensions></trkpt>
      <trkpt lon="-2.211637" lat="53.116464"><ele>318.320221</ele><time>2022-03-04T12:39:58Z</time><extensions><speed>1.147479</speed><course>352.915161</course><hAcc>1.663234</hAcc><vAcc>0.825303</vAcc></extensions></trkpt>
      <trkpt lon="-2.211639" lat="53.116474"><ele>318.202759</ele><time>2022-03-04T12:39:59Z</time><extensions><speed>1.087395</speed><course>351.183258</course><hAcc>1.663598</hAcc><vAcc>0.825304</vAcc></extensions></trkpt>
      <trkpt lon="-2.211642" lat="53.116483"><ele>318.098602</ele><time>2022-03-04T12:40:00Z</time><extensions><speed>1.072709</speed><course>349.802399</course><hAcc>1.667989</hAcc><vAcc>0.825379</vAcc></extensions></trkpt>
      <trkpt lon="-2.211645" lat="53.116493"><ele>317.989197</ele><time>2022-03-04T12:40:02Z</time><extensions><speed>1.075754</speed><course>349.121735</course><hAcc>1.672089</hAcc><vAcc>0.825408</vAcc></extensions></trkpt>
      <trkpt lon="-2.211648" lat="53.116502"><ele>317.889099</ele><time>2022-03-04T12:40:03Z</time><extensions><speed>1.065901</speed><course>349.780243</course><hAcc>1.668402</hAcc><vAcc>0.825439</vAcc></extensions></trkpt>
      <trkpt lon="-2.211651" lat="53.116512"><ele>317.796204</ele><time>2022-03-04T12:40:04Z</time><extensions><speed>1.123432</speed><course>352.055115</course><hAcc>1.663012</hAcc><vAcc>0.825479</vAcc></extensions></trkpt>
      <trkpt lon="-2.211653" lat="53.116522"><ele>317.717560</ele><time>2022-03-04T12:40:05Z</time><extensions><speed>1.158113</speed><course>353.176910</course><hAcc>1.659550</hAcc><vAcc>0.825527</vAcc></extensions></trkpt>
      <trkpt lon="-2.211655" lat="53.116532"><ele>317.645599</ele><time>2022-03-04T12:40:06Z</time><extensions><speed>1.156873</speed><course>353.865479</course><hAcc>1.654536</hAcc><vAcc>0.825581</vAcc></extensions></trkpt>
      <trkpt lon="-2.211656" lat="53.116543"><ele>317.576324</ele><time>2022-03-04T12:40:07Z</time><extensions><speed>1.142621</speed><course>355.216370</course><hAcc>1.651088</hAcc><vAcc>0.825649</vAcc></extensions></trkpt>
      <trkpt lon="-2.211658" lat="53.116553"><ele>317.518494</ele><time>2022-03-04T12:40:08Z</time><extensions><speed>1.103270</speed><course>356.635651</course><hAcc>1.641309</hAcc><vAcc>0.825710</vAcc></extensions></trkpt>
      <trkpt lon="-2.211659" lat="53.116563"><ele>317.463959</ele><time>2022-03-04T12:40:09Z</time><extensions><speed>1.091596</speed><course>356.227631</course><hAcc>1.641077</hAcc><vAcc>0.825778</vAcc></extensions></trkpt>
      <trkpt lon="-2.211659" lat="53.116572"><ele>317.427521</ele><time>2022-03-04T12:40:10Z</time><extensions><speed>0.944391</speed><course>357.959656</course><hAcc>1.645301</hAcc><vAcc>0.825827</vAcc></extensions></trkpt>
      <trkpt lon="-2.211660" lat="53.116580"><ele>317.392944</ele><time>2022-03-04T12:40:11Z</time><extensions><speed>0.832633</speed><course>0.641326</course><hAcc>1.674203</hAcc><vAcc>0.825857</vAcc></extensions></trkpt>
      <trkpt lon="-2.211660" lat="53.116587"><ele>317.360291</ele><time>2022-03-04T12:40:12Z</time><extensions><speed>0.742376</speed><course>359.403809</course><hAcc>1.657524</hAcc><vAcc>0.825850</vAcc></extensions></trkpt>
      <trkpt lon="-2.211660" lat="53.116593"><ele>317.337494</ele><time>2022-03-04T12:40:13Z</time><extensions><speed>0.628986</speed><course>358.723267</course><hAcc>1.657093</hAcc><vAcc>0.825820</vAcc></extensions></trkpt>
      <trkpt lon="-2.211660" lat="53.116598"><ele>317.317078</ele><time>2022-03-04T12:40:14Z</time><extensions><speed>0.499362</speed><course>0.883238</course><hAcc>1.667080</hAcc><vAcc>0.825771</vAcc></extensions></trkpt>
      <trkpt lon="-2.211659" lat="53.116602"><ele>317.295166</ele><time>2022-03-04T12:40:15Z</time><extensions><speed>0.405560</speed><course>6.048588</course><hAcc>1.685919</hAcc><vAcc>0.825713</vAcc></extensions></trkpt>
      <trkpt lon="-2.211659" lat="53.116605"><ele>317.283325</ele><time>2022-03-04T12:40:16Z</time><extensions><speed>0.288490</speed><course>12.714794</course><hAcc>1.700702</hAcc><vAcc>0.825646</vAcc></extensions></trkpt>
      <trkpt lon="-2.211657" lat="53.116608"><ele>317.259644</ele><time>2022-03-04T12:40:17Z</time><extensions><speed>0.350816</speed><course>18.342897</course><hAcc>1.709134</hAcc><vAcc>0.825578</vAcc></extensions></trkpt>
      <trkpt lon="-2.211655" lat="53.116612"><ele>317.228210</ele><time>2022-03-04T12:40:18Z</time><extensions><speed>0.554264</speed><course>20.498434</course><hAcc>1.722240</hAcc><vAcc>0.825511</vAcc></extensions></trkpt>
      <trkpt lon="-2.211652" lat="53.116617"><ele>317.201263</ele><time>2022-03-04T12:40:19Z</time><extensions><speed>0.563861</speed><course>19.918037</course><hAcc>1.731151</hAcc><vAcc>0.825470</vAcc></extensions></trkpt>
      <trkpt lon="-2.211650" lat="53.116621"><ele>317.174164</ele><time>2022-03-04T12:40:20Z</time><extensions><speed>0.448249</speed><course>13.779119</course><hAcc>1.731140</hAcc><vAcc>0.825427</vAcc></extensions></trkpt>
      <trkpt lon="-2.211649" lat="53.116624"><ele>317.147217</ele><time>2022-03-04T12:40:21Z</time><extensions><speed>0.264557</speed><course>358.858002</course><hAcc>1.738029</hAcc><vAcc>0.825391</vAcc></extensions></trkpt>
      <trkpt lon="-2.211650" lat="53.116626"><ele>317.115936</ele><time>2022-03-04T12:40:22Z</time><extensions><speed>0.211662</speed><course>343.138306</course><hAcc>1.740531</hAcc><vAcc>0.825385</vAcc></extensions></trkpt>
      <trkpt lon="-2.211651" lat="53.116628"><ele>317.079041</ele><time>2022-03-04T12:40:23Z</time><extensions><speed>0.190603</speed><course>332.550507</course><hAcc>1.745463</hAcc><vAcc>0.825388</vAcc></extensions></trkpt>
      <trkpt lon="-2.211652" lat="53.116629"><ele>317.047241</ele><time>2022-03-04T12:40:24Z</time><extensions><speed>0.182370</speed><course>326.360657</course><hAcc>1.749586</hAcc><vAcc>0.825409</vAcc></extensions></trkpt>
      <trkpt lon="-2.211654" lat="53.116631"><ele>317.018066</ele><time>2022-03-04T12:40:25Z</time><extensions><speed>0.176425</speed><course>321.866577</course><hAcc>1.753431</hAcc><vAcc>0.825450</vAcc></extensions></trkpt>
      <trkpt lon="-2.211656" lat="53.116632"><ele>316.988800</ele><time>2022-03-04T12:40:26Z</time><extensions><speed>0.174902</speed><course>316.736877</course><hAcc>1.755347</hAcc><vAcc>0.825493</vAcc></extensions></trkpt>
      <trkpt lon="-2.211658" lat="53.116633"><ele>316.947601</ele><time>2022-03-04T12:40:27Z</time><extensions><speed>0.173579</speed><course>310.293488</course><hAcc>1.757596</hAcc><vAcc>0.825553</vAcc></extensions></trkpt>
      <trkpt lon="-2.211660" lat="53.116634"><ele>316.896423</ele><time>2022-03-04T12:40:28Z</time><extensions><speed>0.180767</speed><course>304.840942</course><hAcc>1.756591</hAcc><vAcc>0.825628</vAcc></extensions></trkpt>
      <trkpt lon="-2.211662" lat="53.116635"><ele>316.835144</ele><time>2022-03-04T12:40:29Z</time><extensions><speed>0.190922</speed><course>301.957275</course><hAcc>1.756534</hAcc><vAcc>0.825698</vAcc></extensions></trkpt>
      <trkpt lon="-2.211665" lat="53.116636"><ele>316.769318</ele><time>2022-03-04T12:40:30Z</time><extensions><speed>0.200575</speed><course>300.070587</course><hAcc>1.755969</hAcc><vAcc>0.825758</vAcc></extensions></trkpt>
      <trkpt lon="-2.211667" lat="53.116637"><ele>316.699799</ele><time>2022-03-04T12:40:31Z</time><extensions><speed>0.212868</speed><course>298.158020</course><hAcc>1.753810</hAcc><vAcc>0.825812</vAcc></extensions></trkpt>
      <trkpt lon="-2.211670" lat="53.116638"><ele>316.632721</ele><time>2022-03-04T12:40:32Z</time><extensions><speed>0.224575</speed><course>296.993652</course><hAcc>1.754567</hAcc><vAcc>0.825854</vAcc></extensions></trkpt>
      <trkpt lon="-2.211673" lat="53.116639"><ele>316.561432</ele><time>2022-03-04T12:40:33Z</time><extensions><speed>0.236957</speed><course>296.824829</course><hAcc>1.755565</hAcc><vAcc>0.825881</vAcc></extensions></trkpt>
      <trkpt lon="-2.211676" lat="53.116640"><ele>316.487640</ele><time>2022-03-04T12:40:34Z</time><extensions><speed>0.238952</speed><course>297.522736</course><hAcc>1.755651</hAcc><vAcc>0.825889</vAcc></extensions></trkpt>
      <trkpt lon="-2.211679" lat="53.116641"><ele>316.416351</ele><time>2022-03-04T12:40:35Z</time><extensions><speed>0.218396</speed><course>301.079559</course><hAcc>1.755335</hAcc><vAcc>0.825874</vAcc></extensions></trkpt>
      <trkpt lon="-2.211682" lat="53.116642"><ele>316.352570</ele><time>2022-03-04T12:40:36Z</time><extensions><speed>0.194483</speed><course>310.240112</course><hAcc>1.752343</hAcc><vAcc>0.825848</vAcc></extensions></trkpt>
      <trkpt lon="-2.211684" lat="53.116643"><ele>316.296906</ele><time>2022-03-04T12:40:37Z</time><extensions><speed>0.215688</speed><course>324.474060</course><hAcc>1.746808</hAcc><vAcc>0.825803</vAcc></extensions></trkpt>
      <trkpt lon="-2.211686" lat="53.116645"><ele>316.244568</ele><time>2022-03-04T12:40:38Z</time><extensions><speed>0.326150</speed><course>335.463928</course><hAcc>1.737094</hAcc><vAcc>0.825737</vAcc></extensions></trkpt>
      <trkpt lon="-2.211688" lat="53.116649"><ele>316.159485</ele><time>2022-03-04T12:40:39Z</time><extensions><speed>0.537003</speed><course>341.931732</course><hAcc>1.724232</hAcc><vAcc>0.825662</vAcc></extensions></trkpt>
      <trkpt lon="-2.211691" lat="53.116655"><ele>316.092041</ele><time>2022-03-04T12:40:40Z</time><extensions><speed>0.882909</speed><course>346.177338</course><hAcc>1.715239</hAcc><vAcc>0.825595</vAcc></extensions></trkpt>
      <trkpt lon="-2.211694" lat="53.116664"><ele>316.024597</ele><time>2022-03-04T12:40:41Z</time><extensions><speed>1.109640</speed><course>351.621826</course><hAcc>1.714427</hAcc><vAcc>0.825533</vAcc></extensions></trkpt>
      <trkpt lon="-2.211696" lat="53.116674"><ele>315.961884</ele><time>2022-03-04T12:40:42Z</time><extensions><speed>1.259250</speed><course>355.637543</course><hAcc>1.706162</hAcc><vAcc>0.825482</vAcc></extensions></trkpt>
      <trkpt lon="-2.211697" lat="53.116686"><ele>315.872650</ele><time>2022-03-04T12:40:43Z</time><extensions><speed>1.315780</speed><course>356.543274</course><hAcc>1.693102</hAcc><vAcc>0.825440</vAcc></extensions></trkpt>
      <trkpt lon="-2.211698" lat="53.116698"><ele>315.795105</ele><time>2022-03-04T12:40:44Z</time><extensions><speed>1.334175</speed><course>357.367889</course><hAcc>1.681713</hAcc><vAcc>0.825417</vAcc></extensions></trkpt>
      <trkpt lon="-2.211700" lat="53.116709"><ele>315.726044</ele><time>2022-03-04T12:40:45Z</time><extensions><speed>1.242649</speed><course>351.508057</course><hAcc>1.674978</hAcc><vAcc>0.825409</vAcc></extensions></trkpt>
      <trkpt lon="-2.211703" lat="53.116720"><ele>315.649109</ele><time>2022-03-04T12:40:46Z</time><extensions><speed>1.163380</speed><course>347.639160</course><hAcc>1.669904</hAcc><vAcc>0.825424</vAcc></extensions></trkpt>
      <trkpt lon="-2.211708" lat="53.116730"><ele>315.566406</ele><time>2022-03-04T12:40:47Z</time><extensions><speed>1.068411</speed><course>341.480377</course><hAcc>1.661431</hAcc><vAcc>0.825480</vAcc></extensions></trkpt>
      <trkpt lon="-2.211713" lat="53.116738"><ele>315.488586</ele><time>2022-03-04T12:40:48Z</time><extensions><speed>1.008020</speed><course>339.222504</course><hAcc>1.661103</hAcc><vAcc>0.825533</vAcc></extensions></trkpt>
      <trkpt lon="-2.211718" lat="53.116747"><ele>315.404633</ele><time>2022-03-04T12:40:49Z</time><extensions><speed>0.971607</speed><course>339.299744</course><hAcc>1.670305</hAcc><vAcc>0.825608</vAcc></extensions></trkpt>
      <trkpt lon="-2.211723" lat="53.116755"><ele>315.327515</ele><time>2022-03-04T12:40:50Z</time><extensions><speed>1.052572</speed><course>342.237640</course><hAcc>1.657936</hAcc><vAcc>0.825711</vAcc></extensions></trkpt>
      <trkpt lon="-2.211728" lat="53.116765"><ele>315.244629</ele><time>2022-03-04T12:40:51Z</time><extensions><speed>1.110570</speed><course>343.525299</course><hAcc>1.653164</hAcc><vAcc>0.825817</vAcc></extensions></trkpt>
      <trkpt lon="-2.211733" lat="53.116775"><ele>315.159210</ele><time>2022-03-04T12:40:52Z</time><extensions><speed>1.183557</speed><course>344.744537</course><hAcc>1.652623</hAcc><vAcc>0.825916</vAcc></extensions></trkpt>
      <trkpt lon="-2.211738" lat="53.116785"><ele>315.077881</ele><time>2022-03-04T12:40:53Z</time><extensions><speed>1.209872</speed><course>342.189331</course><hAcc>1.646728</hAcc><vAcc>0.826044</vAcc></extensions></trkpt>
      <trkpt lon="-2.211744" lat="53.116795"><ele>314.996002</ele><time>2022-03-04T12:40:54Z</time><extensions><speed>1.304487</speed><course>339.135803</course><hAcc>1.641879</hAcc><vAcc>0.826138</vAcc></extensions></trkpt>
      <trkpt lon="-2.211751" lat="53.116807"><ele>314.919464</ele><time>2022-03-04T12:40:55Z</time><extensions><speed>1.380532</speed><course>336.964264</course><hAcc>1.635560</hAcc><vAcc>0.826237</vAcc></extensions></trkpt>
      <trkpt lon="-2.211760" lat="53.116818"><ele>314.847443</ele><time>2022-03-04T12:40:56Z</time><extensions><speed>1.332905</speed><course>336.136780</course><hAcc>1.627553</hAcc><vAcc>0.826365</vAcc></extensions></trkpt>
      <trkpt lon="-2.211768" lat="53.116828"><ele>314.750549</ele><time>2022-03-04T12:40:57Z</time><extensions><speed>1.283315</speed><course>335.966553</course><hAcc>1.607244</hAcc><vAcc>0.826508</vAcc></extensions></trkpt>
      <trkpt lon="-2.211776" lat="53.116839"><ele>314.657837</ele><time>2022-03-04T12:40:57Z</time><extensions><speed>1.272522</speed><course>333.727539</course><hAcc>1.568988</hAcc><vAcc>0.826626</vAcc></extensions></trkpt>
      <trkpt lon="-2.211784" lat="53.116849"><ele>314.565552</ele><time>2022-03-04T12:40:58Z</time><extensions><speed>1.256299</speed><course>331.416779</course><hAcc>1.552646</hAcc><vAcc>0.826737</vAcc></extensions></trkpt>
      <trkpt lon="-2.211794" lat="53.116859"><ele>314.477631</ele><time>2022-03-04T12:40:59Z</time><extensions><speed>1.232973</speed><course>330.071716</course><hAcc>1.578277</hAcc><vAcc>0.826830</vAcc></extensions></trkpt>
      <trkpt lon="-2.211803" lat="53.116869"><ele>314.382690</ele><time>2022-03-04T12:41:00Z</time><extensions><speed>1.345195</speed><course>327.928192</course><hAcc>1.582625</hAcc><vAcc>0.826936</vAcc></extensions></trkpt>
      <trkpt lon="-2.211814" lat="53.116878"><ele>314.286987</ele><time>2022-03-04T12:41:01Z</time><extensions><speed>1.280041</speed><course>323.764343</course><hAcc>1.541271</hAcc><vAcc>0.827031</vAcc></extensions></trkpt>
      <trkpt lon="-2.211826" lat="53.116887"><ele>314.196838</ele><time>2022-03-04T12:41:02Z</time><extensions><speed>1.214299</speed><course>321.515900</course><hAcc>1.555863</hAcc><vAcc>0.827108</vAcc></extensions></trkpt>
      <trkpt lon="-2.211837" lat="53.116896"><ele>314.104889</ele><time>2022-03-04T12:41:03Z</time><extensions><speed>1.168102</speed><course>319.663910</course><hAcc>1.521660</hAcc><vAcc>0.827181</vAcc></extensions></trkpt>
      <trkpt lon="-2.211848" lat="53.116904"><ele>313.995789</ele><time>2022-03-04T12:41:04Z</time><extensions><speed>1.162239</speed><course>319.941345</course><hAcc>1.527020</hAcc><vAcc>0.827260</vAcc></extensions></trkpt>
      <trkpt lon="-2.211860" lat="53.116912"><ele>313.899536</ele><time>2022-03-04T12:41:05Z</time><extensions><speed>1.187801</speed><course>319.993500</course><hAcc>1.579249</hAcc><vAcc>0.827313</vAcc></extensions></trkpt>
      <trkpt lon="-2.211872" lat="53.116920"><ele>313.795166</ele><time>2022-03-04T12:41:06Z</time><extensions><speed>1.296974</speed><course>320.288879</course><hAcc>1.609356</hAcc><vAcc>0.827349</vAcc></extensions></trkpt>
      <trkpt lon="-2.211884" lat="53.116929"><ele>313.680725</ele><time>2022-03-04T12:41:07Z</time><extensions><speed>1.258646</speed><course>319.594543</course><hAcc>1.569274</hAcc><vAcc>0.827369</vAcc></extensions></trkpt>
      <trkpt lon="-2.211896" lat="53.116937"><ele>313.569092</ele><time>2022-03-04T12:41:08Z</time><extensions><speed>1.196975</speed><course>319.512665</course><hAcc>1.565754</hAcc><vAcc>0.827376</vAcc></extensions></trkpt>
      <trkpt lon="-2.211907" lat="53.116945"><ele>313.454163</ele><time>2022-03-04T12:41:09Z</time><extensions><speed>1.176901</speed><course>320.132599</course><hAcc>1.583400</hAcc><vAcc>0.827364</vAcc></extensions></trkpt>
      <trkpt lon="-2.211918" lat="53.116954"><ele>313.340759</ele><time>2022-03-04T12:41:10Z</time><extensions><speed>1.149366</speed><course>321.014832</course><hAcc>1.606861</hAcc><vAcc>0.827331</vAcc></extensions></trkpt>
      <trkpt lon="-2.211929" lat="53.116962"><ele>313.239105</ele><time>2022-03-04T12:41:11Z</time><extensions><speed>1.171344</speed><course>321.290802</course><hAcc>1.601839</hAcc><vAcc>0.827280</vAcc></extensions></trkpt>
      <trkpt lon="-2.211940" lat="53.116970"><ele>313.133453</ele><time>2022-03-04T12:41:12Z</time><extensions><speed>1.189094</speed><course>320.849915</course><hAcc>1.601386</hAcc><vAcc>0.827229</vAcc></extensions></trkpt>
      <trkpt lon="-2.211952" lat="53.116978"><ele>313.035156</ele><time>2022-03-04T12:41:13Z</time><extensions><speed>1.174648</speed><course>320.179230</course><hAcc>1.625375</hAcc><vAcc>0.827179</vAcc></extensions></trkpt>
      <trkpt lon="-2.211963" lat="53.116986"><ele>312.939545</ele><time>2022-03-04T12:41:14Z</time><extensions><speed>1.143270</speed><course>319.057129</course><hAcc>1.623422</hAcc><vAcc>0.827124</vAcc></extensions></trkpt>
      <trkpt lon="-2.211974" lat="53.116994"><ele>312.837128</ele><time>2022-03-04T12:41:15Z</time><extensions><speed>1.132419</speed><course>319.427643</course><hAcc>1.589134</hAcc><vAcc>0.827045</vAcc></extensions></trkpt>
      <trkpt lon="-2.211985" lat="53.117001"><ele>312.739960</ele><time>2022-03-04T12:41:16Z</time><extensions><speed>1.101858</speed><course>318.363403</course><hAcc>1.569610</hAcc><vAcc>0.826978</vAcc></extensions></trkpt>
      <trkpt lon="-2.211996" lat="53.117009"><ele>312.648865</ele><time>2022-03-04T12:41:17Z</time><extensions><speed>1.071981</speed><course>316.710785</course><hAcc>1.570273</hAcc><vAcc>0.826881</vAcc></extensions></trkpt>
      <trkpt lon="-2.212007" lat="53.117016"><ele>312.566864</ele><time>2022-03-04T12:41:18Z</time><extensions><speed>1.141240</speed><course>316.153595</course><hAcc>1.595590</hAcc><vAcc>0.826781</vAcc></extensions></trkpt>
      <trkpt lon="-2.212019" lat="53.117023"><ele>312.496918</ele><time>2022-03-04T12:41:19Z</time><extensions><speed>1.159785</speed><course>315.656494</course><hAcc>1.620141</hAcc><vAcc>0.826659</vAcc></extensions></trkpt>
      <trkpt lon="-2.212032" lat="53.117030"><ele>312.430695</ele><time>2022-03-04T12:41:20Z</time><extensions><speed>1.132332</speed><course>312.398102</course><hAcc>1.555125</hAcc><vAcc>0.826537</vAcc></extensions></trkpt>
      <trkpt lon="-2.212044" lat="53.117037"><ele>312.376068</ele><time>2022-03-04T12:41:21Z</time><extensions><speed>1.107032</speed><course>311.433105</course><hAcc>1.514054</hAcc><vAcc>0.826428</vAcc></extensions></trkpt>
      <trkpt lon="-2.212056" lat="53.117044"><ele>312.319519</ele><time>2022-03-04T12:41:22Z</time><extensions><speed>1.065356</speed><course>312.178467</course><hAcc>1.509747</hAcc><vAcc>0.826318</vAcc></extensions></trkpt>
      <trkpt lon="-2.212068" lat="53.117050"><ele>312.270233</ele><time>2022-03-04T12:41:23Z</time><extensions><speed>1.008367</speed><course>310.795380</course><hAcc>1.538632</hAcc><vAcc>0.826213</vAcc></extensions></trkpt>
      <trkpt lon="-2.212079" lat="53.117056"><ele>312.227875</ele><time>2022-03-04T12:41:24Z</time><extensions><speed>1.083854</speed><course>315.203308</course><hAcc>1.564746</hAcc><vAcc>0.826120</vAcc></extensions></trkpt>
      <trkpt lon="-2.212091" lat="53.117064"><ele>312.198486</ele><time>2022-03-04T12:41:25Z</time><extensions><speed>1.188202</speed><course>318.036652</course><hAcc>1.520593</hAcc><vAcc>0.826023</vAcc></extensions></trkpt>
      <trkpt lon="-2.212103" lat="53.117072"><ele>312.161438</ele><time>2022-03-04T12:41:26Z</time><extensions><speed>1.233395</speed><course>319.099274</course><hAcc>1.544250</hAcc><vAcc>0.825942</vAcc></extensions></trkpt>
      <trkpt lon="-2.212115" lat="53.117081"><ele>312.128815</ele><time>2022-03-04T12:41:27Z</time><extensions><speed>1.255831</speed><course>321.641785</course><hAcc>1.524528</hAcc><vAcc>0.825881</vAcc></extensions></trkpt>
      <trkpt lon="-2.212126" lat="53.117090"><ele>312.108490</ele><time>2022-03-04T12:41:28Z</time><extensions><speed>1.294003</speed><course>321.169159</course><hAcc>1.545552</hAcc><vAcc>0.825819</vAcc></extensions></trkpt>
      <trkpt lon="-2.212138" lat="53.117098"><ele>312.081757</ele><time>2022-03-04T12:41:29Z</time><extensions><speed>1.210225</speed><course>319.380646</course><hAcc>1.535020</hAcc><vAcc>0.825787</vAcc></extensions></trkpt>
      <trkpt lon="-2.212150" lat="53.117106"><ele>312.061615</ele><time>2022-03-04T12:41:30Z</time><extensions><speed>1.116464</speed><course>317.063202</course><hAcc>1.538618</hAcc><vAcc>0.825775</vAcc></extensions></trkpt>
      <trkpt lon="-2.212161" lat="53.117113"><ele>312.026245</ele><time>2022-03-04T12:41:31Z</time><extensions><speed>1.105550</speed><course>316.703003</course><hAcc>1.558647</hAcc><vAcc>0.825782</vAcc></extensions></trkpt>
      <trkpt lon="-2.212173" lat="53.117121"><ele>311.988068</ele><time>2022-03-04T12:41:32Z</time><extensions><speed>1.210100</speed><course>317.501648</course><hAcc>1.570225</hAcc><vAcc>0.825795</vAcc></extensions></trkpt>
      <trkpt lon="-2.212185" lat="53.117129"><ele>311.952301</ele><time>2022-03-04T12:41:33Z</time><extensions><speed>1.146163</speed><course>317.263947</course><hAcc>1.591395</hAcc><vAcc>0.825829</vAcc></extensions></trkpt>
      <trkpt lon="-2.212197" lat="53.117136"><ele>311.910828</ele><time>2022-03-04T12:41:34Z</time><extensions><speed>1.182381</speed><course>318.965424</course><hAcc>1.556238</hAcc><vAcc>0.825899</vAcc></extensions></trkpt>
      <trkpt lon="-2.212209" lat="53.117144"><ele>311.871155</ele><time>2022-03-04T12:41:35Z</time><extensions><speed>1.218866</speed><course>318.646179</course><hAcc>1.537774</hAcc><vAcc>0.825975</vAcc></extensions></trkpt>
      <trkpt lon="-2.212221" lat="53.117153"><ele>311.824097</ele><time>2022-03-04T12:41:36Z</time><extensions><speed>1.263805</speed><course>317.886597</course><hAcc>1.564816</hAcc><vAcc>0.826060</vAcc></extensions></trkpt>
      <trkpt lon="-2.212233" lat="53.117161"><ele>311.771118</ele><time>2022-03-04T12:41:37Z</time><extensions><speed>1.167144</speed><course>317.001038</course><hAcc>1.596350</hAcc><vAcc>0.826186</vAcc></extensions></trkpt>
      <trkpt lon="-2.212245" lat="53.117168"><ele>311.715637</ele><time>2022-03-04T12:41:38Z</time><extensions><speed>1.122996</speed><course>313.837799</course><hAcc>1.549866</hAcc><vAcc>0.826337</vAcc></extensions></trkpt>
      <trkpt lon="-2.212257" lat="53.117175"><ele>311.663849</ele><time>2022-03-04T12:41:39Z</time><extensions><speed>1.097957</speed><course>311.931183</course><hAcc>1.527332</hAcc><vAcc>0.826501</vAcc></extensions></trkpt>
      <trkpt lon="-2.212269" lat="53.117181"><ele>311.614990</ele><time>2022-03-04T12:41:40Z</time><extensions><speed>1.084876</speed><course>311.710266</course><hAcc>1.534723</hAcc><vAcc>0.826684</vAcc></extensions></trkpt>
      <trkpt lon="-2.212282" lat="53.117188"><ele>311.571747</ele><time>2022-03-04T12:41:41Z</time><extensions><speed>1.112459</speed><course>310.831726</course><hAcc>1.550858</hAcc><vAcc>0.826897</vAcc></extensions></trkpt>
      <trkpt lon="-2.212294" lat="53.117194"><ele>311.518707</ele><time>2022-03-04T12:41:42Z</time><extensions><speed>1.075739</speed><course>308.135834</course><hAcc>1.510543</hAcc><vAcc>0.827124</vAcc></extensions></trkpt>
      <trkpt lon="-2.212307" lat="53.117200"><ele>311.456726</ele><time>2022-03-04T12:41:43Z</time><extensions><speed>1.069381</speed><course>304.951202</course><hAcc>1.529581</hAcc><vAcc>0.827350</vAcc></extensions></trkpt>
      <trkpt lon="-2.212321" lat="53.117205"><ele>311.379364</ele><time>2022-03-04T12:41:44Z</time><extensions><speed>1.143582</speed><course>302.349792</course><hAcc>1.551428</hAcc><vAcc>0.827549</vAcc></extensions></trkpt>
      <trkpt lon="-2.212335" lat="53.117211"><ele>311.295258</ele><time>2022-03-04T12:41:45Z</time><extensions><speed>1.081296</speed><course>302.511047</course><hAcc>1.505221</hAcc><vAcc>0.827739</vAcc></extensions></trkpt>
      <trkpt lon="-2.212348" lat="53.117216"><ele>311.202850</ele><time>2022-03-04T12:41:46Z</time><extensions><speed>0.983619</speed><course>304.371246</course><hAcc>1.482224</hAcc><vAcc>0.827915</vAcc></extensions></trkpt>
      <trkpt lon="-2.212359" lat="53.117221"><ele>311.105957</ele><time>2022-03-04T12:41:47Z</time><extensions><speed>0.935284</speed><course>306.765289</course><hAcc>1.533557</hAcc><vAcc>0.828071</vAcc></extensions></trkpt>
      <trkpt lon="-2.212370" lat="53.117226"><ele>311.012817</ele><time>2022-03-04T12:41:48Z</time><extensions><speed>0.841566</speed><course>311.488159</course><hAcc>1.578567</hAcc><vAcc>0.828174</vAcc></extensions></trkpt>
      <trkpt lon="-2.212379" lat="53.117231"><ele>310.919220</ele><time>2022-03-04T12:41:49Z</time><extensions><speed>0.797115</speed><course>313.782745</course><hAcc>1.524708</hAcc><vAcc>0.828249</vAcc></extensions></trkpt>
      <trkpt lon="-2.212387" lat="53.117236"><ele>310.826904</ele><time>2022-03-04T12:41:50Z</time><extensions><speed>0.854008</speed><course>314.876160</course><hAcc>1.512715</hAcc><vAcc>0.828263</vAcc></extensions></trkpt>
      <trkpt lon="-2.212397" lat="53.117242"><ele>310.742218</ele><time>2022-03-04T12:41:51Z</time><extensions><speed>0.961666</speed><course>316.520569</course><hAcc>1.548923</hAcc><vAcc>0.828241</vAcc></extensions></trkpt>
      <trkpt lon="-2.212407" lat="53.117249"><ele>310.651428</ele><time>2022-03-04T12:41:52Z</time><extensions><speed>1.029740</speed><course>318.726196</course><hAcc>1.594553</hAcc><vAcc>0.828154</vAcc></extensions></trkpt>
      <trkpt lon="-2.212417" lat="53.117256"><ele>310.563934</ele><time>2022-03-04T12:41:53Z</time><extensions><speed>1.056689</speed><course>320.384857</course><hAcc>1.614714</hAcc><vAcc>0.828073</vAcc></extensions></trkpt>
      <trkpt lon="-2.212427" lat="53.117263"><ele>310.474274</ele><time>2022-03-04T12:41:54Z</time><extensions><speed>1.094874</speed><course>323.556549</course><hAcc>1.579769</hAcc><vAcc>0.827958</vAcc></extensions></trkpt>
      <trkpt lon="-2.212437" lat="53.117272"><ele>310.385651</ele><time>2022-03-04T12:41:55Z</time><extensions><speed>1.149606</speed><course>325.399048</course><hAcc>1.580535</hAcc><vAcc>0.827829</vAcc></extensions></trkpt>
      <trkpt lon="-2.212446" lat="53.117280"><ele>310.302704</ele><time>2022-03-04T12:41:56Z</time><extensions><speed>1.154218</speed><course>326.147400</course><hAcc>1.601768</hAcc><vAcc>0.827691</vAcc></extensions></trkpt>
      <trkpt lon="-2.212455" lat="53.117288"><ele>310.234863</ele><time>2022-03-04T12:41:57Z</time><extensions><speed>1.072385</speed><course>326.895172</course><hAcc>1.617613</hAcc><vAcc>0.827558</vAcc></extensions></trkpt>
      <trkpt lon="-2.212464" lat="53.117296"><ele>310.170105</ele><time>2022-03-04T12:41:58Z</time><extensions><speed>0.935594</speed><course>327.861633</course><hAcc>1.636573</hAcc><vAcc>0.827428</vAcc></extensions></trkpt>
      <trkpt lon="-2.212470" lat="53.117302"><ele>310.113464</ele><time>2022-03-04T12:41:59Z</time><extensions><speed>0.777627</speed><course>328.198578</course><hAcc>1.670760</hAcc><vAcc>0.827331</vAcc></extensions></trkpt>
      <trkpt lon="-2.212476" lat="53.117308"><ele>310.064117</ele><time>2022-03-04T12:42:00Z</time><extensions><speed>0.634936</speed><course>325.835449</course><hAcc>1.657535</hAcc><vAcc>0.827248</vAcc></extensions></trkpt>
      <trkpt lon="-2.212481" lat="53.117312"><ele>310.026428</ele><time>2022-03-04T12:42:01Z</time><extensions><speed>0.536548</speed><course>319.061890</course><hAcc>1.658779</hAcc><vAcc>0.827185</vAcc></extensions></trkpt>
      <trkpt lon="-2.212486" lat="53.117314"><ele>309.988556</ele><time>2022-03-04T12:42:02Z</time><extensions><speed>0.329743</speed><course>297.046021</course><hAcc>1.669934</hAcc><vAcc>0.827154</vAcc></extensions></trkpt>
      <trkpt lon="-2.212490" lat="53.117315"><ele>309.956512</ele><time>2022-03-04T12:42:03Z</time><extensions><speed>0.189128</speed><course>251.301712</course><hAcc>1.691087</hAcc><vAcc>0.827131</vAcc></extensions></trkpt>
      <trkpt lon="-2.212492" lat="53.117314"><ele>309.931763</ele><time>2022-03-04T12:42:04Z</time><extensions><speed>0.201422</speed><course>225.681290</course><hAcc>1.702271</hAcc><vAcc>0.827105</vAcc></extensions></trkpt>
      <trkpt lon="-2.212494" lat="53.117313"><ele>309.921173</ele><time>2022-03-04T12:42:05Z</time><extensions><speed>0.205535</speed><course>219.857758</course><hAcc>1.709471</hAcc><vAcc>0.827086</vAcc></extensions></trkpt>
      <trkpt lon="-2.212496" lat="53.117311"><ele>309.918060</ele><time>2022-03-04T12:42:06Z</time><extensions><speed>0.198316</speed><course>221.434875</course><hAcc>1.712624</hAcc><vAcc>0.827078</vAcc></extensions></trkpt>
      <trkpt lon="-2.212499" lat="53.117310"><ele>309.902008</ele><time>2022-03-04T12:42:08Z</time><extensions><speed>0.190508</speed><course>226.615463</course><hAcc>1.712783</hAcc><vAcc>0.827052</vAcc></extensions></trkpt>
      <trkpt lon="-2.212501" lat="53.117309"><ele>309.880463</ele><time>2022-03-04T12:42:09Z</time><extensions><speed>0.184468</speed><course>234.094803</course><hAcc>1.715958</hAcc><vAcc>0.826958</vAcc></extensions></trkpt>
      <trkpt lon="-2.212503" lat="53.117308"><ele>309.849884</ele><time>2022-03-04T12:42:10Z</time><extensions><speed>0.187814</speed><course>243.568390</course><hAcc>1.720405</hAcc><vAcc>0.826855</vAcc></extensions></trkpt>
      <trkpt lon="-2.212506" lat="53.117307"><ele>309.820282</ele><time>2022-03-04T12:42:11Z</time><extensions><speed>0.195924</speed><course>254.168900</course><hAcc>1.724240</hAcc><vAcc>0.826742</vAcc></extensions></trkpt>
      <trkpt lon="-2.212509" lat="53.117307"><ele>309.792725</ele><time>2022-03-04T12:42:12Z</time><extensions><speed>0.204882</speed><course>265.982666</course><hAcc>1.726630</hAcc><vAcc>0.826610</vAcc></extensions></trkpt>
      <trkpt lon="-2.212512" lat="53.117307"><ele>309.759796</ele><time>2022-03-04T12:42:13Z</time><extensions><speed>0.218819</speed><course>280.500214</course><hAcc>1.730744</hAcc><vAcc>0.826461</vAcc></extensions></trkpt>
      <trkpt lon="-2.212515" lat="53.117308"><ele>309.725525</ele><time>2022-03-04T12:42:14Z</time><extensions><speed>0.254709</speed><course>299.049316</course><hAcc>1.737094</hAcc><vAcc>0.826307</vAcc></extensions></trkpt>
      <trkpt lon="-2.212519" lat="53.117310"><ele>309.696320</ele><time>2022-03-04T12:42:15Z</time><extensions><speed>0.354822</speed><course>317.599945</course><hAcc>1.735832</hAcc><vAcc>0.826156</vAcc></extensions></trkpt>
      <trkpt lon="-2.212523" lat="53.117313"><ele>309.658752</ele><time>2022-03-04T12:42:16Z</time><extensions><speed>0.585886</speed><course>329.284119</course><hAcc>1.718644</hAcc><vAcc>0.826009</vAcc></extensions></trkpt>
      <trkpt lon="-2.212527" lat="53.117319"><ele>309.615723</ele><time>2022-03-04T12:42:17Z</time><extensions><speed>0.763051</speed><course>340.179871</course><hAcc>1.715569</hAcc><vAcc>0.825875</vAcc></extensions></trkpt>
      <trkpt lon="-2.212530" lat="53.117326"><ele>309.572449</ele><time>2022-03-04T12:42:18Z</time><extensions><speed>0.935277</speed><course>347.266510</course><hAcc>1.723219</hAcc><vAcc>0.825751</vAcc></extensions></trkpt>
      <trkpt lon="-2.212533" lat="53.117335"><ele>309.519745</ele><time>2022-03-04T12:42:19Z</time><extensions><speed>1.029826</speed><course>350.518280</course><hAcc>1.715961</hAcc><vAcc>0.825652</vAcc></extensions></trkpt>
      <trkpt lon="-2.212536" lat="53.117344"><ele>309.468994</ele><time>2022-03-04T12:42:20Z</time><extensions><speed>1.027676</speed><course>350.420013</course><hAcc>1.705111</hAcc><vAcc>0.825588</vAcc></extensions></trkpt>
      <trkpt lon="-2.212539" lat="53.117352"><ele>309.410767</ele><time>2022-03-04T12:42:21Z</time><extensions><speed>0.933992</speed><course>344.497833</course><hAcc>1.699091</hAcc><vAcc>0.825561</vAcc></extensions></trkpt>
      <trkpt lon="-2.212544" lat="53.117360"><ele>309.361450</ele><time>2022-03-04T12:42:22Z</time><extensions><speed>0.886254</speed><course>330.578094</course><hAcc>1.695079</hAcc><vAcc>0.825551</vAcc></extensions></trkpt>
      <trkpt lon="-2.212552" lat="53.117367"><ele>309.306030</ele><time>2022-03-04T12:42:23Z</time><extensions><speed>0.966509</speed><course>317.124451</course><hAcc>1.688743</hAcc><vAcc>0.825560</vAcc></extensions></trkpt>
      <trkpt lon="-2.212563" lat="53.117373"><ele>309.256256</ele><time>2022-03-04T12:42:24Z</time><extensions><speed>1.113732</speed><course>313.164490</course><hAcc>1.684024</hAcc><vAcc>0.825580</vAcc></extensions></trkpt>
      <trkpt lon="-2.212576" lat="53.117380"><ele>309.202667</ele><time>2022-03-04T12:42:25Z</time><extensions><speed>1.146792</speed><course>311.581757</course><hAcc>1.684649</hAcc><vAcc>0.825612</vAcc></extensions></trkpt>
      <trkpt lon="-2.212588" lat="53.117387"><ele>309.145386</ele><time>2022-03-04T12:42:26Z</time><extensions><speed>1.110806</speed><course>310.063538</course><hAcc>1.684923</hAcc><vAcc>0.825648</vAcc></extensions></trkpt>
      <trkpt lon="-2.212601" lat="53.117393"><ele>309.091339</ele><time>2022-03-04T12:42:27Z</time><extensions><speed>1.080885</speed><course>309.339630</course><hAcc>1.681310</hAcc><vAcc>0.825687</vAcc></extensions></trkpt>
      <trkpt lon="-2.212613" lat="53.117399"><ele>309.049744</ele><time>2022-03-04T12:42:28Z</time><extensions><speed>0.952990</speed><course>311.629913</course><hAcc>1.676190</hAcc><vAcc>0.825722</vAcc></extensions></trkpt>
      <trkpt lon="-2.212621" lat="53.117405"><ele>309.011078</ele><time>2022-03-04T12:42:29Z</time><extensions><speed>0.738276</speed><course>324.803009</course><hAcc>1.669729</hAcc><vAcc>0.825769</vAcc></extensions></trkpt>
      <trkpt lon="-2.212626" lat="53.117410"><ele>308.980255</ele><time>2022-03-04T12:42:30Z</time><extensions><speed>0.731109</speed><course>345.724701</course><hAcc>1.671837</hAcc><vAcc>0.825809</vAcc></extensions></trkpt>
      <trkpt lon="-2.212627" lat="53.117418"><ele>308.944641</ele><time>2022-03-04T12:42:31Z</time><extensions><speed>0.868394</speed><course>356.049805</course><hAcc>1.683518</hAcc><vAcc>0.825834</vAcc></extensions></trkpt>
      <trkpt lon="-2.212628" lat="53.117426"><ele>308.896393</ele><time>2022-03-04T12:42:32Z</time><extensions><speed>1.006536</speed><course>355.394501</course><hAcc>1.669907</hAcc><vAcc>0.825864</vAcc></extensions></trkpt>
      <trkpt lon="-2.212631" lat="53.117435"><ele>308.843384</ele><time>2022-03-04T12:42:33Z</time><extensions><speed>1.023356</speed><course>346.669861</course><hAcc>1.663533</hAcc><vAcc>0.825896</vAcc></extensions></trkpt>
      <trkpt lon="-2.212635" lat="53.117444"><ele>308.791870</ele><time>2022-03-04T12:42:34Z</time><extensions><speed>1.098285</speed><course>338.768005</course><hAcc>1.662207</hAcc><vAcc>0.825944</vAcc></extensions></trkpt>
      <trkpt lon="-2.212642" lat="53.117453"><ele>308.738617</ele><time>2022-03-04T12:42:35Z</time><extensions><speed>1.205691</speed><course>333.705841</course><hAcc>1.658756</hAcc><vAcc>0.825995</vAcc></extensions></trkpt>
      <trkpt lon="-2.212651" lat="53.117464"><ele>308.690491</ele><time>2022-03-04T12:42:36Z</time><extensions><speed>1.341299</speed><course>331.507385</course><hAcc>1.655142</hAcc><vAcc>0.826044</vAcc></extensions></trkpt>
      <trkpt lon="-2.212661" lat="53.117474"><ele>308.639008</ele><time>2022-03-04T12:42:37Z</time><extensions><speed>1.374523</speed><course>330.894806</course><hAcc>1.650028</hAcc><vAcc>0.826102</vAcc></extensions></trkpt>
      <trkpt lon="-2.212671" lat="53.117485"><ele>308.572418</ele><time>2022-03-04T12:42:38Z</time><extensions><speed>1.331226</speed><course>330.187378</course><hAcc>1.649501</hAcc><vAcc>0.826168</vAcc></extensions></trkpt>
      <trkpt lon="-2.212681" lat="53.117495"><ele>308.494690</ele><time>2022-03-04T12:42:39Z</time><extensions><speed>1.264917</speed><course>331.544891</course><hAcc>1.648121</hAcc><vAcc>0.826259</vAcc></extensions></trkpt>
      <trkpt lon="-2.212689" lat="53.117505"><ele>308.414886</ele><time>2022-03-04T12:42:40Z</time><extensions><speed>1.210774</speed><course>337.098175</course><hAcc>1.631746</hAcc><vAcc>0.826357</vAcc></extensions></trkpt>
      <trkpt lon="-2.212695" lat="53.117515"><ele>308.328949</ele><time>2022-03-04T12:42:41Z</time><extensions><speed>1.125342</speed><course>341.300568</course><hAcc>1.601978</hAcc><vAcc>0.826463</vAcc></extensions></trkpt>
      <trkpt lon="-2.212700" lat="53.117524"><ele>308.244415</ele><time>2022-03-04T12:42:42Z</time><extensions><speed>1.056128</speed><course>338.829376</course><hAcc>1.576028</hAcc><vAcc>0.826579</vAcc></extensions></trkpt>
      <trkpt lon="-2.212707" lat="53.117532"><ele>308.134033</ele><time>2022-03-04T12:42:43Z</time><extensions><speed>0.999027</speed><course>331.536591</course><hAcc>1.566368</hAcc><vAcc>0.826682</vAcc></extensions></trkpt>
      <trkpt lon="-2.212715" lat="53.117540"><ele>308.022156</ele><time>2022-03-04T12:42:44Z</time><extensions><speed>1.055139</speed><course>323.938507</course><hAcc>1.580976</hAcc><vAcc>0.826824</vAcc></extensions></trkpt>
      <trkpt lon="-2.212725" lat="53.117548"><ele>307.910248</ele><time>2022-03-04T12:42:45Z</time><extensions><speed>1.169184</speed><course>319.349426</course><hAcc>1.601965</hAcc><vAcc>0.826955</vAcc></extensions></trkpt>
      <trkpt lon="-2.212737" lat="53.117556"><ele>307.793518</ele><time>2022-03-04T12:42:46Z</time><extensions><speed>1.183004</speed><course>315.880585</course><hAcc>1.558655</hAcc><vAcc>0.827084</vAcc></extensions></trkpt>
      <trkpt lon="-2.212749" lat="53.117563"><ele>307.662415</ele><time>2022-03-04T12:42:47Z</time><extensions><speed>1.139037</speed><course>314.456848</course><hAcc>1.552520</hAcc><vAcc>0.827210</vAcc></extensions></trkpt>
      <trkpt lon="-2.212762" lat="53.117570"><ele>307.524323</ele><time>2022-03-04T12:42:48Z</time><extensions><speed>1.103086</speed><course>313.529388</course><hAcc>1.536295</hAcc><vAcc>0.827338</vAcc></extensions></trkpt>
      <trkpt lon="-2.212773" lat="53.117577"><ele>307.392181</ele><time>2022-03-04T12:42:49Z</time><extensions><speed>1.120355</speed><course>316.559540</course><hAcc>1.542224</hAcc><vAcc>0.827455</vAcc></extensions></trkpt>
      <trkpt lon="-2.212785" lat="53.117585"><ele>307.268433</ele><time>2022-03-04T12:42:50Z</time><extensions><speed>1.215389</speed><course>321.057068</course><hAcc>1.546412</hAcc><vAcc>0.827543</vAcc></extensions></trkpt>
      <trkpt lon="-2.212796" lat="53.117594"><ele>307.137573</ele><time>2022-03-04T12:42:51Z</time><extensions><speed>1.343359</speed><course>324.552917</course><hAcc>1.562556</hAcc><vAcc>0.827645</vAcc></extensions></trkpt>
      <trkpt lon="-2.212808" lat="53.117604"><ele>307.006775</ele><time>2022-03-04T12:42:52Z</time><extensions><speed>1.327606</speed><course>324.001343</course><hAcc>1.542377</hAcc><vAcc>0.827735</vAcc></extensions></trkpt>
      <trkpt lon="-2.212820" lat="53.117613"><ele>306.877655</ele><time>2022-03-04T12:42:53Z</time><extensions><speed>1.234842</speed><course>321.505554</course><hAcc>1.522976</hAcc><vAcc>0.827799</vAcc></extensions></trkpt>
      <trkpt lon="-2.212831" lat="53.117622"><ele>306.742157</ele><time>2022-03-04T12:42:54Z</time><extensions><speed>1.157051</speed><course>320.874115</course><hAcc>1.543495</hAcc><vAcc>0.827829</vAcc></extensions></trkpt>
      <trkpt lon="-2.212842" lat="53.117630"><ele>306.620636</ele><time>2022-03-04T12:42:55Z</time><extensions><speed>1.216508</speed><course>321.286804</course><hAcc>1.496192</hAcc><vAcc>0.827856</vAcc></extensions></trkpt>
      <trkpt lon="-2.212853" lat="53.117639"><ele>306.494263</ele><time>2022-03-04T12:42:56Z</time><extensions><speed>1.242860</speed><course>321.958862</course><hAcc>1.475989</hAcc><vAcc>0.827872</vAcc></extensions></trkpt>
      <trkpt lon="-2.212864" lat="53.117648"><ele>306.371765</ele><time>2022-03-04T12:42:57Z</time><extensions><speed>1.210510</speed><course>325.299438</course><hAcc>1.486579</hAcc><vAcc>0.827867</vAcc></extensions></trkpt>
      <trkpt lon="-2.212874" lat="53.117656"><ele>306.250275</ele><time>2022-03-04T12:42:58Z</time><extensions><speed>1.169888</speed><course>326.696167</course><hAcc>1.516209</hAcc><vAcc>0.827852</vAcc></extensions></trkpt>
      <trkpt lon="-2.212884" lat="53.117665"><ele>306.138611</ele><time>2022-03-04T12:42:59Z</time><extensions><speed>1.245821</speed><course>323.839172</course><hAcc>1.513042</hAcc><vAcc>0.827843</vAcc></extensions></trkpt>
      <trkpt lon="-2.212896" lat="53.117674"><ele>306.019745</ele><time>2022-03-04T12:43:00Z</time><extensions><speed>1.311250</speed><course>321.226440</course><hAcc>1.484649</hAcc><vAcc>0.827799</vAcc></extensions></trkpt>
      <trkpt lon="-2.212908" lat="53.117684"><ele>305.901428</ele><time>2022-03-04T12:43:01Z</time><extensions><speed>1.305108</speed><course>319.608582</course><hAcc>1.524811</hAcc><vAcc>0.827779</vAcc></extensions></trkpt>
      <trkpt lon="-2.212919" lat="53.117692"><ele>305.798370</ele><time>2022-03-04T12:43:01Z</time><extensions><speed>1.186670</speed><course>321.778595</course><hAcc>1.493547</hAcc><vAcc>0.827727</vAcc></extensions></trkpt>
      <trkpt lon="-2.212929" lat="53.117701"><ele>305.702820</ele><time>2022-03-04T12:43:02Z</time><extensions><speed>1.148821</speed><course>326.293762</course><hAcc>1.489177</hAcc><vAcc>0.827675</vAcc></extensions></trkpt>
      <trkpt lon="-2.212938" lat="53.117710"><ele>305.616516</ele><time>2022-03-04T12:43:03Z</time><extensions><speed>1.178201</speed><course>331.145905</course><hAcc>1.500504</hAcc><vAcc>0.827622</vAcc></extensions></trkpt>
      <trkpt lon="-2.212946" lat="53.117719"><ele>305.518005</ele><time>2022-03-04T12:43:04Z</time><extensions><speed>1.183535</speed><course>335.128754</course><hAcc>1.533366</hAcc><vAcc>0.827586</vAcc></extensions></trkpt>
      <trkpt lon="-2.212952" lat="53.117729"><ele>305.421387</ele><time>2022-03-04T12:43:05Z</time><extensions><speed>1.148821</speed><course>340.829834</course><hAcc>1.531771</hAcc><vAcc>0.827536</vAcc></extensions></trkpt>
      <trkpt lon="-2.212957" lat="53.117739"><ele>305.328522</ele><time>2022-03-04T12:43:06Z</time><extensions><speed>1.092127</speed><course>347.832855</course><hAcc>1.492947</hAcc><vAcc>0.827487</vAcc></extensions></trkpt>
      <trkpt lon="-2.212960" lat="53.117748"><ele>305.235107</ele><time>2022-03-04T12:43:07Z</time><extensions><speed>1.020280</speed><course>352.308929</course><hAcc>1.503320</hAcc><vAcc>0.827438</vAcc></extensions></trkpt>
      <trkpt lon="-2.212961" lat="53.117757"><ele>305.141968</ele><time>2022-03-04T12:43:08Z</time><extensions><speed>0.958477</speed><course>358.864380</course><hAcc>1.533676</hAcc><vAcc>0.827361</vAcc></extensions></trkpt>
      <trkpt lon="-2.212960" lat="53.117766"><ele>305.053955</ele><time>2022-03-04T12:43:09Z</time><extensions><speed>1.049859</speed><course>10.025894</course><hAcc>1.501983</hAcc><vAcc>0.827271</vAcc></extensions></trkpt>
      <trkpt lon="-2.212957" lat="53.117775"><ele>304.984222</ele><time>2022-03-04T12:43:10Z</time><extensions><speed>1.093363</speed><course>14.788118</course><hAcc>1.533805</hAcc><vAcc>0.827203</vAcc></extensions></trkpt>
      <trkpt lon="-2.212952" lat="53.117785"><ele>304.912720</ele><time>2022-03-04T12:43:11Z</time><extensions><speed>1.263410</speed><course>19.498039</course><hAcc>1.502001</hAcc><vAcc>0.827118</vAcc></extensions></trkpt>
      <trkpt lon="-2.212945" lat="53.117796"><ele>304.844238</ele><time>2022-03-04T12:43:12Z</time><extensions><speed>1.251128</speed><course>19.876627</course><hAcc>1.503252</hAcc><vAcc>0.827046</vAcc></extensions></trkpt>
      <trkpt lon="-2.212940" lat="53.117806"><ele>304.775543</ele><time>2022-03-04T12:43:13Z</time><extensions><speed>1.133628</speed><course>18.244888</course><hAcc>1.543919</hAcc><vAcc>0.826981</vAcc></extensions></trkpt>
      <trkpt lon="-2.212935" lat="53.117815"><ele>304.706116</ele><time>2022-03-04T12:43:14Z</time><extensions><speed>0.999216</speed><course>16.034660</course><hAcc>1.601144</hAcc><vAcc>0.826955</vAcc></extensions></trkpt>
      <trkpt lon="-2.212932" lat="53.117823"><ele>304.633362</ele><time>2022-03-04T12:43:15Z</time><extensions><speed>0.909566</speed><course>11.547700</course><hAcc>1.575225</hAcc><vAcc>0.826922</vAcc></extensions></trkpt>
      <trkpt lon="-2.212930" lat="53.117831"><ele>304.566132</ele><time>2022-03-04T12:43:16Z</time><extensions><speed>0.891990</speed><course>3.480005</course><hAcc>1.572810</hAcc><vAcc>0.826871</vAcc></extensions></trkpt>
      <trkpt lon="-2.212930" lat="53.117840"><ele>304.499481</ele><time>2022-03-04T12:43:17Z</time><extensions><speed>0.909448</speed><course>351.408936</course><hAcc>1.593732</hAcc><vAcc>0.826829</vAcc></extensions></trkpt>
      <trkpt lon="-2.212934" lat="53.117847"><ele>304.445007</ele><time>2022-03-04T12:43:18Z</time><extensions><speed>0.939536</speed><course>334.509003</course><hAcc>1.603905</hAcc><vAcc>0.826821</vAcc></extensions></trkpt>
      <trkpt lon="-2.212942" lat="53.117855"><ele>304.385620</ele><time>2022-03-04T12:43:19Z</time><extensions><speed>1.054281</speed><course>324.066833</course><hAcc>1.612649</hAcc><vAcc>0.826841</vAcc></extensions></trkpt>
      <trkpt lon="-2.212952" lat="53.117863"><ele>304.336670</ele><time>2022-03-04T12:43:20Z</time><extensions><speed>1.195942</speed><course>320.559937</course><hAcc>1.622938</hAcc><vAcc>0.826874</vAcc></extensions></trkpt>
      <trkpt lon="-2.212965" lat="53.117872"><ele>304.285614</ele><time>2022-03-04T12:43:21Z</time><extensions><speed>1.293992</speed><course>318.007355</course><hAcc>1.607669</hAcc><vAcc>0.826919</vAcc></extensions></trkpt>
      <trkpt lon="-2.212978" lat="53.117880"><ele>304.253204</ele><time>2022-03-04T12:43:22Z</time><extensions><speed>1.301017</speed><course>316.140656</course><hAcc>1.584536</hAcc><vAcc>0.826979</vAcc></extensions></trkpt>
      <trkpt lon="-2.212991" lat="53.117888"><ele>304.204132</ele><time>2022-03-04T12:43:23Z</time><extensions><speed>1.277287</speed><course>316.075714</course><hAcc>1.573572</hAcc><vAcc>0.827022</vAcc></extensions></trkpt>
      <trkpt lon="-2.213004" lat="53.117897"><ele>304.142303</ele><time>2022-03-04T12:43:24Z</time><extensions><speed>1.234783</speed><course>318.847198</course><hAcc>1.601211</hAcc><vAcc>0.827060</vAcc></extensions></trkpt>
      <trkpt lon="-2.213015" lat="53.117905"><ele>304.091736</ele><time>2022-03-04T12:43:25Z</time><extensions><speed>1.169256</speed><course>322.394318</course><hAcc>1.634200</hAcc><vAcc>0.827091</vAcc></extensions></trkpt>
      <trkpt lon="-2.213026" lat="53.117914"><ele>304.039337</ele><time>2022-03-04T12:43:26Z</time><extensions><speed>1.200746</speed><course>325.804138</course><hAcc>1.574350</hAcc><vAcc>0.827111</vAcc></extensions></trkpt>
      <trkpt lon="-2.213035" lat="53.117923"><ele>303.983490</ele><time>2022-03-04T12:43:27Z</time><extensions><speed>1.181091</speed><course>327.350433</course><hAcc>1.556878</hAcc><vAcc>0.827115</vAcc></extensions></trkpt>
      <trkpt lon="-2.213045" lat="53.117931"><ele>303.923462</ele><time>2022-03-04T12:43:28Z</time><extensions><speed>1.132900</speed><course>326.474335</course><hAcc>1.585346</hAcc><vAcc>0.827100</vAcc></extensions></trkpt>
      <trkpt lon="-2.213054" lat="53.117940"><ele>303.864410</ele><time>2022-03-04T12:43:29Z</time><extensions><speed>1.086805</speed><course>323.824432</course><hAcc>1.610945</hAcc><vAcc>0.827063</vAcc></extensions></trkpt>
      <trkpt lon="-2.213064" lat="53.117947"><ele>303.803986</ele><time>2022-03-04T12:43:30Z</time><extensions><speed>1.086562</speed><course>323.064117</course><hAcc>1.621430</hAcc><vAcc>0.827007</vAcc></extensions></trkpt>
      <trkpt lon="-2.213074" lat="53.117955"><ele>303.756073</ele><time>2022-03-04T12:43:31Z</time><extensions><speed>1.066340</speed><course>325.154358</course><hAcc>1.622803</hAcc><vAcc>0.826935</vAcc></extensions></trkpt>
      <trkpt lon="-2.213083" lat="53.117963"><ele>303.704895</ele><time>2022-03-04T12:43:32Z</time><extensions><speed>1.089210</speed><course>326.514709</course><hAcc>1.637088</hAcc><vAcc>0.826862</vAcc></extensions></trkpt>
      <trkpt lon="-2.213092" lat="53.117971"><ele>303.641968</ele><time>2022-03-04T12:43:33Z</time><extensions><speed>1.112829</speed><course>323.805450</course><hAcc>1.645958</hAcc><vAcc>0.826793</vAcc></extensions></trkpt>
      <trkpt lon="-2.213102" lat="53.117979"><ele>303.576874</ele><time>2022-03-04T12:43:34Z</time><extensions><speed>1.127422</speed><course>321.383087</course><hAcc>1.656469</hAcc><vAcc>0.826736</vAcc></extensions></trkpt>
      <trkpt lon="-2.213113" lat="53.117987"><ele>303.489960</ele><time>2022-03-04T12:43:35Z</time><extensions><speed>1.154864</speed><course>320.157715</course><hAcc>1.668797</hAcc><vAcc>0.826706</vAcc></extensions></trkpt>
      <trkpt lon="-2.213124" lat="53.117995"><ele>303.408356</ele><time>2022-03-04T12:43:36Z</time><extensions><speed>1.153003</speed><course>319.224579</course><hAcc>1.674260</hAcc><vAcc>0.826695</vAcc></extensions></trkpt>
      <trkpt lon="-2.213136" lat="53.118003"><ele>303.320465</ele><time>2022-03-04T12:43:37Z</time><extensions><speed>1.143689</speed><course>318.317719</course><hAcc>1.671988</hAcc><vAcc>0.826712</vAcc></extensions></trkpt>
      <trkpt lon="-2.213147" lat="53.118010"><ele>303.241913</ele><time>2022-03-04T12:43:38Z</time><extensions><speed>1.152049</speed><course>315.729279</course><hAcc>1.665045</hAcc><vAcc>0.826761</vAcc></extensions></trkpt>
      <trkpt lon="-2.213160" lat="53.118017"><ele>303.167145</ele><time>2022-03-04T12:43:39Z</time><extensions><speed>1.132378</speed><course>311.010803</course><hAcc>1.657557</hAcc><vAcc>0.826837</vAcc></extensions></trkpt>
      <trkpt lon="-2.213173" lat="53.118024"><ele>303.088165</ele><time>2022-03-04T12:43:40Z</time><extensions><speed>1.136845</speed><course>304.762024</course><hAcc>1.652559</hAcc><vAcc>0.826939</vAcc></extensions></trkpt>
      <trkpt lon="-2.213188" lat="53.118029"><ele>303.009186</ele><time>2022-03-04T12:43:41Z</time><extensions><speed>1.125332</speed><course>296.929016</course><hAcc>1.650376</hAcc><vAcc>0.827061</vAcc></extensions></trkpt>
      <trkpt lon="-2.213203" lat="53.118033"><ele>302.931061</ele><time>2022-03-04T12:43:42Z</time><extensions><speed>1.126880</speed><course>290.335968</course><hAcc>1.622406</hAcc><vAcc>0.827201</vAcc></extensions></trkpt>
      <trkpt lon="-2.213219" lat="53.118036"><ele>302.846252</ele><time>2022-03-04T12:43:43Z</time><extensions><speed>1.158838</speed><course>288.808228</course><hAcc>1.582765</hAcc><vAcc>0.827351</vAcc></extensions></trkpt>
      <trkpt lon="-2.213236" lat="53.118040"><ele>302.760254</ele><time>2022-03-04T12:43:44Z</time><extensions><speed>1.285240</speed><course>291.771545</course><hAcc>1.540719</hAcc><vAcc>0.827491</vAcc></extensions></trkpt>
      <trkpt lon="-2.213254" lat="53.118045"><ele>302.684509</ele><time>2022-03-04T12:43:45Z</time><extensions><speed>1.421934</speed><course>295.023651</course><hAcc>1.518877</hAcc><vAcc>0.827619</vAcc></extensions></trkpt>
      <trkpt lon="-2.213274" lat="53.118051"><ele>302.607208</ele><time>2022-03-04T12:43:46Z</time><extensions><speed>1.480507</speed><course>299.544708</course><hAcc>1.519492</hAcc><vAcc>0.827727</vAcc></extensions></trkpt>
      <trkpt lon="-2.213292" lat="53.118058"><ele>302.527649</ele><time>2022-03-04T12:43:47Z</time><extensions><speed>1.426653</speed><course>301.854675</course><hAcc>1.505855</hAcc><vAcc>0.827812</vAcc></extensions></trkpt>
      <trkpt lon="-2.213310" lat="53.118064"><ele>302.452850</ele><time>2022-03-04T12:43:48Z</time><extensions><speed>1.354630</speed><course>302.183685</course><hAcc>1.490490</hAcc><vAcc>0.827907</vAcc></extensions></trkpt>
      <trkpt lon="-2.213327" lat="53.118070"><ele>302.372467</ele><time>2022-03-04T12:43:49Z</time><extensions><speed>1.277643</speed><course>299.707733</course><hAcc>1.497110</hAcc><vAcc>0.827978</vAcc></extensions></trkpt>
      <trkpt lon="-2.213343" lat="53.118076"><ele>302.285461</ele><time>2022-03-04T12:43:50Z</time><extensions><speed>1.198876</speed><course>297.859985</course><hAcc>1.456538</hAcc><vAcc>0.828014</vAcc></extensions></trkpt>
      <trkpt lon="-2.213358" lat="53.118081"><ele>302.195984</ele><time>2022-03-04T12:43:51Z</time><extensions><speed>1.110193</speed><course>302.104492</course><hAcc>1.460886</hAcc><vAcc>0.828047</vAcc></extensions></trkpt>
      <trkpt lon="-2.213371" lat="53.118087"><ele>302.105042</ele><time>2022-03-04T12:43:52Z</time><extensions><speed>1.126845</speed><course>308.328613</course><hAcc>1.496765</hAcc><vAcc>0.828039</vAcc></extensions></trkpt>
      <trkpt lon="-2.213384" lat="53.118093"><ele>302.016388</ele><time>2022-03-04T12:43:53Z</time><extensions><speed>1.158099</speed><course>313.148743</course><hAcc>1.517862</hAcc><vAcc>0.827997</vAcc></extensions></trkpt>
      <trkpt lon="-2.213397" lat="53.118100"><ele>301.928314</ele><time>2022-03-04T12:43:54Z</time><extensions><speed>1.167165</speed><course>310.554626</course><hAcc>1.508007</hAcc><vAcc>0.827926</vAcc></extensions></trkpt>
      <trkpt lon="-2.213411" lat="53.118107"><ele>301.838348</ele><time>2022-03-04T12:43:55Z</time><extensions><speed>1.169937</speed><course>305.716095</course><hAcc>1.506014</hAcc><vAcc>0.827835</vAcc></extensions></trkpt>
      <trkpt lon="-2.213425" lat="53.118112"><ele>301.749023</ele><time>2022-03-04T12:43:56Z</time><extensions><speed>1.102627</speed><course>301.114410</course><hAcc>1.497557</hAcc><vAcc>0.827762</vAcc></extensions></trkpt>
      <trkpt lon="-2.213438" lat="53.118118"><ele>301.657074</ele><time>2022-03-04T12:43:57Z</time><extensions><speed>1.046390</speed><course>303.689636</course><hAcc>1.523378</hAcc><vAcc>0.827695</vAcc></extensions></trkpt>
      <trkpt lon="-2.213451" lat="53.118123"><ele>301.575684</ele><time>2022-03-04T12:43:58Z</time><extensions><speed>1.060933</speed><course>309.095856</course><hAcc>1.585388</hAcc><vAcc>0.827627</vAcc></extensions></trkpt>
      <trkpt lon="-2.213463" lat="53.118130"><ele>301.497345</ele><time>2022-03-04T12:43:59Z</time><extensions><speed>1.089930</speed><course>313.075073</course><hAcc>1.610181</hAcc><vAcc>0.827562</vAcc></extensions></trkpt>
      <trkpt lon="-2.213474" lat="53.118136"><ele>301.440796</ele><time>2022-03-04T12:44:00Z</time><extensions><speed>1.014508</speed><course>317.512329</course><hAcc>1.573843</hAcc><vAcc>0.827511</vAcc></extensions></trkpt>
      <trkpt lon="-2.213483" lat="53.118143"><ele>301.369720</ele><time>2022-03-04T12:44:01Z</time><extensions><speed>0.849492</speed><course>321.538391</course><hAcc>1.588191</hAcc><vAcc>0.827455</vAcc></extensions></trkpt>
      <trkpt lon="-2.213489" lat="53.118148"><ele>301.293793</ele><time>2022-03-04T12:44:02Z</time><extensions><speed>0.574826</speed><course>329.274567</course><hAcc>1.599440</hAcc><vAcc>0.827413</vAcc></extensions></trkpt>
      <trkpt lon="-2.213493" lat="53.118152"><ele>301.224609</ele><time>2022-03-04T12:44:03Z</time><extensions><speed>0.498172</speed><course>330.622894</course><hAcc>1.604817</hAcc><vAcc>0.827402</vAcc></extensions></trkpt>
      <trkpt lon="-2.213498" lat="53.118157"><ele>301.153534</ele><time>2022-03-04T12:44:04Z</time><extensions><speed>0.745705</speed><course>328.083496</course><hAcc>1.594064</hAcc><vAcc>0.827415</vAcc></extensions></trkpt>
      <trkpt lon="-2.213505" lat="53.118164"><ele>301.070709</ele><time>2022-03-04T12:44:05Z</time><extensions><speed>0.988221</speed><course>325.321625</course><hAcc>1.598224</hAcc><vAcc>0.827441</vAcc></extensions></trkpt>
      <trkpt lon="-2.213515" lat="53.118171"><ele>300.985260</ele><time>2022-03-04T12:44:06Z</time><extensions><speed>1.116334</speed><course>322.211273</course><hAcc>1.616782</hAcc><vAcc>0.827483</vAcc></extensions></trkpt>
      <trkpt lon="-2.213525" lat="53.118179"><ele>300.904205</ele><time>2022-03-04T12:44:07Z</time><extensions><speed>1.122542</speed><course>318.065338</course><hAcc>1.659725</hAcc><vAcc>0.827516</vAcc></extensions></trkpt>
      <trkpt lon="-2.213537" lat="53.118187"><ele>300.815094</ele><time>2022-03-04T12:44:08Z</time><extensions><speed>1.250220</speed><course>319.616089</course><hAcc>1.593497</hAcc><vAcc>0.827541</vAcc></extensions></trkpt>
      <trkpt lon="-2.213549" lat="53.118196"><ele>300.723236</ele><time>2022-03-04T12:44:09Z</time><extensions><speed>1.281583</speed><course>319.473175</course><hAcc>1.574371</hAcc><vAcc>0.827564</vAcc></extensions></trkpt>
      <trkpt lon="-2.213562" lat="53.118205"><ele>300.629608</ele><time>2022-03-04T12:44:10Z</time><extensions><speed>1.319809</speed><course>319.786926</course><hAcc>1.609970</hAcc><vAcc>0.827574</vAcc></extensions></trkpt>
      <trkpt lon="-2.213574" lat="53.118213"><ele>300.534454</ele><time>2022-03-04T12:44:11Z</time><extensions><speed>1.262405</speed><course>320.014587</course><hAcc>1.586563</hAcc><vAcc>0.827557</vAcc></extensions></trkpt>
      <trkpt lon="-2.213586" lat="53.118222"><ele>300.446625</ele><time>2022-03-04T12:44:12Z</time><extensions><speed>1.169164</speed><course>320.258331</course><hAcc>1.577370</hAcc><vAcc>0.827526</vAcc></extensions></trkpt>
      <trkpt lon="-2.213597" lat="53.118230"><ele>300.346680</ele><time>2022-03-04T12:44:14Z</time><extensions><speed>1.123266</speed><course>321.968994</course><hAcc>1.589292</hAcc><vAcc>0.827475</vAcc></extensions></trkpt>
      <trkpt lon="-2.213607" lat="53.118238"><ele>300.242981</ele><time>2022-03-04T12:44:15Z</time><extensions><speed>1.167416</speed><course>322.940765</course><hAcc>1.606559</hAcc><vAcc>0.827398</vAcc></extensions></trkpt>
      <trkpt lon="-2.213618" lat="53.118246"><ele>300.136688</ele><time>2022-03-04T12:44:16Z</time><extensions><speed>1.167312</speed><course>323.933075</course><hAcc>1.581210</hAcc><vAcc>0.827321</vAcc></extensions></trkpt>
      <trkpt lon="-2.213628" lat="53.118255"><ele>300.034973</ele><time>2022-03-04T12:44:17Z</time><extensions><speed>1.164464</speed><course>323.700653</course><hAcc>1.558375</hAcc><vAcc>0.827227</vAcc></extensions></trkpt>
      <trkpt lon="-2.213638" lat="53.118263"><ele>299.937500</ele><time>2022-03-04T12:44:18Z</time><extensions><speed>1.189376</speed><course>323.497314</course><hAcc>1.556953</hAcc><vAcc>0.827126</vAcc></extensions></trkpt>
      <trkpt lon="-2.213649" lat="53.118272"><ele>299.842438</ele><time>2022-03-04T12:44:19Z</time><extensions><speed>1.175145</speed><course>321.265686</course><hAcc>1.598916</hAcc><vAcc>0.827011</vAcc></extensions></trkpt>
      <trkpt lon="-2.213660" lat="53.118280"><ele>299.743500</ele><time>2022-03-04T12:44:20Z</time><extensions><speed>1.160118</speed><course>319.715607</course><hAcc>1.601879</hAcc><vAcc>0.826885</vAcc></extensions></trkpt>
      <trkpt lon="-2.213671" lat="53.118288"><ele>299.654968</ele><time>2022-03-04T12:44:21Z</time><extensions><speed>1.114988</speed><course>319.043427</course><hAcc>1.574722</hAcc><vAcc>0.826743</vAcc></extensions></trkpt>
      <trkpt lon="-2.213682" lat="53.118295"><ele>299.560120</ele><time>2022-03-04T12:44:22Z</time><extensions><speed>1.026719</speed><course>319.177643</course><hAcc>1.586143</hAcc><vAcc>0.826603</vAcc></extensions></trkpt>
      <trkpt lon="-2.213691" lat="53.118301"><ele>299.477386</ele><time>2022-03-04T12:44:23Z</time><extensions><speed>0.845339</speed><course>320.866241</course><hAcc>1.594918</hAcc><vAcc>0.826467</vAcc></extensions></trkpt>
      <trkpt lon="-2.213698" lat="53.118307"><ele>299.382965</ele><time>2022-03-04T12:44:24Z</time><extensions><speed>0.662578</speed><course>320.373596</course><hAcc>1.615588</hAcc><vAcc>0.826340</vAcc></extensions></trkpt>
      <trkpt lon="-2.213704" lat="53.118311"><ele>299.300140</ele><time>2022-03-04T12:44:25Z</time><extensions><speed>0.485869</speed><course>320.015167</course><hAcc>1.646654</hAcc><vAcc>0.826226</vAcc></extensions></trkpt>
      <trkpt lon="-2.213707" lat="53.118313"><ele>299.222504</ele><time>2022-03-04T12:44:26Z</time><extensions><speed>0.212459</speed><course>316.114929</course><hAcc>1.679260</hAcc><vAcc>0.826117</vAcc></extensions></trkpt>
      <trkpt lon="-2.213709" lat="53.118314"><ele>299.133881</ele><time>2022-03-04T12:44:27Z</time><extensions><speed>0.177908</speed><course>311.982910</course><hAcc>1.678133</hAcc><vAcc>0.826027</vAcc></extensions></trkpt>
      <trkpt lon="-2.213711" lat="53.118315"><ele>299.049561</ele><time>2022-03-04T12:44:28Z</time><extensions><speed>0.197188</speed><course>310.999573</course><hAcc>1.684894</hAcc><vAcc>0.825977</vAcc></extensions></trkpt>
      <trkpt lon="-2.213714" lat="53.118317"><ele>298.984039</ele><time>2022-03-04T12:44:29Z</time><extensions><speed>0.240504</speed><course>311.765961</course><hAcc>1.696572</hAcc><vAcc>0.825942</vAcc></extensions></trkpt>
      <trkpt lon="-2.213717" lat="53.118318"><ele>298.917297</ele><time>2022-03-04T12:44:30Z</time><extensions><speed>0.308626</speed><course>314.281311</course><hAcc>1.705767</hAcc><vAcc>0.825943</vAcc></extensions></trkpt>
      <trkpt lon="-2.213721" lat="53.118321"><ele>298.857422</ele><time>2022-03-04T12:44:31Z</time><extensions><speed>0.431644</speed><course>317.417053</course><hAcc>1.704681</hAcc><vAcc>0.825989</vAcc></extensions></trkpt>
      <trkpt lon="-2.213726" lat="53.118324"><ele>298.795349</ele><time>2022-03-04T12:44:32Z</time><extensions><speed>0.669887</speed><course>319.766296</course><hAcc>1.696050</hAcc><vAcc>0.826052</vAcc></extensions></trkpt>
      <trkpt lon="-2.213733" lat="53.118329"><ele>298.744659</ele><time>2022-03-04T12:44:33Z</time><extensions><speed>0.761062</speed><course>320.933044</course><hAcc>1.708045</hAcc><vAcc>0.826152</vAcc></extensions></trkpt>
      <trkpt lon="-2.213741" lat="53.118335"><ele>298.683441</ele><time>2022-03-04T12:44:34Z</time><extensions><speed>0.784323</speed><course>318.617218</course><hAcc>1.706743</hAcc><vAcc>0.826269</vAcc></extensions></trkpt>
      <trkpt lon="-2.213749" lat="53.118340"><ele>298.604645</ele><time>2022-03-04T12:44:35Z</time><extensions><speed>0.889448</speed><course>317.345001</course><hAcc>1.692671</hAcc><vAcc>0.826392</vAcc></extensions></trkpt>
      <trkpt lon="-2.213759" lat="53.118347"><ele>298.536652</ele><time>2022-03-04T12:44:36Z</time><extensions><speed>1.057316</speed><course>315.878571</course><hAcc>1.670435</hAcc><vAcc>0.826522</vAcc></extensions></trkpt>
      <trkpt lon="-2.213771" lat="53.118354"><ele>298.465973</ele><time>2022-03-04T12:44:37Z</time><extensions><speed>1.201918</speed><course>314.145325</course><hAcc>1.639341</hAcc><vAcc>0.826665</vAcc></extensions></trkpt>
      <trkpt lon="-2.213784" lat="53.118361"><ele>298.382050</ele><time>2022-03-04T12:44:38Z</time><extensions><speed>1.279223</speed><course>313.431641</course><hAcc>1.598122</hAcc><vAcc>0.826803</vAcc></extensions></trkpt>
      <trkpt lon="-2.213798" lat="53.118369"><ele>298.299042</ele><time>2022-03-04T12:44:39Z</time><extensions><speed>1.348472</speed><course>313.659058</course><hAcc>1.534694</hAcc><vAcc>0.826938</vAcc></extensions></trkpt>
      <trkpt lon="-2.213813" lat="53.118378"><ele>298.219147</ele><time>2022-03-04T12:44:40Z</time><extensions><speed>1.371860</speed><course>314.042175</course><hAcc>1.481164</hAcc><vAcc>0.827071</vAcc></extensions></trkpt>
      <trkpt lon="-2.213828" lat="53.118386"><ele>298.141907</ele><time>2022-03-04T12:44:41Z</time><extensions><speed>1.395429</speed><course>316.535065</course><hAcc>1.475134</hAcc><vAcc>0.827199</vAcc></extensions></trkpt>
      <trkpt lon="-2.213842" lat="53.118396"><ele>298.053436</ele><time>2022-03-04T12:44:42Z</time><extensions><speed>1.522180</speed><course>317.261139</course><hAcc>1.441746</hAcc><vAcc>0.827323</vAcc></extensions></trkpt>
      <trkpt lon="-2.213858" lat="53.118405"><ele>297.964752</ele><time>2022-03-04T12:44:43Z</time><extensions><speed>1.552964</speed><course>315.348724</course><hAcc>1.403541</hAcc><vAcc>0.827434</vAcc></extensions></trkpt>
      <trkpt lon="-2.213874" lat="53.118415"><ele>297.870117</ele><time>2022-03-04T12:44:44Z</time><extensions><speed>1.548891</speed><course>314.969055</course><hAcc>1.383067</hAcc><vAcc>0.827555</vAcc></extensions></trkpt>
      <trkpt lon="-2.213890" lat="53.118425"><ele>297.763397</ele><time>2022-03-04T12:44:45Z</time><extensions><speed>1.512422</speed><course>316.101013</course><hAcc>1.362550</hAcc><vAcc>0.827659</vAcc></extensions></trkpt>
      <trkpt lon="-2.213906" lat="53.118434"><ele>297.657593</ele><time>2022-03-04T12:44:46Z</time><extensions><speed>1.524739</speed><course>315.928772</course><hAcc>1.345796</hAcc><vAcc>0.827754</vAcc></extensions></trkpt>
      <trkpt lon="-2.213921" lat="53.118444"><ele>297.542847</ele><time>2022-03-04T12:44:47Z</time><extensions><speed>1.501818</speed><course>315.511230</course><hAcc>1.340208</hAcc><vAcc>0.827837</vAcc></extensions></trkpt>
      <trkpt lon="-2.213936" lat="53.118453"><ele>297.428772</ele><time>2022-03-04T12:44:48Z</time><extensions><speed>1.482754</speed><course>316.065125</course><hAcc>1.338214</hAcc><vAcc>0.827905</vAcc></extensions></trkpt>
      <trkpt lon="-2.213952" lat="53.118463"><ele>297.301788</ele><time>2022-03-04T12:44:49Z</time><extensions><speed>1.490103</speed><course>315.793549</course><hAcc>1.343015</hAcc><vAcc>0.827958</vAcc></extensions></trkpt>
      <trkpt lon="-2.213968" lat="53.118472"><ele>297.177124</ele><time>2022-03-04T12:44:50Z</time><extensions><speed>1.444591</speed><course>311.143646</course><hAcc>1.338927</hAcc><vAcc>0.828000</vAcc></extensions></trkpt>
      <trkpt lon="-2.213984" lat="53.118480"><ele>297.050262</ele><time>2022-03-04T12:44:51Z</time><extensions><speed>1.422174</speed><course>310.427643</course><hAcc>1.340109</hAcc><vAcc>0.828015</vAcc></extensions></trkpt>
      <trkpt lon="-2.214000" lat="53.118489"><ele>296.923767</ele><time>2022-03-04T12:44:52Z</time><extensions><speed>1.443528</speed><course>312.411041</course><hAcc>1.362465</hAcc><vAcc>0.828028</vAcc></extensions></trkpt>
      <trkpt lon="-2.214015" lat="53.118498"><ele>296.789215</ele><time>2022-03-04T12:44:53Z</time><extensions><speed>1.416192</speed><course>315.806854</course><hAcc>1.380403</hAcc><vAcc>0.828017</vAcc></extensions></trkpt>
      <trkpt lon="-2.214030" lat="53.118507"><ele>296.650635</ele><time>2022-03-04T12:44:54Z</time><extensions><speed>1.395512</speed><course>317.543396</course><hAcc>1.403931</hAcc><vAcc>0.827993</vAcc></extensions></trkpt>
      <trkpt lon="-2.214043" lat="53.118516"><ele>296.521729</ele><time>2022-03-04T12:44:55Z</time><extensions><speed>1.253130</speed><course>316.495911</course><hAcc>1.414224</hAcc><vAcc>0.827936</vAcc></extensions></trkpt>
      <trkpt lon="-2.214056" lat="53.118524"><ele>296.380890</ele><time>2022-03-04T12:44:56Z</time><extensions><speed>1.176009</speed><course>317.594452</course><hAcc>1.454000</hAcc><vAcc>0.827857</vAcc></extensions></trkpt>
      <trkpt lon="-2.214067" lat="53.118531"><ele>296.221008</ele><time>2022-03-04T12:44:57Z</time><extensions><speed>1.154245</speed><course>320.535889</course><hAcc>1.455862</hAcc><vAcc>0.827769</vAcc></extensions></trkpt>
      <trkpt lon="-2.214078" lat="53.118540"><ele>296.068665</ele><time>2022-03-04T12:44:58Z</time><extensions><speed>1.150888</speed><course>322.165436</course><hAcc>1.490206</hAcc><vAcc>0.827694</vAcc></extensions></trkpt>
      <trkpt lon="-2.214089" lat="53.118548"><ele>295.919403</ele><time>2022-03-04T12:44:59Z</time><extensions><speed>1.243183</speed><course>322.070679</course><hAcc>1.515931</hAcc><vAcc>0.827605</vAcc></extensions></trkpt>
      <trkpt lon="-2.214101" lat="53.118557"><ele>295.769653</ele><time>2022-03-04T12:45:00Z</time><extensions><speed>1.304518</speed><course>320.485016</course><hAcc>1.537994</hAcc><vAcc>0.827514</vAcc></extensions></trkpt>
      <trkpt lon="-2.214113" lat="53.118566"><ele>295.627350</ele><time>2022-03-04T12:45:01Z</time><extensions><speed>1.300431</speed><course>319.214966</course><hAcc>1.560234</hAcc><vAcc>0.827443</vAcc></extensions></trkpt>
      <trkpt lon="-2.214126" lat="53.118575"><ele>295.483704</ele><time>2022-03-04T12:45:02Z</time><extensions><speed>1.288226</speed><course>318.050568</course><hAcc>1.586347</hAcc><vAcc>0.827379</vAcc></extensions></trkpt>
      <trkpt lon="-2.214139" lat="53.118583"><ele>295.348450</ele><time>2022-03-04T12:45:03Z</time><extensions><speed>1.275798</speed><course>313.978821</course><hAcc>1.588513</hAcc><vAcc>0.827335</vAcc></extensions></trkpt>
      <trkpt lon="-2.214154" lat="53.118590"><ele>295.204834</ele><time>2022-03-04T12:45:04Z</time><extensions><speed>1.251826</speed><course>308.509155</course><hAcc>1.604423</hAcc><vAcc>0.827319</vAcc></extensions></trkpt>
      <trkpt lon="-2.214169" lat="53.118597"><ele>295.069580</ele><time>2022-03-04T12:45:05Z</time><extensions><speed>1.258388</speed><course>302.408447</course><hAcc>1.579702</hAcc><vAcc>0.827325</vAcc></extensions></trkpt>
      <trkpt lon="-2.214185" lat="53.118602"><ele>294.930054</ele><time>2022-03-04T12:45:06Z</time><extensions><speed>1.174289</speed><course>294.622772</course><hAcc>1.586646</hAcc><vAcc>0.827342</vAcc></extensions></trkpt>
      <trkpt lon="-2.214201" lat="53.118606"><ele>294.780579</ele><time>2022-03-04T12:45:07Z</time><extensions><speed>1.162688</speed><course>290.170166</course><hAcc>1.623056</hAcc><vAcc>0.827372</vAcc></extensions></trkpt>
      <trkpt lon="-2.214217" lat="53.118610"><ele>294.634125</ele><time>2022-03-04T12:45:08Z</time><extensions><speed>1.178370</speed><course>293.603546</course><hAcc>1.638227</hAcc><vAcc>0.827418</vAcc></extensions></trkpt>
      <trkpt lon="-2.214233" lat="53.118614"><ele>294.491669</ele><time>2022-03-04T12:45:09Z</time><extensions><speed>1.191768</speed><course>294.701996</course><hAcc>1.614879</hAcc><vAcc>0.827452</vAcc></extensions></trkpt>
      <trkpt lon="-2.214249" lat="53.118619"><ele>294.353088</ele><time>2022-03-04T12:45:10Z</time><extensions><speed>1.156757</speed><course>293.415924</course><hAcc>1.615641</hAcc><vAcc>0.827475</vAcc></extensions></trkpt>
      <trkpt lon="-2.214265" lat="53.118623"><ele>294.228088</ele><time>2022-03-04T12:45:11Z</time><extensions><speed>1.169549</speed><course>292.303925</course><hAcc>1.622836</hAcc><vAcc>0.827492</vAcc></extensions></trkpt>
      <trkpt lon="-2.214282" lat="53.118627"><ele>294.110321</ele><time>2022-03-04T12:45:11Z</time><extensions><speed>1.212408</speed><course>292.183563</course><hAcc>1.618005</hAcc><vAcc>0.827501</vAcc></extensions></trkpt>
      <trkpt lon="-2.214299" lat="53.118632"><ele>293.984161</ele><time>2022-03-04T12:45:12Z</time><extensions><speed>1.244793</speed><course>295.009155</course><hAcc>1.600452</hAcc><vAcc>0.827492</vAcc></extensions></trkpt>
      <trkpt lon="-2.214315" lat="53.118637"><ele>293.863892</ele><time>2022-03-04T12:45:13Z</time><extensions><speed>1.191413</speed><course>301.898071</course><hAcc>1.591981</hAcc><vAcc>0.827456</vAcc></extensions></trkpt>
      <trkpt lon="-2.214329" lat="53.118643"><ele>293.745789</ele><time>2022-03-04T12:45:14Z</time><extensions><speed>1.133934</speed><course>309.894806</course><hAcc>1.611232</hAcc><vAcc>0.827404</vAcc></extensions></trkpt>
      <trkpt lon="-2.214340" lat="53.118650"><ele>293.633209</ele><time>2022-03-04T12:45:15Z</time><extensions><speed>1.049596</speed><course>315.431152</course><hAcc>1.605367</hAcc><vAcc>0.827309</vAcc></extensions></trkpt>
      <trkpt lon="-2.214351" lat="53.118657"><ele>293.532196</ele><time>2022-03-04T12:45:16Z</time><extensions><speed>0.975288</speed><course>319.471954</course><hAcc>1.572439</hAcc><vAcc>0.827210</vAcc></extensions></trkpt>
      <trkpt lon="-2.214360" lat="53.118663"><ele>293.455109</ele><time>2022-03-04T12:45:17Z</time><extensions><speed>0.926753</speed><course>320.878510</course><hAcc>1.547841</hAcc><vAcc>0.827134</vAcc></extensions></trkpt>
      <trkpt lon="-2.214369" lat="53.118670"><ele>293.365906</ele><time>2022-03-04T12:45:18Z</time><extensions><speed>0.981766</speed><course>320.483185</course><hAcc>1.521585</hAcc><vAcc>0.827062</vAcc></extensions></trkpt>
      <trkpt lon="-2.214378" lat="53.118677"><ele>293.276154</ele><time>2022-03-04T12:45:19Z</time><extensions><speed>1.034222</speed><course>318.330658</course><hAcc>1.518640</hAcc><vAcc>0.827008</vAcc></extensions></trkpt>
      <trkpt lon="-2.214389" lat="53.118684"><ele>293.192108</ele><time>2022-03-04T12:45:20Z</time><extensions><speed>0.992519</speed><course>315.401520</course><hAcc>1.533959</hAcc><vAcc>0.826948</vAcc></extensions></trkpt>
      <trkpt lon="-2.214399" lat="53.118690"><ele>293.102631</ele><time>2022-03-04T12:45:21Z</time><extensions><speed>0.989218</speed><course>314.637421</course><hAcc>1.531405</hAcc><vAcc>0.826907</vAcc></extensions></trkpt>
      <trkpt lon="-2.214409" lat="53.118697"><ele>293.010803</ele><time>2022-03-04T12:45:22Z</time><extensions><speed>0.972386</speed><course>315.352264</course><hAcc>1.529182</hAcc><vAcc>0.826869</vAcc></extensions></trkpt>
      <trkpt lon="-2.214419" lat="53.118703"><ele>292.915833</ele><time>2022-03-04T12:45:23Z</time><extensions><speed>0.927409</speed><course>316.662323</course><hAcc>1.547763</hAcc><vAcc>0.826845</vAcc></extensions></trkpt>
      <trkpt lon="-2.214428" lat="53.118709"><ele>292.813568</ele><time>2022-03-04T12:45:24Z</time><extensions><speed>0.935639</speed><course>323.116516</course><hAcc>1.510321</hAcc><vAcc>0.826824</vAcc></extensions></trkpt>
      <trkpt lon="-2.214436" lat="53.118716"><ele>292.711548</ele><time>2022-03-04T12:45:25Z</time><extensions><speed>0.929709</speed><course>327.237061</course><hAcc>1.467721</hAcc><vAcc>0.826810</vAcc></extensions></trkpt>
      <trkpt lon="-2.214444" lat="53.118724"><ele>292.621124</ele><time>2022-03-04T12:45:26Z</time><extensions><speed>0.990429</speed><course>326.780701</course><hAcc>1.488520</hAcc><vAcc>0.826787</vAcc></extensions></trkpt>
      <trkpt lon="-2.214452" lat="53.118731"><ele>292.508301</ele><time>2022-03-04T12:45:27Z</time><extensions><speed>0.995668</speed><course>323.956177</course><hAcc>1.550898</hAcc><vAcc>0.826742</vAcc></extensions></trkpt>
      <trkpt lon="-2.214460" lat="53.118738"><ele>292.389252</ele><time>2022-03-04T12:45:28Z</time><extensions><speed>0.927528</speed><course>327.369324</course><hAcc>1.578743</hAcc><vAcc>0.826675</vAcc></extensions></trkpt>
      <trkpt lon="-2.214467" lat="53.118745"><ele>292.271576</ele><time>2022-03-04T12:45:29Z</time><extensions><speed>0.928159</speed><course>336.191803</course><hAcc>1.572169</hAcc><vAcc>0.826615</vAcc></extensions></trkpt>
      <trkpt lon="-2.214472" lat="53.118753"><ele>292.154388</ele><time>2022-03-04T12:45:30Z</time><extensions><speed>0.959920</speed><course>339.943024</course><hAcc>1.543413</hAcc><vAcc>0.826540</vAcc></extensions></trkpt>
      <trkpt lon="-2.214477" lat="53.118761"><ele>292.035126</ele><time>2022-03-04T12:45:31Z</time><extensions><speed>0.919593</speed><course>337.890778</course><hAcc>1.563981</hAcc><vAcc>0.826408</vAcc></extensions></trkpt>
      <trkpt lon="-2.214483" lat="53.118769"><ele>291.915436</ele><time>2022-03-04T12:45:32Z</time><extensions><speed>0.883970</speed><course>334.311768</course><hAcc>1.602629</hAcc><vAcc>0.826269</vAcc></extensions></trkpt>
      <trkpt lon="-2.214489" lat="53.118776"><ele>291.785614</ele><time>2022-03-04T12:45:33Z</time><extensions><speed>0.848652</speed><course>331.223297</course><hAcc>1.636411</hAcc><vAcc>0.826148</vAcc></extensions></trkpt>
      <trkpt lon="-2.214495" lat="53.118782"><ele>291.657257</ele><time>2022-03-04T12:45:34Z</time><extensions><speed>0.812196</speed><course>330.309570</course><hAcc>1.657440</hAcc><vAcc>0.826015</vAcc></extensions></trkpt>
      <trkpt lon="-2.214501" lat="53.118789"><ele>291.528168</ele><time>2022-03-04T12:45:35Z</time><extensions><speed>0.833180</speed><course>330.570740</course><hAcc>1.662612</hAcc><vAcc>0.825875</vAcc></extensions></trkpt>
      <trkpt lon="-2.214507" lat="53.118795"><ele>291.409729</ele><time>2022-03-04T12:45:36Z</time><extensions><speed>0.850081</speed><course>331.032501</course><hAcc>1.657956</hAcc><vAcc>0.825709</vAcc></extensions></trkpt>
      <trkpt lon="-2.214513" lat="53.118802"><ele>291.300140</ele><time>2022-03-04T12:45:37Z</time><extensions><speed>0.875051</speed><course>331.136627</course><hAcc>1.651583</hAcc><vAcc>0.825540</vAcc></extensions></trkpt>
      <trkpt lon="-2.214520" lat="53.118809"><ele>291.191498</ele><time>2022-03-04T12:45:38Z</time><extensions><speed>0.899729</speed><course>331.731903</course><hAcc>1.660786</hAcc><vAcc>0.825357</vAcc></extensions></trkpt>
      <trkpt lon="-2.214526" lat="53.118816"><ele>291.088928</ele><time>2022-03-04T12:45:39Z</time><extensions><speed>0.872480</speed><course>332.083649</course><hAcc>1.688771</hAcc><vAcc>0.825179</vAcc></extensions></trkpt>
      <trkpt lon="-2.214532" lat="53.118823"><ele>290.991638</ele><time>2022-03-04T12:45:40Z</time><extensions><speed>0.776433</speed><course>326.733429</course><hAcc>1.672506</hAcc><vAcc>0.825015</vAcc></extensions></trkpt>
      <trkpt lon="-2.214539" lat="53.118828"><ele>290.910767</ele><time>2022-03-04T12:45:41Z</time><extensions><speed>0.652012</speed><course>315.434082</course><hAcc>1.627254</hAcc><vAcc>0.824831</vAcc></extensions></trkpt>
      <trkpt lon="-2.214546" lat="53.118831"><ele>290.838379</ele><time>2022-03-04T12:45:42Z</time><extensions><speed>0.578514</speed><course>301.220978</course><hAcc>1.595116</hAcc><vAcc>0.824648</vAcc></extensions></trkpt>
      <trkpt lon="-2.214553" lat="53.118833"><ele>290.776245</ele><time>2022-03-04T12:45:43Z</time><extensions><speed>0.498225</speed><course>284.904755</course><hAcc>1.575993</hAcc><vAcc>0.824464</vAcc></extensions></trkpt>
      <trkpt lon="-2.214560" lat="53.118834"><ele>290.718781</ele><time>2022-03-04T12:45:44Z</time><extensions><speed>0.432768</speed><course>278.069275</course><hAcc>1.567088</hAcc><vAcc>0.824263</vAcc></extensions></trkpt>
      <trkpt lon="-2.214563" lat="53.118835"><ele>290.665985</ele><time>2022-03-04T12:45:45Z</time><extensions><speed>0.114026</speed><course>293.636871</course><hAcc>1.603935</hAcc><vAcc>0.823996</vAcc></extensions></trkpt>
      <trkpt lon="-2.214564" lat="53.118835"><ele>290.625732</ele><time>2022-03-04T12:45:46Z</time><extensions><speed>0.061817</speed><course>332.974396</course><hAcc>1.603109</hAcc><vAcc>0.823726</vAcc></extensions></trkpt>
      <trkpt lon="-2.214565" lat="53.118836"><ele>290.585754</ele><time>2022-03-04T12:45:47Z</time><extensions><speed>0.126430</speed><course>351.289490</course><hAcc>1.546957</hAcc><vAcc>0.823486</vAcc></extensions></trkpt>
      <trkpt lon="-2.214565" lat="53.118838"><ele>290.542969</ele><time>2022-03-04T12:45:48Z</time><extensions><speed>0.159965</speed><course>0.004592</course><hAcc>1.517821</hAcc><vAcc>0.823229</vAcc></extensions></trkpt>
      <trkpt lon="-2.214565" lat="53.118839"><ele>290.495209</ele><time>2022-03-04T12:45:49Z</time><extensions><speed>0.177990</speed><course>8.935207</course><hAcc>1.509359</hAcc><vAcc>0.822941</vAcc></extensions></trkpt>
      <trkpt lon="-2.214565" lat="53.118841"><ele>290.441742</ele><time>2022-03-04T12:45:50Z</time><extensions><speed>0.180293</speed><course>15.981617</course><hAcc>1.515851</hAcc><vAcc>0.822637</vAcc></extensions></trkpt>
      <trkpt lon="-2.214564" lat="53.118842"><ele>290.385101</ele><time>2022-03-04T12:45:51Z</time><extensions><speed>0.126289</speed><course>19.860023</course><hAcc>1.554512</hAcc><vAcc>0.822301</vAcc></extensions></trkpt>
      <trkpt lon="-2.214564" lat="53.118843"><ele>290.336761</ele><time>2022-03-04T12:45:52Z</time><extensions><speed>0.099603</speed><course>20.369673</course><hAcc>1.573495</hAcc><vAcc>0.821905</vAcc></extensions></trkpt>
      <trkpt lon="-2.214563" lat="53.118845"><ele>290.280304</ele><time>2022-03-04T12:45:53Z</time><extensions><speed>0.166920</speed><course>14.170054</course><hAcc>1.541104</hAcc><vAcc>0.821466</vAcc></extensions></trkpt>
      <trkpt lon="-2.214563" lat="53.118846"><ele>290.226685</ele><time>2022-03-04T12:45:54Z</time><extensions><speed>0.175637</speed><course>0.467127</course><hAcc>1.546235</hAcc><vAcc>0.820951</vAcc></extensions></trkpt>
      <trkpt lon="-2.214563" lat="53.118848"><ele>290.148712</ele><time>2022-03-04T12:45:55Z</time><extensions><speed>0.187807</speed><course>343.045868</course><hAcc>1.576661</hAcc><vAcc>0.820374</vAcc></extensions></trkpt>
      <trkpt lon="-2.214564" lat="53.118849"><ele>290.078125</ele><time>2022-03-04T12:45:56Z</time><extensions><speed>0.212330</speed><course>329.001709</course><hAcc>1.615767</hAcc><vAcc>0.819734</vAcc></extensions></trkpt>
      <trkpt lon="-2.214567" lat="53.118851"><ele>289.996368</ele><time>2022-03-04T12:45:57Z</time><extensions><speed>0.279297</speed><course>318.819427</course><hAcc>1.644690</hAcc><vAcc>0.819059</vAcc></extensions></trkpt>
      <trkpt lon="-2.214570" lat="53.118854"><ele>289.929352</ele><time>2022-03-04T12:45:58Z</time><extensions><speed>0.425117</speed><course>312.467407</course><hAcc>1.660031</hAcc><vAcc>0.818385</vAcc></extensions></trkpt>
      <trkpt lon="-2.214577" lat="53.118857"><ele>289.837769</ele><time>2022-03-04T12:45:59Z</time><extensions><speed>0.725401</speed><course>308.552460</course><hAcc>1.664810</hAcc><vAcc>0.817705</vAcc></extensions></trkpt>
      <trkpt lon="-2.214586" lat="53.118861"><ele>289.748505</ele><time>2022-03-04T12:46:00Z</time><extensions><speed>0.879676</speed><course>308.400085</course><hAcc>1.699577</hAcc><vAcc>0.817067</vAcc></extensions></trkpt>
      <trkpt lon="-2.214597" lat="53.118866"><ele>289.655762</ele><time>2022-03-04T12:46:01Z</time><extensions><speed>0.899330</speed><course>307.912933</course><hAcc>1.719567</hAcc><vAcc>0.816449</vAcc></extensions></trkpt>
      <trkpt lon="-2.214607" lat="53.118871"><ele>289.557037</ele><time>2022-03-04T12:46:02Z</time><extensions><speed>0.837341</speed><course>310.492401</course><hAcc>1.732586</hAcc><vAcc>0.815795</vAcc></extensions></trkpt>
      <trkpt lon="-2.214616" lat="53.118876"><ele>289.452026</ele><time>2022-03-04T12:46:03Z</time><extensions><speed>0.751787</speed><course>315.965027</course><hAcc>1.742175</hAcc><vAcc>0.815099</vAcc></extensions></trkpt>
      <trkpt lon="-2.214622" lat="53.118881"><ele>289.365784</ele><time>2022-03-04T12:46:04Z</time><extensions><speed>0.667034</speed><course>324.268646</course><hAcc>1.743608</hAcc><vAcc>0.814498</vAcc></extensions></trkpt>
      <trkpt lon="-2.214628" lat="53.118886"><ele>289.268921</ele><time>2022-03-04T12:46:05Z</time><extensions><speed>0.586544</speed><course>328.299316</course><hAcc>1.752909</hAcc><vAcc>0.813973</vAcc></extensions></trkpt>
      <trkpt lon="-2.214632" lat="53.118890"><ele>289.176575</ele><time>2022-03-04T12:46:06Z</time><extensions><speed>0.478689</speed><course>326.419495</course><hAcc>1.769712</hAcc><vAcc>0.813488</vAcc></extensions></trkpt>
      <trkpt lon="-2.214637" lat="53.118894"><ele>289.086182</ele><time>2022-03-04T12:46:07Z</time><extensions><speed>0.623448</speed><course>318.175873</course><hAcc>1.752988</hAcc><vAcc>0.813108</vAcc></extensions></trkpt>
      <trkpt lon="-2.214644" lat="53.118898"><ele>288.997955</ele><time>2022-03-04T12:46:08Z</time><extensions><speed>0.690022</speed><course>315.078400</course><hAcc>1.754228</hAcc><vAcc>0.812772</vAcc></extensions></trkpt>
      <trkpt lon="-2.214651" lat="53.118903"><ele>288.905914</ele><time>2022-03-04T12:46:09Z</time><extensions><speed>0.680927</speed><course>314.100281</course><hAcc>1.767178</hAcc><vAcc>0.812608</vAcc></extensions></trkpt>
      <trkpt lon="-2.214658" lat="53.118907"><ele>288.812134</ele><time>2022-03-04T12:46:10Z</time><extensions><speed>0.733004</speed><course>320.264648</course><hAcc>1.773763</hAcc><vAcc>0.812570</vAcc></extensions></trkpt>
      <trkpt lon="-2.214664" lat="53.118913"><ele>288.732941</ele><time>2022-03-04T12:46:11Z</time><extensions><speed>0.830294</speed><course>333.647583</course><hAcc>1.763173</hAcc><vAcc>0.812658</vAcc></extensions></trkpt>
      <trkpt lon="-2.214669" lat="53.118921"><ele>288.668091</ele><time>2022-03-04T12:46:12Z</time><extensions><speed>1.014904</speed><course>346.341339</course><hAcc>1.759894</hAcc><vAcc>0.812864</vAcc></extensions></trkpt>
      <trkpt lon="-2.214671" lat="53.118930"><ele>288.599243</ele><time>2022-03-04T12:46:13Z</time><extensions><speed>1.110570</speed><course>358.293579</course><hAcc>1.773539</hAcc><vAcc>0.813199</vAcc></extensions></trkpt>
      <trkpt lon="-2.214671" lat="53.118940"><ele>288.534912</ele><time>2022-03-04T12:46:14Z</time><extensions><speed>1.089590</speed><course>5.412280</course><hAcc>1.775889</hAcc><vAcc>0.813652</vAcc></extensions></trkpt>
      <trkpt lon="-2.214669" lat="53.118949"><ele>288.469788</ele><time>2022-03-04T12:46:15Z</time><extensions><speed>0.862775</speed><course>6.714785</course><hAcc>1.758972</hAcc><vAcc>0.814193</vAcc></extensions></trkpt>
      <trkpt lon="-2.214669" lat="53.118956"><ele>288.397491</ele><time>2022-03-04T12:46:16Z</time><extensions><speed>0.647418</speed><course>1.027330</course><hAcc>1.741263</hAcc><vAcc>0.814801</vAcc></extensions></trkpt>
      <trkpt lon="-2.214670" lat="53.118961"><ele>288.322632</ele><time>2022-03-04T12:46:17Z</time><extensions><speed>0.461244</speed><course>345.993744</course><hAcc>1.719787</hAcc><vAcc>0.815468</vAcc></extensions></trkpt>
      <trkpt lon="-2.214673" lat="53.118964"><ele>288.247162</ele><time>2022-03-04T12:46:18Z</time><extensions><speed>0.442963</speed><course>324.676575</course><hAcc>1.687841</hAcc><vAcc>0.816097</vAcc></extensions></trkpt>
      <trkpt lon="-2.214678" lat="53.118968"><ele>288.164917</ele><time>2022-03-04T12:46:20Z</time><extensions><speed>0.499696</speed><course>309.039001</course><hAcc>1.672253</hAcc><vAcc>0.816692</vAcc></extensions></trkpt>
      <trkpt lon="-2.214683" lat="53.118970"><ele>288.081360</ele><time>2022-03-04T12:46:21Z</time><extensions><speed>0.314763</speed><course>291.370209</course><hAcc>1.698409</hAcc><vAcc>0.817108</vAcc></extensions></trkpt>
      <trkpt lon="-2.214688" lat="53.118970"><ele>287.994965</ele><time>2022-03-04T12:46:22Z</time><extensions><speed>0.339953</speed><course>279.852600</course><hAcc>1.685953</hAcc><vAcc>0.817460</vAcc></extensions></trkpt>
      <trkpt lon="-2.214693" lat="53.118971"><ele>287.891418</ele><time>2022-03-04T12:46:23Z</time><extensions><speed>0.384545</speed><course>278.998291</course><hAcc>1.671615</hAcc><vAcc>0.817692</vAcc></extensions></trkpt>
      <trkpt lon="-2.214699" lat="53.118972"><ele>287.778229</ele><time>2022-03-04T12:46:24Z</time><extensions><speed>0.458589</speed><course>283.467499</course><hAcc>1.664509</hAcc><vAcc>0.817780</vAcc></extensions></trkpt>
      <trkpt lon="-2.214707" lat="53.118973"><ele>287.659393</ele><time>2022-03-04T12:46:25Z</time><extensions><speed>0.532519</speed><course>289.763947</course><hAcc>1.671496</hAcc><vAcc>0.817762</vAcc></extensions></trkpt>
      <trkpt lon="-2.214714" lat="53.118975"><ele>287.549469</ele><time>2022-03-04T12:46:26Z</time><extensions><speed>0.619206</speed><course>297.050873</course><hAcc>1.681064</hAcc><vAcc>0.817614</vAcc></extensions></trkpt>
      <trkpt lon="-2.214723" lat="53.118979"><ele>287.438110</ele><time>2022-03-04T12:46:27Z</time><extensions><speed>0.799457</speed><course>304.193939</course><hAcc>1.675094</hAcc><vAcc>0.817359</vAcc></extensions></trkpt>
      <trkpt lon="-2.214733" lat="53.118983"><ele>287.320374</ele><time>2022-03-04T12:46:28Z</time><extensions><speed>0.800263</speed><course>309.455536</course><hAcc>1.679352</hAcc><vAcc>0.817044</vAcc></extensions></trkpt>
      <trkpt lon="-2.214741" lat="53.118988"><ele>287.203552</ele><time>2022-03-04T12:46:29Z</time><extensions><speed>0.712986</speed><course>314.067200</course><hAcc>1.696372</hAcc><vAcc>0.816705</vAcc></extensions></trkpt>
      <trkpt lon="-2.214747" lat="53.118991"><ele>287.101410</ele><time>2022-03-04T12:46:30Z</time><extensions><speed>0.447883</speed><course>320.428223</course><hAcc>1.737013</hAcc><vAcc>0.816284</vAcc></extensions></trkpt>
      <trkpt lon="-2.214752" lat="53.118995"><ele>286.988037</ele><time>2022-03-04T12:46:31Z</time><extensions><speed>0.497432</speed><course>322.138123</course><hAcc>1.730505</hAcc><vAcc>0.815865</vAcc></extensions></trkpt>
      <trkpt lon="-2.214758" lat="53.118999"><ele>286.884827</ele><time>2022-03-04T12:46:32Z</time><extensions><speed>0.760004</speed><course>317.123627</course><hAcc>1.703080</hAcc><vAcc>0.815395</vAcc></extensions></trkpt>
      <trkpt lon="-2.214766" lat="53.119004"><ele>286.787537</ele><time>2022-03-04T12:46:33Z</time><extensions><speed>0.792622</speed><course>320.273010</course><hAcc>1.710706</hAcc><vAcc>0.814952</vAcc></extensions></trkpt>
      <trkpt lon="-2.214772" lat="53.119010"><ele>286.694153</ele><time>2022-03-04T12:46:34Z</time><extensions><speed>0.760785</speed><course>334.318756</course><hAcc>1.729138</hAcc><vAcc>0.814518</vAcc></extensions></trkpt>
      <trkpt lon="-2.214776" lat="53.119017"><ele>286.592316</ele><time>2022-03-04T12:46:35Z</time><extensions><speed>0.806768</speed><course>343.106781</course><hAcc>1.741287</hAcc><vAcc>0.814031</vAcc></extensions></trkpt>
      <trkpt lon="-2.214779" lat="53.119024"><ele>286.508606</ele><time>2022-03-04T12:46:36Z</time><extensions><speed>0.804209</speed><course>348.841553</course><hAcc>1.748865</hAcc><vAcc>0.813566</vAcc></extensions></trkpt>
      <trkpt lon="-2.214781" lat="53.119030"><ele>286.412323</ele><time>2022-03-04T12:46:37Z</time><extensions><speed>0.670764</speed><course>346.304871</course><hAcc>1.762966</hAcc><vAcc>0.813075</vAcc></extensions></trkpt>
      <trkpt lon="-2.214784" lat="53.119037"><ele>286.323944</ele><time>2022-03-04T12:46:38Z</time><extensions><speed>0.724328</speed><course>341.605988</course><hAcc>1.763508</hAcc><vAcc>0.812644</vAcc></extensions></trkpt>
      <trkpt lon="-2.214789" lat="53.119043"><ele>286.236481</ele><time>2022-03-04T12:46:39Z</time><extensions><speed>0.888016</speed><course>338.257874</course><hAcc>1.758474</hAcc><vAcc>0.812291</vAcc></extensions></trkpt>
      <trkpt lon="-2.214794" lat="53.119051"><ele>286.145905</ele><time>2022-03-04T12:46:40Z</time><extensions><speed>0.883322</speed><course>336.581940</course><hAcc>1.759832</hAcc><vAcc>0.812045</vAcc></extensions></trkpt>
      <trkpt lon="-2.214799" lat="53.119058"><ele>286.043396</ele><time>2022-03-04T12:46:41Z</time><extensions><speed>0.817459</speed><course>336.927216</course><hAcc>1.761035</hAcc><vAcc>0.811943</vAcc></extensions></trkpt>
      <trkpt lon="-2.214803" lat="53.119064"><ele>285.940002</ele><time>2022-03-04T12:46:42Z</time><extensions><speed>0.701329</speed><course>338.759094</course><hAcc>1.768183</hAcc><vAcc>0.811974</vAcc></extensions></trkpt>
      <trkpt lon="-2.214807" lat="53.119069"><ele>285.831757</ele><time>2022-03-04T12:46:43Z</time><extensions><speed>0.566363</speed><course>337.289612</course><hAcc>1.779523</hAcc><vAcc>0.812096</vAcc></extensions></trkpt>
      <trkpt lon="-2.214811" lat="53.119075"><ele>285.716949</ele><time>2022-03-04T12:46:44Z</time><extensions><speed>0.771731</speed><course>332.343201</course><hAcc>1.747988</hAcc><vAcc>0.812336</vAcc></extensions></trkpt>
      <trkpt lon="-2.214818" lat="53.119081"><ele>285.602051</ele><time>2022-03-04T12:46:45Z</time><extensions><speed>0.872552</speed><course>324.194824</course><hAcc>1.739044</hAcc><vAcc>0.812751</vAcc></extensions></trkpt>
      <trkpt lon="-2.214827" lat="53.119088"><ele>285.493591</ele><time>2022-03-04T12:46:46Z</time><extensions><speed>0.986075</speed><course>318.664948</course><hAcc>1.743187</hAcc><vAcc>0.813258</vAcc></extensions></trkpt>
      <trkpt lon="-2.214837" lat="53.119094"><ele>285.368591</ele><time>2022-03-04T12:46:47Z</time><extensions><speed>1.026896</speed><course>310.356171</course><hAcc>1.741755</hAcc><vAcc>0.813863</vAcc></extensions></trkpt>
      <trkpt lon="-2.214850" lat="53.119099"><ele>285.228790</ele><time>2022-03-04T12:46:48Z</time><extensions><speed>1.038879</speed><course>302.404419</course><hAcc>1.741080</hAcc><vAcc>0.814458</vAcc></extensions></trkpt>
      <trkpt lon="-2.214864" lat="53.119104"><ele>285.098724</ele><time>2022-03-04T12:46:49Z</time><extensions><speed>1.067784</speed><course>294.661621</course><hAcc>1.737107</hAcc><vAcc>0.815107</vAcc></extensions></trkpt>
      <trkpt lon="-2.214878" lat="53.119108"><ele>284.971405</ele><time>2022-03-04T12:46:50Z</time><extensions><speed>1.066081</speed><course>291.030609</course><hAcc>1.731648</hAcc><vAcc>0.815780</vAcc></extensions></trkpt>
      <trkpt lon="-2.214892" lat="53.119112"><ele>284.854218</ele><time>2022-03-04T12:46:51Z</time><extensions><speed>0.976367</speed><course>293.037903</course><hAcc>1.723733</hAcc><vAcc>0.816457</vAcc></extensions></trkpt>
      <trkpt lon="-2.214904" lat="53.119116"><ele>284.736145</ele><time>2022-03-04T12:46:52Z</time><extensions><speed>0.855694</speed><course>305.162811</course><hAcc>1.707382</hAcc><vAcc>0.817117</vAcc></extensions></trkpt>
      <trkpt lon="-2.214915" lat="53.119121"><ele>284.635986</ele><time>2022-03-04T12:46:53Z</time><extensions><speed>1.068427</speed><course>316.409241</course><hAcc>1.678405</hAcc><vAcc>0.817766</vAcc></extensions></trkpt>
      <trkpt lon="-2.214925" lat="53.119129"><ele>284.561768</ele><time>2022-03-04T12:46:54Z</time><extensions><speed>1.189223</speed><course>324.005951</course><hAcc>1.674669</hAcc><vAcc>0.818415</vAcc></extensions></trkpt>
      <trkpt lon="-2.214935" lat="53.119138"><ele>284.497925</ele><time>2022-03-04T12:46:55Z</time><extensions><speed>1.182046</speed><course>327.685699</course><hAcc>1.670997</hAcc><vAcc>0.819072</vAcc></extensions></trkpt>
      <trkpt lon="-2.214945" lat="53.119148"><ele>284.441010</ele><time>2022-03-04T12:46:56Z</time><extensions><speed>1.423292</speed><course>333.560394</course><hAcc>1.606864</hAcc><vAcc>0.819747</vAcc></extensions></trkpt>
      <trkpt lon="-2.214954" lat="53.119160"><ele>284.391327</ele><time>2022-03-04T12:46:57Z</time><extensions><speed>1.570422</speed><course>338.543396</course><hAcc>1.530977</hAcc><vAcc>0.820437</vAcc></extensions></trkpt>
      <trkpt lon="-2.214963" lat="53.119173"><ele>284.353699</ele><time>2022-03-04T12:46:58Z</time><extensions><speed>1.691533</speed><course>341.976532</course><hAcc>1.470750</hAcc><vAcc>0.821125</vAcc></extensions></trkpt>
      <trkpt lon="-2.214972" lat="53.119187"><ele>284.329010</ele><time>2022-03-04T12:46:59Z</time><extensions><speed>1.687074</speed><course>342.697571</course><hAcc>1.473929</hAcc><vAcc>0.821810</vAcc></extensions></trkpt>
      <trkpt lon="-2.214980" lat="53.119201"><ele>284.321198</ele><time>2022-03-04T12:47:00Z</time><extensions><speed>1.692471</speed><course>344.346832</course><hAcc>1.447016</hAcc><vAcc>0.822484</vAcc></extensions></trkpt>
      <trkpt lon="-2.214986" lat="53.119215"><ele>284.323608</ele><time>2022-03-04T12:47:01Z</time><extensions><speed>1.662923</speed><course>346.404633</course><hAcc>1.411501</hAcc><vAcc>0.823134</vAcc></extensions></trkpt>
      <trkpt lon="-2.214992" lat="53.119228"><ele>284.336273</ele><time>2022-03-04T12:47:02Z</time><extensions><speed>1.642740</speed><course>348.666168</course><hAcc>1.388360</hAcc><vAcc>0.823738</vAcc></extensions></trkpt>
      <trkpt lon="-2.214996" lat="53.119242"><ele>284.338287</ele><time>2022-03-04T12:47:03Z</time><extensions><speed>1.531933</speed><course>350.883545</course><hAcc>1.368829</hAcc><vAcc>0.824276</vAcc></extensions></trkpt>
      <trkpt lon="-2.214999" lat="53.119254"><ele>284.323242</ele><time>2022-03-04T12:47:04Z</time><extensions><speed>1.422324</speed><course>353.328217</course><hAcc>1.359018</hAcc><vAcc>0.824764</vAcc></extensions></trkpt>
      <trkpt lon="-2.215002" lat="53.119266"><ele>284.306366</ele><time>2022-03-04T12:47:05Z</time><extensions><speed>1.384375</speed><course>350.123352</course><hAcc>1.351588</hAcc><vAcc>0.825160</vAcc></extensions></trkpt>
      <trkpt lon="-2.215008" lat="53.119278"><ele>284.262054</ele><time>2022-03-04T12:47:06Z</time><extensions><speed>1.467224</speed><course>336.603241</course><hAcc>1.354129</hAcc><vAcc>0.825429</vAcc></extensions></trkpt>
      <trkpt lon="-2.215020" lat="53.119289"><ele>284.199677</ele><time>2022-03-04T12:47:07Z</time><extensions><speed>1.516028</speed><course>318.736084</course><hAcc>1.355007</hAcc><vAcc>0.825599</vAcc></extensions></trkpt>
      <trkpt lon="-2.215036" lat="53.119298"><ele>284.111816</ele><time>2022-03-04T12:47:08Z</time><extensions><speed>1.480554</speed><course>308.289368</course><hAcc>1.353122</hAcc><vAcc>0.825634</vAcc></extensions></trkpt>
      <trkpt lon="-2.215054" lat="53.119305"><ele>284.022278</ele><time>2022-03-04T12:47:09Z</time><extensions><speed>1.489706</speed><course>301.801453</course><hAcc>1.368194</hAcc><vAcc>0.825523</vAcc></extensions></trkpt>
      <trkpt lon="-2.215073" lat="53.119312"><ele>283.900818</ele><time>2022-03-04T12:47:09Z</time><extensions><speed>1.448761</speed><course>303.043121</course><hAcc>1.388445</hAcc><vAcc>0.825239</vAcc></extensions></trkpt>
      <trkpt lon="-2.215090" lat="53.119319"><ele>283.752777</ele><time>2022-03-04T12:47:10Z</time><extensions><speed>1.348552</speed><course>309.767151</course><hAcc>1.407354</hAcc><vAcc>0.824878</vAcc></extensions></trkpt>
      <trkpt lon="-2.215103" lat="53.119327"><ele>283.591797</ele><time>2022-03-04T12:47:11Z</time><extensions><speed>1.092632</speed><course>316.765411</course><hAcc>1.419161</hAcc><vAcc>0.824315</vAcc></extensions></trkpt>
      <trkpt lon="-2.215112" lat="53.119333"><ele>283.395386</ele><time>2022-03-04T12:47:12Z</time><extensions><speed>0.793200</speed><course>324.719696</course><hAcc>1.434011</hAcc><vAcc>0.823593</vAcc></extensions></trkpt>
      <trkpt lon="-2.215118" lat="53.119339"><ele>283.175629</ele><time>2022-03-04T12:47:13Z</time><extensions><speed>0.742179</speed><course>331.789856</course><hAcc>1.488851</hAcc><vAcc>0.822771</vAcc></extensions></trkpt>
      <trkpt lon="-2.215124" lat="53.119346"><ele>282.931885</ele><time>2022-03-04T12:47:14Z</time><extensions><speed>0.858472</speed><course>332.246674</course><hAcc>1.546675</hAcc><vAcc>0.821820</vAcc></extensions></trkpt>
      <trkpt lon="-2.215131" lat="53.119351"><ele>282.687286</ele><time>2022-03-04T12:47:15Z</time><extensions><speed>0.618774</speed><course>309.165741</course><hAcc>1.529243</hAcc><vAcc>0.820727</vAcc></extensions></trkpt>
      <trkpt lon="-2.215138" lat="53.119353"><ele>282.440369</ele><time>2022-03-04T12:47:16Z</time><extensions><speed>0.541230</speed><course>292.002197</course><hAcc>1.566592</hAcc><vAcc>0.819466</vAcc></extensions></trkpt>
      <trkpt lon="-2.215146" lat="53.119355"><ele>282.171234</ele><time>2022-03-04T12:47:17Z</time><extensions><speed>0.525485</speed><course>280.655731</course><hAcc>1.628627</hAcc><vAcc>0.818244</vAcc></extensions></trkpt>
      <trkpt lon="-2.215154" lat="53.119355"><ele>281.889008</ele><time>2022-03-04T12:47:18Z</time><extensions><speed>0.517243</speed><course>268.683380</course><hAcc>1.677538</hAcc><vAcc>0.817057</vAcc></extensions></trkpt>
      <trkpt lon="-2.215161" lat="53.119355"><ele>281.590240</ele><time>2022-03-04T12:47:19Z</time><extensions><speed>0.482680</speed><course>260.803864</course><hAcc>1.715271</hAcc><vAcc>0.815865</vAcc></extensions></trkpt>
      <trkpt lon="-2.215169" lat="53.119354"><ele>281.294006</ele><time>2022-03-04T12:47:20Z</time><extensions><speed>0.493282</speed><course>264.859619</course><hAcc>1.737910</hAcc><vAcc>0.814675</vAcc></extensions></trkpt>
      <trkpt lon="-2.215177" lat="53.119354"><ele>281.006531</ele><time>2022-03-04T12:47:21Z</time><extensions><speed>0.570489</speed><course>273.632904</course><hAcc>1.740363</hAcc><vAcc>0.813605</vAcc></extensions></trkpt>
      <trkpt lon="-2.215186" lat="53.119355"><ele>280.715820</ele><time>2022-03-04T12:47:22Z</time><extensions><speed>0.723556</speed><course>282.669128</course><hAcc>1.730246</hAcc><vAcc>0.812541</vAcc></extensions></trkpt>
      <trkpt lon="-2.215197" lat="53.119357"><ele>280.443420</ele><time>2022-03-04T12:47:23Z</time><extensions><speed>0.746249</speed><course>286.120850</course><hAcc>1.729263</hAcc><vAcc>0.811592</vAcc></extensions></trkpt>
      <trkpt lon="-2.215207" lat="53.119359"><ele>280.181244</ele><time>2022-03-04T12:47:24Z</time><extensions><speed>0.653896</speed><course>286.295349</course><hAcc>1.742178</hAcc><vAcc>0.810755</vAcc></extensions></trkpt>
      <trkpt lon="-2.215216" lat="53.119360"><ele>279.925110</ele><time>2022-03-04T12:47:25Z</time><extensions><speed>0.486989</speed><course>285.213562</course><hAcc>1.750839</hAcc><vAcc>0.810111</vAcc></extensions></trkpt>
      <trkpt lon="-2.215223" lat="53.119361"><ele>279.676697</ele><time>2022-03-04T12:47:26Z</time><extensions><speed>0.501345</speed><course>284.989319</course><hAcc>1.737542</hAcc><vAcc>0.809648</vAcc></extensions></trkpt>
      <trkpt lon="-2.215230" lat="53.119362"><ele>279.443359</ele><time>2022-03-04T12:47:27Z</time><extensions><speed>0.522747</speed><course>283.593903</course><hAcc>1.733246</hAcc><vAcc>0.809278</vAcc></extensions></trkpt>
      <trkpt lon="-2.215238" lat="53.119363"><ele>279.234436</ele><time>2022-03-04T12:47:28Z</time><extensions><speed>0.573266</speed><course>280.824554</course><hAcc>1.726692</hAcc><vAcc>0.808975</vAcc></extensions></trkpt>
      <trkpt lon="-2.215247" lat="53.119364"><ele>279.018951</ele><time>2022-03-04T12:47:29Z</time><extensions><speed>0.700774</speed><course>277.265808</course><hAcc>1.705903</hAcc><vAcc>0.808758</vAcc></extensions></trkpt>
      <trkpt lon="-2.215257" lat="53.119365"><ele>278.814178</ele><time>2022-03-04T12:47:30Z</time><extensions><speed>0.611263</speed><course>277.126007</course><hAcc>1.725052</hAcc><vAcc>0.808597</vAcc></extensions></trkpt>
      <trkpt lon="-2.215264" lat="53.119366"><ele>278.628540</ele><time>2022-03-04T12:47:31Z</time><extensions><speed>0.360951</speed><course>294.809723</course><hAcc>1.764974</hAcc><vAcc>0.808493</vAcc></extensions></trkpt>
      <trkpt lon="-2.215268" lat="53.119368"><ele>278.442841</ele><time>2022-03-04T12:47:32Z</time><extensions><speed>0.347080</speed><course>320.966522</course><hAcc>1.757285</hAcc><vAcc>0.808432</vAcc></extensions></trkpt>
      <trkpt lon="-2.215270" lat="53.119371"><ele>278.299469</ele><time>2022-03-04T12:47:33Z</time><extensions><speed>0.416548</speed><course>344.341370</course><hAcc>1.751488</hAcc><vAcc>0.808482</vAcc></extensions></trkpt>
      <trkpt lon="-2.215271" lat="53.119376"><ele>278.172119</ele><time>2022-03-04T12:47:34Z</time><extensions><speed>0.583159</speed><course>358.026825</course><hAcc>1.749723</hAcc><vAcc>0.808610</vAcc></extensions></trkpt>
      <trkpt lon="-2.215271" lat="53.119382"><ele>278.038513</ele><time>2022-03-04T12:47:35Z</time><extensions><speed>0.842882</speed><course>2.878844</course><hAcc>1.752441</hAcc><vAcc>0.808808</vAcc></extensions></trkpt>
      <trkpt lon="-2.215271" lat="53.119390"><ele>277.911560</ele><time>2022-03-04T12:47:36Z</time><extensions><speed>0.895282</speed><course>4.452004</course><hAcc>1.766021</hAcc><vAcc>0.809096</vAcc></extensions></trkpt>
      <trkpt lon="-2.215269" lat="53.119398"><ele>277.789185</ele><time>2022-03-04T12:47:37Z</time><extensions><speed>0.903649</speed><course>5.156659</course><hAcc>1.763764</hAcc><vAcc>0.809453</vAcc></extensions></trkpt>
      <trkpt lon="-2.215269" lat="53.119406"><ele>277.675049</ele><time>2022-03-04T12:47:38Z</time><extensions><speed>0.880245</speed><course>3.560216</course><hAcc>1.765828</hAcc><vAcc>0.809860</vAcc></extensions></trkpt>
      <trkpt lon="-2.215268" lat="53.119414"><ele>277.560120</ele><time>2022-03-04T12:47:39Z</time><extensions><speed>0.860556</speed><course>359.110474</course><hAcc>1.773313</hAcc><vAcc>0.810266</vAcc></extensions></trkpt>
      <trkpt lon="-2.215269" lat="53.119422"><ele>277.468781</ele><time>2022-03-04T12:47:40Z</time><extensions><speed>0.968540</speed><course>353.723450</course><hAcc>1.770478</hAcc><vAcc>0.810688</vAcc></extensions></trkpt>
      <trkpt lon="-2.215272" lat="53.119432"><ele>277.376526</ele><time>2022-03-04T12:47:41Z</time><extensions><speed>1.064690</speed><course>347.089264</course><hAcc>1.750555</hAcc><vAcc>0.811127</vAcc></extensions></trkpt>
      <trkpt lon="-2.215277" lat="53.119441"><ele>277.305054</ele><time>2022-03-04T12:47:42Z</time><extensions><speed>1.194154</speed><course>340.643097</course><hAcc>1.725806</hAcc><vAcc>0.811685</vAcc></extensions></trkpt>
      <trkpt lon="-2.215284" lat="53.119452"><ele>277.221863</ele><time>2022-03-04T12:47:43Z</time><extensions><speed>1.302966</speed><course>336.889923</course><hAcc>1.701782</hAcc><vAcc>0.812303</vAcc></extensions></trkpt>
      <trkpt lon="-2.215292" lat="53.119463"><ele>277.129425</ele><time>2022-03-04T12:47:44Z</time><extensions><speed>1.345906</speed><course>333.955536</course><hAcc>1.673909</hAcc><vAcc>0.812964</vAcc></extensions></trkpt>
      <trkpt lon="-2.215302" lat="53.119474"><ele>277.037201</ele><time>2022-03-04T12:47:45Z</time><extensions><speed>1.297936</speed><course>331.348969</course><hAcc>1.670151</hAcc><vAcc>0.813641</vAcc></extensions></trkpt>
      <trkpt lon="-2.215311" lat="53.119483"><ele>276.942749</ele><time>2022-03-04T12:47:46Z</time><extensions><speed>1.076506</speed><course>327.317230</course><hAcc>1.697165</hAcc><vAcc>0.814305</vAcc></extensions></trkpt>
      <trkpt lon="-2.215320" lat="53.119491"><ele>276.841797</ele><time>2022-03-04T12:47:47Z</time><extensions><speed>1.163470</speed><course>324.700623</course><hAcc>1.667454</hAcc><vAcc>0.814900</vAcc></extensions></trkpt>
      <trkpt lon="-2.215330" lat="53.119500"><ele>276.742371</ele><time>2022-03-04T12:47:48Z</time><extensions><speed>1.135937</speed><course>325.083557</course><hAcc>1.669426</hAcc><vAcc>0.815398</vAcc></extensions></trkpt>
      <trkpt lon="-2.215340" lat="53.119509"><ele>276.627380</ele><time>2022-03-04T12:47:49Z</time><extensions><speed>1.294032</speed><course>327.103027</course><hAcc>1.650549</hAcc><vAcc>0.815782</vAcc></extensions></trkpt>
      <trkpt lon="-2.215351" lat="53.119519"><ele>276.506622</ele><time>2022-03-04T12:47:50Z</time><extensions><speed>1.500751</speed><course>327.623352</course><hAcc>1.654563</hAcc><vAcc>0.816058</vAcc></extensions></trkpt>
      <trkpt lon="-2.215364" lat="53.119531"><ele>276.382996</ele><time>2022-03-04T12:47:51Z</time><extensions><speed>1.498741</speed><course>326.057159</course><hAcc>1.675635</hAcc><vAcc>0.816273</vAcc></extensions></trkpt>
      <trkpt lon="-2.215376" lat="53.119541"><ele>276.255829</ele><time>2022-03-04T12:47:52Z</time><extensions><speed>1.326797</speed><course>322.505249</course><hAcc>1.702173</hAcc><vAcc>0.816431</vAcc></extensions></trkpt>
      <trkpt lon="-2.215388" lat="53.119549"><ele>276.122528</ele><time>2022-03-04T12:47:53Z</time><extensions><speed>1.028234</speed><course>312.689209</course><hAcc>1.714234</hAcc><vAcc>0.816527</vAcc></extensions></trkpt>
      <trkpt lon="-2.215399" lat="53.119555"><ele>275.977783</ele><time>2022-03-04T12:47:54Z</time><extensions><speed>0.985492</speed><course>309.879639</course><hAcc>1.726310</hAcc><vAcc>0.816577</vAcc></extensions></trkpt>
      <trkpt lon="-2.215409" lat="53.119561"><ele>275.820221</ele><time>2022-03-04T12:47:55Z</time><extensions><speed>0.929578</speed><course>315.301147</course><hAcc>1.736358</hAcc><vAcc>0.816565</vAcc></extensions></trkpt>
      <trkpt lon="-2.215418" lat="53.119567"><ele>275.674225</ele><time>2022-03-04T12:47:56Z</time><extensions><speed>0.866834</speed><course>322.048035</course><hAcc>1.733948</hAcc><vAcc>0.816506</vAcc></extensions></trkpt>
      <trkpt lon="-2.215426" lat="53.119573"><ele>275.530975</ele><time>2022-03-04T12:47:57Z</time><extensions><speed>0.859990</speed><course>324.797424</course><hAcc>1.737860</hAcc><vAcc>0.816412</vAcc></extensions></trkpt>
      <trkpt lon="-2.215434" lat="53.119580"><ele>275.366455</ele><time>2022-03-04T12:47:58Z</time><extensions><speed>0.920563</speed><course>326.397949</course><hAcc>1.745213</hAcc><vAcc>0.816274</vAcc></extensions></trkpt>
      <trkpt lon="-2.215442" lat="53.119587"><ele>275.205353</ele><time>2022-03-04T12:47:59Z</time><extensions><speed>1.051893</speed><course>325.921936</course><hAcc>1.751405</hAcc><vAcc>0.816207</vAcc></extensions></trkpt>
      <trkpt lon="-2.215451" lat="53.119595"><ele>275.032867</ele><time>2022-03-04T12:48:00Z</time><extensions><speed>1.088408</speed><course>323.268707</course><hAcc>1.754627</hAcc><vAcc>0.816179</vAcc></extensions></trkpt>
      <trkpt lon="-2.215461" lat="53.119603"><ele>274.887543</ele><time>2022-03-04T12:48:01Z</time><extensions><speed>1.046457</speed><course>319.683075</course><hAcc>1.749520</hAcc><vAcc>0.816196</vAcc></extensions></trkpt>
      <trkpt lon="-2.215471" lat="53.119609"><ele>274.753601</ele><time>2022-03-04T12:48:02Z</time><extensions><speed>0.942630</speed><course>315.080078</course><hAcc>1.740430</hAcc><vAcc>0.816256</vAcc></extensions></trkpt>
      <trkpt lon="-2.215481" lat="53.119615"><ele>274.604065</ele><time>2022-03-04T12:48:03Z</time><extensions><speed>0.927049</speed><course>313.417755</course><hAcc>1.739008</hAcc><vAcc>0.816331</vAcc></extensions></trkpt>
      <trkpt lon="-2.215491" lat="53.119621"><ele>274.452179</ele><time>2022-03-04T12:48:04Z</time><extensions><speed>0.931348</speed><course>315.310822</course><hAcc>1.739712</hAcc><vAcc>0.816425</vAcc></extensions></trkpt>
      <trkpt lon="-2.215500" lat="53.119628"><ele>274.297913</ele><time>2022-03-04T12:48:05Z</time><extensions><speed>0.975069</speed><course>319.705261</course><hAcc>1.737518</hAcc><vAcc>0.816522</vAcc></extensions></trkpt>
      <trkpt lon="-2.215509" lat="53.119635"><ele>274.165558</ele><time>2022-03-04T12:48:06Z</time><extensions><speed>0.965441</speed><course>325.502136</course><hAcc>1.729576</hAcc><vAcc>0.816609</vAcc></extensions></trkpt>
      <trkpt lon="-2.215517" lat="53.119642"><ele>274.025421</ele><time>2022-03-04T12:48:07Z</time><extensions><speed>0.940434</speed><course>327.520782</course><hAcc>1.719746</hAcc><vAcc>0.816674</vAcc></extensions></trkpt>
      <trkpt lon="-2.215524" lat="53.119649"><ele>273.887695</ele><time>2022-03-04T12:48:08Z</time><extensions><speed>0.877610</speed><course>324.789978</course><hAcc>1.726936</hAcc><vAcc>0.816704</vAcc></extensions></trkpt>
      <trkpt lon="-2.215532" lat="53.119655"><ele>273.748077</ele><time>2022-03-04T12:48:09Z</time><extensions><speed>0.834679</speed><course>324.408905</course><hAcc>1.731487</hAcc><vAcc>0.816726</vAcc></extensions></trkpt>
      <trkpt lon="-2.215539" lat="53.119661"><ele>273.603668</ele><time>2022-03-04T12:48:10Z</time><extensions><speed>0.828865</speed><course>329.231445</course><hAcc>1.724559</hAcc><vAcc>0.816715</vAcc></extensions></trkpt>
      <trkpt lon="-2.215544" lat="53.119668"><ele>273.459564</ele><time>2022-03-04T12:48:11Z</time><extensions><speed>0.811995</speed><course>340.211456</course><hAcc>1.716172</hAcc><vAcc>0.816669</vAcc></extensions></trkpt>
      <trkpt lon="-2.215548" lat="53.119675"><ele>273.305267</ele><time>2022-03-04T12:48:12Z</time><extensions><speed>0.876329</speed><course>347.227020</course><hAcc>1.721494</hAcc><vAcc>0.816596</vAcc></extensions></trkpt>
      <trkpt lon="-2.215550" lat="53.119683"><ele>273.145508</ele><time>2022-03-04T12:48:13Z</time><extensions><speed>0.897779</speed><course>352.993744</course><hAcc>1.726073</hAcc><vAcc>0.816459</vAcc></extensions></trkpt>
      <trkpt lon="-2.215551" lat="53.119691"><ele>272.982056</ele><time>2022-03-04T12:48:14Z</time><extensions><speed>0.877233</speed><course>354.053497</course><hAcc>1.729546</hAcc><vAcc>0.816237</vAcc></extensions></trkpt>
      <trkpt lon="-2.215553" lat="53.119699"><ele>272.804077</ele><time>2022-03-04T12:48:15Z</time><extensions><speed>0.871637</speed><course>352.776672</course><hAcc>1.734366</hAcc><vAcc>0.815967</vAcc></extensions></trkpt>
      <trkpt lon="-2.215556" lat="53.119706"><ele>272.623718</ele><time>2022-03-04T12:48:16Z</time><extensions><speed>0.881180</speed><course>344.928131</course><hAcc>1.735486</hAcc><vAcc>0.815701</vAcc></extensions></trkpt>
      <trkpt lon="-2.215560" lat="53.119714"><ele>272.436798</ele><time>2022-03-04T12:48:17Z</time><extensions><speed>0.830411</speed><course>332.477203</course><hAcc>1.733675</hAcc><vAcc>0.815419</vAcc></extensions></trkpt>
      <trkpt lon="-2.215567" lat="53.119720"><ele>272.251617</ele><time>2022-03-04T12:48:18Z</time><extensions><speed>0.848825</speed><course>322.635284</course><hAcc>1.736861</hAcc><vAcc>0.815121</vAcc></extensions></trkpt>
      <trkpt lon="-2.215576" lat="53.119726"><ele>272.061462</ele><time>2022-03-04T12:48:19Z</time><extensions><speed>0.903473</speed><course>316.665497</course><hAcc>1.746165</hAcc><vAcc>0.814872</vAcc></extensions></trkpt>
      <trkpt lon="-2.215586" lat="53.119731"><ele>271.872162</ele><time>2022-03-04T12:48:20Z</time><extensions><speed>0.887019</speed><course>310.082367</course><hAcc>1.748982</hAcc><vAcc>0.814633</vAcc></extensions></trkpt>
      <trkpt lon="-2.215596" lat="53.119736"><ele>271.672791</ele><time>2022-03-04T12:48:21Z</time><extensions><speed>0.823967</speed><course>304.342468</course><hAcc>1.737767</hAcc><vAcc>0.814415</vAcc></extensions></trkpt>
      <trkpt lon="-2.215606" lat="53.119740"><ele>271.475983</ele><time>2022-03-04T12:48:22Z</time><extensions><speed>0.759589</speed><course>296.865997</course><hAcc>1.725068</hAcc><vAcc>0.814210</vAcc></extensions></trkpt>
      <trkpt lon="-2.215618" lat="53.119743"><ele>271.293060</ele><time>2022-03-04T12:48:23Z</time><extensions><speed>0.932502</speed><course>294.191864</course><hAcc>1.698560</hAcc><vAcc>0.814030</vAcc></extensions></trkpt>
      <trkpt lon="-2.215633" lat="53.119748"><ele>271.118469</ele><time>2022-03-04T12:48:24Z</time><extensions><speed>1.274571</speed><course>294.730255</course><hAcc>1.671503</hAcc><vAcc>0.813824</vAcc></extensions></trkpt>
      <trkpt lon="-2.215651" lat="53.119753"><ele>270.940033</ele><time>2022-03-04T12:48:26Z</time><extensions><speed>1.402112</speed><course>295.492828</course><hAcc>1.668230</hAcc><vAcc>0.813603</vAcc></extensions></trkpt>
      <trkpt lon="-2.215669" lat="53.119758"><ele>270.764587</ele><time>2022-03-04T12:48:27Z</time><extensions><speed>1.347141</speed><course>297.899811</course><hAcc>1.704441</hAcc><vAcc>0.813306</vAcc></extensions></trkpt>
      <trkpt lon="-2.215685" lat="53.119763"><ele>270.613586</ele><time>2022-03-04T12:48:28Z</time><extensions><speed>1.123323</speed><course>295.747589</course><hAcc>1.718103</hAcc><vAcc>0.812942</vAcc></extensions></trkpt>
      <trkpt lon="-2.215699" lat="53.119768"><ele>270.447144</ele><time>2022-03-04T12:48:29Z</time><extensions><speed>1.053668</speed><course>300.791321</course><hAcc>1.668070</hAcc><vAcc>0.812561</vAcc></extensions></trkpt>
      <trkpt lon="-2.215712" lat="53.119773"><ele>270.306244</ele><time>2022-03-04T12:48:30Z</time><extensions><speed>0.995138</speed><course>309.326294</course><hAcc>1.659826</hAcc><vAcc>0.812073</vAcc></extensions></trkpt>
      <trkpt lon="-2.215722" lat="53.119779"><ele>270.165771</ele><time>2022-03-04T12:48:31Z</time><extensions><speed>0.944923</speed><course>316.674713</course><hAcc>1.685310</hAcc><vAcc>0.811462</vAcc></extensions></trkpt>
      <trkpt lon="-2.215731" lat="53.119785"><ele>270.032928</ele><time>2022-03-04T12:48:32Z</time><extensions><speed>0.798148</speed><course>328.100403</course><hAcc>1.711671</hAcc><vAcc>0.810731</vAcc></extensions></trkpt>
      <trkpt lon="-2.215735" lat="53.119791"><ele>269.903046</ele><time>2022-03-04T12:48:33Z</time><extensions><speed>0.654523</speed><course>344.908447</course><hAcc>1.733660</hAcc><vAcc>0.809921</vAcc></extensions></trkpt>
      <trkpt lon="-2.215736" lat="53.119796"><ele>269.778290</ele><time>2022-03-04T12:48:34Z</time><extensions><speed>0.457990</speed><course>5.349046</course><hAcc>1.763780</hAcc><vAcc>0.808964</vAcc></extensions></trkpt>
      <trkpt lon="-2.215735" lat="53.119801"><ele>269.660858</ele><time>2022-03-04T12:48:35Z</time><extensions><speed>0.489495</speed><course>17.143213</course><hAcc>1.759761</hAcc><vAcc>0.808023</vAcc></extensions></trkpt>
      <trkpt lon="-2.215733" lat="53.119805"><ele>269.545502</ele><time>2022-03-04T12:48:36Z</time><extensions><speed>0.514472</speed><course>15.552338</course><hAcc>1.757116</hAcc><vAcc>0.807046</vAcc></extensions></trkpt>
      <trkpt lon="-2.215732" lat="53.119810"><ele>269.431824</ele><time>2022-03-04T12:48:37Z</time><extensions><speed>0.583348</speed><course>1.900883</course><hAcc>1.749974</hAcc><vAcc>0.806034</vAcc></extensions></trkpt>
      <trkpt lon="-2.215733" lat="53.119816"><ele>269.307220</ele><time>2022-03-04T12:48:38Z</time><extensions><speed>0.764785</speed><course>346.144104</course><hAcc>1.735581</hAcc><vAcc>0.804870</vAcc></extensions></trkpt>
      <trkpt lon="-2.215737" lat="53.119823"><ele>269.191803</ele><time>2022-03-04T12:48:39Z</time><extensions><speed>0.798092</speed><course>336.332825</course><hAcc>1.737924</hAcc><vAcc>0.803955</vAcc></extensions></trkpt>
      <trkpt lon="-2.215743" lat="53.119829"><ele>269.080170</ele><time>2022-03-04T12:48:40Z</time><extensions><speed>0.763330</speed><course>325.063965</course><hAcc>1.744656</hAcc><vAcc>0.803126</vAcc></extensions></trkpt>
      <trkpt lon="-2.215749" lat="53.119834"><ele>268.963196</ele><time>2022-03-04T12:48:41Z</time><extensions><speed>0.537577</speed><course>318.989777</course><hAcc>1.770598</hAcc><vAcc>0.802395</vAcc></extensions></trkpt>
      <trkpt lon="-2.215755" lat="53.119838"><ele>268.856720</ele><time>2022-03-04T12:48:42Z</time><extensions><speed>0.727135</speed><course>318.649475</course><hAcc>1.741517</hAcc><vAcc>0.801814</vAcc></extensions></trkpt>
      <trkpt lon="-2.215763" lat="53.119844"><ele>268.742584</ele><time>2022-03-04T12:48:43Z</time><extensions><speed>0.868894</speed><course>321.601410</course><hAcc>1.726871</hAcc><vAcc>0.801344</vAcc></extensions></trkpt>
      <trkpt lon="-2.215772" lat="53.119851"><ele>268.624847</ele><time>2022-03-04T12:48:44Z</time><extensions><speed>1.033041</speed><course>326.158752</course><hAcc>1.722659</hAcc><vAcc>0.800985</vAcc></extensions></trkpt>
      <trkpt lon="-2.215781" lat="53.119860"><ele>268.495117</ele><time>2022-03-04T12:48:45Z</time><extensions><speed>1.309884</speed><course>330.757050</course><hAcc>1.711760</hAcc><vAcc>0.800849</vAcc></extensions></trkpt>
      <trkpt lon="-2.215790" lat="53.119870"><ele>268.359344</ele><time>2022-03-04T12:48:46Z</time><extensions><speed>1.250849</speed><course>329.756439</course><hAcc>1.726473</hAcc><vAcc>0.800896</vAcc></extensions></trkpt>
      <trkpt lon="-2.215799" lat="53.119879"><ele>268.211243</ele><time>2022-03-04T12:48:47Z</time><extensions><speed>0.994505</speed><course>326.057892</course><hAcc>1.760285</hAcc><vAcc>0.801095</vAcc></extensions></trkpt>
      <trkpt lon="-2.215810" lat="53.119888"><ele>268.051697</ele><time>2022-03-04T12:48:48Z</time><extensions><speed>1.444302</speed><course>323.377625</course><hAcc>1.735065</hAcc><vAcc>0.801466</vAcc></extensions></trkpt>
      <trkpt lon="-2.215823" lat="53.119898"><ele>267.894775</ele><time>2022-03-04T12:48:49Z</time><extensions><speed>1.557234</speed><course>322.137482</course><hAcc>1.736845</hAcc><vAcc>0.802014</vAcc></extensions></trkpt>
      <trkpt lon="-2.215838" lat="53.119910"><ele>267.739410</ele><time>2022-03-04T12:48:50Z</time><extensions><speed>1.663807</speed><course>322.228333</course><hAcc>1.730640</hAcc><vAcc>0.802709</vAcc></extensions></trkpt>
      <trkpt lon="-2.215852" lat="53.119921"><ele>267.589142</ele><time>2022-03-04T12:48:51Z</time><extensions><speed>1.396894</speed><course>320.213562</course><hAcc>1.741626</hAcc><vAcc>0.803644</vAcc></extensions></trkpt>
      <trkpt lon="-2.215863" lat="53.119929"><ele>267.416809</ele><time>2022-03-04T12:48:52Z</time><extensions><speed>0.851727</speed><course>322.089050</course><hAcc>1.765485</hAcc><vAcc>0.804665</vAcc></extensions></trkpt>
      <trkpt lon="-2.215871" lat="53.119935"><ele>267.247284</ele><time>2022-03-04T12:48:53Z</time><extensions><speed>0.849488</speed><course>325.412354</course><hAcc>1.748278</hAcc><vAcc>0.805721</vAcc></extensions></trkpt>
      <trkpt lon="-2.215878" lat="53.119942"><ele>267.082001</ele><time>2022-03-04T12:48:54Z</time><extensions><speed>0.943715</speed><course>328.505524</course><hAcc>1.742195</hAcc><vAcc>0.806797</vAcc></extensions></trkpt>
      <trkpt lon="-2.215885" lat="53.119949"><ele>266.898834</ele><time>2022-03-04T12:48:55Z</time><extensions><speed>0.911386</speed><course>330.967346</course><hAcc>1.758159</hAcc><vAcc>0.807835</vAcc></extensions></trkpt>
      <trkpt lon="-2.215891" lat="53.119956"><ele>266.743011</ele><time>2022-03-04T12:48:56Z</time><extensions><speed>0.922840</speed><course>335.629333</course><hAcc>1.764962</hAcc><vAcc>0.808787</vAcc></extensions></trkpt>
      <trkpt lon="-2.215897" lat="53.119964"><ele>266.577301</ele><time>2022-03-04T12:48:57Z</time><extensions><speed>0.987723</speed><course>337.537903</course><hAcc>1.762641</hAcc><vAcc>0.809662</vAcc></extensions></trkpt>
      <trkpt lon="-2.215902" lat="53.119973"><ele>266.405762</ele><time>2022-03-04T12:48:58Z</time><extensions><speed>1.056240</speed><course>339.028717</course><hAcc>1.766161</hAcc><vAcc>0.810429</vAcc></extensions></trkpt>
      <trkpt lon="-2.215908" lat="53.119982"><ele>266.248138</ele><time>2022-03-04T12:48:59Z</time><extensions><speed>1.096643</speed><course>340.723938</course><hAcc>1.765885</hAcc><vAcc>0.811127</vAcc></extensions></trkpt>
      <trkpt lon="-2.215913" lat="53.119991"><ele>266.097321</ele><time>2022-03-04T12:49:00Z</time><extensions><speed>1.092423</speed><course>341.717438</course><hAcc>1.762378</hAcc><vAcc>0.811718</vAcc></extensions></trkpt>
      <trkpt lon="-2.215918" lat="53.120000"><ele>265.944641</ele><time>2022-03-04T12:49:01Z</time><extensions><speed>0.968583</speed><course>341.265198</course><hAcc>1.756743</hAcc><vAcc>0.812202</vAcc></extensions></trkpt>
      <trkpt lon="-2.215922" lat="53.120008"><ele>265.800110</ele><time>2022-03-04T12:49:02Z</time><extensions><speed>0.955059</speed><course>339.907379</course><hAcc>1.746252</hAcc><vAcc>0.812592</vAcc></extensions></trkpt>
      <trkpt lon="-2.215927" lat="53.120016"><ele>265.653748</ele><time>2022-03-04T12:49:03Z</time><extensions><speed>0.932295</speed><course>341.147400</course><hAcc>1.748098</hAcc><vAcc>0.812891</vAcc></extensions></trkpt>
      <trkpt lon="-2.215931" lat="53.120025"><ele>265.506561</ele><time>2022-03-04T12:49:04Z</time><extensions><speed>0.945091</speed><course>347.943481</course><hAcc>1.743806</hAcc><vAcc>0.813065</vAcc></extensions></trkpt>
      <trkpt lon="-2.215933" lat="53.120033"><ele>265.367340</ele><time>2022-03-04T12:49:05Z</time><extensions><speed>0.980583</speed><course>353.217255</course><hAcc>1.747354</hAcc><vAcc>0.813271</vAcc></extensions></trkpt>
      <trkpt lon="-2.215935" lat="53.120042"><ele>265.222870</ele><time>2022-03-04T12:49:06Z</time><extensions><speed>1.066420</speed><course>357.699097</course><hAcc>1.749168</hAcc><vAcc>0.813448</vAcc></extensions></trkpt>
      <trkpt lon="-2.215935" lat="53.120052"><ele>265.079895</ele><time>2022-03-04T12:49:07Z</time><extensions><speed>1.129545</speed><course>1.044347</course><hAcc>1.747875</hAcc><vAcc>0.813579</vAcc></extensions></trkpt>
      <trkpt lon="-2.215934" lat="53.120063"><ele>264.934235</ele><time>2022-03-04T12:49:08Z</time><extensions><speed>1.165268</speed><course>3.443342</course><hAcc>1.746236</hAcc><vAcc>0.813631</vAcc></extensions></trkpt>
      <trkpt lon="-2.215933" lat="53.120074"><ele>264.785248</ele><time>2022-03-04T12:49:09Z</time><extensions><speed>1.211831</speed><course>2.547644</course><hAcc>1.737683</hAcc><vAcc>0.813579</vAcc></extensions></trkpt>
      <trkpt lon="-2.215933" lat="53.120085"><ele>264.629456</ele><time>2022-03-04T12:49:10Z</time><extensions><speed>1.249013</speed><course>359.466583</course><hAcc>1.718594</hAcc><vAcc>0.813584</vAcc></extensions></trkpt>
      <trkpt lon="-2.215934" lat="53.120096"><ele>264.478851</ele><time>2022-03-04T12:49:11Z</time><extensions><speed>1.265356</speed><course>354.054840</course><hAcc>1.703351</hAcc><vAcc>0.813527</vAcc></extensions></trkpt>
      <trkpt lon="-2.215937" lat="53.120107"><ele>264.321228</ele><time>2022-03-04T12:49:12Z</time><extensions><speed>1.235214</speed><course>346.694214</course><hAcc>1.675337</hAcc><vAcc>0.813433</vAcc></extensions></trkpt>
      <trkpt lon="-2.215942" lat="53.120118"><ele>264.157562</ele><time>2022-03-04T12:49:13Z</time><extensions><speed>1.196216</speed><course>338.879303</course><hAcc>1.641666</hAcc><vAcc>0.813402</vAcc></extensions></trkpt>
      <trkpt lon="-2.215949" lat="53.120128"><ele>263.995972</ele><time>2022-03-04T12:49:14Z</time><extensions><speed>1.172190</speed><course>335.228516</course><hAcc>1.652129</hAcc><vAcc>0.813370</vAcc></extensions></trkpt>
      <trkpt lon="-2.215956" lat="53.120136"><ele>263.838654</ele><time>2022-03-04T12:49:15Z</time><extensions><speed>0.945025</speed><course>331.171051</course><hAcc>1.709241</hAcc><vAcc>0.813235</vAcc></extensions></trkpt>
      <trkpt lon="-2.215962" lat="53.120144"><ele>263.671661</ele><time>2022-03-04T12:49:16Z</time><extensions><speed>0.843024</speed><course>338.499634</course><hAcc>1.669098</hAcc><vAcc>0.813051</vAcc></extensions></trkpt>
      <trkpt lon="-2.215965" lat="53.120150"><ele>263.497314</ele><time>2022-03-04T12:49:16Z</time><extensions><speed>0.549086</speed><course>353.542450</course><hAcc>1.669525</hAcc><vAcc>0.812798</vAcc></extensions></trkpt>
      <trkpt lon="-2.215965" lat="53.120155"><ele>263.330383</ele><time>2022-03-04T12:49:17Z</time><extensions><speed>0.714419</speed><course>4.804224</course><hAcc>1.664611</hAcc><vAcc>0.812484</vAcc></extensions></trkpt>
      <trkpt lon="-2.215963" lat="53.120163"><ele>263.169891</ele><time>2022-03-04T12:49:18Z</time><extensions><speed>1.000482</speed><course>8.330738</course><hAcc>1.674230</hAcc><vAcc>0.812324</vAcc></extensions></trkpt>
      <trkpt lon="-2.215961" lat="53.120173"><ele>263.013123</ele><time>2022-03-04T12:49:19Z</time><extensions><speed>1.129336</speed><course>7.458503</course><hAcc>1.708262</hAcc><vAcc>0.812291</vAcc></extensions></trkpt>
      <trkpt lon="-2.215960" lat="53.120183"><ele>262.840668</ele><time>2022-03-04T12:49:20Z</time><extensions><speed>1.241981</speed><course>2.845128</course><hAcc>1.731761</hAcc><vAcc>0.812378</vAcc></extensions></trkpt>
      <trkpt lon="-2.215959" lat="53.120195"><ele>262.677643</ele><time>2022-03-04T12:49:21Z</time><extensions><speed>1.290079</speed><course>358.974792</course><hAcc>1.748584</hAcc><vAcc>0.812593</vAcc></extensions></trkpt>
      <trkpt lon="-2.215960" lat="53.120206"><ele>262.508453</ele><time>2022-03-04T12:49:22Z</time><extensions><speed>1.197639</speed><course>354.785278</course><hAcc>1.758877</hAcc><vAcc>0.812875</vAcc></extensions></trkpt>
      <trkpt lon="-2.215963" lat="53.120216"><ele>262.359833</ele><time>2022-03-04T12:49:23Z</time><extensions><speed>1.054241</speed><course>349.278992</course><hAcc>1.759828</hAcc><vAcc>0.813291</vAcc></extensions></trkpt>
      <trkpt lon="-2.215967" lat="53.120225"><ele>262.204071</ele><time>2022-03-04T12:49:24Z</time><extensions><speed>0.976925</speed><course>342.376831</course><hAcc>1.755098</hAcc><vAcc>0.813783</vAcc></extensions></trkpt>
      <trkpt lon="-2.215972" lat="53.120233"><ele>262.049835</ele><time>2022-03-04T12:49:25Z</time><extensions><speed>0.911993</speed><course>331.995819</course><hAcc>1.753503</hAcc><vAcc>0.814277</vAcc></extensions></trkpt>
      <trkpt lon="-2.215979" lat="53.120239"><ele>261.893585</ele><time>2022-03-04T12:49:26Z</time><extensions><speed>0.889320</speed><course>319.676758</course><hAcc>1.747331</hAcc><vAcc>0.814759</vAcc></extensions></trkpt>
      <trkpt lon="-2.215989" lat="53.120245"><ele>261.736786</ele><time>2022-03-04T12:49:27Z</time><extensions><speed>0.933040</speed><course>310.389465</course><hAcc>1.746466</hAcc><vAcc>0.815234</vAcc></extensions></trkpt>
      <trkpt lon="-2.216001" lat="53.120250"><ele>261.586548</ele><time>2022-03-04T12:49:28Z</time><extensions><speed>0.976267</speed><course>303.389832</course><hAcc>1.752107</hAcc><vAcc>0.815619</vAcc></extensions></trkpt>
      <trkpt lon="-2.216014" lat="53.120256"><ele>261.441864</ele><time>2022-03-04T12:49:29Z</time><extensions><speed>1.141194</speed><course>304.808807</course><hAcc>1.744449</hAcc><vAcc>0.815873</vAcc></extensions></trkpt>
      <trkpt lon="-2.216028" lat="53.120262"><ele>261.294800</ele><time>2022-03-04T12:49:30Z</time><extensions><speed>1.191411</speed><course>308.358368</course><hAcc>1.750113</hAcc><vAcc>0.816057</vAcc></extensions></trkpt>
      <trkpt lon="-2.216041" lat="53.120269"><ele>261.159149</ele><time>2022-03-04T12:49:31Z</time><extensions><speed>1.197886</speed><course>313.202942</course><hAcc>1.746704</hAcc><vAcc>0.816251</vAcc></extensions></trkpt>
      <trkpt lon="-2.216053" lat="53.120278"><ele>261.032776</ele><time>2022-03-04T12:49:32Z</time><extensions><speed>1.265050</speed><course>322.240479</course><hAcc>1.734631</hAcc><vAcc>0.816404</vAcc></extensions></trkpt>
      <trkpt lon="-2.216064" lat="53.120288"><ele>260.893127</ele><time>2022-03-04T12:49:33Z</time><extensions><speed>1.386118</speed><course>329.466888</course><hAcc>1.743272</hAcc><vAcc>0.816523</vAcc></extensions></trkpt>
      <trkpt lon="-2.216074" lat="53.120298"><ele>260.747040</ele><time>2022-03-04T12:49:34Z</time><extensions><speed>1.287525</speed><course>331.859833</course><hAcc>1.742833</hAcc><vAcc>0.816561</vAcc></extensions></trkpt>
      <trkpt lon="-2.216082" lat="53.120308"><ele>260.599243</ele><time>2022-03-04T12:49:35Z</time><extensions><speed>1.132837</speed><course>336.763550</course><hAcc>1.726051</hAcc><vAcc>0.816518</vAcc></extensions></trkpt>
      <trkpt lon="-2.216088" lat="53.120317"><ele>260.449799</ele><time>2022-03-04T12:49:36Z</time><extensions><speed>1.027580</speed><course>343.008820</course><hAcc>1.710213</hAcc><vAcc>0.816397</vAcc></extensions></trkpt>
      <trkpt lon="-2.216091" lat="53.120326"><ele>260.295044</ele><time>2022-03-04T12:49:37Z</time><extensions><speed>0.917083</speed><course>349.629395</course><hAcc>1.709622</hAcc><vAcc>0.816345</vAcc></extensions></trkpt>
      <trkpt lon="-2.216093" lat="53.120334"><ele>260.141144</ele><time>2022-03-04T12:49:38Z</time><extensions><speed>0.804516</speed><course>356.675262</course><hAcc>1.711494</hAcc><vAcc>0.816333</vAcc></extensions></trkpt>
      <trkpt lon="-2.216093" lat="53.120341"><ele>259.975983</ele><time>2022-03-04T12:49:39Z</time><extensions><speed>0.921643</speed><course>358.726166</course><hAcc>1.685996</hAcc><vAcc>0.816369</vAcc></extensions></trkpt>
      <trkpt lon="-2.216094" lat="53.120351"><ele>259.791107</ele><time>2022-03-04T12:49:40Z</time><extensions><speed>1.183474</speed><course>356.392792</course><hAcc>1.664717</hAcc><vAcc>0.816429</vAcc></extensions></trkpt>
      <trkpt lon="-2.216096" lat="53.120361"><ele>259.595612</ele><time>2022-03-04T12:49:41Z</time><extensions><speed>1.101812</speed><course>353.711700</course><hAcc>1.699746</hAcc><vAcc>0.816522</vAcc></extensions></trkpt>
      <trkpt lon="-2.216099" lat="53.120371"><ele>259.397461</ele><time>2022-03-04T12:49:42Z</time><extensions><speed>1.083618</speed><course>350.338684</course><hAcc>1.696400</hAcc><vAcc>0.816637</vAcc></extensions></trkpt>
      <trkpt lon="-2.216103" lat="53.120380"><ele>259.212036</ele><time>2022-03-04T12:49:43Z</time><extensions><speed>1.067581</speed><course>342.472351</course><hAcc>1.672899</hAcc><vAcc>0.816728</vAcc></extensions></trkpt>
      <trkpt lon="-2.216109" lat="53.120389"><ele>259.032379</ele><time>2022-03-04T12:49:44Z</time><extensions><speed>1.092605</speed><course>332.678253</course><hAcc>1.646080</hAcc><vAcc>0.816748</vAcc></extensions></trkpt>
      <trkpt lon="-2.216118" lat="53.120398"><ele>258.841797</ele><time>2022-03-04T12:49:45Z</time><extensions><speed>1.174294</speed><course>325.070312</course><hAcc>1.636796</hAcc><vAcc>0.816656</vAcc></extensions></trkpt>
      <trkpt lon="-2.216129" lat="53.120406"><ele>258.652618</ele><time>2022-03-04T12:49:46Z</time><extensions><speed>1.190678</speed><course>318.812714</course><hAcc>1.628712</hAcc><vAcc>0.816473</vAcc></extensions></trkpt>
      <trkpt lon="-2.216141" lat="53.120414"><ele>258.460968</ele><time>2022-03-04T12:49:47Z</time><extensions><speed>1.119873</speed><course>313.295837</course><hAcc>1.634788</hAcc><vAcc>0.816245</vAcc></extensions></trkpt>
      <trkpt lon="-2.216153" lat="53.120421"><ele>258.289703</ele><time>2022-03-04T12:49:48Z</time><extensions><speed>1.047836</speed><course>311.136108</course><hAcc>1.672128</hAcc><vAcc>0.815995</vAcc></extensions></trkpt>
      <trkpt lon="-2.216165" lat="53.120427"><ele>258.113647</ele><time>2022-03-04T12:49:49Z</time><extensions><speed>0.992084</speed><course>309.794556</course><hAcc>1.691826</hAcc><vAcc>0.815742</vAcc></extensions></trkpt>
      <trkpt lon="-2.216178" lat="53.120432"><ele>257.941772</ele><time>2022-03-04T12:49:50Z</time><extensions><speed>1.142143</speed><course>301.769287</course><hAcc>1.650358</hAcc><vAcc>0.815465</vAcc></extensions></trkpt>
      <trkpt lon="-2.216193" lat="53.120437"><ele>257.785339</ele><time>2022-03-04T12:49:51Z</time><extensions><speed>1.202582</speed><course>297.157593</course><hAcc>1.654301</hAcc><vAcc>0.815203</vAcc></extensions></trkpt>
      <trkpt lon="-2.216209" lat="53.120442"><ele>257.630096</ele><time>2022-03-04T12:49:52Z</time><extensions><speed>1.156609</speed><course>296.938507</course><hAcc>1.686017</hAcc><vAcc>0.814956</vAcc></extensions></trkpt>
      <trkpt lon="-2.216224" lat="53.120447"><ele>257.492523</ele><time>2022-03-04T12:49:53Z</time><extensions><speed>1.032083</speed><course>295.205414</course><hAcc>1.703345</hAcc><vAcc>0.814737</vAcc></extensions></trkpt>
      <trkpt lon="-2.216237" lat="53.120451"><ele>257.356720</ele><time>2022-03-04T12:49:54Z</time><extensions><speed>1.003642</speed><course>303.820862</course><hAcc>1.711804</hAcc><vAcc>0.814562</vAcc></extensions></trkpt>
      <trkpt lon="-2.216250" lat="53.120457"><ele>257.230164</ele><time>2022-03-04T12:49:55Z</time><extensions><speed>1.176244</speed><course>313.380219</course><hAcc>1.714308</hAcc><vAcc>0.814520</vAcc></extensions></trkpt>
      <trkpt lon="-2.216263" lat="53.120465"><ele>257.107727</ele><time>2022-03-04T12:49:56Z</time><extensions><speed>1.215930</speed><course>316.845673</course><hAcc>1.731439</hAcc><vAcc>0.814621</vAcc></extensions></trkpt>
      <trkpt lon="-2.216275" lat="53.120473"><ele>256.988129</ele><time>2022-03-04T12:49:57Z</time><extensions><speed>1.184168</speed><course>314.283600</course><hAcc>1.743554</hAcc><vAcc>0.814858</vAcc></extensions></trkpt>
      <trkpt lon="-2.216288" lat="53.120480"><ele>256.875000</ele><time>2022-03-04T12:49:58Z</time><extensions><speed>1.161569</speed><course>316.561066</course><hAcc>1.742423</hAcc><vAcc>0.815205</vAcc></extensions></trkpt>
      <trkpt lon="-2.216300" lat="53.120488"><ele>256.760681</ele><time>2022-03-04T12:49:59Z</time><extensions><speed>1.123677</speed><course>315.022278</course><hAcc>1.733828</hAcc><vAcc>0.815643</vAcc></extensions></trkpt>
      <trkpt lon="-2.216312" lat="53.120495"><ele>256.641449</ele><time>2022-03-04T12:50:00Z</time><extensions><speed>1.128195</speed><course>315.093292</course><hAcc>1.723727</hAcc><vAcc>0.816134</vAcc></extensions></trkpt>
      <trkpt lon="-2.216323" lat="53.120502"><ele>256.517090</ele><time>2022-03-04T12:50:01Z</time><extensions><speed>1.098705</speed><course>316.711792</course><hAcc>1.724134</hAcc><vAcc>0.816656</vAcc></extensions></trkpt>
      <trkpt lon="-2.216334" lat="53.120509"><ele>256.392548</ele><time>2022-03-04T12:50:02Z</time><extensions><speed>1.024091</speed><course>317.996185</course><hAcc>1.727825</hAcc><vAcc>0.817199</vAcc></extensions></trkpt>
      <trkpt lon="-2.216344" lat="53.120516"><ele>256.264954</ele><time>2022-03-04T12:50:03Z</time><extensions><speed>0.970526</speed><course>319.344391</course><hAcc>1.728699</hAcc><vAcc>0.817729</vAcc></extensions></trkpt>
      <trkpt lon="-2.216353" lat="53.120522"><ele>256.145081</ele><time>2022-03-04T12:50:04Z</time><extensions><speed>0.907228</speed><course>318.079376</course><hAcc>1.727137</hAcc><vAcc>0.818238</vAcc></extensions></trkpt>
      <trkpt lon="-2.216362" lat="53.120528"><ele>256.019348</ele><time>2022-03-04T12:50:05Z</time><extensions><speed>0.806727</speed><course>317.104858</course><hAcc>1.736028</hAcc><vAcc>0.818724</vAcc></extensions></trkpt>
      <trkpt lon="-2.216371" lat="53.120534"><ele>255.882767</ele><time>2022-03-04T12:50:06Z</time><extensions><speed>1.033980</speed><course>317.550323</course><hAcc>1.725453</hAcc><vAcc>0.819186</vAcc></extensions></trkpt>
      <trkpt lon="-2.216382" lat="53.120541"><ele>255.748856</ele><time>2022-03-04T12:50:07Z</time><extensions><speed>1.091286</speed><course>319.606506</course><hAcc>1.729659</hAcc><vAcc>0.819610</vAcc></extensions></trkpt>
      <trkpt lon="-2.216393" lat="53.120549"><ele>255.622086</ele><time>2022-03-04T12:50:08Z</time><extensions><speed>1.092484</speed><course>318.647552</course><hAcc>1.721640</hAcc><vAcc>0.819995</vAcc></extensions></trkpt>
      <trkpt lon="-2.216404" lat="53.120556"><ele>255.496780</ele><time>2022-03-04T12:50:09Z</time><extensions><speed>1.110109</speed><course>317.645813</course><hAcc>1.720276</hAcc><vAcc>0.820215</vAcc></extensions></trkpt>
      <trkpt lon="-2.216415" lat="53.120563"><ele>255.357773</ele><time>2022-03-04T12:50:10Z</time><extensions><speed>1.065924</speed><course>315.503418</course><hAcc>1.717640</hAcc><vAcc>0.820346</vAcc></extensions></trkpt>
      <trkpt lon="-2.216426" lat="53.120570"><ele>255.223389</ele><time>2022-03-04T12:50:11Z</time><extensions><speed>1.131900</speed><course>316.620605</course><hAcc>1.715400</hAcc><vAcc>0.820452</vAcc></extensions></trkpt>
      <trkpt lon="-2.216438" lat="53.120578"><ele>255.075455</ele><time>2022-03-04T12:50:12Z</time><extensions><speed>1.141728</speed><course>315.900909</course><hAcc>1.716341</hAcc><vAcc>0.820521</vAcc></extensions></trkpt>
      <trkpt lon="-2.216450" lat="53.120585"><ele>254.938690</ele><time>2022-03-04T12:50:13Z</time><extensions><speed>1.051100</speed><course>313.733582</course><hAcc>1.713779</hAcc><vAcc>0.820453</vAcc></extensions></trkpt>
      <trkpt lon="-2.216461" lat="53.120591"><ele>254.792419</ele><time>2022-03-04T12:50:14Z</time><extensions><speed>0.964444</speed><course>308.748383</course><hAcc>1.712335</hAcc><vAcc>0.820264</vAcc></extensions></trkpt>
      <trkpt lon="-2.216472" lat="53.120596"><ele>254.641388</ele><time>2022-03-04T12:50:15Z</time><extensions><speed>0.826741</speed><course>303.478546</course><hAcc>1.709139</hAcc><vAcc>0.819949</vAcc></extensions></trkpt>
      <trkpt lon="-2.216481" lat="53.120600"><ele>254.496277</ele><time>2022-03-04T12:50:16Z</time><extensions><speed>0.731436</speed><course>305.711609</course><hAcc>1.706731</hAcc><vAcc>0.819497</vAcc></extensions></trkpt>
      <trkpt lon="-2.216489" lat="53.120604"><ele>254.350693</ele><time>2022-03-04T12:50:17Z</time><extensions><speed>0.582727</speed><course>315.497772</course><hAcc>1.715766</hAcc><vAcc>0.818991</vAcc></extensions></trkpt>
      <trkpt lon="-2.216495" lat="53.120608"><ele>254.196625</ele><time>2022-03-04T12:50:18Z</time><extensions><speed>0.675128</speed><course>327.660889</course><hAcc>1.697078</hAcc><vAcc>0.818436</vAcc></extensions></trkpt>
      <trkpt lon="-2.216500" lat="53.120615"><ele>254.043518</ele><time>2022-03-04T12:50:19Z</time><extensions><speed>0.850394</speed><course>335.587463</course><hAcc>1.676339</hAcc><vAcc>0.817866</vAcc></extensions></trkpt>
      <trkpt lon="-2.216506" lat="53.120623"><ele>253.902100</ele><time>2022-03-04T12:50:20Z</time><extensions><speed>1.077436</speed><course>338.254669</course><hAcc>1.691836</hAcc><vAcc>0.817189</vAcc></extensions></trkpt>
      <trkpt lon="-2.216511" lat="53.120632"><ele>253.752731</ele><time>2022-03-04T12:50:21Z</time><extensions><speed>1.084525</speed><course>340.303925</course><hAcc>1.749483</hAcc><vAcc>0.816417</vAcc></extensions></trkpt>
      <trkpt lon="-2.216516" lat="53.120641"><ele>253.588409</ele><time>2022-03-04T12:50:22Z</time><extensions><speed>1.164482</speed><course>345.845734</course><hAcc>1.713452</hAcc><vAcc>0.815741</vAcc></extensions></trkpt>
      <trkpt lon="-2.216520" lat="53.120652"><ele>253.437866</ele><time>2022-03-04T12:50:23Z</time><extensions><speed>1.229879</speed><course>352.482391</course><hAcc>1.663896</hAcc><vAcc>0.815051</vAcc></extensions></trkpt>
      <trkpt lon="-2.216522" lat="53.120663"><ele>253.288727</ele><time>2022-03-04T12:50:24Z</time><extensions><speed>1.203984</speed><course>354.785492</course><hAcc>1.641983</hAcc><vAcc>0.814425</vAcc></extensions></trkpt>
      <trkpt lon="-2.216524" lat="53.120674"><ele>253.126328</ele><time>2022-03-04T12:50:25Z</time><extensions><speed>1.161511</speed><course>354.080505</course><hAcc>1.632785</hAcc><vAcc>0.813793</vAcc></extensions></trkpt>
      <trkpt lon="-2.216526" lat="53.120684"><ele>252.964966</ele><time>2022-03-04T12:50:26Z</time><extensions><speed>1.196798</speed><course>351.539032</course><hAcc>1.652456</hAcc><vAcc>0.813316</vAcc></extensions></trkpt>
      <trkpt lon="-2.216529" lat="53.120695"><ele>252.808578</ele><time>2022-03-04T12:50:27Z</time><extensions><speed>1.142113</speed><course>348.337769</course><hAcc>1.715376</hAcc><vAcc>0.812926</vAcc></extensions></trkpt>
      <trkpt lon="-2.216533" lat="53.120705"><ele>252.653427</ele><time>2022-03-04T12:50:28Z</time><extensions><speed>1.213080</speed><course>347.967224</course><hAcc>1.699060</hAcc><vAcc>0.812511</vAcc></extensions></trkpt>
      <trkpt lon="-2.216536" lat="53.120716"><ele>252.511093</ele><time>2022-03-04T12:50:29Z</time><extensions><speed>1.181791</speed><course>347.340790</course><hAcc>1.671033</hAcc><vAcc>0.812097</vAcc></extensions></trkpt>
      <trkpt lon="-2.216541" lat="53.120725"><ele>252.381821</ele><time>2022-03-04T12:50:30Z</time><extensions><speed>1.102235</speed><course>342.020355</course><hAcc>1.652046</hAcc><vAcc>0.811723</vAcc></extensions></trkpt>
      <trkpt lon="-2.216546" lat="53.120734"><ele>252.246323</ele><time>2022-03-04T12:50:32Z</time><extensions><speed>1.010583</speed><course>334.819824</course><hAcc>1.662801</hAcc><vAcc>0.811339</vAcc></extensions></trkpt>
      <trkpt lon="-2.216553" lat="53.120742"><ele>252.117203</ele><time>2022-03-04T12:50:33Z</time><extensions><speed>0.976463</speed><course>332.525818</course><hAcc>1.691217</hAcc><vAcc>0.810935</vAcc></extensions></trkpt>
      <trkpt lon="-2.216560" lat="53.120750"><ele>251.998596</ele><time>2022-03-04T12:50:34Z</time><extensions><speed>1.018988</speed><course>334.986694</course><hAcc>1.708618</hAcc><vAcc>0.810502</vAcc></extensions></trkpt>
      <trkpt lon="-2.216566" lat="53.120759"><ele>251.885529</ele><time>2022-03-04T12:50:35Z</time><extensions><speed>1.022800</speed><course>338.051392</course><hAcc>1.738805</hAcc><vAcc>0.810120</vAcc></extensions></trkpt>
      <trkpt lon="-2.216571" lat="53.120767"><ele>251.773514</ele><time>2022-03-04T12:50:36Z</time><extensions><speed>0.939804</speed><course>343.433624</course><hAcc>1.728859</hAcc><vAcc>0.809757</vAcc></extensions></trkpt>
      <trkpt lon="-2.216574" lat="53.120775"><ele>251.665100</ele><time>2022-03-04T12:50:37Z</time><extensions><speed>0.838197</speed><course>352.508423</course><hAcc>1.737699</hAcc><vAcc>0.809283</vAcc></extensions></trkpt>
      <trkpt lon="-2.216574" lat="53.120782"><ele>251.560379</ele><time>2022-03-04T12:50:38Z</time><extensions><speed>0.782438</speed><course>7.553253</course><hAcc>1.741502</hAcc><vAcc>0.808581</vAcc></extensions></trkpt>
      <trkpt lon="-2.216571" lat="53.120789"><ele>251.450134</ele><time>2022-03-04T12:50:39Z</time><extensions><speed>0.739561</speed><course>18.770695</course><hAcc>1.734299</hAcc><vAcc>0.807496</vAcc></extensions></trkpt>
      <trkpt lon="-2.216568" lat="53.120795"><ele>251.352310</ele><time>2022-03-04T12:50:40Z</time><extensions><speed>0.629679</speed><course>22.328396</course><hAcc>1.747046</hAcc><vAcc>0.806038</vAcc></extensions></trkpt>
      <trkpt lon="-2.216565" lat="53.120799"><ele>251.248413</ele><time>2022-03-04T12:50:41Z</time><extensions><speed>0.448375</speed><course>12.846614</course><hAcc>1.770297</hAcc><vAcc>0.804612</vAcc></extensions></trkpt>
      <trkpt lon="-2.216565" lat="53.120803"><ele>251.142380</ele><time>2022-03-04T12:50:42Z</time><extensions><speed>0.401564</speed><course>339.982117</course><hAcc>1.781833</hAcc><vAcc>0.803224</vAcc></extensions></trkpt>
      <trkpt lon="-2.216568" lat="53.120807"><ele>251.029190</ele><time>2022-03-04T12:50:43Z</time><extensions><speed>0.534847</speed><course>330.142059</course><hAcc>1.776813</hAcc><vAcc>0.801814</vAcc></extensions></trkpt>
      <trkpt lon="-2.216573" lat="53.120812"><ele>250.920425</ele><time>2022-03-04T12:50:44Z</time><extensions><speed>0.752666</speed><course>333.798187</course><hAcc>1.766401</hAcc><vAcc>0.800374</vAcc></extensions></trkpt>
      <trkpt lon="-2.216579" lat="53.120819"><ele>250.796127</ele><time>2022-03-04T12:50:45Z</time><extensions><speed>0.912619</speed><course>332.546875</course><hAcc>1.787109</hAcc><vAcc>0.798855</vAcc></extensions></trkpt>
      <trkpt lon="-2.216585" lat="53.120825"><ele>250.667572</ele><time>2022-03-04T12:50:46Z</time><extensions><speed>0.831531</speed><course>328.833984</course><hAcc>1.797559</hAcc><vAcc>0.797338</vAcc></extensions></trkpt>
      <trkpt lon="-2.216591" lat="53.120831"><ele>250.539337</ele><time>2022-03-04T12:50:47Z</time><extensions><speed>0.670096</speed><course>327.771271</course><hAcc>1.799897</hAcc><vAcc>0.795875</vAcc></extensions></trkpt>
      <trkpt lon="-2.216597" lat="53.120837"><ele>250.404572</ele><time>2022-03-04T12:50:48Z</time><extensions><speed>0.807527</speed><course>330.564789</course><hAcc>1.774663</hAcc><vAcc>0.794659</vAcc></extensions></trkpt>
      <trkpt lon="-2.216604" lat="53.120845"><ele>250.252243</ele><time>2022-03-04T12:50:49Z</time><extensions><speed>1.154706</speed><course>334.132874</course><hAcc>1.735073</hAcc><vAcc>0.793782</vAcc></extensions></trkpt>
      <trkpt lon="-2.216611" lat="53.120855"><ele>250.102188</ele><time>2022-03-04T12:50:50Z</time><extensions><speed>1.368057</speed><course>337.579987</course><hAcc>1.726168</hAcc><vAcc>0.793294</vAcc></extensions></trkpt>
      <trkpt lon="-2.216619" lat="53.120867"><ele>249.944366</ele><time>2022-03-04T12:50:51Z</time><extensions><speed>1.419218</speed><course>341.267426</course><hAcc>1.753666</hAcc><vAcc>0.793181</vAcc></extensions></trkpt>
      <trkpt lon="-2.216625" lat="53.120879"><ele>249.785080</ele><time>2022-03-04T12:50:52Z</time><extensions><speed>1.359315</speed><course>345.091705</course><hAcc>1.798200</hAcc><vAcc>0.793431</vAcc></extensions></trkpt>
      <trkpt lon="-2.216630" lat="53.120891"><ele>249.638290</ele><time>2022-03-04T12:50:53Z</time><extensions><speed>1.258765</speed><course>345.439606</course><hAcc>1.790908</hAcc><vAcc>0.793974</vAcc></extensions></trkpt>
      <trkpt lon="-2.216635" lat="53.120901"><ele>249.496414</ele><time>2022-03-04T12:50:54Z</time><extensions><speed>1.175668</speed><course>341.063660</course><hAcc>1.750222</hAcc><vAcc>0.794634</vAcc></extensions></trkpt>
      <trkpt lon="-2.216641" lat="53.120911"><ele>249.351013</ele><time>2022-03-04T12:50:55Z</time><extensions><speed>1.096391</speed><course>337.989136</course><hAcc>1.748824</hAcc><vAcc>0.795365</vAcc></extensions></trkpt>
      <trkpt lon="-2.216647" lat="53.120920"><ele>249.223038</ele><time>2022-03-04T12:50:56Z</time><extensions><speed>1.226189</speed><course>339.080292</course><hAcc>1.760822</hAcc><vAcc>0.796094</vAcc></extensions></trkpt>
      <trkpt lon="-2.216653" lat="53.120931"><ele>249.101410</ele><time>2022-03-04T12:50:57Z</time><extensions><speed>1.242314</speed><course>343.004761</course><hAcc>1.778789</hAcc><vAcc>0.796864</vAcc></extensions></trkpt>
      <trkpt lon="-2.216657" lat="53.120941"><ele>248.970627</ele><time>2022-03-04T12:50:58Z</time><extensions><speed>1.147717</speed><course>348.338745</course><hAcc>1.794536</hAcc><vAcc>0.797596</vAcc></extensions></trkpt>
      <trkpt lon="-2.216660" lat="53.120951"><ele>248.845871</ele><time>2022-03-04T12:50:59Z</time><extensions><speed>1.059912</speed><course>350.535736</course><hAcc>1.792243</hAcc><vAcc>0.798282</vAcc></extensions></trkpt>
      <trkpt lon="-2.216663" lat="53.120961"><ele>248.727234</ele><time>2022-03-04T12:51:00Z</time><extensions><speed>1.083963</speed><course>352.313965</course><hAcc>1.777121</hAcc><vAcc>0.798939</vAcc></extensions></trkpt>
      <trkpt lon="-2.216665" lat="53.120971"><ele>248.610764</ele><time>2022-03-04T12:51:01Z</time><extensions><speed>1.145434</speed><course>354.089966</course><hAcc>1.773901</hAcc><vAcc>0.799463</vAcc></extensions></trkpt>
      <trkpt lon="-2.216666" lat="53.120981"><ele>248.504120</ele><time>2022-03-04T12:51:02Z</time><extensions><speed>1.103431</speed><course>357.360962</course><hAcc>1.779175</hAcc><vAcc>0.799850</vAcc></extensions></trkpt>
      <trkpt lon="-2.216666" lat="53.120991"><ele>248.380966</ele><time>2022-03-04T12:51:03Z</time><extensions><speed>1.019243</speed><course>0.925896</course><hAcc>1.771932</hAcc><vAcc>0.800071</vAcc></extensions></trkpt>
      <trkpt lon="-2.216666" lat="53.120999"><ele>248.262466</ele><time>2022-03-04T12:51:04Z</time><extensions><speed>0.910057</speed><course>2.587624</course><hAcc>1.746883</hAcc><vAcc>0.800159</vAcc></extensions></trkpt>
      <trkpt lon="-2.216665" lat="53.121007"><ele>248.149673</ele><time>2022-03-04T12:51:05Z</time><extensions><speed>0.791701</speed><course>2.628543</course><hAcc>1.749961</hAcc><vAcc>0.800124</vAcc></extensions></trkpt>
      <trkpt lon="-2.216665" lat="53.121013"><ele>248.031448</ele><time>2022-03-04T12:51:06Z</time><extensions><speed>0.597696</speed><course>359.640320</course><hAcc>1.778408</hAcc><vAcc>0.799889</vAcc></extensions></trkpt>
      <trkpt lon="-2.216666" lat="53.121019"><ele>247.893784</ele><time>2022-03-04T12:51:07Z</time><extensions><speed>0.675920</speed><course>349.243164</course><hAcc>1.774499</hAcc><vAcc>0.799617</vAcc></extensions></trkpt>
      <trkpt lon="-2.216669" lat="53.121025"><ele>247.753677</ele><time>2022-03-04T12:51:08Z</time><extensions><speed>0.835900</speed><course>339.936798</course><hAcc>1.767669</hAcc><vAcc>0.799363</vAcc></extensions></trkpt>
      <trkpt lon="-2.216675" lat="53.121034"><ele>247.586105</ele><time>2022-03-04T12:51:09Z</time><extensions><speed>1.130252</speed><course>333.914673</course><hAcc>1.762127</hAcc><vAcc>0.799003</vAcc></extensions></trkpt>
      <trkpt lon="-2.216683" lat="53.121043"><ele>247.414459</ele><time>2022-03-04T12:51:10Z</time><extensions><speed>1.201200</speed><course>329.797363</course><hAcc>1.780619</hAcc><vAcc>0.798772</vAcc></extensions></trkpt>
      <trkpt lon="-2.216693" lat="53.121052"><ele>247.242828</ele><time>2022-03-04T12:51:11Z</time><extensions><speed>1.217426</speed><course>329.218140</course><hAcc>1.783704</hAcc><vAcc>0.798490</vAcc></extensions></trkpt>
      <trkpt lon="-2.216702" lat="53.121062"><ele>247.084106</ele><time>2022-03-04T12:51:12Z</time><extensions><speed>1.217046</speed><course>327.484772</course><hAcc>1.782169</hAcc><vAcc>0.798148</vAcc></extensions></trkpt>
      <trkpt lon="-2.216713" lat="53.121070"><ele>246.928345</ele><time>2022-03-04T12:51:13Z</time><extensions><speed>1.175761</speed><course>322.466736</course><hAcc>1.778573</hAcc><vAcc>0.797776</vAcc></extensions></trkpt>
      <trkpt lon="-2.216724" lat="53.121078"><ele>246.778015</ele><time>2022-03-04T12:51:14Z</time><extensions><speed>1.177091</speed><course>313.272980</course><hAcc>1.771853</hAcc><vAcc>0.797304</vAcc></extensions></trkpt>
      <trkpt lon="-2.216739" lat="53.121085"><ele>246.635742</ele><time>2022-03-04T12:51:15Z</time><extensions><speed>1.250242</speed><course>305.502777</course><hAcc>1.770118</hAcc><vAcc>0.796771</vAcc></extensions></trkpt>
      <trkpt lon="-2.216754" lat="53.121091"><ele>246.491913</ele><time>2022-03-04T12:51:16Z</time><extensions><speed>1.245952</speed><course>299.789307</course><hAcc>1.770123</hAcc><vAcc>0.795942</vAcc></extensions></trkpt>
      <trkpt lon="-2.216770" lat="53.121096"><ele>246.374786</ele><time>2022-03-04T12:51:17Z</time><extensions><speed>1.160567</speed><course>297.601044</course><hAcc>1.772107</hAcc><vAcc>0.794839</vAcc></extensions></trkpt>
      <trkpt lon="-2.216784" lat="53.121101"><ele>246.269211</ele><time>2022-03-04T12:51:18Z</time><extensions><speed>1.026375</speed><course>300.978790</course><hAcc>1.774684</hAcc><vAcc>0.793494</vAcc></extensions></trkpt>
      <trkpt lon="-2.216797" lat="53.121105"><ele>246.139709</ele><time>2022-03-04T12:51:19Z</time><extensions><speed>0.877936</speed><course>299.174255</course><hAcc>1.778559</hAcc><vAcc>0.792168</vAcc></extensions></trkpt>
      <trkpt lon="-2.216808" lat="53.121108"><ele>246.036209</ele><time>2022-03-04T12:51:20Z</time><extensions><speed>0.777842</speed><course>289.946991</course><hAcc>1.789644</hAcc><vAcc>0.790852</vAcc></extensions></trkpt>
      <trkpt lon="-2.216819" lat="53.121110"><ele>245.937042</ele><time>2022-03-04T12:51:21Z</time><extensions><speed>0.797722</speed><course>270.513184</course><hAcc>1.770853</hAcc><vAcc>0.789354</vAcc></extensions></trkpt>
      <trkpt lon="-2.216832" lat="53.121109"><ele>245.847183</ele><time>2022-03-04T12:51:22Z</time><extensions><speed>0.872125</speed><course>256.045959</course><hAcc>1.771213</hAcc><vAcc>0.787746</vAcc></extensions></trkpt>
      <trkpt lon="-2.216844" lat="53.121107"><ele>245.755768</ele><time>2022-03-04T12:51:23Z</time><extensions><speed>0.847359</speed><course>249.198120</course><hAcc>1.796540</hAcc><vAcc>0.786079</vAcc></extensions></trkpt>
      <trkpt lon="-2.216855" lat="53.121104"><ele>245.666489</ele><time>2022-03-04T12:51:23Z</time><extensions><speed>0.695317</speed><course>255.345688</course><hAcc>1.814462</hAcc><vAcc>0.784281</vAcc></extensions></trkpt>
      <trkpt lon="-2.216863" lat="53.121104"><ele>245.542572</ele><time>2022-03-04T12:51:24Z</time><extensions><speed>0.487229</speed><course>287.661865</course><hAcc>1.834129</hAcc><vAcc>0.782576</vAcc></extensions></trkpt>
      <trkpt lon="-2.216870" lat="53.121107"><ele>245.458344</ele><time>2022-03-04T12:51:25Z</time><extensions><speed>0.668519</speed><course>316.110870</course><hAcc>1.836578</hAcc><vAcc>0.781018</vAcc></extensions></trkpt>
      <trkpt lon="-2.216878" lat="53.121113"><ele>245.349747</ele><time>2022-03-04T12:51:26Z</time><extensions><speed>1.006119</speed><course>322.547577</course><hAcc>1.834916</hAcc><vAcc>0.779741</vAcc></extensions></trkpt>
      <trkpt lon="-2.216888" lat="53.121121"><ele>245.230637</ele><time>2022-03-04T12:51:27Z</time><extensions><speed>1.268256</speed><course>324.508972</course><hAcc>1.850147</hAcc><vAcc>0.778852</vAcc></extensions></trkpt>
      <trkpt lon="-2.216901" lat="53.121131"><ele>245.090530</ele><time>2022-03-04T12:51:28Z</time><extensions><speed>1.383315</speed><course>320.763367</course><hAcc>1.866328</hAcc><vAcc>0.778497</vAcc></extensions></trkpt>
      <trkpt lon="-2.216914" lat="53.121140"><ele>244.963593</ele><time>2022-03-04T12:51:29Z</time><extensions><speed>1.396486</speed><course>315.644226</course><hAcc>1.861173</hAcc><vAcc>0.778523</vAcc></extensions></trkpt>
      <trkpt lon="-2.216930" lat="53.121148"><ele>244.828278</ele><time>2022-03-04T12:51:30Z</time><extensions><speed>1.443776</speed><course>307.587891</course><hAcc>1.848276</hAcc><vAcc>0.778893</vAcc></extensions></trkpt>
      <trkpt lon="-2.216949" lat="53.121156"><ele>244.673843</ele><time>2022-03-04T12:51:31Z</time><extensions><speed>1.529275</speed><course>300.652588</course><hAcc>1.836999</hAcc><vAcc>0.779536</vAcc></extensions></trkpt>
      <trkpt lon="-2.216969" lat="53.121162"><ele>244.517731</ele><time>2022-03-04T12:51:32Z</time><extensions><speed>1.488189</speed><course>293.442505</course><hAcc>1.836679</hAcc><vAcc>0.780327</vAcc></extensions></trkpt>
      <trkpt lon="-2.216990" lat="53.121167"><ele>244.345322</ele><time>2022-03-04T12:51:33Z</time><extensions><speed>1.499244</speed><course>287.707367</course><hAcc>1.828599</hAcc><vAcc>0.781202</vAcc></extensions></trkpt>
      <trkpt lon="-2.217011" lat="53.121170"><ele>244.159210</ele><time>2022-03-04T12:51:34Z</time><extensions><speed>1.423583</speed><course>284.040283</course><hAcc>1.826300</hAcc><vAcc>0.782394</vAcc></extensions></trkpt>
      <trkpt lon="-2.217030" lat="53.121173"><ele>243.976257</ele><time>2022-03-04T12:51:35Z</time><extensions><speed>1.298449</speed><course>283.551666</course><hAcc>1.817012</hAcc><vAcc>0.783705</vAcc></extensions></trkpt>
      <trkpt lon="-2.217048" lat="53.121176"><ele>243.800613</ele><time>2022-03-04T12:51:36Z</time><extensions><speed>1.086184</speed><course>288.022888</course><hAcc>1.805921</hAcc><vAcc>0.784995</vAcc></extensions></trkpt>
      <trkpt lon="-2.217061" lat="53.121180"><ele>243.626572</ele><time>2022-03-04T12:51:37Z</time><extensions><speed>0.879288</speed><course>296.513885</course><hAcc>1.807996</hAcc><vAcc>0.786394</vAcc></extensions></trkpt>
      <trkpt lon="-2.217072" lat="53.121183"><ele>243.444763</ele><time>2022-03-04T12:51:38Z</time><extensions><speed>0.740967</speed><course>302.497223</course><hAcc>1.812791</hAcc><vAcc>0.787766</vAcc></extensions></trkpt>
      <trkpt lon="-2.217081" lat="53.121187"><ele>243.244965</ele><time>2022-03-04T12:51:39Z</time><extensions><speed>0.823879</speed><course>305.383789</course><hAcc>1.804561</hAcc><vAcc>0.788991</vAcc></extensions></trkpt>
      <trkpt lon="-2.217093" lat="53.121192"><ele>243.064270</ele><time>2022-03-04T12:51:40Z</time><extensions><speed>1.075396</speed><course>307.280823</course><hAcc>1.792127</hAcc><vAcc>0.790042</vAcc></extensions></trkpt>
      <trkpt lon="-2.217106" lat="53.121199"><ele>242.866608</ele><time>2022-03-04T12:51:41Z</time><extensions><speed>1.200143</speed><course>310.461365</course><hAcc>1.797653</hAcc><vAcc>0.790803</vAcc></extensions></trkpt>
      <trkpt lon="-2.217119" lat="53.121206"><ele>242.679916</ele><time>2022-03-04T12:51:42Z</time><extensions><speed>1.212922</speed><course>315.912872</course><hAcc>1.801417</hAcc><vAcc>0.791369</vAcc></extensions></trkpt>
      <trkpt lon="-2.217131" lat="53.121213"><ele>242.499374</ele><time>2022-03-04T12:51:43Z</time><extensions><speed>1.044395</speed><course>320.598206</course><hAcc>1.796841</hAcc><vAcc>0.791933</vAcc></extensions></trkpt>
      <trkpt lon="-2.217140" lat="53.121220"><ele>242.321594</ele><time>2022-03-04T12:51:44Z</time><extensions><speed>0.852876</speed><course>316.738922</course><hAcc>1.782552</hAcc><vAcc>0.792251</vAcc></extensions></trkpt>
      <trkpt lon="-2.217150" lat="53.121225"><ele>242.151154</ele><time>2022-03-04T12:51:45Z</time><extensions><speed>0.808318</speed><course>302.025543</course><hAcc>1.763019</hAcc><vAcc>0.792356</vAcc></extensions></trkpt>
      <trkpt lon="-2.217161" lat="53.121228"><ele>241.994339</ele><time>2022-03-04T12:51:46Z</time><extensions><speed>0.832467</speed><course>285.345459</course><hAcc>1.757369</hAcc><vAcc>0.792023</vAcc></extensions></trkpt>
      <trkpt lon="-2.217173" lat="53.121228"><ele>241.849564</ele><time>2022-03-04T12:51:47Z</time><extensions><speed>0.818449</speed><course>268.465912</course><hAcc>1.762688</hAcc><vAcc>0.791176</vAcc></extensions></trkpt>
      <trkpt lon="-2.217184" lat="53.121228"><ele>241.715927</ele><time>2022-03-04T12:51:48Z</time><extensions><speed>0.723954</speed><course>260.149536</course><hAcc>1.767510</hAcc><vAcc>0.789673</vAcc></extensions></trkpt>
      <trkpt lon="-2.217194" lat="53.121226"><ele>241.590591</ele><time>2022-03-04T12:51:49Z</time><extensions><speed>0.628816</speed><course>256.506683</course><hAcc>1.765085</hAcc><vAcc>0.787896</vAcc></extensions></trkpt>
      <trkpt lon="-2.217202" lat="53.121225"><ele>241.470337</ele><time>2022-03-04T12:51:50Z</time><extensions><speed>0.464547</speed><course>260.047089</course><hAcc>1.768430</hAcc><vAcc>0.785972</vAcc></extensions></trkpt>
      <trkpt lon="-2.217210" lat="53.121225"><ele>241.361359</ele><time>2022-03-04T12:51:51Z</time><extensions><speed>0.515208</speed><course>262.865692</course><hAcc>1.760891</hAcc><vAcc>0.784147</vAcc></extensions></trkpt>
      <trkpt lon="-2.217217" lat="53.121224"><ele>241.261459</ele><time>2022-03-04T12:51:52Z</time><extensions><speed>0.441876</speed><course>258.197723</course><hAcc>1.776245</hAcc><vAcc>0.782311</vAcc></extensions></trkpt>
      <trkpt lon="-2.217222" lat="53.121223"><ele>241.180832</ele><time>2022-03-04T12:51:53Z</time><extensions><speed>0.290564</speed><course>259.037781</course><hAcc>1.801683</hAcc><vAcc>0.780560</vAcc></extensions></trkpt>
      <trkpt lon="-2.217226" lat="53.121223"><ele>241.122223</ele><time>2022-03-04T12:51:54Z</time><extensions><speed>0.213194</speed><course>251.380554</course><hAcc>1.826683</hAcc><vAcc>0.778973</vAcc></extensions></trkpt>
      <trkpt lon="-2.217228" lat="53.121222"><ele>241.069397</ele><time>2022-03-04T12:51:55Z</time><extensions><speed>0.226198</speed><course>232.062485</course><hAcc>1.838530</hAcc><vAcc>0.777700</vAcc></extensions></trkpt>
      <trkpt lon="-2.217231" lat="53.121220"><ele>241.015671</ele><time>2022-03-04T12:51:56Z</time><extensions><speed>0.319155</speed><course>219.714752</course><hAcc>1.836258</hAcc><vAcc>0.776937</vAcc></extensions></trkpt>
      <trkpt lon="-2.217235" lat="53.121218"><ele>240.981750</ele><time>2022-03-04T12:51:57Z</time><extensions><speed>0.281332</speed><course>228.579590</course><hAcc>1.849476</hAcc><vAcc>0.776919</vAcc></extensions></trkpt>
      <trkpt lon="-2.217238" lat="53.121217"><ele>240.959488</ele><time>2022-03-04T12:51:58Z</time><extensions><speed>0.239116</speed><course>264.423157</course><hAcc>1.865562</hAcc><vAcc>0.777833</vAcc></extensions></trkpt>
      <trkpt lon="-2.217242" lat="53.121218"><ele>240.921051</ele><time>2022-03-04T12:51:59Z</time><extensions><speed>0.339943</speed><course>281.900391</course><hAcc>1.864624</hAcc><vAcc>0.779770</vAcc></extensions></trkpt>
      <trkpt lon="-2.217248" lat="53.121219"><ele>240.902283</ele><time>2022-03-04T12:52:00Z</time><extensions><speed>0.502652</speed><course>285.226990</course><hAcc>1.859284</hAcc><vAcc>0.782666</vAcc></extensions></trkpt>
      <trkpt lon="-2.217257" lat="53.121220"><ele>240.887985</ele><time>2022-03-04T12:52:01Z</time><extensions><speed>0.718181</speed><course>284.024323</course><hAcc>1.850078</hAcc><vAcc>0.786324</vAcc></extensions></trkpt>
      <trkpt lon="-2.217270" lat="53.121222"><ele>240.866364</ele><time>2022-03-04T12:52:02Z</time><extensions><speed>1.013579</speed><course>281.027985</course><hAcc>1.829031</hAcc><vAcc>0.790459</vAcc></extensions></trkpt>
      <trkpt lon="-2.217288" lat="53.121223"><ele>240.851395</ele><time>2022-03-04T12:52:03Z</time><extensions><speed>1.448605</speed><course>278.448608</course><hAcc>1.798621</hAcc><vAcc>0.794780</vAcc></extensions></trkpt>
      <trkpt lon="-2.217311" lat="53.121226"><ele>240.821533</ele><time>2022-03-04T12:52:04Z</time><extensions><speed>1.609079</speed><course>279.699554</course><hAcc>1.788571</hAcc><vAcc>0.799069</vAcc></extensions></trkpt>
      <trkpt lon="-2.217333" lat="53.121228"><ele>240.795609</ele><time>2022-03-04T12:52:05Z</time><extensions><speed>1.461717</speed><course>280.840637</course><hAcc>1.786584</hAcc><vAcc>0.803146</vAcc></extensions></trkpt>
      <trkpt lon="-2.217353" lat="53.121230"><ele>240.763229</ele><time>2022-03-04T12:52:06Z</time><extensions><speed>1.197525</speed><course>280.795715</course><hAcc>1.779587</hAcc><vAcc>0.806874</vAcc></extensions></trkpt>
      <trkpt lon="-2.217369" lat="53.121233"><ele>240.704056</ele><time>2022-03-04T12:52:07Z</time><extensions><speed>1.099155</speed><course>284.279480</course><hAcc>1.766325</hAcc><vAcc>0.810196</vAcc></extensions></trkpt>
      <trkpt lon="-2.217385" lat="53.121235"><ele>240.635773</ele><time>2022-03-04T12:52:08Z</time><extensions><speed>1.024837</speed><course>288.434296</course><hAcc>1.761816</hAcc><vAcc>0.813089</vAcc></extensions></trkpt>
      <trkpt lon="-2.217399" lat="53.121238"><ele>240.575089</ele><time>2022-03-04T12:52:09Z</time><extensions><speed>0.944953</speed><course>289.019836</course><hAcc>1.761081</hAcc><vAcc>0.815562</vAcc></extensions></trkpt>
      <trkpt lon="-2.217413" lat="53.121241"><ele>240.522324</ele><time>2022-03-04T12:52:10Z</time><extensions><speed>1.030692</speed><course>284.091003</course><hAcc>1.750998</hAcc><vAcc>0.817640</vAcc></extensions></trkpt>
      <trkpt lon="-2.217428" lat="53.121243"><ele>240.463394</ele><time>2022-03-04T12:52:11Z</time><extensions><speed>1.027890</speed><course>281.785126</course><hAcc>1.743052</hAcc><vAcc>0.819363</vAcc></extensions></trkpt>
      <trkpt lon="-2.217442" lat="53.121244"><ele>240.411606</ele><time>2022-03-04T12:52:12Z</time><extensions><speed>0.953867</speed><course>280.902008</course><hAcc>1.740054</hAcc><vAcc>0.820780</vAcc></extensions></trkpt>
      <trkpt lon="-2.217456" lat="53.121246"><ele>240.360458</ele><time>2022-03-04T12:52:13Z</time><extensions><speed>0.901898</speed><course>285.215088</course><hAcc>1.735225</hAcc><vAcc>0.821936</vAcc></extensions></trkpt>
      <trkpt lon="-2.217468" lat="53.121249"><ele>240.295502</ele><time>2022-03-04T12:52:14Z</time><extensions><speed>0.871571</speed><course>291.877045</course><hAcc>1.732155</hAcc><vAcc>0.822872</vAcc></extensions></trkpt>
      <trkpt lon="-2.217481" lat="53.121253"><ele>240.226425</ele><time>2022-03-04T12:52:15Z</time><extensions><speed>1.007403</speed><course>299.799347</course><hAcc>1.729831</hAcc><vAcc>0.823633</vAcc></extensions></trkpt>
      <trkpt lon="-2.217494" lat="53.121257"><ele>240.128693</ele><time>2022-03-04T12:52:16Z</time><extensions><speed>1.080052</speed><course>302.473389</course><hAcc>1.729295</hAcc><vAcc>0.824260</vAcc></extensions></trkpt>
      <trkpt lon="-2.217507" lat="53.121262"><ele>240.050644</ele><time>2022-03-04T12:52:17Z</time><extensions><speed>0.989662</speed><course>297.075836</course><hAcc>1.722165</hAcc><vAcc>0.824783</vAcc></extensions></trkpt>
      <trkpt lon="-2.217521" lat="53.121266"><ele>239.935272</ele><time>2022-03-04T12:52:18Z</time><extensions><speed>0.944326</speed><course>290.281158</course><hAcc>1.714786</hAcc><vAcc>0.825226</vAcc></extensions></trkpt>
      <trkpt lon="-2.217534" lat="53.121268"><ele>239.808929</ele><time>2022-03-04T12:52:19Z</time><extensions><speed>0.993342</speed><course>287.364746</course><hAcc>1.706933</hAcc><vAcc>0.825593</vAcc></extensions></trkpt>
      <trkpt lon="-2.217548" lat="53.121271"><ele>239.691177</ele><time>2022-03-04T12:52:20Z</time><extensions><speed>1.000362</speed><course>287.957642</course><hAcc>1.701810</hAcc><vAcc>0.825954</vAcc></extensions></trkpt>
      <trkpt lon="-2.217563" lat="53.121274"><ele>239.559937</ele><time>2022-03-04T12:52:21Z</time><extensions><speed>1.104192</speed><course>285.165039</course><hAcc>1.690186</hAcc><vAcc>0.826262</vAcc></extensions></trkpt>
      <trkpt lon="-2.217579" lat="53.121277"><ele>239.434814</ele><time>2022-03-04T12:52:22Z</time><extensions><speed>1.049556</speed><course>291.393982</course><hAcc>1.666653</hAcc><vAcc>0.826503</vAcc></extensions></trkpt>
      <trkpt lon="-2.217593" lat="53.121281"><ele>239.288498</ele><time>2022-03-04T12:52:23Z</time><extensions><speed>1.036667</speed><course>300.858002</course><hAcc>1.654807</hAcc><vAcc>0.826693</vAcc></extensions></trkpt>
      <trkpt lon="-2.217605" lat="53.121286"><ele>239.150497</ele><time>2022-03-04T12:52:24Z</time><extensions><speed>1.051925</speed><course>311.661652</course><hAcc>1.650404</hAcc><vAcc>0.826778</vAcc></extensions></trkpt>
      <trkpt lon="-2.217616" lat="53.121293"><ele>238.978073</ele><time>2022-03-04T12:52:25Z</time><extensions><speed>1.124048</speed><course>320.917175</course><hAcc>1.618622</hAcc><vAcc>0.826764</vAcc></extensions></trkpt>
      <trkpt lon="-2.217626" lat="53.121302"><ele>238.809952</ele><time>2022-03-04T12:52:26Z</time><extensions><speed>1.183551</speed><course>326.421265</course><hAcc>1.609987</hAcc><vAcc>0.826656</vAcc></extensions></trkpt>
      <trkpt lon="-2.217636" lat="53.121311"><ele>238.623901</ele><time>2022-03-04T12:52:27Z</time><extensions><speed>1.153015</speed><course>328.790375</course><hAcc>1.634726</hAcc><vAcc>0.826478</vAcc></extensions></trkpt>
      <trkpt lon="-2.217644" lat="53.121319"><ele>238.439606</ele><time>2022-03-04T12:52:28Z</time><extensions><speed>1.002924</speed><course>327.878693</course><hAcc>1.638738</hAcc><vAcc>0.826221</vAcc></extensions></trkpt>
      <trkpt lon="-2.217651" lat="53.121325"><ele>238.249939</ele><time>2022-03-04T12:52:29Z</time><extensions><speed>0.674950</speed><course>323.455231</course><hAcc>1.619718</hAcc><vAcc>0.825903</vAcc></extensions></trkpt>
      <trkpt lon="-2.217655" lat="53.121328"><ele>238.046967</ele><time>2022-03-04T12:52:30Z</time><extensions><speed>0.236677</speed><course>316.300354</course><hAcc>1.635728</hAcc><vAcc>0.825482</vAcc></extensions></trkpt>
      <trkpt lon="-2.217658" lat="53.121330"><ele>237.822510</ele><time>2022-03-04T12:52:31Z</time><extensions><speed>0.237408</speed><course>306.002625</course><hAcc>1.629395</hAcc><vAcc>0.824958</vAcc></extensions></trkpt>
      <trkpt lon="-2.217662" lat="53.121332"><ele>237.594269</ele><time>2022-03-04T12:52:32Z</time><extensions><speed>0.433544</speed><course>306.727631</course><hAcc>1.641484</hAcc><vAcc>0.824426</vAcc></extensions></trkpt>
      <trkpt lon="-2.217667" lat="53.121334"><ele>237.348892</ele><time>2022-03-04T12:52:33Z</time><extensions><speed>0.493326</speed><course>315.681061</course><hAcc>1.660887</hAcc><vAcc>0.823848</vAcc></extensions></trkpt>
      <trkpt lon="-2.217672" lat="53.121338"><ele>237.108032</ele><time>2022-03-04T12:52:34Z</time><extensions><speed>0.606905</speed><course>325.561188</course><hAcc>1.661079</hAcc><vAcc>0.823202</vAcc></extensions></trkpt>
      <trkpt lon="-2.217678" lat="53.121344"><ele>236.877167</ele><time>2022-03-04T12:52:35Z</time><extensions><speed>0.719720</speed><course>332.091583</course><hAcc>1.651486</hAcc><vAcc>0.822635</vAcc></extensions></trkpt>
      <trkpt lon="-2.217683" lat="53.121350"><ele>236.646439</ele><time>2022-03-04T12:52:36Z</time><extensions><speed>0.850260</speed><course>332.291748</course><hAcc>1.658305</hAcc><vAcc>0.822129</vAcc></extensions></trkpt>
      <trkpt lon="-2.217690" lat="53.121357"><ele>236.420609</ele><time>2022-03-04T12:52:38Z</time><extensions><speed>0.944735</speed><course>328.569550</course><hAcc>1.694882</hAcc><vAcc>0.821724</vAcc></extensions></trkpt>
      <trkpt lon="-2.217697" lat="53.121364"><ele>236.197311</ele><time>2022-03-04T12:52:39Z</time><extensions><speed>0.796350</speed><course>325.376587</course><hAcc>1.692477</hAcc><vAcc>0.821415</vAcc></extensions></trkpt>
      <trkpt lon="-2.217704" lat="53.121369"><ele>235.966599</ele><time>2022-03-04T12:52:40Z</time><extensions><speed>0.786251</speed><course>324.447723</course><hAcc>1.651780</hAcc><vAcc>0.821236</vAcc></extensions></trkpt>
      <trkpt lon="-2.217711" lat="53.121375"><ele>235.719543</ele><time>2022-03-04T12:52:41Z</time><extensions><speed>0.837099</speed><course>325.797729</course><hAcc>1.646009</hAcc><vAcc>0.821169</vAcc></extensions></trkpt>
      <trkpt lon="-2.217719" lat="53.121382"><ele>235.484650</ele><time>2022-03-04T12:52:42Z</time><extensions><speed>1.038350</speed><course>324.109802</course><hAcc>1.655850</hAcc><vAcc>0.821216</vAcc></extensions></trkpt>
      <trkpt lon="-2.217729" lat="53.121390"><ele>235.255035</ele><time>2022-03-04T12:52:43Z</time><extensions><speed>1.133337</speed><course>321.533966</course><hAcc>1.672272</hAcc><vAcc>0.821383</vAcc></extensions></trkpt>
      <trkpt lon="-2.217740" lat="53.121399"><ele>235.046661</ele><time>2022-03-04T12:52:44Z</time><extensions><speed>1.313516</speed><course>321.024811</course><hAcc>1.661056</hAcc><vAcc>0.821635</vAcc></extensions></trkpt>
      <trkpt lon="-2.217753" lat="53.121408"><ele>234.833176</ele><time>2022-03-04T12:52:45Z</time><extensions><speed>1.404647</speed><course>320.057709</course><hAcc>1.630750</hAcc><vAcc>0.821970</vAcc></extensions></trkpt>
      <trkpt lon="-2.217767" lat="53.121418"><ele>234.627686</ele><time>2022-03-04T12:52:46Z</time><extensions><speed>1.384695</speed><course>319.984467</course><hAcc>1.615806</hAcc><vAcc>0.822350</vAcc></extensions></trkpt>
      <trkpt lon="-2.217780" lat="53.121427"><ele>234.422501</ele><time>2022-03-04T12:52:47Z</time><extensions><speed>1.421777</speed><course>318.694153</course><hAcc>1.591186</hAcc><vAcc>0.822792</vAcc></extensions></trkpt>
      <trkpt lon="-2.217794" lat="53.121437"><ele>234.218994</ele><time>2022-03-04T12:52:48Z</time><extensions><speed>1.328738</speed><course>317.631134</course><hAcc>1.609135</hAcc><vAcc>0.823255</vAcc></extensions></trkpt>
      <trkpt lon="-2.217807" lat="53.121445"><ele>234.010330</ele><time>2022-03-04T12:52:49Z</time><extensions><speed>1.222004</speed><course>315.677826</course><hAcc>1.604745</hAcc><vAcc>0.823711</vAcc></extensions></trkpt>
      <trkpt lon="-2.217819" lat="53.121453"><ele>233.792542</ele><time>2022-03-04T12:52:50Z</time><extensions><speed>1.115724</speed><course>317.325348</course><hAcc>1.600116</hAcc><vAcc>0.824121</vAcc></extensions></trkpt>
      <trkpt lon="-2.217830" lat="53.121460"><ele>233.555984</ele><time>2022-03-04T12:52:51Z</time><extensions><speed>1.044159</speed><course>320.856781</course><hAcc>1.573440</hAcc><vAcc>0.824467</vAcc></extensions></trkpt>
      <trkpt lon="-2.217839" lat="53.121468"><ele>233.327774</ele><time>2022-03-04T12:52:52Z</time><extensions><speed>1.073880</speed><course>326.851013</course><hAcc>1.586428</hAcc><vAcc>0.824765</vAcc></extensions></trkpt>
      <trkpt lon="-2.217847" lat="53.121476"><ele>233.098816</ele><time>2022-03-04T12:52:53Z</time><extensions><speed>1.025663</speed><course>336.743408</course><hAcc>1.598654</hAcc><vAcc>0.825002</vAcc></extensions></trkpt>
      <trkpt lon="-2.217853" lat="53.121485"><ele>232.866119</ele><time>2022-03-04T12:52:54Z</time><extensions><speed>1.144192</speed><course>339.256012</course><hAcc>1.602207</hAcc><vAcc>0.825181</vAcc></extensions></trkpt>
      <trkpt lon="-2.217860" lat="53.121495"><ele>232.631638</ele><time>2022-03-04T12:52:55Z</time><extensions><speed>1.199708</speed><course>337.336609</course><hAcc>1.601471</hAcc><vAcc>0.825333</vAcc></extensions></trkpt>
      <trkpt lon="-2.217867" lat="53.121505"><ele>232.393478</ele><time>2022-03-04T12:52:56Z</time><extensions><speed>1.248124</speed><course>335.408264</course><hAcc>1.589433</hAcc><vAcc>0.825456</vAcc></extensions></trkpt>
      <trkpt lon="-2.217875" lat="53.121515"><ele>232.144119</ele><time>2022-03-04T12:52:57Z</time><extensions><speed>1.218998</speed><course>334.360138</course><hAcc>1.594383</hAcc><vAcc>0.825546</vAcc></extensions></trkpt>
      <trkpt lon="-2.217883" lat="53.121524"><ele>231.890671</ele><time>2022-03-04T12:52:58Z</time><extensions><speed>1.118149</speed><course>332.017029</course><hAcc>1.624867</hAcc><vAcc>0.825623</vAcc></extensions></trkpt>
      <trkpt lon="-2.217891" lat="53.121533"><ele>231.626923</ele><time>2022-03-04T12:52:59Z</time><extensions><speed>1.092603</speed><course>329.586182</course><hAcc>1.632570</hAcc><vAcc>0.825685</vAcc></extensions></trkpt>
      <trkpt lon="-2.217900" lat="53.121541"><ele>231.358765</ele><time>2022-03-04T12:53:00Z</time><extensions><speed>1.136521</speed><course>325.582794</course><hAcc>1.614130</hAcc><vAcc>0.825755</vAcc></extensions></trkpt>
      <trkpt lon="-2.217910" lat="53.121550"><ele>231.111328</ele><time>2022-03-04T12:53:01Z</time><extensions><speed>1.225611</speed><course>321.585114</course><hAcc>1.596756</hAcc><vAcc>0.825834</vAcc></extensions></trkpt>
      <trkpt lon="-2.217922" lat="53.121559"><ele>230.867340</ele><time>2022-03-04T12:53:02Z</time><extensions><speed>1.286638</speed><course>317.738373</course><hAcc>1.599463</hAcc><vAcc>0.825935</vAcc></extensions></trkpt>
      <trkpt lon="-2.217936" lat="53.121567"><ele>230.612488</ele><time>2022-03-04T12:53:03Z</time><extensions><speed>1.276843</speed><course>312.686829</course><hAcc>1.603384</hAcc><vAcc>0.826053</vAcc></extensions></trkpt>
      <trkpt lon="-2.217950" lat="53.121574"><ele>230.351990</ele><time>2022-03-04T12:53:04Z</time><extensions><speed>1.243106</speed><course>307.641083</course><hAcc>1.585112</hAcc><vAcc>0.826174</vAcc></extensions></trkpt>
      <trkpt lon="-2.217965" lat="53.121580"><ele>230.087097</ele><time>2022-03-04T12:53:05Z</time><extensions><speed>1.170826</speed><course>303.427887</course><hAcc>1.553239</hAcc><vAcc>0.826302</vAcc></extensions></trkpt>
      <trkpt lon="-2.217979" lat="53.121586"><ele>229.840469</ele><time>2022-03-04T12:53:06Z</time><extensions><speed>1.206716</speed><course>305.265533</course><hAcc>1.518503</hAcc><vAcc>0.826446</vAcc></extensions></trkpt>
      <trkpt lon="-2.217994" lat="53.121594"><ele>229.608978</ele><time>2022-03-04T12:53:07Z</time><extensions><speed>1.379921</speed><course>310.329376</course><hAcc>1.453364</hAcc><vAcc>0.826596</vAcc></extensions></trkpt>
      <trkpt lon="-2.218010" lat="53.121602"><ele>229.384888</ele><time>2022-03-04T12:53:08Z</time><extensions><speed>1.462453</speed><course>314.310883</course><hAcc>1.449946</hAcc><vAcc>0.826742</vAcc></extensions></trkpt>
      <trkpt lon="-2.218024" lat="53.121612"><ele>229.148178</ele><time>2022-03-04T12:53:09Z</time><extensions><speed>1.476866</speed><course>322.167175</course><hAcc>1.436082</hAcc><vAcc>0.826881</vAcc></extensions></trkpt>
      <trkpt lon="-2.218037" lat="53.121622"><ele>228.942429</ele><time>2022-03-04T12:53:10Z</time><extensions><speed>1.488571</speed><course>324.876434</course><hAcc>1.401740</hAcc><vAcc>0.827009</vAcc></extensions></trkpt>
      <trkpt lon="-2.218049" lat="53.121634"><ele>228.733658</ele><time>2022-03-04T12:53:11Z</time><extensions><speed>1.565993</speed><course>331.026917</course><hAcc>1.380003</hAcc><vAcc>0.827116</vAcc></extensions></trkpt>
      <trkpt lon="-2.218061" lat="53.121646"><ele>228.511169</ele><time>2022-03-04T12:53:12Z</time><extensions><speed>1.511269</speed><course>330.075867</course><hAcc>1.371791</hAcc><vAcc>0.827207</vAcc></extensions></trkpt>
      <trkpt lon="-2.218072" lat="53.121657"><ele>228.271866</ele><time>2022-03-04T12:53:13Z</time><extensions><speed>1.462172</speed><course>326.283875</course><hAcc>1.359959</hAcc><vAcc>0.827272</vAcc></extensions></trkpt>
      <trkpt lon="-2.218084" lat="53.121667"><ele>228.045502</ele><time>2022-03-04T12:53:14Z</time><extensions><speed>1.399079</speed><course>323.734375</course><hAcc>1.355403</hAcc><vAcc>0.827324</vAcc></extensions></trkpt>
      <trkpt lon="-2.218096" lat="53.121677"><ele>227.838577</ele><time>2022-03-04T12:53:15Z</time><extensions><speed>1.334303</speed><course>321.851440</course><hAcc>1.336853</hAcc><vAcc>0.827376</vAcc></extensions></trkpt>
      <trkpt lon="-2.218108" lat="53.121687"><ele>227.639771</ele><time>2022-03-04T12:53:16Z</time><extensions><speed>1.383495</speed><course>326.251068</course><hAcc>1.340724</hAcc><vAcc>0.827427</vAcc></extensions></trkpt>
      <trkpt lon="-2.218119" lat="53.121697"><ele>227.442291</ele><time>2022-03-04T12:53:17Z</time><extensions><speed>1.426302</speed><course>329.591766</course><hAcc>1.362147</hAcc><vAcc>0.827474</vAcc></extensions></trkpt>
      <trkpt lon="-2.218130" lat="53.121708"><ele>227.240280</ele><time>2022-03-04T12:53:18Z</time><extensions><speed>1.403292</speed><course>328.353729</course><hAcc>1.347593</hAcc><vAcc>0.827520</vAcc></extensions></trkpt>
      <trkpt lon="-2.218141" lat="53.121718"><ele>227.045929</ele><time>2022-03-04T12:53:19Z</time><extensions><speed>1.387331</speed><course>323.223907</course><hAcc>1.339067</hAcc><vAcc>0.827569</vAcc></extensions></trkpt>
      <trkpt lon="-2.218154" lat="53.121728"><ele>226.854111</ele><time>2022-03-04T12:53:20Z</time><extensions><speed>1.406748</speed><course>322.114960</course><hAcc>1.343653</hAcc><vAcc>0.827625</vAcc></extensions></trkpt>
      <trkpt lon="-2.218167" lat="53.121738"><ele>226.668320</ele><time>2022-03-04T12:53:21Z</time><extensions><speed>1.416742</speed><course>322.881683</course><hAcc>1.350616</hAcc><vAcc>0.827686</vAcc></extensions></trkpt>
      <trkpt lon="-2.218179" lat="53.121748"><ele>226.473862</ele><time>2022-03-04T12:53:22Z</time><extensions><speed>1.375057</speed><course>323.609070</course><hAcc>1.343615</hAcc><vAcc>0.827745</vAcc></extensions></trkpt>
      <trkpt lon="-2.218191" lat="53.121757"><ele>226.286407</ele><time>2022-03-04T12:53:23Z</time><extensions><speed>1.327395</speed><course>323.239014</course><hAcc>1.336606</hAcc><vAcc>0.827818</vAcc></extensions></trkpt>
      <trkpt lon="-2.218203" lat="53.121767"><ele>226.089966</ele><time>2022-03-04T12:53:24Z</time><extensions><speed>1.389906</speed><course>322.827148</course><hAcc>1.328539</hAcc><vAcc>0.827896</vAcc></extensions></trkpt>
      <trkpt lon="-2.218215" lat="53.121777"><ele>225.897659</ele><time>2022-03-04T12:53:25Z</time><extensions><speed>1.411270</speed><course>323.658234</course><hAcc>1.333542</hAcc><vAcc>0.827975</vAcc></extensions></trkpt>
      <trkpt lon="-2.218227" lat="53.121787"><ele>225.715302</ele><time>2022-03-04T12:53:26Z</time><extensions><speed>1.384620</speed><course>321.363373</course><hAcc>1.323439</hAcc><vAcc>0.828056</vAcc></extensions></trkpt>
      <trkpt lon="-2.218240" lat="53.121796"><ele>225.532944</ele><time>2022-03-04T12:53:27Z</time><extensions><speed>1.434699</speed><course>320.371216</course><hAcc>1.324527</hAcc><vAcc>0.828137</vAcc></extensions></trkpt>
      <trkpt lon="-2.218254" lat="53.121806"><ele>225.353989</ele><time>2022-03-04T12:53:28Z</time><extensions><speed>1.426093</speed><course>318.083008</course><hAcc>1.314650</hAcc><vAcc>0.828223</vAcc></extensions></trkpt>
      <trkpt lon="-2.218268" lat="53.121816"><ele>225.175369</ele><time>2022-03-04T12:53:28Z</time><extensions><speed>1.475650</speed><course>321.175812</course><hAcc>1.318101</hAcc><vAcc>0.828293</vAcc></extensions></trkpt>
      <trkpt lon="-2.218281" lat="53.121826"><ele>225.000519</ele><time>2022-03-04T12:53:29Z</time><extensions><speed>1.484481</speed><course>324.573578</course><hAcc>1.315757</hAcc><vAcc>0.828347</vAcc></extensions></trkpt>
      <trkpt lon="-2.218293" lat="53.121837"><ele>224.832443</ele><time>2022-03-04T12:53:30Z</time><extensions><speed>1.431941</speed><course>326.334412</course><hAcc>1.295000</hAcc><vAcc>0.828398</vAcc></extensions></trkpt>
      <trkpt lon="-2.218305" lat="53.121847"><ele>224.663162</ele><time>2022-03-04T12:53:31Z</time><extensions><speed>1.444654</speed><course>325.852570</course><hAcc>1.304656</hAcc><vAcc>0.828448</vAcc></extensions></trkpt>
      <trkpt lon="-2.218316" lat="53.121858"><ele>224.517853</ele><time>2022-03-04T12:53:32Z</time><extensions><speed>1.438578</speed><course>327.649048</course><hAcc>1.304784</hAcc><vAcc>0.828503</vAcc></extensions></trkpt>
      <trkpt lon="-2.218327" lat="53.121868"><ele>224.374313</ele><time>2022-03-04T12:53:33Z</time><extensions><speed>1.425765</speed><course>328.813354</course><hAcc>1.307241</hAcc><vAcc>0.828542</vAcc></extensions></trkpt>
      <trkpt lon="-2.218337" lat="53.121878"><ele>224.232697</ele><time>2022-03-04T12:53:34Z</time><extensions><speed>1.362319</speed><course>328.417786</course><hAcc>1.300276</hAcc><vAcc>0.828564</vAcc></extensions></trkpt>
      <trkpt lon="-2.218348" lat="53.121889"><ele>224.092468</ele><time>2022-03-04T12:53:35Z</time><extensions><speed>1.470499</speed><course>327.297150</course><hAcc>1.323653</hAcc><vAcc>0.828547</vAcc></extensions></trkpt>
      <trkpt lon="-2.218359" lat="53.121899"><ele>223.964188</ele><time>2022-03-04T12:53:36Z</time><extensions><speed>1.364242</speed><course>329.346313</course><hAcc>1.313678</hAcc><vAcc>0.828525</vAcc></extensions></trkpt>
      <trkpt lon="-2.218369" lat="53.121910"><ele>223.845932</ele><time>2022-03-04T12:53:37Z</time><extensions><speed>1.379500</speed><course>331.694092</course><hAcc>1.334947</hAcc><vAcc>0.828480</vAcc></extensions></trkpt>
      <trkpt lon="-2.218378" lat="53.121921"><ele>223.736877</ele><time>2022-03-04T12:53:38Z</time><extensions><speed>1.328447</speed><course>335.453186</course><hAcc>1.347647</hAcc><vAcc>0.828416</vAcc></extensions></trkpt>
      <trkpt lon="-2.218386" lat="53.121931"><ele>223.637161</ele><time>2022-03-04T12:53:39Z</time><extensions><speed>1.304018</speed><course>336.557404</course><hAcc>1.370579</hAcc><vAcc>0.828327</vAcc></extensions></trkpt>
      <trkpt lon="-2.218394" lat="53.121942"><ele>223.542633</ele><time>2022-03-04T12:53:40Z</time><extensions><speed>1.247477</speed><course>332.835510</course><hAcc>1.390978</hAcc><vAcc>0.828197</vAcc></extensions></trkpt>
      <trkpt lon="-2.218403" lat="53.121951"><ele>223.462250</ele><time>2022-03-04T12:53:41Z</time><extensions><speed>1.242986</speed><course>329.892975</course><hAcc>1.437047</hAcc><vAcc>0.828031</vAcc></extensions></trkpt>
      <trkpt lon="-2.218411" lat="53.121960"><ele>223.388107</ele><time>2022-03-04T12:53:42Z</time><extensions><speed>0.845184</speed><course>331.087921</course><hAcc>1.461567</hAcc><vAcc>0.827841</vAcc></extensions></trkpt>
      <trkpt lon="-2.218414" lat="53.121963"><ele>223.325150</ele><time>2022-03-04T12:53:43Z</time><extensions><speed>0.063774</speed><course>170.227142</course><hAcc>1.480731</hAcc><vAcc>0.827620</vAcc></extensions></trkpt>
      <trkpt lon="-2.218412" lat="53.121961"><ele>223.271286</ele><time>2022-03-04T12:53:44Z</time><extensions><speed>0.404906</speed><course>156.556320</course><hAcc>1.511480</hAcc><vAcc>0.827381</vAcc></extensions></trkpt>
      <trkpt lon="-2.218410" lat="53.121957"><ele>223.224792</ele><time>2022-03-04T12:53:45Z</time><extensions><speed>0.451467</speed><course>157.471283</course><hAcc>1.574826</hAcc><vAcc>0.827139</vAcc></extensions></trkpt>
      <trkpt lon="-2.218408" lat="53.121953"><ele>223.195374</ele><time>2022-03-04T12:53:46Z</time><extensions><speed>0.385923</speed><course>159.971359</course><hAcc>1.635020</hAcc><vAcc>0.826897</vAcc></extensions></trkpt>
      <trkpt lon="-2.218406" lat="53.121950"><ele>223.180374</ele><time>2022-03-04T12:53:47Z</time><extensions><speed>0.312768</speed><course>163.654221</course><hAcc>1.673627</hAcc><vAcc>0.826671</vAcc></extensions></trkpt>
      <trkpt lon="-2.218405" lat="53.121948"><ele>223.171005</ele><time>2022-03-04T12:53:48Z</time><extensions><speed>0.275672</speed><course>168.020355</course><hAcc>1.691970</hAcc><vAcc>0.826477</vAcc></extensions></trkpt>
      <trkpt lon="-2.218404" lat="53.121945"><ele>223.167267</ele><time>2022-03-04T12:53:49Z</time><extensions><speed>0.259940</speed><course>172.578979</course><hAcc>1.702413</hAcc><vAcc>0.826308</vAcc></extensions></trkpt>
      <trkpt lon="-2.218404" lat="53.121943"><ele>223.167404</ele><time>2022-03-04T12:53:50Z</time><extensions><speed>0.278084</speed><course>176.110519</course><hAcc>1.701009</hAcc><vAcc>0.826168</vAcc></extensions></trkpt>
      <trkpt lon="-2.218404" lat="53.121941"><ele>223.170593</ele><time>2022-03-04T12:53:51Z</time><extensions><speed>0.279503</speed><course>178.174484</course><hAcc>1.703826</hAcc><vAcc>0.826063</vAcc></extensions></trkpt>
      <trkpt lon="-2.218403" lat="53.121938"><ele>223.176224</ele><time>2022-03-04T12:53:52Z</time><extensions><speed>0.258984</speed><course>179.432617</course><hAcc>1.709715</hAcc><vAcc>0.825984</vAcc></extensions></trkpt>
      <trkpt lon="-2.218403" lat="53.121936"><ele>223.186050</ele><time>2022-03-04T12:53:53Z</time><extensions><speed>0.224081</speed><course>180.824326</course><hAcc>1.713401</hAcc><vAcc>0.825942</vAcc></extensions></trkpt>
      <trkpt lon="-2.218404" lat="53.121934"><ele>223.198456</ele><time>2022-03-04T12:53:54Z</time><extensions><speed>0.183480</speed><course>182.875931</course><hAcc>1.716150</hAcc><vAcc>0.825921</vAcc></extensions></trkpt>
      <trkpt lon="-2.218404" lat="53.121933"><ele>223.212326</ele><time>2022-03-04T12:53:55Z</time><extensions><speed>0.139876</speed><course>185.114426</course><hAcc>1.722921</hAcc><vAcc>0.825918</vAcc></extensions></trkpt>
      <trkpt lon="-2.218404" lat="53.121931"><ele>223.226593</ele><time>2022-03-04T12:53:56Z</time><extensions><speed>0.123987</speed><course>185.789627</course><hAcc>1.715891</hAcc><vAcc>0.825928</vAcc></extensions></trkpt>
      <trkpt lon="-2.218404" lat="53.121930"><ele>223.240326</ele><time>2022-03-04T12:53:57Z</time><extensions><speed>0.111531</speed><course>183.966965</course><hAcc>1.715552</hAcc><vAcc>0.825946</vAcc></extensions></trkpt>
      <trkpt lon="-2.218404" lat="53.121929"><ele>223.252716</ele><time>2022-03-04T12:53:58Z</time><extensions><speed>0.107689</speed><course>181.183365</course><hAcc>1.716029</hAcc><vAcc>0.825969</vAcc></extensions></trkpt>
      <trkpt lon="-2.218404" lat="53.121928"><ele>223.254028</ele><time>2022-03-04T12:53:59Z</time><extensions><speed>0.108864</speed><course>179.866547</course><hAcc>1.714782</hAcc><vAcc>0.825981</vAcc></extensions></trkpt>
      <trkpt lon="-2.218404" lat="53.121927"><ele>223.251587</ele><time>2022-03-04T12:54:00Z</time><extensions><speed>0.109998</speed><course>180.694321</course><hAcc>1.709746</hAcc><vAcc>0.825984</vAcc></extensions></trkpt>
      <trkpt lon="-2.218404" lat="53.121926"><ele>223.240860</ele><time>2022-03-04T12:54:01Z</time><extensions><speed>0.107506</speed><course>183.496811</course><hAcc>1.700025</hAcc><vAcc>0.825990</vAcc></extensions></trkpt>
      <trkpt lon="-2.218404" lat="53.121925"><ele>223.223419</ele><time>2022-03-04T12:54:02Z</time><extensions><speed>0.098215</speed><course>187.115189</course><hAcc>1.688497</hAcc><vAcc>0.825989</vAcc></extensions></trkpt>
      <trkpt lon="-2.218405" lat="53.121925"><ele>223.201263</ele><time>2022-03-04T12:54:03Z</time><extensions><speed>0.083581</speed><course>190.131622</course><hAcc>1.676725</hAcc><vAcc>0.825986</vAcc></extensions></trkpt>
      <trkpt lon="-2.218405" lat="53.121924"><ele>223.178452</ele><time>2022-03-04T12:54:04Z</time><extensions><speed>0.072349</speed><course>192.240677</course><hAcc>1.667136</hAcc><vAcc>0.825975</vAcc></extensions></trkpt>
      <trkpt lon="-2.218405" lat="53.121923"><ele>223.152008</ele><time>2022-03-04T12:54:05Z</time><extensions><speed>0.062415</speed><course>193.444595</course><hAcc>1.670575</hAcc><vAcc>0.825953</vAcc></extensions></trkpt>
      <trkpt lon="-2.218405" lat="53.121923"><ele>223.120163</ele><time>2022-03-04T12:54:06Z</time><extensions><speed>0.061680</speed><course>194.002396</course><hAcc>1.673434</hAcc><vAcc>0.825925</vAcc></extensions></trkpt>
      <trkpt lon="-2.218406" lat="53.121922"><ele>223.085709</ele><time>2022-03-04T12:54:07Z</time><extensions><speed>0.073886</speed><course>193.827591</course><hAcc>1.670379</hAcc><vAcc>0.825880</vAcc></extensions></trkpt>
      <trkpt lon="-2.218406" lat="53.121921"><ele>223.054413</ele><time>2022-03-04T12:54:08Z</time><extensions><speed>0.083578</speed><course>193.175720</course><hAcc>1.677043</hAcc><vAcc>0.825828</vAcc></extensions></trkpt>
      <trkpt lon="-2.218406" lat="53.121921"><ele>223.015533</ele><time>2022-03-04T12:54:09Z</time><extensions><speed>0.094065</speed><course>191.708084</course><hAcc>1.672571</hAcc><vAcc>0.825784</vAcc></extensions></trkpt>
      <trkpt lon="-2.218406" lat="53.121920"><ele>222.969803</ele><time>2022-03-04T12:54:10Z</time><extensions><speed>0.078793</speed><course>191.715820</course><hAcc>1.681478</hAcc><vAcc>0.825739</vAcc></extensions></trkpt>
      <trkpt lon="-2.218407" lat="53.121919"><ele>222.919815</ele><time>2022-03-04T12:54:11Z</time><extensions><speed>0.054626</speed><course>200.743546</course><hAcc>1.697598</hAcc><vAcc>0.825709</vAcc></extensions></trkpt>
      <trkpt lon="-2.218407" lat="53.121919"><ele>222.863800</ele><time>2022-03-04T12:54:12Z</time><extensions><speed>0.035754</speed><course>230.678772</course><hAcc>1.712587</hAcc><vAcc>0.825671</vAcc></extensions></trkpt>
      <trkpt lon="-2.218407" lat="53.121919"><ele>222.801758</ele><time>2022-03-04T12:54:13Z</time><extensions><speed>0.034025</speed><course>271.150879</course><hAcc>1.723048</hAcc><vAcc>0.825634</vAcc></extensions></trkpt>
      <trkpt lon="-2.218408" lat="53.121919"><ele>222.737549</ele><time>2022-03-04T12:54:14Z</time><extensions><speed>0.037691</speed><course>302.859680</course><hAcc>1.728829</hAcc><vAcc>0.825602</vAcc></extensions></trkpt>
      <trkpt lon="-2.218408" lat="53.121919"><ele>222.670532</ele><time>2022-03-04T12:54:15Z</time><extensions><speed>0.046809</speed><course>333.617645</course><hAcc>1.730440</hAcc><vAcc>0.825571</vAcc></extensions></trkpt>
      <trkpt lon="-2.218409" lat="53.121920"><ele>222.603638</ele><time>2022-03-04T12:54:16Z</time><extensions><speed>0.061764</speed><course>352.332581</course><hAcc>1.728942</hAcc><vAcc>0.825547</vAcc></extensions></trkpt>
      <trkpt lon="-2.218409" lat="53.121921"><ele>222.534561</ele><time>2022-03-04T12:54:17Z</time><extensions><speed>0.080720</speed><course>359.765289</course><hAcc>1.724338</hAcc><vAcc>0.825533</vAcc></extensions></trkpt>
      <trkpt lon="-2.218409" lat="53.121921"><ele>222.460953</ele><time>2022-03-04T12:54:18Z</time><extensions><speed>0.103304</speed><course>1.206659</course><hAcc>1.720973</hAcc><vAcc>0.825537</vAcc></extensions></trkpt>
      <trkpt lon="-2.218409" lat="53.121922"><ele>222.388687</ele><time>2022-03-04T12:54:19Z</time><extensions><speed>0.119596</speed><course>359.827148</course><hAcc>1.718721</hAcc><vAcc>0.825542</vAcc></extensions></trkpt>
      <trkpt lon="-2.218409" lat="53.121923"><ele>222.317734</ele><time>2022-03-04T12:54:20Z</time><extensions><speed>0.121555</speed><course>356.208679</course><hAcc>1.720365</hAcc><vAcc>0.825545</vAcc></extensions></trkpt>
      <trkpt lon="-2.218409" lat="53.121924"><ele>222.245102</ele><time>2022-03-04T12:54:21Z</time><extensions><speed>0.109619</speed><course>351.453339</course><hAcc>1.727615</hAcc><vAcc>0.825552</vAcc></extensions></trkpt>
      <trkpt lon="-2.218409" lat="53.121925"><ele>222.171524</ele><time>2022-03-04T12:54:22Z</time><extensions><speed>0.110109</speed><course>346.884918</course><hAcc>1.717219</hAcc><vAcc>0.825580</vAcc></extensions></trkpt>
      <trkpt lon="-2.218410" lat="53.121926"><ele>222.102646</ele><time>2022-03-04T12:54:23Z</time><extensions><speed>0.103585</speed><course>342.289581</course><hAcc>1.711649</hAcc><vAcc>0.825607</vAcc></extensions></trkpt>
      <trkpt lon="-2.218410" lat="53.121927"><ele>222.037048</ele><time>2022-03-04T12:54:24Z</time><extensions><speed>0.090529</speed><course>337.278015</course><hAcc>1.714075</hAcc><vAcc>0.825645</vAcc></extensions></trkpt>
      <trkpt lon="-2.218411" lat="53.121928"><ele>221.980667</ele><time>2022-03-04T12:54:25Z</time><extensions><speed>0.072232</speed><course>331.080688</course><hAcc>1.717008</hAcc><vAcc>0.825691</vAcc></extensions></trkpt>
      <trkpt lon="-2.218411" lat="53.121928"><ele>221.929398</ele><time>2022-03-04T12:54:26Z</time><extensions><speed>0.049269</speed><course>318.313660</course><hAcc>1.717764</hAcc><vAcc>0.825745</vAcc></extensions></trkpt>
      <trkpt lon="-2.218412" lat="53.121928"><ele>221.889297</ele><time>2022-03-04T12:54:27Z</time><extensions><speed>0.030789</speed><course>273.686584</course><hAcc>1.719434</hAcc><vAcc>0.825808</vAcc></extensions></trkpt>
      <trkpt lon="-2.218412" lat="53.121928"><ele>221.856537</ele><time>2022-03-04T12:54:28Z</time><extensions><speed>0.048150</speed><course>218.174973</course><hAcc>1.722043</hAcc><vAcc>0.825879</vAcc></extensions></trkpt>
      <trkpt lon="-2.218413" lat="53.121928"><ele>221.831253</ele><time>2022-03-04T12:54:29Z</time><extensions><speed>0.081651</speed><course>201.492966</course><hAcc>1.721524</hAcc><vAcc>0.825965</vAcc></extensions></trkpt>
      <trkpt lon="-2.218413" lat="53.121927"><ele>221.807343</ele><time>2022-03-04T12:54:30Z</time><extensions><speed>0.106097</speed><course>195.346909</course><hAcc>1.720171</hAcc><vAcc>0.826061</vAcc></extensions></trkpt>
      <trkpt lon="-2.218414" lat="53.121926"><ele>221.785019</ele><time>2022-03-04T12:54:31Z</time><extensions><speed>0.115458</speed><course>194.041977</course><hAcc>1.719534</hAcc><vAcc>0.826164</vAcc></extensions></trkpt>
      <trkpt lon="-2.218414" lat="53.121925"><ele>221.768021</ele><time>2022-03-04T12:54:32Z</time><extensions><speed>0.113127</speed><course>197.887939</course><hAcc>1.721104</hAcc><vAcc>0.826273</vAcc></extensions></trkpt>
      <trkpt lon="-2.218415" lat="53.121924"><ele>221.757126</ele><time>2022-03-04T12:54:33Z</time><extensions><speed>0.107369</speed><course>205.672607</course><hAcc>1.724913</hAcc><vAcc>0.826386</vAcc></extensions></trkpt>
      <trkpt lon="-2.218416" lat="53.121923"><ele>221.744278</ele><time>2022-03-04T12:54:34Z</time><extensions><speed>0.108539</speed><course>215.244034</course><hAcc>1.725501</hAcc><vAcc>0.826502</vAcc></extensions></trkpt>
      <trkpt lon="-2.218417" lat="53.121922"><ele>221.724762</ele><time>2022-03-04T12:54:35Z</time><extensions><speed>0.113286</speed><course>225.258194</course><hAcc>1.725230</hAcc><vAcc>0.826618</vAcc></extensions></trkpt>
      <trkpt lon="-2.218418" lat="53.121922"><ele>221.704971</ele><time>2022-03-04T12:54:36Z</time><extensions><speed>0.119047</speed><course>234.502899</course><hAcc>1.726705</hAcc><vAcc>0.826722</vAcc></extensions></trkpt>
      <trkpt lon="-2.218419" lat="53.121921"><ele>221.686142</ele><time>2022-03-04T12:54:37Z</time><extensions><speed>0.122812</speed><course>240.169250</course><hAcc>1.727484</hAcc><vAcc>0.826814</vAcc></extensions></trkpt>
      <trkpt lon="-2.218421" lat="53.121921"><ele>221.663895</ele><time>2022-03-04T12:54:38Z</time><extensions><speed>0.120385</speed><course>242.811829</course><hAcc>1.727688</hAcc><vAcc>0.826911</vAcc></extensions></trkpt>
      <trkpt lon="-2.218423" lat="53.121920"><ele>221.638718</ele><time>2022-03-04T12:54:39Z</time><extensions><speed>0.112687</speed><course>243.917953</course><hAcc>1.728203</hAcc><vAcc>0.827001</vAcc></extensions></trkpt>
      <trkpt lon="-2.218424" lat="53.121920"><ele>221.609390</ele><time>2022-03-04T12:54:40Z</time><extensions><speed>0.102638</speed><course>243.715424</course><hAcc>1.727106</hAcc><vAcc>0.827091</vAcc></extensions></trkpt>
      <trkpt lon="-2.218425" lat="53.121919"><ele>221.577637</ele><time>2022-03-04T12:54:41Z</time><extensions><speed>0.093629</speed><course>240.467621</course><hAcc>1.723357</hAcc><vAcc>0.827175</vAcc></extensions></trkpt>
      <trkpt lon="-2.218427" lat="53.121919"><ele>221.546509</ele><time>2022-03-04T12:54:42Z</time><extensions><speed>0.090299</speed><course>232.512085</course><hAcc>1.718686</hAcc><vAcc>0.827252</vAcc></extensions></trkpt>
      <trkpt lon="-2.218428" lat="53.121918"><ele>221.513657</ele><time>2022-03-04T12:54:44Z</time><extensions><speed>0.092731</speed><course>224.715210</course><hAcc>1.715794</hAcc><vAcc>0.827307</vAcc></extensions></trkpt>
      <trkpt lon="-2.218428" lat="53.121918"><ele>221.481384</ele><time>2022-03-04T12:54:45Z</time><extensions><speed>0.090819</speed><course>221.744293</course><hAcc>1.721238</hAcc><vAcc>0.827336</vAcc></extensions></trkpt>
      <trkpt lon="-2.218429" lat="53.121917"><ele>221.453995</ele><time>2022-03-04T12:54:46Z</time><extensions><speed>0.080983</speed><course>220.447540</course><hAcc>1.731795</hAcc><vAcc>0.827358</vAcc></extensions></trkpt>
      <trkpt lon="-2.218430" lat="53.121916"><ele>221.427582</ele><time>2022-03-04T12:54:47Z</time><extensions><speed>0.084016</speed><course>216.203247</course><hAcc>1.719683</hAcc><vAcc>0.827376</vAcc></extensions></trkpt>
      <trkpt lon="-2.218431" lat="53.121916"><ele>221.399429</ele><time>2022-03-04T12:54:48Z</time><extensions><speed>0.078699</speed><course>209.080032</course><hAcc>1.716284</hAcc><vAcc>0.827383</vAcc></extensions></trkpt>
      <trkpt lon="-2.218431" lat="53.121915"><ele>221.378601</ele><time>2022-03-04T12:54:49Z</time><extensions><speed>0.072036</speed><course>199.450623</course><hAcc>1.719366</hAcc><vAcc>0.827389</vAcc></extensions></trkpt>
      <trkpt lon="-2.218431" lat="53.121915"><ele>221.361023</ele><time>2022-03-04T12:54:50Z</time><extensions><speed>0.065836</speed><course>187.260208</course><hAcc>1.724455</hAcc><vAcc>0.827399</vAcc></extensions></trkpt>
      <trkpt lon="-2.218431" lat="53.121914"><ele>221.339447</ele><time>2022-03-04T12:54:51Z</time><extensions><speed>0.062824</speed><course>173.946335</course><hAcc>1.726305</hAcc><vAcc>0.827402</vAcc></extensions></trkpt>
      <trkpt lon="-2.218431" lat="53.121913"><ele>221.323013</ele><time>2022-03-04T12:54:52Z</time><extensions><speed>0.060445</speed><course>158.262192</course><hAcc>1.724402</hAcc><vAcc>0.827395</vAcc></extensions></trkpt>
      <trkpt lon="-2.218431" lat="53.121913"><ele>221.310318</ele><time>2022-03-04T12:54:53Z</time><extensions><speed>0.058486</speed><course>138.463318</course><hAcc>1.721676</hAcc><vAcc>0.827374</vAcc></extensions></trkpt>
      <trkpt lon="-2.218430" lat="53.121913"><ele>221.303467</ele><time>2022-03-04T12:54:54Z</time><extensions><speed>0.056872</speed><course>124.648849</course><hAcc>1.717546</hAcc><vAcc>0.827349</vAcc></extensions></trkpt>
      <trkpt lon="-2.218429" lat="53.121912"><ele>221.296463</ele><time>2022-03-04T12:54:55Z</time><extensions><speed>0.052534</speed><course>122.473343</course><hAcc>1.709613</hAcc><vAcc>0.827320</vAcc></extensions></trkpt>
      <trkpt lon="-2.218429" lat="53.121912"><ele>221.289078</ele><time>2022-03-04T12:54:56Z</time><extensions><speed>0.050613</speed><course>129.428131</course><hAcc>1.696308</hAcc><vAcc>0.827294</vAcc></extensions></trkpt>
      <trkpt lon="-2.218428" lat="53.121912"><ele>221.282913</ele><time>2022-03-04T12:54:57Z</time><extensions><speed>0.049615</speed><course>141.928101</course><hAcc>1.689412</hAcc><vAcc>0.827267</vAcc></extensions></trkpt>
      <trkpt lon="-2.218428" lat="53.121911"><ele>221.277603</ele><time>2022-03-04T12:54:58Z</time><extensions><speed>0.055674</speed><course>153.234467</course><hAcc>1.681409</hAcc><vAcc>0.827236</vAcc></extensions></trkpt>
      <trkpt lon="-2.218427" lat="53.121911"><ele>221.272858</ele><time>2022-03-04T12:54:59Z</time><extensions><speed>0.055877</speed><course>159.551743</course><hAcc>1.694444</hAcc><vAcc>0.827195</vAcc></extensions></trkpt>
      <trkpt lon="-2.218427" lat="53.121910"><ele>221.270767</ele><time>2022-03-04T12:55:00Z</time><extensions><speed>0.054940</speed><course>160.756241</course><hAcc>1.707020</hAcc><vAcc>0.827146</vAcc></extensions></trkpt>
      <trkpt lon="-2.218427" lat="53.121910"><ele>221.268158</ele><time>2022-03-04T12:55:01Z</time><extensions><speed>0.075986</speed><course>157.240051</course><hAcc>1.675066</hAcc><vAcc>0.827091</vAcc></extensions></trkpt>
      <trkpt lon="-2.218426" lat="53.121909"><ele>221.267792</ele><time>2022-03-04T12:55:02Z</time><extensions><speed>0.081777</speed><course>148.927811</course><hAcc>1.656905</hAcc><vAcc>0.827043</vAcc></extensions></trkpt>
      <trkpt lon="-2.218425" lat="53.121909"><ele>221.266373</ele><time>2022-03-04T12:55:03Z</time><extensions><speed>0.080013</speed><course>137.865082</course><hAcc>1.646191</hAcc><vAcc>0.826993</vAcc></extensions></trkpt>
      <trkpt lon="-2.218425" lat="53.121908"><ele>221.262695</ele><time>2022-03-04T12:55:04Z</time><extensions><speed>0.074700</speed><course>127.555389</course><hAcc>1.635546</hAcc><vAcc>0.826954</vAcc></extensions></trkpt>
      <trkpt lon="-2.218424" lat="53.121908"><ele>221.258835</ele><time>2022-03-04T12:55:05Z</time><extensions><speed>0.062075</speed><course>118.777359</course><hAcc>1.648408</hAcc><vAcc>0.826926</vAcc></extensions></trkpt>
      <trkpt lon="-2.218423" lat="53.121908"><ele>221.260620</ele><time>2022-03-04T12:55:06Z</time><extensions><speed>0.032854</speed><course>109.734222</course><hAcc>1.695538</hAcc><vAcc>0.826907</vAcc></extensions></trkpt>
      <trkpt lon="-2.218423" lat="53.121908"><ele>221.268768</ele><time>2022-03-04T12:55:07Z</time><extensions><speed>0.029179</speed><course>97.020599</course><hAcc>1.687993</hAcc><vAcc>0.826898</vAcc></extensions></trkpt>
      <trkpt lon="-2.218422" lat="53.121908"><ele>221.278824</ele><time>2022-03-04T12:55:08Z</time><extensions><speed>0.038242</speed><course>83.287834</course><hAcc>1.648667</hAcc><vAcc>0.826909</vAcc></extensions></trkpt>
      <trkpt lon="-2.218422" lat="53.121908"><ele>221.290558</ele><time>2022-03-04T12:55:09Z</time><extensions><speed>0.038005</speed><course>66.425835</course><hAcc>1.650716</hAcc><vAcc>0.826932</vAcc></extensions></trkpt>
      <trkpt lon="-2.218421" lat="53.121908"><ele>221.303925</ele><time>2022-03-04T12:55:10Z</time><extensions><speed>0.035768</speed><course>37.083584</course><hAcc>1.671645</hAcc><vAcc>0.826969</vAcc></extensions></trkpt>
      <trkpt lon="-2.218421" lat="53.121908"><ele>221.323746</ele><time>2022-03-04T12:55:11Z</time><extensions><speed>0.042544</speed><course>357.849030</course><hAcc>1.688313</hAcc><vAcc>0.827015</vAcc></extensions></trkpt>
      <trkpt lon="-2.218421" lat="53.121909"><ele>221.342804</ele><time>2022-03-04T12:55:12Z</time><extensions><speed>0.060266</speed><course>332.510956</course><hAcc>1.696264</hAcc><vAcc>0.827058</vAcc></extensions></trkpt>
      <trkpt lon="-2.218422" lat="53.121909"><ele>221.369049</ele><time>2022-03-04T12:55:13Z</time><extensions><speed>0.075781</speed><course>318.243317</course><hAcc>1.701898</hAcc><vAcc>0.827110</vAcc></extensions></trkpt>
      <trkpt lon="-2.218423" lat="53.121910"><ele>221.397598</ele><time>2022-03-04T12:55:14Z</time><extensions><speed>0.085100</speed><course>309.815186</course><hAcc>1.709561</hAcc><vAcc>0.827151</vAcc></extensions></trkpt>
      <trkpt lon="-2.218424" lat="53.121910"><ele>221.420792</ele><time>2022-03-04T12:55:15Z</time><extensions><speed>0.089915</speed><course>304.364166</course><hAcc>1.717282</hAcc><vAcc>0.827187</vAcc></extensions></trkpt>
      <trkpt lon="-2.218425" lat="53.121911"><ele>221.444336</ele><time>2022-03-04T12:55:16Z</time><extensions><speed>0.101816</speed><course>300.179077</course><hAcc>1.706084</hAcc><vAcc>0.827219</vAcc></extensions></trkpt>
      <trkpt lon="-2.218427" lat="53.121911"><ele>221.467041</ele><time>2022-03-04T12:55:17Z</time><extensions><speed>0.101555</speed><course>294.729309</course><hAcc>1.697658</hAcc><vAcc>0.827229</vAcc></extensions></trkpt>
      <trkpt lon="-2.218428" lat="53.121911"><ele>221.486298</ele><time>2022-03-04T12:55:18Z</time><extensions><speed>0.095493</speed><course>287.078400</course><hAcc>1.694920</hAcc><vAcc>0.827223</vAcc></extensions></trkpt>
      <trkpt lon="-2.218429" lat="53.121912"><ele>221.503677</ele><time>2022-03-04T12:55:19Z</time><extensions><speed>0.091465</speed><course>277.338409</course><hAcc>1.691943</hAcc><vAcc>0.827231</vAcc></extensions></trkpt>
      <trkpt lon="-2.218431" lat="53.121912"><ele>221.513077</ele><time>2022-03-04T12:55:20Z</time><extensions><speed>0.093097</speed><course>267.931610</course><hAcc>1.683364</hAcc><vAcc>0.827204</vAcc></extensions></trkpt>
      <trkpt lon="-2.218432" lat="53.121911"><ele>221.520676</ele><time>2022-03-04T12:55:21Z</time><extensions><speed>0.094202</speed><course>259.379547</course><hAcc>1.674916</hAcc><vAcc>0.827178</vAcc></extensions></trkpt>
      <trkpt lon="-2.218433" lat="53.121911"><ele>221.525284</ele><time>2022-03-04T12:55:22Z</time><extensions><speed>0.086345</speed><course>251.582535</course><hAcc>1.686497</hAcc><vAcc>0.827146</vAcc></extensions></trkpt>
      <trkpt lon="-2.218434" lat="53.121911"><ele>221.526077</ele><time>2022-03-04T12:55:23Z</time><extensions><speed>0.060927</speed><course>241.230408</course><hAcc>1.718138</hAcc><vAcc>0.827106</vAcc></extensions></trkpt>
      <trkpt lon="-2.218435" lat="53.121911"><ele>221.523270</ele><time>2022-03-04T12:55:24Z</time><extensions><speed>0.081421</speed><course>229.122849</course><hAcc>1.684638</hAcc><vAcc>0.827078</vAcc></extensions></trkpt>
      <trkpt lon="-2.218436" lat="53.121910"><ele>221.512589</ele><time>2022-03-04T12:55:25Z</time><extensions><speed>0.081196</speed><course>218.434845</course><hAcc>1.676901</hAcc><vAcc>0.827039</vAcc></extensions></trkpt>
      <trkpt lon="-2.218437" lat="53.121910"><ele>221.497665</ele><time>2022-03-04T12:55:26Z</time><extensions><speed>0.071431</speed><course>205.638245</course><hAcc>1.690422</hAcc><vAcc>0.826999</vAcc></extensions></trkpt>
      <trkpt lon="-2.218437" lat="53.121909"><ele>221.485153</ele><time>2022-03-04T12:55:27Z</time><extensions><speed>0.055426</speed><course>187.322296</course><hAcc>1.704696</hAcc><vAcc>0.826962</vAcc></extensions></trkpt>
      <trkpt lon="-2.218437" lat="53.121909"><ele>221.480392</ele><time>2022-03-04T12:55:28Z</time><extensions><speed>0.042128</speed><course>155.534454</course><hAcc>1.710540</hAcc><vAcc>0.826932</vAcc></extensions></trkpt>
      <trkpt lon="-2.218436" lat="53.121908"><ele>221.487076</ele><time>2022-03-04T12:55:29Z</time><extensions><speed>0.038953</speed><course>113.446739</course><hAcc>1.715067</hAcc><vAcc>0.826904</vAcc></extensions></trkpt>
      <trkpt lon="-2.218436" lat="53.121908"><ele>221.504700</ele><time>2022-03-04T12:55:30Z</time><extensions><speed>0.045433</speed><course>83.500145</course><hAcc>1.717596</hAcc><vAcc>0.826876</vAcc></extensions></trkpt>
      <trkpt lon="-2.218435" lat="53.121908"><ele>221.530014</ele><time>2022-03-04T12:55:31Z</time><extensions><speed>0.052888</speed><course>69.470978</course><hAcc>1.719580</hAcc><vAcc>0.826855</vAcc></extensions></trkpt>
      <trkpt lon="-2.218434" lat="53.121909"><ele>221.566742</ele><time>2022-03-04T12:55:32Z</time><extensions><speed>0.056448</speed><course>66.220779</course><hAcc>1.722083</hAcc><vAcc>0.826837</vAcc></extensions></trkpt>
      <trkpt lon="-2.218434" lat="53.121909"><ele>221.611191</ele><time>2022-03-04T12:55:33Z</time><extensions><speed>0.059600</speed><course>69.301956</course><hAcc>1.722988</hAcc><vAcc>0.826825</vAcc></extensions></trkpt>
      <trkpt lon="-2.218433" lat="53.121909"><ele>221.661346</ele><time>2022-03-04T12:55:34Z</time><extensions><speed>0.063673</speed><course>70.390976</course><hAcc>1.723446</hAcc><vAcc>0.826818</vAcc></extensions></trkpt>
      <trkpt lon="-2.218432" lat="53.121909"><ele>221.712433</ele><time>2022-03-04T12:55:35Z</time><extensions><speed>0.068028</speed><course>64.328606</course><hAcc>1.722095</hAcc><vAcc>0.826805</vAcc></extensions></trkpt>
      <trkpt lon="-2.218431" lat="53.121910"><ele>221.755905</ele><time>2022-03-04T12:55:35Z</time><extensions><speed>0.073739</speed><course>52.142292</course><hAcc>1.722255</hAcc><vAcc>0.826786</vAcc></extensions></trkpt>
      <trkpt lon="-2.218430" lat="53.121910"><ele>221.809387</ele><time>2022-03-04T12:55:36Z</time><extensions><speed>0.082794</speed><course>40.872044</course><hAcc>1.722147</hAcc><vAcc>0.826771</vAcc></extensions></trkpt>
      <trkpt lon="-2.218429" lat="53.121911"><ele>221.861282</ele><time>2022-03-04T12:55:37Z</time><extensions><speed>0.091645</speed><course>32.543945</course><hAcc>1.721877</hAcc><vAcc>0.826750</vAcc></extensions></trkpt>
      <trkpt lon="-2.218429" lat="53.121912"><ele>221.921204</ele><time>2022-03-04T12:55:38Z</time><extensions><speed>0.099020</speed><course>25.025433</course><hAcc>1.721520</hAcc><vAcc>0.826728</vAcc></extensions></trkpt>
      <trkpt lon="-2.218428" lat="53.121913"><ele>221.979523</ele><time>2022-03-04T12:55:39Z</time><extensions><speed>0.110351</speed><course>17.750151</course><hAcc>1.723032</hAcc><vAcc>0.826691</vAcc></extensions></trkpt>
      <trkpt lon="-2.218427" lat="53.121914"><ele>222.038651</ele><time>2022-03-04T12:55:40Z</time><extensions><speed>0.138725</speed><course>11.289746</course><hAcc>1.722045</hAcc><vAcc>0.826652</vAcc></extensions></trkpt>
      <trkpt lon="-2.218427" lat="53.121915"><ele>222.101395</ele><time>2022-03-04T12:55:41Z</time><extensions><speed>0.197626</speed><course>6.241457</course><hAcc>1.717880</hAcc><vAcc>0.826608</vAcc></extensions></trkpt>
      <trkpt lon="-2.218427" lat="53.121917"><ele>222.146072</ele><time>2022-03-04T12:55:42Z</time><extensions><speed>0.302918</speed><course>1.884821</course><hAcc>1.710664</hAcc><vAcc>0.826571</vAcc></extensions></trkpt>
      <trkpt lon="-2.218427" lat="53.121921"><ele>222.180557</ele><time>2022-03-04T12:55:43Z</time><extensions><speed>0.471098</speed><course>356.917969</course><hAcc>1.702221</hAcc><vAcc>0.826524</vAcc></extensions></trkpt>
      <trkpt lon="-2.218428" lat="53.121926"><ele>222.204773</ele><time>2022-03-04T12:55:44Z</time><extensions><speed>0.771613</speed><course>351.682526</course><hAcc>1.692208</hAcc><vAcc>0.826481</vAcc></extensions></trkpt>
      <trkpt lon="-2.218430" lat="53.121934"><ele>222.226212</ele><time>2022-03-04T12:55:45Z</time><extensions><speed>0.920551</speed><course>348.393616</course><hAcc>1.692001</hAcc><vAcc>0.826431</vAcc></extensions></trkpt>
      <trkpt lon="-2.218433" lat="53.121942"><ele>222.237213</ele><time>2022-03-04T12:55:46Z</time><extensions><speed>1.004829</speed><course>348.935089</course><hAcc>1.691282</hAcc><vAcc>0.826379</vAcc></extensions></trkpt>
      <trkpt lon="-2.218435" lat="53.121951"><ele>222.233688</ele><time>2022-03-04T12:55:47Z</time><extensions><speed>0.997698</speed><course>353.387726</course><hAcc>1.687402</hAcc><vAcc>0.826335</vAcc></extensions></trkpt>
      <trkpt lon="-2.218436" lat="53.121960"><ele>222.218491</ele><time>2022-03-04T12:55:48Z</time><extensions><speed>0.955750</speed><course>0.114459</course><hAcc>1.690693</hAcc><vAcc>0.826298</vAcc></extensions></trkpt>
      <trkpt lon="-2.218436" lat="53.121968"><ele>222.195602</ele><time>2022-03-04T12:55:49Z</time><extensions><speed>0.832348</speed><course>1.810024</course><hAcc>1.681085</hAcc><vAcc>0.826272</vAcc></extensions></trkpt>
      <trkpt lon="-2.218436" lat="53.121975"><ele>222.160477</ele><time>2022-03-04T12:55:50Z</time><extensions><speed>0.690971</speed><course>355.572662</course><hAcc>1.669130</hAcc><vAcc>0.826271</vAcc></extensions></trkpt>
      <trkpt lon="-2.218438" lat="53.121981"><ele>222.111481</ele><time>2022-03-04T12:55:51Z</time><extensions><speed>0.665572</speed><course>345.734528</course><hAcc>1.666775</hAcc><vAcc>0.826284</vAcc></extensions></trkpt>
      <trkpt lon="-2.218441" lat="53.121987"><ele>222.054352</ele><time>2022-03-04T12:55:52Z</time><extensions><speed>0.773562</speed><course>339.278137</course><hAcc>1.667552</hAcc><vAcc>0.826310</vAcc></extensions></trkpt>
      <trkpt lon="-2.218446" lat="53.121994"><ele>221.991257</ele><time>2022-03-04T12:55:53Z</time><extensions><speed>0.971441</speed><course>336.903900</course><hAcc>1.666579</hAcc><vAcc>0.826343</vAcc></extensions></trkpt>
      <trkpt lon="-2.218452" lat="53.122003"><ele>221.910400</ele><time>2022-03-04T12:55:54Z</time><extensions><speed>1.150728</speed><course>336.916199</course><hAcc>1.667033</hAcc><vAcc>0.826380</vAcc></extensions></trkpt>
      <trkpt lon="-2.218459" lat="53.122013"><ele>221.820465</ele><time>2022-03-04T12:55:55Z</time><extensions><speed>1.222462</speed><course>338.937286</course><hAcc>1.647777</hAcc><vAcc>0.826422</vAcc></extensions></trkpt>
      <trkpt lon="-2.218466" lat="53.122023"><ele>221.734406</ele><time>2022-03-04T12:55:56Z</time><extensions><speed>1.230168</speed><course>337.880768</course><hAcc>1.624407</hAcc><vAcc>0.826462</vAcc></extensions></trkpt>
      <trkpt lon="-2.218473" lat="53.122034"><ele>221.627502</ele><time>2022-03-04T12:55:57Z</time><extensions><speed>1.238455</speed><course>336.367462</course><hAcc>1.596994</hAcc><vAcc>0.826506</vAcc></extensions></trkpt>
      <trkpt lon="-2.218480" lat="53.122044"><ele>221.506729</ele><time>2022-03-04T12:55:58Z</time><extensions><speed>1.297263</speed><course>335.924164</course><hAcc>1.558781</hAcc><vAcc>0.826558</vAcc></extensions></trkpt>
      <trkpt lon="-2.218488" lat="53.122054"><ele>221.375183</ele><time>2022-03-04T12:55:59Z</time><extensions><speed>1.260837</speed><course>335.452759</course><hAcc>1.540369</hAcc><vAcc>0.826604</vAcc></extensions></trkpt>
      <trkpt lon="-2.218496" lat="53.122065"><ele>221.243622</ele><time>2022-03-04T12:56:00Z</time><extensions><speed>1.259912</speed><course>333.606873</course><hAcc>1.572782</hAcc><vAcc>0.826649</vAcc></extensions></trkpt>
      <trkpt lon="-2.218505" lat="53.122075"><ele>221.112503</ele><time>2022-03-04T12:56:01Z</time><extensions><speed>1.281239</speed><course>329.623230</course><hAcc>1.597068</hAcc><vAcc>0.826713</vAcc></extensions></trkpt>
      <trkpt lon="-2.218516" lat="53.122085"><ele>220.976898</ele><time>2022-03-04T12:56:02Z</time><extensions><speed>1.372275</speed><course>327.581512</course><hAcc>1.552487</hAcc><vAcc>0.826759</vAcc></extensions></trkpt>
      <trkpt lon="-2.218527" lat="53.122095"><ele>220.830887</ele><time>2022-03-04T12:56:03Z</time><extensions><speed>1.374904</speed><course>326.661041</course><hAcc>1.548775</hAcc><vAcc>0.826784</vAcc></extensions></trkpt>
      <trkpt lon="-2.218538" lat="53.122105"><ele>220.683548</ele><time>2022-03-04T12:56:04Z</time><extensions><speed>1.318610</speed><course>325.634399</course><hAcc>1.557165</hAcc><vAcc>0.826815</vAcc></extensions></trkpt>
      <trkpt lon="-2.218549" lat="53.122115"><ele>220.530914</ele><time>2022-03-04T12:56:05Z</time><extensions><speed>1.252011</speed><course>325.586090</course><hAcc>1.581912</hAcc><vAcc>0.826831</vAcc></extensions></trkpt>
      <trkpt lon="-2.218559" lat="53.122124"><ele>220.376358</ele><time>2022-03-04T12:56:06Z</time><extensions><speed>1.229130</speed><course>328.403595</course><hAcc>1.598415</hAcc><vAcc>0.826847</vAcc></extensions></trkpt>
      <trkpt lon="-2.218568" lat="53.122134"><ele>220.210159</ele><time>2022-03-04T12:56:07Z</time><extensions><speed>1.183228</speed><course>331.703064</course><hAcc>1.610856</hAcc><vAcc>0.826866</vAcc></extensions></trkpt>
      <trkpt lon="-2.218576" lat="53.122143"><ele>220.047104</ele><time>2022-03-04T12:56:08Z</time><extensions><speed>1.216206</speed><course>335.699005</course><hAcc>1.614031</hAcc><vAcc>0.826900</vAcc></extensions></trkpt>
      <trkpt lon="-2.218584" lat="53.122154"><ele>219.881332</ele><time>2022-03-04T12:56:09Z</time><extensions><speed>1.319279</speed><course>336.738495</course><hAcc>1.607589</hAcc><vAcc>0.826943</vAcc></extensions></trkpt>
      <trkpt lon="-2.218592" lat="53.122165"><ele>219.721603</ele><time>2022-03-04T12:56:10Z</time><extensions><speed>1.412172</speed><course>334.972900</course><hAcc>1.618362</hAcc><vAcc>0.826997</vAcc></extensions></trkpt>
      <trkpt lon="-2.218602" lat="53.122176"><ele>219.549805</ele><time>2022-03-04T12:56:11Z</time><extensions><speed>1.408558</speed><course>330.392731</course><hAcc>1.649507</hAcc><vAcc>0.827053</vAcc></extensions></trkpt>
      <trkpt lon="-2.218613" lat="53.122187"><ele>219.381058</ele><time>2022-03-04T12:56:12Z</time><extensions><speed>1.353744</speed><course>325.946228</course><hAcc>1.617129</hAcc><vAcc>0.827086</vAcc></extensions></trkpt>
      <trkpt lon="-2.218624" lat="53.122196"><ele>219.215439</ele><time>2022-03-04T12:56:13Z</time><extensions><speed>1.263382</speed><course>324.222015</course><hAcc>1.598022</hAcc><vAcc>0.827148</vAcc></extensions></trkpt>
      <trkpt lon="-2.218635" lat="53.122206"><ele>219.055374</ele><time>2022-03-04T12:56:14Z</time><extensions><speed>1.304944</speed><course>326.076294</course><hAcc>1.581204</hAcc><vAcc>0.827221</vAcc></extensions></trkpt>
      <trkpt lon="-2.218645" lat="53.122216"><ele>218.901978</ele><time>2022-03-04T12:56:15Z</time><extensions><speed>1.300480</speed><course>330.509186</course><hAcc>1.565699</hAcc><vAcc>0.827282</vAcc></extensions></trkpt>
      <trkpt lon="-2.218654" lat="53.122226"><ele>218.758011</ele><time>2022-03-04T12:56:16Z</time><extensions><speed>1.207268</speed><course>337.366119</course><hAcc>1.559113</hAcc><vAcc>0.827335</vAcc></extensions></trkpt>
      <trkpt lon="-2.218660" lat="53.122236"><ele>218.604996</ele><time>2022-03-04T12:56:17Z</time><extensions><speed>1.184366</speed><course>342.188446</course><hAcc>1.576774</hAcc><vAcc>0.827384</vAcc></extensions></trkpt>
      <trkpt lon="-2.218665" lat="53.122246"><ele>218.458527</ele><time>2022-03-04T12:56:18Z</time><extensions><speed>1.178467</speed><course>346.660980</course><hAcc>1.587903</hAcc><vAcc>0.827401</vAcc></extensions></trkpt>
      <trkpt lon="-2.218669" lat="53.122257"><ele>218.319504</ele><time>2022-03-04T12:56:19Z</time><extensions><speed>1.268017</speed><course>346.404907</course><hAcc>1.550544</hAcc><vAcc>0.827392</vAcc></extensions></trkpt>
      <trkpt lon="-2.218674" lat="53.122268"><ele>218.185715</ele><time>2022-03-04T12:56:20Z</time><extensions><speed>1.293289</speed><course>345.308929</course><hAcc>1.533016</hAcc><vAcc>0.827378</vAcc></extensions></trkpt>
      <trkpt lon="-2.218680" lat="53.122280"><ele>218.061005</ele><time>2022-03-04T12:56:21Z</time><extensions><speed>1.368360</speed><course>342.414612</course><hAcc>1.512041</hAcc><vAcc>0.827389</vAcc></extensions></trkpt>
      <trkpt lon="-2.218686" lat="53.122292"><ele>217.949265</ele><time>2022-03-04T12:56:22Z</time><extensions><speed>1.446866</speed><course>342.788147</course><hAcc>1.526909</hAcc><vAcc>0.827380</vAcc></extensions></trkpt>
      <trkpt lon="-2.218692" lat="53.122304"><ele>217.853333</ele><time>2022-03-04T12:56:23Z</time><extensions><speed>1.405128</speed><course>345.913177</course><hAcc>1.583724</hAcc><vAcc>0.827346</vAcc></extensions></trkpt>
      <trkpt lon="-2.218696" lat="53.122317"><ele>217.756042</ele><time>2022-03-04T12:56:24Z</time><extensions><speed>1.369500</speed><course>349.912994</course><hAcc>1.554326</hAcc><vAcc>0.827284</vAcc></extensions></trkpt>
      <trkpt lon="-2.218700" lat="53.122329"><ele>217.668869</ele><time>2022-03-04T12:56:25Z</time><extensions><speed>1.345574</speed><course>350.013153</course><hAcc>1.532809</hAcc><vAcc>0.827211</vAcc></extensions></trkpt>
      <trkpt lon="-2.218704" lat="53.122340"><ele>217.586792</ele><time>2022-03-04T12:56:26Z</time><extensions><speed>1.322660</speed><course>346.872498</course><hAcc>1.556268</hAcc><vAcc>0.827146</vAcc></extensions></trkpt>
      <trkpt lon="-2.218709" lat="53.122352"><ele>217.517303</ele><time>2022-03-04T12:56:27Z</time><extensions><speed>1.325129</speed><course>345.969452</course><hAcc>1.587871</hAcc><vAcc>0.827076</vAcc></extensions></trkpt>
      <trkpt lon="-2.218714" lat="53.122363"><ele>217.452820</ele><time>2022-03-04T12:56:28Z</time><extensions><speed>1.250967</speed><course>342.555298</course><hAcc>1.566260</hAcc><vAcc>0.826999</vAcc></extensions></trkpt>
      <trkpt lon="-2.218720" lat="53.122374"><ele>217.396530</ele><time>2022-03-04T12:56:29Z</time><extensions><speed>1.198499</speed><course>342.586487</course><hAcc>1.556914</hAcc><vAcc>0.826921</vAcc></extensions></trkpt>
      <trkpt lon="-2.218724" lat="53.122384"><ele>217.337021</ele><time>2022-03-04T12:56:30Z</time><extensions><speed>1.118927</speed><course>348.316284</course><hAcc>1.579940</hAcc><vAcc>0.826842</vAcc></extensions></trkpt>
      <trkpt lon="-2.218726" lat="53.122393"><ele>217.296188</ele><time>2022-03-04T12:56:31Z</time><extensions><speed>1.079315</speed><course>356.904236</course><hAcc>1.621521</hAcc><vAcc>0.826768</vAcc></extensions></trkpt>
      <trkpt lon="-2.218727" lat="53.122404"><ele>217.254181</ele><time>2022-03-04T12:56:32Z</time><extensions><speed>1.218917</speed><course>355.466248</course><hAcc>1.613252</hAcc><vAcc>0.826645</vAcc></extensions></trkpt>
      <trkpt lon="-2.218730" lat="53.122415"><ele>217.221024</ele><time>2022-03-04T12:56:33Z</time><extensions><speed>1.237181</speed><course>346.397034</course><hAcc>1.597254</hAcc><vAcc>0.826549</vAcc></extensions></trkpt>
      <trkpt lon="-2.218736" lat="53.122425"><ele>217.192444</ele><time>2022-03-04T12:56:34Z</time><extensions><speed>1.204801</speed><course>337.154694</course><hAcc>1.596248</hAcc><vAcc>0.826398</vAcc></extensions></trkpt>
      <trkpt lon="-2.218744" lat="53.122435"><ele>217.166077</ele><time>2022-03-04T12:56:35Z</time><extensions><speed>1.260537</speed><course>331.317139</course><hAcc>1.603327</hAcc><vAcc>0.826228</vAcc></extensions></trkpt>
      <trkpt lon="-2.218753" lat="53.122445"><ele>217.143280</ele><time>2022-03-04T12:56:36Z</time><extensions><speed>1.242900</speed><course>331.969849</course><hAcc>1.609991</hAcc><vAcc>0.826001</vAcc></extensions></trkpt>
      <trkpt lon="-2.218761" lat="53.122455"><ele>217.098312</ele><time>2022-03-04T12:56:37Z</time><extensions><speed>1.177411</speed><course>335.646240</course><hAcc>1.610651</hAcc><vAcc>0.825773</vAcc></extensions></trkpt>
      <trkpt lon="-2.218767" lat="53.122465"><ele>217.040756</ele><time>2022-03-04T12:56:38Z</time><extensions><speed>1.127748</speed><course>340.374725</course><hAcc>1.603754</hAcc><vAcc>0.825573</vAcc></extensions></trkpt>
      <trkpt lon="-2.218773" lat="53.122475"><ele>216.976425</ele><time>2022-03-04T12:56:39Z</time><extensions><speed>1.177795</speed><course>342.982269</course><hAcc>1.588815</hAcc><vAcc>0.825364</vAcc></extensions></trkpt>
      <trkpt lon="-2.218777" lat="53.122485"><ele>216.909851</ele><time>2022-03-04T12:56:40Z</time><extensions><speed>1.041804</speed><course>345.762970</course><hAcc>1.576939</hAcc><vAcc>0.825167</vAcc></extensions></trkpt>
      <trkpt lon="-2.218780" lat="53.122493"><ele>216.823502</ele><time>2022-03-04T12:56:41Z</time><extensions><speed>0.920211</speed><course>352.003113</course><hAcc>1.589591</hAcc><vAcc>0.824972</vAcc></extensions></trkpt>
      <trkpt lon="-2.218781" lat="53.122502"><ele>216.727753</ele><time>2022-03-04T12:56:42Z</time><extensions><speed>1.025297</speed><course>357.793915</course><hAcc>1.587224</hAcc><vAcc>0.824814</vAcc></extensions></trkpt>
      <trkpt lon="-2.218781" lat="53.122511"><ele>216.612274</ele><time>2022-03-04T12:56:43Z</time><extensions><speed>1.013214</speed><course>1.510148</course><hAcc>1.639607</hAcc><vAcc>0.824692</vAcc></extensions></trkpt>
      <trkpt lon="-2.218781" lat="53.122521"><ele>216.484848</ele><time>2022-03-04T12:56:44Z</time><extensions><speed>1.240184</speed><course>4.187601</course><hAcc>1.591428</hAcc><vAcc>0.824595</vAcc></extensions></trkpt>
      <trkpt lon="-2.218779" lat="53.122533"><ele>216.348465</ele><time>2022-03-04T12:56:45Z</time><extensions><speed>1.304794</speed><course>2.559804</course><hAcc>1.582265</hAcc><vAcc>0.824490</vAcc></extensions></trkpt>
      <trkpt lon="-2.218779" lat="53.122544"><ele>216.189697</ele><time>2022-03-04T12:56:46Z</time><extensions><speed>1.227508</speed><course>359.043121</course><hAcc>1.599496</hAcc><vAcc>0.824361</vAcc></extensions></trkpt>
      <trkpt lon="-2.218780" lat="53.122556"><ele>216.011307</ele><time>2022-03-04T12:56:47Z</time><extensions><speed>1.177231</speed><course>355.067200</course><hAcc>1.612869</hAcc><vAcc>0.824260</vAcc></extensions></trkpt>
      <trkpt lon="-2.218782" lat="53.122566"><ele>215.827957</ele><time>2022-03-04T12:56:48Z</time><extensions><speed>1.151858</speed><course>352.137878</course><hAcc>1.612881</hAcc><vAcc>0.824216</vAcc></extensions></trkpt>
      <trkpt lon="-2.218785" lat="53.122577"><ele>215.645401</ele><time>2022-03-04T12:56:50Z</time><extensions><speed>1.176785</speed><course>350.528351</course><hAcc>1.597613</hAcc><vAcc>0.824160</vAcc></extensions></trkpt>
      <trkpt lon="-2.218788" lat="53.122588"><ele>215.455231</ele><time>2022-03-04T12:56:51Z</time><extensions><speed>1.185737</speed><course>348.432343</course><hAcc>1.594726</hAcc><vAcc>0.824069</vAcc></extensions></trkpt>
      <trkpt lon="-2.218792" lat="53.122598"><ele>215.254730</ele><time>2022-03-04T12:56:52Z</time><extensions><speed>1.094203</speed><course>345.598602</course><hAcc>1.596575</hAcc><vAcc>0.823962</vAcc></extensions></trkpt>
      <trkpt lon="-2.218796" lat="53.122608"><ele>215.038895</ele><time>2022-03-04T12:56:53Z</time><extensions><speed>1.103713</speed><course>345.241425</course><hAcc>1.572944</hAcc><vAcc>0.823854</vAcc></extensions></trkpt>
      <trkpt lon="-2.218801" lat="53.122617"><ele>214.806229</ele><time>2022-03-04T12:56:54Z</time><extensions><speed>0.992593</speed><course>344.904053</course><hAcc>1.581067</hAcc><vAcc>0.823712</vAcc></extensions></trkpt>
      <trkpt lon="-2.218804" lat="53.122625"><ele>214.572006</ele><time>2022-03-04T12:56:55Z</time><extensions><speed>0.892771</speed><course>344.157806</course><hAcc>1.577731</hAcc><vAcc>0.823569</vAcc></extensions></trkpt>
      <trkpt lon="-2.218808" lat="53.122633"><ele>214.337723</ele><time>2022-03-04T12:56:56Z</time><extensions><speed>0.891153</speed><course>344.049774</course><hAcc>1.566529</hAcc><vAcc>0.823445</vAcc></extensions></trkpt>
      <trkpt lon="-2.218811" lat="53.122639"><ele>214.093384</ele><time>2022-03-04T12:56:57Z</time><extensions><speed>0.562894</speed><course>342.641785</course><hAcc>1.616905</hAcc><vAcc>0.823344</vAcc></extensions></trkpt>
      <trkpt lon="-2.218816" lat="53.122646"><ele>213.845947</ele><time>2022-03-04T12:56:58Z</time><extensions><speed>1.128399</speed><course>339.852448</course><hAcc>1.597408</hAcc><vAcc>0.823281</vAcc></extensions></trkpt>
      <trkpt lon="-2.218822" lat="53.122657"><ele>213.589813</ele><time>2022-03-04T12:56:59Z</time><extensions><speed>1.308047</speed><course>338.571136</course><hAcc>1.619550</hAcc><vAcc>0.823270</vAcc></extensions></trkpt>
      <trkpt lon="-2.218830" lat="53.122668"><ele>213.330124</ele><time>2022-03-04T12:57:00Z</time><extensions><speed>1.359804</speed><course>338.064758</course><hAcc>1.636454</hAcc><vAcc>0.823307</vAcc></extensions></trkpt>
      <trkpt lon="-2.218838" lat="53.122678"><ele>213.069046</ele><time>2022-03-04T12:57:01Z</time><extensions><speed>1.257982</speed><course>335.064514</course><hAcc>1.653555</hAcc><vAcc>0.823393</vAcc></extensions></trkpt>
      <trkpt lon="-2.218846" lat="53.122688"><ele>212.810913</ele><time>2022-03-04T12:57:02Z</time><extensions><speed>1.137018</speed><course>330.572205</course><hAcc>1.664019</hAcc><vAcc>0.823525</vAcc></extensions></trkpt>
      <trkpt lon="-2.218855" lat="53.122697"><ele>212.557983</ele><time>2022-03-04T12:57:03Z</time><extensions><speed>1.114039</speed><course>325.075500</course><hAcc>1.658184</hAcc><vAcc>0.823687</vAcc></extensions></trkpt>
      <trkpt lon="-2.218865" lat="53.122704"><ele>212.328888</ele><time>2022-03-04T12:57:04Z</time><extensions><speed>1.090006</speed><course>319.919769</course><hAcc>1.649187</hAcc><vAcc>0.823869</vAcc></extensions></trkpt>
      <trkpt lon="-2.218876" lat="53.122712"><ele>212.080887</ele><time>2022-03-04T12:57:05Z</time><extensions><speed>1.200462</speed><course>318.081177</course><hAcc>1.661242</hAcc><vAcc>0.824066</vAcc></extensions></trkpt>
      <trkpt lon="-2.218889" lat="53.122720"><ele>211.844650</ele><time>2022-03-04T12:57:06Z</time><extensions><speed>1.242310</speed><course>316.196259</course><hAcc>1.672500</hAcc><vAcc>0.824277</vAcc></extensions></trkpt>
      <trkpt lon="-2.218903" lat="53.122728"><ele>211.637863</ele><time>2022-03-04T12:57:07Z</time><extensions><speed>1.313996</speed><course>307.108124</course><hAcc>1.650052</hAcc><vAcc>0.824493</vAcc></extensions></trkpt>
      <trkpt lon="-2.218920" lat="53.122735"><ele>211.429062</ele><time>2022-03-04T12:57:08Z</time><extensions><speed>1.379336</speed><course>299.758575</course><hAcc>1.631755</hAcc><vAcc>0.824710</vAcc></extensions></trkpt>
      <trkpt lon="-2.218938" lat="53.122740"><ele>211.231369</ele><time>2022-03-04T12:57:09Z</time><extensions><speed>1.380868</speed><course>293.465210</course><hAcc>1.619901</hAcc><vAcc>0.824922</vAcc></extensions></trkpt>
      <trkpt lon="-2.218958" lat="53.122745"><ele>211.037842</ele><time>2022-03-04T12:57:10Z</time><extensions><speed>1.403445</speed><course>288.998322</course><hAcc>1.644865</hAcc><vAcc>0.825132</vAcc></extensions></trkpt>
      <trkpt lon="-2.218978" lat="53.122749"><ele>210.843185</ele><time>2022-03-04T12:57:11Z</time><extensions><speed>1.412809</speed><course>286.679993</course><hAcc>1.678276</hAcc><vAcc>0.825339</vAcc></extensions></trkpt>
      <trkpt lon="-2.218998" lat="53.122752"><ele>210.659897</ele><time>2022-03-04T12:57:12Z</time><extensions><speed>1.451271</speed><course>285.847076</course><hAcc>1.648643</hAcc><vAcc>0.825561</vAcc></extensions></trkpt>
      <trkpt lon="-2.219019" lat="53.122756"><ele>210.481033</ele><time>2022-03-04T12:57:13Z</time><extensions><speed>1.401515</speed><course>286.695374</course><hAcc>1.632491</hAcc><vAcc>0.825767</vAcc></extensions></trkpt>
      <trkpt lon="-2.219039" lat="53.122760"><ele>210.291946</ele><time>2022-03-04T12:57:14Z</time><extensions><speed>1.337308</speed><course>289.261902</course><hAcc>1.643078</hAcc><vAcc>0.825943</vAcc></extensions></trkpt>
      <trkpt lon="-2.219057" lat="53.122764"><ele>210.096481</ele><time>2022-03-04T12:57:15Z</time><extensions><speed>1.274895</speed><course>291.102203</course><hAcc>1.658201</hAcc><vAcc>0.826138</vAcc></extensions></trkpt>
      <trkpt lon="-2.219074" lat="53.122768"><ele>209.903503</ele><time>2022-03-04T12:57:16Z</time><extensions><speed>1.198873</speed><course>292.814606</course><hAcc>1.667030</hAcc><vAcc>0.826311</vAcc></extensions></trkpt>
      <trkpt lon="-2.219090" lat="53.122772"><ele>209.702042</ele><time>2022-03-04T12:57:17Z</time><extensions><speed>1.141399</speed><course>292.301025</course><hAcc>1.655943</hAcc><vAcc>0.826463</vAcc></extensions></trkpt>
      <trkpt lon="-2.219106" lat="53.122775"><ele>209.482605</ele><time>2022-03-04T12:57:18Z</time><extensions><speed>1.069995</speed><course>288.186707</course><hAcc>1.652571</hAcc><vAcc>0.826594</vAcc></extensions></trkpt>
      <trkpt lon="-2.219121" lat="53.122778"><ele>209.243851</ele><time>2022-03-04T12:57:19Z</time><extensions><speed>1.047516</speed><course>282.736908</course><hAcc>1.664480</hAcc><vAcc>0.826711</vAcc></extensions></trkpt>
      <trkpt lon="-2.219136" lat="53.122779"><ele>208.992172</ele><time>2022-03-04T12:57:20Z</time><extensions><speed>0.957268</speed><course>276.217499</course><hAcc>1.674404</hAcc><vAcc>0.826813</vAcc></extensions></trkpt>
      <trkpt lon="-2.219151" lat="53.122780"><ele>208.739243</ele><time>2022-03-04T12:57:21Z</time><extensions><speed>0.991693</speed><course>273.459351</course><hAcc>1.653437</hAcc><vAcc>0.826889</vAcc></extensions></trkpt>
      <trkpt lon="-2.219167" lat="53.122781"><ele>208.488480</ele><time>2022-03-04T12:57:22Z</time><extensions><speed>1.141341</speed><course>272.673553</course><hAcc>1.633442</hAcc><vAcc>0.826948</vAcc></extensions></trkpt>
      <trkpt lon="-2.219185" lat="53.122781"><ele>208.232452</ele><time>2022-03-04T12:57:23Z</time><extensions><speed>1.261345</speed><course>274.247345</course><hAcc>1.620992</hAcc><vAcc>0.826982</vAcc></extensions></trkpt>
      <trkpt lon="-2.219204" lat="53.122782"><ele>207.969757</ele><time>2022-03-04T12:57:24Z</time><extensions><speed>1.303812</speed><course>275.231018</course><hAcc>1.609903</hAcc><vAcc>0.826994</vAcc></extensions></trkpt>
      <trkpt lon="-2.219223" lat="53.122783"><ele>207.698853</ele><time>2022-03-04T12:57:25Z</time><extensions><speed>1.267711</speed><course>273.583588</course><hAcc>1.604389</hAcc><vAcc>0.826976</vAcc></extensions></trkpt>
      <trkpt lon="-2.219243" lat="53.122784"><ele>207.428482</ele><time>2022-03-04T12:57:26Z</time><extensions><speed>1.356480</speed><course>275.175507</course><hAcc>1.614893</hAcc><vAcc>0.826935</vAcc></extensions></trkpt>
      <trkpt lon="-2.219263" lat="53.122786"><ele>207.159363</ele><time>2022-03-04T12:57:27Z</time><extensions><speed>1.327269</speed><course>278.676392</course><hAcc>1.644341</hAcc><vAcc>0.826881</vAcc></extensions></trkpt>
      <trkpt lon="-2.219281" lat="53.122788"><ele>206.882919</ele><time>2022-03-04T12:57:28Z</time><extensions><speed>1.219732</speed><course>283.210724</course><hAcc>1.594883</hAcc><vAcc>0.826827</vAcc></extensions></trkpt>
      <trkpt lon="-2.219298" lat="53.122790"><ele>206.620880</ele><time>2022-03-04T12:57:29Z</time><extensions><speed>1.118713</speed><course>282.636597</course><hAcc>1.592850</hAcc><vAcc>0.826770</vAcc></extensions></trkpt>
      <trkpt lon="-2.219315" lat="53.122793"><ele>206.375198</ele><time>2022-03-04T12:57:30Z</time><extensions><speed>1.100559</speed><course>283.081329</course><hAcc>1.619360</hAcc><vAcc>0.826729</vAcc></extensions></trkpt>
      <trkpt lon="-2.219331" lat="53.122795"><ele>206.143967</ele><time>2022-03-04T12:57:31Z</time><extensions><speed>1.123592</speed><course>286.295471</course><hAcc>1.637107</hAcc><vAcc>0.826688</vAcc></extensions></trkpt>
      <trkpt lon="-2.219347" lat="53.122798"><ele>205.921799</ele><time>2022-03-04T12:57:32Z</time><extensions><speed>1.164346</speed><course>290.641663</course><hAcc>1.633597</hAcc><vAcc>0.826650</vAcc></extensions></trkpt>
      <trkpt lon="-2.219363" lat="53.122802"><ele>205.705536</ele><time>2022-03-04T12:57:33Z</time><extensions><speed>1.178117</speed><course>294.038330</course><hAcc>1.645295</hAcc><vAcc>0.826638</vAcc></extensions></trkpt>
      <trkpt lon="-2.219379" lat="53.122807"><ele>205.500717</ele><time>2022-03-04T12:57:34Z</time><extensions><speed>1.174668</speed><course>297.293518</course><hAcc>1.661247</hAcc><vAcc>0.826633</vAcc></extensions></trkpt>
      <trkpt lon="-2.219394" lat="53.122812"><ele>205.309479</ele><time>2022-03-04T12:57:35Z</time><extensions><speed>1.148835</speed><course>301.160828</course><hAcc>1.670836</hAcc><vAcc>0.826632</vAcc></extensions></trkpt>
      <trkpt lon="-2.219408" lat="53.122818"><ele>205.134949</ele><time>2022-03-04T12:57:36Z</time><extensions><speed>1.131206</speed><course>304.494751</course><hAcc>1.666902</hAcc><vAcc>0.826641</vAcc></extensions></trkpt>
      <trkpt lon="-2.219422" lat="53.122824"><ele>204.972321</ele><time>2022-03-04T12:57:37Z</time><extensions><speed>1.132576</speed><course>306.211487</course><hAcc>1.655431</hAcc><vAcc>0.826657</vAcc></extensions></trkpt>
      <trkpt lon="-2.219436" lat="53.122830"><ele>204.815598</ele><time>2022-03-04T12:57:38Z</time><extensions><speed>1.126965</speed><course>307.708679</course><hAcc>1.637728</hAcc><vAcc>0.826675</vAcc></extensions></trkpt>
      <trkpt lon="-2.219449" lat="53.122836"><ele>204.673096</ele><time>2022-03-04T12:57:39Z</time><extensions><speed>1.183086</speed><course>307.706757</course><hAcc>1.633045</hAcc><vAcc>0.826700</vAcc></extensions></trkpt>
      <trkpt lon="-2.219463" lat="53.122843"><ele>204.539459</ele><time>2022-03-04T12:57:40Z</time><extensions><speed>1.178910</speed><course>307.454681</course><hAcc>1.652859</hAcc><vAcc>0.826725</vAcc></extensions></trkpt>
      <trkpt lon="-2.219477" lat="53.122849"><ele>204.415512</ele><time>2022-03-04T12:57:41Z</time><extensions><speed>1.158873</speed><course>308.891724</course><hAcc>1.628900</hAcc><vAcc>0.826752</vAcc></extensions></trkpt>
      <trkpt lon="-2.219491" lat="53.122856"><ele>204.281052</ele><time>2022-03-04T12:57:42Z</time><extensions><speed>1.143829</speed><course>309.289062</course><hAcc>1.609874</hAcc><vAcc>0.826779</vAcc></extensions></trkpt>
      <trkpt lon="-2.219504" lat="53.122862"><ele>204.167252</ele><time>2022-03-04T12:57:43Z</time><extensions><speed>1.115578</speed><course>308.349701</course><hAcc>1.633704</hAcc><vAcc>0.826816</vAcc></extensions></trkpt>
      <trkpt lon="-2.219517" lat="53.122868"><ele>204.053116</ele><time>2022-03-04T12:57:43Z</time><extensions><speed>1.117103</speed><course>307.460236</course><hAcc>1.639635</hAcc><vAcc>0.826846</vAcc></extensions></trkpt>
      <trkpt lon="-2.219530" lat="53.122874"><ele>203.945160</ele><time>2022-03-04T12:57:44Z</time><extensions><speed>1.158826</speed><course>306.792755</course><hAcc>1.624943</hAcc><vAcc>0.826884</vAcc></extensions></trkpt>
      <trkpt lon="-2.219544" lat="53.122881"><ele>203.846115</ele><time>2022-03-04T12:57:45Z</time><extensions><speed>1.156997</speed><course>305.341309</course><hAcc>1.624002</hAcc><vAcc>0.826915</vAcc></extensions></trkpt>
      <trkpt lon="-2.219559" lat="53.122886"><ele>203.752777</ele><time>2022-03-04T12:57:46Z</time><extensions><speed>1.131763</speed><course>304.437347</course><hAcc>1.631921</hAcc><vAcc>0.826955</vAcc></extensions></trkpt>
      <trkpt lon="-2.219572" lat="53.122892"><ele>203.656693</ele><time>2022-03-04T12:57:47Z</time><extensions><speed>1.052405</speed><course>303.551056</course><hAcc>1.644129</hAcc><vAcc>0.826989</vAcc></extensions></trkpt>
      <trkpt lon="-2.219585" lat="53.122897"><ele>203.573090</ele><time>2022-03-04T12:57:48Z</time><extensions><speed>1.094204</speed><course>306.337067</course><hAcc>1.648735</hAcc><vAcc>0.827015</vAcc></extensions></trkpt>
      <trkpt lon="-2.219599" lat="53.122904"><ele>203.496506</ele><time>2022-03-04T12:57:49Z</time><extensions><speed>1.157197</speed><course>308.426758</course><hAcc>1.639385</hAcc><vAcc>0.827047</vAcc></extensions></trkpt>
      <trkpt lon="-2.219612" lat="53.122910"><ele>203.414688</ele><time>2022-03-04T12:57:50Z</time><extensions><speed>1.144055</speed><course>310.743927</course><hAcc>1.633324</hAcc><vAcc>0.827082</vAcc></extensions></trkpt>
      <trkpt lon="-2.219624" lat="53.122917"><ele>203.334320</ele><time>2022-03-04T12:57:51Z</time><extensions><speed>1.106696</speed><course>314.622314</course><hAcc>1.610427</hAcc><vAcc>0.827128</vAcc></extensions></trkpt>
      <trkpt lon="-2.219636" lat="53.122924"><ele>203.272369</ele><time>2022-03-04T12:57:52Z</time><extensions><speed>1.151663</speed><course>314.996552</course><hAcc>1.587105</hAcc><vAcc>0.827186</vAcc></extensions></trkpt>
      <trkpt lon="-2.219649" lat="53.122932"><ele>203.225479</ele><time>2022-03-04T12:57:53Z</time><extensions><speed>1.217831</speed><course>313.432800</course><hAcc>1.589381</hAcc><vAcc>0.827266</vAcc></extensions></trkpt>
      <trkpt lon="-2.219662" lat="53.122939"><ele>203.162735</ele><time>2022-03-04T12:57:54Z</time><extensions><speed>1.240449</speed><course>314.048859</course><hAcc>1.601361</hAcc><vAcc>0.827351</vAcc></extensions></trkpt>
      <trkpt lon="-2.219675" lat="53.122947"><ele>203.101685</ele><time>2022-03-04T12:57:55Z</time><extensions><speed>1.217576</speed><course>315.339813</course><hAcc>1.591043</hAcc><vAcc>0.827443</vAcc></extensions></trkpt>
      <trkpt lon="-2.219687" lat="53.122954"><ele>203.034363</ele><time>2022-03-04T12:57:56Z</time><extensions><speed>1.135788</speed><course>317.953064</course><hAcc>1.598583</hAcc><vAcc>0.827544</vAcc></extensions></trkpt>
      <trkpt lon="-2.219698" lat="53.122962"><ele>202.951187</ele><time>2022-03-04T12:57:57Z</time><extensions><speed>1.071599</speed><course>320.785736</course><hAcc>1.551210</hAcc><vAcc>0.827627</vAcc></extensions></trkpt>
      <trkpt lon="-2.219707" lat="53.122969"><ele>202.862930</ele><time>2022-03-04T12:57:58Z</time><extensions><speed>1.031189</speed><course>322.765533</course><hAcc>1.510225</hAcc><vAcc>0.827718</vAcc></extensions></trkpt>
      <trkpt lon="-2.219717" lat="53.122976"><ele>202.773178</ele><time>2022-03-04T12:57:59Z</time><extensions><speed>1.095350</speed><course>321.232666</course><hAcc>1.476828</hAcc><vAcc>0.827804</vAcc></extensions></trkpt>
      <trkpt lon="-2.219728" lat="53.122984"><ele>202.660782</ele><time>2022-03-04T12:58:00Z</time><extensions><speed>1.263346</speed><course>322.050781</course><hAcc>1.466505</hAcc><vAcc>0.827892</vAcc></extensions></trkpt>
      <trkpt lon="-2.219740" lat="53.122994"><ele>202.546082</ele><time>2022-03-04T12:58:01Z</time><extensions><speed>1.387040</speed><course>323.459869</course><hAcc>1.484169</hAcc><vAcc>0.827967</vAcc></extensions></trkpt>
      <trkpt lon="-2.219753" lat="53.123004"><ele>202.422318</ele><time>2022-03-04T12:58:02Z</time><extensions><speed>1.424421</speed><course>320.693085</course><hAcc>1.466836</hAcc><vAcc>0.828015</vAcc></extensions></trkpt>
      <trkpt lon="-2.219767" lat="53.123013"><ele>202.279053</ele><time>2022-03-04T12:58:03Z</time><extensions><speed>1.417844</speed><course>315.472565</course><hAcc>1.465445</hAcc><vAcc>0.828029</vAcc></extensions></trkpt>
      <trkpt lon="-2.219781" lat="53.123022"><ele>202.124847</ele><time>2022-03-04T12:58:04Z</time><extensions><speed>1.424262</speed><course>319.256104</course><hAcc>1.469474</hAcc><vAcc>0.828009</vAcc></extensions></trkpt>
      <trkpt lon="-2.219795" lat="53.123032"><ele>201.958069</ele><time>2022-03-04T12:58:05Z</time><extensions><speed>1.380297</speed><course>317.500031</course><hAcc>1.477661</hAcc><vAcc>0.827950</vAcc></extensions></trkpt>
      <trkpt lon="-2.219808" lat="53.123040"><ele>201.787827</ele><time>2022-03-04T12:58:06Z</time><extensions><speed>1.216180</speed><course>316.471985</course><hAcc>1.484786</hAcc><vAcc>0.827857</vAcc></extensions></trkpt>
      <trkpt lon="-2.219820" lat="53.123047"><ele>201.606339</ele><time>2022-03-04T12:58:07Z</time><extensions><speed>0.896178</speed><course>312.220276</course><hAcc>1.486715</hAcc><vAcc>0.827742</vAcc></extensions></trkpt>
      <trkpt lon="-2.219829" lat="53.123052"><ele>201.426041</ele><time>2022-03-04T12:58:08Z</time><extensions><speed>0.813657</speed><course>308.880432</course><hAcc>1.540926</hAcc><vAcc>0.827616</vAcc></extensions></trkpt>
      <trkpt lon="-2.219840" lat="53.123057"><ele>201.227203</ele><time>2022-03-04T12:58:09Z</time><extensions><speed>0.976464</speed><course>310.258423</course><hAcc>1.600822</hAcc><vAcc>0.827476</vAcc></extensions></trkpt>
      <trkpt lon="-2.219851" lat="53.123063"><ele>201.026947</ele><time>2022-03-04T12:58:10Z</time><extensions><speed>0.985131</speed><course>313.641174</course><hAcc>1.635767</hAcc><vAcc>0.827334</vAcc></extensions></trkpt>
      <trkpt lon="-2.219861" lat="53.123070"><ele>200.818665</ele><time>2022-03-04T12:58:11Z</time><extensions><speed>1.062038</speed><course>316.570557</course><hAcc>1.659878</hAcc><vAcc>0.827204</vAcc></extensions></trkpt>
      <trkpt lon="-2.219872" lat="53.123077"><ele>200.611282</ele><time>2022-03-04T12:58:12Z</time><extensions><speed>1.071616</speed><course>318.611511</course><hAcc>1.671171</hAcc><vAcc>0.827076</vAcc></extensions></trkpt>
      <trkpt lon="-2.219883" lat="53.123084"><ele>200.399124</ele><time>2022-03-04T12:58:13Z</time><extensions><speed>1.085577</speed><course>319.656006</course><hAcc>1.678118</hAcc><vAcc>0.826963</vAcc></extensions></trkpt>
      <trkpt lon="-2.219893" lat="53.123092"><ele>200.181198</ele><time>2022-03-04T12:58:14Z</time><extensions><speed>1.104961</speed><course>322.290955</course><hAcc>1.679255</hAcc><vAcc>0.826866</vAcc></extensions></trkpt>
      <trkpt lon="-2.219903" lat="53.123100"><ele>199.964111</ele><time>2022-03-04T12:58:15Z</time><extensions><speed>1.156629</speed><course>322.127930</course><hAcc>1.676927</hAcc><vAcc>0.826779</vAcc></extensions></trkpt>
      <trkpt lon="-2.219914" lat="53.123108"><ele>199.746490</ele><time>2022-03-04T12:58:16Z</time><extensions><speed>1.198908</speed><course>322.167084</course><hAcc>1.671459</hAcc><vAcc>0.826706</vAcc></extensions></trkpt>
      <trkpt lon="-2.219925" lat="53.123116"><ele>199.534393</ele><time>2022-03-04T12:58:17Z</time><extensions><speed>1.184618</speed><course>322.522705</course><hAcc>1.664455</hAcc><vAcc>0.826651</vAcc></extensions></trkpt>
      <trkpt lon="-2.219935" lat="53.123125"><ele>199.310684</ele><time>2022-03-04T12:58:18Z</time><extensions><speed>1.126340</speed><course>322.728058</course><hAcc>1.667334</hAcc><vAcc>0.826601</vAcc></extensions></trkpt>
      <trkpt lon="-2.219945" lat="53.123133"><ele>199.087051</ele><time>2022-03-04T12:58:19Z</time><extensions><speed>1.055374</speed><course>322.424591</course><hAcc>1.676228</hAcc><vAcc>0.826560</vAcc></extensions></trkpt>
      <trkpt lon="-2.219955" lat="53.123140"><ele>198.868713</ele><time>2022-03-04T12:58:20Z</time><extensions><speed>1.081959</speed><course>319.594421</course><hAcc>1.663109</hAcc><vAcc>0.826522</vAcc></extensions></trkpt>
      <trkpt lon="-2.219966" lat="53.123147"><ele>198.660049</ele><time>2022-03-04T12:58:21Z</time><extensions><speed>1.094044</speed><course>315.444824</course><hAcc>1.667243</hAcc><vAcc>0.826489</vAcc></extensions></trkpt>
      <trkpt lon="-2.219978" lat="53.123154"><ele>198.448792</ele><time>2022-03-04T12:58:22Z</time><extensions><speed>1.148890</speed><course>313.551208</course><hAcc>1.665385</hAcc><vAcc>0.826484</vAcc></extensions></trkpt>
      <trkpt lon="-2.219991" lat="53.123161"><ele>198.228668</ele><time>2022-03-04T12:58:23Z</time><extensions><speed>1.143074</speed><course>312.038879</course><hAcc>1.668903</hAcc><vAcc>0.826469</vAcc></extensions></trkpt>
      <trkpt lon="-2.220003" lat="53.123168"><ele>198.023529</ele><time>2022-03-04T12:58:24Z</time><extensions><speed>1.075685</speed><course>309.943817</course><hAcc>1.677681</hAcc><vAcc>0.826466</vAcc></extensions></trkpt>
      <trkpt lon="-2.220016" lat="53.123174"><ele>197.827820</ele><time>2022-03-04T12:58:25Z</time><extensions><speed>1.066940</speed><course>309.250854</course><hAcc>1.681461</hAcc><vAcc>0.826459</vAcc></extensions></trkpt>
      <trkpt lon="-2.220028" lat="53.123180"><ele>197.634262</ele><time>2022-03-04T12:58:26Z</time><extensions><speed>1.120991</speed><course>308.292938</course><hAcc>1.671265</hAcc><vAcc>0.826439</vAcc></extensions></trkpt>
      <trkpt lon="-2.220042" lat="53.123187"><ele>197.453537</ele><time>2022-03-04T12:58:27Z</time><extensions><speed>1.162796</speed><course>307.894501</course><hAcc>1.663545</hAcc><vAcc>0.826425</vAcc></extensions></trkpt>
      <trkpt lon="-2.220055" lat="53.123193"><ele>197.281967</ele><time>2022-03-04T12:58:28Z</time><extensions><speed>1.124978</speed><course>307.976715</course><hAcc>1.653929</hAcc><vAcc>0.826419</vAcc></extensions></trkpt>
      <trkpt lon="-2.220068" lat="53.123199"><ele>197.115417</ele><time>2022-03-04T12:58:29Z</time><extensions><speed>1.053741</speed><course>310.371460</course><hAcc>1.638047</hAcc><vAcc>0.826382</vAcc></extensions></trkpt>
      <trkpt lon="-2.220079" lat="53.123205"><ele>196.953766</ele><time>2022-03-04T12:58:30Z</time><extensions><speed>0.961349</speed><course>314.838837</course><hAcc>1.614995</hAcc><vAcc>0.826342</vAcc></extensions></trkpt>
      <trkpt lon="-2.220088" lat="53.123212"><ele>196.800903</ele><time>2022-03-04T12:58:31Z</time><extensions><speed>0.884040</speed><course>320.452454</course><hAcc>1.621594</hAcc><vAcc>0.826291</vAcc></extensions></trkpt>
      <trkpt lon="-2.220096" lat="53.123218"><ele>196.656647</ele><time>2022-03-04T12:58:32Z</time><extensions><speed>0.824003</speed><course>325.299744</course><hAcc>1.662821</hAcc><vAcc>0.826246</vAcc></extensions></trkpt>
      <trkpt lon="-2.220102" lat="53.123225"><ele>196.519867</ele><time>2022-03-04T12:58:33Z</time><extensions><speed>0.915702</speed><course>335.436584</course><hAcc>1.614477</hAcc><vAcc>0.826220</vAcc></extensions></trkpt>
      <trkpt lon="-2.220107" lat="53.123233"><ele>196.382050</ele><time>2022-03-04T12:58:34Z</time><extensions><speed>1.011144</speed><course>341.266510</course><hAcc>1.596761</hAcc><vAcc>0.826204</vAcc></extensions></trkpt>
      <trkpt lon="-2.220112" lat="53.123241"><ele>196.246368</ele><time>2022-03-04T12:58:35Z</time><extensions><speed>1.051669</speed><course>343.248169</course><hAcc>1.599936</hAcc><vAcc>0.826193</vAcc></extensions></trkpt>
      <trkpt lon="-2.220116" lat="53.123250"><ele>196.109070</ele><time>2022-03-04T12:58:36Z</time><extensions><speed>1.025971</speed><course>345.056549</course><hAcc>1.604570</hAcc><vAcc>0.826198</vAcc></extensions></trkpt>
      <trkpt lon="-2.220120" lat="53.123259"><ele>195.979034</ele><time>2022-03-04T12:58:37Z</time><extensions><speed>1.022110</speed><course>346.532440</course><hAcc>1.615209</hAcc><vAcc>0.826236</vAcc></extensions></trkpt>
      <trkpt lon="-2.220124" lat="53.123269"><ele>195.842697</ele><time>2022-03-04T12:58:38Z</time><extensions><speed>1.116193</speed><course>345.853516</course><hAcc>1.616588</hAcc><vAcc>0.826292</vAcc></extensions></trkpt>
      <trkpt lon="-2.220129" lat="53.123278"><ele>195.702362</ele><time>2022-03-04T12:58:39Z</time><extensions><speed>1.220420</speed><course>343.256561</course><hAcc>1.592426</hAcc><vAcc>0.826374</vAcc></extensions></trkpt>
      <trkpt lon="-2.220135" lat="53.123289"><ele>195.557175</ele><time>2022-03-04T12:58:40Z</time><extensions><speed>1.318452</speed><course>339.392181</course><hAcc>1.574754</hAcc><vAcc>0.826477</vAcc></extensions></trkpt>
      <trkpt lon="-2.220142" lat="53.123300"><ele>195.419296</ele><time>2022-03-04T12:58:41Z</time><extensions><speed>1.381572</speed><course>336.184875</course><hAcc>1.526826</hAcc><vAcc>0.826582</vAcc></extensions></trkpt>
      <trkpt lon="-2.220151" lat="53.123311"><ele>195.283951</ele><time>2022-03-04T12:58:42Z</time><extensions><speed>1.396038</speed><course>334.194763</course><hAcc>1.495680</hAcc><vAcc>0.826670</vAcc></extensions></trkpt>
      <trkpt lon="-2.220160" lat="53.123323"><ele>195.142731</ele><time>2022-03-04T12:58:43Z</time><extensions><speed>1.429615</speed><course>334.919312</course><hAcc>1.501886</hAcc><vAcc>0.826764</vAcc></extensions></trkpt>
      <trkpt lon="-2.220169" lat="53.123334"><ele>194.998734</ele><time>2022-03-04T12:58:44Z</time><extensions><speed>1.383888</speed><course>337.020782</course><hAcc>1.472884</hAcc><vAcc>0.826833</vAcc></extensions></trkpt>
      <trkpt lon="-2.220177" lat="53.123345"><ele>194.846634</ele><time>2022-03-04T12:58:45Z</time><extensions><speed>1.346695</speed><course>337.106995</course><hAcc>1.428843</hAcc><vAcc>0.826885</vAcc></extensions></trkpt>
      <trkpt lon="-2.220185" lat="53.123357"><ele>194.685593</ele><time>2022-03-04T12:58:46Z</time><extensions><speed>1.419582</speed><course>335.644501</course><hAcc>1.439668</hAcc><vAcc>0.826949</vAcc></extensions></trkpt>
      <trkpt lon="-2.220195" lat="53.123368"><ele>194.521164</ele><time>2022-03-04T12:58:47Z</time><extensions><speed>1.483000</speed><course>331.610992</course><hAcc>1.447491</hAcc><vAcc>0.826989</vAcc></extensions></trkpt>
      <trkpt lon="-2.220206" lat="53.123380"><ele>194.363312</ele><time>2022-03-04T12:58:48Z</time><extensions><speed>1.441671</speed><course>327.008484</course><hAcc>1.443295</hAcc><vAcc>0.827004</vAcc></extensions></trkpt>
      <trkpt lon="-2.220217" lat="53.123390"><ele>194.196289</ele><time>2022-03-04T12:58:49Z</time><extensions><speed>1.366499</speed><course>325.300720</course><hAcc>1.439419</hAcc><vAcc>0.827005</vAcc></extensions></trkpt>
      <trkpt lon="-2.220229" lat="53.123400"><ele>194.032776</ele><time>2022-03-04T12:58:50Z</time><extensions><speed>1.296673</speed><course>324.189301</course><hAcc>1.455555</hAcc><vAcc>0.827013</vAcc></extensions></trkpt>
      <trkpt lon="-2.220240" lat="53.123409"><ele>193.860046</ele><time>2022-03-04T12:58:51Z</time><extensions><speed>1.170811</speed><course>322.738037</course><hAcc>1.489009</hAcc><vAcc>0.827017</vAcc></extensions></trkpt>
      <trkpt lon="-2.220250" lat="53.123417"><ele>193.705658</ele><time>2022-03-04T12:58:52Z</time><extensions><speed>1.129209</speed><course>323.282562</course><hAcc>1.501145</hAcc><vAcc>0.827042</vAcc></extensions></trkpt>
      <trkpt lon="-2.220260" lat="53.123425"><ele>193.554916</ele><time>2022-03-04T12:58:53Z</time><extensions><speed>1.086701</speed><course>324.165070</course><hAcc>1.536848</hAcc><vAcc>0.827091</vAcc></extensions></trkpt>
      <trkpt lon="-2.220269" lat="53.123433"><ele>193.409698</ele><time>2022-03-04T12:58:54Z</time><extensions><speed>1.030872</speed><course>325.362030</course><hAcc>1.550558</hAcc><vAcc>0.827176</vAcc></extensions></trkpt>
      <trkpt lon="-2.220277" lat="53.123440"><ele>193.278946</ele><time>2022-03-04T12:58:56Z</time><extensions><speed>1.005060</speed><course>328.546600</course><hAcc>1.552056</hAcc><vAcc>0.827297</vAcc></extensions></trkpt>
      <trkpt lon="-2.220285" lat="53.123448"><ele>193.141846</ele><time>2022-03-04T12:58:57Z</time><extensions><speed>1.021993</speed><course>330.204742</course><hAcc>1.533363</hAcc><vAcc>0.827405</vAcc></extensions></trkpt>
      <trkpt lon="-2.220293" lat="53.123456"><ele>193.009354</ele><time>2022-03-04T12:58:58Z</time><extensions><speed>1.119372</speed><course>329.231720</course><hAcc>1.490767</hAcc><vAcc>0.827491</vAcc></extensions></trkpt>
      <trkpt lon="-2.220302" lat="53.123465"><ele>192.871460</ele><time>2022-03-04T12:58:59Z</time><extensions><speed>1.300364</speed><course>327.200043</course><hAcc>1.441458</hAcc><vAcc>0.827576</vAcc></extensions></trkpt>
      <trkpt lon="-2.220313" lat="53.123475"><ele>192.744431</ele><time>2022-03-04T12:59:00Z</time><extensions><speed>1.457910</speed><course>325.788422</course><hAcc>1.454526</hAcc><vAcc>0.827643</vAcc></extensions></trkpt>
      <trkpt lon="-2.220325" lat="53.123486"><ele>192.619568</ele><time>2022-03-04T12:59:01Z</time><extensions><speed>1.488046</speed><course>329.916229</course><hAcc>1.438990</hAcc><vAcc>0.827718</vAcc></extensions></trkpt>
      <trkpt lon="-2.220336" lat="53.123498"><ele>192.490967</ele><time>2022-03-04T12:59:02Z</time><extensions><speed>1.464269</speed><course>333.279083</course><hAcc>1.421024</hAcc><vAcc>0.827758</vAcc></extensions></trkpt>
      <trkpt lon="-2.220345" lat="53.123510"><ele>192.375702</ele><time>2022-03-04T12:59:03Z</time><extensions><speed>1.428375</speed><course>336.900238</course><hAcc>1.410271</hAcc><vAcc>0.827766</vAcc></extensions></trkpt>
      <trkpt lon="-2.220352" lat="53.123521"><ele>192.251205</ele><time>2022-03-04T12:59:04Z</time><extensions><speed>1.410909</speed><course>339.445007</course><hAcc>1.419276</hAcc><vAcc>0.827734</vAcc></extensions></trkpt>
      <trkpt lon="-2.220360" lat="53.123533"><ele>192.118195</ele><time>2022-03-04T12:59:05Z</time><extensions><speed>1.417705</speed><course>336.648590</course><hAcc>1.441649</hAcc><vAcc>0.827664</vAcc></extensions></trkpt>
      <trkpt lon="-2.220369" lat="53.123544"><ele>191.968369</ele><time>2022-03-04T12:59:06Z</time><extensions><speed>1.292088</speed><course>333.103912</course><hAcc>1.434756</hAcc><vAcc>0.827560</vAcc></extensions></trkpt>
      <trkpt lon="-2.220378" lat="53.123554"><ele>191.822586</ele><time>2022-03-04T12:59:07Z</time><extensions><speed>1.151159</speed><course>328.629883</course><hAcc>1.457830</hAcc><vAcc>0.827418</vAcc></extensions></trkpt>
      <trkpt lon="-2.220387" lat="53.123562"><ele>191.682800</ele><time>2022-03-04T12:59:08Z</time><extensions><speed>1.067025</speed><course>326.109802</course><hAcc>1.483693</hAcc><vAcc>0.827248</vAcc></extensions></trkpt>
      <trkpt lon="-2.220395" lat="53.123570"><ele>191.537643</ele><time>2022-03-04T12:59:09Z</time><extensions><speed>1.031296</speed><course>327.468414</course><hAcc>1.532333</hAcc><vAcc>0.827078</vAcc></extensions></trkpt>
      <trkpt lon="-2.220403" lat="53.123578"><ele>191.378769</ele><time>2022-03-04T12:59:10Z</time><extensions><speed>1.025035</speed><course>329.911591</course><hAcc>1.574882</hAcc><vAcc>0.826909</vAcc></extensions></trkpt>
      <trkpt lon="-2.220410" lat="53.123586"><ele>191.214157</ele><time>2022-03-04T12:59:11Z</time><extensions><speed>1.110052</speed><course>334.765747</course><hAcc>1.615715</hAcc><vAcc>0.826744</vAcc></extensions></trkpt>
      <trkpt lon="-2.220417" lat="53.123596"><ele>191.037643</ele><time>2022-03-04T12:59:12Z</time><extensions><speed>1.162864</speed><course>338.822815</course><hAcc>1.622851</hAcc><vAcc>0.826575</vAcc></extensions></trkpt>
      <trkpt lon="-2.220423" lat="53.123606"><ele>190.856369</ele><time>2022-03-04T12:59:13Z</time><extensions><speed>1.192018</speed><course>342.915527</course><hAcc>1.630496</hAcc><vAcc>0.826437</vAcc></extensions></trkpt>
      <trkpt lon="-2.220428" lat="53.123616"><ele>190.669907</ele><time>2022-03-04T12:59:14Z</time><extensions><speed>1.235698</speed><course>344.860046</course><hAcc>1.631300</hAcc><vAcc>0.826337</vAcc></extensions></trkpt>
      <trkpt lon="-2.220432" lat="53.123627"><ele>190.484406</ele><time>2022-03-04T12:59:15Z</time><extensions><speed>1.226743</speed><course>346.472412</course><hAcc>1.635191</hAcc><vAcc>0.826261</vAcc></extensions></trkpt>
      <trkpt lon="-2.220437" lat="53.123638"><ele>190.314865</ele><time>2022-03-04T12:59:16Z</time><extensions><speed>1.229174</speed><course>346.074890</course><hAcc>1.652116</hAcc><vAcc>0.826209</vAcc></extensions></trkpt>
      <trkpt lon="-2.220441" lat="53.123648"><ele>190.129501</ele><time>2022-03-04T12:59:17Z</time><extensions><speed>1.215528</speed><course>348.008545</course><hAcc>1.645497</hAcc><vAcc>0.826173</vAcc></extensions></trkpt>
      <trkpt lon="-2.220444" lat="53.123659"><ele>189.942947</ele><time>2022-03-04T12:59:18Z</time><extensions><speed>1.221947</speed><course>349.716278</course><hAcc>1.641632</hAcc><vAcc>0.826183</vAcc></extensions></trkpt>
      <trkpt lon="-2.220448" lat="53.123670"><ele>189.751144</ele><time>2022-03-04T12:59:19Z</time><extensions><speed>1.182441</speed><course>348.852081</course><hAcc>1.639799</hAcc><vAcc>0.826231</vAcc></extensions></trkpt>
      <trkpt lon="-2.220451" lat="53.123680"><ele>189.564697</ele><time>2022-03-04T12:59:20Z</time><extensions><speed>1.141581</speed><course>347.800507</course><hAcc>1.634738</hAcc><vAcc>0.826308</vAcc></extensions></trkpt>
      <trkpt lon="-2.220455" lat="53.123690"><ele>189.388565</ele><time>2022-03-04T12:59:21Z</time><extensions><speed>1.122206</speed><course>347.198761</course><hAcc>1.630801</hAcc><vAcc>0.826370</vAcc></extensions></trkpt>
      <trkpt lon="-2.220459" lat="53.123700"><ele>189.206253</ele><time>2022-03-04T12:59:22Z</time><extensions><speed>1.127550</speed><course>347.509430</course><hAcc>1.619082</hAcc><vAcc>0.826437</vAcc></extensions></trkpt>
      <trkpt lon="-2.220462" lat="53.123710"><ele>189.029190</ele><time>2022-03-04T12:59:23Z</time><extensions><speed>1.144016</speed><course>349.582031</course><hAcc>1.626705</hAcc><vAcc>0.826533</vAcc></extensions></trkpt>
      <trkpt lon="-2.220465" lat="53.123720"><ele>188.837997</ele><time>2022-03-04T12:59:24Z</time><extensions><speed>1.162899</speed><course>348.975800</course><hAcc>1.610062</hAcc><vAcc>0.826614</vAcc></extensions></trkpt>
      <trkpt lon="-2.220469" lat="53.123731"><ele>188.657440</ele><time>2022-03-04T12:59:25Z</time><extensions><speed>1.195748</speed><course>347.319550</course><hAcc>1.598572</hAcc><vAcc>0.826687</vAcc></extensions></trkpt>
      <trkpt lon="-2.220473" lat="53.123742"><ele>188.489120</ele><time>2022-03-04T12:59:26Z</time><extensions><speed>1.231055</speed><course>345.443329</course><hAcc>1.588346</hAcc><vAcc>0.826737</vAcc></extensions></trkpt>
      <trkpt lon="-2.220478" lat="53.123752"><ele>188.324371</ele><time>2022-03-04T12:59:27Z</time><extensions><speed>1.084392</speed><course>342.647095</course><hAcc>1.580078</hAcc><vAcc>0.826757</vAcc></extensions></trkpt>
      <trkpt lon="-2.220483" lat="53.123760"><ele>188.155930</ele><time>2022-03-04T12:59:28Z</time><extensions><speed>0.913623</speed><course>340.589478</course><hAcc>1.602857</hAcc><vAcc>0.826759</vAcc></extensions></trkpt>
      <trkpt lon="-2.220488" lat="53.123768"><ele>187.976959</ele><time>2022-03-04T12:59:29Z</time><extensions><speed>0.906461</speed><course>338.602844</course><hAcc>1.603832</hAcc><vAcc>0.826737</vAcc></extensions></trkpt>
      <trkpt lon="-2.220493" lat="53.123776"><ele>187.800400</ele><time>2022-03-04T12:59:30Z</time><extensions><speed>1.032140</speed><course>338.571686</course><hAcc>1.608972</hAcc><vAcc>0.826685</vAcc></extensions></trkpt>
      <trkpt lon="-2.220499" lat="53.123785"><ele>187.619568</ele><time>2022-03-04T12:59:31Z</time><extensions><speed>1.158476</speed><course>337.635590</course><hAcc>1.590253</hAcc><vAcc>0.826605</vAcc></extensions></trkpt>
      <trkpt lon="-2.220506" lat="53.123795"><ele>187.436630</ele><time>2022-03-04T12:59:32Z</time><extensions><speed>1.166163</speed><course>336.092773</course><hAcc>1.597155</hAcc><vAcc>0.826502</vAcc></extensions></trkpt>
      <trkpt lon="-2.220513" lat="53.123804"><ele>187.255783</ele><time>2022-03-04T12:59:33Z</time><extensions><speed>1.146307</speed><course>333.769104</course><hAcc>1.627080</hAcc><vAcc>0.826362</vAcc></extensions></trkpt>
      <trkpt lon="-2.220522" lat="53.123813"><ele>187.062347</ele><time>2022-03-04T12:59:34Z</time><extensions><speed>1.183597</speed><course>329.897552</course><hAcc>1.643303</hAcc><vAcc>0.826181</vAcc></extensions></trkpt>
      <trkpt lon="-2.220531" lat="53.123822"><ele>186.876205</ele><time>2022-03-04T12:59:35Z</time><extensions><speed>1.202702</speed><course>326.274597</course><hAcc>1.649403</hAcc><vAcc>0.825982</vAcc></extensions></trkpt>
      <trkpt lon="-2.220541" lat="53.123832"><ele>186.683487</ele><time>2022-03-04T12:59:36Z</time><extensions><speed>1.258253</speed><course>324.119568</course><hAcc>1.649808</hAcc><vAcc>0.825814</vAcc></extensions></trkpt>
      <trkpt lon="-2.220553" lat="53.123841"><ele>186.495956</ele><time>2022-03-04T12:59:37Z</time><extensions><speed>1.302394</speed><course>321.192383</course><hAcc>1.659044</hAcc><vAcc>0.825647</vAcc></extensions></trkpt>
      <trkpt lon="-2.220565" lat="53.123850"><ele>186.311752</ele><time>2022-03-04T12:59:38Z</time><extensions><speed>1.309467</speed><course>319.875824</course><hAcc>1.669585</hAcc><vAcc>0.825490</vAcc></extensions></trkpt>
      <trkpt lon="-2.220578" lat="53.123859"><ele>186.136887</ele><time>2022-03-04T12:59:39Z</time><extensions><speed>1.288922</speed><course>320.333496</course><hAcc>1.677993</hAcc><vAcc>0.825372</vAcc></extensions></trkpt>
      <trkpt lon="-2.220589" lat="53.123868"><ele>185.951294</ele><time>2022-03-04T12:59:40Z</time><extensions><speed>1.208155</speed><course>324.688324</course><hAcc>1.682994</hAcc><vAcc>0.825249</vAcc></extensions></trkpt>
      <trkpt lon="-2.220598" lat="53.123877"><ele>185.754868</ele><time>2022-03-04T12:59:41Z</time><extensions><speed>1.147844</speed><course>331.690643</course><hAcc>1.681648</hAcc><vAcc>0.825148</vAcc></extensions></trkpt>
      <trkpt lon="-2.220605" lat="53.123886"><ele>185.557999</ele><time>2022-03-04T12:59:42Z</time><extensions><speed>1.117196</speed><course>337.711090</course><hAcc>1.669984</hAcc><vAcc>0.825074</vAcc></extensions></trkpt>
      <trkpt lon="-2.220611" lat="53.123895"><ele>185.357407</ele><time>2022-03-04T12:59:43Z</time><extensions><speed>1.016245</speed><course>343.940918</course><hAcc>1.649871</hAcc><vAcc>0.825056</vAcc></extensions></trkpt>
      <trkpt lon="-2.220615" lat="53.123904"><ele>185.165695</ele><time>2022-03-04T12:59:44Z</time><extensions><speed>1.094274</speed><course>346.371674</course><hAcc>1.627406</hAcc><vAcc>0.825084</vAcc></extensions></trkpt>
      <trkpt lon="-2.220619" lat="53.123914"><ele>184.982391</ele><time>2022-03-04T12:59:45Z</time><extensions><speed>1.087506</speed><course>345.649353</course><hAcc>1.624734</hAcc><vAcc>0.825162</vAcc></extensions></trkpt>
      <trkpt lon="-2.220623" lat="53.123923"><ele>184.807907</ele><time>2022-03-04T12:59:46Z</time><extensions><speed>1.072852</speed><course>343.119720</course><hAcc>1.651885</hAcc><vAcc>0.825289</vAcc></extensions></trkpt>
      <trkpt lon="-2.220628" lat="53.123933"><ele>184.633835</ele><time>2022-03-04T12:59:47Z</time><extensions><speed>1.150308</speed><course>342.422119</course><hAcc>1.638875</hAcc><vAcc>0.825409</vAcc></extensions></trkpt>
      <trkpt lon="-2.220633" lat="53.123943"><ele>184.465820</ele><time>2022-03-04T12:59:47Z</time><extensions><speed>1.246460</speed><course>342.988831</course><hAcc>1.609859</hAcc><vAcc>0.825548</vAcc></extensions></trkpt>
      <trkpt lon="-2.220639" lat="53.123954"><ele>184.296677</ele><time>2022-03-04T12:59:48Z</time><extensions><speed>1.276479</speed><course>342.181091</course><hAcc>1.602282</hAcc><vAcc>0.825649</vAcc></extensions></trkpt>
      <trkpt lon="-2.220644" lat="53.123965"><ele>184.132339</ele><time>2022-03-04T12:59:49Z</time><extensions><speed>1.165185</speed><course>343.469604</course><hAcc>1.582290</hAcc><vAcc>0.825743</vAcc></extensions></trkpt>
      <trkpt lon="-2.220648" lat="53.123975"><ele>183.979294</ele><time>2022-03-04T12:59:50Z</time><extensions><speed>1.116955</speed><course>345.749573</course><hAcc>1.561961</hAcc><vAcc>0.825849</vAcc></extensions></trkpt>
      <trkpt lon="-2.220652" lat="53.123985"><ele>183.831024</ele><time>2022-03-04T12:59:51Z</time><extensions><speed>1.091007</speed><course>347.028625</course><hAcc>1.550380</hAcc><vAcc>0.825943</vAcc></extensions></trkpt>
      <trkpt lon="-2.220656" lat="53.123995"><ele>183.689285</ele><time>2022-03-04T12:59:52Z</time><extensions><speed>1.126433</speed><course>345.192291</course><hAcc>1.567646</hAcc><vAcc>0.825948</vAcc></extensions></trkpt>
      <trkpt lon="-2.220661" lat="53.124005"><ele>183.562515</ele><time>2022-03-04T12:59:53Z</time><extensions><speed>1.095904</speed><course>342.589752</course><hAcc>1.576940</hAcc><vAcc>0.825924</vAcc></extensions></trkpt>
      <trkpt lon="-2.220665" lat="53.124014"><ele>183.449478</ele><time>2022-03-04T12:59:54Z</time><extensions><speed>0.986769</speed><course>345.658508</course><hAcc>1.588675</hAcc><vAcc>0.825810</vAcc></extensions></trkpt>
      <trkpt lon="-2.220668" lat="53.124023"><ele>183.343506</ele><time>2022-03-04T12:59:55Z</time><extensions><speed>1.045604</speed><course>348.431519</course><hAcc>1.571963</hAcc><vAcc>0.825697</vAcc></extensions></trkpt>
      <trkpt lon="-2.220671" lat="53.124033"><ele>183.234177</ele><time>2022-03-04T12:59:56Z</time><extensions><speed>1.179073</speed><course>352.700348</course><hAcc>1.551372</hAcc><vAcc>0.825525</vAcc></extensions></trkpt>
      <trkpt lon="-2.220673" lat="53.124044"><ele>183.135651</ele><time>2022-03-04T12:59:57Z</time><extensions><speed>1.322528</speed><course>354.662079</course><hAcc>1.575734</hAcc><vAcc>0.825309</vAcc></extensions></trkpt>
      <trkpt lon="-2.220675" lat="53.124056"><ele>183.039261</ele><time>2022-03-04T12:59:58Z</time><extensions><speed>1.422304</speed><course>355.629730</course><hAcc>1.596411</hAcc><vAcc>0.825038</vAcc></extensions></trkpt>
      <trkpt lon="-2.220676" lat="53.124069"><ele>182.945786</ele><time>2022-03-04T12:59:59Z</time><extensions><speed>1.387659</speed><course>356.387360</course><hAcc>1.615667</hAcc><vAcc>0.824726</vAcc></extensions></trkpt>
      <trkpt lon="-2.220677" lat="53.124081"><ele>182.854797</ele><time>2022-03-04T13:00:00Z</time><extensions><speed>1.294425</speed><course>356.908569</course><hAcc>1.629567</hAcc><vAcc>0.824338</vAcc></extensions></trkpt>
      <trkpt lon="-2.220678" lat="53.124093"><ele>182.773102</ele><time>2022-03-04T13:00:01Z</time><extensions><speed>1.204883</speed><course>357.842377</course><hAcc>1.636867</hAcc><vAcc>0.823923</vAcc></extensions></trkpt>
      <trkpt lon="-2.220678" lat="53.124103"><ele>182.695190</ele><time>2022-03-04T13:00:02Z</time><extensions><speed>1.180024</speed><course>357.369751</course><hAcc>1.642824</hAcc><vAcc>0.823483</vAcc></extensions></trkpt>
      <trkpt lon="-2.220679" lat="53.124114"><ele>182.624863</ele><time>2022-03-04T13:00:03Z</time><extensions><speed>1.117944</speed><course>356.171082</course><hAcc>1.666744</hAcc><vAcc>0.823092</vAcc></extensions></trkpt>
      <trkpt lon="-2.220681" lat="53.124125"><ele>182.566269</ele><time>2022-03-04T13:00:04Z</time><extensions><speed>1.327520</speed><course>355.913055</course><hAcc>1.651310</hAcc><vAcc>0.822723</vAcc></extensions></trkpt>
      <trkpt lon="-2.220682" lat="53.124137"><ele>182.522110</ele><time>2022-03-04T13:00:05Z</time><extensions><speed>1.310726</speed><course>355.189362</course><hAcc>1.660753</hAcc><vAcc>0.822402</vAcc></extensions></trkpt>
      <trkpt lon="-2.220683" lat="53.124148"><ele>182.494873</ele><time>2022-03-04T13:00:06Z</time><extensions><speed>1.141479</speed><course>358.689484</course><hAcc>1.679117</hAcc><vAcc>0.822142</vAcc></extensions></trkpt>
      <trkpt lon="-2.220682" lat="53.124158"><ele>182.471603</ele><time>2022-03-04T13:00:07Z</time><extensions><speed>1.187990</speed><course>6.359112</course><hAcc>1.682404</hAcc><vAcc>0.821889</vAcc></extensions></trkpt>
      <trkpt lon="-2.220679" lat="53.124168"><ele>182.459885</ele><time>2022-03-04T13:00:08Z</time><extensions><speed>1.088422</speed><course>15.292745</course><hAcc>1.693197</hAcc><vAcc>0.821720</vAcc></extensions></trkpt>
      <trkpt lon="-2.220674" lat="53.124177"><ele>182.456528</ele><time>2022-03-04T13:00:09Z</time><extensions><speed>0.965281</speed><course>23.034750</course><hAcc>1.707043</hAcc><vAcc>0.821663</vAcc></extensions></trkpt>
      <trkpt lon="-2.220669" lat="53.124184"><ele>182.463165</ele><time>2022-03-04T13:00:10Z</time><extensions><speed>0.851018</speed><course>26.550655</course><hAcc>1.708878</hAcc><vAcc>0.821684</vAcc></extensions></trkpt>
      <trkpt lon="-2.220664" lat="53.124191"><ele>182.470108</ele><time>2022-03-04T13:00:11Z</time><extensions><speed>0.702316</speed><course>21.530273</course><hAcc>1.711321</hAcc><vAcc>0.821786</vAcc></extensions></trkpt>
      <trkpt lon="-2.220661" lat="53.124197"><ele>182.474442</ele><time>2022-03-04T13:00:12Z</time><extensions><speed>0.747391</speed><course>12.225184</course><hAcc>1.702379</hAcc><vAcc>0.821970</vAcc></extensions></trkpt>
      <trkpt lon="-2.220660" lat="53.124203"><ele>182.472015</ele><time>2022-03-04T13:00:13Z</time><extensions><speed>0.635155</speed><course>2.708784</course><hAcc>1.715526</hAcc><vAcc>0.822205</vAcc></extensions></trkpt>
      <trkpt lon="-2.220661" lat="53.124208"><ele>182.487473</ele><time>2022-03-04T13:00:14Z</time><extensions><speed>0.352966</speed><course>344.945282</course><hAcc>1.722453</hAcc><vAcc>0.822434</vAcc></extensions></trkpt>
      <trkpt lon="-2.220663" lat="53.124210"><ele>182.501907</ele><time>2022-03-04T13:00:15Z</time><extensions><speed>0.316586</speed><course>318.289978</course><hAcc>1.712773</hAcc><vAcc>0.822618</vAcc></extensions></trkpt>
      <trkpt lon="-2.220667" lat="53.124212"><ele>182.512299</ele><time>2022-03-04T13:00:16Z</time><extensions><speed>0.387039</speed><course>303.595001</course><hAcc>1.703836</hAcc><vAcc>0.822786</vAcc></extensions></trkpt>
      <trkpt lon="-2.220673" lat="53.124214"><ele>182.509445</ele><time>2022-03-04T13:00:17Z</time><extensions><speed>0.475538</speed><course>298.654968</course><hAcc>1.703594</hAcc><vAcc>0.822826</vAcc></extensions></trkpt>
      <trkpt lon="-2.220679" lat="53.124217"><ele>182.498123</ele><time>2022-03-04T13:00:18Z</time><extensions><speed>0.556192</speed><course>298.830475</course><hAcc>1.712025</hAcc><vAcc>0.822750</vAcc></extensions></trkpt>
      <trkpt lon="-2.220687" lat="53.124219"><ele>182.482895</ele><time>2022-03-04T13:00:19Z</time><extensions><speed>0.636244</speed><course>302.821747</course><hAcc>1.721244</hAcc><vAcc>0.822504</vAcc></extensions></trkpt>
      <trkpt lon="-2.220695" lat="53.124223"><ele>182.489548</ele><time>2022-03-04T13:00:20Z</time><extensions><speed>0.752317</speed><course>309.516266</course><hAcc>1.721974</hAcc><vAcc>0.822231</vAcc></extensions></trkpt>
      <trkpt lon="-2.220705" lat="53.124229"><ele>182.479065</ele><time>2022-03-04T13:00:21Z</time><extensions><speed>0.981945</speed><course>317.045074</course><hAcc>1.714847</hAcc><vAcc>0.821827</vAcc></extensions></trkpt>
      <trkpt lon="-2.220715" lat="53.124235"><ele>182.469269</ele><time>2022-03-04T13:00:22Z</time><extensions><speed>1.018386</speed><course>318.640564</course><hAcc>1.729984</hAcc><vAcc>0.821352</vAcc></extensions></trkpt>
      <trkpt lon="-2.220725" lat="53.124242"><ele>182.449051</ele><time>2022-03-04T13:00:23Z</time><extensions><speed>1.051481</speed><course>321.719940</course><hAcc>1.743951</hAcc><vAcc>0.820726</vAcc></extensions></trkpt>
      <trkpt lon="-2.220734" lat="53.124250"><ele>182.408951</ele><time>2022-03-04T13:00:24Z</time><extensions><speed>1.065928</speed><course>325.528351</course><hAcc>1.750065</hAcc><vAcc>0.819986</vAcc></extensions></trkpt>
      <trkpt lon="-2.220742" lat="53.124258"><ele>182.374527</ele><time>2022-03-04T13:00:25Z</time><extensions><speed>1.025323</speed><course>331.542572</course><hAcc>1.752109</hAcc><vAcc>0.819237</vAcc></extensions></trkpt>
      <trkpt lon="-2.220749" lat="53.124266"><ele>182.318298</ele><time>2022-03-04T13:00:26Z</time><extensions><speed>0.982136</speed><course>337.566772</course><hAcc>1.744115</hAcc><vAcc>0.818463</vAcc></extensions></trkpt>
      <trkpt lon="-2.220754" lat="53.124275"><ele>182.265488</ele><time>2022-03-04T13:00:27Z</time><extensions><speed>1.031553</speed><course>342.124542</course><hAcc>1.736374</hAcc><vAcc>0.817681</vAcc></extensions></trkpt>
      <trkpt lon="-2.220759" lat="53.124284"><ele>182.200714</ele><time>2022-03-04T13:00:28Z</time><extensions><speed>1.093440</speed><course>344.956940</course><hAcc>1.737819</hAcc><vAcc>0.816917</vAcc></extensions></trkpt>
      <trkpt lon="-2.220763" lat="53.124294"><ele>182.127396</ele><time>2022-03-04T13:00:29Z</time><extensions><speed>1.179809</speed><course>344.894135</course><hAcc>1.734816</hAcc><vAcc>0.816127</vAcc></extensions></trkpt>
      <trkpt lon="-2.220768" lat="53.124304"><ele>182.063034</ele><time>2022-03-04T13:00:30Z</time><extensions><speed>1.213552</speed><course>343.078064</course><hAcc>1.733319</hAcc><vAcc>0.815438</vAcc></extensions></trkpt>
      <trkpt lon="-2.220774" lat="53.124315"><ele>181.999466</ele><time>2022-03-04T13:00:31Z</time><extensions><speed>1.202599</speed><course>338.894226</course><hAcc>1.716271</hAcc><vAcc>0.814944</vAcc></extensions></trkpt>
      <trkpt lon="-2.220781" lat="53.124325"><ele>181.911545</ele><time>2022-03-04T13:00:32Z</time><extensions><speed>1.192228</speed><course>333.770020</course><hAcc>1.703528</hAcc><vAcc>0.814513</vAcc></extensions></trkpt>
      <trkpt lon="-2.220790" lat="53.124335"><ele>181.822220</ele><time>2022-03-04T13:00:33Z</time><extensions><speed>1.282749</speed><course>328.496002</course><hAcc>1.679368</hAcc><vAcc>0.814121</vAcc></extensions></trkpt>
      <trkpt lon="-2.220801" lat="53.124344"><ele>181.738663</ele><time>2022-03-04T13:00:34Z</time><extensions><speed>1.260960</speed><course>321.968872</course><hAcc>1.681745</hAcc><vAcc>0.813788</vAcc></extensions></trkpt>
      <trkpt lon="-2.220812" lat="53.124353"><ele>181.645126</ele><time>2022-03-04T13:00:35Z</time><extensions><speed>1.300832</speed><course>320.654266</course><hAcc>1.699644</hAcc><vAcc>0.813556</vAcc></extensions></trkpt>
      <trkpt lon="-2.220824" lat="53.124363"><ele>181.548798</ele><time>2022-03-04T13:00:36Z</time><extensions><speed>1.267820</speed><course>325.565491</course><hAcc>1.702458</hAcc><vAcc>0.813368</vAcc></extensions></trkpt>
      <trkpt lon="-2.220833" lat="53.124372"><ele>181.445190</ele><time>2022-03-04T13:00:37Z</time><extensions><speed>1.158722</speed><course>334.043549</course><hAcc>1.703620</hAcc><vAcc>0.813263</vAcc></extensions></trkpt>
      <trkpt lon="-2.220839" lat="53.124382"><ele>181.360199</ele><time>2022-03-04T13:00:38Z</time><extensions><speed>1.135641</speed><course>347.376984</course><hAcc>1.681263</hAcc><vAcc>0.813255</vAcc></extensions></trkpt>
      <trkpt lon="-2.220841" lat="53.124393"><ele>181.262146</ele><time>2022-03-04T13:00:39Z</time><extensions><speed>1.250807</speed><course>354.793091</course><hAcc>1.683201</hAcc><vAcc>0.813366</vAcc></extensions></trkpt>
      <trkpt lon="-2.220843" lat="53.124404"><ele>181.187119</ele><time>2022-03-04T13:00:40Z</time><extensions><speed>1.393003</speed><course>355.032684</course><hAcc>1.704769</hAcc><vAcc>0.813582</vAcc></extensions></trkpt>
      <trkpt lon="-2.220845" lat="53.124417"><ele>181.110703</ele><time>2022-03-04T13:00:41Z</time><extensions><speed>1.364924</speed><course>353.691345</course><hAcc>1.727733</hAcc><vAcc>0.813844</vAcc></extensions></trkpt>
      <trkpt lon="-2.220848" lat="53.124429"><ele>181.009232</ele><time>2022-03-04T13:00:42Z</time><extensions><speed>1.409844</speed><course>353.587799</course><hAcc>1.721136</hAcc><vAcc>0.814160</vAcc></extensions></trkpt>
      <trkpt lon="-2.220850" lat="53.124442"><ele>180.914780</ele><time>2022-03-04T13:00:43Z</time><extensions><speed>1.476581</speed><course>354.555237</course><hAcc>1.714513</hAcc><vAcc>0.814509</vAcc></extensions></trkpt>
      <trkpt lon="-2.220852" lat="53.124455"><ele>180.836609</ele><time>2022-03-04T13:00:44Z</time><extensions><speed>1.452373</speed><course>354.173065</course><hAcc>1.717951</hAcc><vAcc>0.814849</vAcc></extensions></trkpt>
      <trkpt lon="-2.220855" lat="53.124468"><ele>180.762955</ele><time>2022-03-04T13:00:45Z</time><extensions><speed>1.308973</speed><course>349.394135</course><hAcc>1.718268</hAcc><vAcc>0.815264</vAcc></extensions></trkpt>
      <trkpt lon="-2.220860" lat="53.124479"><ele>180.680298</ele><time>2022-03-04T13:00:46Z</time><extensions><speed>1.272760</speed><course>344.226288</course><hAcc>1.709152</hAcc><vAcc>0.815676</vAcc></extensions></trkpt>
      <trkpt lon="-2.220866" lat="53.124490"><ele>180.593536</ele><time>2022-03-04T13:00:47Z</time><extensions><speed>1.221474</speed><course>337.976898</course><hAcc>1.701751</hAcc><vAcc>0.816090</vAcc></extensions></trkpt>
      <trkpt lon="-2.220874" lat="53.124500"><ele>180.492523</ele><time>2022-03-04T13:00:48Z</time><extensions><speed>1.288352</speed><course>333.021149</course><hAcc>1.698155</hAcc><vAcc>0.816499</vAcc></extensions></trkpt>
      <trkpt lon="-2.220884" lat="53.124510"><ele>180.392303</ele><time>2022-03-04T13:00:49Z</time><extensions><speed>1.288980</speed><course>329.075104</course><hAcc>1.696732</hAcc><vAcc>0.816924</vAcc></extensions></trkpt>
      <trkpt lon="-2.220894" lat="53.124520"><ele>180.282593</ele><time>2022-03-04T13:00:50Z</time><extensions><speed>1.285509</speed><course>326.490906</course><hAcc>1.693246</hAcc><vAcc>0.817307</vAcc></extensions></trkpt>
      <trkpt lon="-2.220905" lat="53.124529"><ele>180.158966</ele><time>2022-03-04T13:00:51Z</time><extensions><speed>1.261416</speed><course>321.104462</course><hAcc>1.685603</hAcc><vAcc>0.817655</vAcc></extensions></trkpt>
      <trkpt lon="-2.220918" lat="53.124537"><ele>180.034424</ele><time>2022-03-04T13:00:52Z</time><extensions><speed>1.147894</speed><course>312.836121</course><hAcc>1.685794</hAcc><vAcc>0.818031</vAcc></extensions></trkpt>
      <trkpt lon="-2.220931" lat="53.124544"><ele>179.905914</ele><time>2022-03-04T13:00:53Z</time><extensions><speed>1.200943</speed><course>308.115021</course><hAcc>1.680879</hAcc><vAcc>0.818418</vAcc></extensions></trkpt>
      <trkpt lon="-2.220948" lat="53.124551"><ele>179.780426</ele><time>2022-03-04T13:00:54Z</time><extensions><speed>1.435261</speed><course>303.486084</course><hAcc>1.672129</hAcc><vAcc>0.818760</vAcc></extensions></trkpt>
      <trkpt lon="-2.220967" lat="53.124558"><ele>179.631714</ele><time>2022-03-04T13:00:55Z</time><extensions><speed>1.570438</speed><course>300.814453</course><hAcc>1.685707</hAcc><vAcc>0.819029</vAcc></extensions></trkpt>
      <trkpt lon="-2.220988" lat="53.124565"><ele>179.469650</ele><time>2022-03-04T13:00:56Z</time><extensions><speed>1.663504</speed><course>296.953583</course><hAcc>1.678854</hAcc><vAcc>0.819267</vAcc></extensions></trkpt>
      <trkpt lon="-2.221010" lat="53.124572"><ele>179.278183</ele><time>2022-03-04T13:00:57Z</time><extensions><speed>1.620768</speed><course>295.858643</course><hAcc>1.684414</hAcc><vAcc>0.819444</vAcc></extensions></trkpt>
      <trkpt lon="-2.221032" lat="53.124578"><ele>179.112717</ele><time>2022-03-04T13:00:58Z</time><extensions><speed>1.600035</speed><course>295.846313</course><hAcc>1.676492</hAcc><vAcc>0.819592</vAcc></extensions></trkpt>
      <trkpt lon="-2.221053" lat="53.124585"><ele>178.947052</ele><time>2022-03-04T13:00:59Z</time><extensions><speed>1.530029</speed><course>298.162689</course><hAcc>1.675658</hAcc><vAcc>0.819729</vAcc></extensions></trkpt>
      <trkpt lon="-2.221073" lat="53.124591"><ele>178.750504</ele><time>2022-03-04T13:01:00Z</time><extensions><speed>1.431795</speed><course>300.604156</course><hAcc>1.664428</hAcc><vAcc>0.819837</vAcc></extensions></trkpt>
      <trkpt lon="-2.221091" lat="53.124598"><ele>178.522339</ele><time>2022-03-04T13:01:02Z</time><extensions><speed>1.391843</speed><course>301.982849</course><hAcc>1.673244</hAcc><vAcc>0.819912</vAcc></extensions></trkpt>
      <trkpt lon="-2.221107" lat="53.124604"><ele>178.289215</ele><time>2022-03-04T13:01:03Z</time><extensions><speed>1.178216</speed><course>302.499878</course><hAcc>1.704038</hAcc><vAcc>0.819935</vAcc></extensions></trkpt>
      <trkpt lon="-2.221124" lat="53.124611"><ele>178.055145</ele><time>2022-03-04T13:01:04Z</time><extensions><speed>1.418067</speed><course>305.012543</course><hAcc>1.668652</hAcc><vAcc>0.819961</vAcc></extensions></trkpt>
      <trkpt lon="-2.221142" lat="53.124619"><ele>177.818268</ele><time>2022-03-04T13:01:05Z</time><extensions><speed>1.581162</speed><course>306.876190</course><hAcc>1.650403</hAcc><vAcc>0.819986</vAcc></extensions></trkpt>
      <trkpt lon="-2.221161" lat="53.124628"><ele>177.553024</ele><time>2022-03-04T13:01:06Z</time><extensions><speed>1.610260</speed><course>308.551300</course><hAcc>1.648048</hAcc><vAcc>0.820055</vAcc></extensions></trkpt>
      <trkpt lon="-2.221179" lat="53.124637"><ele>177.284088</ele><time>2022-03-04T13:01:07Z</time><extensions><speed>1.516150</speed><course>311.232697</course><hAcc>1.619369</hAcc><vAcc>0.820200</vAcc></extensions></trkpt>
      <trkpt lon="-2.221196" lat="53.124646"><ele>177.004074</ele><time>2022-03-04T13:01:08Z</time><extensions><speed>1.573774</speed><course>312.334442</course><hAcc>1.587759</hAcc><vAcc>0.820393</vAcc></extensions></trkpt>
      <trkpt lon="-2.221214" lat="53.124656"><ele>176.702011</ele><time>2022-03-04T13:01:09Z</time><extensions><speed>1.827277</speed><course>314.879974</course><hAcc>1.586891</hAcc><vAcc>0.820579</vAcc></extensions></trkpt>
      <trkpt lon="-2.221232" lat="53.124668"><ele>176.419800</ele><time>2022-03-04T13:01:10Z</time><extensions><speed>1.666086</speed><course>315.291779</course><hAcc>1.633761</hAcc><vAcc>0.820743</vAcc></extensions></trkpt>
      <trkpt lon="-2.221250" lat="53.124678"><ele>176.135315</ele><time>2022-03-04T13:01:11Z</time><extensions><speed>1.574920</speed><course>312.000305</course><hAcc>1.624108</hAcc><vAcc>0.820879</vAcc></extensions></trkpt>
      <trkpt lon="-2.221266" lat="53.124687"><ele>175.843369</ele><time>2022-03-04T13:01:12Z</time><extensions><speed>1.399658</speed><course>309.378784</course><hAcc>1.582169</hAcc><vAcc>0.821050</vAcc></extensions></trkpt>
      <trkpt lon="-2.221281" lat="53.124694"><ele>175.548981</ele><time>2022-03-04T13:01:13Z</time><extensions><speed>1.140857</speed><course>306.035309</course><hAcc>1.567875</hAcc><vAcc>0.821103</vAcc></extensions></trkpt>
      <trkpt lon="-2.221294" lat="53.124699"><ele>175.255020</ele><time>2022-03-04T13:01:14Z</time><extensions><speed>0.948314</speed><course>308.758057</course><hAcc>1.583215</hAcc><vAcc>0.821068</vAcc></extensions></trkpt>
      <trkpt lon="-2.221304" lat="53.124705"><ele>174.956070</ele><time>2022-03-04T13:01:15Z</time><extensions><speed>0.898471</speed><course>316.609711</course><hAcc>1.582381</hAcc><vAcc>0.820934</vAcc></extensions></trkpt>
      <trkpt lon="-2.221312" lat="53.124711"><ele>174.652924</ele><time>2022-03-04T13:01:16Z</time><extensions><speed>0.850439</speed><course>325.795380</course><hAcc>1.582378</hAcc><vAcc>0.820677</vAcc></extensions></trkpt>
      <trkpt lon="-2.221318" lat="53.124718"><ele>174.366409</ele><time>2022-03-04T13:01:17Z</time><extensions><speed>0.829719</speed><course>333.786560</course><hAcc>1.616937</hAcc><vAcc>0.820345</vAcc></extensions></trkpt>
      <trkpt lon="-2.221324" lat="53.124725"><ele>174.077377</ele><time>2022-03-04T13:01:18Z</time><extensions><speed>0.863459</speed><course>333.231995</course><hAcc>1.660262</hAcc><vAcc>0.819905</vAcc></extensions></trkpt>
      <trkpt lon="-2.221329" lat="53.124732"><ele>173.792755</ele><time>2022-03-04T13:01:19Z</time><extensions><speed>0.986798</speed><course>340.250275</course><hAcc>1.600695</hAcc><vAcc>0.819432</vAcc></extensions></trkpt>
      <trkpt lon="-2.221335" lat="53.124742"><ele>173.516907</ele><time>2022-03-04T13:01:20Z</time><extensions><speed>1.126344</speed><course>341.411621</course><hAcc>1.575066</hAcc><vAcc>0.818910</vAcc></extensions></trkpt>
      <trkpt lon="-2.221340" lat="53.124751"><ele>173.255157</ele><time>2022-03-04T13:01:21Z</time><extensions><speed>1.189088</speed><course>340.651276</course><hAcc>1.601871</hAcc><vAcc>0.818407</vAcc></extensions></trkpt>
      <trkpt lon="-2.221347" lat="53.124762"><ele>172.981705</ele><time>2022-03-04T13:01:22Z</time><extensions><speed>1.212528</speed><course>339.162537</course><hAcc>1.646216</hAcc><vAcc>0.817922</vAcc></extensions></trkpt>
      <trkpt lon="-2.221353" lat="53.124772"><ele>172.713730</ele><time>2022-03-04T13:01:23Z</time><extensions><speed>1.173712</speed><course>340.674622</course><hAcc>1.637300</hAcc><vAcc>0.817463</vAcc></extensions></trkpt>
      <trkpt lon="-2.221358" lat="53.124781"><ele>172.458923</ele><time>2022-03-04T13:01:24Z</time><extensions><speed>1.078259</speed><course>341.984497</course><hAcc>1.646383</hAcc><vAcc>0.817097</vAcc></extensions></trkpt>
      <trkpt lon="-2.221364" lat="53.124791"><ele>172.216766</ele><time>2022-03-04T13:01:25Z</time><extensions><speed>1.201676</speed><course>341.203430</course><hAcc>1.635803</hAcc><vAcc>0.816824</vAcc></extensions></trkpt>
      <trkpt lon="-2.221370" lat="53.124801"><ele>171.967209</ele><time>2022-03-04T13:01:26Z</time><extensions><speed>1.224469</speed><course>339.038147</course><hAcc>1.645361</hAcc><vAcc>0.816713</vAcc></extensions></trkpt>
      <trkpt lon="-2.221377" lat="53.124812"><ele>171.707077</ele><time>2022-03-04T13:01:27Z</time><extensions><speed>1.272529</speed><course>335.586670</course><hAcc>1.649261</hAcc><vAcc>0.816758</vAcc></extensions></trkpt>
      <trkpt lon="-2.221386" lat="53.124822"><ele>171.431259</ele><time>2022-03-04T13:01:28Z</time><extensions><speed>1.284810</speed><course>327.534027</course><hAcc>1.654771</hAcc><vAcc>0.816975</vAcc></extensions></trkpt>
      <trkpt lon="-2.221398" lat="53.124831"><ele>171.162842</ele><time>2022-03-04T13:01:29Z</time><extensions><speed>1.352795</speed><course>320.588684</course><hAcc>1.660971</hAcc><vAcc>0.817341</vAcc></extensions></trkpt>
      <trkpt lon="-2.221411" lat="53.124841"><ele>170.898682</ele><time>2022-03-04T13:01:30Z</time><extensions><speed>1.371529</speed><course>315.918152</course><hAcc>1.648428</hAcc><vAcc>0.817813</vAcc></extensions></trkpt>
      <trkpt lon="-2.221427" lat="53.124849"><ele>170.627365</ele><time>2022-03-04T13:01:31Z</time><extensions><speed>1.439046</speed><course>311.456970</course><hAcc>1.632992</hAcc><vAcc>0.818369</vAcc></extensions></trkpt>
      <trkpt lon="-2.221443" lat="53.124858"><ele>170.354691</ele><time>2022-03-04T13:01:32Z</time><extensions><speed>1.466490</speed><course>307.389893</course><hAcc>1.636871</hAcc><vAcc>0.818959</vAcc></extensions></trkpt>
      <trkpt lon="-2.221461" lat="53.124865"><ele>170.090530</ele><time>2022-03-04T13:01:33Z</time><extensions><speed>1.466094</speed><course>306.209839</course><hAcc>1.632603</hAcc><vAcc>0.819514</vAcc></extensions></trkpt>
      <trkpt lon="-2.221478" lat="53.124873"><ele>169.833664</ele><time>2022-03-04T13:01:34Z</time><extensions><speed>1.407799</speed><course>305.943024</course><hAcc>1.652366</hAcc><vAcc>0.820038</vAcc></extensions></trkpt>
      <trkpt lon="-2.221495" lat="53.124880"><ele>169.572205</ele><time>2022-03-04T13:01:35Z</time><extensions><speed>1.299466</speed><course>304.529724</course><hAcc>1.624987</hAcc><vAcc>0.820496</vAcc></extensions></trkpt>
      <trkpt lon="-2.221510" lat="53.124887"><ele>169.299301</ele><time>2022-03-04T13:01:36Z</time><extensions><speed>1.213600</speed><course>304.684509</course><hAcc>1.611570</hAcc><vAcc>0.820859</vAcc></extensions></trkpt>
      <trkpt lon="-2.221525" lat="53.124893"><ele>169.048477</ele><time>2022-03-04T13:01:37Z</time><extensions><speed>1.151973</speed><course>306.710236</course><hAcc>1.612635</hAcc><vAcc>0.821126</vAcc></extensions></trkpt>
      <trkpt lon="-2.221538" lat="53.124899"><ele>168.798737</ele><time>2022-03-04T13:01:38Z</time><extensions><speed>1.091207</speed><course>305.665955</course><hAcc>1.628619</hAcc><vAcc>0.821357</vAcc></extensions></trkpt>
      <trkpt lon="-2.221551" lat="53.124905"><ele>168.554443</ele><time>2022-03-04T13:01:39Z</time><extensions><speed>1.061312</speed><course>308.074615</course><hAcc>1.635838</hAcc><vAcc>0.821512</vAcc></extensions></trkpt>
      <trkpt lon="-2.221564" lat="53.124911"><ele>168.316025</ele><time>2022-03-04T13:01:40Z</time><extensions><speed>1.151304</speed><course>311.536713</course><hAcc>1.626308</hAcc><vAcc>0.821589</vAcc></extensions></trkpt>
      <trkpt lon="-2.221577" lat="53.124919"><ele>168.103882</ele><time>2022-03-04T13:01:41Z</time><extensions><speed>1.260474</speed><course>312.165802</course><hAcc>1.610646</hAcc><vAcc>0.821604</vAcc></extensions></trkpt>
      <trkpt lon="-2.221591" lat="53.124926"><ele>167.928894</ele><time>2022-03-04T13:01:42Z</time><extensions><speed>1.291878</speed><course>312.780182</course><hAcc>1.589522</hAcc><vAcc>0.821566</vAcc></extensions></trkpt>
      <trkpt lon="-2.221604" lat="53.124934"><ele>167.771881</ele><time>2022-03-04T13:01:43Z</time><extensions><speed>1.185404</speed><course>315.798309</course><hAcc>1.574031</hAcc><vAcc>0.821496</vAcc></extensions></trkpt>
      <trkpt lon="-2.221616" lat="53.124942"><ele>167.605377</ele><time>2022-03-04T13:01:44Z</time><extensions><speed>1.090014</speed><course>320.816315</course><hAcc>1.575360</hAcc><vAcc>0.821437</vAcc></extensions></trkpt>
      <trkpt lon="-2.221626" lat="53.124950"><ele>167.448563</ele><time>2022-03-04T13:01:45Z</time><extensions><speed>1.164616</speed><course>324.312775</course><hAcc>1.563367</hAcc><vAcc>0.821395</vAcc></extensions></trkpt>
      <trkpt lon="-2.221637" lat="53.124959"><ele>167.305603</ele><time>2022-03-04T13:01:46Z</time><extensions><speed>1.399105</speed><course>325.464630</course><hAcc>1.522035</hAcc><vAcc>0.821414</vAcc></extensions></trkpt>
      <trkpt lon="-2.221649" lat="53.124970"><ele>167.155838</ele><time>2022-03-04T13:01:47Z</time><extensions><speed>1.576603</speed><course>325.005005</course><hAcc>1.500501</hAcc><vAcc>0.821474</vAcc></extensions></trkpt>
      <trkpt lon="-2.221663" lat="53.124981"><ele>166.999451</ele><time>2022-03-04T13:01:48Z</time><extensions><speed>1.549503</speed><course>322.548096</course><hAcc>1.502289</hAcc><vAcc>0.821592</vAcc></extensions></trkpt>
      <trkpt lon="-2.221677" lat="53.124992"><ele>166.848373</ele><time>2022-03-04T13:01:49Z</time><extensions><speed>1.513440</speed><course>323.897217</course><hAcc>1.490778</hAcc><vAcc>0.821733</vAcc></extensions></trkpt>
      <trkpt lon="-2.221689" lat="53.125003"><ele>166.696381</ele><time>2022-03-04T13:01:50Z</time><extensions><speed>1.428001</speed><course>325.595856</course><hAcc>1.425999</hAcc><vAcc>0.821882</vAcc></extensions></trkpt>
      <trkpt lon="-2.221702" lat="53.125013"><ele>166.557800</ele><time>2022-03-04T13:01:51Z</time><extensions><speed>1.465867</speed><course>324.888245</course><hAcc>1.406801</hAcc><vAcc>0.822026</vAcc></extensions></trkpt>
      <trkpt lon="-2.221715" lat="53.125024"><ele>166.405075</ele><time>2022-03-04T13:01:52Z</time><extensions><speed>1.491663</speed><course>324.676025</course><hAcc>1.430204</hAcc><vAcc>0.822156</vAcc></extensions></trkpt>
      <trkpt lon="-2.221727" lat="53.125035"><ele>166.240295</ele><time>2022-03-04T13:01:52Z</time><extensions><speed>1.458938</speed><course>327.217316</course><hAcc>1.430949</hAcc><vAcc>0.822297</vAcc></extensions></trkpt>
      <trkpt lon="-2.221740" lat="53.125046"><ele>166.068756</ele><time>2022-03-04T13:01:53Z</time><extensions><speed>1.493790</speed><course>322.751556</course><hAcc>1.432442</hAcc><vAcc>0.822413</vAcc></extensions></trkpt>
      <trkpt lon="-2.221753" lat="53.125056"><ele>165.893280</ele><time>2022-03-04T13:01:54Z</time><extensions><speed>1.443184</speed><course>324.205780</course><hAcc>1.434400</hAcc><vAcc>0.822474</vAcc></extensions></trkpt>
      <trkpt lon="-2.221766" lat="53.125067"><ele>165.687042</ele><time>2022-03-04T13:01:55Z</time><extensions><speed>1.399262</speed><course>324.755676</course><hAcc>1.452729</hAcc><vAcc>0.822488</vAcc></extensions></trkpt>
      <trkpt lon="-2.221776" lat="53.125076"><ele>165.480408</ele><time>2022-03-04T13:01:56Z</time><extensions><speed>1.189028</speed><course>327.771942</course><hAcc>1.466313</hAcc><vAcc>0.822481</vAcc></extensions></trkpt>
      <trkpt lon="-2.221784" lat="53.125084"><ele>165.273544</ele><time>2022-03-04T13:01:57Z</time><extensions><speed>0.887565</speed><course>329.352295</course><hAcc>1.491278</hAcc><vAcc>0.822472</vAcc></extensions></trkpt>
      <trkpt lon="-2.221792" lat="53.125091"><ele>165.057205</ele><time>2022-03-04T13:01:58Z</time><extensions><speed>0.866460</speed><course>323.108826</course><hAcc>1.513578</hAcc><vAcc>0.822453</vAcc></extensions></trkpt>
      <trkpt lon="-2.221801" lat="53.125097"><ele>164.849960</ele><time>2022-03-04T13:01:59Z</time><extensions><speed>0.973485</speed><course>317.716003</course><hAcc>1.554904</hAcc><vAcc>0.822417</vAcc></extensions></trkpt>
      <trkpt lon="-2.221811" lat="53.125104"><ele>164.627197</ele><time>2022-03-04T13:02:00Z</time><extensions><speed>1.036261</speed><course>318.438141</course><hAcc>1.595084</hAcc><vAcc>0.822386</vAcc></extensions></trkpt>
      <trkpt lon="-2.221821" lat="53.125111"><ele>164.390228</ele><time>2022-03-04T13:02:01Z</time><extensions><speed>1.080662</speed><course>318.900452</course><hAcc>1.619382</hAcc><vAcc>0.822355</vAcc></extensions></trkpt>
      <trkpt lon="-2.221832" lat="53.125119"><ele>164.137497</ele><time>2022-03-04T13:02:02Z</time><extensions><speed>1.149933</speed><course>319.718933</course><hAcc>1.632640</hAcc><vAcc>0.822345</vAcc></extensions></trkpt>
      <trkpt lon="-2.221844" lat="53.125126"><ele>163.863281</ele><time>2022-03-04T13:02:03Z</time><extensions><speed>1.171679</speed><course>318.782928</course><hAcc>1.635217</hAcc><vAcc>0.822330</vAcc></extensions></trkpt>
      <trkpt lon="-2.221855" lat="53.125134"><ele>163.595840</ele><time>2022-03-04T13:02:04Z</time><extensions><speed>1.068474</speed><course>316.582336</course><hAcc>1.643457</hAcc><vAcc>0.822332</vAcc></extensions></trkpt>
      <trkpt lon="-2.221866" lat="53.125140"><ele>163.324142</ele><time>2022-03-04T13:02:05Z</time><extensions><speed>0.998207</speed><course>313.378784</course><hAcc>1.654583</hAcc><vAcc>0.822358</vAcc></extensions></trkpt>
      <trkpt lon="-2.221877" lat="53.125147"><ele>163.050766</ele><time>2022-03-04T13:02:06Z</time><extensions><speed>1.110444</speed><course>314.943207</course><hAcc>1.646554</hAcc><vAcc>0.822411</vAcc></extensions></trkpt>
      <trkpt lon="-2.221889" lat="53.125154"><ele>162.784637</ele><time>2022-03-04T13:02:07Z</time><extensions><speed>1.101301</speed><course>312.081116</course><hAcc>1.636364</hAcc><vAcc>0.822486</vAcc></extensions></trkpt>
      <trkpt lon="-2.221902" lat="53.125161"><ele>162.511658</ele><time>2022-03-04T13:02:08Z</time><extensions><speed>1.141378</speed><course>310.969543</course><hAcc>1.641157</hAcc><vAcc>0.822597</vAcc></extensions></trkpt>
      <trkpt lon="-2.221915" lat="53.125167"><ele>162.238495</ele><time>2022-03-04T13:02:09Z</time><extensions><speed>1.175972</speed><course>311.282135</course><hAcc>1.647077</hAcc><vAcc>0.822742</vAcc></extensions></trkpt>
      <trkpt lon="-2.221928" lat="53.125174"><ele>161.969589</ele><time>2022-03-04T13:02:10Z</time><extensions><speed>1.106750</speed><course>311.301666</course><hAcc>1.654148</hAcc><vAcc>0.822897</vAcc></extensions></trkpt>
      <trkpt lon="-2.221939" lat="53.125180"><ele>161.689865</ele><time>2022-03-04T13:02:11Z</time><extensions><speed>0.900409</speed><course>311.035980</course><hAcc>1.666798</hAcc><vAcc>0.823078</vAcc></extensions></trkpt>
      <trkpt lon="-2.221948" lat="53.125185"><ele>161.418594</ele><time>2022-03-04T13:02:12Z</time><extensions><speed>0.725851</speed><course>314.097717</course><hAcc>1.685627</hAcc><vAcc>0.823266</vAcc></extensions></trkpt>
      <trkpt lon="-2.221957" lat="53.125190"><ele>161.158661</ele><time>2022-03-04T13:02:13Z</time><extensions><speed>0.804030</speed><course>312.215546</course><hAcc>1.666595</hAcc><vAcc>0.823485</vAcc></extensions></trkpt>
      <trkpt lon="-2.221966" lat="53.125195"><ele>160.911911</ele><time>2022-03-04T13:02:14Z</time><extensions><speed>0.894230</speed><course>308.916321</course><hAcc>1.662362</hAcc><vAcc>0.823723</vAcc></extensions></trkpt>
      <trkpt lon="-2.221977" lat="53.125199"><ele>160.680099</ele><time>2022-03-04T13:02:15Z</time><extensions><speed>0.911539</speed><course>303.352692</course><hAcc>1.669940</hAcc><vAcc>0.823983</vAcc></extensions></trkpt>
      <trkpt lon="-2.221989" lat="53.125204"><ele>160.470200</ele><time>2022-03-04T13:02:16Z</time><extensions><speed>0.951500</speed><course>299.680969</course><hAcc>1.677357</hAcc><vAcc>0.824266</vAcc></extensions></trkpt>
      <trkpt lon="-2.222002" lat="53.125208"><ele>160.273758</ele><time>2022-03-04T13:02:17Z</time><extensions><speed>0.955652</speed><course>296.544495</course><hAcc>1.674795</hAcc><vAcc>0.824553</vAcc></extensions></trkpt>
      <trkpt lon="-2.222015" lat="53.125211"><ele>160.096741</ele><time>2022-03-04T13:02:18Z</time><extensions><speed>1.000025</speed><course>296.297394</course><hAcc>1.681043</hAcc><vAcc>0.824831</vAcc></extensions></trkpt>
      <trkpt lon="-2.222029" lat="53.125215"><ele>159.936707</ele><time>2022-03-04T13:02:19Z</time><extensions><speed>1.048431</speed><course>295.555969</course><hAcc>1.699049</hAcc><vAcc>0.825087</vAcc></extensions></trkpt>
      <trkpt lon="-2.222043" lat="53.125219"><ele>159.794922</ele><time>2022-03-04T13:02:20Z</time><extensions><speed>0.983545</speed><course>287.683746</course><hAcc>1.697256</hAcc><vAcc>0.825328</vAcc></extensions></trkpt>
      <trkpt lon="-2.222057" lat="53.125221"><ele>159.673141</ele><time>2022-03-04T13:02:21Z</time><extensions><speed>0.903154</speed><course>275.607758</course><hAcc>1.686157</hAcc><vAcc>0.825559</vAcc></extensions></trkpt>
      <trkpt lon="-2.222070" lat="53.125221"><ele>159.572937</ele><time>2022-03-04T13:02:22Z</time><extensions><speed>0.908587</speed><course>265.935730</course><hAcc>1.688854</hAcc><vAcc>0.825681</vAcc></extensions></trkpt>
      <trkpt lon="-2.222083" lat="53.125220"><ele>159.484741</ele><time>2022-03-04T13:02:23Z</time><extensions><speed>0.884458</speed><course>257.508911</course><hAcc>1.698665</hAcc><vAcc>0.825720</vAcc></extensions></trkpt>
      <trkpt lon="-2.222096" lat="53.125217"><ele>159.411835</ele><time>2022-03-04T13:02:24Z</time><extensions><speed>0.868209</speed><course>249.676849</course><hAcc>1.696985</hAcc><vAcc>0.825628</vAcc></extensions></trkpt>
      <trkpt lon="-2.222107" lat="53.125214"><ele>159.352951</ele><time>2022-03-04T13:02:25Z</time><extensions><speed>0.754807</speed><course>243.307800</course><hAcc>1.699826</hAcc><vAcc>0.825478</vAcc></extensions></trkpt>
      <trkpt lon="-2.222115" lat="53.125211"><ele>159.310394</ele><time>2022-03-04T13:02:26Z</time><extensions><speed>0.542333</speed><course>234.412506</course><hAcc>1.710991</hAcc><vAcc>0.825280</vAcc></extensions></trkpt>
      <trkpt lon="-2.222120" lat="53.125209"><ele>159.275055</ele><time>2022-03-04T13:02:27Z</time><extensions><speed>0.245202</speed><course>218.008041</course><hAcc>1.727847</hAcc><vAcc>0.825004</vAcc></extensions></trkpt>
      <trkpt lon="-2.222121" lat="53.125208"><ele>159.266739</ele><time>2022-03-04T13:02:28Z</time><extensions><speed>0.154422</speed><course>195.057114</course><hAcc>1.721182</hAcc><vAcc>0.824675</vAcc></extensions></trkpt>
      <trkpt lon="-2.222121" lat="53.125206"><ele>159.269516</ele><time>2022-03-04T13:02:29Z</time><extensions><speed>0.107148</speed><course>173.547577</course><hAcc>1.721492</hAcc><vAcc>0.824291</vAcc></extensions></trkpt>
      <trkpt lon="-2.222121" lat="53.125206"><ele>159.275909</ele><time>2022-03-04T13:02:30Z</time><extensions><speed>0.074460</speed><course>148.895538</course><hAcc>1.731437</hAcc><vAcc>0.823869</vAcc></extensions></trkpt>
      <trkpt lon="-2.222120" lat="53.125205"><ele>159.294464</ele><time>2022-03-04T13:02:31Z</time><extensions><speed>0.063546</speed><course>117.150543</course><hAcc>1.740002</hAcc><vAcc>0.823377</vAcc></extensions></trkpt>
      <trkpt lon="-2.222119" lat="53.125205"><ele>159.319412</ele><time>2022-03-04T13:02:32Z</time><extensions><speed>0.068225</speed><course>97.864639</course><hAcc>1.746815</hAcc><vAcc>0.822869</vAcc></extensions></trkpt>
      <trkpt lon="-2.222118" lat="53.125205"><ele>159.349625</ele><time>2022-03-04T13:02:33Z</time><extensions><speed>0.064139</speed><course>92.939484</course><hAcc>1.756103</hAcc><vAcc>0.822369</vAcc></extensions></trkpt>
      <trkpt lon="-2.222117" lat="53.125205"><ele>159.384201</ele><time>2022-03-04T13:02:34Z</time><extensions><speed>0.050385</speed><course>94.734688</course><hAcc>1.760368</hAcc><vAcc>0.821909</vAcc></extensions></trkpt>
      <trkpt lon="-2.222117" lat="53.125205"><ele>159.430389</ele><time>2022-03-04T13:02:35Z</time><extensions><speed>0.031507</speed><course>118.423447</course><hAcc>1.762949</hAcc><vAcc>0.821491</vAcc></extensions></trkpt>
      <trkpt lon="-2.222116" lat="53.125205"><ele>159.483032</ele><time>2022-03-04T13:02:36Z</time><extensions><speed>0.034523</speed><course>176.073853</course><hAcc>1.761489</hAcc><vAcc>0.821066</vAcc></extensions></trkpt>
      <trkpt lon="-2.222117" lat="53.125204"><ele>159.544861</ele><time>2022-03-04T13:02:37Z</time><extensions><speed>0.049306</speed><course>199.955582</course><hAcc>1.757700</hAcc><vAcc>0.820681</vAcc></extensions></trkpt>
      <trkpt lon="-2.222117" lat="53.125204"><ele>159.608261</ele><time>2022-03-04T13:02:38Z</time><extensions><speed>0.051923</speed><course>201.013962</course><hAcc>1.756921</hAcc><vAcc>0.820337</vAcc></extensions></trkpt>
      <trkpt lon="-2.222117" lat="53.125204"><ele>159.672928</ele><time>2022-03-04T13:02:39Z</time><extensions><speed>0.045361</speed><course>175.882309</course><hAcc>1.755708</hAcc><vAcc>0.820008</vAcc></extensions></trkpt>
      <trkpt lon="-2.222117" lat="53.125203"><ele>159.731247</ele><time>2022-03-04T13:02:40Z</time><extensions><speed>0.043629</speed><course>131.518173</course><hAcc>1.753888</hAcc><vAcc>0.819703</vAcc></extensions></trkpt>
      <trkpt lon="-2.222116" lat="53.125203"><ele>159.785431</ele><time>2022-03-04T13:02:41Z</time><extensions><speed>0.051368</speed><course>90.323624</course><hAcc>1.750256</hAcc><vAcc>0.819436</vAcc></extensions></trkpt>
      <trkpt lon="-2.222115" lat="53.125203"><ele>159.840591</ele><time>2022-03-04T13:02:42Z</time><extensions><speed>0.069409</speed><course>62.646416</course><hAcc>1.744255</hAcc><vAcc>0.819152</vAcc></extensions></trkpt>
      <trkpt lon="-2.222114" lat="53.125204"><ele>159.901718</ele><time>2022-03-04T13:02:43Z</time><extensions><speed>0.093690</speed><course>46.442280</course><hAcc>1.743464</hAcc><vAcc>0.818719</vAcc></extensions></trkpt>
      <trkpt lon="-2.222113" lat="53.125204"><ele>159.949448</ele><time>2022-03-04T13:02:44Z</time><extensions><speed>0.115009</speed><course>36.651543</course><hAcc>1.751088</hAcc><vAcc>0.818550</vAcc></extensions></trkpt>
      <trkpt lon="-2.222112" lat="53.125205"><ele>159.992233</ele><time>2022-03-04T13:02:45Z</time><extensions><speed>0.124804</speed><course>27.909962</course><hAcc>1.758509</hAcc><vAcc>0.818472</vAcc></extensions></trkpt>
      <trkpt lon="-2.222112" lat="53.125206"><ele>160.033325</ele><time>2022-03-04T13:02:46Z</time><extensions><speed>0.134030</speed><course>17.548067</course><hAcc>1.747486</hAcc><vAcc>0.818503</vAcc></extensions></trkpt>
      <trkpt lon="-2.222111" lat="53.125207"><ele>160.066620</ele><time>2022-03-04T13:02:47Z</time><extensions><speed>0.107563</speed><course>2.714631</course><hAcc>1.745647</hAcc><vAcc>0.818657</vAcc></extensions></trkpt>
      <trkpt lon="-2.222112" lat="53.125208"><ele>160.088989</ele><time>2022-03-04T13:02:48Z</time><extensions><speed>0.062547</speed><course>323.738342</course><hAcc>1.752772</hAcc><vAcc>0.818862</vAcc></extensions></trkpt>
      <trkpt lon="-2.222112" lat="53.125208"><ele>160.106262</ele><time>2022-03-04T13:02:49Z</time><extensions><speed>0.082834</speed><course>253.949738</course><hAcc>1.760551</hAcc><vAcc>0.818919</vAcc></extensions></trkpt>
      <trkpt lon="-2.222114" lat="53.125208"><ele>160.119034</ele><time>2022-03-04T13:02:50Z</time><extensions><speed>0.158107</speed><course>232.884949</course><hAcc>1.766893</hAcc><vAcc>0.818749</vAcc></extensions></trkpt>
      <trkpt lon="-2.222116" lat="53.125206"><ele>160.127945</ele><time>2022-03-04T13:02:51Z</time><extensions><speed>0.236073</speed><course>226.991623</course><hAcc>1.770415</hAcc><vAcc>0.818533</vAcc></extensions></trkpt>
      <trkpt lon="-2.222119" lat="53.125205"><ele>160.122894</ele><time>2022-03-04T13:02:52Z</time><extensions><speed>0.313608</speed><course>224.055481</course><hAcc>1.766646</hAcc><vAcc>0.818061</vAcc></extensions></trkpt>
      <trkpt lon="-2.222123" lat="53.125202"><ele>160.112869</ele><time>2022-03-04T13:02:53Z</time><extensions><speed>0.403666</speed><course>222.289520</course><hAcc>1.758601</hAcc><vAcc>0.817542</vAcc></extensions></trkpt>
      <trkpt lon="-2.222126" lat="53.125200"><ele>160.098114</ele><time>2022-03-04T13:02:54Z</time><extensions><speed>0.274680</speed><course>220.431458</course><hAcc>1.770770</hAcc><vAcc>0.816816</vAcc></extensions></trkpt>
      <trkpt lon="-2.222128" lat="53.125198"><ele>160.079300</ele><time>2022-03-04T13:02:55Z</time><extensions><speed>0.214694</speed><course>215.725555</course><hAcc>1.775110</hAcc><vAcc>0.815846</vAcc></extensions></trkpt>
      <trkpt lon="-2.222130" lat="53.125197"><ele>160.057098</ele><time>2022-03-04T13:02:56Z</time><extensions><speed>0.180577</speed><course>205.857742</course><hAcc>1.776977</hAcc><vAcc>0.814540</vAcc></extensions></trkpt>
      <trkpt lon="-2.222131" lat="53.125195"><ele>160.021790</ele><time>2022-03-04T13:02:57Z</time><extensions><speed>0.163301</speed><course>192.852707</course><hAcc>1.780148</hAcc><vAcc>0.812724</vAcc></extensions></trkpt>
      <trkpt lon="-2.222131" lat="53.125194"><ele>159.987457</ele><time>2022-03-04T13:02:58Z</time><extensions><speed>0.165612</speed><course>180.121292</course><hAcc>1.777996</hAcc><vAcc>0.811079</vAcc></extensions></trkpt>
      <trkpt lon="-2.222131" lat="53.125192"><ele>159.949020</ele><time>2022-03-04T13:02:59Z</time><extensions><speed>0.164044</speed><course>170.343735</course><hAcc>1.777360</hAcc><vAcc>0.809453</vAcc></extensions></trkpt>
      <trkpt lon="-2.222130" lat="53.125191"><ele>159.914413</ele><time>2022-03-04T13:03:00Z</time><extensions><speed>0.137385</speed><course>159.737198</course><hAcc>1.779473</hAcc><vAcc>0.807935</vAcc></extensions></trkpt>
      <trkpt lon="-2.222129" lat="53.125190"><ele>159.876465</ele><time>2022-03-04T13:03:01Z</time><extensions><speed>0.096375</speed><course>140.467590</course><hAcc>1.779859</hAcc><vAcc>0.806631</vAcc></extensions></trkpt>
      <trkpt lon="-2.222128" lat="53.125190"><ele>159.842331</ele><time>2022-03-04T13:03:02Z</time><extensions><speed>0.073527</speed><course>121.462021</course><hAcc>1.781156</hAcc><vAcc>0.805579</vAcc></extensions></trkpt>
      <trkpt lon="-2.222128" lat="53.125189"><ele>159.803146</ele><time>2022-03-04T13:03:03Z</time><extensions><speed>0.069588</speed><course>124.376869</course><hAcc>1.783798</hAcc><vAcc>0.804734</vAcc></extensions></trkpt>
      <trkpt lon="-2.222127" lat="53.125189"><ele>159.766342</ele><time>2022-03-04T13:03:04Z</time><extensions><speed>0.081201</speed><course>137.985321</course><hAcc>1.786172</hAcc><vAcc>0.803732</vAcc></extensions></trkpt>
      <trkpt lon="-2.222126" lat="53.125188"><ele>159.734161</ele><time>2022-03-04T13:03:05Z</time><extensions><speed>0.115112</speed><course>148.268005</course><hAcc>1.782174</hAcc><vAcc>0.802757</vAcc></extensions></trkpt>
      <trkpt lon="-2.222125" lat="53.125187"><ele>159.696548</ele><time>2022-03-04T13:03:06Z</time><extensions><speed>0.162691</speed><course>153.039474</course><hAcc>1.776521</hAcc><vAcc>0.801966</vAcc></extensions></trkpt>
      <trkpt lon="-2.222124" lat="53.125185"><ele>159.677963</ele><time>2022-03-04T13:03:08Z</time><extensions><speed>0.220275</speed><course>153.857727</course><hAcc>1.763435</hAcc><vAcc>0.801281</vAcc></extensions></trkpt>
      <trkpt lon="-2.222122" lat="53.125184"><ele>159.661194</ele><time>2022-03-04T13:03:09Z</time><extensions><speed>0.236845</speed><course>152.558395</course><hAcc>1.765341</hAcc><vAcc>0.800723</vAcc></extensions></trkpt>
      <trkpt lon="-2.222120" lat="53.125182"><ele>159.647583</ele><time>2022-03-04T13:03:10Z</time><extensions><speed>0.229178</speed><course>150.565918</course><hAcc>1.769763</hAcc><vAcc>0.799907</vAcc></extensions></trkpt>
      <trkpt lon="-2.222119" lat="53.125180"><ele>159.642273</ele><time>2022-03-04T13:03:11Z</time><extensions><speed>0.211011</speed><course>150.236023</course><hAcc>1.774865</hAcc><vAcc>0.798750</vAcc></extensions></trkpt>
      <trkpt lon="-2.222117" lat="53.125178"><ele>159.644455</ele><time>2022-03-04T13:03:12Z</time><extensions><speed>0.188622</speed><course>153.707367</course><hAcc>1.783201</hAcc><vAcc>0.797343</vAcc></extensions></trkpt>
      <trkpt lon="-2.222116" lat="53.125177"><ele>159.651581</ele><time>2022-03-04T13:03:13Z</time><extensions><speed>0.184555</speed><course>160.830353</course><hAcc>1.792321</hAcc><vAcc>0.795656</vAcc></extensions></trkpt>
      <trkpt lon="-2.222115" lat="53.125175"><ele>159.663452</ele><time>2022-03-04T13:03:14Z</time><extensions><speed>0.212863</speed><course>166.455872</course><hAcc>1.807490</hAcc><vAcc>0.793775</vAcc></extensions></trkpt>
      <trkpt lon="-2.222115" lat="53.125173"><ele>159.693436</ele><time>2022-03-04T13:03:15Z</time><extensions><speed>0.283515</speed><course>167.826431</course><hAcc>1.824931</hAcc><vAcc>0.791488</vAcc></extensions></trkpt>
      <trkpt lon="-2.222113" lat="53.125170"><ele>159.725616</ele><time>2022-03-04T13:03:16Z</time><extensions><speed>0.388807</speed><course>167.983444</course><hAcc>1.829802</hAcc><vAcc>0.788079</vAcc></extensions></trkpt>
      <trkpt lon="-2.222112" lat="53.125166"><ele>159.758636</ele><time>2022-03-04T13:03:17Z</time><extensions><speed>0.473041</speed><course>167.190796</course><hAcc>1.823530</hAcc><vAcc>0.785466</vAcc></extensions></trkpt>
      <trkpt lon="-2.222111" lat="53.125163"><ele>159.795303</ele><time>2022-03-04T13:03:18Z</time><extensions><speed>0.325336</speed><course>161.027390</course><hAcc>1.835341</hAcc><vAcc>0.782804</vAcc></extensions></trkpt>
      <trkpt lon="-2.222109" lat="53.125161"><ele>159.829315</ele><time>2022-03-04T13:03:19Z</time><extensions><speed>0.079558</speed><course>114.284996</course><hAcc>1.850717</hAcc><vAcc>0.780422</vAcc></extensions></trkpt>
      <trkpt lon="-2.222108" lat="53.125162"><ele>159.863998</ele><time>2022-03-04T13:03:20Z</time><extensions><speed>0.146375</speed><course>23.906414</course><hAcc>1.837401</hAcc><vAcc>0.778229</vAcc></extensions></trkpt>
      <trkpt lon="-2.222108" lat="53.125164"><ele>159.900375</ele><time>2022-03-04T13:03:21Z</time><extensions><speed>0.221079</speed><course>11.780921</course><hAcc>1.823376</hAcc><vAcc>0.776240</vAcc></extensions></trkpt>
      <trkpt lon="-2.222107" lat="53.125166"><ele>159.936005</ele><time>2022-03-04T13:03:22Z</time><extensions><speed>0.244773</speed><course>5.380420</course><hAcc>1.822168</hAcc><vAcc>0.774517</vAcc></extensions></trkpt>
      <trkpt lon="-2.222107" lat="53.125168"><ele>159.973862</ele><time>2022-03-04T13:03:23Z</time><extensions><speed>0.280255</speed><course>359.483582</course><hAcc>1.812380</hAcc><vAcc>0.773125</vAcc></extensions></trkpt>
      <trkpt lon="-2.222107" lat="53.125171"><ele>160.004440</ele><time>2022-03-04T13:03:24Z</time><extensions><speed>0.322896</speed><course>353.249512</course><hAcc>1.798232</hAcc><vAcc>0.772018</vAcc></extensions></trkpt>
      <trkpt lon="-2.222108" lat="53.125174"><ele>160.024933</ele><time>2022-03-04T13:03:25Z</time><extensions><speed>0.397949</speed><course>345.737091</course><hAcc>1.777320</hAcc><vAcc>0.771431</vAcc></extensions></trkpt>
      <trkpt lon="-2.222110" lat="53.125177"><ele>160.044357</ele><time>2022-03-04T13:03:26Z</time><extensions><speed>0.409151</speed><course>341.165955</course><hAcc>1.795261</hAcc><vAcc>0.771589</vAcc></extensions></trkpt>
      <trkpt lon="-2.222112" lat="53.125180"><ele>160.053909</ele><time>2022-03-04T13:03:27Z</time><extensions><speed>0.274733</speed><course>340.560699</course><hAcc>1.843138</hAcc><vAcc>0.772180</vAcc></extensions></trkpt>
      <trkpt lon="-2.222113" lat="53.125183"><ele>160.058228</ele><time>2022-03-04T13:03:28Z</time><extensions><speed>0.357107</speed><course>340.907440</course><hAcc>1.798441</hAcc><vAcc>0.772880</vAcc></extensions></trkpt>
      <trkpt lon="-2.222115" lat="53.125186"><ele>160.053253</ele><time>2022-03-04T13:03:29Z</time><extensions><speed>0.330563</speed><course>342.828735</course><hAcc>1.776070</hAcc><vAcc>0.772765</vAcc></extensions></trkpt>
      <trkpt lon="-2.222116" lat="53.125188"><ele>160.049393</ele><time>2022-03-04T13:03:30Z</time><extensions><speed>0.270691</speed><course>347.480530</course><hAcc>1.782250</hAcc><vAcc>0.773355</vAcc></extensions></trkpt>
      <trkpt lon="-2.222116" lat="53.125191"><ele>160.041824</ele><time>2022-03-04T13:03:31Z</time><extensions><speed>0.192827</speed><course>354.137177</course><hAcc>1.796977</hAcc><vAcc>0.774151</vAcc></extensions></trkpt>
      <trkpt lon="-2.222117" lat="53.125192"><ele>160.031082</ele><time>2022-03-04T13:03:32Z</time><extensions><speed>0.107919</speed><course>6.532930</course><hAcc>1.812637</hAcc><vAcc>0.774757</vAcc></extensions></trkpt>
      <trkpt lon="-2.222116" lat="53.125192"><ele>160.018906</ele><time>2022-03-04T13:03:33Z</time><extensions><speed>0.049570</speed><course>52.562786</course><hAcc>1.820918</hAcc><vAcc>0.775025</vAcc></extensions></trkpt>
      <trkpt lon="-2.222115" lat="53.125192"><ele>160.004990</ele><time>2022-03-04T13:03:34Z</time><extensions><speed>0.075039</speed><course>114.315987</course><hAcc>1.818597</hAcc><vAcc>0.774976</vAcc></extensions></trkpt>
      <trkpt lon="-2.222114" lat="53.125192"><ele>159.990067</ele><time>2022-03-04T13:03:35Z</time><extensions><speed>0.127527</speed><course>120.236633</course><hAcc>1.823064</hAcc><vAcc>0.774800</vAcc></extensions></trkpt>
      <trkpt lon="-2.222112" lat="53.125191"><ele>159.974915</ele><time>2022-03-04T13:03:36Z</time><extensions><speed>0.235968</speed><course>133.713287</course><hAcc>1.845185</hAcc><vAcc>0.774664</vAcc></extensions></trkpt>
      <trkpt lon="-2.222109" lat="53.125190"><ele>159.960236</ele><time>2022-03-04T13:03:37Z</time><extensions><speed>0.307603</speed><course>124.321815</course><hAcc>1.848814</hAcc><vAcc>0.774813</vAcc></extensions></trkpt>
      <trkpt lon="-2.222105" lat="53.125188"><ele>159.946609</ele><time>2022-03-04T13:03:38Z</time><extensions><speed>0.317898</speed><course>109.040535</course><hAcc>1.844868</hAcc><vAcc>0.775565</vAcc></extensions></trkpt>
      <trkpt lon="-2.222100" lat="53.125188"><ele>159.934479</ele><time>2022-03-04T13:03:39Z</time><extensions><speed>0.289251</speed><course>91.547226</course><hAcc>1.834232</hAcc><vAcc>0.777177</vAcc></extensions></trkpt>
      <trkpt lon="-2.222096" lat="53.125188"><ele>159.920639</ele><time>2022-03-04T13:03:40Z</time><extensions><speed>0.240125</speed><course>77.088699</course><hAcc>1.823284</hAcc><vAcc>0.779633</vAcc></extensions></trkpt>
      <trkpt lon="-2.222093" lat="53.125189"><ele>159.907486</ele><time>2022-03-04T13:03:41Z</time><extensions><speed>0.182746</speed><course>66.827431</course><hAcc>1.817398</hAcc><vAcc>0.782844</vAcc></extensions></trkpt>
      <trkpt lon="-2.222091" lat="53.125189"><ele>159.897614</ele><time>2022-03-04T13:03:42Z</time><extensions><speed>0.138666</speed><course>59.317528</course><hAcc>1.804416</hAcc><vAcc>0.786300</vAcc></extensions></trkpt>
      <trkpt lon="-2.222089" lat="53.125190"><ele>159.891907</ele><time>2022-03-04T13:03:43Z</time><extensions><speed>0.119782</speed><course>54.711643</course><hAcc>1.770700</hAcc><vAcc>0.789571</vAcc></extensions></trkpt>
      <trkpt lon="-2.222088" lat="53.125190"><ele>159.892822</ele><time>2022-03-04T13:03:44Z</time><extensions><speed>0.092514</speed><course>53.425934</course><hAcc>1.750668</hAcc><vAcc>0.792570</vAcc></extensions></trkpt>
      <trkpt lon="-2.222087" lat="53.125191"><ele>159.894363</ele><time>2022-03-04T13:03:45Z</time><extensions><speed>0.069298</speed><course>54.618240</course><hAcc>1.740883</hAcc><vAcc>0.794846</vAcc></extensions></trkpt>
      <trkpt lon="-2.222086" lat="53.125191"><ele>159.902115</ele><time>2022-03-04T13:03:46Z</time><extensions><speed>0.056042</speed><course>58.203632</course><hAcc>1.731988</hAcc><vAcc>0.796998</vAcc></extensions></trkpt>
      <trkpt lon="-2.222086" lat="53.125191"><ele>159.906845</ele><time>2022-03-04T13:03:47Z</time><extensions><speed>0.051528</speed><course>63.809799</course><hAcc>1.731502</hAcc><vAcc>0.798728</vAcc></extensions></trkpt>
      <trkpt lon="-2.222085" lat="53.125192"><ele>159.913040</ele><time>2022-03-04T13:03:48Z</time><extensions><speed>0.049529</speed><course>68.583725</course><hAcc>1.751762</hAcc><vAcc>0.799993</vAcc></extensions></trkpt>
      <trkpt lon="-2.222084" lat="53.125192"><ele>159.930939</ele><time>2022-03-04T13:03:49Z</time><extensions><speed>0.063379</speed><course>70.861565</course><hAcc>1.756777</hAcc><vAcc>0.800808</vAcc></extensions></trkpt>
      <trkpt lon="-2.222083" lat="53.125192"><ele>159.950836</ele><time>2022-03-04T13:03:50Z</time><extensions><speed>0.096845</speed><course>69.017998</course><hAcc>1.744296</hAcc><vAcc>0.801276</vAcc></extensions></trkpt>
      <trkpt lon="-2.222081" lat="53.125192"><ele>159.960159</ele><time>2022-03-04T13:03:51Z</time><extensions><speed>0.124488</speed><course>63.628593</course><hAcc>1.757390</hAcc><vAcc>0.801476</vAcc></extensions></trkpt>
      <trkpt lon="-2.222079" lat="53.125193"><ele>159.982010</ele><time>2022-03-04T13:03:52Z</time><extensions><speed>0.171624</speed><course>54.455868</course><hAcc>1.768909</hAcc><vAcc>0.801650</vAcc></extensions></trkpt>
      <trkpt lon="-2.222077" lat="53.125194"><ele>160.006226</ele><time>2022-03-04T13:03:53Z</time><extensions><speed>0.223919</speed><course>48.713955</course><hAcc>1.774423</hAcc><vAcc>0.801958</vAcc></extensions></trkpt>
      <trkpt lon="-2.222074" lat="53.125196"><ele>160.032547</ele><time>2022-03-04T13:03:54Z</time><extensions><speed>0.258079</speed><course>48.914181</course><hAcc>1.773852</hAcc><vAcc>0.802506</vAcc></extensions></trkpt>
      <trkpt lon="-2.222071" lat="53.125197"><ele>160.052063</ele><time>2022-03-04T13:03:55Z</time><extensions><speed>0.273824</speed><course>52.689308</course><hAcc>1.768074</hAcc><vAcc>0.803327</vAcc></extensions></trkpt>
      <trkpt lon="-2.222068" lat="53.125199"><ele>160.062454</ele><time>2022-03-04T13:03:56Z</time><extensions><speed>0.256804</speed><course>57.458633</course><hAcc>1.773071</hAcc><vAcc>0.804437</vAcc></extensions></trkpt>
      <trkpt lon="-2.222065" lat="53.125200"><ele>160.078018</ele><time>2022-03-04T13:03:57Z</time><extensions><speed>0.231689</speed><course>57.699772</course><hAcc>1.783684</hAcc><vAcc>0.805712</vAcc></extensions></trkpt>
      <trkpt lon="-2.222062" lat="53.125201"><ele>160.079544</ele><time>2022-03-04T13:03:58Z</time><extensions><speed>0.271620</speed><course>48.275227</course><hAcc>1.773076</hAcc><vAcc>0.807079</vAcc></extensions></trkpt>
      <trkpt lon="-2.222059" lat="53.125204"><ele>160.066071</ele><time>2022-03-04T13:03:59Z</time><extensions><speed>0.418928</speed><course>33.321072</course><hAcc>1.742279</hAcc><vAcc>0.808422</vAcc></extensions></trkpt>
      <trkpt lon="-2.222055" lat="53.125208"><ele>160.039398</ele><time>2022-03-04T13:04:00Z</time><extensions><speed>0.683626</speed><course>21.198692</course><hAcc>1.719944</hAcc><vAcc>0.809597</vAcc></extensions></trkpt>
      <trkpt lon="-2.222052" lat="53.125215"><ele>160.011993</ele><time>2022-03-04T13:04:01Z</time><extensions><speed>0.826705</speed><course>12.833980</course><hAcc>1.731027</hAcc><vAcc>0.810675</vAcc></extensions></trkpt>
      <trkpt lon="-2.222049" lat="53.125222"><ele>159.979431</ele><time>2022-03-04T13:04:02Z</time><extensions><speed>0.897902</speed><course>9.514237</course><hAcc>1.739835</hAcc><vAcc>0.811606</vAcc></extensions></trkpt>
      <trkpt lon="-2.222048" lat="53.125231"><ele>159.945999</ele><time>2022-03-04T13:04:02Z</time><extensions><speed>0.966976</speed><course>5.259155</course><hAcc>1.737565</hAcc><vAcc>0.812325</vAcc></extensions></trkpt>
      <trkpt lon="-2.222047" lat="53.125240"><ele>159.936020</ele><time>2022-03-04T13:04:03Z</time><extensions><speed>1.083412</speed><course>1.090681</course><hAcc>1.727752</hAcc><vAcc>0.812822</vAcc></extensions></trkpt>
      <trkpt lon="-2.222047" lat="53.125250"><ele>159.890915</ele><time>2022-03-04T13:04:04Z</time><extensions><speed>1.158093</speed><course>359.118652</course><hAcc>1.711815</hAcc><vAcc>0.813297</vAcc></extensions></trkpt>
      <trkpt lon="-2.222047" lat="53.125261"><ele>159.834076</ele><time>2022-03-04T13:04:05Z</time><extensions><speed>1.170006</speed><course>358.999268</course><hAcc>1.699356</hAcc><vAcc>0.813697</vAcc></extensions></trkpt>
      <trkpt lon="-2.222047" lat="53.125271"><ele>159.771866</ele><time>2022-03-04T13:04:06Z</time><extensions><speed>1.107823</speed><course>359.961914</course><hAcc>1.692591</hAcc><vAcc>0.814057</vAcc></extensions></trkpt>
      <trkpt lon="-2.222047" lat="53.125281"><ele>159.695068</ele><time>2022-03-04T13:04:07Z</time><extensions><speed>1.119093</speed><course>0.610847</course><hAcc>1.695993</hAcc><vAcc>0.814396</vAcc></extensions></trkpt>
      <trkpt lon="-2.222047" lat="53.125291"><ele>159.621185</ele><time>2022-03-04T13:04:08Z</time><extensions><speed>1.095517</speed><course>0.814835</course><hAcc>1.685165</hAcc><vAcc>0.814706</vAcc></extensions></trkpt>
      <trkpt lon="-2.222047" lat="53.125301"><ele>159.543549</ele><time>2022-03-04T13:04:09Z</time><extensions><speed>1.033585</speed><course>359.407959</course><hAcc>1.661470</hAcc><vAcc>0.815056</vAcc></extensions></trkpt>
      <trkpt lon="-2.222048" lat="53.125310"><ele>159.453659</ele><time>2022-03-04T13:04:10Z</time><extensions><speed>1.025854</speed><course>357.400787</course><hAcc>1.665483</hAcc><vAcc>0.815441</vAcc></extensions></trkpt>
      <trkpt lon="-2.222049" lat="53.125320"><ele>159.374588</ele><time>2022-03-04T13:04:11Z</time><extensions><speed>1.113996</speed><course>353.835968</course><hAcc>1.657084</hAcc><vAcc>0.815820</vAcc></extensions></trkpt>
      <trkpt lon="-2.222051" lat="53.125330"><ele>159.290710</ele><time>2022-03-04T13:04:12Z</time><extensions><speed>1.245559</speed><course>349.753296</course><hAcc>1.621226</hAcc><vAcc>0.816283</vAcc></extensions></trkpt>
      <trkpt lon="-2.222055" lat="53.125341"><ele>159.196198</ele><time>2022-03-04T13:04:13Z</time><extensions><speed>1.185030</speed><course>345.747894</course><hAcc>1.620303</hAcc><vAcc>0.816787</vAcc></extensions></trkpt>
      <trkpt lon="-2.222060" lat="53.125351"><ele>159.101685</ele><time>2022-03-04T13:04:14Z</time><extensions><speed>1.010903</speed><course>343.317230</course><hAcc>1.654655</hAcc><vAcc>0.817310</vAcc></extensions></trkpt>
      <trkpt lon="-2.222063" lat="53.125360"><ele>158.986542</ele><time>2022-03-04T13:04:15Z</time><extensions><speed>1.026453</speed><course>348.465973</course><hAcc>1.624918</hAcc><vAcc>0.817820</vAcc></extensions></trkpt>
      <trkpt lon="-2.222066" lat="53.125369"><ele>158.877090</ele><time>2022-03-04T13:04:16Z</time><extensions><speed>1.035899</speed><course>350.395142</course><hAcc>1.612737</hAcc><vAcc>0.818328</vAcc></extensions></trkpt>
      <trkpt lon="-2.222069" lat="53.125378"><ele>158.777786</ele><time>2022-03-04T13:04:17Z</time><extensions><speed>1.067836</speed><course>351.005981</course><hAcc>1.610379</hAcc><vAcc>0.818828</vAcc></extensions></trkpt>
      <trkpt lon="-2.222071" lat="53.125388"><ele>158.663544</ele><time>2022-03-04T13:04:18Z</time><extensions><speed>1.100040</speed><course>351.672241</course><hAcc>1.597102</hAcc><vAcc>0.819164</vAcc></extensions></trkpt>
      <trkpt lon="-2.222073" lat="53.125398"><ele>158.544601</ele><time>2022-03-04T13:04:19Z</time><extensions><speed>1.142368</speed><course>351.929108</course><hAcc>1.597186</hAcc><vAcc>0.819432</vAcc></extensions></trkpt>
      <trkpt lon="-2.222076" lat="53.125409"><ele>158.422592</ele><time>2022-03-04T13:04:20Z</time><extensions><speed>1.249339</speed><course>352.059021</course><hAcc>1.595033</hAcc><vAcc>0.819645</vAcc></extensions></trkpt>
      <trkpt lon="-2.222079" lat="53.125421"><ele>158.297455</ele><time>2022-03-04T13:04:21Z</time><extensions><speed>1.402106</speed><course>350.355957</course><hAcc>1.598826</hAcc><vAcc>0.819780</vAcc></extensions></trkpt>
      <trkpt lon="-2.222082" lat="53.125433"><ele>158.174683</ele><time>2022-03-04T13:04:22Z</time><extensions><speed>1.413907</speed><course>348.642303</course><hAcc>1.640098</hAcc><vAcc>0.819854</vAcc></extensions></trkpt>
      <trkpt lon="-2.222086" lat="53.125446"><ele>158.050629</ele><time>2022-03-04T13:04:23Z</time><extensions><speed>1.528153</speed><course>350.857910</course><hAcc>1.605425</hAcc><vAcc>0.819854</vAcc></extensions></trkpt>
      <trkpt lon="-2.222089" lat="53.125460"><ele>157.920990</ele><time>2022-03-04T13:04:24Z</time><extensions><speed>1.564661</speed><course>354.981293</course><hAcc>1.585689</hAcc><vAcc>0.819807</vAcc></extensions></trkpt>
      <trkpt lon="-2.222090" lat="53.125474"><ele>157.772797</ele><time>2022-03-04T13:04:25Z</time><extensions><speed>1.580387</speed><course>359.584778</course><hAcc>1.577662</hAcc><vAcc>0.819704</vAcc></extensions></trkpt>
      <trkpt lon="-2.222090" lat="53.125489"><ele>157.619049</ele><time>2022-03-04T13:04:26Z</time><extensions><speed>1.545666</speed><course>0.993605</course><hAcc>1.595982</hAcc><vAcc>0.819644</vAcc></extensions></trkpt>
      <trkpt lon="-2.222089" lat="53.125502"><ele>157.467697</ele><time>2022-03-04T13:04:27Z</time><extensions><speed>1.460920</speed><course>1.723108</course><hAcc>1.622694</hAcc><vAcc>0.819588</vAcc></extensions></trkpt>
      <trkpt lon="-2.222088" lat="53.125515"><ele>157.299240</ele><time>2022-03-04T13:04:28Z</time><extensions><speed>1.505663</speed><course>5.468127</course><hAcc>1.556856</hAcc><vAcc>0.819578</vAcc></extensions></trkpt>
      <trkpt lon="-2.222085" lat="53.125529"><ele>157.149094</ele><time>2022-03-04T13:04:29Z</time><extensions><speed>1.484986</speed><course>5.151580</course><hAcc>1.511389</hAcc><vAcc>0.819623</vAcc></extensions></trkpt>
      <trkpt lon="-2.222083" lat="53.125542"><ele>157.010406</ele><time>2022-03-04T13:04:30Z</time><extensions><speed>1.400154</speed><course>5.087437</course><hAcc>1.513792</hAcc><vAcc>0.819725</vAcc></extensions></trkpt>
      <trkpt lon="-2.222081" lat="53.125554"><ele>156.849396</ele><time>2022-03-04T13:04:31Z</time><extensions><speed>1.316118</speed><course>5.633547</course><hAcc>1.524753</hAcc><vAcc>0.819862</vAcc></extensions></trkpt>
      <trkpt lon="-2.222079" lat="53.125566"><ele>156.701187</ele><time>2022-03-04T13:04:32Z</time><extensions><speed>1.233867</speed><course>7.549383</course><hAcc>1.536648</hAcc><vAcc>0.820039</vAcc></extensions></trkpt>
      <trkpt lon="-2.222077" lat="53.125577"><ele>156.550278</ele><time>2022-03-04T13:04:33Z</time><extensions><speed>1.240393</speed><course>1.212990</course><hAcc>1.533882</hAcc><vAcc>0.820230</vAcc></extensions></trkpt>
      <trkpt lon="-2.222077" lat="53.125589"><ele>156.407623</ele><time>2022-03-04T13:04:34Z</time><extensions><speed>1.410046</speed><course>1.672075</course><hAcc>1.468899</hAcc><vAcc>0.820446</vAcc></extensions></trkpt>
      <trkpt lon="-2.222076" lat="53.125602"><ele>156.266846</ele><time>2022-03-04T13:04:35Z</time><extensions><speed>1.468433</speed><course>1.527084</course><hAcc>1.464600</hAcc><vAcc>0.820675</vAcc></extensions></trkpt>
      <trkpt lon="-2.222076" lat="53.125615"><ele>156.121170</ele><time>2022-03-04T13:04:36Z</time><extensions><speed>1.462124</speed><course>359.803009</course><hAcc>1.501107</hAcc><vAcc>0.820918</vAcc></extensions></trkpt>
      <trkpt lon="-2.222075" lat="53.125628"><ele>156.001816</ele><time>2022-03-04T13:04:37Z</time><extensions><speed>1.457846</speed><course>4.270366</course><hAcc>1.482141</hAcc><vAcc>0.821163</vAcc></extensions></trkpt>
      <trkpt lon="-2.222073" lat="53.125641"><ele>155.889008</ele><time>2022-03-04T13:04:38Z</time><extensions><speed>1.373677</speed><course>5.615751</course><hAcc>1.489659</hAcc><vAcc>0.821393</vAcc></extensions></trkpt>
      <trkpt lon="-2.222072" lat="53.125654"><ele>155.772827</ele><time>2022-03-04T13:04:39Z</time><extensions><speed>1.370086</speed><course>2.321126</course><hAcc>1.531522</hAcc><vAcc>0.821545</vAcc></extensions></trkpt>
      <trkpt lon="-2.222071" lat="53.125666"><ele>155.661270</ele><time>2022-03-04T13:04:40Z</time><extensions><speed>1.446841</speed><course>3.849347</course><hAcc>1.527425</hAcc><vAcc>0.821656</vAcc></extensions></trkpt>
      <trkpt lon="-2.222069" lat="53.125680"><ele>155.572800</ele><time>2022-03-04T13:04:41Z</time><extensions><speed>1.453183</speed><course>4.676400</course><hAcc>1.495102</hAcc><vAcc>0.821672</vAcc></extensions></trkpt>
      <trkpt lon="-2.222068" lat="53.125693"><ele>155.476059</ele><time>2022-03-04T13:04:42Z</time><extensions><speed>1.427413</speed><course>3.525864</course><hAcc>1.494364</hAcc><vAcc>0.821641</vAcc></extensions></trkpt>
      <trkpt lon="-2.222067" lat="53.125706"><ele>155.376846</ele><time>2022-03-04T13:04:43Z</time><extensions><speed>1.416474</speed><course>1.317423</course><hAcc>1.485986</hAcc><vAcc>0.821558</vAcc></extensions></trkpt>
      <trkpt lon="-2.222067" lat="53.125718"><ele>155.286865</ele><time>2022-03-04T13:04:44Z</time><extensions><speed>1.392061</speed><course>0.312774</course><hAcc>1.489623</hAcc><vAcc>0.821429</vAcc></extensions></trkpt>
      <trkpt lon="-2.222068" lat="53.125731"><ele>155.205902</ele><time>2022-03-04T13:04:45Z</time><extensions><speed>1.415780</speed><course>356.869965</course><hAcc>1.486052</hAcc><vAcc>0.821281</vAcc></extensions></trkpt>
      <trkpt lon="-2.222070" lat="53.125743"><ele>155.115433</ele><time>2022-03-04T13:04:46Z</time><extensions><speed>1.311214</speed><course>352.153870</course><hAcc>1.494557</hAcc><vAcc>0.821114</vAcc></extensions></trkpt>
      <trkpt lon="-2.222073" lat="53.125755"><ele>155.022247</ele><time>2022-03-04T13:04:47Z</time><extensions><speed>1.244351</speed><course>351.706573</course><hAcc>1.522763</hAcc><vAcc>0.820931</vAcc></extensions></trkpt>
      <trkpt lon="-2.222076" lat="53.125766"><ele>154.939178</ele><time>2022-03-04T13:04:48Z</time><extensions><speed>1.248214</speed><course>353.366577</course><hAcc>1.524306</hAcc><vAcc>0.820680</vAcc></extensions></trkpt>
      <trkpt lon="-2.222079" lat="53.125778"><ele>154.833618</ele><time>2022-03-04T13:04:49Z</time><extensions><speed>1.415049</speed><course>347.928223</course><hAcc>1.484752</hAcc><vAcc>0.820386</vAcc></extensions></trkpt>
      <trkpt lon="-2.222084" lat="53.125790"><ele>154.716599</ele><time>2022-03-04T13:04:50Z</time><extensions><speed>1.336226</speed><course>345.933838</course><hAcc>1.519730</hAcc><vAcc>0.820135</vAcc></extensions></trkpt>
      <trkpt lon="-2.222091" lat="53.125802"><ele>154.597015</ele><time>2022-03-04T13:04:51Z</time><extensions><speed>1.539034</speed><course>341.101929</course><hAcc>1.494809</hAcc><vAcc>0.819892</vAcc></extensions></trkpt>
      <trkpt lon="-2.222099" lat="53.125815"><ele>154.472961</ele><time>2022-03-04T13:04:52Z</time><extensions><speed>1.615319</speed><course>338.188141</course><hAcc>1.493878</hAcc><vAcc>0.819642</vAcc></extensions></trkpt>
      <trkpt lon="-2.222110" lat="53.125829"><ele>154.345657</ele><time>2022-03-04T13:04:53Z</time><extensions><speed>1.650885</speed><course>334.122223</course><hAcc>1.495103</hAcc><vAcc>0.819430</vAcc></extensions></trkpt>
      <trkpt lon="-2.222122" lat="53.125842"><ele>154.194931</ele><time>2022-03-04T13:04:54Z</time><extensions><speed>1.682543</speed><course>328.710724</course><hAcc>1.508086</hAcc><vAcc>0.819209</vAcc></extensions></trkpt>
      <trkpt lon="-2.222135" lat="53.125854"><ele>154.071060</ele><time>2022-03-04T13:04:55Z</time><extensions><speed>1.561985</speed><course>329.094940</course><hAcc>1.550420</hAcc><vAcc>0.818969</vAcc></extensions></trkpt>
      <trkpt lon="-2.222147" lat="53.125866"><ele>153.960587</ele><time>2022-03-04T13:04:56Z</time><extensions><speed>1.521192</speed><course>324.215637</course><hAcc>1.559627</hAcc><vAcc>0.818686</vAcc></extensions></trkpt>
      <trkpt lon="-2.222162" lat="53.125877"><ele>153.814941</ele><time>2022-03-04T13:04:57Z</time><extensions><speed>1.498715</speed><course>317.819092</course><hAcc>1.545587</hAcc><vAcc>0.818341</vAcc></extensions></trkpt>
      <trkpt lon="-2.222179" lat="53.125887"><ele>153.674469</ele><time>2022-03-04T13:04:58Z</time><extensions><speed>1.692622</speed><course>311.062866</course><hAcc>1.498157</hAcc><vAcc>0.817930</vAcc></extensions></trkpt>
      <trkpt lon="-2.222199" lat="53.125896"><ele>153.528000</ele><time>2022-03-04T13:04:59Z</time><extensions><speed>1.788499</speed><course>307.667511</course><hAcc>1.496229</hAcc><vAcc>0.817397</vAcc></extensions></trkpt>
      <trkpt lon="-2.222221" lat="53.125906"><ele>153.372620</ele><time>2022-03-04T13:05:00Z</time><extensions><speed>1.807118</speed><course>305.922852</course><hAcc>1.522423</hAcc><vAcc>0.816744</vAcc></extensions></trkpt>
      <trkpt lon="-2.222243" lat="53.125916"><ele>153.213745</ele><time>2022-03-04T13:05:01Z</time><extensions><speed>1.762431</speed><course>305.956085</course><hAcc>1.554053</hAcc><vAcc>0.816041</vAcc></extensions></trkpt>
      <trkpt lon="-2.222264" lat="53.125925"><ele>153.068817</ele><time>2022-03-04T13:05:02Z</time><extensions><speed>1.713391</speed><course>306.387543</course><hAcc>1.552283</hAcc><vAcc>0.815352</vAcc></extensions></trkpt>
      <trkpt lon="-2.222286" lat="53.125934"><ele>152.925735</ele><time>2022-03-04T13:05:03Z</time><extensions><speed>1.759619</speed><course>303.713562</course><hAcc>1.527797</hAcc><vAcc>0.814649</vAcc></extensions></trkpt>
      <trkpt lon="-2.222307" lat="53.125942"><ele>152.778809</ele><time>2022-03-04T13:05:04Z</time><extensions><speed>1.651049</speed><course>303.512238</course><hAcc>1.514142</hAcc><vAcc>0.813964</vAcc></extensions></trkpt>
      <trkpt lon="-2.222327" lat="53.125950"><ele>152.642258</ele><time>2022-03-04T13:05:05Z</time><extensions><speed>1.544586</speed><course>304.626404</course><hAcc>1.520617</hAcc><vAcc>0.813289</vAcc></extensions></trkpt>
      <trkpt lon="-2.222344" lat="53.125958"><ele>152.506897</ele><time>2022-03-04T13:05:06Z</time><extensions><speed>1.321946</speed><course>308.058197</course><hAcc>1.552848</hAcc><vAcc>0.812687</vAcc></extensions></trkpt>
      <trkpt lon="-2.222360" lat="53.125965"><ele>152.371719</ele><time>2022-03-04T13:05:07Z</time><extensions><speed>1.268004</speed><course>304.381500</course><hAcc>1.564401</hAcc><vAcc>0.812187</vAcc></extensions></trkpt>
      <trkpt lon="-2.222376" lat="53.125971"><ele>152.238983</ele><time>2022-03-04T13:05:08Z</time><extensions><speed>1.365992</speed><course>299.479584</course><hAcc>1.542957</hAcc><vAcc>0.811772</vAcc></extensions></trkpt>
      <trkpt lon="-2.222394" lat="53.125977"><ele>152.112808</ele><time>2022-03-04T13:05:09Z</time><extensions><speed>1.412146</speed><course>296.932373</course><hAcc>1.540486</hAcc><vAcc>0.811491</vAcc></extensions></trkpt>
      <trkpt lon="-2.222413" lat="53.125982"><ele>152.012024</ele><time>2022-03-04T13:05:10Z</time><extensions><speed>1.382303</speed><course>298.302399</course><hAcc>1.570336</hAcc><vAcc>0.811289</vAcc></extensions></trkpt>
      <trkpt lon="-2.222431" lat="53.125988"><ele>151.906845</ele><time>2022-03-04T13:05:11Z</time><extensions><speed>1.368480</speed><course>296.874878</course><hAcc>1.588544</hAcc><vAcc>0.811165</vAcc></extensions></trkpt>
      <trkpt lon="-2.222449" lat="53.125993"><ele>151.812485</ele><time>2022-03-04T13:05:12Z</time><extensions><speed>1.366114</speed><course>295.761444</course><hAcc>1.593733</hAcc><vAcc>0.811138</vAcc></extensions></trkpt>
      <trkpt lon="-2.222467" lat="53.125998"><ele>151.734955</ele><time>2022-03-04T13:05:14Z</time><extensions><speed>1.294688</speed><course>296.861633</course><hAcc>1.633360</hAcc><vAcc>0.811080</vAcc></extensions></trkpt>
      <trkpt lon="-2.222483" lat="53.126003"><ele>151.669388</ele><time>2022-03-04T13:05:15Z</time><extensions><speed>1.093070</speed><course>295.167389</course><hAcc>1.672125</hAcc><vAcc>0.810981</vAcc></extensions></trkpt>
      <trkpt lon="-2.222495" lat="53.126005"><ele>151.597122</ele><time>2022-03-04T13:05:16Z</time><extensions><speed>0.657851</speed><course>277.938782</course><hAcc>1.629912</hAcc><vAcc>0.810752</vAcc></extensions></trkpt>
      <trkpt lon="-2.222500" lat="53.126004"><ele>151.553009</ele><time>2022-03-04T13:05:17Z</time><extensions><speed>0.352577</speed><course>197.403290</course><hAcc>1.611320</hAcc><vAcc>0.810461</vAcc></extensions></trkpt>
      <trkpt lon="-2.222498" lat="53.126000"><ele>151.529572</ele><time>2022-03-04T13:05:18Z</time><extensions><speed>0.761195</speed><course>140.824844</course><hAcc>1.632893</hAcc><vAcc>0.810187</vAcc></extensions></trkpt>
      <trkpt lon="-2.222488" lat="53.125994"><ele>151.508163</ele><time>2022-03-04T13:05:19Z</time><extensions><speed>1.125989</speed><course>130.673172</course><hAcc>1.638826</hAcc><vAcc>0.809837</vAcc></extensions></trkpt>
      <trkpt lon="-2.222473" lat="53.125987"><ele>151.498230</ele><time>2022-03-04T13:05:20Z</time><extensions><speed>1.301901</speed><course>125.631401</course><hAcc>1.652098</hAcc><vAcc>0.809471</vAcc></extensions></trkpt>
      <trkpt lon="-2.222457" lat="53.125980"><ele>151.498581</ele><time>2022-03-04T13:05:21Z</time><extensions><speed>1.405288</speed><course>123.935600</course><hAcc>1.647433</hAcc><vAcc>0.809132</vAcc></extensions></trkpt>
      <trkpt lon="-2.222439" lat="53.125973"><ele>151.503937</ele><time>2022-03-04T13:05:22Z</time><extensions><speed>1.429435</speed><course>124.085121</course><hAcc>1.657967</hAcc><vAcc>0.808859</vAcc></extensions></trkpt>
      <trkpt lon="-2.222422" lat="53.125966"><ele>151.519394</ele><time>2022-03-04T13:05:23Z</time><extensions><speed>1.377972</speed><course>125.004936</course><hAcc>1.680746</hAcc><vAcc>0.808721</vAcc></extensions></trkpt>
      <trkpt lon="-2.222405" lat="53.125959"><ele>151.538574</ele><time>2022-03-04T13:05:24Z</time><extensions><speed>1.373638</speed><course>127.105042</course><hAcc>1.659959</hAcc><vAcc>0.808704</vAcc></extensions></trkpt>
      <trkpt lon="-2.222390" lat="53.125951"><ele>151.562088</ele><time>2022-03-04T13:05:25Z</time><extensions><speed>1.279512</speed><course>129.078293</course><hAcc>1.668876</hAcc><vAcc>0.808806</vAcc></extensions></trkpt>
      <trkpt lon="-2.222375" lat="53.125944"><ele>151.591858</ele><time>2022-03-04T13:05:26Z</time><extensions><speed>1.183609</speed><course>129.889969</course><hAcc>1.695405</hAcc><vAcc>0.809131</vAcc></extensions></trkpt>
      <trkpt lon="-2.222362" lat="53.125937"><ele>151.625458</ele><time>2022-03-04T13:05:27Z</time><extensions><speed>1.164806</speed><course>132.748474</course><hAcc>1.681326</hAcc><vAcc>0.809542</vAcc></extensions></trkpt>
      <trkpt lon="-2.222350" lat="53.125931"><ele>151.661179</ele><time>2022-03-04T13:05:28Z</time><extensions><speed>1.093815</speed><course>132.601425</course><hAcc>1.684646</hAcc><vAcc>0.810040</vAcc></extensions></trkpt>
      <trkpt lon="-2.222338" lat="53.125924"><ele>151.693527</ele><time>2022-03-04T13:05:29Z</time><extensions><speed>0.954912</speed><course>130.431305</course><hAcc>1.693087</hAcc><vAcc>0.810577</vAcc></extensions></trkpt>
      <trkpt lon="-2.222328" lat="53.125920"><ele>151.717270</ele><time>2022-03-04T13:05:30Z</time><extensions><speed>0.801435</speed><course>124.433846</course><hAcc>1.718495</hAcc><vAcc>0.810980</vAcc></extensions></trkpt>
      <trkpt lon="-2.222319" lat="53.125916"><ele>151.744385</ele><time>2022-03-04T13:05:31Z</time><extensions><speed>0.581172</speed><course>115.991280</course><hAcc>1.748531</hAcc><vAcc>0.811130</vAcc></extensions></trkpt>
      <trkpt lon="-2.222313" lat="53.125915"><ele>151.777405</ele><time>2022-03-04T13:05:32Z</time><extensions><speed>0.265786</speed><course>90.110168</course><hAcc>1.742401</hAcc><vAcc>0.811048</vAcc></extensions></trkpt>
      <trkpt lon="-2.222310" lat="53.125916"><ele>151.800308</ele><time>2022-03-04T13:05:33Z</time><extensions><speed>0.217850</speed><course>45.760342</course><hAcc>1.735285</hAcc><vAcc>0.810641</vAcc></extensions></trkpt>
      <trkpt lon="-2.222308" lat="53.125918"><ele>151.815308</ele><time>2022-03-04T13:05:34Z</time><extensions><speed>0.259975</speed><course>21.756741</course><hAcc>1.744065</hAcc><vAcc>0.809961</vAcc></extensions></trkpt>
      <trkpt lon="-2.222307" lat="53.125920"><ele>151.836090</ele><time>2022-03-04T13:05:35Z</time><extensions><speed>0.292188</speed><course>10.191594</course><hAcc>1.761130</hAcc><vAcc>0.809083</vAcc></extensions></trkpt>
      <trkpt lon="-2.222307" lat="53.125923"><ele>151.846848</ele><time>2022-03-04T13:05:36Z</time><extensions><speed>0.308641</speed><course>359.528229</course><hAcc>1.778907</hAcc><vAcc>0.807979</vAcc></extensions></trkpt>
      <trkpt lon="-2.222308" lat="53.125926"><ele>151.852127</ele><time>2022-03-04T13:05:37Z</time><extensions><speed>0.339296</speed><course>348.338318</course><hAcc>1.788617</hAcc><vAcc>0.806822</vAcc></extensions></trkpt>
      <trkpt lon="-2.222309" lat="53.125929"><ele>151.845474</ele><time>2022-03-04T13:05:38Z</time><extensions><speed>0.400757</speed><course>336.977631</course><hAcc>1.794562</hAcc><vAcc>0.805619</vAcc></extensions></trkpt>
      <trkpt lon="-2.222312" lat="53.125933"><ele>151.839127</ele><time>2022-03-04T13:05:39Z</time><extensions><speed>0.513168</speed><course>328.012268</course><hAcc>1.799268</hAcc><vAcc>0.804436</vAcc></extensions></trkpt>
      <trkpt lon="-2.222318" lat="53.125937"><ele>151.827377</ele><time>2022-03-04T13:05:40Z</time><extensions><speed>0.652748</speed><course>322.421661</course><hAcc>1.802830</hAcc><vAcc>0.803411</vAcc></extensions></trkpt>
      <trkpt lon="-2.222324" lat="53.125942"><ele>151.811890</ele><time>2022-03-04T13:05:41Z</time><extensions><speed>0.788481</speed><course>318.329651</course><hAcc>1.804977</hAcc><vAcc>0.802564</vAcc></extensions></trkpt>
      <trkpt lon="-2.222333" lat="53.125948"><ele>151.782364</ele><time>2022-03-04T13:05:42Z</time><extensions><speed>0.893087</speed><course>314.425598</course><hAcc>1.806989</hAcc><vAcc>0.801954</vAcc></extensions></trkpt>
      <trkpt lon="-2.222344" lat="53.125953"><ele>151.745148</ele><time>2022-03-04T13:05:43Z</time><extensions><speed>0.990051</speed><course>310.557404</course><hAcc>1.804473</hAcc><vAcc>0.801659</vAcc></extensions></trkpt>
      <trkpt lon="-2.222356" lat="53.125959"><ele>151.706192</ele><time>2022-03-04T13:05:44Z</time><extensions><speed>1.029228</speed><course>306.867981</course><hAcc>1.805306</hAcc><vAcc>0.801677</vAcc></extensions></trkpt>
      <trkpt lon="-2.222368" lat="53.125964"><ele>151.635254</ele><time>2022-03-04T13:05:45Z</time><extensions><speed>1.085682</speed><course>303.908051</course><hAcc>1.800235</hAcc><vAcc>0.801966</vAcc></extensions></trkpt>
      <trkpt lon="-2.222383" lat="53.125970"><ele>151.570206</ele><time>2022-03-04T13:05:46Z</time><extensions><speed>1.238264</speed><course>302.255707</course><hAcc>1.782562</hAcc><vAcc>0.802535</vAcc></extensions></trkpt>
      <trkpt lon="-2.222401" lat="53.125977"><ele>151.503113</ele><time>2022-03-04T13:05:47Z</time><extensions><speed>1.509463</speed><course>301.112366</course><hAcc>1.759105</hAcc><vAcc>0.803293</vAcc></extensions></trkpt>
      <trkpt lon="-2.222421" lat="53.125983"><ele>151.429153</ele><time>2022-03-04T13:05:48Z</time><extensions><speed>1.604644</speed><course>298.007355</course><hAcc>1.734078</hAcc><vAcc>0.804192</vAcc></extensions></trkpt>
      <trkpt lon="-2.222443" lat="53.125990"><ele>151.336990</ele><time>2022-03-04T13:05:49Z</time><extensions><speed>1.606213</speed><course>295.529724</course><hAcc>1.715105</hAcc><vAcc>0.805197</vAcc></extensions></trkpt>
      <trkpt lon="-2.222465" lat="53.125996"><ele>151.237778</ele><time>2022-03-04T13:05:50Z</time><extensions><speed>1.640527</speed><course>293.940582</course><hAcc>1.696160</hAcc><vAcc>0.806236</vAcc></extensions></trkpt>
      <trkpt lon="-2.222487" lat="53.126002"><ele>151.120224</ele><time>2022-03-04T13:05:51Z</time><extensions><speed>1.696147</speed><course>293.647247</course><hAcc>1.669685</hAcc><vAcc>0.807272</vAcc></extensions></trkpt>
      <trkpt lon="-2.222510" lat="53.126008"><ele>151.019226</ele><time>2022-03-04T13:05:52Z</time><extensions><speed>1.584899</speed><course>294.215759</course><hAcc>1.669297</hAcc><vAcc>0.808231</vAcc></extensions></trkpt>
      <trkpt lon="-2.222531" lat="53.126014"><ele>150.911407</ele><time>2022-03-04T13:05:53Z</time><extensions><speed>1.514608</speed><course>294.571045</course><hAcc>1.671975</hAcc><vAcc>0.809072</vAcc></extensions></trkpt>
      <trkpt lon="-2.222552" lat="53.126020"><ele>150.797913</ele><time>2022-03-04T13:05:54Z</time><extensions><speed>1.509095</speed><course>295.265686</course><hAcc>1.673884</hAcc><vAcc>0.809750</vAcc></extensions></trkpt>
      <trkpt lon="-2.222572" lat="53.126025"><ele>150.675491</ele><time>2022-03-04T13:05:55Z</time><extensions><speed>1.471653</speed><course>294.692841</course><hAcc>1.643129</hAcc><vAcc>0.810290</vAcc></extensions></trkpt>
      <trkpt lon="-2.222592" lat="53.126031"><ele>150.540451</ele><time>2022-03-04T13:05:56Z</time><extensions><speed>1.521554</speed><course>292.652679</course><hAcc>1.629657</hAcc><vAcc>0.810691</vAcc></extensions></trkpt>
      <trkpt lon="-2.222614" lat="53.126036"><ele>150.402634</ele><time>2022-03-04T13:05:57Z</time><extensions><speed>1.574489</speed><course>292.417542</course><hAcc>1.625621</hAcc><vAcc>0.810941</vAcc></extensions></trkpt>
      <trkpt lon="-2.222635" lat="53.126042"><ele>150.276611</ele><time>2022-03-04T13:05:58Z</time><extensions><speed>1.599629</speed><course>293.147003</course><hAcc>1.619723</hAcc><vAcc>0.811073</vAcc></extensions></trkpt>
      <trkpt lon="-2.222657" lat="53.126047"><ele>150.150772</ele><time>2022-03-04T13:05:59Z</time><extensions><speed>1.558158</speed><course>294.640015</course><hAcc>1.622903</hAcc><vAcc>0.811114</vAcc></extensions></trkpt>
      <trkpt lon="-2.222677" lat="53.126053"><ele>150.038361</ele><time>2022-03-04T13:06:00Z</time><extensions><speed>1.440533</speed><course>295.483276</course><hAcc>1.642303</hAcc><vAcc>0.811024</vAcc></extensions></trkpt>
      <trkpt lon="-2.222696" lat="53.126058"><ele>149.916489</ele><time>2022-03-04T13:06:01Z</time><extensions><speed>1.329907</speed><course>298.892426</course><hAcc>1.629656</hAcc><vAcc>0.810711</vAcc></extensions></trkpt>
      <trkpt lon="-2.222713" lat="53.126064"><ele>149.801361</ele><time>2022-03-04T13:06:02Z</time><extensions><speed>1.275159</speed><course>297.878235</course><hAcc>1.616730</hAcc><vAcc>0.810181</vAcc></extensions></trkpt>
      <trkpt lon="-2.222729" lat="53.126069"><ele>149.696365</ele><time>2022-03-04T13:06:03Z</time><extensions><speed>1.240196</speed><course>297.172882</course><hAcc>1.591604</hAcc><vAcc>0.809513</vAcc></extensions></trkpt>
      <trkpt lon="-2.222746" lat="53.126074"><ele>149.604416</ele><time>2022-03-04T13:06:04Z</time><extensions><speed>1.227350</speed><course>297.303009</course><hAcc>1.588469</hAcc><vAcc>0.808790</vAcc></extensions></trkpt>
      <trkpt lon="-2.222762" lat="53.126079"><ele>149.513397</ele><time>2022-03-04T13:06:05Z</time><extensions><speed>1.256408</speed><course>298.419128</course><hAcc>1.620904</hAcc><vAcc>0.807962</vAcc></extensions></trkpt>
      <trkpt lon="-2.222779" lat="53.126085"><ele>149.425308</ele><time>2022-03-04T13:06:06Z</time><extensions><speed>1.267447</speed><course>301.169037</course><hAcc>1.632990</hAcc><vAcc>0.807062</vAcc></extensions></trkpt>
      <trkpt lon="-2.222795" lat="53.126091"><ele>149.344986</ele><time>2022-03-04T13:06:07Z</time><extensions><speed>1.255195</speed><course>301.985046</course><hAcc>1.638406</hAcc><vAcc>0.806123</vAcc></extensions></trkpt>
      <trkpt lon="-2.222811" lat="53.126097"><ele>149.267593</ele><time>2022-03-04T13:06:08Z</time><extensions><speed>1.272971</speed><course>302.434174</course><hAcc>1.654914</hAcc><vAcc>0.805222</vAcc></extensions></trkpt>
      <trkpt lon="-2.222827" lat="53.126103"><ele>149.212311</ele><time>2022-03-04T13:06:09Z</time><extensions><speed>1.216293</speed><course>300.584381</course><hAcc>1.651859</hAcc><vAcc>0.804393</vAcc></extensions></trkpt>
      <trkpt lon="-2.222842" lat="53.126108"><ele>149.168640</ele><time>2022-03-04T13:06:09Z</time><extensions><speed>1.221936</speed><course>298.599487</course><hAcc>1.659359</hAcc><vAcc>0.803670</vAcc></extensions></trkpt>
      <trkpt lon="-2.222858" lat="53.126113"><ele>149.115555</ele><time>2022-03-04T13:06:10Z</time><extensions><speed>1.174885</speed><course>300.183502</course><hAcc>1.661797</hAcc><vAcc>0.803067</vAcc></extensions></trkpt>
      <trkpt lon="-2.222872" lat="53.126119"><ele>149.069260</ele><time>2022-03-04T13:06:11Z</time><extensions><speed>1.131313</speed><course>305.290131</course><hAcc>1.686342</hAcc><vAcc>0.802781</vAcc></extensions></trkpt>
      <trkpt lon="-2.222886" lat="53.126125"><ele>149.051651</ele><time>2022-03-04T13:06:12Z</time><extensions><speed>1.116872</speed><course>305.467987</course><hAcc>1.718211</hAcc><vAcc>0.802710</vAcc></extensions></trkpt>
      <trkpt lon="-2.222900" lat="53.126131"><ele>149.033203</ele><time>2022-03-04T13:06:13Z</time><extensions><speed>1.154058</speed><course>301.514557</course><hAcc>1.706599</hAcc><vAcc>0.802862</vAcc></extensions></trkpt>
      <trkpt lon="-2.222915" lat="53.126136"><ele>149.029343</ele><time>2022-03-04T13:06:14Z</time><extensions><speed>1.215827</speed><course>299.827759</course><hAcc>1.705235</hAcc><vAcc>0.803225</vAcc></extensions></trkpt>
      <trkpt lon="-2.222931" lat="53.126142"><ele>149.009888</ele><time>2022-03-04T13:06:15Z</time><extensions><speed>1.223968</speed><course>299.362335</course><hAcc>1.699041</hAcc><vAcc>0.803677</vAcc></extensions></trkpt>
      <trkpt lon="-2.222947" lat="53.126147"><ele>149.006851</ele><time>2022-03-04T13:06:16Z</time><extensions><speed>1.160429</speed><course>302.496979</course><hAcc>1.701669</hAcc><vAcc>0.804168</vAcc></extensions></trkpt>
      <trkpt lon="-2.222960" lat="53.126153"><ele>148.995636</ele><time>2022-03-04T13:06:17Z</time><extensions><speed>1.073116</speed><course>306.787354</course><hAcc>1.692585</hAcc><vAcc>0.804664</vAcc></extensions></trkpt>
      <trkpt lon="-2.222973" lat="53.126159"><ele>148.993011</ele><time>2022-03-04T13:06:18Z</time><extensions><speed>1.039452</speed><course>309.923370</course><hAcc>1.678974</hAcc><vAcc>0.805212</vAcc></extensions></trkpt>
      <trkpt lon="-2.222984" lat="53.126165"><ele>148.969879</ele><time>2022-03-04T13:06:19Z</time><extensions><speed>1.058105</speed><course>315.758240</course><hAcc>1.654534</hAcc><vAcc>0.805743</vAcc></extensions></trkpt>
      <trkpt lon="-2.222995" lat="53.126173"><ele>148.944168</ele><time>2022-03-04T13:06:20Z</time><extensions><speed>1.096734</speed><course>321.336182</course><hAcc>1.669495</hAcc><vAcc>0.806183</vAcc></extensions></trkpt>
      <trkpt lon="-2.223005" lat="53.126180"><ele>148.907379</ele><time>2022-03-04T13:06:21Z</time><extensions><speed>1.039079</speed><course>324.199921</course><hAcc>1.724920</hAcc><vAcc>0.806647</vAcc></extensions></trkpt>
      <trkpt lon="-2.223014" lat="53.126188"><ele>148.888290</ele><time>2022-03-04T13:06:22Z</time><extensions><speed>1.049812</speed><course>327.887329</course><hAcc>1.674400</hAcc><vAcc>0.807106</vAcc></extensions></trkpt>
      <trkpt lon="-2.223022" lat="53.126196"><ele>148.844986</ele><time>2022-03-04T13:06:23Z</time><extensions><speed>1.026961</speed><course>330.797607</course><hAcc>1.661890</hAcc><vAcc>0.807518</vAcc></extensions></trkpt>
      <trkpt lon="-2.223029" lat="53.126204"><ele>148.798203</ele><time>2022-03-04T13:06:24Z</time><extensions><speed>1.036996</speed><course>330.636566</course><hAcc>1.680583</hAcc><vAcc>0.807895</vAcc></extensions></trkpt>
      <trkpt lon="-2.223037" lat="53.126213"><ele>148.730286</ele><time>2022-03-04T13:06:25Z</time><extensions><speed>1.173037</speed><course>331.494385</course><hAcc>1.669922</hAcc><vAcc>0.808220</vAcc></extensions></trkpt>
      <trkpt lon="-2.223047" lat="53.126223"><ele>148.661179</ele><time>2022-03-04T13:06:26Z</time><extensions><speed>1.287160</speed><course>329.604736</course><hAcc>1.658780</hAcc><vAcc>0.808518</vAcc></extensions></trkpt>
      <trkpt lon="-2.223057" lat="53.126233"><ele>148.573212</ele><time>2022-03-04T13:06:27Z</time><extensions><speed>1.432041</speed><course>327.411163</course><hAcc>1.645633</hAcc><vAcc>0.808808</vAcc></extensions></trkpt>
      <trkpt lon="-2.223070" lat="53.126244"><ele>148.476837</ele><time>2022-03-04T13:06:28Z</time><extensions><speed>1.511759</speed><course>325.033569</course><hAcc>1.638284</hAcc><vAcc>0.809104</vAcc></extensions></trkpt>
      <trkpt lon="-2.223083" lat="53.126255"><ele>148.372620</ele><time>2022-03-04T13:06:29Z</time><extensions><speed>1.582443</speed><course>323.097809</course><hAcc>1.647358</hAcc><vAcc>0.809425</vAcc></extensions></trkpt>
      <trkpt lon="-2.223098" lat="53.126267"><ele>148.265991</ele><time>2022-03-04T13:06:30Z</time><extensions><speed>1.650115</speed><course>321.713379</course><hAcc>1.664130</hAcc><vAcc>0.809750</vAcc></extensions></trkpt>
      <trkpt lon="-2.223113" lat="53.126278"><ele>148.165039</ele><time>2022-03-04T13:06:31Z</time><extensions><speed>1.484374</speed><course>322.861908</course><hAcc>1.669597</hAcc><vAcc>0.810025</vAcc></extensions></trkpt>
      <trkpt lon="-2.223127" lat="53.126288"><ele>148.042374</ele><time>2022-03-04T13:06:32Z</time><extensions><speed>1.476611</speed><course>319.039764</course><hAcc>1.617612</hAcc><vAcc>0.810220</vAcc></extensions></trkpt>
      <trkpt lon="-2.223141" lat="53.126298"><ele>147.920090</ele><time>2022-03-04T13:06:33Z</time><extensions><speed>1.322704</speed><course>317.004547</course><hAcc>1.603893</hAcc><vAcc>0.810310</vAcc></extensions></trkpt>
      <trkpt lon="-2.223154" lat="53.126306"><ele>147.797287</ele><time>2022-03-04T13:06:34Z</time><extensions><speed>1.235453</speed><course>314.053864</course><hAcc>1.627775</hAcc><vAcc>0.810348</vAcc></extensions></trkpt>
      <trkpt lon="-2.223168" lat="53.126313"><ele>147.653442</ele><time>2022-03-04T13:06:35Z</time><extensions><speed>1.208957</speed><course>311.233490</course><hAcc>1.653880</hAcc><vAcc>0.810261</vAcc></extensions></trkpt>
      <trkpt lon="-2.223182" lat="53.126320"><ele>147.530975</ele><time>2022-03-04T13:06:36Z</time><extensions><speed>1.206282</speed><course>307.562042</course><hAcc>1.644765</hAcc><vAcc>0.810127</vAcc></extensions></trkpt>
      <trkpt lon="-2.223197" lat="53.126327"><ele>147.389023</ele><time>2022-03-04T13:06:37Z</time><extensions><speed>1.222825</speed><course>305.567657</course><hAcc>1.647326</hAcc><vAcc>0.809927</vAcc></extensions></trkpt>
      <trkpt lon="-2.223212" lat="53.126334"><ele>147.254028</ele><time>2022-03-04T13:06:38Z</time><extensions><speed>1.299804</speed><course>306.869873</course><hAcc>1.661332</hAcc><vAcc>0.809636</vAcc></extensions></trkpt>
      <trkpt lon="-2.223228" lat="53.126341"><ele>147.113846</ele><time>2022-03-04T13:06:39Z</time><extensions><speed>1.393433</speed><course>308.733002</course><hAcc>1.660044</hAcc><vAcc>0.809334</vAcc></extensions></trkpt>
      <trkpt lon="-2.223245" lat="53.126349"><ele>146.996002</ele><time>2022-03-04T13:06:40Z</time><extensions><speed>1.528145</speed><course>310.426758</course><hAcc>1.640102</hAcc><vAcc>0.808996</vAcc></extensions></trkpt>
      <trkpt lon="-2.223263" lat="53.126359"><ele>146.866180</ele><time>2022-03-04T13:06:41Z</time><extensions><speed>1.616370</speed><course>312.156403</course><hAcc>1.635692</hAcc><vAcc>0.808572</vAcc></extensions></trkpt>
      <trkpt lon="-2.223280" lat="53.126369"><ele>146.736465</ele><time>2022-03-04T13:06:42Z</time><extensions><speed>1.630052</speed><course>315.103241</course><hAcc>1.649745</hAcc><vAcc>0.808200</vAcc></extensions></trkpt>
      <trkpt lon="-2.223297" lat="53.126379"><ele>146.607529</ele><time>2022-03-04T13:06:43Z</time><extensions><speed>1.556533</speed><course>315.001282</course><hAcc>1.648437</hAcc><vAcc>0.807893</vAcc></extensions></trkpt>
      <trkpt lon="-2.223314" lat="53.126388"><ele>146.499268</ele><time>2022-03-04T13:06:44Z</time><extensions><speed>1.511250</speed><course>311.578888</course><hAcc>1.628767</hAcc><vAcc>0.807678</vAcc></extensions></trkpt>
      <trkpt lon="-2.223330" lat="53.126397"><ele>146.385727</ele><time>2022-03-04T13:06:45Z</time><extensions><speed>1.402380</speed><course>310.058624</course><hAcc>1.634457</hAcc><vAcc>0.807505</vAcc></extensions></trkpt>
      <trkpt lon="-2.223346" lat="53.126404"><ele>146.282471</ele><time>2022-03-04T13:06:46Z</time><extensions><speed>1.318716</speed><course>308.143219</course><hAcc>1.647926</hAcc><vAcc>0.807366</vAcc></extensions></trkpt>
      <trkpt lon="-2.223362" lat="53.126412"><ele>146.184067</ele><time>2022-03-04T13:06:47Z</time><extensions><speed>1.282688</speed><course>306.650299</course><hAcc>1.624704</hAcc><vAcc>0.807227</vAcc></extensions></trkpt>
      <trkpt lon="-2.223377" lat="53.126418"><ele>146.103531</ele><time>2022-03-04T13:06:48Z</time><extensions><speed>1.284660</speed><course>303.543976</course><hAcc>1.614043</hAcc><vAcc>0.807081</vAcc></extensions></trkpt>
      <trkpt lon="-2.223394" lat="53.126425"><ele>146.014404</ele><time>2022-03-04T13:06:49Z</time><extensions><speed>1.310405</speed><course>303.363007</course><hAcc>1.636794</hAcc><vAcc>0.806951</vAcc></extensions></trkpt>
      <trkpt lon="-2.223410" lat="53.126431"><ele>145.939316</ele><time>2022-03-04T13:06:50Z</time><extensions><speed>1.338417</speed><course>303.999237</course><hAcc>1.628718</hAcc><vAcc>0.806839</vAcc></extensions></trkpt>
      <trkpt lon="-2.223427" lat="53.126438"><ele>145.854996</ele><time>2022-03-04T13:06:51Z</time><extensions><speed>1.316959</speed><course>304.034241</course><hAcc>1.588016</hAcc><vAcc>0.806729</vAcc></extensions></trkpt>
      <trkpt lon="-2.223443" lat="53.126445"><ele>145.797775</ele><time>2022-03-04T13:06:52Z</time><extensions><speed>1.292588</speed><course>304.949188</course><hAcc>1.593626</hAcc><vAcc>0.806660</vAcc></extensions></trkpt>
      <trkpt lon="-2.223459" lat="53.126452"><ele>145.722809</ele><time>2022-03-04T13:06:53Z</time><extensions><speed>1.269256</speed><course>306.883148</course><hAcc>1.633651</hAcc><vAcc>0.806656</vAcc></extensions></trkpt>
      <trkpt lon="-2.223474" lat="53.126458"><ele>145.652069</ele><time>2022-03-04T13:06:54Z</time><extensions><speed>1.268331</speed><course>307.060730</course><hAcc>1.592261</hAcc><vAcc>0.806672</vAcc></extensions></trkpt>
      <trkpt lon="-2.223489" lat="53.126465"><ele>145.594604</ele><time>2022-03-04T13:06:55Z</time><extensions><speed>1.235706</speed><course>306.918915</course><hAcc>1.580541</hAcc><vAcc>0.806761</vAcc></extensions></trkpt>
      <trkpt lon="-2.223504" lat="53.126472"><ele>145.526337</ele><time>2022-03-04T13:06:56Z</time><extensions><speed>1.257456</speed><course>306.839722</course><hAcc>1.599031</hAcc><vAcc>0.806922</vAcc></extensions></trkpt>
      <trkpt lon="-2.223519" lat="53.126479"><ele>145.454285</ele><time>2022-03-04T13:06:57Z</time><extensions><speed>1.221517</speed><course>307.214661</course><hAcc>1.586585</hAcc><vAcc>0.807141</vAcc></extensions></trkpt>
      <trkpt lon="-2.223533" lat="53.126485"><ele>145.376221</ele><time>2022-03-04T13:06:58Z</time><extensions><speed>1.150178</speed><course>307.597900</course><hAcc>1.598421</hAcc><vAcc>0.807307</vAcc></extensions></trkpt>
      <trkpt lon="-2.223546" lat="53.126492"><ele>145.297577</ele><time>2022-03-04T13:06:59Z</time><extensions><speed>1.113751</speed><course>310.035156</course><hAcc>1.611432</hAcc><vAcc>0.807379</vAcc></extensions></trkpt>
      <trkpt lon="-2.223559" lat="53.126498"><ele>145.209595</ele><time>2022-03-04T13:07:00Z</time><extensions><speed>1.165648</speed><course>310.123260</course><hAcc>1.598659</hAcc><vAcc>0.807333</vAcc></extensions></trkpt>
      <trkpt lon="-2.223573" lat="53.126505"><ele>145.122284</ele><time>2022-03-04T13:07:01Z</time><extensions><speed>1.200582</speed><course>310.746460</course><hAcc>1.605408</hAcc><vAcc>0.807295</vAcc></extensions></trkpt>
      <trkpt lon="-2.223587" lat="53.126512"><ele>145.033981</ele><time>2022-03-04T13:07:02Z</time><extensions><speed>1.232084</speed><course>308.929840</course><hAcc>1.640265</hAcc><vAcc>0.807173</vAcc></extensions></trkpt>
      <trkpt lon="-2.223602" lat="53.126519"><ele>144.943130</ele><time>2022-03-04T13:07:03Z</time><extensions><speed>1.306979</speed><course>306.482391</course><hAcc>1.652185</hAcc><vAcc>0.806917</vAcc></extensions></trkpt>
      <trkpt lon="-2.223618" lat="53.126526"><ele>144.858475</ele><time>2022-03-04T13:07:04Z</time><extensions><speed>1.347890</speed><course>305.178070</course><hAcc>1.649474</hAcc><vAcc>0.806517</vAcc></extensions></trkpt>
      <trkpt lon="-2.223635" lat="53.126533"><ele>144.774109</ele><time>2022-03-04T13:07:05Z</time><extensions><speed>1.381550</speed><course>303.334625</course><hAcc>1.643825</hAcc><vAcc>0.805960</vAcc></extensions></trkpt>
      <trkpt lon="-2.223653" lat="53.126539"><ele>144.691666</ele><time>2022-03-04T13:07:06Z</time><extensions><speed>1.404505</speed><course>302.721375</course><hAcc>1.659951</hAcc><vAcc>0.805206</vAcc></extensions></trkpt>
      <trkpt lon="-2.223670" lat="53.126546"><ele>144.618912</ele><time>2022-03-04T13:07:07Z</time><extensions><speed>1.399148</speed><course>300.442932</course><hAcc>1.673581</hAcc><vAcc>0.804389</vAcc></extensions></trkpt>
      <trkpt lon="-2.223689" lat="53.126552"><ele>144.541016</ele><time>2022-03-04T13:07:08Z</time><extensions><speed>1.399166</speed><course>298.135620</course><hAcc>1.659484</hAcc><vAcc>0.803586</vAcc></extensions></trkpt>
      <trkpt lon="-2.223707" lat="53.126558"><ele>144.487152</ele><time>2022-03-04T13:07:09Z</time><extensions><speed>1.382234</speed><course>295.213379</course><hAcc>1.651461</hAcc><vAcc>0.802855</vAcc></extensions></trkpt>
      <trkpt lon="-2.223726" lat="53.126563"><ele>144.441971</ele><time>2022-03-04T13:07:10Z</time><extensions><speed>1.377707</speed><course>294.171661</course><hAcc>1.664037</hAcc><vAcc>0.802235</vAcc></extensions></trkpt>
      <trkpt lon="-2.223745" lat="53.126568"><ele>144.404465</ele><time>2022-03-04T13:07:11Z</time><extensions><speed>1.422610</speed><course>295.086609</course><hAcc>1.681820</hAcc><vAcc>0.801766</vAcc></extensions></trkpt>
      <trkpt lon="-2.223765" lat="53.126573"><ele>144.371506</ele><time>2022-03-04T13:07:12Z</time><extensions><speed>1.464386</speed><course>292.298553</course><hAcc>1.642628</hAcc><vAcc>0.801477</vAcc></extensions></trkpt>
      <trkpt lon="-2.223785" lat="53.126578"><ele>144.348373</ele><time>2022-03-04T13:07:13Z</time><extensions><speed>1.393741</speed><course>294.342743</course><hAcc>1.636340</hAcc><vAcc>0.801410</vAcc></extensions></trkpt>
      <trkpt lon="-2.223803" lat="53.126583"><ele>144.331802</ele><time>2022-03-04T13:07:14Z</time><extensions><speed>1.271264</speed><course>296.928314</course><hAcc>1.657443</hAcc><vAcc>0.801545</vAcc></extensions></trkpt>
      <trkpt lon="-2.223819" lat="53.126588"><ele>144.311356</ele><time>2022-03-04T13:07:15Z</time><extensions><speed>1.239462</speed><course>296.875549</course><hAcc>1.668595</hAcc><vAcc>0.801837</vAcc></extensions></trkpt>
      <trkpt lon="-2.223836" lat="53.126593"><ele>144.305328</ele><time>2022-03-04T13:07:16Z</time><extensions><speed>1.261154</speed><course>293.159607</course><hAcc>1.644113</hAcc><vAcc>0.802362</vAcc></extensions></trkpt>
      <trkpt lon="-2.223854" lat="53.126597"><ele>144.290771</ele><time>2022-03-04T13:07:17Z</time><extensions><speed>1.233965</speed><course>293.001282</course><hAcc>1.661437</hAcc><vAcc>0.803114</vAcc></extensions></trkpt>
      <trkpt lon="-2.223871" lat="53.126601"><ele>144.280258</ele><time>2022-03-04T13:07:18Z</time><extensions><speed>1.208832</speed><course>289.904175</course><hAcc>1.666965</hAcc><vAcc>0.804030</vAcc></extensions></trkpt>
      <trkpt lon="-2.223888" lat="53.126605"><ele>144.280838</ele><time>2022-03-04T13:07:20Z</time><extensions><speed>1.190216</speed><course>287.034607</course><hAcc>1.672031</hAcc><vAcc>0.805074</vAcc></extensions></trkpt>
      <trkpt lon="-2.223905" lat="53.126608"><ele>144.267532</ele><time>2022-03-04T13:07:21Z</time><extensions><speed>1.183818</speed><course>283.267029</course><hAcc>1.681679</hAcc><vAcc>0.806240</vAcc></extensions></trkpt>
      <trkpt lon="-2.223922" lat="53.126610"><ele>144.248306</ele><time>2022-03-04T13:07:22Z</time><extensions><speed>1.159990</speed><course>279.392975</course><hAcc>1.678991</hAcc><vAcc>0.807463</vAcc></extensions></trkpt>
      <trkpt lon="-2.223939" lat="53.126612"><ele>144.227066</ele><time>2022-03-04T13:07:23Z</time><extensions><speed>1.116030</speed><course>279.910858</course><hAcc>1.675167</hAcc><vAcc>0.808710</vAcc></extensions></trkpt>
      <trkpt lon="-2.223955" lat="53.126614"><ele>144.179718</ele><time>2022-03-04T13:07:24Z</time><extensions><speed>1.081880</speed><course>282.630554</course><hAcc>1.658702</hAcc><vAcc>0.809927</vAcc></extensions></trkpt>
      <trkpt lon="-2.223970" lat="53.126616"><ele>144.127014</ele><time>2022-03-04T13:07:25Z</time><extensions><speed>0.995021</speed><course>290.999054</course><hAcc>1.641207</hAcc><vAcc>0.811108</vAcc></extensions></trkpt>
      <trkpt lon="-2.223984" lat="53.126620"><ele>144.073654</ele><time>2022-03-04T13:07:26Z</time><extensions><speed>1.030799</speed><course>295.985382</course><hAcc>1.625284</hAcc><vAcc>0.812196</vAcc></extensions></trkpt>
      <trkpt lon="-2.223998" lat="53.126625"><ele>144.029373</ele><time>2022-03-04T13:07:27Z</time><extensions><speed>1.083770</speed><course>298.514252</course><hAcc>1.641344</hAcc><vAcc>0.813232</vAcc></extensions></trkpt>
      <trkpt lon="-2.224013" lat="53.126630"><ele>143.966797</ele><time>2022-03-04T13:07:28Z</time><extensions><speed>1.104910</speed><course>301.302643</course><hAcc>1.632907</hAcc><vAcc>0.814185</vAcc></extensions></trkpt>
      <trkpt lon="-2.224027" lat="53.126635"><ele>143.897781</ele><time>2022-03-04T13:07:29Z</time><extensions><speed>1.192496</speed><course>302.363953</course><hAcc>1.604378</hAcc><vAcc>0.815035</vAcc></extensions></trkpt>
      <trkpt lon="-2.224042" lat="53.126641"><ele>143.829666</ele><time>2022-03-04T13:07:30Z</time><extensions><speed>1.249865</speed><course>304.187378</course><hAcc>1.601433</hAcc><vAcc>0.815775</vAcc></extensions></trkpt>
      <trkpt lon="-2.224058" lat="53.126648"><ele>143.746750</ele><time>2022-03-04T13:07:31Z</time><extensions><speed>1.335084</speed><course>306.648529</course><hAcc>1.582037</hAcc><vAcc>0.816420</vAcc></extensions></trkpt>
      <trkpt lon="-2.224074" lat="53.126655"><ele>143.649353</ele><time>2022-03-04T13:07:32Z</time><extensions><speed>1.323588</speed><course>307.084473</course><hAcc>1.592280</hAcc><vAcc>0.816934</vAcc></extensions></trkpt>
      <trkpt lon="-2.224090" lat="53.126662"><ele>143.555054</ele><time>2022-03-04T13:07:33Z</time><extensions><speed>1.309350</speed><course>307.323486</course><hAcc>1.610591</hAcc><vAcc>0.817339</vAcc></extensions></trkpt>
      <trkpt lon="-2.224106" lat="53.126670"><ele>143.470398</ele><time>2022-03-04T13:07:34Z</time><extensions><speed>1.377759</speed><course>310.505829</course><hAcc>1.589886</hAcc><vAcc>0.817587</vAcc></extensions></trkpt>
      <trkpt lon="-2.224121" lat="53.126678"><ele>143.368195</ele><time>2022-03-04T13:07:35Z</time><extensions><speed>1.400731</speed><course>312.887146</course><hAcc>1.586293</hAcc><vAcc>0.817710</vAcc></extensions></trkpt>
      <trkpt lon="-2.224137" lat="53.126687"><ele>143.261002</ele><time>2022-03-04T13:07:36Z</time><extensions><speed>1.461347</speed><course>314.784637</course><hAcc>1.562069</hAcc><vAcc>0.817717</vAcc></extensions></trkpt>
      <trkpt lon="-2.224152" lat="53.126696"><ele>143.154938</ele><time>2022-03-04T13:07:37Z</time><extensions><speed>1.481360</speed><course>315.774536</course><hAcc>1.575943</hAcc><vAcc>0.817557</vAcc></extensions></trkpt>
      <trkpt lon="-2.224167" lat="53.126705"><ele>143.055206</ele><time>2022-03-04T13:07:38Z</time><extensions><speed>1.390695</speed><course>317.396301</course><hAcc>1.622913</hAcc><vAcc>0.817319</vAcc></extensions></trkpt>
      <trkpt lon="-2.224181" lat="53.126714"><ele>142.959351</ele><time>2022-03-04T13:07:39Z</time><extensions><speed>1.347006</speed><course>312.050781</course><hAcc>1.589254</hAcc><vAcc>0.816976</vAcc></extensions></trkpt>
      <trkpt lon="-2.224197" lat="53.126721"><ele>142.872635</ele><time>2022-03-04T13:07:40Z</time><extensions><speed>1.267726</speed><course>304.857056</course><hAcc>1.592078</hAcc><vAcc>0.816564</vAcc></extensions></trkpt>
      <trkpt lon="-2.224213" lat="53.126727"><ele>142.790878</ele><time>2022-03-04T13:07:41Z</time><extensions><speed>1.244057</speed><course>298.562958</course><hAcc>1.616817</hAcc><vAcc>0.816087</vAcc></extensions></trkpt>
      <trkpt lon="-2.224230" lat="53.126732"><ele>142.711044</ele><time>2022-03-04T13:07:42Z</time><extensions><speed>1.250707</speed><course>296.151398</course><hAcc>1.606175</hAcc><vAcc>0.815511</vAcc></extensions></trkpt>
      <trkpt lon="-2.224246" lat="53.126737"><ele>142.636429</ele><time>2022-03-04T13:07:43Z</time><extensions><speed>1.227598</speed><course>296.309906</course><hAcc>1.609161</hAcc><vAcc>0.814873</vAcc></extensions></trkpt>
      <trkpt lon="-2.224262" lat="53.126742"><ele>142.560349</ele><time>2022-03-04T13:07:44Z</time><extensions><speed>1.200614</speed><course>298.126831</course><hAcc>1.629689</hAcc><vAcc>0.814175</vAcc></extensions></trkpt>
      <trkpt lon="-2.224278" lat="53.126748"><ele>142.487961</ele><time>2022-03-04T13:07:45Z</time><extensions><speed>1.215426</speed><course>299.487823</course><hAcc>1.642699</hAcc><vAcc>0.813511</vAcc></extensions></trkpt>
      <trkpt lon="-2.224294" lat="53.126753"><ele>142.446808</ele><time>2022-03-04T13:07:46Z</time><extensions><speed>1.203281</speed><course>297.911102</course><hAcc>1.632264</hAcc><vAcc>0.812954</vAcc></extensions></trkpt>
      <trkpt lon="-2.224310" lat="53.126758"><ele>142.404770</ele><time>2022-03-04T13:07:47Z</time><extensions><speed>1.185144</speed><course>296.364777</course><hAcc>1.630926</hAcc><vAcc>0.812467</vAcc></extensions></trkpt>
      <trkpt lon="-2.224326" lat="53.126762"><ele>142.361099</ele><time>2022-03-04T13:07:48Z</time><extensions><speed>1.142681</speed><course>296.195435</course><hAcc>1.653850</hAcc><vAcc>0.812078</vAcc></extensions></trkpt>
      <trkpt lon="-2.224342" lat="53.126767"><ele>142.328583</ele><time>2022-03-04T13:07:49Z</time><extensions><speed>1.205059</speed><course>294.738586</course><hAcc>1.631571</hAcc><vAcc>0.811778</vAcc></extensions></trkpt>
      <trkpt lon="-2.224358" lat="53.126772"><ele>142.295135</ele><time>2022-03-04T13:07:50Z</time><extensions><speed>1.256629</speed><course>296.393341</course><hAcc>1.636143</hAcc><vAcc>0.811556</vAcc></extensions></trkpt>
      <trkpt lon="-2.224375" lat="53.126777"><ele>142.261673</ele><time>2022-03-04T13:07:51Z</time><extensions><speed>1.289490</speed><course>297.974030</course><hAcc>1.652724</hAcc><vAcc>0.811443</vAcc></extensions></trkpt>
      <trkpt lon="-2.224392" lat="53.126783"><ele>142.230225</ele><time>2022-03-04T13:07:52Z</time><extensions><speed>1.337522</speed><course>297.932312</course><hAcc>1.615543</hAcc><vAcc>0.811435</vAcc></extensions></trkpt>
      <trkpt lon="-2.224410" lat="53.126789"><ele>142.210983</ele><time>2022-03-04T13:07:53Z</time><extensions><speed>1.353937</speed><course>300.121552</course><hAcc>1.611353</hAcc><vAcc>0.811530</vAcc></extensions></trkpt>
      <trkpt lon="-2.224427" lat="53.126795"><ele>142.186905</ele><time>2022-03-04T13:07:54Z</time><extensions><speed>1.327288</speed><course>302.979431</course><hAcc>1.631602</hAcc><vAcc>0.811748</vAcc></extensions></trkpt>
      <trkpt lon="-2.224444" lat="53.126801"><ele>142.160156</ele><time>2022-03-04T13:07:55Z</time><extensions><speed>1.310627</speed><course>304.204407</course><hAcc>1.660838</hAcc><vAcc>0.812098</vAcc></extensions></trkpt>
      <trkpt lon="-2.224459" lat="53.126808"><ele>142.132141</ele><time>2022-03-04T13:07:56Z</time><extensions><speed>1.267317</speed><course>307.410217</course><hAcc>1.686394</hAcc><vAcc>0.812550</vAcc></extensions></trkpt>
      <trkpt lon="-2.224474" lat="53.126815"><ele>142.116226</ele><time>2022-03-04T13:07:57Z</time><extensions><speed>1.228958</speed><course>306.335083</course><hAcc>1.654170</hAcc><vAcc>0.813096</vAcc></extensions></trkpt>
      <trkpt lon="-2.224489" lat="53.126821"><ele>142.082367</ele><time>2022-03-04T13:07:58Z</time><extensions><speed>1.209308</speed><course>304.184875</course><hAcc>1.650851</hAcc><vAcc>0.813699</vAcc></extensions></trkpt>
      <trkpt lon="-2.224504" lat="53.126827"><ele>142.039230</ele><time>2022-03-04T13:07:59Z</time><extensions><speed>1.226544</speed><course>302.844238</course><hAcc>1.669237</hAcc><vAcc>0.814342</vAcc></extensions></trkpt>
      <trkpt lon="-2.224520" lat="53.126833"><ele>141.984055</ele><time>2022-03-04T13:08:00Z</time><extensions><speed>1.227426</speed><course>301.010559</course><hAcc>1.680663</hAcc><vAcc>0.815003</vAcc></extensions></trkpt>
      <trkpt lon="-2.224536" lat="53.126839"><ele>141.943680</ele><time>2022-03-04T13:08:01Z</time><extensions><speed>1.238408</speed><course>298.507507</course><hAcc>1.682174</hAcc><vAcc>0.815686</vAcc></extensions></trkpt>
      <trkpt lon="-2.224553" lat="53.126844"><ele>141.882050</ele><time>2022-03-04T13:08:02Z</time><extensions><speed>1.251974</speed><course>295.551147</course><hAcc>1.672391</hAcc><vAcc>0.816357</vAcc></extensions></trkpt>
      <trkpt lon="-2.224570" lat="53.126849"><ele>141.817108</ele><time>2022-03-04T13:08:03Z</time><extensions><speed>1.332758</speed><course>293.061218</course><hAcc>1.663981</hAcc><vAcc>0.817036</vAcc></extensions></trkpt>
      <trkpt lon="-2.224589" lat="53.126853"><ele>141.751022</ele><time>2022-03-04T13:08:04Z</time><extensions><speed>1.414557</speed><course>292.921448</course><hAcc>1.665584</hAcc><vAcc>0.817695</vAcc></extensions></trkpt>
      <trkpt lon="-2.224609" lat="53.126858"><ele>141.690277</ele><time>2022-03-04T13:08:05Z</time><extensions><speed>1.444529</speed><course>292.556488</course><hAcc>1.634829</hAcc><vAcc>0.818343</vAcc></extensions></trkpt>
      <trkpt lon="-2.224629" lat="53.126863"><ele>141.611282</ele><time>2022-03-04T13:08:06Z</time><extensions><speed>1.394979</speed><course>294.029449</course><hAcc>1.612321</hAcc><vAcc>0.818977</vAcc></extensions></trkpt>
      <trkpt lon="-2.224647" lat="53.126869"><ele>141.524719</ele><time>2022-03-04T13:08:07Z</time><extensions><speed>1.358030</speed><course>298.751068</course><hAcc>1.605975</hAcc><vAcc>0.819561</vAcc></extensions></trkpt>
      <trkpt lon="-2.224664" lat="53.126875"><ele>141.443436</ele><time>2022-03-04T13:08:08Z</time><extensions><speed>1.235367</speed><course>301.407959</course><hAcc>1.611974</hAcc><vAcc>0.820107</vAcc></extensions></trkpt>
      <trkpt lon="-2.224680" lat="53.126881"><ele>141.360901</ele><time>2022-03-04T13:08:09Z</time><extensions><speed>1.298654</speed><course>303.293793</course><hAcc>1.571763</hAcc><vAcc>0.820583</vAcc></extensions></trkpt>
      <trkpt lon="-2.224697" lat="53.126888"><ele>141.280136</ele><time>2022-03-04T13:08:10Z</time><extensions><speed>1.429621</speed><course>303.632629</course><hAcc>1.567993</hAcc><vAcc>0.821013</vAcc></extensions></trkpt>
      <trkpt lon="-2.224715" lat="53.126895"><ele>141.187943</ele><time>2022-03-04T13:08:11Z</time><extensions><speed>1.411303</speed><course>304.639984</course><hAcc>1.586183</hAcc><vAcc>0.821336</vAcc></extensions></trkpt>
      <trkpt lon="-2.224732" lat="53.126902"><ele>141.114532</ele><time>2022-03-04T13:08:12Z</time><extensions><speed>1.343721</speed><course>305.012329</course><hAcc>1.588615</hAcc><vAcc>0.821568</vAcc></extensions></trkpt>
      <trkpt lon="-2.224748" lat="53.126908"><ele>141.032730</ele><time>2022-03-04T13:08:12Z</time><extensions><speed>1.253500</speed><course>304.493164</course><hAcc>1.606789</hAcc><vAcc>0.821689</vAcc></extensions></trkpt>
      <trkpt lon="-2.224765" lat="53.126915"><ele>140.952911</ele><time>2022-03-04T13:08:13Z</time><extensions><speed>1.369934</speed><course>299.559235</course><hAcc>1.574826</hAcc><vAcc>0.821748</vAcc></extensions></trkpt>
      <trkpt lon="-2.224783" lat="53.126921"><ele>140.870865</ele><time>2022-03-04T13:08:14Z</time><extensions><speed>1.417799</speed><course>296.987854</course><hAcc>1.580611</hAcc><vAcc>0.821733</vAcc></extensions></trkpt>
      <trkpt lon="-2.224802" lat="53.126926"><ele>140.790222</ele><time>2022-03-04T13:08:15Z</time><extensions><speed>1.410694</speed><course>296.446228</course><hAcc>1.608771</hAcc><vAcc>0.821636</vAcc></extensions></trkpt>
      <trkpt lon="-2.224821" lat="53.126932"><ele>140.724060</ele><time>2022-03-04T13:08:16Z</time><extensions><speed>1.458736</speed><course>295.608276</course><hAcc>1.608102</hAcc><vAcc>0.821504</vAcc></extensions></trkpt>
      <trkpt lon="-2.224841" lat="53.126938"><ele>140.667450</ele><time>2022-03-04T13:08:17Z</time><extensions><speed>1.475426</speed><course>296.291748</course><hAcc>1.626156</hAcc><vAcc>0.821369</vAcc></extensions></trkpt>
      <trkpt lon="-2.224860" lat="53.126944"><ele>140.599823</ele><time>2022-03-04T13:08:18Z</time><extensions><speed>1.430704</speed><course>296.406403</course><hAcc>1.643635</hAcc><vAcc>0.821193</vAcc></extensions></trkpt>
      <trkpt lon="-2.224879" lat="53.126949"><ele>140.520264</ele><time>2022-03-04T13:08:19Z</time><extensions><speed>1.414941</speed><course>295.418213</course><hAcc>1.645603</hAcc><vAcc>0.821015</vAcc></extensions></trkpt>
      <trkpt lon="-2.224898" lat="53.126954"><ele>140.462723</ele><time>2022-03-04T13:08:20Z</time><extensions><speed>1.397720</speed><course>294.335052</course><hAcc>1.623749</hAcc><vAcc>0.820880</vAcc></extensions></trkpt>
      <trkpt lon="-2.224918" lat="53.126959"><ele>140.389175</ele><time>2022-03-04T13:08:21Z</time><extensions><speed>1.392098</speed><course>293.633423</course><hAcc>1.627943</hAcc><vAcc>0.820779</vAcc></extensions></trkpt>
      <trkpt lon="-2.224937" lat="53.126964"><ele>140.327972</ele><time>2022-03-04T13:08:22Z</time><extensions><speed>1.386673</speed><course>294.828888</course><hAcc>1.620536</hAcc><vAcc>0.820739</vAcc></extensions></trkpt>
      <trkpt lon="-2.224955" lat="53.126970"><ele>140.284332</ele><time>2022-03-04T13:08:23Z</time><extensions><speed>1.310095</speed><course>297.004517</course><hAcc>1.619226</hAcc><vAcc>0.820755</vAcc></extensions></trkpt>
      <trkpt lon="-2.224971" lat="53.126975"><ele>140.238876</ele><time>2022-03-04T13:08:24Z</time><extensions><speed>1.204539</speed><course>298.602142</course><hAcc>1.617053</hAcc><vAcc>0.820846</vAcc></extensions></trkpt>
      <trkpt lon="-2.224987" lat="53.126980"><ele>140.196808</ele><time>2022-03-04T13:08:25Z</time><extensions><speed>1.149053</speed><course>303.840851</course><hAcc>1.625874</hAcc><vAcc>0.821020</vAcc></extensions></trkpt>
      <trkpt lon="-2.225000" lat="53.126986"><ele>140.163376</ele><time>2022-03-04T13:08:26Z</time><extensions><speed>1.064029</speed><course>307.859894</course><hAcc>1.661034</hAcc><vAcc>0.821273</vAcc></extensions></trkpt>
      <trkpt lon="-2.225013" lat="53.126991"><ele>140.122910</ele><time>2022-03-04T13:08:27Z</time><extensions><speed>0.982010</speed><course>301.751221</course><hAcc>1.632566</hAcc><vAcc>0.821578</vAcc></extensions></trkpt>
      <trkpt lon="-2.225026" lat="53.126995"><ele>140.080429</ele><time>2022-03-04T13:08:28Z</time><extensions><speed>0.987562</speed><course>293.911163</course><hAcc>1.612094</hAcc><vAcc>0.821914</vAcc></extensions></trkpt>
      <trkpt lon="-2.225040" lat="53.126999"><ele>140.040634</ele><time>2022-03-04T13:08:29Z</time><extensions><speed>1.021593</speed><course>287.513428</course><hAcc>1.626013</hAcc><vAcc>0.822284</vAcc></extensions></trkpt>
      <trkpt lon="-2.225055" lat="53.127001"><ele>140.005127</ele><time>2022-03-04T13:08:30Z</time><extensions><speed>1.111550</speed><course>284.877045</course><hAcc>1.646601</hAcc><vAcc>0.822663</vAcc></extensions></trkpt>
      <trkpt lon="-2.225072" lat="53.127004"><ele>139.978912</ele><time>2022-03-04T13:08:31Z</time><extensions><speed>1.187566</speed><course>283.463623</course><hAcc>1.633047</hAcc><vAcc>0.822998</vAcc></extensions></trkpt>
      <trkpt lon="-2.225089" lat="53.127006"><ele>139.949203</ele><time>2022-03-04T13:08:32Z</time><extensions><speed>1.206199</speed><course>285.107483</course><hAcc>1.622864</hAcc><vAcc>0.823274</vAcc></extensions></trkpt>
      <trkpt lon="-2.225106" lat="53.127010"><ele>139.915558</ele><time>2022-03-04T13:08:33Z</time><extensions><speed>1.185475</speed><course>288.976105</course><hAcc>1.627612</hAcc><vAcc>0.823479</vAcc></extensions></trkpt>
      <trkpt lon="-2.225123" lat="53.127013"><ele>139.896683</ele><time>2022-03-04T13:08:34Z</time><extensions><speed>1.148229</speed><course>292.461578</course><hAcc>1.649109</hAcc><vAcc>0.823578</vAcc></extensions></trkpt>
      <trkpt lon="-2.225138" lat="53.127017"><ele>139.885834</ele><time>2022-03-04T13:08:35Z</time><extensions><speed>1.005637</speed><course>293.676422</course><hAcc>1.656127</hAcc><vAcc>0.823628</vAcc></extensions></trkpt>
      <trkpt lon="-2.225152" lat="53.127020"><ele>139.864471</ele><time>2022-03-04T13:08:36Z</time><extensions><speed>1.052390</speed><course>291.559021</course><hAcc>1.626024</hAcc><vAcc>0.823640</vAcc></extensions></trkpt>
      <trkpt lon="-2.225167" lat="53.127024"><ele>139.836212</ele><time>2022-03-04T13:08:37Z</time><extensions><speed>1.135942</speed><course>291.751099</course><hAcc>1.615240</hAcc><vAcc>0.823591</vAcc></extensions></trkpt>
      <trkpt lon="-2.225183" lat="53.127028"><ele>139.808899</ele><time>2022-03-04T13:08:38Z</time><extensions><speed>1.188354</speed><course>291.407135</course><hAcc>1.616711</hAcc><vAcc>0.823451</vAcc></extensions></trkpt>
      <trkpt lon="-2.225200" lat="53.127031"><ele>139.788803</ele><time>2022-03-04T13:08:39Z</time><extensions><speed>1.206868</speed><course>291.771820</course><hAcc>1.646618</hAcc><vAcc>0.823252</vAcc></extensions></trkpt>
      <trkpt lon="-2.225217" lat="53.127035"><ele>139.778992</ele><time>2022-03-04T13:08:40Z</time><extensions><speed>1.222038</speed><course>291.147369</course><hAcc>1.665503</hAcc><vAcc>0.823024</vAcc></extensions></trkpt>
      <trkpt lon="-2.225234" lat="53.127039"><ele>139.762802</ele><time>2022-03-04T13:08:41Z</time><extensions><speed>1.190653</speed><course>287.269531</course><hAcc>1.632678</hAcc><vAcc>0.822730</vAcc></extensions></trkpt>
      <trkpt lon="-2.225250" lat="53.127042"><ele>139.739151</ele><time>2022-03-04T13:08:42Z</time><extensions><speed>1.092841</speed><course>285.558533</course><hAcc>1.629136</hAcc><vAcc>0.822481</vAcc></extensions></trkpt>
      <trkpt lon="-2.225265" lat="53.127044"><ele>139.715012</ele><time>2022-03-04T13:08:43Z</time><extensions><speed>0.943665</speed><course>282.457397</course><hAcc>1.656626</hAcc><vAcc>0.822264</vAcc></extensions></trkpt>
      <trkpt lon="-2.225277" lat="53.127045"><ele>139.690689</ele><time>2022-03-04T13:08:44Z</time><extensions><speed>0.730247</speed><course>268.907898</course><hAcc>1.677057</hAcc><vAcc>0.822146</vAcc></extensions></trkpt>
      <trkpt lon="-2.225286" lat="53.127043"><ele>139.665924</ele><time>2022-03-04T13:08:45Z</time><extensions><speed>0.613386</speed><course>230.276978</course><hAcc>1.663942</hAcc><vAcc>0.822113</vAcc></extensions></trkpt>
      <trkpt lon="-2.225291" lat="53.127038"><ele>139.619995</ele><time>2022-03-04T13:08:46Z</time><extensions><speed>0.640905</speed><course>186.334137</course><hAcc>1.674057</hAcc><vAcc>0.822166</vAcc></extensions></trkpt>
      <trkpt lon="-2.225291" lat="53.127032"><ele>139.578629</ele><time>2022-03-04T13:08:47Z</time><extensions><speed>0.716313</speed><course>177.207733</course><hAcc>1.681686</hAcc><vAcc>0.822300</vAcc></extensions></trkpt>
      <trkpt lon="-2.225291" lat="53.127026"><ele>139.544800</ele><time>2022-03-04T13:08:48Z</time><extensions><speed>0.560263</speed><course>190.268295</course><hAcc>1.693696</hAcc><vAcc>0.822475</vAcc></extensions></trkpt>
      <trkpt lon="-2.225294" lat="53.127021"><ele>139.509903</ele><time>2022-03-04T13:08:49Z</time><extensions><speed>0.673719</speed><course>201.026062</course><hAcc>1.686941</hAcc><vAcc>0.822664</vAcc></extensions></trkpt>
      <trkpt lon="-2.225298" lat="53.127016"><ele>139.470306</ele><time>2022-03-04T13:08:50Z</time><extensions><speed>0.578740</speed><course>208.077652</course><hAcc>1.704708</hAcc><vAcc>0.822890</vAcc></extensions></trkpt>
      <trkpt lon="-2.225301" lat="53.127013"><ele>139.425247</ele><time>2022-03-04T13:08:51Z</time><extensions><speed>0.321151</speed><course>215.758698</course><hAcc>1.717453</hAcc><vAcc>0.823112</vAcc></extensions></trkpt>
      <trkpt lon="-2.225304" lat="53.127011"><ele>139.369507</ele><time>2022-03-04T13:08:52Z</time><extensions><speed>0.214528</speed><course>229.834106</course><hAcc>1.721943</hAcc><vAcc>0.823306</vAcc></extensions></trkpt>
      <trkpt lon="-2.225306" lat="53.127010"><ele>139.318146</ele><time>2022-03-04T13:08:53Z</time><extensions><speed>0.177301</speed><course>242.379578</course><hAcc>1.727282</hAcc><vAcc>0.823518</vAcc></extensions></trkpt>
      <trkpt lon="-2.225309" lat="53.127009"><ele>139.264404</ele><time>2022-03-04T13:08:54Z</time><extensions><speed>0.177155</speed><course>249.399078</course><hAcc>1.732955</hAcc><vAcc>0.823744</vAcc></extensions></trkpt>
      <trkpt lon="-2.225311" lat="53.127009"><ele>139.209839</ele><time>2022-03-04T13:08:55Z</time><extensions><speed>0.193998</speed><course>251.745575</course><hAcc>1.738050</hAcc><vAcc>0.823952</vAcc></extensions></trkpt>
      <trkpt lon="-2.225314" lat="53.127008"><ele>139.155273</ele><time>2022-03-04T13:08:56Z</time><extensions><speed>0.213169</speed><course>251.480530</course><hAcc>1.738295</hAcc><vAcc>0.824157</vAcc></extensions></trkpt>
      <trkpt lon="-2.225318" lat="53.127007"><ele>139.107910</ele><time>2022-03-04T13:08:57Z</time><extensions><speed>0.226198</speed><course>250.420410</course><hAcc>1.734990</hAcc><vAcc>0.824347</vAcc></extensions></trkpt>
      <trkpt lon="-2.225321" lat="53.127007"><ele>139.072510</ele><time>2022-03-04T13:08:58Z</time><extensions><speed>0.243275</speed><course>246.535522</course><hAcc>1.728132</hAcc><vAcc>0.824527</vAcc></extensions></trkpt>
      <trkpt lon="-2.225324" lat="53.127005"><ele>139.030029</ele><time>2022-03-04T13:08:59Z</time><extensions><speed>0.278325</speed><course>238.988159</course><hAcc>1.719226</hAcc><vAcc>0.824685</vAcc></extensions></trkpt>
      <trkpt lon="-2.225328" lat="53.127004"><ele>138.994781</ele><time>2022-03-04T13:09:00Z</time><extensions><speed>0.333423</speed><course>230.542801</course><hAcc>1.723288</hAcc><vAcc>0.824814</vAcc></extensions></trkpt>
      <trkpt lon="-2.225331" lat="53.127003"><ele>138.963135</ele><time>2022-03-04T13:09:01Z</time><extensions><speed>0.186353</speed><course>245.113235</course><hAcc>1.748915</hAcc><vAcc>0.824930</vAcc></extensions></trkpt>
      <trkpt lon="-2.225334" lat="53.127002"><ele>138.935562</ele><time>2022-03-04T13:09:02Z</time><extensions><speed>0.173405</speed><course>259.641174</course><hAcc>1.728721</hAcc><vAcc>0.825036</vAcc></extensions></trkpt>
      <trkpt lon="-2.225337" lat="53.127002"><ele>138.937286</ele><time>2022-03-04T13:09:03Z</time><extensions><speed>0.172328</speed><course>266.906433</course><hAcc>1.718474</hAcc><vAcc>0.825124</vAcc></extensions></trkpt>
      <trkpt lon="-2.225339" lat="53.127002"><ele>138.947083</ele><time>2022-03-04T13:09:04Z</time><extensions><speed>0.178941</speed><course>267.621552</course><hAcc>1.723802</hAcc><vAcc>0.825199</vAcc></extensions></trkpt>
      <trkpt lon="-2.225342" lat="53.127002"><ele>138.964905</ele><time>2022-03-04T13:09:05Z</time><extensions><speed>0.197662</speed><course>264.829498</course><hAcc>1.726852</hAcc><vAcc>0.825240</vAcc></extensions></trkpt>
      <trkpt lon="-2.225345" lat="53.127002"><ele>138.990479</ele><time>2022-03-04T13:09:06Z</time><extensions><speed>0.208816</speed><course>263.628662</course><hAcc>1.729515</hAcc><vAcc>0.825248</vAcc></extensions></trkpt>
      <trkpt lon="-2.225348" lat="53.127001"><ele>139.020905</ele><time>2022-03-04T13:09:07Z</time><extensions><speed>0.210045</speed><course>266.262848</course><hAcc>1.730313</hAcc><vAcc>0.825229</vAcc></extensions></trkpt>
      <trkpt lon="-2.225351" lat="53.127001"><ele>139.065674</ele><time>2022-03-04T13:09:08Z</time><extensions><speed>0.198745</speed><course>271.520813</course><hAcc>1.730235</hAcc><vAcc>0.825179</vAcc></extensions></trkpt>
      <trkpt lon="-2.225354" lat="53.127001"><ele>139.116959</ele><time>2022-03-04T13:09:09Z</time><extensions><speed>0.181538</speed><course>277.266541</course><hAcc>1.731270</hAcc><vAcc>0.825112</vAcc></extensions></trkpt>
      <trkpt lon="-2.225357" lat="53.127002"><ele>139.173935</ele><time>2022-03-04T13:09:10Z</time><extensions><speed>0.165290</speed><course>283.165466</course><hAcc>1.732279</hAcc><vAcc>0.825001</vAcc></extensions></trkpt>
      <trkpt lon="-2.225359" lat="53.127002"><ele>139.235580</ele><time>2022-03-04T13:09:11Z</time><extensions><speed>0.153027</speed><course>290.401398</course><hAcc>1.731640</hAcc><vAcc>0.824849</vAcc></extensions></trkpt>
      <trkpt lon="-2.225361" lat="53.127003"><ele>139.300613</ele><time>2022-03-04T13:09:12Z</time><extensions><speed>0.148313</speed><course>297.558411</course><hAcc>1.727237</hAcc><vAcc>0.824663</vAcc></extensions></trkpt>
      <trkpt lon="-2.225363" lat="53.127003"><ele>139.367554</ele><time>2022-03-04T13:09:13Z</time><extensions><speed>0.133846</speed><course>302.922668</course><hAcc>1.722193</hAcc><vAcc>0.824466</vAcc></extensions></trkpt>
      <trkpt lon="-2.225364" lat="53.127004"><ele>139.447083</ele><time>2022-03-04T13:09:14Z</time><extensions><speed>0.112963</speed><course>308.783722</course><hAcc>1.713376</hAcc><vAcc>0.824270</vAcc></extensions></trkpt>
      <trkpt lon="-2.225365" lat="53.127005"><ele>139.529480</ele><time>2022-03-04T13:09:15Z</time><extensions><speed>0.095486</speed><course>316.164917</course><hAcc>1.700031</hAcc><vAcc>0.824017</vAcc></extensions></trkpt>
      <trkpt lon="-2.225366" lat="53.127005"><ele>139.611664</ele><time>2022-03-04T13:09:16Z</time><extensions><speed>0.082693</speed><course>324.790070</course><hAcc>1.686509</hAcc><vAcc>0.823811</vAcc></extensions></trkpt>
      <trkpt lon="-2.225367" lat="53.127006"><ele>139.684464</ele><time>2022-03-04T13:09:17Z</time><extensions><speed>0.073004</speed><course>333.255310</course><hAcc>1.679177</hAcc><vAcc>0.823606</vAcc></extensions></trkpt>
      <trkpt lon="-2.225367" lat="53.127007"><ele>139.750259</ele><time>2022-03-04T13:09:18Z</time><extensions><speed>0.061062</speed><course>340.391296</course><hAcc>1.687445</hAcc><vAcc>0.823398</vAcc></extensions></trkpt>
      <trkpt lon="-2.225368" lat="53.127007"><ele>139.810516</ele><time>2022-03-04T13:09:19Z</time><extensions><speed>0.059754</speed><course>346.462494</course><hAcc>1.696475</hAcc><vAcc>0.823089</vAcc></extensions></trkpt>
      <trkpt lon="-2.225368" lat="53.127008"><ele>139.855759</ele><time>2022-03-04T13:09:20Z</time><extensions><speed>0.064776</speed><course>352.206421</course><hAcc>1.709108</hAcc><vAcc>0.822763</vAcc></extensions></trkpt>
      <trkpt lon="-2.225368" lat="53.127009"><ele>139.883163</ele><time>2022-03-04T13:09:21Z</time><extensions><speed>0.112575</speed><course>357.905273</course><hAcc>1.683622</hAcc><vAcc>0.822480</vAcc></extensions></trkpt>
      <trkpt lon="-2.225367" lat="53.127010"><ele>139.897308</ele><time>2022-03-04T13:09:22Z</time><extensions><speed>0.156465</speed><course>2.514418</course><hAcc>1.684340</hAcc><vAcc>0.822197</vAcc></extensions></trkpt>
      <trkpt lon="-2.225367" lat="53.127011"><ele>139.902328</ele><time>2022-03-04T13:09:23Z</time><extensions><speed>0.195500</speed><course>8.341438</course><hAcc>1.703488</hAcc><vAcc>0.821946</vAcc></extensions></trkpt>
      <trkpt lon="-2.225366" lat="53.127013"><ele>139.906113</ele><time>2022-03-04T13:09:24Z</time><extensions><speed>0.217475</speed><course>18.298918</course><hAcc>1.720430</hAcc><vAcc>0.821756</vAcc></extensions></trkpt>
      <trkpt lon="-2.225365" lat="53.127015"><ele>139.896515</ele><time>2022-03-04T13:09:26Z</time><extensions><speed>0.233734</speed><course>34.332989</course><hAcc>1.731687</hAcc><vAcc>0.821620</vAcc></extensions></trkpt>
      <trkpt lon="-2.225362" lat="53.127017"><ele>139.877228</ele><time>2022-03-04T13:09:27Z</time><extensions><speed>0.274833</speed><course>51.510616</course><hAcc>1.743228</hAcc><vAcc>0.821512</vAcc></extensions></trkpt>
      <trkpt lon="-2.225358" lat="53.127018"><ele>139.856277</ele><time>2022-03-04T13:09:28Z</time><extensions><speed>0.382914</speed><course>63.065014</course><hAcc>1.745333</hAcc><vAcc>0.821454</vAcc></extensions></trkpt>
      <trkpt lon="-2.225351" lat="53.127020"><ele>139.828751</ele><time>2022-03-04T13:09:29Z</time><extensions><speed>0.556120</speed><course>68.641747</course><hAcc>1.736538</hAcc><vAcc>0.821453</vAcc></extensions></trkpt>
      <trkpt lon="-2.225342" lat="53.127022"><ele>139.799118</ele><time>2022-03-04T13:09:30Z</time><extensions><speed>0.803465</speed><course>71.395233</course><hAcc>1.718723</hAcc><vAcc>0.821518</vAcc></extensions></trkpt>
      <trkpt lon="-2.225330" lat="53.127025"><ele>139.756760</ele><time>2022-03-04T13:09:31Z</time><extensions><speed>0.917999</speed><course>59.865139</course><hAcc>1.723488</hAcc><vAcc>0.821621</vAcc></extensions></trkpt>
      <trkpt lon="-2.225319" lat="53.127030"><ele>139.716995</ele><time>2022-03-04T13:09:32Z</time><extensions><speed>0.907102</speed><course>47.158379</course><hAcc>1.737703</hAcc><vAcc>0.821800</vAcc></extensions></trkpt>
      <trkpt lon="-2.225309" lat="53.127036"><ele>139.673752</ele><time>2022-03-04T13:09:33Z</time><extensions><speed>0.930732</speed><course>43.407990</course><hAcc>1.730753</hAcc><vAcc>0.822001</vAcc></extensions></trkpt>
      <trkpt lon="-2.225300" lat="53.127041"><ele>139.627853</ele><time>2022-03-04T13:09:34Z</time><extensions><speed>0.839489</speed><course>45.909878</course><hAcc>1.723240</hAcc><vAcc>0.822244</vAcc></extensions></trkpt>
      <trkpt lon="-2.225292" lat="53.127045"><ele>139.588348</ele><time>2022-03-04T13:09:35Z</time><extensions><speed>0.572444</speed><course>60.095402</course><hAcc>1.717124</hAcc><vAcc>0.822503</vAcc></extensions></trkpt>
      <trkpt lon="-2.225286" lat="53.127046"><ele>139.554291</ele><time>2022-03-04T13:09:36Z</time><extensions><speed>0.345635</speed><course>87.735504</course><hAcc>1.715047</hAcc><vAcc>0.822755</vAcc></extensions></trkpt>
      <trkpt lon="-2.225281" lat="53.127046"><ele>139.522873</ele><time>2022-03-04T13:09:37Z</time><extensions><speed>0.262781</speed><course>121.919891</course><hAcc>1.718197</hAcc><vAcc>0.823016</vAcc></extensions></trkpt>
      <trkpt lon="-2.225279" lat="53.127044"><ele>139.506317</ele><time>2022-03-04T13:09:38Z</time><extensions><speed>0.246143</speed><course>152.234207</course><hAcc>1.723349</hAcc><vAcc>0.823250</vAcc></extensions></trkpt>
      <trkpt lon="-2.225278" lat="53.127042"><ele>139.494720</ele><time>2022-03-04T13:09:39Z</time><extensions><speed>0.259108</speed><course>174.936081</course><hAcc>1.723855</hAcc><vAcc>0.823455</vAcc></extensions></trkpt>
      <trkpt lon="-2.225278" lat="53.127040"><ele>139.488220</ele><time>2022-03-04T13:09:40Z</time><extensions><speed>0.275366</speed><course>189.983337</course><hAcc>1.724223</hAcc><vAcc>0.823632</vAcc></extensions></trkpt>
      <trkpt lon="-2.225279" lat="53.127037"><ele>139.492111</ele><time>2022-03-04T13:09:41Z</time><extensions><speed>0.290138</speed><course>198.551102</course><hAcc>1.724877</hAcc><vAcc>0.823779</vAcc></extensions></trkpt>
      <trkpt lon="-2.225281" lat="53.127035"><ele>139.494766</ele><time>2022-03-04T13:09:42Z</time><extensions><speed>0.302377</speed><course>202.280304</course><hAcc>1.725814</hAcc><vAcc>0.823947</vAcc></extensions></trkpt>
      <trkpt lon="-2.225283" lat="53.127032"><ele>139.505295</ele><time>2022-03-04T13:09:43Z</time><extensions><speed>0.302273</speed><course>203.336777</course><hAcc>1.729681</hAcc><vAcc>0.824119</vAcc></extensions></trkpt>
      <trkpt lon="-2.225284" lat="53.127030"><ele>139.517761</ele><time>2022-03-04T13:09:44Z</time><extensions><speed>0.293892</speed><course>203.296600</course><hAcc>1.731688</hAcc><vAcc>0.824315</vAcc></extensions></trkpt>
      <trkpt lon="-2.225286" lat="53.127027"><ele>139.530746</ele><time>2022-03-04T13:09:45Z</time><extensions><speed>0.272748</speed><course>203.715195</course><hAcc>1.730001</hAcc><vAcc>0.824513</vAcc></extensions></trkpt>
      <trkpt lon="-2.225288" lat="53.127025"><ele>139.551941</ele><time>2022-03-04T13:09:46Z</time><extensions><speed>0.247880</speed><course>207.000137</course><hAcc>1.726611</hAcc><vAcc>0.824740</vAcc></extensions></trkpt>
      <trkpt lon="-2.225290" lat="53.127024"><ele>139.572861</ele><time>2022-03-04T13:09:47Z</time><extensions><speed>0.219090</speed><course>215.183578</course><hAcc>1.726997</hAcc><vAcc>0.824969</vAcc></extensions></trkpt>
      <trkpt lon="-2.225292" lat="53.127022"><ele>139.595322</ele><time>2022-03-04T13:09:48Z</time><extensions><speed>0.190122</speed><course>228.300400</course><hAcc>1.729086</hAcc><vAcc>0.825200</vAcc></extensions></trkpt>
      <trkpt lon="-2.225294" lat="53.127021"><ele>139.618210</ele><time>2022-03-04T13:09:49Z</time><extensions><speed>0.174331</speed><course>245.668793</course><hAcc>1.731133</hAcc><vAcc>0.825434</vAcc></extensions></trkpt>
      <trkpt lon="-2.225297" lat="53.127021"><ele>139.640640</ele><time>2022-03-04T13:09:50Z</time><extensions><speed>0.188631</speed><course>261.499146</course><hAcc>1.729869</hAcc><vAcc>0.825665</vAcc></extensions></trkpt>
      <trkpt lon="-2.225300" lat="53.127021"><ele>139.661942</ele><time>2022-03-04T13:09:51Z</time><extensions><speed>0.222481</speed><course>270.697876</course><hAcc>1.727866</hAcc><vAcc>0.825891</vAcc></extensions></trkpt>
      <trkpt lon="-2.225303" lat="53.127021"><ele>139.681656</ele><time>2022-03-04T13:09:52Z</time><extensions><speed>0.260247</speed><course>274.938873</course><hAcc>1.727457</hAcc><vAcc>0.826111</vAcc></extensions></trkpt>
      <trkpt lon="-2.225308" lat="53.127021"><ele>139.693542</ele><time>2022-03-04T13:09:53Z</time><extensions><speed>0.292821</speed><course>276.800781</course><hAcc>1.724600</hAcc><vAcc>0.826311</vAcc></extensions></trkpt>
      <trkpt lon="-2.225312" lat="53.127021"><ele>139.696823</ele><time>2022-03-04T13:09:54Z</time><extensions><speed>0.288429</speed><course>277.339386</course><hAcc>1.724677</hAcc><vAcc>0.826501</vAcc></extensions></trkpt>
      <trkpt lon="-2.225316" lat="53.127022"><ele>139.692581</ele><time>2022-03-04T13:09:55Z</time><extensions><speed>0.255154</speed><course>274.925873</course><hAcc>1.723620</hAcc><vAcc>0.826671</vAcc></extensions></trkpt>
      <trkpt lon="-2.225320" lat="53.127022"><ele>139.702759</ele><time>2022-03-04T13:09:56Z</time><extensions><speed>0.209810</speed><course>269.954407</course><hAcc>1.720948</hAcc><vAcc>0.826815</vAcc></extensions></trkpt>
      <trkpt lon="-2.225323" lat="53.127022"><ele>139.705444</ele><time>2022-03-04T13:09:57Z</time><extensions><speed>0.172646</speed><course>267.451294</course><hAcc>1.717705</hAcc><vAcc>0.826967</vAcc></extensions></trkpt>
      <trkpt lon="-2.225325" lat="53.127022"><ele>139.699020</ele><time>2022-03-04T13:09:58Z</time><extensions><speed>0.151682</speed><course>270.698792</course><hAcc>1.715222</hAcc><vAcc>0.827101</vAcc></extensions></trkpt>
      <trkpt lon="-2.225328" lat="53.127022"><ele>139.681839</ele><time>2022-03-04T13:09:59Z</time><extensions><speed>0.154867</speed><course>278.296570</course><hAcc>1.711319</hAcc><vAcc>0.827176</vAcc></extensions></trkpt>
      <trkpt lon="-2.225330" lat="53.127022"><ele>139.665176</ele><time>2022-03-04T13:10:00Z</time><extensions><speed>0.182990</speed><course>286.335358</course><hAcc>1.710963</hAcc><vAcc>0.827218</vAcc></extensions></trkpt>
      <trkpt lon="-2.225333" lat="53.127023"><ele>139.652512</ele><time>2022-03-04T13:10:01Z</time><extensions><speed>0.235760</speed><course>292.265961</course><hAcc>1.715282</hAcc><vAcc>0.827237</vAcc></extensions></trkpt>
      <trkpt lon="-2.225337" lat="53.127024"><ele>139.637619</ele><time>2022-03-04T13:10:02Z</time><extensions><speed>0.318755</speed><course>296.325195</course><hAcc>1.719116</hAcc><vAcc>0.827231</vAcc></extensions></trkpt>
      <trkpt lon="-2.225342" lat="53.127026"><ele>139.621765</ele><time>2022-03-04T13:10:03Z</time><extensions><speed>0.443493</speed><course>299.714752</course><hAcc>1.716877</hAcc><vAcc>0.827207</vAcc></extensions></trkpt>
      <trkpt lon="-2.225349" lat="53.127028"><ele>139.605545</ele><time>2022-03-04T13:10:04Z</time><extensions><speed>0.580059</speed><course>301.984589</course><hAcc>1.715248</hAcc><vAcc>0.827160</vAcc></extensions></trkpt>
      <trkpt lon="-2.225357" lat="53.127031"><ele>139.589523</ele><time>2022-03-04T13:10:05Z</time><extensions><speed>0.691901</speed><course>303.032684</course><hAcc>1.717246</hAcc><vAcc>0.827097</vAcc></extensions></trkpt>
      <trkpt lon="-2.225366" lat="53.127035"><ele>139.561935</ele><time>2022-03-04T13:10:06Z</time><extensions><speed>0.756857</speed><course>304.308136</course><hAcc>1.720712</hAcc><vAcc>0.827013</vAcc></extensions></trkpt>
      <trkpt lon="-2.225375" lat="53.127039"><ele>139.530624</ele><time>2022-03-04T13:10:07Z</time><extensions><speed>0.766361</speed><course>306.212463</course><hAcc>1.725169</hAcc><vAcc>0.826920</vAcc></extensions></trkpt>
      <trkpt lon="-2.225384" lat="53.127043"><ele>139.493439</ele><time>2022-03-04T13:10:08Z</time><extensions><speed>0.733886</speed><course>307.342834</course><hAcc>1.728999</hAcc><vAcc>0.826811</vAcc></extensions></trkpt>
      <trkpt lon="-2.225393" lat="53.127047"><ele>139.453384</ele><time>2022-03-04T13:10:09Z</time><extensions><speed>0.687180</speed><course>306.528473</course><hAcc>1.727983</hAcc><vAcc>0.826697</vAcc></extensions></trkpt>
      <trkpt lon="-2.225401" lat="53.127050"><ele>139.414139</ele><time>2022-03-04T13:10:10Z</time><extensions><speed>0.599112</speed><course>304.276733</course><hAcc>1.726285</hAcc><vAcc>0.826591</vAcc></extensions></trkpt>
      <trkpt lon="-2.225408" lat="53.127053"><ele>139.367859</ele><time>2022-03-04T13:10:11Z</time><extensions><speed>0.480651</speed><course>301.757568</course><hAcc>1.724463</hAcc><vAcc>0.826480</vAcc></extensions></trkpt>
      <trkpt lon="-2.225413" lat="53.127055"><ele>139.316879</ele><time>2022-03-04T13:10:12Z</time><extensions><speed>0.365103</speed><course>299.695862</course><hAcc>1.720983</hAcc><vAcc>0.826378</vAcc></extensions></trkpt>
      <trkpt lon="-2.225417" lat="53.127056"><ele>139.269806</ele><time>2022-03-04T13:10:13Z</time><extensions><speed>0.269576</speed><course>298.207367</course><hAcc>1.717299</hAcc><vAcc>0.826270</vAcc></extensions></trkpt>
      <trkpt lon="-2.225420" lat="53.127057"><ele>139.215073</ele><time>2022-03-04T13:10:14Z</time><extensions><speed>0.200796</speed><course>297.088196</course><hAcc>1.716094</hAcc><vAcc>0.826148</vAcc></extensions></trkpt>
      <trkpt lon="-2.225423" lat="53.127058"><ele>139.160690</ele><time>2022-03-04T13:10:15Z</time><extensions><speed>0.160630</speed><course>296.287567</course><hAcc>1.718597</hAcc><vAcc>0.826024</vAcc></extensions></trkpt>
      <trkpt lon="-2.225425" lat="53.127059"><ele>139.096649</ele><time>2022-03-04T13:10:16Z</time><extensions><speed>0.145351</speed><course>295.402069</course><hAcc>1.720716</hAcc><vAcc>0.825912</vAcc></extensions></trkpt>
      <trkpt lon="-2.225427" lat="53.127059"><ele>139.030228</ele><time>2022-03-04T13:10:17Z</time><extensions><speed>0.159826</speed><course>294.474243</course><hAcc>1.712417</hAcc><vAcc>0.825767</vAcc></extensions></trkpt>
      <trkpt lon="-2.225430" lat="53.127060"><ele>138.951279</ele><time>2022-03-04T13:10:17Z</time><extensions><speed>0.188951</speed><course>296.319855</course><hAcc>1.708550</hAcc><vAcc>0.825600</vAcc></extensions></trkpt>
      <trkpt lon="-2.225433" lat="53.127061"><ele>138.875961</ele><time>2022-03-04T13:10:18Z</time><extensions><speed>0.240201</speed><course>300.696259</course><hAcc>1.713582</hAcc><vAcc>0.825443</vAcc></extensions></trkpt>
      <trkpt lon="-2.225436" lat="53.127062"><ele>138.806107</ele><time>2022-03-04T13:10:19Z</time><extensions><speed>0.315513</speed><course>304.628937</course><hAcc>1.720912</hAcc><vAcc>0.825276</vAcc></extensions></trkpt>
      <trkpt lon="-2.225441" lat="53.127064"><ele>138.734207</ele><time>2022-03-04T13:10:20Z</time><extensions><speed>0.434089</speed><course>306.382568</course><hAcc>1.717979</hAcc><vAcc>0.825109</vAcc></extensions></trkpt>
      <trkpt lon="-2.225447" lat="53.127067"><ele>138.665558</ele><time>2022-03-04T13:10:21Z</time><extensions><speed>0.541987</speed><course>306.643250</course><hAcc>1.717711</hAcc><vAcc>0.824941</vAcc></extensions></trkpt>
      <trkpt lon="-2.225454" lat="53.127070"><ele>138.607239</ele><time>2022-03-04T13:10:22Z</time><extensions><speed>0.626335</speed><course>306.813782</course><hAcc>1.719405</hAcc><vAcc>0.824774</vAcc></extensions></trkpt>
      <trkpt lon="-2.225462" lat="53.127074"><ele>138.553299</ele><time>2022-03-04T13:10:23Z</time><extensions><speed>0.675552</speed><course>307.302612</course><hAcc>1.720436</hAcc><vAcc>0.824611</vAcc></extensions></trkpt>
      <trkpt lon="-2.225470" lat="53.127078"><ele>138.498642</ele><time>2022-03-04T13:10:24Z</time><extensions><speed>0.684080</speed><course>308.030701</course><hAcc>1.719849</hAcc><vAcc>0.824451</vAcc></extensions></trkpt>
      <trkpt lon="-2.225478" lat="53.127081"><ele>138.442291</ele><time>2022-03-04T13:10:25Z</time><extensions><speed>0.677684</speed><course>309.717560</course><hAcc>1.717297</hAcc><vAcc>0.824311</vAcc></extensions></trkpt>
      <trkpt lon="-2.225486" lat="53.127086"><ele>138.402405</ele><time>2022-03-04T13:10:26Z</time><extensions><speed>0.736268</speed><course>312.793884</course><hAcc>1.717428</hAcc><vAcc>0.824185</vAcc></extensions></trkpt>
      <trkpt lon="-2.225496" lat="53.127090"><ele>138.368530</ele><time>2022-03-04T13:10:27Z</time><extensions><speed>0.988555</speed><course>303.620056</course><hAcc>1.735639</hAcc><vAcc>0.824099</vAcc></extensions></trkpt>
      <trkpt lon="-2.225510" lat="53.127096"><ele>138.325668</ele><time>2022-03-04T13:10:28Z</time><extensions><speed>1.203146</speed><course>302.343323</course><hAcc>1.735913</hAcc><vAcc>0.824043</vAcc></extensions></trkpt>
      <trkpt lon="-2.225525" lat="53.127102"><ele>138.288803</ele><time>2022-03-04T13:10:29Z</time><extensions><speed>1.192103</speed><course>301.557068</course><hAcc>1.733163</hAcc><vAcc>0.824018</vAcc></extensions></trkpt>
      <trkpt lon="-2.225539" lat="53.127106"><ele>138.262314</ele><time>2022-03-04T13:10:30Z</time><extensions><speed>0.939605</speed><course>298.507507</course><hAcc>1.731869</hAcc><vAcc>0.824013</vAcc></extensions></trkpt>
      <trkpt lon="-2.225550" lat="53.127110"><ele>138.247543</ele><time>2022-03-04T13:10:31Z</time><extensions><speed>0.734897</speed><course>298.401428</course><hAcc>1.739595</hAcc><vAcc>0.824025</vAcc></extensions></trkpt>
      <trkpt lon="-2.225560" lat="53.127113"><ele>138.245422</ele><time>2022-03-04T13:10:32Z</time><extensions><speed>0.737061</speed><course>300.606140</course><hAcc>1.742544</hAcc><vAcc>0.824063</vAcc></extensions></trkpt>
      <trkpt lon="-2.225570" lat="53.127117"><ele>138.244583</ele><time>2022-03-04T13:10:33Z</time><extensions><speed>0.913732</speed><course>303.100281</course><hAcc>1.738457</hAcc><vAcc>0.824137</vAcc></extensions></trkpt>
      <trkpt lon="-2.225582" lat="53.127122"><ele>138.242905</ele><time>2022-03-04T13:10:34Z</time><extensions><speed>0.963128</speed><course>307.227844</course><hAcc>1.739288</hAcc><vAcc>0.824211</vAcc></extensions></trkpt>
      <trkpt lon="-2.225593" lat="53.127128"><ele>138.240784</ele><time>2022-03-04T13:10:35Z</time><extensions><speed>1.058658</speed><course>308.023285</course><hAcc>1.740201</hAcc><vAcc>0.824290</vAcc></extensions></trkpt>
      <trkpt lon="-2.225606" lat="53.127134"><ele>138.242340</ele><time>2022-03-04T13:10:36Z</time><extensions><speed>1.068492</speed><course>310.308167</course><hAcc>1.736112</hAcc><vAcc>0.824366</vAcc></extensions></trkpt>
      <trkpt lon="-2.225617" lat="53.127140"><ele>138.244568</ele><time>2022-03-04T13:10:37Z</time><extensions><speed>0.990106</speed><course>314.788696</course><hAcc>1.737706</hAcc><vAcc>0.824440</vAcc></extensions></trkpt>
      <trkpt lon="-2.225626" lat="53.127146"><ele>138.242661</ele><time>2022-03-04T13:10:38Z</time><extensions><speed>0.807011</speed><course>320.786102</course><hAcc>1.738554</hAcc><vAcc>0.824530</vAcc></extensions></trkpt>
      <trkpt lon="-2.225632" lat="53.127151"><ele>138.235611</ele><time>2022-03-04T13:10:39Z</time><extensions><speed>0.649423</speed><course>325.569183</course><hAcc>1.729510</hAcc><vAcc>0.824607</vAcc></extensions></trkpt>
      <trkpt lon="-2.225637" lat="53.127155"><ele>138.213989</ele><time>2022-03-04T13:10:40Z</time><extensions><speed>0.440185</speed><course>333.007446</course><hAcc>1.736187</hAcc><vAcc>0.824655</vAcc></extensions></trkpt>
      <trkpt lon="-2.225639" lat="53.127159"><ele>138.203751</ele><time>2022-03-04T13:10:41Z</time><extensions><speed>0.360574</speed><course>339.818024</course><hAcc>1.740447</hAcc><vAcc>0.824680</vAcc></extensions></trkpt>
      <trkpt lon="-2.225641" lat="53.127162"><ele>138.171768</ele><time>2022-03-04T13:10:42Z</time><extensions><speed>0.387169</speed><course>344.185760</course><hAcc>1.733329</hAcc><vAcc>0.824699</vAcc></extensions></trkpt>
      <trkpt lon="-2.225642" lat="53.127165"><ele>138.131821</ele><time>2022-03-04T13:10:43Z</time><extensions><speed>0.281489</speed><course>2.890788</course><hAcc>1.750853</hAcc><vAcc>0.824720</vAcc></extensions></trkpt>
      <trkpt lon="-2.225640" lat="53.127166"><ele>138.065475</ele><time>2022-03-04T13:10:44Z</time><extensions><speed>0.229010</speed><course>56.864902</course><hAcc>1.752674</hAcc><vAcc>0.824725</vAcc></extensions></trkpt>
      <trkpt lon="-2.225637" lat="53.127167"><ele>138.006439</ele><time>2022-03-04T13:10:45Z</time><extensions><speed>0.261464</speed><course>86.601212</course><hAcc>1.750880</hAcc><vAcc>0.824735</vAcc></extensions></trkpt>
      <trkpt lon="-2.225633" lat="53.127167"><ele>137.944809</ele><time>2022-03-04T13:10:46Z</time><extensions><speed>0.238800</speed><course>106.653053</course><hAcc>1.751804</hAcc><vAcc>0.824759</vAcc></extensions></trkpt>
      <trkpt lon="-2.225631" lat="53.127166"><ele>137.864334</ele><time>2022-03-04T13:10:47Z</time><extensions><speed>0.173196</speed><course>141.055908</course><hAcc>1.753225</hAcc><vAcc>0.824799</vAcc></extensions></trkpt>
      <trkpt lon="-2.225631" lat="53.127165"><ele>137.762833</ele><time>2022-03-04T13:10:48Z</time><extensions><speed>0.201452</speed><course>205.128433</course><hAcc>1.753492</hAcc><vAcc>0.824831</vAcc></extensions></trkpt>
      <trkpt lon="-2.225634" lat="53.127163"><ele>137.668106</ele><time>2022-03-04T13:10:49Z</time><extensions><speed>0.410710</speed><course>237.067444</course><hAcc>1.747954</hAcc><vAcc>0.824898</vAcc></extensions></trkpt>
      <trkpt lon="-2.225642" lat="53.127161"><ele>137.586243</ele><time>2022-03-04T13:10:50Z</time><extensions><speed>0.703719</speed><course>248.814575</course><hAcc>1.738500</hAcc><vAcc>0.824978</vAcc></extensions></trkpt>
      <trkpt lon="-2.225655" lat="53.127158"><ele>137.513245</ele><time>2022-03-04T13:10:51Z</time><extensions><speed>1.085654</speed><course>255.208405</course><hAcc>1.724282</hAcc><vAcc>0.825067</vAcc></extensions></trkpt>
      <trkpt lon="-2.225673" lat="53.127156"><ele>137.431213</ele><time>2022-03-04T13:10:52Z</time><extensions><speed>1.268984</speed><course>256.801117</course><hAcc>1.710313</hAcc><vAcc>0.825180</vAcc></extensions></trkpt>
      <trkpt lon="-2.225693" lat="53.127153"><ele>137.341812</ele><time>2022-03-04T13:10:53Z</time><extensions><speed>1.367719</speed><course>257.176331</course><hAcc>1.687406</hAcc><vAcc>0.825300</vAcc></extensions></trkpt>
      <trkpt lon="-2.225713" lat="53.127151"><ele>137.256973</ele><time>2022-03-04T13:10:54Z</time><extensions><speed>1.331177</speed><course>259.633331</course><hAcc>1.661770</hAcc><vAcc>0.825444</vAcc></extensions></trkpt>
      <trkpt lon="-2.225733" lat="53.127149"><ele>137.176529</ele><time>2022-03-04T13:10:55Z</time><extensions><speed>1.372093</speed><course>261.310028</course><hAcc>1.640219</hAcc><vAcc>0.825594</vAcc></extensions></trkpt>
      <trkpt lon="-2.225753" lat="53.127147"><ele>137.102753</ele><time>2022-03-04T13:10:56Z</time><extensions><speed>1.282155</speed><course>262.673492</course><hAcc>1.654299</hAcc><vAcc>0.825760</vAcc></extensions></trkpt>
      <trkpt lon="-2.225772" lat="53.127146"><ele>137.036804</ele><time>2022-03-04T13:10:57Z</time><extensions><speed>1.213045</speed><course>267.240234</course><hAcc>1.647019</hAcc><vAcc>0.825930</vAcc></extensions></trkpt>
      <trkpt lon="-2.225792" lat="53.127146"><ele>136.983215</ele><time>2022-03-04T13:10:58Z</time><extensions><speed>1.363996</speed><course>271.415222</course><hAcc>1.601629</hAcc><vAcc>0.826116</vAcc></extensions></trkpt>
      <trkpt lon="-2.225814" lat="53.127147"><ele>136.923523</ele><time>2022-03-04T13:10:59Z</time><extensions><speed>1.486109</speed><course>273.425720</course><hAcc>1.590629</hAcc><vAcc>0.826311</vAcc></extensions></trkpt>
      <trkpt lon="-2.225835" lat="53.127147"><ele>136.873856</ele><time>2022-03-04T13:11:00Z</time><extensions><speed>1.284492</speed><course>274.440033</course><hAcc>1.634577</hAcc><vAcc>0.826534</vAcc></extensions></trkpt>
      <trkpt lon="-2.225855" lat="53.127148"><ele>136.827789</ele><time>2022-03-04T13:11:01Z</time><extensions><speed>1.368304</speed><course>274.029449</course><hAcc>1.633917</hAcc><vAcc>0.826768</vAcc></extensions></trkpt>
      <trkpt lon="-2.225877" lat="53.127149"><ele>136.817993</ele><time>2022-03-04T13:11:02Z</time><extensions><speed>1.601111</speed><course>274.584930</course><hAcc>1.594381</hAcc><vAcc>0.827007</vAcc></extensions></trkpt>
      <trkpt lon="-2.225901" lat="53.127151"><ele>136.822647</ele><time>2022-03-04T13:11:03Z</time><extensions><speed>1.643009</speed><course>275.164581</course><hAcc>1.582836</hAcc><vAcc>0.827226</vAcc></extensions></trkpt>
      <trkpt lon="-2.225926" lat="53.127152"><ele>136.834579</ele><time>2022-03-04T13:11:04Z</time><extensions><speed>1.646914</speed><course>275.823822</course><hAcc>1.588493</hAcc><vAcc>0.827431</vAcc></extensions></trkpt>
      <trkpt lon="-2.225950" lat="53.127154"><ele>136.867645</ele><time>2022-03-04T13:11:05Z</time><extensions><speed>1.522847</speed><course>277.513672</course><hAcc>1.615166</hAcc><vAcc>0.827620</vAcc></extensions></trkpt>
      <trkpt lon="-2.225971" lat="53.127156"><ele>136.898132</ele><time>2022-03-04T13:11:06Z</time><extensions><speed>1.295976</speed><course>278.980408</course><hAcc>1.660464</hAcc><vAcc>0.827780</vAcc></extensions></trkpt>
      <trkpt lon="-2.225992" lat="53.127157"><ele>136.936493</ele><time>2022-03-04T13:11:07Z</time><extensions><speed>1.542960</speed><course>277.426239</course><hAcc>1.620386</hAcc><vAcc>0.827918</vAcc></extensions></trkpt>
      <trkpt lon="-2.226016" lat="53.127159"><ele>137.002701</ele><time>2022-03-04T13:11:08Z</time><extensions><speed>1.661008</speed><course>277.647614</course><hAcc>1.599329</hAcc><vAcc>0.828023</vAcc></extensions></trkpt>
      <trkpt lon="-2.226042" lat="53.127162"><ele>137.060608</ele><time>2022-03-04T13:11:09Z</time><extensions><speed>1.722702</speed><course>279.691956</course><hAcc>1.577943</hAcc><vAcc>0.828089</vAcc></extensions></trkpt>
      <trkpt lon="-2.226067" lat="53.127164"><ele>137.115891</ele><time>2022-03-04T13:11:10Z</time><extensions><speed>1.769611</speed><course>280.791412</course><hAcc>1.551283</hAcc><vAcc>0.828121</vAcc></extensions></trkpt>
      <trkpt lon="-2.226094" lat="53.127167"><ele>137.160400</ele><time>2022-03-04T13:11:11Z</time><extensions><speed>1.819159</speed><course>281.022064</course><hAcc>1.518287</hAcc><vAcc>0.828116</vAcc></extensions></trkpt>
      <trkpt lon="-2.226121" lat="53.127170"><ele>137.213638</ele><time>2022-03-04T13:11:12Z</time><extensions><speed>1.845224</speed><course>279.425568</course><hAcc>1.490791</hAcc><vAcc>0.828080</vAcc></extensions></trkpt>
      <trkpt lon="-2.226148" lat="53.127173"><ele>137.283340</ele><time>2022-03-04T13:11:13Z</time><extensions><speed>1.788741</speed><course>278.430878</course><hAcc>1.490620</hAcc><vAcc>0.828015</vAcc></extensions></trkpt>
      <trkpt lon="-2.226174" lat="53.127175"><ele>137.348206</ele><time>2022-03-04T13:11:14Z</time><extensions><speed>1.796606</speed><course>279.905609</course><hAcc>1.463810</hAcc><vAcc>0.827934</vAcc></extensions></trkpt>
      <trkpt lon="-2.226200" lat="53.127178"><ele>137.388260</ele><time>2022-03-04T13:11:15Z</time><extensions><speed>1.757288</speed><course>280.390808</course><hAcc>1.429380</hAcc><vAcc>0.827846</vAcc></extensions></trkpt>
      <trkpt lon="-2.226225" lat="53.127181"><ele>137.414185</ele><time>2022-03-04T13:11:16Z</time><extensions><speed>1.714816</speed><course>279.994751</course><hAcc>1.411529</hAcc><vAcc>0.827759</vAcc></extensions></trkpt>
      <trkpt lon="-2.226250" lat="53.127184"><ele>137.422531</ele><time>2022-03-04T13:11:17Z</time><extensions><speed>1.686360</speed><course>279.718384</course><hAcc>1.399894</hAcc><vAcc>0.827658</vAcc></extensions></trkpt>
      <trkpt lon="-2.226275" lat="53.127186"><ele>137.426315</ele><time>2022-03-04T13:11:18Z</time><extensions><speed>1.648404</speed><course>277.930878</course><hAcc>1.398250</hAcc><vAcc>0.827572</vAcc></extensions></trkpt>
      <trkpt lon="-2.226299" lat="53.127188"><ele>137.423767</ele><time>2022-03-04T13:11:19Z</time><extensions><speed>1.617404</speed><course>275.584137</course><hAcc>1.398337</hAcc><vAcc>0.827495</vAcc></extensions></trkpt>
      <trkpt lon="-2.226322" lat="53.127189"><ele>137.408142</ele><time>2022-03-04T13:11:20Z</time><extensions><speed>1.562718</speed><course>271.704193</course><hAcc>1.410350</hAcc><vAcc>0.827453</vAcc></extensions></trkpt>
      <trkpt lon="-2.226345" lat="53.127189"><ele>137.378830</ele><time>2022-03-04T13:11:21Z</time><extensions><speed>1.501782</speed><course>269.192017</course><hAcc>1.424002</hAcc><vAcc>0.827441</vAcc></extensions></trkpt>
      <trkpt lon="-2.226368" lat="53.127189"><ele>137.348129</ele><time>2022-03-04T13:11:22Z</time><extensions><speed>1.457774</speed><course>271.383270</course><hAcc>1.409479</hAcc><vAcc>0.827446</vAcc></extensions></trkpt>
      <trkpt lon="-2.226389" lat="53.127189"><ele>137.328140</ele><time>2022-03-04T13:11:23Z</time><extensions><speed>1.396260</speed><course>274.776611</course><hAcc>1.414095</hAcc><vAcc>0.827477</vAcc></extensions></trkpt>
      <trkpt lon="-2.226410" lat="53.127191"><ele>137.263718</ele><time>2022-03-04T13:11:24Z</time><extensions><speed>1.401605</speed><course>279.003265</course><hAcc>1.459803</hAcc><vAcc>0.827531</vAcc></extensions></trkpt>
      <trkpt lon="-2.226431" lat="53.127193"><ele>137.185425</ele><time>2022-03-04T13:11:25Z</time><extensions><speed>1.413971</speed><course>281.221100</course><hAcc>1.509237</hAcc><vAcc>0.827590</vAcc></extensions></trkpt>
      <trkpt lon="-2.226451" lat="53.127195"><ele>137.101181</ele><time>2022-03-04T13:11:26Z</time><extensions><speed>1.396718</speed><course>276.846375</course><hAcc>1.529800</hAcc><vAcc>0.827669</vAcc></extensions></trkpt>
      <trkpt lon="-2.226471" lat="53.127196"><ele>137.024307</ele><time>2022-03-04T13:11:27Z</time><extensions><speed>1.226766</speed><course>271.085419</course><hAcc>1.502944</hAcc><vAcc>0.827748</vAcc></extensions></trkpt>
      <trkpt lon="-2.226487" lat="53.127196"><ele>136.914658</ele><time>2022-03-04T13:11:28Z</time><extensions><speed>0.987410</speed><course>267.606415</course><hAcc>1.484781</hAcc><vAcc>0.827845</vAcc></extensions></trkpt>
      <trkpt lon="-2.226502" lat="53.127195"><ele>136.813751</ele><time>2022-03-04T13:11:29Z</time><extensions><speed>0.914661</speed><course>262.396149</course><hAcc>1.507602</hAcc><vAcc>0.827959</vAcc></extensions></trkpt>
      <trkpt lon="-2.226515" lat="53.127194"><ele>136.690765</ele><time>2022-03-04T13:11:30Z</time><extensions><speed>0.855280</speed><course>259.775299</course><hAcc>1.572615</hAcc><vAcc>0.828085</vAcc></extensions></trkpt>
      <trkpt lon="-2.226527" lat="53.127192"><ele>136.582184</ele><time>2022-03-04T13:11:32Z</time><extensions><speed>0.827968</speed><course>253.108597</course><hAcc>1.607732</hAcc><vAcc>0.828187</vAcc></extensions></trkpt>
      <trkpt lon="-2.226540" lat="53.127189"><ele>136.478424</ele><time>2022-03-04T13:11:33Z</time><extensions><speed>0.984850</speed><course>243.638199</course><hAcc>1.555510</hAcc><vAcc>0.828250</vAcc></extensions></trkpt>
      <trkpt lon="-2.226553" lat="53.127184"><ele>136.345642</ele><time>2022-03-04T13:11:34Z</time><extensions><speed>1.009343</speed><course>235.891586</course><hAcc>1.565492</hAcc><vAcc>0.828282</vAcc></extensions></trkpt>
      <trkpt lon="-2.226564" lat="53.127179"><ele>136.223572</ele><time>2022-03-04T13:11:35Z</time><extensions><speed>0.942335</speed><course>228.670456</course><hAcc>1.621832</hAcc><vAcc>0.828286</vAcc></extensions></trkpt>
      <trkpt lon="-2.226575" lat="53.127173"><ele>136.111755</ele><time>2022-03-04T13:11:36Z</time><extensions><speed>0.941041</speed><course>227.099533</course><hAcc>1.610340</hAcc><vAcc>0.828267</vAcc></extensions></trkpt>
      <trkpt lon="-2.226586" lat="53.127168"><ele>136.004196</ele><time>2022-03-04T13:11:37Z</time><extensions><speed>1.044922</speed><course>228.982773</course><hAcc>1.611152</hAcc><vAcc>0.828229</vAcc></extensions></trkpt>
      <trkpt lon="-2.226599" lat="53.127161"><ele>135.895096</ele><time>2022-03-04T13:11:38Z</time><extensions><speed>1.150182</speed><course>233.543137</course><hAcc>1.620403</hAcc><vAcc>0.828185</vAcc></extensions></trkpt>
      <trkpt lon="-2.226614" lat="53.127155"><ele>135.788132</ele><time>2022-03-04T13:11:39Z</time><extensions><speed>1.211384</speed><course>238.722809</course><hAcc>1.623898</hAcc><vAcc>0.828128</vAcc></extensions></trkpt>
      <trkpt lon="-2.226630" lat="53.127150"><ele>135.692520</ele><time>2022-03-04T13:11:40Z</time><extensions><speed>1.224644</speed><course>242.204544</course><hAcc>1.616926</hAcc><vAcc>0.828035</vAcc></extensions></trkpt>
      <trkpt lon="-2.226646" lat="53.127145"><ele>135.601517</ele><time>2022-03-04T13:11:41Z</time><extensions><speed>1.179948</speed><course>245.376923</course><hAcc>1.600088</hAcc><vAcc>0.827929</vAcc></extensions></trkpt>
      <trkpt lon="-2.226662" lat="53.127141"><ele>135.529343</ele><time>2022-03-04T13:11:42Z</time><extensions><speed>1.155192</speed><course>246.064896</course><hAcc>1.584993</hAcc><vAcc>0.827800</vAcc></extensions></trkpt>
      <trkpt lon="-2.226678" lat="53.127136"><ele>135.474823</ele><time>2022-03-04T13:11:43Z</time><extensions><speed>1.193207</speed><course>245.111862</course><hAcc>1.589720</hAcc><vAcc>0.827652</vAcc></extensions></trkpt>
      <trkpt lon="-2.226694" lat="53.127132"><ele>135.391006</ele><time>2022-03-04T13:11:44Z</time><extensions><speed>1.034590</speed><course>247.136673</course><hAcc>1.594846</hAcc><vAcc>0.827488</vAcc></extensions></trkpt>
      <trkpt lon="-2.226707" lat="53.127129"><ele>135.299500</ele><time>2022-03-04T13:11:45Z</time><extensions><speed>0.907865</speed><course>246.613815</course><hAcc>1.606895</hAcc><vAcc>0.827314</vAcc></extensions></trkpt>
      <trkpt lon="-2.226721" lat="53.127126"><ele>135.209686</ele><time>2022-03-04T13:11:46Z</time><extensions><speed>0.978133</speed><course>248.108704</course><hAcc>1.559933</hAcc><vAcc>0.827115</vAcc></extensions></trkpt>
      <trkpt lon="-2.226735" lat="53.127122"><ele>135.131882</ele><time>2022-03-04T13:11:47Z</time><extensions><speed>1.070024</speed><course>247.867233</course><hAcc>1.553095</hAcc><vAcc>0.826936</vAcc></extensions></trkpt>
      <trkpt lon="-2.226751" lat="53.127119"><ele>135.044907</ele><time>2022-03-04T13:11:48Z</time><extensions><speed>1.211652</speed><course>246.342621</course><hAcc>1.587668</hAcc><vAcc>0.826761</vAcc></extensions></trkpt>
      <trkpt lon="-2.226768" lat="53.127114"><ele>134.953339</ele><time>2022-03-04T13:11:49Z</time><extensions><speed>1.274286</speed><course>245.809906</course><hAcc>1.593500</hAcc><vAcc>0.826596</vAcc></extensions></trkpt>
      <trkpt lon="-2.226785" lat="53.127109"><ele>134.860718</ele><time>2022-03-04T13:11:50Z</time><extensions><speed>1.225913</speed><course>243.491959</course><hAcc>1.622574</hAcc><vAcc>0.826455</vAcc></extensions></trkpt>
      <trkpt lon="-2.226800" lat="53.127104"><ele>134.753738</ele><time>2022-03-04T13:11:51Z</time><extensions><speed>1.045958</speed><course>238.031281</course><hAcc>1.610114</hAcc><vAcc>0.826339</vAcc></extensions></trkpt>
      <trkpt lon="-2.226815" lat="53.127099"><ele>134.670166</ele><time>2022-03-04T13:11:52Z</time><extensions><speed>1.135478</speed><course>239.760086</course><hAcc>1.599645</hAcc><vAcc>0.826260</vAcc></extensions></trkpt>
      <trkpt lon="-2.226830" lat="53.127095"><ele>134.581955</ele><time>2022-03-04T13:11:53Z</time><extensions><speed>1.198168</speed><course>244.520950</course><hAcc>1.613656</hAcc><vAcc>0.826222</vAcc></extensions></trkpt>
      <trkpt lon="-2.226847" lat="53.127091"><ele>134.474213</ele><time>2022-03-04T13:11:54Z</time><extensions><speed>1.166747</speed><course>250.893890</course><hAcc>1.639649</hAcc><vAcc>0.826210</vAcc></extensions></trkpt>
      <trkpt lon="-2.226864" lat="53.127088"><ele>134.379410</ele><time>2022-03-04T13:11:55Z</time><extensions><speed>1.122406</speed><course>260.715637</course><hAcc>1.614761</hAcc><vAcc>0.826220</vAcc></extensions></trkpt>
      <trkpt lon="-2.226881" lat="53.127087"><ele>134.317932</ele><time>2022-03-04T13:11:56Z</time><extensions><speed>1.154021</speed><course>266.842438</course><hAcc>1.602598</hAcc><vAcc>0.826220</vAcc></extensions></trkpt>
      <trkpt lon="-2.226898" lat="53.127087"><ele>134.233261</ele><time>2022-03-04T13:11:57Z</time><extensions><speed>1.097860</speed><course>272.374847</course><hAcc>1.613051</hAcc><vAcc>0.826268</vAcc></extensions></trkpt>
      <trkpt lon="-2.226914" lat="53.127088"><ele>134.151077</ele><time>2022-03-04T13:11:58Z</time><extensions><speed>1.101750</speed><course>282.224365</course><hAcc>1.606308</hAcc><vAcc>0.826241</vAcc></extensions></trkpt>
      <trkpt lon="-2.226930" lat="53.127091"><ele>134.075287</ele><time>2022-03-04T13:11:59Z</time><extensions><speed>1.095512</speed><course>284.360748</course><hAcc>1.628796</hAcc><vAcc>0.826021</vAcc></extensions></trkpt>
      <trkpt lon="-2.226947" lat="53.127093"><ele>134.017319</ele><time>2022-03-04T13:12:00Z</time><extensions><speed>1.232111</speed><course>285.468933</course><hAcc>1.635039</hAcc><vAcc>0.825442</vAcc></extensions></trkpt>
      <trkpt lon="-2.226966" lat="53.127096"><ele>133.975159</ele><time>2022-03-04T13:12:01Z</time><extensions><speed>1.420014</speed><course>284.904602</course><hAcc>1.621530</hAcc><vAcc>0.824158</vAcc></extensions></trkpt>
      <trkpt lon="-2.226988" lat="53.127100"><ele>133.925858</ele><time>2022-03-04T13:12:02Z</time><extensions><speed>1.551201</speed><course>285.729523</course><hAcc>1.625828</hAcc><vAcc>0.822039</vAcc></extensions></trkpt>
      <trkpt lon="-2.227009" lat="53.127104"><ele>133.865341</ele><time>2022-03-04T13:12:03Z</time><extensions><speed>1.467290</speed><course>288.264679</course><hAcc>1.653436</hAcc><vAcc>0.818605</vAcc></extensions></trkpt>
      <trkpt lon="-2.227028" lat="53.127108"><ele>133.799164</ele><time>2022-03-04T13:12:04Z</time><extensions><speed>1.133861</speed><course>293.594727</course><hAcc>1.661814</hAcc><vAcc>0.813482</vAcc></extensions></trkpt>
      <trkpt lon="-2.227043" lat="53.127112"><ele>133.762177</ele><time>2022-03-04T13:12:05Z</time><extensions><speed>1.187515</speed><course>295.677979</course><hAcc>1.650864</hAcc><vAcc>0.807354</vAcc></extensions></trkpt>
      <trkpt lon="-2.227061" lat="53.127117"><ele>133.728455</ele><time>2022-03-04T13:12:06Z</time><extensions><speed>1.381475</speed><course>296.736938</course><hAcc>1.649459</hAcc><vAcc>0.801048</vAcc></extensions></trkpt>
      <trkpt lon="-2.227080" lat="53.127123"><ele>133.690277</ele><time>2022-03-04T13:12:07Z</time><extensions><speed>1.489844</speed><course>297.945404</course><hAcc>1.669866</hAcc><vAcc>0.794045</vAcc></extensions></trkpt>
      <trkpt lon="-2.227101" lat="53.127130"><ele>133.656876</ele><time>2022-03-04T13:12:08Z</time><extensions><speed>1.699070</speed><course>298.197235</course><hAcc>1.692141</hAcc><vAcc>0.786425</vAcc></extensions></trkpt>
      <trkpt lon="-2.227123" lat="53.127137"><ele>133.625626</ele><time>2022-03-04T13:12:09Z</time><extensions><speed>1.653848</speed><course>299.992798</course><hAcc>1.734165</hAcc><vAcc>0.778493</vAcc></extensions></trkpt>
      <trkpt lon="-2.227145" lat="53.127145"><ele>133.593643</ele><time>2022-03-04T13:12:10Z</time><extensions><speed>1.753097</speed><course>299.763123</course><hAcc>1.739292</hAcc><vAcc>0.770680</vAcc></extensions></trkpt>
      <trkpt lon="-2.227169" lat="53.127153"><ele>133.557175</ele><time>2022-03-04T13:12:11Z</time><extensions><speed>1.857043</speed><course>297.973541</course><hAcc>1.727910</hAcc><vAcc>0.763533</vAcc></extensions></trkpt>
      <trkpt lon="-2.227194" lat="53.127161"><ele>133.513657</ele><time>2022-03-04T13:12:12Z</time><extensions><speed>1.913127</speed><course>296.176849</course><hAcc>1.755854</hAcc><vAcc>0.757731</vAcc></extensions></trkpt>
      <trkpt lon="-2.227220" lat="53.127168"><ele>133.481522</ele><time>2022-03-04T13:12:13Z</time><extensions><speed>1.964264</speed><course>293.980652</course><hAcc>1.784042</hAcc><vAcc>0.753947</vAcc></extensions></trkpt>
      <trkpt lon="-2.227248" lat="53.127175"><ele>133.459961</ele><time>2022-03-04T13:12:14Z</time><extensions><speed>1.963418</speed><course>292.045258</course><hAcc>1.794216</hAcc><vAcc>0.752704</vAcc></extensions></trkpt>
      <trkpt lon="-2.227275" lat="53.127181"><ele>133.445953</ele><time>2022-03-04T13:12:15Z</time><extensions><speed>1.876073</speed><course>290.730621</course><hAcc>1.814015</hAcc><vAcc>0.754240</vAcc></extensions></trkpt>
      <trkpt lon="-2.227299" lat="53.127187"><ele>133.445358</ele><time>2022-03-04T13:12:16Z</time><extensions><speed>1.574113</speed><course>291.686157</course><hAcc>1.835233</hAcc><vAcc>0.758300</vAcc></extensions></trkpt>
      <trkpt lon="-2.227319" lat="53.127192"><ele>133.452301</ele><time>2022-03-04T13:12:17Z</time><extensions><speed>1.378156</speed><course>296.389435</course><hAcc>1.766376</hAcc><vAcc>0.764232</vAcc></extensions></trkpt>
      <trkpt lon="-2.227337" lat="53.127197"><ele>133.449615</ele><time>2022-03-04T13:12:18Z</time><extensions><speed>1.305742</speed><course>296.391541</course><hAcc>1.712471</hAcc><vAcc>0.771262</vAcc></extensions></trkpt>
      <trkpt lon="-2.227354" lat="53.127202"><ele>133.452881</ele><time>2022-03-04T13:12:19Z</time><extensions><speed>1.175747</speed><course>296.963257</course><hAcc>1.704589</hAcc><vAcc>0.778700</vAcc></extensions></trkpt>
      <trkpt lon="-2.227368" lat="53.127207"><ele>133.464447</ele><time>2022-03-04T13:12:20Z</time><extensions><speed>0.984509</speed><course>296.195404</course><hAcc>1.702125</hAcc><vAcc>0.786019</vAcc></extensions></trkpt>
      <trkpt lon="-2.227381" lat="53.127210"><ele>133.486374</ele><time>2022-03-04T13:12:21Z</time><extensions><speed>0.921637</speed><course>292.944092</course><hAcc>1.670263</hAcc><vAcc>0.792862</vAcc></extensions></trkpt>
      <trkpt lon="-2.227394" lat="53.127213"><ele>133.500153</ele><time>2022-03-04T13:12:22Z</time><extensions><speed>0.973507</speed><course>292.107513</course><hAcc>1.662935</hAcc><vAcc>0.798978</vAcc></extensions></trkpt>
      <trkpt lon="-2.227409" lat="53.127217"><ele>133.518234</ele><time>2022-03-04T13:12:22Z</time><extensions><speed>1.070453</speed><course>290.410461</course><hAcc>1.674269</hAcc><vAcc>0.804297</vAcc></extensions></trkpt>
      <trkpt lon="-2.227425" lat="53.127220"><ele>133.524887</ele><time>2022-03-04T13:12:23Z</time><extensions><speed>1.208899</speed><course>288.076904</course><hAcc>1.675261</hAcc><vAcc>0.808792</vAcc></extensions></trkpt>
      <trkpt lon="-2.227443" lat="53.127224"><ele>133.524582</ele><time>2022-03-04T13:12:24Z</time><extensions><speed>1.347326</speed><course>287.409363</course><hAcc>1.669632</hAcc><vAcc>0.812546</vAcc></extensions></trkpt>
      <trkpt lon="-2.227462" lat="53.127227"><ele>133.528015</ele><time>2022-03-04T13:12:25Z</time><extensions><speed>1.318808</speed><course>288.056519</course><hAcc>1.654521</hAcc><vAcc>0.815585</vAcc></extensions></trkpt>
      <trkpt lon="-2.227480" lat="53.127231"><ele>133.522003</ele><time>2022-03-04T13:12:26Z</time><extensions><speed>1.187199</speed><course>287.577454</course><hAcc>1.671084</hAcc><vAcc>0.818010</vAcc></extensions></trkpt>
      <trkpt lon="-2.227496" lat="53.127234"><ele>133.519470</ele><time>2022-03-04T13:12:27Z</time><extensions><speed>1.029162</speed><course>286.338745</course><hAcc>1.695280</hAcc><vAcc>0.819921</vAcc></extensions></trkpt>
      <trkpt lon="-2.227510" lat="53.127236"><ele>133.514694</ele><time>2022-03-04T13:12:28Z</time><extensions><speed>0.940197</speed><course>286.986267</course><hAcc>1.668390</hAcc><vAcc>0.821417</vAcc></extensions></trkpt>
      <trkpt lon="-2.227523" lat="53.127239"><ele>133.493256</ele><time>2022-03-04T13:12:29Z</time><extensions><speed>0.930936</speed><course>290.729218</course><hAcc>1.652763</hAcc><vAcc>0.822590</vAcc></extensions></trkpt>
      <trkpt lon="-2.227537" lat="53.127242"><ele>133.469574</ele><time>2022-03-04T13:12:30Z</time><extensions><speed>1.015996</speed><course>294.784088</course><hAcc>1.648968</hAcc><vAcc>0.823522</vAcc></extensions></trkpt>
      <trkpt lon="-2.227551" lat="53.127247"><ele>133.455322</ele><time>2022-03-04T13:12:31Z</time><extensions><speed>1.217548</speed><course>298.367706</course><hAcc>1.652484</hAcc><vAcc>0.824267</vAcc></extensions></trkpt>
      <trkpt lon="-2.227568" lat="53.127252"><ele>133.418457</ele><time>2022-03-04T13:12:32Z</time><extensions><speed>1.362330</speed><course>299.577789</course><hAcc>1.673750</hAcc><vAcc>0.824889</vAcc></extensions></trkpt>
      <trkpt lon="-2.227586" lat="53.127258"><ele>133.373703</ele><time>2022-03-04T13:12:33Z</time><extensions><speed>1.391676</speed><course>297.543732</course><hAcc>1.715655</hAcc><vAcc>0.825421</vAcc></extensions></trkpt>
      <trkpt lon="-2.227605" lat="53.127263"><ele>133.335297</ele><time>2022-03-04T13:12:34Z</time><extensions><speed>1.310492</speed><course>285.740814</course><hAcc>1.682549</hAcc><vAcc>0.825876</vAcc></extensions></trkpt>
      <trkpt lon="-2.227624" lat="53.127265"><ele>133.301727</ele><time>2022-03-04T13:12:35Z</time><extensions><speed>1.272069</speed><course>275.578461</course><hAcc>1.670027</hAcc><vAcc>0.826275</vAcc></extensions></trkpt>
      <trkpt lon="-2.227643" lat="53.127265"><ele>133.268356</ele><time>2022-03-04T13:12:36Z</time><extensions><speed>1.314019</speed><course>269.645294</course><hAcc>1.677229</hAcc><vAcc>0.826615</vAcc></extensions></trkpt>
      <trkpt lon="-2.227663" lat="53.127265"><ele>133.238007</ele><time>2022-03-04T13:12:37Z</time><extensions><speed>1.337847</speed><course>267.048126</course><hAcc>1.694224</hAcc><vAcc>0.826909</vAcc></extensions></trkpt>
      <trkpt lon="-2.227683" lat="53.127264"><ele>133.191635</ele><time>2022-03-04T13:12:38Z</time><extensions><speed>1.371006</speed><course>266.278015</course><hAcc>1.709022</hAcc><vAcc>0.827156</vAcc></extensions></trkpt>
      <trkpt lon="-2.227704" lat="53.127263"><ele>133.133667</ele><time>2022-03-04T13:12:39Z</time><extensions><speed>1.368543</speed><course>266.586243</course><hAcc>1.712490</hAcc><vAcc>0.827349</vAcc></extensions></trkpt>
      <trkpt lon="-2.227724" lat="53.127263"><ele>133.085052</ele><time>2022-03-04T13:12:40Z</time><extensions><speed>1.360689</speed><course>267.118042</course><hAcc>1.707220</hAcc><vAcc>0.827483</vAcc></extensions></trkpt>
      <trkpt lon="-2.227744" lat="53.127262"><ele>133.034653</ele><time>2022-03-04T13:12:41Z</time><extensions><speed>1.339357</speed><course>267.636261</course><hAcc>1.702751</hAcc><vAcc>0.827580</vAcc></extensions></trkpt>
      <trkpt lon="-2.227764" lat="53.127262"><ele>133.003082</ele><time>2022-03-04T13:12:42Z</time><extensions><speed>1.350894</speed><course>267.326294</course><hAcc>1.695855</hAcc><vAcc>0.827673</vAcc></extensions></trkpt>
      <trkpt lon="-2.227785" lat="53.127261"><ele>132.963425</ele><time>2022-03-04T13:12:43Z</time><extensions><speed>1.366961</speed><course>266.766418</course><hAcc>1.696106</hAcc><vAcc>0.827757</vAcc></extensions></trkpt>
      <trkpt lon="-2.227806" lat="53.127260"><ele>132.933807</ele><time>2022-03-04T13:12:44Z</time><extensions><speed>1.409285</speed><course>267.234558</course><hAcc>1.702780</hAcc><vAcc>0.827823</vAcc></extensions></trkpt>
      <trkpt lon="-2.227827" lat="53.127260"><ele>132.914383</ele><time>2022-03-04T13:12:45Z</time><extensions><speed>1.389999</speed><course>268.935913</course><hAcc>1.666392</hAcc><vAcc>0.827872</vAcc></extensions></trkpt>
      <trkpt lon="-2.227847" lat="53.127260"><ele>132.865463</ele><time>2022-03-04T13:12:46Z</time><extensions><speed>1.397555</speed><course>271.804291</course><hAcc>1.629978</hAcc><vAcc>0.827923</vAcc></extensions></trkpt>
      <trkpt lon="-2.227869" lat="53.127261"><ele>132.838272</ele><time>2022-03-04T13:12:47Z</time><extensions><speed>1.421580</speed><course>274.636902</course><hAcc>1.614585</hAcc><vAcc>0.827977</vAcc></extensions></trkpt>
      <trkpt lon="-2.227890" lat="53.127262"><ele>132.824463</ele><time>2022-03-04T13:12:48Z</time><extensions><speed>1.467007</speed><course>276.903778</course><hAcc>1.635313</hAcc><vAcc>0.828009</vAcc></extensions></trkpt>
      <trkpt lon="-2.227912" lat="53.127264"><ele>132.826889</ele><time>2022-03-04T13:12:49Z</time><extensions><speed>1.458280</speed><course>277.253387</course><hAcc>1.686615</hAcc><vAcc>0.828070</vAcc></extensions></trkpt>
      <trkpt lon="-2.227933" lat="53.127265"><ele>132.845779</ele><time>2022-03-04T13:12:50Z</time><extensions><speed>1.440993</speed><course>275.275696</course><hAcc>1.648760</hAcc><vAcc>0.828182</vAcc></extensions></trkpt>
      <trkpt lon="-2.227954" lat="53.127266"><ele>132.855911</ele><time>2022-03-04T13:12:51Z</time><extensions><speed>1.363871</speed><course>272.554932</course><hAcc>1.618453</hAcc><vAcc>0.828323</vAcc></extensions></trkpt>
      <trkpt lon="-2.227974" lat="53.127266"><ele>132.856293</ele><time>2022-03-04T13:12:52Z</time><extensions><speed>1.266768</speed><course>269.942780</course><hAcc>1.626787</hAcc><vAcc>0.828456</vAcc></extensions></trkpt>
      <trkpt lon="-2.227993" lat="53.127266"><ele>132.883575</ele><time>2022-03-04T13:12:53Z</time><extensions><speed>1.272373</speed><course>268.210205</course><hAcc>1.650407</hAcc><vAcc>0.828566</vAcc></extensions></trkpt>
      <trkpt lon="-2.228013" lat="53.127266"><ele>132.895554</ele><time>2022-03-04T13:12:54Z</time><extensions><speed>1.436871</speed><course>268.053345</course><hAcc>1.643617</hAcc><vAcc>0.828646</vAcc></extensions></trkpt>
      <trkpt lon="-2.228035" lat="53.127265"><ele>132.934555</ele><time>2022-03-04T13:12:55Z</time><extensions><speed>1.525851</speed><course>267.950806</course><hAcc>1.640615</hAcc><vAcc>0.828713</vAcc></extensions></trkpt>
      <trkpt lon="-2.228058" lat="53.127265"><ele>132.954926</ele><time>2022-03-04T13:12:56Z</time><extensions><speed>1.522470</speed><course>269.570343</course><hAcc>1.658072</hAcc><vAcc>0.828777</vAcc></extensions></trkpt>
      <trkpt lon="-2.228081" lat="53.127265"><ele>132.980408</ele><time>2022-03-04T13:12:57Z</time><extensions><speed>1.504755</speed><course>270.924225</course><hAcc>1.690590</hAcc><vAcc>0.828828</vAcc></extensions></trkpt>
      <trkpt lon="-2.228103" lat="53.127265"><ele>132.999985</ele><time>2022-03-04T13:12:58Z</time><extensions><speed>1.513987</speed><course>271.748444</course><hAcc>1.667147</hAcc><vAcc>0.828852</vAcc></extensions></trkpt>
      <trkpt lon="-2.228126" lat="53.127266"><ele>133.005905</ele><time>2022-03-04T13:12:59Z</time><extensions><speed>1.525247</speed><course>273.239807</course><hAcc>1.655634</hAcc><vAcc>0.828862</vAcc></extensions></trkpt>
      <trkpt lon="-2.228148" lat="53.127267"><ele>133.008469</ele><time>2022-03-04T13:13:00Z</time><extensions><speed>1.471611</speed><course>274.879974</course><hAcc>1.676131</hAcc><vAcc>0.828839</vAcc></extensions></trkpt>
      <trkpt lon="-2.228170" lat="53.127267"><ele>133.008133</ele><time>2022-03-04T13:13:01Z</time><extensions><speed>1.430216</speed><course>272.802917</course><hAcc>1.670511</hAcc><vAcc>0.828782</vAcc></extensions></trkpt>
      <trkpt lon="-2.228192" lat="53.127268"><ele>133.009796</ele><time>2022-03-04T13:13:02Z</time><extensions><speed>1.435757</speed><course>271.443329</course><hAcc>1.669910</hAcc><vAcc>0.828679</vAcc></extensions></trkpt>
      <trkpt lon="-2.228213" lat="53.127268"><ele>133.015610</ele><time>2022-03-04T13:13:03Z</time><extensions><speed>1.454915</speed><course>270.478149</course><hAcc>1.671922</hAcc><vAcc>0.828558</vAcc></extensions></trkpt>
      <trkpt lon="-2.228235" lat="53.127268"><ele>133.002884</ele><time>2022-03-04T13:13:04Z</time><extensions><speed>1.456896</speed><course>269.506256</course><hAcc>1.668720</hAcc><vAcc>0.828428</vAcc></extensions></trkpt>
      <trkpt lon="-2.228257" lat="53.127268"><ele>132.986847</ele><time>2022-03-04T13:13:05Z</time><extensions><speed>1.492200</speed><course>270.979034</course><hAcc>1.660414</hAcc><vAcc>0.828319</vAcc></extensions></trkpt>
      <trkpt lon="-2.228280" lat="53.127269"><ele>132.955627</ele><time>2022-03-04T13:13:06Z</time><extensions><speed>1.500880</speed><course>272.502716</course><hAcc>1.661192</hAcc><vAcc>0.828218</vAcc></extensions></trkpt>
      <trkpt lon="-2.228302" lat="53.127269"><ele>132.924622</ele><time>2022-03-04T13:13:07Z</time><extensions><speed>1.490794</speed><course>270.584564</course><hAcc>1.652227</hAcc><vAcc>0.828146</vAcc></extensions></trkpt>
      <trkpt lon="-2.228324" lat="53.127269"><ele>132.892883</ele><time>2022-03-04T13:13:08Z</time><extensions><speed>1.493289</speed><course>267.391632</course><hAcc>1.647129</hAcc><vAcc>0.828089</vAcc></extensions></trkpt>
      <trkpt lon="-2.228347" lat="53.127268"><ele>132.872803</ele><time>2022-03-04T13:13:09Z</time><extensions><speed>1.546331</speed><course>265.016022</course><hAcc>1.607579</hAcc><vAcc>0.828039</vAcc></extensions></trkpt>
      <trkpt lon="-2.228370" lat="53.127267"><ele>132.859604</ele><time>2022-03-04T13:13:10Z</time><extensions><speed>1.551981</speed><course>264.597260</course><hAcc>1.600416</hAcc><vAcc>0.828022</vAcc></extensions></trkpt>
      <trkpt lon="-2.228393" lat="53.127265"><ele>132.841064</ele><time>2022-03-04T13:13:11Z</time><extensions><speed>1.539952</speed><course>263.098907</course><hAcc>1.628064</hAcc><vAcc>0.828030</vAcc></extensions></trkpt>
      <trkpt lon="-2.228416" lat="53.127263"><ele>132.812515</ele><time>2022-03-04T13:13:12Z</time><extensions><speed>1.521275</speed><course>260.975067</course><hAcc>1.610299</hAcc><vAcc>0.828042</vAcc></extensions></trkpt>
      <trkpt lon="-2.228439" lat="53.127261"><ele>132.792511</ele><time>2022-03-04T13:13:13Z</time><extensions><speed>1.552372</speed><course>264.952148</course><hAcc>1.577428</hAcc><vAcc>0.828070</vAcc></extensions></trkpt>
      <trkpt lon="-2.228462" lat="53.127260"><ele>132.784714</ele><time>2022-03-04T13:13:14Z</time><extensions><speed>1.541583</speed><course>267.086700</course><hAcc>1.594513</hAcc><vAcc>0.828104</vAcc></extensions></trkpt>
      <trkpt lon="-2.228485" lat="53.127260"><ele>132.788834</ele><time>2022-03-04T13:13:15Z</time><extensions><speed>1.518121</speed><course>266.800018</course><hAcc>1.618581</hAcc><vAcc>0.828142</vAcc></extensions></trkpt>
      <trkpt lon="-2.228507" lat="53.127259"><ele>132.796082</ele><time>2022-03-04T13:13:16Z</time><extensions><speed>1.487600</speed><course>266.163910</course><hAcc>1.614847</hAcc><vAcc>0.828176</vAcc></extensions></trkpt>
      <trkpt lon="-2.228530" lat="53.127258"><ele>132.800461</ele><time>2022-03-04T13:13:17Z</time><extensions><speed>1.527374</speed><course>265.853119</course><hAcc>1.614058</hAcc><vAcc>0.828200</vAcc></extensions></trkpt>
      <trkpt lon="-2.228553" lat="53.127257"><ele>132.799347</ele><time>2022-03-04T13:13:18Z</time><extensions><speed>1.571813</speed><course>265.118011</course><hAcc>1.603094</hAcc><vAcc>0.828210</vAcc></extensions></trkpt>
      <trkpt lon="-2.228576" lat="53.127255"><ele>132.793167</ele><time>2022-03-04T13:13:19Z</time><extensions><speed>1.559618</speed><course>263.965179</course><hAcc>1.617526</hAcc><vAcc>0.828220</vAcc></extensions></trkpt>
      <trkpt lon="-2.228599" lat="53.127254"><ele>132.805099</ele><time>2022-03-04T13:13:20Z</time><extensions><speed>1.547419</speed><course>261.207611</course><hAcc>1.630943</hAcc><vAcc>0.828246</vAcc></extensions></trkpt>
      <trkpt lon="-2.228622" lat="53.127251"><ele>132.825500</ele><time>2022-03-04T13:13:21Z</time><extensions><speed>1.547663</speed><course>262.143280</course><hAcc>1.640562</hAcc><vAcc>0.828246</vAcc></extensions></trkpt>
      <trkpt lon="-2.228645" lat="53.127249"><ele>132.830566</ele><time>2022-03-04T13:13:22Z</time><extensions><speed>1.544255</speed><course>262.005676</course><hAcc>1.643213</hAcc><vAcc>0.828231</vAcc></extensions></trkpt>
      <trkpt lon="-2.228668" lat="53.127247"><ele>132.839096</ele><time>2022-03-04T13:13:23Z</time><extensions><speed>1.526489</speed><course>260.869232</course><hAcc>1.638997</hAcc><vAcc>0.828197</vAcc></extensions></trkpt>
      <trkpt lon="-2.228690" lat="53.127245"><ele>132.836655</ele><time>2022-03-04T13:13:24Z</time><extensions><speed>1.493096</speed><course>259.963104</course><hAcc>1.647865</hAcc><vAcc>0.828145</vAcc></extensions></trkpt>
      <trkpt lon="-2.228712" lat="53.127242"><ele>132.842163</ele><time>2022-03-04T13:13:25Z</time><extensions><speed>1.439635</speed><course>257.272125</course><hAcc>1.650271</hAcc><vAcc>0.828077</vAcc></extensions></trkpt>
      <trkpt lon="-2.228733" lat="53.127239"><ele>132.857407</ele><time>2022-03-04T13:13:26Z</time><extensions><speed>1.541607</speed><course>252.046432</course><hAcc>1.627948</hAcc><vAcc>0.827984</vAcc></extensions></trkpt>
      <trkpt lon="-2.228756" lat="53.127234"><ele>132.872482</ele><time>2022-03-04T13:13:27Z</time><extensions><speed>1.621092</speed><course>251.281891</course><hAcc>1.637090</hAcc><vAcc>0.827871</vAcc></extensions></trkpt>
      <trkpt lon="-2.228778" lat="53.127230"><ele>132.886444</ele><time>2022-03-04T13:13:28Z</time><extensions><speed>1.580353</speed><course>252.429962</course><hAcc>1.668025</hAcc><vAcc>0.827741</vAcc></extensions></trkpt>
      <trkpt lon="-2.228801" lat="53.127225"><ele>132.911072</ele><time>2022-03-04T13:13:29Z</time><extensions><speed>1.599650</speed><course>249.051849</course><hAcc>1.640450</hAcc><vAcc>0.827604</vAcc></extensions></trkpt>
      <trkpt lon="-2.228823" lat="53.127220"><ele>132.937759</ele><time>2022-03-04T13:13:30Z</time><extensions><speed>1.548404</speed><course>246.390884</course><hAcc>1.621232</hAcc><vAcc>0.827469</vAcc></extensions></trkpt>
      <trkpt lon="-2.228843" lat="53.127214"><ele>132.948273</ele><time>2022-03-04T13:13:31Z</time><extensions><speed>1.491089</speed><course>245.473175</course><hAcc>1.623013</hAcc><vAcc>0.827328</vAcc></extensions></trkpt>
      <trkpt lon="-2.228863" lat="53.127209"><ele>132.959045</ele><time>2022-03-04T13:13:32Z</time><extensions><speed>1.438952</speed><course>246.073120</course><hAcc>1.640629</hAcc><vAcc>0.827203</vAcc></extensions></trkpt>
      <trkpt lon="-2.228884" lat="53.127203"><ele>132.957397</ele><time>2022-03-04T13:13:33Z</time><extensions><speed>1.542122</speed><course>248.308884</course><hAcc>1.659104</hAcc><vAcc>0.827098</vAcc></extensions></trkpt>
      <trkpt lon="-2.228905" lat="53.127199"><ele>132.974533</ele><time>2022-03-04T13:13:34Z</time><extensions><speed>1.500039</speed><course>249.890091</course><hAcc>1.666211</hAcc><vAcc>0.827019</vAcc></extensions></trkpt>
      <trkpt lon="-2.228926" lat="53.127194"><ele>132.990906</ele><time>2022-03-04T13:13:35Z</time><extensions><speed>1.451920</speed><course>248.298416</course><hAcc>1.641671</hAcc><vAcc>0.826955</vAcc></extensions></trkpt>
      <trkpt lon="-2.228945" lat="53.127189"><ele>133.000854</ele><time>2022-03-04T13:13:36Z</time><extensions><speed>1.362874</speed><course>248.693527</course><hAcc>1.642522</hAcc><vAcc>0.826879</vAcc></extensions></trkpt>
      <trkpt lon="-2.228964" lat="53.127185"><ele>133.007568</ele><time>2022-03-04T13:13:38Z</time><extensions><speed>1.286780</speed><course>248.130142</course><hAcc>1.662857</hAcc><vAcc>0.826819</vAcc></extensions></trkpt>
      <trkpt lon="-2.228981" lat="53.127180"><ele>133.021713</ele><time>2022-03-04T13:13:39Z</time><extensions><speed>1.258584</speed><course>247.780624</course><hAcc>1.686026</hAcc><vAcc>0.826721</vAcc></extensions></trkpt>
      <trkpt lon="-2.228999" lat="53.127176"><ele>133.027298</ele><time>2022-03-04T13:13:40Z</time><extensions><speed>1.252426</speed><course>248.433167</course><hAcc>1.709636</hAcc><vAcc>0.826617</vAcc></extensions></trkpt>
      <trkpt lon="-2.229016" lat="53.127172"><ele>133.029282</ele><time>2022-03-04T13:13:41Z</time><extensions><speed>1.213302</speed><course>248.000992</course><hAcc>1.706194</hAcc><vAcc>0.826494</vAcc></extensions></trkpt>
      <trkpt lon="-2.229032" lat="53.127168"><ele>133.028885</ele><time>2022-03-04T13:13:42Z</time><extensions><speed>1.115229</speed><course>247.916168</course><hAcc>1.712656</hAcc><vAcc>0.826328</vAcc></extensions></trkpt>
      <trkpt lon="-2.229047" lat="53.127165"><ele>133.026627</ele><time>2022-03-04T13:13:43Z</time><extensions><speed>0.997844</speed><course>248.756180</course><hAcc>1.722277</hAcc><vAcc>0.826090</vAcc></extensions></trkpt>
      <trkpt lon="-2.229059" lat="53.127162"><ele>133.023026</ele><time>2022-03-04T13:13:44Z</time><extensions><speed>0.768814</speed><course>250.361481</course><hAcc>1.729834</hAcc><vAcc>0.825780</vAcc></extensions></trkpt>
      <trkpt lon="-2.229068" lat="53.127160"><ele>133.018372</ele><time>2022-03-04T13:13:45Z</time><extensions><speed>0.445005</speed><course>254.766541</course><hAcc>1.729398</hAcc><vAcc>0.825412</vAcc></extensions></trkpt>
      <trkpt lon="-2.229072" lat="53.127160"><ele>133.012772</ele><time>2022-03-04T13:13:46Z</time><extensions><speed>0.178774</speed><course>259.281982</course><hAcc>1.736514</hAcc><vAcc>0.824991</vAcc></extensions></trkpt>
      <trkpt lon="-2.229074" lat="53.127159"><ele>133.006317</ele><time>2022-03-04T13:13:47Z</time><extensions><speed>0.075290</speed><course>272.763306</course><hAcc>1.742347</hAcc><vAcc>0.824542</vAcc></extensions></trkpt>
      <trkpt lon="-2.229075" lat="53.127160"><ele>132.999207</ele><time>2022-03-04T13:13:48Z</time><extensions><speed>0.047928</speed><course>301.531372</course><hAcc>1.750190</hAcc><vAcc>0.824061</vAcc></extensions></trkpt>
      <trkpt lon="-2.229076" lat="53.127160"><ele>132.995605</ele><time>2022-03-04T13:13:49Z</time><extensions><speed>0.045859</speed><course>320.838867</course><hAcc>1.758404</hAcc><vAcc>0.823591</vAcc></extensions></trkpt>
      <trkpt lon="-2.229076" lat="53.127160"><ele>132.992935</ele><time>2022-03-04T13:13:50Z</time><extensions><speed>0.041718</speed><course>328.086517</course><hAcc>1.752550</hAcc><vAcc>0.823115</vAcc></extensions></trkpt>
      <trkpt lon="-2.229076" lat="53.127160"><ele>132.974182</ele><time>2022-03-04T13:13:51Z</time><extensions><speed>0.034397</speed><course>330.426392</course><hAcc>1.750154</hAcc><vAcc>0.822691</vAcc></extensions></trkpt>
      <trkpt lon="-2.229076" lat="53.127161"><ele>132.958282</ele><time>2022-03-04T13:13:52Z</time><extensions><speed>0.028698</speed><course>324.798706</course><hAcc>1.755118</hAcc><vAcc>0.822315</vAcc></extensions></trkpt>
      <trkpt lon="-2.229077" lat="53.127161"><ele>132.945465</ele><time>2022-03-04T13:13:53Z</time><extensions><speed>0.029613</speed><course>311.479370</course><hAcc>1.759601</hAcc><vAcc>0.822011</vAcc></extensions></trkpt>
      <trkpt lon="-2.229077" lat="53.127161"><ele>132.925644</ele><time>2022-03-04T13:13:54Z</time><extensions><speed>0.041969</speed><course>299.252258</course><hAcc>1.761683</hAcc><vAcc>0.821780</vAcc></extensions></trkpt>
      <trkpt lon="-2.229078" lat="53.127161"><ele>132.900238</ele><time>2022-03-04T13:13:55Z</time><extensions><speed>0.070079</speed><course>294.417664</course><hAcc>1.762086</hAcc><vAcc>0.821646</vAcc></extensions></trkpt>
      <trkpt lon="-2.229079" lat="53.127162"><ele>132.872162</ele><time>2022-03-04T13:13:56Z</time><extensions><speed>0.120521</speed><course>293.510559</course><hAcc>1.761842</hAcc><vAcc>0.821601</vAcc></extensions></trkpt>
      <trkpt lon="-2.229082" lat="53.127162"><ele>132.850769</ele><time>2022-03-04T13:13:57Z</time><extensions><speed>0.206651</speed><course>294.342712</course><hAcc>1.760640</hAcc><vAcc>0.821644</vAcc></extensions></trkpt>
      <trkpt lon="-2.229085" lat="53.127163"><ele>132.826981</ele><time>2022-03-04T13:13:58Z</time><extensions><speed>0.354685</speed><course>295.617920</course><hAcc>1.756472</hAcc><vAcc>0.821778</vAcc></extensions></trkpt>
      <trkpt lon="-2.229092" lat="53.127165"><ele>132.802246</ele><time>2022-03-04T13:13:59Z</time><extensions><speed>0.585546</speed><course>297.058533</course><hAcc>1.753470</hAcc><vAcc>0.821997</vAcc></extensions></trkpt>
      <trkpt lon="-2.229102" lat="53.127169"><ele>132.765442</ele><time>2022-03-04T13:14:00Z</time><extensions><speed>1.007561</speed><course>297.279297</course><hAcc>1.742653</hAcc><vAcc>0.822294</vAcc></extensions></trkpt>
      <trkpt lon="-2.229117" lat="53.127174"><ele>132.747437</ele><time>2022-03-04T13:14:01Z</time><extensions><speed>1.207218</speed><course>301.710785</course><hAcc>1.739171</hAcc><vAcc>0.822661</vAcc></extensions></trkpt>
      <trkpt lon="-2.229133" lat="53.127180"><ele>132.710114</ele><time>2022-03-04T13:14:02Z</time><extensions><speed>1.370554</speed><course>303.914368</course><hAcc>1.733095</hAcc><vAcc>0.823083</vAcc></extensions></trkpt>
      <trkpt lon="-2.229150" lat="53.127187"><ele>132.680420</ele><time>2022-03-04T13:14:03Z</time><extensions><speed>1.444237</speed><course>305.760132</course><hAcc>1.729133</hAcc><vAcc>0.823546</vAcc></extensions></trkpt>
      <trkpt lon="-2.229167" lat="53.127195"><ele>132.649750</ele><time>2022-03-04T13:14:04Z</time><extensions><speed>1.446614</speed><course>307.433716</course><hAcc>1.724683</hAcc><vAcc>0.823984</vAcc></extensions></trkpt>
      <trkpt lon="-2.229184" lat="53.127203"><ele>132.620239</ele><time>2022-03-04T13:14:05Z</time><extensions><speed>1.463321</speed><course>308.932831</course><hAcc>1.718560</hAcc><vAcc>0.824383</vAcc></extensions></trkpt>
      <trkpt lon="-2.229201" lat="53.127211"><ele>132.587982</ele><time>2022-03-04T13:14:06Z</time><extensions><speed>1.453661</speed><course>309.593262</course><hAcc>1.711475</hAcc><vAcc>0.824771</vAcc></extensions></trkpt>
      <trkpt lon="-2.229218" lat="53.127220"><ele>132.568710</ele><time>2022-03-04T13:14:07Z</time><extensions><speed>1.461905</speed><course>310.556152</course><hAcc>1.705323</hAcc><vAcc>0.825092</vAcc></extensions></trkpt>
      <trkpt lon="-2.229234" lat="53.127228"><ele>132.522354</ele><time>2022-03-04T13:14:08Z</time><extensions><speed>1.435511</speed><course>311.463684</course><hAcc>1.700729</hAcc><vAcc>0.825371</vAcc></extensions></trkpt>
      <trkpt lon="-2.229250" lat="53.127237"><ele>132.489243</ele><time>2022-03-04T13:14:09Z</time><extensions><speed>1.403871</speed><course>312.075073</course><hAcc>1.695688</hAcc><vAcc>0.825619</vAcc></extensions></trkpt>
      <trkpt lon="-2.229265" lat="53.127245"><ele>132.453918</ele><time>2022-03-04T13:14:10Z</time><extensions><speed>1.319934</speed><course>313.511169</course><hAcc>1.687958</hAcc><vAcc>0.825835</vAcc></extensions></trkpt>
      <trkpt lon="-2.229279" lat="53.127253"><ele>132.404816</ele><time>2022-03-04T13:14:11Z</time><extensions><speed>1.255844</speed><course>314.880676</course><hAcc>1.680182</hAcc><vAcc>0.826003</vAcc></extensions></trkpt>
      <trkpt lon="-2.229292" lat="53.127261"><ele>132.356857</ele><time>2022-03-04T13:14:12Z</time><extensions><speed>1.181867</speed><course>313.240723</course><hAcc>1.673209</hAcc><vAcc>0.826131</vAcc></extensions></trkpt>
      <trkpt lon="-2.229305" lat="53.127268"><ele>132.316360</ele><time>2022-03-04T13:14:13Z</time><extensions><speed>1.248899</speed><course>313.047272</course><hAcc>1.665799</hAcc><vAcc>0.826198</vAcc></extensions></trkpt>
      <trkpt lon="-2.229320" lat="53.127277"><ele>132.294907</ele><time>2022-03-04T13:14:14Z</time><extensions><speed>1.523692</speed><course>313.566193</course><hAcc>1.651060</hAcc><vAcc>0.826234</vAcc></extensions></trkpt>
      <trkpt lon="-2.229337" lat="53.127286"><ele>132.277451</ele><time>2022-03-04T13:14:15Z</time><extensions><speed>1.516338</speed><course>313.302734</course><hAcc>1.649357</hAcc><vAcc>0.826252</vAcc></extensions></trkpt>
      <trkpt lon="-2.229353" lat="53.127295"><ele>132.248520</ele><time>2022-03-04T13:14:16Z</time><extensions><speed>1.417123</speed><course>312.377197</course><hAcc>1.666988</hAcc><vAcc>0.826263</vAcc></extensions></trkpt>
      <trkpt lon="-2.229369" lat="53.127303"><ele>132.218735</ele><time>2022-03-04T13:14:17Z</time><extensions><speed>1.351880</speed><course>310.827972</course><hAcc>1.637178</hAcc><vAcc>0.826270</vAcc></extensions></trkpt>
      <trkpt lon="-2.229383" lat="53.127311"><ele>132.186829</ele><time>2022-03-04T13:14:18Z</time><extensions><speed>1.258716</speed><course>310.185669</course><hAcc>1.620215</hAcc><vAcc>0.826274</vAcc></extensions></trkpt>
      <trkpt lon="-2.229397" lat="53.127318"><ele>132.153275</ele><time>2022-03-04T13:14:19Z</time><extensions><speed>1.222879</speed><course>310.882507</course><hAcc>1.625742</hAcc><vAcc>0.826280</vAcc></extensions></trkpt>
      <trkpt lon="-2.229411" lat="53.127325"><ele>132.123657</ele><time>2022-03-04T13:14:20Z</time><extensions><speed>1.236736</speed><course>310.112000</course><hAcc>1.635124</hAcc><vAcc>0.826282</vAcc></extensions></trkpt>
      <trkpt lon="-2.229426" lat="53.127333"><ele>132.101654</ele><time>2022-03-04T13:14:21Z</time><extensions><speed>1.363219</speed><course>309.336151</course><hAcc>1.649196</hAcc><vAcc>0.826288</vAcc></extensions></trkpt>
      <trkpt lon="-2.229443" lat="53.127341"><ele>132.094620</ele><time>2022-03-04T13:14:22Z</time><extensions><speed>1.465030</speed><course>309.017242</course><hAcc>1.649172</hAcc><vAcc>0.826296</vAcc></extensions></trkpt>
      <trkpt lon="-2.229460" lat="53.127349"><ele>132.089935</ele><time>2022-03-04T13:14:23Z</time><extensions><speed>1.495791</speed><course>308.211517</course><hAcc>1.627448</hAcc><vAcc>0.826328</vAcc></extensions></trkpt>
      <trkpt lon="-2.229478" lat="53.127357"><ele>132.083557</ele><time>2022-03-04T13:14:24Z</time><extensions><speed>1.464668</speed><course>307.724457</course><hAcc>1.619653</hAcc><vAcc>0.826377</vAcc></extensions></trkpt>
      <trkpt lon="-2.229495" lat="53.127365"><ele>132.073822</ele><time>2022-03-04T13:14:25Z</time><extensions><speed>1.399796</speed><course>307.317139</course><hAcc>1.616058</hAcc><vAcc>0.826469</vAcc></extensions></trkpt>
      <trkpt lon="-2.229511" lat="53.127373"><ele>132.064896</ele><time>2022-03-04T13:14:26Z</time><extensions><speed>1.342968</speed><course>306.220581</course><hAcc>1.601322</hAcc><vAcc>0.826568</vAcc></extensions></trkpt>
      <trkpt lon="-2.229527" lat="53.127380"><ele>132.066345</ele><time>2022-03-04T13:14:27Z</time><extensions><speed>1.285529</speed><course>306.414368</course><hAcc>1.588077</hAcc><vAcc>0.826665</vAcc></extensions></trkpt>
      <trkpt lon="-2.229542" lat="53.127387"><ele>132.071869</ele><time>2022-03-04T13:14:28Z</time><extensions><speed>1.339480</speed><course>308.058746</course><hAcc>1.580276</hAcc><vAcc>0.826761</vAcc></extensions></trkpt>
      <trkpt lon="-2.229558" lat="53.127394"><ele>132.080978</ele><time>2022-03-04T13:14:29Z</time><extensions><speed>1.375298</speed><course>309.712433</course><hAcc>1.564830</hAcc><vAcc>0.826898</vAcc></extensions></trkpt>
      <trkpt lon="-2.229574" lat="53.127403"><ele>132.102814</ele><time>2022-03-04T13:14:30Z</time><extensions><speed>1.499428</speed><course>309.344299</course><hAcc>1.525823</hAcc><vAcc>0.827065</vAcc></extensions></trkpt>
      <trkpt lon="-2.229591" lat="53.127411"><ele>132.117111</ele><time>2022-03-04T13:14:31Z</time><extensions><speed>1.494032</speed><course>307.994720</course><hAcc>1.543200</hAcc><vAcc>0.827231</vAcc></extensions></trkpt>
      <trkpt lon="-2.229609" lat="53.127419"><ele>132.128052</ele><time>2022-03-04T13:14:31Z</time><extensions><speed>1.463559</speed><course>305.765564</course><hAcc>1.513212</hAcc><vAcc>0.827395</vAcc></extensions></trkpt>
      <trkpt lon="-2.229627" lat="53.127427"><ele>132.143661</ele><time>2022-03-04T13:14:32Z</time><extensions><speed>1.456692</speed><course>307.070923</course><hAcc>1.524181</hAcc><vAcc>0.827578</vAcc></extensions></trkpt>
      <trkpt lon="-2.229644" lat="53.127435"><ele>132.171158</ele><time>2022-03-04T13:14:33Z</time><extensions><speed>1.456975</speed><course>310.944000</course><hAcc>1.559847</hAcc><vAcc>0.827746</vAcc></extensions></trkpt>
      <trkpt lon="-2.229659" lat="53.127444"><ele>132.204926</ele><time>2022-03-04T13:14:34Z</time><extensions><speed>1.375801</speed><course>315.294373</course><hAcc>1.548402</hAcc><vAcc>0.827944</vAcc></extensions></trkpt>
      <trkpt lon="-2.229672" lat="53.127452"><ele>132.235519</ele><time>2022-03-04T13:14:35Z</time><extensions><speed>1.258035</speed><course>320.563416</course><hAcc>1.547503</hAcc><vAcc>0.828139</vAcc></extensions></trkpt>
      <trkpt lon="-2.229683" lat="53.127461"><ele>132.249268</ele><time>2022-03-04T13:14:36Z</time><extensions><speed>1.133086</speed><course>325.415497</course><hAcc>1.569436</hAcc><vAcc>0.828331</vAcc></extensions></trkpt>
      <trkpt lon="-2.229693" lat="53.127469"><ele>132.268112</ele><time>2022-03-04T13:14:37Z</time><extensions><speed>1.133853</speed><course>325.565521</course><hAcc>1.601301</hAcc><vAcc>0.828519</vAcc></extensions></trkpt>
      <trkpt lon="-2.229703" lat="53.127477"><ele>132.285339</ele><time>2022-03-04T13:14:38Z</time><extensions><speed>1.137999</speed><course>322.142670</course><hAcc>1.629290</hAcc><vAcc>0.828704</vAcc></extensions></trkpt>
      <trkpt lon="-2.229714" lat="53.127485"><ele>132.308594</ele><time>2022-03-04T13:14:39Z</time><extensions><speed>1.093989</speed><course>315.294495</course><hAcc>1.643364</hAcc><vAcc>0.828876</vAcc></extensions></trkpt>
      <trkpt lon="-2.229726" lat="53.127491"><ele>132.330811</ele><time>2022-03-04T13:14:40Z</time><extensions><speed>1.015440</speed><course>306.928345</course><hAcc>1.647939</hAcc><vAcc>0.829039</vAcc></extensions></trkpt>
      <trkpt lon="-2.229738" lat="53.127496"><ele>132.356918</ele><time>2022-03-04T13:14:41Z</time><extensions><speed>0.941303</speed><course>298.737396</course><hAcc>1.658596</hAcc><vAcc>0.829185</vAcc></extensions></trkpt>
      <trkpt lon="-2.229751" lat="53.127500"><ele>132.371246</ele><time>2022-03-04T13:14:42Z</time><extensions><speed>0.905157</speed><course>293.108276</course><hAcc>1.676884</hAcc><vAcc>0.829307</vAcc></extensions></trkpt>
      <trkpt lon="-2.229763" lat="53.127502"><ele>132.385300</ele><time>2022-03-04T13:14:43Z</time><extensions><speed>0.841753</speed><course>281.515381</course><hAcc>1.648003</hAcc><vAcc>0.829403</vAcc></extensions></trkpt>
      <trkpt lon="-2.229776" lat="53.127503"><ele>132.401230</ele><time>2022-03-04T13:14:44Z</time><extensions><speed>0.890574</speed><course>273.918701</course><hAcc>1.638325</hAcc><vAcc>0.829491</vAcc></extensions></trkpt>
      <trkpt lon="-2.229790" lat="53.127503"><ele>132.418518</ele><time>2022-03-04T13:14:45Z</time><extensions><speed>0.949788</speed><course>273.588928</course><hAcc>1.664314</hAcc><vAcc>0.829521</vAcc></extensions></trkpt>
      <trkpt lon="-2.229804" lat="53.127504"><ele>132.429916</ele><time>2022-03-04T13:14:46Z</time><extensions><speed>0.976541</speed><course>272.790070</course><hAcc>1.679521</hAcc><vAcc>0.829522</vAcc></extensions></trkpt>
      <trkpt lon="-2.229820" lat="53.127505"><ele>132.443741</ele><time>2022-03-04T13:14:47Z</time><extensions><speed>1.189083</speed><course>276.511078</course><hAcc>1.655454</hAcc><vAcc>0.829466</vAcc></extensions></trkpt>
      <trkpt lon="-2.229838" lat="53.127506"><ele>132.461227</ele><time>2022-03-04T13:14:48Z</time><extensions><speed>1.238728</speed><course>280.879059</course><hAcc>1.647559</hAcc><vAcc>0.829400</vAcc></extensions></trkpt>
      <trkpt lon="-2.229856" lat="53.127509"><ele>132.465652</ele><time>2022-03-04T13:14:49Z</time><extensions><speed>1.237579</speed><course>284.767517</course><hAcc>1.665250</hAcc><vAcc>0.829307</vAcc></extensions></trkpt>
      <trkpt lon="-2.229874" lat="53.127512"><ele>132.461258</ele><time>2022-03-04T13:14:50Z</time><extensions><speed>1.154834</speed><course>289.051971</course><hAcc>1.696491</hAcc><vAcc>0.829209</vAcc></extensions></trkpt>
      <trkpt lon="-2.229890" lat="53.127516"><ele>132.451996</ele><time>2022-03-04T13:14:51Z</time><extensions><speed>1.179175</speed><course>290.593201</course><hAcc>1.684102</hAcc><vAcc>0.829113</vAcc></extensions></trkpt>
      <trkpt lon="-2.229907" lat="53.127520"><ele>132.449448</ele><time>2022-03-04T13:14:52Z</time><extensions><speed>1.208825</speed><course>291.691101</course><hAcc>1.678821</hAcc><vAcc>0.829067</vAcc></extensions></trkpt>
      <trkpt lon="-2.229923" lat="53.127524"><ele>132.434006</ele><time>2022-03-04T13:14:53Z</time><extensions><speed>1.193233</speed><course>294.423645</course><hAcc>1.688044</hAcc><vAcc>0.829022</vAcc></extensions></trkpt>
      <trkpt lon="-2.229940" lat="53.127529"><ele>132.397812</ele><time>2022-03-04T13:14:54Z</time><extensions><speed>1.278914</speed><course>298.053833</course><hAcc>1.692992</hAcc><vAcc>0.828982</vAcc></extensions></trkpt>
      <trkpt lon="-2.229958" lat="53.127535"><ele>132.382980</ele><time>2022-03-04T13:14:55Z</time><extensions><speed>1.423367</speed><course>301.598999</course><hAcc>1.688428</hAcc><vAcc>0.828962</vAcc></extensions></trkpt>
      <trkpt lon="-2.229976" lat="53.127542"><ele>132.352112</ele><time>2022-03-04T13:14:56Z</time><extensions><speed>1.482226</speed><course>303.501556</course><hAcc>1.681228</hAcc><vAcc>0.828964</vAcc></extensions></trkpt>
      <trkpt lon="-2.229994" lat="53.127549"><ele>132.312973</ele><time>2022-03-04T13:14:57Z</time><extensions><speed>1.425938</speed><course>304.850983</course><hAcc>1.670549</hAcc><vAcc>0.828998</vAcc></extensions></trkpt>
      <trkpt lon="-2.230011" lat="53.127557"><ele>132.266937</ele><time>2022-03-04T13:14:58Z</time><extensions><speed>1.421222</speed><course>305.723877</course><hAcc>1.657536</hAcc><vAcc>0.829033</vAcc></extensions></trkpt>
      <trkpt lon="-2.230029" lat="53.127564"><ele>132.237808</ele><time>2022-03-04T13:14:59Z</time><extensions><speed>1.381212</speed><course>303.366333</course><hAcc>1.627403</hAcc><vAcc>0.829109</vAcc></extensions></trkpt>
      <trkpt lon="-2.230046" lat="53.127571"><ele>132.190384</ele><time>2022-03-04T13:15:00Z</time><extensions><speed>1.358051</speed><course>301.452972</course><hAcc>1.602644</hAcc><vAcc>0.829183</vAcc></extensions></trkpt>
      <trkpt lon="-2.230063" lat="53.127577"><ele>132.141586</ele><time>2022-03-04T13:15:01Z</time><extensions><speed>1.310539</speed><course>301.781342</course><hAcc>1.605182</hAcc><vAcc>0.829247</vAcc></extensions></trkpt>
      <trkpt lon="-2.230079" lat="53.127583"><ele>132.096527</ele><time>2022-03-04T13:15:02Z</time><extensions><speed>1.177199</speed><course>303.057190</course><hAcc>1.621530</hAcc><vAcc>0.829261</vAcc></extensions></trkpt>
      <trkpt lon="-2.230092" lat="53.127589"><ele>132.049484</ele><time>2022-03-04T13:15:03Z</time><extensions><speed>0.957600</speed><course>308.931152</course><hAcc>1.644527</hAcc><vAcc>0.829260</vAcc></extensions></trkpt>
      <trkpt lon="-2.230104" lat="53.127594"><ele>132.026566</ele><time>2022-03-04T13:15:04Z</time><extensions><speed>1.138890</speed><course>307.170288</course><hAcc>1.591881</hAcc><vAcc>0.829210</vAcc></extensions></trkpt>
      <trkpt lon="-2.230119" lat="53.127601"><ele>131.998764</ele><time>2022-03-04T13:15:05Z</time><extensions><speed>1.249154</speed><course>308.571564</course><hAcc>1.584111</hAcc><vAcc>0.829128</vAcc></extensions></trkpt>
      <trkpt lon="-2.230133" lat="53.127608"><ele>131.982040</ele><time>2022-03-04T13:15:06Z</time><extensions><speed>1.316110</speed><course>309.882324</course><hAcc>1.609191</hAcc><vAcc>0.829017</vAcc></extensions></trkpt>
      <trkpt lon="-2.230149" lat="53.127616"><ele>131.966217</ele><time>2022-03-04T13:15:07Z</time><extensions><speed>1.381860</speed><course>308.965851</course><hAcc>1.625665</hAcc><vAcc>0.828851</vAcc></extensions></trkpt>
      <trkpt lon="-2.230166" lat="53.127624"><ele>131.964554</ele><time>2022-03-04T13:15:08Z</time><extensions><speed>1.446003</speed><course>307.707214</course><hAcc>1.626243</hAcc><vAcc>0.828649</vAcc></extensions></trkpt>
      <trkpt lon="-2.230183" lat="53.127632"><ele>131.961823</ele><time>2022-03-04T13:15:09Z</time><extensions><speed>1.481588</speed><course>306.113647</course><hAcc>1.631012</hAcc><vAcc>0.828437</vAcc></extensions></trkpt>
      <trkpt lon="-2.230201" lat="53.127640"><ele>131.960434</ele><time>2022-03-04T13:15:10Z</time><extensions><speed>1.491427</speed><course>305.824066</course><hAcc>1.633958</hAcc><vAcc>0.828207</vAcc></extensions></trkpt>
      <trkpt lon="-2.230219" lat="53.127648"><ele>131.948074</ele><time>2022-03-04T13:15:11Z</time><extensions><speed>1.530856</speed><course>306.964691</course><hAcc>1.602614</hAcc><vAcc>0.827986</vAcc></extensions></trkpt>
      <trkpt lon="-2.230237" lat="53.127657"><ele>131.931961</ele><time>2022-03-04T13:15:12Z</time><extensions><speed>1.553650</speed><course>310.226379</course><hAcc>1.575841</hAcc><vAcc>0.827787</vAcc></extensions></trkpt>
      <trkpt lon="-2.230255" lat="53.127665"><ele>131.916397</ele><time>2022-03-04T13:15:13Z</time><extensions><speed>1.498753</speed><course>311.683624</course><hAcc>1.571896</hAcc><vAcc>0.827578</vAcc></extensions></trkpt>
      <trkpt lon="-2.230272" lat="53.127674"><ele>131.887238</ele><time>2022-03-04T13:15:14Z</time><extensions><speed>1.492105</speed><course>309.763489</course><hAcc>1.578410</hAcc><vAcc>0.827400</vAcc></extensions></trkpt>
      <trkpt lon="-2.230289" lat="53.127682"><ele>131.878250</ele><time>2022-03-04T13:15:15Z</time><extensions><speed>1.462001</speed><course>307.006287</course><hAcc>1.609572</hAcc><vAcc>0.827229</vAcc></extensions></trkpt>
      <trkpt lon="-2.230307" lat="53.127690"><ele>131.864563</ele><time>2022-03-04T13:15:16Z</time><extensions><speed>1.454727</speed><course>305.263916</course><hAcc>1.548493</hAcc><vAcc>0.827071</vAcc></extensions></trkpt>
      <trkpt lon="-2.230324" lat="53.127698"><ele>131.837814</ele><time>2022-03-04T13:15:17Z</time><extensions><speed>1.435071</speed><course>306.737915</course><hAcc>1.493600</hAcc><vAcc>0.826927</vAcc></extensions></trkpt>
      <trkpt lon="-2.230341" lat="53.127706"><ele>131.811249</ele><time>2022-03-04T13:15:18Z</time><extensions><speed>1.475246</speed><course>307.386932</course><hAcc>1.477277</hAcc><vAcc>0.826806</vAcc></extensions></trkpt>
      <trkpt lon="-2.230359" lat="53.127714"><ele>131.775009</ele><time>2022-03-04T13:15:19Z</time><extensions><speed>1.499256</speed><course>305.412445</course><hAcc>1.500974</hAcc><vAcc>0.826705</vAcc></extensions></trkpt>
      <trkpt lon="-2.230377" lat="53.127722"><ele>131.727020</ele><time>2022-03-04T13:15:20Z</time><extensions><speed>1.462128</speed><course>308.063843</course><hAcc>1.525552</hAcc><vAcc>0.826611</vAcc></extensions></trkpt>
      <trkpt lon="-2.230394" lat="53.127730"><ele>131.688690</ele><time>2022-03-04T13:15:21Z</time><extensions><speed>1.452742</speed><course>311.611420</course><hAcc>1.530821</hAcc><vAcc>0.826525</vAcc></extensions></trkpt>
      <trkpt lon="-2.230410" lat="53.127739"><ele>131.620392</ele><time>2022-03-04T13:15:22Z</time><extensions><speed>1.380636</speed><course>311.099152</course><hAcc>1.531595</hAcc><vAcc>0.826443</vAcc></extensions></trkpt>
      <trkpt lon="-2.230426" lat="53.127746"><ele>131.547195</ele><time>2022-03-04T13:15:23Z</time><extensions><speed>1.357461</speed><course>307.768433</course><hAcc>1.500820</hAcc><vAcc>0.826360</vAcc></extensions></trkpt>
      <trkpt lon="-2.230442" lat="53.127754"><ele>131.482544</ele><time>2022-03-04T13:15:24Z</time><extensions><speed>1.361403</speed><course>306.024078</course><hAcc>1.533730</hAcc><vAcc>0.826267</vAcc></extensions></trkpt>
      <trkpt lon="-2.230458" lat="53.127761"><ele>131.414429</ele><time>2022-03-04T13:15:25Z</time><extensions><speed>1.369437</speed><course>306.649750</course><hAcc>1.571689</hAcc><vAcc>0.826178</vAcc></extensions></trkpt>
      <trkpt lon="-2.230474" lat="53.127769"><ele>131.345398</ele><time>2022-03-04T13:15:26Z</time><extensions><speed>1.375461</speed><course>309.159027</course><hAcc>1.584993</hAcc><vAcc>0.826116</vAcc></extensions></trkpt>
      <trkpt lon="-2.230490" lat="53.127777"><ele>131.252228</ele><time>2022-03-04T13:15:27Z</time><extensions><speed>1.403695</speed><course>311.314148</course><hAcc>1.604225</hAcc><vAcc>0.826054</vAcc></extensions></trkpt>
      <trkpt lon="-2.230506" lat="53.127786"><ele>131.154083</ele><time>2022-03-04T13:15:28Z</time><extensions><speed>1.482824</speed><course>312.888916</course><hAcc>1.619782</hAcc><vAcc>0.826016</vAcc></extensions></trkpt>
      <trkpt lon="-2.230522" lat="53.127795"><ele>131.059555</ele><time>2022-03-04T13:15:29Z</time><extensions><speed>1.521227</speed><course>315.136902</course><hAcc>1.629808</hAcc><vAcc>0.825993</vAcc></extensions></trkpt>
      <trkpt lon="-2.230538" lat="53.127805"><ele>130.977097</ele><time>2022-03-04T13:15:30Z</time><extensions><speed>1.530879</speed><course>315.926270</course><hAcc>1.636021</hAcc><vAcc>0.825969</vAcc></extensions></trkpt>
      <trkpt lon="-2.230554" lat="53.127815"><ele>130.893982</ele><time>2022-03-04T13:15:31Z</time><extensions><speed>1.550492</speed><course>315.467804</course><hAcc>1.641364</hAcc><vAcc>0.825988</vAcc></extensions></trkpt>
      <trkpt lon="-2.230571" lat="53.127824"><ele>130.806503</ele><time>2022-03-04T13:15:32Z</time><extensions><speed>1.491724</speed><course>313.933807</course><hAcc>1.653864</hAcc><vAcc>0.826014</vAcc></extensions></trkpt>
      <trkpt lon="-2.230586" lat="53.127833"><ele>130.732742</ele><time>2022-03-04T13:15:33Z</time><extensions><speed>1.410095</speed><course>312.361359</course><hAcc>1.636492</hAcc><vAcc>0.826062</vAcc></extensions></trkpt>
      <trkpt lon="-2.230602" lat="53.127841"><ele>130.659515</ele><time>2022-03-04T13:15:34Z</time><extensions><speed>1.366365</speed><course>311.159760</course><hAcc>1.619909</hAcc><vAcc>0.826118</vAcc></extensions></trkpt>
      <trkpt lon="-2.230618" lat="53.127849"><ele>130.592911</ele><time>2022-03-04T13:15:35Z</time><extensions><speed>1.387077</speed><course>309.584595</course><hAcc>1.621614</hAcc><vAcc>0.826208</vAcc></extensions></trkpt>
      <trkpt lon="-2.230634" lat="53.127858"><ele>130.542465</ele><time>2022-03-04T13:15:36Z</time><extensions><speed>1.416737</speed><course>309.856598</course><hAcc>1.638127</hAcc><vAcc>0.826317</vAcc></extensions></trkpt>
      <trkpt lon="-2.230651" lat="53.127866"><ele>130.508286</ele><time>2022-03-04T13:15:37Z</time><extensions><speed>1.528124</speed><course>308.879272</course><hAcc>1.659584</hAcc><vAcc>0.826451</vAcc></extensions></trkpt>
      <trkpt lon="-2.230667" lat="53.127874"><ele>130.476624</ele><time>2022-03-04T13:15:38Z</time><extensions><speed>1.271703</speed><course>307.757568</course><hAcc>1.682814</hAcc><vAcc>0.826577</vAcc></extensions></trkpt>
      <trkpt lon="-2.230680" lat="53.127880"><ele>130.436493</ele><time>2022-03-04T13:15:39Z</time><extensions><speed>0.857929</speed><course>309.631958</course><hAcc>1.665924</hAcc><vAcc>0.826708</vAcc></extensions></trkpt>
      <trkpt lon="-2.230690" lat="53.127884"><ele>130.390381</ele><time>2022-03-04T13:15:40Z</time><extensions><speed>0.892960</speed><course>304.421204</course><hAcc>1.659504</hAcc><vAcc>0.826860</vAcc></extensions></trkpt>
      <trkpt lon="-2.230701" lat="53.127889"><ele>130.349442</ele><time>2022-03-04T13:15:41Z</time><extensions><speed>0.958238</speed><course>302.671600</course><hAcc>1.679343</hAcc><vAcc>0.827028</vAcc></extensions></trkpt>
      <trkpt lon="-2.230714" lat="53.127894"><ele>130.294174</ele><time>2022-03-04T13:15:42Z</time><extensions><speed>0.965807</speed><course>300.948883</course><hAcc>1.693707</hAcc><vAcc>0.827173</vAcc></extensions></trkpt>
      <trkpt lon="-2.230726" lat="53.127898"><ele>130.236374</ele><time>2022-03-04T13:15:44Z</time><extensions><speed>0.907581</speed><course>299.718231</course><hAcc>1.703531</hAcc><vAcc>0.827309</vAcc></extensions></trkpt>
      <trkpt lon="-2.230737" lat="53.127902"><ele>130.187485</ele><time>2022-03-04T13:15:45Z</time><extensions><speed>0.882311</speed><course>298.670593</course><hAcc>1.706776</hAcc><vAcc>0.827453</vAcc></extensions></trkpt>
      <trkpt lon="-2.230749" lat="53.127905"><ele>130.149155</ele><time>2022-03-04T13:15:46Z</time><extensions><speed>0.812583</speed><course>297.323608</course><hAcc>1.705369</hAcc><vAcc>0.827568</vAcc></extensions></trkpt>
      <trkpt lon="-2.230759" lat="53.127909"><ele>130.103317</ele><time>2022-03-04T13:15:47Z</time><extensions><speed>0.732183</speed><course>298.926056</course><hAcc>1.700230</hAcc><vAcc>0.827643</vAcc></extensions></trkpt>
      <trkpt lon="-2.230768" lat="53.127912"><ele>130.057343</ele><time>2022-03-04T13:15:48Z</time><extensions><speed>0.699775</speed><course>302.572662</course><hAcc>1.689884</hAcc><vAcc>0.827660</vAcc></extensions></trkpt>
      <trkpt lon="-2.230776" lat="53.127915"><ele>130.007858</ele><time>2022-03-04T13:15:49Z</time><extensions><speed>0.698986</speed><course>306.473938</course><hAcc>1.671286</hAcc><vAcc>0.827641</vAcc></extensions></trkpt>
      <trkpt lon="-2.230785" lat="53.127920"><ele>129.959244</ele><time>2022-03-04T13:15:50Z</time><extensions><speed>0.757689</speed><course>311.513855</course><hAcc>1.654356</hAcc><vAcc>0.827559</vAcc></extensions></trkpt>
      <trkpt lon="-2.230793" lat="53.127925"><ele>129.907578</ele><time>2022-03-04T13:15:51Z</time><extensions><speed>0.860854</speed><course>314.912415</course><hAcc>1.661570</hAcc><vAcc>0.827447</vAcc></extensions></trkpt>
      <trkpt lon="-2.230802" lat="53.127930"><ele>129.862167</ele><time>2022-03-04T13:15:52Z</time><extensions><speed>0.834367</speed><course>317.315460</course><hAcc>1.688561</hAcc><vAcc>0.827284</vAcc></extensions></trkpt>
      <trkpt lon="-2.230810" lat="53.127935"><ele>129.814316</ele><time>2022-03-04T13:15:53Z</time><extensions><speed>0.730705</speed><course>321.345764</course><hAcc>1.652050</hAcc><vAcc>0.827075</vAcc></extensions></trkpt>
      <trkpt lon="-2.230816" lat="53.127941"><ele>129.772812</ele><time>2022-03-04T13:15:54Z</time><extensions><speed>0.759925</speed><course>323.508301</course><hAcc>1.652146</hAcc><vAcc>0.826842</vAcc></extensions></trkpt>
      <trkpt lon="-2.230823" lat="53.127946"><ele>129.740479</ele><time>2022-03-04T13:15:55Z</time><extensions><speed>0.813479</speed><course>324.365021</course><hAcc>1.683189</hAcc><vAcc>0.826587</vAcc></extensions></trkpt>
      <trkpt lon="-2.230829" lat="53.127952"><ele>129.705383</ele><time>2022-03-04T13:15:56Z</time><extensions><speed>0.618409</speed><course>328.859741</course><hAcc>1.680209</hAcc><vAcc>0.826316</vAcc></extensions></trkpt>
      <trkpt lon="-2.230832" lat="53.127956"><ele>129.665436</ele><time>2022-03-04T13:15:57Z</time><extensions><speed>0.435340</speed><course>348.176758</course><hAcc>1.687334</hAcc><vAcc>0.826068</vAcc></extensions></trkpt>
      <trkpt lon="-2.230832" lat="53.127960"><ele>129.627319</ele><time>2022-03-04T13:15:58Z</time><extensions><speed>0.368247</speed><course>11.113386</course><hAcc>1.704370</hAcc><vAcc>0.825810</vAcc></extensions></trkpt>
      <trkpt lon="-2.230831" lat="53.127963"><ele>129.597015</ele><time>2022-03-04T13:15:59Z</time><extensions><speed>0.435782</speed><course>15.549069</course><hAcc>1.719419</hAcc><vAcc>0.825575</vAcc></extensions></trkpt>
      <trkpt lon="-2.230829" lat="53.127967"><ele>129.570068</ele><time>2022-03-04T13:16:00Z</time><extensions><speed>0.379985</speed><course>24.976896</course><hAcc>1.740148</hAcc><vAcc>0.825387</vAcc></extensions></trkpt>
      <trkpt lon="-2.230826" lat="53.127969"><ele>129.545135</ele><time>2022-03-04T13:16:01Z</time><extensions><speed>0.250743</speed><course>48.157612</course><hAcc>1.750334</hAcc><vAcc>0.825244</vAcc></extensions></trkpt>
      <trkpt lon="-2.230823" lat="53.127970"><ele>129.522324</ele><time>2022-03-04T13:16:02Z</time><extensions><speed>0.222454</speed><course>69.660316</course><hAcc>1.751411</hAcc><vAcc>0.825093</vAcc></extensions></trkpt>
      <trkpt lon="-2.230820" lat="53.127970"><ele>129.501221</ele><time>2022-03-04T13:16:03Z</time><extensions><speed>0.224690</speed><course>84.740379</course><hAcc>1.752586</hAcc><vAcc>0.825011</vAcc></extensions></trkpt>
      <trkpt lon="-2.230816" lat="53.127970"><ele>129.478683</ele><time>2022-03-04T13:16:04Z</time><extensions><speed>0.238677</speed><course>96.905716</course><hAcc>1.752717</hAcc><vAcc>0.824968</vAcc></extensions></trkpt>
      <trkpt lon="-2.230813" lat="53.127970"><ele>129.456909</ele><time>2022-03-04T13:16:05Z</time><extensions><speed>0.263758</speed><course>105.466263</course><hAcc>1.751042</hAcc><vAcc>0.824938</vAcc></extensions></trkpt>
      <trkpt lon="-2.230808" lat="53.127969"><ele>129.421707</ele><time>2022-03-04T13:16:06Z</time><extensions><speed>0.302081</speed><course>108.794434</course><hAcc>1.751782</hAcc><vAcc>0.824883</vAcc></extensions></trkpt>
      <trkpt lon="-2.230804" lat="53.127968"><ele>129.377457</ele><time>2022-03-04T13:16:07Z</time><extensions><speed>0.355524</speed><course>108.565140</course><hAcc>1.752924</hAcc><vAcc>0.824836</vAcc></extensions></trkpt>
      <trkpt lon="-2.230798" lat="53.127967"><ele>129.335754</ele><time>2022-03-04T13:16:08Z</time><extensions><speed>0.422737</speed><course>107.752953</course><hAcc>1.751496</hAcc><vAcc>0.824738</vAcc></extensions></trkpt>
      <trkpt lon="-2.230792" lat="53.127966"><ele>129.294769</ele><time>2022-03-04T13:16:09Z</time><extensions><speed>0.472268</speed><course>107.640045</course><hAcc>1.752401</hAcc><vAcc>0.824589</vAcc></extensions></trkpt>
      <trkpt lon="-2.230785" lat="53.127964"><ele>129.279404</ele><time>2022-03-04T13:16:10Z</time><extensions><speed>0.504915</speed><course>108.587410</course><hAcc>1.751054</hAcc><vAcc>0.824400</vAcc></extensions></trkpt>
      <trkpt lon="-2.230778" lat="53.127963"><ele>129.250702</ele><time>2022-03-04T13:16:11Z</time><extensions><speed>0.502934</speed><course>110.018906</course><hAcc>1.748946</hAcc><vAcc>0.824173</vAcc></extensions></trkpt>
      <trkpt lon="-2.230771" lat="53.127961"><ele>129.225296</ele><time>2022-03-04T13:16:12Z</time><extensions><speed>0.461587</speed><course>110.112923</course><hAcc>1.752701</hAcc><vAcc>0.823905</vAcc></extensions></trkpt>
      <trkpt lon="-2.230765" lat="53.127960"><ele>129.193466</ele><time>2022-03-04T13:16:13Z</time><extensions><speed>0.404150</speed><course>109.179619</course><hAcc>1.765587</hAcc><vAcc>0.823596</vAcc></extensions></trkpt>
      <trkpt lon="-2.230759" lat="53.127959"><ele>129.167664</ele><time>2022-03-04T13:16:14Z</time><extensions><speed>0.431850</speed><course>107.732597</course><hAcc>1.764835</hAcc><vAcc>0.823217</vAcc></extensions></trkpt>
      <trkpt lon="-2.230752" lat="53.127958"><ele>129.135193</ele><time>2022-03-04T13:16:15Z</time><extensions><speed>0.483864</speed><course>104.761383</course><hAcc>1.770636</hAcc><vAcc>0.822759</vAcc></extensions></trkpt>
      <trkpt lon="-2.230744" lat="53.127957"><ele>129.102539</ele><time>2022-03-04T13:16:16Z</time><extensions><speed>0.580226</speed><course>101.419357</course><hAcc>1.779103</hAcc><vAcc>0.822188</vAcc></extensions></trkpt>
      <trkpt lon="-2.230734" lat="53.127956"><ele>129.066315</ele><time>2022-03-04T13:16:17Z</time><extensions><speed>0.767037</speed><course>99.376282</course><hAcc>1.772429</hAcc><vAcc>0.821322</vAcc></extensions></trkpt>
      <trkpt lon="-2.230721" lat="53.127954"><ele>129.026642</ele><time>2022-03-04T13:16:18Z</time><extensions><speed>1.023531</speed><course>99.065178</course><hAcc>1.753628</hAcc><vAcc>0.820277</vAcc></extensions></trkpt>
      <trkpt lon="-2.230706" lat="53.127953"><ele>128.989059</ele><time>2022-03-04T13:16:19Z</time><extensions><speed>1.049731</speed><course>99.699684</course><hAcc>1.747255</hAcc><vAcc>0.818804</vAcc></extensions></trkpt>
      <trkpt lon="-2.230691" lat="53.127951"><ele>128.949295</ele><time>2022-03-04T13:16:20Z</time><extensions><speed>0.985369</speed><course>99.594131</course><hAcc>1.736242</hAcc><vAcc>0.817044</vAcc></extensions></trkpt>
      <trkpt lon="-2.230678" lat="53.127949"><ele>128.889328</ele><time>2022-03-04T13:16:21Z</time><extensions><speed>0.822684</speed><course>104.715935</course><hAcc>1.715685</hAcc><vAcc>0.814708</vAcc></extensions></trkpt>
      <trkpt lon="-2.230668" lat="53.127947"><ele>128.844482</ele><time>2022-03-04T13:16:22Z</time><extensions><speed>0.545361</speed><course>112.643623</course><hAcc>1.724790</hAcc><vAcc>0.812087</vAcc></extensions></trkpt>
      <trkpt lon="-2.230664" lat="53.127946"><ele>128.798447</ele><time>2022-03-04T13:16:23Z</time><extensions><speed>0.190568</speed><course>134.914352</course><hAcc>1.763825</hAcc><vAcc>0.809555</vAcc></extensions></trkpt>
      <trkpt lon="-2.230663" lat="53.127944"><ele>128.759018</ele><time>2022-03-04T13:16:24Z</time><extensions><speed>0.208459</speed><course>177.029221</course><hAcc>1.741421</hAcc><vAcc>0.806937</vAcc></extensions></trkpt>
      <trkpt lon="-2.230663" lat="53.127942"><ele>128.697891</ele><time>2022-03-04T13:16:25Z</time><extensions><speed>0.338413</speed><course>199.283020</course><hAcc>1.725586</hAcc><vAcc>0.804314</vAcc></extensions></trkpt>
      <trkpt lon="-2.230666" lat="53.127938"><ele>128.632324</ele><time>2022-03-04T13:16:26Z</time><extensions><speed>0.515480</speed><course>208.832581</course><hAcc>1.737687</hAcc><vAcc>0.801790</vAcc></extensions></trkpt>
      <trkpt lon="-2.230671" lat="53.127934"><ele>128.571823</ele><time>2022-03-04T13:16:27Z</time><extensions><speed>0.705211</speed><course>212.280472</course><hAcc>1.769000</hAcc><vAcc>0.799536</vAcc></extensions></trkpt>
      <trkpt lon="-2.230677" lat="53.127927"><ele>128.507248</ele><time>2022-03-04T13:16:28Z</time><extensions><speed>0.914498</speed><course>213.076660</course><hAcc>1.800169</hAcc><vAcc>0.797723</vAcc></extensions></trkpt>
      <trkpt lon="-2.230686" lat="53.127920"><ele>128.442642</ele><time>2022-03-04T13:16:29Z</time><extensions><speed>1.183608</speed><course>212.938904</course><hAcc>1.815239</hAcc><vAcc>0.796536</vAcc></extensions></trkpt>
      <trkpt lon="-2.230697" lat="53.127909"><ele>128.399902</ele><time>2022-03-04T13:16:30Z</time><extensions><speed>1.514294</speed><course>212.854126</course><hAcc>1.816126</hAcc><vAcc>0.796127</vAcc></extensions></trkpt>
      <trkpt lon="-2.230711" lat="53.127897"><ele>128.364944</ele><time>2022-03-04T13:16:31Z</time><extensions><speed>1.708916</speed><course>216.844254</course><hAcc>1.811036</hAcc><vAcc>0.796563</vAcc></extensions></trkpt>
      <trkpt lon="-2.230728" lat="53.127885"><ele>128.336121</ele><time>2022-03-04T13:16:32Z</time><extensions><speed>1.779899</speed><course>223.229736</course><hAcc>1.801245</hAcc><vAcc>0.797855</vAcc></extensions></trkpt>
      <trkpt lon="-2.230746" lat="53.127874"><ele>128.306046</ele><time>2022-03-04T13:16:33Z</time><extensions><speed>1.697997</speed><course>226.434525</course><hAcc>1.788146</hAcc><vAcc>0.799893</vAcc></extensions></trkpt>
      <trkpt lon="-2.230765" lat="53.127864"><ele>128.274826</ele><time>2022-03-04T13:16:34Z</time><extensions><speed>1.699782</speed><course>227.412064</course><hAcc>1.769568</hAcc><vAcc>0.802426</vAcc></extensions></trkpt>
      <trkpt lon="-2.230783" lat="53.127854"><ele>128.266418</ele><time>2022-03-04T13:16:35Z</time><extensions><speed>1.578553</speed><course>228.747818</course><hAcc>1.751843</hAcc><vAcc>0.805217</vAcc></extensions></trkpt>
      <trkpt lon="-2.230801" lat="53.127845"><ele>128.257477</ele><time>2022-03-04T13:16:36Z</time><extensions><speed>1.508355</speed><course>230.329269</course><hAcc>1.733743</hAcc><vAcc>0.808097</vAcc></extensions></trkpt>
      <trkpt lon="-2.230818" lat="53.127837"><ele>128.255127</ele><time>2022-03-04T13:16:37Z</time><extensions><speed>1.443887</speed><course>232.040253</course><hAcc>1.721739</hAcc><vAcc>0.810890</vAcc></extensions></trkpt>
      <trkpt lon="-2.230835" lat="53.127829"><ele>128.267593</ele><time>2022-03-04T13:16:37Z</time><extensions><speed>1.391729</speed><course>232.266876</course><hAcc>1.713553</hAcc><vAcc>0.813479</vAcc></extensions></trkpt>
      <trkpt lon="-2.230850" lat="53.127821"><ele>128.275803</ele><time>2022-03-04T13:16:38Z</time><extensions><speed>1.309436</speed><course>230.810410</course><hAcc>1.711311</hAcc><vAcc>0.815785</vAcc></extensions></trkpt>
      <trkpt lon="-2.230865" lat="53.127813"><ele>128.270203</ele><time>2022-03-04T13:16:39Z</time><extensions><speed>1.311857</speed><course>228.102692</course><hAcc>1.707049</hAcc><vAcc>0.817780</vAcc></extensions></trkpt>
      <trkpt lon="-2.230880" lat="53.127805"><ele>128.256393</ele><time>2022-03-04T13:16:40Z</time><extensions><speed>1.381286</speed><course>226.364349</course><hAcc>1.704485</hAcc><vAcc>0.819488</vAcc></extensions></trkpt>
      <trkpt lon="-2.230895" lat="53.127796"><ele>128.257874</ele><time>2022-03-04T13:16:41Z</time><extensions><speed>1.435968</speed><course>224.521393</course><hAcc>1.700943</hAcc><vAcc>0.820926</vAcc></extensions></trkpt>
      <trkpt lon="-2.230910" lat="53.127786"><ele>128.263275</ele><time>2022-03-04T13:16:42Z</time><extensions><speed>1.448850</speed><course>220.789642</course><hAcc>1.695212</hAcc><vAcc>0.822108</vAcc></extensions></trkpt>
      <trkpt lon="-2.230923" lat="53.127776"><ele>128.272476</ele><time>2022-03-04T13:16:43Z</time><extensions><speed>1.438160</speed><course>214.865479</course><hAcc>1.681252</hAcc><vAcc>0.823064</vAcc></extensions></trkpt>
      <trkpt lon="-2.230934" lat="53.127765"><ele>128.278793</ele><time>2022-03-04T13:16:44Z</time><extensions><speed>1.408735</speed><course>209.538986</course><hAcc>1.664946</hAcc><vAcc>0.823877</vAcc></extensions></trkpt>
      <trkpt lon="-2.230943" lat="53.127754"><ele>128.296204</ele><time>2022-03-04T13:16:45Z</time><extensions><speed>1.357107</speed><course>203.001373</course><hAcc>1.655890</hAcc><vAcc>0.824548</vAcc></extensions></trkpt>
      <trkpt lon="-2.230950" lat="53.127743"><ele>128.316574</ele><time>2022-03-04T13:16:46Z</time><extensions><speed>1.296155</speed><course>198.208176</course><hAcc>1.656238</hAcc><vAcc>0.825106</vAcc></extensions></trkpt>
      <trkpt lon="-2.230956" lat="53.127732"><ele>128.327774</ele><time>2022-03-04T13:16:47Z</time><extensions><speed>1.152620</speed><course>197.872269</course><hAcc>1.667700</hAcc><vAcc>0.825553</vAcc></extensions></trkpt>
      <trkpt lon="-2.230962" lat="53.127722"><ele>128.336914</ele><time>2022-03-04T13:16:48Z</time><extensions><speed>1.186932</speed><course>198.815750</course><hAcc>1.650016</hAcc><vAcc>0.825939</vAcc></extensions></trkpt>
      <trkpt lon="-2.230968" lat="53.127711"><ele>128.359467</ele><time>2022-03-04T13:16:49Z</time><extensions><speed>1.287599</speed><course>202.575943</course><hAcc>1.631210</hAcc><vAcc>0.826246</vAcc></extensions></trkpt>
      <trkpt lon="-2.230977" lat="53.127700"><ele>128.382095</ele><time>2022-03-04T13:16:50Z</time><extensions><speed>1.375834</speed><course>205.440247</course><hAcc>1.624359</hAcc><vAcc>0.826500</vAcc></extensions></trkpt>
      <trkpt lon="-2.230986" lat="53.127689"><ele>128.399414</ele><time>2022-03-04T13:16:51Z</time><extensions><speed>1.483950</speed><course>205.751465</course><hAcc>1.621301</hAcc><vAcc>0.826731</vAcc></extensions></trkpt>
      <trkpt lon="-2.230996" lat="53.127677"><ele>128.409348</ele><time>2022-03-04T13:16:52Z</time><extensions><speed>1.517778</speed><course>206.327011</course><hAcc>1.605659</hAcc><vAcc>0.826924</vAcc></extensions></trkpt>
      <trkpt lon="-2.231006" lat="53.127664"><ele>128.411606</ele><time>2022-03-04T13:16:53Z</time><extensions><speed>1.480469</speed><course>204.682404</course><hAcc>1.574475</hAcc><vAcc>0.827118</vAcc></extensions></trkpt>
      <trkpt lon="-2.231015" lat="53.127653"><ele>128.409912</ele><time>2022-03-04T13:16:54Z</time><extensions><speed>1.349759</speed><course>204.450119</course><hAcc>1.555254</hAcc><vAcc>0.827275</vAcc></extensions></trkpt>
      <trkpt lon="-2.231023" lat="53.127642"><ele>128.410492</ele><time>2022-03-04T13:16:55Z</time><extensions><speed>1.156655</speed><course>205.339188</course><hAcc>1.573678</hAcc><vAcc>0.827414</vAcc></extensions></trkpt>
      <trkpt lon="-2.231031" lat="53.127633"><ele>128.406143</ele><time>2022-03-04T13:16:56Z</time><extensions><speed>1.147449</speed><course>205.641190</course><hAcc>1.585533</hAcc><vAcc>0.827542</vAcc></extensions></trkpt>
      <trkpt lon="-2.231039" lat="53.127623"><ele>128.399384</ele><time>2022-03-04T13:16:57Z</time><extensions><speed>1.240431</speed><course>206.648346</course><hAcc>1.548752</hAcc><vAcc>0.827627</vAcc></extensions></trkpt>
      <trkpt lon="-2.231047" lat="53.127613"><ele>128.387573</ele><time>2022-03-04T13:16:58Z</time><extensions><speed>1.194607</speed><course>205.867065</course><hAcc>1.572877</hAcc><vAcc>0.827712</vAcc></extensions></trkpt>
      <trkpt lon="-2.231056" lat="53.127604"><ele>128.376312</ele><time>2022-03-04T13:16:59Z</time><extensions><speed>1.313873</speed><course>211.782608</course><hAcc>1.536795</hAcc><vAcc>0.827809</vAcc></extensions></trkpt>
      <trkpt lon="-2.231067" lat="53.127594"><ele>128.374542</ele><time>2022-03-04T13:17:00Z</time><extensions><speed>1.365392</speed><course>215.273743</course><hAcc>1.545976</hAcc><vAcc>0.827892</vAcc></extensions></trkpt>
      <trkpt lon="-2.231079" lat="53.127584"><ele>128.386246</ele><time>2022-03-04T13:17:01Z</time><extensions><speed>1.281039</speed><course>218.737885</course><hAcc>1.592556</hAcc><vAcc>0.828020</vAcc></extensions></trkpt>
      <trkpt lon="-2.231091" lat="53.127576"><ele>128.388672</ele><time>2022-03-04T13:17:02Z</time><extensions><speed>1.140597</speed><course>220.345062</course><hAcc>1.606868</hAcc><vAcc>0.828128</vAcc></extensions></trkpt>
      <trkpt lon="-2.231102" lat="53.127568"><ele>128.386475</ele><time>2022-03-04T13:17:03Z</time><extensions><speed>1.197395</speed><course>221.082214</course><hAcc>1.599033</hAcc><vAcc>0.828233</vAcc></extensions></trkpt>
      <trkpt lon="-2.231114" lat="53.127559"><ele>128.388885</ele><time>2022-03-04T13:17:04Z</time><extensions><speed>1.277203</speed><course>221.210464</course><hAcc>1.610392</hAcc><vAcc>0.828340</vAcc></extensions></trkpt>
      <trkpt lon="-2.231127" lat="53.127551"><ele>128.385712</ele><time>2022-03-04T13:17:05Z</time><extensions><speed>1.295261</speed><course>221.264511</course><hAcc>1.631971</hAcc><vAcc>0.828434</vAcc></extensions></trkpt>
      <trkpt lon="-2.231140" lat="53.127542"><ele>128.383499</ele><time>2022-03-04T13:17:06Z</time><extensions><speed>1.287045</speed><course>221.318909</course><hAcc>1.649917</hAcc><vAcc>0.828508</vAcc></extensions></trkpt>
      <trkpt lon="-2.231153" lat="53.127534"><ele>128.377029</ele><time>2022-03-04T13:17:07Z</time><extensions><speed>1.245947</speed><course>225.068146</course><hAcc>1.649132</hAcc><vAcc>0.828572</vAcc></extensions></trkpt>
      <trkpt lon="-2.231166" lat="53.127526"><ele>128.353989</ele><time>2022-03-04T13:17:08Z</time><extensions><speed>1.177443</speed><course>228.263458</course><hAcc>1.656958</hAcc><vAcc>0.828621</vAcc></extensions></trkpt>
      <trkpt lon="-2.231180" lat="53.127519"><ele>128.342300</ele><time>2022-03-04T13:17:09Z</time><extensions><speed>1.163067</speed><course>231.454102</course><hAcc>1.669557</hAcc><vAcc>0.828642</vAcc></extensions></trkpt>
      <trkpt lon="-2.231193" lat="53.127513"><ele>128.340469</ele><time>2022-03-04T13:17:10Z</time><extensions><speed>1.139906</speed><course>235.350998</course><hAcc>1.674872</hAcc><vAcc>0.828660</vAcc></extensions></trkpt>
      <trkpt lon="-2.231208" lat="53.127507"><ele>128.329224</ele><time>2022-03-04T13:17:11Z</time><extensions><speed>1.162274</speed><course>239.305481</course><hAcc>1.679738</hAcc><vAcc>0.828643</vAcc></extensions></trkpt>
      <trkpt lon="-2.231222" lat="53.127502"><ele>128.323929</ele><time>2022-03-04T13:17:12Z</time><extensions><speed>1.064898</speed><course>243.302979</course><hAcc>1.690915</hAcc><vAcc>0.828606</vAcc></extensions></trkpt>
      <trkpt lon="-2.231236" lat="53.127498"><ele>128.322800</ele><time>2022-03-04T13:17:13Z</time><extensions><speed>0.971686</speed><course>241.731659</course><hAcc>1.689021</hAcc><vAcc>0.828549</vAcc></extensions></trkpt>
      <trkpt lon="-2.231248" lat="53.127494"><ele>128.314484</ele><time>2022-03-04T13:17:14Z</time><extensions><speed>0.919943</speed><course>233.737564</course><hAcc>1.689680</hAcc><vAcc>0.828470</vAcc></extensions></trkpt>
      <trkpt lon="-2.231259" lat="53.127488"><ele>128.297043</ele><time>2022-03-04T13:17:15Z</time><extensions><speed>0.932399</speed><course>224.521469</course><hAcc>1.689264</hAcc><vAcc>0.828369</vAcc></extensions></trkpt>
      <trkpt lon="-2.231268" lat="53.127481"><ele>128.272797</ele><time>2022-03-04T13:17:16Z</time><extensions><speed>1.019223</speed><course>216.781052</course><hAcc>1.690189</hAcc><vAcc>0.828256</vAcc></extensions></trkpt>
      <trkpt lon="-2.231277" lat="53.127473"><ele>128.254333</ele><time>2022-03-04T13:17:17Z</time><extensions><speed>1.102354</speed><course>208.998642</course><hAcc>1.692404</hAcc><vAcc>0.828153</vAcc></extensions></trkpt>
      <trkpt lon="-2.231284" lat="53.127464"><ele>128.237549</ele><time>2022-03-04T13:17:18Z</time><extensions><speed>1.109896</speed><course>201.700089</course><hAcc>1.695411</hAcc><vAcc>0.828082</vAcc></extensions></trkpt>
      <trkpt lon="-2.231290" lat="53.127455"><ele>128.230774</ele><time>2022-03-04T13:17:19Z</time><extensions><speed>1.178571</speed><course>199.817902</course><hAcc>1.692875</hAcc><vAcc>0.828020</vAcc></extensions></trkpt>
      <trkpt lon="-2.231296" lat="53.127445"><ele>128.226013</ele><time>2022-03-04T13:17:20Z</time><extensions><speed>1.092455</speed><course>202.325134</course><hAcc>1.694902</hAcc><vAcc>0.827979</vAcc></extensions></trkpt>
      <trkpt lon="-2.231303" lat="53.127437"><ele>128.208908</ele><time>2022-03-04T13:17:21Z</time><extensions><speed>1.043897</speed><course>209.422760</course><hAcc>1.698051</hAcc><vAcc>0.827963</vAcc></extensions></trkpt>
      <trkpt lon="-2.231312" lat="53.127429"><ele>128.198288</ele><time>2022-03-04T13:17:22Z</time><extensions><speed>1.062527</speed><course>216.363419</course><hAcc>1.697190</hAcc><vAcc>0.827963</vAcc></extensions></trkpt>
      <trkpt lon="-2.231322" lat="53.127421"><ele>128.183975</ele><time>2022-03-04T13:17:23Z</time><extensions><speed>1.063426</speed><course>221.272949</course><hAcc>1.695351</hAcc><vAcc>0.827973</vAcc></extensions></trkpt>
      <trkpt lon="-2.231333" lat="53.127414"><ele>128.170441</ele><time>2022-03-04T13:17:24Z</time><extensions><speed>1.049337</speed><course>222.628387</course><hAcc>1.709370</hAcc><vAcc>0.827997</vAcc></extensions></trkpt>
      <trkpt lon="-2.231344" lat="53.127407"><ele>128.145111</ele><time>2022-03-04T13:17:25Z</time><extensions><speed>1.076666</speed><course>224.514877</course><hAcc>1.713826</hAcc><vAcc>0.828056</vAcc></extensions></trkpt>
      <trkpt lon="-2.231356" lat="53.127400"><ele>128.121353</ele><time>2022-03-04T13:17:26Z</time><extensions><speed>1.073500</speed><course>228.513962</course><hAcc>1.707554</hAcc><vAcc>0.828122</vAcc></extensions></trkpt>
      <trkpt lon="-2.231368" lat="53.127394"><ele>128.109894</ele><time>2022-03-04T13:17:27Z</time><extensions><speed>1.115648</speed><course>230.508270</course><hAcc>1.705557</hAcc><vAcc>0.828198</vAcc></extensions></trkpt>
      <trkpt lon="-2.231381" lat="53.127388"><ele>128.091507</ele><time>2022-03-04T13:17:28Z</time><extensions><speed>1.077261</speed><course>229.559509</course><hAcc>1.702853</hAcc><vAcc>0.828249</vAcc></extensions></trkpt>
      <trkpt lon="-2.231393" lat="53.127381"><ele>128.058624</ele><time>2022-03-04T13:17:29Z</time><extensions><speed>0.997610</speed><course>226.795959</course><hAcc>1.710020</hAcc><vAcc>0.828307</vAcc></extensions></trkpt>
      <trkpt lon="-2.231405" lat="53.127374"><ele>128.020325</ele><time>2022-03-04T13:17:30Z</time><extensions><speed>1.272745</speed><course>223.618195</course><hAcc>1.706437</hAcc><vAcc>0.828326</vAcc></extensions></trkpt>
      <trkpt lon="-2.231419" lat="53.127365"><ele>127.993980</ele><time>2022-03-04T13:17:31Z</time><extensions><speed>1.401959</speed><course>224.236359</course><hAcc>1.705538</hAcc><vAcc>0.828317</vAcc></extensions></trkpt>
      <trkpt lon="-2.231434" lat="53.127356"><ele>127.960304</ele><time>2022-03-04T13:17:32Z</time><extensions><speed>1.433351</speed><course>227.780396</course><hAcc>1.702855</hAcc><vAcc>0.828293</vAcc></extensions></trkpt>
      <trkpt lon="-2.231450" lat="53.127348"><ele>127.919327</ele><time>2022-03-04T13:17:33Z</time><extensions><speed>1.323827</speed><course>233.724930</course><hAcc>1.699771</hAcc><vAcc>0.828252</vAcc></extensions></trkpt>
      <trkpt lon="-2.231466" lat="53.127341"><ele>127.881546</ele><time>2022-03-04T13:17:34Z</time><extensions><speed>1.338712</speed><course>235.150146</course><hAcc>1.697251</hAcc><vAcc>0.828218</vAcc></extensions></trkpt>
      <trkpt lon="-2.231483" lat="53.127335"><ele>127.865395</ele><time>2022-03-04T13:17:35Z</time><extensions><speed>1.311005</speed><course>235.461182</course><hAcc>1.695194</hAcc><vAcc>0.828149</vAcc></extensions></trkpt>
      <trkpt lon="-2.231499" lat="53.127328"><ele>127.846069</ele><time>2022-03-04T13:17:36Z</time><extensions><speed>1.359150</speed><course>232.846237</course><hAcc>1.694003</hAcc><vAcc>0.828059</vAcc></extensions></trkpt>
      <trkpt lon="-2.231515" lat="53.127320"><ele>127.825005</ele><time>2022-03-04T13:17:37Z</time><extensions><speed>1.398676</speed><course>230.253372</course><hAcc>1.692915</hAcc><vAcc>0.827944</vAcc></extensions></trkpt>
      <trkpt lon="-2.231531" lat="53.127312"><ele>127.818680</ele><time>2022-03-04T13:17:38Z</time><extensions><speed>1.367128</speed><course>227.484482</course><hAcc>1.696726</hAcc><vAcc>0.827818</vAcc></extensions></trkpt>
      <trkpt lon="-2.231545" lat="53.127303"><ele>127.814598</ele><time>2022-03-04T13:17:39Z</time><extensions><speed>1.337397</speed><course>225.626816</course><hAcc>1.700794</hAcc><vAcc>0.827705</vAcc></extensions></trkpt>
      <trkpt lon="-2.231560" lat="53.127295"><ele>127.813614</ele><time>2022-03-04T13:17:40Z</time><extensions><speed>1.412311</speed><course>225.904114</course><hAcc>1.695361</hAcc><vAcc>0.827599</vAcc></extensions></trkpt>
      <trkpt lon="-2.231576" lat="53.127286"><ele>127.811111</ele><time>2022-03-04T13:17:41Z</time><extensions><speed>1.493774</speed><course>228.458649</course><hAcc>1.691215</hAcc><vAcc>0.827488</vAcc></extensions></trkpt>
      <trkpt lon="-2.231593" lat="53.127277"><ele>127.826393</ele><time>2022-03-04T13:17:42Z</time><extensions><speed>1.385879</speed><course>230.795059</course><hAcc>1.691338</hAcc><vAcc>0.827379</vAcc></extensions></trkpt>
      <trkpt lon="-2.231609" lat="53.127270"><ele>127.840775</ele><time>2022-03-04T13:17:43Z</time><extensions><speed>1.323985</speed><course>231.892059</course><hAcc>1.693738</hAcc><vAcc>0.827296</vAcc></extensions></trkpt>
      <trkpt lon="-2.231624" lat="53.127262"><ele>127.877457</ele><time>2022-03-04T13:17:44Z</time><extensions><speed>1.359677</speed><course>231.209351</course><hAcc>1.695854</hAcc><vAcc>0.827251</vAcc></extensions></trkpt>
      <trkpt lon="-2.231640" lat="53.127255"><ele>127.897232</ele><time>2022-03-04T13:17:45Z</time><extensions><speed>1.311865</speed><course>229.322998</course><hAcc>1.694824</hAcc><vAcc>0.827210</vAcc></extensions></trkpt>
      <trkpt lon="-2.231654" lat="53.127247"><ele>127.924850</ele><time>2022-03-04T13:17:46Z</time><extensions><speed>1.270154</speed><course>226.985947</course><hAcc>1.695027</hAcc><vAcc>0.827204</vAcc></extensions></trkpt>
      <trkpt lon="-2.231668" lat="53.127239"><ele>127.960869</ele><time>2022-03-04T13:17:47Z</time><extensions><speed>1.265394</speed><course>226.302856</course><hAcc>1.693766</hAcc><vAcc>0.827227</vAcc></extensions></trkpt>
      <trkpt lon="-2.231682" lat="53.127231"><ele>128.003372</ele><time>2022-03-04T13:17:48Z</time><extensions><speed>1.237210</speed><course>225.633377</course><hAcc>1.692019</hAcc><vAcc>0.827274</vAcc></extensions></trkpt>
      <trkpt lon="-2.231695" lat="53.127223"><ele>128.046448</ele><time>2022-03-04T13:17:50Z</time><extensions><speed>1.185629</speed><course>226.161270</course><hAcc>1.691639</hAcc><vAcc>0.827351</vAcc></extensions></trkpt>
      <trkpt lon="-2.231707" lat="53.127216"><ele>128.101761</ele><time>2022-03-04T13:17:51Z</time><extensions><speed>1.101308</speed><course>225.728333</course><hAcc>1.695818</hAcc><vAcc>0.827447</vAcc></extensions></trkpt>
      <trkpt lon="-2.231719" lat="53.127209"><ele>128.174103</ele><time>2022-03-04T13:17:52Z</time><extensions><speed>1.037270</speed><course>225.371033</course><hAcc>1.692432</hAcc><vAcc>0.827580</vAcc></extensions></trkpt>
      <trkpt lon="-2.231730" lat="53.127202"><ele>128.214630</ele><time>2022-03-04T13:17:53Z</time><extensions><speed>1.169108</speed><course>224.830460</course><hAcc>1.683877</hAcc><vAcc>0.827711</vAcc></extensions></trkpt>
      <trkpt lon="-2.231743" lat="53.127195"><ele>128.247375</ele><time>2022-03-04T13:17:54Z</time><extensions><speed>1.244947</speed><course>224.702332</course><hAcc>1.683681</hAcc><vAcc>0.827848</vAcc></extensions></trkpt>
      <trkpt lon="-2.231756" lat="53.127187"><ele>128.285034</ele><time>2022-03-04T13:17:55Z</time><extensions><speed>1.238334</speed><course>223.226868</course><hAcc>1.684305</hAcc><vAcc>0.827971</vAcc></extensions></trkpt>
      <trkpt lon="-2.231769" lat="53.127178"><ele>128.327499</ele><time>2022-03-04T13:17:56Z</time><extensions><speed>1.285896</speed><course>222.876724</course><hAcc>1.681490</hAcc><vAcc>0.828092</vAcc></extensions></trkpt>
      <trkpt lon="-2.231782" lat="53.127170"><ele>128.367340</ele><time>2022-03-04T13:17:57Z</time><extensions><speed>1.324970</speed><course>223.107391</course><hAcc>1.675662</hAcc><vAcc>0.828204</vAcc></extensions></trkpt>
      <trkpt lon="-2.231796" lat="53.127161"><ele>128.433533</ele><time>2022-03-04T13:17:58Z</time><extensions><speed>1.359952</speed><course>223.107681</course><hAcc>1.669188</hAcc><vAcc>0.828311</vAcc></extensions></trkpt>
      <trkpt lon="-2.231810" lat="53.127152"><ele>128.484680</ele><time>2022-03-04T13:17:59Z</time><extensions><speed>1.375997</speed><course>222.331757</course><hAcc>1.669443</hAcc><vAcc>0.828407</vAcc></extensions></trkpt>
      <trkpt lon="-2.231824" lat="53.127143"><ele>128.553940</ele><time>2022-03-04T13:18:00Z</time><extensions><speed>1.332126</speed><course>222.076233</course><hAcc>1.679866</hAcc><vAcc>0.828516</vAcc></extensions></trkpt>
      <trkpt lon="-2.231837" lat="53.127134"><ele>128.606949</ele><time>2022-03-04T13:18:01Z</time><extensions><speed>1.371277</speed><course>221.452499</course><hAcc>1.666463</hAcc><vAcc>0.828594</vAcc></extensions></trkpt>
      <trkpt lon="-2.231851" lat="53.127124"><ele>128.651703</ele><time>2022-03-04T13:18:02Z</time><extensions><speed>1.327506</speed><course>220.685715</course><hAcc>1.662327</hAcc><vAcc>0.828665</vAcc></extensions></trkpt>
      <trkpt lon="-2.231863" lat="53.127115"><ele>128.687500</ele><time>2022-03-04T13:18:03Z</time><extensions><speed>1.231485</speed><course>219.332840</course><hAcc>1.671538</hAcc><vAcc>0.828746</vAcc></extensions></trkpt>
      <trkpt lon="-2.231874" lat="53.127107"><ele>128.719147</ele><time>2022-03-04T13:18:04Z</time><extensions><speed>1.137265</speed><course>218.837952</course><hAcc>1.679952</hAcc><vAcc>0.828799</vAcc></extensions></trkpt>
      <trkpt lon="-2.231886" lat="53.127099"><ele>128.750473</ele><time>2022-03-04T13:18:05Z</time><extensions><speed>1.240821</speed><course>221.809158</course><hAcc>1.678889</hAcc><vAcc>0.828830</vAcc></extensions></trkpt>
      <trkpt lon="-2.231899" lat="53.127091"><ele>128.772064</ele><time>2022-03-04T13:18:06Z</time><extensions><speed>1.259714</speed><course>224.003052</course><hAcc>1.674651</hAcc><vAcc>0.828851</vAcc></extensions></trkpt>
      <trkpt lon="-2.231912" lat="53.127082"><ele>128.787369</ele><time>2022-03-04T13:18:07Z</time><extensions><speed>1.314656</speed><course>225.036636</course><hAcc>1.671863</hAcc><vAcc>0.828871</vAcc></extensions></trkpt>
      <trkpt lon="-2.231927" lat="53.127074"><ele>128.785263</ele><time>2022-03-04T13:18:08Z</time><extensions><speed>1.355473</speed><course>227.002151</course><hAcc>1.668888</hAcc><vAcc>0.828886</vAcc></extensions></trkpt>
      <trkpt lon="-2.231941" lat="53.127066"><ele>128.786224</ele><time>2022-03-04T13:18:09Z</time><extensions><speed>1.208949</speed><course>226.650909</course><hAcc>1.667167</hAcc><vAcc>0.828892</vAcc></extensions></trkpt>
      <trkpt lon="-2.231953" lat="53.127059"><ele>128.804581</ele><time>2022-03-04T13:18:10Z</time><extensions><speed>1.132517</speed><course>223.283188</course><hAcc>1.672869</hAcc><vAcc>0.828878</vAcc></extensions></trkpt>
      <trkpt lon="-2.231965" lat="53.127051"><ele>128.821930</ele><time>2022-03-04T13:18:11Z</time><extensions><speed>1.151188</speed><course>221.305649</course><hAcc>1.677872</hAcc><vAcc>0.828846</vAcc></extensions></trkpt>
      <trkpt lon="-2.231976" lat="53.127043"><ele>128.825333</ele><time>2022-03-04T13:18:12Z</time><extensions><speed>1.159274</speed><course>219.602951</course><hAcc>1.667627</hAcc><vAcc>0.828809</vAcc></extensions></trkpt>
      <trkpt lon="-2.231987" lat="53.127035"><ele>128.817841</ele><time>2022-03-04T13:18:13Z</time><extensions><speed>1.152187</speed><course>220.815125</course><hAcc>1.666812</hAcc><vAcc>0.828744</vAcc></extensions></trkpt>
      <trkpt lon="-2.231998" lat="53.127027"><ele>128.815674</ele><time>2022-03-04T13:18:14Z</time><extensions><speed>1.189425</speed><course>218.778091</course><hAcc>1.664909</hAcc><vAcc>0.828663</vAcc></extensions></trkpt>
      <trkpt lon="-2.232010" lat="53.127018"><ele>128.800369</ele><time>2022-03-04T13:18:15Z</time><extensions><speed>1.267980</speed><course>216.669739</course><hAcc>1.671380</hAcc><vAcc>0.828550</vAcc></extensions></trkpt>
      <trkpt lon="-2.232021" lat="53.127009"><ele>128.780472</ele><time>2022-03-04T13:18:16Z</time><extensions><speed>1.284296</speed><course>216.927673</course><hAcc>1.675835</hAcc><vAcc>0.828431</vAcc></extensions></trkpt>
      <trkpt lon="-2.232033" lat="53.127000"><ele>128.767700</ele><time>2022-03-04T13:18:17Z</time><extensions><speed>1.324362</speed><course>218.301422</course><hAcc>1.680276</hAcc><vAcc>0.828296</vAcc></extensions></trkpt>
      <trkpt lon="-2.232045" lat="53.126991"><ele>128.747147</ele><time>2022-03-04T13:18:18Z</time><extensions><speed>1.287334</speed><course>219.889404</course><hAcc>1.685040</hAcc><vAcc>0.828178</vAcc></extensions></trkpt>
      <trkpt lon="-2.232058" lat="53.126982"><ele>128.741776</ele><time>2022-03-04T13:18:19Z</time><extensions><speed>1.240417</speed><course>220.566803</course><hAcc>1.683393</hAcc><vAcc>0.828086</vAcc></extensions></trkpt>
      <trkpt lon="-2.232070" lat="53.126974"><ele>128.727371</ele><time>2022-03-04T13:18:20Z</time><extensions><speed>1.220428</speed><course>221.770157</course><hAcc>1.675563</hAcc><vAcc>0.828008</vAcc></extensions></trkpt>
      <trkpt lon="-2.232082" lat="53.126965"><ele>128.708328</ele><time>2022-03-04T13:18:21Z</time><extensions><speed>1.240532</speed><course>222.408981</course><hAcc>1.667070</hAcc><vAcc>0.827946</vAcc></extensions></trkpt>
      <trkpt lon="-2.232095" lat="53.126957"><ele>128.697388</ele><time>2022-03-04T13:18:22Z</time><extensions><speed>1.189000</speed><course>222.801544</course><hAcc>1.668824</hAcc><vAcc>0.827923</vAcc></extensions></trkpt>
      <trkpt lon="-2.232106" lat="53.126950"><ele>128.703491</ele><time>2022-03-04T13:18:23Z</time><extensions><speed>1.067976</speed><course>222.229858</course><hAcc>1.678619</hAcc><vAcc>0.827891</vAcc></extensions></trkpt>
      <trkpt lon="-2.232116" lat="53.126943"><ele>128.697601</ele><time>2022-03-04T13:18:24Z</time><extensions><speed>1.032061</speed><course>220.874161</course><hAcc>1.697402</hAcc><vAcc>0.827832</vAcc></extensions></trkpt>
      <trkpt lon="-2.232127" lat="53.126935"><ele>128.695312</ele><time>2022-03-04T13:18:25Z</time><extensions><speed>1.132147</speed><course>221.997665</course><hAcc>1.678499</hAcc><vAcc>0.827761</vAcc></extensions></trkpt>
      <trkpt lon="-2.232139" lat="53.126927"><ele>128.716217</ele><time>2022-03-04T13:18:26Z</time><extensions><speed>1.226899</speed><course>223.549759</course><hAcc>1.672886</hAcc><vAcc>0.827685</vAcc></extensions></trkpt>
      <trkpt lon="-2.232152" lat="53.126919"><ele>128.725464</ele><time>2022-03-04T13:18:27Z</time><extensions><speed>1.250634</speed><course>225.506012</course><hAcc>1.679839</hAcc><vAcc>0.827579</vAcc></extensions></trkpt>
      <trkpt lon="-2.232165" lat="53.126912"><ele>128.751190</ele><time>2022-03-04T13:18:28Z</time><extensions><speed>1.169600</speed><course>226.088120</course><hAcc>1.686880</hAcc><vAcc>0.827433</vAcc></extensions></trkpt>
      <trkpt lon="-2.232177" lat="53.126905"><ele>128.780228</ele><time>2022-03-04T13:18:29Z</time><extensions><speed>1.027216</speed><course>224.285767</course><hAcc>1.688966</hAcc><vAcc>0.827221</vAcc></extensions></trkpt>
      <trkpt lon="-2.232187" lat="53.126898"><ele>128.809219</ele><time>2022-03-04T13:18:30Z</time><extensions><speed>1.002974</speed><course>221.936707</course><hAcc>1.700176</hAcc><vAcc>0.826948</vAcc></extensions></trkpt>
      <trkpt lon="-2.232198" lat="53.126891"><ele>128.835495</ele><time>2022-03-04T13:18:31Z</time><extensions><speed>1.043328</speed><course>220.409882</course><hAcc>1.697266</hAcc><vAcc>0.826607</vAcc></extensions></trkpt>
      <trkpt lon="-2.232208" lat="53.126884"><ele>128.865356</ele><time>2022-03-04T13:18:32Z</time><extensions><speed>1.063432</speed><course>220.222504</course><hAcc>1.688452</hAcc><vAcc>0.826147</vAcc></extensions></trkpt>
      <trkpt lon="-2.232218" lat="53.126876"><ele>128.886337</ele><time>2022-03-04T13:18:33Z</time><extensions><speed>1.041846</speed><course>220.063812</course><hAcc>1.676651</hAcc><vAcc>0.825665</vAcc></extensions></trkpt>
      <trkpt lon="-2.232228" lat="53.126869"><ele>128.900818</ele><time>2022-03-04T13:18:34Z</time><extensions><speed>1.027245</speed><course>219.586014</course><hAcc>1.663917</hAcc><vAcc>0.825136</vAcc></extensions></trkpt>
      <trkpt lon="-2.232238" lat="53.126862"><ele>128.908875</ele><time>2022-03-04T13:18:35Z</time><extensions><speed>1.095197</speed><course>219.006256</course><hAcc>1.681015</hAcc><vAcc>0.824564</vAcc></extensions></trkpt>
      <trkpt lon="-2.232249" lat="53.126854"><ele>128.928940</ele><time>2022-03-04T13:18:36Z</time><extensions><speed>1.089418</speed><course>218.380234</course><hAcc>1.699037</hAcc><vAcc>0.823976</vAcc></extensions></trkpt>
      <trkpt lon="-2.232259" lat="53.126845"><ele>128.930527</ele><time>2022-03-04T13:18:37Z</time><extensions><speed>1.309181</speed><course>214.989807</course><hAcc>1.674393</hAcc><vAcc>0.823393</vAcc></extensions></trkpt>
      <trkpt lon="-2.232271" lat="53.126835"><ele>128.924911</ele><time>2022-03-04T13:18:38Z</time><extensions><speed>1.409442</speed><course>214.351852</course><hAcc>1.659217</hAcc><vAcc>0.822824</vAcc></extensions></trkpt>
      <trkpt lon="-2.232282" lat="53.126825"><ele>128.915085</ele><time>2022-03-04T13:18:39Z</time><extensions><speed>1.293675</speed><course>214.713486</course><hAcc>1.659644</hAcc><vAcc>0.822291</vAcc></extensions></trkpt>
      <trkpt lon="-2.232293" lat="53.126816"><ele>128.909760</ele><time>2022-03-04T13:18:40Z</time><extensions><speed>1.114037</speed><course>216.323166</course><hAcc>1.679753</hAcc><vAcc>0.821812</vAcc></extensions></trkpt>
      <trkpt lon="-2.232302" lat="53.126809"><ele>128.889053</ele><time>2022-03-04T13:18:41Z</time><extensions><speed>0.829200</speed><course>214.849472</course><hAcc>1.691534</hAcc><vAcc>0.821405</vAcc></extensions></trkpt>
      <trkpt lon="-2.232310" lat="53.126801"><ele>128.866547</ele><time>2022-03-04T13:18:41Z</time><extensions><speed>1.159118</speed><course>215.160583</course><hAcc>1.663467</hAcc><vAcc>0.821144</vAcc></extensions></trkpt>
      <trkpt lon="-2.232321" lat="53.126792"><ele>128.825378</ele><time>2022-03-04T13:18:42Z</time><extensions><speed>1.284997</speed><course>214.749557</course><hAcc>1.669973</hAcc><vAcc>0.820899</vAcc></extensions></trkpt>
      <trkpt lon="-2.232332" lat="53.126782"><ele>128.813400</ele><time>2022-03-04T13:18:43Z</time><extensions><speed>1.398988</speed><course>213.943329</course><hAcc>1.654569</hAcc><vAcc>0.820723</vAcc></extensions></trkpt>
      <trkpt lon="-2.232344" lat="53.126771"><ele>128.775177</ele><time>2022-03-04T13:18:44Z</time><extensions><speed>1.396420</speed><course>214.387650</course><hAcc>1.642194</hAcc><vAcc>0.820633</vAcc></extensions></trkpt>
      <trkpt lon="-2.232356" lat="53.126761"><ele>128.736053</ele><time>2022-03-04T13:18:45Z</time><extensions><speed>1.326028</speed><course>214.831619</course><hAcc>1.657782</hAcc><vAcc>0.820602</vAcc></extensions></trkpt>
      <trkpt lon="-2.232367" lat="53.126752"><ele>128.714600</ele><time>2022-03-04T13:18:46Z</time><extensions><speed>1.225726</speed><course>214.969681</course><hAcc>1.683974</hAcc><vAcc>0.820616</vAcc></extensions></trkpt>
      <trkpt lon="-2.232378" lat="53.126742"><ele>128.686035</ele><time>2022-03-04T13:18:47Z</time><extensions><speed>1.329049</speed><course>214.695541</course><hAcc>1.641390</hAcc><vAcc>0.820692</vAcc></extensions></trkpt>
      <trkpt lon="-2.232390" lat="53.126732"><ele>128.655853</ele><time>2022-03-04T13:18:48Z</time><extensions><speed>1.337529</speed><course>216.128799</course><hAcc>1.630702</hAcc><vAcc>0.820804</vAcc></extensions></trkpt>
      <trkpt lon="-2.232402" lat="53.126723"><ele>128.624252</ele><time>2022-03-04T13:18:49Z</time><extensions><speed>1.335533</speed><course>217.965561</course><hAcc>1.654321</hAcc><vAcc>0.820921</vAcc></extensions></trkpt>
      <trkpt lon="-2.232414" lat="53.126713"><ele>128.589249</ele><time>2022-03-04T13:18:50Z</time><extensions><speed>1.332869</speed><course>218.791443</course><hAcc>1.668590</hAcc><vAcc>0.821000</vAcc></extensions></trkpt>
      <trkpt lon="-2.232426" lat="53.126704"><ele>128.558746</ele><time>2022-03-04T13:18:51Z</time><extensions><speed>1.261017</speed><course>218.312363</course><hAcc>1.694050</hAcc><vAcc>0.821083</vAcc></extensions></trkpt>
      <trkpt lon="-2.232439" lat="53.126695"><ele>128.539948</ele><time>2022-03-04T13:18:52Z</time><extensions><speed>1.478444</speed><course>218.194855</course><hAcc>1.679116</hAcc><vAcc>0.821175</vAcc></extensions></trkpt>
      <trkpt lon="-2.232453" lat="53.126684"><ele>128.519226</ele><time>2022-03-04T13:18:53Z</time><extensions><speed>1.534109</speed><course>219.303970</course><hAcc>1.682352</hAcc><vAcc>0.821285</vAcc></extensions></trkpt>
      <trkpt lon="-2.232468" lat="53.126673"><ele>128.488068</ele><time>2022-03-04T13:18:54Z</time><extensions><speed>1.569539</speed><course>218.838181</course><hAcc>1.696217</hAcc><vAcc>0.821419</vAcc></extensions></trkpt>
      <trkpt lon="-2.232483" lat="53.126662"><ele>128.477402</ele><time>2022-03-04T13:18:55Z</time><extensions><speed>1.590935</speed><course>218.981781</course><hAcc>1.709558</hAcc><vAcc>0.821562</vAcc></extensions></trkpt>
      <trkpt lon="-2.232498" lat="53.126651"><ele>128.458588</ele><time>2022-03-04T13:18:56Z</time><extensions><speed>1.580249</speed><course>220.619415</course><hAcc>1.721797</hAcc><vAcc>0.821701</vAcc></extensions></trkpt>
      <trkpt lon="-2.232513" lat="53.126640"><ele>128.433197</ele><time>2022-03-04T13:18:57Z</time><extensions><speed>1.547047</speed><course>221.196442</course><hAcc>1.736227</hAcc><vAcc>0.821898</vAcc></extensions></trkpt>
      <trkpt lon="-2.232527" lat="53.126630"><ele>128.413132</ele><time>2022-03-04T13:18:58Z</time><extensions><speed>1.318675</speed><course>220.236801</course><hAcc>1.731015</hAcc><vAcc>0.822113</vAcc></extensions></trkpt>
      <trkpt lon="-2.232539" lat="53.126622"><ele>128.385025</ele><time>2022-03-04T13:18:59Z</time><extensions><speed>1.084893</speed><course>218.935287</course><hAcc>1.714258</hAcc><vAcc>0.822325</vAcc></extensions></trkpt>
      <trkpt lon="-2.232548" lat="53.126615"><ele>128.388153</ele><time>2022-03-04T13:19:00Z</time><extensions><speed>0.994081</speed><course>217.119141</course><hAcc>1.699576</hAcc><vAcc>0.822551</vAcc></extensions></trkpt>
      <trkpt lon="-2.232558" lat="53.126607"><ele>128.382874</ele><time>2022-03-04T13:19:01Z</time><extensions><speed>1.187521</speed><course>215.601074</course><hAcc>1.683947</hAcc><vAcc>0.822765</vAcc></extensions></trkpt>
      <trkpt lon="-2.232569" lat="53.126597"><ele>128.381668</ele><time>2022-03-04T13:19:02Z</time><extensions><speed>1.279269</speed><course>214.485703</course><hAcc>1.693514</hAcc><vAcc>0.822988</vAcc></extensions></trkpt>
      <trkpt lon="-2.232580" lat="53.126588"><ele>128.367767</ele><time>2022-03-04T13:19:03Z</time><extensions><speed>1.287843</speed><course>214.898209</course><hAcc>1.711681</hAcc><vAcc>0.823189</vAcc></extensions></trkpt>
      <trkpt lon="-2.232590" lat="53.126579"><ele>128.355362</ele><time>2022-03-04T13:19:04Z</time><extensions><speed>1.053527</speed><course>216.681244</course><hAcc>1.707201</hAcc><vAcc>0.823392</vAcc></extensions></trkpt>
      <trkpt lon="-2.232600" lat="53.126571"><ele>128.344711</ele><time>2022-03-04T13:19:05Z</time><extensions><speed>1.076983</speed><course>216.825119</course><hAcc>1.677840</hAcc><vAcc>0.823558</vAcc></extensions></trkpt>
      <trkpt lon="-2.232610" lat="53.126563"><ele>128.327545</ele><time>2022-03-04T13:19:06Z</time><extensions><speed>1.167909</speed><course>214.940186</course><hAcc>1.668069</hAcc><vAcc>0.823631</vAcc></extensions></trkpt>
      <trkpt lon="-2.232620" lat="53.126554"><ele>128.304321</ele><time>2022-03-04T13:19:07Z</time><extensions><speed>1.202778</speed><course>212.698959</course><hAcc>1.678953</hAcc><vAcc>0.823697</vAcc></extensions></trkpt>
      <trkpt lon="-2.232629" lat="53.126545"><ele>128.287750</ele><time>2022-03-04T13:19:08Z</time><extensions><speed>1.273528</speed><course>209.383698</course><hAcc>1.686079</hAcc><vAcc>0.823743</vAcc></extensions></trkpt>
      <trkpt lon="-2.232639" lat="53.126534"><ele>128.297104</ele><time>2022-03-04T13:19:09Z</time><extensions><speed>1.364645</speed><course>206.937195</course><hAcc>1.689110</hAcc><vAcc>0.823734</vAcc></extensions></trkpt>
      <trkpt lon="-2.232648" lat="53.126523"><ele>128.287659</ele><time>2022-03-04T13:19:10Z</time><extensions><speed>1.457029</speed><course>206.611923</course><hAcc>1.690586</hAcc><vAcc>0.823692</vAcc></extensions></trkpt>
      <trkpt lon="-2.232658" lat="53.126511"><ele>128.274796</ele><time>2022-03-04T13:19:11Z</time><extensions><speed>1.413923</speed><course>208.584290</course><hAcc>1.688228</hAcc><vAcc>0.823645</vAcc></extensions></trkpt>
      <trkpt lon="-2.232669" lat="53.126501"><ele>128.259705</ele><time>2022-03-04T13:19:12Z</time><extensions><speed>1.368820</speed><course>211.867630</course><hAcc>1.691182</hAcc><vAcc>0.823570</vAcc></extensions></trkpt>
      <trkpt lon="-2.232680" lat="53.126490"><ele>128.247040</ele><time>2022-03-04T13:19:13Z</time><extensions><speed>1.332774</speed><course>215.153702</course><hAcc>1.697449</hAcc><vAcc>0.823528</vAcc></extensions></trkpt>
      <trkpt lon="-2.232692" lat="53.126480"><ele>128.244446</ele><time>2022-03-04T13:19:14Z</time><extensions><speed>1.415901</speed><course>215.479218</course><hAcc>1.706859</hAcc><vAcc>0.823489</vAcc></extensions></trkpt>
      <trkpt lon="-2.232704" lat="53.126470"><ele>128.233505</ele><time>2022-03-04T13:19:15Z</time><extensions><speed>1.514924</speed><course>215.239365</course><hAcc>1.705621</hAcc><vAcc>0.823483</vAcc></extensions></trkpt>
      <trkpt lon="-2.232717" lat="53.126458"><ele>128.229309</ele><time>2022-03-04T13:19:16Z</time><extensions><speed>1.506636</speed><course>214.429901</course><hAcc>1.705556</hAcc><vAcc>0.823501</vAcc></extensions></trkpt>
      <trkpt lon="-2.232730" lat="53.126447"><ele>128.215958</ele><time>2022-03-04T13:19:17Z</time><extensions><speed>1.459855</speed><course>215.425659</course><hAcc>1.718585</hAcc><vAcc>0.823542</vAcc></extensions></trkpt>
      <trkpt lon="-2.232742" lat="53.126437"><ele>128.214890</ele><time>2022-03-04T13:19:18Z</time><extensions><speed>1.293754</speed><course>216.852432</course><hAcc>1.720370</hAcc><vAcc>0.823603</vAcc></extensions></trkpt>
      <trkpt lon="-2.232754" lat="53.126428"><ele>128.206146</ele><time>2022-03-04T13:19:19Z</time><extensions><speed>1.186635</speed><course>219.460617</course><hAcc>1.701447</hAcc><vAcc>0.823698</vAcc></extensions></trkpt>
      <trkpt lon="-2.232766" lat="53.126420"><ele>128.198669</ele><time>2022-03-04T13:19:20Z</time><extensions><speed>1.247180</speed><course>221.321198</course><hAcc>1.687968</hAcc><vAcc>0.823851</vAcc></extensions></trkpt>
      <trkpt lon="-2.232779" lat="53.126411"><ele>128.179108</ele><time>2022-03-04T13:19:21Z</time><extensions><speed>1.281012</speed><course>221.414352</course><hAcc>1.689378</hAcc><vAcc>0.824028</vAcc></extensions></trkpt>
      <trkpt lon="-2.232791" lat="53.126403"><ele>128.163162</ele><time>2022-03-04T13:19:22Z</time><extensions><speed>1.284275</speed><course>220.916794</course><hAcc>1.676075</hAcc><vAcc>0.824237</vAcc></extensions></trkpt>
      <trkpt lon="-2.232804" lat="53.126394"><ele>128.165100</ele><time>2022-03-04T13:19:23Z</time><extensions><speed>1.251081</speed><course>219.890106</course><hAcc>1.660421</hAcc><vAcc>0.824457</vAcc></extensions></trkpt>
      <trkpt lon="-2.232815" lat="53.126385"><ele>128.160904</ele><time>2022-03-04T13:19:24Z</time><extensions><speed>1.229916</speed><course>217.236572</course><hAcc>1.653929</hAcc><vAcc>0.824686</vAcc></extensions></trkpt>
      <trkpt lon="-2.232826" lat="53.126377"><ele>128.163635</ele><time>2022-03-04T13:19:25Z</time><extensions><speed>1.055712</speed><course>214.049484</course><hAcc>1.684332</hAcc><vAcc>0.824906</vAcc></extensions></trkpt>
      <trkpt lon="-2.232834" lat="53.126369"><ele>128.156067</ele><time>2022-03-04T13:19:26Z</time><extensions><speed>1.008264</speed><course>213.325302</course><hAcc>1.667338</hAcc><vAcc>0.825093</vAcc></extensions></trkpt>
      <trkpt lon="-2.232843" lat="53.126361"><ele>128.146347</ele><time>2022-03-04T13:19:27Z</time><extensions><speed>1.061537</speed><course>213.556046</course><hAcc>1.634031</hAcc><vAcc>0.825244</vAcc></extensions></trkpt>
      <trkpt lon="-2.232853" lat="53.126352"><ele>128.138016</ele><time>2022-03-04T13:19:28Z</time><extensions><speed>1.265790</speed><course>214.498047</course><hAcc>1.623932</hAcc><vAcc>0.825354</vAcc></extensions></trkpt>
      <trkpt lon="-2.232864" lat="53.126342"><ele>128.133469</ele><time>2022-03-04T13:19:29Z</time><extensions><speed>1.405461</speed><course>215.065353</course><hAcc>1.645159</hAcc><vAcc>0.825399</vAcc></extensions></trkpt>
      <trkpt lon="-2.232877" lat="53.126332"><ele>128.125443</ele><time>2022-03-04T13:19:30Z</time><extensions><speed>1.475950</speed><course>215.962158</course><hAcc>1.664448</hAcc><vAcc>0.825353</vAcc></extensions></trkpt>
      <trkpt lon="-2.232890" lat="53.126321"><ele>128.120224</ele><time>2022-03-04T13:19:31Z</time><extensions><speed>1.484155</speed><course>216.542572</course><hAcc>1.680668</hAcc><vAcc>0.825329</vAcc></extensions></trkpt>
      <trkpt lon="-2.232902" lat="53.126311"><ele>128.115067</ele><time>2022-03-04T13:19:32Z</time><extensions><speed>1.303971</speed><course>216.176529</course><hAcc>1.697041</hAcc><vAcc>0.825283</vAcc></extensions></trkpt>
      <trkpt lon="-2.232913" lat="53.126302"><ele>128.111755</ele><time>2022-03-04T13:19:33Z</time><extensions><speed>1.197031</speed><course>216.027313</course><hAcc>1.681361</hAcc><vAcc>0.825206</vAcc></extensions></trkpt>
      <trkpt lon="-2.232923" lat="53.126294"><ele>128.103043</ele><time>2022-03-04T13:19:34Z</time><extensions><speed>1.038677</speed><course>214.747787</course><hAcc>1.682089</hAcc><vAcc>0.825116</vAcc></extensions></trkpt>
      <trkpt lon="-2.232931" lat="53.126286"><ele>128.098450</ele><time>2022-03-04T13:19:35Z</time><extensions><speed>0.947093</speed><course>214.943497</course><hAcc>1.689222</hAcc><vAcc>0.824981</vAcc></extensions></trkpt>
      <trkpt lon="-2.232940" lat="53.126279"><ele>128.085175</ele><time>2022-03-04T13:19:36Z</time><extensions><speed>0.914069</speed><course>217.090820</course><hAcc>1.703402</hAcc><vAcc>0.824842</vAcc></extensions></trkpt>
      <trkpt lon="-2.232949" lat="53.126272"><ele>128.072922</ele><time>2022-03-04T13:19:37Z</time><extensions><speed>1.130630</speed><course>217.618240</course><hAcc>1.716619</hAcc><vAcc>0.824741</vAcc></extensions></trkpt>
      <trkpt lon="-2.232959" lat="53.126264"><ele>128.043304</ele><time>2022-03-04T13:19:38Z</time><extensions><speed>1.105334</speed><course>215.051132</course><hAcc>1.724227</hAcc><vAcc>0.824673</vAcc></extensions></trkpt>
      <trkpt lon="-2.232967" lat="53.126256"><ele>128.000702</ele><time>2022-03-04T13:19:39Z</time><extensions><speed>0.945635</speed><course>210.420227</course><hAcc>1.718434</hAcc><vAcc>0.824606</vAcc></extensions></trkpt>
      <trkpt lon="-2.232975" lat="53.126248"><ele>127.977303</ele><time>2022-03-04T13:19:40Z</time><extensions><speed>1.112679</speed><course>207.048447</course><hAcc>1.705559</hAcc><vAcc>0.824597</vAcc></extensions></trkpt>
      <trkpt lon="-2.232983" lat="53.126237"><ele>127.950928</ele><time>2022-03-04T13:19:41Z</time><extensions><speed>1.459306</speed><course>205.989288</course><hAcc>1.708628</hAcc><vAcc>0.824634</vAcc></extensions></trkpt>
      <trkpt lon="-2.232993" lat="53.126225"><ele>127.919006</ele><time>2022-03-04T13:19:42Z</time><extensions><speed>1.532576</speed><course>203.044846</course><hAcc>1.723946</hAcc><vAcc>0.824698</vAcc></extensions></trkpt>
      <trkpt lon="-2.233001" lat="53.126213"><ele>127.883011</ele><time>2022-03-04T13:19:43Z</time><extensions><speed>1.418486</speed><course>200.969788</course><hAcc>1.722345</hAcc><vAcc>0.824775</vAcc></extensions></trkpt>
      <trkpt lon="-2.233009" lat="53.126201"><ele>127.836189</ele><time>2022-03-04T13:19:44Z</time><extensions><speed>1.281609</speed><course>201.728806</course><hAcc>1.717899</hAcc><vAcc>0.824846</vAcc></extensions></trkpt>
      <trkpt lon="-2.233016" lat="53.126191"><ele>127.795570</ele><time>2022-03-04T13:19:45Z</time><extensions><speed>1.209417</speed><course>203.105698</course><hAcc>1.706778</hAcc><vAcc>0.824920</vAcc></extensions></trkpt>
      <trkpt lon="-2.233023" lat="53.126181"><ele>127.744461</ele><time>2022-03-04T13:19:46Z</time><extensions><speed>1.181614</speed><course>204.516754</course><hAcc>1.705687</hAcc><vAcc>0.825080</vAcc></extensions></trkpt>
      <trkpt lon="-2.233031" lat="53.126171"><ele>127.693802</ele><time>2022-03-04T13:19:47Z</time><extensions><speed>1.269552</speed><course>206.961044</course><hAcc>1.705735</hAcc><vAcc>0.825215</vAcc></extensions></trkpt>
      <trkpt lon="-2.233040" lat="53.126161"><ele>127.654030</ele><time>2022-03-04T13:19:48Z</time><extensions><speed>1.298496</speed><course>207.221390</course><hAcc>1.719795</hAcc><vAcc>0.825349</vAcc></extensions></trkpt>
      <trkpt lon="-2.233049" lat="53.126150"><ele>127.614357</ele><time>2022-03-04T13:19:49Z</time><extensions><speed>1.400328</speed><course>208.424820</course><hAcc>1.718365</hAcc><vAcc>0.825534</vAcc></extensions></trkpt>
      <trkpt lon="-2.233059" lat="53.126139"><ele>127.584259</ele><time>2022-03-04T13:19:50Z</time><extensions><speed>1.365834</speed><course>209.805557</course><hAcc>1.712000</hAcc><vAcc>0.825731</vAcc></extensions></trkpt>
      <trkpt lon="-2.233069" lat="53.126129"><ele>127.541649</ele><time>2022-03-04T13:19:51Z</time><extensions><speed>1.248311</speed><course>208.163620</course><hAcc>1.709036</hAcc><vAcc>0.825924</vAcc></extensions></trkpt>
      <trkpt lon="-2.233077" lat="53.126119"><ele>127.522179</ele><time>2022-03-04T13:19:52Z</time><extensions><speed>1.141084</speed><course>206.996399</course><hAcc>1.706704</hAcc><vAcc>0.826145</vAcc></extensions></trkpt>
      <trkpt lon="-2.233085" lat="53.126110"><ele>127.507385</ele><time>2022-03-04T13:19:53Z</time><extensions><speed>1.024812</speed><course>207.027054</course><hAcc>1.702875</hAcc><vAcc>0.826352</vAcc></extensions></trkpt>
      <trkpt lon="-2.233092" lat="53.126102"><ele>127.496132</ele><time>2022-03-04T13:19:54Z</time><extensions><speed>0.985608</speed><course>207.470840</course><hAcc>1.694091</hAcc><vAcc>0.826524</vAcc></extensions></trkpt>
      <trkpt lon="-2.233099" lat="53.126094"><ele>127.500130</ele><time>2022-03-04T13:19:56Z</time><extensions><speed>1.015953</speed><course>207.310104</course><hAcc>1.695920</hAcc><vAcc>0.826643</vAcc></extensions></trkpt>
      <trkpt lon="-2.233106" lat="53.126086"><ele>127.488449</ele><time>2022-03-04T13:19:57Z</time><extensions><speed>1.015996</speed><course>207.779648</course><hAcc>1.690490</hAcc><vAcc>0.826696</vAcc></extensions></trkpt>
      <trkpt lon="-2.233113" lat="53.126078"><ele>127.474640</ele><time>2022-03-04T13:19:58Z</time><extensions><speed>1.062389</speed><course>209.417831</course><hAcc>1.671763</hAcc><vAcc>0.826745</vAcc></extensions></trkpt>
      <trkpt lon="-2.233121" lat="53.126069"><ele>127.475372</ele><time>2022-03-04T13:19:59Z</time><extensions><speed>1.137455</speed><course>208.470749</course><hAcc>1.668341</hAcc><vAcc>0.826703</vAcc></extensions></trkpt>
      <trkpt lon="-2.233130" lat="53.126060"><ele>127.497231</ele><time>2022-03-04T13:20:00Z</time><extensions><speed>1.185425</speed><course>206.385666</course><hAcc>1.673628</hAcc><vAcc>0.826583</vAcc></extensions></trkpt>
      <trkpt lon="-2.233138" lat="53.126050"><ele>127.532341</ele><time>2022-03-04T13:20:01Z</time><extensions><speed>1.259805</speed><course>205.543213</course><hAcc>1.669541</hAcc><vAcc>0.826433</vAcc></extensions></trkpt>
      <trkpt lon="-2.233146" lat="53.126040"><ele>127.548706</ele><time>2022-03-04T13:20:02Z</time><extensions><speed>1.290431</speed><course>205.192459</course><hAcc>1.665595</hAcc><vAcc>0.826239</vAcc></extensions></trkpt>
      <trkpt lon="-2.233154" lat="53.126029"><ele>127.575874</ele><time>2022-03-04T13:20:03Z</time><extensions><speed>1.272862</speed><course>205.471024</course><hAcc>1.680549</hAcc><vAcc>0.826016</vAcc></extensions></trkpt>
      <trkpt lon="-2.233162" lat="53.126019"><ele>127.606026</ele><time>2022-03-04T13:20:04Z</time><extensions><speed>1.271365</speed><course>204.593674</course><hAcc>1.667326</hAcc><vAcc>0.825767</vAcc></extensions></trkpt>
      <trkpt lon="-2.233170" lat="53.126008"><ele>127.633171</ele><time>2022-03-04T13:20:05Z</time><extensions><speed>1.211972</speed><course>203.955215</course><hAcc>1.662324</hAcc><vAcc>0.825509</vAcc></extensions></trkpt>
      <trkpt lon="-2.233177" lat="53.125998"><ele>127.662560</ele><time>2022-03-04T13:20:06Z</time><extensions><speed>1.241920</speed><course>203.613068</course><hAcc>1.671053</hAcc><vAcc>0.825272</vAcc></extensions></trkpt>
      <trkpt lon="-2.233185" lat="53.125988"><ele>127.688293</ele><time>2022-03-04T13:20:07Z</time><extensions><speed>1.250378</speed><course>203.128860</course><hAcc>1.685104</hAcc><vAcc>0.825053</vAcc></extensions></trkpt>
      <trkpt lon="-2.233192" lat="53.125978"><ele>127.743454</ele><time>2022-03-04T13:20:08Z</time><extensions><speed>1.189670</speed><course>202.958130</course><hAcc>1.696462</hAcc><vAcc>0.824890</vAcc></extensions></trkpt>
      <trkpt lon="-2.233199" lat="53.125968"><ele>127.777084</ele><time>2022-03-04T13:20:09Z</time><extensions><speed>1.139116</speed><course>203.455353</course><hAcc>1.685260</hAcc><vAcc>0.824755</vAcc></extensions></trkpt>
      <trkpt lon="-2.233206" lat="53.125958"><ele>127.804932</ele><time>2022-03-04T13:20:10Z</time><extensions><speed>1.125116</speed><course>203.260651</course><hAcc>1.670151</hAcc><vAcc>0.824656</vAcc></extensions></trkpt>
      <trkpt lon="-2.233213" lat="53.125949"><ele>127.832916</ele><time>2022-03-04T13:20:11Z</time><extensions><speed>1.189631</speed><course>204.921661</course><hAcc>1.669029</hAcc><vAcc>0.824603</vAcc></extensions></trkpt>
      <trkpt lon="-2.233221" lat="53.125939"><ele>127.851189</ele><time>2022-03-04T13:20:12Z</time><extensions><speed>1.244006</speed><course>205.014984</course><hAcc>1.671766</hAcc><vAcc>0.824558</vAcc></extensions></trkpt>
      <trkpt lon="-2.233229" lat="53.125929"><ele>127.865074</ele><time>2022-03-04T13:20:13Z</time><extensions><speed>1.283221</speed><course>205.862213</course><hAcc>1.674842</hAcc><vAcc>0.824503</vAcc></extensions></trkpt>
      <trkpt lon="-2.233237" lat="53.125918"><ele>127.867249</ele><time>2022-03-04T13:20:14Z</time><extensions><speed>1.354405</speed><course>203.809235</course><hAcc>1.678658</hAcc><vAcc>0.824464</vAcc></extensions></trkpt>
      <trkpt lon="-2.233245" lat="53.125906"><ele>127.869568</ele><time>2022-03-04T13:20:15Z</time><extensions><speed>1.431287</speed><course>202.830048</course><hAcc>1.678819</hAcc><vAcc>0.824402</vAcc></extensions></trkpt>
      <trkpt lon="-2.233254" lat="53.125894"><ele>127.867226</ele><time>2022-03-04T13:20:16Z</time><extensions><speed>1.393844</speed><course>203.283478</course><hAcc>1.665730</hAcc><vAcc>0.824342</vAcc></extensions></trkpt>
      <trkpt lon="-2.233262" lat="53.125883"><ele>127.849586</ele><time>2022-03-04T13:20:17Z</time><extensions><speed>1.249893</speed><course>203.170258</course><hAcc>1.666341</hAcc><vAcc>0.824252</vAcc></extensions></trkpt>
      <trkpt lon="-2.233268" lat="53.125874"><ele>127.825272</ele><time>2022-03-04T13:20:18Z</time><extensions><speed>1.057080</speed><course>202.235077</course><hAcc>1.671636</hAcc><vAcc>0.824159</vAcc></extensions></trkpt>
      <trkpt lon="-2.233274" lat="53.125865"><ele>127.807213</ele><time>2022-03-04T13:20:19Z</time><extensions><speed>0.968787</speed><course>199.848129</course><hAcc>1.670486</hAcc><vAcc>0.824018</vAcc></extensions></trkpt>
      <trkpt lon="-2.233279" lat="53.125857"><ele>127.780624</ele><time>2022-03-04T13:20:20Z</time><extensions><speed>1.049744</speed><course>198.829468</course><hAcc>1.679217</hAcc><vAcc>0.823834</vAcc></extensions></trkpt>
      <trkpt lon="-2.233284" lat="53.125848"><ele>127.750114</ele><time>2022-03-04T13:20:21Z</time><extensions><speed>0.952755</speed><course>199.034775</course><hAcc>1.703670</hAcc><vAcc>0.823577</vAcc></extensions></trkpt>
      <trkpt lon="-2.233288" lat="53.125841"><ele>127.723793</ele><time>2022-03-04T13:20:22Z</time><extensions><speed>0.739645</speed><course>198.461029</course><hAcc>1.698225</hAcc><vAcc>0.823306</vAcc></extensions></trkpt>
      <trkpt lon="-2.233292" lat="53.125833"><ele>127.696640</ele><time>2022-03-04T13:20:23Z</time><extensions><speed>0.969154</speed><course>197.962418</course><hAcc>1.675757</hAcc><vAcc>0.822985</vAcc></extensions></trkpt>
      <trkpt lon="-2.233296" lat="53.125825"><ele>127.661537</ele><time>2022-03-04T13:20:24Z</time><extensions><speed>1.031348</speed><course>199.207825</course><hAcc>1.692561</hAcc><vAcc>0.822612</vAcc></extensions></trkpt>
      <trkpt lon="-2.233302" lat="53.125816"><ele>127.629448</ele><time>2022-03-04T13:20:25Z</time><extensions><speed>1.079790</speed><course>203.032440</course><hAcc>1.704226</hAcc><vAcc>0.822221</vAcc></extensions></trkpt>
      <trkpt lon="-2.233309" lat="53.125807"><ele>127.591400</ele><time>2022-03-04T13:20:26Z</time><extensions><speed>1.095737</speed><course>205.254349</course><hAcc>1.709114</hAcc><vAcc>0.821840</vAcc></extensions></trkpt>
      <trkpt lon="-2.233315" lat="53.125797"><ele>127.558456</ele><time>2022-03-04T13:20:27Z</time><extensions><speed>1.160292</speed><course>200.371323</course><hAcc>1.705825</hAcc><vAcc>0.821468</vAcc></extensions></trkpt>
      <trkpt lon="-2.233321" lat="53.125786"><ele>127.520615</ele><time>2022-03-04T13:20:28Z</time><extensions><speed>1.304996</speed><course>194.788712</course><hAcc>1.702091</hAcc><vAcc>0.821168</vAcc></extensions></trkpt>
      <trkpt lon="-2.233326" lat="53.125774"><ele>127.476585</ele><time>2022-03-04T13:20:29Z</time><extensions><speed>1.481178</speed><course>191.836670</course><hAcc>1.709463</hAcc><vAcc>0.820921</vAcc></extensions></trkpt>
      <trkpt lon="-2.233330" lat="53.125761"><ele>127.447090</ele><time>2022-03-04T13:20:30Z</time><extensions><speed>1.549158</speed><course>190.398315</course><hAcc>1.710977</hAcc><vAcc>0.820736</vAcc></extensions></trkpt>
      <trkpt lon="-2.233334" lat="53.125747"><ele>127.448273</ele><time>2022-03-04T13:20:31Z</time><extensions><speed>1.530377</speed><course>189.861633</course><hAcc>1.702160</hAcc><vAcc>0.820652</vAcc></extensions></trkpt>
      <trkpt lon="-2.233339" lat="53.125734"><ele>127.455345</ele><time>2022-03-04T13:20:32Z</time><extensions><speed>1.410090</speed><course>191.673080</course><hAcc>1.693462</hAcc><vAcc>0.820676</vAcc></extensions></trkpt>
      <trkpt lon="-2.233343" lat="53.125721"><ele>127.456413</ele><time>2022-03-04T13:20:33Z</time><extensions><speed>1.403620</speed><course>192.388779</course><hAcc>1.664745</hAcc><vAcc>0.820791</vAcc></extensions></trkpt>
      <trkpt lon="-2.233348" lat="53.125709"><ele>127.449211</ele><time>2022-03-04T13:20:34Z</time><extensions><speed>1.384442</speed><course>192.558212</course><hAcc>1.658793</hAcc><vAcc>0.821032</vAcc></extensions></trkpt>
      <trkpt lon="-2.233352" lat="53.125696"><ele>127.459045</ele><time>2022-03-04T13:20:35Z</time><extensions><speed>1.375136</speed><course>191.870392</course><hAcc>1.664871</hAcc><vAcc>0.821367</vAcc></extensions></trkpt>
      <trkpt lon="-2.233356" lat="53.125684"><ele>127.472618</ele><time>2022-03-04T13:20:36Z</time><extensions><speed>1.456858</speed><course>191.218643</course><hAcc>1.647108</hAcc><vAcc>0.821724</vAcc></extensions></trkpt>
      <trkpt lon="-2.233361" lat="53.125671"><ele>127.490105</ele><time>2022-03-04T13:20:37Z</time><extensions><speed>1.419716</speed><course>191.399261</course><hAcc>1.640150</hAcc><vAcc>0.822077</vAcc></extensions></trkpt>
      <trkpt lon="-2.233365" lat="53.125659"><ele>127.504669</ele><time>2022-03-04T13:20:38Z</time><extensions><speed>1.198965</speed><course>190.991806</course><hAcc>1.665223</hAcc><vAcc>0.822437</vAcc></extensions></trkpt>
      <trkpt lon="-2.233368" lat="53.125648"><ele>127.528130</ele><time>2022-03-04T13:20:39Z</time><extensions><speed>1.354175</speed><course>191.552429</course><hAcc>1.642360</hAcc><vAcc>0.822834</vAcc></extensions></trkpt>
      <trkpt lon="-2.233373" lat="53.125636"><ele>127.554558</ele><time>2022-03-04T13:20:40Z</time><extensions><speed>1.417090</speed><course>192.107773</course><hAcc>1.630858</hAcc><vAcc>0.823165</vAcc></extensions></trkpt>
      <trkpt lon="-2.233377" lat="53.125623"><ele>127.584145</ele><time>2022-03-04T13:20:41Z</time><extensions><speed>1.464870</speed><course>192.417374</course><hAcc>1.637352</hAcc><vAcc>0.823459</vAcc></extensions></trkpt>
      <trkpt lon="-2.233382" lat="53.125610"><ele>127.602905</ele><time>2022-03-04T13:20:42Z</time><extensions><speed>1.467027</speed><course>193.089706</course><hAcc>1.647489</hAcc><vAcc>0.823690</vAcc></extensions></trkpt>
      <trkpt lon="-2.233387" lat="53.125598"><ele>127.635529</ele><time>2022-03-04T13:20:43Z</time><extensions><speed>1.322051</speed><course>195.488907</course><hAcc>1.660193</hAcc><vAcc>0.823850</vAcc></extensions></trkpt>
      <trkpt lon="-2.233393" lat="53.125587"><ele>127.666977</ele><time>2022-03-04T13:20:44Z</time><extensions><speed>1.222037</speed><course>197.201630</course><hAcc>1.673441</hAcc><vAcc>0.823994</vAcc></extensions></trkpt>
      <trkpt lon="-2.233398" lat="53.125577"><ele>127.681374</ele><time>2022-03-04T13:20:45Z</time><extensions><speed>1.102985</speed><course>196.496704</course><hAcc>1.686835</hAcc><vAcc>0.824051</vAcc></extensions></trkpt>
      <trkpt lon="-2.233402" lat="53.125567"><ele>127.710510</ele><time>2022-03-04T13:20:46Z</time><extensions><speed>1.167209</speed><course>194.017090</course><hAcc>1.660891</hAcc><vAcc>0.824035</vAcc></extensions></trkpt>
      <trkpt lon="-2.233406" lat="53.125556"><ele>127.731728</ele><time>2022-03-04T13:20:46Z</time><extensions><speed>1.229630</speed><course>192.809021</course><hAcc>1.659211</hAcc><vAcc>0.823950</vAcc></extensions></trkpt>
      <trkpt lon="-2.233411" lat="53.125545"><ele>127.760323</ele><time>2022-03-04T13:20:47Z</time><extensions><speed>1.264942</speed><course>193.926727</course><hAcc>1.672253</hAcc><vAcc>0.823821</vAcc></extensions></trkpt>
      <trkpt lon="-2.233415" lat="53.125535"><ele>127.788864</ele><time>2022-03-04T13:20:48Z</time><extensions><speed>1.243969</speed><course>195.379257</course><hAcc>1.685417</hAcc><vAcc>0.823647</vAcc></extensions></trkpt>
      <trkpt lon="-2.233420" lat="53.125524"><ele>127.819099</ele><time>2022-03-04T13:20:49Z</time><extensions><speed>1.294807</speed><course>195.822754</course><hAcc>1.687147</hAcc><vAcc>0.823461</vAcc></extensions></trkpt>
      <trkpt lon="-2.233426" lat="53.125512"><ele>127.849953</ele><time>2022-03-04T13:20:50Z</time><extensions><speed>1.327064</speed><course>196.445190</course><hAcc>1.679987</hAcc><vAcc>0.823259</vAcc></extensions></trkpt>
      <trkpt lon="-2.233432" lat="53.125501"><ele>127.889778</ele><time>2022-03-04T13:20:51Z</time><extensions><speed>1.350647</speed><course>198.652832</course><hAcc>1.677555</hAcc><vAcc>0.823065</vAcc></extensions></trkpt>
      <trkpt lon="-2.233438" lat="53.125490"><ele>127.928055</ele><time>2022-03-04T13:20:52Z</time><extensions><speed>1.249029</speed><course>199.234222</course><hAcc>1.681168</hAcc><vAcc>0.822883</vAcc></extensions></trkpt>
      <trkpt lon="-2.233444" lat="53.125479"><ele>127.960045</ele><time>2022-03-04T13:20:53Z</time><extensions><speed>1.213664</speed><course>195.462708</course><hAcc>1.691949</hAcc><vAcc>0.822719</vAcc></extensions></trkpt>
      <trkpt lon="-2.233448" lat="53.125468"><ele>127.998802</ele><time>2022-03-04T13:20:54Z</time><extensions><speed>1.307796</speed><course>193.366730</course><hAcc>1.690628</hAcc><vAcc>0.822583</vAcc></extensions></trkpt>
      <trkpt lon="-2.233453" lat="53.125456"><ele>128.022659</ele><time>2022-03-04T13:20:55Z</time><extensions><speed>1.413812</speed><course>192.536453</course><hAcc>1.686770</hAcc><vAcc>0.822481</vAcc></extensions></trkpt>
      <trkpt lon="-2.233457" lat="53.125444"><ele>128.042969</ele><time>2022-03-04T13:20:56Z</time><extensions><speed>1.407937</speed><course>191.989410</course><hAcc>1.686308</hAcc><vAcc>0.822426</vAcc></extensions></trkpt>
      <trkpt lon="-2.233462" lat="53.125431"><ele>128.077393</ele><time>2022-03-04T13:20:57Z</time><extensions><speed>1.371232</speed><course>191.385681</course><hAcc>1.685838</hAcc><vAcc>0.822406</vAcc></extensions></trkpt>
      <trkpt lon="-2.233465" lat="53.125419"><ele>128.107712</ele><time>2022-03-04T13:20:58Z</time><extensions><speed>1.338636</speed><course>189.737976</course><hAcc>1.685161</hAcc><vAcc>0.822462</vAcc></extensions></trkpt>
      <trkpt lon="-2.233468" lat="53.125407"><ele>128.121994</ele><time>2022-03-04T13:20:59Z</time><extensions><speed>1.307707</speed><course>187.894287</course><hAcc>1.684954</hAcc><vAcc>0.822546</vAcc></extensions></trkpt>
      <trkpt lon="-2.233471" lat="53.125396"><ele>128.127319</ele><time>2022-03-04T13:21:00Z</time><extensions><speed>1.270875</speed><course>186.828476</course><hAcc>1.682908</hAcc><vAcc>0.822669</vAcc></extensions></trkpt>
      <trkpt lon="-2.233473" lat="53.125385"><ele>128.161758</ele><time>2022-03-04T13:21:01Z</time><extensions><speed>1.241284</speed><course>186.436646</course><hAcc>1.679219</hAcc><vAcc>0.822810</vAcc></extensions></trkpt>
      <trkpt lon="-2.233475" lat="53.125374"><ele>128.190002</ele><time>2022-03-04T13:21:02Z</time><extensions><speed>1.148471</speed><course>186.634735</course><hAcc>1.664896</hAcc><vAcc>0.822984</vAcc></extensions></trkpt>
      <trkpt lon="-2.233477" lat="53.125364"><ele>128.206100</ele><time>2022-03-04T13:21:03Z</time><extensions><speed>1.051676</speed><course>186.865341</course><hAcc>1.652610</hAcc><vAcc>0.823160</vAcc></extensions></trkpt>
      <trkpt lon="-2.233479" lat="53.125354"><ele>128.227768</ele><time>2022-03-04T13:21:04Z</time><extensions><speed>1.080350</speed><course>188.585556</course><hAcc>1.640285</hAcc><vAcc>0.823328</vAcc></extensions></trkpt>
      <trkpt lon="-2.233482" lat="53.125344"><ele>128.259430</ele><time>2022-03-04T13:21:05Z</time><extensions><speed>1.121514</speed><course>191.129974</course><hAcc>1.626582</hAcc><vAcc>0.823488</vAcc></extensions></trkpt>
      <trkpt lon="-2.233486" lat="53.125334"><ele>128.279907</ele><time>2022-03-04T13:21:06Z</time><extensions><speed>1.150448</speed><course>191.556107</course><hAcc>1.614311</hAcc><vAcc>0.823646</vAcc></extensions></trkpt>
      <trkpt lon="-2.233489" lat="53.125324"><ele>128.302094</ele><time>2022-03-04T13:21:07Z</time><extensions><speed>1.183010</speed><course>189.494598</course><hAcc>1.620466</hAcc><vAcc>0.823793</vAcc></extensions></trkpt>
      <trkpt lon="-2.233491" lat="53.125314"><ele>128.337173</ele><time>2022-03-04T13:21:08Z</time><extensions><speed>1.021981</speed><course>188.257278</course><hAcc>1.658892</hAcc><vAcc>0.823934</vAcc></extensions></trkpt>
      <trkpt lon="-2.233494" lat="53.125304"><ele>128.363388</ele><time>2022-03-04T13:21:09Z</time><extensions><speed>1.182601</speed><course>190.556686</course><hAcc>1.615776</hAcc><vAcc>0.824039</vAcc></extensions></trkpt>
      <trkpt lon="-2.233498" lat="53.125293"><ele>128.383408</ele><time>2022-03-04T13:21:10Z</time><extensions><speed>1.279446</speed><course>193.496155</course><hAcc>1.599089</hAcc><vAcc>0.824125</vAcc></extensions></trkpt>
      <trkpt lon="-2.233503" lat="53.125282"><ele>128.407623</ele><time>2022-03-04T13:21:11Z</time><extensions><speed>1.387062</speed><course>194.728882</course><hAcc>1.612786</hAcc><vAcc>0.824210</vAcc></extensions></trkpt>
      <trkpt lon="-2.233508" lat="53.125270"><ele>128.429199</ele><time>2022-03-04T13:21:12Z</time><extensions><speed>1.427225</speed><course>195.109207</course><hAcc>1.642878</hAcc><vAcc>0.824278</vAcc></extensions></trkpt>
      <trkpt lon="-2.233513" lat="53.125257"><ele>128.445572</ele><time>2022-03-04T13:21:13Z</time><extensions><speed>1.406914</speed><course>192.913696</course><hAcc>1.649025</hAcc><vAcc>0.824320</vAcc></extensions></trkpt>
      <trkpt lon="-2.233518" lat="53.125245"><ele>128.475601</ele><time>2022-03-04T13:21:14Z</time><extensions><speed>1.320703</speed><course>191.789795</course><hAcc>1.644711</hAcc><vAcc>0.824406</vAcc></extensions></trkpt>
      <trkpt lon="-2.233521" lat="53.125234"><ele>128.514343</ele><time>2022-03-04T13:21:15Z</time><extensions><speed>1.243906</speed><course>190.006317</course><hAcc>1.646944</hAcc><vAcc>0.824471</vAcc></extensions></trkpt>
      <trkpt lon="-2.233524" lat="53.125223"><ele>128.565628</ele><time>2022-03-04T13:21:16Z</time><extensions><speed>1.273285</speed><course>188.756241</course><hAcc>1.654351</hAcc><vAcc>0.824547</vAcc></extensions></trkpt>
      <trkpt lon="-2.233527" lat="53.125211"><ele>128.597992</ele><time>2022-03-04T13:21:17Z</time><extensions><speed>1.309198</speed><course>188.127991</course><hAcc>1.661680</hAcc><vAcc>0.824619</vAcc></extensions></trkpt>
      <trkpt lon="-2.233529" lat="53.125199"><ele>128.635544</ele><time>2022-03-04T13:21:18Z</time><extensions><speed>1.272979</speed><course>187.070206</course><hAcc>1.663404</hAcc><vAcc>0.824711</vAcc></extensions></trkpt>
      <trkpt lon="-2.233531" lat="53.125188"><ele>128.658127</ele><time>2022-03-04T13:21:19Z</time><extensions><speed>1.178478</speed><course>183.397949</course><hAcc>1.653668</hAcc><vAcc>0.824805</vAcc></extensions></trkpt>
      <trkpt lon="-2.233531" lat="53.125178"><ele>128.668625</ele><time>2022-03-04T13:21:20Z</time><extensions><speed>1.217244</speed><course>180.629272</course><hAcc>1.644378</hAcc><vAcc>0.824900</vAcc></extensions></trkpt>
      <trkpt lon="-2.233531" lat="53.125166"><ele>128.697571</ele><time>2022-03-04T13:21:21Z</time><extensions><speed>1.277694</speed><course>179.589172</course><hAcc>1.635820</hAcc><vAcc>0.825022</vAcc></extensions></trkpt>
      <trkpt lon="-2.233532" lat="53.125154"><ele>128.716171</ele><time>2022-03-04T13:21:22Z</time><extensions><speed>1.391347</speed><course>181.221588</course><hAcc>1.625072</hAcc><vAcc>0.825126</vAcc></extensions></trkpt>
      <trkpt lon="-2.233532" lat="53.125141"><ele>128.753250</ele><time>2022-03-04T13:21:23Z</time><extensions><speed>1.486813</speed><course>184.019821</course><hAcc>1.633574</hAcc><vAcc>0.825223</vAcc></extensions></trkpt>
      <trkpt lon="-2.233535" lat="53.125128"><ele>128.781143</ele><time>2022-03-04T13:21:24Z</time><extensions><speed>1.464117</speed><course>187.880692</course><hAcc>1.665097</hAcc><vAcc>0.825324</vAcc></extensions></trkpt>
      <trkpt lon="-2.233537" lat="53.125115"><ele>128.801376</ele><time>2022-03-04T13:21:25Z</time><extensions><speed>1.449012</speed><course>185.327454</course><hAcc>1.619592</hAcc><vAcc>0.825440</vAcc></extensions></trkpt>
      <trkpt lon="-2.233539" lat="53.125102"><ele>128.826630</ele><time>2022-03-04T13:21:26Z</time><extensions><speed>1.384980</speed><course>184.136124</course><hAcc>1.591164</hAcc><vAcc>0.825531</vAcc></extensions></trkpt>
      <trkpt lon="-2.233541" lat="53.125090"><ele>128.846008</ele><time>2022-03-04T13:21:27Z</time><extensions><speed>1.343065</speed><course>185.540619</course><hAcc>1.584809</hAcc><vAcc>0.825624</vAcc></extensions></trkpt>
      <trkpt lon="-2.233543" lat="53.125078"><ele>128.849197</ele><time>2022-03-04T13:21:28Z</time><extensions><speed>1.257715</speed><course>185.782135</course><hAcc>1.578068</hAcc><vAcc>0.825687</vAcc></extensions></trkpt>
      <trkpt lon="-2.233545" lat="53.125067"><ele>128.863022</ele><time>2022-03-04T13:21:29Z</time><extensions><speed>1.208837</speed><course>184.902618</course><hAcc>1.574199</hAcc><vAcc>0.825751</vAcc></extensions></trkpt>
      <trkpt lon="-2.233546" lat="53.125056"><ele>128.857498</ele><time>2022-03-04T13:21:30Z</time><extensions><speed>1.166864</speed><course>183.217682</course><hAcc>1.597156</hAcc><vAcc>0.825781</vAcc></extensions></trkpt>
      <trkpt lon="-2.233547" lat="53.125045"><ele>128.866135</ele><time>2022-03-04T13:21:31Z</time><extensions><speed>1.230521</speed><course>182.667938</course><hAcc>1.626527</hAcc><vAcc>0.825816</vAcc></extensions></trkpt>
      <trkpt lon="-2.233548" lat="53.125034"><ele>128.866928</ele><time>2022-03-04T13:21:32Z</time><extensions><speed>1.280179</speed><course>182.583008</course><hAcc>1.580175</hAcc><vAcc>0.825825</vAcc></extensions></trkpt>
      <trkpt lon="-2.233549" lat="53.125023"><ele>128.852951</ele><time>2022-03-04T13:21:33Z</time><extensions><speed>1.239835</speed><course>183.039429</course><hAcc>1.568084</hAcc><vAcc>0.825813</vAcc></extensions></trkpt>
      <trkpt lon="-2.233550" lat="53.125012"><ele>128.839432</ele><time>2022-03-04T13:21:34Z</time><extensions><speed>1.202729</speed><course>186.530396</course><hAcc>1.591695</hAcc><vAcc>0.825773</vAcc></extensions></trkpt>
      <trkpt lon="-2.233553" lat="53.125001"><ele>128.809647</ele><time>2022-03-04T13:21:35Z</time><extensions><speed>1.177470</speed><course>190.326019</course><hAcc>1.617954</hAcc><vAcc>0.825718</vAcc></extensions></trkpt>
      <trkpt lon="-2.233557" lat="53.124991"><ele>128.776062</ele><time>2022-03-04T13:21:36Z</time><extensions><speed>1.176086</speed><course>193.907471</course><hAcc>1.626750</hAcc><vAcc>0.825628</vAcc></extensions></trkpt>
      <trkpt lon="-2.233561" lat="53.124980"><ele>128.732071</ele><time>2022-03-04T13:21:37Z</time><extensions><speed>1.164062</speed><course>194.377457</course><hAcc>1.637268</hAcc><vAcc>0.825516</vAcc></extensions></trkpt>
      <trkpt lon="-2.233566" lat="53.124970"><ele>128.715256</ele><time>2022-03-04T13:21:38Z</time><extensions><speed>1.176390</speed><course>196.271042</course><hAcc>1.631290</hAcc><vAcc>0.825429</vAcc></extensions></trkpt>
      <trkpt lon="-2.233570" lat="53.124960"><ele>128.691681</ele><time>2022-03-04T13:21:39Z</time><extensions><speed>1.192555</speed><course>195.013626</course><hAcc>1.632279</hAcc><vAcc>0.825310</vAcc></extensions></trkpt>
      <trkpt lon="-2.233575" lat="53.124949"><ele>128.666183</ele><time>2022-03-04T13:21:40Z</time><extensions><speed>1.198198</speed><course>192.765762</course><hAcc>1.637022</hAcc><vAcc>0.825156</vAcc></extensions></trkpt>
      <trkpt lon="-2.233579" lat="53.124939"><ele>128.629013</ele><time>2022-03-04T13:21:41Z</time><extensions><speed>1.229725</speed><course>192.707260</course><hAcc>1.652598</hAcc><vAcc>0.824987</vAcc></extensions></trkpt>
      <trkpt lon="-2.233583" lat="53.124928"><ele>128.585999</ele><time>2022-03-04T13:21:42Z</time><extensions><speed>1.242479</speed><course>192.100159</course><hAcc>1.660568</hAcc><vAcc>0.824765</vAcc></extensions></trkpt>
      <trkpt lon="-2.233587" lat="53.124917"><ele>128.550278</ele><time>2022-03-04T13:21:43Z</time><extensions><speed>1.176256</speed><course>192.282120</course><hAcc>1.648587</hAcc><vAcc>0.824547</vAcc></extensions></trkpt>
      <trkpt lon="-2.233590" lat="53.124907"><ele>128.518509</ele><time>2022-03-04T13:21:44Z</time><extensions><speed>1.163534</speed><course>192.155640</course><hAcc>1.649424</hAcc><vAcc>0.824331</vAcc></extensions></trkpt>
      <trkpt lon="-2.233594" lat="53.124896"><ele>128.485062</ele><time>2022-03-04T13:21:45Z</time><extensions><speed>1.146332</speed><course>191.121506</course><hAcc>1.653920</hAcc><vAcc>0.824109</vAcc></extensions></trkpt>
      <trkpt lon="-2.233597" lat="53.124886"><ele>128.449799</ele><time>2022-03-04T13:21:46Z</time><extensions><speed>1.143955</speed><course>189.461288</course><hAcc>1.659714</hAcc><vAcc>0.823924</vAcc></extensions></trkpt>
      <trkpt lon="-2.233600" lat="53.124876"><ele>128.444595</ele><time>2022-03-04T13:21:47Z</time><extensions><speed>1.148317</speed><course>188.608109</course><hAcc>1.673003</hAcc><vAcc>0.823757</vAcc></extensions></trkpt>
      <trkpt lon="-2.233602" lat="53.124866"><ele>128.433044</ele><time>2022-03-04T13:21:48Z</time><extensions><speed>1.119698</speed><course>187.680679</course><hAcc>1.689259</hAcc><vAcc>0.823617</vAcc></extensions></trkpt>
      <trkpt lon="-2.233604" lat="53.124856"><ele>128.432541</ele><time>2022-03-04T13:21:49Z</time><extensions><speed>1.117468</speed><course>186.822830</course><hAcc>1.681986</hAcc><vAcc>0.823485</vAcc></extensions></trkpt>
      <trkpt lon="-2.233606" lat="53.124845"><ele>128.424240</ele><time>2022-03-04T13:21:50Z</time><extensions><speed>1.170462</speed><course>187.236954</course><hAcc>1.680948</hAcc><vAcc>0.823376</vAcc></extensions></trkpt>
      <trkpt lon="-2.233609" lat="53.124835"><ele>128.405197</ele><time>2022-03-04T13:21:51Z</time><extensions><speed>1.168741</speed><course>188.837692</course><hAcc>1.689572</hAcc><vAcc>0.823326</vAcc></extensions></trkpt>
      <trkpt lon="-2.233611" lat="53.124824"><ele>128.402863</ele><time>2022-03-04T13:21:52Z</time><extensions><speed>1.228675</speed><course>189.242508</course><hAcc>1.691602</hAcc><vAcc>0.823349</vAcc></extensions></trkpt>
      <trkpt lon="-2.233614" lat="53.124813"><ele>128.401520</ele><time>2022-03-04T13:21:53Z</time><extensions><speed>1.292086</speed><course>188.444672</course><hAcc>1.694945</hAcc><vAcc>0.823413</vAcc></extensions></trkpt>
      <trkpt lon="-2.233617" lat="53.124801"><ele>128.403702</ele><time>2022-03-04T13:21:54Z</time><extensions><speed>1.307365</speed><course>188.107178</course><hAcc>1.698042</hAcc><vAcc>0.823500</vAcc></extensions></trkpt>
      <trkpt lon="-2.233620" lat="53.124789"><ele>128.410049</ele><time>2022-03-04T13:21:55Z</time><extensions><speed>1.367469</speed><course>186.538239</course><hAcc>1.696250</hAcc><vAcc>0.823666</vAcc></extensions></trkpt>
      <trkpt lon="-2.233622" lat="53.124777"><ele>128.409851</ele><time>2022-03-04T13:21:56Z</time><extensions><speed>1.450814</speed><course>184.795593</course><hAcc>1.692722</hAcc><vAcc>0.823917</vAcc></extensions></trkpt>
      <trkpt lon="-2.233624" lat="53.124764"><ele>128.417343</ele><time>2022-03-04T13:21:57Z</time><extensions><speed>1.434344</speed><course>184.552643</course><hAcc>1.686621</hAcc><vAcc>0.824163</vAcc></extensions></trkpt>
      <trkpt lon="-2.233625" lat="53.124751"><ele>128.434830</ele><time>2022-03-04T13:21:58Z</time><extensions><speed>1.394048</speed><course>185.866867</course><hAcc>1.681394</hAcc><vAcc>0.824465</vAcc></extensions></trkpt>
      <trkpt lon="-2.233628" lat="53.124739"><ele>128.438873</ele><time>2022-03-04T13:21:59Z</time><extensions><speed>1.310527</speed><course>188.108444</course><hAcc>1.666915</hAcc><vAcc>0.824759</vAcc></extensions></trkpt>
      <trkpt lon="-2.233631" lat="53.124727"><ele>128.452454</ele><time>2022-03-04T13:22:00Z</time><extensions><speed>1.258373</speed><course>189.204575</course><hAcc>1.652323</hAcc><vAcc>0.825061</vAcc></extensions></trkpt>
      <trkpt lon="-2.233634" lat="53.124716"><ele>128.469391</ele><time>2022-03-04T13:22:02Z</time><extensions><speed>1.204718</speed><course>190.432373</course><hAcc>1.661388</hAcc><vAcc>0.825350</vAcc></extensions></trkpt>
      <trkpt lon="-2.233637" lat="53.124706"><ele>128.483704</ele><time>2022-03-04T13:22:03Z</time><extensions><speed>1.069096</speed><course>191.955261</course><hAcc>1.685179</hAcc><vAcc>0.825609</vAcc></extensions></trkpt>
      <trkpt lon="-2.233641" lat="53.124697"><ele>128.478592</ele><time>2022-03-04T13:22:04Z</time><extensions><speed>1.166754</speed><course>190.664291</course><hAcc>1.655221</hAcc><vAcc>0.825866</vAcc></extensions></trkpt>
      <trkpt lon="-2.233644" lat="53.124686"><ele>128.493668</ele><time>2022-03-04T13:22:05Z</time><extensions><speed>1.228906</speed><course>188.829483</course><hAcc>1.641014</hAcc><vAcc>0.826071</vAcc></extensions></trkpt>
      <trkpt lon="-2.233646" lat="53.124675"><ele>128.495499</ele><time>2022-03-04T13:22:06Z</time><extensions><speed>1.215480</speed><course>184.488281</course><hAcc>1.648520</hAcc><vAcc>0.826227</vAcc></extensions></trkpt>
      <trkpt lon="-2.233647" lat="53.124664"><ele>128.495667</ele><time>2022-03-04T13:22:07Z</time><extensions><speed>1.253827</speed><course>181.530258</course><hAcc>1.657116</hAcc><vAcc>0.826315</vAcc></extensions></trkpt>
      <trkpt lon="-2.233647" lat="53.124652"><ele>128.494766</ele><time>2022-03-04T13:22:08Z</time><extensions><speed>1.298372</speed><course>181.559418</course><hAcc>1.660123</hAcc><vAcc>0.826371</vAcc></extensions></trkpt>
      <trkpt lon="-2.233648" lat="53.124640"><ele>128.495941</ele><time>2022-03-04T13:22:09Z</time><extensions><speed>1.312352</speed><course>182.442444</course><hAcc>1.666170</hAcc><vAcc>0.826348</vAcc></extensions></trkpt>
      <trkpt lon="-2.233649" lat="53.124629"><ele>128.506454</ele><time>2022-03-04T13:22:10Z</time><extensions><speed>1.281859</speed><course>185.342636</course><hAcc>1.662635</hAcc><vAcc>0.826279</vAcc></extensions></trkpt>
      <trkpt lon="-2.233651" lat="53.124618"><ele>128.513855</ele><time>2022-03-04T13:22:11Z</time><extensions><speed>1.229880</speed><course>186.493469</course><hAcc>1.660354</hAcc><vAcc>0.826192</vAcc></extensions></trkpt>
      <trkpt lon="-2.233653" lat="53.124607"><ele>128.508896</ele><time>2022-03-04T13:22:12Z</time><extensions><speed>1.113859</speed><course>189.351440</course><hAcc>1.664387</hAcc><vAcc>0.826075</vAcc></extensions></trkpt>
      <trkpt lon="-2.233657" lat="53.124598"><ele>128.492218</ele><time>2022-03-04T13:22:13Z</time><extensions><speed>0.976856</speed><course>193.432144</course><hAcc>1.678404</hAcc><vAcc>0.825958</vAcc></extensions></trkpt>
      <trkpt lon="-2.233660" lat="53.124589"><ele>128.486557</ele><time>2022-03-04T13:22:14Z</time><extensions><speed>0.954911</speed><course>196.410706</course><hAcc>1.673798</hAcc><vAcc>0.825840</vAcc></extensions></trkpt>
      <trkpt lon="-2.233665" lat="53.124581"><ele>128.476089</ele><time>2022-03-04T13:22:15Z</time><extensions><speed>1.073628</speed><course>196.060013</course><hAcc>1.667952</hAcc><vAcc>0.825719</vAcc></extensions></trkpt>
      <trkpt lon="-2.233669" lat="53.124571"><ele>128.469193</ele><time>2022-03-04T13:22:16Z</time><extensions><speed>1.098832</speed><course>196.359329</course><hAcc>1.669849</hAcc><vAcc>0.825592</vAcc></extensions></trkpt>
      <trkpt lon="-2.233674" lat="53.124561"><ele>128.468643</ele><time>2022-03-04T13:22:17Z</time><extensions><speed>1.201586</speed><course>195.476196</course><hAcc>1.676920</hAcc><vAcc>0.825502</vAcc></extensions></trkpt>
      <trkpt lon="-2.233679" lat="53.124551"><ele>128.468826</ele><time>2022-03-04T13:22:18Z</time><extensions><speed>1.228161</speed><course>193.400909</course><hAcc>1.686152</hAcc><vAcc>0.825436</vAcc></extensions></trkpt>
      <trkpt lon="-2.233682" lat="53.124540"><ele>128.463745</ele><time>2022-03-04T13:22:19Z</time><extensions><speed>1.128020</speed><course>188.617554</course><hAcc>1.685125</hAcc><vAcc>0.825410</vAcc></extensions></trkpt>
      <trkpt lon="-2.233684" lat="53.124531"><ele>128.458633</ele><time>2022-03-04T13:22:20Z</time><extensions><speed>1.043980</speed><course>189.527222</course><hAcc>1.681675</hAcc><vAcc>0.825401</vAcc></extensions></trkpt>
      <trkpt lon="-2.233687" lat="53.124521"><ele>128.450790</ele><time>2022-03-04T13:22:21Z</time><extensions><speed>1.066060</speed><course>191.828003</course><hAcc>1.680711</hAcc><vAcc>0.825405</vAcc></extensions></trkpt>
      <trkpt lon="-2.233691" lat="53.124511"><ele>128.447876</ele><time>2022-03-04T13:22:22Z</time><extensions><speed>1.204763</speed><course>193.663132</course><hAcc>1.680520</hAcc><vAcc>0.825435</vAcc></extensions></trkpt>
      <trkpt lon="-2.233696" lat="53.124501"><ele>128.437454</ele><time>2022-03-04T13:22:23Z</time><extensions><speed>1.155813</speed><course>194.783203</course><hAcc>1.678645</hAcc><vAcc>0.825537</vAcc></extensions></trkpt>
      <trkpt lon="-2.233700" lat="53.124491"><ele>128.438095</ele><time>2022-03-04T13:22:24Z</time><extensions><speed>1.135940</speed><course>196.225937</course><hAcc>1.669966</hAcc><vAcc>0.825644</vAcc></extensions></trkpt>
      <trkpt lon="-2.233705" lat="53.124481"><ele>128.431122</ele><time>2022-03-04T13:22:25Z</time><extensions><speed>1.189203</speed><course>196.936539</course><hAcc>1.656868</hAcc><vAcc>0.825756</vAcc></extensions></trkpt>
      <trkpt lon="-2.233710" lat="53.124470"><ele>128.445709</ele><time>2022-03-04T13:22:26Z</time><extensions><speed>1.223897</speed><course>196.497513</course><hAcc>1.642619</hAcc><vAcc>0.825866</vAcc></extensions></trkpt>
      <trkpt lon="-2.233716" lat="53.124460"><ele>128.460022</ele><time>2022-03-04T13:22:27Z</time><extensions><speed>1.246078</speed><course>195.911484</course><hAcc>1.639281</hAcc><vAcc>0.826004</vAcc></extensions></trkpt>
      <trkpt lon="-2.233720" lat="53.124449"><ele>128.481888</ele><time>2022-03-04T13:22:28Z</time><extensions><speed>1.179730</speed><course>193.672775</course><hAcc>1.644576</hAcc><vAcc>0.826126</vAcc></extensions></trkpt>
      <trkpt lon="-2.233724" lat="53.124439"><ele>128.497025</ele><time>2022-03-04T13:22:29Z</time><extensions><speed>1.139436</speed><course>189.222717</course><hAcc>1.643295</hAcc><vAcc>0.826233</vAcc></extensions></trkpt>
      <trkpt lon="-2.233726" lat="53.124429"><ele>128.517944</ele><time>2022-03-04T13:22:30Z</time><extensions><speed>1.101525</speed><course>187.728531</course><hAcc>1.637925</hAcc><vAcc>0.826324</vAcc></extensions></trkpt>
      <trkpt lon="-2.233729" lat="53.124419"><ele>128.547241</ele><time>2022-03-04T13:22:31Z</time><extensions><speed>1.163216</speed><course>188.400391</course><hAcc>1.624859</hAcc><vAcc>0.826407</vAcc></extensions></trkpt>
      <trkpt lon="-2.233732" lat="53.124408"><ele>128.575912</ele><time>2022-03-04T13:22:32Z</time><extensions><speed>1.156082</speed><course>190.991364</course><hAcc>1.621213</hAcc><vAcc>0.826511</vAcc></extensions></trkpt>
      <trkpt lon="-2.233735" lat="53.124398"><ele>128.616806</ele><time>2022-03-04T13:22:33Z</time><extensions><speed>1.171465</speed><course>193.328354</course><hAcc>1.626582</hAcc><vAcc>0.826565</vAcc></extensions></trkpt>
      <trkpt lon="-2.233740" lat="53.124387"><ele>128.650742</ele><time>2022-03-04T13:22:34Z</time><extensions><speed>1.251427</speed><course>196.168213</course><hAcc>1.636749</hAcc><vAcc>0.826587</vAcc></extensions></trkpt>
      <trkpt lon="-2.233746" lat="53.124376"><ele>128.681000</ele><time>2022-03-04T13:22:35Z</time><extensions><speed>1.362625</speed><course>197.692245</course><hAcc>1.625204</hAcc><vAcc>0.826613</vAcc></extensions></trkpt>
      <trkpt lon="-2.233752" lat="53.124364"><ele>128.719101</ele><time>2022-03-04T13:22:36Z</time><extensions><speed>1.424954</speed><course>200.132324</course><hAcc>1.625945</hAcc><vAcc>0.826594</vAcc></extensions></trkpt>
      <trkpt lon="-2.233760" lat="53.124352"><ele>128.751541</ele><time>2022-03-04T13:22:37Z</time><extensions><speed>1.381387</speed><course>200.820923</course><hAcc>1.646727</hAcc><vAcc>0.826559</vAcc></extensions></trkpt>
      <trkpt lon="-2.233766" lat="53.124341"><ele>128.774109</ele><time>2022-03-04T13:22:38Z</time><extensions><speed>1.295631</speed><course>196.225235</course><hAcc>1.626917</hAcc><vAcc>0.826523</vAcc></extensions></trkpt>
      <trkpt lon="-2.233770" lat="53.124330"><ele>128.800766</ele><time>2022-03-04T13:22:39Z</time><extensions><speed>1.228464</speed><course>190.769852</course><hAcc>1.619789</hAcc><vAcc>0.826484</vAcc></extensions></trkpt>
      <trkpt lon="-2.233773" lat="53.124318"><ele>128.827728</ele><time>2022-03-04T13:22:40Z</time><extensions><speed>1.310332</speed><course>188.661011</course><hAcc>1.613694</hAcc><vAcc>0.826438</vAcc></extensions></trkpt>
      <trkpt lon="-2.233777" lat="53.124306"><ele>128.868835</ele><time>2022-03-04T13:22:41Z</time><extensions><speed>1.450127</speed><course>189.059219</course><hAcc>1.623240</hAcc><vAcc>0.826389</vAcc></extensions></trkpt>
      <trkpt lon="-2.233781" lat="53.124293"><ele>128.895859</ele><time>2022-03-04T13:22:42Z</time><extensions><speed>1.442999</speed><course>191.685150</course><hAcc>1.657419</hAcc><vAcc>0.826364</vAcc></extensions></trkpt>
      <trkpt lon="-2.233785" lat="53.124281"><ele>128.910553</ele><time>2022-03-04T13:22:43Z</time><extensions><speed>1.358554</speed><course>192.184280</course><hAcc>1.635399</hAcc><vAcc>0.826330</vAcc></extensions></trkpt>
      <trkpt lon="-2.233789" lat="53.124269"><ele>128.924515</ele><time>2022-03-04T13:22:44Z</time><extensions><speed>1.327111</speed><course>193.535980</course><hAcc>1.632264</hAcc><vAcc>0.826293</vAcc></extensions></trkpt>
      <trkpt lon="-2.233794" lat="53.124258"><ele>128.935516</ele><time>2022-03-04T13:22:45Z</time><extensions><speed>1.298950</speed><course>192.878128</course><hAcc>1.647306</hAcc><vAcc>0.826244</vAcc></extensions></trkpt>
      <trkpt lon="-2.233798" lat="53.124246"><ele>128.941010</ele><time>2022-03-04T13:22:46Z</time><extensions><speed>1.297468</speed><course>191.664383</course><hAcc>1.654046</hAcc><vAcc>0.826204</vAcc></extensions></trkpt>
      <trkpt lon="-2.233802" lat="53.124235"><ele>128.942215</ele><time>2022-03-04T13:22:47Z</time><extensions><speed>1.321063</speed><course>190.752045</course><hAcc>1.659717</hAcc><vAcc>0.826147</vAcc></extensions></trkpt>
      <trkpt lon="-2.233805" lat="53.124223"><ele>128.939636</ele><time>2022-03-04T13:22:48Z</time><extensions><speed>1.351624</speed><course>190.555786</course><hAcc>1.664373</hAcc><vAcc>0.826084</vAcc></extensions></trkpt>
      <trkpt lon="-2.233808" lat="53.124211"><ele>128.944977</ele><time>2022-03-04T13:22:49Z</time><extensions><speed>1.356440</speed><course>188.452194</course><hAcc>1.663877</hAcc><vAcc>0.826019</vAcc></extensions></trkpt>
      <trkpt lon="-2.233811" lat="53.124199"><ele>128.934570</ele><time>2022-03-04T13:22:50Z</time><extensions><speed>1.372062</speed><course>187.201340</course><hAcc>1.662887</hAcc><vAcc>0.825959</vAcc></extensions></trkpt>
      <trkpt lon="-2.233814" lat="53.124187"><ele>128.911530</ele><time>2022-03-04T13:22:51Z</time><extensions><speed>1.286663</speed><course>187.098007</course><hAcc>1.669230</hAcc><vAcc>0.825962</vAcc></extensions></trkpt>
      <trkpt lon="-2.233816" lat="53.124176"><ele>128.881882</ele><time>2022-03-04T13:22:52Z</time><extensions><speed>1.131531</speed><course>186.738602</course><hAcc>1.679283</hAcc><vAcc>0.825939</vAcc></extensions></trkpt>
      <trkpt lon="-2.233817" lat="53.124166"><ele>128.854950</ele><time>2022-03-04T13:22:53Z</time><extensions><speed>0.963760</speed><course>183.542679</course><hAcc>1.682850</hAcc><vAcc>0.825904</vAcc></extensions></trkpt>
      <trkpt lon="-2.233818" lat="53.124158"><ele>128.814209</ele><time>2022-03-04T13:22:54Z</time><extensions><speed>0.952243</speed><course>182.472549</course><hAcc>1.688367</hAcc><vAcc>0.825871</vAcc></extensions></trkpt>
      <trkpt lon="-2.233819" lat="53.124150"><ele>128.760376</ele><time>2022-03-04T13:22:55Z</time><extensions><speed>0.884938</speed><course>182.009338</course><hAcc>1.693879</hAcc><vAcc>0.825832</vAcc></extensions></trkpt>
      <trkpt lon="-2.233819" lat="53.124142"><ele>128.703491</ele><time>2022-03-04T13:22:56Z</time><extensions><speed>0.743410</speed><course>182.232269</course><hAcc>1.698236</hAcc><vAcc>0.825797</vAcc></extensions></trkpt>
      <trkpt lon="-2.233820" lat="53.124136"><ele>128.650101</ele><time>2022-03-04T13:22:57Z</time><extensions><speed>0.698460</speed><course>181.476837</course><hAcc>1.696518</hAcc><vAcc>0.825801</vAcc></extensions></trkpt>
      <trkpt lon="-2.233820" lat="53.124128"><ele>128.597473</ele><time>2022-03-04T13:22:57Z</time><extensions><speed>0.946998</speed><course>183.337616</course><hAcc>1.691614</hAcc><vAcc>0.825804</vAcc></extensions></trkpt>
      <trkpt lon="-2.233821" lat="53.124119"><ele>128.542953</ele><time>2022-03-04T13:22:58Z</time><extensions><speed>1.109526</speed><course>183.721680</course><hAcc>1.707438</hAcc><vAcc>0.825789</vAcc></extensions></trkpt>
      <trkpt lon="-2.233823" lat="53.124108"><ele>128.482117</ele><time>2022-03-04T13:22:59Z</time><extensions><speed>1.233443</speed><course>185.574417</course><hAcc>1.709828</hAcc><vAcc>0.825776</vAcc></extensions></trkpt>
      <trkpt lon="-2.233825" lat="53.124097"><ele>128.430344</ele><time>2022-03-04T13:23:00Z</time><extensions><speed>1.335916</speed><course>187.396576</course><hAcc>1.696463</hAcc><vAcc>0.825756</vAcc></extensions></trkpt>
      <trkpt lon="-2.233828" lat="53.124085"><ele>128.385452</ele><time>2022-03-04T13:23:01Z</time><extensions><speed>1.357696</speed><course>188.767075</course><hAcc>1.681341</hAcc><vAcc>0.825724</vAcc></extensions></trkpt>
      <trkpt lon="-2.233831" lat="53.124073"><ele>128.346115</ele><time>2022-03-04T13:23:02Z</time><extensions><speed>1.282831</speed><course>192.068192</course><hAcc>1.667079</hAcc><vAcc>0.825678</vAcc></extensions></trkpt>
      <trkpt lon="-2.233835" lat="53.124062"><ele>128.314880</ele><time>2022-03-04T13:23:03Z</time><extensions><speed>1.193588</speed><course>193.136902</course><hAcc>1.658892</hAcc><vAcc>0.825621</vAcc></extensions></trkpt>
      <trkpt lon="-2.233839" lat="53.124052"><ele>128.286209</ele><time>2022-03-04T13:23:04Z</time><extensions><speed>1.115006</speed><course>193.181702</course><hAcc>1.658062</hAcc><vAcc>0.825551</vAcc></extensions></trkpt>
      <trkpt lon="-2.233843" lat="53.124042"><ele>128.261841</ele><time>2022-03-04T13:23:05Z</time><extensions><speed>1.121667</speed><course>192.881561</course><hAcc>1.655773</hAcc><vAcc>0.825492</vAcc></extensions></trkpt>
      <trkpt lon="-2.233847" lat="53.124032"><ele>128.238831</ele><time>2022-03-04T13:23:06Z</time><extensions><speed>1.057249</speed><course>193.540833</course><hAcc>1.672370</hAcc><vAcc>0.825413</vAcc></extensions></trkpt>
      <trkpt lon="-2.233850" lat="53.124023"><ele>128.238693</ele><time>2022-03-04T13:23:07Z</time><extensions><speed>1.064501</speed><course>191.897202</course><hAcc>1.655139</hAcc><vAcc>0.825323</vAcc></extensions></trkpt>
      <trkpt lon="-2.233854" lat="53.124013"><ele>128.240158</ele><time>2022-03-04T13:23:08Z</time><extensions><speed>1.174922</speed><course>192.645172</course><hAcc>1.647194</hAcc><vAcc>0.825235</vAcc></extensions></trkpt>
      <trkpt lon="-2.233858" lat="53.124002"><ele>128.246597</ele><time>2022-03-04T13:23:09Z</time><extensions><speed>1.316032</speed><course>193.574356</course><hAcc>1.650289</hAcc><vAcc>0.825160</vAcc></extensions></trkpt>
      <trkpt lon="-2.233863" lat="53.123990"><ele>128.268600</ele><time>2022-03-04T13:23:10Z</time><extensions><speed>1.428447</speed><course>192.875076</course><hAcc>1.653334</hAcc><vAcc>0.825105</vAcc></extensions></trkpt>
      <trkpt lon="-2.233868" lat="53.123977"><ele>128.281479</ele><time>2022-03-04T13:23:11Z</time><extensions><speed>1.541401</speed><course>193.066528</course><hAcc>1.647207</hAcc><vAcc>0.825089</vAcc></extensions></trkpt>
      <trkpt lon="-2.233873" lat="53.123963"><ele>128.275436</ele><time>2022-03-04T13:23:12Z</time><extensions><speed>1.541881</speed><course>194.364243</course><hAcc>1.634904</hAcc><vAcc>0.825102</vAcc></extensions></trkpt>
      <trkpt lon="-2.233879" lat="53.123950"><ele>128.279510</ele><time>2022-03-04T13:23:13Z</time><extensions><speed>1.410786</speed><course>195.457672</course><hAcc>1.633876</hAcc><vAcc>0.825127</vAcc></extensions></trkpt>
      <trkpt lon="-2.233884" lat="53.123938"><ele>128.281937</ele><time>2022-03-04T13:23:14Z</time><extensions><speed>1.255748</speed><course>191.692322</course><hAcc>1.645592</hAcc><vAcc>0.825178</vAcc></extensions></trkpt>
      <trkpt lon="-2.233887" lat="53.123928"><ele>128.277603</ele><time>2022-03-04T13:23:15Z</time><extensions><speed>1.102639</speed><course>189.562042</course><hAcc>1.684145</hAcc><vAcc>0.825232</vAcc></extensions></trkpt>
      <trkpt lon="-2.233890" lat="53.123918"><ele>128.268158</ele><time>2022-03-04T13:23:16Z</time><extensions><speed>1.157694</speed><course>190.073395</course><hAcc>1.640590</hAcc><vAcc>0.825286</vAcc></extensions></trkpt>
      <trkpt lon="-2.233893" lat="53.123907"><ele>128.268890</ele><time>2022-03-04T13:23:17Z</time><extensions><speed>1.225974</speed><course>191.353607</course><hAcc>1.618249</hAcc><vAcc>0.825348</vAcc></extensions></trkpt>
      <trkpt lon="-2.233897" lat="53.123896"><ele>128.263992</ele><time>2022-03-04T13:23:18Z</time><extensions><speed>1.361767</speed><course>192.615021</course><hAcc>1.633970</hAcc><vAcc>0.825410</vAcc></extensions></trkpt>
      <trkpt lon="-2.233902" lat="53.123883"><ele>128.251114</ele><time>2022-03-04T13:23:19Z</time><extensions><speed>1.434411</speed><course>193.265274</course><hAcc>1.642743</hAcc><vAcc>0.825509</vAcc></extensions></trkpt>
      <trkpt lon="-2.233907" lat="53.123871"><ele>128.224274</ele><time>2022-03-04T13:23:20Z</time><extensions><speed>1.382020</speed><course>192.835648</course><hAcc>1.651270</hAcc><vAcc>0.825617</vAcc></extensions></trkpt>
      <trkpt lon="-2.233912" lat="53.123859"><ele>128.188797</ele><time>2022-03-04T13:23:21Z</time><extensions><speed>1.271627</speed><course>193.764267</course><hAcc>1.665497</hAcc><vAcc>0.825695</vAcc></extensions></trkpt>
      <trkpt lon="-2.233916" lat="53.123848"><ele>128.159485</ele><time>2022-03-04T13:23:22Z</time><extensions><speed>1.271181</speed><course>194.148529</course><hAcc>1.653323</hAcc><vAcc>0.825770</vAcc></extensions></trkpt>
      <trkpt lon="-2.233921" lat="53.123837"><ele>128.139740</ele><time>2022-03-04T13:23:23Z</time><extensions><speed>1.355654</speed><course>195.371307</course><hAcc>1.646533</hAcc><vAcc>0.825873</vAcc></extensions></trkpt>
      <trkpt lon="-2.233927" lat="53.123825"><ele>128.122192</ele><time>2022-03-04T13:23:24Z</time><extensions><speed>1.361362</speed><course>195.586807</course><hAcc>1.641535</hAcc><vAcc>0.825942</vAcc></extensions></trkpt>
      <trkpt lon="-2.233933" lat="53.123812"><ele>128.095749</ele><time>2022-03-04T13:23:25Z</time><extensions><speed>1.477626</speed><course>196.729187</course><hAcc>1.651338</hAcc><vAcc>0.825986</vAcc></extensions></trkpt>
      <trkpt lon="-2.233939" lat="53.123799"><ele>128.076218</ele><time>2022-03-04T13:23:26Z</time><extensions><speed>1.496720</speed><course>196.603165</course><hAcc>1.656810</hAcc><vAcc>0.825996</vAcc></extensions></trkpt>
      <trkpt lon="-2.233945" lat="53.123787"><ele>128.055420</ele><time>2022-03-04T13:23:27Z</time><extensions><speed>1.383207</speed><course>197.079666</course><hAcc>1.649172</hAcc><vAcc>0.826018</vAcc></extensions></trkpt>
      <trkpt lon="-2.233952" lat="53.123775"><ele>128.025208</ele><time>2022-03-04T13:23:28Z</time><extensions><speed>1.324216</speed><course>197.947556</course><hAcc>1.652378</hAcc><vAcc>0.825987</vAcc></extensions></trkpt>
      <trkpt lon="-2.233958" lat="53.123764"><ele>127.983131</ele><time>2022-03-04T13:23:29Z</time><extensions><speed>1.324898</speed><course>196.105057</course><hAcc>1.661524</hAcc><vAcc>0.825998</vAcc></extensions></trkpt>
      <trkpt lon="-2.233963" lat="53.123752"><ele>127.957062</ele><time>2022-03-04T13:23:30Z</time><extensions><speed>1.303691</speed><course>194.200058</course><hAcc>1.657408</hAcc><vAcc>0.825984</vAcc></extensions></trkpt>
      <trkpt lon="-2.233968" lat="53.123741"><ele>127.921371</ele><time>2022-03-04T13:23:31Z</time><extensions><speed>1.327634</speed><course>194.321945</course><hAcc>1.649911</hAcc><vAcc>0.825963</vAcc></extensions></trkpt>
      <trkpt lon="-2.233973" lat="53.123729"><ele>127.912964</ele><time>2022-03-04T13:23:32Z</time><extensions><speed>1.353875</speed><course>196.625748</course><hAcc>1.658063</hAcc><vAcc>0.825974</vAcc></extensions></trkpt>
      <trkpt lon="-2.233979" lat="53.123717"><ele>127.899551</ele><time>2022-03-04T13:23:33Z</time><extensions><speed>1.358148</speed><course>198.463470</course><hAcc>1.677813</hAcc><vAcc>0.825965</vAcc></extensions></trkpt>
      <trkpt lon="-2.233986" lat="53.123705"><ele>127.871384</ele><time>2022-03-04T13:23:34Z</time><extensions><speed>1.387280</speed><course>198.156815</course><hAcc>1.656933</hAcc><vAcc>0.825961</vAcc></extensions></trkpt>
      <trkpt lon="-2.233992" lat="53.123693"><ele>127.849556</ele><time>2022-03-04T13:23:35Z</time><extensions><speed>1.351308</speed><course>197.622940</course><hAcc>1.646666</hAcc><vAcc>0.825995</vAcc></extensions></trkpt>
      <trkpt lon="-2.233999" lat="53.123682"><ele>127.821129</ele><time>2022-03-04T13:23:36Z</time><extensions><speed>1.333326</speed><course>199.013611</course><hAcc>1.638240</hAcc><vAcc>0.826040</vAcc></extensions></trkpt>
      <trkpt lon="-2.234005" lat="53.123671"><ele>127.791214</ele><time>2022-03-04T13:23:37Z</time><extensions><speed>1.255691</speed><course>199.916672</course><hAcc>1.626649</hAcc><vAcc>0.826081</vAcc></extensions></trkpt>
      <trkpt lon="-2.234012" lat="53.123660"><ele>127.758781</ele><time>2022-03-04T13:23:38Z</time><extensions><speed>1.201816</speed><course>198.554291</course><hAcc>1.616248</hAcc><vAcc>0.826132</vAcc></extensions></trkpt>
      <trkpt lon="-2.234017" lat="53.123650"><ele>127.726021</ele><time>2022-03-04T13:23:39Z</time><extensions><speed>1.120456</speed><course>196.098572</course><hAcc>1.626352</hAcc><vAcc>0.826183</vAcc></extensions></trkpt>
      <trkpt lon="-2.234022" lat="53.123640"><ele>127.686287</ele><time>2022-03-04T13:23:40Z</time><extensions><speed>1.140276</speed><course>196.335587</course><hAcc>1.630077</hAcc><vAcc>0.826292</vAcc></extensions></trkpt>
      <trkpt lon="-2.234027" lat="53.123630"><ele>127.639671</ele><time>2022-03-04T13:23:41Z</time><extensions><speed>1.129213</speed><course>197.433838</course><hAcc>1.644694</hAcc><vAcc>0.826361</vAcc></extensions></trkpt>
      <trkpt lon="-2.234032" lat="53.123619"><ele>127.600296</ele><time>2022-03-04T13:23:42Z</time><extensions><speed>1.368117</speed><course>199.307510</course><hAcc>1.607213</hAcc><vAcc>0.826394</vAcc></extensions></trkpt>
      <trkpt lon="-2.234040" lat="53.123608"><ele>127.557396</ele><time>2022-03-04T13:23:43Z</time><extensions><speed>1.388572</speed><course>200.473175</course><hAcc>1.592245</hAcc><vAcc>0.826444</vAcc></extensions></trkpt>
      <trkpt lon="-2.234047" lat="53.123596"><ele>127.524437</ele><time>2022-03-04T13:23:44Z</time><extensions><speed>1.337207</speed><course>200.462204</course><hAcc>1.604898</hAcc><vAcc>0.826482</vAcc></extensions></trkpt>
      <trkpt lon="-2.234054" lat="53.123585"><ele>127.484131</ele><time>2022-03-04T13:23:45Z</time><extensions><speed>1.248122</speed><course>202.034409</course><hAcc>1.631509</hAcc><vAcc>0.826487</vAcc></extensions></trkpt>
      <trkpt lon="-2.234061" lat="53.123575"><ele>127.441292</ele><time>2022-03-04T13:23:46Z</time><extensions><speed>1.222419</speed><course>202.699203</course><hAcc>1.645103</hAcc><vAcc>0.826505</vAcc></extensions></trkpt>
      <trkpt lon="-2.234068" lat="53.123564"><ele>127.403679</ele><time>2022-03-04T13:23:47Z</time><extensions><speed>1.372939</speed><course>202.583237</course><hAcc>1.638237</hAcc><vAcc>0.826515</vAcc></extensions></trkpt>
      <trkpt lon="-2.234076" lat="53.123552"><ele>127.374542</ele><time>2022-03-04T13:23:48Z</time><extensions><speed>1.440306</speed><course>201.859772</course><hAcc>1.623194</hAcc><vAcc>0.826513</vAcc></extensions></trkpt>
      <trkpt lon="-2.234084" lat="53.123540"><ele>127.358131</ele><time>2022-03-04T13:23:49Z</time><extensions><speed>1.362937</speed><course>200.467239</course><hAcc>1.624192</hAcc><vAcc>0.826520</vAcc></extensions></trkpt>
      <trkpt lon="-2.234091" lat="53.123529"><ele>127.346771</ele><time>2022-03-04T13:23:50Z</time><extensions><speed>1.294205</speed><course>199.893372</course><hAcc>1.631237</hAcc><vAcc>0.826516</vAcc></extensions></trkpt>
      <trkpt lon="-2.234098" lat="53.123517"><ele>127.339043</ele><time>2022-03-04T13:23:51Z</time><extensions><speed>1.409767</speed><course>199.136536</course><hAcc>1.615114</hAcc><vAcc>0.826507</vAcc></extensions></trkpt>
      <trkpt lon="-2.234104" lat="53.123505"><ele>127.334892</ele><time>2022-03-04T13:23:52Z</time><extensions><speed>1.347964</speed><course>198.085693</course><hAcc>1.619881</hAcc><vAcc>0.826505</vAcc></extensions></trkpt>
      <trkpt lon="-2.234110" lat="53.123495"><ele>127.337723</ele><time>2022-03-04T13:23:53Z</time><extensions><speed>1.146294</speed><course>197.097015</course><hAcc>1.655410</hAcc><vAcc>0.826527</vAcc></extensions></trkpt>
      <trkpt lon="-2.234116" lat="53.123484"><ele>127.357643</ele><time>2022-03-04T13:23:54Z</time><extensions><speed>1.324005</speed><course>199.488190</course><hAcc>1.645883</hAcc><vAcc>0.826555</vAcc></extensions></trkpt>
      <trkpt lon="-2.234123" lat="53.123472"><ele>127.378021</ele><time>2022-03-04T13:23:55Z</time><extensions><speed>1.432014</speed><course>200.393066</course><hAcc>1.626475</hAcc><vAcc>0.826612</vAcc></extensions></trkpt>
      <trkpt lon="-2.234130" lat="53.123460"><ele>127.407104</ele><time>2022-03-04T13:23:56Z</time><extensions><speed>1.414063</speed><course>199.439575</course><hAcc>1.634260</hAcc><vAcc>0.826681</vAcc></extensions></trkpt>
      <trkpt lon="-2.234137" lat="53.123448"><ele>127.453903</ele><time>2022-03-04T13:23:57Z</time><extensions><speed>1.392971</speed><course>198.325821</course><hAcc>1.643328</hAcc><vAcc>0.826818</vAcc></extensions></trkpt>
      <trkpt lon="-2.234144" lat="53.123436"><ele>127.500359</ele><time>2022-03-04T13:23:58Z</time><extensions><speed>1.423621</speed><course>198.157257</course><hAcc>1.653229</hAcc><vAcc>0.826968</vAcc></extensions></trkpt>
      <trkpt lon="-2.234151" lat="53.123424"><ele>127.557999</ele><time>2022-03-04T13:23:59Z</time><extensions><speed>1.404625</speed><course>198.525085</course><hAcc>1.657627</hAcc><vAcc>0.827115</vAcc></extensions></trkpt>
      <trkpt lon="-2.234157" lat="53.123413"><ele>127.625549</ele><time>2022-03-04T13:24:00Z</time><extensions><speed>1.299029</speed><course>198.727036</course><hAcc>1.659778</hAcc><vAcc>0.827287</vAcc></extensions></trkpt>
      <trkpt lon="-2.234164" lat="53.123402"><ele>127.699188</ele><time>2022-03-04T13:24:01Z</time><extensions><speed>1.272716</speed><course>200.945801</course><hAcc>1.659123</hAcc><vAcc>0.827497</vAcc></extensions></trkpt>
      <trkpt lon="-2.234171" lat="53.123391"><ele>127.787773</ele><time>2022-03-04T13:24:02Z</time><extensions><speed>1.279080</speed><course>201.898315</course><hAcc>1.658754</hAcc><vAcc>0.827689</vAcc></extensions></trkpt>
      <trkpt lon="-2.234178" lat="53.123381"><ele>127.874115</ele><time>2022-03-04T13:24:03Z</time><extensions><speed>1.270977</speed><course>202.644501</course><hAcc>1.649420</hAcc><vAcc>0.827880</vAcc></extensions></trkpt>
      <trkpt lon="-2.234186" lat="53.123370"><ele>127.970047</ele><time>2022-03-04T13:24:04Z</time><extensions><speed>1.296708</speed><course>203.177032</course><hAcc>1.636783</hAcc><vAcc>0.828094</vAcc></extensions></trkpt>
      <trkpt lon="-2.234193" lat="53.123359"><ele>128.069611</ele><time>2022-03-04T13:24:05Z</time><extensions><speed>1.233343</speed><course>203.653641</course><hAcc>1.631431</hAcc><vAcc>0.828278</vAcc></extensions></trkpt>
      <trkpt lon="-2.234201" lat="53.123350"><ele>128.172195</ele><time>2022-03-04T13:24:06Z</time><extensions><speed>1.158947</speed><course>203.742203</course><hAcc>1.626146</hAcc><vAcc>0.828469</vAcc></extensions></trkpt>
      <trkpt lon="-2.234207" lat="53.123340"><ele>128.282623</ele><time>2022-03-04T13:24:08Z</time><extensions><speed>1.091351</speed><course>203.607590</course><hAcc>1.644495</hAcc><vAcc>0.828653</vAcc></extensions></trkpt>
      <trkpt lon="-2.234214" lat="53.123331"><ele>128.381805</ele><time>2022-03-04T13:24:09Z</time><extensions><speed>1.145651</speed><course>203.052505</course><hAcc>1.641674</hAcc><vAcc>0.828773</vAcc></extensions></trkpt>
      <trkpt lon="-2.234221" lat="53.123322"><ele>128.462021</ele><time>2022-03-04T13:24:10Z</time><extensions><speed>1.099469</speed><course>204.022461</course><hAcc>1.624035</hAcc><vAcc>0.828867</vAcc></extensions></trkpt>
      <trkpt lon="-2.234228" lat="53.123312"><ele>128.554596</ele><time>2022-03-04T13:24:11Z</time><extensions><speed>1.169427</speed><course>205.846756</course><hAcc>1.627227</hAcc><vAcc>0.828969</vAcc></extensions></trkpt>
      <trkpt lon="-2.234236" lat="53.123303"><ele>128.630859</ele><time>2022-03-04T13:24:12Z</time><extensions><speed>1.274014</speed><course>207.010986</course><hAcc>1.644292</hAcc><vAcc>0.829041</vAcc></extensions></trkpt>
      <trkpt lon="-2.234245" lat="53.123292"><ele>128.693222</ele><time>2022-03-04T13:24:13Z</time><extensions><speed>1.319784</speed><course>208.259491</course><hAcc>1.642319</hAcc><vAcc>0.829083</vAcc></extensions></trkpt>
      <trkpt lon="-2.234254" lat="53.123281"><ele>128.755661</ele><time>2022-03-04T13:24:14Z</time><extensions><speed>1.384040</speed><course>207.138245</course><hAcc>1.639130</hAcc><vAcc>0.829130</vAcc></extensions></trkpt>
      <trkpt lon="-2.234264" lat="53.123270"><ele>128.817368</ele><time>2022-03-04T13:24:15Z</time><extensions><speed>1.464912</speed><course>207.235306</course><hAcc>1.634353</hAcc><vAcc>0.829168</vAcc></extensions></trkpt>
      <trkpt lon="-2.234274" lat="53.123258"><ele>128.860291</ele><time>2022-03-04T13:24:16Z</time><extensions><speed>1.514472</speed><course>207.198563</course><hAcc>1.629665</hAcc><vAcc>0.829185</vAcc></extensions></trkpt>
      <trkpt lon="-2.234285" lat="53.123246"><ele>128.891922</ele><time>2022-03-04T13:24:17Z</time><extensions><speed>1.559446</speed><course>208.751022</course><hAcc>1.637721</hAcc><vAcc>0.829179</vAcc></extensions></trkpt>
      <trkpt lon="-2.234297" lat="53.123234"><ele>128.935440</ele><time>2022-03-04T13:24:18Z</time><extensions><speed>1.464439</speed><course>209.973557</course><hAcc>1.654097</hAcc><vAcc>0.829155</vAcc></extensions></trkpt>
      <trkpt lon="-2.234307" lat="53.123223"><ele>128.980515</ele><time>2022-03-04T13:24:19Z</time><extensions><speed>1.336786</speed><course>208.203293</course><hAcc>1.627261</hAcc><vAcc>0.829132</vAcc></extensions></trkpt>
      <trkpt lon="-2.234315" lat="53.123213"><ele>129.001801</ele><time>2022-03-04T13:24:20Z</time><extensions><speed>1.167264</speed><course>205.152756</course><hAcc>1.620240</hAcc><vAcc>0.829100</vAcc></extensions></trkpt>
      <trkpt lon="-2.234322" lat="53.123204"><ele>129.018906</ele><time>2022-03-04T13:24:21Z</time><extensions><speed>1.054599</speed><course>200.865662</course><hAcc>1.632975</hAcc><vAcc>0.829063</vAcc></extensions></trkpt>
      <trkpt lon="-2.234327" lat="53.123195"><ele>129.036072</ele><time>2022-03-04T13:24:22Z</time><extensions><speed>1.040248</speed><course>195.681091</course><hAcc>1.629777</hAcc><vAcc>0.829064</vAcc></extensions></trkpt>
      <trkpt lon="-2.234332" lat="53.123185"><ele>129.062057</ele><time>2022-03-04T13:24:23Z</time><extensions><speed>1.185756</speed><course>197.812164</course><hAcc>1.632813</hAcc><vAcc>0.829049</vAcc></extensions></trkpt>
      <trkpt lon="-2.234338" lat="53.123174"><ele>129.078110</ele><time>2022-03-04T13:24:24Z</time><extensions><speed>1.312042</speed><course>201.949081</course><hAcc>1.644885</hAcc><vAcc>0.829051</vAcc></extensions></trkpt>
      <trkpt lon="-2.234346" lat="53.123163"><ele>129.083618</ele><time>2022-03-04T13:24:25Z</time><extensions><speed>1.387890</speed><course>205.200409</course><hAcc>1.645942</hAcc><vAcc>0.829068</vAcc></extensions></trkpt>
      <trkpt lon="-2.234356" lat="53.123152"><ele>129.090866</ele><time>2022-03-04T13:24:26Z</time><extensions><speed>1.404292</speed><course>208.814529</course><hAcc>1.648894</hAcc><vAcc>0.829085</vAcc></extensions></trkpt>
      <trkpt lon="-2.234366" lat="53.123141"><ele>129.099335</ele><time>2022-03-04T13:24:27Z</time><extensions><speed>1.383041</speed><course>211.719360</course><hAcc>1.657649</hAcc><vAcc>0.829141</vAcc></extensions></trkpt>
      <trkpt lon="-2.234378" lat="53.123131"><ele>129.093475</ele><time>2022-03-04T13:24:28Z</time><extensions><speed>1.406895</speed><course>212.815811</course><hAcc>1.659094</hAcc><vAcc>0.829209</vAcc></extensions></trkpt>
      <trkpt lon="-2.234389" lat="53.123120"><ele>129.101089</ele><time>2022-03-04T13:24:29Z</time><extensions><speed>1.391315</speed><course>212.281967</course><hAcc>1.661075</hAcc><vAcc>0.829317</vAcc></extensions></trkpt>
      <trkpt lon="-2.234400" lat="53.123110"><ele>129.089203</ele><time>2022-03-04T13:24:30Z</time><extensions><speed>1.317099</speed><course>212.011414</course><hAcc>1.663002</hAcc><vAcc>0.829405</vAcc></extensions></trkpt>
      <trkpt lon="-2.234410" lat="53.123100"><ele>129.073471</ele><time>2022-03-04T13:24:31Z</time><extensions><speed>1.287290</speed><course>212.978027</course><hAcc>1.661708</hAcc><vAcc>0.829477</vAcc></extensions></trkpt>
      <trkpt lon="-2.234420" lat="53.123090"><ele>129.046082</ele><time>2022-03-04T13:24:32Z</time><extensions><speed>1.224201</speed><course>212.823120</course><hAcc>1.658862</hAcc><vAcc>0.829534</vAcc></extensions></trkpt>
      <trkpt lon="-2.234431" lat="53.123081"><ele>129.013382</ele><time>2022-03-04T13:24:33Z</time><extensions><speed>1.263421</speed><course>214.072922</course><hAcc>1.650413</hAcc><vAcc>0.829616</vAcc></extensions></trkpt>
      <trkpt lon="-2.234441" lat="53.123071"><ele>128.975464</ele><time>2022-03-04T13:24:34Z</time><extensions><speed>1.313829</speed><course>213.271378</course><hAcc>1.655185</hAcc><vAcc>0.829661</vAcc></extensions></trkpt>
      <trkpt lon="-2.234451" lat="53.123061"><ele>128.947678</ele><time>2022-03-04T13:24:35Z</time><extensions><speed>1.293028</speed><course>209.453476</course><hAcc>1.664573</hAcc><vAcc>0.829697</vAcc></extensions></trkpt>
      <trkpt lon="-2.234460" lat="53.123051"><ele>128.915848</ele><time>2022-03-04T13:24:36Z</time><extensions><speed>1.216293</speed><course>205.638168</course><hAcc>1.652147</hAcc><vAcc>0.829704</vAcc></extensions></trkpt>
      <trkpt lon="-2.234468" lat="53.123041"><ele>128.869995</ele><time>2022-03-04T13:24:37Z</time><extensions><speed>1.168892</speed><course>205.874817</course><hAcc>1.650268</hAcc><vAcc>0.829697</vAcc></extensions></trkpt>
      <trkpt lon="-2.234476" lat="53.123032"><ele>128.834213</ele><time>2022-03-04T13:24:38Z</time><extensions><speed>1.173040</speed><course>207.101349</course><hAcc>1.653516</hAcc><vAcc>0.829672</vAcc></extensions></trkpt>
      <trkpt lon="-2.234484" lat="53.123022"><ele>128.789703</ele><time>2022-03-04T13:24:39Z</time><extensions><speed>1.301893</speed><course>207.001434</course><hAcc>1.656766</hAcc><vAcc>0.829635</vAcc></extensions></trkpt>
      <trkpt lon="-2.234493" lat="53.123011"><ele>128.746109</ele><time>2022-03-04T13:24:40Z</time><extensions><speed>1.356973</speed><course>205.620575</course><hAcc>1.662207</hAcc><vAcc>0.829581</vAcc></extensions></trkpt>
      <trkpt lon="-2.234502" lat="53.123000"><ele>128.700378</ele><time>2022-03-04T13:24:41Z</time><extensions><speed>1.367735</speed><course>205.828934</course><hAcc>1.662012</hAcc><vAcc>0.829506</vAcc></extensions></trkpt>
      <trkpt lon="-2.234511" lat="53.122989"><ele>128.667801</ele><time>2022-03-04T13:24:42Z</time><extensions><speed>1.386292</speed><course>203.520493</course><hAcc>1.665954</hAcc><vAcc>0.829424</vAcc></extensions></trkpt>
      <trkpt lon="-2.234519" lat="53.122978"><ele>128.630737</ele><time>2022-03-04T13:24:43Z</time><extensions><speed>1.352972</speed><course>203.401215</course><hAcc>1.671211</hAcc><vAcc>0.829329</vAcc></extensions></trkpt>
      <trkpt lon="-2.234527" lat="53.122967"><ele>128.590790</ele><time>2022-03-04T13:24:44Z</time><extensions><speed>1.264562</speed><course>204.532425</course><hAcc>1.671948</hAcc><vAcc>0.829222</vAcc></extensions></trkpt>
      <trkpt lon="-2.234535" lat="53.122957"><ele>128.567291</ele><time>2022-03-04T13:24:45Z</time><extensions><speed>1.241693</speed><course>205.852707</course><hAcc>1.671109</hAcc><vAcc>0.829121</vAcc></extensions></trkpt>
      <trkpt lon="-2.234543" lat="53.122947"><ele>128.557297</ele><time>2022-03-04T13:24:46Z</time><extensions><speed>1.213930</speed><course>205.998764</course><hAcc>1.675315</hAcc><vAcc>0.829029</vAcc></extensions></trkpt>
      <trkpt lon="-2.234551" lat="53.122937"><ele>128.544724</ele><time>2022-03-04T13:24:47Z</time><extensions><speed>1.241832</speed><course>205.492615</course><hAcc>1.675616</hAcc><vAcc>0.828942</vAcc></extensions></trkpt>
      <trkpt lon="-2.234559" lat="53.122927"><ele>128.527573</ele><time>2022-03-04T13:24:48Z</time><extensions><speed>1.212821</speed><course>205.086197</course><hAcc>1.673475</hAcc><vAcc>0.828855</vAcc></extensions></trkpt>
      <trkpt lon="-2.234567" lat="53.122917"><ele>128.498901</ele><time>2022-03-04T13:24:49Z</time><extensions><speed>1.251976</speed><course>207.199219</course><hAcc>1.671947</hAcc><vAcc>0.828774</vAcc></extensions></trkpt>
      <trkpt lon="-2.234576" lat="53.122907"><ele>128.469666</ele><time>2022-03-04T13:24:50Z</time><extensions><speed>1.283454</speed><course>208.323273</course><hAcc>1.669882</hAcc><vAcc>0.828690</vAcc></extensions></trkpt>
      <trkpt lon="-2.234585" lat="53.122897"><ele>128.439087</ele><time>2022-03-04T13:24:51Z</time><extensions><speed>1.254025</speed><course>209.969208</course><hAcc>1.667795</hAcc><vAcc>0.828675</vAcc></extensions></trkpt>
      <trkpt lon="-2.234594" lat="53.122887"><ele>128.415955</ele><time>2022-03-04T13:24:52Z</time><extensions><speed>1.201706</speed><course>209.070160</course><hAcc>1.669599</hAcc><vAcc>0.828656</vAcc></extensions></trkpt>
      <trkpt lon="-2.234603" lat="53.122877"><ele>128.373611</ele><time>2022-03-04T13:24:53Z</time><extensions><speed>1.254931</speed><course>207.630676</course><hAcc>1.668223</hAcc><vAcc>0.828652</vAcc></extensions></trkpt>
      <trkpt lon="-2.234612" lat="53.122867"><ele>128.330780</ele><time>2022-03-04T13:24:54Z</time><extensions><speed>1.358726</speed><course>207.214767</course><hAcc>1.662604</hAcc><vAcc>0.828649</vAcc></extensions></trkpt>
      <trkpt lon="-2.234621" lat="53.122856"><ele>128.283920</ele><time>2022-03-04T13:24:55Z</time><extensions><speed>1.387882</speed><course>207.267776</course><hAcc>1.662165</hAcc><vAcc>0.828653</vAcc></extensions></trkpt>
      <trkpt lon="-2.234630" lat="53.122845"><ele>128.226044</ele><time>2022-03-04T13:24:56Z</time><extensions><speed>1.275831</speed><course>207.227692</course><hAcc>1.649362</hAcc><vAcc>0.828652</vAcc></extensions></trkpt>
      <trkpt lon="-2.234638" lat="53.122835"><ele>128.172607</ele><time>2022-03-04T13:24:57Z</time><extensions><speed>1.101535</speed><course>205.729599</course><hAcc>1.643394</hAcc><vAcc>0.828654</vAcc></extensions></trkpt>
      <trkpt lon="-2.234645" lat="53.122827"><ele>128.128952</ele><time>2022-03-04T13:24:57Z</time><extensions><speed>0.987913</speed><course>204.088684</course><hAcc>1.641859</hAcc><vAcc>0.828664</vAcc></extensions></trkpt>
      <trkpt lon="-2.234651" lat="53.122818"><ele>128.098419</ele><time>2022-03-04T13:24:58Z</time><extensions><speed>0.982365</speed><course>202.344772</course><hAcc>1.629911</hAcc><vAcc>0.828697</vAcc></extensions></trkpt>
      <trkpt lon="-2.234657" lat="53.122810"><ele>128.069366</ele><time>2022-03-04T13:24:59Z</time><extensions><speed>1.042753</speed><course>202.201965</course><hAcc>1.634117</hAcc><vAcc>0.828712</vAcc></extensions></trkpt>
      <trkpt lon="-2.234663" lat="53.122801"><ele>128.052185</ele><time>2022-03-04T13:25:00Z</time><extensions><speed>1.021231</speed><course>203.764954</course><hAcc>1.657491</hAcc><vAcc>0.828723</vAcc></extensions></trkpt>
      <trkpt lon="-2.234669" lat="53.122792"><ele>128.018784</ele><time>2022-03-04T13:25:01Z</time><extensions><speed>1.108495</speed><course>203.096451</course><hAcc>1.631104</hAcc><vAcc>0.828713</vAcc></extensions></trkpt>
      <trkpt lon="-2.234676" lat="53.122783"><ele>127.993172</ele><time>2022-03-04T13:25:02Z</time><extensions><speed>1.207313</speed><course>202.089630</course><hAcc>1.628832</hAcc><vAcc>0.828693</vAcc></extensions></trkpt>
      <trkpt lon="-2.234682" lat="53.122773"><ele>127.985817</ele><time>2022-03-04T13:25:03Z</time><extensions><speed>1.148831</speed><course>199.277603</course><hAcc>1.634922</hAcc><vAcc>0.828654</vAcc></extensions></trkpt>
      <trkpt lon="-2.234688" lat="53.122763"><ele>127.974876</ele><time>2022-03-04T13:25:04Z</time><extensions><speed>1.178354</speed><course>198.244324</course><hAcc>1.642364</hAcc><vAcc>0.828598</vAcc></extensions></trkpt>
      <trkpt lon="-2.234693" lat="53.122753"><ele>127.969292</ele><time>2022-03-04T13:25:05Z</time><extensions><speed>1.221376</speed><course>198.201752</course><hAcc>1.651805</hAcc><vAcc>0.828504</vAcc></extensions></trkpt>
      <trkpt lon="-2.234700" lat="53.122742"><ele>127.956268</ele><time>2022-03-04T13:25:06Z</time><extensions><speed>1.235953</speed><course>199.931885</course><hAcc>1.656987</hAcc><vAcc>0.828334</vAcc></extensions></trkpt>
      <trkpt lon="-2.234706" lat="53.122732"><ele>127.954872</ele><time>2022-03-04T13:25:07Z</time><extensions><speed>1.285933</speed><course>201.982437</course><hAcc>1.657552</hAcc><vAcc>0.828040</vAcc></extensions></trkpt>
      <trkpt lon="-2.234714" lat="53.122721"><ele>127.957878</ele><time>2022-03-04T13:25:08Z</time><extensions><speed>1.257592</speed><course>202.709045</course><hAcc>1.655722</hAcc><vAcc>0.827552</vAcc></extensions></trkpt>
      <trkpt lon="-2.234721" lat="53.122711"><ele>127.960594</ele><time>2022-03-04T13:25:09Z</time><extensions><speed>1.179972</speed><course>202.035736</course><hAcc>1.657915</hAcc><vAcc>0.826783</vAcc></extensions></trkpt>
      <trkpt lon="-2.234727" lat="53.122701"><ele>127.962692</ele><time>2022-03-04T13:25:10Z</time><extensions><speed>1.056265</speed><course>201.166687</course><hAcc>1.659653</hAcc><vAcc>0.825508</vAcc></extensions></trkpt>
      <trkpt lon="-2.234732" lat="53.122693"><ele>127.956070</ele><time>2022-03-04T13:25:11Z</time><extensions><speed>0.831972</speed><course>202.649170</course><hAcc>1.652328</hAcc><vAcc>0.823973</vAcc></extensions></trkpt>
      <trkpt lon="-2.234736" lat="53.122687"><ele>127.936150</ele><time>2022-03-04T13:25:12Z</time><extensions><speed>0.703781</speed><course>202.563721</course><hAcc>1.645791</hAcc><vAcc>0.822514</vAcc></extensions></trkpt>
      <trkpt lon="-2.234740" lat="53.122682"><ele>127.916336</ele><time>2022-03-04T13:25:13Z</time><extensions><speed>0.527453</speed><course>205.041626</course><hAcc>1.657369</hAcc><vAcc>0.820915</vAcc></extensions></trkpt>
      <trkpt lon="-2.234743" lat="53.122679"><ele>127.898743</ele><time>2022-03-04T13:25:14Z</time><extensions><speed>0.241406</speed><course>212.708160</course><hAcc>1.705699</hAcc><vAcc>0.819234</vAcc></extensions></trkpt>
      <trkpt lon="-2.234745" lat="53.122677"><ele>127.869316</ele><time>2022-03-04T13:25:15Z</time><extensions><speed>0.264828</speed><course>223.836975</course><hAcc>1.701960</hAcc><vAcc>0.817499</vAcc></extensions></trkpt>
      <trkpt lon="-2.234749" lat="53.122675"><ele>127.846977</ele><time>2022-03-04T13:25:16Z</time><extensions><speed>0.499198</speed><course>229.970963</course><hAcc>1.667117</hAcc><vAcc>0.815808</vAcc></extensions></trkpt>
      <trkpt lon="-2.234756" lat="53.122671"><ele>127.813271</ele><time>2022-03-04T13:25:17Z</time><extensions><speed>0.661324</speed><course>221.000854</course><hAcc>1.683879</hAcc><vAcc>0.814234</vAcc></extensions></trkpt>
      <trkpt lon="-2.234762" lat="53.122665"><ele>127.788727</ele><time>2022-03-04T13:25:18Z</time><extensions><speed>0.896451</speed><course>210.834122</course><hAcc>1.726698</hAcc><vAcc>0.812918</vAcc></extensions></trkpt>
      <trkpt lon="-2.234770" lat="53.122657"><ele>127.767334</ele><time>2022-03-04T13:25:19Z</time><extensions><speed>1.201580</speed><course>205.243423</course><hAcc>1.736552</hAcc><vAcc>0.811963</vAcc></extensions></trkpt>
      <trkpt lon="-2.234778" lat="53.122646"><ele>127.747696</ele><time>2022-03-04T13:25:20Z</time><extensions><speed>1.459130</speed><course>204.286743</course><hAcc>1.718986</hAcc><vAcc>0.811455</vAcc></extensions></trkpt>
      <trkpt lon="-2.234788" lat="53.122634"><ele>127.728683</ele><time>2022-03-04T13:25:21Z</time><extensions><speed>1.527598</speed><course>206.260010</course><hAcc>1.708164</hAcc><vAcc>0.811480</vAcc></extensions></trkpt>
      <trkpt lon="-2.234798" lat="53.122622"><ele>127.716400</ele><time>2022-03-04T13:25:22Z</time><extensions><speed>1.364395</speed><course>211.261002</course><hAcc>1.717421</hAcc><vAcc>0.812011</vAcc></extensions></trkpt>
      <trkpt lon="-2.234808" lat="53.122613"><ele>127.709328</ele><time>2022-03-04T13:25:23Z</time><extensions><speed>1.090486</speed><course>216.564560</course><hAcc>1.709050</hAcc><vAcc>0.812950</vAcc></extensions></trkpt>
      <trkpt lon="-2.234818" lat="53.122606"><ele>127.703827</ele><time>2022-03-04T13:25:24Z</time><extensions><speed>1.002852</speed><course>223.480774</course><hAcc>1.698320</hAcc><vAcc>0.814159</vAcc></extensions></trkpt>
      <trkpt lon="-2.234829" lat="53.122600"><ele>127.710007</ele><time>2022-03-04T13:25:25Z</time><extensions><speed>0.982691</speed><course>225.678253</course><hAcc>1.684619</hAcc><vAcc>0.815502</vAcc></extensions></trkpt>
      <trkpt lon="-2.234839" lat="53.122594"><ele>127.726105</ele><time>2022-03-04T13:25:26Z</time><extensions><speed>0.950165</speed><course>226.415726</course><hAcc>1.693834</hAcc><vAcc>0.816891</vAcc></extensions></trkpt>
      <trkpt lon="-2.234849" lat="53.122588"><ele>127.748726</ele><time>2022-03-04T13:25:27Z</time><extensions><speed>0.879580</speed><course>228.835388</course><hAcc>1.688072</hAcc><vAcc>0.818204</vAcc></extensions></trkpt>
      <trkpt lon="-2.234859" lat="53.122584"><ele>127.765083</ele><time>2022-03-04T13:25:28Z</time><extensions><speed>0.767459</speed><course>236.610809</course><hAcc>1.686217</hAcc><vAcc>0.819422</vAcc></extensions></trkpt>
      <trkpt lon="-2.234868" lat="53.122581"><ele>127.782867</ele><time>2022-03-04T13:25:29Z</time><extensions><speed>0.545895</speed><course>248.373047</course><hAcc>1.676001</hAcc><vAcc>0.820501</vAcc></extensions></trkpt>
      <trkpt lon="-2.234874" lat="53.122580"><ele>127.802383</ele><time>2022-03-04T13:25:30Z</time><extensions><speed>0.338306</speed><course>264.371490</course><hAcc>1.676577</hAcc><vAcc>0.821394</vAcc></extensions></trkpt>
      <trkpt lon="-2.234878" lat="53.122580"><ele>127.822800</ele><time>2022-03-04T13:25:31Z</time><extensions><speed>0.245776</speed><course>275.685944</course><hAcc>1.695691</hAcc><vAcc>0.822125</vAcc></extensions></trkpt>
      <trkpt lon="-2.234882" lat="53.122580"><ele>127.843330</ele><time>2022-03-04T13:25:32Z</time><extensions><speed>0.172912</speed><course>275.982452</course><hAcc>1.734138</hAcc><vAcc>0.822710</vAcc></extensions></trkpt>
      <trkpt lon="-2.234884" lat="53.122580"><ele>127.870880</ele><time>2022-03-04T13:25:33Z</time><extensions><speed>0.183946</speed><course>270.937927</course><hAcc>1.730832</hAcc><vAcc>0.823144</vAcc></extensions></trkpt>
      <trkpt lon="-2.234887" lat="53.122580"><ele>127.914650</ele><time>2022-03-04T13:25:34Z</time><extensions><speed>0.218604</speed><course>266.674072</course><hAcc>1.709127</hAcc><vAcc>0.823447</vAcc></extensions></trkpt>
      <trkpt lon="-2.234891" lat="53.122580"><ele>127.959320</ele><time>2022-03-04T13:25:35Z</time><extensions><speed>0.211061</speed><course>263.355103</course><hAcc>1.709689</hAcc><vAcc>0.823601</vAcc></extensions></trkpt>
      <trkpt lon="-2.234893" lat="53.122580"><ele>127.993553</ele><time>2022-03-04T13:25:36Z</time><extensions><speed>0.174238</speed><course>261.020905</course><hAcc>1.720715</hAcc><vAcc>0.823728</vAcc></extensions></trkpt>
      <trkpt lon="-2.234896" lat="53.122579"><ele>128.025711</ele><time>2022-03-04T13:25:37Z</time><extensions><speed>0.131110</speed><course>258.401672</course><hAcc>1.727481</hAcc><vAcc>0.823789</vAcc></extensions></trkpt>
      <trkpt lon="-2.234897" lat="53.122579"><ele>128.056671</ele><time>2022-03-04T13:25:38Z</time><extensions><speed>0.099586</speed><course>253.950912</course><hAcc>1.729233</hAcc><vAcc>0.823828</vAcc></extensions></trkpt>
      <trkpt lon="-2.234899" lat="53.122579"><ele>128.086563</ele><time>2022-03-04T13:25:39Z</time><extensions><speed>0.084074</speed><course>248.483871</course><hAcc>1.729450</hAcc><vAcc>0.823843</vAcc></extensions></trkpt>
      <trkpt lon="-2.234900" lat="53.122579"><ele>128.110718</ele><time>2022-03-04T13:25:40Z</time><extensions><speed>0.086927</speed><course>245.014969</course><hAcc>1.727953</hAcc><vAcc>0.823832</vAcc></extensions></trkpt>
      <trkpt lon="-2.234901" lat="53.122578"><ele>128.139511</ele><time>2022-03-04T13:25:41Z</time><extensions><speed>0.094858</speed><course>245.350967</course><hAcc>1.736557</hAcc><vAcc>0.823831</vAcc></extensions></trkpt>
      <trkpt lon="-2.234903" lat="53.122578"><ele>128.169022</ele><time>2022-03-04T13:25:42Z</time><extensions><speed>0.112360</speed><course>249.543243</course><hAcc>1.736546</hAcc><vAcc>0.823815</vAcc></extensions></trkpt>
      <trkpt lon="-2.234905" lat="53.122578"><ele>128.194794</ele><time>2022-03-04T13:25:43Z</time><extensions><speed>0.140250</speed><course>259.219788</course><hAcc>1.715119</hAcc><vAcc>0.823774</vAcc></extensions></trkpt>
      <trkpt lon="-2.234907" lat="53.122578"><ele>128.216156</ele><time>2022-03-04T13:25:44Z</time><extensions><speed>0.149553</speed><course>275.313660</course><hAcc>1.699461</hAcc><vAcc>0.823722</vAcc></extensions></trkpt>
      <trkpt lon="-2.234909" lat="53.122578"><ele>128.228607</ele><time>2022-03-04T13:25:45Z</time><extensions><speed>0.151754</speed><course>291.676208</course><hAcc>1.688195</hAcc><vAcc>0.823679</vAcc></extensions></trkpt>
      <trkpt lon="-2.234911" lat="53.122579"><ele>128.239792</ele><time>2022-03-04T13:25:46Z</time><extensions><speed>0.145840</speed><course>303.349792</course><hAcc>1.680149</hAcc><vAcc>0.823627</vAcc></extensions></trkpt>
      <trkpt lon="-2.234912" lat="53.122579"><ele>128.255966</ele><time>2022-03-04T13:25:47Z</time><extensions><speed>0.124814</speed><course>310.732727</course><hAcc>1.690150</hAcc><vAcc>0.823597</vAcc></extensions></trkpt>
      <trkpt lon="-2.234914" lat="53.122580"><ele>128.260208</ele><time>2022-03-04T13:25:48Z</time><extensions><speed>0.097367</speed><course>315.902740</course><hAcc>1.718108</hAcc><vAcc>0.823553</vAcc></extensions></trkpt>
      <trkpt lon="-2.234915" lat="53.122581"><ele>128.271301</ele><time>2022-03-04T13:25:49Z</time><extensions><speed>0.097450</speed><course>320.544952</course><hAcc>1.724631</hAcc><vAcc>0.823472</vAcc></extensions></trkpt>
      <trkpt lon="-2.234916" lat="53.122582"><ele>128.274918</ele><time>2022-03-04T13:25:50Z</time><extensions><speed>0.147012</speed><course>324.825317</course><hAcc>1.688373</hAcc><vAcc>0.823377</vAcc></extensions></trkpt>
      <trkpt lon="-2.234917" lat="53.122583"><ele>128.285706</ele><time>2022-03-04T13:25:51Z</time><extensions><speed>0.158267</speed><course>328.533722</course><hAcc>1.687702</hAcc><vAcc>0.823280</vAcc></extensions></trkpt>
      <trkpt lon="-2.234918" lat="53.122584"><ele>128.291763</ele><time>2022-03-04T13:25:52Z</time><extensions><speed>0.152251</speed><course>330.402588</course><hAcc>1.712888</hAcc><vAcc>0.823171</vAcc></extensions></trkpt>
      <trkpt lon="-2.234919" lat="53.122585"><ele>128.297348</ele><time>2022-03-04T13:25:53Z</time><extensions><speed>0.148889</speed><course>329.791412</course><hAcc>1.734654</hAcc><vAcc>0.823054</vAcc></extensions></trkpt>
      <trkpt lon="-2.234921" lat="53.122586"><ele>128.297379</ele><time>2022-03-04T13:25:54Z</time><extensions><speed>0.145644</speed><course>326.869110</course><hAcc>1.747201</hAcc><vAcc>0.822945</vAcc></extensions></trkpt>
      <trkpt lon="-2.234922" lat="53.122587"><ele>128.311310</ele><time>2022-03-04T13:25:55Z</time><extensions><speed>0.136413</speed><course>320.464905</course><hAcc>1.753092</hAcc><vAcc>0.822854</vAcc></extensions></trkpt>
      <trkpt lon="-2.234923" lat="53.122588"><ele>128.331451</ele><time>2022-03-04T13:25:56Z</time><extensions><speed>0.113237</speed><course>309.305603</course><hAcc>1.758996</hAcc><vAcc>0.822781</vAcc></extensions></trkpt>
      <trkpt lon="-2.234924" lat="53.122589"><ele>128.346817</ele><time>2022-03-04T13:25:57Z</time><extensions><speed>0.090408</speed><course>291.463257</course><hAcc>1.760542</hAcc><vAcc>0.822739</vAcc></extensions></trkpt>
      <trkpt lon="-2.234926" lat="53.122589"><ele>128.372726</ele><time>2022-03-04T13:25:58Z</time><extensions><speed>0.083819</speed><course>271.013641</course><hAcc>1.761216</hAcc><vAcc>0.822729</vAcc></extensions></trkpt>
      <trkpt lon="-2.234927" lat="53.122589"><ele>128.401733</ele><time>2022-03-04T13:25:59Z</time><extensions><speed>0.090838</speed><course>256.227386</course><hAcc>1.763808</hAcc><vAcc>0.822732</vAcc></extensions></trkpt>
      <trkpt lon="-2.234929" lat="53.122589"><ele>128.428680</ele><time>2022-03-04T13:26:00Z</time><extensions><speed>0.101743</speed><course>257.021545</course><hAcc>1.765348</hAcc><vAcc>0.822752</vAcc></extensions></trkpt>
      <trkpt lon="-2.234930" lat="53.122589"><ele>128.455185</ele><time>2022-03-04T13:26:01Z</time><extensions><speed>0.119144</speed><course>275.194427</course><hAcc>1.764468</hAcc><vAcc>0.822762</vAcc></extensions></trkpt>
      <trkpt lon="-2.234932" lat="53.122589"><ele>128.494614</ele><time>2022-03-04T13:26:02Z</time><extensions><speed>0.154372</speed><course>296.713837</course><hAcc>1.763654</hAcc><vAcc>0.822800</vAcc></extensions></trkpt>
      <trkpt lon="-2.234934" lat="53.122590"><ele>128.534027</ele><time>2022-03-04T13:26:03Z</time><extensions><speed>0.208987</speed><course>310.044220</course><hAcc>1.759021</hAcc><vAcc>0.822857</vAcc></extensions></trkpt>
      <trkpt lon="-2.234937" lat="53.122592"><ele>128.569794</ele><time>2022-03-04T13:26:04Z</time><extensions><speed>0.284792</speed><course>315.634033</course><hAcc>1.752046</hAcc><vAcc>0.822942</vAcc></extensions></trkpt>
      <trkpt lon="-2.234941" lat="53.122595"><ele>128.603226</ele><time>2022-03-04T13:26:05Z</time><extensions><speed>0.468137</speed><course>330.299561</course><hAcc>1.759477</hAcc><vAcc>0.823032</vAcc></extensions></trkpt>
      <trkpt lon="-2.234945" lat="53.122599"><ele>128.651627</ele><time>2022-03-04T13:26:06Z</time><extensions><speed>0.645389</speed><course>332.632812</course><hAcc>1.757542</hAcc><vAcc>0.823100</vAcc></extensions></trkpt>
      <trkpt lon="-2.234950" lat="53.122605"><ele>128.694504</ele><time>2022-03-04T13:26:07Z</time><extensions><speed>0.759444</speed><course>332.389191</course><hAcc>1.754830</hAcc><vAcc>0.823175</vAcc></extensions></trkpt>
      <trkpt lon="-2.234955" lat="53.122611"><ele>128.738312</ele><time>2022-03-04T13:26:08Z</time><extensions><speed>0.837319</speed><course>331.791412</course><hAcc>1.752542</hAcc><vAcc>0.823242</vAcc></extensions></trkpt>
      <trkpt lon="-2.234961" lat="53.122618"><ele>128.782425</ele><time>2022-03-04T13:26:09Z</time><extensions><speed>0.885030</speed><course>331.507385</course><hAcc>1.750304</hAcc><vAcc>0.823310</vAcc></extensions></trkpt>
      <trkpt lon="-2.234968" lat="53.122625"><ele>128.822952</ele><time>2022-03-04T13:26:10Z</time><extensions><speed>0.921770</speed><course>331.460541</course><hAcc>1.745789</hAcc><vAcc>0.823385</vAcc></extensions></trkpt>
      <trkpt lon="-2.234974" lat="53.122632"><ele>128.858597</ele><time>2022-03-04T13:26:11Z</time><extensions><speed>0.928918</speed><course>331.152344</course><hAcc>1.742184</hAcc><vAcc>0.823459</vAcc></extensions></trkpt>
      <trkpt lon="-2.234981" lat="53.122639"><ele>128.900421</ele><time>2022-03-04T13:26:12Z</time><extensions><speed>0.868492</speed><course>330.125244</course><hAcc>1.743362</hAcc><vAcc>0.823556</vAcc></extensions></trkpt>
      <trkpt lon="-2.234987" lat="53.122646"><ele>128.927887</ele><time>2022-03-04T13:26:14Z</time><extensions><speed>0.780090</speed><course>328.741516</course><hAcc>1.742975</hAcc><vAcc>0.823630</vAcc></extensions></trkpt>
      <trkpt lon="-2.234993" lat="53.122651"><ele>128.951263</ele><time>2022-03-04T13:26:15Z</time><extensions><speed>0.675872</speed><course>328.122986</course><hAcc>1.740039</hAcc><vAcc>0.823671</vAcc></extensions></trkpt>
      <trkpt lon="-2.234998" lat="53.122656"><ele>128.962250</ele><time>2022-03-04T13:26:16Z</time><extensions><speed>0.588131</speed><course>328.996246</course><hAcc>1.733158</hAcc><vAcc>0.823713</vAcc></extensions></trkpt>
      <trkpt lon="-2.235002" lat="53.122661"><ele>128.979706</ele><time>2022-03-04T13:26:17Z</time><extensions><speed>0.502805</speed><course>332.654968</course><hAcc>1.731186</hAcc><vAcc>0.823769</vAcc></extensions></trkpt>
      <trkpt lon="-2.235005" lat="53.122665"><ele>128.991913</ele><time>2022-03-04T13:26:18Z</time><extensions><speed>0.415336</speed><course>338.987335</course><hAcc>1.735810</hAcc><vAcc>0.823820</vAcc></extensions></trkpt>
      <trkpt lon="-2.235007" lat="53.122668"><ele>129.006485</ele><time>2022-03-04T13:26:19Z</time><extensions><speed>0.366242</speed><course>345.707947</course><hAcc>1.733364</hAcc><vAcc>0.823884</vAcc></extensions></trkpt>
      <trkpt lon="-2.235008" lat="53.122671"><ele>129.003113</ele><time>2022-03-04T13:26:20Z</time><extensions><speed>0.338074</speed><course>350.615906</course><hAcc>1.729324</hAcc><vAcc>0.823976</vAcc></extensions></trkpt>
      <trkpt lon="-2.235009" lat="53.122674"><ele>128.993469</ele><time>2022-03-04T13:26:21Z</time><extensions><speed>0.332116</speed><course>351.923889</course><hAcc>1.727368</hAcc><vAcc>0.824083</vAcc></extensions></trkpt>
      <trkpt lon="-2.235010" lat="53.122677"><ele>128.974396</ele><time>2022-03-04T13:26:22Z</time><extensions><speed>0.358734</speed><course>348.177124</course><hAcc>1.726936</hAcc><vAcc>0.824220</vAcc></extensions></trkpt>
      <trkpt lon="-2.235012" lat="53.122681"><ele>128.957977</ele><time>2022-03-04T13:26:23Z</time><extensions><speed>0.418636</speed><course>340.391632</course><hAcc>1.727549</hAcc><vAcc>0.824391</vAcc></extensions></trkpt>
      <trkpt lon="-2.235015" lat="53.122684"><ele>128.928253</ele><time>2022-03-04T13:26:24Z</time><extensions><speed>0.508624</speed><course>331.548889</course><hAcc>1.728052</hAcc><vAcc>0.824592</vAcc></extensions></trkpt>
      <trkpt lon="-2.235019" lat="53.122689"><ele>128.890717</ele><time>2022-03-04T13:26:25Z</time><extensions><speed>0.613992</speed><course>323.370026</course><hAcc>1.727560</hAcc><vAcc>0.824822</vAcc></extensions></trkpt>
      <trkpt lon="-2.235026" lat="53.122693"><ele>128.834808</ele><time>2022-03-04T13:26:26Z</time><extensions><speed>0.689189</speed><course>315.874634</course><hAcc>1.730771</hAcc><vAcc>0.825072</vAcc></extensions></trkpt>
      <trkpt lon="-2.235034" lat="53.122697"><ele>128.762924</ele><time>2022-03-04T13:26:27Z</time><extensions><speed>0.760863</speed><course>308.203461</course><hAcc>1.733232</hAcc><vAcc>0.825346</vAcc></extensions></trkpt>
      <trkpt lon="-2.235044" lat="53.122701"><ele>128.677795</ele><time>2022-03-04T13:26:28Z</time><extensions><speed>0.835782</speed><course>299.793671</course><hAcc>1.736987</hAcc><vAcc>0.825668</vAcc></extensions></trkpt>
      <trkpt lon="-2.235056" lat="53.122705"><ele>128.580170</ele><time>2022-03-04T13:26:29Z</time><extensions><speed>0.978005</speed><course>291.689362</course><hAcc>1.737247</hAcc><vAcc>0.825983</vAcc></extensions></trkpt>
      <trkpt lon="-2.235072" lat="53.122708"><ele>128.478638</ele><time>2022-03-04T13:26:30Z</time><extensions><speed>1.294947</speed><course>285.277771</course><hAcc>1.731933</hAcc><vAcc>0.826332</vAcc></extensions></trkpt>
      <trkpt lon="-2.235092" lat="53.122711"><ele>128.378220</ele><time>2022-03-04T13:26:31Z</time><extensions><speed>1.437426</speed><course>281.582825</course><hAcc>1.738476</hAcc><vAcc>0.826685</vAcc></extensions></trkpt>
      <trkpt lon="-2.235113" lat="53.122713"><ele>128.265274</ele><time>2022-03-04T13:26:32Z</time><extensions><speed>1.467657</speed><course>278.689606</course><hAcc>1.743188</hAcc><vAcc>0.827040</vAcc></extensions></trkpt>
      <trkpt lon="-2.235136" lat="53.122715"><ele>128.156845</ele><time>2022-03-04T13:26:33Z</time><extensions><speed>1.533559</speed><course>277.707214</course><hAcc>1.740108</hAcc><vAcc>0.827384</vAcc></extensions></trkpt>
      <trkpt lon="-2.235158" lat="53.122717"><ele>128.029236</ele><time>2022-03-04T13:26:34Z</time><extensions><speed>1.549639</speed><course>278.225708</course><hAcc>1.737893</hAcc><vAcc>0.827698</vAcc></extensions></trkpt>
      <trkpt lon="-2.235181" lat="53.122719"><ele>127.909996</ele><time>2022-03-04T13:26:35Z</time><extensions><speed>1.542621</speed><course>278.481445</course><hAcc>1.735674</hAcc><vAcc>0.828021</vAcc></extensions></trkpt>
      <trkpt lon="-2.235204" lat="53.122721"><ele>127.808640</ele><time>2022-03-04T13:26:36Z</time><extensions><speed>1.533758</speed><course>277.985291</course><hAcc>1.733608</hAcc><vAcc>0.828311</vAcc></extensions></trkpt>
      <trkpt lon="-2.235227" lat="53.122723"><ele>127.691917</ele><time>2022-03-04T13:26:37Z</time><extensions><speed>1.528424</speed><course>276.685638</course><hAcc>1.729720</hAcc><vAcc>0.828561</vAcc></extensions></trkpt>
      <trkpt lon="-2.235250" lat="53.122724"><ele>127.579292</ele><time>2022-03-04T13:26:38Z</time><extensions><speed>1.547994</speed><course>275.820312</course><hAcc>1.726294</hAcc><vAcc>0.828791</vAcc></extensions></trkpt>
      <trkpt lon="-2.235273" lat="53.122726"><ele>127.467010</ele><time>2022-03-04T13:26:39Z</time><extensions><speed>1.579396</speed><course>275.010101</course><hAcc>1.716987</hAcc><vAcc>0.828993</vAcc></extensions></trkpt>
      <trkpt lon="-2.235296" lat="53.122727"><ele>127.358292</ele><time>2022-03-04T13:26:40Z</time><extensions><speed>1.539576</speed><course>275.095764</course><hAcc>1.701486</hAcc><vAcc>0.829155</vAcc></extensions></trkpt>
      <trkpt lon="-2.235318" lat="53.122728"><ele>127.257591</ele><time>2022-03-04T13:26:41Z</time><extensions><speed>1.437371</speed><course>276.112183</course><hAcc>1.682051</hAcc><vAcc>0.829265</vAcc></extensions></trkpt>
      <trkpt lon="-2.235339" lat="53.122730"><ele>127.147461</ele><time>2022-03-04T13:26:42Z</time><extensions><speed>1.427500</speed><course>277.502319</course><hAcc>1.643032</hAcc><vAcc>0.829336</vAcc></extensions></trkpt>
      <trkpt lon="-2.235361" lat="53.122732"><ele>127.048622</ele><time>2022-03-04T13:26:43Z</time><extensions><speed>1.549079</speed><course>278.748505</course><hAcc>1.587962</hAcc><vAcc>0.829383</vAcc></extensions></trkpt>
      <trkpt lon="-2.235385" lat="53.122734"><ele>126.959213</ele><time>2022-03-04T13:26:44Z</time><extensions><speed>1.601769</speed><course>279.785889</course><hAcc>1.547638</hAcc><vAcc>0.829382</vAcc></extensions></trkpt>
      <trkpt lon="-2.235408" lat="53.122736"><ele>126.863449</ele><time>2022-03-04T13:26:45Z</time><extensions><speed>1.593998</speed><course>281.094025</course><hAcc>1.546882</hAcc><vAcc>0.829343</vAcc></extensions></trkpt>
      <trkpt lon="-2.235431" lat="53.122738"><ele>126.771904</ele><time>2022-03-04T13:26:46Z</time><extensions><speed>1.563586</speed><course>274.010986</course><hAcc>1.504205</hAcc><vAcc>0.829274</vAcc></extensions></trkpt>
      <trkpt lon="-2.235454" lat="53.122739"><ele>126.686493</ele><time>2022-03-04T13:26:47Z</time><extensions><speed>1.550795</speed><course>271.186890</course><hAcc>1.489842</hAcc><vAcc>0.829182</vAcc></extensions></trkpt>
      <trkpt lon="-2.235478" lat="53.122739"><ele>126.589836</ele><time>2022-03-04T13:26:48Z</time><extensions><speed>1.540086</speed><course>271.176483</course><hAcc>1.462157</hAcc><vAcc>0.829076</vAcc></extensions></trkpt>
      <trkpt lon="-2.235500" lat="53.122740"><ele>126.500275</ele><time>2022-03-04T13:26:49Z</time><extensions><speed>1.529894</speed><course>272.646881</course><hAcc>1.415708</hAcc><vAcc>0.828968</vAcc></extensions></trkpt>
      <trkpt lon="-2.235523" lat="53.122741"><ele>126.407570</ele><time>2022-03-04T13:26:50Z</time><extensions><speed>1.537169</speed><course>275.807709</course><hAcc>1.418362</hAcc><vAcc>0.828861</vAcc></extensions></trkpt>
      <trkpt lon="-2.235546" lat="53.122742"><ele>126.322968</ele><time>2022-03-04T13:26:51Z</time><extensions><speed>1.545363</speed><course>275.346405</course><hAcc>1.417969</hAcc><vAcc>0.828751</vAcc></extensions></trkpt>
      <trkpt lon="-2.235569" lat="53.122743"><ele>126.233955</ele><time>2022-03-04T13:26:52Z</time><extensions><speed>1.533755</speed><course>272.030060</course><hAcc>1.412859</hAcc><vAcc>0.828645</vAcc></extensions></trkpt>
      <trkpt lon="-2.235592" lat="53.122744"><ele>126.140732</ele><time>2022-03-04T13:26:53Z</time><extensions><speed>1.539572</speed><course>272.592651</course><hAcc>1.411175</hAcc><vAcc>0.828547</vAcc></extensions></trkpt>
      <trkpt lon="-2.235614" lat="53.122744"><ele>126.055542</ele><time>2022-03-04T13:26:54Z</time><extensions><speed>1.535021</speed><course>272.566132</course><hAcc>1.404954</hAcc><vAcc>0.828469</vAcc></extensions></trkpt>
      <trkpt lon="-2.235637" lat="53.122745"><ele>125.966705</ele><time>2022-03-04T13:26:55Z</time><extensions><speed>1.527892</speed><course>271.629608</course><hAcc>1.399497</hAcc><vAcc>0.828397</vAcc></extensions></trkpt>
      <trkpt lon="-2.235660" lat="53.122745"><ele>125.894623</ele><time>2022-03-04T13:26:56Z</time><extensions><speed>1.529025</speed><course>272.539948</course><hAcc>1.439557</hAcc><vAcc>0.828345</vAcc></extensions></trkpt>
      <trkpt lon="-2.235682" lat="53.122746"><ele>125.808090</ele><time>2022-03-04T13:26:57Z</time><extensions><speed>1.526309</speed><course>274.529266</course><hAcc>1.466097</hAcc><vAcc>0.828313</vAcc></extensions></trkpt>
      <trkpt lon="-2.235705" lat="53.122748"><ele>125.721977</ele><time>2022-03-04T13:26:58Z</time><extensions><speed>1.481018</speed><course>276.933044</course><hAcc>1.468923</hAcc><vAcc>0.828291</vAcc></extensions></trkpt>
      <trkpt lon="-2.235726" lat="53.122750"><ele>125.663391</ele><time>2022-03-04T13:26:59Z</time><extensions><speed>1.433218</speed><course>281.699982</course><hAcc>1.443994</hAcc><vAcc>0.828275</vAcc></extensions></trkpt>
      <trkpt lon="-2.235747" lat="53.122752"><ele>125.599815</ele><time>2022-03-04T13:27:00Z</time><extensions><speed>1.387606</speed><course>284.244110</course><hAcc>1.438997</hAcc><vAcc>0.828278</vAcc></extensions></trkpt>
      <trkpt lon="-2.235767" lat="53.122755"><ele>125.536072</ele><time>2022-03-04T13:27:01Z</time><extensions><speed>1.392173</speed><course>283.067291</course><hAcc>1.431449</hAcc><vAcc>0.828297</vAcc></extensions></trkpt>
      <trkpt lon="-2.235787" lat="53.122758"><ele>125.453568</ele><time>2022-03-04T13:27:02Z</time><extensions><speed>1.421723</speed><course>282.435272</course><hAcc>1.439735</hAcc><vAcc>0.828319</vAcc></extensions></trkpt>
      <trkpt lon="-2.235808" lat="53.122761"><ele>125.375214</ele><time>2022-03-04T13:27:03Z</time><extensions><speed>1.486175</speed><course>283.755096</course><hAcc>1.464100</hAcc><vAcc>0.828348</vAcc></extensions></trkpt>
      <trkpt lon="-2.235830" lat="53.122764"><ele>125.300110</ele><time>2022-03-04T13:27:03Z</time><extensions><speed>1.477184</speed><course>286.191467</course><hAcc>1.436385</hAcc><vAcc>0.828385</vAcc></extensions></trkpt>
      <trkpt lon="-2.235850" lat="53.122768"><ele>125.236916</ele><time>2022-03-04T13:27:04Z</time><extensions><speed>1.475844</speed><course>292.894684</course><hAcc>1.422647</hAcc><vAcc>0.828444</vAcc></extensions></trkpt>
      <trkpt lon="-2.235870" lat="53.122774"><ele>125.157677</ele><time>2022-03-04T13:27:05Z</time><extensions><speed>1.464222</speed><course>296.192902</course><hAcc>1.414574</hAcc><vAcc>0.828500</vAcc></extensions></trkpt>
      <trkpt lon="-2.235889" lat="53.122779"><ele>125.084618</ele><time>2022-03-04T13:27:06Z</time><extensions><speed>1.413127</speed><course>294.197479</course><hAcc>1.391662</hAcc><vAcc>0.828556</vAcc></extensions></trkpt>
      <trkpt lon="-2.235909" lat="53.122784"><ele>125.016243</ele><time>2022-03-04T13:27:07Z</time><extensions><speed>1.424010</speed><course>286.781982</course><hAcc>1.376399</hAcc><vAcc>0.828609</vAcc></extensions></trkpt>
      <trkpt lon="-2.235930" lat="53.122787"><ele>124.944855</ele><time>2022-03-04T13:27:08Z</time><extensions><speed>1.468732</speed><course>283.564362</course><hAcc>1.395162</hAcc><vAcc>0.828673</vAcc></extensions></trkpt>
      <trkpt lon="-2.235951" lat="53.122790"><ele>124.863434</ele><time>2022-03-04T13:27:09Z</time><extensions><speed>1.470582</speed><course>281.317383</course><hAcc>1.384496</hAcc><vAcc>0.828724</vAcc></extensions></trkpt>
      <trkpt lon="-2.235973" lat="53.122792"><ele>124.763321</ele><time>2022-03-04T13:27:10Z</time><extensions><speed>1.472666</speed><course>281.729980</course><hAcc>1.403501</hAcc><vAcc>0.828774</vAcc></extensions></trkpt>
      <trkpt lon="-2.235994" lat="53.122795"><ele>124.669342</ele><time>2022-03-04T13:27:11Z</time><extensions><speed>1.446560</speed><course>283.796326</course><hAcc>1.394389</hAcc><vAcc>0.828824</vAcc></extensions></trkpt>
      <trkpt lon="-2.236015" lat="53.122798"><ele>124.562286</ele><time>2022-03-04T13:27:12Z</time><extensions><speed>1.447528</speed><course>284.679962</course><hAcc>1.385386</hAcc><vAcc>0.828871</vAcc></extensions></trkpt>
      <trkpt lon="-2.236036" lat="53.122802"><ele>124.457863</ele><time>2022-03-04T13:27:13Z</time><extensions><speed>1.489284</speed><course>288.346313</course><hAcc>1.421360</hAcc><vAcc>0.828928</vAcc></extensions></trkpt>
      <trkpt lon="-2.236056" lat="53.122807"><ele>124.338051</ele><time>2022-03-04T13:27:14Z</time><extensions><speed>1.458861</speed><course>291.848907</course><hAcc>1.418749</hAcc><vAcc>0.828987</vAcc></extensions></trkpt>
      <trkpt lon="-2.236076" lat="53.122812"><ele>124.213974</ele><time>2022-03-04T13:27:15Z</time><extensions><speed>1.429161</speed><course>294.765442</course><hAcc>1.396116</hAcc><vAcc>0.829045</vAcc></extensions></trkpt>
      <trkpt lon="-2.236095" lat="53.122817"><ele>124.094925</ele><time>2022-03-04T13:27:16Z</time><extensions><speed>1.385001</speed><course>293.690796</course><hAcc>1.379494</hAcc><vAcc>0.829099</vAcc></extensions></trkpt>
      <trkpt lon="-2.236114" lat="53.122822"><ele>123.994720</ele><time>2022-03-04T13:27:17Z</time><extensions><speed>1.440487</speed><course>293.770111</course><hAcc>1.407157</hAcc><vAcc>0.829157</vAcc></extensions></trkpt>
      <trkpt lon="-2.236134" lat="53.122828"><ele>123.892593</ele><time>2022-03-04T13:27:18Z</time><extensions><speed>1.489202</speed><course>296.522278</course><hAcc>1.404071</hAcc><vAcc>0.829196</vAcc></extensions></trkpt>
      <trkpt lon="-2.236154" lat="53.122833"><ele>123.788513</ele><time>2022-03-04T13:27:19Z</time><extensions><speed>1.490538</speed><course>296.615753</course><hAcc>1.393615</hAcc><vAcc>0.829222</vAcc></extensions></trkpt>
      <trkpt lon="-2.236173" lat="53.122839"><ele>123.682930</ele><time>2022-03-04T13:27:20Z</time><extensions><speed>1.475650</speed><course>297.097443</course><hAcc>1.377679</hAcc><vAcc>0.829233</vAcc></extensions></trkpt>
      <trkpt lon="-2.236193" lat="53.122845"><ele>123.582275</ele><time>2022-03-04T13:27:21Z</time><extensions><speed>1.495883</speed><course>295.858093</course><hAcc>1.372479</hAcc><vAcc>0.829252</vAcc></extensions></trkpt>
      <trkpt lon="-2.236213" lat="53.122851"><ele>123.483650</ele><time>2022-03-04T13:27:22Z</time><extensions><speed>1.477116</speed><course>293.963745</course><hAcc>1.359799</hAcc><vAcc>0.829249</vAcc></extensions></trkpt>
      <trkpt lon="-2.236233" lat="53.122856"><ele>123.384895</ele><time>2022-03-04T13:27:23Z</time><extensions><speed>1.501801</speed><course>294.760040</course><hAcc>1.359155</hAcc><vAcc>0.829250</vAcc></extensions></trkpt>
      <trkpt lon="-2.236253" lat="53.122862"><ele>123.301491</ele><time>2022-03-04T13:27:24Z</time><extensions><speed>1.471350</speed><course>297.927887</course><hAcc>1.350420</hAcc><vAcc>0.829247</vAcc></extensions></trkpt>
      <trkpt lon="-2.236272" lat="53.122869"><ele>123.219299</ele><time>2022-03-04T13:27:25Z</time><extensions><speed>1.464214</speed><course>304.213806</course><hAcc>1.339268</hAcc><vAcc>0.829251</vAcc></extensions></trkpt>
      <trkpt lon="-2.236289" lat="53.122877"><ele>123.137016</ele><time>2022-03-04T13:27:26Z</time><extensions><speed>1.494071</speed><course>307.950378</course><hAcc>1.352059</hAcc><vAcc>0.829251</vAcc></extensions></trkpt>
      <trkpt lon="-2.236307" lat="53.122884"><ele>123.066544</ele><time>2022-03-04T13:27:27Z</time><extensions><speed>1.485672</speed><course>303.765594</course><hAcc>1.351343</hAcc><vAcc>0.829268</vAcc></extensions></trkpt>
      <trkpt lon="-2.236326" lat="53.122891"><ele>122.994568</ele><time>2022-03-04T13:27:28Z</time><extensions><speed>1.490395</speed><course>301.190033</course><hAcc>1.352340</hAcc><vAcc>0.829284</vAcc></extensions></trkpt>
      <trkpt lon="-2.236345" lat="53.122898"><ele>122.932831</ele><time>2022-03-04T13:27:29Z</time><extensions><speed>1.483431</speed><course>298.680359</course><hAcc>1.358927</hAcc><vAcc>0.829298</vAcc></extensions></trkpt>
      <trkpt lon="-2.236364" lat="53.122905"><ele>122.865852</ele><time>2022-03-04T13:27:30Z</time><extensions><speed>1.494660</speed><course>300.806793</course><hAcc>1.377086</hAcc><vAcc>0.829303</vAcc></extensions></trkpt>
      <trkpt lon="-2.236383" lat="53.122912"><ele>122.798859</ele><time>2022-03-04T13:27:31Z</time><extensions><speed>1.469924</speed><course>301.569855</course><hAcc>1.385582</hAcc><vAcc>0.829321</vAcc></extensions></trkpt>
      <trkpt lon="-2.236401" lat="53.122918"><ele>122.739014</ele><time>2022-03-04T13:27:32Z</time><extensions><speed>1.429503</speed><course>299.239563</course><hAcc>1.381997</hAcc><vAcc>0.829352</vAcc></extensions></trkpt>
      <trkpt lon="-2.236420" lat="53.122924"><ele>122.668411</ele><time>2022-03-04T13:27:33Z</time><extensions><speed>1.423058</speed><course>298.163940</course><hAcc>1.407104</hAcc><vAcc>0.829370</vAcc></extensions></trkpt>
      <trkpt lon="-2.236439" lat="53.122930"><ele>122.601494</ele><time>2022-03-04T13:27:34Z</time><extensions><speed>1.423681</speed><course>297.367615</course><hAcc>1.414806</hAcc><vAcc>0.829392</vAcc></extensions></trkpt>
      <trkpt lon="-2.236458" lat="53.122936"><ele>122.554390</ele><time>2022-03-04T13:27:35Z</time><extensions><speed>1.423388</speed><course>296.929443</course><hAcc>1.429043</hAcc><vAcc>0.829406</vAcc></extensions></trkpt>
      <trkpt lon="-2.236477" lat="53.122942"><ele>122.505440</ele><time>2022-03-04T13:27:36Z</time><extensions><speed>1.433684</speed><course>298.316772</course><hAcc>1.455054</hAcc><vAcc>0.829413</vAcc></extensions></trkpt>
      <trkpt lon="-2.236496" lat="53.122948"><ele>122.458557</ele><time>2022-03-04T13:27:37Z</time><extensions><speed>1.450271</speed><course>300.962341</course><hAcc>1.497223</hAcc><vAcc>0.829408</vAcc></extensions></trkpt>
      <trkpt lon="-2.236513" lat="53.122956"><ele>122.411835</ele><time>2022-03-04T13:27:38Z</time><extensions><speed>1.358033</speed><course>307.692444</course><hAcc>1.509395</hAcc><vAcc>0.829393</vAcc></extensions></trkpt>
      <trkpt lon="-2.236527" lat="53.122963"><ele>122.375389</ele><time>2022-03-04T13:27:39Z</time><extensions><speed>1.226419</speed><course>315.259674</course><hAcc>1.500523</hAcc><vAcc>0.829375</vAcc></extensions></trkpt>
      <trkpt lon="-2.236539" lat="53.122971"><ele>122.330605</ele><time>2022-03-04T13:27:40Z</time><extensions><speed>1.086302</speed><course>318.084351</course><hAcc>1.517658</hAcc><vAcc>0.829342</vAcc></extensions></trkpt>
      <trkpt lon="-2.236550" lat="53.122977"><ele>122.297150</ele><time>2022-03-04T13:27:41Z</time><extensions><speed>0.992610</speed><course>313.716583</course><hAcc>1.570878</hAcc><vAcc>0.829295</vAcc></extensions></trkpt>
      <trkpt lon="-2.236561" lat="53.122983"><ele>122.268524</ele><time>2022-03-04T13:27:42Z</time><extensions><speed>0.989390</speed><course>307.487518</course><hAcc>1.622758</hAcc><vAcc>0.829243</vAcc></extensions></trkpt>
      <trkpt lon="-2.236574" lat="53.122988"><ele>122.246880</ele><time>2022-03-04T13:27:43Z</time><extensions><speed>1.013978</speed><course>300.763367</course><hAcc>1.630131</hAcc><vAcc>0.829189</vAcc></extensions></trkpt>
      <trkpt lon="-2.236587" lat="53.122993"><ele>122.225204</ele><time>2022-03-04T13:27:44Z</time><extensions><speed>1.058382</speed><course>297.680817</course><hAcc>1.646519</hAcc><vAcc>0.829140</vAcc></extensions></trkpt>
      <trkpt lon="-2.236601" lat="53.122997"><ele>122.204872</ele><time>2022-03-04T13:27:45Z</time><extensions><speed>1.040157</speed><course>295.572388</course><hAcc>1.666456</hAcc><vAcc>0.829122</vAcc></extensions></trkpt>
      <trkpt lon="-2.236615" lat="53.123001"><ele>122.195206</ele><time>2022-03-04T13:27:46Z</time><extensions><speed>1.025258</speed><course>293.817352</course><hAcc>1.684173</hAcc><vAcc>0.829102</vAcc></extensions></trkpt>
      <trkpt lon="-2.236630" lat="53.123005"><ele>122.183884</ele><time>2022-03-04T13:27:47Z</time><extensions><speed>1.030907</speed><course>292.474182</course><hAcc>1.695196</hAcc><vAcc>0.829072</vAcc></extensions></trkpt>
      <trkpt lon="-2.236644" lat="53.123008"><ele>122.177361</ele><time>2022-03-04T13:27:48Z</time><extensions><speed>1.082558</speed><course>293.288971</course><hAcc>1.699173</hAcc><vAcc>0.829048</vAcc></extensions></trkpt>
      <trkpt lon="-2.236660" lat="53.123012"><ele>122.184944</ele><time>2022-03-04T13:27:49Z</time><extensions><speed>1.209481</speed><course>294.422394</course><hAcc>1.702468</hAcc><vAcc>0.829020</vAcc></extensions></trkpt>
      <trkpt lon="-2.236677" lat="53.123017"><ele>122.194237</ele><time>2022-03-04T13:27:50Z</time><extensions><speed>1.273650</speed><course>296.235565</course><hAcc>1.706971</hAcc><vAcc>0.828995</vAcc></extensions></trkpt>
      <trkpt lon="-2.236694" lat="53.123022"><ele>122.205627</ele><time>2022-03-04T13:27:51Z</time><extensions><speed>1.225042</speed><course>298.056763</course><hAcc>1.705709</hAcc><vAcc>0.828991</vAcc></extensions></trkpt>
      <trkpt lon="-2.236709" lat="53.123027"><ele>122.208244</ele><time>2022-03-04T13:27:52Z</time><extensions><speed>1.122200</speed><course>298.972321</course><hAcc>1.707190</hAcc><vAcc>0.828996</vAcc></extensions></trkpt>
      <trkpt lon="-2.236723" lat="53.123032"><ele>122.210732</ele><time>2022-03-04T13:27:53Z</time><extensions><speed>1.019605</speed><course>297.433655</course><hAcc>1.708431</hAcc><vAcc>0.828986</vAcc></extensions></trkpt>
      <trkpt lon="-2.236736" lat="53.123036"><ele>122.218788</ele><time>2022-03-04T13:27:54Z</time><extensions><speed>0.883169</speed><course>294.934570</course><hAcc>1.706985</hAcc><vAcc>0.828976</vAcc></extensions></trkpt>
      <trkpt lon="-2.236748" lat="53.123038"><ele>122.234947</ele><time>2022-03-04T13:27:55Z</time><extensions><speed>0.773099</speed><course>288.389191</course><hAcc>1.696295</hAcc><vAcc>0.828946</vAcc></extensions></trkpt>
      <trkpt lon="-2.236758" lat="53.123040"><ele>122.251343</ele><time>2022-03-04T13:27:56Z</time><extensions><speed>0.621242</speed><course>280.993713</course><hAcc>1.688806</hAcc><vAcc>0.828879</vAcc></extensions></trkpt>
      <trkpt lon="-2.236765" lat="53.123041"><ele>122.263641</ele><time>2022-03-04T13:27:57Z</time><extensions><speed>0.427581</speed><course>274.216156</course><hAcc>1.705950</hAcc><vAcc>0.828783</vAcc></extensions></trkpt>
      <trkpt lon="-2.236771" lat="53.123041"><ele>122.288490</ele><time>2022-03-04T13:27:58Z</time><extensions><speed>0.337182</speed><course>268.140717</course><hAcc>1.722731</hAcc><vAcc>0.828658</vAcc></extensions></trkpt>
      <trkpt lon="-2.236776" lat="53.123041"><ele>122.302628</ele><time>2022-03-04T13:27:59Z</time><extensions><speed>0.349661</speed><course>265.752502</course><hAcc>1.715731</hAcc><vAcc>0.828510</vAcc></extensions></trkpt>
      <trkpt lon="-2.236781" lat="53.123041"><ele>122.316345</ele><time>2022-03-04T13:28:00Z</time><extensions><speed>0.355973</speed><course>268.830811</course><hAcc>1.715923</hAcc><vAcc>0.828345</vAcc></extensions></trkpt>
      <trkpt lon="-2.236787" lat="53.123041"><ele>122.329445</ele><time>2022-03-04T13:28:01Z</time><extensions><speed>0.373465</speed><course>275.821350</course><hAcc>1.718710</hAcc><vAcc>0.828208</vAcc></extensions></trkpt>
      <trkpt lon="-2.236793" lat="53.123041"><ele>122.342392</ele><time>2022-03-04T13:28:02Z</time><extensions><speed>0.449772</speed><course>284.159698</course><hAcc>1.715501</hAcc><vAcc>0.828079</vAcc></extensions></trkpt>
      <trkpt lon="-2.236799" lat="53.123043"><ele>122.347412</ele><time>2022-03-04T13:28:03Z</time><extensions><speed>0.384530</speed><course>294.048431</course><hAcc>1.730787</hAcc><vAcc>0.827967</vAcc></extensions></trkpt>
      <trkpt lon="-2.236803" lat="53.123044"><ele>122.351524</ele><time>2022-03-04T13:28:04Z</time><extensions><speed>0.267318</speed><course>304.321594</course><hAcc>1.743250</hAcc><vAcc>0.827863</vAcc></extensions></trkpt>
      <trkpt lon="-2.236806" lat="53.123045"><ele>122.353867</ele><time>2022-03-04T13:28:05Z</time><extensions><speed>0.270339</speed><course>317.179871</course><hAcc>1.744597</hAcc><vAcc>0.827792</vAcc></extensions></trkpt>
      <trkpt lon="-2.236809" lat="53.123048"><ele>122.354233</ele><time>2022-03-04T13:28:06Z</time><extensions><speed>0.387037</speed><course>322.610291</course><hAcc>1.730057</hAcc><vAcc>0.827754</vAcc></extensions></trkpt>
      <trkpt lon="-2.236814" lat="53.123051"><ele>122.352486</ele><time>2022-03-04T13:28:07Z</time><extensions><speed>0.621436</speed><course>322.277466</course><hAcc>1.714399</hAcc><vAcc>0.827748</vAcc></extensions></trkpt>
      <trkpt lon="-2.236820" lat="53.123056"><ele>122.348602</ele><time>2022-03-04T13:28:08Z</time><extensions><speed>0.788590</speed><course>323.546173</course><hAcc>1.728472</hAcc><vAcc>0.827776</vAcc></extensions></trkpt>
      <trkpt lon="-2.236827" lat="53.123062"><ele>122.342644</ele><time>2022-03-04T13:28:09Z</time><extensions><speed>0.842265</speed><course>323.973419</course><hAcc>1.730573</hAcc><vAcc>0.827825</vAcc></extensions></trkpt>
      <trkpt lon="-2.236835" lat="53.123068"><ele>122.327316</ele><time>2022-03-04T13:28:10Z</time><extensions><speed>0.752712</speed><course>315.113525</course><hAcc>1.722463</hAcc><vAcc>0.827893</vAcc></extensions></trkpt>
      <trkpt lon="-2.236843" lat="53.123072"><ele>122.313934</ele><time>2022-03-04T13:28:11Z</time><extensions><speed>0.630825</speed><course>304.937714</course><hAcc>1.717596</hAcc><vAcc>0.827958</vAcc></extensions></trkpt>
      <trkpt lon="-2.236850" lat="53.123074"><ele>122.300926</ele><time>2022-03-04T13:28:12Z</time><extensions><speed>0.442594</speed><course>290.644684</course><hAcc>1.716896</hAcc><vAcc>0.828037</vAcc></extensions></trkpt>
      <trkpt lon="-2.236855" lat="53.123075"><ele>122.278114</ele><time>2022-03-04T13:28:13Z</time><extensions><speed>0.202367</speed><course>267.694550</course><hAcc>1.722169</hAcc><vAcc>0.828072</vAcc></extensions></trkpt>
      <trkpt lon="-2.236857" lat="53.123074"><ele>122.271652</ele><time>2022-03-04T13:28:14Z</time><extensions><speed>0.129099</speed><course>234.932358</course><hAcc>1.719927</hAcc><vAcc>0.828064</vAcc></extensions></trkpt>
      <trkpt lon="-2.236858" lat="53.123074"><ele>122.268936</ele><time>2022-03-04T13:28:15Z</time><extensions><speed>0.106814</speed><course>211.742188</course><hAcc>1.721232</hAcc><vAcc>0.828035</vAcc></extensions></trkpt>
      <trkpt lon="-2.236859" lat="53.123073"><ele>122.262520</ele><time>2022-03-04T13:28:16Z</time><extensions><speed>0.095826</speed><course>200.545639</course><hAcc>1.724702</hAcc><vAcc>0.827979</vAcc></extensions></trkpt>
      <trkpt lon="-2.236859" lat="53.123072"><ele>122.247810</ele><time>2022-03-04T13:28:17Z</time><extensions><speed>0.088921</speed><course>196.237732</course><hAcc>1.730649</hAcc><vAcc>0.827900</vAcc></extensions></trkpt>
      <trkpt lon="-2.236859" lat="53.123071"><ele>122.237816</ele><time>2022-03-04T13:28:18Z</time><extensions><speed>0.087591</speed><course>194.793457</course><hAcc>1.738514</hAcc><vAcc>0.827805</vAcc></extensions></trkpt>
      <trkpt lon="-2.236860" lat="53.123070"><ele>122.232849</ele><time>2022-03-04T13:28:20Z</time><extensions><speed>0.091275</speed><course>194.400833</course><hAcc>1.743010</hAcc><vAcc>0.827697</vAcc></extensions></trkpt>
      <trkpt lon="-2.236860" lat="53.123070"><ele>122.236969</ele><time>2022-03-04T13:28:21Z</time><extensions><speed>0.099801</speed><course>188.167892</course><hAcc>1.737739</hAcc><vAcc>0.827528</vAcc></extensions></trkpt>
      <trkpt lon="-2.236860" lat="53.123069"><ele>122.251434</ele><time>2022-03-04T13:28:22Z</time><extensions><speed>0.099309</speed><course>173.896576</course><hAcc>1.736467</hAcc><vAcc>0.827326</vAcc></extensions></trkpt>
      <trkpt lon="-2.236860" lat="53.123068"><ele>122.280479</ele><time>2022-03-04T13:28:23Z</time><extensions><speed>0.099061</speed><course>152.581085</course><hAcc>1.737326</hAcc><vAcc>0.827145</vAcc></extensions></trkpt>
      <trkpt lon="-2.236859" lat="53.123067"><ele>122.315765</ele><time>2022-03-04T13:28:24Z</time><extensions><speed>0.104832</speed><course>133.271591</course><hAcc>1.737698</hAcc><vAcc>0.826957</vAcc></extensions></trkpt>
      <trkpt lon="-2.236858" lat="53.123066"><ele>122.360626</ele><time>2022-03-04T13:28:25Z</time><extensions><speed>0.101539</speed><course>125.480179</course><hAcc>1.739491</hAcc><vAcc>0.826766</vAcc></extensions></trkpt>
      <trkpt lon="-2.236857" lat="53.123066"><ele>122.406372</ele><time>2022-03-04T13:28:26Z</time><extensions><speed>0.075576</speed><course>134.596359</course><hAcc>1.737124</hAcc><vAcc>0.826573</vAcc></extensions></trkpt>
      <trkpt lon="-2.236856" lat="53.123066"><ele>122.452148</ele><time>2022-03-04T13:28:27Z</time><extensions><speed>0.046198</speed><course>182.887634</course><hAcc>1.730527</hAcc><vAcc>0.826397</vAcc></extensions></trkpt>
      <trkpt lon="-2.236857" lat="53.123065"><ele>122.496223</ele><time>2022-03-04T13:28:28Z</time><extensions><speed>0.073531</speed><course>251.643768</course><hAcc>1.721486</hAcc><vAcc>0.826231</vAcc></extensions></trkpt>
      <trkpt lon="-2.236858" lat="53.123065"><ele>122.540924</ele><time>2022-03-04T13:28:29Z</time><extensions><speed>0.150766</speed><course>282.118713</course><hAcc>1.720689</hAcc><vAcc>0.826082</vAcc></extensions></trkpt>
      <trkpt lon="-2.236860" lat="53.123065"><ele>122.586708</ele><time>2022-03-04T13:28:30Z</time><extensions><speed>0.042976</speed><course>244.380920</course><hAcc>1.748740</hAcc><vAcc>0.825950</vAcc></extensions></trkpt>
      <trkpt lon="-2.236860" lat="53.123065"><ele>122.631477</ele><time>2022-03-04T13:28:31Z</time><extensions><speed>0.036073</speed><course>155.218246</course><hAcc>1.728902</hAcc><vAcc>0.825835</vAcc></extensions></trkpt>
      <trkpt lon="-2.236859" lat="53.123065"><ele>122.670959</ele><time>2022-03-04T13:28:32Z</time><extensions><speed>0.042610</speed><course>108.044701</course><hAcc>1.717147</hAcc><vAcc>0.825731</vAcc></extensions></trkpt>
      <trkpt lon="-2.236859" lat="53.123065"><ele>122.705589</ele><time>2022-03-04T13:28:33Z</time><extensions><speed>0.056211</speed><course>59.484146</course><hAcc>1.719472</hAcc><vAcc>0.825638</vAcc></extensions></trkpt>
      <trkpt lon="-2.236858" lat="53.123066"><ele>122.731438</ele><time>2022-03-04T13:28:34Z</time><extensions><speed>0.088924</speed><course>31.566339</course><hAcc>1.724603</hAcc><vAcc>0.825549</vAcc></extensions></trkpt>
      <trkpt lon="-2.236857" lat="53.123066"><ele>122.743973</ele><time>2022-03-04T13:28:35Z</time><extensions><speed>0.122720</speed><course>20.218180</course><hAcc>1.725059</hAcc><vAcc>0.825461</vAcc></extensions></trkpt>
      <trkpt lon="-2.236857" lat="53.123068"><ele>122.754387</ele><time>2022-03-04T13:28:36Z</time><extensions><speed>0.143583</speed><course>14.445130</course><hAcc>1.718689</hAcc><vAcc>0.825377</vAcc></extensions></trkpt>
      <trkpt lon="-2.236856" lat="53.123069"><ele>122.753227</ele><time>2022-03-04T13:28:37Z</time><extensions><speed>0.145508</speed><course>9.708156</course><hAcc>1.709908</hAcc><vAcc>0.825298</vAcc></extensions></trkpt>
      <trkpt lon="-2.236856" lat="53.123070"><ele>122.747597</ele><time>2022-03-04T13:28:38Z</time><extensions><speed>0.127422</speed><course>4.800357</course><hAcc>1.711052</hAcc><vAcc>0.825209</vAcc></extensions></trkpt>
      <trkpt lon="-2.236856" lat="53.123071"><ele>122.744026</ele><time>2022-03-04T13:28:39Z</time><extensions><speed>0.096194</speed><course>359.020630</course><hAcc>1.727137</hAcc><vAcc>0.825135</vAcc></extensions></trkpt>
      <trkpt lon="-2.236856" lat="53.123072"><ele>122.742043</ele><time>2022-03-04T13:28:40Z</time><extensions><speed>0.081362</speed><course>349.854309</course><hAcc>1.729450</hAcc><vAcc>0.825107</vAcc></extensions></trkpt>
      <trkpt lon="-2.236857" lat="53.123073"><ele>122.720932</ele><time>2022-03-04T13:28:41Z</time><extensions><speed>0.087921</speed><course>336.284973</course><hAcc>1.713550</hAcc><vAcc>0.825106</vAcc></extensions></trkpt>
      <trkpt lon="-2.236857" lat="53.123073"><ele>122.719009</ele><time>2022-03-04T13:28:42Z</time><extensions><speed>0.098728</speed><course>322.253204</course><hAcc>1.713285</hAcc><vAcc>0.825123</vAcc></extensions></trkpt>
      <trkpt lon="-2.236859" lat="53.123074"><ele>122.708862</ele><time>2022-03-04T13:28:43Z</time><extensions><speed>0.121895</speed><course>310.627777</course><hAcc>1.723961</hAcc><vAcc>0.825167</vAcc></extensions></trkpt>
      <trkpt lon="-2.236860" lat="53.123075"><ele>122.691551</ele><time>2022-03-04T13:28:44Z</time><extensions><speed>0.162636</speed><course>302.523132</course><hAcc>1.735528</hAcc><vAcc>0.825229</vAcc></extensions></trkpt>
      <trkpt lon="-2.236863" lat="53.123076"><ele>122.676376</ele><time>2022-03-04T13:28:45Z</time><extensions><speed>0.222656</speed><course>297.796906</course><hAcc>1.744238</hAcc><vAcc>0.825318</vAcc></extensions></trkpt>
      <trkpt lon="-2.236867" lat="53.123077"><ele>122.687958</ele><time>2022-03-04T13:28:46Z</time><extensions><speed>0.303040</speed><course>295.782928</course><hAcc>1.749734</hAcc><vAcc>0.825460</vAcc></extensions></trkpt>
      <trkpt lon="-2.236871" lat="53.123078"><ele>122.695885</ele><time>2022-03-04T13:28:47Z</time><extensions><speed>0.410512</speed><course>295.763672</course><hAcc>1.751758</hAcc><vAcc>0.825617</vAcc></extensions></trkpt>
      <trkpt lon="-2.236878" lat="53.123080"><ele>122.689133</ele><time>2022-03-04T13:28:48Z</time><extensions><speed>0.576410</speed><course>296.652649</course><hAcc>1.743143</hAcc><vAcc>0.825793</vAcc></extensions></trkpt>
      <trkpt lon="-2.236888" lat="53.123083"><ele>122.678024</ele><time>2022-03-04T13:28:49Z</time><extensions><speed>0.848646</speed><course>297.656586</course><hAcc>1.727538</hAcc><vAcc>0.825993</vAcc></extensions></trkpt>
      <trkpt lon="-2.236900" lat="53.123087"><ele>122.670578</ele><time>2022-03-04T13:28:50Z</time><extensions><speed>0.983746</speed><course>298.334503</course><hAcc>1.732101</hAcc><vAcc>0.826198</vAcc></extensions></trkpt>
      <trkpt lon="-2.236913" lat="53.123091"><ele>122.666710</ele><time>2022-03-04T13:28:51Z</time><extensions><speed>1.079590</speed><course>298.773529</course><hAcc>1.726666</hAcc><vAcc>0.826396</vAcc></extensions></trkpt>
      <trkpt lon="-2.236928" lat="53.123096"><ele>122.655479</ele><time>2022-03-04T13:28:52Z</time><extensions><speed>1.200531</speed><course>299.625885</course><hAcc>1.712812</hAcc><vAcc>0.826579</vAcc></extensions></trkpt>
      <trkpt lon="-2.236944" lat="53.123102"><ele>122.640495</ele><time>2022-03-04T13:28:53Z</time><extensions><speed>1.183312</speed><course>299.576996</course><hAcc>1.710071</hAcc><vAcc>0.826749</vAcc></extensions></trkpt>
      <trkpt lon="-2.236959" lat="53.123107"><ele>122.620888</ele><time>2022-03-04T13:28:54Z</time><extensions><speed>1.131245</speed><course>298.404572</course><hAcc>1.719264</hAcc><vAcc>0.826899</vAcc></extensions></trkpt>
      <trkpt lon="-2.236974" lat="53.123111"><ele>122.606155</ele><time>2022-03-04T13:28:55Z</time><extensions><speed>1.108691</speed><course>297.202362</course><hAcc>1.704415</hAcc><vAcc>0.827021</vAcc></extensions></trkpt>
      <trkpt lon="-2.236989" lat="53.123116"><ele>122.583961</ele><time>2022-03-04T13:28:56Z</time><extensions><speed>1.109270</speed><course>295.708374</course><hAcc>1.696791</hAcc><vAcc>0.827123</vAcc></extensions></trkpt>
      <trkpt lon="-2.237004" lat="53.123120"><ele>122.558243</ele><time>2022-03-04T13:28:57Z</time><extensions><speed>1.106435</speed><course>294.023651</course><hAcc>1.700151</hAcc><vAcc>0.827207</vAcc></extensions></trkpt>
      <trkpt lon="-2.237018" lat="53.123124"><ele>122.523857</ele><time>2022-03-04T13:28:58Z</time><extensions><speed>1.040178</speed><course>292.022034</course><hAcc>1.705933</hAcc><vAcc>0.827266</vAcc></extensions></trkpt>
      <trkpt lon="-2.237033" lat="53.123128"><ele>122.495735</ele><time>2022-03-04T13:28:59Z</time><extensions><speed>1.035192</speed><course>292.900360</course><hAcc>1.706428</hAcc><vAcc>0.827289</vAcc></extensions></trkpt>
      <trkpt lon="-2.237047" lat="53.123131"><ele>122.448273</ele><time>2022-03-04T13:29:00Z</time><extensions><speed>1.096069</speed><course>294.822845</course><hAcc>1.706669</hAcc><vAcc>0.827266</vAcc></extensions></trkpt>
      <trkpt lon="-2.237062" lat="53.123136"><ele>122.411407</ele><time>2022-03-04T13:29:01Z</time><extensions><speed>1.122273</speed><course>296.695129</course><hAcc>1.707642</hAcc><vAcc>0.827205</vAcc></extensions></trkpt>
      <trkpt lon="-2.237078" lat="53.123141"><ele>122.370346</ele><time>2022-03-04T13:29:02Z</time><extensions><speed>1.211052</speed><course>298.177704</course><hAcc>1.702320</hAcc><vAcc>0.827118</vAcc></extensions></trkpt>
      <trkpt lon="-2.237094" lat="53.123146"><ele>122.335205</ele><time>2022-03-04T13:29:03Z</time><extensions><speed>1.222143</speed><course>299.884399</course><hAcc>1.693940</hAcc><vAcc>0.827011</vAcc></extensions></trkpt>
      <trkpt lon="-2.237110" lat="53.123152"><ele>122.306076</ele><time>2022-03-04T13:29:04Z</time><extensions><speed>1.215916</speed><course>301.414612</course><hAcc>1.686854</hAcc><vAcc>0.826889</vAcc></extensions></trkpt>
      <trkpt lon="-2.237125" lat="53.123157"><ele>122.257202</ele><time>2022-03-04T13:29:05Z</time><extensions><speed>1.187340</speed><course>301.553436</course><hAcc>1.687390</hAcc><vAcc>0.826743</vAcc></extensions></trkpt>
      <trkpt lon="-2.237140" lat="53.123163"><ele>122.207314</ele><time>2022-03-04T13:29:06Z</time><extensions><speed>1.209606</speed><course>301.225891</course><hAcc>1.690615</hAcc><vAcc>0.826594</vAcc></extensions></trkpt>
      <trkpt lon="-2.237156" lat="53.123169"><ele>122.160233</ele><time>2022-03-04T13:29:07Z</time><extensions><speed>1.198475</speed><course>301.415833</course><hAcc>1.689547</hAcc><vAcc>0.826446</vAcc></extensions></trkpt>
      <trkpt lon="-2.237171" lat="53.123174"><ele>122.120674</ele><time>2022-03-04T13:29:08Z</time><extensions><speed>1.181601</speed><course>300.759735</course><hAcc>1.678390</hAcc><vAcc>0.826299</vAcc></extensions></trkpt>
      <trkpt lon="-2.237186" lat="53.123179"><ele>122.071609</ele><time>2022-03-04T13:29:09Z</time><extensions><speed>1.055779</speed><course>299.195892</course><hAcc>1.668937</hAcc><vAcc>0.826159</vAcc></extensions></trkpt>
      <trkpt lon="-2.237199" lat="53.123183"><ele>122.016464</ele><time>2022-03-04T13:29:10Z</time><extensions><speed>0.910795</speed><course>295.284363</course><hAcc>1.669590</hAcc><vAcc>0.826037</vAcc></extensions></trkpt>
      <trkpt lon="-2.237212" lat="53.123187"><ele>121.969582</ele><time>2022-03-04T13:29:11Z</time><extensions><speed>1.006507</speed><course>292.838531</course><hAcc>1.676271</hAcc><vAcc>0.825941</vAcc></extensions></trkpt>
      <trkpt lon="-2.237227" lat="53.123190"><ele>121.943604</ele><time>2022-03-04T13:29:12Z</time><extensions><speed>1.111233</speed><course>290.119415</course><hAcc>1.660783</hAcc><vAcc>0.825881</vAcc></extensions></trkpt>
      <trkpt lon="-2.237242" lat="53.123194"><ele>121.921700</ele><time>2022-03-04T13:29:13Z</time><extensions><speed>1.118450</speed><course>290.078033</course><hAcc>1.664259</hAcc><vAcc>0.825858</vAcc></extensions></trkpt>
      <trkpt lon="-2.237257" lat="53.123197"><ele>121.866928</ele><time>2022-03-04T13:29:14Z</time><extensions><speed>0.951903</speed><course>291.781525</course><hAcc>1.680299</hAcc><vAcc>0.825876</vAcc></extensions></trkpt>
      <trkpt lon="-2.237270" lat="53.123200"><ele>121.822983</ele><time>2022-03-04T13:29:15Z</time><extensions><speed>0.958625</speed><course>289.796875</course><hAcc>1.649387</hAcc><vAcc>0.825923</vAcc></extensions></trkpt>
      <trkpt lon="-2.237284" lat="53.123203"><ele>121.775299</ele><time>2022-03-04T13:29:16Z</time><extensions><speed>0.930339</speed><course>287.432495</course><hAcc>1.633335</hAcc><vAcc>0.825981</vAcc></extensions></trkpt>
      <trkpt lon="-2.237297" lat="53.123205"><ele>121.747414</ele><time>2022-03-04T13:29:16Z</time><extensions><speed>0.898146</speed><course>284.091644</course><hAcc>1.639789</hAcc><vAcc>0.826046</vAcc></extensions></trkpt>
      <trkpt lon="-2.237311" lat="53.123208"><ele>121.700928</ele><time>2022-03-04T13:29:17Z</time><extensions><speed>1.017967</speed><course>287.134003</course><hAcc>1.654514</hAcc><vAcc>0.826131</vAcc></extensions></trkpt>
      <trkpt lon="-2.237326" lat="53.123211"><ele>121.653603</ele><time>2022-03-04T13:29:18Z</time><extensions><speed>1.140691</speed><course>292.169342</course><hAcc>1.632879</hAcc><vAcc>0.826228</vAcc></extensions></trkpt>
      <trkpt lon="-2.237342" lat="53.123215"><ele>121.604752</ele><time>2022-03-04T13:29:19Z</time><extensions><speed>1.160827</speed><course>292.270447</course><hAcc>1.633839</hAcc><vAcc>0.826333</vAcc></extensions></trkpt>
      <trkpt lon="-2.237358" lat="53.123219"><ele>121.557068</ele><time>2022-03-04T13:29:20Z</time><extensions><speed>1.141688</speed><course>293.348175</course><hAcc>1.639663</hAcc><vAcc>0.826430</vAcc></extensions></trkpt>
      <trkpt lon="-2.237373" lat="53.123223"><ele>121.499062</ele><time>2022-03-04T13:29:21Z</time><extensions><speed>1.057353</speed><course>291.329956</course><hAcc>1.673044</hAcc><vAcc>0.826551</vAcc></extensions></trkpt>
      <trkpt lon="-2.237388" lat="53.123226"><ele>121.441292</ele><time>2022-03-04T13:29:22Z</time><extensions><speed>1.054534</speed><course>286.397278</course><hAcc>1.652383</hAcc><vAcc>0.826670</vAcc></extensions></trkpt>
      <trkpt lon="-2.237403" lat="53.123228"><ele>121.379211</ele><time>2022-03-04T13:29:23Z</time><extensions><speed>1.046358</speed><course>283.437714</course><hAcc>1.652147</hAcc><vAcc>0.826795</vAcc></extensions></trkpt>
      <trkpt lon="-2.237419" lat="53.123231"><ele>121.306450</ele><time>2022-03-04T13:29:24Z</time><extensions><speed>1.102793</speed><course>286.673950</course><hAcc>1.660972</hAcc><vAcc>0.826926</vAcc></extensions></trkpt>
      <trkpt lon="-2.237435" lat="53.123234"><ele>121.241943</ele><time>2022-03-04T13:29:25Z</time><extensions><speed>1.223615</speed><course>289.304840</course><hAcc>1.667158</hAcc><vAcc>0.827054</vAcc></extensions></trkpt>
      <trkpt lon="-2.237453" lat="53.123238"><ele>121.175041</ele><time>2022-03-04T13:29:26Z</time><extensions><speed>1.225541</speed><course>291.811096</course><hAcc>1.674811</hAcc><vAcc>0.827188</vAcc></extensions></trkpt>
      <trkpt lon="-2.237469" lat="53.123242"><ele>121.103867</ele><time>2022-03-04T13:29:27Z</time><extensions><speed>1.143885</speed><course>291.435791</course><hAcc>1.680123</hAcc><vAcc>0.827296</vAcc></extensions></trkpt>
      <trkpt lon="-2.237485" lat="53.123245"><ele>121.032532</ele><time>2022-03-04T13:29:28Z</time><extensions><speed>1.071720</speed><course>288.388367</course><hAcc>1.690306</hAcc><vAcc>0.827374</vAcc></extensions></trkpt>
      <trkpt lon="-2.237500" lat="53.123248"><ele>120.955421</ele><time>2022-03-04T13:29:29Z</time><extensions><speed>1.120561</speed><course>283.664551</course><hAcc>1.706596</hAcc><vAcc>0.827425</vAcc></extensions></trkpt>
      <trkpt lon="-2.237517" lat="53.123250"><ele>120.878044</ele><time>2022-03-04T13:29:30Z</time><extensions><speed>1.156230</speed><course>281.453735</course><hAcc>1.689970</hAcc><vAcc>0.827452</vAcc></extensions></trkpt>
      <trkpt lon="-2.237533" lat="53.123252"><ele>120.801949</ele><time>2022-03-04T13:29:31Z</time><extensions><speed>1.096171</speed><course>279.459229</course><hAcc>1.690032</hAcc><vAcc>0.827455</vAcc></extensions></trkpt>
      <trkpt lon="-2.237549" lat="53.123253"><ele>120.729652</ele><time>2022-03-04T13:29:32Z</time><extensions><speed>0.982267</speed><course>277.537842</course><hAcc>1.702209</hAcc><vAcc>0.827402</vAcc></extensions></trkpt>
      <trkpt lon="-2.237562" lat="53.123254"><ele>120.665955</ele><time>2022-03-04T13:29:33Z</time><extensions><speed>0.812030</speed><course>276.118927</course><hAcc>1.713616</hAcc><vAcc>0.827342</vAcc></extensions></trkpt>
      <trkpt lon="-2.237572" lat="53.123255"><ele>120.607925</ele><time>2022-03-04T13:29:34Z</time><extensions><speed>0.564142</speed><course>271.255646</course><hAcc>1.725666</hAcc><vAcc>0.827227</vAcc></extensions></trkpt>
      <trkpt lon="-2.237579" lat="53.123254"><ele>120.554878</ele><time>2022-03-04T13:29:35Z</time><extensions><speed>0.358880</speed><course>262.282257</course><hAcc>1.729298</hAcc><vAcc>0.827067</vAcc></extensions></trkpt>
      <trkpt lon="-2.237583" lat="53.123254"><ele>120.506912</ele><time>2022-03-04T13:29:36Z</time><extensions><speed>0.146157</speed><course>250.488831</course><hAcc>1.738265</hAcc><vAcc>0.826890</vAcc></extensions></trkpt>
      <trkpt lon="-2.237584" lat="53.123254"><ele>120.464203</ele><time>2022-03-04T13:29:37Z</time><extensions><speed>0.058536</speed><course>229.040894</course><hAcc>1.741346</hAcc><vAcc>0.826700</vAcc></extensions></trkpt>
      <trkpt lon="-2.237585" lat="53.123253"><ele>120.426941</ele><time>2022-03-04T13:29:38Z</time><extensions><speed>0.025572</speed><course>208.512451</course><hAcc>1.744990</hAcc><vAcc>0.826508</vAcc></extensions></trkpt>
      <trkpt lon="-2.237585" lat="53.123253"><ele>120.391548</ele><time>2022-03-04T13:29:39Z</time><extensions><speed>0.015104</speed><course>244.631210</course><hAcc>1.746398</hAcc><vAcc>0.826319</vAcc></extensions></trkpt>
      <trkpt lon="-2.237585" lat="53.123253"><ele>120.367699</ele><time>2022-03-04T13:29:40Z</time><extensions><speed>0.031889</speed><course>281.670715</course><hAcc>1.745749</hAcc><vAcc>0.826149</vAcc></extensions></trkpt>
      <trkpt lon="-2.237586" lat="53.123253"><ele>120.349762</ele><time>2022-03-04T13:29:41Z</time><extensions><speed>0.055374</speed><course>284.843323</course><hAcc>1.742392</hAcc><vAcc>0.825988</vAcc></extensions></trkpt>
      <trkpt lon="-2.237587" lat="53.123253"><ele>120.337387</ele><time>2022-03-04T13:29:42Z</time><extensions><speed>0.075601</speed><course>283.368164</course><hAcc>1.738188</hAcc><vAcc>0.825826</vAcc></extensions></trkpt>
      <trkpt lon="-2.237588" lat="53.123254"><ele>120.330002</ele><time>2022-03-04T13:29:43Z</time><extensions><speed>0.087283</speed><course>281.332794</course><hAcc>1.730295</hAcc><vAcc>0.825672</vAcc></extensions></trkpt>
      <trkpt lon="-2.237590" lat="53.123254"><ele>120.344635</ele><time>2022-03-04T13:29:44Z</time><extensions><speed>0.089700</speed><course>282.576965</course><hAcc>1.717384</hAcc><vAcc>0.825508</vAcc></extensions></trkpt>
      <trkpt lon="-2.237591" lat="53.123254"><ele>120.368950</ele><time>2022-03-04T13:29:45Z</time><extensions><speed>0.085788</speed><course>285.310272</course><hAcc>1.707390</hAcc><vAcc>0.825327</vAcc></extensions></trkpt>
      <trkpt lon="-2.237592" lat="53.123254"><ele>120.395462</ele><time>2022-03-04T13:29:46Z</time><extensions><speed>0.084755</speed><course>288.774200</course><hAcc>1.698487</hAcc><vAcc>0.825173</vAcc></extensions></trkpt>
      <trkpt lon="-2.237593" lat="53.123255"><ele>120.417511</ele><time>2022-03-04T13:29:47Z</time><extensions><speed>0.091789</speed><course>292.213257</course><hAcc>1.692115</hAcc><vAcc>0.825034</vAcc></extensions></trkpt>
      <trkpt lon="-2.237595" lat="53.123255"><ele>120.447823</ele><time>2022-03-04T13:29:48Z</time><extensions><speed>0.090177</speed><course>296.237549</course><hAcc>1.709506</hAcc><vAcc>0.824908</vAcc></extensions></trkpt>
      <trkpt lon="-2.237596" lat="53.123255"><ele>120.477501</ele><time>2022-03-04T13:29:49Z</time><extensions><speed>0.098162</speed><course>302.387512</course><hAcc>1.712857</hAcc><vAcc>0.824774</vAcc></extensions></trkpt>
      <trkpt lon="-2.237597" lat="53.123256"><ele>120.507851</ele><time>2022-03-04T13:29:50Z</time><extensions><speed>0.128343</speed><course>309.353699</course><hAcc>1.687820</hAcc><vAcc>0.824646</vAcc></extensions></trkpt>
      <trkpt lon="-2.237599" lat="53.123257"><ele>120.527786</ele><time>2022-03-04T13:29:51Z</time><extensions><speed>0.138996</speed><course>315.274994</course><hAcc>1.686591</hAcc><vAcc>0.824530</vAcc></extensions></trkpt>
      <trkpt lon="-2.237600" lat="53.123258"><ele>120.545654</ele><time>2022-03-04T13:29:52Z</time><extensions><speed>0.150058</speed><course>319.765259</course><hAcc>1.702019</hAcc><vAcc>0.824442</vAcc></extensions></trkpt>
      <trkpt lon="-2.237602" lat="53.123259"><ele>120.561279</ele><time>2022-03-04T13:29:53Z</time><extensions><speed>0.154783</speed><course>320.959473</course><hAcc>1.725402</hAcc><vAcc>0.824376</vAcc></extensions></trkpt>
      <trkpt lon="-2.237603" lat="53.123260"><ele>120.565468</ele><time>2022-03-04T13:29:54Z</time><extensions><speed>0.163165</speed><course>315.707184</course><hAcc>1.736215</hAcc><vAcc>0.824358</vAcc></extensions></trkpt>
      <trkpt lon="-2.237605" lat="53.123261"><ele>120.555519</ele><time>2022-03-04T13:29:55Z</time><extensions><speed>0.178404</speed><course>306.620850</course><hAcc>1.736198</hAcc><vAcc>0.824404</vAcc></extensions></trkpt>
      <trkpt lon="-2.237608" lat="53.123262"><ele>120.551384</ele><time>2022-03-04T13:29:56Z</time><extensions><speed>0.196540</speed><course>299.394440</course><hAcc>1.739762</hAcc><vAcc>0.824485</vAcc></extensions></trkpt>
      <trkpt lon="-2.237610" lat="53.123263"><ele>120.540154</ele><time>2022-03-04T13:29:57Z</time><extensions><speed>0.226605</speed><course>294.766113</course><hAcc>1.747721</hAcc><vAcc>0.824633</vAcc></extensions></trkpt>
      <trkpt lon="-2.237614" lat="53.123264"><ele>120.521049</ele><time>2022-03-04T13:29:58Z</time><extensions><speed>0.288847</speed><course>292.455261</course><hAcc>1.753781</hAcc><vAcc>0.824826</vAcc></extensions></trkpt>
      <trkpt lon="-2.237619" lat="53.123265"><ele>120.493546</ele><time>2022-03-04T13:29:59Z</time><extensions><speed>0.422273</speed><course>291.837250</course><hAcc>1.749355</hAcc><vAcc>0.825071</vAcc></extensions></trkpt>
      <trkpt lon="-2.237627" lat="53.123267"><ele>120.449844</ele><time>2022-03-04T13:30:00Z</time><extensions><speed>0.669000</speed><course>291.010345</course><hAcc>1.739526</hAcc><vAcc>0.825366</vAcc></extensions></trkpt>
      <trkpt lon="-2.237637" lat="53.123269"><ele>120.411720</ele><time>2022-03-04T13:30:01Z</time><extensions><speed>0.803254</speed><course>289.933105</course><hAcc>1.751203</hAcc><vAcc>0.825702</vAcc></extensions></trkpt>
      <trkpt lon="-2.237649" lat="53.123271"><ele>120.364876</ele><time>2022-03-04T13:30:02Z</time><extensions><speed>0.891931</speed><course>286.551910</course><hAcc>1.753083</hAcc><vAcc>0.826061</vAcc></extensions></trkpt>
      <trkpt lon="-2.237663" lat="53.123273"><ele>120.291489</ele><time>2022-03-04T13:30:03Z</time><extensions><speed>0.999924</speed><course>282.527100</course><hAcc>1.747402</hAcc><vAcc>0.826440</vAcc></extensions></trkpt>
      <trkpt lon="-2.237678" lat="53.123275"><ele>120.228333</ele><time>2022-03-04T13:30:04Z</time><extensions><speed>1.109243</speed><course>279.251160</course><hAcc>1.740255</hAcc><vAcc>0.826825</vAcc></extensions></trkpt>
      <trkpt lon="-2.237695" lat="53.123277"><ele>120.163857</ele><time>2022-03-04T13:30:05Z</time><extensions><speed>1.202217</speed><course>277.787384</course><hAcc>1.738082</hAcc><vAcc>0.827186</vAcc></extensions></trkpt>
      <trkpt lon="-2.237713" lat="53.123278"><ele>120.101624</ele><time>2022-03-04T13:30:06Z</time><extensions><speed>1.248236</speed><course>277.740143</course><hAcc>1.732673</hAcc><vAcc>0.827524</vAcc></extensions></trkpt>
      <trkpt lon="-2.237732" lat="53.123280"><ele>120.056412</ele><time>2022-03-04T13:30:07Z</time><extensions><speed>1.212528</speed><course>280.868744</course><hAcc>1.728998</hAcc><vAcc>0.827824</vAcc></extensions></trkpt>
      <trkpt lon="-2.237749" lat="53.123283"><ele>120.000938</ele><time>2022-03-04T13:30:08Z</time><extensions><speed>1.183013</speed><course>286.511780</course><hAcc>1.727583</hAcc><vAcc>0.828073</vAcc></extensions></trkpt>
      <trkpt lon="-2.237766" lat="53.123286"><ele>119.957443</ele><time>2022-03-04T13:30:09Z</time><extensions><speed>1.231124</speed><course>291.350555</course><hAcc>1.726144</hAcc><vAcc>0.828280</vAcc></extensions></trkpt>
      <trkpt lon="-2.237784" lat="53.123290"><ele>119.916618</ele><time>2022-03-04T13:30:10Z</time><extensions><speed>1.305912</speed><course>293.189789</course><hAcc>1.726686</hAcc><vAcc>0.828442</vAcc></extensions></trkpt>
      <trkpt lon="-2.237801" lat="53.123295"><ele>119.870590</ele><time>2022-03-04T13:30:11Z</time><extensions><speed>1.264323</speed><course>290.694855</course><hAcc>1.723570</hAcc><vAcc>0.828560</vAcc></extensions></trkpt>
      <trkpt lon="-2.237819" lat="53.123298"><ele>119.824181</ele><time>2022-03-04T13:30:12Z</time><extensions><speed>1.217626</speed><course>286.337189</course><hAcc>1.720852</hAcc><vAcc>0.828652</vAcc></extensions></trkpt>
      <trkpt lon="-2.237837" lat="53.123301"><ele>119.780708</ele><time>2022-03-04T13:30:13Z</time><extensions><speed>1.227179</speed><course>283.683502</course><hAcc>1.720642</hAcc><vAcc>0.828705</vAcc></extensions></trkpt>
      <trkpt lon="-2.237855" lat="53.123304"><ele>119.724548</ele><time>2022-03-04T13:30:14Z</time><extensions><speed>1.244687</speed><course>284.417267</course><hAcc>1.720700</hAcc><vAcc>0.828730</vAcc></extensions></trkpt>
      <trkpt lon="-2.237873" lat="53.123306"><ele>119.676819</ele><time>2022-03-04T13:30:15Z</time><extensions><speed>1.260678</speed><course>283.241241</course><hAcc>1.721887</hAcc><vAcc>0.828748</vAcc></extensions></trkpt>
      <trkpt lon="-2.237891" lat="53.123309"><ele>119.636124</ele><time>2022-03-04T13:30:16Z</time><extensions><speed>1.283342</speed><course>279.911713</course><hAcc>1.721091</hAcc><vAcc>0.828762</vAcc></extensions></trkpt>
      <trkpt lon="-2.237910" lat="53.123310"><ele>119.590500</ele><time>2022-03-04T13:30:17Z</time><extensions><speed>1.241905</speed><course>277.428558</course><hAcc>1.721496</hAcc><vAcc>0.828769</vAcc></extensions></trkpt>
      <trkpt lon="-2.237928" lat="53.123312"><ele>119.571068</ele><time>2022-03-04T13:30:18Z</time><extensions><speed>1.174367</speed><course>274.605957</course><hAcc>1.724238</hAcc><vAcc>0.828778</vAcc></extensions></trkpt>
      <trkpt lon="-2.237945" lat="53.123312"><ele>119.534676</ele><time>2022-03-04T13:30:19Z</time><extensions><speed>1.147507</speed><course>269.491974</course><hAcc>1.723668</hAcc><vAcc>0.828812</vAcc></extensions></trkpt>
      <trkpt lon="-2.237962" lat="53.123312"><ele>119.500343</ele><time>2022-03-04T13:30:20Z</time><extensions><speed>1.131819</speed><course>265.338745</course><hAcc>1.723366</hAcc><vAcc>0.828845</vAcc></extensions></trkpt>
      <trkpt lon="-2.237979" lat="53.123311"><ele>119.471527</ele><time>2022-03-04T13:30:21Z</time><extensions><speed>1.153887</speed><course>265.113831</course><hAcc>1.721074</hAcc><vAcc>0.828899</vAcc></extensions></trkpt>
      <trkpt lon="-2.237997" lat="53.123310"><ele>119.446236</ele><time>2022-03-04T13:30:22Z</time><extensions><speed>1.177895</speed><course>268.652435</course><hAcc>1.717865</hAcc><vAcc>0.828955</vAcc></extensions></trkpt>
      <trkpt lon="-2.238014" lat="53.123310"><ele>119.415482</ele><time>2022-03-04T13:30:23Z</time><extensions><speed>1.218926</speed><course>271.614227</course><hAcc>1.713261</hAcc><vAcc>0.829042</vAcc></extensions></trkpt>
      <trkpt lon="-2.238032" lat="53.123310"><ele>119.373322</ele><time>2022-03-04T13:30:24Z</time><extensions><speed>1.181624</speed><course>272.381744</course><hAcc>1.703011</hAcc><vAcc>0.829136</vAcc></extensions></trkpt>
      <trkpt lon="-2.238050" lat="53.123311"><ele>119.336624</ele><time>2022-03-04T13:30:26Z</time><extensions><speed>1.176811</speed><course>273.127838</course><hAcc>1.682389</hAcc><vAcc>0.829257</vAcc></extensions></trkpt>
      <trkpt lon="-2.238068" lat="53.123311"><ele>119.285507</ele><time>2022-03-04T13:30:27Z</time><extensions><speed>1.226660</speed><course>273.959747</course><hAcc>1.656379</hAcc><vAcc>0.829346</vAcc></extensions></trkpt>
      <trkpt lon="-2.238087" lat="53.123312"><ele>119.235352</ele><time>2022-03-04T13:30:28Z</time><extensions><speed>1.291370</speed><course>275.277832</course><hAcc>1.614352</hAcc><vAcc>0.829439</vAcc></extensions></trkpt>
      <trkpt lon="-2.238107" lat="53.123314"><ele>119.205513</ele><time>2022-03-04T13:30:29Z</time><extensions><speed>1.400907</speed><course>277.245483</course><hAcc>1.600908</hAcc><vAcc>0.829534</vAcc></extensions></trkpt>
      <trkpt lon="-2.238128" lat="53.123315"><ele>119.178604</ele><time>2022-03-04T13:30:30Z</time><extensions><speed>1.449395</speed><course>277.394684</course><hAcc>1.631482</hAcc><vAcc>0.829636</vAcc></extensions></trkpt>
      <trkpt lon="-2.238149" lat="53.123317"><ele>119.151154</ele><time>2022-03-04T13:30:31Z</time><extensions><speed>1.426648</speed><course>273.276764</course><hAcc>1.613317</hAcc><vAcc>0.829727</vAcc></extensions></trkpt>
      <trkpt lon="-2.238171" lat="53.123317"><ele>119.103142</ele><time>2022-03-04T13:30:32Z</time><extensions><speed>1.392382</speed><course>269.237061</course><hAcc>1.635071</hAcc><vAcc>0.829832</vAcc></extensions></trkpt>
      <trkpt lon="-2.238190" lat="53.123316"><ele>119.051712</ele><time>2022-03-04T13:30:33Z</time><extensions><speed>1.211836</speed><course>263.942627</course><hAcc>1.600749</hAcc><vAcc>0.829930</vAcc></extensions></trkpt>
      <trkpt lon="-2.238207" lat="53.123315"><ele>119.008942</ele><time>2022-03-04T13:30:34Z</time><extensions><speed>1.041162</speed><course>262.230347</course><hAcc>1.601480</hAcc><vAcc>0.830007</vAcc></extensions></trkpt>
      <trkpt lon="-2.238222" lat="53.123314"><ele>118.952553</ele><time>2022-03-04T13:30:35Z</time><extensions><speed>1.085575</speed><course>260.884644</course><hAcc>1.644228</hAcc><vAcc>0.830052</vAcc></extensions></trkpt>
      <trkpt lon="-2.238240" lat="53.123312"><ele>118.882019</ele><time>2022-03-04T13:30:36Z</time><extensions><speed>1.221400</speed><course>263.548767</course><hAcc>1.663529</hAcc><vAcc>0.830068</vAcc></extensions></trkpt>
      <trkpt lon="-2.238259" lat="53.123311"><ele>118.818268</ele><time>2022-03-04T13:30:37Z</time><extensions><speed>1.326547</speed><course>267.127563</course><hAcc>1.681770</hAcc><vAcc>0.830054</vAcc></extensions></trkpt>
      <trkpt lon="-2.238279" lat="53.123311"><ele>118.770798</ele><time>2022-03-04T13:30:38Z</time><extensions><speed>1.369299</speed><course>269.680206</course><hAcc>1.697966</hAcc><vAcc>0.830009</vAcc></extensions></trkpt>
      <trkpt lon="-2.238300" lat="53.123311"><ele>118.714790</ele><time>2022-03-04T13:30:39Z</time><extensions><speed>1.443641</speed><course>272.285797</course><hAcc>1.704878</hAcc><vAcc>0.829950</vAcc></extensions></trkpt>
      <trkpt lon="-2.238321" lat="53.123312"><ele>118.648605</ele><time>2022-03-04T13:30:40Z</time><extensions><speed>1.422812</speed><course>273.152863</course><hAcc>1.701016</hAcc><vAcc>0.829876</vAcc></extensions></trkpt>
      <trkpt lon="-2.238342" lat="53.123313"><ele>118.602592</ele><time>2022-03-04T13:30:41Z</time><extensions><speed>1.376121</speed><course>274.192627</course><hAcc>1.687386</hAcc><vAcc>0.829808</vAcc></extensions></trkpt>
      <trkpt lon="-2.238362" lat="53.123314"><ele>118.539696</ele><time>2022-03-04T13:30:42Z</time><extensions><speed>1.238772</speed><course>274.975708</course><hAcc>1.687233</hAcc><vAcc>0.829715</vAcc></extensions></trkpt>
      <trkpt lon="-2.238380" lat="53.123314"><ele>118.486320</ele><time>2022-03-04T13:30:43Z</time><extensions><speed>1.127248</speed><course>274.735931</course><hAcc>1.705716</hAcc><vAcc>0.829609</vAcc></extensions></trkpt>
      <trkpt lon="-2.238396" lat="53.123315"><ele>118.439568</ele><time>2022-03-04T13:30:44Z</time><extensions><speed>1.032840</speed><course>271.253662</course><hAcc>1.699043</hAcc><vAcc>0.829511</vAcc></extensions></trkpt>
      <trkpt lon="-2.238410" lat="53.123315"><ele>118.390778</ele><time>2022-03-04T13:30:45Z</time><extensions><speed>0.934790</speed><course>268.941620</course><hAcc>1.683673</hAcc><vAcc>0.829414</vAcc></extensions></trkpt>
      <trkpt lon="-2.238424" lat="53.123315"><ele>118.342964</ele><time>2022-03-04T13:30:46Z</time><extensions><speed>0.864737</speed><course>266.797546</course><hAcc>1.687240</hAcc><vAcc>0.829319</vAcc></extensions></trkpt>
      <trkpt lon="-2.238437" lat="53.123315"><ele>118.298073</ele><time>2022-03-04T13:30:47Z</time><extensions><speed>0.878957</speed><course>270.326111</course><hAcc>1.689385</hAcc><vAcc>0.829236</vAcc></extensions></trkpt>
      <trkpt lon="-2.238450" lat="53.123315"><ele>118.254356</ele><time>2022-03-04T13:30:48Z</time><extensions><speed>0.828251</speed><course>274.739685</course><hAcc>1.694412</hAcc><vAcc>0.829177</vAcc></extensions></trkpt>
      <trkpt lon="-2.238462" lat="53.123316"><ele>118.202461</ele><time>2022-03-04T13:30:49Z</time><extensions><speed>0.794357</speed><course>278.790527</course><hAcc>1.701816</hAcc><vAcc>0.829137</vAcc></extensions></trkpt>
      <trkpt lon="-2.238474" lat="53.123317"><ele>118.162636</ele><time>2022-03-04T13:30:50Z</time><extensions><speed>0.861389</speed><course>285.393890</course><hAcc>1.713233</hAcc><vAcc>0.829098</vAcc></extensions></trkpt>
      <trkpt lon="-2.238487" lat="53.123320"><ele>118.127007</ele><time>2022-03-04T13:30:51Z</time><extensions><speed>0.962832</speed><course>293.380676</course><hAcc>1.716121</hAcc><vAcc>0.829102</vAcc></extensions></trkpt>
      <trkpt lon="-2.238500" lat="53.123324"><ele>118.092667</ele><time>2022-03-04T13:30:52Z</time><extensions><speed>1.036114</speed><course>296.426239</course><hAcc>1.716035</hAcc><vAcc>0.829150</vAcc></extensions></trkpt>
      <trkpt lon="-2.238515" lat="53.123328"><ele>118.050735</ele><time>2022-03-04T13:30:53Z</time><extensions><speed>1.125641</speed><course>296.471832</course><hAcc>1.717469</hAcc><vAcc>0.829203</vAcc></extensions></trkpt>
      <trkpt lon="-2.238530" lat="53.123333"><ele>118.035645</ele><time>2022-03-04T13:30:54Z</time><extensions><speed>1.051262</speed><course>295.766235</course><hAcc>1.715488</hAcc><vAcc>0.829273</vAcc></extensions></trkpt>
      <trkpt lon="-2.238544" lat="53.123337"><ele>118.010803</ele><time>2022-03-04T13:30:55Z</time><extensions><speed>1.107446</speed><course>295.845978</course><hAcc>1.710230</hAcc><vAcc>0.829355</vAcc></extensions></trkpt>
      <trkpt lon="-2.238560" lat="53.123342"><ele>117.982269</ele><time>2022-03-04T13:30:56Z</time><extensions><speed>1.258357</speed><course>296.996582</course><hAcc>1.707191</hAcc><vAcc>0.829434</vAcc></extensions></trkpt>
      <trkpt lon="-2.238577" lat="53.123347"><ele>117.952148</ele><time>2022-03-04T13:30:57Z</time><extensions><speed>1.322254</speed><course>299.253113</course><hAcc>1.705631</hAcc><vAcc>0.829513</vAcc></extensions></trkpt>
      <trkpt lon="-2.238594" lat="53.123353"><ele>117.914139</ele><time>2022-03-04T13:30:58Z</time><extensions><speed>1.273953</speed><course>302.106049</course><hAcc>1.694148</hAcc><vAcc>0.829579</vAcc></extensions></trkpt>
      <trkpt lon="-2.238609" lat="53.123359"><ele>117.878304</ele><time>2022-03-04T13:30:59Z</time><extensions><speed>1.130388</speed><course>304.582977</course><hAcc>1.683382</hAcc><vAcc>0.829625</vAcc></extensions></trkpt>
      <trkpt lon="-2.238622" lat="53.123365"><ele>117.821510</ele><time>2022-03-04T13:31:00Z</time><extensions><speed>1.039495</speed><course>305.440399</course><hAcc>1.663274</hAcc><vAcc>0.829650</vAcc></extensions></trkpt>
      <trkpt lon="-2.238634" lat="53.123370"><ele>117.762436</ele><time>2022-03-04T13:31:01Z</time><extensions><speed>1.015849</speed><course>306.242737</course><hAcc>1.654018</hAcc><vAcc>0.829652</vAcc></extensions></trkpt>
      <trkpt lon="-2.238647" lat="53.123376"><ele>117.693428</ele><time>2022-03-04T13:31:02Z</time><extensions><speed>1.030336</speed><course>307.706268</course><hAcc>1.657598</hAcc><vAcc>0.829624</vAcc></extensions></trkpt>
      <trkpt lon="-2.238659" lat="53.123382"><ele>117.630318</ele><time>2022-03-04T13:31:03Z</time><extensions><speed>1.127443</speed><course>309.521393</course><hAcc>1.658281</hAcc><vAcc>0.829594</vAcc></extensions></trkpt>
      <trkpt lon="-2.238673" lat="53.123389"><ele>117.559814</ele><time>2022-03-04T13:31:04Z</time><extensions><speed>1.238510</speed><course>310.149963</course><hAcc>1.674634</hAcc><vAcc>0.829535</vAcc></extensions></trkpt>
      <trkpt lon="-2.238688" lat="53.123396"><ele>117.492676</ele><time>2022-03-04T13:31:05Z</time><extensions><speed>1.318213</speed><course>309.624878</course><hAcc>1.654062</hAcc><vAcc>0.829462</vAcc></extensions></trkpt>
      <trkpt lon="-2.238703" lat="53.123403"><ele>117.417694</ele><time>2022-03-04T13:31:06Z</time><extensions><speed>1.299371</speed><course>308.283936</course><hAcc>1.647788</hAcc><vAcc>0.829351</vAcc></extensions></trkpt>
      <trkpt lon="-2.238718" lat="53.123411"><ele>117.355911</ele><time>2022-03-04T13:31:07Z</time><extensions><speed>1.301129</speed><course>309.154327</course><hAcc>1.661187</hAcc><vAcc>0.829228</vAcc></extensions></trkpt>
      <trkpt lon="-2.238733" lat="53.123418"><ele>117.290398</ele><time>2022-03-04T13:31:08Z</time><extensions><speed>1.319881</speed><course>310.363647</course><hAcc>1.672814</hAcc><vAcc>0.829120</vAcc></extensions></trkpt>
      <trkpt lon="-2.238748" lat="53.123426"><ele>117.226524</ele><time>2022-03-04T13:31:09Z</time><extensions><speed>1.337770</speed><course>311.941528</course><hAcc>1.681265</hAcc><vAcc>0.829026</vAcc></extensions></trkpt>
      <trkpt lon="-2.238763" lat="53.123434"><ele>117.178551</ele><time>2022-03-04T13:31:10Z</time><extensions><speed>1.330765</speed><course>311.820099</course><hAcc>1.675070</hAcc><vAcc>0.828935</vAcc></extensions></trkpt>
      <trkpt lon="-2.238778" lat="53.123442"><ele>117.125183</ele><time>2022-03-04T13:31:11Z</time><extensions><speed>1.397035</speed><course>311.133789</course><hAcc>1.663452</hAcc><vAcc>0.828882</vAcc></extensions></trkpt>
      <trkpt lon="-2.238794" lat="53.123451"><ele>117.072182</ele><time>2022-03-04T13:31:12Z</time><extensions><speed>1.451772</speed><course>311.602509</course><hAcc>1.652231</hAcc><vAcc>0.828833</vAcc></extensions></trkpt>
      <trkpt lon="-2.238810" lat="53.123460"><ele>117.036308</ele><time>2022-03-04T13:31:13Z</time><extensions><speed>1.505185</speed><course>312.659943</course><hAcc>1.646036</hAcc><vAcc>0.828777</vAcc></extensions></trkpt>
      <trkpt lon="-2.238826" lat="53.123469"><ele>116.998344</ele><time>2022-03-04T13:31:14Z</time><extensions><speed>1.467149</speed><course>315.168610</course><hAcc>1.664902</hAcc><vAcc>0.828740</vAcc></extensions></trkpt>
      <trkpt lon="-2.238841" lat="53.123478"><ele>116.961578</ele><time>2022-03-04T13:31:15Z</time><extensions><speed>1.431460</speed><course>317.295441</course><hAcc>1.662606</hAcc><vAcc>0.828711</vAcc></extensions></trkpt>
      <trkpt lon="-2.238856" lat="53.123488"><ele>116.941177</ele><time>2022-03-04T13:31:16Z</time><extensions><speed>1.377074</speed><course>316.793060</course><hAcc>1.629519</hAcc><vAcc>0.828680</vAcc></extensions></trkpt>
      <trkpt lon="-2.238870" lat="53.123497"><ele>116.930496</ele><time>2022-03-04T13:31:16Z</time><extensions><speed>1.354200</speed><course>316.407440</course><hAcc>1.614622</hAcc><vAcc>0.828657</vAcc></extensions></trkpt>
      <trkpt lon="-2.238883" lat="53.123505"><ele>116.904099</ele><time>2022-03-04T13:31:17Z</time><extensions><speed>1.355872</speed><course>318.111237</course><hAcc>1.616750</hAcc><vAcc>0.828649</vAcc></extensions></trkpt>
      <trkpt lon="-2.238896" lat="53.123514"><ele>116.872932</ele><time>2022-03-04T13:31:18Z</time><extensions><speed>1.308157</speed><course>319.409393</course><hAcc>1.621252</hAcc><vAcc>0.828650</vAcc></extensions></trkpt>
      <trkpt lon="-2.238909" lat="53.123523"><ele>116.848488</ele><time>2022-03-04T13:31:19Z</time><extensions><speed>1.309276</speed><course>318.786804</course><hAcc>1.609312</hAcc><vAcc>0.828684</vAcc></extensions></trkpt>
      <trkpt lon="-2.238923" lat="53.123532"><ele>116.837395</ele><time>2022-03-04T13:31:20Z</time><extensions><speed>1.303394</speed><course>316.294464</course><hAcc>1.609596</hAcc><vAcc>0.828732</vAcc></extensions></trkpt>
      <trkpt lon="-2.238936" lat="53.123540"><ele>116.824463</ele><time>2022-03-04T13:31:21Z</time><extensions><speed>1.367660</speed><course>314.936432</course><hAcc>1.573157</hAcc><vAcc>0.828778</vAcc></extensions></trkpt>
      <trkpt lon="-2.238951" lat="53.123549"><ele>116.809532</ele><time>2022-03-04T13:31:22Z</time><extensions><speed>1.437303</speed><course>315.015137</course><hAcc>1.567189</hAcc><vAcc>0.828841</vAcc></extensions></trkpt>
      <trkpt lon="-2.238966" lat="53.123558"><ele>116.798141</ele><time>2022-03-04T13:31:23Z</time><extensions><speed>1.412266</speed><course>316.334747</course><hAcc>1.597210</hAcc><vAcc>0.828919</vAcc></extensions></trkpt>
      <trkpt lon="-2.238981" lat="53.123567"><ele>116.786804</ele><time>2022-03-04T13:31:24Z</time><extensions><speed>1.372900</speed><course>314.552216</course><hAcc>1.577943</hAcc><vAcc>0.828982</vAcc></extensions></trkpt>
      <trkpt lon="-2.238995" lat="53.123576"><ele>116.756340</ele><time>2022-03-04T13:31:25Z</time><extensions><speed>1.341859</speed><course>314.959747</course><hAcc>1.607193</hAcc><vAcc>0.829065</vAcc></extensions></trkpt>
      <trkpt lon="-2.239009" lat="53.123584"><ele>116.740158</ele><time>2022-03-04T13:31:26Z</time><extensions><speed>1.219988</speed><course>310.617279</course><hAcc>1.570962</hAcc><vAcc>0.829123</vAcc></extensions></trkpt>
      <trkpt lon="-2.239023" lat="53.123590"><ele>116.713097</ele><time>2022-03-04T13:31:27Z</time><extensions><speed>1.137906</speed><course>308.382233</course><hAcc>1.561693</hAcc><vAcc>0.829183</vAcc></extensions></trkpt>
      <trkpt lon="-2.239036" lat="53.123597"><ele>116.675964</ele><time>2022-03-04T13:31:28Z</time><extensions><speed>1.169474</speed><course>308.510925</course><hAcc>1.581317</hAcc><vAcc>0.829274</vAcc></extensions></trkpt>
      <trkpt lon="-2.239050" lat="53.123604"><ele>116.623344</ele><time>2022-03-04T13:31:29Z</time><extensions><speed>1.259562</speed><course>309.964966</course><hAcc>1.617809</hAcc><vAcc>0.829449</vAcc></extensions></trkpt>
      <trkpt lon="-2.239065" lat="53.123611"><ele>116.566238</ele><time>2022-03-04T13:31:30Z</time><extensions><speed>1.283248</speed><course>312.507843</course><hAcc>1.631771</hAcc><vAcc>0.829579</vAcc></extensions></trkpt>
      <trkpt lon="-2.239078" lat="53.123619"><ele>116.507378</ele><time>2022-03-04T13:31:31Z</time><extensions><speed>1.158200</speed><course>313.240295</course><hAcc>1.600114</hAcc><vAcc>0.829690</vAcc></extensions></trkpt>
      <trkpt lon="-2.239091" lat="53.123626"><ele>116.444595</ele><time>2022-03-04T13:31:32Z</time><extensions><speed>1.161305</speed><course>312.483246</course><hAcc>1.582107</hAcc><vAcc>0.829797</vAcc></extensions></trkpt>
      <trkpt lon="-2.239104" lat="53.123633"><ele>116.384682</ele><time>2022-03-04T13:31:33Z</time><extensions><speed>1.236027</speed><course>312.369385</course><hAcc>1.579130</hAcc><vAcc>0.829905</vAcc></extensions></trkpt>
      <trkpt lon="-2.239118" lat="53.123641"><ele>116.317604</ele><time>2022-03-04T13:31:34Z</time><extensions><speed>1.369417</speed><course>313.223145</course><hAcc>1.604401</hAcc><vAcc>0.830012</vAcc></extensions></trkpt>
      <trkpt lon="-2.239133" lat="53.123650"><ele>116.236229</ele><time>2022-03-04T13:31:35Z</time><extensions><speed>1.377373</speed><course>315.090820</course><hAcc>1.666346</hAcc><vAcc>0.830111</vAcc></extensions></trkpt>
      <trkpt lon="-2.239148" lat="53.123658"><ele>116.186005</ele><time>2022-03-04T13:31:36Z</time><extensions><speed>1.329635</speed><course>311.968170</course><hAcc>1.612887</hAcc><vAcc>0.830200</vAcc></extensions></trkpt>
      <trkpt lon="-2.239163" lat="53.123666"><ele>116.135460</ele><time>2022-03-04T13:31:37Z</time><extensions><speed>1.312914</speed><course>309.479431</course><hAcc>1.595927</hAcc><vAcc>0.830277</vAcc></extensions></trkpt>
      <trkpt lon="-2.239178" lat="53.123673"><ele>116.086021</ele><time>2022-03-04T13:31:38Z</time><extensions><speed>1.288216</speed><course>307.792389</course><hAcc>1.619885</hAcc><vAcc>0.830323</vAcc></extensions></trkpt>
      <trkpt lon="-2.239193" lat="53.123680"><ele>116.021927</ele><time>2022-03-04T13:31:39Z</time><extensions><speed>1.276255</speed><course>306.602661</course><hAcc>1.646272</hAcc><vAcc>0.830336</vAcc></extensions></trkpt>
      <trkpt lon="-2.239209" lat="53.123687"><ele>115.955872</ele><time>2022-03-04T13:31:40Z</time><extensions><speed>1.320201</speed><course>307.493225</course><hAcc>1.649371</hAcc><vAcc>0.830284</vAcc></extensions></trkpt>
      <trkpt lon="-2.239224" lat="53.123695"><ele>115.912331</ele><time>2022-03-04T13:31:41Z</time><extensions><speed>1.362758</speed><course>309.094666</course><hAcc>1.650862</hAcc><vAcc>0.830213</vAcc></extensions></trkpt>
      <trkpt lon="-2.239240" lat="53.123703"><ele>115.866570</ele><time>2022-03-04T13:31:42Z</time><extensions><speed>1.380547</speed><course>309.784576</course><hAcc>1.646255</hAcc><vAcc>0.830092</vAcc></extensions></trkpt>
      <trkpt lon="-2.239256" lat="53.123710"><ele>115.814445</ele><time>2022-03-04T13:31:43Z</time><extensions><speed>1.390802</speed><course>308.694275</course><hAcc>1.631083</hAcc><vAcc>0.829951</vAcc></extensions></trkpt>
      <trkpt lon="-2.239273" lat="53.123718"><ele>115.798370</ele><time>2022-03-04T13:31:44Z</time><extensions><speed>1.360865</speed><course>307.400391</course><hAcc>1.603959</hAcc><vAcc>0.829811</vAcc></extensions></trkpt>
      <trkpt lon="-2.239289" lat="53.123726"><ele>115.775696</ele><time>2022-03-04T13:31:45Z</time><extensions><speed>1.394673</speed><course>307.471558</course><hAcc>1.573861</hAcc><vAcc>0.829657</vAcc></extensions></trkpt>
      <trkpt lon="-2.239306" lat="53.123733"><ele>115.759575</ele><time>2022-03-04T13:31:46Z</time><extensions><speed>1.448485</speed><course>308.187317</course><hAcc>1.577724</hAcc><vAcc>0.829498</vAcc></extensions></trkpt>
      <trkpt lon="-2.239323" lat="53.123741"><ele>115.732552</ele><time>2022-03-04T13:31:47Z</time><extensions><speed>1.406202</speed><course>309.652649</course><hAcc>1.610301</hAcc><vAcc>0.829357</vAcc></extensions></trkpt>
      <trkpt lon="-2.239339" lat="53.123749"><ele>115.713623</ele><time>2022-03-04T13:31:48Z</time><extensions><speed>1.343117</speed><course>309.839722</course><hAcc>1.603480</hAcc><vAcc>0.829207</vAcc></extensions></trkpt>
      <trkpt lon="-2.239352" lat="53.123757"><ele>115.685013</ele><time>2022-03-04T13:31:49Z</time><extensions><speed>1.124176</speed><course>315.945282</course><hAcc>1.567279</hAcc><vAcc>0.829054</vAcc></extensions></trkpt>
      <trkpt lon="-2.239364" lat="53.123764"><ele>115.645493</ele><time>2022-03-04T13:31:50Z</time><extensions><speed>1.124808</speed><course>313.936249</course><hAcc>1.568124</hAcc><vAcc>0.828944</vAcc></extensions></trkpt>
      <trkpt lon="-2.239377" lat="53.123771"><ele>115.614120</ele><time>2022-03-04T13:31:51Z</time><extensions><speed>1.244856</speed><course>311.381073</course><hAcc>1.606084</hAcc><vAcc>0.828824</vAcc></extensions></trkpt>
      <trkpt lon="-2.239392" lat="53.123779"><ele>115.582581</ele><time>2022-03-04T13:31:52Z</time><extensions><speed>1.343319</speed><course>309.886383</course><hAcc>1.616879</hAcc><vAcc>0.828735</vAcc></extensions></trkpt>
      <trkpt lon="-2.239408" lat="53.123786"><ele>115.548653</ele><time>2022-03-04T13:31:53Z</time><extensions><speed>1.341033</speed><course>308.339966</course><hAcc>1.629176</hAcc><vAcc>0.828656</vAcc></extensions></trkpt>
      <trkpt lon="-2.239424" lat="53.123794"><ele>115.514030</ele><time>2022-03-04T13:31:54Z</time><extensions><speed>1.380729</speed><course>308.510376</course><hAcc>1.642884</hAcc><vAcc>0.828572</vAcc></extensions></trkpt>
      <trkpt lon="-2.239439" lat="53.123802"><ele>115.472649</ele><time>2022-03-04T13:31:55Z</time><extensions><speed>1.357119</speed><course>309.617676</course><hAcc>1.653023</hAcc><vAcc>0.828494</vAcc></extensions></trkpt>
      <trkpt lon="-2.239455" lat="53.123810"><ele>115.450462</ele><time>2022-03-04T13:31:56Z</time><extensions><speed>1.350400</speed><course>311.723114</course><hAcc>1.669597</hAcc><vAcc>0.828437</vAcc></extensions></trkpt>
      <trkpt lon="-2.239470" lat="53.123818"><ele>115.411743</ele><time>2022-03-04T13:31:57Z</time><extensions><speed>1.305694</speed><course>313.006012</course><hAcc>1.681967</hAcc><vAcc>0.828390</vAcc></extensions></trkpt>
      <trkpt lon="-2.239484" lat="53.123826"><ele>115.362930</ele><time>2022-03-04T13:31:58Z</time><extensions><speed>1.279102</speed><course>312.097229</course><hAcc>1.666699</hAcc><vAcc>0.828355</vAcc></extensions></trkpt>
      <trkpt lon="-2.239499" lat="53.123834"><ele>115.327095</ele><time>2022-03-04T13:31:59Z</time><extensions><speed>1.380561</speed><course>311.717194</course><hAcc>1.657670</hAcc><vAcc>0.828333</vAcc></extensions></trkpt>
      <trkpt lon="-2.239514" lat="53.123842"><ele>115.278122</ele><time>2022-03-04T13:32:00Z</time><extensions><speed>1.468031</speed><course>311.769287</course><hAcc>1.659418</hAcc><vAcc>0.828348</vAcc></extensions></trkpt>
      <trkpt lon="-2.239531" lat="53.123851"><ele>115.223541</ele><time>2022-03-04T13:32:01Z</time><extensions><speed>1.500054</speed><course>312.435120</course><hAcc>1.667323</hAcc><vAcc>0.828330</vAcc></extensions></trkpt>
      <trkpt lon="-2.239547" lat="53.123860"><ele>115.168350</ele><time>2022-03-04T13:32:02Z</time><extensions><speed>1.457165</speed><course>311.970642</course><hAcc>1.682409</hAcc><vAcc>0.828305</vAcc></extensions></trkpt>
      <trkpt lon="-2.239563" lat="53.123869"><ele>115.131233</ele><time>2022-03-04T13:32:03Z</time><extensions><speed>1.411021</speed><course>311.754517</course><hAcc>1.674942</hAcc><vAcc>0.828298</vAcc></extensions></trkpt>
      <trkpt lon="-2.239579" lat="53.123878"><ele>115.081360</ele><time>2022-03-04T13:32:04Z</time><extensions><speed>1.432290</speed><course>314.052612</course><hAcc>1.660079</hAcc><vAcc>0.828297</vAcc></extensions></trkpt>
      <trkpt lon="-2.239594" lat="53.123887"><ele>115.034142</ele><time>2022-03-04T13:32:05Z</time><extensions><speed>1.443542</speed><course>316.786652</course><hAcc>1.651866</hAcc><vAcc>0.828311</vAcc></extensions></trkpt>
      <trkpt lon="-2.239609" lat="53.123896"><ele>114.977394</ele><time>2022-03-04T13:32:06Z</time><extensions><speed>1.451674</speed><course>318.928864</course><hAcc>1.644024</hAcc><vAcc>0.828320</vAcc></extensions></trkpt>
      <trkpt lon="-2.239623" lat="53.123906"><ele>114.925232</ele><time>2022-03-04T13:32:07Z</time><extensions><speed>1.423738</speed><course>319.630066</course><hAcc>1.630404</hAcc><vAcc>0.828310</vAcc></extensions></trkpt>
      <trkpt lon="-2.239636" lat="53.123916"><ele>114.882133</ele><time>2022-03-04T13:32:08Z</time><extensions><speed>1.400989</speed><course>318.899261</course><hAcc>1.615776</hAcc><vAcc>0.828292</vAcc></extensions></trkpt>
      <trkpt lon="-2.239650" lat="53.123925"><ele>114.813919</ele><time>2022-03-04T13:32:09Z</time><extensions><speed>1.383038</speed><course>318.455505</course><hAcc>1.612882</hAcc><vAcc>0.828273</vAcc></extensions></trkpt>
      <trkpt lon="-2.239664" lat="53.123935"><ele>114.756111</ele><time>2022-03-04T13:32:10Z</time><extensions><speed>1.361020</speed><course>317.808411</course><hAcc>1.595864</hAcc><vAcc>0.828244</vAcc></extensions></trkpt>
      <trkpt lon="-2.239678" lat="53.123944"><ele>114.703896</ele><time>2022-03-04T13:32:11Z</time><extensions><speed>1.445491</speed><course>317.059296</course><hAcc>1.536808</hAcc><vAcc>0.828190</vAcc></extensions></trkpt>
      <trkpt lon="-2.239693" lat="53.123953"><ele>114.648239</ele><time>2022-03-04T13:32:12Z</time><extensions><speed>1.503830</speed><course>316.838593</course><hAcc>1.521345</hAcc><vAcc>0.828098</vAcc></extensions></trkpt>
      <trkpt lon="-2.239708" lat="53.123963"><ele>114.591484</ele><time>2022-03-04T13:32:13Z</time><extensions><speed>1.498460</speed><course>316.794556</course><hAcc>1.567211</hAcc><vAcc>0.827987</vAcc></extensions></trkpt>
      <trkpt lon="-2.239724" lat="53.123973"><ele>114.551308</ele><time>2022-03-04T13:32:14Z</time><extensions><speed>1.485468</speed><course>317.809357</course><hAcc>1.576999</hAcc><vAcc>0.827884</vAcc></extensions></trkpt>
      <trkpt lon="-2.239738" lat="53.123983"><ele>114.497299</ele><time>2022-03-04T13:32:15Z</time><extensions><speed>1.455858</speed><course>317.227875</course><hAcc>1.576095</hAcc><vAcc>0.827780</vAcc></extensions></trkpt>
      <trkpt lon="-2.239753" lat="53.123992"><ele>114.443443</ele><time>2022-03-04T13:32:16Z</time><extensions><speed>1.409108</speed><course>317.496124</course><hAcc>1.535005</hAcc><vAcc>0.827662</vAcc></extensions></trkpt>
      <trkpt lon="-2.239767" lat="53.124002"><ele>114.388115</ele><time>2022-03-04T13:32:17Z</time><extensions><speed>1.387364</speed><course>317.667999</course><hAcc>1.544186</hAcc><vAcc>0.827544</vAcc></extensions></trkpt>
      <trkpt lon="-2.239781" lat="53.124011"><ele>114.343117</ele><time>2022-03-04T13:32:18Z</time><extensions><speed>1.413018</speed><course>318.443054</course><hAcc>1.585591</hAcc><vAcc>0.827418</vAcc></extensions></trkpt>
      <trkpt lon="-2.239795" lat="53.124020"><ele>114.291023</ele><time>2022-03-04T13:32:19Z</time><extensions><speed>1.407239</speed><course>318.130798</course><hAcc>1.618225</hAcc><vAcc>0.827311</vAcc></extensions></trkpt>
      <trkpt lon="-2.239809" lat="53.124030"><ele>114.236969</ele><time>2022-03-04T13:32:20Z</time><extensions><speed>1.406489</speed><course>317.552826</course><hAcc>1.611272</hAcc><vAcc>0.827267</vAcc></extensions></trkpt>
      <trkpt lon="-2.239823" lat="53.124039"><ele>114.186905</ele><time>2022-03-04T13:32:21Z</time><extensions><speed>1.373020</speed><course>317.343353</course><hAcc>1.583109</hAcc><vAcc>0.827350</vAcc></extensions></trkpt>
      <trkpt lon="-2.239837" lat="53.124048"><ele>114.151611</ele><time>2022-03-04T13:32:22Z</time><extensions><speed>1.387357</speed><course>317.499390</course><hAcc>1.540509</hAcc><vAcc>0.827404</vAcc></extensions></trkpt>
      <trkpt lon="-2.239852" lat="53.124058"><ele>114.099854</ele><time>2022-03-04T13:32:23Z</time><extensions><speed>1.494491</speed><course>319.092834</course><hAcc>1.532357</hAcc><vAcc>0.827460</vAcc></extensions></trkpt>
      <trkpt lon="-2.239866" lat="53.124068"><ele>114.053673</ele><time>2022-03-04T13:32:24Z</time><extensions><speed>1.488546</speed><course>320.929504</course><hAcc>1.577888</hAcc><vAcc>0.827541</vAcc></extensions></trkpt>
      <trkpt lon="-2.239881" lat="53.124078"><ele>114.003197</ele><time>2022-03-04T13:32:25Z</time><extensions><speed>1.481617</speed><course>318.562683</course><hAcc>1.573071</hAcc><vAcc>0.827638</vAcc></extensions></trkpt>
      <trkpt lon="-2.239896" lat="53.124088"><ele>113.961815</ele><time>2022-03-04T13:32:26Z</time><extensions><speed>1.474680</speed><course>315.940430</course><hAcc>1.535591</hAcc><vAcc>0.827733</vAcc></extensions></trkpt>
      <trkpt lon="-2.239911" lat="53.124097"><ele>113.913803</ele><time>2022-03-04T13:32:27Z</time><extensions><speed>1.443722</speed><course>313.493713</course><hAcc>1.523698</hAcc><vAcc>0.827827</vAcc></extensions></trkpt>
      <trkpt lon="-2.239927" lat="53.124106"><ele>113.881447</ele><time>2022-03-04T13:32:28Z</time><extensions><speed>1.421448</speed><course>313.461151</course><hAcc>1.515264</hAcc><vAcc>0.827908</vAcc></extensions></trkpt>
      <trkpt lon="-2.239942" lat="53.124115"><ele>113.850220</ele><time>2022-03-04T13:32:29Z</time><extensions><speed>1.452142</speed><course>314.437714</course><hAcc>1.553028</hAcc><vAcc>0.827955</vAcc></extensions></trkpt>
      <trkpt lon="-2.239958" lat="53.124124"><ele>113.816269</ele><time>2022-03-04T13:32:30Z</time><extensions><speed>1.454874</speed><course>314.043945</course><hAcc>1.619248</hAcc><vAcc>0.827993</vAcc></extensions></trkpt>
      <trkpt lon="-2.239973" lat="53.124133"><ele>113.773514</ele><time>2022-03-04T13:32:32Z</time><extensions><speed>1.414430</speed><course>315.186462</course><hAcc>1.607190</hAcc><vAcc>0.828014</vAcc></extensions></trkpt>
      <trkpt lon="-2.239988" lat="53.124142"><ele>113.730148</ele><time>2022-03-04T13:32:33Z</time><extensions><speed>1.388759</speed><course>314.960693</course><hAcc>1.595979</hAcc><vAcc>0.828035</vAcc></extensions></trkpt>
      <trkpt lon="-2.240002" lat="53.124151"><ele>113.706528</ele><time>2022-03-04T13:32:34Z</time><extensions><speed>1.374926</speed><course>315.713562</course><hAcc>1.613488</hAcc><vAcc>0.828015</vAcc></extensions></trkpt>
      <trkpt lon="-2.240016" lat="53.124160"><ele>113.674545</ele><time>2022-03-04T13:32:35Z</time><extensions><speed>1.382811</speed><course>317.245239</course><hAcc>1.635157</hAcc><vAcc>0.827967</vAcc></extensions></trkpt>
      <trkpt lon="-2.240031" lat="53.124169"><ele>113.635246</ele><time>2022-03-04T13:32:36Z</time><extensions><speed>1.385265</speed><course>316.369232</course><hAcc>1.650498</hAcc><vAcc>0.827914</vAcc></extensions></trkpt>
      <trkpt lon="-2.240045" lat="53.124178"><ele>113.622780</ele><time>2022-03-04T13:32:37Z</time><extensions><speed>1.367344</speed><course>314.815033</course><hAcc>1.664789</hAcc><vAcc>0.827890</vAcc></extensions></trkpt>
      <trkpt lon="-2.240059" lat="53.124186"><ele>113.590523</ele><time>2022-03-04T13:32:38Z</time><extensions><speed>1.321076</speed><course>313.658722</course><hAcc>1.677505</hAcc><vAcc>0.827892</vAcc></extensions></trkpt>
      <trkpt lon="-2.240074" lat="53.124194"><ele>113.558823</ele><time>2022-03-04T13:32:39Z</time><extensions><speed>1.340529</speed><course>311.940674</course><hAcc>1.670146</hAcc><vAcc>0.827932</vAcc></extensions></trkpt>
      <trkpt lon="-2.240089" lat="53.124203"><ele>113.528458</ele><time>2022-03-04T13:32:40Z</time><extensions><speed>1.359417</speed><course>312.979187</course><hAcc>1.659785</hAcc><vAcc>0.828016</vAcc></extensions></trkpt>
      <trkpt lon="-2.240104" lat="53.124211"><ele>113.517365</ele><time>2022-03-04T13:32:41Z</time><extensions><speed>1.383506</speed><course>314.753113</course><hAcc>1.657376</hAcc><vAcc>0.828100</vAcc></extensions></trkpt>
      <trkpt lon="-2.240118" lat="53.124220"><ele>113.500732</ele><time>2022-03-04T13:32:42Z</time><extensions><speed>1.404166</speed><course>315.750702</course><hAcc>1.663364</hAcc><vAcc>0.828215</vAcc></extensions></trkpt>
      <trkpt lon="-2.240133" lat="53.124229"><ele>113.477776</ele><time>2022-03-04T13:32:43Z</time><extensions><speed>1.413387</speed><course>317.355255</course><hAcc>1.670337</hAcc><vAcc>0.828312</vAcc></extensions></trkpt>
      <trkpt lon="-2.240147" lat="53.124238"><ele>113.466980</ele><time>2022-03-04T13:32:44Z</time><extensions><speed>1.395991</speed><course>318.235321</course><hAcc>1.660708</hAcc><vAcc>0.828386</vAcc></extensions></trkpt>
      <trkpt lon="-2.240160" lat="53.124248"><ele>113.458435</ele><time>2022-03-04T13:32:45Z</time><extensions><speed>1.353608</speed><course>319.161591</course><hAcc>1.637502</hAcc><vAcc>0.828443</vAcc></extensions></trkpt>
      <trkpt lon="-2.240173" lat="53.124257"><ele>113.450470</ele><time>2022-03-04T13:32:46Z</time><extensions><speed>1.304730</speed><course>319.900970</course><hAcc>1.611884</hAcc><vAcc>0.828490</vAcc></extensions></trkpt>
      <trkpt lon="-2.240186" lat="53.124266"><ele>113.442879</ele><time>2022-03-04T13:32:47Z</time><extensions><speed>1.367950</speed><course>318.706696</course><hAcc>1.590571</hAcc><vAcc>0.828525</vAcc></extensions></trkpt>
      <trkpt lon="-2.240200" lat="53.124275"><ele>113.440224</ele><time>2022-03-04T13:32:48Z</time><extensions><speed>1.400233</speed><course>316.896149</course><hAcc>1.587311</hAcc><vAcc>0.828549</vAcc></extensions></trkpt>
      <trkpt lon="-2.240215" lat="53.124284"><ele>113.428123</ele><time>2022-03-04T13:32:49Z</time><extensions><speed>1.414709</speed><course>314.432281</course><hAcc>1.602377</hAcc><vAcc>0.828552</vAcc></extensions></trkpt>
      <trkpt lon="-2.240230" lat="53.124293"><ele>113.412178</ele><time>2022-03-04T13:32:50Z</time><extensions><speed>1.393215</speed><course>312.164368</course><hAcc>1.551732</hAcc><vAcc>0.828545</vAcc></extensions></trkpt>
      <trkpt lon="-2.240246" lat="53.124301"><ele>113.413612</ele><time>2022-03-04T13:32:51Z</time><extensions><speed>1.418751</speed><course>313.181305</course><hAcc>1.563280</hAcc><vAcc>0.828526</vAcc></extensions></trkpt>
      <trkpt lon="-2.240261" lat="53.124310"><ele>113.408669</ele><time>2022-03-04T13:32:52Z</time><extensions><speed>1.438652</speed><course>314.910889</course><hAcc>1.593769</hAcc><vAcc>0.828495</vAcc></extensions></trkpt>
      <trkpt lon="-2.240277" lat="53.124319"><ele>113.385933</ele><time>2022-03-04T13:32:53Z</time><extensions><speed>1.407687</speed><course>310.670624</course><hAcc>1.571791</hAcc><vAcc>0.828445</vAcc></extensions></trkpt>
      <trkpt lon="-2.240293" lat="53.124327"><ele>113.368080</ele><time>2022-03-04T13:32:54Z</time><extensions><speed>1.353496</speed><course>307.605255</course><hAcc>1.563291</hAcc><vAcc>0.828375</vAcc></extensions></trkpt>
      <trkpt lon="-2.240309" lat="53.124334"><ele>113.366989</ele><time>2022-03-04T13:32:55Z</time><extensions><speed>1.295970</speed><course>306.100189</course><hAcc>1.590581</hAcc><vAcc>0.828310</vAcc></extensions></trkpt>
      <trkpt lon="-2.240324" lat="53.124341"><ele>113.348541</ele><time>2022-03-04T13:32:56Z</time><extensions><speed>1.283268</speed><course>306.926727</course><hAcc>1.623541</hAcc><vAcc>0.828254</vAcc></extensions></trkpt>
      <trkpt lon="-2.240340" lat="53.124348"><ele>113.322929</ele><time>2022-03-04T13:32:57Z</time><extensions><speed>1.295425</speed><course>306.476288</course><hAcc>1.627684</hAcc><vAcc>0.828208</vAcc></extensions></trkpt>
      <trkpt lon="-2.240355" lat="53.124355"><ele>113.305931</ele><time>2022-03-04T13:32:58Z</time><extensions><speed>1.327942</speed><course>306.034973</course><hAcc>1.631438</hAcc><vAcc>0.828173</vAcc></extensions></trkpt>
      <trkpt lon="-2.240372" lat="53.124362"><ele>113.291321</ele><time>2022-03-04T13:32:59Z</time><extensions><speed>1.363868</speed><course>305.391541</course><hAcc>1.638220</hAcc><vAcc>0.828135</vAcc></extensions></trkpt>
      <trkpt lon="-2.240388" lat="53.124369"><ele>113.269302</ele><time>2022-03-04T13:33:00Z</time><extensions><speed>1.356013</speed><course>305.909332</course><hAcc>1.643396</hAcc><vAcc>0.828109</vAcc></extensions></trkpt>
      <trkpt lon="-2.240404" lat="53.124376"><ele>113.234245</ele><time>2022-03-04T13:33:01Z</time><extensions><speed>1.374685</speed><course>307.399689</course><hAcc>1.652353</hAcc><vAcc>0.828152</vAcc></extensions></trkpt>
      <trkpt lon="-2.240421" lat="53.124384"><ele>113.203445</ele><time>2022-03-04T13:33:02Z</time><extensions><speed>1.388530</speed><course>307.720337</course><hAcc>1.640599</hAcc><vAcc>0.828204</vAcc></extensions></trkpt>
      <trkpt lon="-2.240437" lat="53.124391"><ele>113.181068</ele><time>2022-03-04T13:33:03Z</time><extensions><speed>1.366342</speed><course>307.750671</course><hAcc>1.596764</hAcc><vAcc>0.828263</vAcc></extensions></trkpt>
      <trkpt lon="-2.240453" lat="53.124399"><ele>113.144165</ele><time>2022-03-04T13:33:04Z</time><extensions><speed>1.426149</speed><course>308.724182</course><hAcc>1.565913</hAcc><vAcc>0.828322</vAcc></extensions></trkpt>
      <trkpt lon="-2.240470" lat="53.124407"><ele>113.104462</ele><time>2022-03-04T13:33:05Z</time><extensions><speed>1.490644</speed><course>309.028015</course><hAcc>1.569451</hAcc><vAcc>0.828391</vAcc></extensions></trkpt>
      <trkpt lon="-2.240488" lat="53.124416"><ele>113.086937</ele><time>2022-03-04T13:33:06Z</time><extensions><speed>1.481049</speed><course>308.035034</course><hAcc>1.605822</hAcc><vAcc>0.828466</vAcc></extensions></trkpt>
      <trkpt lon="-2.240505" lat="53.124423"><ele>113.058304</ele><time>2022-03-04T13:33:07Z</time><extensions><speed>1.450540</speed><course>305.627563</course><hAcc>1.604321</hAcc><vAcc>0.828542</vAcc></extensions></trkpt>
      <trkpt lon="-2.240523" lat="53.124431"><ele>113.030815</ele><time>2022-03-04T13:33:08Z</time><extensions><speed>1.391763</speed><course>304.394836</course><hAcc>1.542892</hAcc><vAcc>0.828612</vAcc></extensions></trkpt>
      <trkpt lon="-2.240539" lat="53.124438"><ele>113.003059</ele><time>2022-03-04T13:33:09Z</time><extensions><speed>1.362419</speed><course>304.843658</course><hAcc>1.507216</hAcc><vAcc>0.828687</vAcc></extensions></trkpt>
      <trkpt lon="-2.240556" lat="53.124445"><ele>112.967598</ele><time>2022-03-04T13:33:10Z</time><extensions><speed>1.395341</speed><course>306.007233</course><hAcc>1.530056</hAcc><vAcc>0.828741</vAcc></extensions></trkpt>
      <trkpt lon="-2.240573" lat="53.124452"><ele>112.939720</ele><time>2022-03-04T13:33:11Z</time><extensions><speed>1.417755</speed><course>305.229309</course><hAcc>1.589714</hAcc><vAcc>0.828787</vAcc></extensions></trkpt>
      <trkpt lon="-2.240591" lat="53.124460"><ele>112.900192</ele><time>2022-03-04T13:33:12Z</time><extensions><speed>1.397913</speed><course>304.976593</course><hAcc>1.579407</hAcc><vAcc>0.828814</vAcc></extensions></trkpt>
      <trkpt lon="-2.240608" lat="53.124467"><ele>112.858620</ele><time>2022-03-04T13:33:13Z</time><extensions><speed>1.376752</speed><course>303.617401</course><hAcc>1.598829</hAcc><vAcc>0.828849</vAcc></extensions></trkpt>
      <trkpt lon="-2.240624" lat="53.124473"><ele>112.800491</ele><time>2022-03-04T13:33:14Z</time><extensions><speed>1.277131</speed><course>303.404877</course><hAcc>1.567173</hAcc><vAcc>0.828858</vAcc></extensions></trkpt>
      <trkpt lon="-2.240640" lat="53.124480"><ele>112.754868</ele><time>2022-03-04T13:33:15Z</time><extensions><speed>1.266858</speed><course>304.373413</course><hAcc>1.575176</hAcc><vAcc>0.828842</vAcc></extensions></trkpt>
      <trkpt lon="-2.240656" lat="53.124486"><ele>112.710693</ele><time>2022-03-04T13:33:16Z</time><extensions><speed>1.335943</speed><course>303.802856</course><hAcc>1.606754</hAcc><vAcc>0.828813</vAcc></extensions></trkpt>
      <trkpt lon="-2.240673" lat="53.124493"><ele>112.664635</ele><time>2022-03-04T13:33:17Z</time><extensions><speed>1.364082</speed><course>301.963257</course><hAcc>1.634995</hAcc><vAcc>0.828758</vAcc></extensions></trkpt>
      <trkpt lon="-2.240691" lat="53.124499"><ele>112.611130</ele><time>2022-03-04T13:33:18Z</time><extensions><speed>1.373677</speed><course>300.212311</course><hAcc>1.661126</hAcc><vAcc>0.828704</vAcc></extensions></trkpt>
      <trkpt lon="-2.240708" lat="53.124505"><ele>112.558891</ele><time>2022-03-04T13:33:19Z</time><extensions><speed>1.348074</speed><course>298.577393</course><hAcc>1.671956</hAcc><vAcc>0.828649</vAcc></extensions></trkpt>
      <trkpt lon="-2.240726" lat="53.124511"><ele>112.526146</ele><time>2022-03-04T13:33:20Z</time><extensions><speed>1.311827</speed><course>297.992065</course><hAcc>1.652603</hAcc><vAcc>0.828593</vAcc></extensions></trkpt>
      <trkpt lon="-2.240743" lat="53.124516"><ele>112.481857</ele><time>2022-03-04T13:33:21Z</time><extensions><speed>1.290497</speed><course>298.149078</course><hAcc>1.637683</hAcc><vAcc>0.828537</vAcc></extensions></trkpt>
      <trkpt lon="-2.240760" lat="53.124522"><ele>112.436012</ele><time>2022-03-04T13:33:22Z</time><extensions><speed>1.324356</speed><course>299.569550</course><hAcc>1.628176</hAcc><vAcc>0.828478</vAcc></extensions></trkpt>
      <trkpt lon="-2.240777" lat="53.124528"><ele>112.376129</ele><time>2022-03-04T13:33:22Z</time><extensions><speed>1.378063</speed><course>300.926514</course><hAcc>1.617195</hAcc><vAcc>0.828402</vAcc></extensions></trkpt>
      <trkpt lon="-2.240795" lat="53.124534"><ele>112.314453</ele><time>2022-03-04T13:33:23Z</time><extensions><speed>1.446358</speed><course>301.190643</course><hAcc>1.601414</hAcc><vAcc>0.828306</vAcc></extensions></trkpt>
      <trkpt lon="-2.240814" lat="53.124541"><ele>112.274422</ele><time>2022-03-04T13:33:24Z</time><extensions><speed>1.489790</speed><course>301.131897</course><hAcc>1.593511</hAcc><vAcc>0.828213</vAcc></extensions></trkpt>
      <trkpt lon="-2.240833" lat="53.124548"><ele>112.245949</ele><time>2022-03-04T13:33:25Z</time><extensions><speed>1.490208</speed><course>300.556580</course><hAcc>1.586233</hAcc><vAcc>0.828136</vAcc></extensions></trkpt>
      <trkpt lon="-2.240853" lat="53.124555"><ele>112.197014</ele><time>2022-03-04T13:33:26Z</time><extensions><speed>1.502145</speed><course>300.505371</course><hAcc>1.562095</hAcc><vAcc>0.828048</vAcc></extensions></trkpt>
      <trkpt lon="-2.240872" lat="53.124562"><ele>112.158539</ele><time>2022-03-04T13:33:27Z</time><extensions><speed>1.470927</speed><course>299.674438</course><hAcc>1.597794</hAcc><vAcc>0.827971</vAcc></extensions></trkpt>
      <trkpt lon="-2.240891" lat="53.124568"><ele>112.130859</ele><time>2022-03-04T13:33:28Z</time><extensions><speed>1.413738</speed><course>299.112823</course><hAcc>1.560917</hAcc><vAcc>0.827905</vAcc></extensions></trkpt>
      <trkpt lon="-2.240909" lat="53.124574"><ele>112.097900</ele><time>2022-03-04T13:33:29Z</time><extensions><speed>1.386886</speed><course>299.805756</course><hAcc>1.555783</hAcc><vAcc>0.827853</vAcc></extensions></trkpt>
      <trkpt lon="-2.240927" lat="53.124580"><ele>112.078316</ele><time>2022-03-04T13:33:30Z</time><extensions><speed>1.364260</speed><course>302.421783</course><hAcc>1.596976</hAcc><vAcc>0.827803</vAcc></extensions></trkpt>
      <trkpt lon="-2.240943" lat="53.124587"><ele>112.061035</ele><time>2022-03-04T13:33:31Z</time><extensions><speed>1.260149</speed><course>301.465088</course><hAcc>1.620231</hAcc><vAcc>0.827738</vAcc></extensions></trkpt>
      <trkpt lon="-2.240959" lat="53.124592"><ele>112.042412</ele><time>2022-03-04T13:33:32Z</time><extensions><speed>1.165769</speed><course>297.901459</course><hAcc>1.606222</hAcc><vAcc>0.827691</vAcc></extensions></trkpt>
      <trkpt lon="-2.240974" lat="53.124597"><ele>112.024704</ele><time>2022-03-04T13:33:33Z</time><extensions><speed>1.152408</speed><course>295.831543</course><hAcc>1.619825</hAcc><vAcc>0.827625</vAcc></extensions></trkpt>
      <trkpt lon="-2.240990" lat="53.124601"><ele>111.999718</ele><time>2022-03-04T13:33:34Z</time><extensions><speed>1.220901</speed><course>294.997223</course><hAcc>1.654202</hAcc><vAcc>0.827578</vAcc></extensions></trkpt>
      <trkpt lon="-2.241008" lat="53.124606"><ele>112.001930</ele><time>2022-03-04T13:33:35Z</time><extensions><speed>1.340349</speed><course>293.886200</course><hAcc>1.673265</hAcc><vAcc>0.827531</vAcc></extensions></trkpt>
      <trkpt lon="-2.241027" lat="53.124611"><ele>112.001404</ele><time>2022-03-04T13:33:36Z</time><extensions><speed>1.423415</speed><course>293.685059</course><hAcc>1.674544</hAcc><vAcc>0.827457</vAcc></extensions></trkpt>
      <trkpt lon="-2.241046" lat="53.124616"><ele>111.983513</ele><time>2022-03-04T13:33:37Z</time><extensions><speed>1.464615</speed><course>294.241852</course><hAcc>1.677585</hAcc><vAcc>0.827387</vAcc></extensions></trkpt>
      <trkpt lon="-2.241066" lat="53.124622"><ele>111.969933</ele><time>2022-03-04T13:33:38Z</time><extensions><speed>1.454979</speed><course>295.285675</course><hAcc>1.688703</hAcc><vAcc>0.827316</vAcc></extensions></trkpt>
      <trkpt lon="-2.241085" lat="53.124628"><ele>111.979034</ele><time>2022-03-04T13:33:39Z</time><extensions><speed>1.412095</speed><course>297.082916</course><hAcc>1.695976</hAcc><vAcc>0.827242</vAcc></extensions></trkpt>
      <trkpt lon="-2.241104" lat="53.124634"><ele>111.985428</ele><time>2022-03-04T13:33:40Z</time><extensions><speed>1.335004</speed><course>299.300537</course><hAcc>1.695544</hAcc><vAcc>0.827159</vAcc></extensions></trkpt>
      <trkpt lon="-2.241120" lat="53.124639"><ele>111.996437</ele><time>2022-03-04T13:33:41Z</time><extensions><speed>1.271451</speed><course>300.698486</course><hAcc>1.688193</hAcc><vAcc>0.827066</vAcc></extensions></trkpt>
      <trkpt lon="-2.241137" lat="53.124645"><ele>111.998779</ele><time>2022-03-04T13:33:42Z</time><extensions><speed>1.281971</speed><course>300.945007</course><hAcc>1.686380</hAcc><vAcc>0.826988</vAcc></extensions></trkpt>
      <trkpt lon="-2.241153" lat="53.124651"><ele>111.971794</ele><time>2022-03-04T13:33:43Z</time><extensions><speed>1.307974</speed><course>300.401947</course><hAcc>1.682119</hAcc><vAcc>0.826908</vAcc></extensions></trkpt>
      <trkpt lon="-2.241171" lat="53.124657"><ele>111.934105</ele><time>2022-03-04T13:33:44Z</time><extensions><speed>1.352194</speed><course>300.810669</course><hAcc>1.681473</hAcc><vAcc>0.826837</vAcc></extensions></trkpt>
      <trkpt lon="-2.241188" lat="53.124664"><ele>111.913727</ele><time>2022-03-04T13:33:45Z</time><extensions><speed>1.365430</speed><course>301.448242</course><hAcc>1.673530</hAcc><vAcc>0.826784</vAcc></extensions></trkpt>
      <trkpt lon="-2.241205" lat="53.124670"><ele>111.887131</ele><time>2022-03-04T13:33:46Z</time><extensions><speed>1.325395</speed><course>301.907379</course><hAcc>1.676358</hAcc><vAcc>0.826738</vAcc></extensions></trkpt>
      <trkpt lon="-2.241222" lat="53.124676"><ele>111.860947</ele><time>2022-03-04T13:33:47Z</time><extensions><speed>1.334012</speed><course>302.667389</course><hAcc>1.693095</hAcc><vAcc>0.826714</vAcc></extensions></trkpt>
      <trkpt lon="-2.241239" lat="53.124683"><ele>111.852623</ele><time>2022-03-04T13:33:48Z</time><extensions><speed>1.355483</speed><course>304.398773</course><hAcc>1.673762</hAcc><vAcc>0.826679</vAcc></extensions></trkpt>
      <trkpt lon="-2.241255" lat="53.124690"><ele>111.824181</ele><time>2022-03-04T13:33:49Z</time><extensions><speed>1.360944</speed><course>305.670197</course><hAcc>1.664104</hAcc><vAcc>0.826656</vAcc></extensions></trkpt>
      <trkpt lon="-2.241272" lat="53.124697"><ele>111.784050</ele><time>2022-03-04T13:33:50Z</time><extensions><speed>1.335405</speed><course>306.347717</course><hAcc>1.667548</hAcc><vAcc>0.826659</vAcc></extensions></trkpt>
      <trkpt lon="-2.241288" lat="53.124704"><ele>111.755981</ele><time>2022-03-04T13:33:51Z</time><extensions><speed>1.327944</speed><course>306.132996</course><hAcc>1.671381</hAcc><vAcc>0.826637</vAcc></extensions></trkpt>
      <trkpt lon="-2.241303" lat="53.124711"><ele>111.729958</ele><time>2022-03-04T13:33:52Z</time><extensions><speed>1.291861</speed><course>305.301147</course><hAcc>1.677396</hAcc><vAcc>0.826631</vAcc></extensions></trkpt>
      <trkpt lon="-2.241319" lat="53.124718"><ele>111.669365</ele><time>2022-03-04T13:33:53Z</time><extensions><speed>1.302088</speed><course>307.629272</course><hAcc>1.664956</hAcc><vAcc>0.826624</vAcc></extensions></trkpt>
      <trkpt lon="-2.241335" lat="53.124726"><ele>111.647980</ele><time>2022-03-04T13:33:54Z</time><extensions><speed>1.381951</speed><course>309.859772</course><hAcc>1.657406</hAcc><vAcc>0.826605</vAcc></extensions></trkpt>
      <trkpt lon="-2.241351" lat="53.124734"><ele>111.621910</ele><time>2022-03-04T13:33:55Z</time><extensions><speed>1.426343</speed><course>310.313812</course><hAcc>1.660256</hAcc><vAcc>0.826576</vAcc></extensions></trkpt>
      <trkpt lon="-2.241367" lat="53.124742"><ele>111.558853</ele><time>2022-03-04T13:33:56Z</time><extensions><speed>1.428478</speed><course>311.118256</course><hAcc>1.666638</hAcc><vAcc>0.826543</vAcc></extensions></trkpt>
      <trkpt lon="-2.241383" lat="53.124751"><ele>111.515434</ele><time>2022-03-04T13:33:57Z</time><extensions><speed>1.411353</speed><course>310.453308</course><hAcc>1.678461</hAcc><vAcc>0.826478</vAcc></extensions></trkpt>
      <trkpt lon="-2.241399" lat="53.124759"><ele>111.466003</ele><time>2022-03-04T13:33:58Z</time><extensions><speed>1.375764</speed><course>310.788116</course><hAcc>1.664774</hAcc><vAcc>0.826428</vAcc></extensions></trkpt>
      <trkpt lon="-2.241414" lat="53.124767"><ele>111.409363</ele><time>2022-03-04T13:33:59Z</time><extensions><speed>1.338532</speed><course>311.623383</course><hAcc>1.667845</hAcc><vAcc>0.826371</vAcc></extensions></trkpt>
      <trkpt lon="-2.241428" lat="53.124775"><ele>111.364731</ele><time>2022-03-04T13:34:00Z</time><extensions><speed>1.264022</speed><course>312.214935</course><hAcc>1.672471</hAcc><vAcc>0.826299</vAcc></extensions></trkpt>
      <trkpt lon="-2.241442" lat="53.124782"><ele>111.312111</ele><time>2022-03-04T13:34:01Z</time><extensions><speed>1.272753</speed><course>312.805634</course><hAcc>1.676318</hAcc><vAcc>0.826210</vAcc></extensions></trkpt>
      <trkpt lon="-2.241456" lat="53.124790"><ele>111.269180</ele><time>2022-03-04T13:34:02Z</time><extensions><speed>1.303572</speed><course>313.681396</course><hAcc>1.682447</hAcc><vAcc>0.826121</vAcc></extensions></trkpt>
      <trkpt lon="-2.241470" lat="53.124798"><ele>111.208427</ele><time>2022-03-04T13:34:03Z</time><extensions><speed>1.305391</speed><course>314.668701</course><hAcc>1.686878</hAcc><vAcc>0.826049</vAcc></extensions></trkpt>
      <trkpt lon="-2.241484" lat="53.124807"><ele>111.144257</ele><time>2022-03-04T13:34:04Z</time><extensions><speed>1.302681</speed><course>315.140198</course><hAcc>1.687649</hAcc><vAcc>0.826009</vAcc></extensions></trkpt>
      <trkpt lon="-2.241497" lat="53.124815"><ele>111.080826</ele><time>2022-03-04T13:34:05Z</time><extensions><speed>1.222366</speed><course>317.099579</course><hAcc>1.690511</hAcc><vAcc>0.825968</vAcc></extensions></trkpt>
      <trkpt lon="-2.241509" lat="53.124823"><ele>111.003922</ele><time>2022-03-04T13:34:06Z</time><extensions><speed>1.143298</speed><course>319.404205</course><hAcc>1.694207</hAcc><vAcc>0.825916</vAcc></extensions></trkpt>
      <trkpt lon="-2.241520" lat="53.124831"><ele>110.930191</ele><time>2022-03-04T13:34:07Z</time><extensions><speed>1.147297</speed><course>319.130493</course><hAcc>1.687398</hAcc><vAcc>0.825873</vAcc></extensions></trkpt>
      <trkpt lon="-2.241532" lat="53.124839"><ele>110.868286</ele><time>2022-03-04T13:34:08Z</time><extensions><speed>1.226730</speed><course>316.721436</course><hAcc>1.688765</hAcc><vAcc>0.825861</vAcc></extensions></trkpt>
      <trkpt lon="-2.241545" lat="53.124846"><ele>110.816055</ele><time>2022-03-04T13:34:09Z</time><extensions><speed>1.247324</speed><course>312.665100</course><hAcc>1.691317</hAcc><vAcc>0.825878</vAcc></extensions></trkpt>
      <trkpt lon="-2.241560" lat="53.124854"><ele>110.773132</ele><time>2022-03-04T13:34:10Z</time><extensions><speed>1.241109</speed><course>308.914001</course><hAcc>1.687880</hAcc><vAcc>0.825897</vAcc></extensions></trkpt>
      <trkpt lon="-2.241574" lat="53.124860"><ele>110.719948</ele><time>2022-03-04T13:34:11Z</time><extensions><speed>1.193858</speed><course>306.563568</course><hAcc>1.687413</hAcc><vAcc>0.825940</vAcc></extensions></trkpt>
      <trkpt lon="-2.241588" lat="53.124867"><ele>110.677689</ele><time>2022-03-04T13:34:12Z</time><extensions><speed>1.157218</speed><course>306.905365</course><hAcc>1.688371</hAcc><vAcc>0.825965</vAcc></extensions></trkpt>
      <trkpt lon="-2.241602" lat="53.124873"><ele>110.634071</ele><time>2022-03-04T13:34:13Z</time><extensions><speed>1.183025</speed><course>308.201294</course><hAcc>1.693977</hAcc><vAcc>0.825998</vAcc></extensions></trkpt>
      <trkpt lon="-2.241617" lat="53.124880"><ele>110.606506</ele><time>2022-03-04T13:34:14Z</time><extensions><speed>1.279891</speed><course>307.661621</course><hAcc>1.697790</hAcc><vAcc>0.826017</vAcc></extensions></trkpt>
      <trkpt lon="-2.241632" lat="53.124887"><ele>110.578362</ele><time>2022-03-04T13:34:15Z</time><extensions><speed>1.301677</speed><course>306.741699</course><hAcc>1.693754</hAcc><vAcc>0.826040</vAcc></extensions></trkpt>
      <trkpt lon="-2.241648" lat="53.124894"><ele>110.551987</ele><time>2022-03-04T13:34:16Z</time><extensions><speed>1.296080</speed><course>304.903076</course><hAcc>1.682587</hAcc><vAcc>0.826065</vAcc></extensions></trkpt>
      <trkpt lon="-2.241663" lat="53.124900"><ele>110.539902</ele><time>2022-03-04T13:34:17Z</time><extensions><speed>1.236276</speed><course>303.622620</course><hAcc>1.673952</hAcc><vAcc>0.826111</vAcc></extensions></trkpt>
      <trkpt lon="-2.241680" lat="53.124907"><ele>110.526505</ele><time>2022-03-04T13:34:18Z</time><extensions><speed>1.406625</speed><course>305.826294</course><hAcc>1.664951</hAcc><vAcc>0.826176</vAcc></extensions></trkpt>
      <trkpt lon="-2.241697" lat="53.124915"><ele>110.512352</ele><time>2022-03-04T13:34:19Z</time><extensions><speed>1.497800</speed><course>308.020294</course><hAcc>1.655041</hAcc><vAcc>0.826253</vAcc></extensions></trkpt>
      <trkpt lon="-2.241715" lat="53.124923"><ele>110.505768</ele><time>2022-03-04T13:34:20Z</time><extensions><speed>1.504547</speed><course>307.992554</course><hAcc>1.659452</hAcc><vAcc>0.826350</vAcc></extensions></trkpt>
      <trkpt lon="-2.241732" lat="53.124931"><ele>110.487656</ele><time>2022-03-04T13:34:21Z</time><extensions><speed>1.419759</speed><course>306.311340</course><hAcc>1.687736</hAcc><vAcc>0.826473</vAcc></extensions></trkpt>
      <trkpt lon="-2.241748" lat="53.124939"><ele>110.491318</ele><time>2022-03-04T13:34:22Z</time><extensions><speed>1.285393</speed><course>308.193390</course><hAcc>1.662567</hAcc><vAcc>0.826631</vAcc></extensions></trkpt>
      <trkpt lon="-2.241762" lat="53.124946"><ele>110.472328</ele><time>2022-03-04T13:34:23Z</time><extensions><speed>1.137634</speed><course>310.871735</course><hAcc>1.657985</hAcc><vAcc>0.826828</vAcc></extensions></trkpt>
      <trkpt lon="-2.241775" lat="53.124952"><ele>110.460159</ele><time>2022-03-04T13:34:24Z</time><extensions><speed>1.069845</speed><course>309.787689</course><hAcc>1.660997</hAcc><vAcc>0.827040</vAcc></extensions></trkpt>
      <trkpt lon="-2.241787" lat="53.124958"><ele>110.454971</ele><time>2022-03-04T13:34:25Z</time><extensions><speed>0.969883</speed><course>306.000854</course><hAcc>1.671698</hAcc><vAcc>0.827264</vAcc></extensions></trkpt>
      <trkpt lon="-2.241798" lat="53.124962"><ele>110.444489</ele><time>2022-03-04T13:34:26Z</time><extensions><speed>0.863945</speed><course>302.567474</course><hAcc>1.681668</hAcc><vAcc>0.827489</vAcc></extensions></trkpt>
      <trkpt lon="-2.241809" lat="53.124966"><ele>110.426918</ele><time>2022-03-04T13:34:27Z</time><extensions><speed>0.835596</speed><course>301.713837</course><hAcc>1.689619</hAcc><vAcc>0.827691</vAcc></extensions></trkpt>
      <trkpt lon="-2.241820" lat="53.124970"><ele>110.418831</ele><time>2022-03-04T13:34:28Z</time><extensions><speed>0.853996</speed><course>300.165192</course><hAcc>1.692106</hAcc><vAcc>0.827882</vAcc></extensions></trkpt>
      <trkpt lon="-2.241831" lat="53.124974"><ele>110.402092</ele><time>2022-03-04T13:34:29Z</time><extensions><speed>0.895218</speed><course>298.142914</course><hAcc>1.689375</hAcc><vAcc>0.828060</vAcc></extensions></trkpt>
      <trkpt lon="-2.241844" lat="53.124978"><ele>110.377472</ele><time>2022-03-04T13:34:30Z</time><extensions><speed>0.976160</speed><course>296.628540</course><hAcc>1.684989</hAcc><vAcc>0.828230</vAcc></extensions></trkpt>
      <trkpt lon="-2.241857" lat="53.124982"><ele>110.354881</ele><time>2022-03-04T13:34:31Z</time><extensions><speed>1.038182</speed><course>294.759766</course><hAcc>1.691505</hAcc><vAcc>0.828383</vAcc></extensions></trkpt>
      <trkpt lon="-2.241872" lat="53.124986"><ele>110.328636</ele><time>2022-03-04T13:34:32Z</time><extensions><speed>1.200427</speed><course>295.802185</course><hAcc>1.707501</hAcc><vAcc>0.828493</vAcc></extensions></trkpt>
      <trkpt lon="-2.241889" lat="53.124991"><ele>110.299454</ele><time>2022-03-04T13:34:33Z</time><extensions><speed>1.265450</speed><course>298.239441</course><hAcc>1.686998</hAcc><vAcc>0.828576</vAcc></extensions></trkpt>
      <trkpt lon="-2.241905" lat="53.124997"><ele>110.277039</ele><time>2022-03-04T13:34:34Z</time><extensions><speed>1.297570</speed><course>299.809387</course><hAcc>1.675451</hAcc><vAcc>0.828625</vAcc></extensions></trkpt>
      <trkpt lon="-2.241922" lat="53.125003"><ele>110.248795</ele><time>2022-03-04T13:34:35Z</time><extensions><speed>1.298631</speed><course>303.182617</course><hAcc>1.686364</hAcc><vAcc>0.828640</vAcc></extensions></trkpt>
      <trkpt lon="-2.241938" lat="53.125009"><ele>110.240868</ele><time>2022-03-04T13:34:36Z</time><extensions><speed>1.284566</speed><course>306.508026</course><hAcc>1.699191</hAcc><vAcc>0.828632</vAcc></extensions></trkpt>
      <trkpt lon="-2.241953" lat="53.125016"><ele>110.226738</ele><time>2022-03-04T13:34:38Z</time><extensions><speed>1.266979</speed><course>307.354218</course><hAcc>1.699062</hAcc><vAcc>0.828590</vAcc></extensions></trkpt>
      <trkpt lon="-2.241968" lat="53.125023"><ele>110.209335</ele><time>2022-03-04T13:34:39Z</time><extensions><speed>1.285697</speed><course>307.020844</course><hAcc>1.695739</hAcc><vAcc>0.828508</vAcc></extensions></trkpt>
      <trkpt lon="-2.241984" lat="53.125030"><ele>110.192101</ele><time>2022-03-04T13:34:40Z</time><extensions><speed>1.266759</speed><course>305.680542</course><hAcc>1.697115</hAcc><vAcc>0.828427</vAcc></extensions></trkpt>
      <trkpt lon="-2.241999" lat="53.125037"><ele>110.179840</ele><time>2022-03-04T13:34:41Z</time><extensions><speed>1.260987</speed><course>306.212128</course><hAcc>1.697685</hAcc><vAcc>0.828335</vAcc></extensions></trkpt>
      <trkpt lon="-2.242014" lat="53.125044"><ele>110.166718</ele><time>2022-03-04T13:34:42Z</time><extensions><speed>1.270409</speed><course>309.287689</course><hAcc>1.700529</hAcc><vAcc>0.828248</vAcc></extensions></trkpt>
      <trkpt lon="-2.242028" lat="53.125051"><ele>110.160065</ele><time>2022-03-04T13:34:43Z</time><extensions><speed>1.303514</speed><course>311.712402</course><hAcc>1.702622</hAcc><vAcc>0.828165</vAcc></extensions></trkpt>
      <trkpt lon="-2.242043" lat="53.125059"><ele>110.170822</ele><time>2022-03-04T13:34:44Z</time><extensions><speed>1.329714</speed><course>311.178833</course><hAcc>1.703567</hAcc><vAcc>0.828062</vAcc></extensions></trkpt>
      <trkpt lon="-2.242058" lat="53.125067"><ele>110.185310</ele><time>2022-03-04T13:34:45Z</time><extensions><speed>1.328168</speed><course>309.590546</course><hAcc>1.697823</hAcc><vAcc>0.828004</vAcc></extensions></trkpt>
      <trkpt lon="-2.242074" lat="53.125075"><ele>110.191811</ele><time>2022-03-04T13:34:46Z</time><extensions><speed>1.357614</speed><course>310.010834</course><hAcc>1.691938</hAcc><vAcc>0.827953</vAcc></extensions></trkpt>
      <trkpt lon="-2.242089" lat="53.125082"><ele>110.200478</ele><time>2022-03-04T13:34:47Z</time><extensions><speed>1.326153</speed><course>311.212128</course><hAcc>1.688713</hAcc><vAcc>0.827911</vAcc></extensions></trkpt>
      <trkpt lon="-2.242104" lat="53.125090"><ele>110.209373</ele><time>2022-03-04T13:34:48Z</time><extensions><speed>1.321490</speed><course>311.675385</course><hAcc>1.679723</hAcc><vAcc>0.827897</vAcc></extensions></trkpt>
      <trkpt lon="-2.242119" lat="53.125098"><ele>110.216675</ele><time>2022-03-04T13:34:49Z</time><extensions><speed>1.326097</speed><course>311.534790</course><hAcc>1.665608</hAcc><vAcc>0.827895</vAcc></extensions></trkpt>
      <trkpt lon="-2.242134" lat="53.125106"><ele>110.216927</ele><time>2022-03-04T13:34:50Z</time><extensions><speed>1.363391</speed><course>311.138306</course><hAcc>1.654895</hAcc><vAcc>0.827899</vAcc></extensions></trkpt>
      <trkpt lon="-2.242149" lat="53.125114"><ele>110.231041</ele><time>2022-03-04T13:34:51Z</time><extensions><speed>1.384798</speed><course>311.930267</course><hAcc>1.657205</hAcc><vAcc>0.827952</vAcc></extensions></trkpt>
      <trkpt lon="-2.242164" lat="53.125123"><ele>110.232483</ele><time>2022-03-04T13:34:52Z</time><extensions><speed>1.372937</speed><course>312.367126</course><hAcc>1.675116</hAcc><vAcc>0.827991</vAcc></extensions></trkpt>
      <trkpt lon="-2.242180" lat="53.125131"><ele>110.225418</ele><time>2022-03-04T13:34:53Z</time><extensions><speed>1.402102</speed><course>310.699524</course><hAcc>1.639894</hAcc><vAcc>0.828046</vAcc></extensions></trkpt>
      <trkpt lon="-2.242196" lat="53.125139"><ele>110.226685</ele><time>2022-03-04T13:34:54Z</time><extensions><speed>1.423637</speed><course>307.304291</course><hAcc>1.627999</hAcc><vAcc>0.828098</vAcc></extensions></trkpt>
      <trkpt lon="-2.242213" lat="53.125147"><ele>110.224594</ele><time>2022-03-04T13:34:55Z</time><extensions><speed>1.385062</speed><course>305.822968</course><hAcc>1.640251</hAcc><vAcc>0.828152</vAcc></extensions></trkpt>
      <trkpt lon="-2.242230" lat="53.125154"><ele>110.221001</ele><time>2022-03-04T13:34:56Z</time><extensions><speed>1.395200</speed><course>306.681274</course><hAcc>1.623316</hAcc><vAcc>0.828194</vAcc></extensions></trkpt>
      <trkpt lon="-2.242246" lat="53.125162"><ele>110.211395</ele><time>2022-03-04T13:34:57Z</time><extensions><speed>1.406605</speed><course>308.811371</course><hAcc>1.633637</hAcc><vAcc>0.828246</vAcc></extensions></trkpt>
      <trkpt lon="-2.242262" lat="53.125170"><ele>110.208069</ele><time>2022-03-04T13:34:58Z</time><extensions><speed>1.363496</speed><course>311.617523</course><hAcc>1.672547</hAcc><vAcc>0.828275</vAcc></extensions></trkpt>
      <trkpt lon="-2.242277" lat="53.125178"><ele>110.189461</ele><time>2022-03-04T13:34:59Z</time><extensions><speed>1.338649</speed><course>312.167755</course><hAcc>1.647318</hAcc><vAcc>0.828311</vAcc></extensions></trkpt>
      <trkpt lon="-2.242292" lat="53.125186"><ele>110.166847</ele><time>2022-03-04T13:35:00Z</time><extensions><speed>1.359485</speed><course>313.174042</course><hAcc>1.639723</hAcc><vAcc>0.828332</vAcc></extensions></trkpt>
      <trkpt lon="-2.242307" lat="53.125195"><ele>110.132317</ele><time>2022-03-04T13:35:01Z</time><extensions><speed>1.359490</speed><course>314.876373</course><hAcc>1.650970</hAcc><vAcc>0.828330</vAcc></extensions></trkpt>
      <trkpt lon="-2.242321" lat="53.125203"><ele>110.125656</ele><time>2022-03-04T13:35:02Z</time><extensions><speed>1.336121</speed><course>314.207977</course><hAcc>1.661232</hAcc><vAcc>0.828327</vAcc></extensions></trkpt>
      <trkpt lon="-2.242336" lat="53.125211"><ele>110.105316</ele><time>2022-03-04T13:35:03Z</time><extensions><speed>1.364868</speed><course>313.509613</course><hAcc>1.667964</hAcc><vAcc>0.828307</vAcc></extensions></trkpt>
      <trkpt lon="-2.242351" lat="53.125220"><ele>110.090561</ele><time>2022-03-04T13:35:04Z</time><extensions><speed>1.374713</speed><course>312.724945</course><hAcc>1.673058</hAcc><vAcc>0.828277</vAcc></extensions></trkpt>
      <trkpt lon="-2.242366" lat="53.125228"><ele>110.072990</ele><time>2022-03-04T13:35:05Z</time><extensions><speed>1.337004</speed><course>310.679962</course><hAcc>1.677555</hAcc><vAcc>0.828241</vAcc></extensions></trkpt>
      <trkpt lon="-2.242381" lat="53.125236"><ele>110.059364</ele><time>2022-03-04T13:35:06Z</time><extensions><speed>1.367372</speed><course>309.798279</course><hAcc>1.668001</hAcc><vAcc>0.828204</vAcc></extensions></trkpt>
      <trkpt lon="-2.242397" lat="53.125244"><ele>110.030464</ele><time>2022-03-04T13:35:07Z</time><extensions><speed>1.362990</speed><course>310.200989</course><hAcc>1.662243</hAcc><vAcc>0.828156</vAcc></extensions></trkpt>
      <trkpt lon="-2.242412" lat="53.125252"><ele>110.027962</ele><time>2022-03-04T13:35:08Z</time><extensions><speed>1.331655</speed><course>311.463745</course><hAcc>1.663385</hAcc><vAcc>0.828095</vAcc></extensions></trkpt>
      <trkpt lon="-2.242427" lat="53.125260"><ele>110.013206</ele><time>2022-03-04T13:35:09Z</time><extensions><speed>1.343608</speed><course>313.117889</course><hAcc>1.673121</hAcc><vAcc>0.828036</vAcc></extensions></trkpt>
      <trkpt lon="-2.242442" lat="53.125268"><ele>110.003197</ele><time>2022-03-04T13:35:10Z</time><extensions><speed>1.380893</speed><course>313.697845</course><hAcc>1.675755</hAcc><vAcc>0.827981</vAcc></extensions></trkpt>
      <trkpt lon="-2.242457" lat="53.125277"><ele>109.997261</ele><time>2022-03-04T13:35:11Z</time><extensions><speed>1.359378</speed><course>312.115356</course><hAcc>1.666290</hAcc><vAcc>0.827925</vAcc></extensions></trkpt>
      <trkpt lon="-2.242472" lat="53.125285"><ele>109.992874</ele><time>2022-03-04T13:35:12Z</time><extensions><speed>1.358418</speed><course>312.236725</course><hAcc>1.669911</hAcc><vAcc>0.827871</vAcc></extensions></trkpt>
      <trkpt lon="-2.242487" lat="53.125293"><ele>109.990219</ele><time>2022-03-04T13:35:13Z</time><extensions><speed>1.381875</speed><course>312.481232</course><hAcc>1.671717</hAcc><vAcc>0.827823</vAcc></extensions></trkpt>
      <trkpt lon="-2.242503" lat="53.125302"><ele>109.990601</ele><time>2022-03-04T13:35:14Z</time><extensions><speed>1.412056</speed><course>312.398682</course><hAcc>1.671003</hAcc><vAcc>0.827777</vAcc></extensions></trkpt>
      <trkpt lon="-2.242518" lat="53.125310"><ele>110.007637</ele><time>2022-03-04T13:35:15Z</time><extensions><speed>1.403119</speed><course>311.580170</course><hAcc>1.669662</hAcc><vAcc>0.827730</vAcc></extensions></trkpt>
      <trkpt lon="-2.242534" lat="53.125318"><ele>110.000519</ele><time>2022-03-04T13:35:16Z</time><extensions><speed>1.382122</speed><course>310.178589</course><hAcc>1.664841</hAcc><vAcc>0.827690</vAcc></extensions></trkpt>
      <trkpt lon="-2.242550" lat="53.125326"><ele>109.992157</ele><time>2022-03-04T13:35:17Z</time><extensions><speed>1.327763</speed><course>309.854004</course><hAcc>1.664735</hAcc><vAcc>0.827648</vAcc></extensions></trkpt>
      <trkpt lon="-2.242565" lat="53.125334"><ele>110.010986</ele><time>2022-03-04T13:35:18Z</time><extensions><speed>1.280556</speed><course>310.874969</course><hAcc>1.671287</hAcc><vAcc>0.827628</vAcc></extensions></trkpt>
      <trkpt lon="-2.242579" lat="53.125342"><ele>110.020630</ele><time>2022-03-04T13:35:19Z</time><extensions><speed>1.300190</speed><course>313.463684</course><hAcc>1.675144</hAcc><vAcc>0.827607</vAcc></extensions></trkpt>
      <trkpt lon="-2.242593" lat="53.125350"><ele>110.027824</ele><time>2022-03-04T13:35:20Z</time><extensions><speed>1.272060</speed><course>314.695557</course><hAcc>1.679641</hAcc><vAcc>0.827583</vAcc></extensions></trkpt>
      <trkpt lon="-2.242607" lat="53.125358"><ele>110.012337</ele><time>2022-03-04T13:35:21Z</time><extensions><speed>1.322344</speed><course>313.712219</course><hAcc>1.665779</hAcc><vAcc>0.827584</vAcc></extensions></trkpt>
      <trkpt lon="-2.242622" lat="53.125366"><ele>110.039078</ele><time>2022-03-04T13:35:22Z</time><extensions><speed>1.389219</speed><course>312.512634</course><hAcc>1.668845</hAcc><vAcc>0.827565</vAcc></extensions></trkpt>
      <trkpt lon="-2.242637" lat="53.125375"><ele>110.043816</ele><time>2022-03-04T13:35:23Z</time><extensions><speed>1.423785</speed><course>311.111694</course><hAcc>1.678689</hAcc><vAcc>0.827568</vAcc></extensions></trkpt>
      <trkpt lon="-2.242653" lat="53.125383"><ele>110.047485</ele><time>2022-03-04T13:35:24Z</time><extensions><speed>1.416920</speed><course>309.771790</course><hAcc>1.683214</hAcc><vAcc>0.827573</vAcc></extensions></trkpt>
      <trkpt lon="-2.242669" lat="53.125391"><ele>110.057533</ele><time>2022-03-04T13:35:25Z</time><extensions><speed>1.404626</speed><course>311.521393</course><hAcc>1.686836</hAcc><vAcc>0.827589</vAcc></extensions></trkpt>
      <trkpt lon="-2.242685" lat="53.125400"><ele>110.073586</ele><time>2022-03-04T13:35:26Z</time><extensions><speed>1.362001</speed><course>314.136200</course><hAcc>1.690070</hAcc><vAcc>0.827602</vAcc></extensions></trkpt>
      <trkpt lon="-2.242699" lat="53.125408"><ele>110.081505</ele><time>2022-03-04T13:35:27Z</time><extensions><speed>1.359786</speed><course>313.926117</course><hAcc>1.686718</hAcc><vAcc>0.827627</vAcc></extensions></trkpt>
      <trkpt lon="-2.242714" lat="53.125416"><ele>110.078346</ele><time>2022-03-04T13:35:28Z</time><extensions><speed>1.397327</speed><course>312.385590</course><hAcc>1.679008</hAcc><vAcc>0.827664</vAcc></extensions></trkpt>
      <trkpt lon="-2.242730" lat="53.125425"><ele>110.084122</ele><time>2022-03-04T13:35:29Z</time><extensions><speed>1.460088</speed><course>311.015625</course><hAcc>1.667715</hAcc><vAcc>0.827700</vAcc></extensions></trkpt>
      <trkpt lon="-2.242747" lat="53.125434"><ele>110.081017</ele><time>2022-03-04T13:35:29Z</time><extensions><speed>1.478898</speed><course>311.432983</course><hAcc>1.655407</hAcc><vAcc>0.827730</vAcc></extensions></trkpt>
      <trkpt lon="-2.242763" lat="53.125443"><ele>110.080025</ele><time>2022-03-04T13:35:30Z</time><extensions><speed>1.438990</speed><course>314.298706</course><hAcc>1.649488</hAcc><vAcc>0.827750</vAcc></extensions></trkpt>
      <trkpt lon="-2.242778" lat="53.125452"><ele>110.071022</ele><time>2022-03-04T13:35:31Z</time><extensions><speed>1.446402</speed><course>316.773285</course><hAcc>1.652448</hAcc><vAcc>0.827762</vAcc></extensions></trkpt>
      <trkpt lon="-2.242793" lat="53.125461"><ele>110.060532</ele><time>2022-03-04T13:35:32Z</time><extensions><speed>1.429587</speed><course>316.195129</course><hAcc>1.678757</hAcc><vAcc>0.827757</vAcc></extensions></trkpt>
      <trkpt lon="-2.242808" lat="53.125470"><ele>110.055130</ele><time>2022-03-04T13:35:33Z</time><extensions><speed>1.419313</speed><course>312.002136</course><hAcc>1.653850</hAcc><vAcc>0.827739</vAcc></extensions></trkpt>
      <trkpt lon="-2.242824" lat="53.125479"><ele>110.035500</ele><time>2022-03-04T13:35:34Z</time><extensions><speed>1.423150</speed><course>308.912811</course><hAcc>1.645837</hAcc><vAcc>0.827711</vAcc></extensions></trkpt>
      <trkpt lon="-2.242841" lat="53.125486"><ele>110.012306</ele><time>2022-03-04T13:35:35Z</time><extensions><speed>1.400599</speed><course>307.200195</course><hAcc>1.644521</hAcc><vAcc>0.827685</vAcc></extensions></trkpt>
      <trkpt lon="-2.242857" lat="53.125494"><ele>110.001122</ele><time>2022-03-04T13:35:36Z</time><extensions><speed>1.355706</speed><course>308.361664</course><hAcc>1.648205</hAcc><vAcc>0.827675</vAcc></extensions></trkpt>
      <trkpt lon="-2.242872" lat="53.125502"><ele>109.983475</ele><time>2022-03-04T13:35:37Z</time><extensions><speed>1.309507</speed><course>312.329681</course><hAcc>1.649874</hAcc><vAcc>0.827678</vAcc></extensions></trkpt>
      <trkpt lon="-2.242886" lat="53.125510"><ele>109.954071</ele><time>2022-03-04T13:35:38Z</time><extensions><speed>1.288760</speed><course>316.357971</course><hAcc>1.638942</hAcc><vAcc>0.827695</vAcc></extensions></trkpt>
      <trkpt lon="-2.242899" lat="53.125518"><ele>109.935226</ele><time>2022-03-04T13:35:39Z</time><extensions><speed>1.324731</speed><course>317.080322</course><hAcc>1.624691</hAcc><vAcc>0.827719</vAcc></extensions></trkpt>
      <trkpt lon="-2.242913" lat="53.125527"><ele>109.902687</ele><time>2022-03-04T13:35:40Z</time><extensions><speed>1.408700</speed><course>316.212799</course><hAcc>1.620891</hAcc><vAcc>0.827742</vAcc></extensions></trkpt>
      <trkpt lon="-2.242928" lat="53.125536"><ele>109.861023</ele><time>2022-03-04T13:35:41Z</time><extensions><speed>1.443597</speed><course>313.889709</course><hAcc>1.619309</hAcc><vAcc>0.827752</vAcc></extensions></trkpt>
      <trkpt lon="-2.242944" lat="53.125545"><ele>109.815582</ele><time>2022-03-04T13:35:42Z</time><extensions><speed>1.417662</speed><course>312.716095</course><hAcc>1.609751</hAcc><vAcc>0.827776</vAcc></extensions></trkpt>
      <trkpt lon="-2.242959" lat="53.125554"><ele>109.790733</ele><time>2022-03-04T13:35:43Z</time><extensions><speed>1.403327</speed><course>313.110046</course><hAcc>1.569420</hAcc><vAcc>0.827806</vAcc></extensions></trkpt>
      <trkpt lon="-2.242974" lat="53.125563"><ele>109.752380</ele><time>2022-03-04T13:35:44Z</time><extensions><speed>1.379735</speed><course>315.553741</course><hAcc>1.554451</hAcc><vAcc>0.827840</vAcc></extensions></trkpt>
      <trkpt lon="-2.242988" lat="53.125572"><ele>109.718987</ele><time>2022-03-04T13:35:45Z</time><extensions><speed>1.393912</speed><course>317.966003</course><hAcc>1.557383</hAcc><vAcc>0.827850</vAcc></extensions></trkpt>
      <trkpt lon="-2.243002" lat="53.125581"><ele>109.676994</ele><time>2022-03-04T13:35:46Z</time><extensions><speed>1.403786</speed><course>319.491943</course><hAcc>1.602589</hAcc><vAcc>0.827849</vAcc></extensions></trkpt>
      <trkpt lon="-2.243016" lat="53.125591"><ele>109.647720</ele><time>2022-03-04T13:35:47Z</time><extensions><speed>1.413734</speed><course>318.919739</course><hAcc>1.603853</hAcc><vAcc>0.827834</vAcc></extensions></trkpt>
      <trkpt lon="-2.243030" lat="53.125600"><ele>109.614426</ele><time>2022-03-04T13:35:48Z</time><extensions><speed>1.373882</speed><course>318.189392</course><hAcc>1.575180</hAcc><vAcc>0.827843</vAcc></extensions></trkpt>
      <trkpt lon="-2.243043" lat="53.125609"><ele>109.581078</ele><time>2022-03-04T13:35:49Z</time><extensions><speed>1.306614</speed><course>320.341125</course><hAcc>1.568798</hAcc><vAcc>0.827830</vAcc></extensions></trkpt>
      <trkpt lon="-2.243055" lat="53.125618"><ele>109.549454</ele><time>2022-03-04T13:35:50Z</time><extensions><speed>1.223625</speed><course>325.097656</course><hAcc>1.587376</hAcc><vAcc>0.827814</vAcc></extensions></trkpt>
      <trkpt lon="-2.243064" lat="53.125628"><ele>109.502380</ele><time>2022-03-04T13:35:51Z</time><extensions><speed>1.203794</speed><course>331.086182</course><hAcc>1.608947</hAcc><vAcc>0.827789</vAcc></extensions></trkpt>
      <trkpt lon="-2.243073" lat="53.125638"><ele>109.467262</ele><time>2022-03-04T13:35:52Z</time><extensions><speed>1.296377</speed><course>331.810028</course><hAcc>1.623465</hAcc><vAcc>0.827791</vAcc></extensions></trkpt>
      <trkpt lon="-2.243083" lat="53.125648"><ele>109.433693</ele><time>2022-03-04T13:35:53Z</time><extensions><speed>1.338292</speed><course>327.767761</course><hAcc>1.649614</hAcc><vAcc>0.827799</vAcc></extensions></trkpt>
      <trkpt lon="-2.243095" lat="53.125658"><ele>109.399704</ele><time>2022-03-04T13:35:54Z</time><extensions><speed>1.383712</speed><course>321.327484</course><hAcc>1.650719</hAcc><vAcc>0.827798</vAcc></extensions></trkpt>
      <trkpt lon="-2.243108" lat="53.125667"><ele>109.376022</ele><time>2022-03-04T13:35:55Z</time><extensions><speed>1.401775</speed><course>316.891113</course><hAcc>1.632114</hAcc><vAcc>0.827804</vAcc></extensions></trkpt>
      <trkpt lon="-2.243123" lat="53.125676"><ele>109.344894</ele><time>2022-03-04T13:35:56Z</time><extensions><speed>1.419716</speed><course>314.334778</course><hAcc>1.626940</hAcc><vAcc>0.827811</vAcc></extensions></trkpt>
      <trkpt lon="-2.243139" lat="53.125685"><ele>109.295097</ele><time>2022-03-04T13:35:57Z</time><extensions><speed>1.448889</speed><course>313.633240</course><hAcc>1.630963</hAcc><vAcc>0.827811</vAcc></extensions></trkpt>
      <trkpt lon="-2.243154" lat="53.125694"><ele>109.249352</ele><time>2022-03-04T13:35:58Z</time><extensions><speed>1.487224</speed><course>314.426178</course><hAcc>1.633601</hAcc><vAcc>0.827805</vAcc></extensions></trkpt>
      <trkpt lon="-2.243170" lat="53.125704"><ele>109.220024</ele><time>2022-03-04T13:35:59Z</time><extensions><speed>1.495786</speed><course>315.332550</course><hAcc>1.627662</hAcc><vAcc>0.827791</vAcc></extensions></trkpt>
      <trkpt lon="-2.243186" lat="53.125714"><ele>109.188385</ele><time>2022-03-04T13:36:00Z</time><extensions><speed>1.476874</speed><course>316.466003</course><hAcc>1.608574</hAcc><vAcc>0.827737</vAcc></extensions></trkpt>
      <trkpt lon="-2.243201" lat="53.125723"><ele>109.158745</ele><time>2022-03-04T13:36:01Z</time><extensions><speed>1.474759</speed><course>318.429108</course><hAcc>1.625270</hAcc><vAcc>0.827696</vAcc></extensions></trkpt>
      <trkpt lon="-2.243215" lat="53.125733"><ele>109.115898</ele><time>2022-03-04T13:36:02Z</time><extensions><speed>1.467215</speed><course>321.358948</course><hAcc>1.678879</hAcc><vAcc>0.827664</vAcc></extensions></trkpt>
      <trkpt lon="-2.243229" lat="53.125744"><ele>109.089569</ele><time>2022-03-04T13:36:03Z</time><extensions><speed>1.468762</speed><course>319.671326</course><hAcc>1.634932</hAcc><vAcc>0.827600</vAcc></extensions></trkpt>
      <trkpt lon="-2.243243" lat="53.125753"><ele>109.057289</ele><time>2022-03-04T13:36:04Z</time><extensions><speed>1.443695</speed><course>318.138428</course><hAcc>1.619781</hAcc><vAcc>0.827552</vAcc></extensions></trkpt>
      <trkpt lon="-2.243257" lat="53.125763"><ele>109.016243</ele><time>2022-03-04T13:36:05Z</time><extensions><speed>1.406029</speed><course>316.005524</course><hAcc>1.635824</hAcc><vAcc>0.827534</vAcc></extensions></trkpt>
      <trkpt lon="-2.243272" lat="53.125772"><ele>108.980698</ele><time>2022-03-04T13:36:06Z</time><extensions><speed>1.323033</speed><course>314.215820</course><hAcc>1.653778</hAcc><vAcc>0.827541</vAcc></extensions></trkpt>
      <trkpt lon="-2.243286" lat="53.125780"><ele>108.973328</ele><time>2022-03-04T13:36:07Z</time><extensions><speed>1.274881</speed><course>314.319214</course><hAcc>1.663157</hAcc><vAcc>0.827554</vAcc></extensions></trkpt>
      <trkpt lon="-2.243299" lat="53.125788"><ele>108.961449</ele><time>2022-03-04T13:36:08Z</time><extensions><speed>1.310849</speed><course>316.252258</course><hAcc>1.667150</hAcc><vAcc>0.827609</vAcc></extensions></trkpt>
      <trkpt lon="-2.243313" lat="53.125797"><ele>108.937881</ele><time>2022-03-04T13:36:09Z</time><extensions><speed>1.345750</speed><course>317.716858</course><hAcc>1.666725</hAcc><vAcc>0.827668</vAcc></extensions></trkpt>
      <trkpt lon="-2.243326" lat="53.125806"><ele>108.927605</ele><time>2022-03-04T13:36:10Z</time><extensions><speed>1.357947</speed><course>320.078217</course><hAcc>1.666049</hAcc><vAcc>0.827720</vAcc></extensions></trkpt>
      <trkpt lon="-2.243338" lat="53.125815"><ele>108.909012</ele><time>2022-03-04T13:36:11Z</time><extensions><speed>1.317692</speed><course>325.017334</course><hAcc>1.672403</hAcc><vAcc>0.827794</vAcc></extensions></trkpt>
      <trkpt lon="-2.243349" lat="53.125825"><ele>108.909981</ele><time>2022-03-04T13:36:12Z</time><extensions><speed>1.257966</speed><course>329.856415</course><hAcc>1.655728</hAcc><vAcc>0.827842</vAcc></extensions></trkpt>
      <trkpt lon="-2.243358" lat="53.125835"><ele>108.894501</ele><time>2022-03-04T13:36:13Z</time><extensions><speed>1.260147</speed><course>329.993042</course><hAcc>1.638239</hAcc><vAcc>0.827915</vAcc></extensions></trkpt>
      <trkpt lon="-2.243369" lat="53.125844"><ele>108.877876</ele><time>2022-03-04T13:36:14Z</time><extensions><speed>1.260695</speed><course>323.458862</course><hAcc>1.626170</hAcc><vAcc>0.827985</vAcc></extensions></trkpt>
      <trkpt lon="-2.243381" lat="53.125853"><ele>108.869011</ele><time>2022-03-04T13:36:15Z</time><extensions><speed>1.304160</speed><course>318.533844</course><hAcc>1.617387</hAcc><vAcc>0.828023</vAcc></extensions></trkpt>
      <trkpt lon="-2.243394" lat="53.125862"><ele>108.854904</ele><time>2022-03-04T13:36:16Z</time><extensions><speed>1.407769</speed><course>316.489288</course><hAcc>1.611828</hAcc><vAcc>0.828038</vAcc></extensions></trkpt>
      <trkpt lon="-2.243410" lat="53.125872"><ele>108.840431</ele><time>2022-03-04T13:36:17Z</time><extensions><speed>1.492727</speed><course>314.738617</course><hAcc>1.619148</hAcc><vAcc>0.828048</vAcc></extensions></trkpt>
      <trkpt lon="-2.243425" lat="53.125881"><ele>108.836403</ele><time>2022-03-04T13:36:18Z</time><extensions><speed>1.468610</speed><course>315.342285</course><hAcc>1.659632</hAcc><vAcc>0.828036</vAcc></extensions></trkpt>
      <trkpt lon="-2.243440" lat="53.125890"><ele>108.815491</ele><time>2022-03-04T13:36:19Z</time><extensions><speed>1.412240</speed><course>315.750610</course><hAcc>1.613755</hAcc><vAcc>0.828009</vAcc></extensions></trkpt>
      <trkpt lon="-2.243455" lat="53.125899"><ele>108.796394</ele><time>2022-03-04T13:36:20Z</time><extensions><speed>1.339275</speed><course>316.036316</course><hAcc>1.600470</hAcc><vAcc>0.827976</vAcc></extensions></trkpt>
      <trkpt lon="-2.243468" lat="53.125908"><ele>108.764008</ele><time>2022-03-04T13:36:21Z</time><extensions><speed>1.241555</speed><course>317.558960</course><hAcc>1.620294</hAcc><vAcc>0.827936</vAcc></extensions></trkpt>
      <trkpt lon="-2.243480" lat="53.125916"><ele>108.717667</ele><time>2022-03-04T13:36:22Z</time><extensions><speed>1.136458</speed><course>317.570251</course><hAcc>1.640287</hAcc><vAcc>0.827887</vAcc></extensions></trkpt>
      <trkpt lon="-2.243491" lat="53.125923"><ele>108.677002</ele><time>2022-03-04T13:36:23Z</time><extensions><speed>1.066602</speed><course>316.229767</course><hAcc>1.664816</hAcc><vAcc>0.827840</vAcc></extensions></trkpt>
      <trkpt lon="-2.243503" lat="53.125930"><ele>108.615837</ele><time>2022-03-04T13:36:24Z</time><extensions><speed>1.160633</speed><course>316.867493</course><hAcc>1.652159</hAcc><vAcc>0.827776</vAcc></extensions></trkpt>
      <trkpt lon="-2.243515" lat="53.125938"><ele>108.548203</ele><time>2022-03-04T13:36:25Z</time><extensions><speed>1.304999</speed><course>317.517975</course><hAcc>1.647777</hAcc><vAcc>0.827709</vAcc></extensions></trkpt>
      <trkpt lon="-2.243529" lat="53.125947"><ele>108.470383</ele><time>2022-03-04T13:36:26Z</time><extensions><speed>1.348054</speed><course>316.999451</course><hAcc>1.649134</hAcc><vAcc>0.827655</vAcc></extensions></trkpt>
      <trkpt lon="-2.243543" lat="53.125956"><ele>108.389137</ele><time>2022-03-04T13:36:27Z</time><extensions><speed>1.344334</speed><course>316.356079</course><hAcc>1.652437</hAcc><vAcc>0.827615</vAcc></extensions></trkpt>
      <trkpt lon="-2.243557" lat="53.125965"><ele>108.284470</ele><time>2022-03-04T13:36:28Z</time><extensions><speed>1.279807</speed><course>314.859711</course><hAcc>1.655427</hAcc><vAcc>0.827572</vAcc></extensions></trkpt>
      <trkpt lon="-2.243570" lat="53.125973"><ele>108.167870</ele><time>2022-03-04T13:36:29Z</time><extensions><speed>1.261838</speed><course>313.762360</course><hAcc>1.656682</hAcc><vAcc>0.827562</vAcc></extensions></trkpt>
      <trkpt lon="-2.243584" lat="53.125980"><ele>108.039879</ele><time>2022-03-04T13:36:30Z</time><extensions><speed>1.211550</speed><course>314.025391</course><hAcc>1.679864</hAcc><vAcc>0.827563</vAcc></extensions></trkpt>
      <trkpt lon="-2.243597" lat="53.125988"><ele>107.911041</ele><time>2022-03-04T13:36:31Z</time><extensions><speed>1.268397</speed><course>317.259369</course><hAcc>1.657305</hAcc><vAcc>0.827597</vAcc></extensions></trkpt>
      <trkpt lon="-2.243610" lat="53.125997"><ele>107.776665</ele><time>2022-03-04T13:36:32Z</time><extensions><speed>1.324446</speed><course>319.481964</course><hAcc>1.652783</hAcc><vAcc>0.827638</vAcc></extensions></trkpt>
      <trkpt lon="-2.243623" lat="53.126006"><ele>107.661301</ele><time>2022-03-04T13:36:33Z</time><extensions><speed>1.381072</speed><course>319.336487</course><hAcc>1.664846</hAcc><vAcc>0.827710</vAcc></extensions></trkpt>
      <trkpt lon="-2.243637" lat="53.126016"><ele>107.531143</ele><time>2022-03-04T13:36:34Z</time><extensions><speed>1.391732</speed><course>317.872711</course><hAcc>1.673518</hAcc><vAcc>0.827809</vAcc></extensions></trkpt>
      <trkpt lon="-2.243651" lat="53.126025"><ele>107.397095</ele><time>2022-03-04T13:36:35Z</time><extensions><speed>1.382198</speed><course>317.041351</course><hAcc>1.676227</hAcc><vAcc>0.827937</vAcc></extensions></trkpt>
      <trkpt lon="-2.243665" lat="53.126034"><ele>107.266586</ele><time>2022-03-04T13:36:36Z</time><extensions><speed>1.328419</speed><course>318.456879</course><hAcc>1.676968</hAcc><vAcc>0.828063</vAcc></extensions></trkpt>
      <trkpt lon="-2.243678" lat="53.126043"><ele>107.130081</ele><time>2022-03-04T13:36:37Z</time><extensions><speed>1.394719</speed><course>320.447327</course><hAcc>1.680500</hAcc><vAcc>0.828194</vAcc></extensions></trkpt>
      <trkpt lon="-2.243691" lat="53.126053"><ele>106.991821</ele><time>2022-03-04T13:36:38Z</time><extensions><speed>1.410843</speed><course>320.230713</course><hAcc>1.678364</hAcc><vAcc>0.828317</vAcc></extensions></trkpt>
      <trkpt lon="-2.243705" lat="53.126063"><ele>106.858086</ele><time>2022-03-04T13:36:39Z</time><extensions><speed>1.417928</speed><course>318.981232</course><hAcc>1.673337</hAcc><vAcc>0.828456</vAcc></extensions></trkpt>
      <trkpt lon="-2.243720" lat="53.126073"><ele>106.726662</ele><time>2022-03-04T13:36:40Z</time><extensions><speed>1.508453</speed><course>317.293427</course><hAcc>1.664261</hAcc><vAcc>0.828593</vAcc></extensions></trkpt>
      <trkpt lon="-2.243736" lat="53.126083"><ele>106.602539</ele><time>2022-03-04T13:36:41Z</time><extensions><speed>1.560305</speed><course>315.197510</course><hAcc>1.656847</hAcc><vAcc>0.828736</vAcc></extensions></trkpt>
      <trkpt lon="-2.243753" lat="53.126092"><ele>106.493660</ele><time>2022-03-04T13:36:42Z</time><extensions><speed>1.537216</speed><course>312.058533</course><hAcc>1.636456</hAcc><vAcc>0.828854</vAcc></extensions></trkpt>
      <trkpt lon="-2.243770" lat="53.126101"><ele>106.368996</ele><time>2022-03-04T13:36:44Z</time><extensions><speed>1.421414</speed><course>310.759094</course><hAcc>1.624042</hAcc><vAcc>0.828954</vAcc></extensions></trkpt>
      <trkpt lon="-2.243785" lat="53.126109"><ele>106.261749</ele><time>2022-03-04T13:36:45Z</time><extensions><speed>1.287224</speed><course>311.154114</course><hAcc>1.644795</hAcc><vAcc>0.829007</vAcc></extensions></trkpt>
      <trkpt lon="-2.243799" lat="53.126116"><ele>106.152664</ele><time>2022-03-04T13:36:46Z</time><extensions><speed>1.144447</speed><course>313.312958</course><hAcc>1.683520</hAcc><vAcc>0.829048</vAcc></extensions></trkpt>
      <trkpt lon="-2.243812" lat="53.126123"><ele>106.039146</ele><time>2022-03-04T13:36:47Z</time><extensions><speed>1.181170</speed><course>311.652222</course><hAcc>1.643803</hAcc><vAcc>0.829084</vAcc></extensions></trkpt>
      <trkpt lon="-2.243825" lat="53.126130"><ele>105.942612</ele><time>2022-03-04T13:36:48Z</time><extensions><speed>1.194406</speed><course>309.726471</course><hAcc>1.633320</hAcc><vAcc>0.829099</vAcc></extensions></trkpt>
      <trkpt lon="-2.243840" lat="53.126137"><ele>105.852234</ele><time>2022-03-04T13:36:49Z</time><extensions><speed>1.261120</speed><course>307.852173</course><hAcc>1.651000</hAcc><vAcc>0.829110</vAcc></extensions></trkpt>
      <trkpt lon="-2.243855" lat="53.126144"><ele>105.770897</ele><time>2022-03-04T13:36:50Z</time><extensions><speed>1.341656</speed><course>304.153168</course><hAcc>1.667215</hAcc><vAcc>0.829058</vAcc></extensions></trkpt>
      <trkpt lon="-2.243872" lat="53.126151"><ele>105.707893</ele><time>2022-03-04T13:36:51Z</time><extensions><speed>1.369550</speed><course>303.141022</course><hAcc>1.678315</hAcc><vAcc>0.828948</vAcc></extensions></trkpt>
      <trkpt lon="-2.243889" lat="53.126158"><ele>105.639091</ele><time>2022-03-04T13:36:52Z</time><extensions><speed>1.298647</speed><course>304.213562</course><hAcc>1.686357</hAcc><vAcc>0.828745</vAcc></extensions></trkpt>
      <trkpt lon="-2.243904" lat="53.126164"><ele>105.572945</ele><time>2022-03-04T13:36:53Z</time><extensions><speed>1.174731</speed><course>306.757568</course><hAcc>1.690473</hAcc><vAcc>0.828461</vAcc></extensions></trkpt>
      <trkpt lon="-2.243918" lat="53.126171"><ele>105.523529</ele><time>2022-03-04T13:36:54Z</time><extensions><speed>1.195528</speed><course>308.814056</course><hAcc>1.691649</hAcc><vAcc>0.828151</vAcc></extensions></trkpt>
      <trkpt lon="-2.243932" lat="53.126178"><ele>105.486153</ele><time>2022-03-04T13:36:55Z</time><extensions><speed>1.280185</speed><course>310.273682</course><hAcc>1.694861</hAcc><vAcc>0.827746</vAcc></extensions></trkpt>
      <trkpt lon="-2.243947" lat="53.126186"><ele>105.457962</ele><time>2022-03-04T13:36:56Z</time><extensions><speed>1.306219</speed><course>312.020050</course><hAcc>1.702331</hAcc><vAcc>0.827248</vAcc></extensions></trkpt>
      <trkpt lon="-2.243961" lat="53.126193"><ele>105.459717</ele><time>2022-03-04T13:36:57Z</time><extensions><speed>1.154896</speed><course>313.963501</course><hAcc>1.711219</hAcc><vAcc>0.826671</vAcc></extensions></trkpt>
      <trkpt lon="-2.243972" lat="53.126200"><ele>105.462234</ele><time>2022-03-04T13:36:58Z</time><extensions><speed>0.951895</speed><course>313.276184</course><hAcc>1.715868</hAcc><vAcc>0.826100</vAcc></extensions></trkpt>
      <trkpt lon="-2.243981" lat="53.126205"><ele>105.461472</ele><time>2022-03-04T13:36:59Z</time><extensions><speed>0.662776</speed><course>315.243866</course><hAcc>1.720953</hAcc><vAcc>0.825494</vAcc></extensions></trkpt>
      <trkpt lon="-2.243987" lat="53.126209"><ele>105.479752</ele><time>2022-03-04T13:37:00Z</time><extensions><speed>0.653629</speed><course>323.821045</course><hAcc>1.718238</hAcc><vAcc>0.824884</vAcc></extensions></trkpt>
      <trkpt lon="-2.243992" lat="53.126215"><ele>105.498184</ele><time>2022-03-04T13:37:01Z</time><extensions><speed>0.789189</speed><course>334.306030</course><hAcc>1.721150</hAcc><vAcc>0.824320</vAcc></extensions></trkpt>
      <trkpt lon="-2.243997" lat="53.126222"><ele>105.522377</ele><time>2022-03-04T13:37:02Z</time><extensions><speed>0.781056</speed><course>343.999573</course><hAcc>1.741220</hAcc><vAcc>0.823803</vAcc></extensions></trkpt>
      <trkpt lon="-2.243999" lat="53.126228"><ele>105.544060</ele><time>2022-03-04T13:37:03Z</time><extensions><speed>0.677593</speed><course>347.870789</course><hAcc>1.752426</hAcc><vAcc>0.823374</vAcc></extensions></trkpt>
      <trkpt lon="-2.244002" lat="53.126233"><ele>105.561264</ele><time>2022-03-04T13:37:04Z</time><extensions><speed>0.476517</speed><course>343.847748</course><hAcc>1.766915</hAcc><vAcc>0.823042</vAcc></extensions></trkpt>
      <trkpt lon="-2.244004" lat="53.126237"><ele>105.577515</ele><time>2022-03-04T13:37:05Z</time><extensions><speed>0.451809</speed><course>339.298981</course><hAcc>1.755508</hAcc><vAcc>0.822822</vAcc></extensions></trkpt>
      <trkpt lon="-2.244006" lat="53.126241"><ele>105.602234</ele><time>2022-03-04T13:37:06Z</time><extensions><speed>0.427783</speed><course>334.320251</course><hAcc>1.750139</hAcc><vAcc>0.822709</vAcc></extensions></trkpt>
      <trkpt lon="-2.244009" lat="53.126244"><ele>105.639885</ele><time>2022-03-04T13:37:07Z</time><extensions><speed>0.388147</speed><course>328.476624</course><hAcc>1.753512</hAcc><vAcc>0.822695</vAcc></extensions></trkpt>
      <trkpt lon="-2.244013" lat="53.126246"><ele>105.672134</ele><time>2022-03-04T13:37:08Z</time><extensions><speed>0.345729</speed><course>320.637604</course><hAcc>1.759883</hAcc><vAcc>0.822802</vAcc></extensions></trkpt>
      <trkpt lon="-2.244016" lat="53.126249"><ele>105.677673</ele><time>2022-03-04T13:37:09Z</time><extensions><speed>0.326394</speed><course>311.983612</course><hAcc>1.763295</hAcc><vAcc>0.822986</vAcc></extensions></trkpt>
      <trkpt lon="-2.244020" lat="53.126250"><ele>105.679649</ele><time>2022-03-04T13:37:10Z</time><extensions><speed>0.326524</speed><course>302.724121</course><hAcc>1.762551</hAcc><vAcc>0.823241</vAcc></extensions></trkpt>
      <trkpt lon="-2.244024" lat="53.126252"><ele>105.670509</ele><time>2022-03-04T13:37:11Z</time><extensions><speed>0.346713</speed><course>293.245819</course><hAcc>1.758713</hAcc><vAcc>0.823548</vAcc></extensions></trkpt>
      <trkpt lon="-2.244029" lat="53.126253"><ele>105.656281</ele><time>2022-03-04T13:37:12Z</time><extensions><speed>0.376731</speed><course>284.990204</course><hAcc>1.758033</hAcc><vAcc>0.823889</vAcc></extensions></trkpt>
      <trkpt lon="-2.244035" lat="53.126254"><ele>105.642662</ele><time>2022-03-04T13:37:13Z</time><extensions><speed>0.411540</speed><course>279.720459</course><hAcc>1.761235</hAcc><vAcc>0.824236</vAcc></extensions></trkpt>
      <trkpt lon="-2.244042" lat="53.126254"><ele>105.622276</ele><time>2022-03-04T13:37:14Z</time><extensions><speed>0.468643</speed><course>279.470367</course><hAcc>1.758984</hAcc><vAcc>0.824592</vAcc></extensions></trkpt>
      <trkpt lon="-2.244049" lat="53.126255"><ele>105.590172</ele><time>2022-03-04T13:37:15Z</time><extensions><speed>0.579397</speed><course>284.668243</course><hAcc>1.744113</hAcc><vAcc>0.824926</vAcc></extensions></trkpt>
      <trkpt lon="-2.244059" lat="53.126257"><ele>105.545502</ele><time>2022-03-04T13:37:16Z</time><extensions><speed>0.777209</speed><course>293.004364</course><hAcc>1.729240</hAcc><vAcc>0.825240</vAcc></extensions></trkpt>
      <trkpt lon="-2.244071" lat="53.126261"><ele>105.492599</ele><time>2022-03-04T13:37:17Z</time><extensions><speed>0.937151</speed><course>295.192902</course><hAcc>1.744712</hAcc><vAcc>0.825553</vAcc></extensions></trkpt>
      <trkpt lon="-2.244083" lat="53.126264"><ele>105.426651</ele><time>2022-03-04T13:37:18Z</time><extensions><speed>0.951344</speed><course>294.539795</course><hAcc>1.741308</hAcc><vAcc>0.825868</vAcc></extensions></trkpt>
      <trkpt lon="-2.244096" lat="53.126267"><ele>105.371201</ele><time>2022-03-04T13:37:19Z</time><extensions><speed>0.881313</speed><course>290.968048</course><hAcc>1.728303</hAcc><vAcc>0.826136</vAcc></extensions></trkpt>
      <trkpt lon="-2.244109" lat="53.126270"><ele>105.309212</ele><time>2022-03-04T13:37:20Z</time><extensions><speed>0.898703</speed><course>291.460785</course><hAcc>1.714300</hAcc><vAcc>0.826374</vAcc></extensions></trkpt>
      <trkpt lon="-2.244121" lat="53.126274"><ele>105.243240</ele><time>2022-03-04T13:37:21Z</time><extensions><speed>0.956567</speed><course>296.324158</course><hAcc>1.709054</hAcc><vAcc>0.826610</vAcc></extensions></trkpt>
      <trkpt lon="-2.244134" lat="53.126278"><ele>105.172112</ele><time>2022-03-04T13:37:22Z</time><extensions><speed>0.936526</speed><course>303.867279</course><hAcc>1.706334</hAcc><vAcc>0.826841</vAcc></extensions></trkpt>
      <trkpt lon="-2.244144" lat="53.126283"><ele>105.099709</ele><time>2022-03-04T13:37:23Z</time><extensions><speed>0.830476</speed><course>315.402374</course><hAcc>1.704360</hAcc><vAcc>0.827066</vAcc></extensions></trkpt>
      <trkpt lon="-2.244152" lat="53.126288"><ele>105.036308</ele><time>2022-03-04T13:37:24Z</time><extensions><speed>0.801483</speed><course>321.426422</course><hAcc>1.692014</hAcc><vAcc>0.827282</vAcc></extensions></trkpt>
      <trkpt lon="-2.244160" lat="53.126294"><ele>104.983482</ele><time>2022-03-04T13:37:25Z</time><extensions><speed>0.886237</speed><course>319.818909</course><hAcc>1.689162</hAcc><vAcc>0.827481</vAcc></extensions></trkpt>
      <trkpt lon="-2.244170" lat="53.126300"><ele>104.948151</ele><time>2022-03-04T13:37:26Z</time><extensions><speed>1.003617</speed><course>313.194611</course><hAcc>1.694069</hAcc><vAcc>0.827684</vAcc></extensions></trkpt>
      <trkpt lon="-2.244182" lat="53.126306"><ele>104.899818</ele><time>2022-03-04T13:37:27Z</time><extensions><speed>1.063739</speed><course>304.943359</course><hAcc>1.705653</hAcc><vAcc>0.827884</vAcc></extensions></trkpt>
      <trkpt lon="-2.244196" lat="53.126311"><ele>104.857010</ele><time>2022-03-04T13:37:28Z</time><extensions><speed>1.125399</speed><course>296.913849</course><hAcc>1.699459</hAcc><vAcc>0.828081</vAcc></extensions></trkpt>
      <trkpt lon="-2.244212" lat="53.126316"><ele>104.832764</ele><time>2022-03-04T13:37:29Z</time><extensions><speed>1.235652</speed><course>292.981201</course><hAcc>1.694794</hAcc><vAcc>0.828254</vAcc></extensions></trkpt>
      <trkpt lon="-2.244229" lat="53.126320"><ele>104.803429</ele><time>2022-03-04T13:37:30Z</time><extensions><speed>1.269158</speed><course>291.435577</course><hAcc>1.695840</hAcc><vAcc>0.828402</vAcc></extensions></trkpt>
      <trkpt lon="-2.244247" lat="53.126324"><ele>104.780212</ele><time>2022-03-04T13:37:31Z</time><extensions><speed>1.263523</speed><course>292.140686</course><hAcc>1.695834</hAcc><vAcc>0.828542</vAcc></extensions></trkpt>
      <trkpt lon="-2.244264" lat="53.126329"><ele>104.760338</ele><time>2022-03-04T13:37:32Z</time><extensions><speed>1.235319</speed><course>296.166840</course><hAcc>1.696645</hAcc><vAcc>0.828655</vAcc></extensions></trkpt>
      <trkpt lon="-2.244280" lat="53.126334"><ele>104.741684</ele><time>2022-03-04T13:37:33Z</time><extensions><speed>1.218806</speed><course>301.452545</course><hAcc>1.692224</hAcc><vAcc>0.828760</vAcc></extensions></trkpt>
      <trkpt lon="-2.244295" lat="53.126340"><ele>104.718208</ele><time>2022-03-04T13:37:34Z</time><extensions><speed>1.266861</speed><course>306.038055</course><hAcc>1.678821</hAcc><vAcc>0.828834</vAcc></extensions></trkpt>
      <trkpt lon="-2.244310" lat="53.126348"><ele>104.705444</ele><time>2022-03-04T13:37:34Z</time><extensions><speed>1.336939</speed><course>311.515900</course><hAcc>1.663695</hAcc><vAcc>0.828866</vAcc></extensions></trkpt>
      <trkpt lon="-2.244324" lat="53.126356"><ele>104.679832</ele><time>2022-03-04T13:37:35Z</time><extensions><speed>1.387105</speed><course>318.919800</course><hAcc>1.656704</hAcc><vAcc>0.828882</vAcc></extensions></trkpt>
      <trkpt lon="-2.244338" lat="53.126366"><ele>104.645508</ele><time>2022-03-04T13:37:36Z</time><extensions><speed>1.433110</speed><course>323.152985</course><hAcc>1.663736</hAcc><vAcc>0.828888</vAcc></extensions></trkpt>
      <trkpt lon="-2.244350" lat="53.126377"><ele>104.620995</ele><time>2022-03-04T13:37:37Z</time><extensions><speed>1.404729</speed><course>325.848541</course><hAcc>1.680143</hAcc><vAcc>0.828888</vAcc></extensions></trkpt>
      <trkpt lon="-2.244362" lat="53.126387"><ele>104.592407</ele><time>2022-03-04T13:37:38Z</time><extensions><speed>1.364664</speed><course>325.048370</course><hAcc>1.647646</hAcc><vAcc>0.828878</vAcc></extensions></trkpt>
      <trkpt lon="-2.244373" lat="53.126397"><ele>104.536728</ele><time>2022-03-04T13:37:39Z</time><extensions><speed>1.306677</speed><course>324.258514</course><hAcc>1.637344</hAcc><vAcc>0.828845</vAcc></extensions></trkpt>
      <trkpt lon="-2.244385" lat="53.126406"><ele>104.501694</ele><time>2022-03-04T13:37:40Z</time><extensions><speed>1.313704</speed><course>324.106812</course><hAcc>1.650860</hAcc><vAcc>0.828825</vAcc></extensions></trkpt>
      <trkpt lon="-2.244397" lat="53.126416"><ele>104.451530</ele><time>2022-03-04T13:37:41Z</time><extensions><speed>1.363477</speed><course>322.658325</course><hAcc>1.665424</hAcc><vAcc>0.828838</vAcc></extensions></trkpt>
      <trkpt lon="-2.244410" lat="53.126425"><ele>104.392075</ele><time>2022-03-04T13:37:42Z</time><extensions><speed>1.340891</speed><course>319.677032</course><hAcc>1.663088</hAcc><vAcc>0.828856</vAcc></extensions></trkpt>
      <trkpt lon="-2.244423" lat="53.126434"><ele>104.326340</ele><time>2022-03-04T13:37:43Z</time><extensions><speed>1.298916</speed><course>318.536957</course><hAcc>1.662978</hAcc><vAcc>0.828857</vAcc></extensions></trkpt>
      <trkpt lon="-2.244435" lat="53.126443"><ele>104.255142</ele><time>2022-03-04T13:37:44Z</time><extensions><speed>1.223917</speed><course>318.804565</course><hAcc>1.664144</hAcc><vAcc>0.828841</vAcc></extensions></trkpt>
      <trkpt lon="-2.244447" lat="53.126451"><ele>104.184105</ele><time>2022-03-04T13:37:45Z</time><extensions><speed>1.132008</speed><course>319.905914</course><hAcc>1.669653</hAcc><vAcc>0.828841</vAcc></extensions></trkpt>
      <trkpt lon="-2.244458" lat="53.126459"><ele>104.120560</ele><time>2022-03-04T13:37:46Z</time><extensions><speed>1.152635</speed><course>318.286469</course><hAcc>1.675894</hAcc><vAcc>0.828848</vAcc></extensions></trkpt>
      <trkpt lon="-2.244471" lat="53.126467"><ele>104.062263</ele><time>2022-03-04T13:37:47Z</time><extensions><speed>1.269494</speed><course>316.173767</course><hAcc>1.667470</hAcc><vAcc>0.828843</vAcc></extensions></trkpt>
      <trkpt lon="-2.244484" lat="53.126475"><ele>104.004639</ele><time>2022-03-04T13:37:48Z</time><extensions><speed>1.295642</speed><course>314.929016</course><hAcc>1.665996</hAcc><vAcc>0.828845</vAcc></extensions></trkpt>
      <trkpt lon="-2.244498" lat="53.126483"><ele>103.941566</ele><time>2022-03-04T13:37:49Z</time><extensions><speed>1.222502</speed><course>311.953278</course><hAcc>1.660684</hAcc><vAcc>0.828868</vAcc></extensions></trkpt>
      <trkpt lon="-2.244511" lat="53.126490"><ele>103.876503</ele><time>2022-03-04T13:37:50Z</time><extensions><speed>1.164325</speed><course>309.080139</course><hAcc>1.661348</hAcc><vAcc>0.828927</vAcc></extensions></trkpt>
      <trkpt lon="-2.244525" lat="53.126496"><ele>103.821777</ele><time>2022-03-04T13:37:51Z</time><extensions><speed>1.075079</speed><course>306.905090</course><hAcc>1.670792</hAcc><vAcc>0.828976</vAcc></extensions></trkpt>
      <trkpt lon="-2.244538" lat="53.126502"><ele>103.776291</ele><time>2022-03-04T13:37:52Z</time><extensions><speed>1.075508</speed><course>306.563690</course><hAcc>1.676242</hAcc><vAcc>0.829009</vAcc></extensions></trkpt>
      <trkpt lon="-2.244552" lat="53.126508"><ele>103.727600</ele><time>2022-03-04T13:37:53Z</time><extensions><speed>1.248384</speed><course>307.715729</course><hAcc>1.665566</hAcc><vAcc>0.829032</vAcc></extensions></trkpt>
      <trkpt lon="-2.244567" lat="53.126516"><ele>103.689423</ele><time>2022-03-04T13:37:54Z</time><extensions><speed>1.403154</speed><course>308.453949</course><hAcc>1.658551</hAcc><vAcc>0.829059</vAcc></extensions></trkpt>
      <trkpt lon="-2.244584" lat="53.126524"><ele>103.658211</ele><time>2022-03-04T13:37:55Z</time><extensions><speed>1.477777</speed><course>307.949097</course><hAcc>1.660964</hAcc><vAcc>0.829091</vAcc></extensions></trkpt>
      <trkpt lon="-2.244602" lat="53.126531"><ele>103.641243</ele><time>2022-03-04T13:37:56Z</time><extensions><speed>1.423080</speed><course>304.231140</course><hAcc>1.660506</hAcc><vAcc>0.829120</vAcc></extensions></trkpt>
      <trkpt lon="-2.244620" lat="53.126538"><ele>103.620438</ele><time>2022-03-04T13:37:57Z</time><extensions><speed>1.386080</speed><course>300.402924</course><hAcc>1.661000</hAcc><vAcc>0.829147</vAcc></extensions></trkpt>
      <trkpt lon="-2.244637" lat="53.126544"><ele>103.604668</ele><time>2022-03-04T13:37:58Z</time><extensions><speed>1.302122</speed><course>297.554565</course><hAcc>1.677949</hAcc><vAcc>0.829144</vAcc></extensions></trkpt>
      <trkpt lon="-2.244654" lat="53.126549"><ele>103.599274</ele><time>2022-03-04T13:37:59Z</time><extensions><speed>1.181995</speed><course>293.289764</course><hAcc>1.691092</hAcc><vAcc>0.829103</vAcc></extensions></trkpt>
      <trkpt lon="-2.244671" lat="53.126553"><ele>103.584167</ele><time>2022-03-04T13:38:00Z</time><extensions><speed>1.301315</speed><course>292.812469</course><hAcc>1.670519</hAcc><vAcc>0.829030</vAcc></extensions></trkpt>
      <trkpt lon="-2.244690" lat="53.126558"><ele>103.568840</ele><time>2022-03-04T13:38:01Z</time><extensions><speed>1.416005</speed><course>295.040741</course><hAcc>1.667969</hAcc><vAcc>0.828921</vAcc></extensions></trkpt>
      <trkpt lon="-2.244709" lat="53.126564"><ele>103.564651</ele><time>2022-03-04T13:38:02Z</time><extensions><speed>1.433837</speed><course>298.930664</course><hAcc>1.680669</hAcc><vAcc>0.828772</vAcc></extensions></trkpt>
      <trkpt lon="-2.244727" lat="53.126571"><ele>103.556656</ele><time>2022-03-04T13:38:03Z</time><extensions><speed>1.487477</speed><course>302.242371</course><hAcc>1.693644</hAcc><vAcc>0.828610</vAcc></extensions></trkpt>
      <trkpt lon="-2.244746" lat="53.126578"><ele>103.545715</ele><time>2022-03-04T13:38:04Z</time><extensions><speed>1.519430</speed><course>303.766479</course><hAcc>1.697227</hAcc><vAcc>0.828422</vAcc></extensions></trkpt>
      <trkpt lon="-2.244765" lat="53.126586"><ele>103.538239</ele><time>2022-03-04T13:38:05Z</time><extensions><speed>1.498687</speed><course>305.388794</course><hAcc>1.698375</hAcc><vAcc>0.828205</vAcc></extensions></trkpt>
      <trkpt lon="-2.244782" lat="53.126593"><ele>103.538803</ele><time>2022-03-04T13:38:06Z</time><extensions><speed>1.430540</speed><course>305.598755</course><hAcc>1.694861</hAcc><vAcc>0.827979</vAcc></extensions></trkpt>
      <trkpt lon="-2.244799" lat="53.126600"><ele>103.529320</ele><time>2022-03-04T13:38:07Z</time><extensions><speed>1.352699</speed><course>304.512817</course><hAcc>1.687879</hAcc><vAcc>0.827768</vAcc></extensions></trkpt>
      <trkpt lon="-2.244816" lat="53.126607"><ele>103.502945</ele><time>2022-03-04T13:38:08Z</time><extensions><speed>1.308956</speed><course>303.020386</course><hAcc>1.674483</hAcc><vAcc>0.827542</vAcc></extensions></trkpt>
      <trkpt lon="-2.244832" lat="53.126613"><ele>103.467583</ele><time>2022-03-04T13:38:09Z</time><extensions><speed>1.258595</speed><course>302.430511</course><hAcc>1.655558</hAcc><vAcc>0.827331</vAcc></extensions></trkpt>
      <trkpt lon="-2.244848" lat="53.126620"><ele>103.442421</ele><time>2022-03-04T13:38:10Z</time><extensions><speed>1.285563</speed><course>304.554443</course><hAcc>1.627147</hAcc><vAcc>0.827142</vAcc></extensions></trkpt>
      <trkpt lon="-2.244864" lat="53.126627"><ele>103.404419</ele><time>2022-03-04T13:38:11Z</time><extensions><speed>1.337408</speed><course>309.353333</course><hAcc>1.603100</hAcc><vAcc>0.826966</vAcc></extensions></trkpt>
      <trkpt lon="-2.244879" lat="53.126635"><ele>103.362534</ele><time>2022-03-04T13:38:12Z</time><extensions><speed>1.376735</speed><course>314.371704</course><hAcc>1.618913</hAcc><vAcc>0.826827</vAcc></extensions></trkpt>
      <trkpt lon="-2.244893" lat="53.126644"><ele>103.344833</ele><time>2022-03-04T13:38:13Z</time><extensions><speed>1.374874</speed><course>317.519653</course><hAcc>1.671541</hAcc><vAcc>0.826751</vAcc></extensions></trkpt>
      <trkpt lon="-2.244907" lat="53.126652"><ele>103.320244</ele><time>2022-03-04T13:38:14Z</time><extensions><speed>1.312336</speed><course>315.939331</course><hAcc>1.628802</hAcc><vAcc>0.826685</vAcc></extensions></trkpt>
      <trkpt lon="-2.244921" lat="53.126661"><ele>103.272690</ele><time>2022-03-04T13:38:15Z</time><extensions><speed>1.294900</speed><course>313.154602</course><hAcc>1.598772</hAcc><vAcc>0.826636</vAcc></extensions></trkpt>
      <trkpt lon="-2.244935" lat="53.126669"><ele>103.233620</ele><time>2022-03-04T13:38:16Z</time><extensions><speed>1.318713</speed><course>313.026154</course><hAcc>1.613521</hAcc><vAcc>0.826630</vAcc></extensions></trkpt>
      <trkpt lon="-2.244949" lat="53.126677"><ele>103.211800</ele><time>2022-03-04T13:38:17Z</time><extensions><speed>1.276437</speed><course>313.256042</course><hAcc>1.642524</hAcc><vAcc>0.826655</vAcc></extensions></trkpt>
      <trkpt lon="-2.244963" lat="53.126685"><ele>103.196083</ele><time>2022-03-04T13:38:18Z</time><extensions><speed>1.228178</speed><course>312.993469</course><hAcc>1.660336</hAcc><vAcc>0.826726</vAcc></extensions></trkpt>
      <trkpt lon="-2.244976" lat="53.126692"><ele>103.181580</ele><time>2022-03-04T13:38:19Z</time><extensions><speed>1.233684</speed><course>313.766724</course><hAcc>1.671364</hAcc><vAcc>0.826814</vAcc></extensions></trkpt>
      <trkpt lon="-2.244990" lat="53.126700"><ele>103.179008</ele><time>2022-03-04T13:38:20Z</time><extensions><speed>1.275889</speed><course>313.215363</course><hAcc>1.675609</hAcc><vAcc>0.826918</vAcc></extensions></trkpt>
      <trkpt lon="-2.245005" lat="53.126708"><ele>103.166451</ele><time>2022-03-04T13:38:21Z</time><extensions><speed>1.377939</speed><course>310.175964</course><hAcc>1.670383</hAcc><vAcc>0.827048</vAcc></extensions></trkpt>
      <trkpt lon="-2.245021" lat="53.126716"><ele>103.144455</ele><time>2022-03-04T13:38:22Z</time><extensions><speed>1.395964</speed><course>307.642883</course><hAcc>1.664198</hAcc><vAcc>0.827196</vAcc></extensions></trkpt>
      <trkpt lon="-2.245038" lat="53.126723"><ele>103.136467</ele><time>2022-03-04T13:38:23Z</time><extensions><speed>1.447093</speed><course>305.099548</course><hAcc>1.656166</hAcc><vAcc>0.827334</vAcc></extensions></trkpt>
      <trkpt lon="-2.245056" lat="53.126731"><ele>103.146072</ele><time>2022-03-04T13:38:24Z</time><extensions><speed>1.517746</speed><course>307.363159</course><hAcc>1.624582</hAcc><vAcc>0.827491</vAcc></extensions></trkpt>
      <trkpt lon="-2.245073" lat="53.126740"><ele>103.124710</ele><time>2022-03-04T13:38:25Z</time><extensions><speed>1.492283</speed><course>310.135162</course><hAcc>1.614891</hAcc><vAcc>0.827630</vAcc></extensions></trkpt>
      <trkpt lon="-2.245090" lat="53.126749"><ele>103.111443</ele><time>2022-03-04T13:38:26Z</time><extensions><speed>1.464653</speed><course>313.231598</course><hAcc>1.630612</hAcc><vAcc>0.827745</vAcc></extensions></trkpt>
      <trkpt lon="-2.245106" lat="53.126758"><ele>103.126488</ele><time>2022-03-04T13:38:27Z</time><extensions><speed>1.426315</speed><course>315.218567</course><hAcc>1.634242</hAcc><vAcc>0.827834</vAcc></extensions></trkpt>
      <trkpt lon="-2.245121" lat="53.126767"><ele>103.124298</ele><time>2022-03-04T13:38:28Z</time><extensions><speed>1.477663</speed><course>314.066284</course><hAcc>1.603913</hAcc><vAcc>0.827888</vAcc></extensions></trkpt>
      <trkpt lon="-2.245137" lat="53.126776"><ele>103.120644</ele><time>2022-03-04T13:38:29Z</time><extensions><speed>1.501254</speed><course>311.429169</course><hAcc>1.603355</hAcc><vAcc>0.827933</vAcc></extensions></trkpt>
      <trkpt lon="-2.245154" lat="53.126785"><ele>103.112274</ele><time>2022-03-04T13:38:30Z</time><extensions><speed>1.423547</speed><course>310.067688</course><hAcc>1.591648</hAcc><vAcc>0.827922</vAcc></extensions></trkpt>
      <trkpt lon="-2.245170" lat="53.126793"><ele>103.123703</ele><time>2022-03-04T13:38:31Z</time><extensions><speed>1.390308</speed><course>310.854309</course><hAcc>1.590008</hAcc><vAcc>0.827899</vAcc></extensions></trkpt>
      <trkpt lon="-2.245186" lat="53.126802"><ele>103.133568</ele><time>2022-03-04T13:38:32Z</time><extensions><speed>1.438871</speed><course>313.036743</course><hAcc>1.589055</hAcc><vAcc>0.827871</vAcc></extensions></trkpt>
      <trkpt lon="-2.245202" lat="53.126811"><ele>103.139153</ele><time>2022-03-04T13:38:33Z</time><extensions><speed>1.536420</speed><course>317.047638</course><hAcc>1.571514</hAcc><vAcc>0.827805</vAcc></extensions></trkpt>
      <trkpt lon="-2.245218" lat="53.126822"><ele>103.149025</ele><time>2022-03-04T13:38:34Z</time><extensions><speed>1.598149</speed><course>319.087158</course><hAcc>1.566903</hAcc><vAcc>0.827723</vAcc></extensions></trkpt>
      <trkpt lon="-2.245233" lat="53.126832"><ele>103.155365</ele><time>2022-03-04T13:38:35Z</time><extensions><speed>1.466244</speed><course>317.166107</course><hAcc>1.587591</hAcc><vAcc>0.827629</vAcc></extensions></trkpt>
      <trkpt lon="-2.245248" lat="53.126841"><ele>103.165863</ele><time>2022-03-04T13:38:36Z</time><extensions><speed>1.451878</speed><course>313.698578</course><hAcc>1.571072</hAcc><vAcc>0.827521</vAcc></extensions></trkpt>
      <trkpt lon="-2.245264" lat="53.126850"><ele>103.176300</ele><time>2022-03-04T13:38:37Z</time><extensions><speed>1.425430</speed><course>314.021454</course><hAcc>1.539492</hAcc><vAcc>0.827434</vAcc></extensions></trkpt>
      <trkpt lon="-2.245279" lat="53.126859"><ele>103.175667</ele><time>2022-03-04T13:38:38Z</time><extensions><speed>1.380675</speed><course>314.241608</course><hAcc>1.537458</hAcc><vAcc>0.827349</vAcc></extensions></trkpt>
      <trkpt lon="-2.245294" lat="53.126867"><ele>103.172745</ele><time>2022-03-04T13:38:39Z</time><extensions><speed>1.398218</speed><course>312.962585</course><hAcc>1.549474</hAcc><vAcc>0.827285</vAcc></extensions></trkpt>
      <trkpt lon="-2.245310" lat="53.126876"><ele>103.177933</ele><time>2022-03-04T13:38:40Z</time><extensions><speed>1.477106</speed><course>311.681213</course><hAcc>1.534580</hAcc><vAcc>0.827223</vAcc></extensions></trkpt>
      <trkpt lon="-2.245327" lat="53.126885"><ele>103.203728</ele><time>2022-03-04T13:38:41Z</time><extensions><speed>1.509583</speed><course>309.602753</course><hAcc>1.578653</hAcc><vAcc>0.827164</vAcc></extensions></trkpt>
      <trkpt lon="-2.245344" lat="53.126893"><ele>103.226791</ele><time>2022-03-04T13:38:42Z</time><extensions><speed>1.450389</speed><course>305.122070</course><hAcc>1.592317</hAcc><vAcc>0.827133</vAcc></extensions></trkpt>
      <trkpt lon="-2.245362" lat="53.126900"><ele>103.230774</ele><time>2022-03-04T13:38:43Z</time><extensions><speed>1.403318</speed><course>305.739136</course><hAcc>1.557691</hAcc><vAcc>0.827105</vAcc></extensions></trkpt>
      <trkpt lon="-2.245378" lat="53.126908"><ele>103.242447</ele><time>2022-03-04T13:38:44Z</time><extensions><speed>1.342651</speed><course>307.243744</course><hAcc>1.561762</hAcc><vAcc>0.827082</vAcc></extensions></trkpt>
      <trkpt lon="-2.245394" lat="53.126915"><ele>103.263397</ele><time>2022-03-04T13:38:45Z</time><extensions><speed>1.282474</speed><course>307.511627</course><hAcc>1.582370</hAcc><vAcc>0.827074</vAcc></extensions></trkpt>
      <trkpt lon="-2.245409" lat="53.126922"><ele>103.271423</ele><time>2022-03-04T13:38:46Z</time><extensions><speed>1.286343</speed><course>309.928345</course><hAcc>1.597427</hAcc><vAcc>0.827081</vAcc></extensions></trkpt>
      <trkpt lon="-2.245423" lat="53.126929"><ele>103.296677</ele><time>2022-03-04T13:38:47Z</time><extensions><speed>1.164150</speed><course>308.924713</course><hAcc>1.585838</hAcc><vAcc>0.827075</vAcc></extensions></trkpt>
      <trkpt lon="-2.245436" lat="53.126935"><ele>103.319382</ele><time>2022-03-04T13:38:48Z</time><extensions><speed>1.031058</speed><course>308.962067</course><hAcc>1.565250</hAcc><vAcc>0.827094</vAcc></extensions></trkpt>
      <trkpt lon="-2.245448" lat="53.126941"><ele>103.330200</ele><time>2022-03-04T13:38:50Z</time><extensions><speed>1.008801</speed><course>310.492157</course><hAcc>1.577728</hAcc><vAcc>0.827073</vAcc></extensions></trkpt>
      <trkpt lon="-2.245459" lat="53.126947"><ele>103.345627</ele><time>2022-03-04T13:38:51Z</time><extensions><speed>1.044562</speed><course>313.283691</course><hAcc>1.596751</hAcc><vAcc>0.827023</vAcc></extensions></trkpt>
      <trkpt lon="-2.245470" lat="53.126954"><ele>103.363266</ele><time>2022-03-04T13:38:52Z</time><extensions><speed>1.063988</speed><course>320.546082</course><hAcc>1.580971</hAcc><vAcc>0.826953</vAcc></extensions></trkpt>
      <trkpt lon="-2.245480" lat="53.126961"><ele>103.364471</ele><time>2022-03-04T13:38:53Z</time><extensions><speed>0.931284</speed><course>323.215576</course><hAcc>1.619649</hAcc><vAcc>0.826853</vAcc></extensions></trkpt>
      <trkpt lon="-2.245490" lat="53.126969"><ele>103.370354</ele><time>2022-03-04T13:38:54Z</time><extensions><speed>1.209816</speed><course>318.838745</course><hAcc>1.583059</hAcc><vAcc>0.826728</vAcc></extensions></trkpt>
      <trkpt lon="-2.245503" lat="53.126978"><ele>103.379402</ele><time>2022-03-04T13:38:55Z</time><extensions><speed>1.449080</speed><course>316.428101</course><hAcc>1.580107</hAcc><vAcc>0.826612</vAcc></extensions></trkpt>
      <trkpt lon="-2.245519" lat="53.126987"><ele>103.369202</ele><time>2022-03-04T13:38:56Z</time><extensions><speed>1.535305</speed><course>314.639618</course><hAcc>1.604306</hAcc><vAcc>0.826476</vAcc></extensions></trkpt>
      <trkpt lon="-2.245535" lat="53.126997"><ele>103.353561</ele><time>2022-03-04T13:38:57Z</time><extensions><speed>1.531618</speed><course>315.279572</course><hAcc>1.625059</hAcc><vAcc>0.826328</vAcc></extensions></trkpt>
      <trkpt lon="-2.245552" lat="53.127007"><ele>103.354538</ele><time>2022-03-04T13:38:58Z</time><extensions><speed>1.622318</speed><course>314.674591</course><hAcc>1.639711</hAcc><vAcc>0.826166</vAcc></extensions></trkpt>
      <trkpt lon="-2.245569" lat="53.127017"><ele>103.354927</ele><time>2022-03-04T13:38:59Z</time><extensions><speed>1.498694</speed><course>313.356842</course><hAcc>1.649529</hAcc><vAcc>0.825989</vAcc></extensions></trkpt>
      <trkpt lon="-2.245585" lat="53.127025"><ele>103.338631</ele><time>2022-03-04T13:39:00Z</time><extensions><speed>1.404524</speed><course>311.073242</course><hAcc>1.628815</hAcc><vAcc>0.825788</vAcc></extensions></trkpt>
      <trkpt lon="-2.245600" lat="53.127033"><ele>103.318825</ele><time>2022-03-04T13:39:01Z</time><extensions><speed>1.301991</speed><course>311.004120</course><hAcc>1.617232</hAcc><vAcc>0.825556</vAcc></extensions></trkpt>
      <trkpt lon="-2.245614" lat="53.127041"><ele>103.310783</ele><time>2022-03-04T13:39:02Z</time><extensions><speed>1.245352</speed><course>311.291260</course><hAcc>1.618439</hAcc><vAcc>0.825289</vAcc></extensions></trkpt>
      <trkpt lon="-2.245628" lat="53.127048"><ele>103.273598</ele><time>2022-03-04T13:39:03Z</time><extensions><speed>1.213081</speed><course>310.637299</course><hAcc>1.620714</hAcc><vAcc>0.824941</vAcc></extensions></trkpt>
      <trkpt lon="-2.245642" lat="53.127055"><ele>103.225357</ele><time>2022-03-04T13:39:04Z</time><extensions><speed>1.106303</speed><course>308.515991</course><hAcc>1.608182</hAcc><vAcc>0.824585</vAcc></extensions></trkpt>
      <trkpt lon="-2.245655" lat="53.127061"><ele>103.175575</ele><time>2022-03-04T13:39:05Z</time><extensions><speed>1.089065</speed><course>308.417358</course><hAcc>1.629178</hAcc><vAcc>0.824233</vAcc></extensions></trkpt>
      <trkpt lon="-2.245668" lat="53.127068"><ele>103.179222</ele><time>2022-03-04T13:39:06Z</time><extensions><speed>1.209731</speed><course>312.460510</course><hAcc>1.611695</hAcc><vAcc>0.823885</vAcc></extensions></trkpt>
      <trkpt lon="-2.245681" lat="53.127076"><ele>103.158188</ele><time>2022-03-04T13:39:07Z</time><extensions><speed>1.291600</speed><course>315.213806</course><hAcc>1.608791</hAcc><vAcc>0.823502</vAcc></extensions></trkpt>
      <trkpt lon="-2.245695" lat="53.127084"><ele>103.120163</ele><time>2022-03-04T13:39:08Z</time><extensions><speed>1.359505</speed><course>317.146576</course><hAcc>1.608223</hAcc><vAcc>0.823108</vAcc></extensions></trkpt>
      <trkpt lon="-2.245709" lat="53.127094"><ele>103.067101</ele><time>2022-03-04T13:39:09Z</time><extensions><speed>1.382555</speed><course>318.425079</course><hAcc>1.620893</hAcc><vAcc>0.822743</vAcc></extensions></trkpt>
      <trkpt lon="-2.245723" lat="53.127103"><ele>103.015282</ele><time>2022-03-04T13:39:10Z</time><extensions><speed>1.344414</speed><course>316.239075</course><hAcc>1.635211</hAcc><vAcc>0.822378</vAcc></extensions></trkpt>
      <trkpt lon="-2.245737" lat="53.127111"><ele>102.971420</ele><time>2022-03-04T13:39:11Z</time><extensions><speed>1.236652</speed><course>309.609741</course><hAcc>1.646111</hAcc><vAcc>0.822044</vAcc></extensions></trkpt>
      <trkpt lon="-2.245752" lat="53.127118"><ele>102.933250</ele><time>2022-03-04T13:39:12Z</time><extensions><speed>1.347164</speed><course>308.756927</course><hAcc>1.628986</hAcc><vAcc>0.821754</vAcc></extensions></trkpt>
      <trkpt lon="-2.245768" lat="53.127126"><ele>102.879898</ele><time>2022-03-04T13:39:13Z</time><extensions><speed>1.422125</speed><course>308.983795</course><hAcc>1.620799</hAcc><vAcc>0.821506</vAcc></extensions></trkpt>
      <trkpt lon="-2.245784" lat="53.127134"><ele>102.844536</ele><time>2022-03-04T13:39:14Z</time><extensions><speed>1.353424</speed><course>309.842346</course><hAcc>1.637712</hAcc><vAcc>0.821324</vAcc></extensions></trkpt>
      <trkpt lon="-2.245799" lat="53.127142"><ele>102.827866</ele><time>2022-03-04T13:39:15Z</time><extensions><speed>1.236655</speed><course>314.822662</course><hAcc>1.629527</hAcc><vAcc>0.821220</vAcc></extensions></trkpt>
      <trkpt lon="-2.245811" lat="53.127150"><ele>102.816864</ele><time>2022-03-04T13:39:16Z</time><extensions><speed>1.164544</speed><course>319.740906</course><hAcc>1.626523</hAcc><vAcc>0.821207</vAcc></extensions></trkpt>
      <trkpt lon="-2.245822" lat="53.127158"><ele>102.811867</ele><time>2022-03-04T13:39:17Z</time><extensions><speed>1.209147</speed><course>318.775574</course><hAcc>1.625992</hAcc><vAcc>0.821262</vAcc></extensions></trkpt>
      <trkpt lon="-2.245834" lat="53.127166"><ele>102.812553</ele><time>2022-03-04T13:39:18Z</time><extensions><speed>1.164180</speed><course>316.249756</course><hAcc>1.659017</hAcc><vAcc>0.821341</vAcc></extensions></trkpt>
      <trkpt lon="-2.245846" lat="53.127174"><ele>102.805618</ele><time>2022-03-04T13:39:19Z</time><extensions><speed>1.218404</speed><course>320.109406</course><hAcc>1.640350</hAcc><vAcc>0.821497</vAcc></extensions></trkpt>
      <trkpt lon="-2.245857" lat="53.127183"><ele>102.777527</ele><time>2022-03-04T13:39:20Z</time><extensions><speed>1.240962</speed><course>324.651733</course><hAcc>1.628352</hAcc><vAcc>0.821673</vAcc></extensions></trkpt>
      <trkpt lon="-2.245868" lat="53.127192"><ele>102.772881</ele><time>2022-03-04T13:39:21Z</time><extensions><speed>1.224490</speed><course>326.218292</course><hAcc>1.646615</hAcc><vAcc>0.821894</vAcc></extensions></trkpt>
      <trkpt lon="-2.245877" lat="53.127201"><ele>102.773682</ele><time>2022-03-04T13:39:22Z</time><extensions><speed>1.134169</speed><course>327.994019</course><hAcc>1.656836</hAcc><vAcc>0.822162</vAcc></extensions></trkpt>
      <trkpt lon="-2.245886" lat="53.127210"><ele>102.763329</ele><time>2022-03-04T13:39:23Z</time><extensions><speed>1.134531</speed><course>329.753723</course><hAcc>1.650955</hAcc><vAcc>0.822457</vAcc></extensions></trkpt>
      <trkpt lon="-2.245895" lat="53.127219"><ele>102.744255</ele><time>2022-03-04T13:39:24Z</time><extensions><speed>1.123379</speed><course>329.670197</course><hAcc>1.649927</hAcc><vAcc>0.822755</vAcc></extensions></trkpt>
      <trkpt lon="-2.245903" lat="53.127227"><ele>102.750092</ele><time>2022-03-04T13:39:25Z</time><extensions><speed>1.024868</speed><course>327.709839</course><hAcc>1.655400</hAcc><vAcc>0.823039</vAcc></extensions></trkpt>
      <trkpt lon="-2.245910" lat="53.127233"><ele>102.740768</ele><time>2022-03-04T13:39:26Z</time><extensions><speed>0.659426</speed><course>327.173737</course><hAcc>1.670723</hAcc><vAcc>0.823321</vAcc></extensions></trkpt>
      <trkpt lon="-2.245914" lat="53.127237"><ele>102.729553</ele><time>2022-03-04T13:39:27Z</time><extensions><speed>0.261783</speed><course>331.088165</course><hAcc>1.692260</hAcc><vAcc>0.823604</vAcc></extensions></trkpt>
      <trkpt lon="-2.245916" lat="53.127239"><ele>102.708931</ele><time>2022-03-04T13:39:28Z</time><extensions><speed>0.221255</speed><course>325.358124</course><hAcc>1.674812</hAcc><vAcc>0.823887</vAcc></extensions></trkpt>
      <trkpt lon="-2.245918" lat="53.127241"><ele>102.684723</ele><time>2022-03-04T13:39:29Z</time><extensions><speed>0.305238</speed><course>312.637909</course><hAcc>1.674014</hAcc><vAcc>0.824163</vAcc></extensions></trkpt>
      <trkpt lon="-2.245923" lat="53.127243"><ele>102.655777</ele><time>2022-03-04T13:39:30Z</time><extensions><speed>0.520117</speed><course>304.592163</course><hAcc>1.681271</hAcc><vAcc>0.824449</vAcc></extensions></trkpt>
      <trkpt lon="-2.245933" lat="53.127246"><ele>102.619011</ele><time>2022-03-04T13:39:31Z</time><extensions><speed>0.936695</speed><course>300.256500</course><hAcc>1.678428</hAcc><vAcc>0.824755</vAcc></extensions></trkpt>
      <trkpt lon="-2.245946" lat="53.127251"><ele>102.572670</ele><time>2022-03-04T13:39:32Z</time><extensions><speed>1.095118</speed><course>301.904541</course><hAcc>1.683242</hAcc><vAcc>0.825083</vAcc></extensions></trkpt>
      <trkpt lon="-2.245960" lat="53.127256"><ele>102.534317</ele><time>2022-03-04T13:39:33Z</time><extensions><speed>1.119168</speed><course>305.983246</course><hAcc>1.683419</hAcc><vAcc>0.825419</vAcc></extensions></trkpt>
      <trkpt lon="-2.245973" lat="53.127262"><ele>102.510361</ele><time>2022-03-04T13:39:34Z</time><extensions><speed>1.119727</speed><course>307.983887</course><hAcc>1.675441</hAcc><vAcc>0.825765</vAcc></extensions></trkpt>
      <trkpt lon="-2.245986" lat="53.127268"><ele>102.466560</ele><time>2022-03-04T13:39:35Z</time><extensions><speed>0.957317</speed><course>305.630096</course><hAcc>1.661870</hAcc><vAcc>0.826118</vAcc></extensions></trkpt>
      <trkpt lon="-2.245998" lat="53.127272"><ele>102.423882</ele><time>2022-03-04T13:39:36Z</time><extensions><speed>0.973989</speed><course>295.047302</course><hAcc>1.646217</hAcc><vAcc>0.826492</vAcc></extensions></trkpt>
      <trkpt lon="-2.246013" lat="53.127275"><ele>102.374908</ele><time>2022-03-04T13:39:37Z</time><extensions><speed>1.071087</speed><course>285.871246</course><hAcc>1.633470</hAcc><vAcc>0.826873</vAcc></extensions></trkpt>
      <trkpt lon="-2.246029" lat="53.127277"><ele>102.333481</ele><time>2022-03-04T13:39:38Z</time><extensions><speed>1.086969</speed><course>274.576385</course><hAcc>1.627774</hAcc><vAcc>0.827252</vAcc></extensions></trkpt>
      <trkpt lon="-2.246044" lat="53.127277"><ele>102.296585</ele><time>2022-03-04T13:39:39Z</time><extensions><speed>1.016740</speed><course>269.809662</course><hAcc>1.664064</hAcc><vAcc>0.827610</vAcc></extensions></trkpt>
      <trkpt lon="-2.246061" lat="53.127276"><ele>102.269714</ele><time>2022-03-04T13:39:39Z</time><extensions><speed>1.286283</speed><course>260.294891</course><hAcc>1.614641</hAcc><vAcc>0.827933</vAcc></extensions></trkpt>
      <trkpt lon="-2.246081" lat="53.127274"><ele>102.250473</ele><time>2022-03-04T13:39:40Z</time><extensions><speed>1.444787</speed><course>256.847565</course><hAcc>1.604480</hAcc><vAcc>0.828215</vAcc></extensions></trkpt>
      <trkpt lon="-2.246102" lat="53.127271"><ele>102.226845</ele><time>2022-03-04T13:39:41Z</time><extensions><speed>1.419187</speed><course>254.443253</course><hAcc>1.625235</hAcc><vAcc>0.828454</vAcc></extensions></trkpt>
      <trkpt lon="-2.246123" lat="53.127267"><ele>102.202332</ele><time>2022-03-04T13:39:42Z</time><extensions><speed>1.452088</speed><course>253.270935</course><hAcc>1.616923</hAcc><vAcc>0.828668</vAcc></extensions></trkpt>
      <trkpt lon="-2.246143" lat="53.127264"><ele>102.193886</ele><time>2022-03-04T13:39:43Z</time><extensions><speed>1.373841</speed><course>254.535416</course><hAcc>1.628145</hAcc><vAcc>0.828829</vAcc></extensions></trkpt>
      <trkpt lon="-2.246162" lat="53.127261"><ele>102.179588</ele><time>2022-03-04T13:39:44Z</time><extensions><speed>1.338977</speed><course>256.611511</course><hAcc>1.613516</hAcc><vAcc>0.828941</vAcc></extensions></trkpt>
      <trkpt lon="-2.246182" lat="53.127259"><ele>102.146790</ele><time>2022-03-04T13:39:45Z</time><extensions><speed>1.384063</speed><course>261.267212</course><hAcc>1.590724</hAcc><vAcc>0.829030</vAcc></extensions></trkpt>
      <trkpt lon="-2.246203" lat="53.127257"><ele>102.124672</ele><time>2022-03-04T13:39:46Z</time><extensions><speed>1.443272</speed><course>266.403687</course><hAcc>1.586680</hAcc><vAcc>0.829065</vAcc></extensions></trkpt>
      <trkpt lon="-2.246225" lat="53.127257"><ele>102.107170</ele><time>2022-03-04T13:39:47Z</time><extensions><speed>1.453605</speed><course>270.632568</course><hAcc>1.630476</hAcc><vAcc>0.829082</vAcc></extensions></trkpt>
      <trkpt lon="-2.246246" lat="53.127257"><ele>102.092247</ele><time>2022-03-04T13:39:48Z</time><extensions><speed>1.409363</speed><course>273.561462</course><hAcc>1.643856</hAcc><vAcc>0.829074</vAcc></extensions></trkpt>
      <trkpt lon="-2.246266" lat="53.127259"><ele>102.061577</ele><time>2022-03-04T13:39:49Z</time><extensions><speed>1.318066</speed><course>282.736481</course><hAcc>1.587355</hAcc><vAcc>0.829043</vAcc></extensions></trkpt>
      <trkpt lon="-2.246285" lat="53.127262"><ele>102.033081</ele><time>2022-03-04T13:39:50Z</time><extensions><speed>1.246402</speed><course>286.882935</course><hAcc>1.576310</hAcc><vAcc>0.829014</vAcc></extensions></trkpt>
      <trkpt lon="-2.246302" lat="53.127265"><ele>102.018120</ele><time>2022-03-04T13:39:51Z</time><extensions><speed>1.207014</speed><course>288.099945</course><hAcc>1.601676</hAcc><vAcc>0.828962</vAcc></extensions></trkpt>
      <trkpt lon="-2.246320" lat="53.127269"><ele>101.992676</ele><time>2022-03-04T13:39:52Z</time><extensions><speed>1.250289</speed><course>292.925354</course><hAcc>1.594753</hAcc><vAcc>0.828902</vAcc></extensions></trkpt>
      <trkpt lon="-2.246337" lat="53.127274"><ele>101.954391</ele><time>2022-03-04T13:39:53Z</time><extensions><speed>1.293069</speed><course>296.800385</course><hAcc>1.608397</hAcc><vAcc>0.828852</vAcc></extensions></trkpt>
      <trkpt lon="-2.246353" lat="53.127279"><ele>101.910706</ele><time>2022-03-04T13:39:54Z</time><extensions><speed>1.225840</speed><course>300.564301</course><hAcc>1.643541</hAcc><vAcc>0.828810</vAcc></extensions></trkpt>
      <trkpt lon="-2.246368" lat="53.127285"><ele>101.869591</ele><time>2022-03-04T13:39:55Z</time><extensions><speed>1.097221</speed><course>303.813171</course><hAcc>1.652116</hAcc><vAcc>0.828788</vAcc></extensions></trkpt>
      <trkpt lon="-2.246382" lat="53.127290"><ele>101.828285</ele><time>2022-03-04T13:39:56Z</time><extensions><speed>1.068287</speed><course>301.405823</course><hAcc>1.625862</hAcc><vAcc>0.828771</vAcc></extensions></trkpt>
      <trkpt lon="-2.246395" lat="53.127294"><ele>101.771599</ele><time>2022-03-04T13:39:57Z</time><extensions><speed>0.987824</speed><course>292.781586</course><hAcc>1.627582</hAcc><vAcc>0.828779</vAcc></extensions></trkpt>
      <trkpt lon="-2.246409" lat="53.127297"><ele>101.708191</ele><time>2022-03-04T13:39:58Z</time><extensions><speed>1.037581</speed><course>288.966644</course><hAcc>1.645278</hAcc><vAcc>0.828803</vAcc></extensions></trkpt>
      <trkpt lon="-2.246425" lat="53.127300"><ele>101.652718</ele><time>2022-03-04T13:39:59Z</time><extensions><speed>1.100265</speed><course>285.377167</course><hAcc>1.659683</hAcc><vAcc>0.828871</vAcc></extensions></trkpt>
      <trkpt lon="-2.246441" lat="53.127302"><ele>101.610703</ele><time>2022-03-04T13:40:00Z</time><extensions><speed>1.105417</speed><course>279.389465</course><hAcc>1.655683</hAcc><vAcc>0.828959</vAcc></extensions></trkpt>
      <trkpt lon="-2.246457" lat="53.127303"><ele>101.571609</ele><time>2022-03-04T13:40:01Z</time><extensions><speed>0.992401</speed><course>266.312042</course><hAcc>1.651475</hAcc><vAcc>0.829063</vAcc></extensions></trkpt>
      <trkpt lon="-2.246470" lat="53.127300"><ele>101.518631</ele><time>2022-03-04T13:40:02Z</time><extensions><speed>0.955466</speed><course>238.148987</course><hAcc>1.650673</hAcc><vAcc>0.829172</vAcc></extensions></trkpt>
      <trkpt lon="-2.246482" lat="53.127294"><ele>101.450043</ele><time>2022-03-04T13:40:03Z</time><extensions><speed>1.179556</speed><course>226.911209</course><hAcc>1.635913</hAcc><vAcc>0.829299</vAcc></extensions></trkpt>
      <trkpt lon="-2.246496" lat="53.127286"><ele>101.396568</ele><time>2022-03-04T13:40:04Z</time><extensions><speed>1.418454</speed><course>225.205124</course><hAcc>1.645942</hAcc><vAcc>0.829436</vAcc></extensions></trkpt>
      <trkpt lon="-2.246512" lat="53.127278"><ele>101.355339</ele><time>2022-03-04T13:40:05Z</time><extensions><speed>1.387841</speed><course>228.201935</course><hAcc>1.655545</hAcc><vAcc>0.829558</vAcc></extensions></trkpt>
      <trkpt lon="-2.246527" lat="53.127270"><ele>101.320312</ele><time>2022-03-04T13:40:06Z</time><extensions><speed>1.295060</speed><course>234.798569</course><hAcc>1.620386</hAcc><vAcc>0.829664</vAcc></extensions></trkpt>
      <trkpt lon="-2.246543" lat="53.127264"><ele>101.297783</ele><time>2022-03-04T13:40:07Z</time><extensions><speed>1.239109</speed><course>242.374466</course><hAcc>1.605556</hAcc><vAcc>0.829751</vAcc></extensions></trkpt>
      <trkpt lon="-2.246561" lat="53.127260"><ele>101.280075</ele><time>2022-03-04T13:40:08Z</time><extensions><speed>1.299362</speed><course>248.057678</course><hAcc>1.606772</hAcc><vAcc>0.829844</vAcc></extensions></trkpt>
      <trkpt lon="-2.246579" lat="53.127255"><ele>101.256462</ele><time>2022-03-04T13:40:09Z</time><extensions><speed>1.341595</speed><course>251.212906</course><hAcc>1.625209</hAcc><vAcc>0.829903</vAcc></extensions></trkpt>
      <trkpt lon="-2.246599" lat="53.127252"><ele>101.246735</ele><time>2022-03-04T13:40:10Z</time><extensions><speed>1.377886</speed><course>255.625549</course><hAcc>1.635721</hAcc><vAcc>0.829959</vAcc></extensions></trkpt>
      <trkpt lon="-2.246618" lat="53.127249"><ele>101.243233</ele><time>2022-03-04T13:40:11Z</time><extensions><speed>1.343275</speed><course>258.513275</course><hAcc>1.680650</hAcc><vAcc>0.829983</vAcc></extensions></trkpt>
      <trkpt lon="-2.246637" lat="53.127247"><ele>101.250465</ele><time>2022-03-04T13:40:12Z</time><extensions><speed>1.207694</speed><course>263.172913</course><hAcc>1.647325</hAcc><vAcc>0.829996</vAcc></extensions></trkpt>
      <trkpt lon="-2.246655" lat="53.127246"><ele>101.256210</ele><time>2022-03-04T13:40:13Z</time><extensions><speed>1.153996</speed><course>266.609711</course><hAcc>1.642964</hAcc><vAcc>0.829987</vAcc></extensions></trkpt>
      <trkpt lon="-2.246672" lat="53.127246"><ele>101.268730</ele><time>2022-03-04T13:40:14Z</time><extensions><speed>1.176337</speed><course>269.654816</course><hAcc>1.660947</hAcc><vAcc>0.829964</vAcc></extensions></trkpt>
      <trkpt lon="-2.246690" lat="53.127246"><ele>101.276657</ele><time>2022-03-04T13:40:15Z</time><extensions><speed>1.200381</speed><course>270.321350</course><hAcc>1.681896</hAcc><vAcc>0.829936</vAcc></extensions></trkpt>
      <trkpt lon="-2.246707" lat="53.127246"><ele>101.281883</ele><time>2022-03-04T13:40:16Z</time><extensions><speed>1.165698</speed><course>269.612396</course><hAcc>1.695919</hAcc><vAcc>0.829907</vAcc></extensions></trkpt>
      <trkpt lon="-2.246725" lat="53.127246"><ele>101.285774</ele><time>2022-03-04T13:40:17Z</time><extensions><speed>1.167513</speed><course>265.922424</course><hAcc>1.701473</hAcc><vAcc>0.829872</vAcc></extensions></trkpt>
      <trkpt lon="-2.246743" lat="53.127244"><ele>101.291725</ele><time>2022-03-04T13:40:18Z</time><extensions><speed>1.253795</speed><course>260.964325</course><hAcc>1.702264</hAcc><vAcc>0.829835</vAcc></extensions></trkpt>
      <trkpt lon="-2.246761" lat="53.127242"><ele>101.301170</ele><time>2022-03-04T13:40:19Z</time><extensions><speed>1.256334</speed><course>256.725189</course><hAcc>1.702070</hAcc><vAcc>0.829789</vAcc></extensions></trkpt>
      <trkpt lon="-2.246780" lat="53.127239"><ele>101.300026</ele><time>2022-03-04T13:40:20Z</time><extensions><speed>1.318012</speed><course>254.169861</course><hAcc>1.706797</hAcc><vAcc>0.829731</vAcc></extensions></trkpt>
      <trkpt lon="-2.246799" lat="53.127236"><ele>101.302040</ele><time>2022-03-04T13:40:21Z</time><extensions><speed>1.352976</speed><course>255.379379</course><hAcc>1.698858</hAcc><vAcc>0.829669</vAcc></extensions></trkpt>
      <trkpt lon="-2.246819" lat="53.127233"><ele>101.303818</ele><time>2022-03-04T13:40:22Z</time><extensions><speed>1.344162</speed><course>258.350769</course><hAcc>1.696803</hAcc><vAcc>0.829600</vAcc></extensions></trkpt>
      <trkpt lon="-2.246838" lat="53.127231"><ele>101.305313</ele><time>2022-03-04T13:40:23Z</time><extensions><speed>1.332196</speed><course>261.030304</course><hAcc>1.684814</hAcc><vAcc>0.829535</vAcc></extensions></trkpt>
      <trkpt lon="-2.246858" lat="53.127229"><ele>101.302933</ele><time>2022-03-04T13:40:24Z</time><extensions><speed>1.331622</speed><course>261.971405</course><hAcc>1.682932</hAcc><vAcc>0.829473</vAcc></extensions></trkpt>
      <trkpt lon="-2.246878" lat="53.127228"><ele>101.321129</ele><time>2022-03-04T13:40:25Z</time><extensions><speed>1.330063</speed><course>260.056824</course><hAcc>1.696458</hAcc><vAcc>0.829414</vAcc></extensions></trkpt>
      <trkpt lon="-2.246896" lat="53.127225"><ele>101.337784</ele><time>2022-03-04T13:40:26Z</time><extensions><speed>1.247617</speed><course>256.452728</course><hAcc>1.701653</hAcc><vAcc>0.829387</vAcc></extensions></trkpt>
      <trkpt lon="-2.246914" lat="53.127223"><ele>101.341690</ele><time>2022-03-04T13:40:27Z</time><extensions><speed>1.138303</speed><course>258.002167</course><hAcc>1.689972</hAcc><vAcc>0.829358</vAcc></extensions></trkpt>
      <trkpt lon="-2.246931" lat="53.127221"><ele>101.335052</ele><time>2022-03-04T13:40:28Z</time><extensions><speed>1.189623</speed><course>261.618286</course><hAcc>1.691202</hAcc><vAcc>0.829333</vAcc></extensions></trkpt>
      <trkpt lon="-2.246949" lat="53.127220"><ele>101.341415</ele><time>2022-03-04T13:40:29Z</time><extensions><speed>1.272548</speed><course>265.629944</course><hAcc>1.681569</hAcc><vAcc>0.829329</vAcc></extensions></trkpt>
      <trkpt lon="-2.246968" lat="53.127219"><ele>101.327576</ele><time>2022-03-04T13:40:30Z</time><extensions><speed>1.286231</speed><course>266.462433</course><hAcc>1.671747</hAcc><vAcc>0.829338</vAcc></extensions></trkpt>
      <trkpt lon="-2.246988" lat="53.127218"><ele>101.316658</ele><time>2022-03-04T13:40:31Z</time><extensions><speed>1.299614</speed><course>266.478485</course><hAcc>1.663816</hAcc><vAcc>0.829349</vAcc></extensions></trkpt>
      <trkpt lon="-2.247007" lat="53.127218"><ele>101.311760</ele><time>2022-03-04T13:40:32Z</time><extensions><speed>1.295411</speed><course>265.527771</course><hAcc>1.668929</hAcc><vAcc>0.829367</vAcc></extensions></trkpt>
      <trkpt lon="-2.247026" lat="53.127216"><ele>101.304062</ele><time>2022-03-04T13:40:33Z</time><extensions><speed>1.280738</speed><course>263.154541</course><hAcc>1.691314</hAcc><vAcc>0.829399</vAcc></extensions></trkpt>
      <trkpt lon="-2.247045" lat="53.127215"><ele>101.297577</ele><time>2022-03-04T13:40:34Z</time><extensions><speed>1.237490</speed><course>262.185455</course><hAcc>1.661164</hAcc><vAcc>0.829433</vAcc></extensions></trkpt>
      <trkpt lon="-2.247063" lat="53.127214"><ele>101.277718</ele><time>2022-03-04T13:40:35Z</time><extensions><speed>1.239160</speed><course>264.117004</course><hAcc>1.645285</hAcc><vAcc>0.829460</vAcc></extensions></trkpt>
      <trkpt lon="-2.247081" lat="53.127213"><ele>101.257767</ele><time>2022-03-04T13:40:36Z</time><extensions><speed>1.206103</speed><course>263.530212</course><hAcc>1.624605</hAcc><vAcc>0.829496</vAcc></extensions></trkpt>
      <trkpt lon="-2.247099" lat="53.127211"><ele>101.231941</ele><time>2022-03-04T13:40:37Z</time><extensions><speed>1.173779</speed><course>265.721405</course><hAcc>1.619423</hAcc><vAcc>0.829544</vAcc></extensions></trkpt>
      <trkpt lon="-2.247117" lat="53.127211"><ele>101.207893</ele><time>2022-03-04T13:40:38Z</time><extensions><speed>1.198985</speed><course>268.511017</course><hAcc>1.630119</hAcc><vAcc>0.829580</vAcc></extensions></trkpt>
      <trkpt lon="-2.247136" lat="53.127211"><ele>101.181320</ele><time>2022-03-04T13:40:39Z</time><extensions><speed>1.359180</speed><course>270.256012</course><hAcc>1.605738</hAcc><vAcc>0.829610</vAcc></extensions></trkpt>
      <trkpt lon="-2.247156" lat="53.127211"><ele>101.162987</ele><time>2022-03-04T13:40:40Z</time><extensions><speed>1.392992</speed><course>270.624115</course><hAcc>1.617921</hAcc><vAcc>0.829626</vAcc></extensions></trkpt>
      <trkpt lon="-2.247178" lat="53.127211"><ele>101.131683</ele><time>2022-03-04T13:40:41Z</time><extensions><speed>1.418258</speed><course>272.780762</course><hAcc>1.609839</hAcc><vAcc>0.829632</vAcc></extensions></trkpt>
      <trkpt lon="-2.247198" lat="53.127212"><ele>101.106995</ele><time>2022-03-04T13:40:42Z</time><extensions><speed>1.387030</speed><course>273.337036</course><hAcc>1.630799</hAcc><vAcc>0.829633</vAcc></extensions></trkpt>
      <trkpt lon="-2.247219" lat="53.127212"><ele>101.077591</ele><time>2022-03-04T13:40:43Z</time><extensions><speed>1.383975</speed><course>270.335571</course><hAcc>1.606940</hAcc><vAcc>0.829636</vAcc></extensions></trkpt>
      <trkpt lon="-2.247240" lat="53.127212"><ele>101.057838</ele><time>2022-03-04T13:40:44Z</time><extensions><speed>1.339109</speed><course>269.422577</course><hAcc>1.628293</hAcc><vAcc>0.829629</vAcc></extensions></trkpt>
      <trkpt lon="-2.247259" lat="53.127212"><ele>101.036430</ele><time>2022-03-04T13:40:45Z</time><extensions><speed>1.252393</speed><course>266.153900</course><hAcc>1.653931</hAcc><vAcc>0.829627</vAcc></extensions></trkpt>
      <trkpt lon="-2.247278" lat="53.127211"><ele>101.003922</ele><time>2022-03-04T13:40:46Z</time><extensions><speed>1.361043</speed><course>264.547394</course><hAcc>1.645362</hAcc><vAcc>0.829617</vAcc></extensions></trkpt>
      <trkpt lon="-2.247299" lat="53.127210"><ele>100.975342</ele><time>2022-03-04T13:40:47Z</time><extensions><speed>1.385600</speed><course>262.403137</course><hAcc>1.643352</hAcc><vAcc>0.829607</vAcc></extensions></trkpt>
      <trkpt lon="-2.247320" lat="53.127208"><ele>100.949768</ele><time>2022-03-04T13:40:48Z</time><extensions><speed>1.422326</speed><course>261.700439</course><hAcc>1.639405</hAcc><vAcc>0.829591</vAcc></extensions></trkpt>
      <trkpt lon="-2.247341" lat="53.127206"><ele>100.923370</ele><time>2022-03-04T13:40:49Z</time><extensions><speed>1.489977</speed><course>260.831116</course><hAcc>1.625111</hAcc><vAcc>0.829579</vAcc></extensions></trkpt>
      <trkpt lon="-2.247364" lat="53.127204"><ele>100.903320</ele><time>2022-03-04T13:40:50Z</time><extensions><speed>1.551747</speed><course>260.399658</course><hAcc>1.620944</hAcc><vAcc>0.829584</vAcc></extensions></trkpt>
      <trkpt lon="-2.247386" lat="53.127201"><ele>100.881493</ele><time>2022-03-04T13:40:51Z</time><extensions><speed>1.470552</speed><course>258.019653</course><hAcc>1.654045</hAcc><vAcc>0.829599</vAcc></extensions></trkpt>
      <trkpt lon="-2.247407" lat="53.127198"><ele>100.846474</ele><time>2022-03-04T13:40:52Z</time><extensions><speed>1.423693</speed><course>255.050400</course><hAcc>1.672841</hAcc><vAcc>0.829623</vAcc></extensions></trkpt>
      <trkpt lon="-2.247427" lat="53.127195"><ele>100.842438</ele><time>2022-03-04T13:40:53Z</time><extensions><speed>1.402481</speed><course>253.267792</course><hAcc>1.622988</hAcc><vAcc>0.829667</vAcc></extensions></trkpt>
      <trkpt lon="-2.247447" lat="53.127191"><ele>100.831039</ele><time>2022-03-04T13:40:54Z</time><extensions><speed>1.417337</speed><course>253.802826</course><hAcc>1.600367</hAcc><vAcc>0.829726</vAcc></extensions></trkpt>
      <trkpt lon="-2.247468" lat="53.127188"><ele>100.822151</ele><time>2022-03-04T13:40:56Z</time><extensions><speed>1.433556</speed><course>255.132538</course><hAcc>1.609031</hAcc><vAcc>0.829785</vAcc></extensions></trkpt>
      <trkpt lon="-2.247488" lat="53.127184"><ele>100.809708</ele><time>2022-03-04T13:40:57Z</time><extensions><speed>1.417611</speed><course>256.152557</course><hAcc>1.639280</hAcc><vAcc>0.829823</vAcc></extensions></trkpt>
      <trkpt lon="-2.247508" lat="53.127182"><ele>100.808334</ele><time>2022-03-04T13:40:58Z</time><extensions><speed>1.378486</speed><course>256.867371</course><hAcc>1.671252</hAcc><vAcc>0.829845</vAcc></extensions></trkpt>
      <trkpt lon="-2.247528" lat="53.127179"><ele>100.777351</ele><time>2022-03-04T13:40:59Z</time><extensions><speed>1.366826</speed><course>257.971832</course><hAcc>1.649104</hAcc><vAcc>0.829814</vAcc></extensions></trkpt>
      <trkpt lon="-2.247548" lat="53.127177"><ele>100.769463</ele><time>2022-03-04T13:41:00Z</time><extensions><speed>1.330233</speed><course>257.253113</course><hAcc>1.633692</hAcc><vAcc>0.829763</vAcc></extensions></trkpt>
      <trkpt lon="-2.247567" lat="53.127174"><ele>100.744431</ele><time>2022-03-04T13:41:01Z</time><extensions><speed>1.322087</speed><course>257.276245</course><hAcc>1.622969</hAcc><vAcc>0.829681</vAcc></extensions></trkpt>
      <trkpt lon="-2.247587" lat="53.127172"><ele>100.747055</ele><time>2022-03-04T13:41:02Z</time><extensions><speed>1.329127</speed><course>256.642731</course><hAcc>1.628649</hAcc><vAcc>0.829553</vAcc></extensions></trkpt>
      <trkpt lon="-2.247605" lat="53.127169"><ele>100.742897</ele><time>2022-03-04T13:41:03Z</time><extensions><speed>1.261663</speed><course>256.395477</course><hAcc>1.651984</hAcc><vAcc>0.829418</vAcc></extensions></trkpt>
      <trkpt lon="-2.247623" lat="53.127167"><ele>100.749802</ele><time>2022-03-04T13:41:04Z</time><extensions><speed>1.188587</speed><course>258.020630</course><hAcc>1.635148</hAcc><vAcc>0.829210</vAcc></extensions></trkpt>
      <trkpt lon="-2.247640" lat="53.127165"><ele>100.753662</ele><time>2022-03-04T13:41:05Z</time><extensions><speed>1.088161</speed><course>259.906921</course><hAcc>1.651848</hAcc><vAcc>0.828970</vAcc></extensions></trkpt>
      <trkpt lon="-2.247654" lat="53.127165"><ele>100.767487</ele><time>2022-03-04T13:41:06Z</time><extensions><speed>0.827343</speed><course>291.990601</course><hAcc>1.625085</hAcc><vAcc>0.828707</vAcc></extensions></trkpt>
      <trkpt lon="-2.247664" lat="53.127170"><ele>100.781914</ele><time>2022-03-04T13:41:07Z</time><extensions><speed>0.948597</speed><course>323.573639</course><hAcc>1.630734</hAcc><vAcc>0.828429</vAcc></extensions></trkpt>
      <trkpt lon="-2.247671" lat="53.127178"><ele>100.784340</ele><time>2022-03-04T13:41:08Z</time><extensions><speed>1.189463</speed><course>336.715149</course><hAcc>1.642726</hAcc><vAcc>0.828142</vAcc></extensions></trkpt>
      <trkpt lon="-2.247678" lat="53.127189"><ele>100.793648</ele><time>2022-03-04T13:41:09Z</time><extensions><speed>1.354008</speed><course>339.843140</course><hAcc>1.640313</hAcc><vAcc>0.827848</vAcc></extensions></trkpt>
      <trkpt lon="-2.247686" lat="53.127201"><ele>100.789307</ele><time>2022-03-04T13:41:10Z</time><extensions><speed>1.460430</speed><course>338.917145</course><hAcc>1.645714</hAcc><vAcc>0.827601</vAcc></extensions></trkpt>
      <trkpt lon="-2.247695" lat="53.127213"><ele>100.782623</ele><time>2022-03-04T13:41:11Z</time><extensions><speed>1.540477</speed><course>334.535980</course><hAcc>1.654684</hAcc><vAcc>0.827384</vAcc></extensions></trkpt>
      <trkpt lon="-2.247706" lat="53.127226"><ele>100.793373</ele><time>2022-03-04T13:41:12Z</time><extensions><speed>1.594338</speed><course>330.081879</course><hAcc>1.658509</hAcc><vAcc>0.827210</vAcc></extensions></trkpt>
      <trkpt lon="-2.247718" lat="53.127237"><ele>100.813622</ele><time>2022-03-04T13:41:13Z</time><extensions><speed>1.426197</speed><course>322.750031</course><hAcc>1.665972</hAcc><vAcc>0.827089</vAcc></extensions></trkpt>
      <trkpt lon="-2.247731" lat="53.127246"><ele>100.818970</ele><time>2022-03-04T13:41:14Z</time><extensions><speed>1.293203</speed><course>318.450775</course><hAcc>1.654745</hAcc><vAcc>0.827006</vAcc></extensions></trkpt>
      <trkpt lon="-2.247744" lat="53.127255"><ele>100.817909</ele><time>2022-03-04T13:41:15Z</time><extensions><speed>1.262405</speed><course>317.184479</course><hAcc>1.646423</hAcc><vAcc>0.826975</vAcc></extensions></trkpt>
      <trkpt lon="-2.247757" lat="53.127263"><ele>100.824600</ele><time>2022-03-04T13:41:16Z</time><extensions><speed>1.274553</speed><course>318.947632</course><hAcc>1.652017</hAcc><vAcc>0.826988</vAcc></extensions></trkpt>
      <trkpt lon="-2.247769" lat="53.127272"><ele>100.832687</ele><time>2022-03-04T13:41:17Z</time><extensions><speed>1.242336</speed><course>320.961212</course><hAcc>1.663164</hAcc><vAcc>0.827038</vAcc></extensions></trkpt>
      <trkpt lon="-2.247780" lat="53.127280"><ele>100.843803</ele><time>2022-03-04T13:41:18Z</time><extensions><speed>1.177456</speed><course>318.352234</course><hAcc>1.668487</hAcc><vAcc>0.827127</vAcc></extensions></trkpt>
      <trkpt lon="-2.247793" lat="53.127287"><ele>100.852730</ele><time>2022-03-04T13:41:19Z</time><extensions><speed>1.069377</speed><course>305.237366</course><hAcc>1.652869</hAcc><vAcc>0.827254</vAcc></extensions></trkpt>
      <trkpt lon="-2.247807" lat="53.127291"><ele>100.850464</ele><time>2022-03-04T13:41:20Z</time><extensions><speed>1.063152</speed><course>288.292664</course><hAcc>1.645272</hAcc><vAcc>0.827420</vAcc></extensions></trkpt>
      <trkpt lon="-2.247823" lat="53.127292"><ele>100.857666</ele><time>2022-03-04T13:41:21Z</time><extensions><speed>1.140165</speed><course>273.015839</course><hAcc>1.646208</hAcc><vAcc>0.827607</vAcc></extensions></trkpt>
      <trkpt lon="-2.247841" lat="53.127292"><ele>100.853981</ele><time>2022-03-04T13:41:22Z</time><extensions><speed>1.310690</speed><course>258.808838</course><hAcc>1.655122</hAcc><vAcc>0.827808</vAcc></extensions></trkpt>
      <trkpt lon="-2.247860" lat="53.127288"><ele>100.847275</ele><time>2022-03-04T13:41:23Z</time><extensions><speed>1.397848</speed><course>245.685623</course><hAcc>1.680275</hAcc><vAcc>0.828031</vAcc></extensions></trkpt>
      <trkpt lon="-2.247878" lat="53.127282"><ele>100.855476</ele><time>2022-03-04T13:41:24Z</time><extensions><speed>1.368109</speed><course>234.291718</course><hAcc>1.653676</hAcc><vAcc>0.828237</vAcc></extensions></trkpt>
      <trkpt lon="-2.247893" lat="53.127274"><ele>100.859283</ele><time>2022-03-04T13:41:25Z</time><extensions><speed>1.286530</speed><course>227.273758</course><hAcc>1.640202</hAcc><vAcc>0.828443</vAcc></extensions></trkpt>
      <trkpt lon="-2.247906" lat="53.127266"><ele>100.858047</ele><time>2022-03-04T13:41:26Z</time><extensions><speed>1.187966</speed><course>220.759415</course><hAcc>1.635512</hAcc><vAcc>0.828636</vAcc></extensions></trkpt>
      <trkpt lon="-2.247916" lat="53.127257"><ele>100.855247</ele><time>2022-03-04T13:41:27Z</time><extensions><speed>1.156007</speed><course>213.413834</course><hAcc>1.625991</hAcc><vAcc>0.828803</vAcc></extensions></trkpt>
      <trkpt lon="-2.247926" lat="53.127248"><ele>100.849335</ele><time>2022-03-04T13:41:28Z</time><extensions><speed>1.245211</speed><course>210.961533</course><hAcc>1.598161</hAcc><vAcc>0.828943</vAcc></extensions></trkpt>
      <trkpt lon="-2.247936" lat="53.127238"><ele>100.840569</ele><time>2022-03-04T13:41:29Z</time><extensions><speed>1.321935</speed><course>210.915329</course><hAcc>1.577097</hAcc><vAcc>0.829040</vAcc></extensions></trkpt>
      <trkpt lon="-2.247946" lat="53.127229"><ele>100.830719</ele><time>2022-03-04T13:41:30Z</time><extensions><speed>1.284286</speed><course>212.307816</course><hAcc>1.587298</hAcc><vAcc>0.829114</vAcc></extensions></trkpt>
      <trkpt lon="-2.247957" lat="53.127219"><ele>100.801788</ele><time>2022-03-04T13:41:31Z</time><extensions><speed>1.292796</speed><course>214.037933</course><hAcc>1.596632</hAcc><vAcc>0.829166</vAcc></extensions></trkpt>
      <trkpt lon="-2.247968" lat="53.127209"><ele>100.778839</ele><time>2022-03-04T13:41:32Z</time><extensions><speed>1.379464</speed><course>213.346497</course><hAcc>1.578671</hAcc><vAcc>0.829206</vAcc></extensions></trkpt>
      <trkpt lon="-2.247979" lat="53.127198"><ele>100.741432</ele><time>2022-03-04T13:41:33Z</time><extensions><speed>1.359647</speed><course>210.947311</course><hAcc>1.600953</hAcc><vAcc>0.829216</vAcc></extensions></trkpt>
      <trkpt lon="-2.247987" lat="53.127188"><ele>100.702843</ele><time>2022-03-04T13:41:34Z</time><extensions><speed>1.177065</speed><course>201.483215</course><hAcc>1.577183</hAcc><vAcc>0.829219</vAcc></extensions></trkpt>
      <trkpt lon="-2.247993" lat="53.127179"><ele>100.662193</ele><time>2022-03-04T13:41:35Z</time><extensions><speed>1.102131</speed><course>197.710236</course><hAcc>1.588427</hAcc><vAcc>0.829213</vAcc></extensions></trkpt>
      <trkpt lon="-2.247998" lat="53.127170"><ele>100.625328</ele><time>2022-03-04T13:41:36Z</time><extensions><speed>1.052139</speed><course>200.167007</course><hAcc>1.620285</hAcc><vAcc>0.829209</vAcc></extensions></trkpt>
      <trkpt lon="-2.248004" lat="53.127161"><ele>100.579880</ele><time>2022-03-04T13:41:37Z</time><extensions><speed>0.927984</speed><course>204.045883</course><hAcc>1.646456</hAcc><vAcc>0.829206</vAcc></extensions></trkpt>
      <trkpt lon="-2.248009" lat="53.127155"><ele>100.528450</ele><time>2022-03-04T13:41:38Z</time><extensions><speed>0.763038</speed><course>212.529694</course><hAcc>1.660581</hAcc><vAcc>0.829199</vAcc></extensions></trkpt>
      <trkpt lon="-2.248016" lat="53.127149"><ele>100.471359</ele><time>2022-03-04T13:41:39Z</time><extensions><speed>0.741341</speed><course>224.823212</course><hAcc>1.666174</hAcc><vAcc>0.829207</vAcc></extensions></trkpt>
      <trkpt lon="-2.248026" lat="53.127145"><ele>100.411339</ele><time>2022-03-04T13:41:40Z</time><extensions><speed>0.861662</speed><course>234.449173</course><hAcc>1.677853</hAcc><vAcc>0.829244</vAcc></extensions></trkpt>
      <trkpt lon="-2.248038" lat="53.127140"><ele>100.352066</ele><time>2022-03-04T13:41:41Z</time><extensions><speed>1.067639</speed><course>241.230850</course><hAcc>1.685643</hAcc><vAcc>0.829282</vAcc></extensions></trkpt>
      <trkpt lon="-2.248053" lat="53.127136"><ele>100.287666</ele><time>2022-03-04T13:41:42Z</time><extensions><speed>1.155028</speed><course>247.072693</course><hAcc>1.694165</hAcc><vAcc>0.829344</vAcc></extensions></trkpt>
      <trkpt lon="-2.248069" lat="53.127132"><ele>100.211594</ele><time>2022-03-04T13:41:43Z</time><extensions><speed>1.166869</speed><course>248.422287</course><hAcc>1.693195</hAcc><vAcc>0.829439</vAcc></extensions></trkpt>
      <trkpt lon="-2.248084" lat="53.127128"><ele>100.143127</ele><time>2022-03-04T13:41:44Z</time><extensions><speed>1.003362</speed><course>249.533478</course><hAcc>1.701943</hAcc><vAcc>0.829512</vAcc></extensions></trkpt>
      <trkpt lon="-2.248096" lat="53.127126"><ele>100.083511</ele><time>2022-03-04T13:41:44Z</time><extensions><speed>0.750173</speed><course>248.939972</course><hAcc>1.704232</hAcc><vAcc>0.829580</vAcc></extensions></trkpt>
      <trkpt lon="-2.248106" lat="53.127123"><ele>100.010719</ele><time>2022-03-04T13:41:45Z</time><extensions><speed>0.658014</speed><course>252.642090</course><hAcc>1.700425</hAcc><vAcc>0.829659</vAcc></extensions></trkpt>
      <trkpt lon="-2.248116" lat="53.127122"><ele>99.936813</ele><time>2022-03-04T13:41:46Z</time><extensions><speed>0.698073</speed><course>255.896637</course><hAcc>1.707400</hAcc><vAcc>0.829741</vAcc></extensions></trkpt>
      <trkpt lon="-2.248129" lat="53.127120"><ele>99.875618</ele><time>2022-03-04T13:41:47Z</time><extensions><speed>1.098668</speed><course>257.109070</course><hAcc>1.707069</hAcc><vAcc>0.829821</vAcc></extensions></trkpt>
      <trkpt lon="-2.248146" lat="53.127118"><ele>99.824242</ele><time>2022-03-04T13:41:48Z</time><extensions><speed>1.270147</speed><course>256.879211</course><hAcc>1.709304</hAcc><vAcc>0.829914</vAcc></extensions></trkpt>
      <trkpt lon="-2.248165" lat="53.127115"><ele>99.763206</ele><time>2022-03-04T13:41:49Z</time><extensions><speed>1.334373</speed><course>254.220062</course><hAcc>1.700581</hAcc><vAcc>0.830003</vAcc></extensions></trkpt>
      <trkpt lon="-2.248185" lat="53.127111"><ele>99.706047</ele><time>2022-03-04T13:41:50Z</time><extensions><speed>1.361575</speed><course>253.491608</course><hAcc>1.679071</hAcc><vAcc>0.830095</vAcc></extensions></trkpt>
      <trkpt lon="-2.248204" lat="53.127108"><ele>99.634300</ele><time>2022-03-04T13:41:51Z</time><extensions><speed>1.377467</speed><course>253.042465</course><hAcc>1.656159</hAcc><vAcc>0.830190</vAcc></extensions></trkpt>
      <trkpt lon="-2.248224" lat="53.127104"><ele>99.584068</ele><time>2022-03-04T13:41:52Z</time><extensions><speed>1.343701</speed><course>253.454269</course><hAcc>1.635461</hAcc><vAcc>0.830263</vAcc></extensions></trkpt>
      <trkpt lon="-2.248244" lat="53.127101"><ele>99.545822</ele><time>2022-03-04T13:41:53Z</time><extensions><speed>1.406271</speed><course>254.914093</course><hAcc>1.631813</hAcc><vAcc>0.830329</vAcc></extensions></trkpt>
      <trkpt lon="-2.248264" lat="53.127098"><ele>99.497833</ele><time>2022-03-04T13:41:54Z</time><extensions><speed>1.400549</speed><course>255.089966</course><hAcc>1.672167</hAcc><vAcc>0.830381</vAcc></extensions></trkpt>
      <trkpt lon="-2.248284" lat="53.127094"><ele>99.454926</ele><time>2022-03-04T13:41:55Z</time><extensions><speed>1.432691</speed><course>254.194046</course><hAcc>1.627244</hAcc><vAcc>0.830422</vAcc></extensions></trkpt>
      <trkpt lon="-2.248305" lat="53.127091"><ele>99.415001</ele><time>2022-03-04T13:41:56Z</time><extensions><speed>1.436161</speed><course>254.291840</course><hAcc>1.604750</hAcc><vAcc>0.830447</vAcc></extensions></trkpt>
      <trkpt lon="-2.248325" lat="53.127088"><ele>99.367058</ele><time>2022-03-04T13:41:57Z</time><extensions><speed>1.394667</speed><course>257.057739</course><hAcc>1.614229</hAcc><vAcc>0.830462</vAcc></extensions></trkpt>
      <trkpt lon="-2.248346" lat="53.127085"><ele>99.330544</ele><time>2022-03-04T13:41:58Z</time><extensions><speed>1.413755</speed><course>257.811737</course><hAcc>1.596889</hAcc><vAcc>0.830469</vAcc></extensions></trkpt>
      <trkpt lon="-2.248366" lat="53.127082"><ele>99.297394</ele><time>2022-03-04T13:41:59Z</time><extensions><speed>1.402410</speed><course>256.444641</course><hAcc>1.590740</hAcc><vAcc>0.830465</vAcc></extensions></trkpt>
      <trkpt lon="-2.248387" lat="53.127079"><ele>99.264305</ele><time>2022-03-04T13:42:00Z</time><extensions><speed>1.442069</speed><course>254.958420</course><hAcc>1.600373</hAcc><vAcc>0.830457</vAcc></extensions></trkpt>
      <trkpt lon="-2.248408" lat="53.127076"><ele>99.234131</ele><time>2022-03-04T13:42:01Z</time><extensions><speed>1.527047</speed><course>254.872284</course><hAcc>1.631282</hAcc><vAcc>0.830446</vAcc></extensions></trkpt>
      <trkpt lon="-2.248430" lat="53.127072"><ele>99.193703</ele><time>2022-03-04T13:42:02Z</time><extensions><speed>1.453903</speed><course>257.180481</course><hAcc>1.658226</hAcc><vAcc>0.830431</vAcc></extensions></trkpt>
      <trkpt lon="-2.248451" lat="53.127070"><ele>99.154175</ele><time>2022-03-04T13:42:03Z</time><extensions><speed>1.440084</speed><course>258.647614</course><hAcc>1.612857</hAcc><vAcc>0.830415</vAcc></extensions></trkpt>
      <trkpt lon="-2.248472" lat="53.127067"><ele>99.117050</ele><time>2022-03-04T13:42:04Z</time><extensions><speed>1.459330</speed><course>259.536224</course><hAcc>1.603443</hAcc><vAcc>0.830392</vAcc></extensions></trkpt>
      <trkpt lon="-2.248494" lat="53.127065"><ele>99.070595</ele><time>2022-03-04T13:42:05Z</time><extensions><speed>1.455086</speed><course>259.897980</course><hAcc>1.625929</hAcc><vAcc>0.830378</vAcc></extensions></trkpt>
      <trkpt lon="-2.248515" lat="53.127062"><ele>99.021446</ele><time>2022-03-04T13:42:06Z</time><extensions><speed>1.459885</speed><course>259.515930</course><hAcc>1.639423</hAcc><vAcc>0.830368</vAcc></extensions></trkpt>
      <trkpt lon="-2.248536" lat="53.127060"><ele>98.976135</ele><time>2022-03-04T13:42:07Z</time><extensions><speed>1.419980</speed><course>256.699280</course><hAcc>1.661374</hAcc><vAcc>0.830349</vAcc></extensions></trkpt>
      <trkpt lon="-2.248557" lat="53.127057"><ele>98.940445</ele><time>2022-03-04T13:42:08Z</time><extensions><speed>1.403616</speed><course>255.129837</course><hAcc>1.666320</hAcc><vAcc>0.830333</vAcc></extensions></trkpt>
      <trkpt lon="-2.248577" lat="53.127053"><ele>98.894867</ele><time>2022-03-04T13:42:09Z</time><extensions><speed>1.358192</speed><course>253.199417</course><hAcc>1.656785</hAcc><vAcc>0.830320</vAcc></extensions></trkpt>
      <trkpt lon="-2.248596" lat="53.127050"><ele>98.832298</ele><time>2022-03-04T13:42:10Z</time><extensions><speed>1.339642</speed><course>253.775314</course><hAcc>1.634740</hAcc><vAcc>0.830317</vAcc></extensions></trkpt>
      <trkpt lon="-2.248615" lat="53.127047"><ele>98.760979</ele><time>2022-03-04T13:42:11Z</time><extensions><speed>1.398310</speed><course>254.243942</course><hAcc>1.620453</hAcc><vAcc>0.830326</vAcc></extensions></trkpt>
      <trkpt lon="-2.248636" lat="53.127043"><ele>98.693443</ele><time>2022-03-04T13:42:12Z</time><extensions><speed>1.445904</speed><course>254.151917</course><hAcc>1.629451</hAcc><vAcc>0.830332</vAcc></extensions></trkpt>
      <trkpt lon="-2.248656" lat="53.127039"><ele>98.619370</ele><time>2022-03-04T13:42:13Z</time><extensions><speed>1.398107</speed><course>251.375763</course><hAcc>1.643134</hAcc><vAcc>0.830353</vAcc></extensions></trkpt>
      <trkpt lon="-2.248675" lat="53.127035"><ele>98.556236</ele><time>2022-03-04T13:42:14Z</time><extensions><speed>1.351752</speed><course>251.887070</course><hAcc>1.609091</hAcc><vAcc>0.830361</vAcc></extensions></trkpt>
      <trkpt lon="-2.248694" lat="53.127031"><ele>98.484772</ele><time>2022-03-04T13:42:15Z</time><extensions><speed>1.318776</speed><course>252.730118</course><hAcc>1.575457</hAcc><vAcc>0.830393</vAcc></extensions></trkpt>
      <trkpt lon="-2.248713" lat="53.127028"><ele>98.422714</ele><time>2022-03-04T13:42:16Z</time><extensions><speed>1.374241</speed><course>253.723419</course><hAcc>1.559304</hAcc><vAcc>0.830431</vAcc></extensions></trkpt>
      <trkpt lon="-2.248733" lat="53.127024"><ele>98.367500</ele><time>2022-03-04T13:42:17Z</time><extensions><speed>1.382119</speed><course>252.628662</course><hAcc>1.555973</hAcc><vAcc>0.830448</vAcc></extensions></trkpt>
      <trkpt lon="-2.248752" lat="53.127020"><ele>98.302780</ele><time>2022-03-04T13:42:18Z</time><extensions><speed>1.380876</speed><course>248.707123</course><hAcc>1.537876</hAcc><vAcc>0.830468</vAcc></extensions></trkpt>
      <trkpt lon="-2.248771" lat="53.127015"><ele>98.221191</ele><time>2022-03-04T13:42:19Z</time><extensions><speed>1.392148</speed><course>243.862305</course><hAcc>1.568180</hAcc><vAcc>0.830470</vAcc></extensions></trkpt>
      <trkpt lon="-2.248789" lat="53.127009"><ele>98.140411</ele><time>2022-03-04T13:42:20Z</time><extensions><speed>1.332472</speed><course>235.090317</course><hAcc>1.538942</hAcc><vAcc>0.830468</vAcc></extensions></trkpt>
      <trkpt lon="-2.248804" lat="53.127002"><ele>98.088097</ele><time>2022-03-04T13:42:21Z</time><extensions><speed>1.307923</speed><course>228.465012</course><hAcc>1.541974</hAcc><vAcc>0.830456</vAcc></extensions></trkpt>
      <trkpt lon="-2.248818" lat="53.126994"><ele>98.025673</ele><time>2022-03-04T13:42:22Z</time><extensions><speed>1.267847</speed><course>220.116852</course><hAcc>1.513695</hAcc><vAcc>0.830429</vAcc></extensions></trkpt>
      <trkpt lon="-2.248830" lat="53.126985"><ele>97.956001</ele><time>2022-03-04T13:42:23Z</time><extensions><speed>1.300132</speed><course>215.234909</course><hAcc>1.508178</hAcc><vAcc>0.830390</vAcc></extensions></trkpt>
      <trkpt lon="-2.248841" lat="53.126975"><ele>97.913513</ele><time>2022-03-04T13:42:24Z</time><extensions><speed>1.398357</speed><course>212.424744</course><hAcc>1.532646</hAcc><vAcc>0.830344</vAcc></extensions></trkpt>
      <trkpt lon="-2.248852" lat="53.126964"><ele>97.885269</ele><time>2022-03-04T13:42:25Z</time><extensions><speed>1.383437</speed><course>212.103500</course><hAcc>1.596775</hAcc><vAcc>0.830279</vAcc></extensions></trkpt>
      <trkpt lon="-2.248863" lat="53.126954"><ele>97.852852</ele><time>2022-03-04T13:42:26Z</time><extensions><speed>1.317086</speed><course>216.271362</course><hAcc>1.588776</hAcc><vAcc>0.830203</vAcc></extensions></trkpt>
      <trkpt lon="-2.248875" lat="53.126945"><ele>97.820923</ele><time>2022-03-04T13:42:27Z</time><extensions><speed>1.194875</speed><course>221.739212</course><hAcc>1.562008</hAcc><vAcc>0.830121</vAcc></extensions></trkpt>
      <trkpt lon="-2.248887" lat="53.126938"><ele>97.799011</ele><time>2022-03-04T13:42:28Z</time><extensions><speed>1.062882</speed><course>229.121918</course><hAcc>1.582793</hAcc><vAcc>0.830032</vAcc></extensions></trkpt>
      <trkpt lon="-2.248900" lat="53.126933"><ele>97.782806</ele><time>2022-03-04T13:42:29Z</time><extensions><speed>0.956228</speed><course>242.697693</course><hAcc>1.616985</hAcc><vAcc>0.829935</vAcc></extensions></trkpt>
      <trkpt lon="-2.248913" lat="53.126930"><ele>97.782249</ele><time>2022-03-04T13:42:30Z</time><extensions><speed>0.991672</speed><course>257.288818</course><hAcc>1.652262</hAcc><vAcc>0.829822</vAcc></extensions></trkpt>
      <trkpt lon="-2.248928" lat="53.126929"><ele>97.795929</ele><time>2022-03-04T13:42:31Z</time><extensions><speed>1.073791</speed><course>270.765381</course><hAcc>1.682066</hAcc><vAcc>0.829698</vAcc></extensions></trkpt>
      <trkpt lon="-2.248945" lat="53.126930"><ele>97.835663</ele><time>2022-03-04T13:42:32Z</time><extensions><speed>1.162714</speed><course>276.453064</course><hAcc>1.687679</hAcc><vAcc>0.829581</vAcc></extensions></trkpt>
      <trkpt lon="-2.248962" lat="53.126931"><ele>97.870537</ele><time>2022-03-04T13:42:33Z</time><extensions><speed>1.150162</speed><course>277.560150</course><hAcc>1.693664</hAcc><vAcc>0.829458</vAcc></extensions></trkpt>
      <trkpt lon="-2.248979" lat="53.126933"><ele>97.913040</ele><time>2022-03-04T13:42:34Z</time><extensions><speed>1.138363</speed><course>276.710205</course><hAcc>1.699449</hAcc><vAcc>0.829305</vAcc></extensions></trkpt>
      <trkpt lon="-2.248996" lat="53.126934"><ele>97.962959</ele><time>2022-03-04T13:42:35Z</time><extensions><speed>1.100082</speed><course>276.364319</course><hAcc>1.707155</hAcc><vAcc>0.829120</vAcc></extensions></trkpt>
      <trkpt lon="-2.249011" lat="53.126935"><ele>98.026009</ele><time>2022-03-04T13:42:36Z</time><extensions><speed>0.957568</speed><course>280.721558</course><hAcc>1.712791</hAcc><vAcc>0.828930</vAcc></extensions></trkpt>
      <trkpt lon="-2.249025" lat="53.126938"><ele>98.096031</ele><time>2022-03-04T13:42:37Z</time><extensions><speed>1.014060</speed><course>290.099976</course><hAcc>1.711082</hAcc><vAcc>0.828726</vAcc></extensions></trkpt>
      <trkpt lon="-2.249040" lat="53.126942"><ele>98.161484</ele><time>2022-03-04T13:42:38Z</time><extensions><speed>1.166879</speed><course>297.869751</course><hAcc>1.706429</hAcc><vAcc>0.828498</vAcc></extensions></trkpt>
      <trkpt lon="-2.249055" lat="53.126947"><ele>98.236374</ele><time>2022-03-04T13:42:39Z</time><extensions><speed>1.235972</speed><course>306.528534</course><hAcc>1.703770</hAcc><vAcc>0.828262</vAcc></extensions></trkpt>
      <trkpt lon="-2.249070" lat="53.126955"><ele>98.316742</ele><time>2022-03-04T13:42:40Z</time><extensions><speed>1.279575</speed><course>312.710724</course><hAcc>1.702936</hAcc><vAcc>0.828009</vAcc></extensions></trkpt>
      <trkpt lon="-2.249083" lat="53.126963"><ele>98.393486</ele><time>2022-03-04T13:42:41Z</time><extensions><speed>1.231305</speed><course>316.838318</course><hAcc>1.703772</hAcc><vAcc>0.827746</vAcc></extensions></trkpt>
      <trkpt lon="-2.249094" lat="53.126970"><ele>98.476631</ele><time>2022-03-04T13:42:42Z</time><extensions><speed>1.044795</speed><course>320.894806</course><hAcc>1.705562</hAcc><vAcc>0.827484</vAcc></extensions></trkpt>
      <trkpt lon="-2.249103" lat="53.126977"><ele>98.549637</ele><time>2022-03-04T13:42:43Z</time><extensions><speed>0.849189</speed><course>325.494019</course><hAcc>1.706688</hAcc><vAcc>0.827216</vAcc></extensions></trkpt>
      <trkpt lon="-2.249109" lat="53.126983"><ele>98.618164</ele><time>2022-03-04T13:42:44Z</time><extensions><speed>0.667078</speed><course>332.200928</course><hAcc>1.701044</hAcc><vAcc>0.826958</vAcc></extensions></trkpt>
      <trkpt lon="-2.249113" lat="53.126988"><ele>98.681770</ele><time>2022-03-04T13:42:45Z</time><extensions><speed>0.569813</speed><course>333.370758</course><hAcc>1.707551</hAcc><vAcc>0.826698</vAcc></extensions></trkpt>
      <trkpt lon="-2.249117" lat="53.126991"><ele>98.746178</ele><time>2022-03-04T13:42:46Z</time><extensions><speed>0.367788</speed><course>323.524445</course><hAcc>1.733043</hAcc><vAcc>0.826449</vAcc></extensions></trkpt>
      <trkpt lon="-2.249121" lat="53.126994"><ele>98.801132</ele><time>2022-03-04T13:42:47Z</time><extensions><speed>0.380542</speed><course>309.407806</course><hAcc>1.727497</hAcc><vAcc>0.826205</vAcc></extensions></trkpt>
      <trkpt lon="-2.249126" lat="53.126996"><ele>98.855026</ele><time>2022-03-04T13:42:48Z</time><extensions><speed>0.412815</speed><course>298.732788</course><hAcc>1.728928</hAcc><vAcc>0.825944</vAcc></extensions></trkpt>
      <trkpt lon="-2.249131" lat="53.126997"><ele>98.911781</ele><time>2022-03-04T13:42:49Z</time><extensions><speed>0.434706</speed><course>290.269928</course><hAcc>1.739380</hAcc><vAcc>0.825732</vAcc></extensions></trkpt>
      <trkpt lon="-2.249138" lat="53.126998"><ele>98.952225</ele><time>2022-03-04T13:42:50Z</time><extensions><speed>0.453198</speed><course>282.947235</course><hAcc>1.745316</hAcc><vAcc>0.825492</vAcc></extensions></trkpt>
      <trkpt lon="-2.249144" lat="53.126999"><ele>98.999489</ele><time>2022-03-04T13:42:51Z</time><extensions><speed>0.446645</speed><course>276.527832</course><hAcc>1.751932</hAcc><vAcc>0.825279</vAcc></extensions></trkpt>
      <trkpt lon="-2.249151" lat="53.126999"><ele>99.031403</ele><time>2022-03-04T13:42:52Z</time><extensions><speed>0.421421</speed><course>270.883545</course><hAcc>1.757894</hAcc><vAcc>0.825095</vAcc></extensions></trkpt>
      <trkpt lon="-2.249157" lat="53.126999"><ele>99.068031</ele><time>2022-03-04T13:42:53Z</time><extensions><speed>0.389462</speed><course>265.978058</course><hAcc>1.760263</hAcc><vAcc>0.824931</vAcc></extensions></trkpt>
      <trkpt lon="-2.249163" lat="53.126999"><ele>99.098267</ele><time>2022-03-04T13:42:54Z</time><extensions><speed>0.356360</speed><course>261.505310</course><hAcc>1.761711</hAcc><vAcc>0.824796</vAcc></extensions></trkpt>
      <trkpt lon="-2.249168" lat="53.126998"><ele>99.120247</ele><time>2022-03-04T13:42:55Z</time><extensions><speed>0.335214</speed><course>257.031921</course><hAcc>1.762018</hAcc><vAcc>0.824712</vAcc></extensions></trkpt>
      <trkpt lon="-2.249173" lat="53.126998"><ele>99.137360</ele><time>2022-03-04T13:42:56Z</time><extensions><speed>0.325621</speed><course>252.811386</course><hAcc>1.762025</hAcc><vAcc>0.824652</vAcc></extensions></trkpt>
      <trkpt lon="-2.249177" lat="53.126997"><ele>99.161003</ele><time>2022-03-04T13:42:57Z</time><extensions><speed>0.326799</speed><course>248.866425</course><hAcc>1.761977</hAcc><vAcc>0.824652</vAcc></extensions></trkpt>
      <trkpt lon="-2.249182" lat="53.126995"><ele>99.182823</ele><time>2022-03-04T13:42:58Z</time><extensions><speed>0.344195</speed><course>245.960953</course><hAcc>1.759994</hAcc><vAcc>0.824701</vAcc></extensions></trkpt>
      <trkpt lon="-2.249187" lat="53.126994"><ele>99.201576</ele><time>2022-03-04T13:42:59Z</time><extensions><speed>0.358958</speed><course>245.362457</course><hAcc>1.758740</hAcc><vAcc>0.824783</vAcc></extensions></trkpt>
      <trkpt lon="-2.249192" lat="53.126993"><ele>99.214859</ele><time>2022-03-04T13:43:00Z</time><extensions><speed>0.379929</speed><course>247.392334</course><hAcc>1.753533</hAcc><vAcc>0.824902</vAcc></extensions></trkpt>
      <trkpt lon="-2.249197" lat="53.126992"><ele>99.225182</ele><time>2022-03-04T13:43:02Z</time><extensions><speed>0.385843</speed><course>250.316711</course><hAcc>1.751235</hAcc><vAcc>0.825053</vAcc></extensions></trkpt>
      <trkpt lon="-2.249203" lat="53.126990"><ele>99.234886</ele><time>2022-03-04T13:43:03Z</time><extensions><speed>0.369974</speed><course>252.345016</course><hAcc>1.750705</hAcc><vAcc>0.825210</vAcc></extensions></trkpt>
      <trkpt lon="-2.249208" lat="53.126989"><ele>99.239258</ele><time>2022-03-04T13:43:04Z</time><extensions><speed>0.334874</speed><course>253.229431</course><hAcc>1.747978</hAcc><vAcc>0.825373</vAcc></extensions></trkpt>
      <trkpt lon="-2.249212" lat="53.126989"><ele>99.237411</ele><time>2022-03-04T13:43:05Z</time><extensions><speed>0.284226</speed><course>253.369858</course><hAcc>1.746116</hAcc><vAcc>0.825508</vAcc></extensions></trkpt>
      <trkpt lon="-2.249216" lat="53.126988"><ele>99.245674</ele><time>2022-03-04T13:43:06Z</time><extensions><speed>0.244016</speed><course>252.974640</course><hAcc>1.744243</hAcc><vAcc>0.825641</vAcc></extensions></trkpt>
      <trkpt lon="-2.249219" lat="53.126987"><ele>99.250687</ele><time>2022-03-04T13:43:07Z</time><extensions><speed>0.220844</speed><course>252.353241</course><hAcc>1.741340</hAcc><vAcc>0.825777</vAcc></extensions></trkpt>
      <trkpt lon="-2.249222" lat="53.126987"><ele>99.267021</ele><time>2022-03-04T13:43:08Z</time><extensions><speed>0.201774</speed><course>253.109497</course><hAcc>1.742610</hAcc><vAcc>0.825905</vAcc></extensions></trkpt>
      <trkpt lon="-2.249225" lat="53.126986"><ele>99.274277</ele><time>2022-03-04T13:43:09Z</time><extensions><speed>0.189166</speed><course>255.497955</course><hAcc>1.745263</hAcc><vAcc>0.826032</vAcc></extensions></trkpt>
      <trkpt lon="-2.249228" lat="53.126986"><ele>99.289993</ele><time>2022-03-04T13:43:10Z</time><extensions><speed>0.185562</speed><course>260.115143</course><hAcc>1.746238</hAcc><vAcc>0.826166</vAcc></extensions></trkpt>
      <trkpt lon="-2.249231" lat="53.126986"><ele>99.297325</ele><time>2022-03-04T13:43:11Z</time><extensions><speed>0.188866</speed><course>267.352661</course><hAcc>1.749852</hAcc><vAcc>0.826300</vAcc></extensions></trkpt>
      <trkpt lon="-2.249234" lat="53.126986"><ele>99.317131</ele><time>2022-03-04T13:43:12Z</time><extensions><speed>0.209933</speed><course>277.128448</course><hAcc>1.751773</hAcc><vAcc>0.826414</vAcc></extensions></trkpt>
      <trkpt lon="-2.249237" lat="53.126986"><ele>99.338554</ele><time>2022-03-04T13:43:13Z</time><extensions><speed>0.276186</speed><course>287.386047</course><hAcc>1.742282</hAcc><vAcc>0.826528</vAcc></extensions></trkpt>
      <trkpt lon="-2.249242" lat="53.126987"><ele>99.362038</ele><time>2022-03-04T13:43:14Z</time><extensions><speed>0.415067</speed><course>294.716888</course><hAcc>1.726413</hAcc><vAcc>0.826634</vAcc></extensions></trkpt>
      <trkpt lon="-2.249249" lat="53.126989"><ele>99.390335</ele><time>2022-03-04T13:43:15Z</time><extensions><speed>0.477820</speed><course>287.456848</course><hAcc>1.743302</hAcc><vAcc>0.826747</vAcc></extensions></trkpt>
      <trkpt lon="-2.249256" lat="53.126989"><ele>99.421997</ele><time>2022-03-04T13:43:16Z</time><extensions><speed>0.486645</speed><course>269.843536</course><hAcc>1.751783</hAcc><vAcc>0.826858</vAcc></extensions></trkpt>
      <trkpt lon="-2.249265" lat="53.126989"><ele>99.446793</ele><time>2022-03-04T13:43:17Z</time><extensions><speed>0.757601</speed><course>263.046021</course><hAcc>1.722087</hAcc><vAcc>0.826962</vAcc></extensions></trkpt>
      <trkpt lon="-2.249276" lat="53.126988"><ele>99.469406</ele><time>2022-03-04T13:43:18Z</time><extensions><speed>0.802561</speed><course>259.072510</course><hAcc>1.708125</hAcc><vAcc>0.827069</vAcc></extensions></trkpt>
      <trkpt lon="-2.249288" lat="53.126986"><ele>99.479065</ele><time>2022-03-04T13:43:19Z</time><extensions><speed>0.762518</speed><course>253.696594</course><hAcc>1.703302</hAcc><vAcc>0.827182</vAcc></extensions></trkpt>
      <trkpt lon="-2.249298" lat="53.126984"><ele>99.477966</ele><time>2022-03-04T13:43:20Z</time><extensions><speed>0.684916</speed><course>250.355362</course><hAcc>1.711561</hAcc><vAcc>0.827265</vAcc></extensions></trkpt>
      <trkpt lon="-2.249306" lat="53.126982"><ele>99.473061</ele><time>2022-03-04T13:43:21Z</time><extensions><speed>0.410387</speed><course>238.935074</course><hAcc>1.736078</hAcc><vAcc>0.827308</vAcc></extensions></trkpt>
      <trkpt lon="-2.249311" lat="53.126980"><ele>99.471764</ele><time>2022-03-04T13:43:22Z</time><extensions><speed>0.501310</speed><course>229.221436</course><hAcc>1.711449</hAcc><vAcc>0.827302</vAcc></extensions></trkpt>
      <trkpt lon="-2.249316" lat="53.126977"><ele>99.468132</ele><time>2022-03-04T13:43:23Z</time><extensions><speed>0.389574</speed><course>226.593063</course><hAcc>1.706137</hAcc><vAcc>0.827270</vAcc></extensions></trkpt>
      <trkpt lon="-2.249320" lat="53.126975"><ele>99.458031</ele><time>2022-03-04T13:43:24Z</time><extensions><speed>0.358978</speed><course>224.697250</course><hAcc>1.708102</hAcc><vAcc>0.827209</vAcc></extensions></trkpt>
      <trkpt lon="-2.249324" lat="53.126972"><ele>99.438965</ele><time>2022-03-04T13:43:25Z</time><extensions><speed>0.382565</speed><course>222.816589</course><hAcc>1.708547</hAcc><vAcc>0.827128</vAcc></extensions></trkpt>
      <trkpt lon="-2.249328" lat="53.126970"><ele>99.415092</ele><time>2022-03-04T13:43:26Z</time><extensions><speed>0.477147</speed><course>220.540329</course><hAcc>1.701192</hAcc><vAcc>0.827028</vAcc></extensions></trkpt>
      <trkpt lon="-2.249334" lat="53.126966"><ele>99.394218</ele><time>2022-03-04T13:43:27Z</time><extensions><speed>0.665749</speed><course>218.105743</course><hAcc>1.692489</hAcc><vAcc>0.826912</vAcc></extensions></trkpt>
      <trkpt lon="-2.249340" lat="53.126961"><ele>99.371941</ele><time>2022-03-04T13:43:28Z</time><extensions><speed>0.640612</speed><course>222.271088</course><hAcc>1.686072</hAcc><vAcc>0.826773</vAcc></extensions></trkpt>
      <trkpt lon="-2.249346" lat="53.126957"><ele>99.337364</ele><time>2022-03-04T13:43:29Z</time><extensions><speed>0.482734</speed><course>230.788025</course><hAcc>1.664758</hAcc><vAcc>0.826655</vAcc></extensions></trkpt>
      <trkpt lon="-2.249351" lat="53.126955"><ele>99.307304</ele><time>2022-03-04T13:43:30Z</time><extensions><speed>0.296850</speed><course>247.825867</course><hAcc>1.642867</hAcc><vAcc>0.826515</vAcc></extensions></trkpt>
      <trkpt lon="-2.249354" lat="53.126955"><ele>99.275291</ele><time>2022-03-04T13:43:31Z</time><extensions><speed>0.125647</speed><course>261.080933</course><hAcc>1.633917</hAcc><vAcc>0.826384</vAcc></extensions></trkpt>
      <trkpt lon="-2.249356" lat="53.126954"><ele>99.248405</ele><time>2022-03-04T13:43:32Z</time><extensions><speed>0.070111</speed><course>262.745850</course><hAcc>1.616797</hAcc><vAcc>0.826264</vAcc></extensions></trkpt>
      <trkpt lon="-2.249357" lat="53.126954"><ele>99.216881</ele><time>2022-03-04T13:43:33Z</time><extensions><speed>0.057984</speed><course>241.602631</course><hAcc>1.599404</hAcc><vAcc>0.826161</vAcc></extensions></trkpt>
      <trkpt lon="-2.249358" lat="53.126954"><ele>99.188644</ele><time>2022-03-04T13:43:34Z</time><extensions><speed>0.073557</speed><course>220.353882</course><hAcc>1.590686</hAcc><vAcc>0.826090</vAcc></extensions></trkpt>
      <trkpt lon="-2.249359" lat="53.126953"><ele>99.165123</ele><time>2022-03-04T13:43:35Z</time><extensions><speed>0.097537</speed><course>211.866241</course><hAcc>1.592165</hAcc><vAcc>0.826061</vAcc></extensions></trkpt>
      <trkpt lon="-2.249360" lat="53.126952"><ele>99.132011</ele><time>2022-03-04T13:43:36Z</time><extensions><speed>0.136502</speed><course>209.464417</course><hAcc>1.587593</hAcc><vAcc>0.826106</vAcc></extensions></trkpt>
      <trkpt lon="-2.249361" lat="53.126951"><ele>99.098679</ele><time>2022-03-04T13:43:37Z</time><extensions><speed>0.178383</speed><course>209.979050</course><hAcc>1.585658</hAcc><vAcc>0.826221</vAcc></extensions></trkpt>
      <trkpt lon="-2.249363" lat="53.126949"><ele>99.066025</ele><time>2022-03-04T13:43:38Z</time><extensions><speed>0.219494</speed><course>212.374100</course><hAcc>1.587350</hAcc><vAcc>0.826370</vAcc></extensions></trkpt>
      <trkpt lon="-2.249365" lat="53.126948"><ele>99.033684</ele><time>2022-03-04T13:43:39Z</time><extensions><speed>0.251307</speed><course>217.615494</course><hAcc>1.597762</hAcc><vAcc>0.826580</vAcc></extensions></trkpt>
      <trkpt lon="-2.249367" lat="53.126946"><ele>99.001755</ele><time>2022-03-04T13:43:40Z</time><extensions><speed>0.293310</speed><course>224.369751</course><hAcc>1.612699</hAcc><vAcc>0.826807</vAcc></extensions></trkpt>
      <trkpt lon="-2.249371" lat="53.126944"><ele>98.970284</ele><time>2022-03-04T13:43:41Z</time><extensions><speed>0.360244</speed><course>230.149048</course><hAcc>1.629645</hAcc><vAcc>0.827047</vAcc></extensions></trkpt>
      <trkpt lon="-2.249376" lat="53.126941"><ele>98.942200</ele><time>2022-03-04T13:43:42Z</time><extensions><speed>0.506778</speed><course>233.152298</course><hAcc>1.636832</hAcc><vAcc>0.827280</vAcc></extensions></trkpt>
      <trkpt lon="-2.249384" lat="53.126938"><ele>98.914642</ele><time>2022-03-04T13:43:43Z</time><extensions><speed>0.841541</speed><course>233.353027</course><hAcc>1.631520</hAcc><vAcc>0.827483</vAcc></extensions></trkpt>
      <trkpt lon="-2.249394" lat="53.126933"><ele>98.887405</ele><time>2022-03-04T13:43:44Z</time><extensions><speed>0.880331</speed><course>233.694336</course><hAcc>1.643757</hAcc><vAcc>0.827666</vAcc></extensions></trkpt>
      <trkpt lon="-2.249405" lat="53.126929"><ele>98.863441</ele><time>2022-03-04T13:43:45Z</time><extensions><speed>0.854140</speed><course>234.830307</course><hAcc>1.653767</hAcc><vAcc>0.827798</vAcc></extensions></trkpt>
      <trkpt lon="-2.249414" lat="53.126925"><ele>98.835701</ele><time>2022-03-04T13:43:46Z</time><extensions><speed>0.667038</speed><course>235.539062</course><hAcc>1.662627</hAcc><vAcc>0.827890</vAcc></extensions></trkpt>
      <trkpt lon="-2.249420" lat="53.126922"><ele>98.814987</ele><time>2022-03-04T13:43:47Z</time><extensions><speed>0.238848</speed><course>238.089203</course><hAcc>1.667057</hAcc><vAcc>0.827939</vAcc></extensions></trkpt>
      <trkpt lon="-2.249422" lat="53.126922"><ele>98.800674</ele><time>2022-03-04T13:43:48Z</time><extensions><speed>0.083661</speed><course>241.126404</course><hAcc>1.638295</hAcc><vAcc>0.827930</vAcc></extensions></trkpt>
      <trkpt lon="-2.249423" lat="53.126921"><ele>98.788246</ele><time>2022-03-04T13:43:49Z</time><extensions><speed>0.010780</speed><course>231.551559</course><hAcc>1.634745</hAcc><vAcc>0.827871</vAcc></extensions></trkpt>
      <trkpt lon="-2.249423" lat="53.126921"><ele>98.775291</ele><time>2022-03-04T13:43:50Z</time><extensions><speed>0.016814</speed><course>89.359756</course><hAcc>1.656320</hAcc><vAcc>0.827762</vAcc></extensions></trkpt>
      <trkpt lon="-2.249422" lat="53.126921"><ele>98.765602</ele><time>2022-03-04T13:43:51Z</time><extensions><speed>0.022944</speed><course>94.645744</course><hAcc>1.668379</hAcc><vAcc>0.827638</vAcc></extensions></trkpt>
      <trkpt lon="-2.249422" lat="53.126921"><ele>98.755692</ele><time>2022-03-04T13:43:52Z</time><extensions><speed>0.007769</speed><course>115.229004</course><hAcc>1.679500</hAcc><vAcc>0.827531</vAcc></extensions></trkpt>
      <trkpt lon="-2.249422" lat="53.126921"><ele>98.744965</ele><time>2022-03-04T13:43:53Z</time><extensions><speed>0.037494</speed><course>262.682129</course><hAcc>1.655881</hAcc><vAcc>0.827443</vAcc></extensions></trkpt>
      <trkpt lon="-2.249424" lat="53.126921"><ele>98.730980</ele><time>2022-03-04T13:43:54Z</time><extensions><speed>0.111267</speed><course>263.697876</course><hAcc>1.659674</hAcc><vAcc>0.827380</vAcc></extensions></trkpt>
      <trkpt lon="-2.249426" lat="53.126921"><ele>98.725197</ele><time>2022-03-04T13:43:55Z</time><extensions><speed>0.204413</speed><course>260.238556</course><hAcc>1.675616</hAcc><vAcc>0.827356</vAcc></extensions></trkpt>
      <trkpt lon="-2.249430" lat="53.126920"><ele>98.729988</ele><time>2022-03-04T13:43:55Z</time><extensions><speed>0.311280</speed><course>254.252869</course><hAcc>1.698044</hAcc><vAcc>0.827373</vAcc></extensions></trkpt>
      <trkpt lon="-2.249434" lat="53.126920"><ele>98.726051</ele><time>2022-03-04T13:43:56Z</time><extensions><speed>0.232286</speed><course>254.348099</course><hAcc>1.742197</hAcc><vAcc>0.827438</vAcc></extensions></trkpt>
      <trkpt lon="-2.249438" lat="53.126919"><ele>98.709885</ele><time>2022-03-04T13:43:57Z</time><extensions><speed>0.301645</speed><course>251.817932</course><hAcc>1.733698</hAcc><vAcc>0.827540</vAcc></extensions></trkpt>
      <trkpt lon="-2.249443" lat="53.126918"><ele>98.696297</ele><time>2022-03-04T13:43:58Z</time><extensions><speed>0.415356</speed><course>250.754807</course><hAcc>1.727711</hAcc><vAcc>0.827688</vAcc></extensions></trkpt>
      <trkpt lon="-2.249450" lat="53.126917"><ele>98.685081</ele><time>2022-03-04T13:43:59Z</time><extensions><speed>0.611103</speed><course>251.124573</course><hAcc>1.725095</hAcc><vAcc>0.827874</vAcc></extensions></trkpt>
      <trkpt lon="-2.249461" lat="53.126914"><ele>98.654419</ele><time>2022-03-04T13:44:00Z</time><extensions><speed>0.922136</speed><course>251.454834</course><hAcc>1.721692</hAcc><vAcc>0.828102</vAcc></extensions></trkpt>
      <trkpt lon="-2.249475" lat="53.126912"><ele>98.641968</ele><time>2022-03-04T13:44:01Z</time><extensions><speed>1.105606</speed><course>252.459076</course><hAcc>1.730107</hAcc><vAcc>0.828353</vAcc></extensions></trkpt>
      <trkpt lon="-2.249492" lat="53.126909"><ele>98.619362</ele><time>2022-03-04T13:44:02Z</time><extensions><speed>1.174137</speed><course>253.512817</course><hAcc>1.730855</hAcc><vAcc>0.828615</vAcc></extensions></trkpt>
      <trkpt lon="-2.249508" lat="53.126906"><ele>98.591965</ele><time>2022-03-04T13:44:03Z</time><extensions><speed>1.137932</speed><course>253.940521</course><hAcc>1.729633</hAcc><vAcc>0.828870</vAcc></extensions></trkpt>
      <trkpt lon="-2.249525" lat="53.126903"><ele>98.575035</ele><time>2022-03-04T13:44:04Z</time><extensions><speed>1.168510</speed><course>255.234314</course><hAcc>1.726457</hAcc><vAcc>0.829097</vAcc></extensions></trkpt>
      <trkpt lon="-2.249541" lat="53.126900"><ele>98.551079</ele><time>2022-03-04T13:44:05Z</time><extensions><speed>1.108415</speed><course>255.899277</course><hAcc>1.712649</hAcc><vAcc>0.829312</vAcc></extensions></trkpt>
      <trkpt lon="-2.249556" lat="53.126898"><ele>98.527962</ele><time>2022-03-04T13:44:06Z</time><extensions><speed>0.954442</speed><course>255.133133</course><hAcc>1.703439</hAcc><vAcc>0.829508</vAcc></extensions></trkpt>
      <trkpt lon="-2.249570" lat="53.126896"><ele>98.515762</ele><time>2022-03-04T13:44:07Z</time><extensions><speed>0.919617</speed><course>253.759079</course><hAcc>1.697603</hAcc><vAcc>0.829669</vAcc></extensions></trkpt>
      <trkpt lon="-2.249584" lat="53.126893"><ele>98.507904</ele><time>2022-03-04T13:44:08Z</time><extensions><speed>0.981842</speed><course>253.274124</course><hAcc>1.683484</hAcc><vAcc>0.829801</vAcc></extensions></trkpt>
      <trkpt lon="-2.249598" lat="53.126891"><ele>98.501480</ele><time>2022-03-04T13:44:09Z</time><extensions><speed>1.044196</speed><course>255.410217</course><hAcc>1.662875</hAcc><vAcc>0.829906</vAcc></extensions></trkpt>
      <trkpt lon="-2.249614" lat="53.126889"><ele>98.497520</ele><time>2022-03-04T13:44:10Z</time><extensions><speed>1.101401</speed><course>258.251465</course><hAcc>1.643387</hAcc><vAcc>0.829978</vAcc></extensions></trkpt>
      <trkpt lon="-2.249631" lat="53.126887"><ele>98.494926</ele><time>2022-03-04T13:44:11Z</time><extensions><speed>1.161080</speed><course>260.652405</course><hAcc>1.636984</hAcc><vAcc>0.830018</vAcc></extensions></trkpt>
      <trkpt lon="-2.249648" lat="53.126885"><ele>98.494461</ele><time>2022-03-04T13:44:12Z</time><extensions><speed>1.180527</speed><course>262.647278</course><hAcc>1.633296</hAcc><vAcc>0.830033</vAcc></extensions></trkpt>
      <trkpt lon="-2.249664" lat="53.126884"><ele>98.487923</ele><time>2022-03-04T13:44:13Z</time><extensions><speed>1.041934</speed><course>262.459320</course><hAcc>1.674960</hAcc><vAcc>0.830025</vAcc></extensions></trkpt>
      <trkpt lon="-2.249681" lat="53.126883"><ele>98.485931</ele><time>2022-03-04T13:44:14Z</time><extensions><speed>1.145296</speed><course>263.316803</course><hAcc>1.633955</hAcc><vAcc>0.830012</vAcc></extensions></trkpt>
      <trkpt lon="-2.249699" lat="53.126881"><ele>98.491234</ele><time>2022-03-04T13:44:15Z</time><extensions><speed>1.314958</speed><course>262.982300</course><hAcc>1.600718</hAcc><vAcc>0.829988</vAcc></extensions></trkpt>
      <trkpt lon="-2.249719" lat="53.126880"><ele>98.500755</ele><time>2022-03-04T13:44:16Z</time><extensions><speed>1.363287</speed><course>261.313477</course><hAcc>1.614045</hAcc><vAcc>0.829961</vAcc></extensions></trkpt>
      <trkpt lon="-2.249739" lat="53.126878"><ele>98.506927</ele><time>2022-03-04T13:44:17Z</time><extensions><speed>1.377160</speed><course>258.188171</course><hAcc>1.648784</hAcc><vAcc>0.829938</vAcc></extensions></trkpt>
      <trkpt lon="-2.249758" lat="53.126875"><ele>98.523300</ele><time>2022-03-04T13:44:18Z</time><extensions><speed>1.291518</speed><course>252.422989</course><hAcc>1.670584</hAcc><vAcc>0.829920</vAcc></extensions></trkpt>
      <trkpt lon="-2.249776" lat="53.126871"><ele>98.521202</ele><time>2022-03-04T13:44:19Z</time><extensions><speed>1.249659</speed><course>249.377350</course><hAcc>1.641589</hAcc><vAcc>0.829893</vAcc></extensions></trkpt>
      <trkpt lon="-2.249794" lat="53.126867"><ele>98.521423</ele><time>2022-03-04T13:44:20Z</time><extensions><speed>1.257292</speed><course>247.909622</course><hAcc>1.627308</hAcc><vAcc>0.829875</vAcc></extensions></trkpt>
      <trkpt lon="-2.249811" lat="53.126862"><ele>98.523132</ele><time>2022-03-04T13:44:21Z</time><extensions><speed>1.250014</speed><course>246.510529</course><hAcc>1.623921</hAcc><vAcc>0.829862</vAcc></extensions></trkpt>
      <trkpt lon="-2.249828" lat="53.126858"><ele>98.536324</ele><time>2022-03-04T13:44:22Z</time><extensions><speed>1.219011</speed><course>243.254868</course><hAcc>1.627738</hAcc><vAcc>0.829858</vAcc></extensions></trkpt>
      <trkpt lon="-2.249844" lat="53.126853"><ele>98.536285</ele><time>2022-03-04T13:44:23Z</time><extensions><speed>1.203746</speed><course>242.102219</course><hAcc>1.659371</hAcc><vAcc>0.829853</vAcc></extensions></trkpt>
      <trkpt lon="-2.249860" lat="53.126848"><ele>98.534729</ele><time>2022-03-04T13:44:24Z</time><extensions><speed>1.230747</speed><course>243.318329</course><hAcc>1.672984</hAcc><vAcc>0.829850</vAcc></extensions></trkpt>
      <trkpt lon="-2.249878" lat="53.126843"><ele>98.522697</ele><time>2022-03-04T13:44:25Z</time><extensions><speed>1.262968</speed><course>250.331497</course><hAcc>1.627891</hAcc><vAcc>0.829853</vAcc></extensions></trkpt>
      <trkpt lon="-2.249895" lat="53.126840"><ele>98.527573</ele><time>2022-03-04T13:44:26Z</time><extensions><speed>1.225112</speed><course>254.444916</course><hAcc>1.619160</hAcc><vAcc>0.829862</vAcc></extensions></trkpt>
      <trkpt lon="-2.249913" lat="53.126837"><ele>98.525429</ele><time>2022-03-04T13:44:27Z</time><extensions><speed>1.202584</speed><course>254.102600</course><hAcc>1.644247</hAcc><vAcc>0.829870</vAcc></extensions></trkpt>
      <trkpt lon="-2.249931" lat="53.126834"><ele>98.508926</ele><time>2022-03-04T13:44:28Z</time><extensions><speed>1.267288</speed><course>253.565262</course><hAcc>1.662928</hAcc><vAcc>0.829884</vAcc></extensions></trkpt>
      <trkpt lon="-2.249949" lat="53.126831"><ele>98.498741</ele><time>2022-03-04T13:44:29Z</time><extensions><speed>1.317381</speed><course>255.545471</course><hAcc>1.652245</hAcc><vAcc>0.829904</vAcc></extensions></trkpt>
      <trkpt lon="-2.249969" lat="53.126828"><ele>98.473221</ele><time>2022-03-04T13:44:30Z</time><extensions><speed>1.346091</speed><course>257.903442</course><hAcc>1.649538</hAcc><vAcc>0.829930</vAcc></extensions></trkpt>
      <trkpt lon="-2.249988" lat="53.126826"><ele>98.452415</ele><time>2022-03-04T13:44:31Z</time><extensions><speed>1.365660</speed><course>259.436127</course><hAcc>1.656405</hAcc><vAcc>0.829962</vAcc></extensions></trkpt>
      <trkpt lon="-2.250009" lat="53.126823"><ele>98.420357</ele><time>2022-03-04T13:44:32Z</time><extensions><speed>1.477037</speed><course>259.807373</course><hAcc>1.643951</hAcc><vAcc>0.829995</vAcc></extensions></trkpt>
      <trkpt lon="-2.250031" lat="53.126821"><ele>98.392174</ele><time>2022-03-04T13:44:33Z</time><extensions><speed>1.515268</speed><course>257.379211</course><hAcc>1.651431</hAcc><vAcc>0.830042</vAcc></extensions></trkpt>
      <trkpt lon="-2.250053" lat="53.126818"><ele>98.354774</ele><time>2022-03-04T13:44:34Z</time><extensions><speed>1.437020</speed><course>254.256058</course><hAcc>1.670658</hAcc><vAcc>0.830094</vAcc></extensions></trkpt>
      <trkpt lon="-2.250073" lat="53.126814"><ele>98.315155</ele><time>2022-03-04T13:44:35Z</time><extensions><speed>1.411181</speed><course>254.763199</course><hAcc>1.677586</hAcc><vAcc>0.830150</vAcc></extensions></trkpt>
      <trkpt lon="-2.250093" lat="53.126811"><ele>98.271652</ele><time>2022-03-04T13:44:36Z</time><extensions><speed>1.359123</speed><course>258.480774</course><hAcc>1.647375</hAcc><vAcc>0.830210</vAcc></extensions></trkpt>
      <trkpt lon="-2.250113" lat="53.126809"><ele>98.220398</ele><time>2022-03-04T13:44:37Z</time><extensions><speed>1.337008</speed><course>260.027161</course><hAcc>1.638752</hAcc><vAcc>0.830272</vAcc></extensions></trkpt>
      <trkpt lon="-2.250133" lat="53.126807"><ele>98.166466</ele><time>2022-03-04T13:44:38Z</time><extensions><speed>1.315159</speed><course>260.273743</course><hAcc>1.641813</hAcc><vAcc>0.830317</vAcc></extensions></trkpt>
      <trkpt lon="-2.250152" lat="53.126805"><ele>98.107895</ele><time>2022-03-04T13:44:39Z</time><extensions><speed>1.371404</speed><course>262.356476</course><hAcc>1.638924</hAcc><vAcc>0.830355</vAcc></extensions></trkpt>
      <trkpt lon="-2.250173" lat="53.126803"><ele>98.061272</ele><time>2022-03-04T13:44:40Z</time><extensions><speed>1.425741</speed><course>262.590759</course><hAcc>1.638669</hAcc><vAcc>0.830386</vAcc></extensions></trkpt>
      <trkpt lon="-2.250194" lat="53.126802"><ele>98.006645</ele><time>2022-03-04T13:44:41Z</time><extensions><speed>1.435657</speed><course>260.451385</course><hAcc>1.645761</hAcc><vAcc>0.830405</vAcc></extensions></trkpt>
      <trkpt lon="-2.250215" lat="53.126799"><ele>97.948250</ele><time>2022-03-04T13:44:42Z</time><extensions><speed>1.412534</speed><course>257.739105</course><hAcc>1.624798</hAcc><vAcc>0.830412</vAcc></extensions></trkpt>
      <trkpt lon="-2.250236" lat="53.126796"><ele>97.878532</ele><time>2022-03-04T13:44:43Z</time><extensions><speed>1.414042</speed><course>256.298157</course><hAcc>1.596971</hAcc><vAcc>0.830422</vAcc></extensions></trkpt>
      <trkpt lon="-2.250256" lat="53.126793"><ele>97.825706</ele><time>2022-03-04T13:44:44Z</time><extensions><speed>1.395711</speed><course>253.996918</course><hAcc>1.577178</hAcc><vAcc>0.830435</vAcc></extensions></trkpt>
      <trkpt lon="-2.250276" lat="53.126789"><ele>97.771446</ele><time>2022-03-04T13:44:45Z</time><extensions><speed>1.396403</speed><course>252.026871</course><hAcc>1.581479</hAcc><vAcc>0.830449</vAcc></extensions></trkpt>
      <trkpt lon="-2.250295" lat="53.126785"><ele>97.710281</ele><time>2022-03-04T13:44:46Z</time><extensions><speed>1.357711</speed><course>250.513733</course><hAcc>1.630825</hAcc><vAcc>0.830468</vAcc></extensions></trkpt>
      <trkpt lon="-2.250314" lat="53.126782"><ele>97.661629</ele><time>2022-03-04T13:44:47Z</time><extensions><speed>1.315777</speed><course>252.056473</course><hAcc>1.601271</hAcc><vAcc>0.830502</vAcc></extensions></trkpt>
      <trkpt lon="-2.250334" lat="53.126778"><ele>97.619759</ele><time>2022-03-04T13:44:48Z</time><extensions><speed>1.372924</speed><course>252.877518</course><hAcc>1.577459</hAcc><vAcc>0.830547</vAcc></extensions></trkpt>
      <trkpt lon="-2.250353" lat="53.126775"><ele>97.579048</ele><time>2022-03-04T13:44:49Z</time><extensions><speed>1.350981</speed><course>254.410721</course><hAcc>1.598218</hAcc><vAcc>0.830603</vAcc></extensions></trkpt>
      <trkpt lon="-2.250372" lat="53.126771"><ele>97.540901</ele><time>2022-03-04T13:44:50Z</time><extensions><speed>1.321702</speed><course>255.705292</course><hAcc>1.591184</hAcc><vAcc>0.830665</vAcc></extensions></trkpt>
      <trkpt lon="-2.250391" lat="53.126769"><ele>97.501175</ele><time>2022-03-04T13:44:51Z</time><extensions><speed>1.286951</speed><course>256.283417</course><hAcc>1.607470</hAcc><vAcc>0.830729</vAcc></extensions></trkpt>
      <trkpt lon="-2.250410" lat="53.126766"><ele>97.481010</ele><time>2022-03-04T13:44:52Z</time><extensions><speed>1.261062</speed><course>257.570465</course><hAcc>1.645465</hAcc><vAcc>0.830797</vAcc></extensions></trkpt>
      <trkpt lon="-2.250428" lat="53.126764"><ele>97.469032</ele><time>2022-03-04T13:44:53Z</time><extensions><speed>1.230438</speed><course>259.877075</course><hAcc>1.657165</hAcc><vAcc>0.830871</vAcc></extensions></trkpt>
      <trkpt lon="-2.250446" lat="53.126762"><ele>97.450470</ele><time>2022-03-04T13:44:54Z</time><extensions><speed>1.212248</speed><course>259.411133</course><hAcc>1.645478</hAcc><vAcc>0.830944</vAcc></extensions></trkpt>
      <trkpt lon="-2.250465" lat="53.126760"><ele>97.440582</ele><time>2022-03-04T13:44:55Z</time><extensions><speed>1.267585</speed><course>257.861969</course><hAcc>1.640630</hAcc><vAcc>0.831008</vAcc></extensions></trkpt>
      <trkpt lon="-2.250483" lat="53.126757"><ele>97.438736</ele><time>2022-03-04T13:44:56Z</time><extensions><speed>1.253944</speed><course>257.062988</course><hAcc>1.653035</hAcc><vAcc>0.831063</vAcc></extensions></trkpt>
      <trkpt lon="-2.250502" lat="53.126755"><ele>97.421272</ele><time>2022-03-04T13:44:57Z</time><extensions><speed>1.295933</speed><course>257.498505</course><hAcc>1.669427</hAcc><vAcc>0.831109</vAcc></extensions></trkpt>
      <trkpt lon="-2.250521" lat="53.126752"><ele>97.400162</ele><time>2022-03-04T13:44:58Z</time><extensions><speed>1.347011</speed><course>257.951782</course><hAcc>1.688338</hAcc><vAcc>0.831141</vAcc></extensions></trkpt>
      <trkpt lon="-2.250541" lat="53.126750"><ele>97.385994</ele><time>2022-03-04T13:44:59Z</time><extensions><speed>1.427537</speed><course>259.116272</course><hAcc>1.683468</hAcc><vAcc>0.831160</vAcc></extensions></trkpt>
      <trkpt lon="-2.250562" lat="53.126747"><ele>97.373802</ele><time>2022-03-04T13:45:00Z</time><extensions><speed>1.442596</speed><course>259.048676</course><hAcc>1.687401</hAcc><vAcc>0.831156</vAcc></extensions></trkpt>
      <trkpt lon="-2.250584" lat="53.126745"><ele>97.357880</ele><time>2022-03-04T13:45:01Z</time><extensions><speed>1.454563</speed><course>258.512115</course><hAcc>1.678740</hAcc><vAcc>0.831127</vAcc></extensions></trkpt>
      <trkpt lon="-2.250605" lat="53.126742"><ele>97.340515</ele><time>2022-03-04T13:45:02Z</time><extensions><speed>1.426587</speed><course>257.421051</course><hAcc>1.674617</hAcc><vAcc>0.831077</vAcc></extensions></trkpt>
      <trkpt lon="-2.250625" lat="53.126739"><ele>97.325470</ele><time>2022-03-04T13:45:03Z</time><extensions><speed>1.388127</speed><course>253.770081</course><hAcc>1.680679</hAcc><vAcc>0.830996</vAcc></extensions></trkpt>
      <trkpt lon="-2.250645" lat="53.126735"><ele>97.306892</ele><time>2022-03-04T13:45:04Z</time><extensions><speed>1.356197</speed><course>248.491302</course><hAcc>1.699812</hAcc><vAcc>0.830902</vAcc></extensions></trkpt>
      <trkpt lon="-2.250664" lat="53.126730"><ele>97.287292</ele><time>2022-03-04T13:45:05Z</time><extensions><speed>1.399576</speed><course>250.181641</course><hAcc>1.671770</hAcc><vAcc>0.830788</vAcc></extensions></trkpt>
      <trkpt lon="-2.250684" lat="53.126726"><ele>97.267479</ele><time>2022-03-04T13:45:06Z</time><extensions><speed>1.400072</speed><course>251.080338</course><hAcc>1.652960</hAcc><vAcc>0.830655</vAcc></extensions></trkpt>
      <trkpt lon="-2.250703" lat="53.126722"><ele>97.246819</ele><time>2022-03-04T13:45:08Z</time><extensions><speed>1.369470</speed><course>250.607254</course><hAcc>1.648523</hAcc><vAcc>0.830500</vAcc></extensions></trkpt>
      <trkpt lon="-2.250723" lat="53.126718"><ele>97.230034</ele><time>2022-03-04T13:45:09Z</time><extensions><speed>1.343065</speed><course>250.463165</course><hAcc>1.649577</hAcc><vAcc>0.830345</vAcc></extensions></trkpt>
      <trkpt lon="-2.250742" lat="53.126714"><ele>97.220062</ele><time>2022-03-04T13:45:10Z</time><extensions><speed>1.338685</speed><course>251.800873</course><hAcc>1.653637</hAcc><vAcc>0.830212</vAcc></extensions></trkpt>
      <trkpt lon="-2.250761" lat="53.126710"><ele>97.223518</ele><time>2022-03-04T13:45:11Z</time><extensions><speed>1.314329</speed><course>252.477356</course><hAcc>1.664557</hAcc><vAcc>0.830092</vAcc></extensions></trkpt>
      <trkpt lon="-2.250780" lat="53.126707"><ele>97.237495</ele><time>2022-03-04T13:45:12Z</time><extensions><speed>1.418103</speed><course>252.409561</course><hAcc>1.647743</hAcc><vAcc>0.829986</vAcc></extensions></trkpt>
      <trkpt lon="-2.250800" lat="53.126703"><ele>97.232384</ele><time>2022-03-04T13:45:13Z</time><extensions><speed>1.402761</speed><course>252.476303</course><hAcc>1.665726</hAcc><vAcc>0.829909</vAcc></extensions></trkpt>
      <trkpt lon="-2.250820" lat="53.126700"><ele>97.235970</ele><time>2022-03-04T13:45:14Z</time><extensions><speed>1.313936</speed><course>255.246719</course><hAcc>1.660737</hAcc><vAcc>0.829860</vAcc></extensions></trkpt>
      <trkpt lon="-2.250839" lat="53.126697"><ele>97.235519</ele><time>2022-03-04T13:45:15Z</time><extensions><speed>1.361003</speed><course>259.662445</course><hAcc>1.669798</hAcc><vAcc>0.829847</vAcc></extensions></trkpt>
      <trkpt lon="-2.250860" lat="53.126695"><ele>97.233849</ele><time>2022-03-04T13:45:16Z</time><extensions><speed>1.466115</speed><course>260.409424</course><hAcc>1.681980</hAcc><vAcc>0.829876</vAcc></extensions></trkpt>
      <trkpt lon="-2.250882" lat="53.126693"><ele>97.243759</ele><time>2022-03-04T13:45:17Z</time><extensions><speed>1.458840</speed><course>260.207397</course><hAcc>1.697131</hAcc><vAcc>0.829955</vAcc></extensions></trkpt>
      <trkpt lon="-2.250903" lat="53.126690"><ele>97.275414</ele><time>2022-03-04T13:45:18Z</time><extensions><speed>1.431543</speed><course>261.354034</course><hAcc>1.708194</hAcc><vAcc>0.830039</vAcc></extensions></trkpt>
      <trkpt lon="-2.250924" lat="53.126689"><ele>97.293137</ele><time>2022-03-04T13:45:19Z</time><extensions><speed>1.405667</speed><course>262.965698</course><hAcc>1.716604</hAcc><vAcc>0.830122</vAcc></extensions></trkpt>
      <trkpt lon="-2.250945" lat="53.126687"><ele>97.311447</ele><time>2022-03-04T13:45:20Z</time><extensions><speed>1.339914</speed><course>265.475159</course><hAcc>1.722189</hAcc><vAcc>0.830135</vAcc></extensions></trkpt>
      <trkpt lon="-2.250964" lat="53.126687"><ele>97.330421</ele><time>2022-03-04T13:45:21Z</time><extensions><speed>1.330704</speed><course>268.989594</course><hAcc>1.719210</hAcc><vAcc>0.830027</vAcc></extensions></trkpt>
      <trkpt lon="-2.250984" lat="53.126687"><ele>97.351227</ele><time>2022-03-04T13:45:22Z</time><extensions><speed>1.302849</speed><course>270.335144</course><hAcc>1.718161</hAcc><vAcc>0.829911</vAcc></extensions></trkpt>
      <trkpt lon="-2.251003" lat="53.126687"><ele>97.369255</ele><time>2022-03-04T13:45:23Z</time><extensions><speed>1.216969</speed><course>268.554932</course><hAcc>1.717567</hAcc><vAcc>0.829737</vAcc></extensions></trkpt>
      <trkpt lon="-2.251021" lat="53.126686"><ele>97.389099</ele><time>2022-03-04T13:45:24Z</time><extensions><speed>1.146493</speed><course>268.367798</course><hAcc>1.717788</hAcc><vAcc>0.829474</vAcc></extensions></trkpt>
      <trkpt lon="-2.251037" lat="53.126686"><ele>97.410072</ele><time>2022-03-04T13:45:25Z</time><extensions><speed>1.056971</speed><course>269.356232</course><hAcc>1.719672</hAcc><vAcc>0.829158</vAcc></extensions></trkpt>
      <trkpt lon="-2.251053" lat="53.126686"><ele>97.434959</ele><time>2022-03-04T13:45:26Z</time><extensions><speed>1.038253</speed><course>268.161957</course><hAcc>1.726137</hAcc><vAcc>0.828761</vAcc></extensions></trkpt>
      <trkpt lon="-2.251067" lat="53.126686"><ele>97.457466</ele><time>2022-03-04T13:45:27Z</time><extensions><speed>0.856597</speed><course>267.269989</course><hAcc>1.728294</hAcc><vAcc>0.828311</vAcc></extensions></trkpt>
      <trkpt lon="-2.251078" lat="53.126685"><ele>97.480331</ele><time>2022-03-04T13:45:28Z</time><extensions><speed>0.561814</speed><course>269.058533</course><hAcc>1.733566</hAcc><vAcc>0.827802</vAcc></extensions></trkpt>
      <trkpt lon="-2.251084" lat="53.126685"><ele>97.501106</ele><time>2022-03-04T13:45:29Z</time><extensions><speed>0.275456</speed><course>271.272644</course><hAcc>1.736575</hAcc><vAcc>0.827306</vAcc></extensions></trkpt>
      <trkpt lon="-2.251087" lat="53.126685"><ele>97.514000</ele><time>2022-03-04T13:45:30Z</time><extensions><speed>0.172675</speed><course>269.923218</course><hAcc>1.738597</hAcc><vAcc>0.826839</vAcc></extensions></trkpt>
      <trkpt lon="-2.251089" lat="53.126685"><ele>97.520432</ele><time>2022-03-04T13:45:31Z</time><extensions><speed>0.141453</speed><course>263.329315</course><hAcc>1.747557</hAcc><vAcc>0.826420</vAcc></extensions></trkpt>
      <trkpt lon="-2.251092" lat="53.126685"><ele>97.507950</ele><time>2022-03-04T13:45:32Z</time><extensions><speed>0.140206</speed><course>256.756378</course><hAcc>1.758468</hAcc><vAcc>0.826087</vAcc></extensions></trkpt>
      <trkpt lon="-2.251094" lat="53.126685"><ele>97.497711</ele><time>2022-03-04T13:45:33Z</time><extensions><speed>0.155174</speed><course>252.885254</course><hAcc>1.765980</hAcc><vAcc>0.825845</vAcc></extensions></trkpt>
      <trkpt lon="-2.251096" lat="53.126684"><ele>97.476234</ele><time>2022-03-04T13:45:34Z</time><extensions><speed>0.184669</speed><course>253.595703</course><hAcc>1.771894</hAcc><vAcc>0.825688</vAcc></extensions></trkpt>
      <trkpt lon="-2.251099" lat="53.126684"><ele>97.448189</ele><time>2022-03-04T13:45:35Z</time><extensions><speed>0.240415</speed><course>257.851135</course><hAcc>1.777517</hAcc><vAcc>0.825623</vAcc></extensions></trkpt>
      <trkpt lon="-2.251104" lat="53.126683"><ele>97.409065</ele><time>2022-03-04T13:45:36Z</time><extensions><speed>0.355521</speed><course>261.491516</course><hAcc>1.779548</hAcc><vAcc>0.825649</vAcc></extensions></trkpt>
      <trkpt lon="-2.251111" lat="53.126683"><ele>97.367500</ele><time>2022-03-04T13:45:37Z</time><extensions><speed>0.568699</speed><course>262.470642</course><hAcc>1.770372</hAcc><vAcc>0.825757</vAcc></extensions></trkpt>
      <trkpt lon="-2.251122" lat="53.126682"><ele>97.326721</ele><time>2022-03-04T13:45:38Z</time><extensions><speed>0.940465</speed><course>262.013855</course><hAcc>1.750249</hAcc><vAcc>0.825928</vAcc></extensions></trkpt>
      <trkpt lon="-2.251138" lat="53.126680"><ele>97.281097</ele><time>2022-03-04T13:45:39Z</time><extensions><speed>1.195454</speed><course>260.405884</course><hAcc>1.759155</hAcc><vAcc>0.826163</vAcc></extensions></trkpt>
      <trkpt lon="-2.251156" lat="53.126678"><ele>97.237106</ele><time>2022-03-04T13:45:40Z</time><extensions><speed>1.328886</speed><course>258.110535</course><hAcc>1.760385</hAcc><vAcc>0.826388</vAcc></extensions></trkpt>
      <trkpt lon="-2.251176" lat="53.126676"><ele>97.190163</ele><time>2022-03-04T13:45:41Z</time><extensions><speed>1.381045</speed><course>256.584259</course><hAcc>1.749578</hAcc><vAcc>0.826625</vAcc></extensions></trkpt>
      <trkpt lon="-2.251196" lat="53.126673"><ele>97.143883</ele><time>2022-03-04T13:45:42Z</time><extensions><speed>1.362468</speed><course>254.179977</course><hAcc>1.735854</hAcc><vAcc>0.826803</vAcc></extensions></trkpt>
      <trkpt lon="-2.251216" lat="53.126669"><ele>97.099091</ele><time>2022-03-04T13:45:43Z</time><extensions><speed>1.359091</speed><course>252.260071</course><hAcc>1.725009</hAcc><vAcc>0.826938</vAcc></extensions></trkpt>
      <trkpt lon="-2.251235" lat="53.126665"><ele>97.056923</ele><time>2022-03-04T13:45:44Z</time><extensions><speed>1.339159</speed><course>250.950623</course><hAcc>1.721993</hAcc><vAcc>0.827002</vAcc></extensions></trkpt>
      <trkpt lon="-2.251253" lat="53.126661"><ele>97.018280</ele><time>2022-03-04T13:45:45Z</time><extensions><speed>1.294686</speed><course>250.005341</course><hAcc>1.719178</hAcc><vAcc>0.827016</vAcc></extensions></trkpt>
      <trkpt lon="-2.251270" lat="53.126658"><ele>97.008194</ele><time>2022-03-04T13:45:46Z</time><extensions><speed>1.151956</speed><course>251.645599</course><hAcc>1.709416</hAcc><vAcc>0.826943</vAcc></extensions></trkpt>
      <trkpt lon="-2.251285" lat="53.126655"><ele>96.996948</ele><time>2022-03-04T13:45:47Z</time><extensions><speed>0.929070</speed><course>255.364655</course><hAcc>1.705110</hAcc><vAcc>0.826765</vAcc></extensions></trkpt>
      <trkpt lon="-2.251297" lat="53.126653"><ele>96.987946</ele><time>2022-03-04T13:45:48Z</time><extensions><speed>0.627229</speed><course>258.723358</course><hAcc>1.717138</hAcc><vAcc>0.826546</vAcc></extensions></trkpt>
      <trkpt lon="-2.251303" lat="53.126653"><ele>96.979469</ele><time>2022-03-04T13:45:49Z</time><extensions><speed>0.274815</speed><course>267.095245</course><hAcc>1.737069</hAcc><vAcc>0.826270</vAcc></extensions></trkpt>
      <trkpt lon="-2.251306" lat="53.126653"><ele>96.949883</ele><time>2022-03-04T13:45:50Z</time><extensions><speed>0.145012</speed><course>282.915375</course><hAcc>1.724703</hAcc><vAcc>0.825951</vAcc></extensions></trkpt>
      <trkpt lon="-2.251308" lat="53.126653"><ele>96.942268</ele><time>2022-03-04T13:45:51Z</time><extensions><speed>0.074135</speed><course>309.341187</course><hAcc>1.726177</hAcc><vAcc>0.825622</vAcc></extensions></trkpt>
      <trkpt lon="-2.251308" lat="53.126654"><ele>96.935364</ele><time>2022-03-04T13:45:52Z</time><extensions><speed>0.046633</speed><course>338.505402</course><hAcc>1.737068</hAcc><vAcc>0.825307</vAcc></extensions></trkpt>
      <trkpt lon="-2.251309" lat="53.126654"><ele>96.915092</ele><time>2022-03-04T13:45:53Z</time><extensions><speed>0.029660</speed><course>341.873688</course><hAcc>1.749592</hAcc><vAcc>0.825029</vAcc></extensions></trkpt>
      <trkpt lon="-2.251309" lat="53.126654"><ele>96.892181</ele><time>2022-03-04T13:45:54Z</time><extensions><speed>0.032458</speed><course>268.824310</course><hAcc>1.761887</hAcc><vAcc>0.824785</vAcc></extensions></trkpt>
      <trkpt lon="-2.251310" lat="53.126654"><ele>96.871902</ele><time>2022-03-04T13:45:55Z</time><extensions><speed>0.113494</speed><course>241.785019</course><hAcc>1.768970</hAcc><vAcc>0.824606</vAcc></extensions></trkpt>
      <trkpt lon="-2.251313" lat="53.126653"><ele>96.839066</ele><time>2022-03-04T13:45:56Z</time><extensions><speed>0.293735</speed><course>237.717712</course><hAcc>1.757793</hAcc><vAcc>0.824468</vAcc></extensions></trkpt>
      <trkpt lon="-2.251318" lat="53.126651"><ele>96.809349</ele><time>2022-03-04T13:45:57Z</time><extensions><speed>0.581964</speed><course>236.173660</course><hAcc>1.735178</hAcc><vAcc>0.824408</vAcc></extensions></trkpt>
      <trkpt lon="-2.251326" lat="53.126647"><ele>96.783775</ele><time>2022-03-04T13:45:58Z</time><extensions><speed>0.717398</speed><course>231.259232</course><hAcc>1.748629</hAcc><vAcc>0.824441</vAcc></extensions></trkpt>
      <trkpt lon="-2.251335" lat="53.126643"><ele>96.752434</ele><time>2022-03-04T13:45:58Z</time><extensions><speed>0.767771</speed><course>227.493042</course><hAcc>1.756736</hAcc><vAcc>0.824529</vAcc></extensions></trkpt>
      <trkpt lon="-2.251344" lat="53.126638"><ele>96.722450</ele><time>2022-03-04T13:45:59Z</time><extensions><speed>0.925587</speed><course>231.287643</course><hAcc>1.739580</hAcc><vAcc>0.824700</vAcc></extensions></trkpt>
      <trkpt lon="-2.251356" lat="53.126632"><ele>96.715050</ele><time>2022-03-04T13:46:00Z</time><extensions><speed>1.085781</speed><course>231.848694</course><hAcc>1.732606</hAcc><vAcc>0.824901</vAcc></extensions></trkpt>
      <trkpt lon="-2.251371" lat="53.126626"><ele>96.718391</ele><time>2022-03-04T13:46:01Z</time><extensions><speed>1.278881</speed><course>236.123795</course><hAcc>1.722833</hAcc><vAcc>0.825165</vAcc></extensions></trkpt>
      <trkpt lon="-2.251388" lat="53.126620"><ele>96.694420</ele><time>2022-03-04T13:46:02Z</time><extensions><speed>1.356634</speed><course>242.752762</course><hAcc>1.714956</hAcc><vAcc>0.825468</vAcc></extensions></trkpt>
      <trkpt lon="-2.251406" lat="53.126615"><ele>96.675751</ele><time>2022-03-04T13:46:03Z</time><extensions><speed>1.416503</speed><course>249.033981</course><hAcc>1.707311</hAcc><vAcc>0.825823</vAcc></extensions></trkpt>
      <trkpt lon="-2.251427" lat="53.126611"><ele>96.658546</ele><time>2022-03-04T13:46:04Z</time><extensions><speed>1.450120</speed><course>252.606201</course><hAcc>1.694310</hAcc><vAcc>0.826209</vAcc></extensions></trkpt>
      <trkpt lon="-2.251448" lat="53.126607"><ele>96.645866</ele><time>2022-03-04T13:46:05Z</time><extensions><speed>1.498530</speed><course>253.268875</course><hAcc>1.679594</hAcc><vAcc>0.826628</vAcc></extensions></trkpt>
      <trkpt lon="-2.251470" lat="53.126603"><ele>96.636154</ele><time>2022-03-04T13:46:06Z</time><extensions><speed>1.525691</speed><course>252.894455</course><hAcc>1.670565</hAcc><vAcc>0.827082</vAcc></extensions></trkpt>
      <trkpt lon="-2.251491" lat="53.126599"><ele>96.645020</ele><time>2022-03-04T13:46:07Z</time><extensions><speed>1.520752</speed><course>253.109207</course><hAcc>1.674686</hAcc><vAcc>0.827549</vAcc></extensions></trkpt>
      <trkpt lon="-2.251513" lat="53.126595"><ele>96.643654</ele><time>2022-03-04T13:46:08Z</time><extensions><speed>1.522900</speed><course>253.945160</course><hAcc>1.660065</hAcc><vAcc>0.828014</vAcc></extensions></trkpt>
      <trkpt lon="-2.251535" lat="53.126591"><ele>96.639259</ele><time>2022-03-04T13:46:09Z</time><extensions><speed>1.518434</speed><course>253.736969</course><hAcc>1.656230</hAcc><vAcc>0.828442</vAcc></extensions></trkpt>
      <trkpt lon="-2.251557" lat="53.126587"><ele>96.638626</ele><time>2022-03-04T13:46:10Z</time><extensions><speed>1.499679</speed><course>252.967285</course><hAcc>1.645416</hAcc><vAcc>0.828835</vAcc></extensions></trkpt>
      <trkpt lon="-2.251577" lat="53.126583"><ele>96.635910</ele><time>2022-03-04T13:46:11Z</time><extensions><speed>1.351135</speed><course>252.093872</course><hAcc>1.665267</hAcc><vAcc>0.829167</vAcc></extensions></trkpt>
      <trkpt lon="-2.251595" lat="53.126579"><ele>96.643402</ele><time>2022-03-04T13:46:12Z</time><extensions><speed>1.240955</speed><course>249.549286</course><hAcc>1.648554</hAcc><vAcc>0.829449</vAcc></extensions></trkpt>
      <trkpt lon="-2.251612" lat="53.126576"><ele>96.656036</ele><time>2022-03-04T13:46:13Z</time><extensions><speed>1.197837</speed><course>248.886612</course><hAcc>1.655387</hAcc><vAcc>0.829678</vAcc></extensions></trkpt>
      <trkpt lon="-2.251630" lat="53.126572"><ele>96.679718</ele><time>2022-03-04T13:46:14Z</time><extensions><speed>1.259107</speed><course>249.568726</course><hAcc>1.675040</hAcc><vAcc>0.829834</vAcc></extensions></trkpt>
      <trkpt lon="-2.251648" lat="53.126568"><ele>96.723434</ele><time>2022-03-04T13:46:15Z</time><extensions><speed>1.370351</speed><course>252.966553</course><hAcc>1.673831</hAcc><vAcc>0.829922</vAcc></extensions></trkpt>
      <trkpt lon="-2.251668" lat="53.126565"><ele>96.761055</ele><time>2022-03-04T13:46:16Z</time><extensions><speed>1.379374</speed><course>256.302460</course><hAcc>1.679642</hAcc><vAcc>0.829910</vAcc></extensions></trkpt>
      <trkpt lon="-2.251688" lat="53.126562"><ele>96.796844</ele><time>2022-03-04T13:46:17Z</time><extensions><speed>1.380490</speed><course>260.215607</course><hAcc>1.684755</hAcc><vAcc>0.829779</vAcc></extensions></trkpt>
      <trkpt lon="-2.251708" lat="53.126560"><ele>96.833733</ele><time>2022-03-04T13:46:18Z</time><extensions><speed>1.326036</speed><course>263.415436</course><hAcc>1.700671</hAcc><vAcc>0.829544</vAcc></extensions></trkpt>
      <trkpt lon="-2.251727" lat="53.126560"><ele>96.873070</ele><time>2022-03-04T13:46:19Z</time><extensions><speed>1.198623</speed><course>268.857178</course><hAcc>1.713074</hAcc><vAcc>0.829221</vAcc></extensions></trkpt>
      <trkpt lon="-2.251743" lat="53.126560"><ele>96.914665</ele><time>2022-03-04T13:46:20Z</time><extensions><speed>1.050056</speed><course>275.507538</course><hAcc>1.698935</hAcc><vAcc>0.828800</vAcc></extensions></trkpt>
      <trkpt lon="-2.251758" lat="53.126561"><ele>96.951141</ele><time>2022-03-04T13:46:21Z</time><extensions><speed>0.906605</speed><course>282.861206</course><hAcc>1.691533</hAcc><vAcc>0.828317</vAcc></extensions></trkpt>
      <trkpt lon="-2.251769" lat="53.126564"><ele>96.989716</ele><time>2022-03-04T13:46:22Z</time><extensions><speed>0.781170</speed><course>291.151550</course><hAcc>1.684266</hAcc><vAcc>0.827739</vAcc></extensions></trkpt>
      <trkpt lon="-2.251778" lat="53.126566"><ele>97.027550</ele><time>2022-03-04T13:46:23Z</time><extensions><speed>0.597327</speed><course>305.618225</course><hAcc>1.671129</hAcc><vAcc>0.827130</vAcc></extensions></trkpt>
      <trkpt lon="-2.251784" lat="53.126570"><ele>97.063271</ele><time>2022-03-04T13:46:24Z</time><extensions><speed>0.449693</speed><course>323.496307</course><hAcc>1.648204</hAcc><vAcc>0.826485</vAcc></extensions></trkpt>
      <trkpt lon="-2.251786" lat="53.126573"><ele>97.095665</ele><time>2022-03-04T13:46:25Z</time><extensions><speed>0.289639</speed><course>352.848633</course><hAcc>1.625096</hAcc><vAcc>0.825815</vAcc></extensions></trkpt>
      <trkpt lon="-2.251785" lat="53.126575"><ele>97.123856</ele><time>2022-03-04T13:46:26Z</time><extensions><speed>0.170209</speed><course>36.595901</course><hAcc>1.627877</hAcc><vAcc>0.825147</vAcc></extensions></trkpt>
      <trkpt lon="-2.251783" lat="53.126576"><ele>97.147499</ele><time>2022-03-04T13:46:27Z</time><extensions><speed>0.178006</speed><course>59.059666</course><hAcc>1.607222</hAcc><vAcc>0.824498</vAcc></extensions></trkpt>
      <trkpt lon="-2.251781" lat="53.126576"><ele>97.166679</ele><time>2022-03-04T13:46:28Z</time><extensions><speed>0.175554</speed><course>67.945076</course><hAcc>1.583613</hAcc><vAcc>0.823906</vAcc></extensions></trkpt>
      <trkpt lon="-2.251779" lat="53.126577"><ele>97.181664</ele><time>2022-03-04T13:46:29Z</time><extensions><speed>0.165958</speed><course>73.989990</course><hAcc>1.564190</hAcc><vAcc>0.823394</vAcc></extensions></trkpt>
      <trkpt lon="-2.251776" lat="53.126577"><ele>97.192871</ele><time>2022-03-04T13:46:30Z</time><extensions><speed>0.153623</speed><course>78.889061</course><hAcc>1.550648</hAcc><vAcc>0.822978</vAcc></extensions></trkpt>
      <trkpt lon="-2.251773" lat="53.126577"><ele>97.182076</ele><time>2022-03-04T13:46:31Z</time><extensions><speed>0.148083</speed><course>82.927032</course><hAcc>1.538427</hAcc><vAcc>0.822673</vAcc></extensions></trkpt>
      <trkpt lon="-2.251771" lat="53.126577"><ele>97.165085</ele><time>2022-03-04T13:46:32Z</time><extensions><speed>0.142130</speed><course>85.300781</course><hAcc>1.520134</hAcc><vAcc>0.822485</vAcc></extensions></trkpt>
      <trkpt lon="-2.251769" lat="53.126577"><ele>97.149254</ele><time>2022-03-04T13:46:33Z</time><extensions><speed>0.117157</speed><course>88.510811</course><hAcc>1.509172</hAcc><vAcc>0.822408</vAcc></extensions></trkpt>
      <trkpt lon="-2.251768" lat="53.126577"><ele>97.134354</ele><time>2022-03-04T13:46:34Z</time><extensions><speed>0.095610</speed><course>92.771782</course><hAcc>1.499191</hAcc><vAcc>0.822437</vAcc></extensions></trkpt>
      <trkpt lon="-2.251766" lat="53.126577"><ele>97.102829</ele><time>2022-03-04T13:46:35Z</time><extensions><speed>0.081520</speed><course>99.201515</course><hAcc>1.489817</hAcc><vAcc>0.822545</vAcc></extensions></trkpt>
      <trkpt lon="-2.251765" lat="53.126577"><ele>97.070053</ele><time>2022-03-04T13:46:36Z</time><extensions><speed>0.073306</speed><course>106.483223</course><hAcc>1.486597</hAcc><vAcc>0.822685</vAcc></extensions></trkpt>
      <trkpt lon="-2.251765" lat="53.126576"><ele>97.037125</ele><time>2022-03-04T13:46:37Z</time><extensions><speed>0.062497</speed><course>114.460548</course><hAcc>1.496134</hAcc><vAcc>0.822861</vAcc></extensions></trkpt>
      <trkpt lon="-2.251764" lat="53.126576"><ele>97.013199</ele><time>2022-03-04T13:46:38Z</time><extensions><speed>0.070072</speed><course>122.850037</course><hAcc>1.498105</hAcc><vAcc>0.823027</vAcc></extensions></trkpt>
      <trkpt lon="-2.251763" lat="53.126576"><ele>96.978333</ele><time>2022-03-04T13:46:39Z</time><extensions><speed>0.072640</speed><course>133.407166</course><hAcc>1.515144</hAcc><vAcc>0.823197</vAcc></extensions></trkpt>
      <trkpt lon="-2.251763" lat="53.126575"><ele>96.948318</ele><time>2022-03-04T13:46:40Z</time><extensions><speed>0.082155</speed><course>156.214325</course><hAcc>1.534591</hAcc><vAcc>0.823278</vAcc></extensions></trkpt>
      <trkpt lon="-2.251763" lat="53.126574"><ele>96.924850</ele><time>2022-03-04T13:46:41Z</time><extensions><speed>0.143427</speed><course>202.499191</course><hAcc>1.551698</hAcc><vAcc>0.823091</vAcc></extensions></trkpt>
      <trkpt lon="-2.251765" lat="53.126573"><ele>96.904282</ele><time>2022-03-04T13:46:42Z</time><extensions><speed>0.345486</speed><course>229.746887</course><hAcc>1.574704</hAcc><vAcc>0.822798</vAcc></extensions></trkpt>
      <trkpt lon="-2.251772" lat="53.126570"><ele>96.888618</ele><time>2022-03-04T13:46:43Z</time><extensions><speed>0.816001</speed><course>238.062164</course><hAcc>1.581959</hAcc><vAcc>0.822332</vAcc></extensions></trkpt>
      <trkpt lon="-2.251784" lat="53.126565"><ele>96.872635</ele><time>2022-03-04T13:46:44Z</time><extensions><speed>1.085963</speed><course>237.974228</course><hAcc>1.637965</hAcc><vAcc>0.821815</vAcc></extensions></trkpt>
      <trkpt lon="-2.251798" lat="53.126560"><ele>96.878418</ele><time>2022-03-04T13:46:45Z</time><extensions><speed>1.100028</speed><course>232.210632</course><hAcc>1.685501</hAcc><vAcc>0.821126</vAcc></extensions></trkpt>
      <trkpt lon="-2.251811" lat="53.126554"><ele>96.879173</ele><time>2022-03-04T13:46:46Z</time><extensions><speed>1.140644</speed><course>234.165817</course><hAcc>1.698297</hAcc><vAcc>0.820469</vAcc></extensions></trkpt>
      <trkpt lon="-2.251825" lat="53.126548"><ele>96.892593</ele><time>2022-03-04T13:46:47Z</time><extensions><speed>1.144954</speed><course>238.141479</course><hAcc>1.707525</hAcc><vAcc>0.819778</vAcc></extensions></trkpt>
      <trkpt lon="-2.251840" lat="53.126543"><ele>96.919853</ele><time>2022-03-04T13:46:48Z</time><extensions><speed>1.011554</speed><course>242.394775</course><hAcc>1.719256</hAcc><vAcc>0.819071</vAcc></extensions></trkpt>
      <trkpt lon="-2.251851" lat="53.126540"><ele>96.943291</ele><time>2022-03-04T13:46:49Z</time><extensions><speed>0.631585</speed><course>247.599976</course><hAcc>1.727602</hAcc><vAcc>0.818405</vAcc></extensions></trkpt>
      <trkpt lon="-2.251857" lat="53.126539"><ele>96.980507</ele><time>2022-03-04T13:46:50Z</time><extensions><speed>0.246795</speed><course>265.864563</course><hAcc>1.738389</hAcc><vAcc>0.817849</vAcc></extensions></trkpt>
      <trkpt lon="-2.251860" lat="53.126539"><ele>97.026711</ele><time>2022-03-04T13:46:51Z</time><extensions><speed>0.160020</speed><course>306.327118</course><hAcc>1.738814</hAcc><vAcc>0.817480</vAcc></extensions></trkpt>
      <trkpt lon="-2.251862" lat="53.126540"><ele>97.074188</ele><time>2022-03-04T13:46:52Z</time><extensions><speed>0.196780</speed><course>317.902100</course><hAcc>1.749350</hAcc><vAcc>0.817366</vAcc></extensions></trkpt>
      <trkpt lon="-2.251865" lat="53.126542"><ele>97.080635</ele><time>2022-03-04T13:46:53Z</time><extensions><speed>0.313562</speed><course>301.014923</course><hAcc>1.749417</hAcc><vAcc>0.817554</vAcc></extensions></trkpt>
      <trkpt lon="-2.251871" lat="53.126543"><ele>97.085037</ele><time>2022-03-04T13:46:54Z</time><extensions><speed>0.550982</speed><course>281.099457</course><hAcc>1.746711</hAcc><vAcc>0.818028</vAcc></extensions></trkpt>
      <trkpt lon="-2.251882" lat="53.126543"><ele>97.101410</ele><time>2022-03-04T13:46:55Z</time><extensions><speed>0.984374</speed><course>267.928864</course><hAcc>1.740498</hAcc><vAcc>0.818760</vAcc></extensions></trkpt>
      <trkpt lon="-2.251899" lat="53.126542"><ele>97.115608</ele><time>2022-03-04T13:46:56Z</time><extensions><speed>1.270325</speed><course>263.195221</course><hAcc>1.739830</hAcc><vAcc>0.819678</vAcc></extensions></trkpt>
      <trkpt lon="-2.251919" lat="53.126541"><ele>97.128220</ele><time>2022-03-04T13:46:57Z</time><extensions><speed>1.410509</speed><course>261.081299</course><hAcc>1.734837</hAcc><vAcc>0.820715</vAcc></extensions></trkpt>
      <trkpt lon="-2.251940" lat="53.126539"><ele>97.150085</ele><time>2022-03-04T13:46:58Z</time><extensions><speed>1.457766</speed><course>261.878876</course><hAcc>1.727045</hAcc><vAcc>0.821781</vAcc></extensions></trkpt>
      <trkpt lon="-2.251962" lat="53.126537"><ele>97.155365</ele><time>2022-03-04T13:46:59Z</time><extensions><speed>1.511975</speed><course>261.041046</course><hAcc>1.722065</hAcc><vAcc>0.822799</vAcc></extensions></trkpt>
      <trkpt lon="-2.251984" lat="53.126535"><ele>97.157867</ele><time>2022-03-04T13:47:00Z</time><extensions><speed>1.504447</speed><course>260.360992</course><hAcc>1.716779</hAcc><vAcc>0.823750</vAcc></extensions></trkpt>
      <trkpt lon="-2.252006" lat="53.126532"><ele>97.163429</ele><time>2022-03-04T13:47:01Z</time><extensions><speed>1.473479</speed><course>258.678223</course><hAcc>1.702769</hAcc><vAcc>0.824607</vAcc></extensions></trkpt>
      <trkpt lon="-2.252027" lat="53.126529"><ele>97.147934</ele><time>2022-03-04T13:47:02Z</time><extensions><speed>1.382162</speed><course>255.307648</course><hAcc>1.701465</hAcc><vAcc>0.825336</vAcc></extensions></trkpt>
      <trkpt lon="-2.252046" lat="53.126526"><ele>97.145271</ele><time>2022-03-04T13:47:03Z</time><extensions><speed>1.274180</speed><course>252.900223</course><hAcc>1.698969</hAcc><vAcc>0.825957</vAcc></extensions></trkpt>
      <trkpt lon="-2.252063" lat="53.126523"><ele>97.151848</ele><time>2022-03-04T13:47:04Z</time><extensions><speed>1.130579</speed><course>258.912384</course><hAcc>1.686132</hAcc><vAcc>0.826456</vAcc></extensions></trkpt>
      <trkpt lon="-2.252080" lat="53.126522"><ele>97.143417</ele><time>2022-03-04T13:47:05Z</time><extensions><speed>1.081139</speed><course>266.380219</course><hAcc>1.686295</hAcc><vAcc>0.826850</vAcc></extensions></trkpt>
      <trkpt lon="-2.252096" lat="53.126522"><ele>97.126106</ele><time>2022-03-04T13:47:06Z</time><extensions><speed>1.041089</speed><course>267.089569</course><hAcc>1.689811</hAcc><vAcc>0.827146</vAcc></extensions></trkpt>
      <trkpt lon="-2.252112" lat="53.126521"><ele>97.117554</ele><time>2022-03-04T13:47:07Z</time><extensions><speed>1.160389</speed><course>265.892517</course><hAcc>1.660538</hAcc><vAcc>0.827348</vAcc></extensions></trkpt>
      <trkpt lon="-2.252130" lat="53.126520"><ele>97.105522</ele><time>2022-03-04T13:47:08Z</time><extensions><speed>1.240236</speed><course>264.192230</course><hAcc>1.640735</hAcc><vAcc>0.827475</vAcc></extensions></trkpt>
      <trkpt lon="-2.252149" lat="53.126519"><ele>97.069969</ele><time>2022-03-04T13:47:09Z</time><extensions><speed>1.321558</speed><course>262.718750</course><hAcc>1.633373</hAcc><vAcc>0.827550</vAcc></extensions></trkpt>
      <trkpt lon="-2.252169" lat="53.126517"><ele>97.040604</ele><time>2022-03-04T13:47:10Z</time><extensions><speed>1.398050</speed><course>261.056580</course><hAcc>1.658012</hAcc><vAcc>0.827575</vAcc></extensions></trkpt>
      <trkpt lon="-2.252190" lat="53.126515"><ele>97.013626</ele><time>2022-03-04T13:47:11Z</time><extensions><speed>1.444589</speed><course>258.833557</course><hAcc>1.663301</hAcc><vAcc>0.827566</vAcc></extensions></trkpt>
      <trkpt lon="-2.252211" lat="53.126512"><ele>96.979424</ele><time>2022-03-04T13:47:12Z</time><extensions><speed>1.404247</speed><course>257.602631</course><hAcc>1.629642</hAcc><vAcc>0.827533</vAcc></extensions></trkpt>
      <trkpt lon="-2.252232" lat="53.126509"><ele>96.940544</ele><time>2022-03-04T13:47:14Z</time><extensions><speed>1.377349</speed><course>257.427490</course><hAcc>1.595048</hAcc><vAcc>0.827445</vAcc></extensions></trkpt>
      <trkpt lon="-2.252252" lat="53.126506"><ele>96.893250</ele><time>2022-03-04T13:47:15Z</time><extensions><speed>1.374318</speed><course>256.359833</course><hAcc>1.583256</hAcc><vAcc>0.827325</vAcc></extensions></trkpt>
      <trkpt lon="-2.252272" lat="53.126503"><ele>96.847694</ele><time>2022-03-04T13:47:16Z</time><extensions><speed>1.383900</speed><course>252.463608</course><hAcc>1.584511</hAcc><vAcc>0.827201</vAcc></extensions></trkpt>
      <trkpt lon="-2.252291" lat="53.126499"><ele>96.803223</ele><time>2022-03-04T13:47:17Z</time><extensions><speed>1.301540</speed><course>247.948608</course><hAcc>1.623818</hAcc><vAcc>0.827085</vAcc></extensions></trkpt>
      <trkpt lon="-2.252309" lat="53.126494"><ele>96.766838</ele><time>2022-03-04T13:47:18Z</time><extensions><speed>1.289997</speed><course>241.387085</course><hAcc>1.633515</hAcc><vAcc>0.826951</vAcc></extensions></trkpt>
      <trkpt lon="-2.252327" lat="53.126488"><ele>96.747238</ele><time>2022-03-04T13:47:19Z</time><extensions><speed>1.367763</speed><course>241.608932</course><hAcc>1.575670</hAcc><vAcc>0.826822</vAcc></extensions></trkpt>
      <trkpt lon="-2.252344" lat="53.126483"><ele>96.726738</ele><time>2022-03-04T13:47:20Z</time><extensions><speed>1.338777</speed><course>241.124893</course><hAcc>1.554026</hAcc><vAcc>0.826689</vAcc></extensions></trkpt>
      <trkpt lon="-2.252362" lat="53.126477"><ele>96.710037</ele><time>2022-03-04T13:47:21Z</time><extensions><speed>1.273352</speed><course>240.564667</course><hAcc>1.568325</hAcc><vAcc>0.826580</vAcc></extensions></trkpt>
      <trkpt lon="-2.252378" lat="53.126471"><ele>96.682861</ele><time>2022-03-04T13:47:22Z</time><extensions><speed>1.207974</speed><course>239.829041</course><hAcc>1.614279</hAcc><vAcc>0.826491</vAcc></extensions></trkpt>
      <trkpt lon="-2.252393" lat="53.126466"><ele>96.661629</ele><time>2022-03-04T13:47:23Z</time><extensions><speed>1.061298</speed><course>238.401443</course><hAcc>1.655526</hAcc><vAcc>0.826434</vAcc></extensions></trkpt>
      <trkpt lon="-2.252408" lat="53.126461"><ele>96.657310</ele><time>2022-03-04T13:47:24Z</time><extensions><speed>1.279706</speed><course>245.641037</course><hAcc>1.602930</hAcc><vAcc>0.826396</vAcc></extensions></trkpt>
      <trkpt lon="-2.252427" lat="53.126457"><ele>96.665840</ele><time>2022-03-04T13:47:25Z</time><extensions><speed>1.447282</speed><course>251.822968</course><hAcc>1.587365</hAcc><vAcc>0.826374</vAcc></extensions></trkpt>
      <trkpt lon="-2.252449" lat="53.126453"><ele>96.674820</ele><time>2022-03-04T13:47:26Z</time><extensions><speed>1.574015</speed><course>254.093796</course><hAcc>1.598712</hAcc><vAcc>0.826358</vAcc></extensions></trkpt>
      <trkpt lon="-2.252472" lat="53.126449"><ele>96.688431</ele><time>2022-03-04T13:47:27Z</time><extensions><speed>1.647061</speed><course>256.079071</course><hAcc>1.600403</hAcc><vAcc>0.826349</vAcc></extensions></trkpt>
      <trkpt lon="-2.252496" lat="53.126445"><ele>96.693146</ele><time>2022-03-04T13:47:28Z</time><extensions><speed>1.656303</speed><course>256.208588</course><hAcc>1.612536</hAcc><vAcc>0.826355</vAcc></extensions></trkpt>
      <trkpt lon="-2.252520" lat="53.126442"><ele>96.701675</ele><time>2022-03-04T13:47:29Z</time><extensions><speed>1.639730</speed><course>256.816681</course><hAcc>1.637955</hAcc><vAcc>0.826370</vAcc></extensions></trkpt>
      <trkpt lon="-2.252543" lat="53.126439"><ele>96.721077</ele><time>2022-03-04T13:47:30Z</time><extensions><speed>1.541531</speed><course>256.406311</course><hAcc>1.665198</hAcc><vAcc>0.826381</vAcc></extensions></trkpt>
      <trkpt lon="-2.252566" lat="53.126435"><ele>96.747520</ele><time>2022-03-04T13:47:31Z</time><extensions><speed>1.566972</speed><course>255.990814</course><hAcc>1.621627</hAcc><vAcc>0.826386</vAcc></extensions></trkpt>
      <trkpt lon="-2.252588" lat="53.126432"><ele>96.763100</ele><time>2022-03-04T13:47:32Z</time><extensions><speed>1.510142</speed><course>254.609283</course><hAcc>1.623785</hAcc><vAcc>0.826386</vAcc></extensions></trkpt>
      <trkpt lon="-2.252609" lat="53.126428"><ele>96.786545</ele><time>2022-03-04T13:47:33Z</time><extensions><speed>1.490155</speed><course>250.220825</course><hAcc>1.634663</hAcc><vAcc>0.826380</vAcc></extensions></trkpt>
      <trkpt lon="-2.252630" lat="53.126423"><ele>96.796738</ele><time>2022-03-04T13:47:34Z</time><extensions><speed>1.495640</speed><course>245.935745</course><hAcc>1.665840</hAcc><vAcc>0.826360</vAcc></extensions></trkpt>
      <trkpt lon="-2.252650" lat="53.126417"><ele>96.792618</ele><time>2022-03-04T13:47:35Z</time><extensions><speed>1.473105</speed><course>243.476776</course><hAcc>1.669609</hAcc><vAcc>0.826331</vAcc></extensions></trkpt>
      <trkpt lon="-2.252669" lat="53.126411"><ele>96.779564</ele><time>2022-03-04T13:47:36Z</time><extensions><speed>1.389477</speed><course>241.988419</course><hAcc>1.681417</hAcc><vAcc>0.826298</vAcc></extensions></trkpt>
      <trkpt lon="-2.252686" lat="53.126405"><ele>96.758125</ele><time>2022-03-04T13:47:37Z</time><extensions><speed>1.306296</speed><course>238.795670</course><hAcc>1.692067</hAcc><vAcc>0.826269</vAcc></extensions></trkpt>
      <trkpt lon="-2.252702" lat="53.126399"><ele>96.730095</ele><time>2022-03-04T13:47:38Z</time><extensions><speed>1.173517</speed><course>234.623611</course><hAcc>1.697578</hAcc><vAcc>0.826235</vAcc></extensions></trkpt>
      <trkpt lon="-2.252715" lat="53.126393"><ele>96.692741</ele><time>2022-03-04T13:47:39Z</time><extensions><speed>1.104700</speed><course>231.947540</course><hAcc>1.700264</hAcc><vAcc>0.826211</vAcc></extensions></trkpt>
      <trkpt lon="-2.252727" lat="53.126387"><ele>96.649414</ele><time>2022-03-04T13:47:40Z</time><extensions><speed>1.028906</speed><course>229.611847</course><hAcc>1.696472</hAcc><vAcc>0.826195</vAcc></extensions></trkpt>
      <trkpt lon="-2.252738" lat="53.126381"><ele>96.587250</ele><time>2022-03-04T13:47:41Z</time><extensions><speed>0.919698</speed><course>228.653748</course><hAcc>1.692510</hAcc><vAcc>0.826182</vAcc></extensions></trkpt>
      <trkpt lon="-2.252749" lat="53.126376"><ele>96.507042</ele><time>2022-03-04T13:47:42Z</time><extensions><speed>0.908438</speed><course>231.043610</course><hAcc>1.696830</hAcc><vAcc>0.826160</vAcc></extensions></trkpt>
      <trkpt lon="-2.252760" lat="53.126371"><ele>96.424294</ele><time>2022-03-04T13:47:43Z</time><extensions><speed>0.924632</speed><course>232.586029</course><hAcc>1.704982</hAcc><vAcc>0.826143</vAcc></extensions></trkpt>
      <trkpt lon="-2.252770" lat="53.126366"><ele>96.321579</ele><time>2022-03-04T13:47:44Z</time><extensions><speed>0.833123</speed><course>230.098251</course><hAcc>1.694778</hAcc><vAcc>0.826149</vAcc></extensions></trkpt>
      <trkpt lon="-2.252779" lat="53.126361"><ele>96.212532</ele><time>2022-03-04T13:47:45Z</time><extensions><speed>0.710193</speed><course>226.973892</course><hAcc>1.692889</hAcc><vAcc>0.826128</vAcc></extensions></trkpt>
      <trkpt lon="-2.252785" lat="53.126357"><ele>96.115784</ele><time>2022-03-04T13:47:46Z</time><extensions><speed>0.438274</speed><course>220.303925</course><hAcc>1.692908</hAcc><vAcc>0.826036</vAcc></extensions></trkpt>
      <trkpt lon="-2.252787" lat="53.126355"><ele>96.014046</ele><time>2022-03-04T13:47:47Z</time><extensions><speed>0.125401</speed><course>180.057648</course><hAcc>1.688508</hAcc><vAcc>0.825889</vAcc></extensions></trkpt>
      <trkpt lon="-2.252786" lat="53.126355"><ele>95.911690</ele><time>2022-03-04T13:47:48Z</time><extensions><speed>0.078707</speed><course>116.760002</course><hAcc>1.690811</hAcc><vAcc>0.825698</vAcc></extensions></trkpt>
      <trkpt lon="-2.252786" lat="53.126354"><ele>95.823853</ele><time>2022-03-04T13:47:49Z</time><extensions><speed>0.023868</speed><course>83.736351</course><hAcc>1.709145</hAcc><vAcc>0.825524</vAcc></extensions></trkpt>
      <trkpt lon="-2.252786" lat="53.126355"><ele>95.750977</ele><time>2022-03-04T13:47:50Z</time><extensions><speed>0.096269</speed><course>283.324280</course><hAcc>1.719546</hAcc><vAcc>0.825336</vAcc></extensions></trkpt>
      <trkpt lon="-2.252789" lat="53.126355"><ele>95.656349</ele><time>2022-03-04T13:47:51Z</time><extensions><speed>0.323562</speed><course>279.240692</course><hAcc>1.708487</hAcc><vAcc>0.825117</vAcc></extensions></trkpt>
      <trkpt lon="-2.252797" lat="53.126356"><ele>95.575821</ele><time>2022-03-04T13:47:52Z</time><extensions><speed>0.673459</speed><course>278.273407</course><hAcc>1.714189</hAcc><vAcc>0.824914</vAcc></extensions></trkpt>
      <trkpt lon="-2.252809" lat="53.126356"><ele>95.492424</ele><time>2022-03-04T13:47:53Z</time><extensions><speed>0.899875</speed><course>276.446014</course><hAcc>1.727403</hAcc><vAcc>0.824717</vAcc></extensions></trkpt>
      <trkpt lon="-2.252823" lat="53.126357"><ele>95.449951</ele><time>2022-03-04T13:47:54Z</time><extensions><speed>1.041044</speed><course>275.565186</course><hAcc>1.737669</hAcc><vAcc>0.824506</vAcc></extensions></trkpt>
      <trkpt lon="-2.252840" lat="53.126358"><ele>95.383247</ele><time>2022-03-04T13:47:55Z</time><extensions><speed>1.273529</speed><course>274.016754</course><hAcc>1.740472</hAcc><vAcc>0.824276</vAcc></extensions></trkpt>
      <trkpt lon="-2.252861" lat="53.126359"><ele>95.335991</ele><time>2022-03-04T13:47:56Z</time><extensions><speed>1.409922</speed><course>269.723053</course><hAcc>1.743537</hAcc><vAcc>0.824111</vAcc></extensions></trkpt>
      <trkpt lon="-2.252882" lat="53.126358"><ele>95.292679</ele><time>2022-03-04T13:47:57Z</time><extensions><speed>1.496463</speed><course>265.257935</course><hAcc>1.748551</hAcc><vAcc>0.824010</vAcc></extensions></trkpt>
      <trkpt lon="-2.252905" lat="53.126356"><ele>95.262932</ele><time>2022-03-04T13:47:58Z</time><extensions><speed>1.596469</speed><course>261.579010</course><hAcc>1.748765</hAcc><vAcc>0.823994</vAcc></extensions></trkpt>
      <trkpt lon="-2.252930" lat="53.126354"><ele>95.221977</ele><time>2022-03-04T13:47:59Z</time><extensions><speed>1.688961</speed><course>258.697876</course><hAcc>1.746662</hAcc><vAcc>0.824073</vAcc></extensions></trkpt>
      <trkpt lon="-2.252955" lat="53.126350"><ele>95.192261</ele><time>2022-03-04T13:48:00Z</time><extensions><speed>1.733090</speed><course>256.656708</course><hAcc>1.739331</hAcc><vAcc>0.824241</vAcc></extensions></trkpt>
      <trkpt lon="-2.252980" lat="53.126347"><ele>95.192764</ele><time>2022-03-04T13:48:01Z</time><extensions><speed>1.728095</speed><course>255.083328</course><hAcc>1.729845</hAcc><vAcc>0.824479</vAcc></extensions></trkpt>
      <trkpt lon="-2.253005" lat="53.126343"><ele>95.204521</ele><time>2022-03-04T13:48:02Z</time><extensions><speed>1.692978</speed><course>255.235382</course><hAcc>1.727906</hAcc><vAcc>0.824783</vAcc></extensions></trkpt>
      <trkpt lon="-2.253028" lat="53.126339"><ele>95.225372</ele><time>2022-03-04T13:48:03Z</time><extensions><speed>1.576049</speed><course>256.728363</course><hAcc>1.725384</hAcc><vAcc>0.825128</vAcc></extensions></trkpt>
      <trkpt lon="-2.253050" lat="53.126336"><ele>95.251846</ele><time>2022-03-04T13:48:04Z</time><extensions><speed>1.448687</speed><course>258.321014</course><hAcc>1.724095</hAcc><vAcc>0.825499</vAcc></extensions></trkpt>
      <trkpt lon="-2.253071" lat="53.126334"><ele>95.280556</ele><time>2022-03-04T13:48:05Z</time><extensions><speed>1.337612</speed><course>258.351868</course><hAcc>1.715663</hAcc><vAcc>0.825898</vAcc></extensions></trkpt>
      <trkpt lon="-2.253090" lat="53.126331"><ele>95.313080</ele><time>2022-03-04T13:48:05Z</time><extensions><speed>1.236877</speed><course>257.994293</course><hAcc>1.699757</hAcc><vAcc>0.826269</vAcc></extensions></trkpt>
      <trkpt lon="-2.253107" lat="53.126329"><ele>95.351288</ele><time>2022-03-04T13:48:06Z</time><extensions><speed>1.121942</speed><course>258.720245</course><hAcc>1.693504</hAcc><vAcc>0.826587</vAcc></extensions></trkpt>
      <trkpt lon="-2.253123" lat="53.126327"><ele>95.393631</ele><time>2022-03-04T13:48:07Z</time><extensions><speed>1.145321</speed><course>259.632782</course><hAcc>1.691533</hAcc><vAcc>0.826827</vAcc></extensions></trkpt>
      <trkpt lon="-2.253140" lat="53.126326"><ele>95.441689</ele><time>2022-03-04T13:48:08Z</time><extensions><speed>1.137478</speed><course>261.385162</course><hAcc>1.707030</hAcc><vAcc>0.826990</vAcc></extensions></trkpt>
      <trkpt lon="-2.253157" lat="53.126325"><ele>95.497887</ele><time>2022-03-04T13:48:09Z</time><extensions><speed>1.218087</speed><course>263.812653</course><hAcc>1.691684</hAcc><vAcc>0.827078</vAcc></extensions></trkpt>
      <trkpt lon="-2.253176" lat="53.126323"><ele>95.557755</ele><time>2022-03-04T13:48:10Z</time><extensions><speed>1.253255</speed><course>264.459930</course><hAcc>1.698685</hAcc><vAcc>0.827144</vAcc></extensions></trkpt>
      <trkpt lon="-2.253194" lat="53.126323"><ele>95.628525</ele><time>2022-03-04T13:48:11Z</time><extensions><speed>1.168698</speed><course>267.011017</course><hAcc>1.693534</hAcc><vAcc>0.827134</vAcc></extensions></trkpt>
      <trkpt lon="-2.253210" lat="53.126322"><ele>95.696503</ele><time>2022-03-04T13:48:12Z</time><extensions><speed>0.965678</speed><course>269.577209</course><hAcc>1.702293</hAcc><vAcc>0.827038</vAcc></extensions></trkpt>
      <trkpt lon="-2.253221" lat="53.126323"><ele>95.746918</ele><time>2022-03-04T13:48:13Z</time><extensions><speed>0.633517</speed><course>278.030182</course><hAcc>1.706038</hAcc><vAcc>0.826869</vAcc></extensions></trkpt>
      <trkpt lon="-2.253228" lat="53.126324"><ele>95.816902</ele><time>2022-03-04T13:48:14Z</time><extensions><speed>0.311180</speed><course>311.087189</course><hAcc>1.716441</hAcc><vAcc>0.826623</vAcc></extensions></trkpt>
      <trkpt lon="-2.253229" lat="53.126326"><ele>95.888756</ele><time>2022-03-04T13:48:15Z</time><extensions><speed>0.281402</speed><course>15.536717</course><hAcc>1.728849</hAcc><vAcc>0.826271</vAcc></extensions></trkpt>
      <trkpt lon="-2.253228" lat="53.126329"><ele>95.965729</ele><time>2022-03-04T13:48:16Z</time><extensions><speed>0.343232</speed><course>28.670616</course><hAcc>1.742699</hAcc><vAcc>0.825873</vAcc></extensions></trkpt>
      <trkpt lon="-2.253226" lat="53.126331"><ele>96.026878</ele><time>2022-03-04T13:48:17Z</time><extensions><speed>0.302225</speed><course>16.332697</course><hAcc>1.752558</hAcc><vAcc>0.825406</vAcc></extensions></trkpt>
      <trkpt lon="-2.253226" lat="53.126334"><ele>96.108063</ele><time>2022-03-04T13:48:18Z</time><extensions><speed>0.283501</speed><course>329.100891</course><hAcc>1.751091</hAcc><vAcc>0.824912</vAcc></extensions></trkpt>
      <trkpt lon="-2.253231" lat="53.126336"><ele>96.173164</ele><time>2022-03-04T13:48:19Z</time><extensions><speed>0.546871</speed><course>287.175232</course><hAcc>1.742864</hAcc><vAcc>0.824353</vAcc></extensions></trkpt>
      <trkpt lon="-2.253241" lat="53.126336"><ele>96.241714</ele><time>2022-03-04T13:48:20Z</time><extensions><speed>0.813117</speed><course>268.595032</course><hAcc>1.756711</hAcc><vAcc>0.823736</vAcc></extensions></trkpt>
      <trkpt lon="-2.253255" lat="53.126336"><ele>96.301834</ele><time>2022-03-04T13:48:21Z</time><extensions><speed>1.041439</speed><course>265.240631</course><hAcc>1.752061</hAcc><vAcc>0.823194</vAcc></extensions></trkpt>
      <trkpt lon="-2.253272" lat="53.126335"><ele>96.342766</ele><time>2022-03-04T13:48:22Z</time><extensions><speed>1.220849</speed><course>264.942566</course><hAcc>1.744033</hAcc><vAcc>0.822645</vAcc></extensions></trkpt>
      <trkpt lon="-2.253290" lat="53.126334"><ele>96.366966</ele><time>2022-03-04T13:48:23Z</time><extensions><speed>1.261714</speed><course>269.039520</course><hAcc>1.739671</hAcc><vAcc>0.822072</vAcc></extensions></trkpt>
      <trkpt lon="-2.253308" lat="53.126335"><ele>96.380325</ele><time>2022-03-04T13:48:24Z</time><extensions><speed>1.184954</speed><course>281.281311</course><hAcc>1.720639</hAcc><vAcc>0.821448</vAcc></extensions></trkpt>
      <trkpt lon="-2.253324" lat="53.126339"><ele>96.381477</ele><time>2022-03-04T13:48:25Z</time><extensions><speed>1.101181</speed><course>299.268707</course><hAcc>1.718662</hAcc><vAcc>0.820742</vAcc></extensions></trkpt>
      <trkpt lon="-2.253336" lat="53.126345"><ele>96.385361</ele><time>2022-03-04T13:48:26Z</time><extensions><speed>1.016812</speed><course>323.891449</course><hAcc>1.738654</hAcc><vAcc>0.819992</vAcc></extensions></trkpt>
      <trkpt lon="-2.253343" lat="53.126353"><ele>96.369980</ele><time>2022-03-04T13:48:27Z</time><extensions><speed>1.055490</speed><course>338.993866</course><hAcc>1.729503</hAcc><vAcc>0.819131</vAcc></extensions></trkpt>
      <trkpt lon="-2.253347" lat="53.126362"><ele>96.361862</ele><time>2022-03-04T13:48:28Z</time><extensions><speed>1.046872</speed><course>347.490051</course><hAcc>1.730827</hAcc><vAcc>0.817890</vAcc></extensions></trkpt>
      <trkpt lon="-2.253350" lat="53.126371"><ele>96.316330</ele><time>2022-03-04T13:48:29Z</time><extensions><speed>0.937315</speed><course>355.313660</course><hAcc>1.734810</hAcc><vAcc>0.816807</vAcc></extensions></trkpt>
      <trkpt lon="-2.253350" lat="53.126378"><ele>96.283585</ele><time>2022-03-04T13:48:30Z</time><extensions><speed>0.579971</speed><course>8.990197</course><hAcc>1.735115</hAcc><vAcc>0.815969</vAcc></extensions></trkpt>
      <trkpt lon="-2.253348" lat="53.126382"><ele>96.262955</ele><time>2022-03-04T13:48:31Z</time><extensions><speed>0.326129</speed><course>33.302399</course><hAcc>1.747203</hAcc><vAcc>0.815197</vAcc></extensions></trkpt>
      <trkpt lon="-2.253345" lat="53.126384"><ele>96.232033</ele><time>2022-03-04T13:48:32Z</time><extensions><speed>0.292565</speed><course>38.204620</course><hAcc>1.755016</hAcc><vAcc>0.814466</vAcc></extensions></trkpt>
      <trkpt lon="-2.253343" lat="53.126387"><ele>96.197723</ele><time>2022-03-04T13:48:33Z</time><extensions><speed>0.379928</speed><course>18.772167</course><hAcc>1.764201</hAcc><vAcc>0.813760</vAcc></extensions></trkpt>
      <trkpt lon="-2.253342" lat="53.126390"><ele>96.160889</ele><time>2022-03-04T13:48:34Z</time><extensions><speed>0.435073</speed><course>357.552795</course><hAcc>1.784360</hAcc><vAcc>0.813133</vAcc></extensions></trkpt>
      <trkpt lon="-2.253343" lat="53.126395"><ele>96.120064</ele><time>2022-03-04T13:48:35Z</time><extensions><speed>0.651089</speed><course>348.128815</course><hAcc>1.789157</hAcc><vAcc>0.812599</vAcc></extensions></trkpt>
      <trkpt lon="-2.253346" lat="53.126402"><ele>96.080978</ele><time>2022-03-04T13:48:36Z</time><extensions><speed>0.990694</speed><course>346.263184</course><hAcc>1.775816</hAcc><vAcc>0.812212</vAcc></extensions></trkpt>
      <trkpt lon="-2.253350" lat="53.126412"><ele>96.049423</ele><time>2022-03-04T13:48:37Z</time><extensions><speed>1.160810</speed><course>345.823303</course><hAcc>1.767982</hAcc><vAcc>0.812068</vAcc></extensions></trkpt>
      <trkpt lon="-2.253354" lat="53.126423"><ele>96.024925</ele><time>2022-03-04T13:48:38Z</time><extensions><speed>1.341362</speed><course>349.279572</course><hAcc>1.748311</hAcc><vAcc>0.812215</vAcc></extensions></trkpt>
      <trkpt lon="-2.253357" lat="53.126435"><ele>96.002731</ele><time>2022-03-04T13:48:39Z</time><extensions><speed>1.436353</speed><course>352.051544</course><hAcc>1.737548</hAcc><vAcc>0.812682</vAcc></extensions></trkpt>
      <trkpt lon="-2.253360" lat="53.126448"><ele>96.006760</ele><time>2022-03-04T13:48:40Z</time><extensions><speed>1.414767</speed><course>353.334808</course><hAcc>1.724094</hAcc><vAcc>0.813471</vAcc></extensions></trkpt>
      <trkpt lon="-2.253364" lat="53.126460"><ele>96.015831</ele><time>2022-03-04T13:48:41Z</time><extensions><speed>1.352383</speed><course>347.670563</course><hAcc>1.695947</hAcc><vAcc>0.814467</vAcc></extensions></trkpt>
      <trkpt lon="-2.253370" lat="53.126471"><ele>96.017090</ele><time>2022-03-04T13:48:42Z</time><extensions><speed>1.233584</speed><course>336.882019</course><hAcc>1.668940</hAcc><vAcc>0.815569</vAcc></extensions></trkpt>
      <trkpt lon="-2.253378" lat="53.126481"><ele>96.022629</ele><time>2022-03-04T13:48:43Z</time><extensions><speed>1.079811</speed><course>326.560974</course><hAcc>1.650593</hAcc><vAcc>0.816722</vAcc></extensions></trkpt>
      <trkpt lon="-2.253387" lat="53.126488"><ele>96.034050</ele><time>2022-03-04T13:48:44Z</time><extensions><speed>0.903737</speed><course>317.515045</course><hAcc>1.664383</hAcc><vAcc>0.817868</vAcc></extensions></trkpt>
      <trkpt lon="-2.253396" lat="53.126494"><ele>96.052238</ele><time>2022-03-04T13:48:45Z</time><extensions><speed>1.032566</speed><course>324.435333</course><hAcc>1.627816</hAcc><vAcc>0.818960</vAcc></extensions></trkpt>
      <trkpt lon="-2.253404" lat="53.126503"><ele>96.066803</ele><time>2022-03-04T13:48:46Z</time><extensions><speed>1.190810</speed><course>333.954926</course><hAcc>1.621129</hAcc><vAcc>0.819964</vAcc></extensions></trkpt>
      <trkpt lon="-2.253411" lat="53.126514"><ele>96.075714</ele><time>2022-03-04T13:48:47Z</time><extensions><speed>1.414645</speed><course>340.963104</course><hAcc>1.594072</hAcc><vAcc>0.820876</vAcc></extensions></trkpt>
      <trkpt lon="-2.253418" lat="53.126527"><ele>96.088898</ele><time>2022-03-04T13:48:48Z</time><extensions><speed>1.576428</speed><course>343.327423</course><hAcc>1.572000</hAcc><vAcc>0.821696</vAcc></extensions></trkpt>
      <trkpt lon="-2.253425" lat="53.126541"><ele>96.107925</ele><time>2022-03-04T13:48:49Z</time><extensions><speed>1.688022</speed><course>343.599609</course><hAcc>1.575278</hAcc><vAcc>0.822434</vAcc></extensions></trkpt>
      <trkpt lon="-2.253431" lat="53.126554"><ele>96.128159</ele><time>2022-03-04T13:48:50Z</time><extensions><speed>1.505470</speed><course>342.421936</course><hAcc>1.618699</hAcc><vAcc>0.823086</vAcc></extensions></trkpt>
      <trkpt lon="-2.253439" lat="53.126566"><ele>96.146713</ele><time>2022-03-04T13:48:51Z</time><extensions><speed>1.339070</speed><course>334.145050</course><hAcc>1.651971</hAcc><vAcc>0.823649</vAcc></extensions></trkpt>
      <trkpt lon="-2.253448" lat="53.126576"><ele>96.164406</ele><time>2022-03-04T13:48:52Z</time><extensions><speed>1.088284</speed><course>330.017792</course><hAcc>1.600996</hAcc><vAcc>0.824124</vAcc></extensions></trkpt>
      <trkpt lon="-2.253455" lat="53.126583"><ele>96.190155</ele><time>2022-03-04T13:48:53Z</time><extensions><speed>0.805961</speed><course>331.007935</course><hAcc>1.602881</hAcc><vAcc>0.824518</vAcc></extensions></trkpt>
      <trkpt lon="-2.253459" lat="53.126589"><ele>96.220184</ele><time>2022-03-04T13:48:54Z</time><extensions><speed>0.534843</speed><course>340.415466</course><hAcc>1.644317</hAcc><vAcc>0.824825</vAcc></extensions></trkpt>
      <trkpt lon="-2.253459" lat="53.126592"><ele>96.250267</ele><time>2022-03-04T13:48:55Z</time><extensions><speed>0.217561</speed><course>25.090488</course><hAcc>1.667521</hAcc><vAcc>0.825055</vAcc></extensions></trkpt>
      <trkpt lon="-2.253457" lat="53.126593"><ele>96.296066</ele><time>2022-03-04T13:48:56Z</time><extensions><speed>0.232561</speed><course>72.474312</course><hAcc>1.689306</hAcc><vAcc>0.825214</vAcc></extensions></trkpt>
      <trkpt lon="-2.253454" lat="53.126593"><ele>96.341301</ele><time>2022-03-04T13:48:57Z</time><extensions><speed>0.257731</speed><course>87.020302</course><hAcc>1.713120</hAcc><vAcc>0.825330</vAcc></extensions></trkpt>
      <trkpt lon="-2.253450" lat="53.126593"><ele>96.389160</ele><time>2022-03-04T13:48:58Z</time><extensions><speed>0.239681</speed><course>96.338966</course><hAcc>1.731338</hAcc><vAcc>0.825380</vAcc></extensions></trkpt>
      <trkpt lon="-2.253447" lat="53.126593"><ele>96.428719</ele><time>2022-03-04T13:48:59Z</time><extensions><speed>0.204322</speed><course>107.074471</course><hAcc>1.742893</hAcc><vAcc>0.825417</vAcc></extensions></trkpt>
      <trkpt lon="-2.253444" lat="53.126592"><ele>96.469757</ele><time>2022-03-04T13:49:00Z</time><extensions><speed>0.169923</speed><course>117.549522</course><hAcc>1.747880</hAcc><vAcc>0.825421</vAcc></extensions></trkpt>
      <trkpt lon="-2.253442" lat="53.126592"><ele>96.510834</ele><time>2022-03-04T13:49:01Z</time><extensions><speed>0.133264</speed><course>125.955368</course><hAcc>1.748737</hAcc><vAcc>0.825423</vAcc></extensions></trkpt>
      <trkpt lon="-2.253441" lat="53.126591"><ele>96.554672</ele><time>2022-03-04T13:49:02Z</time><extensions><speed>0.091452</speed><course>136.387650</course><hAcc>1.749270</hAcc><vAcc>0.825408</vAcc></extensions></trkpt>
      <trkpt lon="-2.253440" lat="53.126590"><ele>96.596970</ele><time>2022-03-04T13:49:03Z</time><extensions><speed>0.066909</speed><course>156.235275</course><hAcc>1.745440</hAcc><vAcc>0.825412</vAcc></extensions></trkpt>
      <trkpt lon="-2.253440" lat="53.126590"><ele>96.646179</ele><time>2022-03-04T13:49:04Z</time><extensions><speed>0.067100</speed><course>175.341156</course><hAcc>1.740958</hAcc><vAcc>0.825412</vAcc></extensions></trkpt>
      <trkpt lon="-2.253440" lat="53.126589"><ele>96.694420</ele><time>2022-03-04T13:49:05Z</time><extensions><speed>0.080236</speed><course>180.921478</course><hAcc>1.737915</hAcc><vAcc>0.825412</vAcc></extensions></trkpt>
      <trkpt lon="-2.253440" lat="53.126588"><ele>96.734344</ele><time>2022-03-04T13:49:06Z</time><extensions><speed>0.095839</speed><course>179.484329</course><hAcc>1.739917</hAcc><vAcc>0.825413</vAcc></extensions></trkpt>
      <trkpt lon="-2.253440" lat="53.126587"><ele>96.764381</ele><time>2022-03-04T13:49:07Z</time><extensions><speed>0.105083</speed><course>174.617950</course><hAcc>1.744916</hAcc><vAcc>0.825408</vAcc></extensions></trkpt>
      <trkpt lon="-2.253439" lat="53.126586"><ele>96.790443</ele><time>2022-03-04T13:49:08Z</time><extensions><speed>0.119041</speed><course>168.706238</course><hAcc>1.736636</hAcc><vAcc>0.825394</vAcc></extensions></trkpt>
      <trkpt lon="-2.253439" lat="53.126585"><ele>96.815544</ele><time>2022-03-04T13:49:09Z</time><extensions><speed>0.116499</speed><course>164.782791</course><hAcc>1.735663</hAcc><vAcc>0.825383</vAcc></extensions></trkpt>
      <trkpt lon="-2.253439" lat="53.126584"><ele>96.846367</ele><time>2022-03-04T13:49:10Z</time><extensions><speed>0.103518</speed><course>163.610229</course><hAcc>1.738216</hAcc><vAcc>0.825343</vAcc></extensions></trkpt>
      <trkpt lon="-2.253438" lat="53.126584"><ele>96.865417</ele><time>2022-03-04T13:49:11Z</time><extensions><speed>0.083765</speed><course>164.636505</course><hAcc>1.742143</hAcc><vAcc>0.825308</vAcc></extensions></trkpt>
      <trkpt lon="-2.253438" lat="53.126583"><ele>96.875565</ele><time>2022-03-04T13:49:12Z</time><extensions><speed>0.067037</speed><course>169.598480</course><hAcc>1.742146</hAcc><vAcc>0.825275</vAcc></extensions></trkpt>
      <trkpt lon="-2.253438" lat="53.126582"><ele>96.878021</ele><time>2022-03-04T13:49:13Z</time><extensions><speed>0.055411</speed><course>177.180984</course><hAcc>1.745270</hAcc><vAcc>0.825226</vAcc></extensions></trkpt>
      <trkpt lon="-2.253438" lat="53.126582"><ele>96.874985</ele><time>2022-03-04T13:49:14Z</time><extensions><speed>0.051016</speed><course>184.442551</course><hAcc>1.746095</hAcc><vAcc>0.825142</vAcc></extensions></trkpt>
      <trkpt lon="-2.253438" lat="53.126581"><ele>96.865761</ele><time>2022-03-04T13:49:15Z</time><extensions><speed>0.049599</speed><course>188.370804</course><hAcc>1.747269</hAcc><vAcc>0.825052</vAcc></extensions></trkpt>
      <trkpt lon="-2.253438" lat="53.126581"><ele>96.849701</ele><time>2022-03-04T13:49:16Z</time><extensions><speed>0.049731</speed><course>190.905472</course><hAcc>1.749930</hAcc><vAcc>0.824957</vAcc></extensions></trkpt>
      <trkpt lon="-2.253438" lat="53.126581"><ele>96.823128</ele><time>2022-03-04T13:49:17Z</time><extensions><speed>0.054767</speed><course>196.937546</course><hAcc>1.753708</hAcc><vAcc>0.824880</vAcc></extensions></trkpt>
      <trkpt lon="-2.253439" lat="53.126580"><ele>96.787750</ele><time>2022-03-04T13:49:18Z</time><extensions><speed>0.068027</speed><course>203.694321</course><hAcc>1.752668</hAcc><vAcc>0.824821</vAcc></extensions></trkpt>
      <trkpt lon="-2.253439" lat="53.126579"><ele>96.750259</ele><time>2022-03-04T13:49:20Z</time><extensions><speed>0.080341</speed><course>209.985947</course><hAcc>1.752576</hAcc><vAcc>0.824793</vAcc></extensions></trkpt>
      <trkpt lon="-2.253440" lat="53.126579"><ele>96.711136</ele><time>2022-03-04T13:49:21Z</time><extensions><speed>0.086593</speed><course>211.522369</course><hAcc>1.753715</hAcc><vAcc>0.824751</vAcc></extensions></trkpt>
      <trkpt lon="-2.253441" lat="53.126578"><ele>96.674561</ele><time>2022-03-04T13:49:22Z</time><extensions><speed>0.083747</speed><course>210.418823</course><hAcc>1.754250</hAcc><vAcc>0.824722</vAcc></extensions></trkpt>
      <trkpt lon="-2.253441" lat="53.126578"><ele>96.631569</ele><time>2022-03-04T13:49:23Z</time><extensions><speed>0.067661</speed><course>215.172928</course><hAcc>1.755188</hAcc><vAcc>0.824699</vAcc></extensions></trkpt>
      <trkpt lon="-2.253442" lat="53.126577"><ele>96.578812</ele><time>2022-03-04T13:49:24Z</time><extensions><speed>0.058013</speed><course>239.777786</course><hAcc>1.753598</hAcc><vAcc>0.824691</vAcc></extensions></trkpt>
      <trkpt lon="-2.253443" lat="53.126577"><ele>96.523743</ele><time>2022-03-04T13:49:25Z</time><extensions><speed>0.075800</speed><course>265.550018</course><hAcc>1.750097</hAcc><vAcc>0.824695</vAcc></extensions></trkpt>
      <trkpt lon="-2.253444" lat="53.126577"><ele>96.469772</ele><time>2022-03-04T13:49:26Z</time><extensions><speed>0.097655</speed><course>275.316223</course><hAcc>1.746080</hAcc><vAcc>0.824722</vAcc></extensions></trkpt>
      <trkpt lon="-2.253446" lat="53.126577"><ele>96.421432</ele><time>2022-03-04T13:49:27Z</time><extensions><speed>0.115146</speed><course>280.701263</course><hAcc>1.737222</hAcc><vAcc>0.824769</vAcc></extensions></trkpt>
      <trkpt lon="-2.253447" lat="53.126577"><ele>96.377449</ele><time>2022-03-04T13:49:28Z</time><extensions><speed>0.117051</speed><course>287.083771</course><hAcc>1.731785</hAcc><vAcc>0.824832</vAcc></extensions></trkpt>
      <trkpt lon="-2.253449" lat="53.126578"><ele>96.336136</ele><time>2022-03-04T13:49:29Z</time><extensions><speed>0.102230</speed><course>295.043121</course><hAcc>1.738826</hAcc><vAcc>0.824900</vAcc></extensions></trkpt>
      <trkpt lon="-2.253450" lat="53.126578"><ele>96.293510</ele><time>2022-03-04T13:49:30Z</time><extensions><speed>0.068677</speed><course>307.038666</course><hAcc>1.755258</hAcc><vAcc>0.824981</vAcc></extensions></trkpt>
      <trkpt lon="-2.253450" lat="53.126579"><ele>96.251450</ele><time>2022-03-04T13:49:31Z</time><extensions><speed>0.050986</speed><course>329.954926</course><hAcc>1.737666</hAcc><vAcc>0.825067</vAcc></extensions></trkpt>
      <trkpt lon="-2.253450" lat="53.126579"><ele>96.213577</ele><time>2022-03-04T13:49:32Z</time><extensions><speed>0.038686</speed><course>20.935484</course><hAcc>1.730810</hAcc><vAcc>0.825156</vAcc></extensions></trkpt>
      <trkpt lon="-2.253450" lat="53.126579"><ele>96.178459</ele><time>2022-03-04T13:49:33Z</time><extensions><speed>0.067270</speed><course>71.428467</course><hAcc>1.735242</hAcc><vAcc>0.825228</vAcc></extensions></trkpt>
      <trkpt lon="-2.253448" lat="53.126579"><ele>96.147804</ele><time>2022-03-04T13:49:34Z</time><extensions><speed>0.112663</speed><course>88.225815</course><hAcc>1.743799</hAcc><vAcc>0.825297</vAcc></extensions></trkpt>
      <trkpt lon="-2.253447" lat="53.126579"><ele>96.122345</ele><time>2022-03-04T13:49:35Z</time><extensions><speed>0.149049</speed><course>93.923538</course><hAcc>1.750241</hAcc><vAcc>0.825362</vAcc></extensions></trkpt>
      <trkpt lon="-2.253444" lat="53.126579"><ele>96.103638</ele><time>2022-03-04T13:49:36Z</time><extensions><speed>0.167528</speed><course>95.506538</course><hAcc>1.751923</hAcc><vAcc>0.825444</vAcc></extensions></trkpt>
      <trkpt lon="-2.253442" lat="53.126579"><ele>96.092003</ele><time>2022-03-04T13:49:37Z</time><extensions><speed>0.166536</speed><course>95.967010</course><hAcc>1.751173</hAcc><vAcc>0.825508</vAcc></extensions></trkpt>
      <trkpt lon="-2.253439" lat="53.126579"><ele>96.084206</ele><time>2022-03-04T13:49:38Z</time><extensions><speed>0.150767</speed><course>96.697273</course><hAcc>1.751125</hAcc><vAcc>0.825578</vAcc></extensions></trkpt>
      <trkpt lon="-2.253437" lat="53.126579"><ele>96.080002</ele><time>2022-03-04T13:49:39Z</time><extensions><speed>0.133154</speed><course>98.285500</course><hAcc>1.750013</hAcc><vAcc>0.825650</vAcc></extensions></trkpt>
      <trkpt lon="-2.253435" lat="53.126578"><ele>96.082306</ele><time>2022-03-04T13:49:40Z</time><extensions><speed>0.127202</speed><course>99.999207</course><hAcc>1.747794</hAcc><vAcc>0.825713</vAcc></extensions></trkpt>
      <trkpt lon="-2.253433" lat="53.126578"><ele>96.088173</ele><time>2022-03-04T13:49:41Z</time><extensions><speed>0.136155</speed><course>99.956352</course><hAcc>1.745181</hAcc><vAcc>0.825770</vAcc></extensions></trkpt>
      <trkpt lon="-2.253431" lat="53.126578"><ele>96.097832</ele><time>2022-03-04T13:49:42Z</time><extensions><speed>0.149499</speed><course>99.249504</course><hAcc>1.746609</hAcc><vAcc>0.825818</vAcc></extensions></trkpt>
      <trkpt lon="-2.253429" lat="53.126578"><ele>96.098526</ele><time>2022-03-04T13:49:43Z</time><extensions><speed>0.170816</speed><course>100.272270</course><hAcc>1.741190</hAcc><vAcc>0.825842</vAcc></extensions></trkpt>
      <trkpt lon="-2.253426" lat="53.126577"><ele>96.098465</ele><time>2022-03-04T13:49:44Z</time><extensions><speed>0.177507</speed><course>102.456314</course><hAcc>1.738097</hAcc><vAcc>0.825870</vAcc></extensions></trkpt>
      <trkpt lon="-2.253424" lat="53.126577"><ele>96.095634</ele><time>2022-03-04T13:49:45Z</time><extensions><speed>0.173644</speed><course>105.463295</course><hAcc>1.738432</hAcc><vAcc>0.825893</vAcc></extensions></trkpt>
      <trkpt lon="-2.253421" lat="53.126577"><ele>96.089401</ele><time>2022-03-04T13:49:46Z</time><extensions><speed>0.158823</speed><course>110.410271</course><hAcc>1.742964</hAcc><vAcc>0.825894</vAcc></extensions></trkpt>
      <trkpt lon="-2.253419" lat="53.126576"><ele>96.080063</ele><time>2022-03-04T13:49:47Z</time><extensions><speed>0.154418</speed><course>116.902664</course><hAcc>1.737836</hAcc><vAcc>0.825885</vAcc></extensions></trkpt>
      <trkpt lon="-2.253417" lat="53.126575"><ele>96.070274</ele><time>2022-03-04T13:49:48Z</time><extensions><speed>0.147085</speed><course>124.124596</course><hAcc>1.739105</hAcc><vAcc>0.825867</vAcc></extensions></trkpt>
      <trkpt lon="-2.253416" lat="53.126574"><ele>96.057434</ele><time>2022-03-04T13:49:49Z</time><extensions><speed>0.142160</speed><course>132.838104</course><hAcc>1.744473</hAcc><vAcc>0.825843</vAcc></extensions></trkpt>
      <trkpt lon="-2.253414" lat="53.126574"><ele>96.038902</ele><time>2022-03-04T13:49:50Z</time><extensions><speed>0.136532</speed><course>144.955338</course><hAcc>1.745723</hAcc><vAcc>0.825805</vAcc></extensions></trkpt>
      <trkpt lon="-2.253413" lat="53.126572"><ele>96.016495</ele><time>2022-03-04T13:49:51Z</time><extensions><speed>0.127289</speed><course>161.079056</course><hAcc>1.746200</hAcc><vAcc>0.825784</vAcc></extensions></trkpt>
      <trkpt lon="-2.253413" lat="53.126571"><ele>95.990852</ele><time>2022-03-04T13:49:52Z</time><extensions><speed>0.120660</speed><course>177.631424</course><hAcc>1.747814</hAcc><vAcc>0.825769</vAcc></extensions></trkpt>
      <trkpt lon="-2.253413" lat="53.126570"><ele>95.962502</ele><time>2022-03-04T13:49:53Z</time><extensions><speed>0.116703</speed><course>193.727341</course><hAcc>1.749241</hAcc><vAcc>0.825764</vAcc></extensions></trkpt>
      <trkpt lon="-2.253414" lat="53.126569"><ele>95.932213</ele><time>2022-03-04T13:49:54Z</time><extensions><speed>0.119168</speed><course>211.346298</course><hAcc>1.749610</hAcc><vAcc>0.825770</vAcc></extensions></trkpt>
      <trkpt lon="-2.253415" lat="53.126569"><ele>95.900826</ele><time>2022-03-04T13:49:55Z</time><extensions><speed>0.134489</speed><course>227.392883</course><hAcc>1.748029</hAcc><vAcc>0.825790</vAcc></extensions></trkpt>
      <trkpt lon="-2.253417" lat="53.126568"><ele>95.885101</ele><time>2022-03-04T13:49:56Z</time><extensions><speed>0.159746</speed><course>238.467590</course><hAcc>1.747377</hAcc><vAcc>0.825801</vAcc></extensions></trkpt>
      <trkpt lon="-2.253419" lat="53.126567"><ele>95.872124</ele><time>2022-03-04T13:49:57Z</time><extensions><speed>0.190399</speed><course>246.168488</course><hAcc>1.744456</hAcc><vAcc>0.825821</vAcc></extensions></trkpt>
      <trkpt lon="-2.253422" lat="53.126566"><ele>95.862465</ele><time>2022-03-04T13:49:58Z</time><extensions><speed>0.216524</speed><course>250.809875</course><hAcc>1.735818</hAcc><vAcc>0.825845</vAcc></extensions></trkpt>
      <trkpt lon="-2.253425" lat="53.126566"><ele>95.856567</ele><time>2022-03-04T13:49:59Z</time><extensions><speed>0.214085</speed><course>252.764160</course><hAcc>1.726509</hAcc><vAcc>0.825875</vAcc></extensions></trkpt>
      <trkpt lon="-2.253428" lat="53.126565"><ele>95.854729</ele><time>2022-03-04T13:50:00Z</time><extensions><speed>0.189569</speed><course>252.654129</course><hAcc>1.716151</hAcc><vAcc>0.825913</vAcc></extensions></trkpt>
      <trkpt lon="-2.253430" lat="53.126565"><ele>95.857162</ele><time>2022-03-04T13:50:01Z</time><extensions><speed>0.146093</speed><course>250.173370</course><hAcc>1.713792</hAcc><vAcc>0.825954</vAcc></extensions></trkpt>
      <trkpt lon="-2.253432" lat="53.126564"><ele>95.878136</ele><time>2022-03-04T13:50:02Z</time><extensions><speed>0.118255</speed><course>244.263763</course><hAcc>1.707390</hAcc><vAcc>0.825972</vAcc></extensions></trkpt>
      <trkpt lon="-2.253434" lat="53.126564"><ele>95.904694</ele><time>2022-03-04T13:50:03Z</time><extensions><speed>0.105775</speed><course>235.845215</course><hAcc>1.702108</hAcc><vAcc>0.825982</vAcc></extensions></trkpt>
      <trkpt lon="-2.253435" lat="53.126563"><ele>95.924774</ele><time>2022-03-04T13:50:04Z</time><extensions><speed>0.100677</speed><course>226.940277</course><hAcc>1.711006</hAcc><vAcc>0.825977</vAcc></extensions></trkpt>
      <trkpt lon="-2.253436" lat="53.126562"><ele>95.944717</ele><time>2022-03-04T13:50:05Z</time><extensions><speed>0.103461</speed><course>219.332275</course><hAcc>1.721161</hAcc><vAcc>0.825967</vAcc></extensions></trkpt>
      <trkpt lon="-2.253437" lat="53.126562"><ele>95.963013</ele><time>2022-03-04T13:50:06Z</time><extensions><speed>0.123033</speed><course>213.693436</course><hAcc>1.707084</hAcc><vAcc>0.825944</vAcc></extensions></trkpt>
      <trkpt lon="-2.253438" lat="53.126561"><ele>95.978485</ele><time>2022-03-04T13:50:07Z</time><extensions><speed>0.122136</speed><course>208.861465</course><hAcc>1.707126</hAcc><vAcc>0.825924</vAcc></extensions></trkpt>
      <trkpt lon="-2.253439" lat="53.126560"><ele>95.990158</ele><time>2022-03-04T13:50:08Z</time><extensions><speed>0.120278</speed><course>202.791092</course><hAcc>1.716214</hAcc><vAcc>0.825894</vAcc></extensions></trkpt>
      <trkpt lon="-2.253439" lat="53.126559"><ele>96.007072</ele><time>2022-03-04T13:50:09Z</time><extensions><speed>0.121299</speed><course>195.366455</course><hAcc>1.728227</hAcc><vAcc>0.825862</vAcc></extensions></trkpt>
      <trkpt lon="-2.253440" lat="53.126557"><ele>96.024704</ele><time>2022-03-04T13:50:10Z</time><extensions><speed>0.129918</speed><course>187.300201</course><hAcc>1.737475</hAcc><vAcc>0.825827</vAcc></extensions></trkpt>
      <trkpt lon="-2.253440" lat="53.126556"><ele>96.040672</ele><time>2022-03-04T13:50:11Z</time><extensions><speed>0.138742</speed><course>178.903168</course><hAcc>1.743269</hAcc><vAcc>0.825799</vAcc></extensions></trkpt>
      <trkpt lon="-2.253439" lat="53.126555"><ele>96.058006</ele><time>2022-03-04T13:50:11Z</time><extensions><speed>0.140449</speed><course>165.718933</course><hAcc>1.740853</hAcc><vAcc>0.825774</vAcc></extensions></trkpt>
      <trkpt lon="-2.253438" lat="53.126554"><ele>96.070641</ele><time>2022-03-04T13:50:12Z</time><extensions><speed>0.130550</speed><course>144.543716</course><hAcc>1.742712</hAcc><vAcc>0.825756</vAcc></extensions></trkpt>
      <trkpt lon="-2.253437" lat="53.126553"><ele>96.078194</ele><time>2022-03-04T13:50:13Z</time><extensions><speed>0.137506</speed><course>120.850792</course><hAcc>1.745105</hAcc><vAcc>0.825743</vAcc></extensions></trkpt>
      <trkpt lon="-2.253435" lat="53.126553"><ele>96.081703</ele><time>2022-03-04T13:50:14Z</time><extensions><speed>0.161411</speed><course>102.304420</course><hAcc>1.744978</hAcc><vAcc>0.825731</vAcc></extensions></trkpt>
      <trkpt lon="-2.253432" lat="53.126553"><ele>96.072021</ele><time>2022-03-04T13:50:15Z</time><extensions><speed>0.186458</speed><course>90.681725</course><hAcc>1.742314</hAcc><vAcc>0.825727</vAcc></extensions></trkpt>
      <trkpt lon="-2.253429" lat="53.126553"><ele>96.064621</ele><time>2022-03-04T13:50:16Z</time><extensions><speed>0.202624</speed><course>83.851952</course><hAcc>1.742314</hAcc><vAcc>0.825723</vAcc></extensions></trkpt>
      <trkpt lon="-2.253426" lat="53.126553"><ele>96.050140</ele><time>2022-03-04T13:50:17Z</time><extensions><speed>0.210238</speed><course>80.596703</course><hAcc>1.743188</hAcc><vAcc>0.825723</vAcc></extensions></trkpt>
      <trkpt lon="-2.253423" lat="53.126553"><ele>96.047340</ele><time>2022-03-04T13:50:18Z</time><extensions><speed>0.187709</speed><course>78.195663</course><hAcc>1.746991</hAcc><vAcc>0.825726</vAcc></extensions></trkpt>
      <trkpt lon="-2.253421" lat="53.126554"><ele>96.037163</ele><time>2022-03-04T13:50:19Z</time><extensions><speed>0.150532</speed><course>73.345436</course><hAcc>1.745594</hAcc><vAcc>0.825729</vAcc></extensions></trkpt>
      <trkpt lon="-2.253419" lat="53.126554"><ele>96.023376</ele><time>2022-03-04T13:50:20Z</time><extensions><speed>0.123608</speed><course>64.963806</course><hAcc>1.740103</hAcc><vAcc>0.825722</vAcc></extensions></trkpt>
      <trkpt lon="-2.253418" lat="53.126555"><ele>96.009804</ele><time>2022-03-04T13:50:21Z</time><extensions><speed>0.112134</speed><course>55.689632</course><hAcc>1.740794</hAcc><vAcc>0.825726</vAcc></extensions></trkpt>
      <trkpt lon="-2.253416" lat="53.126555"><ele>96.000999</ele><time>2022-03-04T13:50:22Z</time><extensions><speed>0.115776</speed><course>49.864506</course><hAcc>1.741777</hAcc><vAcc>0.825729</vAcc></extensions></trkpt>
      <trkpt lon="-2.253415" lat="53.126556"><ele>95.992210</ele><time>2022-03-04T13:50:23Z</time><extensions><speed>0.121306</speed><course>49.667618</course><hAcc>1.742003</hAcc><vAcc>0.825745</vAcc></extensions></trkpt>
      <trkpt lon="-2.253413" lat="53.126557"><ele>95.983871</ele><time>2022-03-04T13:50:24Z</time><extensions><speed>0.121231</speed><course>50.769070</course><hAcc>1.741420</hAcc><vAcc>0.825766</vAcc></extensions></trkpt>
      <trkpt lon="-2.253412" lat="53.126557"><ele>95.978333</ele><time>2022-03-04T13:50:25Z</time><extensions><speed>0.105205</speed><course>46.374195</course><hAcc>1.745476</hAcc><vAcc>0.825780</vAcc></extensions></trkpt>
      <trkpt lon="-2.253411" lat="53.126558"><ele>95.975746</ele><time>2022-03-04T13:50:26Z</time><extensions><speed>0.085818</speed><course>32.392921</course><hAcc>1.745693</hAcc><vAcc>0.825795</vAcc></extensions></trkpt>
      <trkpt lon="-2.253411" lat="53.126559"><ele>95.972328</ele><time>2022-03-04T13:50:27Z</time><extensions><speed>0.077603</speed><course>12.935023</course><hAcc>1.745168</hAcc><vAcc>0.825826</vAcc></extensions></trkpt>
      <trkpt lon="-2.253411" lat="53.126559"><ele>95.974503</ele><time>2022-03-04T13:50:28Z</time><extensions><speed>0.078953</speed><course>359.257660</course><hAcc>1.746570</hAcc><vAcc>0.825857</vAcc></extensions></trkpt>
      <trkpt lon="-2.253411" lat="53.126560"><ele>95.973343</ele><time>2022-03-04T13:50:29Z</time><extensions><speed>0.081091</speed><course>354.489319</course><hAcc>1.746264</hAcc><vAcc>0.825885</vAcc></extensions></trkpt>
      <trkpt lon="-2.253411" lat="53.126561"><ele>95.973572</ele><time>2022-03-04T13:50:30Z</time><extensions><speed>0.080296</speed><course>355.517670</course><hAcc>1.745317</hAcc><vAcc>0.825928</vAcc></extensions></trkpt>
      <trkpt lon="-2.253411" lat="53.126561"><ele>95.976463</ele><time>2022-03-04T13:50:31Z</time><extensions><speed>0.072748</speed><course>356.381073</course><hAcc>1.744449</hAcc><vAcc>0.825976</vAcc></extensions></trkpt>
      <trkpt lon="-2.253411" lat="53.126562"><ele>95.980499</ele><time>2022-03-04T13:50:32Z</time><extensions><speed>0.060010</speed><course>350.956116</course><hAcc>1.744242</hAcc><vAcc>0.826028</vAcc></extensions></trkpt>
      <trkpt lon="-2.253411" lat="53.126563"><ele>95.995682</ele><time>2022-03-04T13:50:33Z</time><extensions><speed>0.050043</speed><course>334.187286</course><hAcc>1.747645</hAcc><vAcc>0.826077</vAcc></extensions></trkpt>
      <trkpt lon="-2.253412" lat="53.126563"><ele>96.007362</ele><time>2022-03-04T13:50:34Z</time><extensions><speed>0.050722</speed><course>312.280823</course><hAcc>1.748747</hAcc><vAcc>0.826109</vAcc></extensions></trkpt>
      <trkpt lon="-2.253412" lat="53.126563"><ele>96.008736</ele><time>2022-03-04T13:50:35Z</time><extensions><speed>0.059253</speed><course>296.336700</course><hAcc>1.744766</hAcc><vAcc>0.826140</vAcc></extensions></trkpt>
      <trkpt lon="-2.253413" lat="53.126563"><ele>96.019104</ele><time>2022-03-04T13:50:36Z</time><extensions><speed>0.061660</speed><course>287.023529</course><hAcc>1.744298</hAcc><vAcc>0.826162</vAcc></extensions></trkpt>
      <trkpt lon="-2.253414" lat="53.126563"><ele>96.038147</ele><time>2022-03-04T13:50:37Z</time><extensions><speed>0.061200</speed><course>281.256531</course><hAcc>1.747202</hAcc><vAcc>0.826172</vAcc></extensions></trkpt>
      <trkpt lon="-2.253415" lat="53.126564"><ele>96.058800</ele><time>2022-03-04T13:50:38Z</time><extensions><speed>0.066549</speed><course>281.799194</course><hAcc>1.750411</hAcc><vAcc>0.826176</vAcc></extensions></trkpt>
      <trkpt lon="-2.253416" lat="53.126564"><ele>96.077431</ele><time>2022-03-04T13:50:39Z</time><extensions><speed>0.079947</speed><course>289.017029</course><hAcc>1.749833</hAcc><vAcc>0.826178</vAcc></extensions></trkpt>
      <trkpt lon="-2.253417" lat="53.126564"><ele>96.097473</ele><time>2022-03-04T13:50:40Z</time><extensions><speed>0.097437</speed><course>297.128021</course><hAcc>1.750064</hAcc><vAcc>0.826165</vAcc></extensions></trkpt>
      <trkpt lon="-2.253419" lat="53.126565"><ele>96.124580</ele><time>2022-03-04T13:50:41Z</time><extensions><speed>0.115454</speed><course>302.722076</course><hAcc>1.750616</hAcc><vAcc>0.826138</vAcc></extensions></trkpt>
      <trkpt lon="-2.253420" lat="53.126565"><ele>96.152252</ele><time>2022-03-04T13:50:42Z</time><extensions><speed>0.129645</speed><course>305.668427</course><hAcc>1.749870</hAcc><vAcc>0.826100</vAcc></extensions></trkpt>
      <trkpt lon="-2.253422" lat="53.126566"><ele>96.175819</ele><time>2022-03-04T13:50:43Z</time><extensions><speed>0.128272</speed><course>306.410492</course><hAcc>1.750693</hAcc><vAcc>0.826057</vAcc></extensions></trkpt>
      <trkpt lon="-2.253423" lat="53.126567"><ele>96.201263</ele><time>2022-03-04T13:50:44Z</time><extensions><speed>0.110898</speed><course>306.304657</course><hAcc>1.750356</hAcc><vAcc>0.826006</vAcc></extensions></trkpt>
      <trkpt lon="-2.253425" lat="53.126567"><ele>96.224274</ele><time>2022-03-04T13:50:45Z</time><extensions><speed>0.086588</speed><course>307.550507</course><hAcc>1.750528</hAcc><vAcc>0.825955</vAcc></extensions></trkpt>
      <trkpt lon="-2.253426" lat="53.126568"><ele>96.242989</ele><time>2022-03-04T13:50:46Z</time><extensions><speed>0.076292</speed><course>306.121094</course><hAcc>1.751156</hAcc><vAcc>0.825901</vAcc></extensions></trkpt>
      <trkpt lon="-2.253427" lat="53.126568"><ele>96.262917</ele><time>2022-03-04T13:50:47Z</time><extensions><speed>0.092470</speed><course>301.363525</course><hAcc>1.746841</hAcc><vAcc>0.825845</vAcc></extensions></trkpt>
      <trkpt lon="-2.253428" lat="53.126568"><ele>96.276337</ele><time>2022-03-04T13:50:48Z</time><extensions><speed>0.118457</speed><course>301.723389</course><hAcc>1.745704</hAcc><vAcc>0.825792</vAcc></extensions></trkpt>
      <trkpt lon="-2.253430" lat="53.126569"><ele>96.278587</ele><time>2022-03-04T13:50:49Z</time><extensions><speed>0.136186</speed><course>305.591858</course><hAcc>1.747994</hAcc><vAcc>0.825745</vAcc></extensions></trkpt>
      <trkpt lon="-2.253431" lat="53.126570"><ele>96.275024</ele><time>2022-03-04T13:50:50Z</time><extensions><speed>0.135808</speed><course>309.743317</course><hAcc>1.749113</hAcc><vAcc>0.825728</vAcc></extensions></trkpt>
      <trkpt lon="-2.253433" lat="53.126571"><ele>96.270576</ele><time>2022-03-04T13:50:51Z</time><extensions><speed>0.118237</speed><course>311.725739</course><hAcc>1.748578</hAcc><vAcc>0.825710</vAcc></extensions></trkpt>
      <trkpt lon="-2.253434" lat="53.126571"><ele>96.263298</ele><time>2022-03-04T13:50:52Z</time><extensions><speed>0.091267</speed><course>310.932281</course><hAcc>1.747453</hAcc><vAcc>0.825704</vAcc></extensions></trkpt>
      <trkpt lon="-2.253435" lat="53.126572"><ele>96.251823</ele><time>2022-03-04T13:50:53Z</time><extensions><speed>0.066422</speed><course>306.662659</course><hAcc>1.748017</hAcc><vAcc>0.825697</vAcc></extensions></trkpt>
      <trkpt lon="-2.253435" lat="53.126572"><ele>96.243111</ele><time>2022-03-04T13:50:54Z</time><extensions><speed>0.047998</speed><course>292.713257</course><hAcc>1.749369</hAcc><vAcc>0.825692</vAcc></extensions></trkpt>
      <trkpt lon="-2.253436" lat="53.126572"><ele>96.231888</ele><time>2022-03-04T13:50:55Z</time><extensions><speed>0.046790</speed><course>258.389618</course><hAcc>1.747841</hAcc><vAcc>0.825661</vAcc></extensions></trkpt>
      <trkpt lon="-2.253437" lat="53.126572"><ele>96.212967</ele><time>2022-03-04T13:50:56Z</time><extensions><speed>0.071416</speed><course>226.895569</course><hAcc>1.745292</hAcc><vAcc>0.825653</vAcc></extensions></trkpt>
      <trkpt lon="-2.253438" lat="53.126571"><ele>96.196754</ele><time>2022-03-04T13:50:57Z</time><extensions><speed>0.111541</speed><course>211.772339</course><hAcc>1.740143</hAcc><vAcc>0.825641</vAcc></extensions></trkpt>
      <trkpt lon="-2.253439" lat="53.126570"><ele>96.170998</ele><time>2022-03-04T13:50:58Z</time><extensions><speed>0.145888</speed><course>207.143890</course><hAcc>1.734595</hAcc><vAcc>0.825621</vAcc></extensions></trkpt>
      <trkpt lon="-2.253440" lat="53.126569"><ele>96.154449</ele><time>2022-03-04T13:50:59Z</time><extensions><speed>0.154705</speed><course>207.036209</course><hAcc>1.737498</hAcc><vAcc>0.825594</vAcc></extensions></trkpt>
      <trkpt lon="-2.253441" lat="53.126568"><ele>96.137482</ele><time>2022-03-04T13:51:00Z</time><extensions><speed>0.133515</speed><course>209.020996</course><hAcc>1.751989</hAcc><vAcc>0.825560</vAcc></extensions></trkpt>
      <trkpt lon="-2.253442" lat="53.126567"><ele>96.121864</ele><time>2022-03-04T13:51:01Z</time><extensions><speed>0.133687</speed><course>214.820465</course><hAcc>1.744546</hAcc><vAcc>0.825523</vAcc></extensions></trkpt>
      <trkpt lon="-2.253443" lat="53.126566"><ele>96.108955</ele><time>2022-03-04T13:51:02Z</time><extensions><speed>0.141954</speed><course>226.242752</course><hAcc>1.738529</hAcc><vAcc>0.825436</vAcc></extensions></trkpt>
      <trkpt lon="-2.253445" lat="53.126565"><ele>96.085396</ele><time>2022-03-04T13:51:03Z</time><extensions><speed>0.165737</speed><course>236.953674</course><hAcc>1.738176</hAcc><vAcc>0.825387</vAcc></extensions></trkpt>
      <trkpt lon="-2.253447" lat="53.126564"><ele>96.052979</ele><time>2022-03-04T13:51:04Z</time><extensions><speed>0.190498</speed><course>246.363846</course><hAcc>1.741745</hAcc><vAcc>0.825332</vAcc></extensions></trkpt>
      <trkpt lon="-2.253450" lat="53.126564"><ele>96.021721</ele><time>2022-03-04T13:51:05Z</time><extensions><speed>0.205137</speed><course>255.108734</course><hAcc>1.747157</hAcc><vAcc>0.825302</vAcc></extensions></trkpt>
      <trkpt lon="-2.253453" lat="53.126563"><ele>95.993561</ele><time>2022-03-04T13:51:06Z</time><extensions><speed>0.193892</speed><course>264.208221</course><hAcc>1.752166</hAcc><vAcc>0.825270</vAcc></extensions></trkpt>
      <trkpt lon="-2.253456" lat="53.126563"><ele>95.962677</ele><time>2022-03-04T13:51:07Z</time><extensions><speed>0.159232</speed><course>278.871368</course><hAcc>1.753949</hAcc><vAcc>0.825256</vAcc></extensions></trkpt>
      <trkpt lon="-2.253457" lat="53.126564"><ele>95.936714</ele><time>2022-03-04T13:51:08Z</time><extensions><speed>0.126662</speed><course>308.096680</course><hAcc>1.753401</hAcc><vAcc>0.825244</vAcc></extensions></trkpt>
      <trkpt lon="-2.253458" lat="53.126565"><ele>95.914825</ele><time>2022-03-04T13:51:09Z</time><extensions><speed>0.135517</speed><course>348.263641</course><hAcc>1.753255</hAcc><vAcc>0.825217</vAcc></extensions></trkpt>
      <trkpt lon="-2.253458" lat="53.126566"><ele>95.897217</ele><time>2022-03-04T13:51:10Z</time><extensions><speed>0.193263</speed><course>15.174990</course><hAcc>1.752281</hAcc><vAcc>0.825170</vAcc></extensions></trkpt>
      <trkpt lon="-2.253457" lat="53.126568"><ele>95.880226</ele><time>2022-03-04T13:51:11Z</time><extensions><speed>0.264494</speed><course>27.721294</course><hAcc>1.748080</hAcc><vAcc>0.825077</vAcc></extensions></trkpt>
      <trkpt lon="-2.253455" lat="53.126570"><ele>95.861710</ele><time>2022-03-04T13:51:12Z</time><extensions><speed>0.323379</speed><course>34.172306</course><hAcc>1.740564</hAcc><vAcc>0.825006</vAcc></extensions></trkpt>
      <trkpt lon="-2.253452" lat="53.126573"><ele>95.850288</ele><time>2022-03-04T13:51:13Z</time><extensions><speed>0.367300</speed><course>35.165676</course><hAcc>1.739406</hAcc><vAcc>0.824923</vAcc></extensions></trkpt>
      <trkpt lon="-2.253448" lat="53.126575"><ele>95.841042</ele><time>2022-03-04T13:51:14Z</time><extensions><speed>0.255913</speed><course>60.363068</course><hAcc>1.750624</hAcc><vAcc>0.824822</vAcc></extensions></trkpt>
      <trkpt lon="-2.253445" lat="53.126575"><ele>95.826607</ele><time>2022-03-04T13:51:15Z</time><extensions><speed>0.222002</speed><course>87.224731</course><hAcc>1.744624</hAcc><vAcc>0.824680</vAcc></extensions></trkpt>
      <trkpt lon="-2.253442" lat="53.126575"><ele>95.811333</ele><time>2022-03-04T13:51:16Z</time><extensions><speed>0.209044</speed><course>116.091797</course><hAcc>1.737924</hAcc><vAcc>0.824478</vAcc></extensions></trkpt>
      <trkpt lon="-2.253440" lat="53.126573"><ele>95.792946</ele><time>2022-03-04T13:51:17Z</time><extensions><speed>0.229563</speed><course>143.009491</course><hAcc>1.736390</hAcc><vAcc>0.824258</vAcc></extensions></trkpt>
      <trkpt lon="-2.253438" lat="53.126571"><ele>95.782234</ele><time>2022-03-04T13:51:18Z</time><extensions><speed>0.267152</speed><course>162.551575</course><hAcc>1.737354</hAcc><vAcc>0.823836</vAcc></extensions></trkpt>
      <trkpt lon="-2.253437" lat="53.126569"><ele>95.764336</ele><time>2022-03-04T13:51:19Z</time><extensions><speed>0.290529</speed><course>176.053970</course><hAcc>1.741353</hAcc><vAcc>0.823521</vAcc></extensions></trkpt>
      <trkpt lon="-2.253437" lat="53.126566"><ele>95.732918</ele><time>2022-03-04T13:51:20Z</time><extensions><speed>0.289091</speed><course>185.723160</course><hAcc>1.745462</hAcc><vAcc>0.823219</vAcc></extensions></trkpt>
      <trkpt lon="-2.253438" lat="53.126564"><ele>95.709373</ele><time>2022-03-04T13:51:21Z</time><extensions><speed>0.274335</speed><course>193.155334</course><hAcc>1.746259</hAcc><vAcc>0.822942</vAcc></extensions></trkpt>
      <trkpt lon="-2.253439" lat="53.126562"><ele>95.684311</ele><time>2022-03-04T13:51:22Z</time><extensions><speed>0.254306</speed><course>197.509415</course><hAcc>1.747804</hAcc><vAcc>0.822692</vAcc></extensions></trkpt>
      <trkpt lon="-2.253440" lat="53.126560"><ele>95.653915</ele><time>2022-03-04T13:51:23Z</time><extensions><speed>0.230588</speed><course>200.139938</course><hAcc>1.752423</hAcc><vAcc>0.822495</vAcc></extensions></trkpt>
      <trkpt lon="-2.253442" lat="53.126558"><ele>95.621101</ele><time>2022-03-04T13:51:24Z</time><extensions><speed>0.221340</speed><course>205.349380</course><hAcc>1.751869</hAcc><vAcc>0.822352</vAcc></extensions></trkpt>
      <trkpt lon="-2.253443" lat="53.126556"><ele>95.588791</ele><time>2022-03-04T13:51:26Z</time><extensions><speed>0.213295</speed><course>217.075531</course><hAcc>1.752436</hAcc><vAcc>0.822263</vAcc></extensions></trkpt>
      <trkpt lon="-2.253446" lat="53.126555"><ele>95.566780</ele><time>2022-03-04T13:51:27Z</time><extensions><speed>0.204084</speed><course>233.641724</course><hAcc>1.754672</hAcc><vAcc>0.822236</vAcc></extensions></trkpt>
      <trkpt lon="-2.253448" lat="53.126554"><ele>95.546112</ele><time>2022-03-04T13:51:28Z</time><extensions><speed>0.194599</speed><course>250.684402</course><hAcc>1.753065</hAcc><vAcc>0.822293</vAcc></extensions></trkpt>
      <trkpt lon="-2.253451" lat="53.126554"><ele>95.527458</ele><time>2022-03-04T13:51:29Z</time><extensions><speed>0.195269</speed><course>265.601135</course><hAcc>1.742227</hAcc><vAcc>0.822446</vAcc></extensions></trkpt>
      <trkpt lon="-2.253454" lat="53.126554"><ele>95.511505</ele><time>2022-03-04T13:51:30Z</time><extensions><speed>0.186343</speed><course>277.671204</course><hAcc>1.732619</hAcc><vAcc>0.822689</vAcc></extensions></trkpt>
      <trkpt lon="-2.253457" lat="53.126554"><ele>95.498955</ele><time>2022-03-04T13:51:31Z</time><extensions><speed>0.170440</speed><course>287.269073</course><hAcc>1.717104</hAcc><vAcc>0.823003</vAcc></extensions></trkpt>
      <trkpt lon="-2.253459" lat="53.126554"><ele>95.490334</ele><time>2022-03-04T13:51:32Z</time><extensions><speed>0.151499</speed><course>293.356445</course><hAcc>1.691504</hAcc><vAcc>0.823347</vAcc></extensions></trkpt>
      <trkpt lon="-2.253461" lat="53.126555"><ele>95.485863</ele><time>2022-03-04T13:51:33Z</time><extensions><speed>0.120091</speed><course>297.152924</course><hAcc>1.674171</hAcc><vAcc>0.823694</vAcc></extensions></trkpt>
      <trkpt lon="-2.253462" lat="53.126555"><ele>95.482193</ele><time>2022-03-04T13:51:34Z</time><extensions><speed>0.082068</speed><course>299.662109</course><hAcc>1.680558</hAcc><vAcc>0.831409</vAcc></extensions></trkpt>
      <trkpt lon="-2.253463" lat="53.126556"><ele>95.482285</ele><time>2022-03-04T13:51:35Z</time><extensions><speed>0.062142</speed><course>297.654175</course><hAcc>1.680888</hAcc><vAcc>0.843634</vAcc></extensions></trkpt>
      <trkpt lon="-2.253464" lat="53.126556"><ele>95.485718</ele><time>2022-03-04T13:51:36Z</time><extensions><speed>0.057131</speed><course>289.602753</course><hAcc>1.667850</hAcc><vAcc>0.862586</vAcc></extensions></trkpt>
      <trkpt lon="-2.253464" lat="53.126556"><ele>95.491867</ele><time>2022-03-04T13:51:37Z</time><extensions><speed>0.031296</speed><course>277.356598</course><hAcc>1.699202</hAcc><vAcc>0.891061</vAcc></extensions></trkpt>
      <trkpt lon="-2.253465" lat="53.126556"><ele>95.499969</ele><time>2022-03-04T13:51:38Z</time><extensions><speed>0.031307</speed><course>269.786652</course><hAcc>1.685109</hAcc><vAcc>0.932324</vAcc></extensions></trkpt>
      <trkpt lon="-2.253465" lat="53.126556"><ele>95.509354</ele><time>2022-03-04T13:51:39Z</time><extensions><speed>0.025802</speed><course>266.709839</course><hAcc>1.710468</hAcc><vAcc>0.989838</vAcc></extensions></trkpt>
      <trkpt lon="-2.253466" lat="53.126556"><ele>95.519485</ele><time>2022-03-04T13:51:40Z</time><extensions><speed>0.019040</speed><course>265.067047</course><hAcc>1.785753</hAcc><vAcc>1.066908</vAcc></extensions></trkpt>
      <trkpt lon="-2.253466" lat="53.126556"><ele>95.529999</ele><time>2022-03-04T13:51:41Z</time><extensions><speed>0.013043</speed><course>264.078125</course><hAcc>1.914103</hAcc><vAcc>1.166297</vAcc></extensions></trkpt>
      <trkpt lon="-2.253466" lat="53.126556"><ele>95.540634</ele><time>2022-03-04T13:51:42Z</time><extensions><speed>0.008645</speed><course>263.500092</course><hAcc>2.134057</hAcc><vAcc>1.289970</vAcc></extensions></trkpt>
      <trkpt lon="-2.253466" lat="53.126556"><ele>95.551277</ele><time>2022-03-04T13:51:43Z</time><extensions><speed>0.005923</speed><course>263.283386</course><hAcc>2.536826</hAcc><vAcc>1.438959</vAcc></extensions></trkpt>
    </trkseg>
  </trk>
</gpx>